<?xml version="1.0" encoding="UTF-8"?>
<gpx version="1.1" creator="https://www.youtrack.es" xsi:schemaLocation="http://www.topografix.com/GPX/1/1 http://www.topografix.com/GPX/1/1/gpx.xsd http://www.garmin.com/xmlschemas/GpxExtensions/v3 http://www.garmin.com/xmlschemas/GpxExtensionsv3.xsd http://www.garmin.com/xmlschemas/TrackPointExtension/v1 http://www.garmin.com/xmlschemas/TrackPointExtensionv1.xsd" xmlns:gpxtpx="http://www.garmin.com/xmlschemas/TrackPointExtension/v1" xmlns:gpxx="http://www.garmin.com/xmlschemas/GpxExtensions/v3" xmlns:xsi="http://www.w3.org/2001/XMLSchema-instance">
  <metadata>
    <author>
      <name>Francesc Gomarín</name>
      <email id="fgomarin" domain="gmail.com"/>
    </author>
    <link href="https://www.youtrack.es">
      <text>YouTrack.es</text>
    </link>
    <time>2026-05-08T10:27:55Z</time>
  </metadata>
  <trk>
    <src>https://www.youtrack.es</src>
    <link href="https://www.youtrack.es/ruta/14992-terrassa-le-verdon-sur-mer">
      <text>YouTrack.es</text>
    </link>
    <trkseg>
      <trkpt lat="41.571796" lon="2.004928">
        <ele>311.8</ele>
        <time>2020-08-12T14:18:07Z</time>
      </trkpt>
      <trkpt lat="41.571542" lon="2.00319">
        <ele>312.2</ele>
        <time>2020-08-12T14:18:31Z</time>
      </trkpt>
      <trkpt lat="41.572821" lon="2.002795">
        <ele>315.4</ele>
        <time>2020-08-12T14:18:45Z</time>
      </trkpt>
      <trkpt lat="41.572837" lon="2.002688">
        <ele>315.4</ele>
        <time>2020-08-12T14:18:46Z</time>
      </trkpt>
      <trkpt lat="41.573153" lon="2.0016">
        <ele>318.2</ele>
        <time>2020-08-12T14:19:02Z</time>
      </trkpt>
      <trkpt lat="41.572166" lon="2.001029">
        <ele>316.6</ele>
        <time>2020-08-12T14:19:17Z</time>
      </trkpt>
      <trkpt lat="41.571574" lon="2.000601">
        <ele>315.8</ele>
        <time>2020-08-12T14:19:25Z</time>
      </trkpt>
      <trkpt lat="41.570421" lon="1.999612">
        <ele>314.6</ele>
        <time>2020-08-12T14:19:43Z</time>
      </trkpt>
      <trkpt lat="41.570083" lon="1.999189">
        <ele>314.6</ele>
        <time>2020-08-12T14:19:50Z</time>
      </trkpt>
      <trkpt lat="41.569822" lon="1.998925">
        <ele>309.4</ele>
        <time>2020-08-12T14:19:54Z</time>
      </trkpt>
      <trkpt lat="41.569355" lon="1.998539">
        <ele>309.4</ele>
        <time>2020-08-12T14:20:01Z</time>
      </trkpt>
      <trkpt lat="41.568938" lon="1.998231">
        <ele>307.4</ele>
        <time>2020-08-12T14:20:07Z</time>
      </trkpt>
      <trkpt lat="41.56845" lon="1.997734">
        <ele>307.4</ele>
        <time>2020-08-12T14:20:15Z</time>
      </trkpt>
      <trkpt lat="41.568098" lon="1.997325">
        <ele>310.6</ele>
        <time>2020-08-12T14:20:22Z</time>
      </trkpt>
      <trkpt lat="41.567817" lon="1.996891">
        <ele>310.6</ele>
        <time>2020-08-12T14:20:27Z</time>
      </trkpt>
      <trkpt lat="41.567594" lon="1.9966">
        <ele>310.2</ele>
        <time>2020-08-12T14:20:31Z</time>
      </trkpt>
      <trkpt lat="41.56691" lon="1.995792">
        <ele>309.0</ele>
        <time>2020-08-12T14:20:43Z</time>
      </trkpt>
      <trkpt lat="41.566592" lon="1.995559">
        <ele>305.8</ele>
        <time>2020-08-12T14:20:48Z</time>
      </trkpt>
      <trkpt lat="41.566376" lon="1.995447">
        <ele>305.8</ele>
        <time>2020-08-12T14:20:51Z</time>
      </trkpt>
      <trkpt lat="41.566155" lon="1.995298">
        <ele>305.8</ele>
        <time>2020-08-12T14:20:54Z</time>
      </trkpt>
      <trkpt lat="41.565787" lon="1.994924">
        <ele>303.0</ele>
        <time>2020-08-12T14:21:00Z</time>
      </trkpt>
      <trkpt lat="41.565522" lon="1.994492">
        <ele>303.0</ele>
        <time>2020-08-12T14:21:06Z</time>
      </trkpt>
      <trkpt lat="41.565387" lon="1.994213">
        <ele>303.0</ele>
        <time>2020-08-12T14:21:09Z</time>
      </trkpt>
      <trkpt lat="41.565306" lon="1.993989">
        <ele>303.4</ele>
        <time>2020-08-12T14:21:12Z</time>
      </trkpt>
      <trkpt lat="41.565168" lon="1.993732">
        <ele>303.4</ele>
        <time>2020-08-12T14:21:15Z</time>
      </trkpt>
      <trkpt lat="41.564926" lon="1.993422">
        <ele>298.2</ele>
        <time>2020-08-12T14:21:19Z</time>
      </trkpt>
      <trkpt lat="41.564614" lon="1.993088">
        <ele>298.8</ele>
        <time>2020-08-12T14:21:25Z</time>
      </trkpt>
      <trkpt lat="41.564312" lon="1.992836">
        <ele>298.8</ele>
        <time>2020-08-12T14:21:29Z</time>
      </trkpt>
      <trkpt lat="41.563964" lon="1.992595">
        <ele>293.4</ele>
        <time>2020-08-12T14:21:34Z</time>
      </trkpt>
      <trkpt lat="41.563602" lon="1.99241">
        <ele>294.2</ele>
        <time>2020-08-12T14:21:40Z</time>
      </trkpt>
      <trkpt lat="41.563211" lon="1.992261">
        <ele>288.4</ele>
        <time>2020-08-12T14:21:45Z</time>
      </trkpt>
      <trkpt lat="41.562756" lon="1.992164">
        <ele>288.4</ele>
        <time>2020-08-12T14:21:51Z</time>
      </trkpt>
      <trkpt lat="41.562084" lon="1.992169">
        <ele>285.6</ele>
        <time>2020-08-12T14:22:00Z</time>
      </trkpt>
      <trkpt lat="41.561766" lon="1.992213">
        <ele>285.6</ele>
        <time>2020-08-12T14:22:04Z</time>
      </trkpt>
      <trkpt lat="41.561695" lon="1.991475">
        <ele>288.4</ele>
        <time>2020-08-12T14:22:11Z</time>
      </trkpt>
      <trkpt lat="41.561614" lon="1.991295">
        <ele>290.4</ele>
        <time>2020-08-12T14:22:14Z</time>
      </trkpt>
      <trkpt lat="41.561477" lon="1.991141">
        <ele>290.4</ele>
        <time>2020-08-12T14:22:16Z</time>
      </trkpt>
      <trkpt lat="41.560901" lon="1.992044">
        <ele>286.0</ele>
        <time>2020-08-12T14:22:28Z</time>
      </trkpt>
      <trkpt lat="41.560768" lon="1.992176">
        <ele>287.0</ele>
        <time>2020-08-12T14:22:30Z</time>
      </trkpt>
      <trkpt lat="41.560442" lon="1.992384">
        <ele>287.0</ele>
        <time>2020-08-12T14:22:35Z</time>
      </trkpt>
      <trkpt lat="41.559991" lon="1.992715">
        <ele>283.4</ele>
        <time>2020-08-12T14:22:41Z</time>
      </trkpt>
      <trkpt lat="41.559745" lon="1.992944">
        <ele>283.4</ele>
        <time>2020-08-12T14:22:45Z</time>
      </trkpt>
      <trkpt lat="41.559556" lon="1.993163">
        <ele>283.4</ele>
        <time>2020-08-12T14:22:49Z</time>
      </trkpt>
      <trkpt lat="41.557922" lon="1.992687">
        <ele>282.2</ele>
        <time>2020-08-12T14:23:26Z</time>
      </trkpt>
      <trkpt lat="41.555863" lon="1.992126">
        <ele>284.6</ele>
        <time>2020-08-12T14:24:14Z</time>
      </trkpt>
      <trkpt lat="41.556007" lon="1.991043">
        <ele>287.8</ele>
        <time>2020-08-12T14:24:25Z</time>
      </trkpt>
      <trkpt lat="41.556199" lon="1.989799">
        <ele>291.8</ele>
        <time>2020-08-12T14:24:37Z</time>
      </trkpt>
      <trkpt lat="41.556227" lon="1.989585">
        <ele>291.8</ele>
        <time>2020-08-12T14:24:39Z</time>
      </trkpt>
      <trkpt lat="41.556244" lon="1.989169">
        <ele>291.8</ele>
        <time>2020-08-12T14:24:43Z</time>
      </trkpt>
      <trkpt lat="41.556266" lon="1.988591">
        <ele>293.6</ele>
        <time>2020-08-12T14:24:47Z</time>
      </trkpt>
      <trkpt lat="41.556308" lon="1.988037">
        <ele>295.0</ele>
        <time>2020-08-12T14:24:51Z</time>
      </trkpt>
      <trkpt lat="41.556349" lon="1.987746">
        <ele>295.0</ele>
        <time>2020-08-12T14:24:54Z</time>
      </trkpt>
      <trkpt lat="41.556456" lon="1.987295">
        <ele>293.6</ele>
        <time>2020-08-12T14:24:57Z</time>
      </trkpt>
      <trkpt lat="41.556487" lon="1.987094">
        <ele>293.6</ele>
        <time>2020-08-12T14:24:59Z</time>
      </trkpt>
      <trkpt lat="41.55648" lon="1.986881">
        <ele>293.6</ele>
        <time>2020-08-12T14:25:00Z</time>
      </trkpt>
      <trkpt lat="41.556405" lon="1.986581">
        <ele>292.4</ele>
        <time>2020-08-12T14:25:03Z</time>
      </trkpt>
      <trkpt lat="41.55622" lon="1.986371">
        <ele>292.4</ele>
        <time>2020-08-12T14:25:06Z</time>
      </trkpt>
      <trkpt lat="41.555737" lon="1.985998">
        <ele>289.0</ele>
        <time>2020-08-12T14:25:12Z</time>
      </trkpt>
      <trkpt lat="41.555573" lon="1.985784">
        <ele>287.4</ele>
        <time>2020-08-12T14:25:15Z</time>
      </trkpt>
      <trkpt lat="41.555437" lon="1.985417">
        <ele>287.4</ele>
        <time>2020-08-12T14:25:18Z</time>
      </trkpt>
      <trkpt lat="41.555185" lon="1.984484">
        <ele>284.8</ele>
        <time>2020-08-12T14:25:27Z</time>
      </trkpt>
      <trkpt lat="41.555101" lon="1.983913">
        <ele>281.6</ele>
        <time>2020-08-12T14:25:32Z</time>
      </trkpt>
      <trkpt lat="41.555003" lon="1.982698">
        <ele>279.4</ele>
        <time>2020-08-12T14:25:42Z</time>
      </trkpt>
      <trkpt lat="41.554973" lon="1.98139">
        <ele>273.6</ele>
        <time>2020-08-12T14:25:54Z</time>
      </trkpt>
      <trkpt lat="41.555008" lon="1.980571">
        <ele>276.0</ele>
        <time>2020-08-12T14:26:01Z</time>
      </trkpt>
      <trkpt lat="41.554961" lon="1.980134">
        <ele>274.0</ele>
        <time>2020-08-12T14:26:02Z</time>
      </trkpt>
      <trkpt lat="41.55495" lon="1.979473">
        <ele>272.4</ele>
        <time>2020-08-12T14:26:04Z</time>
      </trkpt>
      <trkpt lat="41.555039" lon="1.978812">
        <ele>264.0</ele>
        <time>2020-08-12T14:26:07Z</time>
      </trkpt>
      <trkpt lat="41.555182" lon="1.97812">
        <ele>257.2</ele>
        <time>2020-08-12T14:26:09Z</time>
      </trkpt>
      <trkpt lat="41.555374" lon="1.97741">
        <ele>250.8</ele>
        <time>2020-08-12T14:26:12Z</time>
      </trkpt>
      <trkpt lat="41.555525" lon="1.976961">
        <ele>250.8</ele>
        <time>2020-08-12T14:26:13Z</time>
      </trkpt>
      <trkpt lat="41.555696" lon="1.976522">
        <ele>248.8</ele>
        <time>2020-08-12T14:26:15Z</time>
      </trkpt>
      <trkpt lat="41.555889" lon="1.976086">
        <ele>252.2</ele>
        <time>2020-08-12T14:26:17Z</time>
      </trkpt>
      <trkpt lat="41.556076" lon="1.975709">
        <ele>255.0</ele>
        <time>2020-08-12T14:26:18Z</time>
      </trkpt>
      <trkpt lat="41.556308" lon="1.975292">
        <ele>255.0</ele>
        <time>2020-08-12T14:26:20Z</time>
      </trkpt>
      <trkpt lat="41.556529" lon="1.97494">
        <ele>256.2</ele>
        <time>2020-08-12T14:26:21Z</time>
      </trkpt>
      <trkpt lat="41.556836" lon="1.974499">
        <ele>253.4</ele>
        <time>2020-08-12T14:26:23Z</time>
      </trkpt>
      <trkpt lat="41.558519" lon="1.972281">
        <ele>246.2</ele>
        <time>2020-08-12T14:26:34Z</time>
      </trkpt>
      <trkpt lat="41.558895" lon="1.971745">
        <ele>246.2</ele>
        <time>2020-08-12T14:26:36Z</time>
      </trkpt>
      <trkpt lat="41.559265" lon="1.971161">
        <ele>256.8</ele>
        <time>2020-08-12T14:26:39Z</time>
      </trkpt>
      <trkpt lat="41.559473" lon="1.970803">
        <ele>259.4</ele>
        <time>2020-08-12T14:26:40Z</time>
      </trkpt>
      <trkpt lat="41.559903" lon="1.96999">
        <ele>258.0</ele>
        <time>2020-08-12T14:26:44Z</time>
      </trkpt>
      <trkpt lat="41.560726" lon="1.968238">
        <ele>273.0</ele>
        <time>2020-08-12T14:26:50Z</time>
      </trkpt>
      <trkpt lat="41.560981" lon="1.967762">
        <ele>276.0</ele>
        <time>2020-08-12T14:26:52Z</time>
      </trkpt>
      <trkpt lat="41.561449" lon="1.967027">
        <ele>280.4</ele>
        <time>2020-08-12T14:26:56Z</time>
      </trkpt>
      <trkpt lat="41.56249" lon="1.965477">
        <ele>282.2</ele>
        <time>2020-08-12T14:27:02Z</time>
      </trkpt>
      <trkpt lat="41.56278" lon="1.964841">
        <ele>281.2</ele>
        <time>2020-08-12T14:27:05Z</time>
      </trkpt>
      <trkpt lat="41.563061" lon="1.964028">
        <ele>281.2</ele>
        <time>2020-08-12T14:27:08Z</time>
      </trkpt>
      <trkpt lat="41.563157" lon="1.963633">
        <ele>281.2</ele>
        <time>2020-08-12T14:27:09Z</time>
      </trkpt>
      <trkpt lat="41.563244" lon="1.963184">
        <ele>281.0</ele>
        <time>2020-08-12T14:27:11Z</time>
      </trkpt>
      <trkpt lat="41.563333" lon="1.962321">
        <ele>279.4</ele>
        <time>2020-08-12T14:27:14Z</time>
      </trkpt>
      <trkpt lat="41.563334" lon="1.961618">
        <ele>281.2</ele>
        <time>2020-08-12T14:27:16Z</time>
      </trkpt>
      <trkpt lat="41.56331" lon="1.961122">
        <ele>278.0</ele>
        <time>2020-08-12T14:27:18Z</time>
      </trkpt>
      <trkpt lat="41.563166" lon="1.959594">
        <ele>281.8</ele>
        <time>2020-08-12T14:27:23Z</time>
      </trkpt>
      <trkpt lat="41.563155" lon="1.959186">
        <ele>281.8</ele>
        <time>2020-08-12T14:27:24Z</time>
      </trkpt>
      <trkpt lat="41.563177" lon="1.958687">
        <ele>283.6</ele>
        <time>2020-08-12T14:27:26Z</time>
      </trkpt>
      <trkpt lat="41.563218" lon="1.958331">
        <ele>288.8</ele>
        <time>2020-08-12T14:27:27Z</time>
      </trkpt>
      <trkpt lat="41.563278" lon="1.95798">
        <ele>288.8</ele>
        <time>2020-08-12T14:27:28Z</time>
      </trkpt>
      <trkpt lat="41.563375" lon="1.957588">
        <ele>293.2</ele>
        <time>2020-08-12T14:27:30Z</time>
      </trkpt>
      <trkpt lat="41.563498" lon="1.957203">
        <ele>299.2</ele>
        <time>2020-08-12T14:27:31Z</time>
      </trkpt>
      <trkpt lat="41.563628" lon="1.956867">
        <ele>299.2</ele>
        <time>2020-08-12T14:27:32Z</time>
      </trkpt>
      <trkpt lat="41.563996" lon="1.956135">
        <ele>304.8</ele>
        <time>2020-08-12T14:27:35Z</time>
      </trkpt>
      <trkpt lat="41.564974" lon="1.954391">
        <ele>298.8</ele>
        <time>2020-08-12T14:27:42Z</time>
      </trkpt>
      <trkpt lat="41.565149" lon="1.954046">
        <ele>297.6</ele>
        <time>2020-08-12T14:27:44Z</time>
      </trkpt>
      <trkpt lat="41.565332" lon="1.953631">
        <ele>297.6</ele>
        <time>2020-08-12T14:27:45Z</time>
      </trkpt>
      <trkpt lat="41.56553" lon="1.953064">
        <ele>290.2</ele>
        <time>2020-08-12T14:27:47Z</time>
      </trkpt>
      <trkpt lat="41.565693" lon="1.952427">
        <ele>283.6</ele>
        <time>2020-08-12T14:27:50Z</time>
      </trkpt>
      <trkpt lat="41.565797" lon="1.951857">
        <ele>283.6</ele>
        <time>2020-08-12T14:27:52Z</time>
      </trkpt>
      <trkpt lat="41.565841" lon="1.951458">
        <ele>297.4</ele>
        <time>2020-08-12T14:27:53Z</time>
      </trkpt>
      <trkpt lat="41.565864" lon="1.951045">
        <ele>297.4</ele>
        <time>2020-08-12T14:27:54Z</time>
      </trkpt>
      <trkpt lat="41.56586" lon="1.950153">
        <ele>303.4</ele>
        <time>2020-08-12T14:27:57Z</time>
      </trkpt>
      <trkpt lat="41.565805" lon="1.949225">
        <ele>290.6</ele>
        <time>2020-08-12T14:28:01Z</time>
      </trkpt>
      <trkpt lat="41.565629" lon="1.947347">
        <ele>301.0</ele>
        <time>2020-08-12T14:28:07Z</time>
      </trkpt>
      <trkpt lat="41.565556" lon="1.946728">
        <ele>301.0</ele>
        <time>2020-08-12T14:28:09Z</time>
      </trkpt>
      <trkpt lat="41.56536" lon="1.945334">
        <ele>310.0</ele>
        <time>2020-08-12T14:28:14Z</time>
      </trkpt>
      <trkpt lat="41.565133" lon="1.943923">
        <ele>314.4</ele>
        <time>2020-08-12T14:28:18Z</time>
      </trkpt>
      <trkpt lat="41.564818" lon="1.94212">
        <ele>294.2</ele>
        <time>2020-08-12T14:28:25Z</time>
      </trkpt>
      <trkpt lat="41.564675" lon="1.941122">
        <ele>297.8</ele>
        <time>2020-08-12T14:28:28Z</time>
      </trkpt>
      <trkpt lat="41.56464" lon="1.940512">
        <ele>305.6</ele>
        <time>2020-08-12T14:28:30Z</time>
      </trkpt>
      <trkpt lat="41.564648" lon="1.940091">
        <ele>305.6</ele>
        <time>2020-08-12T14:28:31Z</time>
      </trkpt>
      <trkpt lat="41.564721" lon="1.939486">
        <ele>310.0</ele>
        <time>2020-08-12T14:28:33Z</time>
      </trkpt>
      <trkpt lat="41.564806" lon="1.939097">
        <ele>307.6</ele>
        <time>2020-08-12T14:28:35Z</time>
      </trkpt>
      <trkpt lat="41.564919" lon="1.938719">
        <ele>307.6</ele>
        <time>2020-08-12T14:28:36Z</time>
      </trkpt>
      <trkpt lat="41.565142" lon="1.938176">
        <ele>316.0</ele>
        <time>2020-08-12T14:28:38Z</time>
      </trkpt>
      <trkpt lat="41.565419" lon="1.937693">
        <ele>316.0</ele>
        <time>2020-08-12T14:28:40Z</time>
      </trkpt>
      <trkpt lat="41.565643" lon="1.937387">
        <ele>315.2</ele>
        <time>2020-08-12T14:28:42Z</time>
      </trkpt>
      <trkpt lat="41.565906" lon="1.937101">
        <ele>323.0</ele>
        <time>2020-08-12T14:28:43Z</time>
      </trkpt>
      <trkpt lat="41.566257" lon="1.936796">
        <ele>323.0</ele>
        <time>2020-08-12T14:28:45Z</time>
      </trkpt>
      <trkpt lat="41.567412" lon="1.935981">
        <ele>332.6</ele>
        <time>2020-08-12T14:28:51Z</time>
      </trkpt>
      <trkpt lat="41.567821" lon="1.935641">
        <ele>345.2</ele>
        <time>2020-08-12T14:28:53Z</time>
      </trkpt>
      <trkpt lat="41.568052" lon="1.935412">
        <ele>345.2</ele>
        <time>2020-08-12T14:28:54Z</time>
      </trkpt>
      <trkpt lat="41.56829" lon="1.935141">
        <ele>345.2</ele>
        <time>2020-08-12T14:28:56Z</time>
      </trkpt>
      <trkpt lat="41.568613" lon="1.934688">
        <ele>362.2</ele>
        <time>2020-08-12T14:28:58Z</time>
      </trkpt>
      <trkpt lat="41.568891" lon="1.9342">
        <ele>362.2</ele>
        <time>2020-08-12T14:29:00Z</time>
      </trkpt>
      <trkpt lat="41.56913" lon="1.933666">
        <ele>376.6</ele>
        <time>2020-08-12T14:29:02Z</time>
      </trkpt>
      <trkpt lat="41.569324" lon="1.933081">
        <ele>377.6</ele>
        <time>2020-08-12T14:29:04Z</time>
      </trkpt>
      <trkpt lat="41.569415" lon="1.932727">
        <ele>377.6</ele>
        <time>2020-08-12T14:29:05Z</time>
      </trkpt>
      <trkpt lat="41.569506" lon="1.932256">
        <ele>376.4</ele>
        <time>2020-08-12T14:29:07Z</time>
      </trkpt>
      <trkpt lat="41.569572" lon="1.931605">
        <ele>369.0</ele>
        <time>2020-08-12T14:29:09Z</time>
      </trkpt>
      <trkpt lat="41.569588" lon="1.93102">
        <ele>369.0</ele>
        <time>2020-08-12T14:29:11Z</time>
      </trkpt>
      <trkpt lat="41.569574" lon="1.930498">
        <ele>361.6</ele>
        <time>2020-08-12T14:29:13Z</time>
      </trkpt>
      <trkpt lat="41.569522" lon="1.929848">
        <ele>357.6</ele>
        <time>2020-08-12T14:29:15Z</time>
      </trkpt>
      <trkpt lat="41.569397" lon="1.928853">
        <ele>356.4</ele>
        <time>2020-08-12T14:29:18Z</time>
      </trkpt>
      <trkpt lat="41.569249" lon="1.927825">
        <ele>354.2</ele>
        <time>2020-08-12T14:29:22Z</time>
      </trkpt>
      <trkpt lat="41.569187" lon="1.927102">
        <ele>349.4</ele>
        <time>2020-08-12T14:29:24Z</time>
      </trkpt>
      <trkpt lat="41.569172" lon="1.926637">
        <ele>341.4</ele>
        <time>2020-08-12T14:29:26Z</time>
      </trkpt>
      <trkpt lat="41.56918" lon="1.926208">
        <ele>341.4</ele>
        <time>2020-08-12T14:29:27Z</time>
      </trkpt>
      <trkpt lat="41.569245" lon="1.925387">
        <ele>331.0</ele>
        <time>2020-08-12T14:29:30Z</time>
      </trkpt>
      <trkpt lat="41.569306" lon="1.92499">
        <ele>317.2</ele>
        <time>2020-08-12T14:29:31Z</time>
      </trkpt>
      <trkpt lat="41.569423" lon="1.924419">
        <ele>317.2</ele>
        <time>2020-08-12T14:29:33Z</time>
      </trkpt>
      <trkpt lat="41.569533" lon="1.924003">
        <ele>302.2</ele>
        <time>2020-08-12T14:29:35Z</time>
      </trkpt>
      <trkpt lat="41.569694" lon="1.923507">
        <ele>302.2</ele>
        <time>2020-08-12T14:29:37Z</time>
      </trkpt>
      <trkpt lat="41.569961" lon="1.922849">
        <ele>290.4</ele>
        <time>2020-08-12T14:29:39Z</time>
      </trkpt>
      <trkpt lat="41.57018" lon="1.922413">
        <ele>297.4</ele>
        <time>2020-08-12T14:29:41Z</time>
      </trkpt>
      <trkpt lat="41.570382" lon="1.922057">
        <ele>297.4</ele>
        <time>2020-08-12T14:29:43Z</time>
      </trkpt>
      <trkpt lat="41.571977" lon="1.919596">
        <ele>316.6</ele>
        <time>2020-08-12T14:29:53Z</time>
      </trkpt>
      <trkpt lat="41.5723" lon="1.919126">
        <ele>337.8</ele>
        <time>2020-08-12T14:29:56Z</time>
      </trkpt>
      <trkpt lat="41.572521" lon="1.918856">
        <ele>323.0</ele>
        <time>2020-08-12T14:29:57Z</time>
      </trkpt>
      <trkpt lat="41.572763" lon="1.918615">
        <ele>323.0</ele>
        <time>2020-08-12T14:30:01Z</time>
      </trkpt>
      <trkpt lat="41.572763" lon="1.918615">
        <ele>323.0</ele>
        <time>2020-08-12T14:30:01Z</time>
      </trkpt>
      <trkpt lat="41.573028" lon="1.918414">
        <ele>323.0</ele>
        <time>2020-08-12T14:30:02Z</time>
      </trkpt>
      <trkpt lat="41.573322" lon="1.918247">
        <ele>342.4</ele>
        <time>2020-08-12T14:30:04Z</time>
      </trkpt>
      <trkpt lat="41.573597" lon="1.918138">
        <ele>323.0</ele>
        <time>2020-08-12T14:30:05Z</time>
      </trkpt>
      <trkpt lat="41.573921" lon="1.91806">
        <ele>323.0</ele>
        <time>2020-08-12T14:30:07Z</time>
      </trkpt>
      <trkpt lat="41.574213" lon="1.918037">
        <ele>321.6</ele>
        <time>2020-08-12T14:30:08Z</time>
      </trkpt>
      <trkpt lat="41.574491" lon="1.918053">
        <ele>321.6</ele>
        <time>2020-08-12T14:30:09Z</time>
      </trkpt>
      <trkpt lat="41.574779" lon="1.918103">
        <ele>321.6</ele>
        <time>2020-08-12T14:30:10Z</time>
      </trkpt>
      <trkpt lat="41.575372" lon="1.91826">
        <ele>327.8</ele>
        <time>2020-08-12T14:30:13Z</time>
      </trkpt>
      <trkpt lat="41.575963" lon="1.91838">
        <ele>306.6</ele>
        <time>2020-08-12T14:30:16Z</time>
      </trkpt>
      <trkpt lat="41.576331" lon="1.918392">
        <ele>306.6</ele>
        <time>2020-08-12T14:30:17Z</time>
      </trkpt>
      <trkpt lat="41.578124" lon="1.918362">
        <ele>308.0</ele>
        <time>2020-08-12T14:30:25Z</time>
      </trkpt>
      <trkpt lat="41.578825" lon="1.918535">
        <ele>315.0</ele>
        <time>2020-08-12T14:30:28Z</time>
      </trkpt>
      <trkpt lat="41.58044" lon="1.919204">
        <ele>319.6</ele>
        <time>2020-08-12T14:30:35Z</time>
      </trkpt>
      <trkpt lat="41.582074" lon="1.919683">
        <ele>335.8</ele>
        <time>2020-08-12T14:30:43Z</time>
      </trkpt>
      <trkpt lat="41.582801" lon="1.919676">
        <ele>347.6</ele>
        <time>2020-08-12T14:30:46Z</time>
      </trkpt>
      <trkpt lat="41.583395" lon="1.919444">
        <ele>347.0</ele>
        <time>2020-08-12T14:30:49Z</time>
      </trkpt>
      <trkpt lat="41.584006" lon="1.918868">
        <ele>351.4</ele>
        <time>2020-08-12T14:30:52Z</time>
      </trkpt>
      <trkpt lat="41.584356" lon="1.91848">
        <ele>336.6</ele>
        <time>2020-08-12T14:30:54Z</time>
      </trkpt>
      <trkpt lat="41.584674" lon="1.91809">
        <ele>336.2</ele>
        <time>2020-08-12T14:30:56Z</time>
      </trkpt>
      <trkpt lat="41.585156" lon="1.917457">
        <ele>329.6</ele>
        <time>2020-08-12T14:30:59Z</time>
      </trkpt>
      <trkpt lat="41.585621" lon="1.916805">
        <ele>329.6</ele>
        <time>2020-08-12T14:31:02Z</time>
      </trkpt>
      <trkpt lat="41.586034" lon="1.916149">
        <ele>335.2</ele>
        <time>2020-08-12T14:31:04Z</time>
      </trkpt>
      <trkpt lat="41.586226" lon="1.915792">
        <ele>340.8</ele>
        <time>2020-08-12T14:31:06Z</time>
      </trkpt>
      <trkpt lat="41.586536" lon="1.915105">
        <ele>340.8</ele>
        <time>2020-08-12T14:31:08Z</time>
      </trkpt>
      <trkpt lat="41.58665" lon="1.91478">
        <ele>347.2</ele>
        <time>2020-08-12T14:31:10Z</time>
      </trkpt>
      <trkpt lat="41.58687" lon="1.914062">
        <ele>351.2</ele>
        <time>2020-08-12T14:31:12Z</time>
      </trkpt>
      <trkpt lat="41.587228" lon="1.912667">
        <ele>359.0</ele>
        <time>2020-08-12T14:31:17Z</time>
      </trkpt>
      <trkpt lat="41.587608" lon="1.911436">
        <ele>359.0</ele>
        <time>2020-08-12T14:31:21Z</time>
      </trkpt>
      <trkpt lat="41.588382" lon="1.90976">
        <ele>357.8</ele>
        <time>2020-08-12T14:31:28Z</time>
      </trkpt>
      <trkpt lat="41.588745" lon="1.909233">
        <ele>357.8</ele>
        <time>2020-08-12T14:31:30Z</time>
      </trkpt>
      <trkpt lat="41.589093" lon="1.90881">
        <ele>360.2</ele>
        <time>2020-08-12T14:31:32Z</time>
      </trkpt>
      <trkpt lat="41.58946" lon="1.908461">
        <ele>352.4</ele>
        <time>2020-08-12T14:31:34Z</time>
      </trkpt>
      <trkpt lat="41.589835" lon="1.908208">
        <ele>348.4</ele>
        <time>2020-08-12T14:31:36Z</time>
      </trkpt>
      <trkpt lat="41.590421" lon="1.907883">
        <ele>339.8</ele>
        <time>2020-08-12T14:31:38Z</time>
      </trkpt>
      <trkpt lat="41.59118" lon="1.907609">
        <ele>341.0</ele>
        <time>2020-08-12T14:31:42Z</time>
      </trkpt>
      <trkpt lat="41.591832" lon="1.907351">
        <ele>334.6</ele>
        <time>2020-08-12T14:31:45Z</time>
      </trkpt>
      <trkpt lat="41.592506" lon="1.906875">
        <ele>335.2</ele>
        <time>2020-08-12T14:31:48Z</time>
      </trkpt>
      <trkpt lat="41.592804" lon="1.906604">
        <ele>328.6</ele>
        <time>2020-08-12T14:31:50Z</time>
      </trkpt>
      <trkpt lat="41.593101" lon="1.906259">
        <ele>328.6</ele>
        <time>2020-08-12T14:31:51Z</time>
      </trkpt>
      <trkpt lat="41.593361" lon="1.905912">
        <ele>328.6</ele>
        <time>2020-08-12T14:31:53Z</time>
      </trkpt>
      <trkpt lat="41.593583" lon="1.905545">
        <ele>322.4</ele>
        <time>2020-08-12T14:31:55Z</time>
      </trkpt>
      <trkpt lat="41.593747" lon="1.905242">
        <ele>322.4</ele>
        <time>2020-08-12T14:31:56Z</time>
      </trkpt>
      <trkpt lat="41.594004" lon="1.904621">
        <ele>318.6</ele>
        <time>2020-08-12T14:31:58Z</time>
      </trkpt>
      <trkpt lat="41.594147" lon="1.904189">
        <ele>318.6</ele>
        <time>2020-08-12T14:32:00Z</time>
      </trkpt>
      <trkpt lat="41.594545" lon="1.902649">
        <ele>311.6</ele>
        <time>2020-08-12T14:32:05Z</time>
      </trkpt>
      <trkpt lat="41.594706" lon="1.902178">
        <ele>309.6</ele>
        <time>2020-08-12T14:32:07Z</time>
      </trkpt>
      <trkpt lat="41.594929" lon="1.901679">
        <ele>309.6</ele>
        <time>2020-08-12T14:32:08Z</time>
      </trkpt>
      <trkpt lat="41.595211" lon="1.901205">
        <ele>314.2</ele>
        <time>2020-08-12T14:32:10Z</time>
      </trkpt>
      <trkpt lat="41.595392" lon="1.900958">
        <ele>314.2</ele>
        <time>2020-08-12T14:32:11Z</time>
      </trkpt>
      <trkpt lat="41.595627" lon="1.900688">
        <ele>308.2</ele>
        <time>2020-08-12T14:32:13Z</time>
      </trkpt>
      <trkpt lat="41.595916" lon="1.90041">
        <ele>309.4</ele>
        <time>2020-08-12T14:32:14Z</time>
      </trkpt>
      <trkpt lat="41.596322" lon="1.900106">
        <ele>309.4</ele>
        <time>2020-08-12T14:32:16Z</time>
      </trkpt>
      <trkpt lat="41.596727" lon="1.89989">
        <ele>297.6</ele>
        <time>2020-08-12T14:32:18Z</time>
      </trkpt>
      <trkpt lat="41.597934" lon="1.899449">
        <ele>296.0</ele>
        <time>2020-08-12T14:32:24Z</time>
      </trkpt>
      <trkpt lat="41.598301" lon="1.899278">
        <ele>296.0</ele>
        <time>2020-08-12T14:32:25Z</time>
      </trkpt>
      <trkpt lat="41.598634" lon="1.899089">
        <ele>298.4</ele>
        <time>2020-08-12T14:32:27Z</time>
      </trkpt>
      <trkpt lat="41.598985" lon="1.898843">
        <ele>298.4</ele>
        <time>2020-08-12T14:32:29Z</time>
      </trkpt>
      <trkpt lat="41.599911" lon="1.898118">
        <ele>299.8</ele>
        <time>2020-08-12T14:32:33Z</time>
      </trkpt>
      <trkpt lat="41.600506" lon="1.897692">
        <ele>302.8</ele>
        <time>2020-08-12T14:32:36Z</time>
      </trkpt>
      <trkpt lat="41.601116" lon="1.897331">
        <ele>296.0</ele>
        <time>2020-08-12T14:32:39Z</time>
      </trkpt>
      <trkpt lat="41.601947" lon="1.896954">
        <ele>297.8</ele>
        <time>2020-08-12T14:32:43Z</time>
      </trkpt>
      <trkpt lat="41.602546" lon="1.896747">
        <ele>297.8</ele>
        <time>2020-08-12T14:32:46Z</time>
      </trkpt>
      <trkpt lat="41.602827" lon="1.896671">
        <ele>297.8</ele>
        <time>2020-08-12T14:32:47Z</time>
      </trkpt>
      <trkpt lat="41.604196" lon="1.896408">
        <ele>290.0</ele>
        <time>2020-08-12T14:32:53Z</time>
      </trkpt>
      <trkpt lat="41.604752" lon="1.896257">
        <ele>290.0</ele>
        <time>2020-08-12T14:32:55Z</time>
      </trkpt>
      <trkpt lat="41.605174" lon="1.896073">
        <ele>291.6</ele>
        <time>2020-08-12T14:32:57Z</time>
      </trkpt>
      <trkpt lat="41.605495" lon="1.895889">
        <ele>291.6</ele>
        <time>2020-08-12T14:32:59Z</time>
      </trkpt>
      <trkpt lat="41.605754" lon="1.895715">
        <ele>295.0</ele>
        <time>2020-08-12T14:33:00Z</time>
      </trkpt>
      <trkpt lat="41.60603" lon="1.895493">
        <ele>290.8</ele>
        <time>2020-08-12T14:33:01Z</time>
      </trkpt>
      <trkpt lat="41.6063" lon="1.895245">
        <ele>290.8</ele>
        <time>2020-08-12T14:33:03Z</time>
      </trkpt>
      <trkpt lat="41.606737" lon="1.89475">
        <ele>282.4</ele>
        <time>2020-08-12T14:33:05Z</time>
      </trkpt>
      <trkpt lat="41.606927" lon="1.89449">
        <ele>282.4</ele>
        <time>2020-08-12T14:33:07Z</time>
      </trkpt>
      <trkpt lat="41.60715" lon="1.894135">
        <ele>282.0</ele>
        <time>2020-08-12T14:33:08Z</time>
      </trkpt>
      <trkpt lat="41.607902" lon="1.892768">
        <ele>271.2</ele>
        <time>2020-08-12T14:33:14Z</time>
      </trkpt>
      <trkpt lat="41.608215" lon="1.892315">
        <ele>269.0</ele>
        <time>2020-08-12T14:33:16Z</time>
      </trkpt>
      <trkpt lat="41.608581" lon="1.891875">
        <ele>266.6</ele>
        <time>2020-08-12T14:33:18Z</time>
      </trkpt>
      <trkpt lat="41.608863" lon="1.891603">
        <ele>268.8</ele>
        <time>2020-08-12T14:33:19Z</time>
      </trkpt>
      <trkpt lat="41.609157" lon="1.89136">
        <ele>268.8</ele>
        <time>2020-08-12T14:33:21Z</time>
      </trkpt>
      <trkpt lat="41.609479" lon="1.891138">
        <ele>265.8</ele>
        <time>2020-08-12T14:33:22Z</time>
      </trkpt>
      <trkpt lat="41.609891" lon="1.89092">
        <ele>265.8</ele>
        <time>2020-08-12T14:33:24Z</time>
      </trkpt>
      <trkpt lat="41.610198" lon="1.890795">
        <ele>259.2</ele>
        <time>2020-08-12T14:33:26Z</time>
      </trkpt>
      <trkpt lat="41.610477" lon="1.890709">
        <ele>259.2</ele>
        <time>2020-08-12T14:33:27Z</time>
      </trkpt>
      <trkpt lat="41.611569" lon="1.890411">
        <ele>249.0</ele>
        <time>2020-08-12T14:33:32Z</time>
      </trkpt>
      <trkpt lat="41.611931" lon="1.89027">
        <ele>243.2</ele>
        <time>2020-08-12T14:33:33Z</time>
      </trkpt>
      <trkpt lat="41.612271" lon="1.890099">
        <ele>243.2</ele>
        <time>2020-08-12T14:33:35Z</time>
      </trkpt>
      <trkpt lat="41.612609" lon="1.889902">
        <ele>235.2</ele>
        <time>2020-08-12T14:33:36Z</time>
      </trkpt>
      <trkpt lat="41.612928" lon="1.889673">
        <ele>235.2</ele>
        <time>2020-08-12T14:33:38Z</time>
      </trkpt>
      <trkpt lat="41.613498" lon="1.889172">
        <ele>230.2</ele>
        <time>2020-08-12T14:33:41Z</time>
      </trkpt>
      <trkpt lat="41.613749" lon="1.88891">
        <ele>227.6</ele>
        <time>2020-08-12T14:33:42Z</time>
      </trkpt>
      <trkpt lat="41.614206" lon="1.888324">
        <ele>221.8</ele>
        <time>2020-08-12T14:33:45Z</time>
      </trkpt>
      <trkpt lat="41.614427" lon="1.887988">
        <ele>221.8</ele>
        <time>2020-08-12T14:33:47Z</time>
      </trkpt>
      <trkpt lat="41.614637" lon="1.887625">
        <ele>221.8</ele>
        <time>2020-08-12T14:33:48Z</time>
      </trkpt>
      <trkpt lat="41.61542" lon="1.886038">
        <ele>216.0</ele>
        <time>2020-08-12T14:33:54Z</time>
      </trkpt>
      <trkpt lat="41.615644" lon="1.885657">
        <ele>213.2</ele>
        <time>2020-08-12T14:33:56Z</time>
      </trkpt>
      <trkpt lat="41.615874" lon="1.885309">
        <ele>220.2</ele>
        <time>2020-08-12T14:33:57Z</time>
      </trkpt>
      <trkpt lat="41.61637" lon="1.884691">
        <ele>216.0</ele>
        <time>2020-08-12T14:34:00Z</time>
      </trkpt>
      <trkpt lat="41.616923" lon="1.884164">
        <ele>218.0</ele>
        <time>2020-08-12T14:34:03Z</time>
      </trkpt>
      <trkpt lat="41.617423" lon="1.883799">
        <ele>218.0</ele>
        <time>2020-08-12T14:34:06Z</time>
      </trkpt>
      <trkpt lat="41.618477" lon="1.883206">
        <ele>226.4</ele>
        <time>2020-08-12T14:34:11Z</time>
      </trkpt>
      <trkpt lat="41.618783" lon="1.883008">
        <ele>226.4</ele>
        <time>2020-08-12T14:34:12Z</time>
      </trkpt>
      <trkpt lat="41.61926" lon="1.882622">
        <ele>231.4</ele>
        <time>2020-08-12T14:34:15Z</time>
      </trkpt>
      <trkpt lat="41.619444" lon="1.882444">
        <ele>232.4</ele>
        <time>2020-08-12T14:34:15Z</time>
      </trkpt>
      <trkpt lat="41.619814" lon="1.882006">
        <ele>232.4</ele>
        <time>2020-08-12T14:34:18Z</time>
      </trkpt>
      <trkpt lat="41.619991" lon="1.881746">
        <ele>232.4</ele>
        <time>2020-08-12T14:34:19Z</time>
      </trkpt>
      <trkpt lat="41.620268" lon="1.881276">
        <ele>237.0</ele>
        <time>2020-08-12T14:34:21Z</time>
      </trkpt>
      <trkpt lat="41.620444" lon="1.880909">
        <ele>237.0</ele>
        <time>2020-08-12T14:34:22Z</time>
      </trkpt>
      <trkpt lat="41.620608" lon="1.880501">
        <ele>236.2</ele>
        <time>2020-08-12T14:34:24Z</time>
      </trkpt>
      <trkpt lat="41.620708" lon="1.880192">
        <ele>236.2</ele>
        <time>2020-08-12T14:34:25Z</time>
      </trkpt>
      <trkpt lat="41.620852" lon="1.879627">
        <ele>241.0</ele>
        <time>2020-08-12T14:34:27Z</time>
      </trkpt>
      <trkpt lat="41.620952" lon="1.879042">
        <ele>241.4</ele>
        <time>2020-08-12T14:34:29Z</time>
      </trkpt>
      <trkpt lat="41.620999" lon="1.878458">
        <ele>241.4</ele>
        <time>2020-08-12T14:34:30Z</time>
      </trkpt>
      <trkpt lat="41.621006" lon="1.878068">
        <ele>241.6</ele>
        <time>2020-08-12T14:34:32Z</time>
      </trkpt>
      <trkpt lat="41.620931" lon="1.876714">
        <ele>243.4</ele>
        <time>2020-08-12T14:34:36Z</time>
      </trkpt>
      <trkpt lat="41.620921" lon="1.875993">
        <ele>241.2</ele>
        <time>2020-08-12T14:34:38Z</time>
      </trkpt>
      <trkpt lat="41.620947" lon="1.875608">
        <ele>241.0</ele>
        <time>2020-08-12T14:34:40Z</time>
      </trkpt>
      <trkpt lat="41.620986" lon="1.875317">
        <ele>241.0</ele>
        <time>2020-08-12T14:34:41Z</time>
      </trkpt>
      <trkpt lat="41.621112" lon="1.874739">
        <ele>238.2</ele>
        <time>2020-08-12T14:34:43Z</time>
      </trkpt>
      <trkpt lat="41.621303" lon="1.874191">
        <ele>238.2</ele>
        <time>2020-08-12T14:34:45Z</time>
      </trkpt>
      <trkpt lat="41.621538" lon="1.873702">
        <ele>228.8</ele>
        <time>2020-08-12T14:34:46Z</time>
      </trkpt>
      <trkpt lat="41.621678" lon="1.873477">
        <ele>243.6</ele>
        <time>2020-08-12T14:34:48Z</time>
      </trkpt>
      <trkpt lat="41.622046" lon="1.873001">
        <ele>226.8</ele>
        <time>2020-08-12T14:34:50Z</time>
      </trkpt>
      <trkpt lat="41.622266" lon="1.87278">
        <ele>226.8</ele>
        <time>2020-08-12T14:34:51Z</time>
      </trkpt>
      <trkpt lat="41.622486" lon="1.872595">
        <ele>226.8</ele>
        <time>2020-08-12T14:34:52Z</time>
      </trkpt>
      <trkpt lat="41.622882" lon="1.872347">
        <ele>217.6</ele>
        <time>2020-08-12T14:34:54Z</time>
      </trkpt>
      <trkpt lat="41.62327" lon="1.872178">
        <ele>217.6</ele>
        <time>2020-08-12T14:34:56Z</time>
      </trkpt>
      <trkpt lat="41.623501" lon="1.872116">
        <ele>225.2</ele>
        <time>2020-08-12T14:34:57Z</time>
      </trkpt>
      <trkpt lat="41.623965" lon="1.872055">
        <ele>225.2</ele>
        <time>2020-08-12T14:34:59Z</time>
      </trkpt>
      <trkpt lat="41.625326" lon="1.87208">
        <ele>227.2</ele>
        <time>2020-08-12T14:35:05Z</time>
      </trkpt>
      <trkpt lat="41.626144" lon="1.872055">
        <ele>228.8</ele>
        <time>2020-08-12T14:35:08Z</time>
      </trkpt>
      <trkpt lat="41.627094" lon="1.871919">
        <ele>222.8</ele>
        <time>2020-08-12T14:35:13Z</time>
      </trkpt>
      <trkpt lat="41.627776" lon="1.871752">
        <ele>223.0</ele>
        <time>2020-08-12T14:35:16Z</time>
      </trkpt>
      <trkpt lat="41.628117" lon="1.871644">
        <ele>210.2</ele>
        <time>2020-08-12T14:35:17Z</time>
      </trkpt>
      <trkpt lat="41.628653" lon="1.871443">
        <ele>218.0</ele>
        <time>2020-08-12T14:35:20Z</time>
      </trkpt>
      <trkpt lat="41.628918" lon="1.871319">
        <ele>218.0</ele>
        <time>2020-08-12T14:35:21Z</time>
      </trkpt>
      <trkpt lat="41.629518" lon="1.870962">
        <ele>235.6</ele>
        <time>2020-08-12T14:35:24Z</time>
      </trkpt>
      <trkpt lat="41.629842" lon="1.87071">
        <ele>234.2</ele>
        <time>2020-08-12T14:35:25Z</time>
      </trkpt>
      <trkpt lat="41.630673" lon="1.870012">
        <ele>246.4</ele>
        <time>2020-08-12T14:35:30Z</time>
      </trkpt>
      <trkpt lat="41.631008" lon="1.869771">
        <ele>239.6</ele>
        <time>2020-08-12T14:35:31Z</time>
      </trkpt>
      <trkpt lat="41.631676" lon="1.86948">
        <ele>238.2</ele>
        <time>2020-08-12T14:35:34Z</time>
      </trkpt>
      <trkpt lat="41.632373" lon="1.869421">
        <ele>238.2</ele>
        <time>2020-08-12T14:35:37Z</time>
      </trkpt>
      <trkpt lat="41.632807" lon="1.869517">
        <ele>232.2</ele>
        <time>2020-08-12T14:35:39Z</time>
      </trkpt>
      <trkpt lat="41.63307" lon="1.869619">
        <ele>232.2</ele>
        <time>2020-08-12T14:35:40Z</time>
      </trkpt>
      <trkpt lat="41.633423" lon="1.869827">
        <ele>227.6</ele>
        <time>2020-08-12T14:35:42Z</time>
      </trkpt>
      <trkpt lat="41.633771" lon="1.870122">
        <ele>231.6</ele>
        <time>2020-08-12T14:35:44Z</time>
      </trkpt>
      <trkpt lat="41.634033" lon="1.870415">
        <ele>231.6</ele>
        <time>2020-08-12T14:35:45Z</time>
      </trkpt>
      <trkpt lat="41.634574" lon="1.871146">
        <ele>230.0</ele>
        <time>2020-08-12T14:35:49Z</time>
      </trkpt>
      <trkpt lat="41.635191" lon="1.871937">
        <ele>229.8</ele>
        <time>2020-08-12T14:35:52Z</time>
      </trkpt>
      <trkpt lat="41.635802" lon="1.872449">
        <ele>229.8</ele>
        <time>2020-08-12T14:35:56Z</time>
      </trkpt>
      <trkpt lat="41.636121" lon="1.872667">
        <ele>223.8</ele>
        <time>2020-08-12T14:35:57Z</time>
      </trkpt>
      <trkpt lat="41.636785" lon="1.872971">
        <ele>209.0</ele>
        <time>2020-08-12T14:36:00Z</time>
      </trkpt>
      <trkpt lat="41.637231" lon="1.873077">
        <ele>209.0</ele>
        <time>2020-08-12T14:36:02Z</time>
      </trkpt>
      <trkpt lat="41.637697" lon="1.873137">
        <ele>202.4</ele>
        <time>2020-08-12T14:36:04Z</time>
      </trkpt>
      <trkpt lat="41.63817" lon="1.873132">
        <ele>202.4</ele>
        <time>2020-08-12T14:36:06Z</time>
      </trkpt>
      <trkpt lat="41.638572" lon="1.873076">
        <ele>198.6</ele>
        <time>2020-08-12T14:36:08Z</time>
      </trkpt>
      <trkpt lat="41.638945" lon="1.872977">
        <ele>198.6</ele>
        <time>2020-08-12T14:36:10Z</time>
      </trkpt>
      <trkpt lat="41.639469" lon="1.872777">
        <ele>199.2</ele>
        <time>2020-08-12T14:36:12Z</time>
      </trkpt>
      <trkpt lat="41.639934" lon="1.87246">
        <ele>191.0</ele>
        <time>2020-08-12T14:36:14Z</time>
      </trkpt>
      <trkpt lat="41.640643" lon="1.871832">
        <ele>193.6</ele>
        <time>2020-08-12T14:36:18Z</time>
      </trkpt>
      <trkpt lat="41.641284" lon="1.870984">
        <ele>199.6</ele>
        <time>2020-08-12T14:36:22Z</time>
      </trkpt>
      <trkpt lat="41.641908" lon="1.869773">
        <ele>205.6</ele>
        <time>2020-08-12T14:36:27Z</time>
      </trkpt>
      <trkpt lat="41.642139" lon="1.869229">
        <ele>205.6</ele>
        <time>2020-08-12T14:36:29Z</time>
      </trkpt>
      <trkpt lat="41.642818" lon="1.868099">
        <ele>191.6</ele>
        <time>2020-08-12T14:36:33Z</time>
      </trkpt>
      <trkpt lat="41.644037" lon="1.866317">
        <ele>179.6</ele>
        <time>2020-08-12T14:36:41Z</time>
      </trkpt>
      <trkpt lat="41.644895" lon="1.864418">
        <ele>180.8</ele>
        <time>2020-08-12T14:36:48Z</time>
      </trkpt>
      <trkpt lat="41.64541" lon="1.863614">
        <ele>198.0</ele>
        <time>2020-08-12T14:36:52Z</time>
      </trkpt>
      <trkpt lat="41.645719" lon="1.863242">
        <ele>194.0</ele>
        <time>2020-08-12T14:36:54Z</time>
      </trkpt>
      <trkpt lat="41.646056" lon="1.862918">
        <ele>212.2</ele>
        <time>2020-08-12T14:36:56Z</time>
      </trkpt>
      <trkpt lat="41.646368" lon="1.86266">
        <ele>212.2</ele>
        <time>2020-08-12T14:36:57Z</time>
      </trkpt>
      <trkpt lat="41.646769" lon="1.862417">
        <ele>215.0</ele>
        <time>2020-08-12T14:36:59Z</time>
      </trkpt>
      <trkpt lat="41.647146" lon="1.862254">
        <ele>215.0</ele>
        <time>2020-08-12T14:37:01Z</time>
      </trkpt>
      <trkpt lat="41.64752" lon="1.862142">
        <ele>210.4</ele>
        <time>2020-08-12T14:37:02Z</time>
      </trkpt>
      <trkpt lat="41.647866" lon="1.862077">
        <ele>210.4</ele>
        <time>2020-08-12T14:37:04Z</time>
      </trkpt>
      <trkpt lat="41.648155" lon="1.862061">
        <ele>210.4</ele>
        <time>2020-08-12T14:37:05Z</time>
      </trkpt>
      <trkpt lat="41.648573" lon="1.862072">
        <ele>203.0</ele>
        <time>2020-08-12T14:37:07Z</time>
      </trkpt>
      <trkpt lat="41.648897" lon="1.862138">
        <ele>203.0</ele>
        <time>2020-08-12T14:37:08Z</time>
      </trkpt>
      <trkpt lat="41.649156" lon="1.862216">
        <ele>203.0</ele>
        <time>2020-08-12T14:37:10Z</time>
      </trkpt>
      <trkpt lat="41.649871" lon="1.862494">
        <ele>195.4</ele>
        <time>2020-08-12T14:37:13Z</time>
      </trkpt>
      <trkpt lat="41.650261" lon="1.862808">
        <ele>192.4</ele>
        <time>2020-08-12T14:37:15Z</time>
      </trkpt>
      <trkpt lat="41.650972" lon="1.863557">
        <ele>191.6</ele>
        <time>2020-08-12T14:37:19Z</time>
      </trkpt>
      <trkpt lat="41.651314" lon="1.86409">
        <ele>191.6</ele>
        <time>2020-08-12T14:37:22Z</time>
      </trkpt>
      <trkpt lat="41.651712" lon="1.864764">
        <ele>190.8</ele>
        <time>2020-08-12T14:37:25Z</time>
      </trkpt>
      <trkpt lat="41.652278" lon="1.865774">
        <ele>193.0</ele>
        <time>2020-08-12T14:37:29Z</time>
      </trkpt>
      <trkpt lat="41.652777" lon="1.866286">
        <ele>189.2</ele>
        <time>2020-08-12T14:37:31Z</time>
      </trkpt>
      <trkpt lat="41.653376" lon="1.866806">
        <ele>191.0</ele>
        <time>2020-08-12T14:37:34Z</time>
      </trkpt>
      <trkpt lat="41.653961" lon="1.867147">
        <ele>191.0</ele>
        <time>2020-08-12T14:37:37Z</time>
      </trkpt>
      <trkpt lat="41.654399" lon="1.867315">
        <ele>190.4</ele>
        <time>2020-08-12T14:37:39Z</time>
      </trkpt>
      <trkpt lat="41.655456" lon="1.867597">
        <ele>197.6</ele>
        <time>2020-08-12T14:37:44Z</time>
      </trkpt>
      <trkpt lat="41.656366" lon="1.867873">
        <ele>201.6</ele>
        <time>2020-08-12T14:37:48Z</time>
      </trkpt>
      <trkpt lat="41.65759" lon="1.868512">
        <ele>206.8</ele>
        <time>2020-08-12T14:37:54Z</time>
      </trkpt>
      <trkpt lat="41.658495" lon="1.869135">
        <ele>205.6</ele>
        <time>2020-08-12T14:37:58Z</time>
      </trkpt>
      <trkpt lat="41.659215" lon="1.86978">
        <ele>209.6</ele>
        <time>2020-08-12T14:38:02Z</time>
      </trkpt>
      <trkpt lat="41.659719" lon="1.870338">
        <ele>216.4</ele>
        <time>2020-08-12T14:38:05Z</time>
      </trkpt>
      <trkpt lat="41.660434" lon="1.871259">
        <ele>223.2</ele>
        <time>2020-08-12T14:38:09Z</time>
      </trkpt>
      <trkpt lat="41.661555" lon="1.873139">
        <ele>236.6</ele>
        <time>2020-08-12T14:38:17Z</time>
      </trkpt>
      <trkpt lat="41.662216" lon="1.874146">
        <ele>237.0</ele>
        <time>2020-08-12T14:38:21Z</time>
      </trkpt>
      <trkpt lat="41.662628" lon="1.874628">
        <ele>237.4</ele>
        <time>2020-08-12T14:38:24Z</time>
      </trkpt>
      <trkpt lat="41.662991" lon="1.874959">
        <ele>237.4</ele>
        <time>2020-08-12T14:38:25Z</time>
      </trkpt>
      <trkpt lat="41.663337" lon="1.87524">
        <ele>245.0</ele>
        <time>2020-08-12T14:38:27Z</time>
      </trkpt>
      <trkpt lat="41.664101" lon="1.875701">
        <ele>245.0</ele>
        <time>2020-08-12T14:38:31Z</time>
      </trkpt>
      <trkpt lat="41.664919" lon="1.876064">
        <ele>253.2</ele>
        <time>2020-08-12T14:38:35Z</time>
      </trkpt>
      <trkpt lat="41.665298" lon="1.876194">
        <ele>251.2</ele>
        <time>2020-08-12T14:38:36Z</time>
      </trkpt>
      <trkpt lat="41.666073" lon="1.876367">
        <ele>255.2</ele>
        <time>2020-08-12T14:38:40Z</time>
      </trkpt>
      <trkpt lat="41.666658" lon="1.876465">
        <ele>255.2</ele>
        <time>2020-08-12T14:38:42Z</time>
      </trkpt>
      <trkpt lat="41.667801" lon="1.876475">
        <ele>270.2</ele>
        <time>2020-08-12T14:38:47Z</time>
      </trkpt>
      <trkpt lat="41.668443" lon="1.876405">
        <ele>270.8</ele>
        <time>2020-08-12T14:38:50Z</time>
      </trkpt>
      <trkpt lat="41.669334" lon="1.876232">
        <ele>270.0</ele>
        <time>2020-08-12T14:38:54Z</time>
      </trkpt>
      <trkpt lat="41.670348" lon="1.87612">
        <ele>272.6</ele>
        <time>2020-08-12T14:38:58Z</time>
      </trkpt>
      <trkpt lat="41.67271" lon="1.875993">
        <ele>303.2</ele>
        <time>2020-08-12T14:39:09Z</time>
      </trkpt>
      <trkpt lat="41.673801" lon="1.875756">
        <ele>298.4</ele>
        <time>2020-08-12T14:39:14Z</time>
      </trkpt>
      <trkpt lat="41.674961" lon="1.875342">
        <ele>309.4</ele>
        <time>2020-08-12T14:39:19Z</time>
      </trkpt>
      <trkpt lat="41.676155" lon="1.874563">
        <ele>303.6</ele>
        <time>2020-08-12T14:39:25Z</time>
      </trkpt>
      <trkpt lat="41.677399" lon="1.873454">
        <ele>298.4</ele>
        <time>2020-08-12T14:39:31Z</time>
      </trkpt>
      <trkpt lat="41.678118" lon="1.872582">
        <ele>286.6</ele>
        <time>2020-08-12T14:39:35Z</time>
      </trkpt>
      <trkpt lat="41.678812" lon="1.8716">
        <ele>263.2</ele>
        <time>2020-08-12T14:39:40Z</time>
      </trkpt>
      <trkpt lat="41.679642" lon="1.870576">
        <ele>251.2</ele>
        <time>2020-08-12T14:39:45Z</time>
      </trkpt>
      <trkpt lat="41.680361" lon="1.870034">
        <ele>246.2</ele>
        <time>2020-08-12T14:39:48Z</time>
      </trkpt>
      <trkpt lat="41.681089" lon="1.869654">
        <ele>235.8</ele>
        <time>2020-08-12T14:39:52Z</time>
      </trkpt>
      <trkpt lat="41.681834" lon="1.869476">
        <ele>242.0</ele>
        <time>2020-08-12T14:39:55Z</time>
      </trkpt>
      <trkpt lat="41.682824" lon="1.869484">
        <ele>248.2</ele>
        <time>2020-08-12T14:39:59Z</time>
      </trkpt>
      <trkpt lat="41.683417" lon="1.869628">
        <ele>246.6</ele>
        <time>2020-08-12T14:40:02Z</time>
      </trkpt>
      <trkpt lat="41.684686" lon="1.870094">
        <ele>247.6</ele>
        <time>2020-08-12T14:40:08Z</time>
      </trkpt>
      <trkpt lat="41.685414" lon="1.870305">
        <ele>236.4</ele>
        <time>2020-08-12T14:40:11Z</time>
      </trkpt>
      <trkpt lat="41.686497" lon="1.870362">
        <ele>225.2</ele>
        <time>2020-08-12T14:40:16Z</time>
      </trkpt>
      <trkpt lat="41.687073" lon="1.870339">
        <ele>213.8</ele>
        <time>2020-08-12T14:40:18Z</time>
      </trkpt>
      <trkpt lat="41.687759" lon="1.870221">
        <ele>199.6</ele>
        <time>2020-08-12T14:40:21Z</time>
      </trkpt>
      <trkpt lat="41.688766" lon="1.869891">
        <ele>184.2</ele>
        <time>2020-08-12T14:40:26Z</time>
      </trkpt>
      <trkpt lat="41.689549" lon="1.869487">
        <ele>186.2</ele>
        <time>2020-08-12T14:40:30Z</time>
      </trkpt>
      <trkpt lat="41.689912" lon="1.869249">
        <ele>186.2</ele>
        <time>2020-08-12T14:40:31Z</time>
      </trkpt>
      <trkpt lat="41.690679" lon="1.868672">
        <ele>192.4</ele>
        <time>2020-08-12T14:40:35Z</time>
      </trkpt>
      <trkpt lat="41.691458" lon="1.868003">
        <ele>200.4</ele>
        <time>2020-08-12T14:40:39Z</time>
      </trkpt>
      <trkpt lat="41.693633" lon="1.865896">
        <ele>212.6</ele>
        <time>2020-08-12T14:40:51Z</time>
      </trkpt>
      <trkpt lat="41.694226" lon="1.865506">
        <ele>218.8</ele>
        <time>2020-08-12T14:40:54Z</time>
      </trkpt>
      <trkpt lat="41.694708" lon="1.865261">
        <ele>218.8</ele>
        <time>2020-08-12T14:40:56Z</time>
      </trkpt>
      <trkpt lat="41.69508" lon="1.865151">
        <ele>233.6</ele>
        <time>2020-08-12T14:40:58Z</time>
      </trkpt>
      <trkpt lat="41.695834" lon="1.865092">
        <ele>242.4</ele>
        <time>2020-08-12T14:41:01Z</time>
      </trkpt>
      <trkpt lat="41.696198" lon="1.865142">
        <ele>242.4</ele>
        <time>2020-08-12T14:41:03Z</time>
      </trkpt>
      <trkpt lat="41.697044" lon="1.865396">
        <ele>250.8</ele>
        <time>2020-08-12T14:41:06Z</time>
      </trkpt>
      <trkpt lat="41.697611" lon="1.865498">
        <ele>258.0</ele>
        <time>2020-08-12T14:41:09Z</time>
      </trkpt>
      <trkpt lat="41.697984" lon="1.865523">
        <ele>258.0</ele>
        <time>2020-08-12T14:41:10Z</time>
      </trkpt>
      <trkpt lat="41.698254" lon="1.865515">
        <ele>258.0</ele>
        <time>2020-08-12T14:41:12Z</time>
      </trkpt>
      <trkpt lat="41.698872" lon="1.865345">
        <ele>263.6</ele>
        <time>2020-08-12T14:41:14Z</time>
      </trkpt>
      <trkpt lat="41.699558" lon="1.865007">
        <ele>264.0</ele>
        <time>2020-08-12T14:41:18Z</time>
      </trkpt>
      <trkpt lat="41.700159" lon="1.864457">
        <ele>273.8</ele>
        <time>2020-08-12T14:41:21Z</time>
      </trkpt>
      <trkpt lat="41.700633" lon="1.863957">
        <ele>284.4</ele>
        <time>2020-08-12T14:41:23Z</time>
      </trkpt>
      <trkpt lat="41.701276" lon="1.863238">
        <ele>279.8</ele>
        <time>2020-08-12T14:41:27Z</time>
      </trkpt>
      <trkpt lat="41.702004" lon="1.86262">
        <ele>272.6</ele>
        <time>2020-08-12T14:41:31Z</time>
      </trkpt>
      <trkpt lat="41.702664" lon="1.862315">
        <ele>288.8</ele>
        <time>2020-08-12T14:41:34Z</time>
      </trkpt>
      <trkpt lat="41.703324" lon="1.862163">
        <ele>288.8</ele>
        <time>2020-08-12T14:41:37Z</time>
      </trkpt>
      <trkpt lat="41.7039" lon="1.862146">
        <ele>294.0</ele>
        <time>2020-08-12T14:41:39Z</time>
      </trkpt>
      <trkpt lat="41.704357" lon="1.862104">
        <ele>294.2</ele>
        <time>2020-08-12T14:41:41Z</time>
      </trkpt>
      <trkpt lat="41.705449" lon="1.86179">
        <ele>295.8</ele>
        <time>2020-08-12T14:41:46Z</time>
      </trkpt>
      <trkpt lat="41.70627" lon="1.86141">
        <ele>309.2</ele>
        <time>2020-08-12T14:41:50Z</time>
      </trkpt>
      <trkpt lat="41.706989" lon="1.860902">
        <ele>307.6</ele>
        <time>2020-08-12T14:41:54Z</time>
      </trkpt>
      <trkpt lat="41.708132" lon="1.859894">
        <ele>295.6</ele>
        <time>2020-08-12T14:41:59Z</time>
      </trkpt>
      <trkpt lat="41.708577" lon="1.859555">
        <ele>288.0</ele>
        <time>2020-08-12T14:42:02Z</time>
      </trkpt>
      <trkpt lat="41.708671" lon="1.859516">
        <ele>288.0</ele>
        <time>2020-08-12T14:42:02Z</time>
      </trkpt>
      <trkpt lat="41.709029" lon="1.859283">
        <ele>288.0</ele>
        <time>2020-08-12T14:42:04Z</time>
      </trkpt>
      <trkpt lat="41.709885" lon="1.858973">
        <ele>286.6</ele>
        <time>2020-08-12T14:42:08Z</time>
      </trkpt>
      <trkpt lat="41.710413" lon="1.858879">
        <ele>283.0</ele>
        <time>2020-08-12T14:42:10Z</time>
      </trkpt>
      <trkpt lat="41.711286" lon="1.858913">
        <ele>280.2</ele>
        <time>2020-08-12T14:42:14Z</time>
      </trkpt>
      <trkpt lat="41.712105" lon="1.859048">
        <ele>279.0</ele>
        <time>2020-08-12T14:42:17Z</time>
      </trkpt>
      <trkpt lat="41.713105" lon="1.859468">
        <ele>272.2</ele>
        <time>2020-08-12T14:42:22Z</time>
      </trkpt>
      <trkpt lat="41.713788" lon="1.860014">
        <ele>266.4</ele>
        <time>2020-08-12T14:42:25Z</time>
      </trkpt>
      <trkpt lat="41.713943" lon="1.860162">
        <ele>266.4</ele>
        <time>2020-08-12T14:42:26Z</time>
      </trkpt>
      <trkpt lat="41.71473" lon="1.861018">
        <ele>270.0</ele>
        <time>2020-08-12T14:42:31Z</time>
      </trkpt>
      <trkpt lat="41.715411" lon="1.862305">
        <ele>276.6</ele>
        <time>2020-08-12T14:42:36Z</time>
      </trkpt>
      <trkpt lat="41.716287" lon="1.863671">
        <ele>280.2</ele>
        <time>2020-08-12T14:42:42Z</time>
      </trkpt>
      <trkpt lat="41.71691" lon="1.864341">
        <ele>284.8</ele>
        <time>2020-08-12T14:42:45Z</time>
      </trkpt>
      <trkpt lat="41.717456" lon="1.864775">
        <ele>284.8</ele>
        <time>2020-08-12T14:42:48Z</time>
      </trkpt>
      <trkpt lat="41.717891" lon="1.865014">
        <ele>284.4</ele>
        <time>2020-08-12T14:42:50Z</time>
      </trkpt>
      <trkpt lat="41.718326" lon="1.865194">
        <ele>284.4</ele>
        <time>2020-08-12T14:42:52Z</time>
      </trkpt>
      <trkpt lat="41.719079" lon="1.865366">
        <ele>285.4</ele>
        <time>2020-08-12T14:42:55Z</time>
      </trkpt>
      <trkpt lat="41.720349" lon="1.865336">
        <ele>280.0</ele>
        <time>2020-08-12T14:43:01Z</time>
      </trkpt>
      <trkpt lat="41.72143" lon="1.865146">
        <ele>282.0</ele>
        <time>2020-08-12T14:43:06Z</time>
      </trkpt>
      <trkpt lat="41.721716" lon="1.865161">
        <ele>286.6</ele>
        <time>2020-08-12T14:43:08Z</time>
      </trkpt>
      <trkpt lat="41.722633" lon="1.865083">
        <ele>285.2</ele>
        <time>2020-08-12T14:43:17Z</time>
      </trkpt>
      <trkpt lat="41.723223" lon="1.865065">
        <ele>285.2</ele>
        <time>2020-08-12T14:43:23Z</time>
      </trkpt>
      <trkpt lat="41.723725" lon="1.865082">
        <ele>279.2</ele>
        <time>2020-08-12T14:43:27Z</time>
      </trkpt>
      <trkpt lat="41.724207" lon="1.865132">
        <ele>273.4</ele>
        <time>2020-08-12T14:43:32Z</time>
      </trkpt>
      <trkpt lat="41.724473" lon="1.865179">
        <ele>273.4</ele>
        <time>2020-08-12T14:43:35Z</time>
      </trkpt>
      <trkpt lat="41.724913" lon="1.865303">
        <ele>273.4</ele>
        <time>2020-08-12T14:43:39Z</time>
      </trkpt>
      <trkpt lat="41.725404" lon="1.865494">
        <ele>266.2</ele>
        <time>2020-08-12T14:43:44Z</time>
      </trkpt>
      <trkpt lat="41.725945" lon="1.865733">
        <ele>258.4</ele>
        <time>2020-08-12T14:43:49Z</time>
      </trkpt>
      <trkpt lat="41.726235" lon="1.865832">
        <ele>258.4</ele>
        <time>2020-08-12T14:43:52Z</time>
      </trkpt>
      <trkpt lat="41.72652" lon="1.865874">
        <ele>252.4</ele>
        <time>2020-08-12T14:43:55Z</time>
      </trkpt>
      <trkpt lat="41.726786" lon="1.865848">
        <ele>247.2</ele>
        <time>2020-08-12T14:43:57Z</time>
      </trkpt>
      <trkpt lat="41.727057" lon="1.865757">
        <ele>254.2</ele>
        <time>2020-08-12T14:44:00Z</time>
      </trkpt>
      <trkpt lat="41.727335" lon="1.865563">
        <ele>254.2</ele>
        <time>2020-08-12T14:44:03Z</time>
      </trkpt>
      <trkpt lat="41.727489" lon="1.865413">
        <ele>254.2</ele>
        <time>2020-08-12T14:44:05Z</time>
      </trkpt>
      <trkpt lat="41.727647" lon="1.865195">
        <ele>251.0</ele>
        <time>2020-08-12T14:44:07Z</time>
      </trkpt>
      <trkpt lat="41.727816" lon="1.864863">
        <ele>253.4</ele>
        <time>2020-08-12T14:44:10Z</time>
      </trkpt>
      <trkpt lat="41.727883" lon="1.864662">
        <ele>253.4</ele>
        <time>2020-08-12T14:44:12Z</time>
      </trkpt>
      <trkpt lat="41.727956" lon="1.864327">
        <ele>253.4</ele>
        <time>2020-08-12T14:44:14Z</time>
      </trkpt>
      <trkpt lat="41.727978" lon="1.864016">
        <ele>256.0</ele>
        <time>2020-08-12T14:44:16Z</time>
      </trkpt>
      <trkpt lat="41.72797" lon="1.863718">
        <ele>256.0</ele>
        <time>2020-08-12T14:44:18Z</time>
      </trkpt>
      <trkpt lat="41.727952" lon="1.863606">
        <ele>256.0</ele>
        <time>2020-08-12T14:44:19Z</time>
      </trkpt>
      <trkpt lat="41.727761" lon="1.863002">
        <ele>255.8</ele>
        <time>2020-08-12T14:44:24Z</time>
      </trkpt>
      <trkpt lat="41.727656" lon="1.862784">
        <ele>255.8</ele>
        <time>2020-08-12T14:44:26Z</time>
      </trkpt>
      <trkpt lat="41.727115" lon="1.861865">
        <ele>256.0</ele>
        <time>2020-08-12T14:44:34Z</time>
      </trkpt>
      <trkpt lat="41.726944" lon="1.861468">
        <ele>254.4</ele>
        <time>2020-08-12T14:44:37Z</time>
      </trkpt>
      <trkpt lat="41.726825" lon="1.860968">
        <ele>254.4</ele>
        <time>2020-08-12T14:44:41Z</time>
      </trkpt>
      <trkpt lat="41.726795" lon="1.860588">
        <ele>253.2</ele>
        <time>2020-08-12T14:44:44Z</time>
      </trkpt>
      <trkpt lat="41.726808" lon="1.86034">
        <ele>253.2</ele>
        <time>2020-08-12T14:44:45Z</time>
      </trkpt>
      <trkpt lat="41.726876" lon="1.859959">
        <ele>255.0</ele>
        <time>2020-08-12T14:44:48Z</time>
      </trkpt>
      <trkpt lat="41.726931" lon="1.859805">
        <ele>255.0</ele>
        <time>2020-08-12T14:44:49Z</time>
      </trkpt>
      <trkpt lat="41.727299" lon="1.859011">
        <ele>255.8</ele>
        <time>2020-08-12T14:44:56Z</time>
      </trkpt>
      <trkpt lat="41.727395" lon="1.85866">
        <ele>255.8</ele>
        <time>2020-08-12T14:44:59Z</time>
      </trkpt>
      <trkpt lat="41.727422" lon="1.858344">
        <ele>255.8</ele>
        <time>2020-08-12T14:45:01Z</time>
      </trkpt>
      <trkpt lat="41.727417" lon="1.858133">
        <ele>257.0</ele>
        <time>2020-08-12T14:45:03Z</time>
      </trkpt>
      <trkpt lat="41.72736" lon="1.857437">
        <ele>258.8</ele>
        <time>2020-08-12T14:45:08Z</time>
      </trkpt>
      <trkpt lat="41.727365" lon="1.856995">
        <ele>258.8</ele>
        <time>2020-08-12T14:45:11Z</time>
      </trkpt>
      <trkpt lat="41.727389" lon="1.856816">
        <ele>258.8</ele>
        <time>2020-08-12T14:45:12Z</time>
      </trkpt>
      <trkpt lat="41.727447" lon="1.856572">
        <ele>260.4</ele>
        <time>2020-08-12T14:45:14Z</time>
      </trkpt>
      <trkpt lat="41.727534" lon="1.856336">
        <ele>260.8</ele>
        <time>2020-08-12T14:45:16Z</time>
      </trkpt>
      <trkpt lat="41.727617" lon="1.856165">
        <ele>260.8</ele>
        <time>2020-08-12T14:45:17Z</time>
      </trkpt>
      <trkpt lat="41.728114" lon="1.855231">
        <ele>262.8</ele>
        <time>2020-08-12T14:45:25Z</time>
      </trkpt>
      <trkpt lat="41.728475" lon="1.854479">
        <ele>264.8</ele>
        <time>2020-08-12T14:45:32Z</time>
      </trkpt>
      <trkpt lat="41.728691" lon="1.853932">
        <ele>267.2</ele>
        <time>2020-08-12T14:45:36Z</time>
      </trkpt>
      <trkpt lat="41.728861" lon="1.853211">
        <ele>271.6</ele>
        <time>2020-08-12T14:45:41Z</time>
      </trkpt>
      <trkpt lat="41.728988" lon="1.852751">
        <ele>271.6</ele>
        <time>2020-08-12T14:45:45Z</time>
      </trkpt>
      <trkpt lat="41.729052" lon="1.852608">
        <ele>271.6</ele>
        <time>2020-08-12T14:45:46Z</time>
      </trkpt>
      <trkpt lat="41.729189" lon="1.852527">
        <ele>269.2</ele>
        <time>2020-08-12T14:45:48Z</time>
      </trkpt>
      <trkpt lat="41.729243" lon="1.852537">
        <ele>269.2</ele>
        <time>2020-08-12T14:45:48Z</time>
      </trkpt>
      <trkpt lat="41.729297" lon="1.852522">
        <ele>269.2</ele>
        <time>2020-08-12T14:45:49Z</time>
      </trkpt>
      <trkpt lat="41.72943" lon="1.852651">
        <ele>269.2</ele>
        <time>2020-08-12T14:45:50Z</time>
      </trkpt>
      <trkpt lat="41.729559" lon="1.852741">
        <ele>269.2</ele>
        <time>2020-08-12T14:45:51Z</time>
      </trkpt>
      <trkpt lat="41.72961" lon="1.852756">
        <ele>269.2</ele>
        <time>2020-08-12T14:45:51Z</time>
      </trkpt>
      <trkpt lat="41.729813" lon="1.852702">
        <ele>269.2</ele>
        <time>2020-08-12T14:45:52Z</time>
      </trkpt>
      <trkpt lat="41.729986" lon="1.852607">
        <ele>269.2</ele>
        <time>2020-08-12T14:45:54Z</time>
      </trkpt>
      <trkpt lat="41.730083" lon="1.852499">
        <ele>274.2</ele>
        <time>2020-08-12T14:45:54Z</time>
      </trkpt>
      <trkpt lat="41.730284" lon="1.852081">
        <ele>274.2</ele>
        <time>2020-08-12T14:45:57Z</time>
      </trkpt>
      <trkpt lat="41.730358" lon="1.851992">
        <ele>274.2</ele>
        <time>2020-08-12T14:45:57Z</time>
      </trkpt>
      <trkpt lat="41.73061" lon="1.851869">
        <ele>274.2</ele>
        <time>2020-08-12T14:45:59Z</time>
      </trkpt>
      <trkpt lat="41.731566" lon="1.851889">
        <ele>276.8</ele>
        <time>2020-08-12T14:46:05Z</time>
      </trkpt>
      <trkpt lat="41.732085" lon="1.851857">
        <ele>279.4</ele>
        <time>2020-08-12T14:46:09Z</time>
      </trkpt>
      <trkpt lat="41.732433" lon="1.851812">
        <ele>279.4</ele>
        <time>2020-08-12T14:46:11Z</time>
      </trkpt>
      <trkpt lat="41.732834" lon="1.851708">
        <ele>280.6</ele>
        <time>2020-08-12T14:46:13Z</time>
      </trkpt>
      <trkpt lat="41.733246" lon="1.851549">
        <ele>282.6</ele>
        <time>2020-08-12T14:46:16Z</time>
      </trkpt>
      <trkpt lat="41.734005" lon="1.851146">
        <ele>282.6</ele>
        <time>2020-08-12T14:46:21Z</time>
      </trkpt>
      <trkpt lat="41.735002" lon="1.850504">
        <ele>281.0</ele>
        <time>2020-08-12T14:46:29Z</time>
      </trkpt>
      <trkpt lat="41.735236" lon="1.850335">
        <ele>281.0</ele>
        <time>2020-08-12T14:46:30Z</time>
      </trkpt>
      <trkpt lat="41.735673" lon="1.850093">
        <ele>281.0</ele>
        <time>2020-08-12T14:46:33Z</time>
      </trkpt>
      <trkpt lat="41.736423" lon="1.849778">
        <ele>282.8</ele>
        <time>2020-08-12T14:46:38Z</time>
      </trkpt>
      <trkpt lat="41.736704" lon="1.849695">
        <ele>281.0</ele>
        <time>2020-08-12T14:46:40Z</time>
      </trkpt>
      <trkpt lat="41.737076" lon="1.849663">
        <ele>281.0</ele>
        <time>2020-08-12T14:46:42Z</time>
      </trkpt>
      <trkpt lat="41.73787" lon="1.849753">
        <ele>281.0</ele>
        <time>2020-08-12T14:46:47Z</time>
      </trkpt>
      <trkpt lat="41.73808" lon="1.849799">
        <ele>281.0</ele>
        <time>2020-08-12T14:46:49Z</time>
      </trkpt>
      <trkpt lat="41.738296" lon="1.849889">
        <ele>281.0</ele>
        <time>2020-08-12T14:46:50Z</time>
      </trkpt>
      <trkpt lat="41.738793" lon="1.850041">
        <ele>279.6</ele>
        <time>2020-08-12T14:46:53Z</time>
      </trkpt>
      <trkpt lat="41.738956" lon="1.850048">
        <ele>279.6</ele>
        <time>2020-08-12T14:46:54Z</time>
      </trkpt>
      <trkpt lat="41.739116" lon="1.850024">
        <ele>279.6</ele>
        <time>2020-08-12T14:46:55Z</time>
      </trkpt>
      <trkpt lat="41.739658" lon="1.849707">
        <ele>280.0</ele>
        <time>2020-08-12T14:46:59Z</time>
      </trkpt>
      <trkpt lat="41.74022" lon="1.84934">
        <ele>278.6</ele>
        <time>2020-08-12T14:47:03Z</time>
      </trkpt>
      <trkpt lat="41.741946" lon="1.848308">
        <ele>276.4</ele>
        <time>2020-08-12T14:47:14Z</time>
      </trkpt>
      <trkpt lat="41.742586" lon="1.847718">
        <ele>278.0</ele>
        <time>2020-08-12T14:47:19Z</time>
      </trkpt>
      <trkpt lat="41.742846" lon="1.847405">
        <ele>275.2</ele>
        <time>2020-08-12T14:47:21Z</time>
      </trkpt>
      <trkpt lat="41.743079" lon="1.847072">
        <ele>275.2</ele>
        <time>2020-08-12T14:47:23Z</time>
      </trkpt>
      <trkpt lat="41.74337" lon="1.846577">
        <ele>272.8</ele>
        <time>2020-08-12T14:47:26Z</time>
      </trkpt>
      <trkpt lat="41.743462" lon="1.846408">
        <ele>272.8</ele>
        <time>2020-08-12T14:47:27Z</time>
      </trkpt>
      <trkpt lat="41.743773" lon="1.845706">
        <ele>271.0</ele>
        <time>2020-08-12T14:47:31Z</time>
      </trkpt>
      <trkpt lat="41.743925" lon="1.845248">
        <ele>271.0</ele>
        <time>2020-08-12T14:47:33Z</time>
      </trkpt>
      <trkpt lat="41.744109" lon="1.844533">
        <ele>270.8</ele>
        <time>2020-08-12T14:47:37Z</time>
      </trkpt>
      <trkpt lat="41.744323" lon="1.842956">
        <ele>275.0</ele>
        <time>2020-08-12T14:47:44Z</time>
      </trkpt>
      <trkpt lat="41.744836" lon="1.838404">
        <ele>277.8</ele>
        <time>2020-08-12T14:48:05Z</time>
      </trkpt>
      <trkpt lat="41.744891" lon="1.837735">
        <ele>282.0</ele>
        <time>2020-08-12T14:48:09Z</time>
      </trkpt>
      <trkpt lat="41.744891" lon="1.837735">
        <ele>282.0</ele>
        <time>2020-08-12T14:48:09Z</time>
      </trkpt>
      <trkpt lat="41.744888" lon="1.837088">
        <ele>283.4</ele>
        <time>2020-08-12T14:48:11Z</time>
      </trkpt>
      <trkpt lat="41.744847" lon="1.836678">
        <ele>283.4</ele>
        <time>2020-08-12T14:48:13Z</time>
      </trkpt>
      <trkpt lat="41.744635" lon="1.835303">
        <ele>287.6</ele>
        <time>2020-08-12T14:48:18Z</time>
      </trkpt>
      <trkpt lat="41.744591" lon="1.834904">
        <ele>289.0</ele>
        <time>2020-08-12T14:48:20Z</time>
      </trkpt>
      <trkpt lat="41.744576" lon="1.834361">
        <ele>289.0</ele>
        <time>2020-08-12T14:48:22Z</time>
      </trkpt>
      <trkpt lat="41.744624" lon="1.833625">
        <ele>289.4</ele>
        <time>2020-08-12T14:48:24Z</time>
      </trkpt>
      <trkpt lat="41.744701" lon="1.833204">
        <ele>288.4</ele>
        <time>2020-08-12T14:48:26Z</time>
      </trkpt>
      <trkpt lat="41.744843" lon="1.832612">
        <ele>288.4</ele>
        <time>2020-08-12T14:48:28Z</time>
      </trkpt>
      <trkpt lat="41.745012" lon="1.832058">
        <ele>280.2</ele>
        <time>2020-08-12T14:48:31Z</time>
      </trkpt>
      <trkpt lat="41.745145" lon="1.831415">
        <ele>277.6</ele>
        <time>2020-08-12T14:48:33Z</time>
      </trkpt>
      <trkpt lat="41.745178" lon="1.831144">
        <ele>277.6</ele>
        <time>2020-08-12T14:48:34Z</time>
      </trkpt>
      <trkpt lat="41.745191" lon="1.830861">
        <ele>277.6</ele>
        <time>2020-08-12T14:48:35Z</time>
      </trkpt>
      <trkpt lat="41.745165" lon="1.830375">
        <ele>275.2</ele>
        <time>2020-08-12T14:48:37Z</time>
      </trkpt>
      <trkpt lat="41.745071" lon="1.829824">
        <ele>271.4</ele>
        <time>2020-08-12T14:48:39Z</time>
      </trkpt>
      <trkpt lat="41.744902" lon="1.829379">
        <ele>276.8</ele>
        <time>2020-08-12T14:48:41Z</time>
      </trkpt>
      <trkpt lat="41.744651" lon="1.828839">
        <ele>272.4</ele>
        <time>2020-08-12T14:48:44Z</time>
      </trkpt>
      <trkpt lat="41.743903" lon="1.827918">
        <ele>271.6</ele>
        <time>2020-08-12T14:48:49Z</time>
      </trkpt>
      <trkpt lat="41.743724" lon="1.827638">
        <ele>271.6</ele>
        <time>2020-08-12T14:48:50Z</time>
      </trkpt>
      <trkpt lat="41.743267" lon="1.827025">
        <ele>271.4</ele>
        <time>2020-08-12T14:48:53Z</time>
      </trkpt>
      <trkpt lat="41.742322" lon="1.82511">
        <ele>264.6</ele>
        <time>2020-08-12T14:49:00Z</time>
      </trkpt>
      <trkpt lat="41.741254" lon="1.822689">
        <ele>253.6</ele>
        <time>2020-08-12T14:49:09Z</time>
      </trkpt>
      <trkpt lat="41.740753" lon="1.821608">
        <ele>251.6</ele>
        <time>2020-08-12T14:49:13Z</time>
      </trkpt>
      <trkpt lat="41.74051" lon="1.820763">
        <ele>247.8</ele>
        <time>2020-08-12T14:49:16Z</time>
      </trkpt>
      <trkpt lat="41.740404" lon="1.820298">
        <ele>247.8</ele>
        <time>2020-08-12T14:49:18Z</time>
      </trkpt>
      <trkpt lat="41.740327" lon="1.819693">
        <ele>245.0</ele>
        <time>2020-08-12T14:49:20Z</time>
      </trkpt>
      <trkpt lat="41.740294" lon="1.818928">
        <ele>242.2</ele>
        <time>2020-08-12T14:49:22Z</time>
      </trkpt>
      <trkpt lat="41.740307" lon="1.817897">
        <ele>239.8</ele>
        <time>2020-08-12T14:49:26Z</time>
      </trkpt>
      <trkpt lat="41.740292" lon="1.817232">
        <ele>240.2</ele>
        <time>2020-08-12T14:49:28Z</time>
      </trkpt>
      <trkpt lat="41.740254" lon="1.816702">
        <ele>240.2</ele>
        <time>2020-08-12T14:49:29Z</time>
      </trkpt>
      <trkpt lat="41.739323" lon="1.81115">
        <ele>229.2</ele>
        <time>2020-08-12T14:49:47Z</time>
      </trkpt>
      <trkpt lat="41.739155" lon="1.810358">
        <ele>221.8</ele>
        <time>2020-08-12T14:49:50Z</time>
      </trkpt>
      <trkpt lat="41.739004" lon="1.809786">
        <ele>221.4</ele>
        <time>2020-08-12T14:49:52Z</time>
      </trkpt>
      <trkpt lat="41.738782" lon="1.809169">
        <ele>221.4</ele>
        <time>2020-08-12T14:49:54Z</time>
      </trkpt>
      <trkpt lat="41.738545" lon="1.808636">
        <ele>220.2</ele>
        <time>2020-08-12T14:49:56Z</time>
      </trkpt>
      <trkpt lat="41.738279" lon="1.808167">
        <ele>218.6</ele>
        <time>2020-08-12T14:49:58Z</time>
      </trkpt>
      <trkpt lat="41.737067" lon="1.806244">
        <ele>220.2</ele>
        <time>2020-08-12T14:50:06Z</time>
      </trkpt>
      <trkpt lat="41.73615" lon="1.804945">
        <ele>231.8</ele>
        <time>2020-08-12T14:50:12Z</time>
      </trkpt>
      <trkpt lat="41.735504" lon="1.80418">
        <ele>231.8</ele>
        <time>2020-08-12T14:50:15Z</time>
      </trkpt>
      <trkpt lat="41.734933" lon="1.803588">
        <ele>235.2</ele>
        <time>2020-08-12T14:50:19Z</time>
      </trkpt>
      <trkpt lat="41.734686" lon="1.803356">
        <ele>235.2</ele>
        <time>2020-08-12T14:50:20Z</time>
      </trkpt>
      <trkpt lat="41.734188" lon="1.803006">
        <ele>238.2</ele>
        <time>2020-08-12T14:50:22Z</time>
      </trkpt>
      <trkpt lat="41.733547" lon="1.802687">
        <ele>240.4</ele>
        <time>2020-08-12T14:50:25Z</time>
      </trkpt>
      <trkpt lat="41.732801" lon="1.802408">
        <ele>248.4</ele>
        <time>2020-08-12T14:50:28Z</time>
      </trkpt>
      <trkpt lat="41.732414" lon="1.802229">
        <ele>249.0</ele>
        <time>2020-08-12T14:50:30Z</time>
      </trkpt>
      <trkpt lat="41.732265" lon="1.802149">
        <ele>249.0</ele>
        <time>2020-08-12T14:50:31Z</time>
      </trkpt>
      <trkpt lat="41.731962" lon="1.801936">
        <ele>249.0</ele>
        <time>2020-08-12T14:50:32Z</time>
      </trkpt>
      <trkpt lat="41.731674" lon="1.801722">
        <ele>249.0</ele>
        <time>2020-08-12T14:50:34Z</time>
      </trkpt>
      <trkpt lat="41.731361" lon="1.801401">
        <ele>251.4</ele>
        <time>2020-08-12T14:50:35Z</time>
      </trkpt>
      <trkpt lat="41.731131" lon="1.801126">
        <ele>251.4</ele>
        <time>2020-08-12T14:50:37Z</time>
      </trkpt>
      <trkpt lat="41.730891" lon="1.800786">
        <ele>256.0</ele>
        <time>2020-08-12T14:50:38Z</time>
      </trkpt>
      <trkpt lat="41.730581" lon="1.80024">
        <ele>254.8</ele>
        <time>2020-08-12T14:50:40Z</time>
      </trkpt>
      <trkpt lat="41.730455" lon="1.799927">
        <ele>262.0</ele>
        <time>2020-08-12T14:50:42Z</time>
      </trkpt>
      <trkpt lat="41.73031" lon="1.799523">
        <ele>262.0</ele>
        <time>2020-08-12T14:50:43Z</time>
      </trkpt>
      <trkpt lat="41.730195" lon="1.799131">
        <ele>267.8</ele>
        <time>2020-08-12T14:50:44Z</time>
      </trkpt>
      <trkpt lat="41.73011" lon="1.798759">
        <ele>267.8</ele>
        <time>2020-08-12T14:50:46Z</time>
      </trkpt>
      <trkpt lat="41.729489" lon="1.795059">
        <ele>268.2</ele>
        <time>2020-08-12T14:50:58Z</time>
      </trkpt>
      <trkpt lat="41.729273" lon="1.793635">
        <ele>273.0</ele>
        <time>2020-08-12T14:51:02Z</time>
      </trkpt>
      <trkpt lat="41.729201" lon="1.792994">
        <ele>274.4</ele>
        <time>2020-08-12T14:51:04Z</time>
      </trkpt>
      <trkpt lat="41.729186" lon="1.792409">
        <ele>273.0</ele>
        <time>2020-08-12T14:51:06Z</time>
      </trkpt>
      <trkpt lat="41.729213" lon="1.791871">
        <ele>273.0</ele>
        <time>2020-08-12T14:51:08Z</time>
      </trkpt>
      <trkpt lat="41.729311" lon="1.791192">
        <ele>269.4</ele>
        <time>2020-08-12T14:51:10Z</time>
      </trkpt>
      <trkpt lat="41.729436" lon="1.79068">
        <ele>267.0</ele>
        <time>2020-08-12T14:51:12Z</time>
      </trkpt>
      <trkpt lat="41.729641" lon="1.79003">
        <ele>267.0</ele>
        <time>2020-08-12T14:51:14Z</time>
      </trkpt>
      <trkpt lat="41.729847" lon="1.789536">
        <ele>267.0</ele>
        <time>2020-08-12T14:51:16Z</time>
      </trkpt>
      <trkpt lat="41.730925" lon="1.787403">
        <ele>277.4</ele>
        <time>2020-08-12T14:51:24Z</time>
      </trkpt>
      <trkpt lat="41.731159" lon="1.786868">
        <ele>277.4</ele>
        <time>2020-08-12T14:51:26Z</time>
      </trkpt>
      <trkpt lat="41.733147" lon="1.782848">
        <ele>293.8</ele>
        <time>2020-08-12T14:51:41Z</time>
      </trkpt>
      <trkpt lat="41.733951" lon="1.78128">
        <ele>308.6</ele>
        <time>2020-08-12T14:51:47Z</time>
      </trkpt>
      <trkpt lat="41.735951" lon="1.777289">
        <ele>309.6</ele>
        <time>2020-08-12T14:52:03Z</time>
      </trkpt>
      <trkpt lat="41.736311" lon="1.776394">
        <ele>306.6</ele>
        <time>2020-08-12T14:52:06Z</time>
      </trkpt>
      <trkpt lat="41.736432" lon="1.776014">
        <ele>306.6</ele>
        <time>2020-08-12T14:52:07Z</time>
      </trkpt>
      <trkpt lat="41.736529" lon="1.775631">
        <ele>302.4</ele>
        <time>2020-08-12T14:52:09Z</time>
      </trkpt>
      <trkpt lat="41.736608" lon="1.775234">
        <ele>302.4</ele>
        <time>2020-08-12T14:52:10Z</time>
      </trkpt>
      <trkpt lat="41.736669" lon="1.774784">
        <ele>300.4</ele>
        <time>2020-08-12T14:52:11Z</time>
      </trkpt>
      <trkpt lat="41.736698" lon="1.774393">
        <ele>300.4</ele>
        <time>2020-08-12T14:52:13Z</time>
      </trkpt>
      <trkpt lat="41.736707" lon="1.773988">
        <ele>295.8</ele>
        <time>2020-08-12T14:52:14Z</time>
      </trkpt>
      <trkpt lat="41.736695" lon="1.773573">
        <ele>295.8</ele>
        <time>2020-08-12T14:52:15Z</time>
      </trkpt>
      <trkpt lat="41.73666" lon="1.773179">
        <ele>291.0</ele>
        <time>2020-08-12T14:52:16Z</time>
      </trkpt>
      <trkpt lat="41.736605" lon="1.77278">
        <ele>291.0</ele>
        <time>2020-08-12T14:52:18Z</time>
      </trkpt>
      <trkpt lat="41.736481" lon="1.772195">
        <ele>292.8</ele>
        <time>2020-08-12T14:52:20Z</time>
      </trkpt>
      <trkpt lat="41.736374" lon="1.771828">
        <ele>292.8</ele>
        <time>2020-08-12T14:52:21Z</time>
      </trkpt>
      <trkpt lat="41.736245" lon="1.77146">
        <ele>295.8</ele>
        <time>2020-08-12T14:52:22Z</time>
      </trkpt>
      <trkpt lat="41.736096" lon="1.771105">
        <ele>295.8</ele>
        <time>2020-08-12T14:52:24Z</time>
      </trkpt>
      <trkpt lat="41.735931" lon="1.770772">
        <ele>298.6</ele>
        <time>2020-08-12T14:52:25Z</time>
      </trkpt>
      <trkpt lat="41.735681" lon="1.770345">
        <ele>295.4</ele>
        <time>2020-08-12T14:52:27Z</time>
      </trkpt>
      <trkpt lat="41.735438" lon="1.770003">
        <ele>295.4</ele>
        <time>2020-08-12T14:52:28Z</time>
      </trkpt>
      <trkpt lat="41.73522" lon="1.769741">
        <ele>298.8</ele>
        <time>2020-08-12T14:52:29Z</time>
      </trkpt>
      <trkpt lat="41.734351" lon="1.768843">
        <ele>301.8</ele>
        <time>2020-08-12T14:52:34Z</time>
      </trkpt>
      <trkpt lat="41.731961" lon="1.766557">
        <ele>314.8</ele>
        <time>2020-08-12T14:52:46Z</time>
      </trkpt>
      <trkpt lat="41.731692" lon="1.766181">
        <ele>314.8</ele>
        <time>2020-08-12T14:52:48Z</time>
      </trkpt>
      <trkpt lat="41.731475" lon="1.765844">
        <ele>310.0</ele>
        <time>2020-08-12T14:52:50Z</time>
      </trkpt>
      <trkpt lat="41.731215" lon="1.765359">
        <ele>316.4</ele>
        <time>2020-08-12T14:52:51Z</time>
      </trkpt>
      <trkpt lat="41.731013" lon="1.76489">
        <ele>321.6</ele>
        <time>2020-08-12T14:52:53Z</time>
      </trkpt>
      <trkpt lat="41.730861" lon="1.76444">
        <ele>321.6</ele>
        <time>2020-08-12T14:52:55Z</time>
      </trkpt>
      <trkpt lat="41.730735" lon="1.763944">
        <ele>314.6</ele>
        <time>2020-08-12T14:52:56Z</time>
      </trkpt>
      <trkpt lat="41.730665" lon="1.763409">
        <ele>314.6</ele>
        <time>2020-08-12T14:52:58Z</time>
      </trkpt>
      <trkpt lat="41.730641" lon="1.762814">
        <ele>313.8</ele>
        <time>2020-08-12T14:53:00Z</time>
      </trkpt>
      <trkpt lat="41.730644" lon="1.762275">
        <ele>313.6</ele>
        <time>2020-08-12T14:53:02Z</time>
      </trkpt>
      <trkpt lat="41.730777" lon="1.760027">
        <ele>310.2</ele>
        <time>2020-08-12T14:53:09Z</time>
      </trkpt>
      <trkpt lat="41.730857" lon="1.758004">
        <ele>298.8</ele>
        <time>2020-08-12T14:53:15Z</time>
      </trkpt>
      <trkpt lat="41.730934" lon="1.756994">
        <ele>291.0</ele>
        <time>2020-08-12T14:53:19Z</time>
      </trkpt>
      <trkpt lat="41.730971" lon="1.756669">
        <ele>291.0</ele>
        <time>2020-08-12T14:53:20Z</time>
      </trkpt>
      <trkpt lat="41.731101" lon="1.755904">
        <ele>287.2</ele>
        <time>2020-08-12T14:53:22Z</time>
      </trkpt>
      <trkpt lat="41.731232" lon="1.755326">
        <ele>286.8</ele>
        <time>2020-08-12T14:53:24Z</time>
      </trkpt>
      <trkpt lat="41.731564" lon="1.754">
        <ele>288.4</ele>
        <time>2020-08-12T14:53:29Z</time>
      </trkpt>
      <trkpt lat="41.731652" lon="1.753546">
        <ele>288.4</ele>
        <time>2020-08-12T14:53:30Z</time>
      </trkpt>
      <trkpt lat="41.731712" lon="1.753011">
        <ele>286.4</ele>
        <time>2020-08-12T14:53:32Z</time>
      </trkpt>
      <trkpt lat="41.731728" lon="1.752306">
        <ele>287.0</ele>
        <time>2020-08-12T14:53:34Z</time>
      </trkpt>
      <trkpt lat="41.731709" lon="1.751859">
        <ele>287.0</ele>
        <time>2020-08-12T14:53:35Z</time>
      </trkpt>
      <trkpt lat="41.731653" lon="1.751369">
        <ele>287.4</ele>
        <time>2020-08-12T14:53:37Z</time>
      </trkpt>
      <trkpt lat="41.73126" lon="1.749357">
        <ele>293.4</ele>
        <time>2020-08-12T14:53:44Z</time>
      </trkpt>
      <trkpt lat="41.731226" lon="1.748975">
        <ele>299.8</ele>
        <time>2020-08-12T14:53:45Z</time>
      </trkpt>
      <trkpt lat="41.731227" lon="1.747948">
        <ele>304.2</ele>
        <time>2020-08-12T14:53:48Z</time>
      </trkpt>
      <trkpt lat="41.731271" lon="1.747492">
        <ele>305.0</ele>
        <time>2020-08-12T14:53:50Z</time>
      </trkpt>
      <trkpt lat="41.731341" lon="1.747033">
        <ele>305.0</ele>
        <time>2020-08-12T14:53:51Z</time>
      </trkpt>
      <trkpt lat="41.731489" lon="1.746433">
        <ele>301.4</ele>
        <time>2020-08-12T14:53:53Z</time>
      </trkpt>
      <trkpt lat="41.73172" lon="1.745773">
        <ele>303.4</ele>
        <time>2020-08-12T14:53:55Z</time>
      </trkpt>
      <trkpt lat="41.732151" lon="1.744685">
        <ele>302.0</ele>
        <time>2020-08-12T14:53:59Z</time>
      </trkpt>
      <trkpt lat="41.732356" lon="1.743999">
        <ele>301.0</ele>
        <time>2020-08-12T14:54:02Z</time>
      </trkpt>
      <trkpt lat="41.732458" lon="1.743492">
        <ele>301.0</ele>
        <time>2020-08-12T14:54:03Z</time>
      </trkpt>
      <trkpt lat="41.732521" lon="1.742993">
        <ele>306.8</ele>
        <time>2020-08-12T14:54:05Z</time>
      </trkpt>
      <trkpt lat="41.732552" lon="1.742509">
        <ele>306.8</ele>
        <time>2020-08-12T14:54:07Z</time>
      </trkpt>
      <trkpt lat="41.732476" lon="1.737681">
        <ele>323.0</ele>
        <time>2020-08-12T14:54:22Z</time>
      </trkpt>
      <trkpt lat="41.732442" lon="1.737213">
        <ele>328.2</ele>
        <time>2020-08-12T14:54:23Z</time>
      </trkpt>
      <trkpt lat="41.732369" lon="1.736687">
        <ele>328.2</ele>
        <time>2020-08-12T14:54:25Z</time>
      </trkpt>
      <trkpt lat="41.732238" lon="1.736149">
        <ele>335.0</ele>
        <time>2020-08-12T14:54:27Z</time>
      </trkpt>
      <trkpt lat="41.732066" lon="1.735606">
        <ele>340.0</ele>
        <time>2020-08-12T14:54:29Z</time>
      </trkpt>
      <trkpt lat="41.731501" lon="1.734139">
        <ele>341.0</ele>
        <time>2020-08-12T14:54:34Z</time>
      </trkpt>
      <trkpt lat="41.731292" lon="1.733442">
        <ele>341.0</ele>
        <time>2020-08-12T14:54:36Z</time>
      </trkpt>
      <trkpt lat="41.731136" lon="1.732697">
        <ele>340.6</ele>
        <time>2020-08-12T14:54:39Z</time>
      </trkpt>
      <trkpt lat="41.731049" lon="1.731986">
        <ele>337.0</ele>
        <time>2020-08-12T14:54:41Z</time>
      </trkpt>
      <trkpt lat="41.731018" lon="1.731466">
        <ele>333.8</ele>
        <time>2020-08-12T14:54:43Z</time>
      </trkpt>
      <trkpt lat="41.731017" lon="1.73079">
        <ele>332.0</ele>
        <time>2020-08-12T14:54:45Z</time>
      </trkpt>
      <trkpt lat="41.731064" lon="1.730073">
        <ele>332.0</ele>
        <time>2020-08-12T14:54:47Z</time>
      </trkpt>
      <trkpt lat="41.731156" lon="1.729491">
        <ele>330.0</ele>
        <time>2020-08-12T14:54:49Z</time>
      </trkpt>
      <trkpt lat="41.731267" lon="1.728942">
        <ele>327.6</ele>
        <time>2020-08-12T14:54:51Z</time>
      </trkpt>
      <trkpt lat="41.731473" lon="1.728184">
        <ele>323.4</ele>
        <time>2020-08-12T14:54:54Z</time>
      </trkpt>
      <trkpt lat="41.731692" lon="1.727443">
        <ele>334.4</ele>
        <time>2020-08-12T14:54:56Z</time>
      </trkpt>
      <trkpt lat="41.731948" lon="1.726717">
        <ele>334.4</ele>
        <time>2020-08-12T14:54:59Z</time>
      </trkpt>
      <trkpt lat="41.732231" lon="1.726034">
        <ele>325.6</ele>
        <time>2020-08-12T14:55:01Z</time>
      </trkpt>
      <trkpt lat="41.732488" lon="1.72547">
        <ele>320.0</ele>
        <time>2020-08-12T14:55:03Z</time>
      </trkpt>
      <trkpt lat="41.734441" lon="1.721673">
        <ele>338.8</ele>
        <time>2020-08-12T14:55:18Z</time>
      </trkpt>
      <trkpt lat="41.735086" lon="1.720477">
        <ele>348.8</ele>
        <time>2020-08-12T14:55:23Z</time>
      </trkpt>
      <trkpt lat="41.737214" lon="1.716386">
        <ele>392.6</ele>
        <time>2020-08-12T14:55:39Z</time>
      </trkpt>
      <trkpt lat="41.737561" lon="1.715615">
        <ele>395.4</ele>
        <time>2020-08-12T14:55:42Z</time>
      </trkpt>
      <trkpt lat="41.737827" lon="1.7149">
        <ele>397.2</ele>
        <time>2020-08-12T14:55:44Z</time>
      </trkpt>
      <trkpt lat="41.738192" lon="1.71379">
        <ele>399.6</ele>
        <time>2020-08-12T14:55:48Z</time>
      </trkpt>
      <trkpt lat="41.738549" lon="1.712474">
        <ele>396.2</ele>
        <time>2020-08-12T14:55:52Z</time>
      </trkpt>
      <trkpt lat="41.738712" lon="1.711578">
        <ele>398.6</ele>
        <time>2020-08-12T14:55:55Z</time>
      </trkpt>
      <trkpt lat="41.738813" lon="1.710736">
        <ele>400.2</ele>
        <time>2020-08-12T14:55:58Z</time>
      </trkpt>
      <trkpt lat="41.738846" lon="1.710195">
        <ele>400.2</ele>
        <time>2020-08-12T14:56:00Z</time>
      </trkpt>
      <trkpt lat="41.738854" lon="1.709082">
        <ele>398.0</ele>
        <time>2020-08-12T14:56:03Z</time>
      </trkpt>
      <trkpt lat="41.738794" lon="1.7084">
        <ele>398.0</ele>
        <time>2020-08-12T14:56:06Z</time>
      </trkpt>
      <trkpt lat="41.738695" lon="1.707562">
        <ele>396.2</ele>
        <time>2020-08-12T14:56:08Z</time>
      </trkpt>
      <trkpt lat="41.73857" lon="1.706753">
        <ele>394.0</ele>
        <time>2020-08-12T14:56:11Z</time>
      </trkpt>
      <trkpt lat="41.738423" lon="1.705971">
        <ele>391.8</ele>
        <time>2020-08-12T14:56:13Z</time>
      </trkpt>
      <trkpt lat="41.738272" lon="1.705268">
        <ele>391.0</ele>
        <time>2020-08-12T14:56:16Z</time>
      </trkpt>
      <trkpt lat="41.737923" lon="1.703897">
        <ele>383.4</ele>
        <time>2020-08-12T14:56:20Z</time>
      </trkpt>
      <trkpt lat="41.737749" lon="1.703303">
        <ele>380.6</ele>
        <time>2020-08-12T14:56:22Z</time>
      </trkpt>
      <trkpt lat="41.737494" lon="1.702515">
        <ele>388.6</ele>
        <time>2020-08-12T14:56:25Z</time>
      </trkpt>
      <trkpt lat="41.7372" lon="1.701694">
        <ele>384.2</ele>
        <time>2020-08-12T14:56:28Z</time>
      </trkpt>
      <trkpt lat="41.736799" lon="1.700705">
        <ele>376.8</ele>
        <time>2020-08-12T14:56:32Z</time>
      </trkpt>
      <trkpt lat="41.736372" lon="1.69976">
        <ele>372.6</ele>
        <time>2020-08-12T14:56:35Z</time>
      </trkpt>
      <trkpt lat="41.736089" lon="1.699216">
        <ele>372.6</ele>
        <time>2020-08-12T14:56:37Z</time>
      </trkpt>
      <trkpt lat="41.735799" lon="1.698739">
        <ele>369.8</ele>
        <time>2020-08-12T14:56:39Z</time>
      </trkpt>
      <trkpt lat="41.734834" lon="1.697388">
        <ele>366.0</ele>
        <time>2020-08-12T14:56:45Z</time>
      </trkpt>
      <trkpt lat="41.734488" lon="1.696766">
        <ele>366.0</ele>
        <time>2020-08-12T14:56:48Z</time>
      </trkpt>
      <trkpt lat="41.734387" lon="1.696539">
        <ele>364.2</ele>
        <time>2020-08-12T14:56:48Z</time>
      </trkpt>
      <trkpt lat="41.734249" lon="1.696156">
        <ele>364.2</ele>
        <time>2020-08-12T14:56:50Z</time>
      </trkpt>
      <trkpt lat="41.734116" lon="1.695658">
        <ele>353.2</ele>
        <time>2020-08-12T14:56:52Z</time>
      </trkpt>
      <trkpt lat="41.733985" lon="1.694878">
        <ele>351.8</ele>
        <time>2020-08-12T14:56:54Z</time>
      </trkpt>
      <trkpt lat="41.733958" lon="1.694448">
        <ele>351.8</ele>
        <time>2020-08-12T14:56:55Z</time>
      </trkpt>
      <trkpt lat="41.73396" lon="1.69402">
        <ele>354.6</ele>
        <time>2020-08-12T14:56:57Z</time>
      </trkpt>
      <trkpt lat="41.734013" lon="1.693432">
        <ele>354.6</ele>
        <time>2020-08-12T14:56:59Z</time>
      </trkpt>
      <trkpt lat="41.734214" lon="1.692408">
        <ele>360.0</ele>
        <time>2020-08-12T14:57:02Z</time>
      </trkpt>
      <trkpt lat="41.734394" lon="1.691694">
        <ele>360.0</ele>
        <time>2020-08-12T14:57:04Z</time>
      </trkpt>
      <trkpt lat="41.734623" lon="1.690931">
        <ele>370.2</ele>
        <time>2020-08-12T14:57:07Z</time>
      </trkpt>
      <trkpt lat="41.735074" lon="1.689612">
        <ele>363.0</ele>
        <time>2020-08-12T14:57:12Z</time>
      </trkpt>
      <trkpt lat="41.735255" lon="1.689032">
        <ele>366.4</ele>
        <time>2020-08-12T14:57:14Z</time>
      </trkpt>
      <trkpt lat="41.735357" lon="1.688617">
        <ele>366.4</ele>
        <time>2020-08-12T14:57:15Z</time>
      </trkpt>
      <trkpt lat="41.735419" lon="1.68828">
        <ele>369.2</ele>
        <time>2020-08-12T14:57:16Z</time>
      </trkpt>
      <trkpt lat="41.735489" lon="1.687736">
        <ele>369.2</ele>
        <time>2020-08-12T14:57:18Z</time>
      </trkpt>
      <trkpt lat="41.735517" lon="1.687223">
        <ele>368.8</ele>
        <time>2020-08-12T14:57:20Z</time>
      </trkpt>
      <trkpt lat="41.735504" lon="1.686587">
        <ele>366.2</ele>
        <time>2020-08-12T14:57:22Z</time>
      </trkpt>
      <trkpt lat="41.735489" lon="1.686334">
        <ele>366.2</ele>
        <time>2020-08-12T14:57:22Z</time>
      </trkpt>
      <trkpt lat="41.735422" lon="1.685827">
        <ele>363.0</ele>
        <time>2020-08-12T14:57:24Z</time>
      </trkpt>
      <trkpt lat="41.735299" lon="1.685229">
        <ele>363.0</ele>
        <time>2020-08-12T14:57:26Z</time>
      </trkpt>
      <trkpt lat="41.735012" lon="1.68403">
        <ele>366.0</ele>
        <time>2020-08-12T14:57:30Z</time>
      </trkpt>
      <trkpt lat="41.734563" lon="1.681954">
        <ele>368.2</ele>
        <time>2020-08-12T14:57:37Z</time>
      </trkpt>
      <trkpt lat="41.734071" lon="1.67935">
        <ele>371.2</ele>
        <time>2020-08-12T14:57:45Z</time>
      </trkpt>
      <trkpt lat="41.733975" lon="1.678691">
        <ele>380.2</ele>
        <time>2020-08-12T14:57:48Z</time>
      </trkpt>
      <trkpt lat="41.733741" lon="1.677854">
        <ele>389.0</ele>
        <time>2020-08-12T14:57:51Z</time>
      </trkpt>
      <trkpt lat="41.733556" lon="1.677293">
        <ele>389.8</ele>
        <time>2020-08-12T14:57:52Z</time>
      </trkpt>
      <trkpt lat="41.733316" lon="1.676691">
        <ele>414.6</ele>
        <time>2020-08-12T14:57:55Z</time>
      </trkpt>
      <trkpt lat="41.732711" lon="1.675397">
        <ele>396.6</ele>
        <time>2020-08-12T14:58:00Z</time>
      </trkpt>
      <trkpt lat="41.732422" lon="1.674641">
        <ele>413.2</ele>
        <time>2020-08-12T14:58:03Z</time>
      </trkpt>
      <trkpt lat="41.732248" lon="1.674046">
        <ele>406.8</ele>
        <time>2020-08-12T14:58:05Z</time>
      </trkpt>
      <trkpt lat="41.732127" lon="1.673492">
        <ele>406.8</ele>
        <time>2020-08-12T14:58:06Z</time>
      </trkpt>
      <trkpt lat="41.732046" lon="1.673001">
        <ele>402.0</ele>
        <time>2020-08-12T14:58:08Z</time>
      </trkpt>
      <trkpt lat="41.731999" lon="1.672583">
        <ele>402.0</ele>
        <time>2020-08-12T14:58:09Z</time>
      </trkpt>
      <trkpt lat="41.73198" lon="1.67224">
        <ele>398.2</ele>
        <time>2020-08-12T14:58:10Z</time>
      </trkpt>
      <trkpt lat="41.731978" lon="1.671699">
        <ele>398.2</ele>
        <time>2020-08-12T14:58:12Z</time>
      </trkpt>
      <trkpt lat="41.732024" lon="1.671088">
        <ele>393.4</ele>
        <time>2020-08-12T14:58:14Z</time>
      </trkpt>
      <trkpt lat="41.732106" lon="1.670587">
        <ele>391.2</ele>
        <time>2020-08-12T14:58:16Z</time>
      </trkpt>
      <trkpt lat="41.732279" lon="1.669798">
        <ele>391.0</ele>
        <time>2020-08-12T14:58:18Z</time>
      </trkpt>
      <trkpt lat="41.73257" lon="1.668647">
        <ele>390.4</ele>
        <time>2020-08-12T14:58:22Z</time>
      </trkpt>
      <trkpt lat="41.732659" lon="1.668149">
        <ele>392.8</ele>
        <time>2020-08-12T14:58:24Z</time>
      </trkpt>
      <trkpt lat="41.732701" lon="1.667811">
        <ele>392.8</ele>
        <time>2020-08-12T14:58:25Z</time>
      </trkpt>
      <trkpt lat="41.732718" lon="1.667185">
        <ele>395.8</ele>
        <time>2020-08-12T14:58:27Z</time>
      </trkpt>
      <trkpt lat="41.732694" lon="1.666627">
        <ele>399.6</ele>
        <time>2020-08-12T14:58:29Z</time>
      </trkpt>
      <trkpt lat="41.732586" lon="1.665892">
        <ele>399.6</ele>
        <time>2020-08-12T14:58:31Z</time>
      </trkpt>
      <trkpt lat="41.732469" lon="1.665335">
        <ele>396.2</ele>
        <time>2020-08-12T14:58:33Z</time>
      </trkpt>
      <trkpt lat="41.732257" lon="1.664528">
        <ele>401.0</ele>
        <time>2020-08-12T14:58:36Z</time>
      </trkpt>
      <trkpt lat="41.731502" lon="1.661914">
        <ele>405.0</ele>
        <time>2020-08-12T14:58:45Z</time>
      </trkpt>
      <trkpt lat="41.73123" lon="1.660902">
        <ele>408.0</ele>
        <time>2020-08-12T14:58:48Z</time>
      </trkpt>
      <trkpt lat="41.731103" lon="1.660272">
        <ele>411.8</ele>
        <time>2020-08-12T14:58:50Z</time>
      </trkpt>
      <trkpt lat="41.731003" lon="1.659624">
        <ele>414.4</ele>
        <time>2020-08-12T14:58:52Z</time>
      </trkpt>
      <trkpt lat="41.730962" lon="1.659195">
        <ele>414.4</ele>
        <time>2020-08-12T14:58:54Z</time>
      </trkpt>
      <trkpt lat="41.730962" lon="1.658254">
        <ele>416.6</ele>
        <time>2020-08-12T14:58:57Z</time>
      </trkpt>
      <trkpt lat="41.730985" lon="1.657938">
        <ele>416.6</ele>
        <time>2020-08-12T14:58:58Z</time>
      </trkpt>
      <trkpt lat="41.731073" lon="1.657264">
        <ele>416.4</ele>
        <time>2020-08-12T14:59:00Z</time>
      </trkpt>
      <trkpt lat="41.731194" lon="1.656705">
        <ele>416.4</ele>
        <time>2020-08-12T14:59:02Z</time>
      </trkpt>
      <trkpt lat="41.731375" lon="1.656089">
        <ele>416.0</ele>
        <time>2020-08-12T14:59:04Z</time>
      </trkpt>
      <trkpt lat="41.731526" lon="1.65563">
        <ele>414.4</ele>
        <time>2020-08-12T14:59:05Z</time>
      </trkpt>
      <trkpt lat="41.731822" lon="1.654854">
        <ele>417.8</ele>
        <time>2020-08-12T14:59:08Z</time>
      </trkpt>
      <trkpt lat="41.732246" lon="1.653647">
        <ele>413.2</ele>
        <time>2020-08-12T14:59:12Z</time>
      </trkpt>
      <trkpt lat="41.732436" lon="1.65278">
        <ele>412.0</ele>
        <time>2020-08-12T14:59:15Z</time>
      </trkpt>
      <trkpt lat="41.732512" lon="1.652081">
        <ele>417.8</ele>
        <time>2020-08-12T14:59:17Z</time>
      </trkpt>
      <trkpt lat="41.732521" lon="1.651605">
        <ele>416.0</ele>
        <time>2020-08-12T14:59:19Z</time>
      </trkpt>
      <trkpt lat="41.73251" lon="1.651219">
        <ele>416.0</ele>
        <time>2020-08-12T14:59:20Z</time>
      </trkpt>
      <trkpt lat="41.732458" lon="1.650802">
        <ele>422.2</ele>
        <time>2020-08-12T14:59:22Z</time>
      </trkpt>
      <trkpt lat="41.732256" lon="1.649789">
        <ele>425.6</ele>
        <time>2020-08-12T14:59:25Z</time>
      </trkpt>
      <trkpt lat="41.732086" lon="1.649235">
        <ele>425.6</ele>
        <time>2020-08-12T14:59:27Z</time>
      </trkpt>
      <trkpt lat="41.731872" lon="1.64863">
        <ele>426.8</ele>
        <time>2020-08-12T14:59:29Z</time>
      </trkpt>
      <trkpt lat="41.731693" lon="1.648065">
        <ele>425.8</ele>
        <time>2020-08-12T14:59:31Z</time>
      </trkpt>
      <trkpt lat="41.731596" lon="1.647715">
        <ele>452.6</ele>
        <time>2020-08-12T14:59:32Z</time>
      </trkpt>
      <trkpt lat="41.731488" lon="1.64713">
        <ele>453.6</ele>
        <time>2020-08-12T14:59:34Z</time>
      </trkpt>
      <trkpt lat="41.731432" lon="1.646552">
        <ele>455.2</ele>
        <time>2020-08-12T14:59:36Z</time>
      </trkpt>
      <trkpt lat="41.731409" lon="1.646005">
        <ele>455.2</ele>
        <time>2020-08-12T14:59:38Z</time>
      </trkpt>
      <trkpt lat="41.731443" lon="1.645366">
        <ele>458.2</ele>
        <time>2020-08-12T14:59:40Z</time>
      </trkpt>
      <trkpt lat="41.731542" lon="1.644681">
        <ele>460.4</ele>
        <time>2020-08-12T14:59:42Z</time>
      </trkpt>
      <trkpt lat="41.731796" lon="1.643759">
        <ele>437.2</ele>
        <time>2020-08-12T14:59:45Z</time>
      </trkpt>
      <trkpt lat="41.73244" lon="1.642226">
        <ele>435.6</ele>
        <time>2020-08-12T14:59:51Z</time>
      </trkpt>
      <trkpt lat="41.732837" lon="1.640782">
        <ele>429.8</ele>
        <time>2020-08-12T14:59:56Z</time>
      </trkpt>
      <trkpt lat="41.732996" lon="1.640273">
        <ele>429.8</ele>
        <time>2020-08-12T14:59:58Z</time>
      </trkpt>
      <trkpt lat="41.733116" lon="1.639945">
        <ele>436.0</ele>
        <time>2020-08-12T14:59:59Z</time>
      </trkpt>
      <trkpt lat="41.733308" lon="1.6395">
        <ele>436.0</ele>
        <time>2020-08-12T15:00:01Z</time>
      </trkpt>
      <trkpt lat="41.733554" lon="1.639066">
        <ele>438.8</ele>
        <time>2020-08-12T15:00:02Z</time>
      </trkpt>
      <trkpt lat="41.733801" lon="1.638706">
        <ele>438.8</ele>
        <time>2020-08-12T15:00:04Z</time>
      </trkpt>
      <trkpt lat="41.734252" lon="1.638119">
        <ele>440.8</ele>
        <time>2020-08-12T15:00:07Z</time>
      </trkpt>
      <trkpt lat="41.734931" lon="1.637456">
        <ele>457.4</ele>
        <time>2020-08-12T15:00:10Z</time>
      </trkpt>
      <trkpt lat="41.735528" lon="1.636591">
        <ele>460.4</ele>
        <time>2020-08-12T15:00:14Z</time>
      </trkpt>
      <trkpt lat="41.7357" lon="1.636297">
        <ele>460.4</ele>
        <time>2020-08-12T15:00:15Z</time>
      </trkpt>
      <trkpt lat="41.736051" lon="1.635638">
        <ele>454.0</ele>
        <time>2020-08-12T15:00:18Z</time>
      </trkpt>
      <trkpt lat="41.736575" lon="1.634436">
        <ele>459.6</ele>
        <time>2020-08-12T15:00:22Z</time>
      </trkpt>
      <trkpt lat="41.737171" lon="1.632977">
        <ele>466.4</ele>
        <time>2020-08-12T15:00:27Z</time>
      </trkpt>
      <trkpt lat="41.737501" lon="1.632038">
        <ele>457.2</ele>
        <time>2020-08-12T15:00:31Z</time>
      </trkpt>
      <trkpt lat="41.737605" lon="1.631353">
        <ele>461.2</ele>
        <time>2020-08-12T15:00:33Z</time>
      </trkpt>
      <trkpt lat="41.73766" lon="1.630829">
        <ele>462.6</ele>
        <time>2020-08-12T15:00:35Z</time>
      </trkpt>
      <trkpt lat="41.73768" lon="1.630042">
        <ele>462.6</ele>
        <time>2020-08-12T15:00:37Z</time>
      </trkpt>
      <trkpt lat="41.737644" lon="1.629453">
        <ele>463.2</ele>
        <time>2020-08-12T15:00:39Z</time>
      </trkpt>
      <trkpt lat="41.737431" lon="1.628345">
        <ele>476.4</ele>
        <time>2020-08-12T15:00:43Z</time>
      </trkpt>
      <trkpt lat="41.737081" lon="1.626153">
        <ele>464.4</ele>
        <time>2020-08-12T15:00:50Z</time>
      </trkpt>
      <trkpt lat="41.737013" lon="1.625622">
        <ele>465.4</ele>
        <time>2020-08-12T15:00:52Z</time>
      </trkpt>
      <trkpt lat="41.736987" lon="1.625214">
        <ele>465.4</ele>
        <time>2020-08-12T15:00:53Z</time>
      </trkpt>
      <trkpt lat="41.736985" lon="1.624825">
        <ele>469.4</ele>
        <time>2020-08-12T15:00:54Z</time>
      </trkpt>
      <trkpt lat="41.737002" lon="1.624449">
        <ele>469.4</ele>
        <time>2020-08-12T15:00:55Z</time>
      </trkpt>
      <trkpt lat="41.737028" lon="1.624156">
        <ele>477.2</ele>
        <time>2020-08-12T15:00:56Z</time>
      </trkpt>
      <trkpt lat="41.737164" lon="1.623356">
        <ele>477.2</ele>
        <time>2020-08-12T15:00:59Z</time>
      </trkpt>
      <trkpt lat="41.737353" lon="1.622676">
        <ele>485.8</ele>
        <time>2020-08-12T15:01:01Z</time>
      </trkpt>
      <trkpt lat="41.738217" lon="1.620546">
        <ele>473.0</ele>
        <time>2020-08-12T15:01:09Z</time>
      </trkpt>
      <trkpt lat="41.738444" lon="1.619894">
        <ele>471.6</ele>
        <time>2020-08-12T15:01:11Z</time>
      </trkpt>
      <trkpt lat="41.738621" lon="1.619324">
        <ele>471.6</ele>
        <time>2020-08-12T15:01:13Z</time>
      </trkpt>
      <trkpt lat="41.738771" lon="1.618767">
        <ele>470.8</ele>
        <time>2020-08-12T15:01:15Z</time>
      </trkpt>
      <trkpt lat="41.738945" lon="1.61801">
        <ele>470.4</ele>
        <time>2020-08-12T15:01:18Z</time>
      </trkpt>
      <trkpt lat="41.739036" lon="1.617319">
        <ele>471.6</ele>
        <time>2020-08-12T15:01:20Z</time>
      </trkpt>
      <trkpt lat="41.739058" lon="1.616977">
        <ele>471.6</ele>
        <time>2020-08-12T15:01:21Z</time>
      </trkpt>
      <trkpt lat="41.73909" lon="1.615541">
        <ele>476.0</ele>
        <time>2020-08-12T15:01:25Z</time>
      </trkpt>
      <trkpt lat="41.739157" lon="1.614681">
        <ele>477.6</ele>
        <time>2020-08-12T15:01:28Z</time>
      </trkpt>
      <trkpt lat="41.739264" lon="1.614032">
        <ele>480.0</ele>
        <time>2020-08-12T15:01:30Z</time>
      </trkpt>
      <trkpt lat="41.739361" lon="1.613615">
        <ele>480.0</ele>
        <time>2020-08-12T15:01:32Z</time>
      </trkpt>
      <trkpt lat="41.739428" lon="1.612948">
        <ele>477.6</ele>
        <time>2020-08-12T15:01:34Z</time>
      </trkpt>
      <trkpt lat="41.739447" lon="1.612404">
        <ele>479.6</ele>
        <time>2020-08-12T15:01:36Z</time>
      </trkpt>
      <trkpt lat="41.739431" lon="1.611888">
        <ele>479.6</ele>
        <time>2020-08-12T15:01:37Z</time>
      </trkpt>
      <trkpt lat="41.739239" lon="1.610062">
        <ele>484.6</ele>
        <time>2020-08-12T15:01:43Z</time>
      </trkpt>
      <trkpt lat="41.739235" lon="1.609515">
        <ele>486.8</ele>
        <time>2020-08-12T15:01:45Z</time>
      </trkpt>
      <trkpt lat="41.739254" lon="1.609059">
        <ele>490.0</ele>
        <time>2020-08-12T15:01:46Z</time>
      </trkpt>
      <trkpt lat="41.739311" lon="1.608558">
        <ele>490.0</ele>
        <time>2020-08-12T15:01:48Z</time>
      </trkpt>
      <trkpt lat="41.739509" lon="1.607402">
        <ele>496.0</ele>
        <time>2020-08-12T15:01:52Z</time>
      </trkpt>
      <trkpt lat="41.739574" lon="1.606787">
        <ele>496.0</ele>
        <time>2020-08-12T15:01:54Z</time>
      </trkpt>
      <trkpt lat="41.739588" lon="1.606339">
        <ele>497.2</ele>
        <time>2020-08-12T15:01:55Z</time>
      </trkpt>
      <trkpt lat="41.739549" lon="1.604818">
        <ele>498.4</ele>
        <time>2020-08-12T15:02:00Z</time>
      </trkpt>
      <trkpt lat="41.739577" lon="1.604078">
        <ele>495.6</ele>
        <time>2020-08-12T15:02:02Z</time>
      </trkpt>
      <trkpt lat="41.739643" lon="1.603583">
        <ele>495.6</ele>
        <time>2020-08-12T15:02:04Z</time>
      </trkpt>
      <trkpt lat="41.739743" lon="1.60309">
        <ele>494.0</ele>
        <time>2020-08-12T15:02:06Z</time>
      </trkpt>
      <trkpt lat="41.739894" lon="1.602553">
        <ele>494.0</ele>
        <time>2020-08-12T15:02:07Z</time>
      </trkpt>
      <trkpt lat="41.743232" lon="1.592389">
        <ele>517.0</ele>
        <time>2020-08-12T15:02:43Z</time>
      </trkpt>
      <trkpt lat="41.743414" lon="1.591914">
        <ele>522.6</ele>
        <time>2020-08-12T15:02:44Z</time>
      </trkpt>
      <trkpt lat="41.743665" lon="1.591398">
        <ele>521.6</ele>
        <time>2020-08-12T15:02:46Z</time>
      </trkpt>
      <trkpt lat="41.7439" lon="1.591013">
        <ele>521.6</ele>
        <time>2020-08-12T15:02:48Z</time>
      </trkpt>
      <trkpt lat="41.744217" lon="1.590581">
        <ele>527.6</ele>
        <time>2020-08-12T15:02:50Z</time>
      </trkpt>
      <trkpt lat="41.744798" lon="1.589865">
        <ele>524.0</ele>
        <time>2020-08-12T15:02:53Z</time>
      </trkpt>
      <trkpt lat="41.745147" lon="1.589393">
        <ele>531.0</ele>
        <time>2020-08-12T15:02:55Z</time>
      </trkpt>
      <trkpt lat="41.745348" lon="1.589038">
        <ele>527.2</ele>
        <time>2020-08-12T15:02:57Z</time>
      </trkpt>
      <trkpt lat="41.745591" lon="1.588544">
        <ele>527.2</ele>
        <time>2020-08-12T15:02:59Z</time>
      </trkpt>
      <trkpt lat="41.745796" lon="1.588008">
        <ele>525.0</ele>
        <time>2020-08-12T15:03:01Z</time>
      </trkpt>
      <trkpt lat="41.745998" lon="1.587154">
        <ele>526.4</ele>
        <time>2020-08-12T15:03:03Z</time>
      </trkpt>
      <trkpt lat="41.746056" lon="1.586797">
        <ele>526.4</ele>
        <time>2020-08-12T15:03:05Z</time>
      </trkpt>
      <trkpt lat="41.746098" lon="1.586394">
        <ele>532.2</ele>
        <time>2020-08-12T15:03:06Z</time>
      </trkpt>
      <trkpt lat="41.746111" lon="1.585839">
        <ele>532.2</ele>
        <time>2020-08-12T15:03:08Z</time>
      </trkpt>
      <trkpt lat="41.746092" lon="1.58527">
        <ele>538.0</ele>
        <time>2020-08-12T15:03:09Z</time>
      </trkpt>
      <trkpt lat="41.746027" lon="1.584729">
        <ele>541.6</ele>
        <time>2020-08-12T15:03:11Z</time>
      </trkpt>
      <trkpt lat="41.745616" lon="1.582566">
        <ele>544.4</ele>
        <time>2020-08-12T15:03:18Z</time>
      </trkpt>
      <trkpt lat="41.745511" lon="1.581798">
        <ele>549.0</ele>
        <time>2020-08-12T15:03:21Z</time>
      </trkpt>
      <trkpt lat="41.745442" lon="1.580861">
        <ele>553.2</ele>
        <time>2020-08-12T15:03:24Z</time>
      </trkpt>
      <trkpt lat="41.745433" lon="1.580134">
        <ele>559.8</ele>
        <time>2020-08-12T15:03:26Z</time>
      </trkpt>
      <trkpt lat="41.745447" lon="1.579086">
        <ele>570.2</ele>
        <time>2020-08-12T15:03:29Z</time>
      </trkpt>
      <trkpt lat="41.745425" lon="1.578527">
        <ele>570.2</ele>
        <time>2020-08-12T15:03:31Z</time>
      </trkpt>
      <trkpt lat="41.745376" lon="1.577988">
        <ele>573.4</ele>
        <time>2020-08-12T15:03:33Z</time>
      </trkpt>
      <trkpt lat="41.745292" lon="1.57751">
        <ele>573.4</ele>
        <time>2020-08-12T15:03:35Z</time>
      </trkpt>
      <trkpt lat="41.745156" lon="1.576965">
        <ele>576.0</ele>
        <time>2020-08-12T15:03:36Z</time>
      </trkpt>
      <trkpt lat="41.745002" lon="1.576518">
        <ele>579.2</ele>
        <time>2020-08-12T15:03:38Z</time>
      </trkpt>
      <trkpt lat="41.74473" lon="1.575904">
        <ele>577.6</ele>
        <time>2020-08-12T15:03:40Z</time>
      </trkpt>
      <trkpt lat="41.744464" lon="1.575431">
        <ele>582.4</ele>
        <time>2020-08-12T15:03:42Z</time>
      </trkpt>
      <trkpt lat="41.744211" lon="1.575065">
        <ele>582.4</ele>
        <time>2020-08-12T15:03:44Z</time>
      </trkpt>
      <trkpt lat="41.742763" lon="1.573405">
        <ele>579.2</ele>
        <time>2020-08-12T15:03:52Z</time>
      </trkpt>
      <trkpt lat="41.74232" lon="1.572826">
        <ele>581.0</ele>
        <time>2020-08-12T15:03:54Z</time>
      </trkpt>
      <trkpt lat="41.741383" lon="1.571501">
        <ele>590.0</ele>
        <time>2020-08-12T15:04:00Z</time>
      </trkpt>
      <trkpt lat="41.741007" lon="1.571001">
        <ele>590.0</ele>
        <time>2020-08-12T15:04:03Z</time>
      </trkpt>
      <trkpt lat="41.740347" lon="1.570206">
        <ele>594.8</ele>
        <time>2020-08-12T15:04:06Z</time>
      </trkpt>
      <trkpt lat="41.739219" lon="1.569">
        <ele>602.6</ele>
        <time>2020-08-12T15:04:12Z</time>
      </trkpt>
      <trkpt lat="41.738767" lon="1.568459">
        <ele>603.0</ele>
        <time>2020-08-12T15:04:15Z</time>
      </trkpt>
      <trkpt lat="41.73836" lon="1.567894">
        <ele>607.8</ele>
        <time>2020-08-12T15:04:18Z</time>
      </trkpt>
      <trkpt lat="41.737996" lon="1.567293">
        <ele>614.8</ele>
        <time>2020-08-12T15:04:20Z</time>
      </trkpt>
      <trkpt lat="41.73695" lon="1.565245">
        <ele>626.4</ele>
        <time>2020-08-12T15:04:28Z</time>
      </trkpt>
      <trkpt lat="41.736764" lon="1.564915">
        <ele>633.6</ele>
        <time>2020-08-12T15:04:29Z</time>
      </trkpt>
      <trkpt lat="41.73653" lon="1.56455">
        <ele>629.0</ele>
        <time>2020-08-12T15:04:31Z</time>
      </trkpt>
      <trkpt lat="41.736236" lon="1.564171">
        <ele>629.0</ele>
        <time>2020-08-12T15:04:33Z</time>
      </trkpt>
      <trkpt lat="41.73598" lon="1.563879">
        <ele>638.6</ele>
        <time>2020-08-12T15:04:34Z</time>
      </trkpt>
      <trkpt lat="41.73553" lon="1.563495">
        <ele>634.0</ele>
        <time>2020-08-12T15:04:36Z</time>
      </trkpt>
      <trkpt lat="41.73518" lon="1.563266">
        <ele>644.6</ele>
        <time>2020-08-12T15:04:38Z</time>
      </trkpt>
      <trkpt lat="41.734163" lon="1.562716">
        <ele>646.4</ele>
        <time>2020-08-12T15:04:43Z</time>
      </trkpt>
      <trkpt lat="41.733823" lon="1.562502">
        <ele>646.4</ele>
        <time>2020-08-12T15:04:44Z</time>
      </trkpt>
      <trkpt lat="41.733473" lon="1.562213">
        <ele>651.0</ele>
        <time>2020-08-12T15:04:46Z</time>
      </trkpt>
      <trkpt lat="41.733003" lon="1.561713">
        <ele>661.0</ele>
        <time>2020-08-12T15:04:49Z</time>
      </trkpt>
      <trkpt lat="41.732677" lon="1.561266">
        <ele>663.0</ele>
        <time>2020-08-12T15:04:51Z</time>
      </trkpt>
      <trkpt lat="41.732412" lon="1.560798">
        <ele>672.8</ele>
        <time>2020-08-12T15:04:53Z</time>
      </trkpt>
      <trkpt lat="41.732144" lon="1.560196">
        <ele>672.8</ele>
        <time>2020-08-12T15:04:55Z</time>
      </trkpt>
      <trkpt lat="41.731984" lon="1.55973">
        <ele>676.6</ele>
        <time>2020-08-12T15:04:56Z</time>
      </trkpt>
      <trkpt lat="41.731827" lon="1.559065">
        <ele>677.4</ele>
        <time>2020-08-12T15:04:59Z</time>
      </trkpt>
      <trkpt lat="41.731759" lon="1.558661">
        <ele>677.4</ele>
        <time>2020-08-12T15:05:00Z</time>
      </trkpt>
      <trkpt lat="41.73172" lon="1.558234">
        <ele>679.4</ele>
        <time>2020-08-12T15:05:01Z</time>
      </trkpt>
      <trkpt lat="41.731708" lon="1.557752">
        <ele>679.4</ele>
        <time>2020-08-12T15:05:03Z</time>
      </trkpt>
      <trkpt lat="41.73174" lon="1.557082">
        <ele>682.2</ele>
        <time>2020-08-12T15:05:05Z</time>
      </trkpt>
      <trkpt lat="41.731774" lon="1.556763">
        <ele>682.2</ele>
        <time>2020-08-12T15:05:06Z</time>
      </trkpt>
      <trkpt lat="41.731942" lon="1.555626">
        <ele>681.4</ele>
        <time>2020-08-12T15:05:10Z</time>
      </trkpt>
      <trkpt lat="41.731996" lon="1.555149">
        <ele>681.4</ele>
        <time>2020-08-12T15:05:11Z</time>
      </trkpt>
      <trkpt lat="41.732022" lon="1.554666">
        <ele>680.0</ele>
        <time>2020-08-12T15:05:13Z</time>
      </trkpt>
      <trkpt lat="41.732011" lon="1.554138">
        <ele>677.8</ele>
        <time>2020-08-12T15:05:14Z</time>
      </trkpt>
      <trkpt lat="41.731962" lon="1.553621">
        <ele>677.8</ele>
        <time>2020-08-12T15:05:16Z</time>
      </trkpt>
      <trkpt lat="41.731906" lon="1.553254">
        <ele>676.0</ele>
        <time>2020-08-12T15:05:17Z</time>
      </trkpt>
      <trkpt lat="41.731793" lon="1.552739">
        <ele>676.0</ele>
        <time>2020-08-12T15:05:19Z</time>
      </trkpt>
      <trkpt lat="41.731589" lon="1.552144">
        <ele>669.0</ele>
        <time>2020-08-12T15:05:21Z</time>
      </trkpt>
      <trkpt lat="41.731429" lon="1.551746">
        <ele>669.0</ele>
        <time>2020-08-12T15:05:23Z</time>
      </trkpt>
      <trkpt lat="41.731269" lon="1.551425">
        <ele>669.0</ele>
        <time>2020-08-12T15:05:24Z</time>
      </trkpt>
      <trkpt lat="41.730487" lon="1.55001">
        <ele>662.0</ele>
        <time>2020-08-12T15:05:29Z</time>
      </trkpt>
      <trkpt lat="41.730269" lon="1.549504">
        <ele>660.6</ele>
        <time>2020-08-12T15:05:31Z</time>
      </trkpt>
      <trkpt lat="41.730112" lon="1.549031">
        <ele>658.2</ele>
        <time>2020-08-12T15:05:33Z</time>
      </trkpt>
      <trkpt lat="41.729977" lon="1.548484">
        <ele>652.4</ele>
        <time>2020-08-12T15:05:35Z</time>
      </trkpt>
      <trkpt lat="41.729885" lon="1.547912">
        <ele>652.8</ele>
        <time>2020-08-12T15:05:37Z</time>
      </trkpt>
      <trkpt lat="41.72985" lon="1.547525">
        <ele>652.8</ele>
        <time>2020-08-12T15:05:38Z</time>
      </trkpt>
      <trkpt lat="41.729839" lon="1.54712">
        <ele>656.4</ele>
        <time>2020-08-12T15:05:39Z</time>
      </trkpt>
      <trkpt lat="41.72984" lon="1.5468">
        <ele>656.4</ele>
        <time>2020-08-12T15:05:40Z</time>
      </trkpt>
      <trkpt lat="41.729866" lon="1.546418">
        <ele>662.8</ele>
        <time>2020-08-12T15:05:41Z</time>
      </trkpt>
      <trkpt lat="41.729958" lon="1.545835">
        <ele>662.8</ele>
        <time>2020-08-12T15:05:43Z</time>
      </trkpt>
      <trkpt lat="41.73006" lon="1.545355">
        <ele>668.8</ele>
        <time>2020-08-12T15:05:45Z</time>
      </trkpt>
      <trkpt lat="41.730214" lon="1.544831">
        <ele>672.6</ele>
        <time>2020-08-12T15:05:47Z</time>
      </trkpt>
      <trkpt lat="41.730407" lon="1.544344">
        <ele>672.6</ele>
        <time>2020-08-12T15:05:48Z</time>
      </trkpt>
      <trkpt lat="41.730561" lon="1.54402">
        <ele>676.0</ele>
        <time>2020-08-12T15:05:50Z</time>
      </trkpt>
      <trkpt lat="41.730778" lon="1.543638">
        <ele>676.0</ele>
        <time>2020-08-12T15:05:51Z</time>
      </trkpt>
      <trkpt lat="41.731155" lon="1.54309">
        <ele>677.6</ele>
        <time>2020-08-12T15:05:54Z</time>
      </trkpt>
      <trkpt lat="41.731476" lon="1.542671">
        <ele>677.6</ele>
        <time>2020-08-12T15:05:55Z</time>
      </trkpt>
      <trkpt lat="41.731774" lon="1.542248">
        <ele>680.6</ele>
        <time>2020-08-12T15:05:57Z</time>
      </trkpt>
      <trkpt lat="41.732054" lon="1.541794">
        <ele>680.6</ele>
        <time>2020-08-12T15:05:59Z</time>
      </trkpt>
      <trkpt lat="41.732266" lon="1.54135">
        <ele>685.6</ele>
        <time>2020-08-12T15:06:01Z</time>
      </trkpt>
      <trkpt lat="41.73242" lon="1.540953">
        <ele>685.6</ele>
        <time>2020-08-12T15:06:02Z</time>
      </trkpt>
      <trkpt lat="41.73258" lon="1.54044">
        <ele>687.2</ele>
        <time>2020-08-12T15:06:04Z</time>
      </trkpt>
      <trkpt lat="41.732925" lon="1.539033">
        <ele>692.2</ele>
        <time>2020-08-12T15:06:09Z</time>
      </trkpt>
      <trkpt lat="41.733115" lon="1.538385">
        <ele>692.2</ele>
        <time>2020-08-12T15:06:11Z</time>
      </trkpt>
      <trkpt lat="41.733321" lon="1.537829">
        <ele>695.6</ele>
        <time>2020-08-12T15:06:13Z</time>
      </trkpt>
      <trkpt lat="41.733629" lon="1.537178">
        <ele>697.2</ele>
        <time>2020-08-12T15:06:15Z</time>
      </trkpt>
      <trkpt lat="41.733851" lon="1.536791">
        <ele>697.2</ele>
        <time>2020-08-12T15:06:17Z</time>
      </trkpt>
      <trkpt lat="41.734122" lon="1.536375">
        <ele>700.0</ele>
        <time>2020-08-12T15:06:19Z</time>
      </trkpt>
      <trkpt lat="41.734872" lon="1.535441">
        <ele>699.0</ele>
        <time>2020-08-12T15:06:23Z</time>
      </trkpt>
      <trkpt lat="41.735158" lon="1.535059">
        <ele>698.4</ele>
        <time>2020-08-12T15:06:25Z</time>
      </trkpt>
      <trkpt lat="41.735492" lon="1.534501">
        <ele>701.2</ele>
        <time>2020-08-12T15:06:27Z</time>
      </trkpt>
      <trkpt lat="41.735777" lon="1.53399">
        <ele>703.8</ele>
        <time>2020-08-12T15:06:29Z</time>
      </trkpt>
      <trkpt lat="41.735992" lon="1.533538">
        <ele>705.8</ele>
        <time>2020-08-12T15:06:31Z</time>
      </trkpt>
      <trkpt lat="41.736305" lon="1.532635">
        <ele>705.4</ele>
        <time>2020-08-12T15:06:34Z</time>
      </trkpt>
      <trkpt lat="41.736502" lon="1.531706">
        <ele>703.2</ele>
        <time>2020-08-12T15:06:37Z</time>
      </trkpt>
      <trkpt lat="41.736654" lon="1.530609">
        <ele>695.8</ele>
        <time>2020-08-12T15:06:41Z</time>
      </trkpt>
      <trkpt lat="41.736772" lon="1.529363">
        <ele>691.4</ele>
        <time>2020-08-12T15:06:45Z</time>
      </trkpt>
      <trkpt lat="41.736867" lon="1.52674">
        <ele>681.4</ele>
        <time>2020-08-12T15:06:53Z</time>
      </trkpt>
      <trkpt lat="41.736931" lon="1.52585">
        <ele>678.6</ele>
        <time>2020-08-12T15:06:56Z</time>
      </trkpt>
      <trkpt lat="41.737052" lon="1.524868">
        <ele>676.0</ele>
        <time>2020-08-12T15:06:59Z</time>
      </trkpt>
      <trkpt lat="41.737141" lon="1.52438">
        <ele>676.0</ele>
        <time>2020-08-12T15:07:01Z</time>
      </trkpt>
      <trkpt lat="41.737299" lon="1.523736">
        <ele>677.6</ele>
        <time>2020-08-12T15:07:03Z</time>
      </trkpt>
      <trkpt lat="41.737564" lon="1.523055">
        <ele>671.6</ele>
        <time>2020-08-12T15:07:05Z</time>
      </trkpt>
      <trkpt lat="41.73774" lon="1.522653">
        <ele>671.6</ele>
        <time>2020-08-12T15:07:07Z</time>
      </trkpt>
      <trkpt lat="41.738232" lon="1.521816">
        <ele>670.4</ele>
        <time>2020-08-12T15:07:10Z</time>
      </trkpt>
      <trkpt lat="41.738861" lon="1.520812">
        <ele>669.4</ele>
        <time>2020-08-12T15:07:14Z</time>
      </trkpt>
      <trkpt lat="41.73915" lon="1.520286">
        <ele>669.4</ele>
        <time>2020-08-12T15:07:16Z</time>
      </trkpt>
      <trkpt lat="41.739421" lon="1.519579">
        <ele>670.2</ele>
        <time>2020-08-12T15:07:19Z</time>
      </trkpt>
      <trkpt lat="41.739805" lon="1.51827">
        <ele>674.2</ele>
        <time>2020-08-12T15:07:23Z</time>
      </trkpt>
      <trkpt lat="41.739907" lon="1.517588">
        <ele>674.2</ele>
        <time>2020-08-12T15:07:25Z</time>
      </trkpt>
      <trkpt lat="41.739965" lon="1.516725">
        <ele>674.8</ele>
        <time>2020-08-12T15:07:28Z</time>
      </trkpt>
      <trkpt lat="41.739989" lon="1.51591">
        <ele>676.0</ele>
        <time>2020-08-12T15:07:31Z</time>
      </trkpt>
      <trkpt lat="41.739933" lon="1.515255">
        <ele>674.8</ele>
        <time>2020-08-12T15:07:33Z</time>
      </trkpt>
      <trkpt lat="41.739141" lon="1.508088">
        <ele>673.4</ele>
        <time>2020-08-12T15:07:56Z</time>
      </trkpt>
      <trkpt lat="41.739033" lon="1.507514">
        <ele>673.4</ele>
        <time>2020-08-12T15:07:58Z</time>
      </trkpt>
      <trkpt lat="41.7388" lon="1.50665">
        <ele>663.8</ele>
        <time>2020-08-12T15:08:01Z</time>
      </trkpt>
      <trkpt lat="41.738646" lon="1.506194">
        <ele>663.8</ele>
        <time>2020-08-12T15:08:02Z</time>
      </trkpt>
      <trkpt lat="41.738213" lon="1.505306">
        <ele>666.2</ele>
        <time>2020-08-12T15:08:06Z</time>
      </trkpt>
      <trkpt lat="41.737683" lon="1.504497">
        <ele>666.0</ele>
        <time>2020-08-12T15:08:09Z</time>
      </trkpt>
      <trkpt lat="41.737368" lon="1.504095">
        <ele>674.2</ele>
        <time>2020-08-12T15:08:11Z</time>
      </trkpt>
      <trkpt lat="41.735864" lon="1.502394">
        <ele>676.2</ele>
        <time>2020-08-12T15:08:19Z</time>
      </trkpt>
      <trkpt lat="41.735452" lon="1.50189">
        <ele>680.2</ele>
        <time>2020-08-12T15:08:22Z</time>
      </trkpt>
      <trkpt lat="41.734951" lon="1.501215">
        <ele>685.4</ele>
        <time>2020-08-12T15:08:25Z</time>
      </trkpt>
      <trkpt lat="41.734521" lon="1.500589">
        <ele>682.4</ele>
        <time>2020-08-12T15:08:28Z</time>
      </trkpt>
      <trkpt lat="41.734186" lon="1.500039">
        <ele>682.4</ele>
        <time>2020-08-12T15:08:30Z</time>
      </trkpt>
      <trkpt lat="41.733667" lon="1.499009">
        <ele>684.2</ele>
        <time>2020-08-12T15:08:34Z</time>
      </trkpt>
      <trkpt lat="41.733342" lon="1.49827">
        <ele>680.8</ele>
        <time>2020-08-12T15:08:37Z</time>
      </trkpt>
      <trkpt lat="41.733215" lon="1.497933">
        <ele>677.4</ele>
        <time>2020-08-12T15:08:38Z</time>
      </trkpt>
      <trkpt lat="41.732997" lon="1.497244">
        <ele>671.0</ele>
        <time>2020-08-12T15:08:40Z</time>
      </trkpt>
      <trkpt lat="41.732853" lon="1.496654">
        <ele>664.4</ele>
        <time>2020-08-12T15:08:42Z</time>
      </trkpt>
      <trkpt lat="41.732728" lon="1.495915">
        <ele>664.4</ele>
        <time>2020-08-12T15:08:45Z</time>
      </trkpt>
      <trkpt lat="41.732663" lon="1.495233">
        <ele>661.2</ele>
        <time>2020-08-12T15:08:47Z</time>
      </trkpt>
      <trkpt lat="41.732642" lon="1.494722">
        <ele>656.8</ele>
        <time>2020-08-12T15:08:48Z</time>
      </trkpt>
      <trkpt lat="41.732663" lon="1.493918">
        <ele>654.0</ele>
        <time>2020-08-12T15:08:51Z</time>
      </trkpt>
      <trkpt lat="41.732742" lon="1.493166">
        <ele>651.4</ele>
        <time>2020-08-12T15:08:53Z</time>
      </trkpt>
      <trkpt lat="41.732861" lon="1.492476">
        <ele>650.8</ele>
        <time>2020-08-12T15:08:56Z</time>
      </trkpt>
      <trkpt lat="41.732991" lon="1.491947">
        <ele>650.8</ele>
        <time>2020-08-12T15:08:57Z</time>
      </trkpt>
      <trkpt lat="41.733179" lon="1.491335">
        <ele>656.8</ele>
        <time>2020-08-12T15:08:59Z</time>
      </trkpt>
      <trkpt lat="41.733355" lon="1.490872">
        <ele>642.4</ele>
        <time>2020-08-12T15:09:01Z</time>
      </trkpt>
      <trkpt lat="41.733495" lon="1.49055">
        <ele>649.4</ele>
        <time>2020-08-12T15:09:02Z</time>
      </trkpt>
      <trkpt lat="41.733716" lon="1.490104">
        <ele>649.4</ele>
        <time>2020-08-12T15:09:04Z</time>
      </trkpt>
      <trkpt lat="41.733933" lon="1.489723">
        <ele>656.4</ele>
        <time>2020-08-12T15:09:06Z</time>
      </trkpt>
      <trkpt lat="41.734685" lon="1.488571">
        <ele>640.6</ele>
        <time>2020-08-12T15:09:11Z</time>
      </trkpt>
      <trkpt lat="41.734979" lon="1.48809">
        <ele>640.8</ele>
        <time>2020-08-12T15:09:13Z</time>
      </trkpt>
      <trkpt lat="41.735336" lon="1.487398">
        <ele>630.4</ele>
        <time>2020-08-12T15:09:15Z</time>
      </trkpt>
      <trkpt lat="41.73564" lon="1.486662">
        <ele>634.2</ele>
        <time>2020-08-12T15:09:18Z</time>
      </trkpt>
      <trkpt lat="41.735806" lon="1.486161">
        <ele>634.2</ele>
        <time>2020-08-12T15:09:20Z</time>
      </trkpt>
      <trkpt lat="41.735929" lon="1.485715">
        <ele>621.0</ele>
        <time>2020-08-12T15:09:21Z</time>
      </trkpt>
      <trkpt lat="41.736098" lon="1.484925">
        <ele>624.2</ele>
        <time>2020-08-12T15:09:24Z</time>
      </trkpt>
      <trkpt lat="41.736374" lon="1.482748">
        <ele>611.0</ele>
        <time>2020-08-12T15:09:31Z</time>
      </trkpt>
      <trkpt lat="41.73654" lon="1.48194">
        <ele>601.4</ele>
        <time>2020-08-12T15:09:34Z</time>
      </trkpt>
      <trkpt lat="41.736783" lon="1.481145">
        <ele>597.2</ele>
        <time>2020-08-12T15:09:36Z</time>
      </trkpt>
      <trkpt lat="41.737294" lon="1.479755">
        <ele>615.6</ele>
        <time>2020-08-12T15:09:41Z</time>
      </trkpt>
      <trkpt lat="41.737409" lon="1.479382">
        <ele>615.6</ele>
        <time>2020-08-12T15:09:43Z</time>
      </trkpt>
      <trkpt lat="41.73754" lon="1.47887">
        <ele>615.2</ele>
        <time>2020-08-12T15:09:44Z</time>
      </trkpt>
      <trkpt lat="41.737624" lon="1.478449">
        <ele>615.2</ele>
        <time>2020-08-12T15:09:46Z</time>
      </trkpt>
      <trkpt lat="41.737691" lon="1.478032">
        <ele>620.2</ele>
        <time>2020-08-12T15:09:47Z</time>
      </trkpt>
      <trkpt lat="41.737735" lon="1.477635">
        <ele>620.2</ele>
        <time>2020-08-12T15:09:48Z</time>
      </trkpt>
      <trkpt lat="41.737826" lon="1.476062">
        <ele>623.4</ele>
        <time>2020-08-12T15:09:53Z</time>
      </trkpt>
      <trkpt lat="41.73788" lon="1.475471">
        <ele>627.0</ele>
        <time>2020-08-12T15:09:55Z</time>
      </trkpt>
      <trkpt lat="41.737975" lon="1.47486">
        <ele>633.0</ele>
        <time>2020-08-12T15:09:57Z</time>
      </trkpt>
      <trkpt lat="41.738102" lon="1.474287">
        <ele>633.0</ele>
        <time>2020-08-12T15:09:59Z</time>
      </trkpt>
      <trkpt lat="41.738279" lon="1.473692">
        <ele>637.6</ele>
        <time>2020-08-12T15:10:01Z</time>
      </trkpt>
      <trkpt lat="41.738433" lon="1.47328">
        <ele>628.0</ele>
        <time>2020-08-12T15:10:03Z</time>
      </trkpt>
      <trkpt lat="41.739271" lon="1.471334">
        <ele>626.2</ele>
        <time>2020-08-12T15:10:10Z</time>
      </trkpt>
      <trkpt lat="41.739559" lon="1.470582">
        <ele>632.6</ele>
        <time>2020-08-12T15:10:13Z</time>
      </trkpt>
      <trkpt lat="41.739865" lon="1.469649">
        <ele>634.0</ele>
        <time>2020-08-12T15:10:16Z</time>
      </trkpt>
      <trkpt lat="41.740104" lon="1.468734">
        <ele>618.6</ele>
        <time>2020-08-12T15:10:19Z</time>
      </trkpt>
      <trkpt lat="41.740243" lon="1.467948">
        <ele>616.4</ele>
        <time>2020-08-12T15:10:21Z</time>
      </trkpt>
      <trkpt lat="41.740325" lon="1.467113">
        <ele>617.4</ele>
        <time>2020-08-12T15:10:24Z</time>
      </trkpt>
      <trkpt lat="41.740339" lon="1.46672">
        <ele>617.4</ele>
        <time>2020-08-12T15:10:25Z</time>
      </trkpt>
      <trkpt lat="41.740333" lon="1.466091">
        <ele>622.8</ele>
        <time>2020-08-12T15:10:27Z</time>
      </trkpt>
      <trkpt lat="41.740287" lon="1.465313">
        <ele>625.6</ele>
        <time>2020-08-12T15:10:30Z</time>
      </trkpt>
      <trkpt lat="41.74026" lon="1.465086">
        <ele>625.6</ele>
        <time>2020-08-12T15:10:31Z</time>
      </trkpt>
      <trkpt lat="41.740152" lon="1.464438">
        <ele>626.2</ele>
        <time>2020-08-12T15:10:33Z</time>
      </trkpt>
      <trkpt lat="41.74004" lon="1.463949">
        <ele>627.8</ele>
        <time>2020-08-12T15:10:34Z</time>
      </trkpt>
      <trkpt lat="41.739916" lon="1.463506">
        <ele>639.4</ele>
        <time>2020-08-12T15:10:36Z</time>
      </trkpt>
      <trkpt lat="41.739708" lon="1.462905">
        <ele>635.4</ele>
        <time>2020-08-12T15:10:38Z</time>
      </trkpt>
      <trkpt lat="41.73933" lon="1.462012">
        <ele>634.4</ele>
        <time>2020-08-12T15:10:41Z</time>
      </trkpt>
      <trkpt lat="41.73667" lon="1.456103">
        <ele>657.4</ele>
        <time>2020-08-12T15:11:03Z</time>
      </trkpt>
      <trkpt lat="41.736476" lon="1.455603">
        <ele>660.2</ele>
        <time>2020-08-12T15:11:05Z</time>
      </trkpt>
      <trkpt lat="41.736281" lon="1.455026">
        <ele>660.2</ele>
        <time>2020-08-12T15:11:07Z</time>
      </trkpt>
      <trkpt lat="41.736101" lon="1.45435">
        <ele>664.6</ele>
        <time>2020-08-12T15:11:09Z</time>
      </trkpt>
      <trkpt lat="41.735975" lon="1.453742">
        <ele>665.4</ele>
        <time>2020-08-12T15:11:11Z</time>
      </trkpt>
      <trkpt lat="41.735883" lon="1.453112">
        <ele>665.2</ele>
        <time>2020-08-12T15:11:13Z</time>
      </trkpt>
      <trkpt lat="41.735816" lon="1.452377">
        <ele>671.8</ele>
        <time>2020-08-12T15:11:16Z</time>
      </trkpt>
      <trkpt lat="41.735799" lon="1.451777">
        <ele>671.8</ele>
        <time>2020-08-12T15:11:18Z</time>
      </trkpt>
      <trkpt lat="41.735818" lon="1.450936">
        <ele>682.2</ele>
        <time>2020-08-12T15:11:20Z</time>
      </trkpt>
      <trkpt lat="41.735854" lon="1.450503">
        <ele>674.6</ele>
        <time>2020-08-12T15:11:22Z</time>
      </trkpt>
      <trkpt lat="41.735915" lon="1.449993">
        <ele>676.4</ele>
        <time>2020-08-12T15:11:23Z</time>
      </trkpt>
      <trkpt lat="41.736318" lon="1.447682">
        <ele>691.4</ele>
        <time>2020-08-12T15:11:31Z</time>
      </trkpt>
      <trkpt lat="41.736425" lon="1.446826">
        <ele>689.4</ele>
        <time>2020-08-12T15:11:34Z</time>
      </trkpt>
      <trkpt lat="41.736482" lon="1.446022">
        <ele>687.0</ele>
        <time>2020-08-12T15:11:36Z</time>
      </trkpt>
      <trkpt lat="41.7365" lon="1.445346">
        <ele>693.8</ele>
        <time>2020-08-12T15:11:39Z</time>
      </trkpt>
      <trkpt lat="41.736485" lon="1.444573">
        <ele>703.4</ele>
        <time>2020-08-12T15:11:41Z</time>
      </trkpt>
      <trkpt lat="41.73645" lon="1.443987">
        <ele>706.4</ele>
        <time>2020-08-12T15:11:43Z</time>
      </trkpt>
      <trkpt lat="41.736332" lon="1.442961">
        <ele>703.8</ele>
        <time>2020-08-12T15:11:46Z</time>
      </trkpt>
      <trkpt lat="41.736134" lon="1.441855">
        <ele>699.4</ele>
        <time>2020-08-12T15:11:50Z</time>
      </trkpt>
      <trkpt lat="41.735864" lon="1.440825">
        <ele>685.2</ele>
        <time>2020-08-12T15:11:53Z</time>
      </trkpt>
      <trkpt lat="41.735253" lon="1.43893">
        <ele>704.6</ele>
        <time>2020-08-12T15:12:00Z</time>
      </trkpt>
      <trkpt lat="41.735133" lon="1.43852">
        <ele>704.6</ele>
        <time>2020-08-12T15:12:01Z</time>
      </trkpt>
      <trkpt lat="41.734958" lon="1.437782">
        <ele>718.2</ele>
        <time>2020-08-12T15:12:04Z</time>
      </trkpt>
      <trkpt lat="41.734819" lon="1.436926">
        <ele>720.6</ele>
        <time>2020-08-12T15:12:07Z</time>
      </trkpt>
      <trkpt lat="41.734759" lon="1.436276">
        <ele>720.4</ele>
        <time>2020-08-12T15:12:09Z</time>
      </trkpt>
      <trkpt lat="41.734735" lon="1.435633">
        <ele>719.0</ele>
        <time>2020-08-12T15:12:11Z</time>
      </trkpt>
      <trkpt lat="41.734777" lon="1.434372">
        <ele>717.6</ele>
        <time>2020-08-12T15:12:15Z</time>
      </trkpt>
      <trkpt lat="41.734813" lon="1.434028">
        <ele>717.0</ele>
        <time>2020-08-12T15:12:16Z</time>
      </trkpt>
      <trkpt lat="41.734913" lon="1.433368">
        <ele>717.0</ele>
        <time>2020-08-12T15:12:18Z</time>
      </trkpt>
      <trkpt lat="41.735069" lon="1.432665">
        <ele>714.2</ele>
        <time>2020-08-12T15:12:20Z</time>
      </trkpt>
      <trkpt lat="41.735173" lon="1.432289">
        <ele>714.8</ele>
        <time>2020-08-12T15:12:22Z</time>
      </trkpt>
      <trkpt lat="41.735487" lon="1.431362">
        <ele>715.4</ele>
        <time>2020-08-12T15:12:25Z</time>
      </trkpt>
      <trkpt lat="41.736394" lon="1.42917">
        <ele>713.4</ele>
        <time>2020-08-12T15:12:33Z</time>
      </trkpt>
      <trkpt lat="41.736581" lon="1.428679">
        <ele>711.4</ele>
        <time>2020-08-12T15:12:35Z</time>
      </trkpt>
      <trkpt lat="41.736925" lon="1.427652">
        <ele>705.0</ele>
        <time>2020-08-12T15:12:38Z</time>
      </trkpt>
      <trkpt lat="41.737036" lon="1.427272">
        <ele>704.4</ele>
        <time>2020-08-12T15:12:39Z</time>
      </trkpt>
      <trkpt lat="41.737224" lon="1.426505">
        <ele>703.0</ele>
        <time>2020-08-12T15:12:42Z</time>
      </trkpt>
      <trkpt lat="41.737334" lon="1.425952">
        <ele>703.0</ele>
        <time>2020-08-12T15:12:44Z</time>
      </trkpt>
      <trkpt lat="41.737464" lon="1.425094">
        <ele>700.6</ele>
        <time>2020-08-12T15:12:47Z</time>
      </trkpt>
      <trkpt lat="41.737546" lon="1.424279">
        <ele>700.0</ele>
        <time>2020-08-12T15:12:49Z</time>
      </trkpt>
      <trkpt lat="41.737588" lon="1.42315">
        <ele>696.0</ele>
        <time>2020-08-12T15:12:53Z</time>
      </trkpt>
      <trkpt lat="41.737566" lon="1.422258">
        <ele>692.8</ele>
        <time>2020-08-12T15:12:56Z</time>
      </trkpt>
      <trkpt lat="41.737542" lon="1.421865">
        <ele>692.8</ele>
        <time>2020-08-12T15:12:57Z</time>
      </trkpt>
      <trkpt lat="41.737456" lon="1.421046">
        <ele>692.4</ele>
        <time>2020-08-12T15:13:03Z</time>
      </trkpt>
      <trkpt lat="41.737456" lon="1.421046">
        <ele>692.4</ele>
        <time>2020-08-12T15:13:03Z</time>
      </trkpt>
      <trkpt lat="41.737263" lon="1.419891">
        <ele>689.0</ele>
        <time>2020-08-12T15:13:07Z</time>
      </trkpt>
      <trkpt lat="41.73716" lon="1.419413">
        <ele>689.0</ele>
        <time>2020-08-12T15:13:08Z</time>
      </trkpt>
      <trkpt lat="41.736961" lon="1.418671">
        <ele>686.8</ele>
        <time>2020-08-12T15:13:11Z</time>
      </trkpt>
      <trkpt lat="41.73666" lon="1.417753">
        <ele>686.4</ele>
        <time>2020-08-12T15:13:14Z</time>
      </trkpt>
      <trkpt lat="41.736449" lon="1.417198">
        <ele>684.6</ele>
        <time>2020-08-12T15:13:16Z</time>
      </trkpt>
      <trkpt lat="41.735598" lon="1.415093">
        <ele>683.2</ele>
        <time>2020-08-12T15:13:23Z</time>
      </trkpt>
      <trkpt lat="41.735266" lon="1.414217">
        <ele>681.6</ele>
        <time>2020-08-12T15:13:26Z</time>
      </trkpt>
      <trkpt lat="41.735004" lon="1.413464">
        <ele>681.8</ele>
        <time>2020-08-12T15:13:29Z</time>
      </trkpt>
      <trkpt lat="41.734638" lon="1.412329">
        <ele>676.8</ele>
        <time>2020-08-12T15:13:33Z</time>
      </trkpt>
      <trkpt lat="41.734358" lon="1.411344">
        <ele>676.6</ele>
        <time>2020-08-12T15:13:36Z</time>
      </trkpt>
      <trkpt lat="41.734201" lon="1.410715">
        <ele>675.4</ele>
        <time>2020-08-12T15:13:38Z</time>
      </trkpt>
      <trkpt lat="41.733993" lon="1.409775">
        <ele>675.8</ele>
        <time>2020-08-12T15:13:41Z</time>
      </trkpt>
      <trkpt lat="41.733834" lon="1.408793">
        <ele>675.8</ele>
        <time>2020-08-12T15:13:44Z</time>
      </trkpt>
      <trkpt lat="41.733634" lon="1.407289">
        <ele>675.2</ele>
        <time>2020-08-12T15:13:49Z</time>
      </trkpt>
      <trkpt lat="41.733547" lon="1.40623">
        <ele>672.6</ele>
        <time>2020-08-12T15:13:52Z</time>
      </trkpt>
      <trkpt lat="41.733517" lon="1.404304">
        <ele>667.8</ele>
        <time>2020-08-12T15:13:58Z</time>
      </trkpt>
      <trkpt lat="41.733529" lon="1.403235">
        <ele>667.8</ele>
        <time>2020-08-12T15:14:02Z</time>
      </trkpt>
      <trkpt lat="41.733579" lon="1.40237">
        <ele>668.8</ele>
        <time>2020-08-12T15:14:05Z</time>
      </trkpt>
      <trkpt lat="41.733868" lon="1.399239">
        <ele>668.8</ele>
        <time>2020-08-12T15:14:14Z</time>
      </trkpt>
      <trkpt lat="41.733919" lon="1.398272">
        <ele>669.4</ele>
        <time>2020-08-12T15:14:17Z</time>
      </trkpt>
      <trkpt lat="41.733912" lon="1.397372">
        <ele>671.6</ele>
        <time>2020-08-12T15:14:20Z</time>
      </trkpt>
      <trkpt lat="41.733877" lon="1.39672">
        <ele>671.6</ele>
        <time>2020-08-12T15:14:22Z</time>
      </trkpt>
      <trkpt lat="41.733816" lon="1.39607">
        <ele>674.6</ele>
        <time>2020-08-12T15:14:24Z</time>
      </trkpt>
      <trkpt lat="41.733608" lon="1.394593">
        <ele>676.6</ele>
        <time>2020-08-12T15:14:29Z</time>
      </trkpt>
      <trkpt lat="41.733039" lon="1.391405">
        <ele>686.2</ele>
        <time>2020-08-12T15:14:39Z</time>
      </trkpt>
      <trkpt lat="41.732308" lon="1.388177">
        <ele>680.2</ele>
        <time>2020-08-12T15:14:50Z</time>
      </trkpt>
      <trkpt lat="41.732138" lon="1.38755">
        <ele>680.2</ele>
        <time>2020-08-12T15:14:52Z</time>
      </trkpt>
      <trkpt lat="41.731919" lon="1.386879">
        <ele>677.2</ele>
        <time>2020-08-12T15:14:54Z</time>
      </trkpt>
      <trkpt lat="41.731627" lon="1.386053">
        <ele>679.8</ele>
        <time>2020-08-12T15:14:57Z</time>
      </trkpt>
      <trkpt lat="41.731155" lon="1.385093">
        <ele>678.4</ele>
        <time>2020-08-12T15:15:01Z</time>
      </trkpt>
      <trkpt lat="41.73087" lon="1.384599">
        <ele>675.0</ele>
        <time>2020-08-12T15:15:03Z</time>
      </trkpt>
      <trkpt lat="41.73059" lon="1.384165">
        <ele>678.4</ele>
        <time>2020-08-12T15:15:04Z</time>
      </trkpt>
      <trkpt lat="41.729669" lon="1.38307">
        <ele>684.0</ele>
        <time>2020-08-12T15:15:10Z</time>
      </trkpt>
      <trkpt lat="41.727478" lon="1.380914">
        <ele>676.6</ele>
        <time>2020-08-12T15:15:21Z</time>
      </trkpt>
      <trkpt lat="41.726789" lon="1.380044">
        <ele>679.8</ele>
        <time>2020-08-12T15:15:25Z</time>
      </trkpt>
      <trkpt lat="41.726435" lon="1.37954">
        <ele>678.6</ele>
        <time>2020-08-12T15:15:27Z</time>
      </trkpt>
      <trkpt lat="41.72599" lon="1.378798">
        <ele>677.8</ele>
        <time>2020-08-12T15:15:30Z</time>
      </trkpt>
      <trkpt lat="41.725326" lon="1.377424">
        <ele>673.6</ele>
        <time>2020-08-12T15:15:35Z</time>
      </trkpt>
      <trkpt lat="41.72502" lon="1.376702">
        <ele>673.6</ele>
        <time>2020-08-12T15:15:38Z</time>
      </trkpt>
      <trkpt lat="41.724877" lon="1.376322">
        <ele>668.8</ele>
        <time>2020-08-12T15:15:39Z</time>
      </trkpt>
      <trkpt lat="41.723752" lon="1.37298">
        <ele>662.6</ele>
        <time>2020-08-12T15:15:50Z</time>
      </trkpt>
      <trkpt lat="41.72334" lon="1.371934">
        <ele>662.4</ele>
        <time>2020-08-12T15:15:54Z</time>
      </trkpt>
      <trkpt lat="41.722607" lon="1.370319">
        <ele>657.0</ele>
        <time>2020-08-12T15:16:00Z</time>
      </trkpt>
      <trkpt lat="41.721715" lon="1.368624">
        <ele>652.6</ele>
        <time>2020-08-12T15:16:07Z</time>
      </trkpt>
      <trkpt lat="41.720809" lon="1.367269">
        <ele>644.2</ele>
        <time>2020-08-12T15:16:12Z</time>
      </trkpt>
      <trkpt lat="41.720158" lon="1.366413">
        <ele>642.2</ele>
        <time>2020-08-12T15:16:16Z</time>
      </trkpt>
      <trkpt lat="41.719436" lon="1.36555">
        <ele>638.2</ele>
        <time>2020-08-12T15:16:20Z</time>
      </trkpt>
      <trkpt lat="41.718468" lon="1.364506">
        <ele>634.8</ele>
        <time>2020-08-12T15:16:25Z</time>
      </trkpt>
      <trkpt lat="41.718003" lon="1.364053">
        <ele>632.8</ele>
        <time>2020-08-12T15:16:28Z</time>
      </trkpt>
      <trkpt lat="41.717006" lon="1.363172">
        <ele>630.4</ele>
        <time>2020-08-12T15:16:33Z</time>
      </trkpt>
      <trkpt lat="41.71647" lon="1.362742">
        <ele>630.4</ele>
        <time>2020-08-12T15:16:35Z</time>
      </trkpt>
      <trkpt lat="41.715931" lon="1.362356">
        <ele>627.0</ele>
        <time>2020-08-12T15:16:38Z</time>
      </trkpt>
      <trkpt lat="41.715377" lon="1.361991">
        <ele>625.0</ele>
        <time>2020-08-12T15:16:41Z</time>
      </trkpt>
      <trkpt lat="41.71469" lon="1.361567">
        <ele>621.0</ele>
        <time>2020-08-12T15:16:44Z</time>
      </trkpt>
      <trkpt lat="41.714005" lon="1.361195">
        <ele>619.8</ele>
        <time>2020-08-12T15:16:47Z</time>
      </trkpt>
      <trkpt lat="41.713206" lon="1.360795">
        <ele>615.8</ele>
        <time>2020-08-12T15:16:50Z</time>
      </trkpt>
      <trkpt lat="41.711918" lon="1.360196">
        <ele>613.4</ele>
        <time>2020-08-12T15:16:56Z</time>
      </trkpt>
      <trkpt lat="41.710602" lon="1.359501">
        <ele>607.2</ele>
        <time>2020-08-12T15:17:02Z</time>
      </trkpt>
      <trkpt lat="41.709837" lon="1.359036">
        <ele>604.2</ele>
        <time>2020-08-12T15:17:05Z</time>
      </trkpt>
      <trkpt lat="41.708845" lon="1.358384">
        <ele>601.8</ele>
        <time>2020-08-12T15:17:10Z</time>
      </trkpt>
      <trkpt lat="41.708289" lon="1.35797">
        <ele>596.8</ele>
        <time>2020-08-12T15:17:13Z</time>
      </trkpt>
      <trkpt lat="41.707398" lon="1.357229">
        <ele>592.8</ele>
        <time>2020-08-12T15:17:17Z</time>
      </trkpt>
      <trkpt lat="41.706561" lon="1.35643">
        <ele>589.4</ele>
        <time>2020-08-12T15:17:21Z</time>
      </trkpt>
      <trkpt lat="41.706125" lon="1.355973">
        <ele>589.4</ele>
        <time>2020-08-12T15:17:24Z</time>
      </trkpt>
      <trkpt lat="41.705206" lon="1.354906">
        <ele>582.4</ele>
        <time>2020-08-12T15:17:29Z</time>
      </trkpt>
      <trkpt lat="41.704712" lon="1.35427">
        <ele>572.8</ele>
        <time>2020-08-12T15:17:32Z</time>
      </trkpt>
      <trkpt lat="41.703724" lon="1.352922">
        <ele>563.0</ele>
        <time>2020-08-12T15:17:38Z</time>
      </trkpt>
      <trkpt lat="41.70318" lon="1.352219">
        <ele>554.8</ele>
        <time>2020-08-12T15:17:41Z</time>
      </trkpt>
      <trkpt lat="41.702648" lon="1.351566">
        <ele>558.6</ele>
        <time>2020-08-12T15:17:44Z</time>
      </trkpt>
      <trkpt lat="41.702099" lon="1.350931">
        <ele>552.8</ele>
        <time>2020-08-12T15:17:47Z</time>
      </trkpt>
      <trkpt lat="41.701612" lon="1.350419">
        <ele>548.8</ele>
        <time>2020-08-12T15:17:50Z</time>
      </trkpt>
      <trkpt lat="41.700619" lon="1.349521">
        <ele>546.2</ele>
        <time>2020-08-12T15:17:55Z</time>
      </trkpt>
      <trkpt lat="41.700033" lon="1.349044">
        <ele>546.8</ele>
        <time>2020-08-12T15:17:57Z</time>
      </trkpt>
      <trkpt lat="41.699493" lon="1.348658">
        <ele>543.0</ele>
        <time>2020-08-12T15:18:00Z</time>
      </trkpt>
      <trkpt lat="41.698711" lon="1.348202">
        <ele>539.6</ele>
        <time>2020-08-12T15:18:04Z</time>
      </trkpt>
      <trkpt lat="41.698213" lon="1.347953">
        <ele>540.4</ele>
        <time>2020-08-12T15:18:06Z</time>
      </trkpt>
      <trkpt lat="41.696393" lon="1.34718">
        <ele>534.6</ele>
        <time>2020-08-12T15:18:14Z</time>
      </trkpt>
      <trkpt lat="41.695808" lon="1.346888">
        <ele>532.8</ele>
        <time>2020-08-12T15:18:16Z</time>
      </trkpt>
      <trkpt lat="41.695473" lon="1.3467">
        <ele>532.8</ele>
        <time>2020-08-12T15:18:18Z</time>
      </trkpt>
      <trkpt lat="41.695056" lon="1.346431">
        <ele>534.0</ele>
        <time>2020-08-12T15:18:20Z</time>
      </trkpt>
      <trkpt lat="41.694663" lon="1.346127">
        <ele>530.4</ele>
        <time>2020-08-12T15:18:22Z</time>
      </trkpt>
      <trkpt lat="41.694221" lon="1.34575">
        <ele>531.8</ele>
        <time>2020-08-12T15:18:24Z</time>
      </trkpt>
      <trkpt lat="41.693652" lon="1.345103">
        <ele>529.8</ele>
        <time>2020-08-12T15:18:27Z</time>
      </trkpt>
      <trkpt lat="41.69324" lon="1.344581">
        <ele>529.2</ele>
        <time>2020-08-12T15:18:29Z</time>
      </trkpt>
      <trkpt lat="41.692711" lon="1.34383">
        <ele>527.8</ele>
        <time>2020-08-12T15:18:33Z</time>
      </trkpt>
      <trkpt lat="41.692331" lon="1.343192">
        <ele>529.4</ele>
        <time>2020-08-12T15:18:35Z</time>
      </trkpt>
      <trkpt lat="41.692145" lon="1.342747">
        <ele>529.4</ele>
        <time>2020-08-12T15:18:37Z</time>
      </trkpt>
      <trkpt lat="41.691937" lon="1.3421">
        <ele>528.5</ele>
        <time>2020-08-12T15:18:39Z</time>
      </trkpt>
      <trkpt lat="41.691937" lon="1.3421">
        <ele>528.5</ele>
        <time>2020-08-12T15:18:39Z</time>
      </trkpt>
      <trkpt lat="41.691769" lon="1.341472">
        <ele>528.6</ele>
        <time>2020-08-12T15:18:41Z</time>
      </trkpt>
      <trkpt lat="41.691656" lon="1.340872">
        <ele>541.0</ele>
        <time>2020-08-12T15:18:43Z</time>
      </trkpt>
      <trkpt lat="41.691573" lon="1.340202">
        <ele>543.8</ele>
        <time>2020-08-12T15:18:45Z</time>
      </trkpt>
      <trkpt lat="41.691528" lon="1.339472">
        <ele>545.2</ele>
        <time>2020-08-12T15:18:48Z</time>
      </trkpt>
      <trkpt lat="41.691533" lon="1.338583">
        <ele>544.8</ele>
        <time>2020-08-12T15:18:51Z</time>
      </trkpt>
      <trkpt lat="41.691602" lon="1.335179">
        <ele>544.8</ele>
        <time>2020-08-12T15:19:01Z</time>
      </trkpt>
      <trkpt lat="41.691998" lon="1.31661">
        <ele>535.2</ele>
        <time>2020-08-12T15:20:00Z</time>
      </trkpt>
      <trkpt lat="41.691999" lon="1.315839">
        <ele>535.2</ele>
        <time>2020-08-12T15:20:03Z</time>
      </trkpt>
      <trkpt lat="41.691981" lon="1.315237">
        <ele>541.4</ele>
        <time>2020-08-12T15:20:05Z</time>
      </trkpt>
      <trkpt lat="41.691903" lon="1.314357">
        <ele>545.6</ele>
        <time>2020-08-12T15:20:07Z</time>
      </trkpt>
      <trkpt lat="41.691779" lon="1.313602">
        <ele>544.0</ele>
        <time>2020-08-12T15:20:10Z</time>
      </trkpt>
      <trkpt lat="41.691608" lon="1.312859">
        <ele>540.0</ele>
        <time>2020-08-12T15:20:12Z</time>
      </trkpt>
      <trkpt lat="41.691449" lon="1.312324">
        <ele>527.6</ele>
        <time>2020-08-12T15:20:14Z</time>
      </trkpt>
      <trkpt lat="41.691343" lon="1.312019">
        <ele>527.6</ele>
        <time>2020-08-12T15:20:15Z</time>
      </trkpt>
      <trkpt lat="41.691054" lon="1.311305">
        <ele>527.2</ele>
        <time>2020-08-12T15:20:18Z</time>
      </trkpt>
      <trkpt lat="41.690677" lon="1.310562">
        <ele>542.6</ele>
        <time>2020-08-12T15:20:21Z</time>
      </trkpt>
      <trkpt lat="41.690349" lon="1.310029">
        <ele>542.6</ele>
        <time>2020-08-12T15:20:23Z</time>
      </trkpt>
      <trkpt lat="41.690048" lon="1.309602">
        <ele>540.4</ele>
        <time>2020-08-12T15:20:25Z</time>
      </trkpt>
      <trkpt lat="41.689716" lon="1.309179">
        <ele>550.0</ele>
        <time>2020-08-12T15:20:27Z</time>
      </trkpt>
      <trkpt lat="41.685485" lon="1.304238">
        <ele>547.4</ele>
        <time>2020-08-12T15:20:51Z</time>
      </trkpt>
      <trkpt lat="41.685024" lon="1.303627">
        <ele>545.4</ele>
        <time>2020-08-12T15:20:53Z</time>
      </trkpt>
      <trkpt lat="41.684821" lon="1.303316">
        <ele>552.0</ele>
        <time>2020-08-12T15:20:55Z</time>
      </trkpt>
      <trkpt lat="41.684535" lon="1.302821">
        <ele>552.0</ele>
        <time>2020-08-12T15:20:57Z</time>
      </trkpt>
      <trkpt lat="41.684208" lon="1.302153">
        <ele>555.0</ele>
        <time>2020-08-12T15:20:59Z</time>
      </trkpt>
      <trkpt lat="41.68407" lon="1.301825">
        <ele>561.6</ele>
        <time>2020-08-12T15:21:01Z</time>
      </trkpt>
      <trkpt lat="41.683831" lon="1.301157">
        <ele>563.0</ele>
        <time>2020-08-12T15:21:03Z</time>
      </trkpt>
      <trkpt lat="41.683642" lon="1.300474">
        <ele>562.6</ele>
        <time>2020-08-12T15:21:05Z</time>
      </trkpt>
      <trkpt lat="41.683571" lon="1.300159">
        <ele>562.6</ele>
        <time>2020-08-12T15:21:06Z</time>
      </trkpt>
      <trkpt lat="41.68344" lon="1.299419">
        <ele>563.8</ele>
        <time>2020-08-12T15:21:09Z</time>
      </trkpt>
      <trkpt lat="41.683357" lon="1.298611">
        <ele>565.0</ele>
        <time>2020-08-12T15:21:11Z</time>
      </trkpt>
      <trkpt lat="41.68333" lon="1.297727">
        <ele>570.0</ele>
        <time>2020-08-12T15:21:14Z</time>
      </trkpt>
      <trkpt lat="41.683345" lon="1.297071">
        <ele>568.2</ele>
        <time>2020-08-12T15:21:16Z</time>
      </trkpt>
      <trkpt lat="41.684113" lon="1.284114">
        <ele>542.0</ele>
        <time>2020-08-12T15:21:57Z</time>
      </trkpt>
      <trkpt lat="41.684214" lon="1.282213">
        <ele>537.4</ele>
        <time>2020-08-12T15:22:03Z</time>
      </trkpt>
      <trkpt lat="41.684325" lon="1.281069">
        <ele>537.2</ele>
        <time>2020-08-12T15:22:07Z</time>
      </trkpt>
      <trkpt lat="41.684453" lon="1.280231">
        <ele>535.4</ele>
        <time>2020-08-12T15:22:10Z</time>
      </trkpt>
      <trkpt lat="41.684725" lon="1.279168">
        <ele>532.6</ele>
        <time>2020-08-12T15:22:13Z</time>
      </trkpt>
      <trkpt lat="41.685018" lon="1.278106">
        <ele>535.4</ele>
        <time>2020-08-12T15:22:17Z</time>
      </trkpt>
      <trkpt lat="41.68524" lon="1.277188">
        <ele>531.6</ele>
        <time>2020-08-12T15:22:20Z</time>
      </trkpt>
      <trkpt lat="41.68541" lon="1.276273">
        <ele>528.2</ele>
        <time>2020-08-12T15:22:23Z</time>
      </trkpt>
      <trkpt lat="41.685487" lon="1.275608">
        <ele>524.0</ele>
        <time>2020-08-12T15:22:25Z</time>
      </trkpt>
      <trkpt lat="41.685534" lon="1.275052">
        <ele>524.0</ele>
        <time>2020-08-12T15:22:27Z</time>
      </trkpt>
      <trkpt lat="41.685599" lon="1.272323">
        <ele>517.2</ele>
        <time>2020-08-12T15:22:36Z</time>
      </trkpt>
      <trkpt lat="41.685657" lon="1.27165">
        <ele>515.6</ele>
        <time>2020-08-12T15:22:38Z</time>
      </trkpt>
      <trkpt lat="41.685792" lon="1.270463">
        <ele>515.2</ele>
        <time>2020-08-12T15:22:41Z</time>
      </trkpt>
      <trkpt lat="41.685982" lon="1.269328">
        <ele>514.8</ele>
        <time>2020-08-12T15:22:45Z</time>
      </trkpt>
      <trkpt lat="41.686106" lon="1.268732">
        <ele>513.2</ele>
        <time>2020-08-12T15:22:47Z</time>
      </trkpt>
      <trkpt lat="41.686308" lon="1.267892">
        <ele>511.6</ele>
        <time>2020-08-12T15:22:50Z</time>
      </trkpt>
      <trkpt lat="41.68653" lon="1.267084">
        <ele>509.0</ele>
        <time>2020-08-12T15:22:53Z</time>
      </trkpt>
      <trkpt lat="41.687002" lon="1.26547">
        <ele>506.6</ele>
        <time>2020-08-12T15:22:58Z</time>
      </trkpt>
      <trkpt lat="41.687221" lon="1.264517">
        <ele>504.0</ele>
        <time>2020-08-12T15:23:01Z</time>
      </trkpt>
      <trkpt lat="41.687345" lon="1.263738">
        <ele>501.0</ele>
        <time>2020-08-12T15:23:04Z</time>
      </trkpt>
      <trkpt lat="41.687403" lon="1.263132">
        <ele>498.8</ele>
        <time>2020-08-12T15:23:06Z</time>
      </trkpt>
      <trkpt lat="41.68744" lon="1.262329">
        <ele>497.4</ele>
        <time>2020-08-12T15:23:08Z</time>
      </trkpt>
      <trkpt lat="41.687441" lon="1.261958">
        <ele>497.4</ele>
        <time>2020-08-12T15:23:10Z</time>
      </trkpt>
      <trkpt lat="41.687403" lon="1.261153">
        <ele>496.4</ele>
        <time>2020-08-12T15:23:12Z</time>
      </trkpt>
      <trkpt lat="41.687314" lon="1.260345">
        <ele>494.6</ele>
        <time>2020-08-12T15:23:15Z</time>
      </trkpt>
      <trkpt lat="41.687185" lon="1.2596">
        <ele>493.2</ele>
        <time>2020-08-12T15:23:17Z</time>
      </trkpt>
      <trkpt lat="41.686994" lon="1.258802">
        <ele>493.8</ele>
        <time>2020-08-12T15:23:20Z</time>
      </trkpt>
      <trkpt lat="41.686714" lon="1.257917">
        <ele>499.0</ele>
        <time>2020-08-12T15:23:23Z</time>
      </trkpt>
      <trkpt lat="41.686074" lon="1.25628">
        <ele>499.2</ele>
        <time>2020-08-12T15:23:29Z</time>
      </trkpt>
      <trkpt lat="41.685642" lon="1.255076">
        <ele>489.6</ele>
        <time>2020-08-12T15:23:33Z</time>
      </trkpt>
      <trkpt lat="41.68533" lon="1.25403">
        <ele>494.6</ele>
        <time>2020-08-12T15:23:36Z</time>
      </trkpt>
      <trkpt lat="41.685121" lon="1.253211">
        <ele>498.4</ele>
        <time>2020-08-12T15:23:39Z</time>
      </trkpt>
      <trkpt lat="41.684957" lon="1.252452">
        <ele>488.4</ele>
        <time>2020-08-12T15:23:42Z</time>
      </trkpt>
      <trkpt lat="41.684741" lon="1.2512">
        <ele>489.6</ele>
        <time>2020-08-12T15:23:46Z</time>
      </trkpt>
      <trkpt lat="41.684347" lon="1.248504">
        <ele>487.8</ele>
        <time>2020-08-12T15:23:55Z</time>
      </trkpt>
      <trkpt lat="41.684223" lon="1.247821">
        <ele>489.6</ele>
        <time>2020-08-12T15:23:57Z</time>
      </trkpt>
      <trkpt lat="41.683995" lon="1.246777">
        <ele>480.6</ele>
        <time>2020-08-12T15:24:00Z</time>
      </trkpt>
      <trkpt lat="41.683784" lon="1.245964">
        <ele>482.4</ele>
        <time>2020-08-12T15:24:03Z</time>
      </trkpt>
      <trkpt lat="41.683558" lon="1.245225">
        <ele>485.2</ele>
        <time>2020-08-12T15:24:06Z</time>
      </trkpt>
      <trkpt lat="41.683321" lon="1.244527">
        <ele>475.8</ele>
        <time>2020-08-12T15:24:08Z</time>
      </trkpt>
      <trkpt lat="41.682537" lon="1.2424">
        <ele>484.6</ele>
        <time>2020-08-12T15:24:16Z</time>
      </trkpt>
      <trkpt lat="41.682343" lon="1.241794">
        <ele>473.8</ele>
        <time>2020-08-12T15:24:18Z</time>
      </trkpt>
      <trkpt lat="41.682166" lon="1.24115">
        <ele>475.0</ele>
        <time>2020-08-12T15:24:20Z</time>
      </trkpt>
      <trkpt lat="41.682037" lon="1.240584">
        <ele>474.2</ele>
        <time>2020-08-12T15:24:22Z</time>
      </trkpt>
      <trkpt lat="41.681905" lon="1.239876">
        <ele>472.8</ele>
        <time>2020-08-12T15:24:24Z</time>
      </trkpt>
      <trkpt lat="41.68185" lon="1.239488">
        <ele>472.8</ele>
        <time>2020-08-12T15:24:25Z</time>
      </trkpt>
      <trkpt lat="41.681645" lon="1.237698">
        <ele>461.4</ele>
        <time>2020-08-12T15:24:31Z</time>
      </trkpt>
      <trkpt lat="41.681532" lon="1.236883">
        <ele>459.8</ele>
        <time>2020-08-12T15:24:34Z</time>
      </trkpt>
      <trkpt lat="41.68136" lon="1.235967">
        <ele>457.8</ele>
        <time>2020-08-12T15:24:37Z</time>
      </trkpt>
      <trkpt lat="41.681103" lon="1.234982">
        <ele>459.0</ele>
        <time>2020-08-12T15:24:40Z</time>
      </trkpt>
      <trkpt lat="41.680797" lon="1.234063">
        <ele>467.2</ele>
        <time>2020-08-12T15:24:43Z</time>
      </trkpt>
      <trkpt lat="41.680439" lon="1.233183">
        <ele>466.4</ele>
        <time>2020-08-12T15:24:46Z</time>
      </trkpt>
      <trkpt lat="41.680247" lon="1.232771">
        <ele>466.4</ele>
        <time>2020-08-12T15:24:48Z</time>
      </trkpt>
      <trkpt lat="41.680021" lon="1.232336">
        <ele>468.0</ele>
        <time>2020-08-12T15:24:50Z</time>
      </trkpt>
      <trkpt lat="41.679562" lon="1.231551">
        <ele>471.6</ele>
        <time>2020-08-12T15:24:53Z</time>
      </trkpt>
      <trkpt lat="41.679037" lon="1.23075">
        <ele>472.4</ele>
        <time>2020-08-12T15:24:56Z</time>
      </trkpt>
      <trkpt lat="41.678443" lon="1.229955">
        <ele>472.4</ele>
        <time>2020-08-12T15:25:00Z</time>
      </trkpt>
      <trkpt lat="41.677847" lon="1.229242">
        <ele>475.2</ele>
        <time>2020-08-12T15:25:03Z</time>
      </trkpt>
      <trkpt lat="41.677191" lon="1.228555">
        <ele>478.8</ele>
        <time>2020-08-12T15:25:07Z</time>
      </trkpt>
      <trkpt lat="41.676607" lon="1.228013">
        <ele>479.0</ele>
        <time>2020-08-12T15:25:10Z</time>
      </trkpt>
      <trkpt lat="41.676095" lon="1.227588">
        <ele>479.0</ele>
        <time>2020-08-12T15:25:12Z</time>
      </trkpt>
      <trkpt lat="41.674815" lon="1.226655">
        <ele>480.0</ele>
        <time>2020-08-12T15:25:18Z</time>
      </trkpt>
      <trkpt lat="41.673967" lon="1.226068">
        <ele>486.2</ele>
        <time>2020-08-12T15:25:22Z</time>
      </trkpt>
      <trkpt lat="41.673441" lon="1.225658">
        <ele>487.8</ele>
        <time>2020-08-12T15:25:25Z</time>
      </trkpt>
      <trkpt lat="41.672811" lon="1.225131">
        <ele>494.8</ele>
        <time>2020-08-12T15:25:28Z</time>
      </trkpt>
      <trkpt lat="41.672446" lon="1.224804">
        <ele>499.6</ele>
        <time>2020-08-12T15:25:30Z</time>
      </trkpt>
      <trkpt lat="41.672038" lon="1.224405">
        <ele>499.6</ele>
        <time>2020-08-12T15:25:32Z</time>
      </trkpt>
      <trkpt lat="41.671349" lon="1.223639">
        <ele>506.4</ele>
        <time>2020-08-12T15:25:36Z</time>
      </trkpt>
      <trkpt lat="41.670563" lon="1.222637">
        <ele>516.2</ele>
        <time>2020-08-12T15:25:41Z</time>
      </trkpt>
      <trkpt lat="41.66998" lon="1.22178">
        <ele>520.4</ele>
        <time>2020-08-12T15:25:44Z</time>
      </trkpt>
      <trkpt lat="41.669496" lon="1.220959">
        <ele>518.8</ele>
        <time>2020-08-12T15:25:48Z</time>
      </trkpt>
      <trkpt lat="41.669052" lon="1.220123">
        <ele>518.8</ele>
        <time>2020-08-12T15:25:51Z</time>
      </trkpt>
      <trkpt lat="41.668623" lon="1.219195">
        <ele>518.0</ele>
        <time>2020-08-12T15:25:54Z</time>
      </trkpt>
      <trkpt lat="41.668225" lon="1.218218">
        <ele>511.6</ele>
        <time>2020-08-12T15:25:58Z</time>
      </trkpt>
      <trkpt lat="41.667459" lon="1.216041">
        <ele>501.8</ele>
        <time>2020-08-12T15:26:06Z</time>
      </trkpt>
      <trkpt lat="41.66485" lon="1.208351">
        <ele>494.2</ele>
        <time>2020-08-12T15:26:32Z</time>
      </trkpt>
      <trkpt lat="41.663454" lon="1.204188">
        <ele>486.0</ele>
        <time>2020-08-12T15:26:47Z</time>
      </trkpt>
      <trkpt lat="41.663155" lon="1.203132">
        <ele>482.0</ele>
        <time>2020-08-12T15:26:50Z</time>
      </trkpt>
      <trkpt lat="41.662926" lon="1.202048">
        <ele>480.0</ele>
        <time>2020-08-12T15:26:54Z</time>
      </trkpt>
      <trkpt lat="41.662822" lon="1.201402">
        <ele>478.2</ele>
        <time>2020-08-12T15:26:56Z</time>
      </trkpt>
      <trkpt lat="41.662746" lon="1.200833">
        <ele>478.2</ele>
        <time>2020-08-12T15:26:58Z</time>
      </trkpt>
      <trkpt lat="41.662623" lon="1.199628">
        <ele>474.0</ele>
        <time>2020-08-12T15:27:02Z</time>
      </trkpt>
      <trkpt lat="41.662497" lon="1.198581">
        <ele>472.0</ele>
        <time>2020-08-12T15:27:05Z</time>
      </trkpt>
      <trkpt lat="41.66241" lon="1.197986">
        <ele>469.2</ele>
        <time>2020-08-12T15:27:07Z</time>
      </trkpt>
      <trkpt lat="41.661267" lon="1.191351">
        <ele>457.0</ele>
        <time>2020-08-12T15:27:29Z</time>
      </trkpt>
      <trkpt lat="41.661002" lon="1.18993">
        <ele>455.0</ele>
        <time>2020-08-12T15:27:33Z</time>
      </trkpt>
      <trkpt lat="41.660536" lon="1.187849">
        <ele>453.6</ele>
        <time>2020-08-12T15:27:40Z</time>
      </trkpt>
      <trkpt lat="41.659398" lon="1.183316">
        <ele>466.6</ele>
        <time>2020-08-12T15:27:55Z</time>
      </trkpt>
      <trkpt lat="41.65926" lon="1.182697">
        <ele>466.6</ele>
        <time>2020-08-12T15:27:57Z</time>
      </trkpt>
      <trkpt lat="41.659147" lon="1.182065">
        <ele>468.0</ele>
        <time>2020-08-12T15:27:59Z</time>
      </trkpt>
      <trkpt lat="41.659057" lon="1.181405">
        <ele>468.2</ele>
        <time>2020-08-12T15:28:02Z</time>
      </trkpt>
      <trkpt lat="41.658989" lon="1.180751">
        <ele>465.8</ele>
        <time>2020-08-12T15:28:04Z</time>
      </trkpt>
      <trkpt lat="41.658387" lon="1.174369">
        <ele>453.4</ele>
        <time>2020-08-12T15:28:24Z</time>
      </trkpt>
      <trkpt lat="41.658214" lon="1.173159">
        <ele>448.0</ele>
        <time>2020-08-12T15:28:28Z</time>
      </trkpt>
      <trkpt lat="41.657109" lon="1.166761">
        <ele>431.2</ele>
        <time>2020-08-12T15:28:49Z</time>
      </trkpt>
      <trkpt lat="41.657061" lon="1.166419">
        <ele>429.4</ele>
        <time>2020-08-12T15:28:50Z</time>
      </trkpt>
      <trkpt lat="41.657009" lon="1.165871">
        <ele>429.4</ele>
        <time>2020-08-12T15:28:52Z</time>
      </trkpt>
      <trkpt lat="41.656996" lon="1.165245">
        <ele>427.4</ele>
        <time>2020-08-12T15:28:54Z</time>
      </trkpt>
      <trkpt lat="41.657017" lon="1.164733">
        <ele>426.2</ele>
        <time>2020-08-12T15:28:55Z</time>
      </trkpt>
      <trkpt lat="41.657094" lon="1.164045">
        <ele>424.0</ele>
        <time>2020-08-12T15:28:58Z</time>
      </trkpt>
      <trkpt lat="41.657218" lon="1.163405">
        <ele>424.0</ele>
        <time>2020-08-12T15:29:00Z</time>
      </trkpt>
      <trkpt lat="41.657352" lon="1.162881">
        <ele>421.6</ele>
        <time>2020-08-12T15:29:01Z</time>
      </trkpt>
      <trkpt lat="41.657676" lon="1.161882">
        <ele>419.8</ele>
        <time>2020-08-12T15:29:05Z</time>
      </trkpt>
      <trkpt lat="41.657827" lon="1.161347">
        <ele>418.0</ele>
        <time>2020-08-12T15:29:07Z</time>
      </trkpt>
      <trkpt lat="41.65796" lon="1.160778">
        <ele>416.2</ele>
        <time>2020-08-12T15:29:09Z</time>
      </trkpt>
      <trkpt lat="41.658431" lon="1.158498">
        <ele>413.4</ele>
        <time>2020-08-12T15:29:16Z</time>
      </trkpt>
      <trkpt lat="41.65893" lon="1.156218">
        <ele>406.6</ele>
        <time>2020-08-12T15:29:24Z</time>
      </trkpt>
      <trkpt lat="41.659219" lon="1.15504">
        <ele>403.2</ele>
        <time>2020-08-12T15:29:28Z</time>
      </trkpt>
      <trkpt lat="41.659765" lon="1.152947">
        <ele>395.6</ele>
        <time>2020-08-12T15:29:35Z</time>
      </trkpt>
      <trkpt lat="41.66085" lon="1.14899">
        <ele>384.4</ele>
        <time>2020-08-12T15:29:48Z</time>
      </trkpt>
      <trkpt lat="41.661022" lon="1.148317">
        <ele>382.0</ele>
        <time>2020-08-12T15:29:50Z</time>
      </trkpt>
      <trkpt lat="41.661257" lon="1.147216">
        <ele>379.6</ele>
        <time>2020-08-12T15:29:54Z</time>
      </trkpt>
      <trkpt lat="41.661362" lon="1.146675">
        <ele>379.6</ele>
        <time>2020-08-12T15:29:56Z</time>
      </trkpt>
      <trkpt lat="41.66153" lon="1.145662">
        <ele>375.8</ele>
        <time>2020-08-12T15:29:59Z</time>
      </trkpt>
      <trkpt lat="41.661675" lon="1.144488">
        <ele>373.4</ele>
        <time>2020-08-12T15:30:03Z</time>
      </trkpt>
      <trkpt lat="41.661734" lon="1.14378">
        <ele>370.6</ele>
        <time>2020-08-12T15:30:05Z</time>
      </trkpt>
      <trkpt lat="41.661786" lon="1.14287">
        <ele>368.0</ele>
        <time>2020-08-12T15:30:08Z</time>
      </trkpt>
      <trkpt lat="41.661814" lon="1.141356">
        <ele>364.6</ele>
        <time>2020-08-12T15:30:13Z</time>
      </trkpt>
      <trkpt lat="41.661715" lon="1.139593">
        <ele>362.2</ele>
        <time>2020-08-12T15:30:18Z</time>
      </trkpt>
      <trkpt lat="41.661635" lon="1.138808">
        <ele>362.2</ele>
        <time>2020-08-12T15:30:21Z</time>
      </trkpt>
      <trkpt lat="41.661532" lon="1.138021">
        <ele>362.2</ele>
        <time>2020-08-12T15:30:23Z</time>
      </trkpt>
      <trkpt lat="41.661352" lon="1.136932">
        <ele>363.4</ele>
        <time>2020-08-12T15:30:27Z</time>
      </trkpt>
      <trkpt lat="41.661182" lon="1.136138">
        <ele>364.6</ele>
        <time>2020-08-12T15:30:29Z</time>
      </trkpt>
      <trkpt lat="41.660991" lon="1.135353">
        <ele>365.2</ele>
        <time>2020-08-12T15:30:32Z</time>
      </trkpt>
      <trkpt lat="41.660727" lon="1.13441">
        <ele>365.8</ele>
        <time>2020-08-12T15:30:35Z</time>
      </trkpt>
      <trkpt lat="41.66048" lon="1.133637">
        <ele>366.8</ele>
        <time>2020-08-12T15:30:38Z</time>
      </trkpt>
      <trkpt lat="41.660109" lon="1.132633">
        <ele>367.6</ele>
        <time>2020-08-12T15:30:42Z</time>
      </trkpt>
      <trkpt lat="41.659788" lon="1.131846">
        <ele>367.2</ele>
        <time>2020-08-12T15:30:44Z</time>
      </trkpt>
      <trkpt lat="41.658686" lon="1.129339">
        <ele>375.0</ele>
        <time>2020-08-12T15:30:54Z</time>
      </trkpt>
      <trkpt lat="41.658334" lon="1.128464">
        <ele>378.8</ele>
        <time>2020-08-12T15:30:57Z</time>
      </trkpt>
      <trkpt lat="41.65799" lon="1.127473">
        <ele>377.4</ele>
        <time>2020-08-12T15:31:00Z</time>
      </trkpt>
      <trkpt lat="41.657701" lon="1.126487">
        <ele>376.2</ele>
        <time>2020-08-12T15:31:04Z</time>
      </trkpt>
      <trkpt lat="41.657425" lon="1.125346">
        <ele>380.2</ele>
        <time>2020-08-12T15:31:07Z</time>
      </trkpt>
      <trkpt lat="41.657263" lon="1.124497">
        <ele>380.0</ele>
        <time>2020-08-12T15:31:10Z</time>
      </trkpt>
      <trkpt lat="41.657135" lon="1.123693">
        <ele>377.4</ele>
        <time>2020-08-12T15:31:13Z</time>
      </trkpt>
      <trkpt lat="41.65702" lon="1.12267">
        <ele>374.0</ele>
        <time>2020-08-12T15:31:16Z</time>
      </trkpt>
      <trkpt lat="41.656937" lon="1.121529">
        <ele>365.8</ele>
        <time>2020-08-12T15:31:20Z</time>
      </trkpt>
      <trkpt lat="41.656912" lon="1.120263">
        <ele>364.0</ele>
        <time>2020-08-12T15:31:24Z</time>
      </trkpt>
      <trkpt lat="41.656967" lon="1.118975">
        <ele>359.8</ele>
        <time>2020-08-12T15:31:28Z</time>
      </trkpt>
      <trkpt lat="41.657087" lon="1.117532">
        <ele>357.4</ele>
        <time>2020-08-12T15:31:32Z</time>
      </trkpt>
      <trkpt lat="41.657362" lon="1.115191">
        <ele>353.2</ele>
        <time>2020-08-12T15:31:40Z</time>
      </trkpt>
      <trkpt lat="41.657477" lon="1.114066">
        <ele>350.4</ele>
        <time>2020-08-12T15:31:44Z</time>
      </trkpt>
      <trkpt lat="41.657558" lon="1.113065">
        <ele>348.0</ele>
        <time>2020-08-12T15:31:47Z</time>
      </trkpt>
      <trkpt lat="41.657613" lon="1.112012">
        <ele>345.8</ele>
        <time>2020-08-12T15:31:50Z</time>
      </trkpt>
      <trkpt lat="41.657647" lon="1.110938">
        <ele>344.4</ele>
        <time>2020-08-12T15:31:54Z</time>
      </trkpt>
      <trkpt lat="41.657628" lon="1.109347">
        <ele>342.8</ele>
        <time>2020-08-12T15:31:59Z</time>
      </trkpt>
      <trkpt lat="41.657588" lon="1.108382">
        <ele>343.0</ele>
        <time>2020-08-12T15:32:02Z</time>
      </trkpt>
      <trkpt lat="41.657529" lon="1.107475">
        <ele>342.0</ele>
        <time>2020-08-12T15:32:05Z</time>
      </trkpt>
      <trkpt lat="41.657335" lon="1.105622">
        <ele>340.6</ele>
        <time>2020-08-12T15:32:10Z</time>
      </trkpt>
      <trkpt lat="41.657155" lon="1.104395">
        <ele>339.6</ele>
        <time>2020-08-12T15:32:14Z</time>
      </trkpt>
      <trkpt lat="41.656945" lon="1.103278">
        <ele>340.0</ele>
        <time>2020-08-12T15:32:18Z</time>
      </trkpt>
      <trkpt lat="41.656802" lon="1.102667">
        <ele>340.0</ele>
        <time>2020-08-12T15:32:20Z</time>
      </trkpt>
      <trkpt lat="41.656682" lon="1.102207">
        <ele>340.2</ele>
        <time>2020-08-12T15:32:22Z</time>
      </trkpt>
      <trkpt lat="41.656554" lon="1.101794">
        <ele>342.0</ele>
        <time>2020-08-12T15:32:23Z</time>
      </trkpt>
      <trkpt lat="41.656278" lon="1.101021">
        <ele>340.6</ele>
        <time>2020-08-12T15:32:26Z</time>
      </trkpt>
      <trkpt lat="41.656011" lon="1.100434">
        <ele>339.0</ele>
        <time>2020-08-12T15:32:28Z</time>
      </trkpt>
      <trkpt lat="41.65569" lon="1.099821">
        <ele>339.6</ele>
        <time>2020-08-12T15:32:30Z</time>
      </trkpt>
      <trkpt lat="41.655327" lon="1.099234">
        <ele>339.6</ele>
        <time>2020-08-12T15:32:33Z</time>
      </trkpt>
      <trkpt lat="41.655084" lon="1.098886">
        <ele>340.6</ele>
        <time>2020-08-12T15:32:34Z</time>
      </trkpt>
      <trkpt lat="41.654622" lon="1.098297">
        <ele>346.0</ele>
        <time>2020-08-12T15:32:37Z</time>
      </trkpt>
      <trkpt lat="41.654346" lon="1.098008">
        <ele>346.0</ele>
        <time>2020-08-12T15:32:38Z</time>
      </trkpt>
      <trkpt lat="41.653753" lon="1.097448">
        <ele>349.4</ele>
        <time>2020-08-12T15:32:42Z</time>
      </trkpt>
      <trkpt lat="41.653221" lon="1.097049">
        <ele>350.6</ele>
        <time>2020-08-12T15:32:44Z</time>
      </trkpt>
      <trkpt lat="41.652571" lon="1.096655">
        <ele>350.0</ele>
        <time>2020-08-12T15:32:47Z</time>
      </trkpt>
      <trkpt lat="41.6511" lon="1.095939">
        <ele>346.8</ele>
        <time>2020-08-12T15:32:54Z</time>
      </trkpt>
      <trkpt lat="41.650648" lon="1.095662">
        <ele>344.2</ele>
        <time>2020-08-12T15:32:56Z</time>
      </trkpt>
      <trkpt lat="41.650127" lon="1.09525">
        <ele>344.2</ele>
        <time>2020-08-12T15:32:58Z</time>
      </trkpt>
      <trkpt lat="41.649832" lon="1.094968">
        <ele>343.6</ele>
        <time>2020-08-12T15:33:00Z</time>
      </trkpt>
      <trkpt lat="41.649404" lon="1.094479">
        <ele>343.6</ele>
        <time>2020-08-12T15:33:02Z</time>
      </trkpt>
      <trkpt lat="41.649115" lon="1.09408">
        <ele>343.8</ele>
        <time>2020-08-12T15:33:04Z</time>
      </trkpt>
      <trkpt lat="41.648814" lon="1.093589">
        <ele>343.8</ele>
        <time>2020-08-12T15:33:06Z</time>
      </trkpt>
      <trkpt lat="41.648688" lon="1.093345">
        <ele>343.8</ele>
        <time>2020-08-12T15:33:07Z</time>
      </trkpt>
      <trkpt lat="41.648349" lon="1.092593">
        <ele>342.6</ele>
        <time>2020-08-12T15:33:10Z</time>
      </trkpt>
      <trkpt lat="41.648136" lon="1.091973">
        <ele>347.8</ele>
        <time>2020-08-12T15:33:12Z</time>
      </trkpt>
      <trkpt lat="41.64805" lon="1.091651">
        <ele>346.4</ele>
        <time>2020-08-12T15:33:13Z</time>
      </trkpt>
      <trkpt lat="41.647878" lon="1.090776">
        <ele>343.4</ele>
        <time>2020-08-12T15:33:16Z</time>
      </trkpt>
      <trkpt lat="41.647777" lon="1.090015">
        <ele>343.4</ele>
        <time>2020-08-12T15:33:19Z</time>
      </trkpt>
      <trkpt lat="41.647495" lon="1.087">
        <ele>343.8</ele>
        <time>2020-08-12T15:33:28Z</time>
      </trkpt>
      <trkpt lat="41.647278" lon="1.085104">
        <ele>342.8</ele>
        <time>2020-08-12T15:33:34Z</time>
      </trkpt>
      <trkpt lat="41.647113" lon="1.084198">
        <ele>339.4</ele>
        <time>2020-08-12T15:33:37Z</time>
      </trkpt>
      <trkpt lat="41.646872" lon="1.083339">
        <ele>336.4</ele>
        <time>2020-08-12T15:33:40Z</time>
      </trkpt>
      <trkpt lat="41.646565" lon="1.082399">
        <ele>335.6</ele>
        <time>2020-08-12T15:33:43Z</time>
      </trkpt>
      <trkpt lat="41.645716" lon="1.080058">
        <ele>331.4</ele>
        <time>2020-08-12T15:33:52Z</time>
      </trkpt>
      <trkpt lat="41.645174" lon="1.078025">
        <ele>323.6</ele>
        <time>2020-08-12T15:33:58Z</time>
      </trkpt>
      <trkpt lat="41.643163" lon="1.070006">
        <ele>312.0</ele>
        <time>2020-08-12T15:34:25Z</time>
      </trkpt>
      <trkpt lat="41.642785" lon="1.068575">
        <ele>311.2</ele>
        <time>2020-08-12T15:34:30Z</time>
      </trkpt>
      <trkpt lat="41.641711" lon="1.064999">
        <ele>305.4</ele>
        <time>2020-08-12T15:34:42Z</time>
      </trkpt>
      <trkpt lat="41.6394" lon="1.057462">
        <ele>306.2</ele>
        <time>2020-08-12T15:35:08Z</time>
      </trkpt>
      <trkpt lat="41.6391" lon="1.056658">
        <ele>306.8</ele>
        <time>2020-08-12T15:35:11Z</time>
      </trkpt>
      <trkpt lat="41.638954" lon="1.056323">
        <ele>306.8</ele>
        <time>2020-08-12T15:35:12Z</time>
      </trkpt>
      <trkpt lat="41.638101" lon="1.05464">
        <ele>304.2</ele>
        <time>2020-08-12T15:35:19Z</time>
      </trkpt>
      <trkpt lat="41.637868" lon="1.054104">
        <ele>302.4</ele>
        <time>2020-08-12T15:35:21Z</time>
      </trkpt>
      <trkpt lat="41.637732" lon="1.053733">
        <ele>302.4</ele>
        <time>2020-08-12T15:35:22Z</time>
      </trkpt>
      <trkpt lat="41.635074" lon="1.045597">
        <ele>297.0</ele>
        <time>2020-08-12T15:35:50Z</time>
      </trkpt>
      <trkpt lat="41.634775" lon="1.044465">
        <ele>298.8</ele>
        <time>2020-08-12T15:35:54Z</time>
      </trkpt>
      <trkpt lat="41.634682" lon="1.044007">
        <ele>299.0</ele>
        <time>2020-08-12T15:35:56Z</time>
      </trkpt>
      <trkpt lat="41.63453" lon="1.04312">
        <ele>299.8</ele>
        <time>2020-08-12T15:35:58Z</time>
      </trkpt>
      <trkpt lat="41.634404" lon="1.041894">
        <ele>303.3</ele>
        <time>2020-08-12T15:36:03Z</time>
      </trkpt>
      <trkpt lat="41.634404" lon="1.041894">
        <ele>303.3</ele>
        <time>2020-08-12T15:36:03Z</time>
      </trkpt>
      <trkpt lat="41.634257" lon="1.038754">
        <ele>311.4</ele>
        <time>2020-08-12T15:36:13Z</time>
      </trkpt>
      <trkpt lat="41.634163" lon="1.036437">
        <ele>319.0</ele>
        <time>2020-08-12T15:36:20Z</time>
      </trkpt>
      <trkpt lat="41.634149" lon="1.035704">
        <ele>319.2</ele>
        <time>2020-08-12T15:36:23Z</time>
      </trkpt>
      <trkpt lat="41.634159" lon="1.035026">
        <ele>319.2</ele>
        <time>2020-08-12T15:36:25Z</time>
      </trkpt>
      <trkpt lat="41.634216" lon="1.034185">
        <ele>313.8</ele>
        <time>2020-08-12T15:36:27Z</time>
      </trkpt>
      <trkpt lat="41.634272" lon="1.033666">
        <ele>312.4</ele>
        <time>2020-08-12T15:36:29Z</time>
      </trkpt>
      <trkpt lat="41.634367" lon="1.03304">
        <ele>311.2</ele>
        <time>2020-08-12T15:36:31Z</time>
      </trkpt>
      <trkpt lat="41.634518" lon="1.032257">
        <ele>310.8</ele>
        <time>2020-08-12T15:36:34Z</time>
      </trkpt>
      <trkpt lat="41.634779" lon="1.031253">
        <ele>310.2</ele>
        <time>2020-08-12T15:36:37Z</time>
      </trkpt>
      <trkpt lat="41.635085" lon="1.030339">
        <ele>309.8</ele>
        <time>2020-08-12T15:36:40Z</time>
      </trkpt>
      <trkpt lat="41.63568" lon="1.028702">
        <ele>306.6</ele>
        <time>2020-08-12T15:36:46Z</time>
      </trkpt>
      <trkpt lat="41.635965" lon="1.027838">
        <ele>305.4</ele>
        <time>2020-08-12T15:36:49Z</time>
      </trkpt>
      <trkpt lat="41.636227" lon="1.026877">
        <ele>303.2</ele>
        <time>2020-08-12T15:36:52Z</time>
      </trkpt>
      <trkpt lat="41.636446" lon="1.025889">
        <ele>302.8</ele>
        <time>2020-08-12T15:36:55Z</time>
      </trkpt>
      <trkpt lat="41.636587" lon="1.02503">
        <ele>304.2</ele>
        <time>2020-08-12T15:36:58Z</time>
      </trkpt>
      <trkpt lat="41.636695" lon="1.024142">
        <ele>303.0</ele>
        <time>2020-08-12T15:37:01Z</time>
      </trkpt>
      <trkpt lat="41.636765" lon="1.023236">
        <ele>302.6</ele>
        <time>2020-08-12T15:37:04Z</time>
      </trkpt>
      <trkpt lat="41.636785" lon="1.022776">
        <ele>302.6</ele>
        <time>2020-08-12T15:37:05Z</time>
      </trkpt>
      <trkpt lat="41.636794" lon="1.022267">
        <ele>301.4</ele>
        <time>2020-08-12T15:37:07Z</time>
      </trkpt>
      <trkpt lat="41.636776" lon="1.021306">
        <ele>298.4</ele>
        <time>2020-08-12T15:37:10Z</time>
      </trkpt>
      <trkpt lat="41.636715" lon="1.020346">
        <ele>295.6</ele>
        <time>2020-08-12T15:37:13Z</time>
      </trkpt>
      <trkpt lat="41.636373" lon="1.016874">
        <ele>289.8</ele>
        <time>2020-08-12T15:37:24Z</time>
      </trkpt>
      <trkpt lat="41.636255" lon="1.014959">
        <ele>289.2</ele>
        <time>2020-08-12T15:37:30Z</time>
      </trkpt>
      <trkpt lat="41.636225" lon="1.013272">
        <ele>290.0</ele>
        <time>2020-08-12T15:37:35Z</time>
      </trkpt>
      <trkpt lat="41.636243" lon="1.011572">
        <ele>290.0</ele>
        <time>2020-08-12T15:37:40Z</time>
      </trkpt>
      <trkpt lat="41.636311" lon="1.008782">
        <ele>289.6</ele>
        <time>2020-08-12T15:37:49Z</time>
      </trkpt>
      <trkpt lat="41.636321" lon="1.007581">
        <ele>288.8</ele>
        <time>2020-08-12T15:37:53Z</time>
      </trkpt>
      <trkpt lat="41.63632" lon="1.006429">
        <ele>288.4</ele>
        <time>2020-08-12T15:37:56Z</time>
      </trkpt>
      <trkpt lat="41.636252" lon="1.003607">
        <ele>294.2</ele>
        <time>2020-08-12T15:38:05Z</time>
      </trkpt>
      <trkpt lat="41.63603" lon="1.000825">
        <ele>298.0</ele>
        <time>2020-08-12T15:38:14Z</time>
      </trkpt>
      <trkpt lat="41.63574" lon="0.99767">
        <ele>297.0</ele>
        <time>2020-08-12T15:38:24Z</time>
      </trkpt>
      <trkpt lat="41.635612" lon="0.995816">
        <ele>295.0</ele>
        <time>2020-08-12T15:38:30Z</time>
      </trkpt>
      <trkpt lat="41.635587" lon="0.995111">
        <ele>295.0</ele>
        <time>2020-08-12T15:38:32Z</time>
      </trkpt>
      <trkpt lat="41.635572" lon="0.993756">
        <ele>294.0</ele>
        <time>2020-08-12T15:38:36Z</time>
      </trkpt>
      <trkpt lat="41.635621" lon="0.992426">
        <ele>293.0</ele>
        <time>2020-08-12T15:38:40Z</time>
      </trkpt>
      <trkpt lat="41.635724" lon="0.991105">
        <ele>292.2</ele>
        <time>2020-08-12T15:38:44Z</time>
      </trkpt>
      <trkpt lat="41.635868" lon="0.989905">
        <ele>290.2</ele>
        <time>2020-08-12T15:38:48Z</time>
      </trkpt>
      <trkpt lat="41.636046" lon="0.988726">
        <ele>289.0</ele>
        <time>2020-08-12T15:38:52Z</time>
      </trkpt>
      <trkpt lat="41.636179" lon="0.987954">
        <ele>289.4</ele>
        <time>2020-08-12T15:38:54Z</time>
      </trkpt>
      <trkpt lat="41.636391" lon="0.986893">
        <ele>289.4</ele>
        <time>2020-08-12T15:38:58Z</time>
      </trkpt>
      <trkpt lat="41.63678" lon="0.98513">
        <ele>288.0</ele>
        <time>2020-08-12T15:39:04Z</time>
      </trkpt>
      <trkpt lat="41.638097" lon="0.979873">
        <ele>285.2</ele>
        <time>2020-08-12T15:39:21Z</time>
      </trkpt>
      <trkpt lat="41.638765" lon="0.97693">
        <ele>283.0</ele>
        <time>2020-08-12T15:39:31Z</time>
      </trkpt>
      <trkpt lat="41.639107" lon="0.975033">
        <ele>283.0</ele>
        <time>2020-08-12T15:39:37Z</time>
      </trkpt>
      <trkpt lat="41.63923" lon="0.97424">
        <ele>280.8</ele>
        <time>2020-08-12T15:39:39Z</time>
      </trkpt>
      <trkpt lat="41.639387" lon="0.973139">
        <ele>279.8</ele>
        <time>2020-08-12T15:39:43Z</time>
      </trkpt>
      <trkpt lat="41.639536" lon="0.971915">
        <ele>279.6</ele>
        <time>2020-08-12T15:39:47Z</time>
      </trkpt>
      <trkpt lat="41.639699" lon="0.970152">
        <ele>279.0</ele>
        <time>2020-08-12T15:39:52Z</time>
      </trkpt>
      <trkpt lat="41.639806" lon="0.968366">
        <ele>279.4</ele>
        <time>2020-08-12T15:39:58Z</time>
      </trkpt>
      <trkpt lat="41.639891" lon="0.96591">
        <ele>278.6</ele>
        <time>2020-08-12T15:40:05Z</time>
      </trkpt>
      <trkpt lat="41.639932" lon="0.963858">
        <ele>276.2</ele>
        <time>2020-08-12T15:40:12Z</time>
      </trkpt>
      <trkpt lat="41.639909" lon="0.955231">
        <ele>271.4</ele>
        <time>2020-08-12T15:40:39Z</time>
      </trkpt>
      <trkpt lat="41.639926" lon="0.953991">
        <ele>269.8</ele>
        <time>2020-08-12T15:40:43Z</time>
      </trkpt>
      <trkpt lat="41.640016" lon="0.951266">
        <ele>267.8</ele>
        <time>2020-08-12T15:40:51Z</time>
      </trkpt>
      <trkpt lat="41.640084" lon="0.949991">
        <ele>265.6</ele>
        <time>2020-08-12T15:40:55Z</time>
      </trkpt>
      <trkpt lat="41.640185" lon="0.948492">
        <ele>264.4</ele>
        <time>2020-08-12T15:41:00Z</time>
      </trkpt>
      <trkpt lat="41.640315" lon="0.94701">
        <ele>262.6</ele>
        <time>2020-08-12T15:41:05Z</time>
      </trkpt>
      <trkpt lat="41.640463" lon="0.945537">
        <ele>261.6</ele>
        <time>2020-08-12T15:41:09Z</time>
      </trkpt>
      <trkpt lat="41.640631" lon="0.944066">
        <ele>259.0</ele>
        <time>2020-08-12T15:41:14Z</time>
      </trkpt>
      <trkpt lat="41.640792" lon="0.942815">
        <ele>258.2</ele>
        <time>2020-08-12T15:41:18Z</time>
      </trkpt>
      <trkpt lat="41.640971" lon="0.94157">
        <ele>258.4</ele>
        <time>2020-08-12T15:41:22Z</time>
      </trkpt>
      <trkpt lat="41.641195" lon="0.940142">
        <ele>258.0</ele>
        <time>2020-08-12T15:41:26Z</time>
      </trkpt>
      <trkpt lat="41.641925" lon="0.935864">
        <ele>256.0</ele>
        <time>2020-08-12T15:41:40Z</time>
      </trkpt>
      <trkpt lat="41.64285" lon="0.93062">
        <ele>258.0</ele>
        <time>2020-08-12T15:41:57Z</time>
      </trkpt>
      <trkpt lat="41.643247" lon="0.928184">
        <ele>256.0</ele>
        <time>2020-08-12T15:42:05Z</time>
      </trkpt>
      <trkpt lat="41.643423" lon="0.927012">
        <ele>255.6</ele>
        <time>2020-08-12T15:42:09Z</time>
      </trkpt>
      <trkpt lat="41.64358" lon="0.925827">
        <ele>256.4</ele>
        <time>2020-08-12T15:42:12Z</time>
      </trkpt>
      <trkpt lat="41.643832" lon="0.923409">
        <ele>255.8</ele>
        <time>2020-08-12T15:42:20Z</time>
      </trkpt>
      <trkpt lat="41.643941" lon="0.921835">
        <ele>254.4</ele>
        <time>2020-08-12T15:42:25Z</time>
      </trkpt>
      <trkpt lat="41.643993" lon="0.920247">
        <ele>253.4</ele>
        <time>2020-08-12T15:42:30Z</time>
      </trkpt>
      <trkpt lat="41.643999" lon="0.918981">
        <ele>254.0</ele>
        <time>2020-08-12T15:42:34Z</time>
      </trkpt>
      <trkpt lat="41.643946" lon="0.917079">
        <ele>253.8</ele>
        <time>2020-08-12T15:42:40Z</time>
      </trkpt>
      <trkpt lat="41.643845" lon="0.91558">
        <ele>252.6</ele>
        <time>2020-08-12T15:42:44Z</time>
      </trkpt>
      <trkpt lat="41.643697" lon="0.913887">
        <ele>252.2</ele>
        <time>2020-08-12T15:42:50Z</time>
      </trkpt>
      <trkpt lat="41.643388" lon="0.911026">
        <ele>251.4</ele>
        <time>2020-08-12T15:42:59Z</time>
      </trkpt>
      <trkpt lat="41.643286" lon="0.909861">
        <ele>249.8</ele>
        <time>2020-08-12T15:43:03Z</time>
      </trkpt>
      <trkpt lat="41.643226" lon="0.90877">
        <ele>249.6</ele>
        <time>2020-08-12T15:43:06Z</time>
      </trkpt>
      <trkpt lat="41.643189" lon="0.907649">
        <ele>249.6</ele>
        <time>2020-08-12T15:43:09Z</time>
      </trkpt>
      <trkpt lat="41.643137" lon="0.903956">
        <ele>248.2</ele>
        <time>2020-08-12T15:43:21Z</time>
      </trkpt>
      <trkpt lat="41.643047" lon="0.902055">
        <ele>246.4</ele>
        <time>2020-08-12T15:43:27Z</time>
      </trkpt>
      <trkpt lat="41.642959" lon="0.900909">
        <ele>246.2</ele>
        <time>2020-08-12T15:43:31Z</time>
      </trkpt>
      <trkpt lat="41.642859" lon="0.899882">
        <ele>246.0</ele>
        <time>2020-08-12T15:43:34Z</time>
      </trkpt>
      <trkpt lat="41.642518" lon="0.897023">
        <ele>246.6</ele>
        <time>2020-08-12T15:43:43Z</time>
      </trkpt>
      <trkpt lat="41.64216" lon="0.893157">
        <ele>243.6</ele>
        <time>2020-08-12T15:43:55Z</time>
      </trkpt>
      <trkpt lat="41.642175" lon="0.889822">
        <ele>243.4</ele>
        <time>2020-08-12T15:44:05Z</time>
      </trkpt>
      <trkpt lat="41.642166" lon="0.889216">
        <ele>243.4</ele>
        <time>2020-08-12T15:44:07Z</time>
      </trkpt>
      <trkpt lat="41.642144" lon="0.888527">
        <ele>242.4</ele>
        <time>2020-08-12T15:44:10Z</time>
      </trkpt>
      <trkpt lat="41.642027" lon="0.886718">
        <ele>240.4</ele>
        <time>2020-08-12T15:44:15Z</time>
      </trkpt>
      <trkpt lat="41.641768" lon="0.884821">
        <ele>240.0</ele>
        <time>2020-08-12T15:44:21Z</time>
      </trkpt>
      <trkpt lat="41.641528" lon="0.883447">
        <ele>238.4</ele>
        <time>2020-08-12T15:44:26Z</time>
      </trkpt>
      <trkpt lat="41.641213" lon="0.882086">
        <ele>237.8</ele>
        <time>2020-08-12T15:44:30Z</time>
      </trkpt>
      <trkpt lat="41.640099" lon="0.877802">
        <ele>236.2</ele>
        <time>2020-08-12T15:44:44Z</time>
      </trkpt>
      <trkpt lat="41.639719" lon="0.876015">
        <ele>237.4</ele>
        <time>2020-08-12T15:44:50Z</time>
      </trkpt>
      <trkpt lat="41.639567" lon="0.875164">
        <ele>236.8</ele>
        <time>2020-08-12T15:44:53Z</time>
      </trkpt>
      <trkpt lat="41.639438" lon="0.874338">
        <ele>236.2</ele>
        <time>2020-08-12T15:44:55Z</time>
      </trkpt>
      <trkpt lat="41.639271" lon="0.872933">
        <ele>235.6</ele>
        <time>2020-08-12T15:45:00Z</time>
      </trkpt>
      <trkpt lat="41.639127" lon="0.871086">
        <ele>232.8</ele>
        <time>2020-08-12T15:45:06Z</time>
      </trkpt>
      <trkpt lat="41.639058" lon="0.869474">
        <ele>232.4</ele>
        <time>2020-08-12T15:45:11Z</time>
      </trkpt>
      <trkpt lat="41.639001" lon="0.867062">
        <ele>232.8</ele>
        <time>2020-08-12T15:45:18Z</time>
      </trkpt>
      <trkpt lat="41.638971" lon="0.866351">
        <ele>232.6</ele>
        <time>2020-08-12T15:45:21Z</time>
      </trkpt>
      <trkpt lat="41.638892" lon="0.865335">
        <ele>232.4</ele>
        <time>2020-08-12T15:45:24Z</time>
      </trkpt>
      <trkpt lat="41.638836" lon="0.864829">
        <ele>231.8</ele>
        <time>2020-08-12T15:45:25Z</time>
      </trkpt>
      <trkpt lat="41.638702" lon="0.863883">
        <ele>231.2</ele>
        <time>2020-08-12T15:45:28Z</time>
      </trkpt>
      <trkpt lat="41.638065" lon="0.860456">
        <ele>229.4</ele>
        <time>2020-08-12T15:45:39Z</time>
      </trkpt>
      <trkpt lat="41.637859" lon="0.859164">
        <ele>229.4</ele>
        <time>2020-08-12T15:45:44Z</time>
      </trkpt>
      <trkpt lat="41.637768" lon="0.85847">
        <ele>229.4</ele>
        <time>2020-08-12T15:45:46Z</time>
      </trkpt>
      <trkpt lat="41.63761" lon="0.856978">
        <ele>229.0</ele>
        <time>2020-08-12T15:45:50Z</time>
      </trkpt>
      <trkpt lat="41.637547" lon="0.856165">
        <ele>229.4</ele>
        <time>2020-08-12T15:45:53Z</time>
      </trkpt>
      <trkpt lat="41.637476" lon="0.854594">
        <ele>228.8</ele>
        <time>2020-08-12T15:45:58Z</time>
      </trkpt>
      <trkpt lat="41.63746" lon="0.853211">
        <ele>228.6</ele>
        <time>2020-08-12T15:46:02Z</time>
      </trkpt>
      <trkpt lat="41.637458" lon="0.849547">
        <ele>228.8</ele>
        <time>2020-08-12T15:46:14Z</time>
      </trkpt>
      <trkpt lat="41.637392" lon="0.84809">
        <ele>227.4</ele>
        <time>2020-08-12T15:46:18Z</time>
      </trkpt>
      <trkpt lat="41.637334" lon="0.847313">
        <ele>227.6</ele>
        <time>2020-08-12T15:46:21Z</time>
      </trkpt>
      <trkpt lat="41.637016" lon="0.843741">
        <ele>224.8</ele>
        <time>2020-08-12T15:46:32Z</time>
      </trkpt>
      <trkpt lat="41.63696" lon="0.84294">
        <ele>224.8</ele>
        <time>2020-08-12T15:46:34Z</time>
      </trkpt>
      <trkpt lat="41.636907" lon="0.841866">
        <ele>225.2</ele>
        <time>2020-08-12T15:46:38Z</time>
      </trkpt>
      <trkpt lat="41.636888" lon="0.840466">
        <ele>224.6</ele>
        <time>2020-08-12T15:46:42Z</time>
      </trkpt>
      <trkpt lat="41.636938" lon="0.837124">
        <ele>223.8</ele>
        <time>2020-08-12T15:46:53Z</time>
      </trkpt>
      <trkpt lat="41.636923" lon="0.83543">
        <ele>222.0</ele>
        <time>2020-08-12T15:46:58Z</time>
      </trkpt>
      <trkpt lat="41.636823" lon="0.833794">
        <ele>221.0</ele>
        <time>2020-08-12T15:47:03Z</time>
      </trkpt>
      <trkpt lat="41.636666" lon="0.832283">
        <ele>220.4</ele>
        <time>2020-08-12T15:47:08Z</time>
      </trkpt>
      <trkpt lat="41.636176" lon="0.828638">
        <ele>218.6</ele>
        <time>2020-08-12T15:47:19Z</time>
      </trkpt>
      <trkpt lat="41.636018" lon="0.827291">
        <ele>218.0</ele>
        <time>2020-08-12T15:47:24Z</time>
      </trkpt>
      <trkpt lat="41.635881" lon="0.82573">
        <ele>218.8</ele>
        <time>2020-08-12T15:47:29Z</time>
      </trkpt>
      <trkpt lat="41.635838" lon="0.824918">
        <ele>218.8</ele>
        <time>2020-08-12T15:47:31Z</time>
      </trkpt>
      <trkpt lat="41.635761" lon="0.822795">
        <ele>217.4</ele>
        <time>2020-08-12T15:47:38Z</time>
      </trkpt>
      <trkpt lat="41.635796" lon="0.817014">
        <ele>213.0</ele>
        <time>2020-08-12T15:47:56Z</time>
      </trkpt>
      <trkpt lat="41.635764" lon="0.815275">
        <ele>212.8</ele>
        <time>2020-08-12T15:48:01Z</time>
      </trkpt>
      <trkpt lat="41.635723" lon="0.814316">
        <ele>212.0</ele>
        <time>2020-08-12T15:48:04Z</time>
      </trkpt>
      <trkpt lat="41.635618" lon="0.812834">
        <ele>211.2</ele>
        <time>2020-08-12T15:48:09Z</time>
      </trkpt>
      <trkpt lat="41.635497" lon="0.811597">
        <ele>211.2</ele>
        <time>2020-08-12T15:48:13Z</time>
      </trkpt>
      <trkpt lat="41.635351" lon="0.810361">
        <ele>211.4</ele>
        <time>2020-08-12T15:48:17Z</time>
      </trkpt>
      <trkpt lat="41.635127" lon="0.808786">
        <ele>209.6</ele>
        <time>2020-08-12T15:48:22Z</time>
      </trkpt>
      <trkpt lat="41.634841" lon="0.806512">
        <ele>209.4</ele>
        <time>2020-08-12T15:48:29Z</time>
      </trkpt>
      <trkpt lat="41.634698" lon="0.805238">
        <ele>208.6</ele>
        <time>2020-08-12T15:48:33Z</time>
      </trkpt>
      <trkpt lat="41.634598" lon="0.804017">
        <ele>206.4</ele>
        <time>2020-08-12T15:48:37Z</time>
      </trkpt>
      <trkpt lat="41.634565" lon="0.80341">
        <ele>206.4</ele>
        <time>2020-08-12T15:48:39Z</time>
      </trkpt>
      <trkpt lat="41.634535" lon="0.802219">
        <ele>207.2</ele>
        <time>2020-08-12T15:48:43Z</time>
      </trkpt>
      <trkpt lat="41.63454" lon="0.801336">
        <ele>207.4</ele>
        <time>2020-08-12T15:48:45Z</time>
      </trkpt>
      <trkpt lat="41.634573" lon="0.800342">
        <ele>207.6</ele>
        <time>2020-08-12T15:48:48Z</time>
      </trkpt>
      <trkpt lat="41.634663" lon="0.799091">
        <ele>206.6</ele>
        <time>2020-08-12T15:48:52Z</time>
      </trkpt>
      <trkpt lat="41.634774" lon="0.798064">
        <ele>206.6</ele>
        <time>2020-08-12T15:48:56Z</time>
      </trkpt>
      <trkpt lat="41.634953" lon="0.796817">
        <ele>206.8</ele>
        <time>2020-08-12T15:49:00Z</time>
      </trkpt>
      <trkpt lat="41.635171" lon="0.795648">
        <ele>207.2</ele>
        <time>2020-08-12T15:49:03Z</time>
      </trkpt>
      <trkpt lat="41.635493" lon="0.794259">
        <ele>206.0</ele>
        <time>2020-08-12T15:49:08Z</time>
      </trkpt>
      <trkpt lat="41.635707" lon="0.793473">
        <ele>206.0</ele>
        <time>2020-08-12T15:49:11Z</time>
      </trkpt>
      <trkpt lat="41.636125" lon="0.7921">
        <ele>205.8</ele>
        <time>2020-08-12T15:49:15Z</time>
      </trkpt>
      <trkpt lat="41.637371" lon="0.788309">
        <ele>202.4</ele>
        <time>2020-08-12T15:49:28Z</time>
      </trkpt>
      <trkpt lat="41.637639" lon="0.787448">
        <ele>203.0</ele>
        <time>2020-08-12T15:49:31Z</time>
      </trkpt>
      <trkpt lat="41.6381" lon="0.785798">
        <ele>202.0</ele>
        <time>2020-08-12T15:49:37Z</time>
      </trkpt>
      <trkpt lat="41.638615" lon="0.783625">
        <ele>199.8</ele>
        <time>2020-08-12T15:49:44Z</time>
      </trkpt>
      <trkpt lat="41.638928" lon="0.782025">
        <ele>200.6</ele>
        <time>2020-08-12T15:49:49Z</time>
      </trkpt>
      <trkpt lat="41.639112" lon="0.780853">
        <ele>199.8</ele>
        <time>2020-08-12T15:49:53Z</time>
      </trkpt>
      <trkpt lat="41.6393" lon="0.779171">
        <ele>198.8</ele>
        <time>2020-08-12T15:49:58Z</time>
      </trkpt>
      <trkpt lat="41.639382" lon="0.777852">
        <ele>200.8</ele>
        <time>2020-08-12T15:50:02Z</time>
      </trkpt>
      <trkpt lat="41.639402" lon="0.777188">
        <ele>200.6</ele>
        <time>2020-08-12T15:50:04Z</time>
      </trkpt>
      <trkpt lat="41.639406" lon="0.776276">
        <ele>200.2</ele>
        <time>2020-08-12T15:50:07Z</time>
      </trkpt>
      <trkpt lat="41.639369" lon="0.774711">
        <ele>200.2</ele>
        <time>2020-08-12T15:50:12Z</time>
      </trkpt>
      <trkpt lat="41.639246" lon="0.773278">
        <ele>200.0</ele>
        <time>2020-08-12T15:50:16Z</time>
      </trkpt>
      <trkpt lat="41.639153" lon="0.772461">
        <ele>200.2</ele>
        <time>2020-08-12T15:50:19Z</time>
      </trkpt>
      <trkpt lat="41.638906" lon="0.770885">
        <ele>200.0</ele>
        <time>2020-08-12T15:50:24Z</time>
      </trkpt>
      <trkpt lat="41.638765" lon="0.770156">
        <ele>200.2</ele>
        <time>2020-08-12T15:50:26Z</time>
      </trkpt>
      <trkpt lat="41.638491" lon="0.768941">
        <ele>201.6</ele>
        <time>2020-08-12T15:50:30Z</time>
      </trkpt>
      <trkpt lat="41.638228" lon="0.767962">
        <ele>203.0</ele>
        <time>2020-08-12T15:50:34Z</time>
      </trkpt>
      <trkpt lat="41.637957" lon="0.767085">
        <ele>202.6</ele>
        <time>2020-08-12T15:50:37Z</time>
      </trkpt>
      <trkpt lat="41.63761" lon="0.766096">
        <ele>201.8</ele>
        <time>2020-08-12T15:50:40Z</time>
      </trkpt>
      <trkpt lat="41.637142" lon="0.764955">
        <ele>198.4</ele>
        <time>2020-08-12T15:50:44Z</time>
      </trkpt>
      <trkpt lat="41.636948" lon="0.764528">
        <ele>198.4</ele>
        <time>2020-08-12T15:50:46Z</time>
      </trkpt>
      <trkpt lat="41.636424" lon="0.763481">
        <ele>199.6</ele>
        <time>2020-08-12T15:50:50Z</time>
      </trkpt>
      <trkpt lat="41.635752" lon="0.76226">
        <ele>199.4</ele>
        <time>2020-08-12T15:50:54Z</time>
      </trkpt>
      <trkpt lat="41.634534" lon="0.760151">
        <ele>198.2</ele>
        <time>2020-08-12T15:51:03Z</time>
      </trkpt>
      <trkpt lat="41.634007" lon="0.759208">
        <ele>196.2</ele>
        <time>2020-08-12T15:51:06Z</time>
      </trkpt>
      <trkpt lat="41.633794" lon="0.758805">
        <ele>195.8</ele>
        <time>2020-08-12T15:51:08Z</time>
      </trkpt>
      <trkpt lat="41.633228" lon="0.757624">
        <ele>195.8</ele>
        <time>2020-08-12T15:51:12Z</time>
      </trkpt>
      <trkpt lat="41.632976" lon="0.757037">
        <ele>195.6</ele>
        <time>2020-08-12T15:51:14Z</time>
      </trkpt>
      <trkpt lat="41.632696" lon="0.756316">
        <ele>194.4</ele>
        <time>2020-08-12T15:51:17Z</time>
      </trkpt>
      <trkpt lat="41.632555" lon="0.755905">
        <ele>194.4</ele>
        <time>2020-08-12T15:51:18Z</time>
      </trkpt>
      <trkpt lat="41.63235" lon="0.755214">
        <ele>193.8</ele>
        <time>2020-08-12T15:51:21Z</time>
      </trkpt>
      <trkpt lat="41.632121" lon="0.754255">
        <ele>195.6</ele>
        <time>2020-08-12T15:51:24Z</time>
      </trkpt>
      <trkpt lat="41.632009" lon="0.753635">
        <ele>195.6</ele>
        <time>2020-08-12T15:51:26Z</time>
      </trkpt>
      <trkpt lat="41.631884" lon="0.752665">
        <ele>195.0</ele>
        <time>2020-08-12T15:51:29Z</time>
      </trkpt>
      <trkpt lat="41.631842" lon="0.752113">
        <ele>195.6</ele>
        <time>2020-08-12T15:51:31Z</time>
      </trkpt>
      <trkpt lat="41.631812" lon="0.751278">
        <ele>195.8</ele>
        <time>2020-08-12T15:51:33Z</time>
      </trkpt>
      <trkpt lat="41.631836" lon="0.75027">
        <ele>194.6</ele>
        <time>2020-08-12T15:51:36Z</time>
      </trkpt>
      <trkpt lat="41.631916" lon="0.749242">
        <ele>193.6</ele>
        <time>2020-08-12T15:51:40Z</time>
      </trkpt>
      <trkpt lat="41.632029" lon="0.748269">
        <ele>192.0</ele>
        <time>2020-08-12T15:51:43Z</time>
      </trkpt>
      <trkpt lat="41.632432" lon="0.745295">
        <ele>189.6</ele>
        <time>2020-08-12T15:51:52Z</time>
      </trkpt>
      <trkpt lat="41.632659" lon="0.743458">
        <ele>190.2</ele>
        <time>2020-08-12T15:51:58Z</time>
      </trkpt>
      <trkpt lat="41.63282" lon="0.741884">
        <ele>189.6</ele>
        <time>2020-08-12T15:52:03Z</time>
      </trkpt>
      <trkpt lat="41.633029" lon="0.739259">
        <ele>187.6</ele>
        <time>2020-08-12T15:52:11Z</time>
      </trkpt>
      <trkpt lat="41.63309" lon="0.738228">
        <ele>184.6</ele>
        <time>2020-08-12T15:52:14Z</time>
      </trkpt>
      <trkpt lat="41.633167" lon="0.736304">
        <ele>185.6</ele>
        <time>2020-08-12T15:52:20Z</time>
      </trkpt>
      <trkpt lat="41.633196" lon="0.734998">
        <ele>185.6</ele>
        <time>2020-08-12T15:52:25Z</time>
      </trkpt>
      <trkpt lat="41.633206" lon="0.733459">
        <ele>186.8</ele>
        <time>2020-08-12T15:52:29Z</time>
      </trkpt>
      <trkpt lat="41.633175" lon="0.731353">
        <ele>185.0</ele>
        <time>2020-08-12T15:52:36Z</time>
      </trkpt>
      <trkpt lat="41.63309" lon="0.729124">
        <ele>181.6</ele>
        <time>2020-08-12T15:52:43Z</time>
      </trkpt>
      <trkpt lat="41.632938" lon="0.726811">
        <ele>181.2</ele>
        <time>2020-08-12T15:52:50Z</time>
      </trkpt>
      <trkpt lat="41.632814" lon="0.725354">
        <ele>183.2</ele>
        <time>2020-08-12T15:52:55Z</time>
      </trkpt>
      <trkpt lat="41.632435" lon="0.721315">
        <ele>183.4</ele>
        <time>2020-08-12T15:53:08Z</time>
      </trkpt>
      <trkpt lat="41.632137" lon="0.71716">
        <ele>179.2</ele>
        <time>2020-08-12T15:53:21Z</time>
      </trkpt>
      <trkpt lat="41.632052" lon="0.716222">
        <ele>178.4</ele>
        <time>2020-08-12T15:53:24Z</time>
      </trkpt>
      <trkpt lat="41.631973" lon="0.715578">
        <ele>177.4</ele>
        <time>2020-08-12T15:53:26Z</time>
      </trkpt>
      <trkpt lat="41.631803" lon="0.714514">
        <ele>177.8</ele>
        <time>2020-08-12T15:53:29Z</time>
      </trkpt>
      <trkpt lat="41.631657" lon="0.713792">
        <ele>174.6</ele>
        <time>2020-08-12T15:53:31Z</time>
      </trkpt>
      <trkpt lat="41.631426" lon="0.712773">
        <ele>174.6</ele>
        <time>2020-08-12T15:53:35Z</time>
      </trkpt>
      <trkpt lat="41.630363" lon="0.709247">
        <ele>172.8</ele>
        <time>2020-08-12T15:53:47Z</time>
      </trkpt>
      <trkpt lat="41.630076" lon="0.708064">
        <ele>172.4</ele>
        <time>2020-08-12T15:53:50Z</time>
      </trkpt>
      <trkpt lat="41.629851" lon="0.706773">
        <ele>172.4</ele>
        <time>2020-08-12T15:53:55Z</time>
      </trkpt>
      <trkpt lat="41.629726" lon="0.705582">
        <ele>171.4</ele>
        <time>2020-08-12T15:53:58Z</time>
      </trkpt>
      <trkpt lat="41.629682" lon="0.704823">
        <ele>170.8</ele>
        <time>2020-08-12T15:54:01Z</time>
      </trkpt>
      <trkpt lat="41.629674" lon="0.70366">
        <ele>170.8</ele>
        <time>2020-08-12T15:54:04Z</time>
      </trkpt>
      <trkpt lat="41.629692" lon="0.703107">
        <ele>170.6</ele>
        <time>2020-08-12T15:54:06Z</time>
      </trkpt>
      <trkpt lat="41.629746" lon="0.70232">
        <ele>171.2</ele>
        <time>2020-08-12T15:54:09Z</time>
      </trkpt>
      <trkpt lat="41.629838" lon="0.701475">
        <ele>171.8</ele>
        <time>2020-08-12T15:54:11Z</time>
      </trkpt>
      <trkpt lat="41.629929" lon="0.700877">
        <ele>171.8</ele>
        <time>2020-08-12T15:54:13Z</time>
      </trkpt>
      <trkpt lat="41.630073" lon="0.700096">
        <ele>175.8</ele>
        <time>2020-08-12T15:54:16Z</time>
      </trkpt>
      <trkpt lat="41.630235" lon="0.699392">
        <ele>179.2</ele>
        <time>2020-08-12T15:54:18Z</time>
      </trkpt>
      <trkpt lat="41.630461" lon="0.698566">
        <ele>181.0</ele>
        <time>2020-08-12T15:54:21Z</time>
      </trkpt>
      <trkpt lat="41.630699" lon="0.697826">
        <ele>181.2</ele>
        <time>2020-08-12T15:54:23Z</time>
      </trkpt>
      <trkpt lat="41.631104" lon="0.69677">
        <ele>182.4</ele>
        <time>2020-08-12T15:54:27Z</time>
      </trkpt>
      <trkpt lat="41.631417" lon="0.696071">
        <ele>182.6</ele>
        <time>2020-08-12T15:54:30Z</time>
      </trkpt>
      <trkpt lat="41.632004" lon="0.694909">
        <ele>185.2</ele>
        <time>2020-08-12T15:54:34Z</time>
      </trkpt>
      <trkpt lat="41.632454" lon="0.694114">
        <ele>184.0</ele>
        <time>2020-08-12T15:54:37Z</time>
      </trkpt>
      <trkpt lat="41.633816" lon="0.691878">
        <ele>187.2</ele>
        <time>2020-08-12T15:54:46Z</time>
      </trkpt>
      <trkpt lat="41.634257" lon="0.691124">
        <ele>189.6</ele>
        <time>2020-08-12T15:54:49Z</time>
      </trkpt>
      <trkpt lat="41.634629" lon="0.690449">
        <ele>189.0</ele>
        <time>2020-08-12T15:54:52Z</time>
      </trkpt>
      <trkpt lat="41.635204" lon="0.689296">
        <ele>191.6</ele>
        <time>2020-08-12T15:54:56Z</time>
      </trkpt>
      <trkpt lat="41.635444" lon="0.688764">
        <ele>192.6</ele>
        <time>2020-08-12T15:54:58Z</time>
      </trkpt>
      <trkpt lat="41.63588" lon="0.687708">
        <ele>197.2</ele>
        <time>2020-08-12T15:55:02Z</time>
      </trkpt>
      <trkpt lat="41.636285" lon="0.686608">
        <ele>204.4</ele>
        <time>2020-08-12T15:55:06Z</time>
      </trkpt>
      <trkpt lat="41.63663" lon="0.685559">
        <ele>208.6</ele>
        <time>2020-08-12T15:55:09Z</time>
      </trkpt>
      <trkpt lat="41.637538" lon="0.682665">
        <ele>208.2</ele>
        <time>2020-08-12T15:55:19Z</time>
      </trkpt>
      <trkpt lat="41.637797" lon="0.681929">
        <ele>206.6</ele>
        <time>2020-08-12T15:55:22Z</time>
      </trkpt>
      <trkpt lat="41.638192" lon="0.680939">
        <ele>205.4</ele>
        <time>2020-08-12T15:55:25Z</time>
      </trkpt>
      <trkpt lat="41.638712" lon="0.679837">
        <ele>197.4</ele>
        <time>2020-08-12T15:55:29Z</time>
      </trkpt>
      <trkpt lat="41.639012" lon="0.679268">
        <ele>197.4</ele>
        <time>2020-08-12T15:55:31Z</time>
      </trkpt>
      <trkpt lat="41.639298" lon="0.67877">
        <ele>189.2</ele>
        <time>2020-08-12T15:55:33Z</time>
      </trkpt>
      <trkpt lat="41.639823" lon="0.67794">
        <ele>186.0</ele>
        <time>2020-08-12T15:55:37Z</time>
      </trkpt>
      <trkpt lat="41.640319" lon="0.677239">
        <ele>182.8</ele>
        <time>2020-08-12T15:55:40Z</time>
      </trkpt>
      <trkpt lat="41.640865" lon="0.676546">
        <ele>179.0</ele>
        <time>2020-08-12T15:55:43Z</time>
      </trkpt>
      <trkpt lat="41.641565" lon="0.675769">
        <ele>177.0</ele>
        <time>2020-08-12T15:55:47Z</time>
      </trkpt>
      <trkpt lat="41.642061" lon="0.675274">
        <ele>176.6</ele>
        <time>2020-08-12T15:55:49Z</time>
      </trkpt>
      <trkpt lat="41.642373" lon="0.674986">
        <ele>172.8</ele>
        <time>2020-08-12T15:55:51Z</time>
      </trkpt>
      <trkpt lat="41.643078" lon="0.674403">
        <ele>173.4</ele>
        <time>2020-08-12T15:55:54Z</time>
      </trkpt>
      <trkpt lat="41.643383" lon="0.674173">
        <ele>172.4</ele>
        <time>2020-08-12T15:55:56Z</time>
      </trkpt>
      <trkpt lat="41.644308" lon="0.673553">
        <ele>168.6</ele>
        <time>2020-08-12T15:56:00Z</time>
      </trkpt>
      <trkpt lat="41.644758" lon="0.673296">
        <ele>166.6</ele>
        <time>2020-08-12T15:56:02Z</time>
      </trkpt>
      <trkpt lat="41.645293" lon="0.673026">
        <ele>166.6</ele>
        <time>2020-08-12T15:56:05Z</time>
      </trkpt>
      <trkpt lat="41.646014" lon="0.672703">
        <ele>168.0</ele>
        <time>2020-08-12T15:56:08Z</time>
      </trkpt>
      <trkpt lat="41.648119" lon="0.671891">
        <ele>165.2</ele>
        <time>2020-08-12T15:56:17Z</time>
      </trkpt>
      <trkpt lat="41.649139" lon="0.671419">
        <ele>164.6</ele>
        <time>2020-08-12T15:56:21Z</time>
      </trkpt>
      <trkpt lat="41.649643" lon="0.671122">
        <ele>164.2</ele>
        <time>2020-08-12T15:56:24Z</time>
      </trkpt>
      <trkpt lat="41.650062" lon="0.67085">
        <ele>164.2</ele>
        <time>2020-08-12T15:56:26Z</time>
      </trkpt>
      <trkpt lat="41.650721" lon="0.670358">
        <ele>164.0</ele>
        <time>2020-08-12T15:56:29Z</time>
      </trkpt>
      <trkpt lat="41.651098" lon="0.670048">
        <ele>163.2</ele>
        <time>2020-08-12T15:56:31Z</time>
      </trkpt>
      <trkpt lat="41.651748" lon="0.669437">
        <ele>163.4</ele>
        <time>2020-08-12T15:56:34Z</time>
      </trkpt>
      <trkpt lat="41.652382" lon="0.668744">
        <ele>163.2</ele>
        <time>2020-08-12T15:56:37Z</time>
      </trkpt>
      <trkpt lat="41.652937" lon="0.668041">
        <ele>162.6</ele>
        <time>2020-08-12T15:56:41Z</time>
      </trkpt>
      <trkpt lat="41.65341" lon="0.667369">
        <ele>161.0</ele>
        <time>2020-08-12T15:56:44Z</time>
      </trkpt>
      <trkpt lat="41.653726" lon="0.666861">
        <ele>161.0</ele>
        <time>2020-08-12T15:56:46Z</time>
      </trkpt>
      <trkpt lat="41.654052" lon="0.666291">
        <ele>159.4</ele>
        <time>2020-08-12T15:56:48Z</time>
      </trkpt>
      <trkpt lat="41.654416" lon="0.665567">
        <ele>159.6</ele>
        <time>2020-08-12T15:56:51Z</time>
      </trkpt>
      <trkpt lat="41.655006" lon="0.664231">
        <ele>160.8</ele>
        <time>2020-08-12T15:56:55Z</time>
      </trkpt>
      <trkpt lat="41.655231" lon="0.663572">
        <ele>159.2</ele>
        <time>2020-08-12T15:56:58Z</time>
      </trkpt>
      <trkpt lat="41.655578" lon="0.662423">
        <ele>158.4</ele>
        <time>2020-08-12T15:57:02Z</time>
      </trkpt>
      <trkpt lat="41.656236" lon="0.65994">
        <ele>163.8</ele>
        <time>2020-08-12T15:57:10Z</time>
      </trkpt>
      <trkpt lat="41.656541" lon="0.658975">
        <ele>165.2</ele>
        <time>2020-08-12T15:57:13Z</time>
      </trkpt>
      <trkpt lat="41.656902" lon="0.658022">
        <ele>167.4</ele>
        <time>2020-08-12T15:57:16Z</time>
      </trkpt>
      <trkpt lat="41.657386" lon="0.656971">
        <ele>168.6</ele>
        <time>2020-08-12T15:57:20Z</time>
      </trkpt>
      <trkpt lat="41.657834" lon="0.656146">
        <ele>169.6</ele>
        <time>2020-08-12T15:57:23Z</time>
      </trkpt>
      <trkpt lat="41.658027" lon="0.655825">
        <ele>171.4</ele>
        <time>2020-08-12T15:57:25Z</time>
      </trkpt>
      <trkpt lat="41.65838" lon="0.655275">
        <ele>170.4</ele>
        <time>2020-08-12T15:57:27Z</time>
      </trkpt>
      <trkpt lat="41.65894" lon="0.654494">
        <ele>171.8</ele>
        <time>2020-08-12T15:57:30Z</time>
      </trkpt>
      <trkpt lat="41.660006" lon="0.653064">
        <ele>172.2</ele>
        <time>2020-08-12T15:57:37Z</time>
      </trkpt>
      <trkpt lat="41.660349" lon="0.652547">
        <ele>172.2</ele>
        <time>2020-08-12T15:57:39Z</time>
      </trkpt>
      <trkpt lat="41.660701" lon="0.651976">
        <ele>174.0</ele>
        <time>2020-08-12T15:57:41Z</time>
      </trkpt>
      <trkpt lat="41.66098" lon="0.651473">
        <ele>174.2</ele>
        <time>2020-08-12T15:57:43Z</time>
      </trkpt>
      <trkpt lat="41.661428" lon="0.650561">
        <ele>175.2</ele>
        <time>2020-08-12T15:57:47Z</time>
      </trkpt>
      <trkpt lat="41.661762" lon="0.649765">
        <ele>173.4</ele>
        <time>2020-08-12T15:57:49Z</time>
      </trkpt>
      <trkpt lat="41.661994" lon="0.64914">
        <ele>174.2</ele>
        <time>2020-08-12T15:57:52Z</time>
      </trkpt>
      <trkpt lat="41.662219" lon="0.648448">
        <ele>174.2</ele>
        <time>2020-08-12T15:57:54Z</time>
      </trkpt>
      <trkpt lat="41.662433" lon="0.647714">
        <ele>175.4</ele>
        <time>2020-08-12T15:57:56Z</time>
      </trkpt>
      <trkpt lat="41.662587" lon="0.647081">
        <ele>175.0</ele>
        <time>2020-08-12T15:57:58Z</time>
      </trkpt>
      <trkpt lat="41.662733" lon="0.646365">
        <ele>176.6</ele>
        <time>2020-08-12T15:58:01Z</time>
      </trkpt>
      <trkpt lat="41.66286" lon="0.645646">
        <ele>178.6</ele>
        <time>2020-08-12T15:58:03Z</time>
      </trkpt>
      <trkpt lat="41.663315" lon="0.642515">
        <ele>181.0</ele>
        <time>2020-08-12T15:58:13Z</time>
      </trkpt>
      <trkpt lat="41.663552" lon="0.640595">
        <ele>181.0</ele>
        <time>2020-08-12T15:58:19Z</time>
      </trkpt>
      <trkpt lat="41.663663" lon="0.639582">
        <ele>182.8</ele>
        <time>2020-08-12T15:58:22Z</time>
      </trkpt>
      <trkpt lat="41.663894" lon="0.637203">
        <ele>187.6</ele>
        <time>2020-08-12T15:58:30Z</time>
      </trkpt>
      <trkpt lat="41.664118" lon="0.634176">
        <ele>188.4</ele>
        <time>2020-08-12T15:58:39Z</time>
      </trkpt>
      <trkpt lat="41.664185" lon="0.633118">
        <ele>189.2</ele>
        <time>2020-08-12T15:58:43Z</time>
      </trkpt>
      <trkpt lat="41.66426" lon="0.631345">
        <ele>190.8</ele>
        <time>2020-08-12T15:58:48Z</time>
      </trkpt>
      <trkpt lat="41.664315" lon="0.6294">
        <ele>189.4</ele>
        <time>2020-08-12T15:58:54Z</time>
      </trkpt>
      <trkpt lat="41.66433" lon="0.624994">
        <ele>194.4</ele>
        <time>2020-08-12T15:59:08Z</time>
      </trkpt>
      <trkpt lat="41.664286" lon="0.62272">
        <ele>192.0</ele>
        <time>2020-08-12T15:59:15Z</time>
      </trkpt>
      <trkpt lat="41.664111" lon="0.619082">
        <ele>191.0</ele>
        <time>2020-08-12T15:59:27Z</time>
      </trkpt>
      <trkpt lat="41.663906" lon="0.616431">
        <ele>197.2</ele>
        <time>2020-08-12T15:59:35Z</time>
      </trkpt>
      <trkpt lat="41.663723" lon="0.614503">
        <ele>202.0</ele>
        <time>2020-08-12T15:59:41Z</time>
      </trkpt>
      <trkpt lat="41.663524" lon="0.612739">
        <ele>203.8</ele>
        <time>2020-08-12T15:59:47Z</time>
      </trkpt>
      <trkpt lat="41.663307" lon="0.611118">
        <ele>199.2</ele>
        <time>2020-08-12T15:59:52Z</time>
      </trkpt>
      <trkpt lat="41.662934" lon="0.608488">
        <ele>200.2</ele>
        <time>2020-08-12T16:00:00Z</time>
      </trkpt>
      <trkpt lat="41.66227" lon="0.604179">
        <ele>201.0</ele>
        <time>2020-08-12T16:00:14Z</time>
      </trkpt>
      <trkpt lat="41.661882" lon="0.601077">
        <ele>203.6</ele>
        <time>2020-08-12T16:00:24Z</time>
      </trkpt>
      <trkpt lat="41.661303" lon="0.595922">
        <ele>207.4</ele>
        <time>2020-08-12T16:00:40Z</time>
      </trkpt>
      <trkpt lat="41.661188" lon="0.595051">
        <ele>208.2</ele>
        <time>2020-08-12T16:00:43Z</time>
      </trkpt>
      <trkpt lat="41.660918" lon="0.593457">
        <ele>210.2</ele>
        <time>2020-08-12T16:00:48Z</time>
      </trkpt>
      <trkpt lat="41.660575" lon="0.591679">
        <ele>212.0</ele>
        <time>2020-08-12T16:00:54Z</time>
      </trkpt>
      <trkpt lat="41.660214" lon="0.590162">
        <ele>207.4</ele>
        <time>2020-08-12T16:00:59Z</time>
      </trkpt>
      <trkpt lat="41.659858" lon="0.588759">
        <ele>207.4</ele>
        <time>2020-08-12T16:01:03Z</time>
      </trkpt>
      <trkpt lat="41.659098" lon="0.586256">
        <ele>208.6</ele>
        <time>2020-08-12T16:01:12Z</time>
      </trkpt>
      <trkpt lat="41.658624" lon="0.58489">
        <ele>208.6</ele>
        <time>2020-08-12T16:01:16Z</time>
      </trkpt>
      <trkpt lat="41.657728" lon="0.582615">
        <ele>209.4</ele>
        <time>2020-08-12T16:01:24Z</time>
      </trkpt>
      <trkpt lat="41.657324" lon="0.581675">
        <ele>212.2</ele>
        <time>2020-08-12T16:01:28Z</time>
      </trkpt>
      <trkpt lat="41.656871" lon="0.58073">
        <ele>218.4</ele>
        <time>2020-08-12T16:01:31Z</time>
      </trkpt>
      <trkpt lat="41.656111" lon="0.579262">
        <ele>221.8</ele>
        <time>2020-08-12T16:01:37Z</time>
      </trkpt>
      <trkpt lat="41.655072" lon="0.577572">
        <ele>219.0</ele>
        <time>2020-08-12T16:01:44Z</time>
      </trkpt>
      <trkpt lat="41.654498" lon="0.576768">
        <ele>218.2</ele>
        <time>2020-08-12T16:01:47Z</time>
      </trkpt>
      <trkpt lat="41.654093" lon="0.576225">
        <ele>217.0</ele>
        <time>2020-08-12T16:01:50Z</time>
      </trkpt>
      <trkpt lat="41.652511" lon="0.574244">
        <ele>216.2</ele>
        <time>2020-08-12T16:01:59Z</time>
      </trkpt>
      <trkpt lat="41.651872" lon="0.573414">
        <ele>215.4</ele>
        <time>2020-08-12T16:02:02Z</time>
      </trkpt>
      <trkpt lat="41.651435" lon="0.5728">
        <ele>217.4</ele>
        <time>2020-08-12T16:02:05Z</time>
      </trkpt>
      <trkpt lat="41.651063" lon="0.572225">
        <ele>219.2</ele>
        <time>2020-08-12T16:02:08Z</time>
      </trkpt>
      <trkpt lat="41.650502" lon="0.571259">
        <ele>219.0</ele>
        <time>2020-08-12T16:02:11Z</time>
      </trkpt>
      <trkpt lat="41.649298" lon="0.56891">
        <ele>219.8</ele>
        <time>2020-08-12T16:02:20Z</time>
      </trkpt>
      <trkpt lat="41.648913" lon="0.568198">
        <ele>223.6</ele>
        <time>2020-08-12T16:02:23Z</time>
      </trkpt>
      <trkpt lat="41.648366" lon="0.567366">
        <ele>223.8</ele>
        <time>2020-08-12T16:02:26Z</time>
      </trkpt>
      <trkpt lat="41.64804" lon="0.566905">
        <ele>224.6</ele>
        <time>2020-08-12T16:02:28Z</time>
      </trkpt>
      <trkpt lat="41.647694" lon="0.566477">
        <ele>224.8</ele>
        <time>2020-08-12T16:02:30Z</time>
      </trkpt>
      <trkpt lat="41.646975" lon="0.565651">
        <ele>226.8</ele>
        <time>2020-08-12T16:02:34Z</time>
      </trkpt>
      <trkpt lat="41.646685" lon="0.565385">
        <ele>226.8</ele>
        <time>2020-08-12T16:02:36Z</time>
      </trkpt>
      <trkpt lat="41.64668" lon="0.565284">
        <ele>226.8</ele>
        <time>2020-08-12T16:02:37Z</time>
      </trkpt>
      <trkpt lat="41.646392" lon="0.564974">
        <ele>226.6</ele>
        <time>2020-08-12T16:02:42Z</time>
      </trkpt>
      <trkpt lat="41.6461" lon="0.564562">
        <ele>226.6</ele>
        <time>2020-08-12T16:02:47Z</time>
      </trkpt>
      <trkpt lat="41.646044" lon="0.564379">
        <ele>226.6</ele>
        <time>2020-08-12T16:02:49Z</time>
      </trkpt>
      <trkpt lat="41.64602" lon="0.564208">
        <ele>226.6</ele>
        <time>2020-08-12T16:02:51Z</time>
      </trkpt>
      <trkpt lat="41.646028" lon="0.564066">
        <ele>225.4</ele>
        <time>2020-08-12T16:02:53Z</time>
      </trkpt>
      <trkpt lat="41.646067" lon="0.563843">
        <ele>225.4</ele>
        <time>2020-08-12T16:02:55Z</time>
      </trkpt>
      <trkpt lat="41.646067" lon="0.563843">
        <ele>225.4</ele>
        <time>2020-08-12T16:02:55Z</time>
      </trkpt>
      <trkpt lat="41.646981" lon="0.561247">
        <ele>228.0</ele>
        <time>2020-08-12T16:03:15Z</time>
      </trkpt>
      <trkpt lat="41.647126" lon="0.561034">
        <ele>228.0</ele>
        <time>2020-08-12T16:03:17Z</time>
      </trkpt>
      <trkpt lat="41.64723" lon="0.560951">
        <ele>228.0</ele>
        <time>2020-08-12T16:03:18Z</time>
      </trkpt>
      <trkpt lat="41.647351" lon="0.560899">
        <ele>228.0</ele>
        <time>2020-08-12T16:03:20Z</time>
      </trkpt>
      <trkpt lat="41.647455" lon="0.560898">
        <ele>228.0</ele>
        <time>2020-08-12T16:03:21Z</time>
      </trkpt>
      <trkpt lat="41.647551" lon="0.560936">
        <ele>228.6</ele>
        <time>2020-08-12T16:03:21Z</time>
      </trkpt>
      <trkpt lat="41.647637" lon="0.561016">
        <ele>228.6</ele>
        <time>2020-08-12T16:03:22Z</time>
      </trkpt>
      <trkpt lat="41.647666" lon="0.561123">
        <ele>228.6</ele>
        <time>2020-08-12T16:03:23Z</time>
      </trkpt>
      <trkpt lat="41.647781" lon="0.561362">
        <ele>228.6</ele>
        <time>2020-08-12T16:03:25Z</time>
      </trkpt>
      <trkpt lat="41.647838" lon="0.561437">
        <ele>228.6</ele>
        <time>2020-08-12T16:03:26Z</time>
      </trkpt>
      <trkpt lat="41.647969" lon="0.561558">
        <ele>228.6</ele>
        <time>2020-08-12T16:03:27Z</time>
      </trkpt>
      <trkpt lat="41.648148" lon="0.561642">
        <ele>228.6</ele>
        <time>2020-08-12T16:03:29Z</time>
      </trkpt>
      <trkpt lat="41.648245" lon="0.561658">
        <ele>228.6</ele>
        <time>2020-08-12T16:03:29Z</time>
      </trkpt>
      <trkpt lat="41.648382" lon="0.561649">
        <ele>229.6</ele>
        <time>2020-08-12T16:03:31Z</time>
      </trkpt>
      <trkpt lat="41.648592" lon="0.561555">
        <ele>229.6</ele>
        <time>2020-08-12T16:03:32Z</time>
      </trkpt>
      <trkpt lat="41.648767" lon="0.561378">
        <ele>229.6</ele>
        <time>2020-08-12T16:03:34Z</time>
      </trkpt>
      <trkpt lat="41.648855" lon="0.561221">
        <ele>229.6</ele>
        <time>2020-08-12T16:03:35Z</time>
      </trkpt>
      <trkpt lat="41.648913" lon="0.561053">
        <ele>229.6</ele>
        <time>2020-08-12T16:03:37Z</time>
      </trkpt>
      <trkpt lat="41.648944" lon="0.560874">
        <ele>229.6</ele>
        <time>2020-08-12T16:03:38Z</time>
      </trkpt>
      <trkpt lat="41.648948" lon="0.5607">
        <ele>229.4</ele>
        <time>2020-08-12T16:03:39Z</time>
      </trkpt>
      <trkpt lat="41.648886" lon="0.560267">
        <ele>229.4</ele>
        <time>2020-08-12T16:03:42Z</time>
      </trkpt>
      <trkpt lat="41.6489" lon="0.560136">
        <ele>229.4</ele>
        <time>2020-08-12T16:03:42Z</time>
      </trkpt>
      <trkpt lat="41.64894" lon="0.559959">
        <ele>229.8</ele>
        <time>2020-08-12T16:03:44Z</time>
      </trkpt>
      <trkpt lat="41.649829" lon="0.557404">
        <ele>234.8</ele>
        <time>2020-08-12T16:04:01Z</time>
      </trkpt>
      <trkpt lat="41.650232" lon="0.556133">
        <ele>238.0</ele>
        <time>2020-08-12T16:04:10Z</time>
      </trkpt>
      <trkpt lat="41.650705" lon="0.554794">
        <ele>240.0</ele>
        <time>2020-08-12T16:04:19Z</time>
      </trkpt>
      <trkpt lat="41.650718" lon="0.55468">
        <ele>240.0</ele>
        <time>2020-08-12T16:04:20Z</time>
      </trkpt>
      <trkpt lat="41.651222" lon="0.552828">
        <ele>242.2</ele>
        <time>2020-08-12T16:04:26Z</time>
      </trkpt>
      <trkpt lat="41.655068" lon="0.542048">
        <ele>261.2</ele>
        <time>2020-08-12T16:05:04Z</time>
      </trkpt>
      <trkpt lat="41.656381" lon="0.538441">
        <ele>268.2</ele>
        <time>2020-08-12T16:05:17Z</time>
      </trkpt>
      <trkpt lat="41.657232" lon="0.536304">
        <ele>275.2</ele>
        <time>2020-08-12T16:05:25Z</time>
      </trkpt>
      <trkpt lat="41.657844" lon="0.53497">
        <ele>281.8</ele>
        <time>2020-08-12T16:05:30Z</time>
      </trkpt>
      <trkpt lat="41.658037" lon="0.534506">
        <ele>281.8</ele>
        <time>2020-08-12T16:05:32Z</time>
      </trkpt>
      <trkpt lat="41.658928" lon="0.532725">
        <ele>288.8</ele>
        <time>2020-08-12T16:05:39Z</time>
      </trkpt>
      <trkpt lat="41.661725" lon="0.527498">
        <ele>325.0</ele>
        <time>2020-08-12T16:05:59Z</time>
      </trkpt>
      <trkpt lat="41.664037" lon="0.522918">
        <ele>337.6</ele>
        <time>2020-08-12T16:06:17Z</time>
      </trkpt>
      <trkpt lat="41.665194" lon="0.520394">
        <ele>336.6</ele>
        <time>2020-08-12T16:06:26Z</time>
      </trkpt>
      <trkpt lat="41.667129" lon="0.515817">
        <ele>325.2</ele>
        <time>2020-08-12T16:06:43Z</time>
      </trkpt>
      <trkpt lat="41.670969" lon="0.506562">
        <ele>280.2</ele>
        <time>2020-08-12T16:07:17Z</time>
      </trkpt>
      <trkpt lat="41.671618" lon="0.505055">
        <ele>282.2</ele>
        <time>2020-08-12T16:07:23Z</time>
      </trkpt>
      <trkpt lat="41.672149" lon="0.503883">
        <ele>273.8</ele>
        <time>2020-08-12T16:07:27Z</time>
      </trkpt>
      <trkpt lat="41.672831" lon="0.502557">
        <ele>270.6</ele>
        <time>2020-08-12T16:07:33Z</time>
      </trkpt>
      <trkpt lat="41.673372" lon="0.501592">
        <ele>265.2</ele>
        <time>2020-08-12T16:07:36Z</time>
      </trkpt>
      <trkpt lat="41.673944" lon="0.500655">
        <ele>263.0</ele>
        <time>2020-08-12T16:07:40Z</time>
      </trkpt>
      <trkpt lat="41.674536" lon="0.499748">
        <ele>261.6</ele>
        <time>2020-08-12T16:07:44Z</time>
      </trkpt>
      <trkpt lat="41.67504" lon="0.499031">
        <ele>264.6</ele>
        <time>2020-08-12T16:07:47Z</time>
      </trkpt>
      <trkpt lat="41.675556" lon="0.498346">
        <ele>264.6</ele>
        <time>2020-08-12T16:07:50Z</time>
      </trkpt>
      <trkpt lat="41.676602" lon="0.497069">
        <ele>273.6</ele>
        <time>2020-08-12T16:07:57Z</time>
      </trkpt>
      <trkpt lat="41.677334" lon="0.496268">
        <ele>276.4</ele>
        <time>2020-08-12T16:08:01Z</time>
      </trkpt>
      <trkpt lat="41.678061" lon="0.495542">
        <ele>279.2</ele>
        <time>2020-08-12T16:08:05Z</time>
      </trkpt>
      <trkpt lat="41.679142" lon="0.494551">
        <ele>282.0</ele>
        <time>2020-08-12T16:08:10Z</time>
      </trkpt>
      <trkpt lat="41.679582" lon="0.494175">
        <ele>284.2</ele>
        <time>2020-08-12T16:08:12Z</time>
      </trkpt>
      <trkpt lat="41.680207" lon="0.493682">
        <ele>289.8</ele>
        <time>2020-08-12T16:08:16Z</time>
      </trkpt>
      <trkpt lat="41.68083" lon="0.493234">
        <ele>292.6</ele>
        <time>2020-08-12T16:08:19Z</time>
      </trkpt>
      <trkpt lat="41.682066" lon="0.492398">
        <ele>310.2</ele>
        <time>2020-08-12T16:08:25Z</time>
      </trkpt>
      <trkpt lat="41.684544" lon="0.490797">
        <ele>321.0</ele>
        <time>2020-08-12T16:08:36Z</time>
      </trkpt>
      <trkpt lat="41.685599" lon="0.490035">
        <ele>319.4</ele>
        <time>2020-08-12T16:08:42Z</time>
      </trkpt>
      <trkpt lat="41.687475" lon="0.488537">
        <ele>310.2</ele>
        <time>2020-08-12T16:08:51Z</time>
      </trkpt>
      <trkpt lat="41.689549" lon="0.486245">
        <ele>307.8</ele>
        <time>2020-08-12T16:09:03Z</time>
      </trkpt>
      <trkpt lat="41.690158" lon="0.485529">
        <ele>308.0</ele>
        <time>2020-08-12T16:09:06Z</time>
      </trkpt>
      <trkpt lat="41.690906" lon="0.484563">
        <ele>309.2</ele>
        <time>2020-08-12T16:09:10Z</time>
      </trkpt>
      <trkpt lat="41.692535" lon="0.482302">
        <ele>308.4</ele>
        <time>2020-08-12T16:09:21Z</time>
      </trkpt>
      <trkpt lat="41.695669" lon="0.477549">
        <ele>304.2</ele>
        <time>2020-08-12T16:09:41Z</time>
      </trkpt>
      <trkpt lat="41.698535" lon="0.472718">
        <ele>301.8</ele>
        <time>2020-08-12T16:10:01Z</time>
      </trkpt>
      <trkpt lat="41.701113" lon="0.467955">
        <ele>298.8</ele>
        <time>2020-08-12T16:10:20Z</time>
      </trkpt>
      <trkpt lat="41.702196" lon="0.465739">
        <ele>298.0</ele>
        <time>2020-08-12T16:10:28Z</time>
      </trkpt>
      <trkpt lat="41.703955" lon="0.462017">
        <ele>301.0</ele>
        <time>2020-08-12T16:10:42Z</time>
      </trkpt>
      <trkpt lat="41.70718" lon="0.454307">
        <ele>298.6</ele>
        <time>2020-08-12T16:11:11Z</time>
      </trkpt>
      <trkpt lat="41.707639" lon="0.453263">
        <ele>295.0</ele>
        <time>2020-08-12T16:11:14Z</time>
      </trkpt>
      <trkpt lat="41.708435" lon="0.451557">
        <ele>293.6</ele>
        <time>2020-08-12T16:11:21Z</time>
      </trkpt>
      <trkpt lat="41.709373" lon="0.449697">
        <ele>294.6</ele>
        <time>2020-08-12T16:11:28Z</time>
      </trkpt>
      <trkpt lat="41.711146" lon="0.44641">
        <ele>295.4</ele>
        <time>2020-08-12T16:11:41Z</time>
      </trkpt>
      <trkpt lat="41.712144" lon="0.444391">
        <ele>294.2</ele>
        <time>2020-08-12T16:11:49Z</time>
      </trkpt>
      <trkpt lat="41.712779" lon="0.443006">
        <ele>295.6</ele>
        <time>2020-08-12T16:11:54Z</time>
      </trkpt>
      <trkpt lat="41.713384" lon="0.441607">
        <ele>291.6</ele>
        <time>2020-08-12T16:11:59Z</time>
      </trkpt>
      <trkpt lat="41.71396" lon="0.440188">
        <ele>289.2</ele>
        <time>2020-08-12T16:12:04Z</time>
      </trkpt>
      <trkpt lat="41.714641" lon="0.438379">
        <ele>290.0</ele>
        <time>2020-08-12T16:12:11Z</time>
      </trkpt>
      <trkpt lat="41.715513" lon="0.435806">
        <ele>296.0</ele>
        <time>2020-08-12T16:12:20Z</time>
      </trkpt>
      <trkpt lat="41.716204" lon="0.433561">
        <ele>297.4</ele>
        <time>2020-08-12T16:12:28Z</time>
      </trkpt>
      <trkpt lat="41.716572" lon="0.43245">
        <ele>294.0</ele>
        <time>2020-08-12T16:12:32Z</time>
      </trkpt>
      <trkpt lat="41.716913" lon="0.431532">
        <ele>295.0</ele>
        <time>2020-08-12T16:12:35Z</time>
      </trkpt>
      <trkpt lat="41.717428" lon="0.430306">
        <ele>295.4</ele>
        <time>2020-08-12T16:12:40Z</time>
      </trkpt>
      <trkpt lat="41.717749" lon="0.429623">
        <ele>295.4</ele>
        <time>2020-08-12T16:12:42Z</time>
      </trkpt>
      <trkpt lat="41.718091" lon="0.428952">
        <ele>294.4</ele>
        <time>2020-08-12T16:12:45Z</time>
      </trkpt>
      <trkpt lat="41.718446" lon="0.428304">
        <ele>281.4</ele>
        <time>2020-08-12T16:12:47Z</time>
      </trkpt>
      <trkpt lat="41.718825" lon="0.427666">
        <ele>281.4</ele>
        <time>2020-08-12T16:12:50Z</time>
      </trkpt>
      <trkpt lat="41.719213" lon="0.427055">
        <ele>271.4</ele>
        <time>2020-08-12T16:12:53Z</time>
      </trkpt>
      <trkpt lat="41.719622" lon="0.426455">
        <ele>263.6</ele>
        <time>2020-08-12T16:12:55Z</time>
      </trkpt>
      <trkpt lat="41.720045" lon="0.425878">
        <ele>261.6</ele>
        <time>2020-08-12T16:12:58Z</time>
      </trkpt>
      <trkpt lat="41.720045" lon="0.425878">
        <ele>261.6</ele>
        <time>2020-08-12T16:12:58Z</time>
      </trkpt>
      <trkpt lat="41.720793" lon="0.424948">
        <ele>252.6</ele>
        <time>2020-08-12T16:13:02Z</time>
      </trkpt>
      <trkpt lat="41.721649" lon="0.424013">
        <ele>245.6</ele>
        <time>2020-08-12T16:13:07Z</time>
      </trkpt>
      <trkpt lat="41.722383" lon="0.423305">
        <ele>239.8</ele>
        <time>2020-08-12T16:13:11Z</time>
      </trkpt>
      <trkpt lat="41.722892" lon="0.422855">
        <ele>238.0</ele>
        <time>2020-08-12T16:13:13Z</time>
      </trkpt>
      <trkpt lat="41.723665" lon="0.422242">
        <ele>236.6</ele>
        <time>2020-08-12T16:13:17Z</time>
      </trkpt>
      <trkpt lat="41.724203" lon="0.421853">
        <ele>238.4</ele>
        <time>2020-08-12T16:13:19Z</time>
      </trkpt>
      <trkpt lat="41.724722" lon="0.421512">
        <ele>236.6</ele>
        <time>2020-08-12T16:13:22Z</time>
      </trkpt>
      <trkpt lat="41.725726" lon="0.42093">
        <ele>236.6</ele>
        <time>2020-08-12T16:13:26Z</time>
      </trkpt>
      <trkpt lat="41.726288" lon="0.420649">
        <ele>232.8</ele>
        <time>2020-08-12T16:13:29Z</time>
      </trkpt>
      <trkpt lat="41.727124" lon="0.420282">
        <ele>228.6</ele>
        <time>2020-08-12T16:13:33Z</time>
      </trkpt>
      <trkpt lat="41.727552" lon="0.42012">
        <ele>226.6</ele>
        <time>2020-08-12T16:13:34Z</time>
      </trkpt>
      <trkpt lat="41.728345" lon="0.419862">
        <ele>224.4</ele>
        <time>2020-08-12T16:13:38Z</time>
      </trkpt>
      <trkpt lat="41.729353" lon="0.419606">
        <ele>223.2</ele>
        <time>2020-08-12T16:13:42Z</time>
      </trkpt>
      <trkpt lat="41.731916" lon="0.41909">
        <ele>219.6</ele>
        <time>2020-08-12T16:13:53Z</time>
      </trkpt>
      <trkpt lat="41.732644" lon="0.418919">
        <ele>218.4</ele>
        <time>2020-08-12T16:13:56Z</time>
      </trkpt>
      <trkpt lat="41.733693" lon="0.418621">
        <ele>217.4</ele>
        <time>2020-08-12T16:14:01Z</time>
      </trkpt>
      <trkpt lat="41.73492" lon="0.418182">
        <ele>216.4</ele>
        <time>2020-08-12T16:14:06Z</time>
      </trkpt>
      <trkpt lat="41.735982" lon="0.417711">
        <ele>211.8</ele>
        <time>2020-08-12T16:14:11Z</time>
      </trkpt>
      <trkpt lat="41.736687" lon="0.417355">
        <ele>209.2</ele>
        <time>2020-08-12T16:14:14Z</time>
      </trkpt>
      <trkpt lat="41.737519" lon="0.416884">
        <ele>207.4</ele>
        <time>2020-08-12T16:14:18Z</time>
      </trkpt>
      <trkpt lat="41.738337" lon="0.416368">
        <ele>204.8</ele>
        <time>2020-08-12T16:14:21Z</time>
      </trkpt>
      <trkpt lat="41.739407" lon="0.415604">
        <ele>203.0</ele>
        <time>2020-08-12T16:14:26Z</time>
      </trkpt>
      <trkpt lat="41.740057" lon="0.415099">
        <ele>202.8</ele>
        <time>2020-08-12T16:14:30Z</time>
      </trkpt>
      <trkpt lat="41.741222" lon="0.414059">
        <ele>200.6</ele>
        <time>2020-08-12T16:14:35Z</time>
      </trkpt>
      <trkpt lat="41.742087" lon="0.413193">
        <ele>199.2</ele>
        <time>2020-08-12T16:14:40Z</time>
      </trkpt>
      <trkpt lat="41.743014" lon="0.412166">
        <ele>198.0</ele>
        <time>2020-08-12T16:14:45Z</time>
      </trkpt>
      <trkpt lat="41.744544" lon="0.410352">
        <ele>198.0</ele>
        <time>2020-08-12T16:14:54Z</time>
      </trkpt>
      <trkpt lat="41.745258" lon="0.409533">
        <ele>199.0</ele>
        <time>2020-08-12T16:14:57Z</time>
      </trkpt>
      <trkpt lat="41.746033" lon="0.408717">
        <ele>198.4</ele>
        <time>2020-08-12T16:15:02Z</time>
      </trkpt>
      <trkpt lat="41.746504" lon="0.408266">
        <ele>198.4</ele>
        <time>2020-08-12T16:15:04Z</time>
      </trkpt>
      <trkpt lat="41.747433" lon="0.407459">
        <ele>199.6</ele>
        <time>2020-08-12T16:15:09Z</time>
      </trkpt>
      <trkpt lat="41.748093" lon="0.406948">
        <ele>200.6</ele>
        <time>2020-08-12T16:15:12Z</time>
      </trkpt>
      <trkpt lat="41.748509" lon="0.406646">
        <ele>199.6</ele>
        <time>2020-08-12T16:15:14Z</time>
      </trkpt>
      <trkpt lat="41.750716" lon="0.405135">
        <ele>194.2</ele>
        <time>2020-08-12T16:15:24Z</time>
      </trkpt>
      <trkpt lat="41.751379" lon="0.404639">
        <ele>194.0</ele>
        <time>2020-08-12T16:15:27Z</time>
      </trkpt>
      <trkpt lat="41.751947" lon="0.40418">
        <ele>193.8</ele>
        <time>2020-08-12T16:15:30Z</time>
      </trkpt>
      <trkpt lat="41.752626" lon="0.40357">
        <ele>194.4</ele>
        <time>2020-08-12T16:15:34Z</time>
      </trkpt>
      <trkpt lat="41.753796" lon="0.402361">
        <ele>192.4</ele>
        <time>2020-08-12T16:15:40Z</time>
      </trkpt>
      <trkpt lat="41.754626" lon="0.401363">
        <ele>191.8</ele>
        <time>2020-08-12T16:15:44Z</time>
      </trkpt>
      <trkpt lat="41.75507" lon="0.400784">
        <ele>192.0</ele>
        <time>2020-08-12T16:15:47Z</time>
      </trkpt>
      <trkpt lat="41.766544" lon="0.385113">
        <ele>200.6</ele>
        <time>2020-08-12T16:16:56Z</time>
      </trkpt>
      <trkpt lat="41.767821" lon="0.383302">
        <ele>203.4</ele>
        <time>2020-08-12T16:17:03Z</time>
      </trkpt>
      <trkpt lat="41.768712" lon="0.381925">
        <ele>204.2</ele>
        <time>2020-08-12T16:17:09Z</time>
      </trkpt>
      <trkpt lat="41.769437" lon="0.380696">
        <ele>204.2</ele>
        <time>2020-08-12T16:17:14Z</time>
      </trkpt>
      <trkpt lat="41.770163" lon="0.379365">
        <ele>204.4</ele>
        <time>2020-08-12T16:17:19Z</time>
      </trkpt>
      <trkpt lat="41.77068" lon="0.378334">
        <ele>204.4</ele>
        <time>2020-08-12T16:17:23Z</time>
      </trkpt>
      <trkpt lat="41.771331" lon="0.376924">
        <ele>205.4</ele>
        <time>2020-08-12T16:17:28Z</time>
      </trkpt>
      <trkpt lat="41.771789" lon="0.375844">
        <ele>206.4</ele>
        <time>2020-08-12T16:17:32Z</time>
      </trkpt>
      <trkpt lat="41.77222" lon="0.374745">
        <ele>207.2</ele>
        <time>2020-08-12T16:17:36Z</time>
      </trkpt>
      <trkpt lat="41.77263" lon="0.373637">
        <ele>208.0</ele>
        <time>2020-08-12T16:17:40Z</time>
      </trkpt>
      <trkpt lat="41.773549" lon="0.371014">
        <ele>213.6</ele>
        <time>2020-08-12T16:17:49Z</time>
      </trkpt>
      <trkpt lat="41.773959" lon="0.369898">
        <ele>215.4</ele>
        <time>2020-08-12T16:17:53Z</time>
      </trkpt>
      <trkpt lat="41.774313" lon="0.369043">
        <ele>215.8</ele>
        <time>2020-08-12T16:17:56Z</time>
      </trkpt>
      <trkpt lat="41.774717" lon="0.36818">
        <ele>216.2</ele>
        <time>2020-08-12T16:17:59Z</time>
      </trkpt>
      <trkpt lat="41.775106" lon="0.36744">
        <ele>217.2</ele>
        <time>2020-08-12T16:18:02Z</time>
      </trkpt>
      <trkpt lat="41.775578" lon="0.366639">
        <ele>216.2</ele>
        <time>2020-08-12T16:18:05Z</time>
      </trkpt>
      <trkpt lat="41.776081" lon="0.365876">
        <ele>217.8</ele>
        <time>2020-08-12T16:18:08Z</time>
      </trkpt>
      <trkpt lat="41.776508" lon="0.365294">
        <ele>217.4</ele>
        <time>2020-08-12T16:18:11Z</time>
      </trkpt>
      <trkpt lat="41.777183" lon="0.364471">
        <ele>218.2</ele>
        <time>2020-08-12T16:18:14Z</time>
      </trkpt>
      <trkpt lat="41.777776" lon="0.363835">
        <ele>218.0</ele>
        <time>2020-08-12T16:18:18Z</time>
      </trkpt>
      <trkpt lat="41.778399" lon="0.36324">
        <ele>219.6</ele>
        <time>2020-08-12T16:18:21Z</time>
      </trkpt>
      <trkpt lat="41.779044" lon="0.362695">
        <ele>219.6</ele>
        <time>2020-08-12T16:18:24Z</time>
      </trkpt>
      <trkpt lat="41.779575" lon="0.362298">
        <ele>221.4</ele>
        <time>2020-08-12T16:18:27Z</time>
      </trkpt>
      <trkpt lat="41.780116" lon="0.361933">
        <ele>222.4</ele>
        <time>2020-08-12T16:18:29Z</time>
      </trkpt>
      <trkpt lat="41.780675" lon="0.361597">
        <ele>222.8</ele>
        <time>2020-08-12T16:18:32Z</time>
      </trkpt>
      <trkpt lat="41.782971" lon="0.360388">
        <ele>221.8</ele>
        <time>2020-08-12T16:18:42Z</time>
      </trkpt>
      <trkpt lat="41.783543" lon="0.360065">
        <ele>220.2</ele>
        <time>2020-08-12T16:18:45Z</time>
      </trkpt>
      <trkpt lat="41.784107" lon="0.359714">
        <ele>222.2</ele>
        <time>2020-08-12T16:18:47Z</time>
      </trkpt>
      <trkpt lat="41.784801" lon="0.359231">
        <ele>220.4</ele>
        <time>2020-08-12T16:18:50Z</time>
      </trkpt>
      <trkpt lat="41.785341" lon="0.358814">
        <ele>219.6</ele>
        <time>2020-08-12T16:18:53Z</time>
      </trkpt>
      <trkpt lat="41.785868" lon="0.358368">
        <ele>219.0</ele>
        <time>2020-08-12T16:18:56Z</time>
      </trkpt>
      <trkpt lat="41.786383" lon="0.357894">
        <ele>220.4</ele>
        <time>2020-08-12T16:18:58Z</time>
      </trkpt>
      <trkpt lat="41.786892" lon="0.357386">
        <ele>222.6</ele>
        <time>2020-08-12T16:19:01Z</time>
      </trkpt>
      <trkpt lat="41.787601" lon="0.356599">
        <ele>224.2</ele>
        <time>2020-08-12T16:19:05Z</time>
      </trkpt>
      <trkpt lat="41.788062" lon="0.356035">
        <ele>224.2</ele>
        <time>2020-08-12T16:19:07Z</time>
      </trkpt>
      <trkpt lat="41.788504" lon="0.355449">
        <ele>226.0</ele>
        <time>2020-08-12T16:19:10Z</time>
      </trkpt>
      <trkpt lat="41.788928" lon="0.354842">
        <ele>227.0</ele>
        <time>2020-08-12T16:19:13Z</time>
      </trkpt>
      <trkpt lat="41.789337" lon="0.354213">
        <ele>228.4</ele>
        <time>2020-08-12T16:19:15Z</time>
      </trkpt>
      <trkpt lat="41.794838" lon="0.345198">
        <ele>234.8</ele>
        <time>2020-08-12T16:19:52Z</time>
      </trkpt>
      <trkpt lat="41.801357" lon="0.334475">
        <ele>232.2</ele>
        <time>2020-08-12T16:20:35Z</time>
      </trkpt>
      <trkpt lat="41.802084" lon="0.333252">
        <ele>238.8</ele>
        <time>2020-08-12T16:20:40Z</time>
      </trkpt>
      <trkpt lat="41.802356" lon="0.332749">
        <ele>238.8</ele>
        <time>2020-08-12T16:20:42Z</time>
      </trkpt>
      <trkpt lat="41.80277" lon="0.33188">
        <ele>239.2</ele>
        <time>2020-08-12T16:20:45Z</time>
      </trkpt>
      <trkpt lat="41.803207" lon="0.330793">
        <ele>243.6</ele>
        <time>2020-08-12T16:20:49Z</time>
      </trkpt>
      <trkpt lat="41.803864" lon="0.328931">
        <ele>243.8</ele>
        <time>2020-08-12T16:20:55Z</time>
      </trkpt>
      <trkpt lat="41.80414" lon="0.328215">
        <ele>243.2</ele>
        <time>2020-08-12T16:20:58Z</time>
      </trkpt>
      <trkpt lat="41.804522" lon="0.327358">
        <ele>238.6</ele>
        <time>2020-08-12T16:21:01Z</time>
      </trkpt>
      <trkpt lat="41.804947" lon="0.326537">
        <ele>238.6</ele>
        <time>2020-08-12T16:21:04Z</time>
      </trkpt>
      <trkpt lat="41.805513" lon="0.325607">
        <ele>235.8</ele>
        <time>2020-08-12T16:21:08Z</time>
      </trkpt>
      <trkpt lat="41.806066" lon="0.324835">
        <ele>234.6</ele>
        <time>2020-08-12T16:21:11Z</time>
      </trkpt>
      <trkpt lat="41.806487" lon="0.324316">
        <ele>234.6</ele>
        <time>2020-08-12T16:21:13Z</time>
      </trkpt>
      <trkpt lat="41.807187" lon="0.323564">
        <ele>238.0</ele>
        <time>2020-08-12T16:21:17Z</time>
      </trkpt>
      <trkpt lat="41.807804" lon="0.323003">
        <ele>242.4</ele>
        <time>2020-08-12T16:21:20Z</time>
      </trkpt>
      <trkpt lat="41.808449" lon="0.322496">
        <ele>243.6</ele>
        <time>2020-08-12T16:21:23Z</time>
      </trkpt>
      <trkpt lat="41.808852" lon="0.32222">
        <ele>243.6</ele>
        <time>2020-08-12T16:21:25Z</time>
      </trkpt>
      <trkpt lat="41.809258" lon="0.321971">
        <ele>244.4</ele>
        <time>2020-08-12T16:21:27Z</time>
      </trkpt>
      <trkpt lat="41.810096" lon="0.321532">
        <ele>242.4</ele>
        <time>2020-08-12T16:21:31Z</time>
      </trkpt>
      <trkpt lat="41.814695" lon="0.319414">
        <ele>242.6</ele>
        <time>2020-08-12T16:21:51Z</time>
      </trkpt>
      <trkpt lat="41.815553" lon="0.318984">
        <ele>241.6</ele>
        <time>2020-08-12T16:21:55Z</time>
      </trkpt>
      <trkpt lat="41.816402" lon="0.318532">
        <ele>242.2</ele>
        <time>2020-08-12T16:21:59Z</time>
      </trkpt>
      <trkpt lat="41.817667" lon="0.317807">
        <ele>243.4</ele>
        <time>2020-08-12T16:22:05Z</time>
      </trkpt>
      <trkpt lat="41.819208" lon="0.31684">
        <ele>244.4</ele>
        <time>2020-08-12T16:22:12Z</time>
      </trkpt>
      <trkpt lat="41.820429" lon="0.316005">
        <ele>245.0</ele>
        <time>2020-08-12T16:22:17Z</time>
      </trkpt>
      <trkpt lat="41.821629" lon="0.315121">
        <ele>247.4</ele>
        <time>2020-08-12T16:22:23Z</time>
      </trkpt>
      <trkpt lat="41.82281" lon="0.314189">
        <ele>248.6</ele>
        <time>2020-08-12T16:22:29Z</time>
      </trkpt>
      <trkpt lat="41.823966" lon="0.31321">
        <ele>249.6</ele>
        <time>2020-08-12T16:22:35Z</time>
      </trkpt>
      <trkpt lat="41.83378" lon="0.304647">
        <ele>262.8</ele>
        <time>2020-08-12T16:23:24Z</time>
      </trkpt>
      <trkpt lat="41.834413" lon="0.304064">
        <ele>265.0</ele>
        <time>2020-08-12T16:23:27Z</time>
      </trkpt>
      <trkpt lat="41.835018" lon="0.303416">
        <ele>264.0</ele>
        <time>2020-08-12T16:23:30Z</time>
      </trkpt>
      <trkpt lat="41.83547" lon="0.302851">
        <ele>265.8</ele>
        <time>2020-08-12T16:23:33Z</time>
      </trkpt>
      <trkpt lat="41.835995" lon="0.302086">
        <ele>265.8</ele>
        <time>2020-08-12T16:23:36Z</time>
      </trkpt>
      <trkpt lat="41.836468" lon="0.301267">
        <ele>266.6</ele>
        <time>2020-08-12T16:23:39Z</time>
      </trkpt>
      <trkpt lat="41.836807" lon="0.300577">
        <ele>269.2</ele>
        <time>2020-08-12T16:23:42Z</time>
      </trkpt>
      <trkpt lat="41.837178" lon="0.299675">
        <ele>271.0</ele>
        <time>2020-08-12T16:23:45Z</time>
      </trkpt>
      <trkpt lat="41.837434" lon="0.298925">
        <ele>272.4</ele>
        <time>2020-08-12T16:23:47Z</time>
      </trkpt>
      <trkpt lat="41.837755" lon="0.297772">
        <ele>272.2</ele>
        <time>2020-08-12T16:23:51Z</time>
      </trkpt>
      <trkpt lat="41.838462" lon="0.295034">
        <ele>275.4</ele>
        <time>2020-08-12T16:24:00Z</time>
      </trkpt>
      <trkpt lat="41.838682" lon="0.294286">
        <ele>276.2</ele>
        <time>2020-08-12T16:24:03Z</time>
      </trkpt>
      <trkpt lat="41.838932" lon="0.293561">
        <ele>276.6</ele>
        <time>2020-08-12T16:24:05Z</time>
      </trkpt>
      <trkpt lat="41.83921" lon="0.292863">
        <ele>278.8</ele>
        <time>2020-08-12T16:24:08Z</time>
      </trkpt>
      <trkpt lat="41.839532" lon="0.292155">
        <ele>280.2</ele>
        <time>2020-08-12T16:24:10Z</time>
      </trkpt>
      <trkpt lat="41.839875" lon="0.291494">
        <ele>281.8</ele>
        <time>2020-08-12T16:24:13Z</time>
      </trkpt>
      <trkpt lat="41.84034" lon="0.290715">
        <ele>284.2</ele>
        <time>2020-08-12T16:24:16Z</time>
      </trkpt>
      <trkpt lat="41.840767" lon="0.290086">
        <ele>284.2</ele>
        <time>2020-08-12T16:24:19Z</time>
      </trkpt>
      <trkpt lat="41.841072" lon="0.289684">
        <ele>285.6</ele>
        <time>2020-08-12T16:24:20Z</time>
      </trkpt>
      <trkpt lat="41.841687" lon="0.288962">
        <ele>285.2</ele>
        <time>2020-08-12T16:24:24Z</time>
      </trkpt>
      <trkpt lat="41.842416" lon="0.288241">
        <ele>286.2</ele>
        <time>2020-08-12T16:24:28Z</time>
      </trkpt>
      <trkpt lat="41.842704" lon="0.287991">
        <ele>285.8</ele>
        <time>2020-08-12T16:24:29Z</time>
      </trkpt>
      <trkpt lat="41.843071" lon="0.287699">
        <ele>285.8</ele>
        <time>2020-08-12T16:24:31Z</time>
      </trkpt>
      <trkpt lat="41.843744" lon="0.28723">
        <ele>286.8</ele>
        <time>2020-08-12T16:24:34Z</time>
      </trkpt>
      <trkpt lat="41.845239" lon="0.286348">
        <ele>288.0</ele>
        <time>2020-08-12T16:24:41Z</time>
      </trkpt>
      <trkpt lat="41.853148" lon="0.281768">
        <ele>293.6</ele>
        <time>2020-08-12T16:25:17Z</time>
      </trkpt>
      <trkpt lat="41.854267" lon="0.28111">
        <ele>292.6</ele>
        <time>2020-08-12T16:25:22Z</time>
      </trkpt>
      <trkpt lat="41.854824" lon="0.28075">
        <ele>293.6</ele>
        <time>2020-08-12T16:25:25Z</time>
      </trkpt>
      <trkpt lat="41.855366" lon="0.28035">
        <ele>294.6</ele>
        <time>2020-08-12T16:25:27Z</time>
      </trkpt>
      <trkpt lat="41.855758" lon="0.280019">
        <ele>294.6</ele>
        <time>2020-08-12T16:25:29Z</time>
      </trkpt>
      <trkpt lat="41.856265" lon="0.279535">
        <ele>297.2</ele>
        <time>2020-08-12T16:25:32Z</time>
      </trkpt>
      <trkpt lat="41.856747" lon="0.27901">
        <ele>299.8</ele>
        <time>2020-08-12T16:25:34Z</time>
      </trkpt>
      <trkpt lat="41.857202" lon="0.278444">
        <ele>299.8</ele>
        <time>2020-08-12T16:25:37Z</time>
      </trkpt>
      <trkpt lat="41.85773" lon="0.277683">
        <ele>300.6</ele>
        <time>2020-08-12T16:25:40Z</time>
      </trkpt>
      <trkpt lat="41.858024" lon="0.277201">
        <ele>301.4</ele>
        <time>2020-08-12T16:25:42Z</time>
      </trkpt>
      <trkpt lat="41.863151" lon="0.267818">
        <ele>329.4</ele>
        <time>2020-08-12T16:26:18Z</time>
      </trkpt>
      <trkpt lat="41.863984" lon="0.266375">
        <ele>328.6</ele>
        <time>2020-08-12T16:26:24Z</time>
      </trkpt>
      <trkpt lat="41.864852" lon="0.264962">
        <ele>331.4</ele>
        <time>2020-08-12T16:26:30Z</time>
      </trkpt>
      <trkpt lat="41.874687" lon="0.249633">
        <ele>352.8</ele>
        <time>2020-08-12T16:27:33Z</time>
      </trkpt>
      <trkpt lat="41.875911" lon="0.247823">
        <ele>343.6</ele>
        <time>2020-08-12T16:27:41Z</time>
      </trkpt>
      <trkpt lat="41.883911" lon="0.236582">
        <ele>333.8</ele>
        <time>2020-08-12T16:28:29Z</time>
      </trkpt>
      <trkpt lat="41.884563" lon="0.235704">
        <ele>333.0</ele>
        <time>2020-08-12T16:28:33Z</time>
      </trkpt>
      <trkpt lat="41.885018" lon="0.235166">
        <ele>330.6</ele>
        <time>2020-08-12T16:28:35Z</time>
      </trkpt>
      <trkpt lat="41.885307" lon="0.234856">
        <ele>330.0</ele>
        <time>2020-08-12T16:28:37Z</time>
      </trkpt>
      <trkpt lat="41.886072" lon="0.234145">
        <ele>323.4</ele>
        <time>2020-08-12T16:28:41Z</time>
      </trkpt>
      <trkpt lat="41.886336" lon="0.233932">
        <ele>323.4</ele>
        <time>2020-08-12T16:28:42Z</time>
      </trkpt>
      <trkpt lat="41.887181" lon="0.233342">
        <ele>317.8</ele>
        <time>2020-08-12T16:28:46Z</time>
      </trkpt>
      <trkpt lat="41.887437" lon="0.233192">
        <ele>316.6</ele>
        <time>2020-08-12T16:28:47Z</time>
      </trkpt>
      <trkpt lat="41.888284" lon="0.232763">
        <ele>313.4</ele>
        <time>2020-08-12T16:28:51Z</time>
      </trkpt>
      <trkpt lat="41.892969" lon="0.230679">
        <ele>312.6</ele>
        <time>2020-08-12T16:29:12Z</time>
      </trkpt>
      <trkpt lat="41.8935" lon="0.230398">
        <ele>313.0</ele>
        <time>2020-08-12T16:29:14Z</time>
      </trkpt>
      <trkpt lat="41.893931" lon="0.230132">
        <ele>313.0</ele>
        <time>2020-08-12T16:29:16Z</time>
      </trkpt>
      <trkpt lat="41.894349" lon="0.22984">
        <ele>313.4</ele>
        <time>2020-08-12T16:29:18Z</time>
      </trkpt>
      <trkpt lat="41.894885" lon="0.229404">
        <ele>313.4</ele>
        <time>2020-08-12T16:29:21Z</time>
      </trkpt>
      <trkpt lat="41.896144" lon="0.228224">
        <ele>311.2</ele>
        <time>2020-08-12T16:29:27Z</time>
      </trkpt>
      <trkpt lat="41.89678" lon="0.227692">
        <ele>309.2</ele>
        <time>2020-08-12T16:29:30Z</time>
      </trkpt>
      <trkpt lat="41.897452" lon="0.227246">
        <ele>309.0</ele>
        <time>2020-08-12T16:29:33Z</time>
      </trkpt>
      <trkpt lat="41.897867" lon="0.227023">
        <ele>307.8</ele>
        <time>2020-08-12T16:29:35Z</time>
      </trkpt>
      <trkpt lat="41.898298" lon="0.226831">
        <ele>307.8</ele>
        <time>2020-08-12T16:29:37Z</time>
      </trkpt>
      <trkpt lat="41.898731" lon="0.226675">
        <ele>307.6</ele>
        <time>2020-08-12T16:29:39Z</time>
      </trkpt>
      <trkpt lat="41.899171" lon="0.226554">
        <ele>307.8</ele>
        <time>2020-08-12T16:29:41Z</time>
      </trkpt>
      <trkpt lat="41.899769" lon="0.226447">
        <ele>307.8</ele>
        <time>2020-08-12T16:29:43Z</time>
      </trkpt>
      <trkpt lat="41.900068" lon="0.226418">
        <ele>309.8</ele>
        <time>2020-08-12T16:29:45Z</time>
      </trkpt>
      <trkpt lat="41.900583" lon="0.226401">
        <ele>309.8</ele>
        <time>2020-08-12T16:29:47Z</time>
      </trkpt>
      <trkpt lat="41.901746" lon="0.226446">
        <ele>315.0</ele>
        <time>2020-08-12T16:29:52Z</time>
      </trkpt>
      <trkpt lat="41.902214" lon="0.226446">
        <ele>315.0</ele>
        <time>2020-08-12T16:29:54Z</time>
      </trkpt>
      <trkpt lat="41.902683" lon="0.226419">
        <ele>316.8</ele>
        <time>2020-08-12T16:29:56Z</time>
      </trkpt>
      <trkpt lat="41.903154" lon="0.226359">
        <ele>316.8</ele>
        <time>2020-08-12T16:29:58Z</time>
      </trkpt>
      <trkpt lat="41.903773" lon="0.226229">
        <ele>319.4</ele>
        <time>2020-08-12T16:30:00Z</time>
      </trkpt>
      <trkpt lat="41.904385" lon="0.226043">
        <ele>321.6</ele>
        <time>2020-08-12T16:30:03Z</time>
      </trkpt>
      <trkpt lat="41.904838" lon="0.225866">
        <ele>321.6</ele>
        <time>2020-08-12T16:30:05Z</time>
      </trkpt>
      <trkpt lat="41.90543" lon="0.225581">
        <ele>323.4</ele>
        <time>2020-08-12T16:30:07Z</time>
      </trkpt>
      <trkpt lat="41.906437" lon="0.225001">
        <ele>326.8</ele>
        <time>2020-08-12T16:30:12Z</time>
      </trkpt>
      <trkpt lat="41.907262" lon="0.224493">
        <ele>327.8</ele>
        <time>2020-08-12T16:30:16Z</time>
      </trkpt>
      <trkpt lat="41.908089" lon="0.223953">
        <ele>325.0</ele>
        <time>2020-08-12T16:30:20Z</time>
      </trkpt>
      <trkpt lat="41.908904" lon="0.223387">
        <ele>317.8</ele>
        <time>2020-08-12T16:30:24Z</time>
      </trkpt>
      <trkpt lat="41.909465" lon="0.222961">
        <ele>310.6</ele>
        <time>2020-08-12T16:30:26Z</time>
      </trkpt>
      <trkpt lat="41.910258" lon="0.222298">
        <ele>305.4</ele>
        <time>2020-08-12T16:30:30Z</time>
      </trkpt>
      <trkpt lat="41.910767" lon="0.221829">
        <ele>305.4</ele>
        <time>2020-08-12T16:30:33Z</time>
      </trkpt>
      <trkpt lat="41.911514" lon="0.221079">
        <ele>297.8</ele>
        <time>2020-08-12T16:30:37Z</time>
      </trkpt>
      <trkpt lat="41.913353" lon="0.219002">
        <ele>289.2</ele>
        <time>2020-08-12T16:30:47Z</time>
      </trkpt>
      <trkpt lat="41.914238" lon="0.218128">
        <ele>299.8</ele>
        <time>2020-08-12T16:30:51Z</time>
      </trkpt>
      <trkpt lat="41.915003" lon="0.217426">
        <ele>304.8</ele>
        <time>2020-08-12T16:30:55Z</time>
      </trkpt>
      <trkpt lat="41.915797" lon="0.216781">
        <ele>304.8</ele>
        <time>2020-08-12T16:30:59Z</time>
      </trkpt>
      <trkpt lat="41.916338" lon="0.21639">
        <ele>309.0</ele>
        <time>2020-08-12T16:31:02Z</time>
      </trkpt>
      <trkpt lat="41.917175" lon="0.215851">
        <ele>319.2</ele>
        <time>2020-08-12T16:31:06Z</time>
      </trkpt>
      <trkpt lat="41.917745" lon="0.215529">
        <ele>329.8</ele>
        <time>2020-08-12T16:31:08Z</time>
      </trkpt>
      <trkpt lat="41.918253" lon="0.215268">
        <ele>329.8</ele>
        <time>2020-08-12T16:31:10Z</time>
      </trkpt>
      <trkpt lat="41.918856" lon="0.214992">
        <ele>336.8</ele>
        <time>2020-08-12T16:31:13Z</time>
      </trkpt>
      <trkpt lat="41.919293" lon="0.214815">
        <ele>330.2</ele>
        <time>2020-08-12T16:31:15Z</time>
      </trkpt>
      <trkpt lat="41.928383" lon="0.21145">
        <ele>299.8</ele>
        <time>2020-08-12T16:31:55Z</time>
      </trkpt>
      <trkpt lat="41.930854" lon="0.210523">
        <ele>318.0</ele>
        <time>2020-08-12T16:32:05Z</time>
      </trkpt>
      <trkpt lat="41.931448" lon="0.210258">
        <ele>318.0</ele>
        <time>2020-08-12T16:32:08Z</time>
      </trkpt>
      <trkpt lat="41.932032" lon="0.209949">
        <ele>319.6</ele>
        <time>2020-08-12T16:32:11Z</time>
      </trkpt>
      <trkpt lat="41.932598" lon="0.209598">
        <ele>320.6</ele>
        <time>2020-08-12T16:32:13Z</time>
      </trkpt>
      <trkpt lat="41.933146" lon="0.209206">
        <ele>320.6</ele>
        <time>2020-08-12T16:32:16Z</time>
      </trkpt>
      <trkpt lat="41.93342" lon="0.208989">
        <ele>318.6</ele>
        <time>2020-08-12T16:32:17Z</time>
      </trkpt>
      <trkpt lat="41.933944" lon="0.208531">
        <ele>318.6</ele>
        <time>2020-08-12T16:32:20Z</time>
      </trkpt>
      <trkpt lat="41.934447" lon="0.208035">
        <ele>321.4</ele>
        <time>2020-08-12T16:32:22Z</time>
      </trkpt>
      <trkpt lat="41.934929" lon="0.2075">
        <ele>322.2</ele>
        <time>2020-08-12T16:32:26Z</time>
      </trkpt>
      <trkpt lat="41.934929" lon="0.2075">
        <ele>322.2</ele>
        <time>2020-08-12T16:32:26Z</time>
      </trkpt>
      <trkpt lat="41.935163" lon="0.207216">
        <ele>321.4</ele>
        <time>2020-08-12T16:32:27Z</time>
      </trkpt>
      <trkpt lat="41.935607" lon="0.206627">
        <ele>322.8</ele>
        <time>2020-08-12T16:32:30Z</time>
      </trkpt>
      <trkpt lat="41.935925" lon="0.206163">
        <ele>314.6</ele>
        <time>2020-08-12T16:32:32Z</time>
      </trkpt>
      <trkpt lat="41.936625" lon="0.205059">
        <ele>315.4</ele>
        <time>2020-08-12T16:32:36Z</time>
      </trkpt>
      <trkpt lat="41.941145" lon="0.197768">
        <ele>301.0</ele>
        <time>2020-08-12T16:33:06Z</time>
      </trkpt>
      <trkpt lat="41.941752" lon="0.196857">
        <ele>304.8</ele>
        <time>2020-08-12T16:33:10Z</time>
      </trkpt>
      <trkpt lat="41.942183" lon="0.196287">
        <ele>301.6</ele>
        <time>2020-08-12T16:33:12Z</time>
      </trkpt>
      <trkpt lat="41.942636" lon="0.19575">
        <ele>303.8</ele>
        <time>2020-08-12T16:33:15Z</time>
      </trkpt>
      <trkpt lat="41.943355" lon="0.195009">
        <ele>310.2</ele>
        <time>2020-08-12T16:33:18Z</time>
      </trkpt>
      <trkpt lat="41.948345" lon="0.190425">
        <ele>310.2</ele>
        <time>2020-08-12T16:33:44Z</time>
      </trkpt>
      <trkpt lat="41.949714" lon="0.189082">
        <ele>309.4</ele>
        <time>2020-08-12T16:33:51Z</time>
      </trkpt>
      <trkpt lat="41.950591" lon="0.188102">
        <ele>309.2</ele>
        <time>2020-08-12T16:33:56Z</time>
      </trkpt>
      <trkpt lat="41.951265" lon="0.187271">
        <ele>309.4</ele>
        <time>2020-08-12T16:33:59Z</time>
      </trkpt>
      <trkpt lat="41.952088" lon="0.18615">
        <ele>309.8</ele>
        <time>2020-08-12T16:34:04Z</time>
      </trkpt>
      <trkpt lat="41.952701" lon="0.185221">
        <ele>310.4</ele>
        <time>2020-08-12T16:34:08Z</time>
      </trkpt>
      <trkpt lat="41.953095" lon="0.184589">
        <ele>309.2</ele>
        <time>2020-08-12T16:34:11Z</time>
      </trkpt>
      <trkpt lat="41.953671" lon="0.183616">
        <ele>309.6</ele>
        <time>2020-08-12T16:34:15Z</time>
      </trkpt>
      <trkpt lat="41.956035" lon="0.179533">
        <ele>274.8</ele>
        <time>2020-08-12T16:34:31Z</time>
      </trkpt>
      <trkpt lat="41.959433" lon="0.17365">
        <ele>278.8</ele>
        <time>2020-08-12T16:34:54Z</time>
      </trkpt>
      <trkpt lat="41.960073" lon="0.172485">
        <ele>279.0</ele>
        <time>2020-08-12T16:34:58Z</time>
      </trkpt>
      <trkpt lat="41.960606" lon="0.171467">
        <ele>281.0</ele>
        <time>2020-08-12T16:35:02Z</time>
      </trkpt>
      <trkpt lat="41.961293" lon="0.170087">
        <ele>281.4</ele>
        <time>2020-08-12T16:35:07Z</time>
      </trkpt>
      <trkpt lat="41.962113" lon="0.168326">
        <ele>289.0</ele>
        <time>2020-08-12T16:35:14Z</time>
      </trkpt>
      <trkpt lat="41.962584" lon="0.16725">
        <ele>289.2</ele>
        <time>2020-08-12T16:35:18Z</time>
      </trkpt>
      <trkpt lat="41.963786" lon="0.164372">
        <ele>311.4</ele>
        <time>2020-08-12T16:35:28Z</time>
      </trkpt>
      <trkpt lat="41.964665" lon="0.162442">
        <ele>312.8</ele>
        <time>2020-08-12T16:35:35Z</time>
      </trkpt>
      <trkpt lat="41.965165" lon="0.161409">
        <ele>304.6</ele>
        <time>2020-08-12T16:35:39Z</time>
      </trkpt>
      <trkpt lat="41.965684" lon="0.160388">
        <ele>310.4</ele>
        <time>2020-08-12T16:35:43Z</time>
      </trkpt>
      <trkpt lat="41.968486" lon="0.15506">
        <ele>337.4</ele>
        <time>2020-08-12T16:36:03Z</time>
      </trkpt>
      <trkpt lat="41.974464" lon="0.143713">
        <ele>370.6</ele>
        <time>2020-08-12T16:36:46Z</time>
      </trkpt>
      <trkpt lat="41.975012" lon="0.142714">
        <ele>369.8</ele>
        <time>2020-08-12T16:36:50Z</time>
      </trkpt>
      <trkpt lat="41.975389" lon="0.14207">
        <ele>372.6</ele>
        <time>2020-08-12T16:36:53Z</time>
      </trkpt>
      <trkpt lat="41.97599" lon="0.141132">
        <ele>370.2</ele>
        <time>2020-08-12T16:36:57Z</time>
      </trkpt>
      <trkpt lat="41.976408" lon="0.14053">
        <ele>370.8</ele>
        <time>2020-08-12T16:36:59Z</time>
      </trkpt>
      <trkpt lat="41.977062" lon="0.139665">
        <ele>370.4</ele>
        <time>2020-08-12T16:37:03Z</time>
      </trkpt>
      <trkpt lat="41.979792" lon="0.136292">
        <ele>388.0</ele>
        <time>2020-08-12T16:37:19Z</time>
      </trkpt>
      <trkpt lat="41.980897" lon="0.134832">
        <ele>388.2</ele>
        <time>2020-08-12T16:37:25Z</time>
      </trkpt>
      <trkpt lat="41.981539" lon="0.133925">
        <ele>390.6</ele>
        <time>2020-08-12T16:37:29Z</time>
      </trkpt>
      <trkpt lat="41.982163" lon="0.132993">
        <ele>392.4</ele>
        <time>2020-08-12T16:37:33Z</time>
      </trkpt>
      <trkpt lat="41.982767" lon="0.13204">
        <ele>393.4</ele>
        <time>2020-08-12T16:37:37Z</time>
      </trkpt>
      <trkpt lat="41.983349" lon="0.131071">
        <ele>394.0</ele>
        <time>2020-08-12T16:37:41Z</time>
      </trkpt>
      <trkpt lat="41.983916" lon="0.130073">
        <ele>395.4</ele>
        <time>2020-08-12T16:37:45Z</time>
      </trkpt>
      <trkpt lat="41.984459" lon="0.129057">
        <ele>396.4</ele>
        <time>2020-08-12T16:37:49Z</time>
      </trkpt>
      <trkpt lat="41.984981" lon="0.128024">
        <ele>397.8</ele>
        <time>2020-08-12T16:37:52Z</time>
      </trkpt>
      <trkpt lat="41.985726" lon="0.126438">
        <ele>396.6</ele>
        <time>2020-08-12T16:37:58Z</time>
      </trkpt>
      <trkpt lat="41.986346" lon="0.124994">
        <ele>395.0</ele>
        <time>2020-08-12T16:38:03Z</time>
      </trkpt>
      <trkpt lat="41.986786" lon="0.123893">
        <ele>393.6</ele>
        <time>2020-08-12T16:38:07Z</time>
      </trkpt>
      <trkpt lat="41.987204" lon="0.122774">
        <ele>393.8</ele>
        <time>2020-08-12T16:38:11Z</time>
      </trkpt>
      <trkpt lat="41.987859" lon="0.120853">
        <ele>392.6</ele>
        <time>2020-08-12T16:38:18Z</time>
      </trkpt>
      <trkpt lat="41.988374" lon="0.119138">
        <ele>392.2</ele>
        <time>2020-08-12T16:38:24Z</time>
      </trkpt>
      <trkpt lat="41.988798" lon="0.11757">
        <ele>392.2</ele>
        <time>2020-08-12T16:38:29Z</time>
      </trkpt>
      <trkpt lat="41.989947" lon="0.11284">
        <ele>396.8</ele>
        <time>2020-08-12T16:38:44Z</time>
      </trkpt>
      <trkpt lat="41.990238" lon="0.111903">
        <ele>395.6</ele>
        <time>2020-08-12T16:38:47Z</time>
      </trkpt>
      <trkpt lat="41.990513" lon="0.111176">
        <ele>397.6</ele>
        <time>2020-08-12T16:38:50Z</time>
      </trkpt>
      <trkpt lat="41.990744" lon="0.110648">
        <ele>399.6</ele>
        <time>2020-08-12T16:38:52Z</time>
      </trkpt>
      <trkpt lat="41.991084" lon="0.10997">
        <ele>399.8</ele>
        <time>2020-08-12T16:38:54Z</time>
      </trkpt>
      <trkpt lat="41.991359" lon="0.109483">
        <ele>399.8</ele>
        <time>2020-08-12T16:38:56Z</time>
      </trkpt>
      <trkpt lat="41.991756" lon="0.108865">
        <ele>398.0</ele>
        <time>2020-08-12T16:38:59Z</time>
      </trkpt>
      <trkpt lat="41.992072" lon="0.108428">
        <ele>398.0</ele>
        <time>2020-08-12T16:39:01Z</time>
      </trkpt>
      <trkpt lat="41.992521" lon="0.107877">
        <ele>397.4</ele>
        <time>2020-08-12T16:39:03Z</time>
      </trkpt>
      <trkpt lat="41.992997" lon="0.107367">
        <ele>398.6</ele>
        <time>2020-08-12T16:39:06Z</time>
      </trkpt>
      <trkpt lat="41.994504" lon="0.105918">
        <ele>397.4</ele>
        <time>2020-08-12T16:39:14Z</time>
      </trkpt>
      <trkpt lat="41.995" lon="0.105412">
        <ele>399.0</ele>
        <time>2020-08-12T16:39:16Z</time>
      </trkpt>
      <trkpt lat="41.995484" lon="0.104882">
        <ele>401.6</ele>
        <time>2020-08-12T16:39:19Z</time>
      </trkpt>
      <trkpt lat="41.996181" lon="0.104041">
        <ele>402.0</ele>
        <time>2020-08-12T16:39:23Z</time>
      </trkpt>
      <trkpt lat="41.996842" lon="0.103147">
        <ele>402.4</ele>
        <time>2020-08-12T16:39:27Z</time>
      </trkpt>
      <trkpt lat="41.99726" lon="0.102526">
        <ele>402.4</ele>
        <time>2020-08-12T16:39:29Z</time>
      </trkpt>
      <trkpt lat="41.997716" lon="0.101786">
        <ele>403.6</ele>
        <time>2020-08-12T16:39:32Z</time>
      </trkpt>
      <trkpt lat="41.998228" lon="0.100867">
        <ele>404.2</ele>
        <time>2020-08-12T16:39:36Z</time>
      </trkpt>
      <trkpt lat="41.998621" lon="0.10009">
        <ele>404.2</ele>
        <time>2020-08-12T16:39:39Z</time>
      </trkpt>
      <trkpt lat="41.998944" lon="0.099394">
        <ele>407.6</ele>
        <time>2020-08-12T16:39:41Z</time>
      </trkpt>
      <trkpt lat="41.999396" lon="0.098303">
        <ele>412.4</ele>
        <time>2020-08-12T16:39:45Z</time>
      </trkpt>
      <trkpt lat="41.999928" lon="0.096802">
        <ele>414.6</ele>
        <time>2020-08-12T16:39:50Z</time>
      </trkpt>
      <trkpt lat="42.000869" lon="0.093805">
        <ele>412.4</ele>
        <time>2020-08-12T16:40:00Z</time>
      </trkpt>
      <trkpt lat="42.001155" lon="0.092987">
        <ele>413.8</ele>
        <time>2020-08-12T16:40:03Z</time>
      </trkpt>
      <trkpt lat="42.001439" lon="0.092249">
        <ele>415.2</ele>
        <time>2020-08-12T16:40:06Z</time>
      </trkpt>
      <trkpt lat="42.001743" lon="0.091531">
        <ele>418.8</ele>
        <time>2020-08-12T16:40:08Z</time>
      </trkpt>
      <trkpt lat="42.002242" lon="0.090466">
        <ele>422.8</ele>
        <time>2020-08-12T16:40:12Z</time>
      </trkpt>
      <trkpt lat="42.002526" lon="0.089919">
        <ele>422.6</ele>
        <time>2020-08-12T16:40:14Z</time>
      </trkpt>
      <trkpt lat="42.003067" lon="0.088969">
        <ele>424.8</ele>
        <time>2020-08-12T16:40:18Z</time>
      </trkpt>
      <trkpt lat="42.0038" lon="0.087834">
        <ele>422.8</ele>
        <time>2020-08-12T16:40:23Z</time>
      </trkpt>
      <trkpt lat="42.004224" lon="0.08724">
        <ele>425.6</ele>
        <time>2020-08-12T16:40:25Z</time>
      </trkpt>
      <trkpt lat="42.005991" lon="0.084913">
        <ele>429.2</ele>
        <time>2020-08-12T16:40:36Z</time>
      </trkpt>
      <trkpt lat="42.006634" lon="0.084001">
        <ele>431.8</ele>
        <time>2020-08-12T16:40:40Z</time>
      </trkpt>
      <trkpt lat="42.007044" lon="0.083371">
        <ele>424.2</ele>
        <time>2020-08-12T16:40:42Z</time>
      </trkpt>
      <trkpt lat="42.007437" lon="0.082724">
        <ele>426.0</ele>
        <time>2020-08-12T16:40:45Z</time>
      </trkpt>
      <trkpt lat="42.007814" lon="0.082054">
        <ele>425.4</ele>
        <time>2020-08-12T16:40:47Z</time>
      </trkpt>
      <trkpt lat="42.008347" lon="0.08102">
        <ele>426.6</ele>
        <time>2020-08-12T16:40:51Z</time>
      </trkpt>
      <trkpt lat="42.008679" lon="0.080316">
        <ele>429.0</ele>
        <time>2020-08-12T16:40:54Z</time>
      </trkpt>
      <trkpt lat="42.008993" lon="0.079588">
        <ele>431.0</ele>
        <time>2020-08-12T16:40:57Z</time>
      </trkpt>
      <trkpt lat="42.009288" lon="0.07885">
        <ele>430.8</ele>
        <time>2020-08-12T16:40:59Z</time>
      </trkpt>
      <trkpt lat="42.009564" lon="0.078098">
        <ele>432.8</ele>
        <time>2020-08-12T16:41:02Z</time>
      </trkpt>
      <trkpt lat="42.009945" lon="0.076952">
        <ele>434.8</ele>
        <time>2020-08-12T16:41:06Z</time>
      </trkpt>
      <trkpt lat="42.010758" lon="0.074255">
        <ele>440.8</ele>
        <time>2020-08-12T16:41:15Z</time>
      </trkpt>
      <trkpt lat="42.011116" lon="0.073116">
        <ele>440.2</ele>
        <time>2020-08-12T16:41:19Z</time>
      </trkpt>
      <trkpt lat="42.011635" lon="0.071621">
        <ele>443.0</ele>
        <time>2020-08-12T16:41:24Z</time>
      </trkpt>
      <trkpt lat="42.012065" lon="0.070525">
        <ele>438.4</ele>
        <time>2020-08-12T16:41:28Z</time>
      </trkpt>
      <trkpt lat="42.012608" lon="0.069277">
        <ele>436.0</ele>
        <time>2020-08-12T16:41:32Z</time>
      </trkpt>
      <trkpt lat="42.01328" lon="0.0679">
        <ele>440.8</ele>
        <time>2020-08-12T16:41:37Z</time>
      </trkpt>
      <trkpt lat="42.014008" lon="0.066573">
        <ele>440.6</ele>
        <time>2020-08-12T16:41:42Z</time>
      </trkpt>
      <trkpt lat="42.01479" lon="0.0653">
        <ele>439.0</ele>
        <time>2020-08-12T16:41:47Z</time>
      </trkpt>
      <trkpt lat="42.015623" lon="0.064085">
        <ele>436.6</ele>
        <time>2020-08-12T16:41:53Z</time>
      </trkpt>
      <trkpt lat="42.016057" lon="0.063503">
        <ele>431.8</ele>
        <time>2020-08-12T16:41:55Z</time>
      </trkpt>
      <trkpt lat="42.016731" lon="0.062658">
        <ele>430.6</ele>
        <time>2020-08-12T16:41:59Z</time>
      </trkpt>
      <trkpt lat="42.017202" lon="0.062106">
        <ele>432.2</ele>
        <time>2020-08-12T16:42:02Z</time>
      </trkpt>
      <trkpt lat="42.017933" lon="0.061312">
        <ele>434.0</ele>
        <time>2020-08-12T16:42:06Z</time>
      </trkpt>
      <trkpt lat="42.018941" lon="0.06032">
        <ele>436.2</ele>
        <time>2020-08-12T16:42:11Z</time>
      </trkpt>
      <trkpt lat="42.019458" lon="0.059853">
        <ele>435.8</ele>
        <time>2020-08-12T16:42:13Z</time>
      </trkpt>
      <trkpt lat="42.020171" lon="0.059256">
        <ele>435.2</ele>
        <time>2020-08-12T16:42:17Z</time>
      </trkpt>
      <trkpt lat="42.021213" lon="0.058468">
        <ele>437.0</ele>
        <time>2020-08-12T16:42:22Z</time>
      </trkpt>
      <trkpt lat="42.022043" lon="0.057903">
        <ele>439.6</ele>
        <time>2020-08-12T16:42:26Z</time>
      </trkpt>
      <trkpt lat="42.022599" lon="0.057548">
        <ele>441.6</ele>
        <time>2020-08-12T16:42:28Z</time>
      </trkpt>
      <trkpt lat="42.024917" lon="0.056133">
        <ele>444.2</ele>
        <time>2020-08-12T16:42:39Z</time>
      </trkpt>
      <trkpt lat="42.025757" lon="0.055534">
        <ele>447.0</ele>
        <time>2020-08-12T16:42:43Z</time>
      </trkpt>
      <trkpt lat="42.026565" lon="0.054852">
        <ele>450.4</ele>
        <time>2020-08-12T16:42:47Z</time>
      </trkpt>
      <trkpt lat="42.026828" lon="0.054607">
        <ele>452.8</ele>
        <time>2020-08-12T16:42:48Z</time>
      </trkpt>
      <trkpt lat="42.027458" lon="0.053966">
        <ele>453.6</ele>
        <time>2020-08-12T16:42:52Z</time>
      </trkpt>
      <trkpt lat="42.028063" lon="0.053273">
        <ele>456.6</ele>
        <time>2020-08-12T16:42:55Z</time>
      </trkpt>
      <trkpt lat="42.028518" lon="0.052693">
        <ele>458.0</ele>
        <time>2020-08-12T16:42:58Z</time>
      </trkpt>
      <trkpt lat="42.029225" lon="0.051674">
        <ele>455.8</ele>
        <time>2020-08-12T16:43:02Z</time>
      </trkpt>
      <trkpt lat="42.029774" lon="0.05076">
        <ele>450.2</ele>
        <time>2020-08-12T16:43:06Z</time>
      </trkpt>
      <trkpt lat="42.030151" lon="0.050058">
        <ele>451.0</ele>
        <time>2020-08-12T16:43:09Z</time>
      </trkpt>
      <trkpt lat="42.030151" lon="0.050058">
        <ele>451.0</ele>
        <time>2020-08-12T16:43:09Z</time>
      </trkpt>
      <trkpt lat="42.030493" lon="0.049359">
        <ele>449.4</ele>
        <time>2020-08-12T16:43:12Z</time>
      </trkpt>
      <trkpt lat="42.030815" lon="0.048639">
        <ele>447.0</ele>
        <time>2020-08-12T16:43:14Z</time>
      </trkpt>
      <trkpt lat="42.031117" lon="0.047899">
        <ele>447.8</ele>
        <time>2020-08-12T16:43:17Z</time>
      </trkpt>
      <trkpt lat="42.031397" lon="0.047157">
        <ele>449.0</ele>
        <time>2020-08-12T16:43:20Z</time>
      </trkpt>
      <trkpt lat="42.031776" lon="0.046007">
        <ele>455.6</ele>
        <time>2020-08-12T16:43:24Z</time>
      </trkpt>
      <trkpt lat="42.032" lon="0.045227">
        <ele>458.2</ele>
        <time>2020-08-12T16:43:26Z</time>
      </trkpt>
      <trkpt lat="42.032296" lon="0.044036">
        <ele>461.0</ele>
        <time>2020-08-12T16:43:30Z</time>
      </trkpt>
      <trkpt lat="42.032464" lon="0.043231">
        <ele>461.4</ele>
        <time>2020-08-12T16:43:33Z</time>
      </trkpt>
      <trkpt lat="42.032609" lon="0.042421">
        <ele>456.0</ele>
        <time>2020-08-12T16:43:35Z</time>
      </trkpt>
      <trkpt lat="42.033164" lon="0.038752">
        <ele>442.6</ele>
        <time>2020-08-12T16:43:47Z</time>
      </trkpt>
      <trkpt lat="42.033394" lon="0.037558">
        <ele>437.4</ele>
        <time>2020-08-12T16:43:51Z</time>
      </trkpt>
      <trkpt lat="42.033576" lon="0.036775">
        <ele>436.2</ele>
        <time>2020-08-12T16:43:53Z</time>
      </trkpt>
      <trkpt lat="42.033888" lon="0.035611">
        <ele>438.2</ele>
        <time>2020-08-12T16:43:57Z</time>
      </trkpt>
      <trkpt lat="42.034123" lon="0.034853">
        <ele>441.2</ele>
        <time>2020-08-12T16:44:00Z</time>
      </trkpt>
      <trkpt lat="42.034516" lon="0.033739">
        <ele>435.8</ele>
        <time>2020-08-12T16:44:04Z</time>
      </trkpt>
      <trkpt lat="42.034805" lon="0.033014">
        <ele>435.2</ele>
        <time>2020-08-12T16:44:06Z</time>
      </trkpt>
      <trkpt lat="42.035276" lon="0.031953">
        <ele>431.2</ele>
        <time>2020-08-12T16:44:10Z</time>
      </trkpt>
      <trkpt lat="42.035791" lon="0.030929">
        <ele>428.0</ele>
        <time>2020-08-12T16:44:14Z</time>
      </trkpt>
      <trkpt lat="42.036351" lon="0.029947">
        <ele>422.4</ele>
        <time>2020-08-12T16:44:18Z</time>
      </trkpt>
      <trkpt lat="42.036947" lon="0.029008">
        <ele>417.8</ele>
        <time>2020-08-12T16:44:21Z</time>
      </trkpt>
      <trkpt lat="42.037371" lon="0.02841">
        <ele>417.8</ele>
        <time>2020-08-12T16:44:24Z</time>
      </trkpt>
      <trkpt lat="42.037806" lon="0.027836">
        <ele>410.0</ele>
        <time>2020-08-12T16:44:27Z</time>
      </trkpt>
      <trkpt lat="42.039644" lon="0.025611">
        <ele>402.0</ele>
        <time>2020-08-12T16:44:37Z</time>
      </trkpt>
      <trkpt lat="42.040093" lon="0.02504">
        <ele>402.6</ele>
        <time>2020-08-12T16:44:40Z</time>
      </trkpt>
      <trkpt lat="42.040533" lon="0.024441">
        <ele>397.2</ele>
        <time>2020-08-12T16:44:42Z</time>
      </trkpt>
      <trkpt lat="42.041157" lon="0.023507">
        <ele>396.2</ele>
        <time>2020-08-12T16:44:46Z</time>
      </trkpt>
      <trkpt lat="42.04155" lon="0.022857">
        <ele>400.0</ele>
        <time>2020-08-12T16:44:49Z</time>
      </trkpt>
      <trkpt lat="42.042106" lon="0.021845">
        <ele>402.8</ele>
        <time>2020-08-12T16:44:53Z</time>
      </trkpt>
      <trkpt lat="42.042451" lon="0.021149">
        <ele>410.0</ele>
        <time>2020-08-12T16:44:55Z</time>
      </trkpt>
      <trkpt lat="42.042777" lon="0.020434">
        <ele>415.2</ele>
        <time>2020-08-12T16:44:58Z</time>
      </trkpt>
      <trkpt lat="42.043226" lon="0.019331">
        <ele>422.8</ele>
        <time>2020-08-12T16:45:02Z</time>
      </trkpt>
      <trkpt lat="42.043629" lon="0.0182">
        <ele>425.6</ele>
        <time>2020-08-12T16:45:06Z</time>
      </trkpt>
      <trkpt lat="42.04486" lon="0.014398">
        <ele>434.8</ele>
        <time>2020-08-12T16:45:19Z</time>
      </trkpt>
      <trkpt lat="42.045639" lon="0.012138">
        <ele>443.2</ele>
        <time>2020-08-12T16:45:26Z</time>
      </trkpt>
      <trkpt lat="42.046728" lon="0.009164">
        <ele>436.0</ele>
        <time>2020-08-12T16:45:37Z</time>
      </trkpt>
      <trkpt lat="42.048164" lon="0.005484">
        <ele>429.8</ele>
        <time>2020-08-12T16:45:50Z</time>
      </trkpt>
      <trkpt lat="42.048429" lon="0.004714">
        <ele>419.6</ele>
        <time>2020-08-12T16:45:52Z</time>
      </trkpt>
      <trkpt lat="42.048664" lon="0.003893">
        <ele>422.4</ele>
        <time>2020-08-12T16:45:55Z</time>
      </trkpt>
      <trkpt lat="42.048855" lon="0.003098">
        <ele>428.0</ele>
        <time>2020-08-12T16:45:58Z</time>
      </trkpt>
      <trkpt lat="42.049073" lon="0.001898">
        <ele>435.2</ele>
        <time>2020-08-12T16:46:01Z</time>
      </trkpt>
      <trkpt lat="42.049215" lon="0.000656">
        <ele>421.75</ele>
        <time>2020-08-12T16:46:05Z</time>
      </trkpt>
      <trkpt lat="42.049268" lon="-0.000175">
        <ele>414.5</ele>
        <time>2020-08-12T16:46:08Z</time>
      </trkpt>
      <trkpt lat="42.04928" lon="-0.000595">
        <ele>414.5</ele>
        <time>2020-08-12T16:46:09Z</time>
      </trkpt>
      <trkpt lat="42.049278" lon="-0.001434">
        <ele>407.2</ele>
        <time>2020-08-12T16:46:12Z</time>
      </trkpt>
      <trkpt lat="42.049242" lon="-0.002266">
        <ele>401.6</ele>
        <time>2020-08-12T16:46:14Z</time>
      </trkpt>
      <trkpt lat="42.049208" lon="-0.002684">
        <ele>397.8</ele>
        <time>2020-08-12T16:46:16Z</time>
      </trkpt>
      <trkpt lat="42.049117" lon="-0.003519">
        <ele>394.0</ele>
        <time>2020-08-12T16:46:18Z</time>
      </trkpt>
      <trkpt lat="42.048991" lon="-0.004338">
        <ele>392.0</ele>
        <time>2020-08-12T16:46:21Z</time>
      </trkpt>
      <trkpt lat="42.048546" lon="-0.006886">
        <ele>399.8</ele>
        <time>2020-08-12T16:46:29Z</time>
      </trkpt>
      <trkpt lat="42.048358" lon="-0.008306">
        <ele>403.2</ele>
        <time>2020-08-12T16:46:34Z</time>
      </trkpt>
      <trkpt lat="42.048228" lon="-0.009515">
        <ele>400.4</ele>
        <time>2020-08-12T16:46:37Z</time>
      </trkpt>
      <trkpt lat="42.048142" lon="-0.010765">
        <ele>401.0</ele>
        <time>2020-08-12T16:46:41Z</time>
      </trkpt>
      <trkpt lat="42.048101" lon="-0.011996">
        <ele>407.4</ele>
        <time>2020-08-12T16:46:45Z</time>
      </trkpt>
      <trkpt lat="42.048105" lon="-0.01322">
        <ele>413.6</ele>
        <time>2020-08-12T16:46:49Z</time>
      </trkpt>
      <trkpt lat="42.048153" lon="-0.014443">
        <ele>417.4</ele>
        <time>2020-08-12T16:46:53Z</time>
      </trkpt>
      <trkpt lat="42.048247" lon="-0.015653">
        <ele>415.8</ele>
        <time>2020-08-12T16:46:57Z</time>
      </trkpt>
      <trkpt lat="42.048414" lon="-0.017106">
        <ele>416.4</ele>
        <time>2020-08-12T16:47:01Z</time>
      </trkpt>
      <trkpt lat="42.048499" lon="-0.017694">
        <ele>418.2</ele>
        <time>2020-08-12T16:47:03Z</time>
      </trkpt>
      <trkpt lat="42.048633" lon="-0.018529">
        <ele>421.8</ele>
        <time>2020-08-12T16:47:06Z</time>
      </trkpt>
      <trkpt lat="42.048969" lon="-0.020342">
        <ele>421.6</ele>
        <time>2020-08-12T16:47:11Z</time>
      </trkpt>
      <trkpt lat="42.049225" lon="-0.021534">
        <ele>425.0</ele>
        <time>2020-08-12T16:47:15Z</time>
      </trkpt>
      <trkpt lat="42.049659" lon="-0.023306">
        <ele>429.6</ele>
        <time>2020-08-12T16:47:21Z</time>
      </trkpt>
      <trkpt lat="42.049977" lon="-0.024472">
        <ele>435.0</ele>
        <time>2020-08-12T16:47:25Z</time>
      </trkpt>
      <trkpt lat="42.05015" lon="-0.025049">
        <ele>442.2</ele>
        <time>2020-08-12T16:47:27Z</time>
      </trkpt>
      <trkpt lat="42.050698" lon="-0.026769">
        <ele>453.2</ele>
        <time>2020-08-12T16:47:33Z</time>
      </trkpt>
      <trkpt lat="42.051234" lon="-0.028267">
        <ele>464.4</ele>
        <time>2020-08-12T16:47:38Z</time>
      </trkpt>
      <trkpt lat="42.051809" lon="-0.02973">
        <ele>482.4</ele>
        <time>2020-08-12T16:47:43Z</time>
      </trkpt>
      <trkpt lat="42.052344" lon="-0.030999">
        <ele>478.8</ele>
        <time>2020-08-12T16:47:48Z</time>
      </trkpt>
      <trkpt lat="42.053759" lon="-0.034236">
        <ele>479.2</ele>
        <time>2020-08-12T16:47:59Z</time>
      </trkpt>
      <trkpt lat="42.05421" lon="-0.035336">
        <ele>483.8</ele>
        <time>2020-08-12T16:48:03Z</time>
      </trkpt>
      <trkpt lat="42.054644" lon="-0.03645">
        <ele>481.0</ele>
        <time>2020-08-12T16:48:07Z</time>
      </trkpt>
      <trkpt lat="42.055195" lon="-0.037947">
        <ele>481.4</ele>
        <time>2020-08-12T16:48:12Z</time>
      </trkpt>
      <trkpt lat="42.055589" lon="-0.039084">
        <ele>483.0</ele>
        <time>2020-08-12T16:48:16Z</time>
      </trkpt>
      <trkpt lat="42.055963" lon="-0.040233">
        <ele>486.4</ele>
        <time>2020-08-12T16:48:20Z</time>
      </trkpt>
      <trkpt lat="42.056792" lon="-0.042925">
        <ele>491.0</ele>
        <time>2020-08-12T16:48:29Z</time>
      </trkpt>
      <trkpt lat="42.057421" lon="-0.044821">
        <ele>497.4</ele>
        <time>2020-08-12T16:48:36Z</time>
      </trkpt>
      <trkpt lat="42.057977" lon="-0.046293">
        <ele>501.2</ele>
        <time>2020-08-12T16:48:41Z</time>
      </trkpt>
      <trkpt lat="42.058276" lon="-0.047019">
        <ele>503.4</ele>
        <time>2020-08-12T16:48:43Z</time>
      </trkpt>
      <trkpt lat="42.058747" lon="-0.048087">
        <ele>507.4</ele>
        <time>2020-08-12T16:48:47Z</time>
      </trkpt>
      <trkpt lat="42.059418" lon="-0.049469">
        <ele>512.8</ele>
        <time>2020-08-12T16:48:52Z</time>
      </trkpt>
      <trkpt lat="42.059955" lon="-0.05048">
        <ele>514.8</ele>
        <time>2020-08-12T16:48:56Z</time>
      </trkpt>
      <trkpt lat="42.06052" lon="-0.051463">
        <ele>513.6</ele>
        <time>2020-08-12T16:49:00Z</time>
      </trkpt>
      <trkpt lat="42.061211" lon="-0.052576">
        <ele>515.6</ele>
        <time>2020-08-12T16:49:05Z</time>
      </trkpt>
      <trkpt lat="42.061831" lon="-0.053499">
        <ele>515.6</ele>
        <time>2020-08-12T16:49:08Z</time>
      </trkpt>
      <trkpt lat="42.062696" lon="-0.05468">
        <ele>520.6</ele>
        <time>2020-08-12T16:49:14Z</time>
      </trkpt>
      <trkpt lat="42.063602" lon="-0.055802">
        <ele>522.2</ele>
        <time>2020-08-12T16:49:19Z</time>
      </trkpt>
      <trkpt lat="42.064589" lon="-0.0569">
        <ele>527.2</ele>
        <time>2020-08-12T16:49:24Z</time>
      </trkpt>
      <trkpt lat="42.065208" lon="-0.057515">
        <ele>528.4</ele>
        <time>2020-08-12T16:49:27Z</time>
      </trkpt>
      <trkpt lat="42.065714" lon="-0.057978">
        <ele>528.4</ele>
        <time>2020-08-12T16:49:30Z</time>
      </trkpt>
      <trkpt lat="42.066187" lon="-0.058381">
        <ele>529.2</ele>
        <time>2020-08-12T16:49:32Z</time>
      </trkpt>
      <trkpt lat="42.06697" lon="-0.058988">
        <ele>530.4</ele>
        <time>2020-08-12T16:49:36Z</time>
      </trkpt>
      <trkpt lat="42.067758" lon="-0.059533">
        <ele>530.4</ele>
        <time>2020-08-12T16:49:40Z</time>
      </trkpt>
      <trkpt lat="42.068383" lon="-0.059916">
        <ele>532.0</ele>
        <time>2020-08-12T16:49:43Z</time>
      </trkpt>
      <trkpt lat="42.068887" lon="-0.0602">
        <ele>529.4</ele>
        <time>2020-08-12T16:49:45Z</time>
      </trkpt>
      <trkpt lat="42.069453" lon="-0.06049">
        <ele>530.4</ele>
        <time>2020-08-12T16:49:47Z</time>
      </trkpt>
      <trkpt lat="42.071908" lon="-0.061618">
        <ele>525.2</ele>
        <time>2020-08-12T16:49:58Z</time>
      </trkpt>
      <trkpt lat="42.072483" lon="-0.061906">
        <ele>524.6</ele>
        <time>2020-08-12T16:50:01Z</time>
      </trkpt>
      <trkpt lat="42.073056" lon="-0.062223">
        <ele>522.2</ele>
        <time>2020-08-12T16:50:03Z</time>
      </trkpt>
      <trkpt lat="42.073616" lon="-0.062565">
        <ele>518.8</ele>
        <time>2020-08-12T16:50:06Z</time>
      </trkpt>
      <trkpt lat="42.074438" lon="-0.063134">
        <ele>517.0</ele>
        <time>2020-08-12T16:50:10Z</time>
      </trkpt>
      <trkpt lat="42.074973" lon="-0.063547">
        <ele>515.6</ele>
        <time>2020-08-12T16:50:12Z</time>
      </trkpt>
      <trkpt lat="42.075752" lon="-0.064218">
        <ele>513.4</ele>
        <time>2020-08-12T16:50:16Z</time>
      </trkpt>
      <trkpt lat="42.076258" lon="-0.064702">
        <ele>515.0</ele>
        <time>2020-08-12T16:50:19Z</time>
      </trkpt>
      <trkpt lat="42.076747" lon="-0.065205">
        <ele>516.0</ele>
        <time>2020-08-12T16:50:22Z</time>
      </trkpt>
      <trkpt lat="42.077219" lon="-0.065733">
        <ele>516.0</ele>
        <time>2020-08-12T16:50:24Z</time>
      </trkpt>
      <trkpt lat="42.077679" lon="-0.066289">
        <ele>516.8</ele>
        <time>2020-08-12T16:50:27Z</time>
      </trkpt>
      <trkpt lat="42.078336" lon="-0.067159">
        <ele>517.8</ele>
        <time>2020-08-12T16:50:31Z</time>
      </trkpt>
      <trkpt lat="42.078956" lon="-0.068079">
        <ele>514.6</ele>
        <time>2020-08-12T16:50:34Z</time>
      </trkpt>
      <trkpt lat="42.079346" lon="-0.068717">
        <ele>513.8</ele>
        <time>2020-08-12T16:50:37Z</time>
      </trkpt>
      <trkpt lat="42.0799" lon="-0.069714">
        <ele>511.4</ele>
        <time>2020-08-12T16:50:41Z</time>
      </trkpt>
      <trkpt lat="42.080247" lon="-0.070405">
        <ele>509.0</ele>
        <time>2020-08-12T16:50:43Z</time>
      </trkpt>
      <trkpt lat="42.08057" lon="-0.071104">
        <ele>507.6</ele>
        <time>2020-08-12T16:50:46Z</time>
      </trkpt>
      <trkpt lat="42.080876" lon="-0.071825">
        <ele>507.6</ele>
        <time>2020-08-12T16:50:49Z</time>
      </trkpt>
      <trkpt lat="42.081159" lon="-0.072553">
        <ele>505.0</ele>
        <time>2020-08-12T16:50:51Z</time>
      </trkpt>
      <trkpt lat="42.081422" lon="-0.073304">
        <ele>505.0</ele>
        <time>2020-08-12T16:50:54Z</time>
      </trkpt>
      <trkpt lat="42.081665" lon="-0.07406">
        <ele>503.4</ele>
        <time>2020-08-12T16:50:56Z</time>
      </trkpt>
      <trkpt lat="42.081886" lon="-0.074838">
        <ele>507.2</ele>
        <time>2020-08-12T16:50:59Z</time>
      </trkpt>
      <trkpt lat="42.082084" lon="-0.075622">
        <ele>508.8</ele>
        <time>2020-08-12T16:51:01Z</time>
      </trkpt>
      <trkpt lat="42.082259" lon="-0.076414">
        <ele>512.8</ele>
        <time>2020-08-12T16:51:04Z</time>
      </trkpt>
      <trkpt lat="42.082415" lon="-0.077217">
        <ele>517.2</ele>
        <time>2020-08-12T16:51:07Z</time>
      </trkpt>
      <trkpt lat="42.082545" lon="-0.078028">
        <ele>506.8</ele>
        <time>2020-08-12T16:51:09Z</time>
      </trkpt>
      <trkpt lat="42.082699" lon="-0.079247">
        <ele>501.8</ele>
        <time>2020-08-12T16:51:13Z</time>
      </trkpt>
      <trkpt lat="42.082773" lon="-0.08007">
        <ele>503.6</ele>
        <time>2020-08-12T16:51:16Z</time>
      </trkpt>
      <trkpt lat="42.082823" lon="-0.080891">
        <ele>507.4</ele>
        <time>2020-08-12T16:51:18Z</time>
      </trkpt>
      <trkpt lat="42.082857" lon="-0.082133">
        <ele>510.2</ele>
        <time>2020-08-12T16:51:22Z</time>
      </trkpt>
      <trkpt lat="42.082862" lon="-0.084984">
        <ele>521.8</ele>
        <time>2020-08-12T16:51:31Z</time>
      </trkpt>
      <trkpt lat="42.082898" lon="-0.085798">
        <ele>519.4</ele>
        <time>2020-08-12T16:51:33Z</time>
      </trkpt>
      <trkpt lat="42.082974" lon="-0.086598">
        <ele>512.8</ele>
        <time>2020-08-12T16:51:36Z</time>
      </trkpt>
      <trkpt lat="42.083026" lon="-0.086991">
        <ele>509.0</ele>
        <time>2020-08-12T16:51:37Z</time>
      </trkpt>
      <trkpt lat="42.083162" lon="-0.08778">
        <ele>507.6</ele>
        <time>2020-08-12T16:51:40Z</time>
      </trkpt>
      <trkpt lat="42.083243" lon="-0.088162">
        <ele>507.6</ele>
        <time>2020-08-12T16:51:41Z</time>
      </trkpt>
      <trkpt lat="42.083437" lon="-0.088929">
        <ele>512.8</ele>
        <time>2020-08-12T16:51:43Z</time>
      </trkpt>
      <trkpt lat="42.083667" lon="-0.089669">
        <ele>514.6</ele>
        <time>2020-08-12T16:51:46Z</time>
      </trkpt>
      <trkpt lat="42.083932" lon="-0.090383">
        <ele>518.4</ele>
        <time>2020-08-12T16:51:48Z</time>
      </trkpt>
      <trkpt lat="42.084237" lon="-0.091081">
        <ele>523.6</ele>
        <time>2020-08-12T16:51:51Z</time>
      </trkpt>
      <trkpt lat="42.084577" lon="-0.091753">
        <ele>517.6</ele>
        <time>2020-08-12T16:51:53Z</time>
      </trkpt>
      <trkpt lat="42.084921" lon="-0.092345">
        <ele>517.6</ele>
        <time>2020-08-12T16:51:56Z</time>
      </trkpt>
      <trkpt lat="42.085254" lon="-0.092855">
        <ele>511.6</ele>
        <time>2020-08-12T16:51:58Z</time>
      </trkpt>
      <trkpt lat="42.085528" lon="-0.093231">
        <ele>511.6</ele>
        <time>2020-08-12T16:52:00Z</time>
      </trkpt>
      <trkpt lat="42.085805" lon="-0.093581">
        <ele>503.4</ele>
        <time>2020-08-12T16:52:01Z</time>
      </trkpt>
      <trkpt lat="42.086181" lon="-0.094013">
        <ele>509.4</ele>
        <time>2020-08-12T16:52:03Z</time>
      </trkpt>
      <trkpt lat="42.086465" lon="-0.094307">
        <ele>499.8</ele>
        <time>2020-08-12T16:52:05Z</time>
      </trkpt>
      <trkpt lat="42.086842" lon="-0.094664">
        <ele>502.2</ele>
        <time>2020-08-12T16:52:07Z</time>
      </trkpt>
      <trkpt lat="42.088688" lon="-0.096222">
        <ele>489.0</ele>
        <time>2020-08-12T16:52:16Z</time>
      </trkpt>
      <trkpt lat="42.089151" lon="-0.096662">
        <ele>489.0</ele>
        <time>2020-08-12T16:52:18Z</time>
      </trkpt>
      <trkpt lat="42.08964" lon="-0.097178">
        <ele>484.4</ele>
        <time>2020-08-12T16:52:21Z</time>
      </trkpt>
      <trkpt lat="42.090191" lon="-0.097838">
        <ele>482.6</ele>
        <time>2020-08-12T16:52:24Z</time>
      </trkpt>
      <trkpt lat="42.090763" lon="-0.098623">
        <ele>480.4</ele>
        <time>2020-08-12T16:52:27Z</time>
      </trkpt>
      <trkpt lat="42.091272" lon="-0.099427">
        <ele>478.4</ele>
        <time>2020-08-12T16:52:31Z</time>
      </trkpt>
      <trkpt lat="42.09182" lon="-0.100443">
        <ele>473.8</ele>
        <time>2020-08-12T16:52:35Z</time>
      </trkpt>
      <trkpt lat="42.092152" lon="-0.101155">
        <ele>471.0</ele>
        <time>2020-08-12T16:52:37Z</time>
      </trkpt>
      <trkpt lat="42.092592" lon="-0.102263">
        <ele>465.8</ele>
        <time>2020-08-12T16:52:41Z</time>
      </trkpt>
      <trkpt lat="42.092786" lon="-0.102835">
        <ele>460.6</ele>
        <time>2020-08-12T16:52:43Z</time>
      </trkpt>
      <trkpt lat="42.092965" lon="-0.103422">
        <ele>452.2</ele>
        <time>2020-08-12T16:52:45Z</time>
      </trkpt>
      <trkpt lat="42.094607" lon="-0.10939">
        <ele>418.4</ele>
        <time>2020-08-12T16:53:05Z</time>
      </trkpt>
      <trkpt lat="42.095071" lon="-0.11099">
        <ele>442.8</ele>
        <time>2020-08-12T16:53:10Z</time>
      </trkpt>
      <trkpt lat="42.095527" lon="-0.112747">
        <ele>449.2</ele>
        <time>2020-08-12T16:53:17Z</time>
      </trkpt>
      <trkpt lat="42.095527" lon="-0.112747">
        <ele>449.2</ele>
        <time>2020-08-12T16:53:17Z</time>
      </trkpt>
      <trkpt lat="42.095704" lon="-0.113549">
        <ele>453.8</ele>
        <time>2020-08-12T16:53:20Z</time>
      </trkpt>
      <trkpt lat="42.095895" lon="-0.114568">
        <ele>457.4</ele>
        <time>2020-08-12T16:53:24Z</time>
      </trkpt>
      <trkpt lat="42.096021" lon="-0.115386">
        <ele>459.6</ele>
        <time>2020-08-12T16:53:26Z</time>
      </trkpt>
      <trkpt lat="42.096123" lon="-0.116206">
        <ele>461.2</ele>
        <time>2020-08-12T16:53:29Z</time>
      </trkpt>
      <trkpt lat="42.096202" lon="-0.11704">
        <ele>461.6</ele>
        <time>2020-08-12T16:53:32Z</time>
      </trkpt>
      <trkpt lat="42.096277" lon="-0.118295">
        <ele>461.0</ele>
        <time>2020-08-12T16:53:36Z</time>
      </trkpt>
      <trkpt lat="42.096296" lon="-0.119134">
        <ele>462.0</ele>
        <time>2020-08-12T16:53:39Z</time>
      </trkpt>
      <trkpt lat="42.096292" lon="-0.119963">
        <ele>464.2</ele>
        <time>2020-08-12T16:53:41Z</time>
      </trkpt>
      <trkpt lat="42.096242" lon="-0.121425">
        <ele>468.2</ele>
        <time>2020-08-12T16:53:46Z</time>
      </trkpt>
      <trkpt lat="42.096114" lon="-0.124108">
        <ele>476.2</ele>
        <time>2020-08-12T16:53:55Z</time>
      </trkpt>
      <trkpt lat="42.09609" lon="-0.125752">
        <ele>478.4</ele>
        <time>2020-08-12T16:54:00Z</time>
      </trkpt>
      <trkpt lat="42.096108" lon="-0.126573">
        <ele>478.4</ele>
        <time>2020-08-12T16:54:03Z</time>
      </trkpt>
      <trkpt lat="42.096159" lon="-0.127603">
        <ele>474.8</ele>
        <time>2020-08-12T16:54:06Z</time>
      </trkpt>
      <trkpt lat="42.096316" lon="-0.129446">
        <ele>468.6</ele>
        <time>2020-08-12T16:54:12Z</time>
      </trkpt>
      <trkpt lat="42.097171" lon="-0.137765">
        <ele>487.0</ele>
        <time>2020-08-12T16:54:39Z</time>
      </trkpt>
      <trkpt lat="42.097326" lon="-0.138984">
        <ele>489.6</ele>
        <time>2020-08-12T16:54:43Z</time>
      </trkpt>
      <trkpt lat="42.097515" lon="-0.140198">
        <ele>498.2</ele>
        <time>2020-08-12T16:54:47Z</time>
      </trkpt>
      <trkpt lat="42.097662" lon="-0.141003">
        <ele>501.2</ele>
        <time>2020-08-12T16:54:50Z</time>
      </trkpt>
      <trkpt lat="42.098004" lon="-0.142593">
        <ele>507.6</ele>
        <time>2020-08-12T16:54:55Z</time>
      </trkpt>
      <trkpt lat="42.098147" lon="-0.143176">
        <ele>507.6</ele>
        <time>2020-08-12T16:54:57Z</time>
      </trkpt>
      <trkpt lat="42.098542" lon="-0.144605">
        <ele>512.6</ele>
        <time>2020-08-12T16:55:02Z</time>
      </trkpt>
      <trkpt lat="42.098903" lon="-0.145751">
        <ele>513.6</ele>
        <time>2020-08-12T16:55:06Z</time>
      </trkpt>
      <trkpt lat="42.099296" lon="-0.146869">
        <ele>516.6</ele>
        <time>2020-08-12T16:55:10Z</time>
      </trkpt>
      <trkpt lat="42.09958" lon="-0.147608">
        <ele>518.4</ele>
        <time>2020-08-12T16:55:13Z</time>
      </trkpt>
      <trkpt lat="42.101227" lon="-0.15159">
        <ele>510.2</ele>
        <time>2020-08-12T16:55:28Z</time>
      </trkpt>
      <trkpt lat="42.101511" lon="-0.152328">
        <ele>506.4</ele>
        <time>2020-08-12T16:55:31Z</time>
      </trkpt>
      <trkpt lat="42.102281" lon="-0.154443">
        <ele>499.8</ele>
        <time>2020-08-12T16:55:38Z</time>
      </trkpt>
      <trkpt lat="42.102958" lon="-0.156497">
        <ele>505.0</ele>
        <time>2020-08-12T16:55:46Z</time>
      </trkpt>
      <trkpt lat="42.10331" lon="-0.157654">
        <ele>506.8</ele>
        <time>2020-08-12T16:55:50Z</time>
      </trkpt>
      <trkpt lat="42.103643" lon="-0.158819">
        <ele>512.6</ele>
        <time>2020-08-12T16:55:54Z</time>
      </trkpt>
      <trkpt lat="42.104109" lon="-0.160581">
        <ele>509.8</ele>
        <time>2020-08-12T16:56:00Z</time>
      </trkpt>
      <trkpt lat="42.104535" lon="-0.162362">
        <ele>512.2</ele>
        <time>2020-08-12T16:56:06Z</time>
      </trkpt>
      <trkpt lat="42.104836" lon="-0.163758">
        <ele>512.4</ele>
        <time>2020-08-12T16:56:11Z</time>
      </trkpt>
      <trkpt lat="42.105076" lon="-0.164967">
        <ele>515.2</ele>
        <time>2020-08-12T16:56:15Z</time>
      </trkpt>
      <trkpt lat="42.105296" lon="-0.166176">
        <ele>508.8</ele>
        <time>2020-08-12T16:56:19Z</time>
      </trkpt>
      <trkpt lat="42.105499" lon="-0.167394">
        <ele>505.8</ele>
        <time>2020-08-12T16:56:23Z</time>
      </trkpt>
      <trkpt lat="42.105682" lon="-0.168616">
        <ele>497.2</ele>
        <time>2020-08-12T16:56:27Z</time>
      </trkpt>
      <trkpt lat="42.105855" lon="-0.169911">
        <ele>488.0</ele>
        <time>2020-08-12T16:56:31Z</time>
      </trkpt>
      <trkpt lat="42.106043" lon="-0.171554">
        <ele>486.6</ele>
        <time>2020-08-12T16:56:37Z</time>
      </trkpt>
      <trkpt lat="42.106209" lon="-0.173339">
        <ele>476.2</ele>
        <time>2020-08-12T16:56:42Z</time>
      </trkpt>
      <trkpt lat="42.106521" lon="-0.177663">
        <ele>461.4</ele>
        <time>2020-08-12T16:56:56Z</time>
      </trkpt>
      <trkpt lat="42.106693" lon="-0.179304">
        <ele>461.6</ele>
        <time>2020-08-12T16:57:02Z</time>
      </trkpt>
      <trkpt lat="42.106942" lon="-0.181255">
        <ele>468.8</ele>
        <time>2020-08-12T16:57:08Z</time>
      </trkpt>
      <trkpt lat="42.107194" lon="-0.182756">
        <ele>474.4</ele>
        <time>2020-08-12T16:57:13Z</time>
      </trkpt>
      <trkpt lat="42.107492" lon="-0.184228">
        <ele>477.6</ele>
        <time>2020-08-12T16:57:18Z</time>
      </trkpt>
      <trkpt lat="42.107758" lon="-0.185415">
        <ele>478.0</ele>
        <time>2020-08-12T16:57:22Z</time>
      </trkpt>
      <trkpt lat="42.108788" lon="-0.189748">
        <ele>490.4</ele>
        <time>2020-08-12T16:57:37Z</time>
      </trkpt>
      <trkpt lat="42.109037" lon="-0.190945">
        <ele>495.0</ele>
        <time>2020-08-12T16:57:41Z</time>
      </trkpt>
      <trkpt lat="42.109253" lon="-0.192155">
        <ele>497.6</ele>
        <time>2020-08-12T16:57:45Z</time>
      </trkpt>
      <trkpt lat="42.109443" lon="-0.193501">
        <ele>499.8</ele>
        <time>2020-08-12T16:57:50Z</time>
      </trkpt>
      <trkpt lat="42.109516" lon="-0.194111">
        <ele>499.8</ele>
        <time>2020-08-12T16:57:52Z</time>
      </trkpt>
      <trkpt lat="42.109634" lon="-0.195343">
        <ele>496.6</ele>
        <time>2020-08-12T16:57:56Z</time>
      </trkpt>
      <trkpt lat="42.109714" lon="-0.196578">
        <ele>492.2</ele>
        <time>2020-08-12T16:58:00Z</time>
      </trkpt>
      <trkpt lat="42.109746" lon="-0.197326">
        <ele>488.8</ele>
        <time>2020-08-12T16:58:02Z</time>
      </trkpt>
      <trkpt lat="42.109855" lon="-0.201575">
        <ele>480.2</ele>
        <time>2020-08-12T16:58:16Z</time>
      </trkpt>
      <trkpt lat="42.10994" lon="-0.203217">
        <ele>472.6</ele>
        <time>2020-08-12T16:58:21Z</time>
      </trkpt>
      <trkpt lat="42.110039" lon="-0.204401">
        <ele>469.8</ele>
        <time>2020-08-12T16:58:25Z</time>
      </trkpt>
      <trkpt lat="42.110127" lon="-0.205203">
        <ele>469.0</ele>
        <time>2020-08-12T16:58:28Z</time>
      </trkpt>
      <trkpt lat="42.110272" lon="-0.20627">
        <ele>468.0</ele>
        <time>2020-08-12T16:58:31Z</time>
      </trkpt>
      <trkpt lat="42.110431" lon="-0.207273">
        <ele>468.0</ele>
        <time>2020-08-12T16:58:35Z</time>
      </trkpt>
      <trkpt lat="42.110682" lon="-0.208564">
        <ele>476.0</ele>
        <time>2020-08-12T16:58:39Z</time>
      </trkpt>
      <trkpt lat="42.110881" lon="-0.209467">
        <ele>478.4</ele>
        <time>2020-08-12T16:58:42Z</time>
      </trkpt>
      <trkpt lat="42.111172" lon="-0.210618">
        <ele>483.0</ele>
        <time>2020-08-12T16:58:46Z</time>
      </trkpt>
      <trkpt lat="42.1115" lon="-0.211769">
        <ele>487.0</ele>
        <time>2020-08-12T16:58:50Z</time>
      </trkpt>
      <trkpt lat="42.11212" lon="-0.213663">
        <ele>482.0</ele>
        <time>2020-08-12T16:58:57Z</time>
      </trkpt>
      <trkpt lat="42.113026" lon="-0.216291">
        <ele>488.6</ele>
        <time>2020-08-12T16:59:06Z</time>
      </trkpt>
      <trkpt lat="42.113394" lon="-0.217438">
        <ele>485.6</ele>
        <time>2020-08-12T16:59:10Z</time>
      </trkpt>
      <trkpt lat="42.113725" lon="-0.218611">
        <ele>493.2</ele>
        <time>2020-08-12T16:59:14Z</time>
      </trkpt>
      <trkpt lat="42.114015" lon="-0.219803">
        <ele>496.4</ele>
        <time>2020-08-12T16:59:18Z</time>
      </trkpt>
      <trkpt lat="42.114184" lon="-0.220605">
        <ele>496.4</ele>
        <time>2020-08-12T16:59:21Z</time>
      </trkpt>
      <trkpt lat="42.114372" lon="-0.221619">
        <ele>500.4</ele>
        <time>2020-08-12T16:59:24Z</time>
      </trkpt>
      <trkpt lat="42.114525" lon="-0.22264">
        <ele>510.0</ele>
        <time>2020-08-12T16:59:28Z</time>
      </trkpt>
      <trkpt lat="42.114675" lon="-0.223869">
        <ele>514.0</ele>
        <time>2020-08-12T16:59:32Z</time>
      </trkpt>
      <trkpt lat="42.114805" lon="-0.225533">
        <ele>513.0</ele>
        <time>2020-08-12T16:59:37Z</time>
      </trkpt>
      <trkpt lat="42.11484" lon="-0.226366">
        <ele>512.6</ele>
        <time>2020-08-12T16:59:40Z</time>
      </trkpt>
      <trkpt lat="42.114855" lon="-0.227976">
        <ele>518.0</ele>
        <time>2020-08-12T16:59:45Z</time>
      </trkpt>
      <trkpt lat="42.114802" lon="-0.22949">
        <ele>525.0</ele>
        <time>2020-08-12T16:59:50Z</time>
      </trkpt>
      <trkpt lat="42.114762" lon="-0.230133">
        <ele>523.2</ele>
        <time>2020-08-12T16:59:52Z</time>
      </trkpt>
      <trkpt lat="42.114522" lon="-0.233196">
        <ele>510.0</ele>
        <time>2020-08-12T17:00:02Z</time>
      </trkpt>
      <trkpt lat="42.114454" lon="-0.234227">
        <ele>513.0</ele>
        <time>2020-08-12T17:00:06Z</time>
      </trkpt>
      <trkpt lat="42.114355" lon="-0.236468">
        <ele>515.4</ele>
        <time>2020-08-12T17:00:13Z</time>
      </trkpt>
      <trkpt lat="42.114317" lon="-0.238762">
        <ele>522.6</ele>
        <time>2020-08-12T17:00:20Z</time>
      </trkpt>
      <trkpt lat="42.114339" lon="-0.24079">
        <ele>526.4</ele>
        <time>2020-08-12T17:00:27Z</time>
      </trkpt>
      <trkpt lat="42.114401" lon="-0.242616">
        <ele>537.8</ele>
        <time>2020-08-12T17:00:33Z</time>
      </trkpt>
      <trkpt lat="42.114518" lon="-0.244635">
        <ele>545.4</ele>
        <time>2020-08-12T17:00:39Z</time>
      </trkpt>
      <trkpt lat="42.114734" lon="-0.247402">
        <ele>553.4</ele>
        <time>2020-08-12T17:00:48Z</time>
      </trkpt>
      <trkpt lat="42.114764" lon="-0.248442">
        <ele>555.0</ele>
        <time>2020-08-12T17:00:52Z</time>
      </trkpt>
      <trkpt lat="42.114747" lon="-0.249273">
        <ele>553.4</ele>
        <time>2020-08-12T17:00:55Z</time>
      </trkpt>
      <trkpt lat="42.114711" lon="-0.249895">
        <ele>553.4</ele>
        <time>2020-08-12T17:00:57Z</time>
      </trkpt>
      <trkpt lat="42.114633" lon="-0.250715">
        <ele>551.4</ele>
        <time>2020-08-12T17:00:59Z</time>
      </trkpt>
      <trkpt lat="42.114523" lon="-0.25153">
        <ele>549.4</ele>
        <time>2020-08-12T17:01:02Z</time>
      </trkpt>
      <trkpt lat="42.114292" lon="-0.252737">
        <ele>545.2</ele>
        <time>2020-08-12T17:01:06Z</time>
      </trkpt>
      <trkpt lat="42.11404" lon="-0.253718">
        <ele>540.8</ele>
        <time>2020-08-12T17:01:09Z</time>
      </trkpt>
      <trkpt lat="42.113805" lon="-0.254485">
        <ele>541.6</ele>
        <time>2020-08-12T17:01:12Z</time>
      </trkpt>
      <trkpt lat="42.112864" lon="-0.257266">
        <ele>531.8</ele>
        <time>2020-08-12T17:01:22Z</time>
      </trkpt>
      <trkpt lat="42.112635" lon="-0.258013">
        <ele>531.6</ele>
        <time>2020-08-12T17:01:25Z</time>
      </trkpt>
      <trkpt lat="42.112328" lon="-0.259147">
        <ele>529.2</ele>
        <time>2020-08-12T17:01:28Z</time>
      </trkpt>
      <trkpt lat="42.112059" lon="-0.26031">
        <ele>532.0</ele>
        <time>2020-08-12T17:01:32Z</time>
      </trkpt>
      <trkpt lat="42.111908" lon="-0.261085">
        <ele>531.0</ele>
        <time>2020-08-12T17:01:35Z</time>
      </trkpt>
      <trkpt lat="42.111717" lon="-0.262273">
        <ele>527.8</ele>
        <time>2020-08-12T17:01:39Z</time>
      </trkpt>
      <trkpt lat="42.111593" lon="-0.263264">
        <ele>532.4</ele>
        <time>2020-08-12T17:01:42Z</time>
      </trkpt>
      <trkpt lat="42.111498" lon="-0.264261">
        <ele>526.0</ele>
        <time>2020-08-12T17:01:46Z</time>
      </trkpt>
      <trkpt lat="42.111428" lon="-0.265465">
        <ele>522.2</ele>
        <time>2020-08-12T17:01:49Z</time>
      </trkpt>
      <trkpt lat="42.111402" lon="-0.266677">
        <ele>521.4</ele>
        <time>2020-08-12T17:01:53Z</time>
      </trkpt>
      <trkpt lat="42.111409" lon="-0.267487">
        <ele>521.4</ele>
        <time>2020-08-12T17:01:56Z</time>
      </trkpt>
      <trkpt lat="42.111436" lon="-0.268292">
        <ele>522.4</ele>
        <time>2020-08-12T17:01:59Z</time>
      </trkpt>
      <trkpt lat="42.111516" lon="-0.269497">
        <ele>519.8</ele>
        <time>2020-08-12T17:02:03Z</time>
      </trkpt>
      <trkpt lat="42.111635" lon="-0.2707">
        <ele>519.0</ele>
        <time>2020-08-12T17:02:07Z</time>
      </trkpt>
      <trkpt lat="42.112912" lon="-0.281145">
        <ele>551.0</ele>
        <time>2020-08-12T17:02:41Z</time>
      </trkpt>
      <trkpt lat="42.113117" lon="-0.282616">
        <ele>543.4</ele>
        <time>2020-08-12T17:02:46Z</time>
      </trkpt>
      <trkpt lat="42.113329" lon="-0.283806">
        <ele>537.4</ele>
        <time>2020-08-12T17:02:50Z</time>
      </trkpt>
      <trkpt lat="42.113501" lon="-0.284591">
        <ele>533.0</ele>
        <time>2020-08-12T17:02:52Z</time>
      </trkpt>
      <trkpt lat="42.113856" lon="-0.2859">
        <ele>524.0</ele>
        <time>2020-08-12T17:02:57Z</time>
      </trkpt>
      <trkpt lat="42.114372" lon="-0.287296">
        <ele>520.6</ele>
        <time>2020-08-12T17:03:02Z</time>
      </trkpt>
      <trkpt lat="42.114753" lon="-0.288201">
        <ele>518.6</ele>
        <time>2020-08-12T17:03:05Z</time>
      </trkpt>
      <trkpt lat="42.115027" lon="-0.288727">
        <ele>518.8</ele>
        <time>2020-08-12T17:03:07Z</time>
      </trkpt>
      <trkpt lat="42.115143" lon="-0.288897">
        <ele>518.8</ele>
        <time>2020-08-12T17:03:08Z</time>
      </trkpt>
      <trkpt lat="42.11593" lon="-0.289902">
        <ele>519.4</ele>
        <time>2020-08-12T17:03:13Z</time>
      </trkpt>
      <trkpt lat="42.116158" lon="-0.290228">
        <ele>518.6</ele>
        <time>2020-08-12T17:03:14Z</time>
      </trkpt>
      <trkpt lat="42.116403" lon="-0.290643">
        <ele>518.6</ele>
        <time>2020-08-12T17:03:16Z</time>
      </trkpt>
      <trkpt lat="42.116667" lon="-0.291154">
        <ele>519.8</ele>
        <time>2020-08-12T17:03:18Z</time>
      </trkpt>
      <trkpt lat="42.116775" lon="-0.291317">
        <ele>519.8</ele>
        <time>2020-08-12T17:03:19Z</time>
      </trkpt>
      <trkpt lat="42.117014" lon="-0.291545">
        <ele>519.8</ele>
        <time>2020-08-12T17:03:21Z</time>
      </trkpt>
      <trkpt lat="42.117229" lon="-0.291618">
        <ele>519.8</ele>
        <time>2020-08-12T17:03:23Z</time>
      </trkpt>
      <trkpt lat="42.11733" lon="-0.291611">
        <ele>519.8</ele>
        <time>2020-08-12T17:03:23Z</time>
      </trkpt>
      <trkpt lat="42.11742" lon="-0.291568">
        <ele>519.8</ele>
        <time>2020-08-12T17:03:24Z</time>
      </trkpt>
      <trkpt lat="42.117595" lon="-0.291411">
        <ele>521.8</ele>
        <time>2020-08-12T17:03:26Z</time>
      </trkpt>
      <trkpt lat="42.117713" lon="-0.291365">
        <ele>521.8</ele>
        <time>2020-08-12T17:03:27Z</time>
      </trkpt>
      <trkpt lat="42.117849" lon="-0.291355">
        <ele>521.8</ele>
        <time>2020-08-12T17:03:28Z</time>
      </trkpt>
      <trkpt lat="42.117931" lon="-0.291375">
        <ele>521.8</ele>
        <time>2020-08-12T17:03:28Z</time>
      </trkpt>
      <trkpt lat="42.118072" lon="-0.291453">
        <ele>521.8</ele>
        <time>2020-08-12T17:03:30Z</time>
      </trkpt>
      <trkpt lat="42.118593" lon="-0.291921">
        <ele>521.6</ele>
        <time>2020-08-12T17:03:34Z</time>
      </trkpt>
      <trkpt lat="42.118844" lon="-0.292092">
        <ele>521.6</ele>
        <time>2020-08-12T17:03:37Z</time>
      </trkpt>
      <trkpt lat="42.119126" lon="-0.292199">
        <ele>521.6</ele>
        <time>2020-08-12T17:03:39Z</time>
      </trkpt>
      <trkpt lat="42.11934" lon="-0.292223">
        <ele>524.6</ele>
        <time>2020-08-12T17:03:40Z</time>
      </trkpt>
      <trkpt lat="42.119797" lon="-0.292193">
        <ele>524.6</ele>
        <time>2020-08-12T17:03:44Z</time>
      </trkpt>
      <trkpt lat="42.12062" lon="-0.292179">
        <ele>527.0</ele>
        <time>2020-08-12T17:03:50Z</time>
      </trkpt>
      <trkpt lat="42.120858" lon="-0.292216">
        <ele>529.6</ele>
        <time>2020-08-12T17:03:52Z</time>
      </trkpt>
      <trkpt lat="42.121151" lon="-0.292301">
        <ele>529.6</ele>
        <time>2020-08-12T17:03:54Z</time>
      </trkpt>
      <trkpt lat="42.123044" lon="-0.293178">
        <ele>533.2</ele>
        <time>2020-08-12T17:04:10Z</time>
      </trkpt>
      <trkpt lat="42.123214" lon="-0.293281">
        <ele>533.2</ele>
        <time>2020-08-12T17:04:11Z</time>
      </trkpt>
      <trkpt lat="42.123491" lon="-0.293508">
        <ele>531.2</ele>
        <time>2020-08-12T17:04:14Z</time>
      </trkpt>
      <trkpt lat="42.123675" lon="-0.293713">
        <ele>531.2</ele>
        <time>2020-08-12T17:04:15Z</time>
      </trkpt>
      <trkpt lat="42.123902" lon="-0.294009">
        <ele>531.2</ele>
        <time>2020-08-12T17:04:18Z</time>
      </trkpt>
      <trkpt lat="42.123951" lon="-0.294033">
        <ele>531.2</ele>
        <time>2020-08-12T17:04:18Z</time>
      </trkpt>
      <trkpt lat="42.124144" lon="-0.294249">
        <ele>529.0</ele>
        <time>2020-08-12T17:04:20Z</time>
      </trkpt>
      <trkpt lat="42.124378" lon="-0.294422">
        <ele>530.6</ele>
        <time>2020-08-12T17:04:22Z</time>
      </trkpt>
      <trkpt lat="42.124591" lon="-0.294502">
        <ele>530.6</ele>
        <time>2020-08-12T17:04:24Z</time>
      </trkpt>
      <trkpt lat="42.1248" lon="-0.294507">
        <ele>530.6</ele>
        <time>2020-08-12T17:04:26Z</time>
      </trkpt>
      <trkpt lat="42.124964" lon="-0.294455">
        <ele>530.6</ele>
        <time>2020-08-12T17:04:27Z</time>
      </trkpt>
      <trkpt lat="42.125015" lon="-0.294421">
        <ele>531.0</ele>
        <time>2020-08-12T17:04:27Z</time>
      </trkpt>
      <trkpt lat="42.125093" lon="-0.294324">
        <ele>531.0</ele>
        <time>2020-08-12T17:04:28Z</time>
      </trkpt>
      <trkpt lat="42.12513" lon="-0.294249">
        <ele>531.0</ele>
        <time>2020-08-12T17:04:29Z</time>
      </trkpt>
      <trkpt lat="42.125178" lon="-0.294085">
        <ele>533.6</ele>
        <time>2020-08-12T17:04:30Z</time>
      </trkpt>
      <trkpt lat="42.125243" lon="-0.294006">
        <ele>533.6</ele>
        <time>2020-08-12T17:04:30Z</time>
      </trkpt>
      <trkpt lat="42.125325" lon="-0.293964">
        <ele>533.6</ele>
        <time>2020-08-12T17:04:31Z</time>
      </trkpt>
      <trkpt lat="42.125413" lon="-0.293964">
        <ele>533.6</ele>
        <time>2020-08-12T17:04:31Z</time>
      </trkpt>
      <trkpt lat="42.125529" lon="-0.294043">
        <ele>533.6</ele>
        <time>2020-08-12T17:04:32Z</time>
      </trkpt>
      <trkpt lat="42.125582" lon="-0.294138">
        <ele>533.6</ele>
        <time>2020-08-12T17:04:33Z</time>
      </trkpt>
      <trkpt lat="42.125606" lon="-0.294252">
        <ele>531.0</ele>
        <time>2020-08-12T17:04:33Z</time>
      </trkpt>
      <trkpt lat="42.125607" lon="-0.294538">
        <ele>531.0</ele>
        <time>2020-08-12T17:04:35Z</time>
      </trkpt>
      <trkpt lat="42.125623" lon="-0.29467">
        <ele>531.0</ele>
        <time>2020-08-12T17:04:35Z</time>
      </trkpt>
      <trkpt lat="42.125659" lon="-0.29477">
        <ele>531.0</ele>
        <time>2020-08-12T17:04:36Z</time>
      </trkpt>
      <trkpt lat="42.125984" lon="-0.295359">
        <ele>528.6</ele>
        <time>2020-08-12T17:04:40Z</time>
      </trkpt>
      <trkpt lat="42.126008" lon="-0.295437">
        <ele>528.6</ele>
        <time>2020-08-12T17:04:40Z</time>
      </trkpt>
      <trkpt lat="42.145789" lon="-0.331326">
        <ele>552.4</ele>
        <time>2020-08-12T17:08:18Z</time>
      </trkpt>
      <trkpt lat="42.146112" lon="-0.331933">
        <ele>548.2</ele>
        <time>2020-08-12T17:08:22Z</time>
      </trkpt>
      <trkpt lat="42.14628" lon="-0.332296">
        <ele>548.2</ele>
        <time>2020-08-12T17:08:24Z</time>
      </trkpt>
      <trkpt lat="42.146418" lon="-0.332721">
        <ele>551.2</ele>
        <time>2020-08-12T17:08:27Z</time>
      </trkpt>
      <trkpt lat="42.146478" lon="-0.333003">
        <ele>551.2</ele>
        <time>2020-08-12T17:08:28Z</time>
      </trkpt>
      <trkpt lat="42.146523" lon="-0.333328">
        <ele>551.2</ele>
        <time>2020-08-12T17:08:30Z</time>
      </trkpt>
      <trkpt lat="42.146545" lon="-0.333779">
        <ele>550.4</ele>
        <time>2020-08-12T17:08:32Z</time>
      </trkpt>
      <trkpt lat="42.146529" lon="-0.334072">
        <ele>550.4</ele>
        <time>2020-08-12T17:08:33Z</time>
      </trkpt>
      <trkpt lat="42.146466" lon="-0.334536">
        <ele>541.6</ele>
        <time>2020-08-12T17:08:36Z</time>
      </trkpt>
      <trkpt lat="42.146411" lon="-0.334777">
        <ele>541.6</ele>
        <time>2020-08-12T17:08:37Z</time>
      </trkpt>
      <trkpt lat="42.14466" lon="-0.340049">
        <ele>502.2</ele>
        <time>2020-08-12T17:09:05Z</time>
      </trkpt>
      <trkpt lat="42.144462" lon="-0.340489">
        <ele>502.2</ele>
        <time>2020-08-12T17:09:08Z</time>
      </trkpt>
      <trkpt lat="42.144303" lon="-0.340758">
        <ele>502.2</ele>
        <time>2020-08-12T17:09:09Z</time>
      </trkpt>
      <trkpt lat="42.144176" lon="-0.340939">
        <ele>498.0</ele>
        <time>2020-08-12T17:09:11Z</time>
      </trkpt>
      <trkpt lat="42.143351" lon="-0.341871">
        <ele>495.6</ele>
        <time>2020-08-12T17:09:18Z</time>
      </trkpt>
      <trkpt lat="42.143137" lon="-0.342155">
        <ele>493.4</ele>
        <time>2020-08-12T17:09:20Z</time>
      </trkpt>
      <trkpt lat="42.142936" lon="-0.342496">
        <ele>493.4</ele>
        <time>2020-08-12T17:09:22Z</time>
      </trkpt>
      <trkpt lat="42.142784" lon="-0.342835">
        <ele>491.4</ele>
        <time>2020-08-12T17:09:24Z</time>
      </trkpt>
      <trkpt lat="42.14266" lon="-0.343204">
        <ele>491.4</ele>
        <time>2020-08-12T17:09:26Z</time>
      </trkpt>
      <trkpt lat="42.142563" lon="-0.343635">
        <ele>488.8</ele>
        <time>2020-08-12T17:09:28Z</time>
      </trkpt>
      <trkpt lat="42.142497" lon="-0.344118">
        <ele>489.0</ele>
        <time>2020-08-12T17:09:30Z</time>
      </trkpt>
      <trkpt lat="42.142311" lon="-0.347101">
        <ele>472.0</ele>
        <time>2020-08-12T17:09:45Z</time>
      </trkpt>
      <trkpt lat="42.141872" lon="-0.355844">
        <ele>468.0</ele>
        <time>2020-08-12T17:10:28Z</time>
      </trkpt>
      <trkpt lat="42.14187" lon="-0.356188">
        <ele>468.0</ele>
        <time>2020-08-12T17:10:29Z</time>
      </trkpt>
      <trkpt lat="42.141882" lon="-0.356336">
        <ele>468.0</ele>
        <time>2020-08-12T17:10:30Z</time>
      </trkpt>
      <trkpt lat="42.141904" lon="-0.356431">
        <ele>468.0</ele>
        <time>2020-08-12T17:10:31Z</time>
      </trkpt>
      <trkpt lat="42.141947" lon="-0.35655">
        <ele>468.0</ele>
        <time>2020-08-12T17:10:32Z</time>
      </trkpt>
      <trkpt lat="42.141932" lon="-0.35668">
        <ele>467.8</ele>
        <time>2020-08-12T17:10:33Z</time>
      </trkpt>
      <trkpt lat="42.141872" lon="-0.35683">
        <ele>467.8</ele>
        <time>2020-08-12T17:10:34Z</time>
      </trkpt>
      <trkpt lat="42.141809" lon="-0.357097">
        <ele>467.8</ele>
        <time>2020-08-12T17:10:35Z</time>
      </trkpt>
      <trkpt lat="42.14157" lon="-0.362127">
        <ele>461.2</ele>
        <time>2020-08-12T17:11:03Z</time>
      </trkpt>
      <trkpt lat="42.141479" lon="-0.363629">
        <ele>461.2</ele>
        <time>2020-08-12T17:11:12Z</time>
      </trkpt>
      <trkpt lat="42.141447" lon="-0.364374">
        <ele>460.8</ele>
        <time>2020-08-12T17:11:16Z</time>
      </trkpt>
      <trkpt lat="42.14143" lon="-0.365441">
        <ele>461.2</ele>
        <time>2020-08-12T17:11:22Z</time>
      </trkpt>
      <trkpt lat="42.141442" lon="-0.365976">
        <ele>461.0</ele>
        <time>2020-08-12T17:11:24Z</time>
      </trkpt>
      <trkpt lat="42.141477" lon="-0.366513">
        <ele>461.0</ele>
        <time>2020-08-12T17:11:27Z</time>
      </trkpt>
      <trkpt lat="42.141522" lon="-0.366949">
        <ele>461.0</ele>
        <time>2020-08-12T17:11:29Z</time>
      </trkpt>
      <trkpt lat="42.141574" lon="-0.367335">
        <ele>461.0</ele>
        <time>2020-08-12T17:11:30Z</time>
      </trkpt>
      <trkpt lat="42.141727" lon="-0.368124">
        <ele>460.6</ele>
        <time>2020-08-12T17:11:34Z</time>
      </trkpt>
      <trkpt lat="42.141841" lon="-0.368598">
        <ele>461.2</ele>
        <time>2020-08-12T17:11:36Z</time>
      </trkpt>
      <trkpt lat="42.14216" lon="-0.369634">
        <ele>461.4</ele>
        <time>2020-08-12T17:11:41Z</time>
      </trkpt>
      <trkpt lat="42.142387" lon="-0.370202">
        <ele>462.0</ele>
        <time>2020-08-12T17:11:44Z</time>
      </trkpt>
      <trkpt lat="42.14264" lon="-0.370763">
        <ele>462.8</ele>
        <time>2020-08-12T17:11:47Z</time>
      </trkpt>
      <trkpt lat="42.142981" lon="-0.371401">
        <ele>463.4</ele>
        <time>2020-08-12T17:11:50Z</time>
      </trkpt>
      <trkpt lat="42.143248" lon="-0.371859">
        <ele>463.8</ele>
        <time>2020-08-12T17:11:53Z</time>
      </trkpt>
      <trkpt lat="42.144401" lon="-0.373687">
        <ele>463.8</ele>
        <time>2020-08-12T17:12:03Z</time>
      </trkpt>
      <trkpt lat="42.144908" lon="-0.374574">
        <ele>463.8</ele>
        <time>2020-08-12T17:12:08Z</time>
      </trkpt>
      <trkpt lat="42.145221" lon="-0.37525">
        <ele>464.8</ele>
        <time>2020-08-12T17:12:12Z</time>
      </trkpt>
      <trkpt lat="42.14543" lon="-0.375769">
        <ele>464.8</ele>
        <time>2020-08-12T17:12:14Z</time>
      </trkpt>
      <trkpt lat="42.145747" lon="-0.376688">
        <ele>465.4</ele>
        <time>2020-08-12T17:12:19Z</time>
      </trkpt>
      <trkpt lat="42.146337" lon="-0.378665">
        <ele>468.8</ele>
        <time>2020-08-12T17:12:28Z</time>
      </trkpt>
      <trkpt lat="42.146504" lon="-0.379156">
        <ele>468.8</ele>
        <time>2020-08-12T17:12:30Z</time>
      </trkpt>
      <trkpt lat="42.146685" lon="-0.379625">
        <ele>470.8</ele>
        <time>2020-08-12T17:12:33Z</time>
      </trkpt>
      <trkpt lat="42.146973" lon="-0.380296">
        <ele>472.2</ele>
        <time>2020-08-12T17:12:36Z</time>
      </trkpt>
      <trkpt lat="42.147295" lon="-0.380881">
        <ele>473.6</ele>
        <time>2020-08-12T17:12:39Z</time>
      </trkpt>
      <trkpt lat="42.147792" lon="-0.381679">
        <ele>476.8</ele>
        <time>2020-08-12T17:12:44Z</time>
      </trkpt>
      <trkpt lat="42.147962" lon="-0.381916">
        <ele>476.8</ele>
        <time>2020-08-12T17:12:45Z</time>
      </trkpt>
      <trkpt lat="42.149315" lon="-0.383628">
        <ele>481.4</ele>
        <time>2020-08-12T17:12:56Z</time>
      </trkpt>
      <trkpt lat="42.149986" lon="-0.384573">
        <ele>481.0</ele>
        <time>2020-08-12T17:13:02Z</time>
      </trkpt>
      <trkpt lat="42.15042" lon="-0.385314">
        <ele>478.6</ele>
        <time>2020-08-12T17:13:06Z</time>
      </trkpt>
      <trkpt lat="42.150572" lon="-0.385617">
        <ele>478.6</ele>
        <time>2020-08-12T17:13:08Z</time>
      </trkpt>
      <trkpt lat="42.15074" lon="-0.385978">
        <ele>477.6</ele>
        <time>2020-08-12T17:13:10Z</time>
      </trkpt>
      <trkpt lat="42.151059" lon="-0.386781">
        <ele>477.4</ele>
        <time>2020-08-12T17:13:14Z</time>
      </trkpt>
      <trkpt lat="42.151162" lon="-0.387085">
        <ele>477.4</ele>
        <time>2020-08-12T17:13:15Z</time>
      </trkpt>
      <trkpt lat="42.15137" lon="-0.387804">
        <ele>477.6</ele>
        <time>2020-08-12T17:13:19Z</time>
      </trkpt>
      <trkpt lat="42.151511" lon="-0.388459">
        <ele>477.2</ele>
        <time>2020-08-12T17:13:22Z</time>
      </trkpt>
      <trkpt lat="42.151642" lon="-0.389233">
        <ele>475.8</ele>
        <time>2020-08-12T17:13:25Z</time>
      </trkpt>
      <trkpt lat="42.151736" lon="-0.390033">
        <ele>476.2</ele>
        <time>2020-08-12T17:13:29Z</time>
      </trkpt>
      <trkpt lat="42.151922" lon="-0.392385">
        <ele>475.4</ele>
        <time>2020-08-12T17:13:39Z</time>
      </trkpt>
      <trkpt lat="42.151995" lon="-0.393137">
        <ele>477.6</ele>
        <time>2020-08-12T17:13:42Z</time>
      </trkpt>
      <trkpt lat="42.152118" lon="-0.394051">
        <ele>481.2</ele>
        <time>2020-08-12T17:13:46Z</time>
      </trkpt>
      <trkpt lat="42.152307" lon="-0.395002">
        <ele>490.0</ele>
        <time>2020-08-12T17:13:51Z</time>
      </trkpt>
      <trkpt lat="42.15241" lon="-0.395389">
        <ele>490.0</ele>
        <time>2020-08-12T17:13:53Z</time>
      </trkpt>
      <trkpt lat="42.152609" lon="-0.396033">
        <ele>497.6</ele>
        <time>2020-08-12T17:13:56Z</time>
      </trkpt>
      <trkpt lat="42.152848" lon="-0.396664">
        <ele>497.6</ele>
        <time>2020-08-12T17:13:59Z</time>
      </trkpt>
      <trkpt lat="42.15318" lon="-0.397373">
        <ele>497.2</ele>
        <time>2020-08-12T17:14:02Z</time>
      </trkpt>
      <trkpt lat="42.15338" lon="-0.397743">
        <ele>490.6</ele>
        <time>2020-08-12T17:14:04Z</time>
      </trkpt>
      <trkpt lat="42.153702" lon="-0.398263">
        <ele>490.6</ele>
        <time>2020-08-12T17:14:07Z</time>
      </trkpt>
      <trkpt lat="42.154244" lon="-0.398994">
        <ele>487.4</ele>
        <time>2020-08-12T17:14:12Z</time>
      </trkpt>
      <trkpt lat="42.154954" lon="-0.399758">
        <ele>484.8</ele>
        <time>2020-08-12T17:14:17Z</time>
      </trkpt>
      <trkpt lat="42.15702" lon="-0.401662">
        <ele>486.0</ele>
        <time>2020-08-12T17:14:32Z</time>
      </trkpt>
      <trkpt lat="42.157708" lon="-0.402392">
        <ele>486.8</ele>
        <time>2020-08-12T17:14:37Z</time>
      </trkpt>
      <trkpt lat="42.15817" lon="-0.402992">
        <ele>485.8</ele>
        <time>2020-08-12T17:14:41Z</time>
      </trkpt>
      <trkpt lat="42.158571" lon="-0.40361">
        <ele>485.4</ele>
        <time>2020-08-12T17:14:45Z</time>
      </trkpt>
      <trkpt lat="42.158947" lon="-0.404323">
        <ele>483.8</ele>
        <time>2020-08-12T17:14:49Z</time>
      </trkpt>
      <trkpt lat="42.159238" lon="-0.40499">
        <ele>485.6</ele>
        <time>2020-08-12T17:14:52Z</time>
      </trkpt>
      <trkpt lat="42.159363" lon="-0.405324">
        <ele>486.0</ele>
        <time>2020-08-12T17:14:54Z</time>
      </trkpt>
      <trkpt lat="42.159593" lon="-0.406051">
        <ele>487.0</ele>
        <time>2020-08-12T17:14:57Z</time>
      </trkpt>
      <trkpt lat="42.159719" lon="-0.406552">
        <ele>487.0</ele>
        <time>2020-08-12T17:14:59Z</time>
      </trkpt>
      <trkpt lat="42.159848" lon="-0.407155">
        <ele>488.2</ele>
        <time>2020-08-12T17:15:02Z</time>
      </trkpt>
      <trkpt lat="42.15996" lon="-0.40779">
        <ele>490.2</ele>
        <time>2020-08-12T17:15:05Z</time>
      </trkpt>
      <trkpt lat="42.16094" lon="-0.414725">
        <ele>499.2</ele>
        <time>2020-08-12T17:15:36Z</time>
      </trkpt>
      <trkpt lat="42.161084" lon="-0.415935">
        <ele>499.8</ele>
        <time>2020-08-12T17:15:41Z</time>
      </trkpt>
      <trkpt lat="42.161119" lon="-0.416679">
        <ele>500.8</ele>
        <time>2020-08-12T17:15:44Z</time>
      </trkpt>
      <trkpt lat="42.161112" lon="-0.417023">
        <ele>500.8</ele>
        <time>2020-08-12T17:15:46Z</time>
      </trkpt>
      <trkpt lat="42.161076" lon="-0.417529">
        <ele>500.0</ele>
        <time>2020-08-12T17:15:48Z</time>
      </trkpt>
      <trkpt lat="42.161035" lon="-0.417861">
        <ele>500.0</ele>
        <time>2020-08-12T17:15:50Z</time>
      </trkpt>
      <trkpt lat="42.160948" lon="-0.418352">
        <ele>497.8</ele>
        <time>2020-08-12T17:15:52Z</time>
      </trkpt>
      <trkpt lat="42.160838" lon="-0.418809">
        <ele>497.8</ele>
        <time>2020-08-12T17:15:54Z</time>
      </trkpt>
      <trkpt lat="42.160563" lon="-0.419674">
        <ele>494.4</ele>
        <time>2020-08-12T17:15:58Z</time>
      </trkpt>
      <trkpt lat="42.160253" lon="-0.420551">
        <ele>494.2</ele>
        <time>2020-08-12T17:16:02Z</time>
      </trkpt>
      <trkpt lat="42.159684" lon="-0.422071">
        <ele>493.0</ele>
        <time>2020-08-12T17:16:09Z</time>
      </trkpt>
      <trkpt lat="42.159469" lon="-0.422549">
        <ele>493.8</ele>
        <time>2020-08-12T17:16:12Z</time>
      </trkpt>
      <trkpt lat="42.159309" lon="-0.422814">
        <ele>493.8</ele>
        <time>2020-08-12T17:16:13Z</time>
      </trkpt>
      <trkpt lat="42.159114" lon="-0.423057">
        <ele>493.4</ele>
        <time>2020-08-12T17:16:15Z</time>
      </trkpt>
      <trkpt lat="42.158799" lon="-0.423333">
        <ele>493.4</ele>
        <time>2020-08-12T17:16:17Z</time>
      </trkpt>
      <trkpt lat="42.158431" lon="-0.423524">
        <ele>494.4</ele>
        <time>2020-08-12T17:16:19Z</time>
      </trkpt>
      <trkpt lat="42.158061" lon="-0.423627">
        <ele>493.2</ele>
        <time>2020-08-12T17:16:21Z</time>
      </trkpt>
      <trkpt lat="42.157826" lon="-0.423624">
        <ele>493.2</ele>
        <time>2020-08-12T17:16:23Z</time>
      </trkpt>
      <trkpt lat="42.15753" lon="-0.423564">
        <ele>493.2</ele>
        <time>2020-08-12T17:16:24Z</time>
      </trkpt>
      <trkpt lat="42.157039" lon="-0.42336">
        <ele>491.6</ele>
        <time>2020-08-12T17:16:27Z</time>
      </trkpt>
      <trkpt lat="42.156339" lon="-0.422995">
        <ele>490.8</ele>
        <time>2020-08-12T17:16:32Z</time>
      </trkpt>
      <trkpt lat="42.156138" lon="-0.422916">
        <ele>490.8</ele>
        <time>2020-08-12T17:16:33Z</time>
      </trkpt>
      <trkpt lat="42.155838" lon="-0.422844">
        <ele>490.8</ele>
        <time>2020-08-12T17:16:35Z</time>
      </trkpt>
      <trkpt lat="42.155599" lon="-0.422825">
        <ele>489.8</ele>
        <time>2020-08-12T17:16:36Z</time>
      </trkpt>
      <trkpt lat="42.155237" lon="-0.422864">
        <ele>489.8</ele>
        <time>2020-08-12T17:16:38Z</time>
      </trkpt>
      <trkpt lat="42.155083" lon="-0.4229">
        <ele>489.8</ele>
        <time>2020-08-12T17:16:39Z</time>
      </trkpt>
      <trkpt lat="42.154612" lon="-0.423065">
        <ele>488.4</ele>
        <time>2020-08-12T17:16:42Z</time>
      </trkpt>
      <trkpt lat="42.154513" lon="-0.423027">
        <ele>488.4</ele>
        <time>2020-08-12T17:16:42Z</time>
      </trkpt>
      <trkpt lat="42.153634" lon="-0.423408">
        <ele>488.6</ele>
        <time>2020-08-12T17:16:48Z</time>
      </trkpt>
      <trkpt lat="42.152826" lon="-0.423841">
        <ele>487.6</ele>
        <time>2020-08-12T17:16:53Z</time>
      </trkpt>
      <trkpt lat="42.151952" lon="-0.424398">
        <ele>484.6</ele>
        <time>2020-08-12T17:16:59Z</time>
      </trkpt>
      <trkpt lat="42.151851" lon="-0.424548">
        <ele>484.6</ele>
        <time>2020-08-12T17:17:00Z</time>
      </trkpt>
      <trkpt lat="42.15095" lon="-0.425295">
        <ele>484.2</ele>
        <time>2020-08-12T17:17:09Z</time>
      </trkpt>
      <trkpt lat="42.149092" lon="-0.42688">
        <ele>481.4</ele>
        <time>2020-08-12T17:17:27Z</time>
      </trkpt>
      <trkpt lat="42.149092" lon="-0.42688">
        <ele>482.2</ele>
        <time>2020-08-12T17:17:27Z</time>
      </trkpt>
      <trkpt lat="42.149092" lon="-0.42688">
        <ele>482.2</ele>
        <time>2020-08-12T17:17:27Z</time>
      </trkpt>
      <trkpt lat="42.149475" lon="-0.427802">
        <ele>483.0</ele>
        <time>2020-08-12T17:17:32Z</time>
      </trkpt>
      <trkpt lat="42.150268" lon="-0.429633">
        <ele>483.6</ele>
        <time>2020-08-12T17:17:41Z</time>
      </trkpt>
      <trkpt lat="42.153178" lon="-0.436553">
        <ele>490.8</ele>
        <time>2020-08-12T17:18:14Z</time>
      </trkpt>
      <trkpt lat="42.153583" lon="-0.437497">
        <ele>494.8</ele>
        <time>2020-08-12T17:18:18Z</time>
      </trkpt>
      <trkpt lat="42.15387" lon="-0.438084">
        <ele>496.2</ele>
        <time>2020-08-12T17:18:21Z</time>
      </trkpt>
      <trkpt lat="42.154185" lon="-0.438657">
        <ele>501.8</ele>
        <time>2020-08-12T17:18:24Z</time>
      </trkpt>
      <trkpt lat="42.154482" lon="-0.439153">
        <ele>501.8</ele>
        <time>2020-08-12T17:18:27Z</time>
      </trkpt>
      <trkpt lat="42.156534" lon="-0.442376">
        <ele>510.4</ele>
        <time>2020-08-12T17:18:45Z</time>
      </trkpt>
      <trkpt lat="42.156982" lon="-0.443105">
        <ele>511.8</ele>
        <time>2020-08-12T17:18:48Z</time>
      </trkpt>
      <trkpt lat="42.157606" lon="-0.444203">
        <ele>505.6</ele>
        <time>2020-08-12T17:18:54Z</time>
      </trkpt>
      <trkpt lat="42.158099" lon="-0.445176">
        <ele>503.4</ele>
        <time>2020-08-12T17:18:59Z</time>
      </trkpt>
      <trkpt lat="42.158417" lon="-0.44586">
        <ele>503.6</ele>
        <time>2020-08-12T17:19:02Z</time>
      </trkpt>
      <trkpt lat="42.16416" lon="-0.458967">
        <ele>506.8</ele>
        <time>2020-08-12T17:20:06Z</time>
      </trkpt>
      <trkpt lat="42.165982" lon="-0.462901">
        <ele>507.6</ele>
        <time>2020-08-12T17:20:25Z</time>
      </trkpt>
      <trkpt lat="42.180148" lon="-0.494665">
        <ele>534.6</ele>
        <time>2020-08-12T17:23:00Z</time>
      </trkpt>
      <trkpt lat="42.180727" lon="-0.495942">
        <ele>531.6</ele>
        <time>2020-08-12T17:23:06Z</time>
      </trkpt>
      <trkpt lat="42.180865" lon="-0.496214">
        <ele>533.8</ele>
        <time>2020-08-12T17:23:07Z</time>
      </trkpt>
      <trkpt lat="42.181201" lon="-0.496801">
        <ele>528.6</ele>
        <time>2020-08-12T17:23:10Z</time>
      </trkpt>
      <trkpt lat="42.197949" lon="-0.523975">
        <ele>509.6</ele>
        <time>2020-08-12T17:25:38Z</time>
      </trkpt>
      <trkpt lat="42.207201" lon="-0.539023">
        <ele>499.4</ele>
        <time>2020-08-12T17:26:59Z</time>
      </trkpt>
      <trkpt lat="42.208288" lon="-0.540917">
        <ele>501.6</ele>
        <time>2020-08-12T17:27:09Z</time>
      </trkpt>
      <trkpt lat="42.208871" lon="-0.541999">
        <ele>502.6</ele>
        <time>2020-08-12T17:27:15Z</time>
      </trkpt>
      <trkpt lat="42.20971" lon="-0.543654">
        <ele>503.2</ele>
        <time>2020-08-12T17:27:23Z</time>
      </trkpt>
      <trkpt lat="42.210508" lon="-0.545347">
        <ele>504.6</ele>
        <time>2020-08-12T17:27:31Z</time>
      </trkpt>
      <trkpt lat="42.213389" lon="-0.552003">
        <ele>499.8</ele>
        <time>2020-08-12T17:28:03Z</time>
      </trkpt>
      <trkpt lat="42.214448" lon="-0.554515">
        <ele>500.4</ele>
        <time>2020-08-12T17:28:15Z</time>
      </trkpt>
      <trkpt lat="42.23504" lon="-0.602593">
        <ele>547.6</ele>
        <time>2020-08-12T17:32:07Z</time>
      </trkpt>
      <trkpt lat="42.237205" lon="-0.607663">
        <ele>548.4</ele>
        <time>2020-08-12T17:32:31Z</time>
      </trkpt>
      <trkpt lat="42.238173" lon="-0.609968">
        <ele>547.2</ele>
        <time>2020-08-12T17:32:42Z</time>
      </trkpt>
      <trkpt lat="42.240768" lon="-0.615985">
        <ele>547.2</ele>
        <time>2020-08-12T17:33:11Z</time>
      </trkpt>
      <trkpt lat="42.242791" lon="-0.620729">
        <ele>558.2</ele>
        <time>2020-08-12T17:33:34Z</time>
      </trkpt>
      <trkpt lat="42.242991" lon="-0.621313">
        <ele>561.0</ele>
        <time>2020-08-12T17:33:37Z</time>
      </trkpt>
      <trkpt lat="42.243106" lon="-0.621785">
        <ele>564.2</ele>
        <time>2020-08-12T17:33:39Z</time>
      </trkpt>
      <trkpt lat="42.24315" lon="-0.622026">
        <ele>564.2</ele>
        <time>2020-08-12T17:33:40Z</time>
      </trkpt>
      <trkpt lat="42.24321" lon="-0.622515">
        <ele>567.2</ele>
        <time>2020-08-12T17:33:42Z</time>
      </trkpt>
      <trkpt lat="42.243225" lon="-0.622763">
        <ele>567.2</ele>
        <time>2020-08-12T17:33:43Z</time>
      </trkpt>
      <trkpt lat="42.24323" lon="-0.623318">
        <ele>567.2</ele>
        <time>2020-08-12T17:33:45Z</time>
      </trkpt>
      <trkpt lat="42.242972" lon="-0.629924">
        <ele>586.4</ele>
        <time>2020-08-12T17:34:13Z</time>
      </trkpt>
      <trkpt lat="42.242914" lon="-0.630797">
        <ele>591.4</ele>
        <time>2020-08-12T17:34:16Z</time>
      </trkpt>
      <trkpt lat="42.242817" lon="-0.631472">
        <ele>596.8</ele>
        <time>2020-08-12T17:34:19Z</time>
      </trkpt>
      <trkpt lat="42.242726" lon="-0.631915">
        <ele>603.4</ele>
        <time>2020-08-12T17:34:21Z</time>
      </trkpt>
      <trkpt lat="42.241804" lon="-0.635604">
        <ele>611.6</ele>
        <time>2020-08-12T17:34:37Z</time>
      </trkpt>
      <trkpt lat="42.241705" lon="-0.636139">
        <ele>612.0</ele>
        <time>2020-08-12T17:34:40Z</time>
      </trkpt>
      <trkpt lat="42.241667" lon="-0.636688">
        <ele>611.8</ele>
        <time>2020-08-12T17:34:42Z</time>
      </trkpt>
      <trkpt lat="42.24167" lon="-0.636964">
        <ele>611.8</ele>
        <time>2020-08-12T17:34:43Z</time>
      </trkpt>
      <trkpt lat="42.241723" lon="-0.637511">
        <ele>611.0</ele>
        <time>2020-08-12T17:34:45Z</time>
      </trkpt>
      <trkpt lat="42.241835" lon="-0.638042">
        <ele>611.0</ele>
        <time>2020-08-12T17:34:48Z</time>
      </trkpt>
      <trkpt lat="42.242019" lon="-0.638591">
        <ele>609.4</ele>
        <time>2020-08-12T17:34:50Z</time>
      </trkpt>
      <trkpt lat="42.243363" lon="-0.641949">
        <ele>585.6</ele>
        <time>2020-08-12T17:35:06Z</time>
      </trkpt>
      <trkpt lat="42.243883" lon="-0.643303">
        <ele>582.8</ele>
        <time>2020-08-12T17:35:12Z</time>
      </trkpt>
      <trkpt lat="42.244438" lon="-0.644641">
        <ele>584.6</ele>
        <time>2020-08-12T17:35:19Z</time>
      </trkpt>
      <trkpt lat="42.244679" lon="-0.645104">
        <ele>584.2</ele>
        <time>2020-08-12T17:35:21Z</time>
      </trkpt>
      <trkpt lat="42.24497" lon="-0.645563">
        <ele>584.2</ele>
        <time>2020-08-12T17:35:24Z</time>
      </trkpt>
      <trkpt lat="42.245352" lon="-0.646032">
        <ele>582.6</ele>
        <time>2020-08-12T17:35:27Z</time>
      </trkpt>
      <trkpt lat="42.245536" lon="-0.646228">
        <ele>582.6</ele>
        <time>2020-08-12T17:35:28Z</time>
      </trkpt>
      <trkpt lat="42.247962" lon="-0.648322">
        <ele>571.6</ele>
        <time>2020-08-12T17:35:44Z</time>
      </trkpt>
      <trkpt lat="42.248333" lon="-0.648669">
        <ele>567.0</ele>
        <time>2020-08-12T17:35:47Z</time>
      </trkpt>
      <trkpt lat="42.248747" lon="-0.649124">
        <ele>567.2</ele>
        <time>2020-08-12T17:35:50Z</time>
      </trkpt>
      <trkpt lat="42.249585" lon="-0.65014">
        <ele>571.4</ele>
        <time>2020-08-12T17:35:56Z</time>
      </trkpt>
      <trkpt lat="42.250002" lon="-0.650586">
        <ele>570.2</ele>
        <time>2020-08-12T17:35:59Z</time>
      </trkpt>
      <trkpt lat="42.250398" lon="-0.65093">
        <ele>560.0</ele>
        <time>2020-08-12T17:36:02Z</time>
      </trkpt>
      <trkpt lat="42.251371" lon="-0.651616">
        <ele>558.2</ele>
        <time>2020-08-12T17:36:08Z</time>
      </trkpt>
      <trkpt lat="42.251587" lon="-0.651786">
        <ele>549.8</ele>
        <time>2020-08-12T17:36:09Z</time>
      </trkpt>
      <trkpt lat="42.251791" lon="-0.651978">
        <ele>550.2</ele>
        <time>2020-08-12T17:36:11Z</time>
      </trkpt>
      <trkpt lat="42.251985" lon="-0.652191">
        <ele>550.2</ele>
        <time>2020-08-12T17:36:12Z</time>
      </trkpt>
      <trkpt lat="42.252165" lon="-0.652424">
        <ele>550.2</ele>
        <time>2020-08-12T17:36:14Z</time>
      </trkpt>
      <trkpt lat="42.252331" lon="-0.652674">
        <ele>547.8</ele>
        <time>2020-08-12T17:36:15Z</time>
      </trkpt>
      <trkpt lat="42.252483" lon="-0.652941">
        <ele>547.8</ele>
        <time>2020-08-12T17:36:16Z</time>
      </trkpt>
      <trkpt lat="42.252619" lon="-0.653224">
        <ele>548.8</ele>
        <time>2020-08-12T17:36:18Z</time>
      </trkpt>
      <trkpt lat="42.252738" lon="-0.653519">
        <ele>550.0</ele>
        <time>2020-08-12T17:36:19Z</time>
      </trkpt>
      <trkpt lat="42.252947" lon="-0.654174">
        <ele>551.2</ele>
        <time>2020-08-12T17:36:22Z</time>
      </trkpt>
      <trkpt lat="42.254502" lon="-0.659742">
        <ele>570.2</ele>
        <time>2020-08-12T17:36:47Z</time>
      </trkpt>
      <trkpt lat="42.254633" lon="-0.660434">
        <ele>574.6</ele>
        <time>2020-08-12T17:36:50Z</time>
      </trkpt>
      <trkpt lat="42.254708" lon="-0.661141">
        <ele>576.0</ele>
        <time>2020-08-12T17:36:53Z</time>
      </trkpt>
      <trkpt lat="42.254777" lon="-0.662917">
        <ele>581.8</ele>
        <time>2020-08-12T17:37:00Z</time>
      </trkpt>
      <trkpt lat="42.254847" lon="-0.663558">
        <ele>584.6</ele>
        <time>2020-08-12T17:37:03Z</time>
      </trkpt>
      <trkpt lat="42.254905" lon="-0.663866">
        <ele>584.6</ele>
        <time>2020-08-12T17:37:04Z</time>
      </trkpt>
      <trkpt lat="42.255072" lon="-0.664461">
        <ele>589.6</ele>
        <time>2020-08-12T17:37:07Z</time>
      </trkpt>
      <trkpt lat="42.255303" lon="-0.665016">
        <ele>588.6</ele>
        <time>2020-08-12T17:37:10Z</time>
      </trkpt>
      <trkpt lat="42.255592" lon="-0.665519">
        <ele>588.6</ele>
        <time>2020-08-12T17:37:12Z</time>
      </trkpt>
      <trkpt lat="42.255934" lon="-0.665975">
        <ele>592.2</ele>
        <time>2020-08-12T17:37:15Z</time>
      </trkpt>
      <trkpt lat="42.268293" lon="-0.680945">
        <ele>597.2</ele>
        <time>2020-08-12T17:38:48Z</time>
      </trkpt>
      <trkpt lat="42.269602" lon="-0.682512">
        <ele>592.0</ele>
        <time>2020-08-12T17:38:58Z</time>
      </trkpt>
      <trkpt lat="42.269755" lon="-0.682666">
        <ele>592.0</ele>
        <time>2020-08-12T17:38:59Z</time>
      </trkpt>
      <trkpt lat="42.270084" lon="-0.682927">
        <ele>588.6</ele>
        <time>2020-08-12T17:39:01Z</time>
      </trkpt>
      <trkpt lat="42.270258" lon="-0.683034">
        <ele>588.6</ele>
        <time>2020-08-12T17:39:02Z</time>
      </trkpt>
      <trkpt lat="42.270619" lon="-0.683196">
        <ele>588.6</ele>
        <time>2020-08-12T17:39:04Z</time>
      </trkpt>
      <trkpt lat="42.270995" lon="-0.683287">
        <ele>586.4</ele>
        <time>2020-08-12T17:39:07Z</time>
      </trkpt>
      <trkpt lat="42.272022" lon="-0.683332">
        <ele>583.6</ele>
        <time>2020-08-12T17:39:12Z</time>
      </trkpt>
      <trkpt lat="42.272294" lon="-0.68339">
        <ele>576.0</ele>
        <time>2020-08-12T17:39:14Z</time>
      </trkpt>
      <trkpt lat="42.272428" lon="-0.683445">
        <ele>576.0</ele>
        <time>2020-08-12T17:39:15Z</time>
      </trkpt>
      <trkpt lat="42.272684" lon="-0.683597">
        <ele>576.4</ele>
        <time>2020-08-12T17:39:16Z</time>
      </trkpt>
      <trkpt lat="42.27296" lon="-0.683844">
        <ele>576.4</ele>
        <time>2020-08-12T17:39:18Z</time>
      </trkpt>
      <trkpt lat="42.274149" lon="-0.685265">
        <ele>572.0</ele>
        <time>2020-08-12T17:39:27Z</time>
      </trkpt>
      <trkpt lat="42.274736" lon="-0.686029">
        <ele>575.2</ele>
        <time>2020-08-12T17:39:32Z</time>
      </trkpt>
      <trkpt lat="42.274881" lon="-0.686321">
        <ele>575.2</ele>
        <time>2020-08-12T17:39:33Z</time>
      </trkpt>
      <trkpt lat="42.274996" lon="-0.686686">
        <ele>577.4</ele>
        <time>2020-08-12T17:39:35Z</time>
      </trkpt>
      <trkpt lat="42.275043" lon="-0.686966">
        <ele>578.8</ele>
        <time>2020-08-12T17:39:36Z</time>
      </trkpt>
      <trkpt lat="42.275054" lon="-0.687226">
        <ele>578.8</ele>
        <time>2020-08-12T17:39:37Z</time>
      </trkpt>
      <trkpt lat="42.274971" lon="-0.688264">
        <ele>580.4</ele>
        <time>2020-08-12T17:39:41Z</time>
      </trkpt>
      <trkpt lat="42.274967" lon="-0.688701">
        <ele>583.4</ele>
        <time>2020-08-12T17:39:43Z</time>
      </trkpt>
      <trkpt lat="42.274987" lon="-0.688878">
        <ele>583.4</ele>
        <time>2020-08-12T17:39:44Z</time>
      </trkpt>
      <trkpt lat="42.275018" lon="-0.688994">
        <ele>585.2</ele>
        <time>2020-08-12T17:39:45Z</time>
      </trkpt>
      <trkpt lat="42.275165" lon="-0.68919">
        <ele>588.8</ele>
        <time>2020-08-12T17:39:46Z</time>
      </trkpt>
      <trkpt lat="42.275254" lon="-0.689239">
        <ele>588.8</ele>
        <time>2020-08-12T17:39:46Z</time>
      </trkpt>
      <trkpt lat="42.275444" lon="-0.689282">
        <ele>588.8</ele>
        <time>2020-08-12T17:39:47Z</time>
      </trkpt>
      <trkpt lat="42.278073" lon="-0.689485">
        <ele>587.6</ele>
        <time>2020-08-12T17:40:02Z</time>
      </trkpt>
      <trkpt lat="42.278296" lon="-0.689541">
        <ele>587.6</ele>
        <time>2020-08-12T17:40:03Z</time>
      </trkpt>
      <trkpt lat="42.278431" lon="-0.689655">
        <ele>583.8</ele>
        <time>2020-08-12T17:40:04Z</time>
      </trkpt>
      <trkpt lat="42.278492" lon="-0.689745">
        <ele>583.8</ele>
        <time>2020-08-12T17:40:05Z</time>
      </trkpt>
      <trkpt lat="42.278584" lon="-0.689984">
        <ele>583.8</ele>
        <time>2020-08-12T17:40:06Z</time>
      </trkpt>
      <trkpt lat="42.279046" lon="-0.692002">
        <ele>594.4</ele>
        <time>2020-08-12T17:40:15Z</time>
      </trkpt>
      <trkpt lat="42.279178" lon="-0.692514">
        <ele>575.2</ele>
        <time>2020-08-12T17:40:17Z</time>
      </trkpt>
      <trkpt lat="42.279351" lon="-0.693083">
        <ele>575.2</ele>
        <time>2020-08-12T17:40:20Z</time>
      </trkpt>
      <trkpt lat="42.279705" lon="-0.693975">
        <ele>578.6</ele>
        <time>2020-08-12T17:40:24Z</time>
      </trkpt>
      <trkpt lat="42.281116" lon="-0.697327">
        <ele>553.2</ele>
        <time>2020-08-12T17:40:40Z</time>
      </trkpt>
      <trkpt lat="42.282479" lon="-0.70076">
        <ele>547.6</ele>
        <time>2020-08-12T17:40:56Z</time>
      </trkpt>
      <trkpt lat="42.286452" lon="-0.710888">
        <ele>559.0</ele>
        <time>2020-08-12T17:41:44Z</time>
      </trkpt>
      <trkpt lat="42.286604" lon="-0.711207">
        <ele>559.0</ele>
        <time>2020-08-12T17:41:46Z</time>
      </trkpt>
      <trkpt lat="42.286935" lon="-0.7118">
        <ele>563.2</ele>
        <time>2020-08-12T17:41:49Z</time>
      </trkpt>
      <trkpt lat="42.287218" lon="-0.712233">
        <ele>563.2</ele>
        <time>2020-08-12T17:41:51Z</time>
      </trkpt>
      <trkpt lat="42.290907" lon="-0.717643">
        <ele>574.2</ele>
        <time>2020-08-12T17:42:22Z</time>
      </trkpt>
      <trkpt lat="42.291056" lon="-0.717907">
        <ele>574.2</ele>
        <time>2020-08-12T17:42:23Z</time>
      </trkpt>
      <trkpt lat="42.291174" lon="-0.718166">
        <ele>574.2</ele>
        <time>2020-08-12T17:42:24Z</time>
      </trkpt>
      <trkpt lat="42.291282" lon="-0.718464">
        <ele>576.6</ele>
        <time>2020-08-12T17:42:26Z</time>
      </trkpt>
      <trkpt lat="42.291366" lon="-0.718779">
        <ele>576.6</ele>
        <time>2020-08-12T17:42:27Z</time>
      </trkpt>
      <trkpt lat="42.291423" lon="-0.719101">
        <ele>576.6</ele>
        <time>2020-08-12T17:42:28Z</time>
      </trkpt>
      <trkpt lat="42.291536" lon="-0.720079">
        <ele>583.4</ele>
        <time>2020-08-12T17:42:33Z</time>
      </trkpt>
      <trkpt lat="42.291619" lon="-0.720545">
        <ele>583.4</ele>
        <time>2020-08-12T17:42:35Z</time>
      </trkpt>
      <trkpt lat="42.291735" lon="-0.72101">
        <ele>571.6</ele>
        <time>2020-08-12T17:42:37Z</time>
      </trkpt>
      <trkpt lat="42.293209" lon="-0.725892">
        <ele>570.2</ele>
        <time>2020-08-12T17:42:59Z</time>
      </trkpt>
      <trkpt lat="42.293583" lon="-0.726866">
        <ele>559.0</ele>
        <time>2020-08-12T17:43:03Z</time>
      </trkpt>
      <trkpt lat="42.293806" lon="-0.727375">
        <ele>559.0</ele>
        <time>2020-08-12T17:43:06Z</time>
      </trkpt>
      <trkpt lat="42.295438" lon="-0.730521">
        <ele>546.4</ele>
        <time>2020-08-12T17:43:22Z</time>
      </trkpt>
      <trkpt lat="42.295588" lon="-0.730784">
        <ele>546.4</ele>
        <time>2020-08-12T17:43:24Z</time>
      </trkpt>
      <trkpt lat="42.295588" lon="-0.730784">
        <ele>546.4</ele>
        <time>2020-08-12T17:43:24Z</time>
      </trkpt>
      <trkpt lat="42.295796" lon="-0.731086">
        <ele>557.2</ele>
        <time>2020-08-12T17:43:26Z</time>
      </trkpt>
      <trkpt lat="42.296178" lon="-0.731526">
        <ele>538.2</ele>
        <time>2020-08-12T17:43:29Z</time>
      </trkpt>
      <trkpt lat="42.296316" lon="-0.731663">
        <ele>538.2</ele>
        <time>2020-08-12T17:43:29Z</time>
      </trkpt>
      <trkpt lat="42.296609" lon="-0.731906">
        <ele>547.8</ele>
        <time>2020-08-12T17:43:31Z</time>
      </trkpt>
      <trkpt lat="42.297005" lon="-0.732165">
        <ele>533.4</ele>
        <time>2020-08-12T17:43:34Z</time>
      </trkpt>
      <trkpt lat="42.299589" lon="-0.733442">
        <ele>520.6</ele>
        <time>2020-08-12T17:43:48Z</time>
      </trkpt>
      <trkpt lat="42.299847" lon="-0.733587">
        <ele>520.6</ele>
        <time>2020-08-12T17:43:49Z</time>
      </trkpt>
      <trkpt lat="42.300067" lon="-0.733748">
        <ele>510.2</ele>
        <time>2020-08-12T17:43:50Z</time>
      </trkpt>
      <trkpt lat="42.300236" lon="-0.733895">
        <ele>510.2</ele>
        <time>2020-08-12T17:43:52Z</time>
      </trkpt>
      <trkpt lat="42.300406" lon="-0.734075">
        <ele>510.2</ele>
        <time>2020-08-12T17:43:53Z</time>
      </trkpt>
      <trkpt lat="42.300565" lon="-0.734281">
        <ele>511.4</ele>
        <time>2020-08-12T17:43:54Z</time>
      </trkpt>
      <trkpt lat="42.300712" lon="-0.734507">
        <ele>511.4</ele>
        <time>2020-08-12T17:43:55Z</time>
      </trkpt>
      <trkpt lat="42.300849" lon="-0.734778">
        <ele>512.0</ele>
        <time>2020-08-12T17:43:56Z</time>
      </trkpt>
      <trkpt lat="42.30097" lon="-0.73507">
        <ele>510.8</ele>
        <time>2020-08-12T17:43:57Z</time>
      </trkpt>
      <trkpt lat="42.301073" lon="-0.735445">
        <ele>510.8</ele>
        <time>2020-08-12T17:43:59Z</time>
      </trkpt>
      <trkpt lat="42.301148" lon="-0.735802">
        <ele>510.8</ele>
        <time>2020-08-12T17:44:00Z</time>
      </trkpt>
      <trkpt lat="42.301325" lon="-0.736843">
        <ele>514.6</ele>
        <time>2020-08-12T17:44:04Z</time>
      </trkpt>
      <trkpt lat="42.301483" lon="-0.737564">
        <ele>518.0</ele>
        <time>2020-08-12T17:44:07Z</time>
      </trkpt>
      <trkpt lat="42.3017" lon="-0.738221">
        <ele>527.0</ele>
        <time>2020-08-12T17:44:10Z</time>
      </trkpt>
      <trkpt lat="42.301829" lon="-0.738554">
        <ele>528.4</ele>
        <time>2020-08-12T17:44:11Z</time>
      </trkpt>
      <trkpt lat="42.301974" lon="-0.738868">
        <ele>528.4</ele>
        <time>2020-08-12T17:44:13Z</time>
      </trkpt>
      <trkpt lat="42.302148" lon="-0.739195">
        <ele>529.2</ele>
        <time>2020-08-12T17:44:14Z</time>
      </trkpt>
      <trkpt lat="42.302317" lon="-0.739471">
        <ele>529.2</ele>
        <time>2020-08-12T17:44:16Z</time>
      </trkpt>
      <trkpt lat="42.305305" lon="-0.744193">
        <ele>500.4</ele>
        <time>2020-08-12T17:44:39Z</time>
      </trkpt>
      <trkpt lat="42.305516" lon="-0.744482">
        <ele>500.4</ele>
        <time>2020-08-12T17:44:41Z</time>
      </trkpt>
      <trkpt lat="42.306191" lon="-0.745283">
        <ele>498.4</ele>
        <time>2020-08-12T17:44:45Z</time>
      </trkpt>
      <trkpt lat="42.311033" lon="-0.75094">
        <ele>485.4</ele>
        <time>2020-08-12T17:45:18Z</time>
      </trkpt>
      <trkpt lat="42.311425" lon="-0.751343">
        <ele>485.4</ele>
        <time>2020-08-12T17:45:21Z</time>
      </trkpt>
      <trkpt lat="42.311829" lon="-0.751687">
        <ele>480.8</ele>
        <time>2020-08-12T17:45:23Z</time>
      </trkpt>
      <trkpt lat="42.312053" lon="-0.751841">
        <ele>480.8</ele>
        <time>2020-08-12T17:45:24Z</time>
      </trkpt>
      <trkpt lat="42.312581" lon="-0.752146">
        <ele>481.0</ele>
        <time>2020-08-12T17:45:27Z</time>
      </trkpt>
      <trkpt lat="42.312868" lon="-0.752276">
        <ele>481.0</ele>
        <time>2020-08-12T17:45:29Z</time>
      </trkpt>
      <trkpt lat="42.313458" lon="-0.752483">
        <ele>480.0</ele>
        <time>2020-08-12T17:45:32Z</time>
      </trkpt>
      <trkpt lat="42.314515" lon="-0.752776">
        <ele>464.2</ele>
        <time>2020-08-12T17:45:37Z</time>
      </trkpt>
      <trkpt lat="42.314688" lon="-0.752882">
        <ele>464.2</ele>
        <time>2020-08-12T17:45:38Z</time>
      </trkpt>
      <trkpt lat="42.314969" lon="-0.753149">
        <ele>464.2</ele>
        <time>2020-08-12T17:45:40Z</time>
      </trkpt>
      <trkpt lat="42.315092" lon="-0.75324">
        <ele>468.4</ele>
        <time>2020-08-12T17:45:41Z</time>
      </trkpt>
      <trkpt lat="42.315486" lon="-0.753377">
        <ele>455.6</ele>
        <time>2020-08-12T17:45:43Z</time>
      </trkpt>
      <trkpt lat="42.315621" lon="-0.753481">
        <ele>455.6</ele>
        <time>2020-08-12T17:45:44Z</time>
      </trkpt>
      <trkpt lat="42.315974" lon="-0.753822">
        <ele>460.8</ele>
        <time>2020-08-12T17:45:46Z</time>
      </trkpt>
      <trkpt lat="42.316047" lon="-0.753875">
        <ele>460.8</ele>
        <time>2020-08-12T17:45:47Z</time>
      </trkpt>
      <trkpt lat="42.316179" lon="-0.753945">
        <ele>460.8</ele>
        <time>2020-08-12T17:45:47Z</time>
      </trkpt>
      <trkpt lat="42.31647" lon="-0.754044">
        <ele>460.8</ele>
        <time>2020-08-12T17:45:49Z</time>
      </trkpt>
      <trkpt lat="42.316635" lon="-0.754164">
        <ele>460.8</ele>
        <time>2020-08-12T17:45:50Z</time>
      </trkpt>
      <trkpt lat="42.316771" lon="-0.754357">
        <ele>458.2</ele>
        <time>2020-08-12T17:45:51Z</time>
      </trkpt>
      <trkpt lat="42.317141" lon="-0.755117">
        <ele>460.0</ele>
        <time>2020-08-12T17:45:54Z</time>
      </trkpt>
      <trkpt lat="42.317215" lon="-0.755247">
        <ele>460.0</ele>
        <time>2020-08-12T17:45:55Z</time>
      </trkpt>
      <trkpt lat="42.317292" lon="-0.755347">
        <ele>460.0</ele>
        <time>2020-08-12T17:45:55Z</time>
      </trkpt>
      <trkpt lat="42.317463" lon="-0.755494">
        <ele>460.0</ele>
        <time>2020-08-12T17:45:56Z</time>
      </trkpt>
      <trkpt lat="42.317563" lon="-0.755548">
        <ele>456.6</ele>
        <time>2020-08-12T17:45:57Z</time>
      </trkpt>
      <trkpt lat="42.317759" lon="-0.755601">
        <ele>456.6</ele>
        <time>2020-08-12T17:45:58Z</time>
      </trkpt>
      <trkpt lat="42.319363" lon="-0.755514">
        <ele>454.8</ele>
        <time>2020-08-12T17:46:06Z</time>
      </trkpt>
      <trkpt lat="42.319509" lon="-0.755485">
        <ele>454.8</ele>
        <time>2020-08-12T17:46:07Z</time>
      </trkpt>
      <trkpt lat="42.319758" lon="-0.755383">
        <ele>454.8</ele>
        <time>2020-08-12T17:46:08Z</time>
      </trkpt>
      <trkpt lat="42.319946" lon="-0.755244">
        <ele>454.8</ele>
        <time>2020-08-12T17:46:09Z</time>
      </trkpt>
      <trkpt lat="42.320108" lon="-0.755057">
        <ele>467.4</ele>
        <time>2020-08-12T17:46:11Z</time>
      </trkpt>
      <trkpt lat="42.320242" lon="-0.754829">
        <ele>462.4</ele>
        <time>2020-08-12T17:46:12Z</time>
      </trkpt>
      <trkpt lat="42.320873" lon="-0.753467">
        <ele>472.0</ele>
        <time>2020-08-12T17:46:18Z</time>
      </trkpt>
      <trkpt lat="42.320986" lon="-0.75329">
        <ele>462.6</ele>
        <time>2020-08-12T17:46:19Z</time>
      </trkpt>
      <trkpt lat="42.321106" lon="-0.753183">
        <ele>462.6</ele>
        <time>2020-08-12T17:46:20Z</time>
      </trkpt>
      <trkpt lat="42.321232" lon="-0.753129">
        <ele>462.6</ele>
        <time>2020-08-12T17:46:20Z</time>
      </trkpt>
      <trkpt lat="42.321301" lon="-0.753129">
        <ele>462.6</ele>
        <time>2020-08-12T17:46:21Z</time>
      </trkpt>
      <trkpt lat="42.321495" lon="-0.753181">
        <ele>462.6</ele>
        <time>2020-08-12T17:46:22Z</time>
      </trkpt>
      <trkpt lat="42.321654" lon="-0.753184">
        <ele>462.6</ele>
        <time>2020-08-12T17:46:22Z</time>
      </trkpt>
      <trkpt lat="42.321806" lon="-0.753211">
        <ele>473.6</ele>
        <time>2020-08-12T17:46:23Z</time>
      </trkpt>
      <trkpt lat="42.321944" lon="-0.753284">
        <ele>473.6</ele>
        <time>2020-08-12T17:46:24Z</time>
      </trkpt>
      <trkpt lat="42.322005" lon="-0.753335">
        <ele>481.4</ele>
        <time>2020-08-12T17:46:25Z</time>
      </trkpt>
      <trkpt lat="42.322138" lon="-0.753493">
        <ele>481.4</ele>
        <time>2020-08-12T17:46:26Z</time>
      </trkpt>
      <trkpt lat="42.322192" lon="-0.753589">
        <ele>481.4</ele>
        <time>2020-08-12T17:46:26Z</time>
      </trkpt>
      <trkpt lat="42.322251" lon="-0.75378">
        <ele>481.4</ele>
        <time>2020-08-12T17:46:27Z</time>
      </trkpt>
      <trkpt lat="42.322237" lon="-0.754328">
        <ele>486.8</ele>
        <time>2020-08-12T17:46:29Z</time>
      </trkpt>
      <trkpt lat="42.322281" lon="-0.754525">
        <ele>486.8</ele>
        <time>2020-08-12T17:46:30Z</time>
      </trkpt>
      <trkpt lat="42.322318" lon="-0.754615">
        <ele>486.8</ele>
        <time>2020-08-12T17:46:30Z</time>
      </trkpt>
      <trkpt lat="42.322444" lon="-0.754746">
        <ele>486.8</ele>
        <time>2020-08-12T17:46:31Z</time>
      </trkpt>
      <trkpt lat="42.32269" lon="-0.754875">
        <ele>485.6</ele>
        <time>2020-08-12T17:46:32Z</time>
      </trkpt>
      <trkpt lat="42.322804" lon="-0.754979">
        <ele>485.6</ele>
        <time>2020-08-12T17:46:33Z</time>
      </trkpt>
      <trkpt lat="42.322875" lon="-0.75514">
        <ele>489.2</ele>
        <time>2020-08-12T17:46:34Z</time>
      </trkpt>
      <trkpt lat="42.322987" lon="-0.755679">
        <ele>489.2</ele>
        <time>2020-08-12T17:46:36Z</time>
      </trkpt>
      <trkpt lat="42.323035" lon="-0.755813">
        <ele>489.2</ele>
        <time>2020-08-12T17:46:36Z</time>
      </trkpt>
      <trkpt lat="42.32309" lon="-0.755913">
        <ele>500.8</ele>
        <time>2020-08-12T17:46:37Z</time>
      </trkpt>
      <trkpt lat="42.32324" lon="-0.756084">
        <ele>500.8</ele>
        <time>2020-08-12T17:46:38Z</time>
      </trkpt>
      <trkpt lat="42.32397" lon="-0.75669">
        <ele>514.4</ele>
        <time>2020-08-12T17:46:42Z</time>
      </trkpt>
      <trkpt lat="42.324078" lon="-0.756754">
        <ele>514.4</ele>
        <time>2020-08-12T17:46:43Z</time>
      </trkpt>
      <trkpt lat="42.324164" lon="-0.756781">
        <ele>514.4</ele>
        <time>2020-08-12T17:46:44Z</time>
      </trkpt>
      <trkpt lat="42.32424" lon="-0.756789">
        <ele>506.6</ele>
        <time>2020-08-12T17:46:44Z</time>
      </trkpt>
      <trkpt lat="42.324452" lon="-0.756742">
        <ele>506.6</ele>
        <time>2020-08-12T17:46:45Z</time>
      </trkpt>
      <trkpt lat="42.32498" lon="-0.756404">
        <ele>492.8</ele>
        <time>2020-08-12T17:46:48Z</time>
      </trkpt>
      <trkpt lat="42.325133" lon="-0.756364">
        <ele>492.6</ele>
        <time>2020-08-12T17:46:49Z</time>
      </trkpt>
      <trkpt lat="42.325304" lon="-0.756408">
        <ele>492.6</ele>
        <time>2020-08-12T17:46:50Z</time>
      </trkpt>
      <trkpt lat="42.325475" lon="-0.756506">
        <ele>492.6</ele>
        <time>2020-08-12T17:46:51Z</time>
      </trkpt>
      <trkpt lat="42.325936" lon="-0.756908">
        <ele>501.0</ele>
        <time>2020-08-12T17:46:54Z</time>
      </trkpt>
      <trkpt lat="42.326026" lon="-0.756959">
        <ele>501.0</ele>
        <time>2020-08-12T17:46:54Z</time>
      </trkpt>
      <trkpt lat="42.326121" lon="-0.756978">
        <ele>501.0</ele>
        <time>2020-08-12T17:46:56Z</time>
      </trkpt>
      <trkpt lat="42.326121" lon="-0.756978">
        <ele>501.0</ele>
        <time>2020-08-12T17:46:56Z</time>
      </trkpt>
      <trkpt lat="42.326328" lon="-0.756953">
        <ele>501.0</ele>
        <time>2020-08-12T17:46:57Z</time>
      </trkpt>
      <trkpt lat="42.326529" lon="-0.756851">
        <ele>501.0</ele>
        <time>2020-08-12T17:46:58Z</time>
      </trkpt>
      <trkpt lat="42.333203" lon="-0.752782">
        <ele>505.0</ele>
        <time>2020-08-12T17:47:37Z</time>
      </trkpt>
      <trkpt lat="42.333517" lon="-0.752551">
        <ele>509.8</ele>
        <time>2020-08-12T17:47:39Z</time>
      </trkpt>
      <trkpt lat="42.3337" lon="-0.75239">
        <ele>506.0</ele>
        <time>2020-08-12T17:47:40Z</time>
      </trkpt>
      <trkpt lat="42.335441" lon="-0.750326">
        <ele>510.8</ele>
        <time>2020-08-12T17:47:52Z</time>
      </trkpt>
      <trkpt lat="42.335981" lon="-0.749727">
        <ele>515.6</ele>
        <time>2020-08-12T17:47:56Z</time>
      </trkpt>
      <trkpt lat="42.336189" lon="-0.749531">
        <ele>515.6</ele>
        <time>2020-08-12T17:47:58Z</time>
      </trkpt>
      <trkpt lat="42.337171" lon="-0.748801">
        <ele>511.6</ele>
        <time>2020-08-12T17:48:03Z</time>
      </trkpt>
      <trkpt lat="42.339707" lon="-0.746267">
        <ele>502.4</ele>
        <time>2020-08-12T17:48:20Z</time>
      </trkpt>
      <trkpt lat="42.340063" lon="-0.746007">
        <ele>516.6</ele>
        <time>2020-08-12T17:48:22Z</time>
      </trkpt>
      <trkpt lat="42.340285" lon="-0.745891">
        <ele>516.6</ele>
        <time>2020-08-12T17:48:24Z</time>
      </trkpt>
      <trkpt lat="42.342874" lon="-0.745008">
        <ele>514.2</ele>
        <time>2020-08-12T17:48:38Z</time>
      </trkpt>
      <trkpt lat="42.343113" lon="-0.744906">
        <ele>504.4</ele>
        <time>2020-08-12T17:48:39Z</time>
      </trkpt>
      <trkpt lat="42.343342" lon="-0.744781">
        <ele>510.8</ele>
        <time>2020-08-12T17:48:41Z</time>
      </trkpt>
      <trkpt lat="42.343709" lon="-0.744505">
        <ele>510.8</ele>
        <time>2020-08-12T17:48:43Z</time>
      </trkpt>
      <trkpt lat="42.344962" lon="-0.743254">
        <ele>508.6</ele>
        <time>2020-08-12T17:48:51Z</time>
      </trkpt>
      <trkpt lat="42.345274" lon="-0.743003">
        <ele>511.8</ele>
        <time>2020-08-12T17:48:53Z</time>
      </trkpt>
      <trkpt lat="42.346353" lon="-0.742427">
        <ele>511.4</ele>
        <time>2020-08-12T17:48:59Z</time>
      </trkpt>
      <trkpt lat="42.347668" lon="-0.741835">
        <ele>512.6</ele>
        <time>2020-08-12T17:49:07Z</time>
      </trkpt>
      <trkpt lat="42.347845" lon="-0.741709">
        <ele>512.6</ele>
        <time>2020-08-12T17:49:08Z</time>
      </trkpt>
      <trkpt lat="42.349635" lon="-0.740168">
        <ele>512.8</ele>
        <time>2020-08-12T17:49:19Z</time>
      </trkpt>
      <trkpt lat="42.349858" lon="-0.740021">
        <ele>512.8</ele>
        <time>2020-08-12T17:49:20Z</time>
      </trkpt>
      <trkpt lat="42.354439" lon="-0.737999">
        <ele>521.0</ele>
        <time>2020-08-12T17:49:46Z</time>
      </trkpt>
      <trkpt lat="42.354709" lon="-0.737919">
        <ele>521.0</ele>
        <time>2020-08-12T17:49:47Z</time>
      </trkpt>
      <trkpt lat="42.354937" lon="-0.737913">
        <ele>521.0</ele>
        <time>2020-08-12T17:49:48Z</time>
      </trkpt>
      <trkpt lat="42.355096" lon="-0.737963">
        <ele>516.0</ele>
        <time>2020-08-12T17:49:49Z</time>
      </trkpt>
      <trkpt lat="42.355427" lon="-0.73819">
        <ele>516.0</ele>
        <time>2020-08-12T17:49:51Z</time>
      </trkpt>
      <trkpt lat="42.355536" lon="-0.7382">
        <ele>516.0</ele>
        <time>2020-08-12T17:49:52Z</time>
      </trkpt>
      <trkpt lat="42.355757" lon="-0.738133">
        <ele>516.0</ele>
        <time>2020-08-12T17:49:53Z</time>
      </trkpt>
      <trkpt lat="42.355871" lon="-0.738179">
        <ele>499.8</ele>
        <time>2020-08-12T17:49:54Z</time>
      </trkpt>
      <trkpt lat="42.355921" lon="-0.738234">
        <ele>499.8</ele>
        <time>2020-08-12T17:49:54Z</time>
      </trkpt>
      <trkpt lat="42.355963" lon="-0.738298">
        <ele>499.8</ele>
        <time>2020-08-12T17:49:55Z</time>
      </trkpt>
      <trkpt lat="42.356026" lon="-0.73846">
        <ele>504.8</ele>
        <time>2020-08-12T17:49:56Z</time>
      </trkpt>
      <trkpt lat="42.35604" lon="-0.738537">
        <ele>504.8</ele>
        <time>2020-08-12T17:49:56Z</time>
      </trkpt>
      <trkpt lat="42.356022" lon="-0.73871">
        <ele>504.8</ele>
        <time>2020-08-12T17:49:57Z</time>
      </trkpt>
      <trkpt lat="42.355954" lon="-0.738916">
        <ele>504.8</ele>
        <time>2020-08-12T17:49:57Z</time>
      </trkpt>
      <trkpt lat="42.355693" lon="-0.739561">
        <ele>532.8</ele>
        <time>2020-08-12T17:50:01Z</time>
      </trkpt>
      <trkpt lat="42.355635" lon="-0.739738">
        <ele>532.8</ele>
        <time>2020-08-12T17:50:01Z</time>
      </trkpt>
      <trkpt lat="42.355622" lon="-0.739845">
        <ele>532.8</ele>
        <time>2020-08-12T17:50:02Z</time>
      </trkpt>
      <trkpt lat="42.355629" lon="-0.740092">
        <ele>542.8</ele>
        <time>2020-08-12T17:50:03Z</time>
      </trkpt>
      <trkpt lat="42.355694" lon="-0.740349">
        <ele>542.8</ele>
        <time>2020-08-12T17:50:04Z</time>
      </trkpt>
      <trkpt lat="42.355916" lon="-0.740799">
        <ele>517.6</ele>
        <time>2020-08-12T17:50:06Z</time>
      </trkpt>
      <trkpt lat="42.355984" lon="-0.740889">
        <ele>533.0</ele>
        <time>2020-08-12T17:50:07Z</time>
      </trkpt>
      <trkpt lat="42.35615" lon="-0.741025">
        <ele>533.0</ele>
        <time>2020-08-12T17:50:08Z</time>
      </trkpt>
      <trkpt lat="42.356311" lon="-0.741098">
        <ele>533.0</ele>
        <time>2020-08-12T17:50:09Z</time>
      </trkpt>
      <trkpt lat="42.356442" lon="-0.741096">
        <ele>533.0</ele>
        <time>2020-08-12T17:50:10Z</time>
      </trkpt>
      <trkpt lat="42.35664" lon="-0.741049">
        <ele>533.0</ele>
        <time>2020-08-12T17:50:11Z</time>
      </trkpt>
      <trkpt lat="42.3567" lon="-0.741059">
        <ele>515.0</ele>
        <time>2020-08-12T17:50:12Z</time>
      </trkpt>
      <trkpt lat="42.357012" lon="-0.741238">
        <ele>515.0</ele>
        <time>2020-08-12T17:50:14Z</time>
      </trkpt>
      <trkpt lat="42.357074" lon="-0.741253">
        <ele>515.0</ele>
        <time>2020-08-12T17:50:14Z</time>
      </trkpt>
      <trkpt lat="42.357294" lon="-0.741233">
        <ele>515.0</ele>
        <time>2020-08-12T17:50:15Z</time>
      </trkpt>
      <trkpt lat="42.357348" lon="-0.741245">
        <ele>515.0</ele>
        <time>2020-08-12T17:50:15Z</time>
      </trkpt>
      <trkpt lat="42.357428" lon="-0.741327">
        <ele>515.0</ele>
        <time>2020-08-12T17:50:16Z</time>
      </trkpt>
      <trkpt lat="42.357456" lon="-0.741398">
        <ele>515.0</ele>
        <time>2020-08-12T17:50:16Z</time>
      </trkpt>
      <trkpt lat="42.357525" lon="-0.74174">
        <ele>511.2</ele>
        <time>2020-08-12T17:50:18Z</time>
      </trkpt>
      <trkpt lat="42.357583" lon="-0.741853">
        <ele>511.2</ele>
        <time>2020-08-12T17:50:18Z</time>
      </trkpt>
      <trkpt lat="42.35771" lon="-0.742034">
        <ele>511.2</ele>
        <time>2020-08-12T17:50:19Z</time>
      </trkpt>
      <trkpt lat="42.357764" lon="-0.742149">
        <ele>511.2</ele>
        <time>2020-08-12T17:50:20Z</time>
      </trkpt>
      <trkpt lat="42.357931" lon="-0.74278">
        <ele>528.0</ele>
        <time>2020-08-12T17:50:23Z</time>
      </trkpt>
      <trkpt lat="42.358067" lon="-0.743149">
        <ele>528.0</ele>
        <time>2020-08-12T17:50:24Z</time>
      </trkpt>
      <trkpt lat="42.358636" lon="-0.744366">
        <ele>535.0</ele>
        <time>2020-08-12T17:50:30Z</time>
      </trkpt>
      <trkpt lat="42.358799" lon="-0.74462">
        <ele>535.0</ele>
        <time>2020-08-12T17:50:31Z</time>
      </trkpt>
      <trkpt lat="42.359342" lon="-0.74516">
        <ele>529.2</ele>
        <time>2020-08-12T17:50:35Z</time>
      </trkpt>
      <trkpt lat="42.359449" lon="-0.745246">
        <ele>529.2</ele>
        <time>2020-08-12T17:50:35Z</time>
      </trkpt>
      <trkpt lat="42.359977" lon="-0.745565">
        <ele>529.2</ele>
        <time>2020-08-12T17:50:38Z</time>
      </trkpt>
      <trkpt lat="42.360059" lon="-0.745578">
        <ele>513.0</ele>
        <time>2020-08-12T17:50:39Z</time>
      </trkpt>
      <trkpt lat="42.361176" lon="-0.745342">
        <ele>524.4</ele>
        <time>2020-08-12T17:50:45Z</time>
      </trkpt>
      <trkpt lat="42.361392" lon="-0.745235">
        <ele>524.4</ele>
        <time>2020-08-12T17:50:47Z</time>
      </trkpt>
      <trkpt lat="42.362199" lon="-0.74447">
        <ele>511.0</ele>
        <time>2020-08-12T17:50:52Z</time>
      </trkpt>
      <trkpt lat="42.362386" lon="-0.744239">
        <ele>511.0</ele>
        <time>2020-08-12T17:50:53Z</time>
      </trkpt>
      <trkpt lat="42.36251" lon="-0.744127">
        <ele>499.8</ele>
        <time>2020-08-12T17:50:54Z</time>
      </trkpt>
      <trkpt lat="42.362855" lon="-0.744024">
        <ele>499.8</ele>
        <time>2020-08-12T17:50:56Z</time>
      </trkpt>
      <trkpt lat="42.363218" lon="-0.744011">
        <ele>499.8</ele>
        <time>2020-08-12T17:50:58Z</time>
      </trkpt>
      <trkpt lat="42.36338" lon="-0.743982">
        <ele>508.2</ele>
        <time>2020-08-12T17:50:59Z</time>
      </trkpt>
      <trkpt lat="42.363637" lon="-0.74379">
        <ele>508.2</ele>
        <time>2020-08-12T17:51:00Z</time>
      </trkpt>
      <trkpt lat="42.363702" lon="-0.743719">
        <ele>508.2</ele>
        <time>2020-08-12T17:51:01Z</time>
      </trkpt>
      <trkpt lat="42.363808" lon="-0.743518">
        <ele>508.2</ele>
        <time>2020-08-12T17:51:02Z</time>
      </trkpt>
      <trkpt lat="42.364016" lon="-0.742864">
        <ele>494.4</ele>
        <time>2020-08-12T17:51:05Z</time>
      </trkpt>
      <trkpt lat="42.364102" lon="-0.742436">
        <ele>497.2</ele>
        <time>2020-08-12T17:51:06Z</time>
      </trkpt>
      <trkpt lat="42.364237" lon="-0.741491">
        <ele>494.0</ele>
        <time>2020-08-12T17:51:10Z</time>
      </trkpt>
      <trkpt lat="42.364273" lon="-0.741328">
        <ele>494.0</ele>
        <time>2020-08-12T17:51:11Z</time>
      </trkpt>
      <trkpt lat="42.364379" lon="-0.741039">
        <ele>494.0</ele>
        <time>2020-08-12T17:51:12Z</time>
      </trkpt>
      <trkpt lat="42.364466" lon="-0.740867">
        <ele>494.0</ele>
        <time>2020-08-12T17:51:13Z</time>
      </trkpt>
      <trkpt lat="42.36457" lon="-0.740768">
        <ele>493.6</ele>
        <time>2020-08-12T17:51:14Z</time>
      </trkpt>
      <trkpt lat="42.364717" lon="-0.74071">
        <ele>493.6</ele>
        <time>2020-08-12T17:51:14Z</time>
      </trkpt>
      <trkpt lat="42.365011" lon="-0.740653">
        <ele>497.0</ele>
        <time>2020-08-12T17:51:16Z</time>
      </trkpt>
      <trkpt lat="42.365133" lon="-0.74059">
        <ele>497.0</ele>
        <time>2020-08-12T17:51:17Z</time>
      </trkpt>
      <trkpt lat="42.365308" lon="-0.740355">
        <ele>497.0</ele>
        <time>2020-08-12T17:51:18Z</time>
      </trkpt>
      <trkpt lat="42.365423" lon="-0.740158">
        <ele>497.0</ele>
        <time>2020-08-12T17:51:19Z</time>
      </trkpt>
      <trkpt lat="42.365526" lon="-0.739883">
        <ele>491.8</ele>
        <time>2020-08-12T17:51:20Z</time>
      </trkpt>
      <trkpt lat="42.36576" lon="-0.73908">
        <ele>494.8</ele>
        <time>2020-08-12T17:51:24Z</time>
      </trkpt>
      <trkpt lat="42.365801" lon="-0.738909">
        <ele>494.8</ele>
        <time>2020-08-12T17:51:24Z</time>
      </trkpt>
      <trkpt lat="42.365898" lon="-0.738316">
        <ele>495.4</ele>
        <time>2020-08-12T17:51:27Z</time>
      </trkpt>
      <trkpt lat="42.366021" lon="-0.737963">
        <ele>495.4</ele>
        <time>2020-08-12T17:51:28Z</time>
      </trkpt>
      <trkpt lat="42.366095" lon="-0.737802">
        <ele>495.4</ele>
        <time>2020-08-12T17:51:29Z</time>
      </trkpt>
      <trkpt lat="42.366201" lon="-0.737655">
        <ele>495.4</ele>
        <time>2020-08-12T17:51:30Z</time>
      </trkpt>
      <trkpt lat="42.366267" lon="-0.737599">
        <ele>495.4</ele>
        <time>2020-08-12T17:51:30Z</time>
      </trkpt>
      <trkpt lat="42.366576" lon="-0.737448">
        <ele>496.6</ele>
        <time>2020-08-12T17:51:32Z</time>
      </trkpt>
      <trkpt lat="42.366935" lon="-0.737413">
        <ele>498.8</ele>
        <time>2020-08-12T17:51:34Z</time>
      </trkpt>
      <trkpt lat="42.36706" lon="-0.737379">
        <ele>498.8</ele>
        <time>2020-08-12T17:51:35Z</time>
      </trkpt>
      <trkpt lat="42.367486" lon="-0.737103">
        <ele>498.8</ele>
        <time>2020-08-12T17:51:37Z</time>
      </trkpt>
      <trkpt lat="42.367707" lon="-0.737078">
        <ele>506.2</ele>
        <time>2020-08-12T17:51:38Z</time>
      </trkpt>
      <trkpt lat="42.368036" lon="-0.737127">
        <ele>506.2</ele>
        <time>2020-08-12T17:51:40Z</time>
      </trkpt>
      <trkpt lat="42.368378" lon="-0.737027">
        <ele>506.8</ele>
        <time>2020-08-12T17:51:42Z</time>
      </trkpt>
      <trkpt lat="42.368595" lon="-0.737004">
        <ele>506.8</ele>
        <time>2020-08-12T17:51:43Z</time>
      </trkpt>
      <trkpt lat="42.368753" lon="-0.737039">
        <ele>506.8</ele>
        <time>2020-08-12T17:51:44Z</time>
      </trkpt>
      <trkpt lat="42.368822" lon="-0.737076">
        <ele>506.8</ele>
        <time>2020-08-12T17:51:44Z</time>
      </trkpt>
      <trkpt lat="42.368876" lon="-0.737131">
        <ele>506.8</ele>
        <time>2020-08-12T17:51:45Z</time>
      </trkpt>
      <trkpt lat="42.368999" lon="-0.737327">
        <ele>506.8</ele>
        <time>2020-08-12T17:51:46Z</time>
      </trkpt>
      <trkpt lat="42.369222" lon="-0.737772">
        <ele>511.6</ele>
        <time>2020-08-12T17:51:48Z</time>
      </trkpt>
      <trkpt lat="42.369941" lon="-0.739677">
        <ele>538.4</ele>
        <time>2020-08-12T17:51:56Z</time>
      </trkpt>
      <trkpt lat="42.370038" lon="-0.739849">
        <ele>511.4</ele>
        <time>2020-08-12T17:51:58Z</time>
      </trkpt>
      <trkpt lat="42.370099" lon="-0.739917">
        <ele>511.4</ele>
        <time>2020-08-12T17:51:58Z</time>
      </trkpt>
      <trkpt lat="42.3703" lon="-0.740059">
        <ele>521.8</ele>
        <time>2020-08-12T17:52:00Z</time>
      </trkpt>
      <trkpt lat="42.370413" lon="-0.740103">
        <ele>521.8</ele>
        <time>2020-08-12T17:52:00Z</time>
      </trkpt>
      <trkpt lat="42.37047" lon="-0.740105">
        <ele>521.8</ele>
        <time>2020-08-12T17:52:00Z</time>
      </trkpt>
      <trkpt lat="42.371119" lon="-0.739929">
        <ele>507.0</ele>
        <time>2020-08-12T17:52:04Z</time>
      </trkpt>
      <trkpt lat="42.371402" lon="-0.739874">
        <ele>507.0</ele>
        <time>2020-08-12T17:52:06Z</time>
      </trkpt>
      <trkpt lat="42.371488" lon="-0.739864">
        <ele>507.0</ele>
        <time>2020-08-12T17:52:06Z</time>
      </trkpt>
      <trkpt lat="42.37156" lon="-0.739881">
        <ele>507.0</ele>
        <time>2020-08-12T17:52:06Z</time>
      </trkpt>
      <trkpt lat="42.371615" lon="-0.739917">
        <ele>507.0</ele>
        <time>2020-08-12T17:52:07Z</time>
      </trkpt>
      <trkpt lat="42.371707" lon="-0.740042">
        <ele>526.2</ele>
        <time>2020-08-12T17:52:08Z</time>
      </trkpt>
      <trkpt lat="42.37185" lon="-0.740411">
        <ele>526.2</ele>
        <time>2020-08-12T17:52:10Z</time>
      </trkpt>
      <trkpt lat="42.371967" lon="-0.74076">
        <ele>526.2</ele>
        <time>2020-08-12T17:52:11Z</time>
      </trkpt>
      <trkpt lat="42.372161" lon="-0.741435">
        <ele>537.4</ele>
        <time>2020-08-12T17:52:14Z</time>
      </trkpt>
      <trkpt lat="42.372287" lon="-0.74169">
        <ele>545.0</ele>
        <time>2020-08-12T17:52:15Z</time>
      </trkpt>
      <trkpt lat="42.372718" lon="-0.742402">
        <ele>533.2</ele>
        <time>2020-08-12T17:52:19Z</time>
      </trkpt>
      <trkpt lat="42.372894" lon="-0.742658">
        <ele>552.4</ele>
        <time>2020-08-12T17:52:20Z</time>
      </trkpt>
      <trkpt lat="42.374628" lon="-0.7449">
        <ele>546.6</ele>
        <time>2020-08-12T17:52:33Z</time>
      </trkpt>
      <trkpt lat="42.374742" lon="-0.745027">
        <ele>576.6</ele>
        <time>2020-08-12T17:52:35Z</time>
      </trkpt>
      <trkpt lat="42.374961" lon="-0.745221">
        <ele>576.6</ele>
        <time>2020-08-12T17:52:36Z</time>
      </trkpt>
      <trkpt lat="42.375422" lon="-0.745485">
        <ele>545.4</ele>
        <time>2020-08-12T17:52:39Z</time>
      </trkpt>
      <trkpt lat="42.37554" lon="-0.745569">
        <ele>545.4</ele>
        <time>2020-08-12T17:52:40Z</time>
      </trkpt>
      <trkpt lat="42.375707" lon="-0.745747">
        <ele>545.4</ele>
        <time>2020-08-12T17:52:41Z</time>
      </trkpt>
      <trkpt lat="42.375783" lon="-0.745886">
        <ele>571.8</ele>
        <time>2020-08-12T17:52:43Z</time>
      </trkpt>
      <trkpt lat="42.375936" lon="-0.746249">
        <ele>543.6</ele>
        <time>2020-08-12T17:52:45Z</time>
      </trkpt>
      <trkpt lat="42.376" lon="-0.746369">
        <ele>543.6</ele>
        <time>2020-08-12T17:52:45Z</time>
      </trkpt>
      <trkpt lat="42.376176" lon="-0.746602">
        <ele>543.6</ele>
        <time>2020-08-12T17:52:47Z</time>
      </trkpt>
      <trkpt lat="42.376245" lon="-0.746666">
        <ele>543.6</ele>
        <time>2020-08-12T17:52:47Z</time>
      </trkpt>
      <trkpt lat="42.376355" lon="-0.746725">
        <ele>567.4</ele>
        <time>2020-08-12T17:52:48Z</time>
      </trkpt>
      <trkpt lat="42.376734" lon="-0.746647">
        <ele>525.6</ele>
        <time>2020-08-12T17:52:51Z</time>
      </trkpt>
      <trkpt lat="42.376798" lon="-0.746653">
        <ele>525.6</ele>
        <time>2020-08-12T17:52:51Z</time>
      </trkpt>
      <trkpt lat="42.37692" lon="-0.746751">
        <ele>548.2</ele>
        <time>2020-08-12T17:52:53Z</time>
      </trkpt>
      <trkpt lat="42.377176" lon="-0.747032">
        <ele>548.2</ele>
        <time>2020-08-12T17:52:55Z</time>
      </trkpt>
      <trkpt lat="42.377736" lon="-0.747352">
        <ele>538.4</ele>
        <time>2020-08-12T17:52:58Z</time>
      </trkpt>
      <trkpt lat="42.377906" lon="-0.747377">
        <ele>538.4</ele>
        <time>2020-08-12T17:52:59Z</time>
      </trkpt>
      <trkpt lat="42.378426" lon="-0.747367">
        <ele>538.2</ele>
        <time>2020-08-12T17:53:01Z</time>
      </trkpt>
      <trkpt lat="42.378607" lon="-0.747314">
        <ele>538.2</ele>
        <time>2020-08-12T17:53:02Z</time>
      </trkpt>
      <trkpt lat="42.378927" lon="-0.747089">
        <ele>538.2</ele>
        <time>2020-08-12T17:53:04Z</time>
      </trkpt>
      <trkpt lat="42.379097" lon="-0.747051">
        <ele>538.2</ele>
        <time>2020-08-12T17:53:05Z</time>
      </trkpt>
      <trkpt lat="42.379354" lon="-0.747028">
        <ele>544.6</ele>
        <time>2020-08-12T17:53:07Z</time>
      </trkpt>
      <trkpt lat="42.379591" lon="-0.746973">
        <ele>544.6</ele>
        <time>2020-08-12T17:53:08Z</time>
      </trkpt>
      <trkpt lat="42.379821" lon="-0.746889">
        <ele>544.6</ele>
        <time>2020-08-12T17:53:09Z</time>
      </trkpt>
      <trkpt lat="42.380453" lon="-0.746566">
        <ele>529.8</ele>
        <time>2020-08-12T17:53:13Z</time>
      </trkpt>
      <trkpt lat="42.380781" lon="-0.74631">
        <ele>529.8</ele>
        <time>2020-08-12T17:53:15Z</time>
      </trkpt>
      <trkpt lat="42.380937" lon="-0.746209">
        <ele>548.2</ele>
        <time>2020-08-12T17:53:16Z</time>
      </trkpt>
      <trkpt lat="42.381265" lon="-0.745917">
        <ele>548.2</ele>
        <time>2020-08-12T17:53:18Z</time>
      </trkpt>
      <trkpt lat="42.381506" lon="-0.745731">
        <ele>525.4</ele>
        <time>2020-08-12T17:53:20Z</time>
      </trkpt>
      <trkpt lat="42.381816" lon="-0.745402">
        <ele>552.6</ele>
        <time>2020-08-12T17:53:22Z</time>
      </trkpt>
      <trkpt lat="42.38204" lon="-0.745085">
        <ele>552.6</ele>
        <time>2020-08-12T17:53:24Z</time>
      </trkpt>
      <trkpt lat="42.382161" lon="-0.744795">
        <ele>533.2</ele>
        <time>2020-08-12T17:53:26Z</time>
      </trkpt>
      <trkpt lat="42.382461" lon="-0.743895">
        <ele>522.4</ele>
        <time>2020-08-12T17:53:30Z</time>
      </trkpt>
      <trkpt lat="42.382519" lon="-0.743662">
        <ele>553.6</ele>
        <time>2020-08-12T17:53:31Z</time>
      </trkpt>
      <trkpt lat="42.382578" lon="-0.743298">
        <ele>538.2</ele>
        <time>2020-08-12T17:53:33Z</time>
      </trkpt>
      <trkpt lat="42.382643" lon="-0.743134">
        <ele>538.2</ele>
        <time>2020-08-12T17:53:34Z</time>
      </trkpt>
      <trkpt lat="42.382811" lon="-0.742818">
        <ele>538.2</ele>
        <time>2020-08-12T17:53:35Z</time>
      </trkpt>
      <trkpt lat="42.382862" lon="-0.742679">
        <ele>538.2</ele>
        <time>2020-08-12T17:53:36Z</time>
      </trkpt>
      <trkpt lat="42.382961" lon="-0.742362">
        <ele>530.6</ele>
        <time>2020-08-12T17:53:37Z</time>
      </trkpt>
      <trkpt lat="42.383041" lon="-0.742007">
        <ele>530.6</ele>
        <time>2020-08-12T17:53:39Z</time>
      </trkpt>
      <trkpt lat="42.383114" lon="-0.741342">
        <ele>527.4</ele>
        <time>2020-08-12T17:53:41Z</time>
      </trkpt>
      <trkpt lat="42.383165" lon="-0.740407">
        <ele>528.4</ele>
        <time>2020-08-12T17:53:45Z</time>
      </trkpt>
      <trkpt lat="42.38315" lon="-0.73995">
        <ele>529.0</ele>
        <time>2020-08-12T17:53:47Z</time>
      </trkpt>
      <trkpt lat="42.383086" lon="-0.739274">
        <ele>529.0</ele>
        <time>2020-08-12T17:53:50Z</time>
      </trkpt>
      <trkpt lat="42.383101" lon="-0.739074">
        <ele>529.6</ele>
        <time>2020-08-12T17:53:50Z</time>
      </trkpt>
      <trkpt lat="42.383209" lon="-0.738559">
        <ele>529.6</ele>
        <time>2020-08-12T17:53:53Z</time>
      </trkpt>
      <trkpt lat="42.383511" lon="-0.737673">
        <ele>543.4</ele>
        <time>2020-08-12T17:53:56Z</time>
      </trkpt>
      <trkpt lat="42.383603" lon="-0.737565">
        <ele>543.4</ele>
        <time>2020-08-12T17:53:57Z</time>
      </trkpt>
      <trkpt lat="42.383649" lon="-0.737548">
        <ele>543.4</ele>
        <time>2020-08-12T17:53:57Z</time>
      </trkpt>
      <trkpt lat="42.38378" lon="-0.737549">
        <ele>543.4</ele>
        <time>2020-08-12T17:53:58Z</time>
      </trkpt>
      <trkpt lat="42.386924" lon="-0.738341">
        <ele>542.6</ele>
        <time>2020-08-12T17:54:15Z</time>
      </trkpt>
      <trkpt lat="42.38753" lon="-0.738762">
        <ele>542.6</ele>
        <time>2020-08-12T17:54:19Z</time>
      </trkpt>
      <trkpt lat="42.387723" lon="-0.738845">
        <ele>542.6</ele>
        <time>2020-08-12T17:54:20Z</time>
      </trkpt>
      <trkpt lat="42.387992" lon="-0.738833">
        <ele>542.6</ele>
        <time>2020-08-12T17:54:21Z</time>
      </trkpt>
      <trkpt lat="42.388479" lon="-0.738695">
        <ele>541.4</ele>
        <time>2020-08-12T17:54:24Z</time>
      </trkpt>
      <trkpt lat="42.388712" lon="-0.738644">
        <ele>541.4</ele>
        <time>2020-08-12T17:54:25Z</time>
      </trkpt>
      <trkpt lat="42.388923" lon="-0.738624">
        <ele>541.4</ele>
        <time>2020-08-12T17:54:26Z</time>
      </trkpt>
      <trkpt lat="42.389338" lon="-0.738625">
        <ele>540.0</ele>
        <time>2020-08-12T17:54:28Z</time>
      </trkpt>
      <trkpt lat="42.390863" lon="-0.738782">
        <ele>546.0</ele>
        <time>2020-08-12T17:54:45Z</time>
      </trkpt>
      <trkpt lat="42.390863" lon="-0.738782">
        <ele>546.0</ele>
        <time>2020-08-12T17:54:45Z</time>
      </trkpt>
      <trkpt lat="42.39104" lon="-0.738885">
        <ele>546.0</ele>
        <time>2020-08-12T17:54:46Z</time>
      </trkpt>
      <trkpt lat="42.391113" lon="-0.738973">
        <ele>546.0</ele>
        <time>2020-08-12T17:54:47Z</time>
      </trkpt>
      <trkpt lat="42.391251" lon="-0.739201">
        <ele>547.4</ele>
        <time>2020-08-12T17:54:48Z</time>
      </trkpt>
      <trkpt lat="42.391315" lon="-0.73938">
        <ele>547.4</ele>
        <time>2020-08-12T17:54:49Z</time>
      </trkpt>
      <trkpt lat="42.391351" lon="-0.739617">
        <ele>547.4</ele>
        <time>2020-08-12T17:54:50Z</time>
      </trkpt>
      <trkpt lat="42.391345" lon="-0.739758">
        <ele>547.4</ele>
        <time>2020-08-12T17:54:50Z</time>
      </trkpt>
      <trkpt lat="42.391285" lon="-0.740021">
        <ele>552.4</ele>
        <time>2020-08-12T17:54:51Z</time>
      </trkpt>
      <trkpt lat="42.391208" lon="-0.740192">
        <ele>552.4</ele>
        <time>2020-08-12T17:54:52Z</time>
      </trkpt>
      <trkpt lat="42.390494" lon="-0.741201">
        <ele>553.0</ele>
        <time>2020-08-12T17:54:57Z</time>
      </trkpt>
      <trkpt lat="42.390423" lon="-0.741376">
        <ele>553.0</ele>
        <time>2020-08-12T17:54:58Z</time>
      </trkpt>
      <trkpt lat="42.390314" lon="-0.741761">
        <ele>555.4</ele>
        <time>2020-08-12T17:55:00Z</time>
      </trkpt>
      <trkpt lat="42.390309" lon="-0.74198">
        <ele>555.4</ele>
        <time>2020-08-12T17:55:01Z</time>
      </trkpt>
      <trkpt lat="42.390762" lon="-0.744027">
        <ele>545.4</ele>
        <time>2020-08-12T17:55:09Z</time>
      </trkpt>
      <trkpt lat="42.390794" lon="-0.744118">
        <ele>545.4</ele>
        <time>2020-08-12T17:55:09Z</time>
      </trkpt>
      <trkpt lat="42.390915" lon="-0.744353">
        <ele>547.6</ele>
        <time>2020-08-12T17:55:10Z</time>
      </trkpt>
      <trkpt lat="42.392013" lon="-0.746229">
        <ele>541.4</ele>
        <time>2020-08-12T17:55:19Z</time>
      </trkpt>
      <trkpt lat="42.392118" lon="-0.746381">
        <ele>541.4</ele>
        <time>2020-08-12T17:55:20Z</time>
      </trkpt>
      <trkpt lat="42.39242" lon="-0.746714">
        <ele>539.0</ele>
        <time>2020-08-12T17:55:22Z</time>
      </trkpt>
      <trkpt lat="42.392924" lon="-0.747163">
        <ele>539.8</ele>
        <time>2020-08-12T17:55:25Z</time>
      </trkpt>
      <trkpt lat="42.393333" lon="-0.747472">
        <ele>539.8</ele>
        <time>2020-08-12T17:55:27Z</time>
      </trkpt>
      <trkpt lat="42.394555" lon="-0.748314">
        <ele>544.2</ele>
        <time>2020-08-12T17:55:34Z</time>
      </trkpt>
      <trkpt lat="42.394815" lon="-0.748535">
        <ele>540.8</ele>
        <time>2020-08-12T17:55:36Z</time>
      </trkpt>
      <trkpt lat="42.394997" lon="-0.7488">
        <ele>540.8</ele>
        <time>2020-08-12T17:55:37Z</time>
      </trkpt>
      <trkpt lat="42.395894" lon="-0.750461">
        <ele>544.2</ele>
        <time>2020-08-12T17:55:45Z</time>
      </trkpt>
      <trkpt lat="42.399337" lon="-0.757392">
        <ele>553.0</ele>
        <time>2020-08-12T17:56:17Z</time>
      </trkpt>
      <trkpt lat="42.399462" lon="-0.757688">
        <ele>547.8</ele>
        <time>2020-08-12T17:56:18Z</time>
      </trkpt>
      <trkpt lat="42.400545" lon="-0.76087">
        <ele>549.8</ele>
        <time>2020-08-12T17:56:31Z</time>
      </trkpt>
      <trkpt lat="42.400893" lon="-0.761797">
        <ele>552.4</ele>
        <time>2020-08-12T17:56:35Z</time>
      </trkpt>
      <trkpt lat="42.401651" lon="-0.763691">
        <ele>548.0</ele>
        <time>2020-08-12T17:56:43Z</time>
      </trkpt>
      <trkpt lat="42.401825" lon="-0.764103">
        <ele>555.0</ele>
        <time>2020-08-12T17:56:45Z</time>
      </trkpt>
      <trkpt lat="42.40201" lon="-0.764477">
        <ele>554.0</ele>
        <time>2020-08-12T17:56:47Z</time>
      </trkpt>
      <trkpt lat="42.402958" lon="-0.766317">
        <ele>552.6</ele>
        <time>2020-08-12T17:56:55Z</time>
      </trkpt>
      <trkpt lat="42.403105" lon="-0.766507">
        <ele>552.6</ele>
        <time>2020-08-12T17:56:56Z</time>
      </trkpt>
      <trkpt lat="42.404338" lon="-0.767906">
        <ele>560.4</ele>
        <time>2020-08-12T17:57:05Z</time>
      </trkpt>
      <trkpt lat="42.405066" lon="-0.768956">
        <ele>570.0</ele>
        <time>2020-08-12T17:57:10Z</time>
      </trkpt>
      <trkpt lat="42.405212" lon="-0.769222">
        <ele>563.4</ele>
        <time>2020-08-12T17:57:11Z</time>
      </trkpt>
      <trkpt lat="42.405256" lon="-0.769381">
        <ele>563.4</ele>
        <time>2020-08-12T17:57:12Z</time>
      </trkpt>
      <trkpt lat="42.405514" lon="-0.7708">
        <ele>561.6</ele>
        <time>2020-08-12T17:57:17Z</time>
      </trkpt>
      <trkpt lat="42.405777" lon="-0.772869">
        <ele>560.4</ele>
        <time>2020-08-12T17:57:25Z</time>
      </trkpt>
      <trkpt lat="42.405825" lon="-0.77317">
        <ele>560.4</ele>
        <time>2020-08-12T17:57:27Z</time>
      </trkpt>
      <trkpt lat="42.405888" lon="-0.773395">
        <ele>565.8</ele>
        <time>2020-08-12T17:57:27Z</time>
      </trkpt>
      <trkpt lat="42.40656" lon="-0.774923">
        <ele>563.2</ele>
        <time>2020-08-12T17:57:34Z</time>
      </trkpt>
      <trkpt lat="42.406764" lon="-0.775338">
        <ele>567.4</ele>
        <time>2020-08-12T17:57:36Z</time>
      </trkpt>
      <trkpt lat="42.408413" lon="-0.778184">
        <ele>575.4</ele>
        <time>2020-08-12T17:57:50Z</time>
      </trkpt>
      <trkpt lat="42.409105" lon="-0.779417">
        <ele>564.2</ele>
        <time>2020-08-12T17:57:56Z</time>
      </trkpt>
      <trkpt lat="42.409257" lon="-0.779779">
        <ele>576.8</ele>
        <time>2020-08-12T17:57:57Z</time>
      </trkpt>
      <trkpt lat="42.409683" lon="-0.781007">
        <ele>569.8</ele>
        <time>2020-08-12T17:58:02Z</time>
      </trkpt>
      <trkpt lat="42.409773" lon="-0.781336">
        <ele>569.8</ele>
        <time>2020-08-12T17:58:04Z</time>
      </trkpt>
      <trkpt lat="42.409812" lon="-0.781602">
        <ele>569.8</ele>
        <time>2020-08-12T17:58:05Z</time>
      </trkpt>
      <trkpt lat="42.409832" lon="-0.781892">
        <ele>569.6</ele>
        <time>2020-08-12T17:58:06Z</time>
      </trkpt>
      <trkpt lat="42.409826" lon="-0.782232">
        <ele>569.6</ele>
        <time>2020-08-12T17:58:07Z</time>
      </trkpt>
      <trkpt lat="42.409761" lon="-0.782718">
        <ele>570.8</ele>
        <time>2020-08-12T17:58:09Z</time>
      </trkpt>
      <trkpt lat="42.409159" lon="-0.784732">
        <ele>571.4</ele>
        <time>2020-08-12T17:58:17Z</time>
      </trkpt>
      <trkpt lat="42.408965" lon="-0.785479">
        <ele>573.0</ele>
        <time>2020-08-12T17:58:20Z</time>
      </trkpt>
      <trkpt lat="42.408837" lon="-0.786502">
        <ele>573.6</ele>
        <time>2020-08-12T17:58:24Z</time>
      </trkpt>
      <trkpt lat="42.40879" lon="-0.787272">
        <ele>573.8</ele>
        <time>2020-08-12T17:58:27Z</time>
      </trkpt>
      <trkpt lat="42.408838" lon="-0.787534">
        <ele>576.0</ele>
        <time>2020-08-12T17:58:28Z</time>
      </trkpt>
      <trkpt lat="42.408979" lon="-0.78783">
        <ele>576.0</ele>
        <time>2020-08-12T17:58:29Z</time>
      </trkpt>
      <trkpt lat="42.409209" lon="-0.78821">
        <ele>579.4</ele>
        <time>2020-08-12T17:58:31Z</time>
      </trkpt>
      <trkpt lat="42.40934" lon="-0.788392">
        <ele>590.0</ele>
        <time>2020-08-12T17:58:32Z</time>
      </trkpt>
      <trkpt lat="42.409547" lon="-0.78855">
        <ele>590.0</ele>
        <time>2020-08-12T17:58:34Z</time>
      </trkpt>
      <trkpt lat="42.409547" lon="-0.78855">
        <ele>590.0</ele>
        <time>2020-08-12T17:58:34Z</time>
      </trkpt>
      <trkpt lat="42.409729" lon="-0.78862">
        <ele>590.0</ele>
        <time>2020-08-12T17:58:35Z</time>
      </trkpt>
      <trkpt lat="42.409828" lon="-0.788631">
        <ele>590.0</ele>
        <time>2020-08-12T17:58:35Z</time>
      </trkpt>
      <trkpt lat="42.409999" lon="-0.78859">
        <ele>590.0</ele>
        <time>2020-08-12T17:58:36Z</time>
      </trkpt>
      <trkpt lat="42.411619" lon="-0.787533">
        <ele>588.2</ele>
        <time>2020-08-12T17:58:46Z</time>
      </trkpt>
      <trkpt lat="42.412365" lon="-0.78693">
        <ele>587.8</ele>
        <time>2020-08-12T17:58:50Z</time>
      </trkpt>
      <trkpt lat="42.412518" lon="-0.786824">
        <ele>594.2</ele>
        <time>2020-08-12T17:58:51Z</time>
      </trkpt>
      <trkpt lat="42.412856" lon="-0.7867">
        <ele>594.2</ele>
        <time>2020-08-12T17:58:53Z</time>
      </trkpt>
      <trkpt lat="42.413305" lon="-0.786629">
        <ele>588.0</ele>
        <time>2020-08-12T17:58:55Z</time>
      </trkpt>
      <trkpt lat="42.415631" lon="-0.786492">
        <ele>598.0</ele>
        <time>2020-08-12T17:59:08Z</time>
      </trkpt>
      <trkpt lat="42.415899" lon="-0.786407">
        <ele>605.4</ele>
        <time>2020-08-12T17:59:09Z</time>
      </trkpt>
      <trkpt lat="42.416327" lon="-0.786201">
        <ele>605.4</ele>
        <time>2020-08-12T17:59:11Z</time>
      </trkpt>
      <trkpt lat="42.416497" lon="-0.786157">
        <ele>605.4</ele>
        <time>2020-08-12T17:59:12Z</time>
      </trkpt>
      <trkpt lat="42.416638" lon="-0.786133">
        <ele>605.4</ele>
        <time>2020-08-12T17:59:13Z</time>
      </trkpt>
      <trkpt lat="42.417209" lon="-0.786145">
        <ele>608.6</ele>
        <time>2020-08-12T17:59:16Z</time>
      </trkpt>
      <trkpt lat="42.417463" lon="-0.786201">
        <ele>608.6</ele>
        <time>2020-08-12T17:59:17Z</time>
      </trkpt>
      <trkpt lat="42.417746" lon="-0.786297">
        <ele>608.0</ele>
        <time>2020-08-12T17:59:19Z</time>
      </trkpt>
      <trkpt lat="42.419012" lon="-0.78687">
        <ele>612.8</ele>
        <time>2020-08-12T17:59:26Z</time>
      </trkpt>
      <trkpt lat="42.419119" lon="-0.786952">
        <ele>612.8</ele>
        <time>2020-08-12T17:59:26Z</time>
      </trkpt>
      <trkpt lat="42.419201" lon="-0.787046">
        <ele>603.4</ele>
        <time>2020-08-12T17:59:27Z</time>
      </trkpt>
      <trkpt lat="42.419313" lon="-0.787279">
        <ele>603.4</ele>
        <time>2020-08-12T17:59:28Z</time>
      </trkpt>
      <trkpt lat="42.41935" lon="-0.787439">
        <ele>603.4</ele>
        <time>2020-08-12T17:59:29Z</time>
      </trkpt>
      <trkpt lat="42.419359" lon="-0.787585">
        <ele>606.2</ele>
        <time>2020-08-12T17:59:29Z</time>
      </trkpt>
      <trkpt lat="42.419348" lon="-0.788288">
        <ele>606.2</ele>
        <time>2020-08-12T17:59:32Z</time>
      </trkpt>
      <trkpt lat="42.419371" lon="-0.788566">
        <ele>608.8</ele>
        <time>2020-08-12T17:59:33Z</time>
      </trkpt>
      <trkpt lat="42.419789" lon="-0.792265">
        <ele>627.0</ele>
        <time>2020-08-12T17:59:48Z</time>
      </trkpt>
      <trkpt lat="42.41988" lon="-0.792716">
        <ele>626.8</ele>
        <time>2020-08-12T17:59:49Z</time>
      </trkpt>
      <trkpt lat="42.419925" lon="-0.792843">
        <ele>626.8</ele>
        <time>2020-08-12T17:59:50Z</time>
      </trkpt>
      <trkpt lat="42.419976" lon="-0.792923">
        <ele>626.8</ele>
        <time>2020-08-12T17:59:50Z</time>
      </trkpt>
      <trkpt lat="42.420101" lon="-0.793022">
        <ele>607.0</ele>
        <time>2020-08-12T17:59:52Z</time>
      </trkpt>
      <trkpt lat="42.420404" lon="-0.79309">
        <ele>607.0</ele>
        <time>2020-08-12T17:59:53Z</time>
      </trkpt>
      <trkpt lat="42.421028" lon="-0.793177">
        <ele>608.0</ele>
        <time>2020-08-12T17:59:56Z</time>
      </trkpt>
      <trkpt lat="42.421302" lon="-0.793247">
        <ele>608.0</ele>
        <time>2020-08-12T17:59:58Z</time>
      </trkpt>
      <trkpt lat="42.422055" lon="-0.793613">
        <ele>626.6</ele>
        <time>2020-08-12T18:00:02Z</time>
      </trkpt>
      <trkpt lat="42.42249" lon="-0.793939">
        <ele>626.6</ele>
        <time>2020-08-12T18:00:05Z</time>
      </trkpt>
      <trkpt lat="42.422724" lon="-0.794076">
        <ele>627.4</ele>
        <time>2020-08-12T18:00:06Z</time>
      </trkpt>
      <trkpt lat="42.422987" lon="-0.794133">
        <ele>627.4</ele>
        <time>2020-08-12T18:00:07Z</time>
      </trkpt>
      <trkpt lat="42.423409" lon="-0.794181">
        <ele>638.4</ele>
        <time>2020-08-12T18:00:10Z</time>
      </trkpt>
      <trkpt lat="42.423659" lon="-0.794269">
        <ele>638.4</ele>
        <time>2020-08-12T18:00:11Z</time>
      </trkpt>
      <trkpt lat="42.424347" lon="-0.794775">
        <ele>627.8</ele>
        <time>2020-08-12T18:00:15Z</time>
      </trkpt>
      <trkpt lat="42.424495" lon="-0.794918">
        <ele>627.8</ele>
        <time>2020-08-12T18:00:16Z</time>
      </trkpt>
      <trkpt lat="42.424648" lon="-0.795211">
        <ele>642.0</ele>
        <time>2020-08-12T18:00:18Z</time>
      </trkpt>
      <trkpt lat="42.424839" lon="-0.795916">
        <ele>663.6</ele>
        <time>2020-08-12T18:00:21Z</time>
      </trkpt>
      <trkpt lat="42.424932" lon="-0.79601">
        <ele>663.6</ele>
        <time>2020-08-12T18:00:21Z</time>
      </trkpt>
      <trkpt lat="42.425048" lon="-0.796053">
        <ele>654.0</ele>
        <time>2020-08-12T18:00:22Z</time>
      </trkpt>
      <trkpt lat="42.425102" lon="-0.79605">
        <ele>654.0</ele>
        <time>2020-08-12T18:00:22Z</time>
      </trkpt>
      <trkpt lat="42.425166" lon="-0.796018">
        <ele>654.0</ele>
        <time>2020-08-12T18:00:23Z</time>
      </trkpt>
      <trkpt lat="42.425229" lon="-0.795962">
        <ele>654.0</ele>
        <time>2020-08-12T18:00:23Z</time>
      </trkpt>
      <trkpt lat="42.425337" lon="-0.795759">
        <ele>634.6</ele>
        <time>2020-08-12T18:00:24Z</time>
      </trkpt>
      <trkpt lat="42.425438" lon="-0.79542">
        <ele>634.6</ele>
        <time>2020-08-12T18:00:26Z</time>
      </trkpt>
      <trkpt lat="42.425775" lon="-0.793906">
        <ele>625.6</ele>
        <time>2020-08-12T18:00:32Z</time>
      </trkpt>
      <trkpt lat="42.425861" lon="-0.79358">
        <ele>624.8</ele>
        <time>2020-08-12T18:00:33Z</time>
      </trkpt>
      <trkpt lat="42.425946" lon="-0.793411">
        <ele>624.8</ele>
        <time>2020-08-12T18:00:34Z</time>
      </trkpt>
      <trkpt lat="42.426065" lon="-0.793285">
        <ele>630.4</ele>
        <time>2020-08-12T18:00:35Z</time>
      </trkpt>
      <trkpt lat="42.426321" lon="-0.793092">
        <ele>630.4</ele>
        <time>2020-08-12T18:00:36Z</time>
      </trkpt>
      <trkpt lat="42.426454" lon="-0.793046">
        <ele>630.4</ele>
        <time>2020-08-12T18:00:37Z</time>
      </trkpt>
      <trkpt lat="42.426519" lon="-0.793041">
        <ele>630.4</ele>
        <time>2020-08-12T18:00:37Z</time>
      </trkpt>
      <trkpt lat="42.426711" lon="-0.793108">
        <ele>627.4</ele>
        <time>2020-08-12T18:00:38Z</time>
      </trkpt>
      <trkpt lat="42.427677" lon="-0.793648">
        <ele>632.0</ele>
        <time>2020-08-12T18:00:44Z</time>
      </trkpt>
      <trkpt lat="42.428556" lon="-0.793946">
        <ele>634.6</ele>
        <time>2020-08-12T18:00:49Z</time>
      </trkpt>
      <trkpt lat="42.428857" lon="-0.794091">
        <ele>634.6</ele>
        <time>2020-08-12T18:00:50Z</time>
      </trkpt>
      <trkpt lat="42.42971" lon="-0.794555">
        <ele>635.2</ele>
        <time>2020-08-12T18:00:55Z</time>
      </trkpt>
      <trkpt lat="42.430155" lon="-0.794735">
        <ele>636.2</ele>
        <time>2020-08-12T18:00:57Z</time>
      </trkpt>
      <trkpt lat="42.430745" lon="-0.794939">
        <ele>636.2</ele>
        <time>2020-08-12T18:01:01Z</time>
      </trkpt>
      <trkpt lat="42.4311" lon="-0.795005">
        <ele>637.4</ele>
        <time>2020-08-12T18:01:02Z</time>
      </trkpt>
      <trkpt lat="42.431722" lon="-0.795066">
        <ele>640.2</ele>
        <time>2020-08-12T18:01:06Z</time>
      </trkpt>
      <trkpt lat="42.432174" lon="-0.795066">
        <ele>640.2</ele>
        <time>2020-08-12T18:01:08Z</time>
      </trkpt>
      <trkpt lat="42.432712" lon="-0.795219">
        <ele>643.6</ele>
        <time>2020-08-12T18:01:11Z</time>
      </trkpt>
      <trkpt lat="42.432926" lon="-0.795253">
        <ele>643.6</ele>
        <time>2020-08-12T18:01:12Z</time>
      </trkpt>
      <trkpt lat="42.433122" lon="-0.795229">
        <ele>643.6</ele>
        <time>2020-08-12T18:01:13Z</time>
      </trkpt>
      <trkpt lat="42.433417" lon="-0.795137">
        <ele>644.6</ele>
        <time>2020-08-12T18:01:15Z</time>
      </trkpt>
      <trkpt lat="42.43357" lon="-0.795129">
        <ele>644.6</ele>
        <time>2020-08-12T18:01:15Z</time>
      </trkpt>
      <trkpt lat="42.434317" lon="-0.79527">
        <ele>646.2</ele>
        <time>2020-08-12T18:01:19Z</time>
      </trkpt>
      <trkpt lat="42.434752" lon="-0.795289">
        <ele>646.2</ele>
        <time>2020-08-12T18:01:22Z</time>
      </trkpt>
      <trkpt lat="42.435137" lon="-0.795268">
        <ele>649.6</ele>
        <time>2020-08-12T18:01:24Z</time>
      </trkpt>
      <trkpt lat="42.435335" lon="-0.79522">
        <ele>649.6</ele>
        <time>2020-08-12T18:01:25Z</time>
      </trkpt>
      <trkpt lat="42.435529" lon="-0.795056">
        <ele>649.6</ele>
        <time>2020-08-12T18:01:26Z</time>
      </trkpt>
      <trkpt lat="42.435591" lon="-0.794973">
        <ele>654.0</ele>
        <time>2020-08-12T18:01:26Z</time>
      </trkpt>
      <trkpt lat="42.435696" lon="-0.794776">
        <ele>654.0</ele>
        <time>2020-08-12T18:01:27Z</time>
      </trkpt>
      <trkpt lat="42.435896" lon="-0.794249">
        <ele>649.4</ele>
        <time>2020-08-12T18:01:30Z</time>
      </trkpt>
      <trkpt lat="42.435933" lon="-0.794186">
        <ele>649.4</ele>
        <time>2020-08-12T18:01:30Z</time>
      </trkpt>
      <trkpt lat="42.435996" lon="-0.794126">
        <ele>661.0</ele>
        <time>2020-08-12T18:01:31Z</time>
      </trkpt>
      <trkpt lat="42.436067" lon="-0.794092">
        <ele>661.0</ele>
        <time>2020-08-12T18:01:31Z</time>
      </trkpt>
      <trkpt lat="42.436305" lon="-0.794048">
        <ele>661.0</ele>
        <time>2020-08-12T18:01:32Z</time>
      </trkpt>
      <trkpt lat="42.436575" lon="-0.794063">
        <ele>661.0</ele>
        <time>2020-08-12T18:01:34Z</time>
      </trkpt>
      <trkpt lat="42.437312" lon="-0.794289">
        <ele>648.4</ele>
        <time>2020-08-12T18:01:38Z</time>
      </trkpt>
      <trkpt lat="42.437485" lon="-0.794277">
        <ele>648.4</ele>
        <time>2020-08-12T18:01:38Z</time>
      </trkpt>
      <trkpt lat="42.437629" lon="-0.794202">
        <ele>654.6</ele>
        <time>2020-08-12T18:01:39Z</time>
      </trkpt>
      <trkpt lat="42.437858" lon="-0.793995">
        <ele>653.4</ele>
        <time>2020-08-12T18:01:41Z</time>
      </trkpt>
      <trkpt lat="42.43814" lon="-0.793696">
        <ele>653.4</ele>
        <time>2020-08-12T18:01:43Z</time>
      </trkpt>
      <trkpt lat="42.438341" lon="-0.793423">
        <ele>655.8</ele>
        <time>2020-08-12T18:01:44Z</time>
      </trkpt>
      <trkpt lat="42.438689" lon="-0.792848">
        <ele>659.0</ele>
        <time>2020-08-12T18:01:47Z</time>
      </trkpt>
      <trkpt lat="42.438905" lon="-0.792229">
        <ele>669.4</ele>
        <time>2020-08-12T18:01:50Z</time>
      </trkpt>
      <trkpt lat="42.439012" lon="-0.792072">
        <ele>669.4</ele>
        <time>2020-08-12T18:01:50Z</time>
      </trkpt>
      <trkpt lat="42.439115" lon="-0.791968">
        <ele>669.4</ele>
        <time>2020-08-12T18:01:51Z</time>
      </trkpt>
      <trkpt lat="42.439259" lon="-0.791875">
        <ele>656.2</ele>
        <time>2020-08-12T18:01:52Z</time>
      </trkpt>
      <trkpt lat="42.439332" lon="-0.791844">
        <ele>656.2</ele>
        <time>2020-08-12T18:01:53Z</time>
      </trkpt>
      <trkpt lat="42.439468" lon="-0.791834">
        <ele>656.2</ele>
        <time>2020-08-12T18:01:53Z</time>
      </trkpt>
      <trkpt lat="42.439694" lon="-0.791909">
        <ele>656.2</ele>
        <time>2020-08-12T18:01:54Z</time>
      </trkpt>
      <trkpt lat="42.441295" lon="-0.792922">
        <ele>658.6</ele>
        <time>2020-08-12T18:02:04Z</time>
      </trkpt>
      <trkpt lat="42.44255" lon="-0.793661">
        <ele>664.6</ele>
        <time>2020-08-12T18:02:11Z</time>
      </trkpt>
      <trkpt lat="42.44284" lon="-0.793809">
        <ele>664.6</ele>
        <time>2020-08-12T18:02:12Z</time>
      </trkpt>
      <trkpt lat="42.443081" lon="-0.793855">
        <ele>664.6</ele>
        <time>2020-08-12T18:02:14Z</time>
      </trkpt>
      <trkpt lat="42.443617" lon="-0.793905">
        <ele>668.4</ele>
        <time>2020-08-12T18:02:16Z</time>
      </trkpt>
      <trkpt lat="42.444276" lon="-0.794063">
        <ele>672.8</ele>
        <time>2020-08-12T18:02:20Z</time>
      </trkpt>
      <trkpt lat="42.444792" lon="-0.794211">
        <ele>668.0</ele>
        <time>2020-08-12T18:02:23Z</time>
      </trkpt>
      <trkpt lat="42.445545" lon="-0.794501">
        <ele>670.2</ele>
        <time>2020-08-12T18:02:27Z</time>
      </trkpt>
      <trkpt lat="42.445752" lon="-0.794501">
        <ele>670.2</ele>
        <time>2020-08-12T18:02:28Z</time>
      </trkpt>
      <trkpt lat="42.445988" lon="-0.794411">
        <ele>674.4</ele>
        <time>2020-08-12T18:02:29Z</time>
      </trkpt>
      <trkpt lat="42.447011" lon="-0.793835">
        <ele>676.0</ele>
        <time>2020-08-12T18:02:35Z</time>
      </trkpt>
      <trkpt lat="42.447139" lon="-0.793817">
        <ele>676.0</ele>
        <time>2020-08-12T18:02:36Z</time>
      </trkpt>
      <trkpt lat="42.447281" lon="-0.793864">
        <ele>676.0</ele>
        <time>2020-08-12T18:02:36Z</time>
      </trkpt>
      <trkpt lat="42.447419" lon="-0.793965">
        <ele>676.0</ele>
        <time>2020-08-12T18:02:37Z</time>
      </trkpt>
      <trkpt lat="42.448939" lon="-0.795766">
        <ele>684.2</ele>
        <time>2020-08-12T18:02:48Z</time>
      </trkpt>
      <trkpt lat="42.449239" lon="-0.796082">
        <ele>688.4</ele>
        <time>2020-08-12T18:02:50Z</time>
      </trkpt>
      <trkpt lat="42.449452" lon="-0.796209">
        <ele>688.4</ele>
        <time>2020-08-12T18:02:51Z</time>
      </trkpt>
      <trkpt lat="42.45029" lon="-0.796476">
        <ele>694.0</ele>
        <time>2020-08-12T18:02:55Z</time>
      </trkpt>
      <trkpt lat="42.450563" lon="-0.796529">
        <ele>694.0</ele>
        <time>2020-08-12T18:02:57Z</time>
      </trkpt>
      <trkpt lat="42.450691" lon="-0.796529">
        <ele>694.0</ele>
        <time>2020-08-12T18:02:57Z</time>
      </trkpt>
      <trkpt lat="42.451697" lon="-0.796379">
        <ele>697.0</ele>
        <time>2020-08-12T18:03:03Z</time>
      </trkpt>
      <trkpt lat="42.451904" lon="-0.796292">
        <ele>697.0</ele>
        <time>2020-08-12T18:03:04Z</time>
      </trkpt>
      <trkpt lat="42.452406" lon="-0.795945">
        <ele>697.0</ele>
        <time>2020-08-12T18:03:07Z</time>
      </trkpt>
      <trkpt lat="42.452525" lon="-0.795882">
        <ele>693.8</ele>
        <time>2020-08-12T18:03:07Z</time>
      </trkpt>
      <trkpt lat="42.45276" lon="-0.795805">
        <ele>699.8</ele>
        <time>2020-08-12T18:03:09Z</time>
      </trkpt>
      <trkpt lat="42.453037" lon="-0.795759">
        <ele>699.8</ele>
        <time>2020-08-12T18:03:10Z</time>
      </trkpt>
      <trkpt lat="42.453471" lon="-0.795737">
        <ele>696.0</ele>
        <time>2020-08-12T18:03:12Z</time>
      </trkpt>
      <trkpt lat="42.454107" lon="-0.795905">
        <ele>692.8</ele>
        <time>2020-08-12T18:03:16Z</time>
      </trkpt>
      <trkpt lat="42.454359" lon="-0.795915">
        <ele>697.2</ele>
        <time>2020-08-12T18:03:17Z</time>
      </trkpt>
      <trkpt lat="42.454545" lon="-0.795855">
        <ele>697.2</ele>
        <time>2020-08-12T18:03:18Z</time>
      </trkpt>
      <trkpt lat="42.454817" lon="-0.795632">
        <ele>697.2</ele>
        <time>2020-08-12T18:03:20Z</time>
      </trkpt>
      <trkpt lat="42.454979" lon="-0.795449">
        <ele>697.2</ele>
        <time>2020-08-12T18:03:21Z</time>
      </trkpt>
      <trkpt lat="42.45519" lon="-0.795091">
        <ele>700.8</ele>
        <time>2020-08-12T18:03:23Z</time>
      </trkpt>
      <trkpt lat="42.455318" lon="-0.794909">
        <ele>701.2</ele>
        <time>2020-08-12T18:03:24Z</time>
      </trkpt>
      <trkpt lat="42.455601" lon="-0.794664">
        <ele>701.2</ele>
        <time>2020-08-12T18:03:25Z</time>
      </trkpt>
      <trkpt lat="42.455846" lon="-0.794508">
        <ele>701.6</ele>
        <time>2020-08-12T18:03:27Z</time>
      </trkpt>
      <trkpt lat="42.456062" lon="-0.794397">
        <ele>701.6</ele>
        <time>2020-08-12T18:03:28Z</time>
      </trkpt>
      <trkpt lat="42.456219" lon="-0.794364">
        <ele>701.6</ele>
        <time>2020-08-12T18:03:29Z</time>
      </trkpt>
      <trkpt lat="42.457268" lon="-0.794386">
        <ele>703.8</ele>
        <time>2020-08-12T18:03:34Z</time>
      </trkpt>
      <trkpt lat="42.457357" lon="-0.79438">
        <ele>703.8</ele>
        <time>2020-08-12T18:03:35Z</time>
      </trkpt>
      <trkpt lat="42.457554" lon="-0.794326">
        <ele>709.6</ele>
        <time>2020-08-12T18:03:36Z</time>
      </trkpt>
      <trkpt lat="42.457649" lon="-0.794275">
        <ele>709.6</ele>
        <time>2020-08-12T18:03:36Z</time>
      </trkpt>
      <trkpt lat="42.458747" lon="-0.793454">
        <ele>713.4</ele>
        <time>2020-08-12T18:03:43Z</time>
      </trkpt>
      <trkpt lat="42.458855" lon="-0.793327">
        <ele>720.2</ele>
        <time>2020-08-12T18:03:44Z</time>
      </trkpt>
      <trkpt lat="42.45895" lon="-0.7931">
        <ele>720.2</ele>
        <time>2020-08-12T18:03:45Z</time>
      </trkpt>
      <trkpt lat="42.458975" lon="-0.79291">
        <ele>720.2</ele>
        <time>2020-08-12T18:03:45Z</time>
      </trkpt>
      <trkpt lat="42.458986" lon="-0.792306">
        <ele>731.0</ele>
        <time>2020-08-12T18:03:48Z</time>
      </trkpt>
      <trkpt lat="42.459055" lon="-0.792072">
        <ele>731.0</ele>
        <time>2020-08-12T18:03:49Z</time>
      </trkpt>
      <trkpt lat="42.459201" lon="-0.79189">
        <ele>723.2</ele>
        <time>2020-08-12T18:03:50Z</time>
      </trkpt>
      <trkpt lat="42.459348" lon="-0.791785">
        <ele>723.2</ele>
        <time>2020-08-12T18:03:51Z</time>
      </trkpt>
      <trkpt lat="42.459686" lon="-0.791609">
        <ele>731.8</ele>
        <time>2020-08-12T18:03:53Z</time>
      </trkpt>
      <trkpt lat="42.459877" lon="-0.791575">
        <ele>731.8</ele>
        <time>2020-08-12T18:03:54Z</time>
      </trkpt>
      <trkpt lat="42.460042" lon="-0.791615">
        <ele>723.2</ele>
        <time>2020-08-12T18:03:55Z</time>
      </trkpt>
      <trkpt lat="42.461114" lon="-0.791996">
        <ele>721.6</ele>
        <time>2020-08-12T18:04:00Z</time>
      </trkpt>
      <trkpt lat="42.462104" lon="-0.792502">
        <ele>725.4</ele>
        <time>2020-08-12T18:04:06Z</time>
      </trkpt>
      <trkpt lat="42.462947" lon="-0.792978">
        <ele>727.2</ele>
        <time>2020-08-12T18:04:11Z</time>
      </trkpt>
      <trkpt lat="42.463074" lon="-0.793101">
        <ele>727.2</ele>
        <time>2020-08-12T18:04:11Z</time>
      </trkpt>
      <trkpt lat="42.463205" lon="-0.793306">
        <ele>727.2</ele>
        <time>2020-08-12T18:04:13Z</time>
      </trkpt>
      <trkpt lat="42.463605" lon="-0.794316">
        <ele>728.8</ele>
        <time>2020-08-12T18:04:17Z</time>
      </trkpt>
      <trkpt lat="42.463724" lon="-0.794545">
        <ele>728.8</ele>
        <time>2020-08-12T18:04:18Z</time>
      </trkpt>
      <trkpt lat="42.463827" lon="-0.794675">
        <ele>728.8</ele>
        <time>2020-08-12T18:04:19Z</time>
      </trkpt>
      <trkpt lat="42.465793" lon="-0.796107">
        <ele>738.2</ele>
        <time>2020-08-12T18:04:30Z</time>
      </trkpt>
      <trkpt lat="42.465941" lon="-0.796268">
        <ele>736.6</ele>
        <time>2020-08-12T18:04:31Z</time>
      </trkpt>
      <trkpt lat="42.465998" lon="-0.796355">
        <ele>736.6</ele>
        <time>2020-08-12T18:04:32Z</time>
      </trkpt>
      <trkpt lat="42.466202" lon="-0.796869">
        <ele>752.8</ele>
        <time>2020-08-12T18:04:34Z</time>
      </trkpt>
      <trkpt lat="42.46628" lon="-0.796998">
        <ele>752.8</ele>
        <time>2020-08-12T18:04:35Z</time>
      </trkpt>
      <trkpt lat="42.466416" lon="-0.797109">
        <ele>752.8</ele>
        <time>2020-08-12T18:04:36Z</time>
      </trkpt>
      <trkpt lat="42.466929" lon="-0.79736">
        <ele>748.2</ele>
        <time>2020-08-12T18:04:38Z</time>
      </trkpt>
      <trkpt lat="42.467025" lon="-0.797379">
        <ele>748.2</ele>
        <time>2020-08-12T18:04:39Z</time>
      </trkpt>
      <trkpt lat="42.467223" lon="-0.797376">
        <ele>748.2</ele>
        <time>2020-08-12T18:04:40Z</time>
      </trkpt>
      <trkpt lat="42.467565" lon="-0.79731">
        <ele>748.6</ele>
        <time>2020-08-12T18:04:42Z</time>
      </trkpt>
      <trkpt lat="42.467683" lon="-0.797264">
        <ele>748.6</ele>
        <time>2020-08-12T18:04:42Z</time>
      </trkpt>
      <trkpt lat="42.467837" lon="-0.797123">
        <ele>748.6</ele>
        <time>2020-08-12T18:04:43Z</time>
      </trkpt>
      <trkpt lat="42.468138" lon="-0.796635">
        <ele>738.8</ele>
        <time>2020-08-12T18:04:46Z</time>
      </trkpt>
      <trkpt lat="42.468283" lon="-0.796466">
        <ele>738.8</ele>
        <time>2020-08-12T18:04:47Z</time>
      </trkpt>
      <trkpt lat="42.468557" lon="-0.796297">
        <ele>746.4</ele>
        <time>2020-08-12T18:04:48Z</time>
      </trkpt>
      <trkpt lat="42.468761" lon="-0.796242">
        <ele>746.4</ele>
        <time>2020-08-12T18:04:50Z</time>
      </trkpt>
      <trkpt lat="42.468852" lon="-0.796239">
        <ele>746.4</ele>
        <time>2020-08-12T18:04:50Z</time>
      </trkpt>
      <trkpt lat="42.469359" lon="-0.796377">
        <ele>754.6</ele>
        <time>2020-08-12T18:04:53Z</time>
      </trkpt>
      <trkpt lat="42.469554" lon="-0.79646">
        <ele>754.6</ele>
        <time>2020-08-12T18:04:54Z</time>
      </trkpt>
      <trkpt lat="42.469679" lon="-0.796575">
        <ele>754.6</ele>
        <time>2020-08-12T18:04:55Z</time>
      </trkpt>
      <trkpt lat="42.469747" lon="-0.796662">
        <ele>754.6</ele>
        <time>2020-08-12T18:04:55Z</time>
      </trkpt>
      <trkpt lat="42.470156" lon="-0.797359">
        <ele>764.4</ele>
        <time>2020-08-12T18:04:59Z</time>
      </trkpt>
      <trkpt lat="42.470229" lon="-0.797458">
        <ele>764.4</ele>
        <time>2020-08-12T18:04:59Z</time>
      </trkpt>
      <trkpt lat="42.470348" lon="-0.797558">
        <ele>772.0</ele>
        <time>2020-08-12T18:05:00Z</time>
      </trkpt>
      <trkpt lat="42.470506" lon="-0.797578">
        <ele>772.0</ele>
        <time>2020-08-12T18:05:01Z</time>
      </trkpt>
      <trkpt lat="42.470629" lon="-0.797525">
        <ele>772.0</ele>
        <time>2020-08-12T18:05:01Z</time>
      </trkpt>
      <trkpt lat="42.470724" lon="-0.797444">
        <ele>764.4</ele>
        <time>2020-08-12T18:05:02Z</time>
      </trkpt>
      <trkpt lat="42.470763" lon="-0.797392">
        <ele>764.4</ele>
        <time>2020-08-12T18:05:02Z</time>
      </trkpt>
      <trkpt lat="42.470811" lon="-0.797251">
        <ele>764.4</ele>
        <time>2020-08-12T18:05:03Z</time>
      </trkpt>
      <trkpt lat="42.470811" lon="-0.797012">
        <ele>764.4</ele>
        <time>2020-08-12T18:05:04Z</time>
      </trkpt>
      <trkpt lat="42.47068" lon="-0.796269">
        <ele>758.0</ele>
        <time>2020-08-12T18:05:07Z</time>
      </trkpt>
      <trkpt lat="42.470677" lon="-0.796135">
        <ele>758.0</ele>
        <time>2020-08-12T18:05:07Z</time>
      </trkpt>
      <trkpt lat="42.470711" lon="-0.79599">
        <ele>758.0</ele>
        <time>2020-08-12T18:05:08Z</time>
      </trkpt>
      <trkpt lat="42.470768" lon="-0.79589">
        <ele>758.0</ele>
        <time>2020-08-12T18:05:08Z</time>
      </trkpt>
      <trkpt lat="42.470866" lon="-0.795799">
        <ele>761.6</ele>
        <time>2020-08-12T18:05:09Z</time>
      </trkpt>
      <trkpt lat="42.470951" lon="-0.795772">
        <ele>761.6</ele>
        <time>2020-08-12T18:05:09Z</time>
      </trkpt>
      <trkpt lat="42.471091" lon="-0.7958">
        <ele>761.6</ele>
        <time>2020-08-12T18:05:10Z</time>
      </trkpt>
      <trkpt lat="42.471239" lon="-0.79593">
        <ele>764.0</ele>
        <time>2020-08-12T18:05:11Z</time>
      </trkpt>
      <trkpt lat="42.471753" lon="-0.796714">
        <ele>775.8</ele>
        <time>2020-08-12T18:05:15Z</time>
      </trkpt>
      <trkpt lat="42.471926" lon="-0.796939">
        <ele>775.8</ele>
        <time>2020-08-12T18:05:16Z</time>
      </trkpt>
      <trkpt lat="42.472055" lon="-0.797055">
        <ele>775.8</ele>
        <time>2020-08-12T18:05:17Z</time>
      </trkpt>
      <trkpt lat="42.472564" lon="-0.797362">
        <ele>780.4</ele>
        <time>2020-08-12T18:05:20Z</time>
      </trkpt>
      <trkpt lat="42.472971" lon="-0.797554">
        <ele>793.6</ele>
        <time>2020-08-12T18:05:22Z</time>
      </trkpt>
      <trkpt lat="42.474034" lon="-0.797886">
        <ele>793.4</ele>
        <time>2020-08-12T18:05:28Z</time>
      </trkpt>
      <trkpt lat="42.474222" lon="-0.79796">
        <ele>786.2</ele>
        <time>2020-08-12T18:05:29Z</time>
      </trkpt>
      <trkpt lat="42.47437" lon="-0.798032">
        <ele>786.2</ele>
        <time>2020-08-12T18:05:30Z</time>
      </trkpt>
      <trkpt lat="42.474657" lon="-0.798214">
        <ele>786.2</ele>
        <time>2020-08-12T18:05:32Z</time>
      </trkpt>
      <trkpt lat="42.474906" lon="-0.798426">
        <ele>805.0</ele>
        <time>2020-08-12T18:05:33Z</time>
      </trkpt>
      <trkpt lat="42.475186" lon="-0.79873">
        <ele>792.2</ele>
        <time>2020-08-12T18:05:35Z</time>
      </trkpt>
      <trkpt lat="42.475313" lon="-0.798907">
        <ele>792.2</ele>
        <time>2020-08-12T18:05:36Z</time>
      </trkpt>
      <trkpt lat="42.476059" lon="-0.800153">
        <ele>804.8</ele>
        <time>2020-08-12T18:05:43Z</time>
      </trkpt>
      <trkpt lat="42.476269" lon="-0.800477">
        <ele>804.8</ele>
        <time>2020-08-12T18:05:44Z</time>
      </trkpt>
      <trkpt lat="42.476632" lon="-0.800956">
        <ele>823.0</ele>
        <time>2020-08-12T18:05:47Z</time>
      </trkpt>
      <trkpt lat="42.477045" lon="-0.801381">
        <ele>800.8</ele>
        <time>2020-08-12T18:05:50Z</time>
      </trkpt>
      <trkpt lat="42.477276" lon="-0.801582">
        <ele>800.8</ele>
        <time>2020-08-12T18:05:51Z</time>
      </trkpt>
      <trkpt lat="42.478992" lon="-0.802867">
        <ele>786.2</ele>
        <time>2020-08-12T18:06:02Z</time>
      </trkpt>
      <trkpt lat="42.479213" lon="-0.803072">
        <ele>783.6</ele>
        <time>2020-08-12T18:06:03Z</time>
      </trkpt>
      <trkpt lat="42.481758" lon="-0.805624">
        <ele>803.6</ele>
        <time>2020-08-12T18:06:19Z</time>
      </trkpt>
      <trkpt lat="42.48194" lon="-0.805796">
        <ele>803.6</ele>
        <time>2020-08-12T18:06:21Z</time>
      </trkpt>
      <trkpt lat="42.482242" lon="-0.806027">
        <ele>815.8</ele>
        <time>2020-08-12T18:06:22Z</time>
      </trkpt>
      <trkpt lat="42.482398" lon="-0.806117">
        <ele>815.8</ele>
        <time>2020-08-12T18:06:23Z</time>
      </trkpt>
      <trkpt lat="42.48268" lon="-0.806232">
        <ele>816.6</ele>
        <time>2020-08-12T18:06:25Z</time>
      </trkpt>
      <trkpt lat="42.483007" lon="-0.806304">
        <ele>816.6</ele>
        <time>2020-08-12T18:06:27Z</time>
      </trkpt>
      <trkpt lat="42.483154" lon="-0.806317">
        <ele>816.6</ele>
        <time>2020-08-12T18:06:27Z</time>
      </trkpt>
      <trkpt lat="42.48344" lon="-0.806299">
        <ele>819.6</ele>
        <time>2020-08-12T18:06:29Z</time>
      </trkpt>
      <trkpt lat="42.484075" lon="-0.806122">
        <ele>819.6</ele>
        <time>2020-08-12T18:06:32Z</time>
      </trkpt>
      <trkpt lat="42.48511" lon="-0.805785">
        <ele>818.2</ele>
        <time>2020-08-12T18:06:38Z</time>
      </trkpt>
      <trkpt lat="42.485609" lon="-0.805674">
        <ele>818.2</ele>
        <time>2020-08-12T18:06:40Z</time>
      </trkpt>
      <trkpt lat="42.48617" lon="-0.805647">
        <ele>820.4</ele>
        <time>2020-08-12T18:06:43Z</time>
      </trkpt>
      <trkpt lat="42.487079" lon="-0.805718">
        <ele>826.0</ele>
        <time>2020-08-12T18:06:48Z</time>
      </trkpt>
      <trkpt lat="42.488692" lon="-0.80588">
        <ele>836.8</ele>
        <time>2020-08-12T18:06:56Z</time>
      </trkpt>
      <trkpt lat="42.48906" lon="-0.805935">
        <ele>836.8</ele>
        <time>2020-08-12T18:06:58Z</time>
      </trkpt>
      <trkpt lat="42.489529" lon="-0.806046">
        <ele>841.8</ele>
        <time>2020-08-12T18:07:01Z</time>
      </trkpt>
      <trkpt lat="42.489953" lon="-0.806206">
        <ele>841.8</ele>
        <time>2020-08-12T18:07:03Z</time>
      </trkpt>
      <trkpt lat="42.490208" lon="-0.806329">
        <ele>849.2</ele>
        <time>2020-08-12T18:07:05Z</time>
      </trkpt>
      <trkpt lat="42.491092" lon="-0.806818">
        <ele>856.6</ele>
        <time>2020-08-12T18:07:10Z</time>
      </trkpt>
      <trkpt lat="42.491531" lon="-0.807032">
        <ele>856.6</ele>
        <time>2020-08-12T18:07:12Z</time>
      </trkpt>
      <trkpt lat="42.492018" lon="-0.807203">
        <ele>859.8</ele>
        <time>2020-08-12T18:07:15Z</time>
      </trkpt>
      <trkpt lat="42.492567" lon="-0.807324">
        <ele>862.0</ele>
        <time>2020-08-12T18:07:18Z</time>
      </trkpt>
      <trkpt lat="42.493515" lon="-0.807472">
        <ele>864.8</ele>
        <time>2020-08-12T18:07:23Z</time>
      </trkpt>
      <trkpt lat="42.493926" lon="-0.807567">
        <ele>868.4</ele>
        <time>2020-08-12T18:07:25Z</time>
      </trkpt>
      <trkpt lat="42.494229" lon="-0.807676">
        <ele>866.8</ele>
        <time>2020-08-12T18:07:26Z</time>
      </trkpt>
      <trkpt lat="42.494457" lon="-0.807813">
        <ele>866.8</ele>
        <time>2020-08-12T18:07:28Z</time>
      </trkpt>
      <trkpt lat="42.494702" lon="-0.807989">
        <ele>866.8</ele>
        <time>2020-08-12T18:07:29Z</time>
      </trkpt>
      <trkpt lat="42.495534" lon="-0.808744">
        <ele>873.4</ele>
        <time>2020-08-12T18:07:34Z</time>
      </trkpt>
      <trkpt lat="42.495661" lon="-0.80884">
        <ele>873.4</ele>
        <time>2020-08-12T18:07:35Z</time>
      </trkpt>
      <trkpt lat="42.495969" lon="-0.809022">
        <ele>856.8</ele>
        <time>2020-08-12T18:07:37Z</time>
      </trkpt>
      <trkpt lat="42.496232" lon="-0.809124">
        <ele>856.8</ele>
        <time>2020-08-12T18:07:38Z</time>
      </trkpt>
      <trkpt lat="42.496637" lon="-0.809213">
        <ele>874.8</ele>
        <time>2020-08-12T18:07:41Z</time>
      </trkpt>
      <trkpt lat="42.496889" lon="-0.809219">
        <ele>860.4</ele>
        <time>2020-08-12T18:07:42Z</time>
      </trkpt>
      <trkpt lat="42.498296" lon="-0.809016">
        <ele>836.6</ele>
        <time>2020-08-12T18:07:50Z</time>
      </trkpt>
      <trkpt lat="42.498705" lon="-0.808991">
        <ele>834.4</ele>
        <time>2020-08-12T18:07:52Z</time>
      </trkpt>
      <trkpt lat="42.499039" lon="-0.809053">
        <ele>834.4</ele>
        <time>2020-08-12T18:07:53Z</time>
      </trkpt>
      <trkpt lat="42.499601" lon="-0.809195">
        <ele>844.6</ele>
        <time>2020-08-12T18:07:56Z</time>
      </trkpt>
      <trkpt lat="42.499776" lon="-0.809278">
        <ele>844.6</ele>
        <time>2020-08-12T18:07:57Z</time>
      </trkpt>
      <trkpt lat="42.499918" lon="-0.809397">
        <ele>844.6</ele>
        <time>2020-08-12T18:07:58Z</time>
      </trkpt>
      <trkpt lat="42.50004" lon="-0.809562">
        <ele>817.2</ele>
        <time>2020-08-12T18:08:00Z</time>
      </trkpt>
      <trkpt lat="42.500178" lon="-0.809876">
        <ele>817.2</ele>
        <time>2020-08-12T18:08:01Z</time>
      </trkpt>
      <trkpt lat="42.500965" lon="-0.812632">
        <ele>801.4</ele>
        <time>2020-08-12T18:08:13Z</time>
      </trkpt>
      <trkpt lat="42.501071" lon="-0.813116">
        <ele>801.4</ele>
        <time>2020-08-12T18:08:15Z</time>
      </trkpt>
      <trkpt lat="42.501122" lon="-0.813517">
        <ele>795.6</ele>
        <time>2020-08-12T18:08:16Z</time>
      </trkpt>
      <trkpt lat="42.50112" lon="-0.814048">
        <ele>795.6</ele>
        <time>2020-08-12T18:08:18Z</time>
      </trkpt>
      <trkpt lat="42.501036" lon="-0.814685">
        <ele>783.0</ele>
        <time>2020-08-12T18:08:21Z</time>
      </trkpt>
      <trkpt lat="42.500867" lon="-0.815464">
        <ele>774.8</ele>
        <time>2020-08-12T18:08:24Z</time>
      </trkpt>
      <trkpt lat="42.500793" lon="-0.815912">
        <ele>804.6</ele>
        <time>2020-08-12T18:08:26Z</time>
      </trkpt>
      <trkpt lat="42.500776" lon="-0.8163">
        <ele>804.6</ele>
        <time>2020-08-12T18:08:28Z</time>
      </trkpt>
      <trkpt lat="42.500784" lon="-0.816505">
        <ele>804.6</ele>
        <time>2020-08-12T18:08:28Z</time>
      </trkpt>
      <trkpt lat="42.500837" lon="-0.816868">
        <ele>783.0</ele>
        <time>2020-08-12T18:08:30Z</time>
      </trkpt>
      <trkpt lat="42.500946" lon="-0.817264">
        <ele>783.0</ele>
        <time>2020-08-12T18:08:32Z</time>
      </trkpt>
      <trkpt lat="42.501115" lon="-0.817641">
        <ele>789.0</ele>
        <time>2020-08-12T18:08:33Z</time>
      </trkpt>
      <trkpt lat="42.501271" lon="-0.81791">
        <ele>789.0</ele>
        <time>2020-08-12T18:08:35Z</time>
      </trkpt>
      <trkpt lat="42.501377" lon="-0.818055">
        <ele>789.0</ele>
        <time>2020-08-12T18:08:36Z</time>
      </trkpt>
      <trkpt lat="42.501489" lon="-0.818176">
        <ele>789.0</ele>
        <time>2020-08-12T18:08:36Z</time>
      </trkpt>
      <trkpt lat="42.501721" lon="-0.818357">
        <ele>774.6</ele>
        <time>2020-08-12T18:08:38Z</time>
      </trkpt>
      <trkpt lat="42.502117" lon="-0.818554">
        <ele>774.6</ele>
        <time>2020-08-12T18:08:40Z</time>
      </trkpt>
      <trkpt lat="42.502334" lon="-0.818608">
        <ele>774.6</ele>
        <time>2020-08-12T18:08:48Z</time>
      </trkpt>
      <trkpt lat="42.502334" lon="-0.818608">
        <ele>774.6</ele>
        <time>2020-08-12T18:08:48Z</time>
      </trkpt>
      <trkpt lat="42.502481" lon="-0.818619">
        <ele>774.6</ele>
        <time>2020-08-12T18:08:49Z</time>
      </trkpt>
      <trkpt lat="42.502734" lon="-0.818602">
        <ele>764.2</ele>
        <time>2020-08-12T18:08:50Z</time>
      </trkpt>
      <trkpt lat="42.503103" lon="-0.818488">
        <ele>764.2</ele>
        <time>2020-08-12T18:08:53Z</time>
      </trkpt>
      <trkpt lat="42.503343" lon="-0.818357">
        <ele>755.2</ele>
        <time>2020-08-12T18:08:54Z</time>
      </trkpt>
      <trkpt lat="42.503472" lon="-0.818251">
        <ele>753.2</ele>
        <time>2020-08-12T18:08:55Z</time>
      </trkpt>
      <trkpt lat="42.503693" lon="-0.818024">
        <ele>753.2</ele>
        <time>2020-08-12T18:08:57Z</time>
      </trkpt>
      <trkpt lat="42.503933" lon="-0.817705">
        <ele>753.2</ele>
        <time>2020-08-12T18:08:59Z</time>
      </trkpt>
      <trkpt lat="42.504737" lon="-0.816534">
        <ele>744.6</ele>
        <time>2020-08-12T18:09:06Z</time>
      </trkpt>
      <trkpt lat="42.505071" lon="-0.816129">
        <ele>736.8</ele>
        <time>2020-08-12T18:09:09Z</time>
      </trkpt>
      <trkpt lat="42.505217" lon="-0.815998">
        <ele>736.8</ele>
        <time>2020-08-12T18:09:10Z</time>
      </trkpt>
      <trkpt lat="42.50562" lon="-0.815722">
        <ele>738.4</ele>
        <time>2020-08-12T18:09:13Z</time>
      </trkpt>
      <trkpt lat="42.505885" lon="-0.815601">
        <ele>733.2</ele>
        <time>2020-08-12T18:09:14Z</time>
      </trkpt>
      <trkpt lat="42.506084" lon="-0.815534">
        <ele>733.2</ele>
        <time>2020-08-12T18:09:16Z</time>
      </trkpt>
      <trkpt lat="42.508464" lon="-0.81502">
        <ele>720.6</ele>
        <time>2020-08-12T18:09:30Z</time>
      </trkpt>
      <trkpt lat="42.508688" lon="-0.814928">
        <ele>718.8</ele>
        <time>2020-08-12T18:09:32Z</time>
      </trkpt>
      <trkpt lat="42.509053" lon="-0.814716">
        <ele>718.8</ele>
        <time>2020-08-12T18:09:34Z</time>
      </trkpt>
      <trkpt lat="42.509344" lon="-0.814462">
        <ele>711.6</ele>
        <time>2020-08-12T18:09:36Z</time>
      </trkpt>
      <trkpt lat="42.509594" lon="-0.814158">
        <ele>712.2</ele>
        <time>2020-08-12T18:09:38Z</time>
      </trkpt>
      <trkpt lat="42.510186" lon="-0.813207">
        <ele>704.8</ele>
        <time>2020-08-12T18:09:44Z</time>
      </trkpt>
      <trkpt lat="42.510495" lon="-0.812796">
        <ele>704.8</ele>
        <time>2020-08-12T18:09:46Z</time>
      </trkpt>
      <trkpt lat="42.510669" lon="-0.812623">
        <ele>704.8</ele>
        <time>2020-08-12T18:09:48Z</time>
      </trkpt>
      <trkpt lat="42.511018" lon="-0.812354">
        <ele>699.4</ele>
        <time>2020-08-12T18:09:50Z</time>
      </trkpt>
      <trkpt lat="42.511289" lon="-0.812225">
        <ele>699.4</ele>
        <time>2020-08-12T18:09:52Z</time>
      </trkpt>
      <trkpt lat="42.511688" lon="-0.812097">
        <ele>695.0</ele>
        <time>2020-08-12T18:09:55Z</time>
      </trkpt>
      <trkpt lat="42.521404" lon="-0.809616">
        <ele>681.2</ele>
        <time>2020-08-12T18:10:55Z</time>
      </trkpt>
      <trkpt lat="42.521619" lon="-0.809549">
        <ele>681.2</ele>
        <time>2020-08-12T18:10:56Z</time>
      </trkpt>
      <trkpt lat="42.52203" lon="-0.809381">
        <ele>681.0</ele>
        <time>2020-08-12T18:10:59Z</time>
      </trkpt>
      <trkpt lat="42.522441" lon="-0.809144">
        <ele>686.0</ele>
        <time>2020-08-12T18:11:01Z</time>
      </trkpt>
      <trkpt lat="42.522647" lon="-0.808994">
        <ele>686.2</ele>
        <time>2020-08-12T18:11:03Z</time>
      </trkpt>
      <trkpt lat="42.52647" lon="-0.805798">
        <ele>688.0</ele>
        <time>2020-08-12T18:11:30Z</time>
      </trkpt>
      <trkpt lat="42.526909" lon="-0.805485">
        <ele>683.2</ele>
        <time>2020-08-12T18:11:33Z</time>
      </trkpt>
      <trkpt lat="42.527374" lon="-0.80524">
        <ele>683.2</ele>
        <time>2020-08-12T18:11:36Z</time>
      </trkpt>
      <trkpt lat="42.527895" lon="-0.805061">
        <ele>683.2</ele>
        <time>2020-08-12T18:11:39Z</time>
      </trkpt>
      <trkpt lat="42.53036" lon="-0.804555">
        <ele>673.6</ele>
        <time>2020-08-12T18:11:55Z</time>
      </trkpt>
      <trkpt lat="42.531019" lon="-0.80438">
        <ele>673.2</ele>
        <time>2020-08-12T18:11:59Z</time>
      </trkpt>
      <trkpt lat="42.531467" lon="-0.8042">
        <ele>673.2</ele>
        <time>2020-08-12T18:12:01Z</time>
      </trkpt>
      <trkpt lat="42.532013" lon="-0.803928">
        <ele>672.4</ele>
        <time>2020-08-12T18:12:05Z</time>
      </trkpt>
      <trkpt lat="42.536227" lon="-0.801251">
        <ele>664.8</ele>
        <time>2020-08-12T18:12:33Z</time>
      </trkpt>
      <trkpt lat="42.5372" lon="-0.800666">
        <ele>666.6</ele>
        <time>2020-08-12T18:12:40Z</time>
      </trkpt>
      <trkpt lat="42.538988" lon="-0.799643">
        <ele>658.2</ele>
        <time>2020-08-12T18:12:52Z</time>
      </trkpt>
      <trkpt lat="42.540115" lon="-0.798927">
        <ele>655.2</ele>
        <time>2020-08-12T18:12:59Z</time>
      </trkpt>
      <trkpt lat="42.54346" lon="-0.796626">
        <ele>644.8</ele>
        <time>2020-08-12T18:13:22Z</time>
      </trkpt>
      <trkpt lat="42.543896" lon="-0.796307">
        <ele>644.8</ele>
        <time>2020-08-12T18:13:25Z</time>
      </trkpt>
      <trkpt lat="42.54415" lon="-0.79608">
        <ele>644.8</ele>
        <time>2020-08-12T18:13:27Z</time>
      </trkpt>
      <trkpt lat="42.544387" lon="-0.795804">
        <ele>640.2</ele>
        <time>2020-08-12T18:13:29Z</time>
      </trkpt>
      <trkpt lat="42.544492" lon="-0.795658">
        <ele>640.2</ele>
        <time>2020-08-12T18:13:30Z</time>
      </trkpt>
      <trkpt lat="42.544738" lon="-0.795218">
        <ele>640.2</ele>
        <time>2020-08-12T18:13:32Z</time>
      </trkpt>
      <trkpt lat="42.544947" lon="-0.794662">
        <ele>634.8</ele>
        <time>2020-08-12T18:13:35Z</time>
      </trkpt>
      <trkpt lat="42.545047" lon="-0.794228">
        <ele>642.8</ele>
        <time>2020-08-12T18:13:37Z</time>
      </trkpt>
      <trkpt lat="42.545119" lon="-0.793698">
        <ele>637.6</ele>
        <time>2020-08-12T18:13:39Z</time>
      </trkpt>
      <trkpt lat="42.5452" lon="-0.792676">
        <ele>634.6</ele>
        <time>2020-08-12T18:13:44Z</time>
      </trkpt>
      <trkpt lat="42.545242" lon="-0.792458">
        <ele>634.8</ele>
        <time>2020-08-12T18:13:45Z</time>
      </trkpt>
      <trkpt lat="42.545325" lon="-0.792216">
        <ele>634.8</ele>
        <time>2020-08-12T18:13:46Z</time>
      </trkpt>
      <trkpt lat="42.545466" lon="-0.791956">
        <ele>634.8</ele>
        <time>2020-08-12T18:13:48Z</time>
      </trkpt>
      <trkpt lat="42.54556" lon="-0.791831">
        <ele>634.8</ele>
        <time>2020-08-12T18:13:48Z</time>
      </trkpt>
      <trkpt lat="42.54576" lon="-0.79165">
        <ele>637.8</ele>
        <time>2020-08-12T18:13:50Z</time>
      </trkpt>
      <trkpt lat="42.545961" lon="-0.791533">
        <ele>630.8</ele>
        <time>2020-08-12T18:13:51Z</time>
      </trkpt>
      <trkpt lat="42.546091" lon="-0.791495">
        <ele>630.8</ele>
        <time>2020-08-12T18:13:52Z</time>
      </trkpt>
      <trkpt lat="42.546348" lon="-0.791484">
        <ele>630.8</ele>
        <time>2020-08-12T18:13:54Z</time>
      </trkpt>
      <trkpt lat="42.546588" lon="-0.791536">
        <ele>630.8</ele>
        <time>2020-08-12T18:13:55Z</time>
      </trkpt>
      <trkpt lat="42.546999" lon="-0.791701">
        <ele>634.4</ele>
        <time>2020-08-12T18:13:58Z</time>
      </trkpt>
      <trkpt lat="42.547239" lon="-0.791819">
        <ele>634.4</ele>
        <time>2020-08-12T18:13:59Z</time>
      </trkpt>
      <trkpt lat="42.547401" lon="-0.791948">
        <ele>634.4</ele>
        <time>2020-08-12T18:14:00Z</time>
      </trkpt>
      <trkpt lat="42.547493" lon="-0.792046">
        <ele>634.4</ele>
        <time>2020-08-12T18:14:01Z</time>
      </trkpt>
      <trkpt lat="42.548146" lon="-0.792942">
        <ele>631.8</ele>
        <time>2020-08-12T18:14:07Z</time>
      </trkpt>
      <trkpt lat="42.548355" lon="-0.793178">
        <ele>624.4</ele>
        <time>2020-08-12T18:14:09Z</time>
      </trkpt>
      <trkpt lat="42.548557" lon="-0.793321">
        <ele>624.4</ele>
        <time>2020-08-12T18:14:10Z</time>
      </trkpt>
      <trkpt lat="42.548732" lon="-0.793395">
        <ele>638.6</ele>
        <time>2020-08-12T18:14:11Z</time>
      </trkpt>
      <trkpt lat="42.548906" lon="-0.793423">
        <ele>638.6</ele>
        <time>2020-08-12T18:14:12Z</time>
      </trkpt>
      <trkpt lat="42.549452" lon="-0.793415">
        <ele>629.6</ele>
        <time>2020-08-12T18:14:16Z</time>
      </trkpt>
      <trkpt lat="42.549684" lon="-0.793446">
        <ele>629.6</ele>
        <time>2020-08-12T18:14:17Z</time>
      </trkpt>
      <trkpt lat="42.549898" lon="-0.79352">
        <ele>629.6</ele>
        <time>2020-08-12T18:14:18Z</time>
      </trkpt>
      <trkpt lat="42.550478" lon="-0.793842">
        <ele>622.4</ele>
        <time>2020-08-12T18:14:22Z</time>
      </trkpt>
      <trkpt lat="42.550629" lon="-0.793897">
        <ele>622.4</ele>
        <time>2020-08-12T18:14:23Z</time>
      </trkpt>
      <trkpt lat="42.550804" lon="-0.793928">
        <ele>622.4</ele>
        <time>2020-08-12T18:14:24Z</time>
      </trkpt>
      <trkpt lat="42.551016" lon="-0.793931">
        <ele>618.8</ele>
        <time>2020-08-12T18:14:26Z</time>
      </trkpt>
      <trkpt lat="42.551724" lon="-0.793854">
        <ele>618.4</ele>
        <time>2020-08-12T18:14:30Z</time>
      </trkpt>
      <trkpt lat="42.552036" lon="-0.793777">
        <ele>618.4</ele>
        <time>2020-08-12T18:14:32Z</time>
      </trkpt>
      <trkpt lat="42.552288" lon="-0.793651">
        <ele>618.4</ele>
        <time>2020-08-12T18:14:33Z</time>
      </trkpt>
      <trkpt lat="42.552458" lon="-0.793528">
        <ele>618.4</ele>
        <time>2020-08-12T18:14:35Z</time>
      </trkpt>
      <trkpt lat="42.552597" lon="-0.793394">
        <ele>611.8</ele>
        <time>2020-08-12T18:14:36Z</time>
      </trkpt>
      <trkpt lat="42.552825" lon="-0.793105">
        <ele>622.4</ele>
        <time>2020-08-12T18:14:38Z</time>
      </trkpt>
      <trkpt lat="42.552933" lon="-0.792908">
        <ele>622.4</ele>
        <time>2020-08-12T18:14:39Z</time>
      </trkpt>
      <trkpt lat="42.553003" lon="-0.792741">
        <ele>622.4</ele>
        <time>2020-08-12T18:14:40Z</time>
      </trkpt>
      <trkpt lat="42.553114" lon="-0.792379">
        <ele>640.2</ele>
        <time>2020-08-12T18:14:42Z</time>
      </trkpt>
      <trkpt lat="42.553153" lon="-0.792167">
        <ele>640.2</ele>
        <time>2020-08-12T18:14:43Z</time>
      </trkpt>
      <trkpt lat="42.553191" lon="-0.791723">
        <ele>640.2</ele>
        <time>2020-08-12T18:14:45Z</time>
      </trkpt>
      <trkpt lat="42.553235" lon="-0.790473">
        <ele>660.4</ele>
        <time>2020-08-12T18:14:50Z</time>
      </trkpt>
      <trkpt lat="42.553256" lon="-0.790248">
        <ele>660.4</ele>
        <time>2020-08-12T18:14:51Z</time>
      </trkpt>
      <trkpt lat="42.553336" lon="-0.789749">
        <ele>628.4</ele>
        <time>2020-08-12T18:14:54Z</time>
      </trkpt>
      <trkpt lat="42.553391" lon="-0.789495">
        <ele>628.4</ele>
        <time>2020-08-12T18:14:55Z</time>
      </trkpt>
      <trkpt lat="42.553773" lon="-0.788147">
        <ele>634.8</ele>
        <time>2020-08-12T18:15:02Z</time>
      </trkpt>
      <trkpt lat="42.55389" lon="-0.787641">
        <ele>634.8</ele>
        <time>2020-08-12T18:15:04Z</time>
      </trkpt>
      <trkpt lat="42.554002" lon="-0.786889">
        <ele>637.8</ele>
        <time>2020-08-12T18:15:08Z</time>
      </trkpt>
      <trkpt lat="42.55409" lon="-0.78595">
        <ele>639.4</ele>
        <time>2020-08-12T18:15:14Z</time>
      </trkpt>
      <trkpt lat="42.555494" lon="-0.785928">
        <ele>600.2</ele>
        <time>2020-08-12T18:15:29Z</time>
      </trkpt>
      <trkpt lat="42.555623" lon="-0.785897">
        <ele>600.2</ele>
        <time>2020-08-12T18:15:30Z</time>
      </trkpt>
      <trkpt lat="42.555757" lon="-0.785749">
        <ele>600.8</ele>
        <time>2020-08-12T18:15:33Z</time>
      </trkpt>
      <trkpt lat="42.555775" lon="-0.785665">
        <ele>600.8</ele>
        <time>2020-08-12T18:15:33Z</time>
      </trkpt>
      <trkpt lat="42.555812" lon="-0.785594">
        <ele>600.8</ele>
        <time>2020-08-12T18:15:33Z</time>
      </trkpt>
      <trkpt lat="42.555864" lon="-0.785542">
        <ele>601.2</ele>
        <time>2020-08-12T18:15:34Z</time>
      </trkpt>
      <trkpt lat="42.555925" lon="-0.785517">
        <ele>601.2</ele>
        <time>2020-08-12T18:15:34Z</time>
      </trkpt>
      <trkpt lat="42.55599" lon="-0.78552">
        <ele>601.2</ele>
        <time>2020-08-12T18:15:34Z</time>
      </trkpt>
      <trkpt lat="42.55599" lon="-0.78552">
        <ele>601.2</ele>
        <time>2020-08-12T18:15:34Z</time>
      </trkpt>
      <trkpt lat="42.55605" lon="-0.785551">
        <ele>601.2</ele>
        <time>2020-08-12T18:15:35Z</time>
      </trkpt>
      <trkpt lat="42.556099" lon="-0.785607">
        <ele>601.2</ele>
        <time>2020-08-12T18:15:35Z</time>
      </trkpt>
      <trkpt lat="42.556132" lon="-0.785681">
        <ele>601.2</ele>
        <time>2020-08-12T18:15:36Z</time>
      </trkpt>
      <trkpt lat="42.556146" lon="-0.785766">
        <ele>601.2</ele>
        <time>2020-08-12T18:15:36Z</time>
      </trkpt>
      <trkpt lat="42.556139" lon="-0.785853">
        <ele>600.8</ele>
        <time>2020-08-12T18:15:36Z</time>
      </trkpt>
      <trkpt lat="42.556112" lon="-0.785931">
        <ele>600.8</ele>
        <time>2020-08-12T18:15:37Z</time>
      </trkpt>
      <trkpt lat="42.55614" lon="-0.78607">
        <ele>600.8</ele>
        <time>2020-08-12T18:15:38Z</time>
      </trkpt>
      <trkpt lat="42.557156" lon="-0.786591">
        <ele>602.2</ele>
        <time>2020-08-12T18:15:45Z</time>
      </trkpt>
      <trkpt lat="42.559639" lon="-0.787744">
        <ele>602.4</ele>
        <time>2020-08-12T18:16:03Z</time>
      </trkpt>
      <trkpt lat="42.560528" lon="-0.78818">
        <ele>602.8</ele>
        <time>2020-08-12T18:16:10Z</time>
      </trkpt>
      <trkpt lat="42.560675" lon="-0.78829">
        <ele>602.8</ele>
        <time>2020-08-12T18:16:11Z</time>
      </trkpt>
      <trkpt lat="42.560819" lon="-0.788426">
        <ele>599.2</ele>
        <time>2020-08-12T18:16:12Z</time>
      </trkpt>
      <trkpt lat="42.56102" lon="-0.788674">
        <ele>603.2</ele>
        <time>2020-08-12T18:16:14Z</time>
      </trkpt>
      <trkpt lat="42.561904" lon="-0.789988">
        <ele>608.0</ele>
        <time>2020-08-12T18:16:23Z</time>
      </trkpt>
      <trkpt lat="42.561998" lon="-0.790165">
        <ele>605.6</ele>
        <time>2020-08-12T18:16:24Z</time>
      </trkpt>
      <trkpt lat="42.562095" lon="-0.790385">
        <ele>605.6</ele>
        <time>2020-08-12T18:16:26Z</time>
      </trkpt>
      <trkpt lat="42.562175" lon="-0.790616">
        <ele>605.6</ele>
        <time>2020-08-12T18:16:27Z</time>
      </trkpt>
      <trkpt lat="42.564108" lon="-0.799605">
        <ele>594.2</ele>
        <time>2020-08-12T18:17:15Z</time>
      </trkpt>
      <trkpt lat="42.564297" lon="-0.800103">
        <ele>601.4</ele>
        <time>2020-08-12T18:17:18Z</time>
      </trkpt>
      <trkpt lat="42.564603" lon="-0.800757">
        <ele>601.4</ele>
        <time>2020-08-12T18:17:22Z</time>
      </trkpt>
      <trkpt lat="42.565564" lon="-0.802687">
        <ele>592.8</ele>
        <time>2020-08-12T18:17:33Z</time>
      </trkpt>
      <trkpt lat="42.568281" lon="-0.808254">
        <ele>589.0</ele>
        <time>2020-08-12T18:18:08Z</time>
      </trkpt>
      <trkpt lat="42.56856" lon="-0.8089">
        <ele>594.0</ele>
        <time>2020-08-12T18:18:11Z</time>
      </trkpt>
      <trkpt lat="42.569808" lon="-0.812265">
        <ele>584.8</ele>
        <time>2020-08-12T18:18:31Z</time>
      </trkpt>
      <trkpt lat="42.570734" lon="-0.816218">
        <ele>582.6</ele>
        <time>2020-08-12T18:18:52Z</time>
      </trkpt>
      <trkpt lat="42.570968" lon="-0.817167">
        <ele>588.4</ele>
        <time>2020-08-12T18:18:57Z</time>
      </trkpt>
      <trkpt lat="42.571072" lon="-0.817432">
        <ele>588.4</ele>
        <time>2020-08-12T18:18:58Z</time>
      </trkpt>
      <trkpt lat="42.571233" lon="-0.817693">
        <ele>584.2</ele>
        <time>2020-08-12T18:19:00Z</time>
      </trkpt>
      <trkpt lat="42.571382" lon="-0.817834">
        <ele>584.2</ele>
        <time>2020-08-12T18:19:01Z</time>
      </trkpt>
      <trkpt lat="42.5717" lon="-0.818046">
        <ele>588.4</ele>
        <time>2020-08-12T18:19:04Z</time>
      </trkpt>
      <trkpt lat="42.571876" lon="-0.818215">
        <ele>588.4</ele>
        <time>2020-08-12T18:19:05Z</time>
      </trkpt>
      <trkpt lat="42.572132" lon="-0.818634">
        <ele>584.6</ele>
        <time>2020-08-12T18:19:08Z</time>
      </trkpt>
      <trkpt lat="42.572616" lon="-0.819667">
        <ele>588.6</ele>
        <time>2020-08-12T18:19:14Z</time>
      </trkpt>
      <trkpt lat="42.573054" lon="-0.820739">
        <ele>587.8</ele>
        <time>2020-08-12T18:19:21Z</time>
      </trkpt>
      <trkpt lat="42.574085" lon="-0.823107">
        <ele>586.2</ele>
        <time>2020-08-12T18:19:35Z</time>
      </trkpt>
      <trkpt lat="42.574158" lon="-0.823222">
        <ele>586.2</ele>
        <time>2020-08-12T18:19:35Z</time>
      </trkpt>
      <trkpt lat="42.574287" lon="-0.823329">
        <ele>596.8</ele>
        <time>2020-08-12T18:19:37Z</time>
      </trkpt>
      <trkpt lat="42.574422" lon="-0.823343">
        <ele>589.2</ele>
        <time>2020-08-12T18:19:38Z</time>
      </trkpt>
      <trkpt lat="42.574501" lon="-0.823323">
        <ele>596.8</ele>
        <time>2020-08-12T18:19:39Z</time>
      </trkpt>
      <trkpt lat="42.574683" lon="-0.823201">
        <ele>596.8</ele>
        <time>2020-08-12T18:19:40Z</time>
      </trkpt>
      <trkpt lat="42.574775" lon="-0.823087">
        <ele>596.8</ele>
        <time>2020-08-12T18:19:41Z</time>
      </trkpt>
      <trkpt lat="42.575122" lon="-0.822515">
        <ele>604.2</ele>
        <time>2020-08-12T18:19:45Z</time>
      </trkpt>
      <trkpt lat="42.575241" lon="-0.822364">
        <ele>612.8</ele>
        <time>2020-08-12T18:19:46Z</time>
      </trkpt>
      <trkpt lat="42.575299" lon="-0.822326">
        <ele>612.8</ele>
        <time>2020-08-12T18:19:46Z</time>
      </trkpt>
      <trkpt lat="42.575434" lon="-0.822279">
        <ele>612.8</ele>
        <time>2020-08-12T18:19:47Z</time>
      </trkpt>
      <trkpt lat="42.576147" lon="-0.822212">
        <ele>613.2</ele>
        <time>2020-08-12T18:19:52Z</time>
      </trkpt>
      <trkpt lat="42.576259" lon="-0.822175">
        <ele>613.2</ele>
        <time>2020-08-12T18:19:53Z</time>
      </trkpt>
      <trkpt lat="42.576342" lon="-0.82212">
        <ele>613.2</ele>
        <time>2020-08-12T18:19:54Z</time>
      </trkpt>
      <trkpt lat="42.576421" lon="-0.822049">
        <ele>613.2</ele>
        <time>2020-08-12T18:19:54Z</time>
      </trkpt>
      <trkpt lat="42.576562" lon="-0.821845">
        <ele>613.2</ele>
        <time>2020-08-12T18:19:56Z</time>
      </trkpt>
      <trkpt lat="42.577166" lon="-0.820652">
        <ele>621.4</ele>
        <time>2020-08-12T18:20:03Z</time>
      </trkpt>
      <trkpt lat="42.577243" lon="-0.820556">
        <ele>621.4</ele>
        <time>2020-08-12T18:20:04Z</time>
      </trkpt>
      <trkpt lat="42.577336" lon="-0.820512">
        <ele>621.4</ele>
        <time>2020-08-12T18:20:05Z</time>
      </trkpt>
      <trkpt lat="42.577411" lon="-0.820508">
        <ele>621.4</ele>
        <time>2020-08-12T18:20:05Z</time>
      </trkpt>
      <trkpt lat="42.57753" lon="-0.820564">
        <ele>621.2</ele>
        <time>2020-08-12T18:20:06Z</time>
      </trkpt>
      <trkpt lat="42.577625" lon="-0.820693">
        <ele>621.2</ele>
        <time>2020-08-12T18:20:07Z</time>
      </trkpt>
      <trkpt lat="42.577673" lon="-0.820866">
        <ele>620.4</ele>
        <time>2020-08-12T18:20:08Z</time>
      </trkpt>
      <trkpt lat="42.577672" lon="-0.821034">
        <ele>620.4</ele>
        <time>2020-08-12T18:20:09Z</time>
      </trkpt>
      <trkpt lat="42.577594" lon="-0.821703">
        <ele>620.8</ele>
        <time>2020-08-12T18:20:12Z</time>
      </trkpt>
      <trkpt lat="42.577552" lon="-0.822307">
        <ele>620.8</ele>
        <time>2020-08-12T18:20:15Z</time>
      </trkpt>
      <trkpt lat="42.577571" lon="-0.822537">
        <ele>624.2</ele>
        <time>2020-08-12T18:20:16Z</time>
      </trkpt>
      <trkpt lat="42.577656" lon="-0.822759">
        <ele>624.2</ele>
        <time>2020-08-12T18:20:18Z</time>
      </trkpt>
      <trkpt lat="42.578099" lon="-0.823404">
        <ele>626.4</ele>
        <time>2020-08-12T18:20:22Z</time>
      </trkpt>
      <trkpt lat="42.580529" lon="-0.826739">
        <ele>624.8</ele>
        <time>2020-08-12T18:20:46Z</time>
      </trkpt>
      <trkpt lat="42.581217" lon="-0.827892">
        <ele>621.8</ele>
        <time>2020-08-12T18:20:54Z</time>
      </trkpt>
      <trkpt lat="42.581507" lon="-0.828278">
        <ele>621.8</ele>
        <time>2020-08-12T18:20:57Z</time>
      </trkpt>
      <trkpt lat="42.583764" lon="-0.830975">
        <ele>609.2</ele>
        <time>2020-08-12T18:21:17Z</time>
      </trkpt>
      <trkpt lat="42.584013" lon="-0.831266">
        <ele>609.2</ele>
        <time>2020-08-12T18:21:20Z</time>
      </trkpt>
      <trkpt lat="42.584138" lon="-0.831381">
        <ele>609.2</ele>
        <time>2020-08-12T18:21:21Z</time>
      </trkpt>
      <trkpt lat="42.58445" lon="-0.831575">
        <ele>608.8</ele>
        <time>2020-08-12T18:21:23Z</time>
      </trkpt>
      <trkpt lat="42.586272" lon="-0.832594">
        <ele>611.6</ele>
        <time>2020-08-12T18:21:37Z</time>
      </trkpt>
      <trkpt lat="42.586441" lon="-0.832713">
        <ele>611.6</ele>
        <time>2020-08-12T18:21:38Z</time>
      </trkpt>
      <trkpt lat="42.586597" lon="-0.832871">
        <ele>611.6</ele>
        <time>2020-08-12T18:21:39Z</time>
      </trkpt>
      <trkpt lat="42.586727" lon="-0.833087">
        <ele>612.2</ele>
        <time>2020-08-12T18:21:41Z</time>
      </trkpt>
      <trkpt lat="42.58684" lon="-0.833322">
        <ele>612.2</ele>
        <time>2020-08-12T18:21:42Z</time>
      </trkpt>
      <trkpt lat="42.587868" lon="-0.835584">
        <ele>602.2</ele>
        <time>2020-08-12T18:21:56Z</time>
      </trkpt>
      <trkpt lat="42.588044" lon="-0.835933">
        <ele>599.2</ele>
        <time>2020-08-12T18:21:58Z</time>
      </trkpt>
      <trkpt lat="42.588181" lon="-0.836047">
        <ele>599.2</ele>
        <time>2020-08-12T18:21:59Z</time>
      </trkpt>
      <trkpt lat="42.588405" lon="-0.83611">
        <ele>602.6</ele>
        <time>2020-08-12T18:22:01Z</time>
      </trkpt>
      <trkpt lat="42.588622" lon="-0.836059">
        <ele>602.6</ele>
        <time>2020-08-12T18:22:02Z</time>
      </trkpt>
      <trkpt lat="42.589301" lon="-0.83577">
        <ele>607.2</ele>
        <time>2020-08-12T18:22:07Z</time>
      </trkpt>
      <trkpt lat="42.5895" lon="-0.835745">
        <ele>607.2</ele>
        <time>2020-08-12T18:22:09Z</time>
      </trkpt>
      <trkpt lat="42.589664" lon="-0.835772">
        <ele>607.2</ele>
        <time>2020-08-12T18:22:10Z</time>
      </trkpt>
      <trkpt lat="42.589832" lon="-0.835904">
        <ele>605.0</ele>
        <time>2020-08-12T18:22:11Z</time>
      </trkpt>
      <trkpt lat="42.590039" lon="-0.836189">
        <ele>608.2</ele>
        <time>2020-08-12T18:22:13Z</time>
      </trkpt>
      <trkpt lat="42.590155" lon="-0.836404">
        <ele>608.2</ele>
        <time>2020-08-12T18:22:14Z</time>
      </trkpt>
      <trkpt lat="42.590237" lon="-0.836726">
        <ele>610.2</ele>
        <time>2020-08-12T18:22:16Z</time>
      </trkpt>
      <trkpt lat="42.590259" lon="-0.837083">
        <ele>610.2</ele>
        <time>2020-08-12T18:22:18Z</time>
      </trkpt>
      <trkpt lat="42.590219" lon="-0.837297">
        <ele>610.2</ele>
        <time>2020-08-12T18:22:19Z</time>
      </trkpt>
      <trkpt lat="42.590125" lon="-0.837477">
        <ele>610.2</ele>
        <time>2020-08-12T18:22:20Z</time>
      </trkpt>
      <trkpt lat="42.589949" lon="-0.837717">
        <ele>613.2</ele>
        <time>2020-08-12T18:22:22Z</time>
      </trkpt>
      <trkpt lat="42.589524" lon="-0.838205">
        <ele>613.2</ele>
        <time>2020-08-12T18:22:26Z</time>
      </trkpt>
      <trkpt lat="42.589439" lon="-0.838336">
        <ele>618.2</ele>
        <time>2020-08-12T18:22:27Z</time>
      </trkpt>
      <trkpt lat="42.589396" lon="-0.838435">
        <ele>618.2</ele>
        <time>2020-08-12T18:22:27Z</time>
      </trkpt>
      <trkpt lat="42.58936" lon="-0.838584">
        <ele>618.2</ele>
        <time>2020-08-12T18:22:28Z</time>
      </trkpt>
      <trkpt lat="42.589362" lon="-0.838759">
        <ele>618.2</ele>
        <time>2020-08-12T18:22:29Z</time>
      </trkpt>
      <trkpt lat="42.589427" lon="-0.838955">
        <ele>618.2</ele>
        <time>2020-08-12T18:22:30Z</time>
      </trkpt>
      <trkpt lat="42.589724" lon="-0.839392">
        <ele>619.8</ele>
        <time>2020-08-12T18:22:33Z</time>
      </trkpt>
      <trkpt lat="42.598207" lon="-0.85112">
        <ele>628.8</ele>
        <time>2020-08-12T18:23:57Z</time>
      </trkpt>
      <trkpt lat="42.598445" lon="-0.851509">
        <ele>629.8</ele>
        <time>2020-08-12T18:24:00Z</time>
      </trkpt>
      <trkpt lat="42.598551" lon="-0.851749">
        <ele>628.2</ele>
        <time>2020-08-12T18:24:01Z</time>
      </trkpt>
      <trkpt lat="42.598695" lon="-0.852111">
        <ele>628.2</ele>
        <time>2020-08-12T18:24:03Z</time>
      </trkpt>
      <trkpt lat="42.598838" lon="-0.852603">
        <ele>627.2</ele>
        <time>2020-08-12T18:24:06Z</time>
      </trkpt>
      <trkpt lat="42.598943" lon="-0.853132">
        <ele>627.2</ele>
        <time>2020-08-12T18:24:09Z</time>
      </trkpt>
      <trkpt lat="42.599016" lon="-0.853647">
        <ele>626.0</ele>
        <time>2020-08-12T18:24:11Z</time>
      </trkpt>
      <trkpt lat="42.599387" lon="-0.859056">
        <ele>631.2</ele>
        <time>2020-08-12T18:24:39Z</time>
      </trkpt>
      <trkpt lat="42.599422" lon="-0.859273">
        <ele>627.2</ele>
        <time>2020-08-12T18:24:40Z</time>
      </trkpt>
      <trkpt lat="42.599556" lon="-0.859545">
        <ele>627.2</ele>
        <time>2020-08-12T18:24:42Z</time>
      </trkpt>
      <trkpt lat="42.600006" lon="-0.860298">
        <ele>623.4</ele>
        <time>2020-08-12T18:24:47Z</time>
      </trkpt>
      <trkpt lat="42.601373" lon="-0.863447">
        <ele>616.2</ele>
        <time>2020-08-12T18:25:06Z</time>
      </trkpt>
      <trkpt lat="42.601714" lon="-0.86406">
        <ele>619.0</ele>
        <time>2020-08-12T18:25:09Z</time>
      </trkpt>
      <trkpt lat="42.602392" lon="-0.865138">
        <ele>611.0</ele>
        <time>2020-08-12T18:25:17Z</time>
      </trkpt>
      <trkpt lat="42.602554" lon="-0.865328">
        <ele>610.0</ele>
        <time>2020-08-12T18:25:18Z</time>
      </trkpt>
      <trkpt lat="42.602904" lon="-0.865627">
        <ele>610.0</ele>
        <time>2020-08-12T18:25:21Z</time>
      </trkpt>
      <trkpt lat="42.603478" lon="-0.865837">
        <ele>598.2</ele>
        <time>2020-08-12T18:25:25Z</time>
      </trkpt>
      <trkpt lat="42.604703" lon="-0.866215">
        <ele>598.0</ele>
        <time>2020-08-12T18:25:34Z</time>
      </trkpt>
      <trkpt lat="42.605061" lon="-0.86636">
        <ele>599.4</ele>
        <time>2020-08-12T18:25:37Z</time>
      </trkpt>
      <trkpt lat="42.605967" lon="-0.866826">
        <ele>592.8</ele>
        <time>2020-08-12T18:25:43Z</time>
      </trkpt>
      <trkpt lat="42.606204" lon="-0.867017">
        <ele>592.8</ele>
        <time>2020-08-12T18:25:45Z</time>
      </trkpt>
      <trkpt lat="42.606349" lon="-0.867195">
        <ele>592.8</ele>
        <time>2020-08-12T18:25:47Z</time>
      </trkpt>
      <trkpt lat="42.606468" lon="-0.867447">
        <ele>592.8</ele>
        <time>2020-08-12T18:25:48Z</time>
      </trkpt>
      <trkpt lat="42.606571" lon="-0.867872">
        <ele>588.6</ele>
        <time>2020-08-12T18:25:50Z</time>
      </trkpt>
      <trkpt lat="42.606913" lon="-0.87155">
        <ele>588.2</ele>
        <time>2020-08-12T18:26:09Z</time>
      </trkpt>
      <trkpt lat="42.607017" lon="-0.871934">
        <ele>595.0</ele>
        <time>2020-08-12T18:26:11Z</time>
      </trkpt>
      <trkpt lat="42.607125" lon="-0.87213">
        <ele>595.0</ele>
        <time>2020-08-12T18:26:13Z</time>
      </trkpt>
      <trkpt lat="42.607353" lon="-0.87238">
        <ele>595.0</ele>
        <time>2020-08-12T18:26:15Z</time>
      </trkpt>
      <trkpt lat="42.607646" lon="-0.872523">
        <ele>606.4</ele>
        <time>2020-08-12T18:26:17Z</time>
      </trkpt>
      <trkpt lat="42.60933" lon="-0.872945">
        <ele>607.6</ele>
        <time>2020-08-12T18:26:29Z</time>
      </trkpt>
      <trkpt lat="42.609599" lon="-0.873137">
        <ele>607.6</ele>
        <time>2020-08-12T18:26:31Z</time>
      </trkpt>
      <trkpt lat="42.610117" lon="-0.873587">
        <ele>611.4</ele>
        <time>2020-08-12T18:26:35Z</time>
      </trkpt>
      <trkpt lat="42.610266" lon="-0.87374">
        <ele>611.4</ele>
        <time>2020-08-12T18:26:37Z</time>
      </trkpt>
      <trkpt lat="42.610266" lon="-0.87374">
        <ele>611.4</ele>
        <time>2020-08-12T18:26:37Z</time>
      </trkpt>
      <trkpt lat="42.610398" lon="-0.874009">
        <ele>611.4</ele>
        <time>2020-08-12T18:26:38Z</time>
      </trkpt>
      <trkpt lat="42.610473" lon="-0.874396">
        <ele>612.4</ele>
        <time>2020-08-12T18:26:40Z</time>
      </trkpt>
      <trkpt lat="42.610767" lon="-0.878559">
        <ele>610.6</ele>
        <time>2020-08-12T18:26:59Z</time>
      </trkpt>
      <trkpt lat="42.610753" lon="-0.879057">
        <ele>610.6</ele>
        <time>2020-08-12T18:27:02Z</time>
      </trkpt>
      <trkpt lat="42.610424" lon="-0.881999">
        <ele>607.4</ele>
        <time>2020-08-12T18:27:15Z</time>
      </trkpt>
      <trkpt lat="42.610411" lon="-0.882396">
        <ele>607.4</ele>
        <time>2020-08-12T18:27:17Z</time>
      </trkpt>
      <trkpt lat="42.610903" lon="-0.887633">
        <ele>596.8</ele>
        <time>2020-08-12T18:27:41Z</time>
      </trkpt>
      <trkpt lat="42.611251" lon="-0.889566">
        <ele>600.0</ele>
        <time>2020-08-12T18:27:50Z</time>
      </trkpt>
      <trkpt lat="42.611241" lon="-0.890075">
        <ele>600.2</ele>
        <time>2020-08-12T18:27:52Z</time>
      </trkpt>
      <trkpt lat="42.611085" lon="-0.890553">
        <ele>600.2</ele>
        <time>2020-08-12T18:27:54Z</time>
      </trkpt>
      <trkpt lat="42.610709" lon="-0.891064">
        <ele>600.0</ele>
        <time>2020-08-12T18:27:58Z</time>
      </trkpt>
      <trkpt lat="42.610006" lon="-0.891917">
        <ele>598.0</ele>
        <time>2020-08-12T18:28:04Z</time>
      </trkpt>
      <trkpt lat="42.609744" lon="-0.892369">
        <ele>597.8</ele>
        <time>2020-08-12T18:28:06Z</time>
      </trkpt>
      <trkpt lat="42.60968" lon="-0.892535">
        <ele>596.0</ele>
        <time>2020-08-12T18:28:07Z</time>
      </trkpt>
      <trkpt lat="42.609647" lon="-0.892686">
        <ele>596.0</ele>
        <time>2020-08-12T18:28:08Z</time>
      </trkpt>
      <trkpt lat="42.60961" lon="-0.893001">
        <ele>596.0</ele>
        <time>2020-08-12T18:28:09Z</time>
      </trkpt>
      <trkpt lat="42.609709" lon="-0.894904">
        <ele>591.8</ele>
        <time>2020-08-12T18:28:18Z</time>
      </trkpt>
      <trkpt lat="42.609699" lon="-0.895222">
        <ele>588.4</ele>
        <time>2020-08-12T18:28:19Z</time>
      </trkpt>
      <trkpt lat="42.609642" lon="-0.89572">
        <ele>588.4</ele>
        <time>2020-08-12T18:28:22Z</time>
      </trkpt>
      <trkpt lat="42.609564" lon="-0.896068">
        <ele>586.2</ele>
        <time>2020-08-12T18:28:23Z</time>
      </trkpt>
      <trkpt lat="42.609124" lon="-0.897621">
        <ele>577.4</ele>
        <time>2020-08-12T18:28:31Z</time>
      </trkpt>
      <trkpt lat="42.608815" lon="-0.898837">
        <ele>575.4</ele>
        <time>2020-08-12T18:28:37Z</time>
      </trkpt>
      <trkpt lat="42.608751" lon="-0.899204">
        <ele>572.2</ele>
        <time>2020-08-12T18:28:38Z</time>
      </trkpt>
      <trkpt lat="42.608729" lon="-0.899525">
        <ele>572.2</ele>
        <time>2020-08-12T18:28:40Z</time>
      </trkpt>
      <trkpt lat="42.608761" lon="-0.89982">
        <ele>572.2</ele>
        <time>2020-08-12T18:28:41Z</time>
      </trkpt>
      <trkpt lat="42.609289" lon="-0.901258">
        <ele>560.0</ele>
        <time>2020-08-12T18:28:48Z</time>
      </trkpt>
      <trkpt lat="42.609458" lon="-0.901622">
        <ele>560.0</ele>
        <time>2020-08-12T18:28:50Z</time>
      </trkpt>
      <trkpt lat="42.609647" lon="-0.901949">
        <ele>553.8</ele>
        <time>2020-08-12T18:28:52Z</time>
      </trkpt>
      <trkpt lat="42.609877" lon="-0.90217">
        <ele>553.8</ele>
        <time>2020-08-12T18:28:54Z</time>
      </trkpt>
      <trkpt lat="42.610094" lon="-0.902325">
        <ele>551.6</ele>
        <time>2020-08-12T18:28:56Z</time>
      </trkpt>
      <trkpt lat="42.610323" lon="-0.902422">
        <ele>551.6</ele>
        <time>2020-08-12T18:28:57Z</time>
      </trkpt>
      <trkpt lat="42.610544" lon="-0.902459">
        <ele>551.6</ele>
        <time>2020-08-12T18:28:58Z</time>
      </trkpt>
      <trkpt lat="42.610773" lon="-0.902464">
        <ele>551.6</ele>
        <time>2020-08-12T18:29:00Z</time>
      </trkpt>
      <trkpt lat="42.610986" lon="-0.902443">
        <ele>545.6</ele>
        <time>2020-08-12T18:29:01Z</time>
      </trkpt>
      <trkpt lat="42.612977" lon="-0.902445">
        <ele>541.8</ele>
        <time>2020-08-12T18:29:14Z</time>
      </trkpt>
      <trkpt lat="42.613306" lon="-0.902614">
        <ele>540.2</ele>
        <time>2020-08-12T18:29:16Z</time>
      </trkpt>
      <trkpt lat="42.613454" lon="-0.902834">
        <ele>542.4</ele>
        <time>2020-08-12T18:29:17Z</time>
      </trkpt>
      <trkpt lat="42.613598" lon="-0.903101">
        <ele>542.4</ele>
        <time>2020-08-12T18:29:19Z</time>
      </trkpt>
      <trkpt lat="42.613698" lon="-0.903507">
        <ele>542.2</ele>
        <time>2020-08-12T18:29:20Z</time>
      </trkpt>
      <trkpt lat="42.613719" lon="-0.903879">
        <ele>542.2</ele>
        <time>2020-08-12T18:29:22Z</time>
      </trkpt>
      <trkpt lat="42.613719" lon="-0.904291">
        <ele>543.4</ele>
        <time>2020-08-12T18:29:24Z</time>
      </trkpt>
      <trkpt lat="42.613687" lon="-0.904516">
        <ele>543.4</ele>
        <time>2020-08-12T18:29:25Z</time>
      </trkpt>
      <trkpt lat="42.613623" lon="-0.904721">
        <ele>543.4</ele>
        <time>2020-08-12T18:29:26Z</time>
      </trkpt>
      <trkpt lat="42.612903" lon="-0.906172">
        <ele>544.6</ele>
        <time>2020-08-12T18:29:34Z</time>
      </trkpt>
      <trkpt lat="42.612865" lon="-0.906388">
        <ele>544.6</ele>
        <time>2020-08-12T18:29:35Z</time>
      </trkpt>
      <trkpt lat="42.612896" lon="-0.906459">
        <ele>544.6</ele>
        <time>2020-08-12T18:29:35Z</time>
      </trkpt>
      <trkpt lat="42.612906" lon="-0.90654">
        <ele>544.6</ele>
        <time>2020-08-12T18:29:36Z</time>
      </trkpt>
      <trkpt lat="42.612897" lon="-0.906621">
        <ele>544.6</ele>
        <time>2020-08-12T18:29:36Z</time>
      </trkpt>
      <trkpt lat="42.612868" lon="-0.906694">
        <ele>552.8</ele>
        <time>2020-08-12T18:29:37Z</time>
      </trkpt>
      <trkpt lat="42.612824" lon="-0.906749">
        <ele>552.8</ele>
        <time>2020-08-12T18:29:37Z</time>
      </trkpt>
      <trkpt lat="42.612774" lon="-0.906779">
        <ele>552.8</ele>
        <time>2020-08-12T18:29:37Z</time>
      </trkpt>
      <trkpt lat="42.612665" lon="-0.906773">
        <ele>552.8</ele>
        <time>2020-08-12T18:29:38Z</time>
      </trkpt>
      <trkpt lat="42.612519" lon="-0.906924">
        <ele>552.8</ele>
        <time>2020-08-12T18:29:39Z</time>
      </trkpt>
      <trkpt lat="42.611336" lon="-0.909241">
        <ele>560.2</ele>
        <time>2020-08-12T18:29:51Z</time>
      </trkpt>
      <trkpt lat="42.61107" lon="-0.909519">
        <ele>560.2</ele>
        <time>2020-08-12T18:29:53Z</time>
      </trkpt>
      <trkpt lat="42.60917" lon="-0.909905">
        <ele>544.4</ele>
        <time>2020-08-12T18:30:04Z</time>
      </trkpt>
      <trkpt lat="42.608736" lon="-0.910079">
        <ele>545.4</ele>
        <time>2020-08-12T18:30:07Z</time>
      </trkpt>
      <trkpt lat="42.608358" lon="-0.910435">
        <ele>545.4</ele>
        <time>2020-08-12T18:30:10Z</time>
      </trkpt>
      <trkpt lat="42.608068" lon="-0.910828">
        <ele>536.2</ele>
        <time>2020-08-12T18:30:12Z</time>
      </trkpt>
      <trkpt lat="42.607296" lon="-0.911715">
        <ele>542.6</ele>
        <time>2020-08-12T18:30:18Z</time>
      </trkpt>
      <trkpt lat="42.60645" lon="-0.912805">
        <ele>540.8</ele>
        <time>2020-08-12T18:30:25Z</time>
      </trkpt>
      <trkpt lat="42.605501" lon="-0.915042">
        <ele>535.2</ele>
        <time>2020-08-12T18:30:36Z</time>
      </trkpt>
      <trkpt lat="42.605331" lon="-0.91593">
        <ele>533.8</ele>
        <time>2020-08-12T18:30:40Z</time>
      </trkpt>
      <trkpt lat="42.605331" lon="-0.916489">
        <ele>533.8</ele>
        <time>2020-08-12T18:30:42Z</time>
      </trkpt>
      <trkpt lat="42.605623" lon="-0.917936">
        <ele>530.0</ele>
        <time>2020-08-12T18:30:49Z</time>
      </trkpt>
      <trkpt lat="42.605744" lon="-0.918665">
        <ele>528.6</ele>
        <time>2020-08-12T18:30:52Z</time>
      </trkpt>
      <trkpt lat="42.605696" lon="-0.91948">
        <ele>529.4</ele>
        <time>2020-08-12T18:30:55Z</time>
      </trkpt>
      <trkpt lat="42.605513" lon="-0.920391">
        <ele>531.2</ele>
        <time>2020-08-12T18:30:59Z</time>
      </trkpt>
      <trkpt lat="42.605197" lon="-0.92168">
        <ele>529.8</ele>
        <time>2020-08-12T18:31:05Z</time>
      </trkpt>
      <trkpt lat="42.605215" lon="-0.922131">
        <ele>529.8</ele>
        <time>2020-08-12T18:31:07Z</time>
      </trkpt>
      <trkpt lat="42.605307" lon="-0.92258">
        <ele>528.8</ele>
        <time>2020-08-12T18:31:09Z</time>
      </trkpt>
      <trkpt lat="42.60543" lon="-0.923088">
        <ele>528.8</ele>
        <time>2020-08-12T18:31:11Z</time>
      </trkpt>
      <trkpt lat="42.605599" lon="-0.923589">
        <ele>528.0</ele>
        <time>2020-08-12T18:31:14Z</time>
      </trkpt>
      <trkpt lat="42.606875" lon="-0.926178">
        <ele>526.4</ele>
        <time>2020-08-12T18:31:27Z</time>
      </trkpt>
      <trkpt lat="42.607847" lon="-0.928257">
        <ele>525.8</ele>
        <time>2020-08-12T18:31:38Z</time>
      </trkpt>
      <trkpt lat="42.608018" lon="-0.928962">
        <ele>526.0</ele>
        <time>2020-08-12T18:31:41Z</time>
      </trkpt>
      <trkpt lat="42.607872" lon="-0.94349">
        <ele>520.4</ele>
        <time>2020-08-12T18:32:43Z</time>
      </trkpt>
      <trkpt lat="42.607932" lon="-0.945167">
        <ele>519.2</ele>
        <time>2020-08-12T18:32:50Z</time>
      </trkpt>
      <trkpt lat="42.608042" lon="-0.947307">
        <ele>520.2</ele>
        <time>2020-08-12T18:32:59Z</time>
      </trkpt>
      <trkpt lat="42.608176" lon="-0.947915">
        <ele>520.6</ele>
        <time>2020-08-12T18:33:02Z</time>
      </trkpt>
      <trkpt lat="42.6082" lon="-0.948486">
        <ele>519.8</ele>
        <time>2020-08-12T18:33:05Z</time>
      </trkpt>
      <trkpt lat="42.608164" lon="-0.949374">
        <ele>519.6</ele>
        <time>2020-08-12T18:33:08Z</time>
      </trkpt>
      <trkpt lat="42.608228" lon="-0.949908">
        <ele>519.6</ele>
        <time>2020-08-12T18:33:11Z</time>
      </trkpt>
      <trkpt lat="42.608808" lon="-0.951161">
        <ele>527.6</ele>
        <time>2020-08-12T18:33:17Z</time>
      </trkpt>
      <trkpt lat="42.608929" lon="-0.951708">
        <ele>531.4</ele>
        <time>2020-08-12T18:33:20Z</time>
      </trkpt>
      <trkpt lat="42.608857" lon="-0.952292">
        <ele>531.4</ele>
        <time>2020-08-12T18:33:22Z</time>
      </trkpt>
      <trkpt lat="42.608047" lon="-0.953876">
        <ele>527.8</ele>
        <time>2020-08-12T18:33:30Z</time>
      </trkpt>
      <trkpt lat="42.607918" lon="-0.954372">
        <ele>528.8</ele>
        <time>2020-08-12T18:33:33Z</time>
      </trkpt>
      <trkpt lat="42.607981" lon="-0.954966">
        <ele>528.8</ele>
        <time>2020-08-12T18:33:35Z</time>
      </trkpt>
      <trkpt lat="42.609727" lon="-0.96345">
        <ele>549.4</ele>
        <time>2020-08-12T18:34:13Z</time>
      </trkpt>
      <trkpt lat="42.609793" lon="-0.963883">
        <ele>549.4</ele>
        <time>2020-08-12T18:34:15Z</time>
      </trkpt>
      <trkpt lat="42.609797" lon="-0.964069">
        <ele>549.4</ele>
        <time>2020-08-12T18:34:16Z</time>
      </trkpt>
      <trkpt lat="42.609768" lon="-0.964242">
        <ele>551.8</ele>
        <time>2020-08-12T18:34:16Z</time>
      </trkpt>
      <trkpt lat="42.60792" lon="-0.970333">
        <ele>543.2</ele>
        <time>2020-08-12T18:34:45Z</time>
      </trkpt>
      <trkpt lat="42.607057" lon="-0.973068">
        <ele>533.0</ele>
        <time>2020-08-12T18:34:57Z</time>
      </trkpt>
      <trkpt lat="42.606863" lon="-0.975098">
        <ele>527.6</ele>
        <time>2020-08-12T18:35:06Z</time>
      </trkpt>
      <trkpt lat="42.606835" lon="-0.976081">
        <ele>526.2</ele>
        <time>2020-08-12T18:35:10Z</time>
      </trkpt>
      <trkpt lat="42.606887" lon="-0.977056">
        <ele>524.6</ele>
        <time>2020-08-12T18:35:15Z</time>
      </trkpt>
      <trkpt lat="42.606972" lon="-0.978259">
        <ele>522.2</ele>
        <time>2020-08-12T18:35:20Z</time>
      </trkpt>
      <trkpt lat="42.608431" lon="-0.985833">
        <ele>510.0</ele>
        <time>2020-08-12T18:35:53Z</time>
      </trkpt>
      <trkpt lat="42.609088" lon="-0.989055">
        <ele>507.6</ele>
        <time>2020-08-12T18:36:08Z</time>
      </trkpt>
      <trkpt lat="42.60972" lon="-0.992471">
        <ele>503.4</ele>
        <time>2020-08-12T18:36:23Z</time>
      </trkpt>
      <trkpt lat="42.610635" lon="-0.997238">
        <ele>499.0</ele>
        <time>2020-08-12T18:36:44Z</time>
      </trkpt>
      <trkpt lat="42.610671" lon="-0.997543">
        <ele>498.2</ele>
        <time>2020-08-12T18:36:45Z</time>
      </trkpt>
      <trkpt lat="42.61064" lon="-0.997932">
        <ele>498.2</ele>
        <time>2020-08-12T18:36:47Z</time>
      </trkpt>
      <trkpt lat="42.610609" lon="-0.998099">
        <ele>498.2</ele>
        <time>2020-08-12T18:36:48Z</time>
      </trkpt>
      <trkpt lat="42.610632" lon="-0.998293">
        <ele>498.2</ele>
        <time>2020-08-12T18:36:48Z</time>
      </trkpt>
      <trkpt lat="42.610658" lon="-0.998389">
        <ele>495.8</ele>
        <time>2020-08-12T18:36:49Z</time>
      </trkpt>
      <trkpt lat="42.610705" lon="-0.9985">
        <ele>495.8</ele>
        <time>2020-08-12T18:36:50Z</time>
      </trkpt>
      <trkpt lat="42.610708" lon="-0.998623">
        <ele>495.8</ele>
        <time>2020-08-12T18:36:50Z</time>
      </trkpt>
      <trkpt lat="42.610684" lon="-0.998706">
        <ele>495.8</ele>
        <time>2020-08-12T18:36:50Z</time>
      </trkpt>
      <trkpt lat="42.610681" lon="-0.998802">
        <ele>495.8</ele>
        <time>2020-08-12T18:36:51Z</time>
      </trkpt>
      <trkpt lat="42.610708" lon="-0.999043">
        <ele>495.8</ele>
        <time>2020-08-12T18:36:52Z</time>
      </trkpt>
      <trkpt lat="42.61075" lon="-0.999095">
        <ele>495.8</ele>
        <time>2020-08-12T18:36:52Z</time>
      </trkpt>
      <trkpt lat="42.611143" lon="-0.999425">
        <ele>499.8</ele>
        <time>2020-08-12T18:36:54Z</time>
      </trkpt>
      <trkpt lat="42.611223" lon="-0.999544">
        <ele>499.8</ele>
        <time>2020-08-12T18:36:55Z</time>
      </trkpt>
      <trkpt lat="42.612175" lon="-1.002435">
        <ele>502.2</ele>
        <time>2020-08-12T18:37:07Z</time>
      </trkpt>
      <trkpt lat="42.612303" lon="-1.002929">
        <ele>501.8</ele>
        <time>2020-08-12T18:37:09Z</time>
      </trkpt>
      <trkpt lat="42.612357" lon="-1.003224">
        <ele>501.8</ele>
        <time>2020-08-12T18:37:10Z</time>
      </trkpt>
      <trkpt lat="42.612811" lon="-1.006111">
        <ele>503.8</ele>
        <time>2020-08-12T18:37:21Z</time>
      </trkpt>
      <trkpt lat="42.612891" lon="-1.006336">
        <ele>503.8</ele>
        <time>2020-08-12T18:37:22Z</time>
      </trkpt>
      <trkpt lat="42.613135" lon="-1.006624">
        <ele>503.8</ele>
        <time>2020-08-12T18:37:24Z</time>
      </trkpt>
      <trkpt lat="42.613206" lon="-1.00679">
        <ele>505.6</ele>
        <time>2020-08-12T18:37:24Z</time>
      </trkpt>
      <trkpt lat="42.613223" lon="-1.006953">
        <ele>505.6</ele>
        <time>2020-08-12T18:37:25Z</time>
      </trkpt>
      <trkpt lat="42.613186" lon="-1.007124">
        <ele>505.6</ele>
        <time>2020-08-12T18:37:26Z</time>
      </trkpt>
      <trkpt lat="42.613154" lon="-1.007187">
        <ele>505.6</ele>
        <time>2020-08-12T18:37:26Z</time>
      </trkpt>
      <trkpt lat="42.612926" lon="-1.007422">
        <ele>505.6</ele>
        <time>2020-08-12T18:37:27Z</time>
      </trkpt>
      <trkpt lat="42.61287" lon="-1.007518">
        <ele>508.0</ele>
        <time>2020-08-12T18:37:28Z</time>
      </trkpt>
      <trkpt lat="42.612832" lon="-1.007621">
        <ele>508.0</ele>
        <time>2020-08-12T18:37:28Z</time>
      </trkpt>
      <trkpt lat="42.612786" lon="-1.007905">
        <ele>508.0</ele>
        <time>2020-08-12T18:37:29Z</time>
      </trkpt>
      <trkpt lat="42.612779" lon="-1.008075">
        <ele>508.0</ele>
        <time>2020-08-12T18:37:30Z</time>
      </trkpt>
      <trkpt lat="42.612802" lon="-1.008431">
        <ele>510.6</ele>
        <time>2020-08-12T18:37:31Z</time>
      </trkpt>
      <trkpt lat="42.612832" lon="-1.008561">
        <ele>510.6</ele>
        <time>2020-08-12T18:37:32Z</time>
      </trkpt>
      <trkpt lat="42.613059" lon="-1.009116">
        <ele>510.6</ele>
        <time>2020-08-12T18:37:34Z</time>
      </trkpt>
      <trkpt lat="42.613121" lon="-1.009355">
        <ele>512.8</ele>
        <time>2020-08-12T18:37:35Z</time>
      </trkpt>
      <trkpt lat="42.613172" lon="-1.009684">
        <ele>512.8</ele>
        <time>2020-08-12T18:37:37Z</time>
      </trkpt>
      <trkpt lat="42.613172" lon="-1.010069">
        <ele>516.2</ele>
        <time>2020-08-12T18:37:38Z</time>
      </trkpt>
      <trkpt lat="42.612639" lon="-1.015407">
        <ele>524.8</ele>
        <time>2020-08-12T18:37:58Z</time>
      </trkpt>
      <trkpt lat="42.612479" lon="-1.016846">
        <ele>519.2</ele>
        <time>2020-08-12T18:38:04Z</time>
      </trkpt>
      <trkpt lat="42.612479" lon="-1.017624">
        <ele>517.0</ele>
        <time>2020-08-12T18:38:07Z</time>
      </trkpt>
      <trkpt lat="42.612759" lon="-1.020068">
        <ele>504.4</ele>
        <time>2020-08-12T18:38:16Z</time>
      </trkpt>
      <trkpt lat="42.613622" lon="-1.028371">
        <ele>488.2</ele>
        <time>2020-08-12T18:38:48Z</time>
      </trkpt>
      <trkpt lat="42.613914" lon="-1.031225">
        <ele>487.4</ele>
        <time>2020-08-12T18:38:59Z</time>
      </trkpt>
      <trkpt lat="42.613928" lon="-1.031498">
        <ele>487.4</ele>
        <time>2020-08-12T18:39:00Z</time>
      </trkpt>
      <trkpt lat="42.613886" lon="-1.032115">
        <ele>490.4</ele>
        <time>2020-08-12T18:39:02Z</time>
      </trkpt>
      <trkpt lat="42.613799" lon="-1.032898">
        <ele>498.0</ele>
        <time>2020-08-12T18:39:05Z</time>
      </trkpt>
      <trkpt lat="42.613754" lon="-1.033096">
        <ele>498.0</ele>
        <time>2020-08-12T18:39:06Z</time>
      </trkpt>
      <trkpt lat="42.61361" lon="-1.03343">
        <ele>510.6</ele>
        <time>2020-08-12T18:39:07Z</time>
      </trkpt>
      <trkpt lat="42.613488" lon="-1.033596">
        <ele>510.6</ele>
        <time>2020-08-12T18:39:08Z</time>
      </trkpt>
      <trkpt lat="42.613354" lon="-1.033722">
        <ele>510.6</ele>
        <time>2020-08-12T18:39:09Z</time>
      </trkpt>
      <trkpt lat="42.613151" lon="-1.033832">
        <ele>501.8</ele>
        <time>2020-08-12T18:39:10Z</time>
      </trkpt>
      <trkpt lat="42.612724" lon="-1.033996">
        <ele>501.8</ele>
        <time>2020-08-12T18:39:12Z</time>
      </trkpt>
      <trkpt lat="42.611565" lon="-1.034567">
        <ele>491.6</ele>
        <time>2020-08-12T18:39:19Z</time>
      </trkpt>
      <trkpt lat="42.611401" lon="-1.034691">
        <ele>491.6</ele>
        <time>2020-08-12T18:39:20Z</time>
      </trkpt>
      <trkpt lat="42.611273" lon="-1.034836">
        <ele>491.6</ele>
        <time>2020-08-12T18:39:21Z</time>
      </trkpt>
      <trkpt lat="42.611159" lon="-1.035011">
        <ele>493.2</ele>
        <time>2020-08-12T18:39:21Z</time>
      </trkpt>
      <trkpt lat="42.611082" lon="-1.035219">
        <ele>493.2</ele>
        <time>2020-08-12T18:39:22Z</time>
      </trkpt>
      <trkpt lat="42.611032" lon="-1.035464">
        <ele>493.2</ele>
        <time>2020-08-12T18:39:23Z</time>
      </trkpt>
      <trkpt lat="42.611019" lon="-1.035676">
        <ele>493.2</ele>
        <time>2020-08-12T18:39:24Z</time>
      </trkpt>
      <trkpt lat="42.61104" lon="-1.035927">
        <ele>492.6</ele>
        <time>2020-08-12T18:39:25Z</time>
      </trkpt>
      <trkpt lat="42.611171" lon="-1.036481">
        <ele>492.6</ele>
        <time>2020-08-12T18:39:27Z</time>
      </trkpt>
      <trkpt lat="42.611203" lon="-1.036671">
        <ele>493.4</ele>
        <time>2020-08-12T18:39:28Z</time>
      </trkpt>
      <trkpt lat="42.611215" lon="-1.036868">
        <ele>493.4</ele>
        <time>2020-08-12T18:39:29Z</time>
      </trkpt>
      <trkpt lat="42.611165" lon="-1.037267">
        <ele>493.4</ele>
        <time>2020-08-12T18:39:30Z</time>
      </trkpt>
      <trkpt lat="42.611078" lon="-1.037584">
        <ele>496.4</ele>
        <time>2020-08-12T18:39:32Z</time>
      </trkpt>
      <trkpt lat="42.610575" lon="-1.039174">
        <ele>495.0</ele>
        <time>2020-08-12T18:39:38Z</time>
      </trkpt>
      <trkpt lat="42.610488" lon="-1.039358">
        <ele>495.0</ele>
        <time>2020-08-12T18:39:39Z</time>
      </trkpt>
      <trkpt lat="42.610375" lon="-1.03954">
        <ele>495.0</ele>
        <time>2020-08-12T18:39:40Z</time>
      </trkpt>
      <trkpt lat="42.609891" lon="-1.040139">
        <ele>491.2</ele>
        <time>2020-08-12T18:39:43Z</time>
      </trkpt>
      <trkpt lat="42.609761" lon="-1.040332">
        <ele>491.2</ele>
        <time>2020-08-12T18:39:44Z</time>
      </trkpt>
      <trkpt lat="42.609691" lon="-1.040485">
        <ele>491.2</ele>
        <time>2020-08-12T18:39:45Z</time>
      </trkpt>
      <trkpt lat="42.609629" lon="-1.040711">
        <ele>491.2</ele>
        <time>2020-08-12T18:39:46Z</time>
      </trkpt>
      <trkpt lat="42.609599" lon="-1.0409">
        <ele>492.6</ele>
        <time>2020-08-12T18:39:46Z</time>
      </trkpt>
      <trkpt lat="42.609593" lon="-1.041117">
        <ele>492.6</ele>
        <time>2020-08-12T18:39:47Z</time>
      </trkpt>
      <trkpt lat="42.609613" lon="-1.041335">
        <ele>492.6</ele>
        <time>2020-08-12T18:39:48Z</time>
      </trkpt>
      <trkpt lat="42.610315" lon="-1.044139">
        <ele>495.2</ele>
        <time>2020-08-12T18:39:59Z</time>
      </trkpt>
      <trkpt lat="42.610585" lon="-1.04497">
        <ele>492.8</ele>
        <time>2020-08-12T18:40:03Z</time>
      </trkpt>
      <trkpt lat="42.610694" lon="-1.045126">
        <ele>490.6</ele>
        <time>2020-08-12T18:40:03Z</time>
      </trkpt>
      <trkpt lat="42.610798" lon="-1.045157">
        <ele>490.6</ele>
        <time>2020-08-12T18:40:04Z</time>
      </trkpt>
      <trkpt lat="42.610899" lon="-1.045155">
        <ele>496.2</ele>
        <time>2020-08-12T18:40:05Z</time>
      </trkpt>
      <trkpt lat="42.611028" lon="-1.045092">
        <ele>496.2</ele>
        <time>2020-08-12T18:40:06Z</time>
      </trkpt>
      <trkpt lat="42.611107" lon="-1.0451">
        <ele>496.2</ele>
        <time>2020-08-12T18:40:06Z</time>
      </trkpt>
      <trkpt lat="42.611184" lon="-1.04514">
        <ele>496.2</ele>
        <time>2020-08-12T18:40:07Z</time>
      </trkpt>
      <trkpt lat="42.611248" lon="-1.045211">
        <ele>496.2</ele>
        <time>2020-08-12T18:40:07Z</time>
      </trkpt>
      <trkpt lat="42.611292" lon="-1.045305">
        <ele>496.2</ele>
        <time>2020-08-12T18:40:08Z</time>
      </trkpt>
      <trkpt lat="42.611314" lon="-1.045414">
        <ele>496.2</ele>
        <time>2020-08-12T18:40:08Z</time>
      </trkpt>
      <trkpt lat="42.61131" lon="-1.045525">
        <ele>496.2</ele>
        <time>2020-08-12T18:40:09Z</time>
      </trkpt>
      <trkpt lat="42.611281" lon="-1.04563">
        <ele>496.2</ele>
        <time>2020-08-12T18:40:09Z</time>
      </trkpt>
      <trkpt lat="42.611229" lon="-1.045718">
        <ele>496.2</ele>
        <time>2020-08-12T18:40:10Z</time>
      </trkpt>
      <trkpt lat="42.611161" lon="-1.04578">
        <ele>496.2</ele>
        <time>2020-08-12T18:40:10Z</time>
      </trkpt>
      <trkpt lat="42.611082" lon="-1.045811">
        <ele>496.2</ele>
        <time>2020-08-12T18:40:11Z</time>
      </trkpt>
      <trkpt lat="42.610996" lon="-1.045932">
        <ele>493.4</ele>
        <time>2020-08-12T18:40:12Z</time>
      </trkpt>
      <trkpt lat="42.610958" lon="-1.046046">
        <ele>493.4</ele>
        <time>2020-08-12T18:40:12Z</time>
      </trkpt>
      <trkpt lat="42.610932" lon="-1.04647">
        <ele>493.4</ele>
        <time>2020-08-12T18:40:14Z</time>
      </trkpt>
      <trkpt lat="42.610982" lon="-1.046824">
        <ele>490.8</ele>
        <time>2020-08-12T18:40:16Z</time>
      </trkpt>
      <trkpt lat="42.611128" lon="-1.047529">
        <ele>490.2</ele>
        <time>2020-08-12T18:40:19Z</time>
      </trkpt>
      <trkpt lat="42.61158" lon="-1.050351">
        <ele>491.4</ele>
        <time>2020-08-12T18:40:32Z</time>
      </trkpt>
      <trkpt lat="42.611847" lon="-1.052236">
        <ele>492.4</ele>
        <time>2020-08-12T18:40:41Z</time>
      </trkpt>
      <trkpt lat="42.612017" lon="-1.052783">
        <ele>491.2</ele>
        <time>2020-08-12T18:40:44Z</time>
      </trkpt>
      <trkpt lat="42.612306" lon="-1.053175">
        <ele>491.2</ele>
        <time>2020-08-12T18:40:46Z</time>
      </trkpt>
      <trkpt lat="42.61422" lon="-1.054047">
        <ele>493.0</ele>
        <time>2020-08-12T18:40:59Z</time>
      </trkpt>
      <trkpt lat="42.614551" lon="-1.054336">
        <ele>491.2</ele>
        <time>2020-08-12T18:41:01Z</time>
      </trkpt>
      <trkpt lat="42.614733" lon="-1.054557">
        <ele>491.2</ele>
        <time>2020-08-12T18:41:03Z</time>
      </trkpt>
      <trkpt lat="42.614848" lon="-1.054914">
        <ele>491.2</ele>
        <time>2020-08-12T18:41:05Z</time>
      </trkpt>
      <trkpt lat="42.614843" lon="-1.055647">
        <ele>490.2</ele>
        <time>2020-08-12T18:41:08Z</time>
      </trkpt>
      <trkpt lat="42.614687" lon="-1.057154">
        <ele>490.4</ele>
        <time>2020-08-12T18:41:15Z</time>
      </trkpt>
      <trkpt lat="42.61464" lon="-1.057777">
        <ele>489.8</ele>
        <time>2020-08-12T18:41:18Z</time>
      </trkpt>
      <trkpt lat="42.614674" lon="-1.05828">
        <ele>489.8</ele>
        <time>2020-08-12T18:41:20Z</time>
      </trkpt>
      <trkpt lat="42.615594" lon="-1.061207">
        <ele>490.4</ele>
        <time>2020-08-12T18:41:35Z</time>
      </trkpt>
      <trkpt lat="42.615931" lon="-1.062596">
        <ele>494.4</ele>
        <time>2020-08-12T18:41:41Z</time>
      </trkpt>
      <trkpt lat="42.615951" lon="-1.063208">
        <ele>494.4</ele>
        <time>2020-08-12T18:41:44Z</time>
      </trkpt>
      <trkpt lat="42.615717" lon="-1.064812">
        <ele>491.4</ele>
        <time>2020-08-12T18:41:51Z</time>
      </trkpt>
      <trkpt lat="42.61542" lon="-1.066691">
        <ele>495.0</ele>
        <time>2020-08-12T18:42:00Z</time>
      </trkpt>
      <trkpt lat="42.615042" lon="-1.067856">
        <ele>498.8</ele>
        <time>2020-08-12T18:42:06Z</time>
      </trkpt>
      <trkpt lat="42.61474" lon="-1.068507">
        <ele>490.6</ele>
        <time>2020-08-12T18:42:10Z</time>
      </trkpt>
      <trkpt lat="42.614624" lon="-1.06901">
        <ele>490.6</ele>
        <time>2020-08-12T18:42:12Z</time>
      </trkpt>
      <trkpt lat="42.614552" lon="-1.069592">
        <ele>490.2</ele>
        <time>2020-08-12T18:42:15Z</time>
      </trkpt>
      <trkpt lat="42.614981" lon="-1.071605">
        <ele>489.0</ele>
        <time>2020-08-12T18:42:24Z</time>
      </trkpt>
      <trkpt lat="42.615022" lon="-1.072289">
        <ele>498.2</ele>
        <time>2020-08-12T18:42:27Z</time>
      </trkpt>
      <trkpt lat="42.614838" lon="-1.072863">
        <ele>495.4</ele>
        <time>2020-08-12T18:42:30Z</time>
      </trkpt>
      <trkpt lat="42.61445" lon="-1.0734">
        <ele>501.6</ele>
        <time>2020-08-12T18:42:34Z</time>
      </trkpt>
      <trkpt lat="42.614218" lon="-1.073845">
        <ele>501.6</ele>
        <time>2020-08-12T18:42:36Z</time>
      </trkpt>
      <trkpt lat="42.614123" lon="-1.074373">
        <ele>488.0</ele>
        <time>2020-08-12T18:42:39Z</time>
      </trkpt>
      <trkpt lat="42.614184" lon="-1.076037">
        <ele>505.6</ele>
        <time>2020-08-12T18:42:46Z</time>
      </trkpt>
      <trkpt lat="42.614072" lon="-1.076834">
        <ele>491.8</ele>
        <time>2020-08-12T18:42:50Z</time>
      </trkpt>
      <trkpt lat="42.613732" lon="-1.078399">
        <ele>494.8</ele>
        <time>2020-08-12T18:42:58Z</time>
      </trkpt>
      <trkpt lat="42.613643" lon="-1.079061">
        <ele>494.8</ele>
        <time>2020-08-12T18:43:01Z</time>
      </trkpt>
      <trkpt lat="42.613715" lon="-1.079847">
        <ele>492.6</ele>
        <time>2020-08-12T18:43:04Z</time>
      </trkpt>
      <trkpt lat="42.613898" lon="-1.080787">
        <ele>489.8</ele>
        <time>2020-08-12T18:43:09Z</time>
      </trkpt>
      <trkpt lat="42.614266" lon="-1.081696">
        <ele>491.8</ele>
        <time>2020-08-12T18:43:14Z</time>
      </trkpt>
      <trkpt lat="42.615042" lon="-1.083402">
        <ele>494.2</ele>
        <time>2020-08-12T18:43:23Z</time>
      </trkpt>
      <trkpt lat="42.615185" lon="-1.083902">
        <ele>494.2</ele>
        <time>2020-08-12T18:43:25Z</time>
      </trkpt>
      <trkpt lat="42.615175" lon="-1.084464">
        <ele>496.6</ele>
        <time>2020-08-12T18:43:28Z</time>
      </trkpt>
      <trkpt lat="42.615022" lon="-1.085006">
        <ele>501.8</ele>
        <time>2020-08-12T18:43:30Z</time>
      </trkpt>
      <trkpt lat="42.614348" lon="-1.085915">
        <ele>512.8</ele>
        <time>2020-08-12T18:43:36Z</time>
      </trkpt>
      <trkpt lat="42.613939" lon="-1.08618">
        <ele>519.2</ele>
        <time>2020-08-12T18:43:39Z</time>
      </trkpt>
      <trkpt lat="42.61352" lon="-1.08615">
        <ele>519.2</ele>
        <time>2020-08-12T18:43:42Z</time>
      </trkpt>
      <trkpt lat="42.612989" lon="-1.085874">
        <ele>524.4</ele>
        <time>2020-08-12T18:43:45Z</time>
      </trkpt>
      <trkpt lat="42.612601" lon="-1.085751">
        <ele>506.2</ele>
        <time>2020-08-12T18:43:48Z</time>
      </trkpt>
      <trkpt lat="42.611964" lon="-1.085685">
        <ele>504.4</ele>
        <time>2020-08-12T18:43:52Z</time>
      </trkpt>
      <trkpt lat="42.61159" lon="-1.085741">
        <ele>495.8</ele>
        <time>2020-08-12T18:43:54Z</time>
      </trkpt>
      <trkpt lat="42.611192" lon="-1.085976">
        <ele>510.4</ele>
        <time>2020-08-12T18:43:57Z</time>
      </trkpt>
      <trkpt lat="42.61065" lon="-1.086446">
        <ele>494.6</ele>
        <time>2020-08-12T18:44:01Z</time>
      </trkpt>
      <trkpt lat="42.610252" lon="-1.08713">
        <ele>504.2</ele>
        <time>2020-08-12T18:44:05Z</time>
      </trkpt>
      <trkpt lat="42.609435" lon="-1.088203">
        <ele>495.8</ele>
        <time>2020-08-12T18:44:12Z</time>
      </trkpt>
      <trkpt lat="42.609332" lon="-1.088393">
        <ele>495.0</ele>
        <time>2020-08-12T18:44:13Z</time>
      </trkpt>
      <trkpt lat="42.609241" lon="-1.08865">
        <ele>495.0</ele>
        <time>2020-08-12T18:44:15Z</time>
      </trkpt>
      <trkpt lat="42.609167" lon="-1.089496">
        <ele>487.8</ele>
        <time>2020-08-12T18:44:19Z</time>
      </trkpt>
      <trkpt lat="42.609047" lon="-1.08998">
        <ele>487.8</ele>
        <time>2020-08-12T18:44:21Z</time>
      </trkpt>
      <trkpt lat="42.60887" lon="-1.090395">
        <ele>491.4</ele>
        <time>2020-08-12T18:44:23Z</time>
      </trkpt>
      <trkpt lat="42.608483" lon="-1.091096">
        <ele>495.8</ele>
        <time>2020-08-12T18:44:27Z</time>
      </trkpt>
      <trkpt lat="42.608403" lon="-1.09141">
        <ele>495.8</ele>
        <time>2020-08-12T18:44:29Z</time>
      </trkpt>
      <trkpt lat="42.608313" lon="-1.094396">
        <ele>487.8</ele>
        <time>2020-08-12T18:44:42Z</time>
      </trkpt>
      <trkpt lat="42.608332" lon="-1.094741">
        <ele>487.8</ele>
        <time>2020-08-12T18:44:44Z</time>
      </trkpt>
      <trkpt lat="42.608417" lon="-1.095022">
        <ele>495.6</ele>
        <time>2020-08-12T18:44:45Z</time>
      </trkpt>
      <trkpt lat="42.608556" lon="-1.095312">
        <ele>495.6</ele>
        <time>2020-08-12T18:44:47Z</time>
      </trkpt>
      <trkpt lat="42.609261" lon="-1.096486">
        <ele>505.6</ele>
        <time>2020-08-12T18:44:54Z</time>
      </trkpt>
      <trkpt lat="42.609683" lon="-1.097122">
        <ele>501.8</ele>
        <time>2020-08-12T18:44:58Z</time>
      </trkpt>
      <trkpt lat="42.609883" lon="-1.097301">
        <ele>501.8</ele>
        <time>2020-08-12T18:44:59Z</time>
      </trkpt>
      <trkpt lat="42.610109" lon="-1.097412">
        <ele>510.6</ele>
        <time>2020-08-12T18:45:01Z</time>
      </trkpt>
      <trkpt lat="42.611524" lon="-1.09774">
        <ele>504.6</ele>
        <time>2020-08-12T18:45:10Z</time>
      </trkpt>
      <trkpt lat="42.611853" lon="-1.097856">
        <ele>511.4</ele>
        <time>2020-08-12T18:45:12Z</time>
      </trkpt>
      <trkpt lat="42.612162" lon="-1.098019">
        <ele>511.4</ele>
        <time>2020-08-12T18:45:14Z</time>
      </trkpt>
      <trkpt lat="42.612568" lon="-1.098276">
        <ele>522.8</ele>
        <time>2020-08-12T18:45:17Z</time>
      </trkpt>
      <trkpt lat="42.612899" lon="-1.098575">
        <ele>508.4</ele>
        <time>2020-08-12T18:45:19Z</time>
      </trkpt>
      <trkpt lat="42.613603" lon="-1.099267">
        <ele>507.8</ele>
        <time>2020-08-12T18:45:25Z</time>
      </trkpt>
      <trkpt lat="42.613744" lon="-1.099438">
        <ele>507.8</ele>
        <time>2020-08-12T18:45:26Z</time>
      </trkpt>
      <trkpt lat="42.613867" lon="-1.099665">
        <ele>507.8</ele>
        <time>2020-08-12T18:45:27Z</time>
      </trkpt>
      <trkpt lat="42.614024" lon="-1.100123">
        <ele>502.6</ele>
        <time>2020-08-12T18:45:30Z</time>
      </trkpt>
      <trkpt lat="42.614067" lon="-1.100527">
        <ele>502.6</ele>
        <time>2020-08-12T18:45:31Z</time>
      </trkpt>
      <trkpt lat="42.614043" lon="-1.101081">
        <ele>503.4</ele>
        <time>2020-08-12T18:45:34Z</time>
      </trkpt>
      <trkpt lat="42.613821" lon="-1.10206">
        <ele>506.8</ele>
        <time>2020-08-12T18:45:39Z</time>
      </trkpt>
      <trkpt lat="42.613627" lon="-1.10279">
        <ele>511.4</ele>
        <time>2020-08-12T18:45:42Z</time>
      </trkpt>
      <trkpt lat="42.61349" lon="-1.103095">
        <ele>511.4</ele>
        <time>2020-08-12T18:45:44Z</time>
      </trkpt>
      <trkpt lat="42.612928" lon="-1.103915">
        <ele>496.8</ele>
        <time>2020-08-12T18:45:49Z</time>
      </trkpt>
      <trkpt lat="42.612801" lon="-1.104191">
        <ele>500.0</ele>
        <time>2020-08-12T18:45:51Z</time>
      </trkpt>
      <trkpt lat="42.612754" lon="-1.104419">
        <ele>500.0</ele>
        <time>2020-08-12T18:45:52Z</time>
      </trkpt>
      <trkpt lat="42.612724" lon="-1.10479">
        <ele>500.0</ele>
        <time>2020-08-12T18:45:53Z</time>
      </trkpt>
      <trkpt lat="42.612652" lon="-1.106343">
        <ele>494.6</ele>
        <time>2020-08-12T18:46:00Z</time>
      </trkpt>
      <trkpt lat="42.612805" lon="-1.106884">
        <ele>489.0</ele>
        <time>2020-08-12T18:46:03Z</time>
      </trkpt>
      <trkpt lat="42.613051" lon="-1.107191">
        <ele>489.0</ele>
        <time>2020-08-12T18:46:05Z</time>
      </trkpt>
      <trkpt lat="42.613357" lon="-1.107374">
        <ele>496.4</ele>
        <time>2020-08-12T18:46:07Z</time>
      </trkpt>
      <trkpt lat="42.613905" lon="-1.107468">
        <ele>496.4</ele>
        <time>2020-08-12T18:46:11Z</time>
      </trkpt>
      <trkpt lat="42.614348" lon="-1.10758">
        <ele>490.4</ele>
        <time>2020-08-12T18:46:14Z</time>
      </trkpt>
      <trkpt lat="42.614619" lon="-1.107726">
        <ele>490.4</ele>
        <time>2020-08-12T18:46:15Z</time>
      </trkpt>
      <trkpt lat="42.614804" lon="-1.107946">
        <ele>490.4</ele>
        <time>2020-08-12T18:46:17Z</time>
      </trkpt>
      <trkpt lat="42.614929" lon="-1.108253">
        <ele>490.4</ele>
        <time>2020-08-12T18:46:18Z</time>
      </trkpt>
      <trkpt lat="42.614981" lon="-1.108621">
        <ele>489.4</ele>
        <time>2020-08-12T18:46:20Z</time>
      </trkpt>
      <trkpt lat="42.615008" lon="-1.108983">
        <ele>498.0</ele>
        <time>2020-08-12T18:46:22Z</time>
      </trkpt>
      <trkpt lat="42.615063" lon="-1.109336">
        <ele>494.2</ele>
        <time>2020-08-12T18:46:24Z</time>
      </trkpt>
      <trkpt lat="42.61514" lon="-1.109592">
        <ele>494.2</ele>
        <time>2020-08-12T18:46:25Z</time>
      </trkpt>
      <trkpt lat="42.615289" lon="-1.109829">
        <ele>494.2</ele>
        <time>2020-08-12T18:46:26Z</time>
      </trkpt>
      <trkpt lat="42.615495" lon="-1.110026">
        <ele>490.2</ele>
        <time>2020-08-12T18:46:28Z</time>
      </trkpt>
      <trkpt lat="42.616064" lon="-1.110343">
        <ele>496.0</ele>
        <time>2020-08-12T18:46:32Z</time>
      </trkpt>
      <trkpt lat="42.616289" lon="-1.11056">
        <ele>496.0</ele>
        <time>2020-08-12T18:46:33Z</time>
      </trkpt>
      <trkpt lat="42.616466" lon="-1.110861">
        <ele>498.0</ele>
        <time>2020-08-12T18:46:35Z</time>
      </trkpt>
      <trkpt lat="42.616554" lon="-1.111254">
        <ele>498.0</ele>
        <time>2020-08-12T18:46:37Z</time>
      </trkpt>
      <trkpt lat="42.616561" lon="-1.111549">
        <ele>498.0</ele>
        <time>2020-08-12T18:46:38Z</time>
      </trkpt>
      <trkpt lat="42.616474" lon="-1.112468">
        <ele>505.2</ele>
        <time>2020-08-12T18:46:43Z</time>
      </trkpt>
      <trkpt lat="42.616534" lon="-1.113039">
        <ele>515.8</ele>
        <time>2020-08-12T18:46:45Z</time>
      </trkpt>
      <trkpt lat="42.616662" lon="-1.113373">
        <ele>534.2</ele>
        <time>2020-08-12T18:46:47Z</time>
      </trkpt>
      <trkpt lat="42.61729" lon="-1.114435">
        <ele>541.6</ele>
        <time>2020-08-12T18:46:54Z</time>
      </trkpt>
      <trkpt lat="42.617443" lon="-1.114502">
        <ele>541.6</ele>
        <time>2020-08-12T18:46:55Z</time>
      </trkpt>
      <trkpt lat="42.617487" lon="-1.114495">
        <ele>541.6</ele>
        <time>2020-08-12T18:46:55Z</time>
      </trkpt>
      <trkpt lat="42.617558" lon="-1.114422">
        <ele>531.6</ele>
        <time>2020-08-12T18:46:57Z</time>
      </trkpt>
      <trkpt lat="42.617671" lon="-1.114262">
        <ele>531.6</ele>
        <time>2020-08-12T18:46:59Z</time>
      </trkpt>
      <trkpt lat="42.617703" lon="-1.114187">
        <ele>531.6</ele>
        <time>2020-08-12T18:47:00Z</time>
      </trkpt>
      <trkpt lat="42.617691" lon="-1.114017">
        <ele>528.0</ele>
        <time>2020-08-12T18:47:02Z</time>
      </trkpt>
      <trkpt lat="42.617618" lon="-1.113798">
        <ele>528.0</ele>
        <time>2020-08-12T18:47:04Z</time>
      </trkpt>
      <trkpt lat="42.617451" lon="-1.113458">
        <ele>526.4</ele>
        <time>2020-08-12T18:47:08Z</time>
      </trkpt>
      <trkpt lat="42.617367" lon="-1.113223">
        <ele>517.4</ele>
        <time>2020-08-12T18:47:11Z</time>
      </trkpt>
      <trkpt lat="42.617329" lon="-1.112984">
        <ele>517.4</ele>
        <time>2020-08-12T18:47:13Z</time>
      </trkpt>
      <trkpt lat="42.617334" lon="-1.112861">
        <ele>517.4</ele>
        <time>2020-08-12T18:47:14Z</time>
      </trkpt>
      <trkpt lat="42.617355" lon="-1.112744">
        <ele>517.4</ele>
        <time>2020-08-12T18:47:15Z</time>
      </trkpt>
      <trkpt lat="42.617427" lon="-1.112558">
        <ele>517.4</ele>
        <time>2020-08-12T18:47:18Z</time>
      </trkpt>
      <trkpt lat="42.617547" lon="-1.112414">
        <ele>522.6</ele>
        <time>2020-08-12T18:47:20Z</time>
      </trkpt>
      <trkpt lat="42.617619" lon="-1.112363">
        <ele>522.6</ele>
        <time>2020-08-12T18:47:21Z</time>
      </trkpt>
      <trkpt lat="42.617748" lon="-1.112326">
        <ele>522.6</ele>
        <time>2020-08-12T18:47:22Z</time>
      </trkpt>
      <trkpt lat="42.617887" lon="-1.112336">
        <ele>522.6</ele>
        <time>2020-08-12T18:47:24Z</time>
      </trkpt>
      <trkpt lat="42.617983" lon="-1.112375">
        <ele>522.6</ele>
        <time>2020-08-12T18:47:26Z</time>
      </trkpt>
      <trkpt lat="42.618088" lon="-1.11246">
        <ele>522.6</ele>
        <time>2020-08-12T18:47:27Z</time>
      </trkpt>
      <trkpt lat="42.61819" lon="-1.112582">
        <ele>527.6</ele>
        <time>2020-08-12T18:47:29Z</time>
      </trkpt>
      <trkpt lat="42.619226" lon="-1.114231">
        <ele>552.0</ele>
        <time>2020-08-12T18:47:50Z</time>
      </trkpt>
      <trkpt lat="42.619388" lon="-1.114461">
        <ele>552.0</ele>
        <time>2020-08-12T18:47:53Z</time>
      </trkpt>
      <trkpt lat="42.619567" lon="-1.114629">
        <ele>552.0</ele>
        <time>2020-08-12T18:47:56Z</time>
      </trkpt>
      <trkpt lat="42.6198" lon="-1.114713">
        <ele>552.0</ele>
        <time>2020-08-12T18:47:59Z</time>
      </trkpt>
      <trkpt lat="42.620186" lon="-1.11481">
        <ele>556.2</ele>
        <time>2020-08-12T18:48:05Z</time>
      </trkpt>
      <trkpt lat="42.620388" lon="-1.114945">
        <ele>556.2</ele>
        <time>2020-08-12T18:48:08Z</time>
      </trkpt>
      <trkpt lat="42.620542" lon="-1.11515">
        <ele>562.8</ele>
        <time>2020-08-12T18:48:11Z</time>
      </trkpt>
      <trkpt lat="42.620769" lon="-1.115609">
        <ele>562.8</ele>
        <time>2020-08-12T18:48:16Z</time>
      </trkpt>
      <trkpt lat="42.620874" lon="-1.115761">
        <ele>563.0</ele>
        <time>2020-08-12T18:48:18Z</time>
      </trkpt>
      <trkpt lat="42.620971" lon="-1.115849">
        <ele>571.0</ele>
        <time>2020-08-12T18:48:20Z</time>
      </trkpt>
      <trkpt lat="42.62109" lon="-1.115901">
        <ele>571.0</ele>
        <time>2020-08-12T18:48:21Z</time>
      </trkpt>
      <trkpt lat="42.621195" lon="-1.115909">
        <ele>571.0</ele>
        <time>2020-08-12T18:48:23Z</time>
      </trkpt>
      <trkpt lat="42.621385" lon="-1.115833">
        <ele>563.0</ele>
        <time>2020-08-12T18:48:25Z</time>
      </trkpt>
      <trkpt lat="42.621489" lon="-1.115727">
        <ele>563.0</ele>
        <time>2020-08-12T18:48:27Z</time>
      </trkpt>
      <trkpt lat="42.621588" lon="-1.115516">
        <ele>563.0</ele>
        <time>2020-08-12T18:48:30Z</time>
      </trkpt>
      <trkpt lat="42.621638" lon="-1.115185">
        <ele>563.0</ele>
        <time>2020-08-12T18:48:33Z</time>
      </trkpt>
      <trkpt lat="42.621663" lon="-1.113964">
        <ele>550.0</ele>
        <time>2020-08-12T18:48:45Z</time>
      </trkpt>
      <trkpt lat="42.621586" lon="-1.113708">
        <ele>550.0</ele>
        <time>2020-08-12T18:48:49Z</time>
      </trkpt>
      <trkpt lat="42.621525" lon="-1.113664">
        <ele>550.0</ele>
        <time>2020-08-12T18:48:49Z</time>
      </trkpt>
      <trkpt lat="42.621477" lon="-1.113595">
        <ele>550.0</ele>
        <time>2020-08-12T18:48:49Z</time>
      </trkpt>
      <trkpt lat="42.621448" lon="-1.113509">
        <ele>550.0</ele>
        <time>2020-08-12T18:48:50Z</time>
      </trkpt>
      <trkpt lat="42.62144" lon="-1.113415">
        <ele>550.0</ele>
        <time>2020-08-12T18:48:50Z</time>
      </trkpt>
      <trkpt lat="42.621455" lon="-1.113323">
        <ele>549.8</ele>
        <time>2020-08-12T18:48:50Z</time>
      </trkpt>
      <trkpt lat="42.62149" lon="-1.113242">
        <ele>549.8</ele>
        <time>2020-08-12T18:48:51Z</time>
      </trkpt>
      <trkpt lat="42.621586" lon="-1.113153">
        <ele>549.8</ele>
        <time>2020-08-12T18:48:51Z</time>
      </trkpt>
      <trkpt lat="42.621643" lon="-1.113138">
        <ele>549.8</ele>
        <time>2020-08-12T18:48:52Z</time>
      </trkpt>
      <trkpt lat="42.621703" lon="-1.113145">
        <ele>564.0</ele>
        <time>2020-08-12T18:48:52Z</time>
      </trkpt>
      <trkpt lat="42.621808" lon="-1.113224">
        <ele>564.0</ele>
        <time>2020-08-12T18:48:53Z</time>
      </trkpt>
      <trkpt lat="42.621865" lon="-1.113366">
        <ele>559.6</ele>
        <time>2020-08-12T18:48:53Z</time>
      </trkpt>
      <trkpt lat="42.622034" lon="-1.113508">
        <ele>559.6</ele>
        <time>2020-08-12T18:48:54Z</time>
      </trkpt>
      <trkpt lat="42.622742" lon="-1.113626">
        <ele>571.8</ele>
        <time>2020-08-12T18:48:58Z</time>
      </trkpt>
      <trkpt lat="42.622874" lon="-1.113608">
        <ele>571.8</ele>
        <time>2020-08-12T18:48:58Z</time>
      </trkpt>
      <trkpt lat="42.623011" lon="-1.113549">
        <ele>571.8</ele>
        <time>2020-08-12T18:48:59Z</time>
      </trkpt>
      <trkpt lat="42.623129" lon="-1.113445">
        <ele>571.8</ele>
        <time>2020-08-12T18:49:00Z</time>
      </trkpt>
      <trkpt lat="42.623242" lon="-1.11328">
        <ele>574.6</ele>
        <time>2020-08-12T18:49:00Z</time>
      </trkpt>
      <trkpt lat="42.623308" lon="-1.113112">
        <ele>574.6</ele>
        <time>2020-08-12T18:49:01Z</time>
      </trkpt>
      <trkpt lat="42.623342" lon="-1.112913">
        <ele>583.6</ele>
        <time>2020-08-12T18:49:02Z</time>
      </trkpt>
      <trkpt lat="42.623341" lon="-1.112747">
        <ele>583.6</ele>
        <time>2020-08-12T18:49:02Z</time>
      </trkpt>
      <trkpt lat="42.623329" lon="-1.112653">
        <ele>574.6</ele>
        <time>2020-08-12T18:49:03Z</time>
      </trkpt>
      <trkpt lat="42.623238" lon="-1.112473">
        <ele>576.2</ele>
        <time>2020-08-12T18:49:04Z</time>
      </trkpt>
      <trkpt lat="42.623125" lon="-1.112343">
        <ele>576.2</ele>
        <time>2020-08-12T18:49:04Z</time>
      </trkpt>
      <trkpt lat="42.623019" lon="-1.112285">
        <ele>576.2</ele>
        <time>2020-08-12T18:49:05Z</time>
      </trkpt>
      <trkpt lat="42.622892" lon="-1.112277">
        <ele>576.2</ele>
        <time>2020-08-12T18:49:06Z</time>
      </trkpt>
      <trkpt lat="42.622759" lon="-1.112329">
        <ele>576.2</ele>
        <time>2020-08-12T18:49:06Z</time>
      </trkpt>
      <trkpt lat="42.622708" lon="-1.112374">
        <ele>576.2</ele>
        <time>2020-08-12T18:49:06Z</time>
      </trkpt>
      <trkpt lat="42.622604" lon="-1.112519">
        <ele>574.6</ele>
        <time>2020-08-12T18:49:07Z</time>
      </trkpt>
      <trkpt lat="42.622465" lon="-1.112902">
        <ele>564.0</ele>
        <time>2020-08-12T18:49:09Z</time>
      </trkpt>
      <trkpt lat="42.622343" lon="-1.114068">
        <ele>559.6</ele>
        <time>2020-08-12T18:49:13Z</time>
      </trkpt>
      <trkpt lat="42.622284" lon="-1.114774">
        <ele>559.2</ele>
        <time>2020-08-12T18:49:15Z</time>
      </trkpt>
      <trkpt lat="42.622256" lon="-1.115406">
        <ele>564.2</ele>
        <time>2020-08-12T18:49:17Z</time>
      </trkpt>
      <trkpt lat="42.622272" lon="-1.11639">
        <ele>572.2</ele>
        <time>2020-08-12T18:49:21Z</time>
      </trkpt>
      <trkpt lat="42.622455" lon="-1.117715">
        <ele>589.8</ele>
        <time>2020-08-12T18:49:25Z</time>
      </trkpt>
      <trkpt lat="42.62287" lon="-1.11968">
        <ele>577.8</ele>
        <time>2020-08-12T18:49:32Z</time>
      </trkpt>
      <trkpt lat="42.623023" lon="-1.120489">
        <ele>564.2</ele>
        <time>2020-08-12T18:49:35Z</time>
      </trkpt>
      <trkpt lat="42.623096" lon="-1.121154">
        <ele>554.2</ele>
        <time>2020-08-12T18:49:38Z</time>
      </trkpt>
      <trkpt lat="42.623127" lon="-1.121671">
        <ele>549.6</ele>
        <time>2020-08-12T18:49:39Z</time>
      </trkpt>
      <trkpt lat="42.623128" lon="-1.122223">
        <ele>549.6</ele>
        <time>2020-08-12T18:49:41Z</time>
      </trkpt>
      <trkpt lat="42.623108" lon="-1.1227">
        <ele>547.6</ele>
        <time>2020-08-12T18:49:43Z</time>
      </trkpt>
      <trkpt lat="42.622895" lon="-1.125265">
        <ele>568.4</ele>
        <time>2020-08-12T18:49:52Z</time>
      </trkpt>
      <trkpt lat="42.622872" lon="-1.126078">
        <ele>566.0</ele>
        <time>2020-08-12T18:49:55Z</time>
      </trkpt>
      <trkpt lat="42.622878" lon="-1.126546">
        <ele>566.0</ele>
        <time>2020-08-12T18:49:56Z</time>
      </trkpt>
      <trkpt lat="42.622896" lon="-1.127043">
        <ele>560.6</ele>
        <time>2020-08-12T18:49:58Z</time>
      </trkpt>
      <trkpt lat="42.622998" lon="-1.128195">
        <ele>553.8</ele>
        <time>2020-08-12T18:50:02Z</time>
      </trkpt>
      <trkpt lat="42.623093" lon="-1.128893">
        <ele>551.6</ele>
        <time>2020-08-12T18:50:04Z</time>
      </trkpt>
      <trkpt lat="42.623276" lon="-1.129997">
        <ele>554.4</ele>
        <time>2020-08-12T18:50:08Z</time>
      </trkpt>
      <trkpt lat="42.623396" lon="-1.130851">
        <ele>554.6</ele>
        <time>2020-08-12T18:50:11Z</time>
      </trkpt>
      <trkpt lat="42.62345" lon="-1.131399">
        <ele>554.6</ele>
        <time>2020-08-12T18:50:13Z</time>
      </trkpt>
      <trkpt lat="42.623463" lon="-1.132486">
        <ele>544.4</ele>
        <time>2020-08-12T18:50:17Z</time>
      </trkpt>
      <trkpt lat="42.623385" lon="-1.133293">
        <ele>536.6</ele>
        <time>2020-08-12T18:50:20Z</time>
      </trkpt>
      <trkpt lat="42.623292" lon="-1.133869">
        <ele>528.0</ele>
        <time>2020-08-12T18:50:22Z</time>
      </trkpt>
      <trkpt lat="42.623189" lon="-1.134321">
        <ele>529.2</ele>
        <time>2020-08-12T18:50:23Z</time>
      </trkpt>
      <trkpt lat="42.623025" lon="-1.134903">
        <ele>529.2</ele>
        <time>2020-08-12T18:50:26Z</time>
      </trkpt>
      <trkpt lat="42.622816" lon="-1.135473">
        <ele>532.2</ele>
        <time>2020-08-12T18:50:28Z</time>
      </trkpt>
      <trkpt lat="42.622581" lon="-1.135989">
        <ele>539.6</ele>
        <time>2020-08-12T18:50:30Z</time>
      </trkpt>
      <trkpt lat="42.622313" lon="-1.136468">
        <ele>535.2</ele>
        <time>2020-08-12T18:50:32Z</time>
      </trkpt>
      <trkpt lat="42.622016" lon="-1.136922">
        <ele>547.8</ele>
        <time>2020-08-12T18:50:34Z</time>
      </trkpt>
      <trkpt lat="42.621644" lon="-1.137449">
        <ele>545.0</ele>
        <time>2020-08-12T18:50:37Z</time>
      </trkpt>
      <trkpt lat="42.620754" lon="-1.138612">
        <ele>562.2</ele>
        <time>2020-08-12T18:50:42Z</time>
      </trkpt>
      <trkpt lat="42.620415" lon="-1.139125">
        <ele>562.2</ele>
        <time>2020-08-12T18:50:45Z</time>
      </trkpt>
      <trkpt lat="42.620085" lon="-1.13971">
        <ele>571.6</ele>
        <time>2020-08-12T18:50:47Z</time>
      </trkpt>
      <trkpt lat="42.619852" lon="-1.140215">
        <ele>562.0</ele>
        <time>2020-08-12T18:50:49Z</time>
      </trkpt>
      <trkpt lat="42.61962" lon="-1.140784">
        <ele>562.0</ele>
        <time>2020-08-12T18:50:52Z</time>
      </trkpt>
      <trkpt lat="42.61937" lon="-1.141568">
        <ele>562.0</ele>
        <time>2020-08-12T18:50:55Z</time>
      </trkpt>
      <trkpt lat="42.619228" lon="-1.142149">
        <ele>559.6</ele>
        <time>2020-08-12T18:50:57Z</time>
      </trkpt>
      <trkpt lat="42.619116" lon="-1.142732">
        <ele>545.6</ele>
        <time>2020-08-12T18:50:59Z</time>
      </trkpt>
      <trkpt lat="42.619023" lon="-1.143469">
        <ele>538.8</ele>
        <time>2020-08-12T18:51:01Z</time>
      </trkpt>
      <trkpt lat="42.618986" lon="-1.144101">
        <ele>538.8</ele>
        <time>2020-08-12T18:51:04Z</time>
      </trkpt>
      <trkpt lat="42.618975" lon="-1.144698">
        <ele>525.4</ele>
        <time>2020-08-12T18:51:06Z</time>
      </trkpt>
      <trkpt lat="42.619024" lon="-1.145621">
        <ele>517.4</ele>
        <time>2020-08-12T18:51:09Z</time>
      </trkpt>
      <trkpt lat="42.619167" lon="-1.146631">
        <ele>525.2</ele>
        <time>2020-08-12T18:51:12Z</time>
      </trkpt>
      <trkpt lat="42.619262" lon="-1.147132">
        <ele>544.2</ele>
        <time>2020-08-12T18:51:14Z</time>
      </trkpt>
      <trkpt lat="42.620079" lon="-1.150805">
        <ele>550.2</ele>
        <time>2020-08-12T18:51:28Z</time>
      </trkpt>
      <trkpt lat="42.620524" lon="-1.152719">
        <ele>531.8</ele>
        <time>2020-08-12T18:51:34Z</time>
      </trkpt>
      <trkpt lat="42.620779" lon="-1.15392">
        <ele>533.8</ele>
        <time>2020-08-12T18:51:39Z</time>
      </trkpt>
      <trkpt lat="42.621091" lon="-1.155501">
        <ele>535.2</ele>
        <time>2020-08-12T18:51:44Z</time>
      </trkpt>
      <trkpt lat="42.621212" lon="-1.156313">
        <ele>533.6</ele>
        <time>2020-08-12T18:51:47Z</time>
      </trkpt>
      <trkpt lat="42.621318" lon="-1.157188">
        <ele>541.2</ele>
        <time>2020-08-12T18:51:50Z</time>
      </trkpt>
      <trkpt lat="42.621359" lon="-1.15766">
        <ele>544.6</ele>
        <time>2020-08-12T18:51:52Z</time>
      </trkpt>
      <trkpt lat="42.621395" lon="-1.158159">
        <ele>544.6</ele>
        <time>2020-08-12T18:51:54Z</time>
      </trkpt>
      <trkpt lat="42.621444" lon="-1.159245">
        <ele>539.6</ele>
        <time>2020-08-12T18:51:57Z</time>
      </trkpt>
      <trkpt lat="42.621505" lon="-1.161266">
        <ele>537.0</ele>
        <time>2020-08-12T18:52:04Z</time>
      </trkpt>
      <trkpt lat="42.621577" lon="-1.162118">
        <ele>536.4</ele>
        <time>2020-08-12T18:52:07Z</time>
      </trkpt>
      <trkpt lat="42.621708" lon="-1.163012">
        <ele>542.2</ele>
        <time>2020-08-12T18:52:10Z</time>
      </trkpt>
      <trkpt lat="42.621826" lon="-1.163588">
        <ele>539.4</ele>
        <time>2020-08-12T18:52:12Z</time>
      </trkpt>
      <trkpt lat="42.621993" lon="-1.164256">
        <ele>533.6</ele>
        <time>2020-08-12T18:52:15Z</time>
      </trkpt>
      <trkpt lat="42.622144" lon="-1.164771">
        <ele>533.6</ele>
        <time>2020-08-12T18:52:17Z</time>
      </trkpt>
      <trkpt lat="42.622314" lon="-1.165246">
        <ele>526.4</ele>
        <time>2020-08-12T18:52:19Z</time>
      </trkpt>
      <trkpt lat="42.622653" lon="-1.166065">
        <ele>538.8</ele>
        <time>2020-08-12T18:52:22Z</time>
      </trkpt>
      <trkpt lat="42.623086" lon="-1.166965">
        <ele>550.0</ele>
        <time>2020-08-12T18:52:26Z</time>
      </trkpt>
      <trkpt lat="42.623316" lon="-1.167361">
        <ele>550.0</ele>
        <time>2020-08-12T18:52:27Z</time>
      </trkpt>
      <trkpt lat="42.624249" lon="-1.16886">
        <ele>541.2</ele>
        <time>2020-08-12T18:52:34Z</time>
      </trkpt>
      <trkpt lat="42.624715" lon="-1.169731">
        <ele>525.6</ele>
        <time>2020-08-12T18:52:38Z</time>
      </trkpt>
      <trkpt lat="42.624959" lon="-1.170268">
        <ele>512.2</ele>
        <time>2020-08-12T18:52:40Z</time>
      </trkpt>
      <trkpt lat="42.625261" lon="-1.17105">
        <ele>513.4</ele>
        <time>2020-08-12T18:52:43Z</time>
      </trkpt>
      <trkpt lat="42.625459" lon="-1.171636">
        <ele>513.4</ele>
        <time>2020-08-12T18:52:45Z</time>
      </trkpt>
      <trkpt lat="42.625691" lon="-1.172458">
        <ele>514.6</ele>
        <time>2020-08-12T18:52:48Z</time>
      </trkpt>
      <trkpt lat="42.62586" lon="-1.173158">
        <ele>530.8</ele>
        <time>2020-08-12T18:52:51Z</time>
      </trkpt>
      <trkpt lat="42.625998" lon="-1.173922">
        <ele>547.4</ele>
        <time>2020-08-12T18:52:54Z</time>
      </trkpt>
      <trkpt lat="42.626089" lon="-1.174695">
        <ele>567.2</ele>
        <time>2020-08-12T18:52:57Z</time>
      </trkpt>
      <trkpt lat="42.626127" lon="-1.175165">
        <ele>584.8</ele>
        <time>2020-08-12T18:52:58Z</time>
      </trkpt>
      <trkpt lat="42.626068" lon="-1.177694">
        <ele>630.6</ele>
        <time>2020-08-12T18:53:07Z</time>
      </trkpt>
      <trkpt lat="42.625513" lon="-1.180499">
        <ele>691.0</ele>
        <time>2020-08-12T18:53:17Z</time>
      </trkpt>
      <trkpt lat="42.624557" lon="-1.184083">
        <ele>679.4</ele>
        <time>2020-08-12T18:53:31Z</time>
      </trkpt>
      <trkpt lat="42.622998" lon="-1.188748">
        <ele>628.4</ele>
        <time>2020-08-12T18:53:48Z</time>
      </trkpt>
      <trkpt lat="42.622715" lon="-1.19198">
        <ele>574.8</ele>
        <time>2020-08-12T18:54:00Z</time>
      </trkpt>
      <trkpt lat="42.622606" lon="-1.194359">
        <ele>538.2</ele>
        <time>2020-08-12T18:54:08Z</time>
      </trkpt>
      <trkpt lat="42.622609" lon="-1.194963">
        <ele>538.2</ele>
        <time>2020-08-12T18:54:10Z</time>
      </trkpt>
      <trkpt lat="42.622671" lon="-1.195869">
        <ele>523.4</ele>
        <time>2020-08-12T18:54:13Z</time>
      </trkpt>
      <trkpt lat="42.622761" lon="-1.196694">
        <ele>516.0</ele>
        <time>2020-08-12T18:54:16Z</time>
      </trkpt>
      <trkpt lat="42.623002" lon="-1.1986">
        <ele>507.8</ele>
        <time>2020-08-12T18:54:23Z</time>
      </trkpt>
      <trkpt lat="42.623048" lon="-1.199487">
        <ele>506.4</ele>
        <time>2020-08-12T18:54:26Z</time>
      </trkpt>
      <trkpt lat="42.623057" lon="-1.20028">
        <ele>505.6</ele>
        <time>2020-08-12T18:54:29Z</time>
      </trkpt>
      <trkpt lat="42.623012" lon="-1.201413">
        <ele>505.4</ele>
        <time>2020-08-12T18:54:32Z</time>
      </trkpt>
      <trkpt lat="42.622623" lon="-1.204468">
        <ele>494.8</ele>
        <time>2020-08-12T18:54:43Z</time>
      </trkpt>
      <trkpt lat="42.622418" lon="-1.206364">
        <ele>487.0</ele>
        <time>2020-08-12T18:54:50Z</time>
      </trkpt>
      <trkpt lat="42.6223" lon="-1.207908">
        <ele>481.0</ele>
        <time>2020-08-12T18:54:55Z</time>
      </trkpt>
      <trkpt lat="42.622212" lon="-1.209742">
        <ele>475.2</ele>
        <time>2020-08-12T18:55:01Z</time>
      </trkpt>
      <trkpt lat="42.622205" lon="-1.211958">
        <ele>468.8</ele>
        <time>2020-08-12T18:55:09Z</time>
      </trkpt>
      <trkpt lat="42.622235" lon="-1.213114">
        <ele>467.2</ele>
        <time>2020-08-12T18:55:13Z</time>
      </trkpt>
      <trkpt lat="42.622397" lon="-1.21547">
        <ele>467.2</ele>
        <time>2020-08-12T18:55:21Z</time>
      </trkpt>
      <trkpt lat="42.622506" lon="-1.21653">
        <ele>472.0</ele>
        <time>2020-08-12T18:55:25Z</time>
      </trkpt>
      <trkpt lat="42.622788" lon="-1.218657">
        <ele>463.2</ele>
        <time>2020-08-12T18:55:32Z</time>
      </trkpt>
      <trkpt lat="42.623073" lon="-1.220297">
        <ele>460.8</ele>
        <time>2020-08-12T18:55:38Z</time>
      </trkpt>
      <trkpt lat="42.623664" lon="-1.223351">
        <ele>470.2</ele>
        <time>2020-08-12T18:55:49Z</time>
      </trkpt>
      <trkpt lat="42.623869" lon="-1.224583">
        <ele>473.8</ele>
        <time>2020-08-12T18:55:53Z</time>
      </trkpt>
      <trkpt lat="42.624008" lon="-1.226129">
        <ele>479.4</ele>
        <time>2020-08-12T18:55:58Z</time>
      </trkpt>
      <trkpt lat="42.624035" lon="-1.22707">
        <ele>483.2</ele>
        <time>2020-08-12T18:56:02Z</time>
      </trkpt>
      <trkpt lat="42.624041" lon="-1.227606">
        <ele>487.8</ele>
        <time>2020-08-12T18:56:03Z</time>
      </trkpt>
      <trkpt lat="42.624002" lon="-1.229983">
        <ele>498.0</ele>
        <time>2020-08-12T18:56:12Z</time>
      </trkpt>
      <trkpt lat="42.624008" lon="-1.230965">
        <ele>508.8</ele>
        <time>2020-08-12T18:56:15Z</time>
      </trkpt>
      <trkpt lat="42.624072" lon="-1.232017">
        <ele>513.0</ele>
        <time>2020-08-12T18:56:19Z</time>
      </trkpt>
      <trkpt lat="42.62417" lon="-1.232984">
        <ele>497.0</ele>
        <time>2020-08-12T18:56:22Z</time>
      </trkpt>
      <trkpt lat="42.624814" lon="-1.237859">
        <ele>518.4</ele>
        <time>2020-08-12T18:56:39Z</time>
      </trkpt>
      <trkpt lat="42.624976" lon="-1.23927">
        <ele>525.8</ele>
        <time>2020-08-12T18:56:44Z</time>
      </trkpt>
      <trkpt lat="42.625162" lon="-1.241116">
        <ele>524.6</ele>
        <time>2020-08-12T18:56:50Z</time>
      </trkpt>
      <trkpt lat="42.625261" lon="-1.242371">
        <ele>534.6</ele>
        <time>2020-08-12T18:56:55Z</time>
      </trkpt>
      <trkpt lat="42.625487" lon="-1.244292">
        <ele>558.2</ele>
        <time>2020-08-12T18:57:01Z</time>
      </trkpt>
      <trkpt lat="42.625401" lon="-1.252307">
        <ele>533.4</ele>
        <time>2020-08-12T18:57:29Z</time>
      </trkpt>
      <trkpt lat="42.625273" lon="-1.253797">
        <ele>517.8</ele>
        <time>2020-08-12T18:57:34Z</time>
      </trkpt>
      <trkpt lat="42.6252" lon="-1.254938">
        <ele>513.4</ele>
        <time>2020-08-12T18:57:38Z</time>
      </trkpt>
      <trkpt lat="42.624934" lon="-1.257559">
        <ele>483.6</ele>
        <time>2020-08-12T18:57:47Z</time>
      </trkpt>
      <trkpt lat="42.624459" lon="-1.261399">
        <ele>461.4</ele>
        <time>2020-08-12T18:58:01Z</time>
      </trkpt>
      <trkpt lat="42.624243" lon="-1.263551">
        <ele>445.4</ele>
        <time>2020-08-12T18:58:08Z</time>
      </trkpt>
      <trkpt lat="42.624082" lon="-1.26582">
        <ele>448.4</ele>
        <time>2020-08-12T18:58:16Z</time>
      </trkpt>
      <trkpt lat="42.624018" lon="-1.267142">
        <ele>435.2</ele>
        <time>2020-08-12T18:58:20Z</time>
      </trkpt>
      <trkpt lat="42.623963" lon="-1.268561">
        <ele>426.2</ele>
        <time>2020-08-12T18:58:25Z</time>
      </trkpt>
      <trkpt lat="42.62392" lon="-1.270407">
        <ele>422.4</ele>
        <time>2020-08-12T18:58:32Z</time>
      </trkpt>
      <trkpt lat="42.623881" lon="-1.271178">
        <ele>420.6</ele>
        <time>2020-08-12T18:58:34Z</time>
      </trkpt>
      <trkpt lat="42.623763" lon="-1.272227">
        <ele>418.8</ele>
        <time>2020-08-12T18:58:38Z</time>
      </trkpt>
      <trkpt lat="42.62357" lon="-1.273305">
        <ele>418.4</ele>
        <time>2020-08-12T18:58:42Z</time>
      </trkpt>
      <trkpt lat="42.623353" lon="-1.27422">
        <ele>418.0</ele>
        <time>2020-08-12T18:58:45Z</time>
      </trkpt>
      <trkpt lat="42.62305" lon="-1.275205">
        <ele>419.4</ele>
        <time>2020-08-12T18:58:49Z</time>
      </trkpt>
      <trkpt lat="42.622599" lon="-1.27639">
        <ele>417.2</ele>
        <time>2020-08-12T18:58:53Z</time>
      </trkpt>
      <trkpt lat="42.62226" lon="-1.277053">
        <ele>417.4</ele>
        <time>2020-08-12T18:58:56Z</time>
      </trkpt>
      <trkpt lat="42.621767" lon="-1.277945">
        <ele>413.2</ele>
        <time>2020-08-12T18:59:00Z</time>
      </trkpt>
      <trkpt lat="42.619883" lon="-1.280567">
        <ele>409.6</ele>
        <time>2020-08-12T18:59:13Z</time>
      </trkpt>
      <trkpt lat="42.619268" lon="-1.281617">
        <ele>412.4</ele>
        <time>2020-08-12T18:59:17Z</time>
      </trkpt>
      <trkpt lat="42.61857" lon="-1.283017">
        <ele>414.8</ele>
        <time>2020-08-12T18:59:23Z</time>
      </trkpt>
      <trkpt lat="42.618296" lon="-1.283681">
        <ele>409.8</ele>
        <time>2020-08-12T18:59:26Z</time>
      </trkpt>
      <trkpt lat="42.618016" lon="-1.284461">
        <ele>409.4</ele>
        <time>2020-08-12T18:59:29Z</time>
      </trkpt>
      <trkpt lat="42.617675" lon="-1.285553">
        <ele>408.8</ele>
        <time>2020-08-12T18:59:33Z</time>
      </trkpt>
      <trkpt lat="42.617529" lon="-1.286112">
        <ele>408.4</ele>
        <time>2020-08-12T18:59:35Z</time>
      </trkpt>
      <trkpt lat="42.617337" lon="-1.286997">
        <ele>406.8</ele>
        <time>2020-08-12T18:59:38Z</time>
      </trkpt>
      <trkpt lat="42.617182" lon="-1.287886">
        <ele>407.4</ele>
        <time>2020-08-12T18:59:41Z</time>
      </trkpt>
      <trkpt lat="42.617073" lon="-1.288743">
        <ele>409.6</ele>
        <time>2020-08-12T18:59:44Z</time>
      </trkpt>
      <trkpt lat="42.616989" lon="-1.289641">
        <ele>415.0</ele>
        <time>2020-08-12T18:59:47Z</time>
      </trkpt>
      <trkpt lat="42.616959" lon="-1.290289">
        <ele>423.2</ele>
        <time>2020-08-12T18:59:49Z</time>
      </trkpt>
      <trkpt lat="42.616944" lon="-1.291195">
        <ele>432.0</ele>
        <time>2020-08-12T18:59:52Z</time>
      </trkpt>
      <trkpt lat="42.616971" lon="-1.29211">
        <ele>438.0</ele>
        <time>2020-08-12T18:59:56Z</time>
      </trkpt>
      <trkpt lat="42.617021" lon="-1.292787">
        <ele>442.6</ele>
        <time>2020-08-12T18:59:58Z</time>
      </trkpt>
      <trkpt lat="42.617068" lon="-1.293376">
        <ele>447.0</ele>
        <time>2020-08-12T19:00:00Z</time>
      </trkpt>
      <trkpt lat="42.617121" lon="-1.293785">
        <ele>447.0</ele>
        <time>2020-08-12T19:00:01Z</time>
      </trkpt>
      <trkpt lat="42.617322" lon="-1.295012">
        <ele>454.6</ele>
        <time>2020-08-12T19:00:06Z</time>
      </trkpt>
      <trkpt lat="42.617322" lon="-1.295012">
        <ele>454.6</ele>
        <time>2020-08-12T19:00:06Z</time>
      </trkpt>
      <trkpt lat="42.617533" lon="-1.296009">
        <ele>455.8</ele>
        <time>2020-08-12T19:00:09Z</time>
      </trkpt>
      <trkpt lat="42.617824" lon="-1.297082">
        <ele>464.6</ele>
        <time>2020-08-12T19:00:13Z</time>
      </trkpt>
      <trkpt lat="42.618139" lon="-1.298039">
        <ele>471.6</ele>
        <time>2020-08-12T19:00:16Z</time>
      </trkpt>
      <trkpt lat="42.618393" lon="-1.298684">
        <ele>460.6</ele>
        <time>2020-08-12T19:00:19Z</time>
      </trkpt>
      <trkpt lat="42.618855" lon="-1.299726">
        <ele>465.4</ele>
        <time>2020-08-12T19:00:22Z</time>
      </trkpt>
      <trkpt lat="42.619199" lon="-1.300404">
        <ele>458.4</ele>
        <time>2020-08-12T19:00:25Z</time>
      </trkpt>
      <trkpt lat="42.619552" lon="-1.30101">
        <ele>461.6</ele>
        <time>2020-08-12T19:00:27Z</time>
      </trkpt>
      <trkpt lat="42.620081" lon="-1.301838">
        <ele>458.4</ele>
        <time>2020-08-12T19:00:31Z</time>
      </trkpt>
      <trkpt lat="42.620587" lon="-1.302514">
        <ele>464.0</ele>
        <time>2020-08-12T19:00:34Z</time>
      </trkpt>
      <trkpt lat="42.622202" lon="-1.304602">
        <ele>463.2</ele>
        <time>2020-08-12T19:00:43Z</time>
      </trkpt>
      <trkpt lat="42.622817" lon="-1.305463">
        <ele>465.6</ele>
        <time>2020-08-12T19:00:47Z</time>
      </trkpt>
      <trkpt lat="42.623304" lon="-1.306226">
        <ele>480.2</ele>
        <time>2020-08-12T19:00:50Z</time>
      </trkpt>
      <trkpt lat="42.624252" lon="-1.307877">
        <ele>466.6</ele>
        <time>2020-08-12T19:00:56Z</time>
      </trkpt>
      <trkpt lat="42.624701" lon="-1.308813">
        <ele>481.2</ele>
        <time>2020-08-12T19:01:00Z</time>
      </trkpt>
      <trkpt lat="42.625134" lon="-1.309776">
        <ele>466.2</ele>
        <time>2020-08-12T19:01:03Z</time>
      </trkpt>
      <trkpt lat="42.625575" lon="-1.310848">
        <ele>475.0</ele>
        <time>2020-08-12T19:01:07Z</time>
      </trkpt>
      <trkpt lat="42.627323" lon="-1.315307">
        <ele>476.4</ele>
        <time>2020-08-12T19:01:23Z</time>
      </trkpt>
      <trkpt lat="42.628127" lon="-1.317276">
        <ele>482.2</ele>
        <time>2020-08-12T19:01:30Z</time>
      </trkpt>
      <trkpt lat="42.62893" lon="-1.319007">
        <ele>493.6</ele>
        <time>2020-08-12T19:01:36Z</time>
      </trkpt>
      <trkpt lat="42.629902" lon="-1.320851">
        <ele>502.0</ele>
        <time>2020-08-12T19:01:43Z</time>
      </trkpt>
      <trkpt lat="42.630574" lon="-1.322038">
        <ele>494.4</ele>
        <time>2020-08-12T19:01:47Z</time>
      </trkpt>
      <trkpt lat="42.631299" lon="-1.32319">
        <ele>487.0</ele>
        <time>2020-08-12T19:01:52Z</time>
      </trkpt>
      <trkpt lat="42.632498" lon="-1.324919">
        <ele>485.6</ele>
        <time>2020-08-12T19:01:59Z</time>
      </trkpt>
      <trkpt lat="42.633374" lon="-1.326082">
        <ele>482.6</ele>
        <time>2020-08-12T19:02:05Z</time>
      </trkpt>
      <trkpt lat="42.635462" lon="-1.328556">
        <ele>490.6</ele>
        <time>2020-08-12T19:02:16Z</time>
      </trkpt>
      <trkpt lat="42.635945" lon="-1.329091">
        <ele>484.8</ele>
        <time>2020-08-12T19:02:19Z</time>
      </trkpt>
      <trkpt lat="42.636647" lon="-1.329957">
        <ele>487.2</ele>
        <time>2020-08-12T19:02:23Z</time>
      </trkpt>
      <trkpt lat="42.637343" lon="-1.330978">
        <ele>495.0</ele>
        <time>2020-08-12T19:02:27Z</time>
      </trkpt>
      <trkpt lat="42.637902" lon="-1.331967">
        <ele>503.2</ele>
        <time>2020-08-12T19:02:31Z</time>
      </trkpt>
      <trkpt lat="42.638349" lon="-1.332966">
        <ele>501.0</ele>
        <time>2020-08-12T19:02:35Z</time>
      </trkpt>
      <trkpt lat="42.63873" lon="-1.333942">
        <ele>501.6</ele>
        <time>2020-08-12T19:02:38Z</time>
      </trkpt>
      <trkpt lat="42.638942" lon="-1.334637">
        <ele>501.2</ele>
        <time>2020-08-12T19:02:40Z</time>
      </trkpt>
      <trkpt lat="42.639143" lon="-1.335379">
        <ele>495.2</ele>
        <time>2020-08-12T19:02:43Z</time>
      </trkpt>
      <trkpt lat="42.639482" lon="-1.336772">
        <ele>483.8</ele>
        <time>2020-08-12T19:02:47Z</time>
      </trkpt>
      <trkpt lat="42.639735" lon="-1.337577">
        <ele>492.8</ele>
        <time>2020-08-12T19:02:50Z</time>
      </trkpt>
      <trkpt lat="42.64003" lon="-1.338321">
        <ele>495.2</ele>
        <time>2020-08-12T19:02:53Z</time>
      </trkpt>
      <trkpt lat="42.640375" lon="-1.339086">
        <ele>502.2</ele>
        <time>2020-08-12T19:02:55Z</time>
      </trkpt>
      <trkpt lat="42.640909" lon="-1.34009">
        <ele>504.0</ele>
        <time>2020-08-12T19:02:59Z</time>
      </trkpt>
      <trkpt lat="42.641301" lon="-1.34078">
        <ele>504.0</ele>
        <time>2020-08-12T19:03:02Z</time>
      </trkpt>
      <trkpt lat="42.641826" lon="-1.34159">
        <ele>502.2</ele>
        <time>2020-08-12T19:03:05Z</time>
      </trkpt>
      <trkpt lat="42.642173" lon="-1.342058">
        <ele>505.8</ele>
        <time>2020-08-12T19:03:07Z</time>
      </trkpt>
      <trkpt lat="42.64277" lon="-1.342748">
        <ele>506.8</ele>
        <time>2020-08-12T19:03:10Z</time>
      </trkpt>
      <trkpt lat="42.643033" lon="-1.343013">
        <ele>506.8</ele>
        <time>2020-08-12T19:03:12Z</time>
      </trkpt>
      <trkpt lat="42.64355" lon="-1.34349">
        <ele>506.8</ele>
        <time>2020-08-12T19:03:14Z</time>
      </trkpt>
      <trkpt lat="42.644491" lon="-1.344182">
        <ele>502.6</ele>
        <time>2020-08-12T19:03:19Z</time>
      </trkpt>
      <trkpt lat="42.644953" lon="-1.344447">
        <ele>502.6</ele>
        <time>2020-08-12T19:03:21Z</time>
      </trkpt>
      <trkpt lat="42.646081" lon="-1.344959">
        <ele>495.6</ele>
        <time>2020-08-12T19:03:26Z</time>
      </trkpt>
      <trkpt lat="42.64708" lon="-1.345322">
        <ele>498.2</ele>
        <time>2020-08-12T19:03:30Z</time>
      </trkpt>
      <trkpt lat="42.649009" lon="-1.346144">
        <ele>484.6</ele>
        <time>2020-08-12T19:03:39Z</time>
      </trkpt>
      <trkpt lat="42.650091" lon="-1.346757">
        <ele>480.4</ele>
        <time>2020-08-12T19:03:44Z</time>
      </trkpt>
      <trkpt lat="42.651228" lon="-1.347524">
        <ele>484.4</ele>
        <time>2020-08-12T19:03:49Z</time>
      </trkpt>
      <trkpt lat="42.65252" lon="-1.34862">
        <ele>474.6</ele>
        <time>2020-08-12T19:03:55Z</time>
      </trkpt>
      <trkpt lat="42.653307" lon="-1.349357">
        <ele>476.8</ele>
        <time>2020-08-12T19:03:59Z</time>
      </trkpt>
      <trkpt lat="42.654151" lon="-1.350269">
        <ele>476.8</ele>
        <time>2020-08-12T19:04:04Z</time>
      </trkpt>
      <trkpt lat="42.655001" lon="-1.351291">
        <ele>484.2</ele>
        <time>2020-08-12T19:04:09Z</time>
      </trkpt>
      <trkpt lat="42.655841" lon="-1.352472">
        <ele>485.8</ele>
        <time>2020-08-12T19:04:14Z</time>
      </trkpt>
      <trkpt lat="42.65672" lon="-1.353867">
        <ele>502.4</ele>
        <time>2020-08-12T19:04:19Z</time>
      </trkpt>
      <trkpt lat="42.657404" lon="-1.355141">
        <ele>507.0</ele>
        <time>2020-08-12T19:04:24Z</time>
      </trkpt>
      <trkpt lat="42.658084" lon="-1.356614">
        <ele>516.0</ele>
        <time>2020-08-12T19:04:30Z</time>
      </trkpt>
      <trkpt lat="42.658555" lon="-1.35778">
        <ele>528.4</ele>
        <time>2020-08-12T19:04:34Z</time>
      </trkpt>
      <trkpt lat="42.658909" lon="-1.358737">
        <ele>535.0</ele>
        <time>2020-08-12T19:04:37Z</time>
      </trkpt>
      <trkpt lat="42.659283" lon="-1.35998">
        <ele>546.6</ele>
        <time>2020-08-12T19:04:41Z</time>
      </trkpt>
      <trkpt lat="42.659629" lon="-1.361349">
        <ele>553.2</ele>
        <time>2020-08-12T19:04:46Z</time>
      </trkpt>
      <trkpt lat="42.659913" lon="-1.362594">
        <ele>538.2</ele>
        <time>2020-08-12T19:04:50Z</time>
      </trkpt>
      <trkpt lat="42.660235" lon="-1.364605">
        <ele>543.6</ele>
        <time>2020-08-12T19:04:56Z</time>
      </trkpt>
      <trkpt lat="42.660367" lon="-1.365757">
        <ele>548.4</ele>
        <time>2020-08-12T19:05:00Z</time>
      </trkpt>
      <trkpt lat="42.660466" lon="-1.366985">
        <ele>558.4</ele>
        <time>2020-08-12T19:05:03Z</time>
      </trkpt>
      <trkpt lat="42.660518" lon="-1.368282">
        <ele>559.6</ele>
        <time>2020-08-12T19:05:07Z</time>
      </trkpt>
      <trkpt lat="42.66069" lon="-1.37502">
        <ele>596.0</ele>
        <time>2020-08-12T19:05:28Z</time>
      </trkpt>
      <trkpt lat="42.660566" lon="-1.37751">
        <ele>602.8</ele>
        <time>2020-08-12T19:05:36Z</time>
      </trkpt>
      <trkpt lat="42.660344" lon="-1.380034">
        <ele>615.8</ele>
        <time>2020-08-12T19:05:44Z</time>
      </trkpt>
      <trkpt lat="42.660034" lon="-1.382643">
        <ele>630.6</ele>
        <time>2020-08-12T19:05:52Z</time>
      </trkpt>
      <trkpt lat="42.659513" lon="-1.385683">
        <ele>632.0</ele>
        <time>2020-08-12T19:06:02Z</time>
      </trkpt>
      <trkpt lat="42.65884" lon="-1.38901">
        <ele>634.0</ele>
        <time>2020-08-12T19:06:12Z</time>
      </trkpt>
      <trkpt lat="42.657848" lon="-1.394966">
        <ele>686.4</ele>
        <time>2020-08-12T19:06:31Z</time>
      </trkpt>
      <trkpt lat="42.657552" lon="-1.397403">
        <ele>708.6</ele>
        <time>2020-08-12T19:06:39Z</time>
      </trkpt>
      <trkpt lat="42.657413" lon="-1.39885">
        <ele>732.2</ele>
        <time>2020-08-12T19:06:43Z</time>
      </trkpt>
      <trkpt lat="42.65718" lon="-1.40177">
        <ele>726.8</ele>
        <time>2020-08-12T19:06:52Z</time>
      </trkpt>
      <trkpt lat="42.65702" lon="-1.40404">
        <ele>723.0</ele>
        <time>2020-08-12T19:06:59Z</time>
      </trkpt>
      <trkpt lat="42.656731" lon="-1.410249">
        <ele>705.2</ele>
        <time>2020-08-12T19:07:19Z</time>
      </trkpt>
      <trkpt lat="42.656722" lon="-1.411156">
        <ele>703.2</ele>
        <time>2020-08-12T19:07:21Z</time>
      </trkpt>
      <trkpt lat="42.65677" lon="-1.412658">
        <ele>698.6</ele>
        <time>2020-08-12T19:07:26Z</time>
      </trkpt>
      <trkpt lat="42.656996" lon="-1.414191">
        <ele>698.2</ele>
        <time>2020-08-12T19:07:31Z</time>
      </trkpt>
      <trkpt lat="42.657318" lon="-1.415553">
        <ele>698.0</ele>
        <time>2020-08-12T19:07:35Z</time>
      </trkpt>
      <trkpt lat="42.657716" lon="-1.416749">
        <ele>694.8</ele>
        <time>2020-08-12T19:07:39Z</time>
      </trkpt>
      <trkpt lat="42.658026" lon="-1.417517">
        <ele>691.8</ele>
        <time>2020-08-12T19:07:42Z</time>
      </trkpt>
      <trkpt lat="42.658867" lon="-1.419018">
        <ele>691.8</ele>
        <time>2020-08-12T19:07:48Z</time>
      </trkpt>
      <trkpt lat="42.65995" lon="-1.420901">
        <ele>678.8</ele>
        <time>2020-08-12T19:07:55Z</time>
      </trkpt>
      <trkpt lat="42.66079" lon="-1.422477">
        <ele>672.8</ele>
        <time>2020-08-12T19:08:01Z</time>
      </trkpt>
      <trkpt lat="42.661986" lon="-1.424876">
        <ele>674.0</ele>
        <time>2020-08-12T19:08:10Z</time>
      </trkpt>
      <trkpt lat="42.663069" lon="-1.427238">
        <ele>681.2</ele>
        <time>2020-08-12T19:08:19Z</time>
      </trkpt>
      <trkpt lat="42.664302" lon="-1.429675">
        <ele>675.0</ele>
        <time>2020-08-12T19:08:28Z</time>
      </trkpt>
      <trkpt lat="42.665027" lon="-1.431006">
        <ele>670.2</ele>
        <time>2020-08-12T19:08:33Z</time>
      </trkpt>
      <trkpt lat="42.665825" lon="-1.43238">
        <ele>673.6</ele>
        <time>2020-08-12T19:08:38Z</time>
      </trkpt>
      <trkpt lat="42.667539" lon="-1.435081">
        <ele>663.6</ele>
        <time>2020-08-12T19:08:49Z</time>
      </trkpt>
      <trkpt lat="42.66817" lon="-1.436047">
        <ele>663.4</ele>
        <time>2020-08-12T19:08:53Z</time>
      </trkpt>
      <trkpt lat="42.668695" lon="-1.436944">
        <ele>654.8</ele>
        <time>2020-08-12T19:08:57Z</time>
      </trkpt>
      <trkpt lat="42.669101" lon="-1.437748">
        <ele>649.4</ele>
        <time>2020-08-12T19:09:00Z</time>
      </trkpt>
      <trkpt lat="42.670137" lon="-1.440166">
        <ele>625.6</ele>
        <time>2020-08-12T19:09:08Z</time>
      </trkpt>
      <trkpt lat="42.670759" lon="-1.441457">
        <ele>624.4</ele>
        <time>2020-08-12T19:09:13Z</time>
      </trkpt>
      <trkpt lat="42.671403" lon="-1.442618">
        <ele>622.2</ele>
        <time>2020-08-12T19:09:18Z</time>
      </trkpt>
      <trkpt lat="42.672117" lon="-1.443718">
        <ele>623.2</ele>
        <time>2020-08-12T19:09:22Z</time>
      </trkpt>
      <trkpt lat="42.673206" lon="-1.445286">
        <ele>618.2</ele>
        <time>2020-08-12T19:09:29Z</time>
      </trkpt>
      <trkpt lat="42.673731" lon="-1.446085">
        <ele>616.2</ele>
        <time>2020-08-12T19:09:32Z</time>
      </trkpt>
      <trkpt lat="42.674146" lon="-1.446782">
        <ele>613.4</ele>
        <time>2020-08-12T19:09:35Z</time>
      </trkpt>
      <trkpt lat="42.674922" lon="-1.448314">
        <ele>611.6</ele>
        <time>2020-08-12T19:09:40Z</time>
      </trkpt>
      <trkpt lat="42.676957" lon="-1.453022">
        <ele>605.6</ele>
        <time>2020-08-12T19:09:57Z</time>
      </trkpt>
      <trkpt lat="42.677566" lon="-1.454386">
        <ele>604.4</ele>
        <time>2020-08-12T19:10:02Z</time>
      </trkpt>
      <trkpt lat="42.677945" lon="-1.455443">
        <ele>602.0</ele>
        <time>2020-08-12T19:10:06Z</time>
      </trkpt>
      <trkpt lat="42.678141" lon="-1.456088">
        <ele>602.8</ele>
        <time>2020-08-12T19:10:08Z</time>
      </trkpt>
      <trkpt lat="42.678295" lon="-1.456663">
        <ele>602.8</ele>
        <time>2020-08-12T19:10:10Z</time>
      </trkpt>
      <trkpt lat="42.678533" lon="-1.457722">
        <ele>602.0</ele>
        <time>2020-08-12T19:10:13Z</time>
      </trkpt>
      <trkpt lat="42.678772" lon="-1.458911">
        <ele>600.0</ele>
        <time>2020-08-12T19:10:17Z</time>
      </trkpt>
      <trkpt lat="42.679094" lon="-1.460104">
        <ele>599.0</ele>
        <time>2020-08-12T19:10:21Z</time>
      </trkpt>
      <trkpt lat="42.679328" lon="-1.460792">
        <ele>598.8</ele>
        <time>2020-08-12T19:10:23Z</time>
      </trkpt>
      <trkpt lat="42.679648" lon="-1.461581">
        <ele>595.8</ele>
        <time>2020-08-12T19:10:26Z</time>
      </trkpt>
      <trkpt lat="42.680282" lon="-1.463221">
        <ele>595.8</ele>
        <time>2020-08-12T19:10:32Z</time>
      </trkpt>
      <trkpt lat="42.680553" lon="-1.464071">
        <ele>594.0</ele>
        <time>2020-08-12T19:10:35Z</time>
      </trkpt>
      <trkpt lat="42.680766" lon="-1.464946">
        <ele>591.8</ele>
        <time>2020-08-12T19:10:37Z</time>
      </trkpt>
      <trkpt lat="42.680965" lon="-1.465961">
        <ele>594.0</ele>
        <time>2020-08-12T19:10:41Z</time>
      </trkpt>
      <trkpt lat="42.681126" lon="-1.466974">
        <ele>590.8</ele>
        <time>2020-08-12T19:10:44Z</time>
      </trkpt>
      <trkpt lat="42.681386" lon="-1.468401">
        <ele>590.0</ele>
        <time>2020-08-12T19:10:48Z</time>
      </trkpt>
      <trkpt lat="42.681591" lon="-1.469188">
        <ele>588.0</ele>
        <time>2020-08-12T19:10:51Z</time>
      </trkpt>
      <trkpt lat="42.681836" lon="-1.470037">
        <ele>588.6</ele>
        <time>2020-08-12T19:10:54Z</time>
      </trkpt>
      <trkpt lat="42.682052" lon="-1.47068">
        <ele>588.6</ele>
        <time>2020-08-12T19:10:56Z</time>
      </trkpt>
      <trkpt lat="42.682319" lon="-1.471377">
        <ele>585.8</ele>
        <time>2020-08-12T19:10:58Z</time>
      </trkpt>
      <trkpt lat="42.682608" lon="-1.472023">
        <ele>588.0</ele>
        <time>2020-08-12T19:11:01Z</time>
      </trkpt>
      <trkpt lat="42.682989" lon="-1.472808">
        <ele>583.2</ele>
        <time>2020-08-12T19:11:04Z</time>
      </trkpt>
      <trkpt lat="42.683315" lon="-1.473394">
        <ele>581.4</ele>
        <time>2020-08-12T19:11:06Z</time>
      </trkpt>
      <trkpt lat="42.683893" lon="-1.474263">
        <ele>579.6</ele>
        <time>2020-08-12T19:11:09Z</time>
      </trkpt>
      <trkpt lat="42.684245" lon="-1.474754">
        <ele>584.6</ele>
        <time>2020-08-12T19:11:12Z</time>
      </trkpt>
      <trkpt lat="42.684735" lon="-1.475338">
        <ele>579.0</ele>
        <time>2020-08-12T19:11:14Z</time>
      </trkpt>
      <trkpt lat="42.68524" lon="-1.475894">
        <ele>578.6</ele>
        <time>2020-08-12T19:11:17Z</time>
      </trkpt>
      <trkpt lat="42.685905" lon="-1.476528">
        <ele>585.2</ele>
        <time>2020-08-12T19:11:20Z</time>
      </trkpt>
      <trkpt lat="42.686316" lon="-1.476875">
        <ele>577.0</ele>
        <time>2020-08-12T19:11:23Z</time>
      </trkpt>
      <trkpt lat="42.686743" lon="-1.477193">
        <ele>585.8</ele>
        <time>2020-08-12T19:11:25Z</time>
      </trkpt>
      <trkpt lat="42.687353" lon="-1.477579">
        <ele>577.2</ele>
        <time>2020-08-12T19:11:27Z</time>
      </trkpt>
      <trkpt lat="42.688099" lon="-1.478">
        <ele>582.6</ele>
        <time>2020-08-12T19:11:31Z</time>
      </trkpt>
      <trkpt lat="42.688452" lon="-1.478179">
        <ele>583.6</ele>
        <time>2020-08-12T19:11:32Z</time>
      </trkpt>
      <trkpt lat="42.688811" lon="-1.478333">
        <ele>583.6</ele>
        <time>2020-08-12T19:11:34Z</time>
      </trkpt>
      <trkpt lat="42.690201" lon="-1.478826">
        <ele>579.0</ele>
        <time>2020-08-12T19:11:40Z</time>
      </trkpt>
      <trkpt lat="42.691913" lon="-1.479317">
        <ele>576.8</ele>
        <time>2020-08-12T19:11:47Z</time>
      </trkpt>
      <trkpt lat="42.692334" lon="-1.479501">
        <ele>576.8</ele>
        <time>2020-08-12T19:11:49Z</time>
      </trkpt>
      <trkpt lat="42.692814" lon="-1.479681">
        <ele>577.4</ele>
        <time>2020-08-12T19:11:51Z</time>
      </trkpt>
      <trkpt lat="42.693821" lon="-1.480232">
        <ele>576.2</ele>
        <time>2020-08-12T19:11:56Z</time>
      </trkpt>
      <trkpt lat="42.695151" lon="-1.481037">
        <ele>576.6</ele>
        <time>2020-08-12T19:12:02Z</time>
      </trkpt>
      <trkpt lat="42.696491" lon="-1.482256">
        <ele>578.2</ele>
        <time>2020-08-12T19:12:09Z</time>
      </trkpt>
      <trkpt lat="42.697516" lon="-1.483374">
        <ele>572.4</ele>
        <time>2020-08-12T19:12:14Z</time>
      </trkpt>
      <trkpt lat="42.697986" lon="-1.483975">
        <ele>572.4</ele>
        <time>2020-08-12T19:12:17Z</time>
      </trkpt>
      <trkpt lat="42.698527" lon="-1.484729">
        <ele>570.0</ele>
        <time>2020-08-12T19:12:20Z</time>
      </trkpt>
      <trkpt lat="42.699042" lon="-1.485541">
        <ele>567.6</ele>
        <time>2020-08-12T19:12:23Z</time>
      </trkpt>
      <trkpt lat="42.699506" lon="-1.486349">
        <ele>571.2</ele>
        <time>2020-08-12T19:12:26Z</time>
      </trkpt>
      <trkpt lat="42.700571" lon="-1.488267">
        <ele>574.6</ele>
        <time>2020-08-12T19:12:34Z</time>
      </trkpt>
      <trkpt lat="42.70094" lon="-1.488856">
        <ele>582.6</ele>
        <time>2020-08-12T19:12:36Z</time>
      </trkpt>
      <trkpt lat="42.701326" lon="-1.48942">
        <ele>585.2</ele>
        <time>2020-08-12T19:12:39Z</time>
      </trkpt>
      <trkpt lat="42.70188" lon="-1.490095">
        <ele>592.6</ele>
        <time>2020-08-12T19:12:42Z</time>
      </trkpt>
      <trkpt lat="42.703589" lon="-1.491974">
        <ele>579.6</ele>
        <time>2020-08-12T19:12:51Z</time>
      </trkpt>
      <trkpt lat="42.704222" lon="-1.492777">
        <ele>574.2</ele>
        <time>2020-08-12T19:12:55Z</time>
      </trkpt>
      <trkpt lat="42.704633" lon="-1.493372">
        <ele>571.4</ele>
        <time>2020-08-12T19:12:57Z</time>
      </trkpt>
      <trkpt lat="42.705006" lon="-1.493954">
        <ele>571.8</ele>
        <time>2020-08-12T19:13:00Z</time>
      </trkpt>
      <trkpt lat="42.705515" lon="-1.494883">
        <ele>567.8</ele>
        <time>2020-08-12T19:13:03Z</time>
      </trkpt>
      <trkpt lat="42.709955" lon="-1.504223">
        <ele>543.2</ele>
        <time>2020-08-12T19:13:37Z</time>
      </trkpt>
      <trkpt lat="42.711582" lon="-1.507787">
        <ele>542.8</ele>
        <time>2020-08-12T19:13:50Z</time>
      </trkpt>
      <trkpt lat="42.711829" lon="-1.508385">
        <ele>541.6</ele>
        <time>2020-08-12T19:13:52Z</time>
      </trkpt>
      <trkpt lat="42.712231" lon="-1.509473">
        <ele>537.4</ele>
        <time>2020-08-12T19:13:56Z</time>
      </trkpt>
      <trkpt lat="42.71243" lon="-1.51008">
        <ele>534.0</ele>
        <time>2020-08-12T19:13:58Z</time>
      </trkpt>
      <trkpt lat="42.712627" lon="-1.510765">
        <ele>534.0</ele>
        <time>2020-08-12T19:14:00Z</time>
      </trkpt>
      <trkpt lat="42.712825" lon="-1.511591">
        <ele>530.4</ele>
        <time>2020-08-12T19:14:03Z</time>
      </trkpt>
      <trkpt lat="42.713029" lon="-1.512533">
        <ele>525.6</ele>
        <time>2020-08-12T19:14:06Z</time>
      </trkpt>
      <trkpt lat="42.713243" lon="-1.513897">
        <ele>523.6</ele>
        <time>2020-08-12T19:14:10Z</time>
      </trkpt>
      <trkpt lat="42.713634" lon="-1.517621">
        <ele>519.2</ele>
        <time>2020-08-12T19:14:22Z</time>
      </trkpt>
      <trkpt lat="42.713759" lon="-1.518663">
        <ele>518.4</ele>
        <time>2020-08-12T19:14:25Z</time>
      </trkpt>
      <trkpt lat="42.713919" lon="-1.519678">
        <ele>516.4</ele>
        <time>2020-08-12T19:14:28Z</time>
      </trkpt>
      <trkpt lat="42.714105" lon="-1.520672">
        <ele>514.8</ele>
        <time>2020-08-12T19:14:32Z</time>
      </trkpt>
      <trkpt lat="42.714294" lon="-1.521587">
        <ele>513.6</ele>
        <time>2020-08-12T19:14:34Z</time>
      </trkpt>
      <trkpt lat="42.714539" lon="-1.522574">
        <ele>512.0</ele>
        <time>2020-08-12T19:14:38Z</time>
      </trkpt>
      <trkpt lat="42.714962" lon="-1.524085">
        <ele>510.8</ele>
        <time>2020-08-12T19:14:43Z</time>
      </trkpt>
      <trkpt lat="42.715287" lon="-1.525101">
        <ele>509.2</ele>
        <time>2020-08-12T19:14:46Z</time>
      </trkpt>
      <trkpt lat="42.715701" lon="-1.526227">
        <ele>507.8</ele>
        <time>2020-08-12T19:14:50Z</time>
      </trkpt>
      <trkpt lat="42.716371" lon="-1.527852">
        <ele>506.4</ele>
        <time>2020-08-12T19:14:56Z</time>
      </trkpt>
      <trkpt lat="42.716773" lon="-1.528694">
        <ele>507.0</ele>
        <time>2020-08-12T19:14:59Z</time>
      </trkpt>
      <trkpt lat="42.717331" lon="-1.529781">
        <ele>507.8</ele>
        <time>2020-08-12T19:15:03Z</time>
      </trkpt>
      <trkpt lat="42.718517" lon="-1.531889">
        <ele>506.4</ele>
        <time>2020-08-12T19:15:11Z</time>
      </trkpt>
      <trkpt lat="42.719046" lon="-1.532901">
        <ele>506.0</ele>
        <time>2020-08-12T19:15:15Z</time>
      </trkpt>
      <trkpt lat="42.719571" lon="-1.534005">
        <ele>506.4</ele>
        <time>2020-08-12T19:15:19Z</time>
      </trkpt>
      <trkpt lat="42.720312" lon="-1.535671">
        <ele>508.6</ele>
        <time>2020-08-12T19:15:25Z</time>
      </trkpt>
      <trkpt lat="42.721309" lon="-1.538118">
        <ele>508.4</ele>
        <time>2020-08-12T19:15:33Z</time>
      </trkpt>
      <trkpt lat="42.723007" lon="-1.542583">
        <ele>512.0</ele>
        <time>2020-08-12T19:15:49Z</time>
      </trkpt>
      <trkpt lat="42.724346" lon="-1.545777">
        <ele>512.4</ele>
        <time>2020-08-12T19:16:00Z</time>
      </trkpt>
      <trkpt lat="42.727579" lon="-1.553319">
        <ele>491.2</ele>
        <time>2020-08-12T19:16:27Z</time>
      </trkpt>
      <trkpt lat="42.727853" lon="-1.554036">
        <ele>489.6</ele>
        <time>2020-08-12T19:16:30Z</time>
      </trkpt>
      <trkpt lat="42.72807" lon="-1.554685">
        <ele>490.2</ele>
        <time>2020-08-12T19:16:32Z</time>
      </trkpt>
      <trkpt lat="42.728333" lon="-1.555545">
        <ele>489.6</ele>
        <time>2020-08-12T19:16:35Z</time>
      </trkpt>
      <trkpt lat="42.728566" lon="-1.556487">
        <ele>485.6</ele>
        <time>2020-08-12T19:16:38Z</time>
      </trkpt>
      <trkpt lat="42.728737" lon="-1.55733">
        <ele>484.0</ele>
        <time>2020-08-12T19:16:40Z</time>
      </trkpt>
      <trkpt lat="42.729038" lon="-1.559264">
        <ele>481.8</ele>
        <time>2020-08-12T19:16:46Z</time>
      </trkpt>
      <trkpt lat="42.729228" lon="-1.560287">
        <ele>480.6</ele>
        <time>2020-08-12T19:16:50Z</time>
      </trkpt>
      <trkpt lat="42.729496" lon="-1.561401">
        <ele>480.0</ele>
        <time>2020-08-12T19:16:53Z</time>
      </trkpt>
      <trkpt lat="42.729907" lon="-1.562715">
        <ele>476.8</ele>
        <time>2020-08-12T19:16:58Z</time>
      </trkpt>
      <trkpt lat="42.730194" lon="-1.563461">
        <ele>476.4</ele>
        <time>2020-08-12T19:17:00Z</time>
      </trkpt>
      <trkpt lat="42.730625" lon="-1.564434">
        <ele>475.2</ele>
        <time>2020-08-12T19:17:04Z</time>
      </trkpt>
      <trkpt lat="42.731033" lon="-1.565226">
        <ele>474.2</ele>
        <time>2020-08-12T19:17:07Z</time>
      </trkpt>
      <trkpt lat="42.731562" lon="-1.566147">
        <ele>473.4</ele>
        <time>2020-08-12T19:17:10Z</time>
      </trkpt>
      <trkpt lat="42.732338" lon="-1.567251">
        <ele>471.8</ele>
        <time>2020-08-12T19:17:15Z</time>
      </trkpt>
      <trkpt lat="42.733425" lon="-1.568547">
        <ele>469.2</ele>
        <time>2020-08-12T19:17:21Z</time>
      </trkpt>
      <trkpt lat="42.734281" lon="-1.569691">
        <ele>468.8</ele>
        <time>2020-08-12T19:17:26Z</time>
      </trkpt>
      <trkpt lat="42.73497" lon="-1.57081">
        <ele>469.4</ele>
        <time>2020-08-12T19:17:31Z</time>
      </trkpt>
      <trkpt lat="42.735634" lon="-1.572125">
        <ele>468.0</ele>
        <time>2020-08-12T19:17:35Z</time>
      </trkpt>
      <trkpt lat="42.736902" lon="-1.575091">
        <ele>466.6</ele>
        <time>2020-08-12T19:17:46Z</time>
      </trkpt>
      <trkpt lat="42.737153" lon="-1.575743">
        <ele>466.6</ele>
        <time>2020-08-12T19:17:48Z</time>
      </trkpt>
      <trkpt lat="42.737373" lon="-1.576379">
        <ele>466.8</ele>
        <time>2020-08-12T19:17:50Z</time>
      </trkpt>
      <trkpt lat="42.737568" lon="-1.577">
        <ele>468.2</ele>
        <time>2020-08-12T19:17:52Z</time>
      </trkpt>
      <trkpt lat="42.73801" lon="-1.578755">
        <ele>465.6</ele>
        <time>2020-08-12T19:17:58Z</time>
      </trkpt>
      <trkpt lat="42.738368" lon="-1.580458">
        <ele>464.4</ele>
        <time>2020-08-12T19:18:04Z</time>
      </trkpt>
      <trkpt lat="42.738709" lon="-1.581747">
        <ele>463.2</ele>
        <time>2020-08-12T19:18:08Z</time>
      </trkpt>
      <trkpt lat="42.738998" lon="-1.582643">
        <ele>464.0</ele>
        <time>2020-08-12T19:18:11Z</time>
      </trkpt>
      <trkpt lat="42.73939" lon="-1.583708">
        <ele>463.8</ele>
        <time>2020-08-12T19:18:15Z</time>
      </trkpt>
      <trkpt lat="42.739862" lon="-1.58478">
        <ele>462.8</ele>
        <time>2020-08-12T19:18:18Z</time>
      </trkpt>
      <trkpt lat="42.740216" lon="-1.585489">
        <ele>463.2</ele>
        <time>2020-08-12T19:18:21Z</time>
      </trkpt>
      <trkpt lat="42.740903" lon="-1.586684">
        <ele>465.0</ele>
        <time>2020-08-12T19:18:26Z</time>
      </trkpt>
      <trkpt lat="42.742062" lon="-1.588384">
        <ele>463.8</ele>
        <time>2020-08-12T19:18:33Z</time>
      </trkpt>
      <trkpt lat="42.742833" lon="-1.589644">
        <ele>466.0</ele>
        <time>2020-08-12T19:18:38Z</time>
      </trkpt>
      <trkpt lat="42.745663" lon="-1.595232">
        <ele>470.0</ele>
        <time>2020-08-12T19:18:59Z</time>
      </trkpt>
      <trkpt lat="42.746853" lon="-1.597842">
        <ele>470.2</ele>
        <time>2020-08-12T19:19:08Z</time>
      </trkpt>
      <trkpt lat="42.747322" lon="-1.598953">
        <ele>470.4</ele>
        <time>2020-08-12T19:19:12Z</time>
      </trkpt>
      <trkpt lat="42.747901" lon="-1.600433">
        <ele>471.6</ele>
        <time>2020-08-12T19:19:17Z</time>
      </trkpt>
      <trkpt lat="42.74929" lon="-1.604125">
        <ele>480.0</ele>
        <time>2020-08-12T19:19:30Z</time>
      </trkpt>
      <trkpt lat="42.749648" lon="-1.604998">
        <ele>478.8</ele>
        <time>2020-08-12T19:19:33Z</time>
      </trkpt>
      <trkpt lat="42.750016" lon="-1.605785">
        <ele>483.4</ele>
        <time>2020-08-12T19:19:36Z</time>
      </trkpt>
      <trkpt lat="42.750918" lon="-1.607426">
        <ele>488.0</ele>
        <time>2020-08-12T19:19:42Z</time>
      </trkpt>
      <trkpt lat="42.75158" lon="-1.608534">
        <ele>490.8</ele>
        <time>2020-08-12T19:19:47Z</time>
      </trkpt>
      <trkpt lat="42.752134" lon="-1.609704">
        <ele>494.6</ele>
        <time>2020-08-12T19:19:51Z</time>
      </trkpt>
      <trkpt lat="42.752513" lon="-1.610602">
        <ele>495.6</ele>
        <time>2020-08-12T19:19:54Z</time>
      </trkpt>
      <trkpt lat="42.752875" lon="-1.611582">
        <ele>494.6</ele>
        <time>2020-08-12T19:19:57Z</time>
      </trkpt>
      <trkpt lat="42.753928" lon="-1.614973">
        <ele>486.4</ele>
        <time>2020-08-12T19:20:09Z</time>
      </trkpt>
      <trkpt lat="42.754749" lon="-1.617277">
        <ele>474.8</ele>
        <time>2020-08-12T19:20:17Z</time>
      </trkpt>
      <trkpt lat="42.756719" lon="-1.622658">
        <ele>473.2</ele>
        <time>2020-08-12T19:20:35Z</time>
      </trkpt>
      <trkpt lat="42.758505" lon="-1.627633">
        <ele>466.8</ele>
        <time>2020-08-12T19:20:53Z</time>
      </trkpt>
      <trkpt lat="42.759167" lon="-1.629276">
        <ele>466.2</ele>
        <time>2020-08-12T19:21:01Z</time>
      </trkpt>
      <trkpt lat="42.759292" lon="-1.629505">
        <ele>466.2</ele>
        <time>2020-08-12T19:21:02Z</time>
      </trkpt>
      <trkpt lat="42.759393" lon="-1.629644">
        <ele>466.2</ele>
        <time>2020-08-12T19:21:03Z</time>
      </trkpt>
      <trkpt lat="42.759647" lon="-1.629892">
        <ele>465.4</ele>
        <time>2020-08-12T19:21:04Z</time>
      </trkpt>
      <trkpt lat="42.759647" lon="-1.629892">
        <ele>465.4</ele>
        <time>2020-08-12T19:21:04Z</time>
      </trkpt>
      <trkpt lat="42.759838" lon="-1.630034">
        <ele>464.6</ele>
        <time>2020-08-12T19:21:05Z</time>
      </trkpt>
      <trkpt lat="42.760087" lon="-1.630183">
        <ele>463.8</ele>
        <time>2020-08-12T19:21:07Z</time>
      </trkpt>
      <trkpt lat="42.760334" lon="-1.630283">
        <ele>463.8</ele>
        <time>2020-08-12T19:21:08Z</time>
      </trkpt>
      <trkpt lat="42.761003" lon="-1.630464">
        <ele>462.2</ele>
        <time>2020-08-12T19:21:11Z</time>
      </trkpt>
      <trkpt lat="42.761938" lon="-1.630612">
        <ele>458.0</ele>
        <time>2020-08-12T19:21:15Z</time>
      </trkpt>
      <trkpt lat="42.764047" lon="-1.630743">
        <ele>451.0</ele>
        <time>2020-08-12T19:21:25Z</time>
      </trkpt>
      <trkpt lat="42.765266" lon="-1.630579">
        <ele>447.8</ele>
        <time>2020-08-12T19:21:31Z</time>
      </trkpt>
      <trkpt lat="42.767475" lon="-1.630169">
        <ele>444.6</ele>
        <time>2020-08-12T19:21:41Z</time>
      </trkpt>
      <trkpt lat="42.76928" lon="-1.629996">
        <ele>443.2</ele>
        <time>2020-08-12T19:21:49Z</time>
      </trkpt>
      <trkpt lat="42.770512" lon="-1.629988">
        <ele>443.6</ele>
        <time>2020-08-12T19:21:55Z</time>
      </trkpt>
      <trkpt lat="42.771467" lon="-1.630098">
        <ele>444.6</ele>
        <time>2020-08-12T19:21:59Z</time>
      </trkpt>
      <trkpt lat="42.772692" lon="-1.630357">
        <ele>447.8</ele>
        <time>2020-08-12T19:22:05Z</time>
      </trkpt>
      <trkpt lat="42.773841" lon="-1.630723">
        <ele>448.8</ele>
        <time>2020-08-12T19:22:10Z</time>
      </trkpt>
      <trkpt lat="42.775217" lon="-1.631318">
        <ele>454.2</ele>
        <time>2020-08-12T19:22:17Z</time>
      </trkpt>
      <trkpt lat="42.776105" lon="-1.631727">
        <ele>459.2</ele>
        <time>2020-08-12T19:22:21Z</time>
      </trkpt>
      <trkpt lat="42.776585" lon="-1.631968">
        <ele>459.2</ele>
        <time>2020-08-12T19:22:24Z</time>
      </trkpt>
      <trkpt lat="42.776856" lon="-1.632031">
        <ele>459.4</ele>
        <time>2020-08-12T19:22:26Z</time>
      </trkpt>
      <trkpt lat="42.777841" lon="-1.632537">
        <ele>458.2</ele>
        <time>2020-08-12T19:22:34Z</time>
      </trkpt>
      <trkpt lat="42.778248" lon="-1.632671">
        <ele>458.2</ele>
        <time>2020-08-12T19:22:38Z</time>
      </trkpt>
      <trkpt lat="42.778667" lon="-1.632749">
        <ele>456.2</ele>
        <time>2020-08-12T19:22:41Z</time>
      </trkpt>
      <trkpt lat="42.779693" lon="-1.632772">
        <ele>453.4</ele>
        <time>2020-08-12T19:22:49Z</time>
      </trkpt>
      <trkpt lat="42.780223" lon="-1.632818">
        <ele>451.4</ele>
        <time>2020-08-12T19:22:54Z</time>
      </trkpt>
      <trkpt lat="42.780677" lon="-1.632917">
        <ele>451.4</ele>
        <time>2020-08-12T19:22:57Z</time>
      </trkpt>
      <trkpt lat="42.780986" lon="-1.633065">
        <ele>449.8</ele>
        <time>2020-08-12T19:23:00Z</time>
      </trkpt>
      <trkpt lat="42.781349" lon="-1.633292">
        <ele>449.8</ele>
        <time>2020-08-12T19:23:03Z</time>
      </trkpt>
      <trkpt lat="42.781716" lon="-1.63364">
        <ele>448.6</ele>
        <time>2020-08-12T19:23:07Z</time>
      </trkpt>
      <trkpt lat="42.782039" lon="-1.634036">
        <ele>448.6</ele>
        <time>2020-08-12T19:23:10Z</time>
      </trkpt>
      <trkpt lat="42.782429" lon="-1.634557">
        <ele>449.8</ele>
        <time>2020-08-12T19:23:15Z</time>
      </trkpt>
      <trkpt lat="42.782651" lon="-1.634805">
        <ele>445.8</ele>
        <time>2020-08-12T19:23:17Z</time>
      </trkpt>
      <trkpt lat="42.782976" lon="-1.635084">
        <ele>448.6</ele>
        <time>2020-08-12T19:23:20Z</time>
      </trkpt>
      <trkpt lat="42.783077" lon="-1.635093">
        <ele>448.6</ele>
        <time>2020-08-12T19:23:21Z</time>
      </trkpt>
      <trkpt lat="42.783453" lon="-1.63531">
        <ele>443.4</ele>
        <time>2020-08-12T19:23:25Z</time>
      </trkpt>
      <trkpt lat="42.783852" lon="-1.635477">
        <ele>443.4</ele>
        <time>2020-08-12T19:23:30Z</time>
      </trkpt>
      <trkpt lat="42.783917" lon="-1.635481">
        <ele>443.4</ele>
        <time>2020-08-12T19:23:30Z</time>
      </trkpt>
      <trkpt lat="42.783986" lon="-1.635446">
        <ele>443.4</ele>
        <time>2020-08-12T19:23:31Z</time>
      </trkpt>
      <trkpt lat="42.784094" lon="-1.635346">
        <ele>443.4</ele>
        <time>2020-08-12T19:23:32Z</time>
      </trkpt>
      <trkpt lat="42.784228" lon="-1.635335">
        <ele>438.8</ele>
        <time>2020-08-12T19:23:34Z</time>
      </trkpt>
      <trkpt lat="42.784316" lon="-1.635429">
        <ele>438.8</ele>
        <time>2020-08-12T19:23:35Z</time>
      </trkpt>
      <trkpt lat="42.78439" lon="-1.635658">
        <ele>438.8</ele>
        <time>2020-08-12T19:23:37Z</time>
      </trkpt>
      <trkpt lat="42.784425" lon="-1.635709">
        <ele>438.8</ele>
        <time>2020-08-12T19:23:38Z</time>
      </trkpt>
      <trkpt lat="42.785057" lon="-1.636105">
        <ele>434.8</ele>
        <time>2020-08-12T19:23:46Z</time>
      </trkpt>
      <trkpt lat="42.789363" lon="-1.638251">
        <ele>431.8</ele>
        <time>2020-08-12T19:24:38Z</time>
      </trkpt>
      <trkpt lat="42.789513" lon="-1.638299">
        <ele>431.8</ele>
        <time>2020-08-12T19:24:40Z</time>
      </trkpt>
      <trkpt lat="42.789733" lon="-1.638337">
        <ele>430.6</ele>
        <time>2020-08-12T19:24:42Z</time>
      </trkpt>
      <trkpt lat="42.789784" lon="-1.638372">
        <ele>430.6</ele>
        <time>2020-08-12T19:24:43Z</time>
      </trkpt>
      <trkpt lat="42.789928" lon="-1.638592">
        <ele>430.6</ele>
        <time>2020-08-12T19:24:45Z</time>
      </trkpt>
      <trkpt lat="42.790002" lon="-1.638654">
        <ele>431.0</ele>
        <time>2020-08-12T19:24:46Z</time>
      </trkpt>
      <trkpt lat="42.79048" lon="-1.638865">
        <ele>431.0</ele>
        <time>2020-08-12T19:24:52Z</time>
      </trkpt>
      <trkpt lat="42.792133" lon="-1.63968">
        <ele>433.0</ele>
        <time>2020-08-12T19:25:12Z</time>
      </trkpt>
      <trkpt lat="42.793657" lon="-1.640405">
        <ele>430.2</ele>
        <time>2020-08-12T19:25:30Z</time>
      </trkpt>
      <trkpt lat="42.795714" lon="-1.641424">
        <ele>427.4</ele>
        <time>2020-08-12T19:25:56Z</time>
      </trkpt>
      <trkpt lat="42.796124" lon="-1.641488">
        <ele>428.8</ele>
        <time>2020-08-12T19:26:01Z</time>
      </trkpt>
      <trkpt lat="42.796333" lon="-1.641576">
        <ele>428.8</ele>
        <time>2020-08-12T19:26:03Z</time>
      </trkpt>
      <trkpt lat="42.796654" lon="-1.641856">
        <ele>428.0</ele>
        <time>2020-08-12T19:26:08Z</time>
      </trkpt>
      <trkpt lat="42.796824" lon="-1.641979">
        <ele>429.4</ele>
        <time>2020-08-12T19:26:10Z</time>
      </trkpt>
      <trkpt lat="42.798362" lon="-1.642743">
        <ele>426.4</ele>
        <time>2020-08-12T19:26:29Z</time>
      </trkpt>
      <trkpt lat="42.798565" lon="-1.642812">
        <ele>426.4</ele>
        <time>2020-08-12T19:26:32Z</time>
      </trkpt>
      <trkpt lat="42.798622" lon="-1.642745">
        <ele>426.4</ele>
        <time>2020-08-12T19:26:32Z</time>
      </trkpt>
      <trkpt lat="42.798658" lon="-1.64273">
        <ele>426.4</ele>
        <time>2020-08-12T19:26:33Z</time>
      </trkpt>
      <trkpt lat="42.798731" lon="-1.64274">
        <ele>426.4</ele>
        <time>2020-08-12T19:26:33Z</time>
      </trkpt>
      <trkpt lat="42.798795" lon="-1.642811">
        <ele>426.4</ele>
        <time>2020-08-12T19:26:34Z</time>
      </trkpt>
      <trkpt lat="42.798817" lon="-1.642933">
        <ele>426.4</ele>
        <time>2020-08-12T19:26:35Z</time>
      </trkpt>
      <trkpt lat="42.799736" lon="-1.643259">
        <ele>427.2</ele>
        <time>2020-08-12T19:26:47Z</time>
      </trkpt>
      <trkpt lat="42.800459" lon="-1.643453">
        <ele>428.8</ele>
        <time>2020-08-12T19:26:57Z</time>
      </trkpt>
      <trkpt lat="42.801463" lon="-1.643667">
        <ele>433.2</ele>
        <time>2020-08-12T19:27:10Z</time>
      </trkpt>
      <trkpt lat="42.803978" lon="-1.644281">
        <ele>439.2</ele>
        <time>2020-08-12T19:27:42Z</time>
      </trkpt>
      <trkpt lat="42.804433" lon="-1.644327">
        <ele>441.6</ele>
        <time>2020-08-12T19:27:48Z</time>
      </trkpt>
      <trkpt lat="42.80486" lon="-1.644315">
        <ele>441.6</ele>
        <time>2020-08-12T19:27:54Z</time>
      </trkpt>
      <trkpt lat="42.806174" lon="-1.644177">
        <ele>449.2</ele>
        <time>2020-08-12T19:28:10Z</time>
      </trkpt>
      <trkpt lat="42.806279" lon="-1.644126">
        <ele>444.4</ele>
        <time>2020-08-12T19:28:12Z</time>
      </trkpt>
      <trkpt lat="42.806313" lon="-1.644062">
        <ele>444.4</ele>
        <time>2020-08-12T19:28:13Z</time>
      </trkpt>
      <trkpt lat="42.806397" lon="-1.644009">
        <ele>444.4</ele>
        <time>2020-08-12T19:28:14Z</time>
      </trkpt>
      <trkpt lat="42.806507" lon="-1.64405">
        <ele>444.4</ele>
        <time>2020-08-12T19:28:15Z</time>
      </trkpt>
      <trkpt lat="42.806556" lon="-1.644138">
        <ele>444.4</ele>
        <time>2020-08-12T19:28:16Z</time>
      </trkpt>
      <trkpt lat="42.806662" lon="-1.64413">
        <ele>444.4</ele>
        <time>2020-08-12T19:28:17Z</time>
      </trkpt>
      <trkpt lat="42.808341" lon="-1.644006">
        <ele>455.4</ele>
        <time>2020-08-12T19:28:34Z</time>
      </trkpt>
      <trkpt lat="42.808865" lon="-1.643949">
        <ele>455.4</ele>
        <time>2020-08-12T19:28:39Z</time>
      </trkpt>
      <trkpt lat="42.80917" lon="-1.643898">
        <ele>454.8</ele>
        <time>2020-08-12T19:28:42Z</time>
      </trkpt>
      <trkpt lat="42.809748" lon="-1.643765">
        <ele>454.8</ele>
        <time>2020-08-12T19:28:48Z</time>
      </trkpt>
      <trkpt lat="42.80988" lon="-1.643804">
        <ele>454.8</ele>
        <time>2020-08-12T19:28:50Z</time>
      </trkpt>
      <trkpt lat="42.809985" lon="-1.643888">
        <ele>454.8</ele>
        <time>2020-08-12T19:28:51Z</time>
      </trkpt>
      <trkpt lat="42.810071" lon="-1.64401">
        <ele>457.2</ele>
        <time>2020-08-12T19:28:52Z</time>
      </trkpt>
      <trkpt lat="42.810134" lon="-1.644157">
        <ele>457.2</ele>
        <time>2020-08-12T19:28:54Z</time>
      </trkpt>
      <trkpt lat="42.810238" lon="-1.644269">
        <ele>457.0</ele>
        <time>2020-08-12T19:28:55Z</time>
      </trkpt>
      <trkpt lat="42.810416" lon="-1.644357">
        <ele>457.0</ele>
        <time>2020-08-12T19:28:57Z</time>
      </trkpt>
      <trkpt lat="42.811753" lon="-1.644986">
        <ele>458.6</ele>
        <time>2020-08-12T19:29:11Z</time>
      </trkpt>
      <trkpt lat="42.812271" lon="-1.645206">
        <ele>458.0</ele>
        <time>2020-08-12T19:29:17Z</time>
      </trkpt>
      <trkpt lat="42.812499" lon="-1.645197">
        <ele>458.0</ele>
        <time>2020-08-12T19:29:19Z</time>
      </trkpt>
      <trkpt lat="42.812764" lon="-1.645427">
        <ele>460.2</ele>
        <time>2020-08-12T19:29:23Z</time>
      </trkpt>
      <trkpt lat="42.813296" lon="-1.64571">
        <ele>460.2</ele>
        <time>2020-08-12T19:29:28Z</time>
      </trkpt>
      <trkpt lat="42.813725" lon="-1.645909">
        <ele>455.4</ele>
        <time>2020-08-12T19:29:33Z</time>
      </trkpt>
      <trkpt lat="42.813851" lon="-1.645942">
        <ele>455.4</ele>
        <time>2020-08-12T19:29:34Z</time>
      </trkpt>
      <trkpt lat="42.814624" lon="-1.646278">
        <ele>455.6</ele>
        <time>2020-08-12T19:29:43Z</time>
      </trkpt>
      <trkpt lat="42.814853" lon="-1.646792">
        <ele>453.2</ele>
        <time>2020-08-12T19:29:47Z</time>
      </trkpt>
      <trkpt lat="42.815523" lon="-1.648147">
        <ele>455.4</ele>
        <time>2020-08-12T19:29:59Z</time>
      </trkpt>
      <trkpt lat="42.815622" lon="-1.648113">
        <ele>455.4</ele>
        <time>2020-08-12T19:30:01Z</time>
      </trkpt>
      <trkpt lat="42.815743" lon="-1.648162">
        <ele>455.4</ele>
        <time>2020-08-12T19:30:03Z</time>
      </trkpt>
      <trkpt lat="42.815807" lon="-1.648252">
        <ele>455.4</ele>
        <time>2020-08-12T19:30:05Z</time>
      </trkpt>
      <trkpt lat="42.815837" lon="-1.648358">
        <ele>452.4</ele>
        <time>2020-08-12T19:30:06Z</time>
      </trkpt>
      <trkpt lat="42.816112" lon="-1.648648">
        <ele>452.4</ele>
        <time>2020-08-12T19:30:12Z</time>
      </trkpt>
      <trkpt lat="42.816271" lon="-1.648864">
        <ele>452.4</ele>
        <time>2020-08-12T19:30:16Z</time>
      </trkpt>
      <trkpt lat="42.816804" lon="-1.649507">
        <ele>450.2</ele>
        <time>2020-08-12T19:30:27Z</time>
      </trkpt>
      <trkpt lat="42.816871" lon="-1.64957">
        <ele>450.2</ele>
        <time>2020-08-12T19:30:29Z</time>
      </trkpt>
      <trkpt lat="42.816871" lon="-1.64957">
        <ele>450.2</ele>
        <time>2020-08-12T19:30:29Z</time>
      </trkpt>
      <trkpt lat="42.816804" lon="-1.649507">
        <ele>450.2</ele>
        <time>2020-08-12T19:30:30Z</time>
      </trkpt>
      <trkpt lat="42.816271" lon="-1.648864">
        <ele>452.4</ele>
        <time>2020-08-12T19:30:43Z</time>
      </trkpt>
      <trkpt lat="42.816029" lon="-1.648665">
        <ele>452.4</ele>
        <time>2020-08-12T19:30:49Z</time>
      </trkpt>
      <trkpt lat="42.815925" lon="-1.648616">
        <ele>452.4</ele>
        <time>2020-08-12T19:30:51Z</time>
      </trkpt>
      <trkpt lat="42.81579" lon="-1.648594">
        <ele>455.2</ele>
        <time>2020-08-12T19:30:53Z</time>
      </trkpt>
      <trkpt lat="42.815726" lon="-1.648666">
        <ele>455.2</ele>
        <time>2020-08-12T19:30:54Z</time>
      </trkpt>
      <trkpt lat="42.815642" lon="-1.6487">
        <ele>455.2</ele>
        <time>2020-08-12T19:30:55Z</time>
      </trkpt>
      <trkpt lat="42.81555" lon="-1.648683">
        <ele>455.2</ele>
        <time>2020-08-12T19:30:56Z</time>
      </trkpt>
      <trkpt lat="42.815479" lon="-1.648625">
        <ele>455.2</ele>
        <time>2020-08-12T19:30:57Z</time>
      </trkpt>
      <trkpt lat="42.815445" lon="-1.648572">
        <ele>455.2</ele>
        <time>2020-08-12T19:30:57Z</time>
      </trkpt>
      <trkpt lat="42.81541" lon="-1.648441">
        <ele>455.2</ele>
        <time>2020-08-12T19:30:58Z</time>
      </trkpt>
      <trkpt lat="42.81541" lon="-1.648371">
        <ele>455.2</ele>
        <time>2020-08-12T19:30:59Z</time>
      </trkpt>
      <trkpt lat="42.815446" lon="-1.64824">
        <ele>455.4</ele>
        <time>2020-08-12T19:31:00Z</time>
      </trkpt>
      <trkpt lat="42.815523" lon="-1.648147">
        <ele>455.4</ele>
        <time>2020-08-12T19:31:01Z</time>
      </trkpt>
      <trkpt lat="42.814853" lon="-1.646792">
        <ele>453.2</ele>
        <time>2020-08-12T19:31:13Z</time>
      </trkpt>
      <trkpt lat="42.814624" lon="-1.646278">
        <ele>455.6</ele>
        <time>2020-08-12T19:31:18Z</time>
      </trkpt>
      <trkpt lat="42.814137" lon="-1.646066">
        <ele>455.4</ele>
        <time>2020-08-12T19:31:23Z</time>
      </trkpt>
      <trkpt lat="42.81403" lon="-1.646216">
        <ele>455.4</ele>
        <time>2020-08-12T19:31:26Z</time>
      </trkpt>
      <trkpt lat="42.813966" lon="-1.646158">
        <ele>455.4</ele>
        <time>2020-08-12T19:31:27Z</time>
      </trkpt>
      <trkpt lat="42.813819" lon="-1.646083">
        <ele>455.4</ele>
        <time>2020-08-12T19:31:28Z</time>
      </trkpt>
      <trkpt lat="42.812909" lon="-1.645675">
        <ele>460.2</ele>
        <time>2020-08-12T19:31:38Z</time>
      </trkpt>
      <trkpt lat="42.812851" lon="-1.645669">
        <ele>460.2</ele>
        <time>2020-08-12T19:31:39Z</time>
      </trkpt>
      <trkpt lat="42.812714" lon="-1.645741">
        <ele>460.2</ele>
        <time>2020-08-12T19:31:40Z</time>
      </trkpt>
      <trkpt lat="42.812555" lon="-1.645792">
        <ele>460.2</ele>
        <time>2020-08-12T19:31:42Z</time>
      </trkpt>
      <trkpt lat="42.812521" lon="-1.645598">
        <ele>460.2</ele>
        <time>2020-08-12T19:31:43Z</time>
      </trkpt>
      <trkpt lat="42.812549" lon="-1.645247">
        <ele>460.2</ele>
        <time>2020-08-12T19:31:46Z</time>
      </trkpt>
      <trkpt lat="42.812655" lon="-1.644326">
        <ele>461.4</ele>
        <time>2020-08-12T19:31:53Z</time>
      </trkpt>
      <trkpt lat="42.812738" lon="-1.64335">
        <ele>462.0</ele>
        <time>2020-08-12T19:32:00Z</time>
      </trkpt>
      <trkpt lat="42.812707" lon="-1.643211">
        <ele>463.4</ele>
        <time>2020-08-12T19:32:01Z</time>
      </trkpt>
      <trkpt lat="42.812644" lon="-1.643121">
        <ele>463.4</ele>
        <time>2020-08-12T19:32:02Z</time>
      </trkpt>
      <trkpt lat="42.812597" lon="-1.642973">
        <ele>463.4</ele>
        <time>2020-08-12T19:32:04Z</time>
      </trkpt>
      <trkpt lat="42.812619" lon="-1.642798">
        <ele>463.4</ele>
        <time>2020-08-12T19:32:05Z</time>
      </trkpt>
      <trkpt lat="42.81266" lon="-1.642715">
        <ele>463.4</ele>
        <time>2020-08-12T19:32:06Z</time>
      </trkpt>
      <trkpt lat="42.812741" lon="-1.642637">
        <ele>463.4</ele>
        <time>2020-08-12T19:32:07Z</time>
      </trkpt>
      <trkpt lat="42.812789" lon="-1.642617">
        <ele>463.4</ele>
        <time>2020-08-12T19:32:07Z</time>
      </trkpt>
      <trkpt lat="42.812858" lon="-1.642383">
        <ele>464.2</ele>
        <time>2020-08-12T19:32:09Z</time>
      </trkpt>
      <trkpt lat="42.813118" lon="-1.639706">
        <ele>464.0</ele>
        <time>2020-08-12T19:32:29Z</time>
      </trkpt>
      <trkpt lat="42.813101" lon="-1.639492">
        <ele>464.0</ele>
        <time>2020-08-12T19:32:31Z</time>
      </trkpt>
      <trkpt lat="42.813039" lon="-1.639399">
        <ele>464.0</ele>
        <time>2020-08-12T19:32:32Z</time>
      </trkpt>
      <trkpt lat="42.81302" lon="-1.639339">
        <ele>464.0</ele>
        <time>2020-08-12T19:32:33Z</time>
      </trkpt>
      <trkpt lat="42.813025" lon="-1.639257">
        <ele>464.0</ele>
        <time>2020-08-12T19:32:33Z</time>
      </trkpt>
      <trkpt lat="42.813068" lon="-1.639102">
        <ele>464.6</ele>
        <time>2020-08-12T19:32:35Z</time>
      </trkpt>
      <trkpt lat="42.813158" lon="-1.639038">
        <ele>464.6</ele>
        <time>2020-08-12T19:32:36Z</time>
      </trkpt>
      <trkpt lat="42.813212" lon="-1.638818">
        <ele>464.6</ele>
        <time>2020-08-12T19:32:38Z</time>
      </trkpt>
      <trkpt lat="42.813548" lon="-1.635403">
        <ele>461.2</ele>
        <time>2020-08-12T19:33:08Z</time>
      </trkpt>
      <trkpt lat="42.813712" lon="-1.633937">
        <ele>463.2</ele>
        <time>2020-08-12T19:33:20Z</time>
      </trkpt>
      <trkpt lat="42.813927" lon="-1.631696">
        <ele>461.6</ele>
        <time>2020-08-12T19:33:40Z</time>
      </trkpt>
      <trkpt lat="42.814124" lon="-1.630445">
        <ele>462.2</ele>
        <time>2020-08-12T19:33:51Z</time>
      </trkpt>
      <trkpt lat="42.814286" lon="-1.629641">
        <ele>458.4</ele>
        <time>2020-08-12T19:33:58Z</time>
      </trkpt>
      <trkpt lat="42.814914" lon="-1.627867">
        <ele>462.6</ele>
        <time>2020-08-12T19:34:15Z</time>
      </trkpt>
      <trkpt lat="42.815259" lon="-1.627026">
        <ele>452.4</ele>
        <time>2020-08-12T19:34:23Z</time>
      </trkpt>
      <trkpt lat="42.815984" lon="-1.625604">
        <ele>451.6</ele>
        <time>2020-08-12T19:34:38Z</time>
      </trkpt>
      <trkpt lat="42.816178" lon="-1.62528">
        <ele>451.6</ele>
        <time>2020-08-12T19:34:42Z</time>
      </trkpt>
      <trkpt lat="42.816753" lon="-1.624604">
        <ele>444.8</ele>
        <time>2020-08-12T19:34:51Z</time>
      </trkpt>
      <trkpt lat="42.817357" lon="-1.62409">
        <ele>457.4</ele>
        <time>2020-08-12T19:34:59Z</time>
      </trkpt>
      <trkpt lat="42.818614" lon="-1.623359">
        <ele>433.6</ele>
        <time>2020-08-12T19:35:16Z</time>
      </trkpt>
      <trkpt lat="42.819705" lon="-1.622999">
        <ele>436.6</ele>
        <time>2020-08-12T19:35:29Z</time>
      </trkpt>
      <trkpt lat="42.819925" lon="-1.622888">
        <ele>436.6</ele>
        <time>2020-08-12T19:35:31Z</time>
      </trkpt>
      <trkpt lat="42.82015" lon="-1.622743">
        <ele>427.4</ele>
        <time>2020-08-12T19:35:35Z</time>
      </trkpt>
      <trkpt lat="42.820397" lon="-1.622511">
        <ele>427.4</ele>
        <time>2020-08-12T19:35:38Z</time>
      </trkpt>
      <trkpt lat="42.821751" lon="-1.621002">
        <ele>422.0</ele>
        <time>2020-08-12T19:35:59Z</time>
      </trkpt>
      <trkpt lat="42.821906" lon="-1.620808">
        <ele>420.6</ele>
        <time>2020-08-12T19:36:01Z</time>
      </trkpt>
      <trkpt lat="42.82197" lon="-1.620775">
        <ele>420.6</ele>
        <time>2020-08-12T19:36:02Z</time>
      </trkpt>
      <trkpt lat="42.82204" lon="-1.620681">
        <ele>420.6</ele>
        <time>2020-08-12T19:36:03Z</time>
      </trkpt>
      <trkpt lat="42.822085" lon="-1.620654">
        <ele>420.6</ele>
        <time>2020-08-12T19:36:04Z</time>
      </trkpt>
      <trkpt lat="42.822133" lon="-1.620642">
        <ele>420.6</ele>
        <time>2020-08-12T19:36:04Z</time>
      </trkpt>
      <trkpt lat="42.822229" lon="-1.620664">
        <ele>420.6</ele>
        <time>2020-08-12T19:36:05Z</time>
      </trkpt>
      <trkpt lat="42.822272" lon="-1.620698">
        <ele>420.6</ele>
        <time>2020-08-12T19:36:06Z</time>
      </trkpt>
      <trkpt lat="42.822317" lon="-1.620762">
        <ele>420.6</ele>
        <time>2020-08-12T19:36:06Z</time>
      </trkpt>
      <trkpt lat="42.822346" lon="-1.620841">
        <ele>422.0</ele>
        <time>2020-08-12T19:36:07Z</time>
      </trkpt>
      <trkpt lat="42.822415" lon="-1.620921">
        <ele>422.0</ele>
        <time>2020-08-12T19:36:08Z</time>
      </trkpt>
      <trkpt lat="42.822953" lon="-1.621498">
        <ele>421.6</ele>
        <time>2020-08-12T19:36:15Z</time>
      </trkpt>
      <trkpt lat="42.823269" lon="-1.62176">
        <ele>420.4</ele>
        <time>2020-08-12T19:36:19Z</time>
      </trkpt>
      <trkpt lat="42.823522" lon="-1.621916">
        <ele>419.6</ele>
        <time>2020-08-12T19:36:22Z</time>
      </trkpt>
      <trkpt lat="42.823642" lon="-1.621969">
        <ele>419.6</ele>
        <time>2020-08-12T19:36:23Z</time>
      </trkpt>
      <trkpt lat="42.824061" lon="-1.622096">
        <ele>419.6</ele>
        <time>2020-08-12T19:36:27Z</time>
      </trkpt>
      <trkpt lat="42.824367" lon="-1.622134">
        <ele>419.0</ele>
        <time>2020-08-12T19:36:30Z</time>
      </trkpt>
      <trkpt lat="42.824657" lon="-1.622114">
        <ele>419.0</ele>
        <time>2020-08-12T19:36:33Z</time>
      </trkpt>
      <trkpt lat="42.825226" lon="-1.621974">
        <ele>420.0</ele>
        <time>2020-08-12T19:36:39Z</time>
      </trkpt>
      <trkpt lat="42.825748" lon="-1.621697">
        <ele>420.0</ele>
        <time>2020-08-12T19:36:45Z</time>
      </trkpt>
      <trkpt lat="42.825904" lon="-1.621575">
        <ele>422.4</ele>
        <time>2020-08-12T19:36:47Z</time>
      </trkpt>
      <trkpt lat="42.825934" lon="-1.621479">
        <ele>422.4</ele>
        <time>2020-08-12T19:36:48Z</time>
      </trkpt>
      <trkpt lat="42.825975" lon="-1.621419">
        <ele>422.4</ele>
        <time>2020-08-12T19:36:48Z</time>
      </trkpt>
      <trkpt lat="42.826029" lon="-1.62138">
        <ele>422.4</ele>
        <time>2020-08-12T19:36:49Z</time>
      </trkpt>
      <trkpt lat="42.826089" lon="-1.621366">
        <ele>422.4</ele>
        <time>2020-08-12T19:36:50Z</time>
      </trkpt>
      <trkpt lat="42.826189" lon="-1.621405">
        <ele>422.4</ele>
        <time>2020-08-12T19:36:51Z</time>
      </trkpt>
      <trkpt lat="42.826289" lon="-1.621375">
        <ele>422.4</ele>
        <time>2020-08-12T19:36:52Z</time>
      </trkpt>
      <trkpt lat="42.82847" lon="-1.620125">
        <ele>425.8</ele>
        <time>2020-08-12T19:37:16Z</time>
      </trkpt>
      <trkpt lat="42.828574" lon="-1.62004">
        <ele>425.8</ele>
        <time>2020-08-12T19:37:17Z</time>
      </trkpt>
      <trkpt lat="42.828643" lon="-1.619932">
        <ele>429.2</ele>
        <time>2020-08-12T19:37:18Z</time>
      </trkpt>
      <trkpt lat="42.828681" lon="-1.619863">
        <ele>429.2</ele>
        <time>2020-08-12T19:37:19Z</time>
      </trkpt>
      <trkpt lat="42.828756" lon="-1.619804">
        <ele>429.2</ele>
        <time>2020-08-12T19:37:20Z</time>
      </trkpt>
      <trkpt lat="42.828868" lon="-1.619808">
        <ele>429.2</ele>
        <time>2020-08-12T19:37:21Z</time>
      </trkpt>
      <trkpt lat="42.829008" lon="-1.619776">
        <ele>429.2</ele>
        <time>2020-08-12T19:37:22Z</time>
      </trkpt>
      <trkpt lat="42.829227" lon="-1.619672">
        <ele>430.2</ele>
        <time>2020-08-12T19:37:25Z</time>
      </trkpt>
      <trkpt lat="42.830241" lon="-1.619058">
        <ele>430.4</ele>
        <time>2020-08-12T19:37:36Z</time>
      </trkpt>
      <trkpt lat="42.830464" lon="-1.618879">
        <ele>430.4</ele>
        <time>2020-08-12T19:37:39Z</time>
      </trkpt>
      <trkpt lat="42.830656" lon="-1.618692">
        <ele>430.4</ele>
        <time>2020-08-12T19:37:41Z</time>
      </trkpt>
      <trkpt lat="42.830943" lon="-1.618316">
        <ele>430.6</ele>
        <time>2020-08-12T19:37:45Z</time>
      </trkpt>
      <trkpt lat="42.831019" lon="-1.618277">
        <ele>430.6</ele>
        <time>2020-08-12T19:37:46Z</time>
      </trkpt>
      <trkpt lat="42.831028" lon="-1.618115">
        <ele>430.6</ele>
        <time>2020-08-12T19:37:47Z</time>
      </trkpt>
      <trkpt lat="42.831112" lon="-1.617892">
        <ele>430.6</ele>
        <time>2020-08-12T19:37:49Z</time>
      </trkpt>
      <trkpt lat="42.831156" lon="-1.617835">
        <ele>430.6</ele>
        <time>2020-08-12T19:37:50Z</time>
      </trkpt>
      <trkpt lat="42.831278" lon="-1.61774">
        <ele>430.6</ele>
        <time>2020-08-12T19:37:51Z</time>
      </trkpt>
      <trkpt lat="42.831409" lon="-1.617705">
        <ele>430.6</ele>
        <time>2020-08-12T19:37:53Z</time>
      </trkpt>
      <trkpt lat="42.831843" lon="-1.616991">
        <ele>432.2</ele>
        <time>2020-08-12T19:38:00Z</time>
      </trkpt>
      <trkpt lat="42.832132" lon="-1.616401">
        <ele>432.4</ele>
        <time>2020-08-12T19:38:05Z</time>
      </trkpt>
      <trkpt lat="42.832148" lon="-1.616344">
        <ele>432.4</ele>
        <time>2020-08-12T19:38:05Z</time>
      </trkpt>
      <trkpt lat="42.83224" lon="-1.616214">
        <ele>432.4</ele>
        <time>2020-08-12T19:38:07Z</time>
      </trkpt>
      <trkpt lat="42.832332" lon="-1.616175">
        <ele>432.4</ele>
        <time>2020-08-12T19:38:08Z</time>
      </trkpt>
      <trkpt lat="42.832455" lon="-1.616206">
        <ele>432.4</ele>
        <time>2020-08-12T19:38:09Z</time>
      </trkpt>
      <trkpt lat="42.832539" lon="-1.616302">
        <ele>432.6</ele>
        <time>2020-08-12T19:38:10Z</time>
      </trkpt>
      <trkpt lat="42.833664" lon="-1.61707">
        <ele>433.2</ele>
        <time>2020-08-12T19:38:23Z</time>
      </trkpt>
      <trkpt lat="42.834076" lon="-1.617481">
        <ele>433.2</ele>
        <time>2020-08-12T19:38:28Z</time>
      </trkpt>
      <trkpt lat="42.834321" lon="-1.617595">
        <ele>433.0</ele>
        <time>2020-08-12T19:38:31Z</time>
      </trkpt>
      <trkpt lat="42.834412" lon="-1.617621">
        <ele>433.0</ele>
        <time>2020-08-12T19:38:32Z</time>
      </trkpt>
      <trkpt lat="42.834493" lon="-1.617681">
        <ele>433.0</ele>
        <time>2020-08-12T19:38:32Z</time>
      </trkpt>
      <trkpt lat="42.834734" lon="-1.617753">
        <ele>433.0</ele>
        <time>2020-08-12T19:38:34Z</time>
      </trkpt>
      <trkpt lat="42.835061" lon="-1.617837">
        <ele>432.8</ele>
        <time>2020-08-12T19:38:37Z</time>
      </trkpt>
      <trkpt lat="42.835695" lon="-1.617949">
        <ele>432.8</ele>
        <time>2020-08-12T19:38:42Z</time>
      </trkpt>
      <trkpt lat="42.836103" lon="-1.618059">
        <ele>438.6</ele>
        <time>2020-08-12T19:38:46Z</time>
      </trkpt>
      <trkpt lat="42.836544" lon="-1.618211">
        <ele>438.6</ele>
        <time>2020-08-12T19:38:50Z</time>
      </trkpt>
      <trkpt lat="42.843529" lon="-1.621868">
        <ele>449.4</ele>
        <time>2020-08-12T19:39:51Z</time>
      </trkpt>
      <trkpt lat="42.843863" lon="-1.622014">
        <ele>449.4</ele>
        <time>2020-08-12T19:39:54Z</time>
      </trkpt>
      <trkpt lat="42.843999" lon="-1.622035">
        <ele>449.4</ele>
        <time>2020-08-12T19:39:55Z</time>
      </trkpt>
      <trkpt lat="42.844285" lon="-1.621996">
        <ele>443.0</ele>
        <time>2020-08-12T19:39:59Z</time>
      </trkpt>
      <trkpt lat="42.844391" lon="-1.621859">
        <ele>443.0</ele>
        <time>2020-08-12T19:40:00Z</time>
      </trkpt>
      <trkpt lat="42.84446" lon="-1.621818">
        <ele>443.0</ele>
        <time>2020-08-12T19:40:01Z</time>
      </trkpt>
      <trkpt lat="42.844598" lon="-1.621803">
        <ele>443.0</ele>
        <time>2020-08-12T19:40:01Z</time>
      </trkpt>
      <trkpt lat="42.844654" lon="-1.621821">
        <ele>443.0</ele>
        <time>2020-08-12T19:40:02Z</time>
      </trkpt>
      <trkpt lat="42.844772" lon="-1.621916">
        <ele>443.0</ele>
        <time>2020-08-12T19:40:03Z</time>
      </trkpt>
      <trkpt lat="42.844847" lon="-1.622058">
        <ele>443.0</ele>
        <time>2020-08-12T19:40:04Z</time>
      </trkpt>
      <trkpt lat="42.844873" lon="-1.622181">
        <ele>443.0</ele>
        <time>2020-08-12T19:40:04Z</time>
      </trkpt>
      <trkpt lat="42.844857" lon="-1.622637">
        <ele>443.2</ele>
        <time>2020-08-12T19:40:06Z</time>
      </trkpt>
      <trkpt lat="42.84489" lon="-1.622934">
        <ele>443.2</ele>
        <time>2020-08-12T19:40:08Z</time>
      </trkpt>
      <trkpt lat="42.845085" lon="-1.623527">
        <ele>443.0</ele>
        <time>2020-08-12T19:40:11Z</time>
      </trkpt>
      <trkpt lat="42.845356" lon="-1.62413">
        <ele>443.0</ele>
        <time>2020-08-12T19:40:14Z</time>
      </trkpt>
      <trkpt lat="42.84563" lon="-1.624526">
        <ele>441.8</ele>
        <time>2020-08-12T19:40:17Z</time>
      </trkpt>
      <trkpt lat="42.845901" lon="-1.624809">
        <ele>441.8</ele>
        <time>2020-08-12T19:40:19Z</time>
      </trkpt>
      <trkpt lat="42.846217" lon="-1.625043">
        <ele>441.8</ele>
        <time>2020-08-12T19:40:22Z</time>
      </trkpt>
      <trkpt lat="42.846452" lon="-1.625178">
        <ele>441.8</ele>
        <time>2020-08-12T19:40:23Z</time>
      </trkpt>
      <trkpt lat="42.846648" lon="-1.625239">
        <ele>441.8</ele>
        <time>2020-08-12T19:40:25Z</time>
      </trkpt>
      <trkpt lat="42.847216" lon="-1.625317">
        <ele>443.0</ele>
        <time>2020-08-12T19:40:28Z</time>
      </trkpt>
      <trkpt lat="42.847539" lon="-1.625308">
        <ele>444.0</ele>
        <time>2020-08-12T19:40:30Z</time>
      </trkpt>
      <trkpt lat="42.84787" lon="-1.625258">
        <ele>444.0</ele>
        <time>2020-08-12T19:40:33Z</time>
      </trkpt>
      <trkpt lat="42.84818" lon="-1.62516">
        <ele>444.0</ele>
        <time>2020-08-12T19:40:35Z</time>
      </trkpt>
      <trkpt lat="42.848437" lon="-1.625037">
        <ele>444.6</ele>
        <time>2020-08-12T19:40:37Z</time>
      </trkpt>
      <trkpt lat="42.84874" lon="-1.624848">
        <ele>444.6</ele>
        <time>2020-08-12T19:40:39Z</time>
      </trkpt>
      <trkpt lat="42.848957" lon="-1.624688">
        <ele>444.6</ele>
        <time>2020-08-12T19:40:40Z</time>
      </trkpt>
      <trkpt lat="42.84997" lon="-1.623689">
        <ele>445.2</ele>
        <time>2020-08-12T19:40:49Z</time>
      </trkpt>
      <trkpt lat="42.85031" lon="-1.623387">
        <ele>445.4</ele>
        <time>2020-08-12T19:40:51Z</time>
      </trkpt>
      <trkpt lat="42.850669" lon="-1.623099">
        <ele>446.2</ele>
        <time>2020-08-12T19:40:54Z</time>
      </trkpt>
      <trkpt lat="42.851046" lon="-1.622869">
        <ele>447.2</ele>
        <time>2020-08-12T19:40:57Z</time>
      </trkpt>
      <trkpt lat="42.851367" lon="-1.622708">
        <ele>447.2</ele>
        <time>2020-08-12T19:40:59Z</time>
      </trkpt>
      <trkpt lat="42.853044" lon="-1.622048">
        <ele>452.2</ele>
        <time>2020-08-12T19:41:10Z</time>
      </trkpt>
      <trkpt lat="42.853332" lon="-1.621864">
        <ele>452.2</ele>
        <time>2020-08-12T19:41:12Z</time>
      </trkpt>
      <trkpt lat="42.853834" lon="-1.621456">
        <ele>459.2</ele>
        <time>2020-08-12T19:41:16Z</time>
      </trkpt>
      <trkpt lat="42.855907" lon="-1.619439">
        <ele>456.6</ele>
        <time>2020-08-12T19:41:33Z</time>
      </trkpt>
      <trkpt lat="42.859579" lon="-1.615754">
        <ele>458.2</ele>
        <time>2020-08-12T19:42:03Z</time>
      </trkpt>
      <trkpt lat="42.859964" lon="-1.615385">
        <ele>458.2</ele>
        <time>2020-08-12T19:42:06Z</time>
      </trkpt>
      <trkpt lat="42.861329" lon="-1.613914">
        <ele>459.8</ele>
        <time>2020-08-12T19:42:17Z</time>
      </trkpt>
      <trkpt lat="42.862538" lon="-1.612732">
        <ele>458.2</ele>
        <time>2020-08-12T19:42:27Z</time>
      </trkpt>
      <trkpt lat="42.862977" lon="-1.612421">
        <ele>464.2</ele>
        <time>2020-08-12T19:42:30Z</time>
      </trkpt>
      <trkpt lat="42.863411" lon="-1.61223">
        <ele>460.4</ele>
        <time>2020-08-12T19:42:33Z</time>
      </trkpt>
      <trkpt lat="42.863755" lon="-1.612166">
        <ele>460.4</ele>
        <time>2020-08-12T19:42:36Z</time>
      </trkpt>
      <trkpt lat="42.864367" lon="-1.61219">
        <ele>457.4</ele>
        <time>2020-08-12T19:42:40Z</time>
      </trkpt>
      <trkpt lat="42.864931" lon="-1.612267">
        <ele>457.4</ele>
        <time>2020-08-12T19:42:43Z</time>
      </trkpt>
      <trkpt lat="42.865357" lon="-1.612255">
        <ele>455.8</ele>
        <time>2020-08-12T19:42:46Z</time>
      </trkpt>
      <trkpt lat="42.865791" lon="-1.612183">
        <ele>455.8</ele>
        <time>2020-08-12T19:42:49Z</time>
      </trkpt>
      <trkpt lat="42.866226" lon="-1.612004">
        <ele>458.4</ele>
        <time>2020-08-12T19:42:52Z</time>
      </trkpt>
      <trkpt lat="42.869021" lon="-1.610669">
        <ele>460.6</ele>
        <time>2020-08-12T19:43:11Z</time>
      </trkpt>
      <trkpt lat="42.870254" lon="-1.609619">
        <ele>457.8</ele>
        <time>2020-08-12T19:43:21Z</time>
      </trkpt>
      <trkpt lat="42.870459" lon="-1.609509">
        <ele>457.8</ele>
        <time>2020-08-12T19:43:22Z</time>
      </trkpt>
      <trkpt lat="42.870652" lon="-1.609441">
        <ele>457.8</ele>
        <time>2020-08-12T19:43:24Z</time>
      </trkpt>
      <trkpt lat="42.870855" lon="-1.609383">
        <ele>458.0</ele>
        <time>2020-08-12T19:43:25Z</time>
      </trkpt>
      <trkpt lat="42.871155" lon="-1.609349">
        <ele>458.0</ele>
        <time>2020-08-12T19:43:27Z</time>
      </trkpt>
      <trkpt lat="42.871333" lon="-1.609302">
        <ele>458.0</ele>
        <time>2020-08-12T19:43:28Z</time>
      </trkpt>
      <trkpt lat="42.872789" lon="-1.609545">
        <ele>459.6</ele>
        <time>2020-08-12T19:43:38Z</time>
      </trkpt>
      <trkpt lat="42.873191" lon="-1.609574">
        <ele>459.6</ele>
        <time>2020-08-12T19:43:40Z</time>
      </trkpt>
      <trkpt lat="42.873549" lon="-1.609515">
        <ele>464.2</ele>
        <time>2020-08-12T19:43:43Z</time>
      </trkpt>
      <trkpt lat="42.873901" lon="-1.609407">
        <ele>464.2</ele>
        <time>2020-08-12T19:43:45Z</time>
      </trkpt>
      <trkpt lat="42.875715" lon="-1.608693">
        <ele>469.4</ele>
        <time>2020-08-12T19:43:58Z</time>
      </trkpt>
      <trkpt lat="42.878829" lon="-1.60782">
        <ele>466.0</ele>
        <time>2020-08-12T19:44:18Z</time>
      </trkpt>
      <trkpt lat="42.879242" lon="-1.607652">
        <ele>464.8</ele>
        <time>2020-08-12T19:44:21Z</time>
      </trkpt>
      <trkpt lat="42.882043" lon="-1.605952">
        <ele>465.6</ele>
        <time>2020-08-12T19:44:41Z</time>
      </trkpt>
      <trkpt lat="42.882967" lon="-1.605344">
        <ele>469.2</ele>
        <time>2020-08-12T19:44:48Z</time>
      </trkpt>
      <trkpt lat="42.884081" lon="-1.604532">
        <ele>472.6</ele>
        <time>2020-08-12T19:44:56Z</time>
      </trkpt>
      <trkpt lat="42.884597" lon="-1.604206">
        <ele>468.2</ele>
        <time>2020-08-12T19:45:00Z</time>
      </trkpt>
      <trkpt lat="42.88479" lon="-1.604138">
        <ele>473.6</ele>
        <time>2020-08-12T19:45:01Z</time>
      </trkpt>
      <trkpt lat="42.885058" lon="-1.604087">
        <ele>469.6</ele>
        <time>2020-08-12T19:45:03Z</time>
      </trkpt>
      <trkpt lat="42.885531" lon="-1.604048">
        <ele>469.6</ele>
        <time>2020-08-12T19:45:07Z</time>
      </trkpt>
      <trkpt lat="42.885531" lon="-1.604048">
        <ele>469.6</ele>
        <time>2020-08-12T19:45:07Z</time>
      </trkpt>
      <trkpt lat="42.886141" lon="-1.604168">
        <ele>464.8</ele>
        <time>2020-08-12T19:45:10Z</time>
      </trkpt>
      <trkpt lat="42.888974" lon="-1.605336">
        <ele>466.6</ele>
        <time>2020-08-12T19:45:25Z</time>
      </trkpt>
      <trkpt lat="42.891001" lon="-1.606295">
        <ele>470.2</ele>
        <time>2020-08-12T19:45:36Z</time>
      </trkpt>
      <trkpt lat="42.892342" lon="-1.607006">
        <ele>470.0</ele>
        <time>2020-08-12T19:45:43Z</time>
      </trkpt>
      <trkpt lat="42.893098" lon="-1.607452">
        <ele>472.8</ele>
        <time>2020-08-12T19:45:47Z</time>
      </trkpt>
      <trkpt lat="42.894087" lon="-1.60817">
        <ele>470.6</ele>
        <time>2020-08-12T19:45:53Z</time>
      </trkpt>
      <trkpt lat="42.895234" lon="-1.60894">
        <ele>473.4</ele>
        <time>2020-08-12T19:46:00Z</time>
      </trkpt>
      <trkpt lat="42.895865" lon="-1.609143">
        <ele>477.0</ele>
        <time>2020-08-12T19:46:03Z</time>
      </trkpt>
      <trkpt lat="42.896573" lon="-1.609151">
        <ele>477.0</ele>
        <time>2020-08-12T19:46:07Z</time>
      </trkpt>
      <trkpt lat="42.897363" lon="-1.609215">
        <ele>474.8</ele>
        <time>2020-08-12T19:46:11Z</time>
      </trkpt>
      <trkpt lat="42.89919" lon="-1.609627">
        <ele>480.2</ele>
        <time>2020-08-12T19:46:20Z</time>
      </trkpt>
      <trkpt lat="42.89945" lon="-1.609708">
        <ele>480.2</ele>
        <time>2020-08-12T19:46:21Z</time>
      </trkpt>
      <trkpt lat="42.899901" lon="-1.609936">
        <ele>480.2</ele>
        <time>2020-08-12T19:46:24Z</time>
      </trkpt>
      <trkpt lat="42.902391" lon="-1.611875">
        <ele>475.6</ele>
        <time>2020-08-12T19:46:39Z</time>
      </trkpt>
      <trkpt lat="42.90269" lon="-1.612069">
        <ele>477.4</ele>
        <time>2020-08-12T19:46:40Z</time>
      </trkpt>
      <trkpt lat="42.903033" lon="-1.612224">
        <ele>477.4</ele>
        <time>2020-08-12T19:46:42Z</time>
      </trkpt>
      <trkpt lat="42.903551" lon="-1.612294">
        <ele>479.2</ele>
        <time>2020-08-12T19:46:45Z</time>
      </trkpt>
      <trkpt lat="42.904584" lon="-1.612275">
        <ele>479.2</ele>
        <time>2020-08-12T19:46:50Z</time>
      </trkpt>
      <trkpt lat="42.905083" lon="-1.612218">
        <ele>480.6</ele>
        <time>2020-08-12T19:46:54Z</time>
      </trkpt>
      <trkpt lat="42.90537" lon="-1.612165">
        <ele>480.6</ele>
        <time>2020-08-12T19:46:56Z</time>
      </trkpt>
      <trkpt lat="42.905507" lon="-1.612175">
        <ele>480.6</ele>
        <time>2020-08-12T19:46:57Z</time>
      </trkpt>
      <trkpt lat="42.905695" lon="-1.612457">
        <ele>480.6</ele>
        <time>2020-08-12T19:46:59Z</time>
      </trkpt>
      <trkpt lat="42.905747" lon="-1.612454">
        <ele>480.6</ele>
        <time>2020-08-12T19:47:00Z</time>
      </trkpt>
      <trkpt lat="42.906455" lon="-1.612629">
        <ele>479.6</ele>
        <time>2020-08-12T19:47:04Z</time>
      </trkpt>
      <trkpt lat="42.906715" lon="-1.612637">
        <ele>478.2</ele>
        <time>2020-08-12T19:47:05Z</time>
      </trkpt>
      <trkpt lat="42.907833" lon="-1.612536">
        <ele>478.2</ele>
        <time>2020-08-12T19:47:11Z</time>
      </trkpt>
      <trkpt lat="42.908175" lon="-1.612451">
        <ele>484.6</ele>
        <time>2020-08-12T19:47:13Z</time>
      </trkpt>
      <trkpt lat="42.909006" lon="-1.612347">
        <ele>487.6</ele>
        <time>2020-08-12T19:47:18Z</time>
      </trkpt>
      <trkpt lat="42.909817" lon="-1.612433">
        <ele>494.6</ele>
        <time>2020-08-12T19:47:23Z</time>
      </trkpt>
      <trkpt lat="42.910359" lon="-1.612624">
        <ele>491.2</ele>
        <time>2020-08-12T19:47:26Z</time>
      </trkpt>
      <trkpt lat="42.910827" lon="-1.612821">
        <ele>491.2</ele>
        <time>2020-08-12T19:47:29Z</time>
      </trkpt>
      <trkpt lat="42.911187" lon="-1.613038">
        <ele>503.8</ele>
        <time>2020-08-12T19:47:31Z</time>
      </trkpt>
      <trkpt lat="42.911735" lon="-1.613447">
        <ele>506.0</ele>
        <time>2020-08-12T19:47:34Z</time>
      </trkpt>
      <trkpt lat="42.912855" lon="-1.614619">
        <ele>509.2</ele>
        <time>2020-08-12T19:47:42Z</time>
      </trkpt>
      <trkpt lat="42.913373" lon="-1.614974">
        <ele>516.2</ele>
        <time>2020-08-12T19:47:46Z</time>
      </trkpt>
      <trkpt lat="42.913778" lon="-1.615176">
        <ele>507.0</ele>
        <time>2020-08-12T19:47:48Z</time>
      </trkpt>
      <trkpt lat="42.914122" lon="-1.61529">
        <ele>507.0</ele>
        <time>2020-08-12T19:47:50Z</time>
      </trkpt>
      <trkpt lat="42.91484" lon="-1.615425">
        <ele>510.2</ele>
        <time>2020-08-12T19:47:54Z</time>
      </trkpt>
      <trkpt lat="42.915523" lon="-1.615467">
        <ele>514.2</ele>
        <time>2020-08-12T19:47:58Z</time>
      </trkpt>
      <trkpt lat="42.916512" lon="-1.615564">
        <ele>517.8</ele>
        <time>2020-08-12T19:48:03Z</time>
      </trkpt>
      <trkpt lat="42.916915" lon="-1.615662">
        <ele>520.4</ele>
        <time>2020-08-12T19:48:05Z</time>
      </trkpt>
      <trkpt lat="42.917407" lon="-1.615857">
        <ele>506.2</ele>
        <time>2020-08-12T19:48:08Z</time>
      </trkpt>
      <trkpt lat="42.917811" lon="-1.616053">
        <ele>505.8</ele>
        <time>2020-08-12T19:48:10Z</time>
      </trkpt>
      <trkpt lat="42.918702" lon="-1.616573">
        <ele>507.0</ele>
        <time>2020-08-12T19:48:16Z</time>
      </trkpt>
      <trkpt lat="42.91921" lon="-1.616815">
        <ele>498.6</ele>
        <time>2020-08-12T19:48:18Z</time>
      </trkpt>
      <trkpt lat="42.919479" lon="-1.616924">
        <ele>498.6</ele>
        <time>2020-08-12T19:48:20Z</time>
      </trkpt>
      <trkpt lat="42.92003" lon="-1.61702">
        <ele>505.6</ele>
        <time>2020-08-12T19:48:23Z</time>
      </trkpt>
      <trkpt lat="42.920447" lon="-1.617048">
        <ele>505.6</ele>
        <time>2020-08-12T19:48:25Z</time>
      </trkpt>
      <trkpt lat="42.920945" lon="-1.616998">
        <ele>507.2</ele>
        <time>2020-08-12T19:48:28Z</time>
      </trkpt>
      <trkpt lat="42.921393" lon="-1.6169">
        <ele>507.2</ele>
        <time>2020-08-12T19:48:30Z</time>
      </trkpt>
      <trkpt lat="42.921844" lon="-1.616689">
        <ele>505.2</ele>
        <time>2020-08-12T19:48:33Z</time>
      </trkpt>
      <trkpt lat="42.922348" lon="-1.616407">
        <ele>509.0</ele>
        <time>2020-08-12T19:48:35Z</time>
      </trkpt>
      <trkpt lat="42.922659" lon="-1.616168">
        <ele>504.2</ele>
        <time>2020-08-12T19:48:37Z</time>
      </trkpt>
      <trkpt lat="42.922965" lon="-1.615899">
        <ele>504.2</ele>
        <time>2020-08-12T19:48:39Z</time>
      </trkpt>
      <trkpt lat="42.92322" lon="-1.615633">
        <ele>500.8</ele>
        <time>2020-08-12T19:48:41Z</time>
      </trkpt>
      <trkpt lat="42.923734" lon="-1.614962">
        <ele>497.8</ele>
        <time>2020-08-12T19:48:45Z</time>
      </trkpt>
      <trkpt lat="42.924312" lon="-1.613794">
        <ele>503.6</ele>
        <time>2020-08-12T19:48:50Z</time>
      </trkpt>
      <trkpt lat="42.925658" lon="-1.611338">
        <ele>502.8</ele>
        <time>2020-08-12T19:49:02Z</time>
      </trkpt>
      <trkpt lat="42.926667" lon="-1.610242">
        <ele>515.6</ele>
        <time>2020-08-12T19:49:09Z</time>
      </trkpt>
      <trkpt lat="42.927373" lon="-1.609728">
        <ele>504.2</ele>
        <time>2020-08-12T19:49:13Z</time>
      </trkpt>
      <trkpt lat="42.928138" lon="-1.609353">
        <ele>509.0</ele>
        <time>2020-08-12T19:49:17Z</time>
      </trkpt>
      <trkpt lat="42.930126" lon="-1.608825">
        <ele>506.6</ele>
        <time>2020-08-12T19:49:28Z</time>
      </trkpt>
      <trkpt lat="42.933908" lon="-1.608015">
        <ele>515.4</ele>
        <time>2020-08-12T19:49:48Z</time>
      </trkpt>
      <trkpt lat="42.934896" lon="-1.607835">
        <ele>522.2</ele>
        <time>2020-08-12T19:49:53Z</time>
      </trkpt>
      <trkpt lat="42.935418" lon="-1.607788">
        <ele>526.2</ele>
        <time>2020-08-12T19:49:56Z</time>
      </trkpt>
      <trkpt lat="42.935999" lon="-1.607863">
        <ele>528.4</ele>
        <time>2020-08-12T19:49:59Z</time>
      </trkpt>
      <trkpt lat="42.936647" lon="-1.608039">
        <ele>528.4</ele>
        <time>2020-08-12T19:50:03Z</time>
      </trkpt>
      <trkpt lat="42.93859" lon="-1.608881">
        <ele>529.2</ele>
        <time>2020-08-12T19:50:13Z</time>
      </trkpt>
      <trkpt lat="42.940016" lon="-1.609306">
        <ele>535.0</ele>
        <time>2020-08-12T19:50:21Z</time>
      </trkpt>
      <trkpt lat="42.941545" lon="-1.609997">
        <ele>529.8</ele>
        <time>2020-08-12T19:50:30Z</time>
      </trkpt>
      <trkpt lat="42.942907" lon="-1.610765">
        <ele>533.4</ele>
        <time>2020-08-12T19:50:37Z</time>
      </trkpt>
      <trkpt lat="42.943426" lon="-1.61115">
        <ele>534.6</ele>
        <time>2020-08-12T19:50:41Z</time>
      </trkpt>
      <trkpt lat="42.944087" lon="-1.611832">
        <ele>554.2</ele>
        <time>2020-08-12T19:50:45Z</time>
      </trkpt>
      <trkpt lat="42.944969" lon="-1.612784">
        <ele>547.2</ele>
        <time>2020-08-12T19:50:51Z</time>
      </trkpt>
      <trkpt lat="42.945387" lon="-1.613287">
        <ele>532.6</ele>
        <time>2020-08-12T19:50:54Z</time>
      </trkpt>
      <trkpt lat="42.947605" lon="-1.615506">
        <ele>544.2</ele>
        <time>2020-08-12T19:51:08Z</time>
      </trkpt>
      <trkpt lat="42.948" lon="-1.615866">
        <ele>557.8</ele>
        <time>2020-08-12T19:51:11Z</time>
      </trkpt>
      <trkpt lat="42.948241" lon="-1.616055">
        <ele>557.8</ele>
        <time>2020-08-12T19:51:12Z</time>
      </trkpt>
      <trkpt lat="42.948605" lon="-1.616284">
        <ele>539.0</ele>
        <time>2020-08-12T19:51:15Z</time>
      </trkpt>
      <trkpt lat="42.948864" lon="-1.616418">
        <ele>539.0</ele>
        <time>2020-08-12T19:51:16Z</time>
      </trkpt>
      <trkpt lat="42.949172" lon="-1.616544">
        <ele>538.6</ele>
        <time>2020-08-12T19:51:18Z</time>
      </trkpt>
      <trkpt lat="42.949558" lon="-1.616645">
        <ele>538.6</ele>
        <time>2020-08-12T19:51:20Z</time>
      </trkpt>
      <trkpt lat="42.94989" lon="-1.61669">
        <ele>537.2</ele>
        <time>2020-08-12T19:51:22Z</time>
      </trkpt>
      <trkpt lat="42.950581" lon="-1.616675">
        <ele>536.0</ele>
        <time>2020-08-12T19:51:25Z</time>
      </trkpt>
      <trkpt lat="42.950977" lon="-1.61659">
        <ele>543.6</ele>
        <time>2020-08-12T19:51:27Z</time>
      </trkpt>
      <trkpt lat="42.951315" lon="-1.616475">
        <ele>543.6</ele>
        <time>2020-08-12T19:51:29Z</time>
      </trkpt>
      <trkpt lat="42.952405" lon="-1.615948">
        <ele>543.2</ele>
        <time>2020-08-12T19:51:35Z</time>
      </trkpt>
      <trkpt lat="42.952811" lon="-1.615788">
        <ele>552.6</ele>
        <time>2020-08-12T19:51:38Z</time>
      </trkpt>
      <trkpt lat="42.953448" lon="-1.615687">
        <ele>548.0</ele>
        <time>2020-08-12T19:51:41Z</time>
      </trkpt>
      <trkpt lat="42.95539" lon="-1.615712">
        <ele>545.2</ele>
        <time>2020-08-12T19:51:51Z</time>
      </trkpt>
      <trkpt lat="42.955697" lon="-1.615679">
        <ele>545.2</ele>
        <time>2020-08-12T19:51:53Z</time>
      </trkpt>
      <trkpt lat="42.956394" lon="-1.61553">
        <ele>545.0</ele>
        <time>2020-08-12T19:51:57Z</time>
      </trkpt>
      <trkpt lat="42.957856" lon="-1.615001">
        <ele>541.6</ele>
        <time>2020-08-12T19:52:05Z</time>
      </trkpt>
      <trkpt lat="42.958269" lon="-1.614917">
        <ele>548.6</ele>
        <time>2020-08-12T19:52:07Z</time>
      </trkpt>
      <trkpt lat="42.95916" lon="-1.614855">
        <ele>545.2</ele>
        <time>2020-08-12T19:52:12Z</time>
      </trkpt>
      <trkpt lat="42.960003" lon="-1.614948">
        <ele>546.8</ele>
        <time>2020-08-12T19:52:16Z</time>
      </trkpt>
      <trkpt lat="42.964288" lon="-1.616204">
        <ele>567.8</ele>
        <time>2020-08-12T19:52:39Z</time>
      </trkpt>
      <trkpt lat="42.965145" lon="-1.616486">
        <ele>572.4</ele>
        <time>2020-08-12T19:52:44Z</time>
      </trkpt>
      <trkpt lat="42.965605" lon="-1.61671">
        <ele>570.8</ele>
        <time>2020-08-12T19:52:46Z</time>
      </trkpt>
      <trkpt lat="42.966234" lon="-1.617189">
        <ele>572.0</ele>
        <time>2020-08-12T19:52:50Z</time>
      </trkpt>
      <trkpt lat="42.96689" lon="-1.617962">
        <ele>566.0</ele>
        <time>2020-08-12T19:52:55Z</time>
      </trkpt>
      <trkpt lat="42.968401" lon="-1.620372">
        <ele>560.0</ele>
        <time>2020-08-12T19:53:07Z</time>
      </trkpt>
      <trkpt lat="42.970352" lon="-1.623543">
        <ele>563.8</ele>
        <time>2020-08-12T19:53:23Z</time>
      </trkpt>
      <trkpt lat="42.970755" lon="-1.624116">
        <ele>563.8</ele>
        <time>2020-08-12T19:53:26Z</time>
      </trkpt>
      <trkpt lat="42.971153" lon="-1.624539">
        <ele>565.6</ele>
        <time>2020-08-12T19:53:29Z</time>
      </trkpt>
      <trkpt lat="42.971655" lon="-1.625018">
        <ele>564.4</ele>
        <time>2020-08-12T19:53:32Z</time>
      </trkpt>
      <trkpt lat="42.972523" lon="-1.625676">
        <ele>568.0</ele>
        <time>2020-08-12T19:53:37Z</time>
      </trkpt>
      <trkpt lat="42.97346" lon="-1.626356">
        <ele>570.6</ele>
        <time>2020-08-12T19:53:43Z</time>
      </trkpt>
      <trkpt lat="42.973871" lon="-1.626581">
        <ele>570.6</ele>
        <time>2020-08-12T19:53:45Z</time>
      </trkpt>
      <trkpt lat="42.975401" lon="-1.627308">
        <ele>574.0</ele>
        <time>2020-08-12T19:53:53Z</time>
      </trkpt>
      <trkpt lat="42.986217" lon="-1.632229">
        <ele>612.4</ele>
        <time>2020-08-12T19:54:54Z</time>
      </trkpt>
      <trkpt lat="42.98674" lon="-1.632392">
        <ele>619.0</ele>
        <time>2020-08-12T19:54:56Z</time>
      </trkpt>
      <trkpt lat="42.987282" lon="-1.632438">
        <ele>619.0</ele>
        <time>2020-08-12T19:54:59Z</time>
      </trkpt>
      <trkpt lat="42.987743" lon="-1.632401">
        <ele>626.0</ele>
        <time>2020-08-12T19:55:02Z</time>
      </trkpt>
      <trkpt lat="42.988229" lon="-1.632236">
        <ele>626.0</ele>
        <time>2020-08-12T19:55:04Z</time>
      </trkpt>
      <trkpt lat="42.988795" lon="-1.631922">
        <ele>627.4</ele>
        <time>2020-08-12T19:55:08Z</time>
      </trkpt>
      <trkpt lat="42.989356" lon="-1.631576">
        <ele>624.4</ele>
        <time>2020-08-12T19:55:11Z</time>
      </trkpt>
      <trkpt lat="42.989958" lon="-1.631371">
        <ele>624.4</ele>
        <time>2020-08-12T19:55:14Z</time>
      </trkpt>
      <trkpt lat="42.991242" lon="-1.631207">
        <ele>613.2</ele>
        <time>2020-08-12T19:55:21Z</time>
      </trkpt>
      <trkpt lat="42.991713" lon="-1.631232">
        <ele>608.4</ele>
        <time>2020-08-12T19:55:23Z</time>
      </trkpt>
      <trkpt lat="42.991952" lon="-1.63128">
        <ele>608.4</ele>
        <time>2020-08-12T19:55:25Z</time>
      </trkpt>
      <trkpt lat="42.992445" lon="-1.631452">
        <ele>608.4</ele>
        <time>2020-08-12T19:55:27Z</time>
      </trkpt>
      <trkpt lat="43.000872" lon="-1.635546">
        <ele>611.4</ele>
        <time>2020-08-12T19:56:14Z</time>
      </trkpt>
      <trkpt lat="43.001487" lon="-1.635714">
        <ele>611.4</ele>
        <time>2020-08-12T19:56:18Z</time>
      </trkpt>
      <trkpt lat="43.003177" lon="-1.635994">
        <ele>593.8</ele>
        <time>2020-08-12T19:56:27Z</time>
      </trkpt>
      <trkpt lat="43.00348" lon="-1.635993">
        <ele>595.0</ele>
        <time>2020-08-12T19:56:28Z</time>
      </trkpt>
      <trkpt lat="43.006969" lon="-1.635391">
        <ele>604.6</ele>
        <time>2020-08-12T19:56:47Z</time>
      </trkpt>
      <trkpt lat="43.007199" lon="-1.635422">
        <ele>604.6</ele>
        <time>2020-08-12T19:56:48Z</time>
      </trkpt>
      <trkpt lat="43.010973" lon="-1.63656">
        <ele>621.6</ele>
        <time>2020-08-12T19:57:08Z</time>
      </trkpt>
      <trkpt lat="43.011624" lon="-1.636685">
        <ele>626.8</ele>
        <time>2020-08-12T19:57:12Z</time>
      </trkpt>
      <trkpt lat="43.011969" lon="-1.636709">
        <ele>632.4</ele>
        <time>2020-08-12T19:57:14Z</time>
      </trkpt>
      <trkpt lat="43.01223" lon="-1.636692">
        <ele>632.4</ele>
        <time>2020-08-12T19:57:16Z</time>
      </trkpt>
      <trkpt lat="43.01223" lon="-1.636692">
        <ele>632.4</ele>
        <time>2020-08-12T19:57:16Z</time>
      </trkpt>
      <trkpt lat="43.01254" lon="-1.636641">
        <ele>635.2</ele>
        <time>2020-08-12T19:57:17Z</time>
      </trkpt>
      <trkpt lat="43.012813" lon="-1.636571">
        <ele>635.2</ele>
        <time>2020-08-12T19:57:19Z</time>
      </trkpt>
      <trkpt lat="43.018688" lon="-1.63493">
        <ele>665.8</ele>
        <time>2020-08-12T19:57:49Z</time>
      </trkpt>
      <trkpt lat="43.019306" lon="-1.634813">
        <ele>668.2</ele>
        <time>2020-08-12T19:57:53Z</time>
      </trkpt>
      <trkpt lat="43.02196" lon="-1.634483">
        <ele>672.2</ele>
        <time>2020-08-12T19:58:06Z</time>
      </trkpt>
      <trkpt lat="43.022405" lon="-1.63438">
        <ele>672.2</ele>
        <time>2020-08-12T19:58:09Z</time>
      </trkpt>
      <trkpt lat="43.022734" lon="-1.634274">
        <ele>673.4</ele>
        <time>2020-08-12T19:58:10Z</time>
      </trkpt>
      <trkpt lat="43.023208" lon="-1.634078">
        <ele>673.6</ele>
        <time>2020-08-12T19:58:13Z</time>
      </trkpt>
      <trkpt lat="43.023628" lon="-1.633857">
        <ele>681.0</ele>
        <time>2020-08-12T19:58:15Z</time>
      </trkpt>
      <trkpt lat="43.024215" lon="-1.633489">
        <ele>695.6</ele>
        <time>2020-08-12T19:58:19Z</time>
      </trkpt>
      <trkpt lat="43.02451" lon="-1.633252">
        <ele>688.6</ele>
        <time>2020-08-12T19:58:20Z</time>
      </trkpt>
      <trkpt lat="43.024814" lon="-1.632991">
        <ele>688.6</ele>
        <time>2020-08-12T19:58:22Z</time>
      </trkpt>
      <trkpt lat="43.025395" lon="-1.632422">
        <ele>696.6</ele>
        <time>2020-08-12T19:58:26Z</time>
      </trkpt>
      <trkpt lat="43.025725" lon="-1.632061">
        <ele>696.6</ele>
        <time>2020-08-12T19:58:28Z</time>
      </trkpt>
      <trkpt lat="43.02675" lon="-1.63086">
        <ele>723.0</ele>
        <time>2020-08-12T19:58:35Z</time>
      </trkpt>
      <trkpt lat="43.027718" lon="-1.629597">
        <ele>718.4</ele>
        <time>2020-08-12T19:58:42Z</time>
      </trkpt>
      <trkpt lat="43.028468" lon="-1.628795">
        <ele>728.0</ele>
        <time>2020-08-12T19:58:47Z</time>
      </trkpt>
      <trkpt lat="43.02897" lon="-1.628334">
        <ele>728.0</ele>
        <time>2020-08-12T19:58:50Z</time>
      </trkpt>
      <trkpt lat="43.051885" lon="-1.613633">
        <ele>762.2</ele>
        <time>2020-08-12T20:00:59Z</time>
      </trkpt>
      <trkpt lat="43.052027" lon="-1.613603">
        <ele>762.2</ele>
        <time>2020-08-12T20:01:00Z</time>
      </trkpt>
      <trkpt lat="43.052236" lon="-1.613663">
        <ele>762.2</ele>
        <time>2020-08-12T20:01:01Z</time>
      </trkpt>
      <trkpt lat="43.052861" lon="-1.6139">
        <ele>715.8</ele>
        <time>2020-08-12T20:01:05Z</time>
      </trkpt>
      <trkpt lat="43.053462" lon="-1.614176">
        <ele>680.2</ele>
        <time>2020-08-12T20:01:09Z</time>
      </trkpt>
      <trkpt lat="43.05422" lon="-1.614614">
        <ele>651.4</ele>
        <time>2020-08-12T20:01:13Z</time>
      </trkpt>
      <trkpt lat="43.054877" lon="-1.615046">
        <ele>658.6</ele>
        <time>2020-08-12T20:01:17Z</time>
      </trkpt>
      <trkpt lat="43.055663" lon="-1.615513">
        <ele>632.8</ele>
        <time>2020-08-12T20:01:21Z</time>
      </trkpt>
      <trkpt lat="43.056336" lon="-1.615939">
        <ele>615.4</ele>
        <time>2020-08-12T20:01:25Z</time>
      </trkpt>
      <trkpt lat="43.056713" lon="-1.616207">
        <ele>621.8</ele>
        <time>2020-08-12T20:01:27Z</time>
      </trkpt>
      <trkpt lat="43.057231" lon="-1.61662">
        <ele>621.8</ele>
        <time>2020-08-12T20:01:31Z</time>
      </trkpt>
      <trkpt lat="43.057594" lon="-1.616966">
        <ele>610.6</ele>
        <time>2020-08-12T20:01:33Z</time>
      </trkpt>
      <trkpt lat="43.058803" lon="-1.618247">
        <ele>597.6</ele>
        <time>2020-08-12T20:01:41Z</time>
      </trkpt>
      <trkpt lat="43.059134" lon="-1.618555">
        <ele>580.4</ele>
        <time>2020-08-12T20:01:43Z</time>
      </trkpt>
      <trkpt lat="43.059372" lon="-1.61874">
        <ele>584.0</ele>
        <time>2020-08-12T20:01:44Z</time>
      </trkpt>
      <trkpt lat="43.05969" lon="-1.618953">
        <ele>584.0</ele>
        <time>2020-08-12T20:01:46Z</time>
      </trkpt>
      <trkpt lat="43.060023" lon="-1.619121">
        <ele>599.2</ele>
        <time>2020-08-12T20:01:48Z</time>
      </trkpt>
      <trkpt lat="43.060336" lon="-1.619243">
        <ele>566.6</ele>
        <time>2020-08-12T20:01:50Z</time>
      </trkpt>
      <trkpt lat="43.060644" lon="-1.619336">
        <ele>566.6</ele>
        <time>2020-08-12T20:01:52Z</time>
      </trkpt>
      <trkpt lat="43.060976" lon="-1.619389">
        <ele>569.2</ele>
        <time>2020-08-12T20:01:54Z</time>
      </trkpt>
      <trkpt lat="43.061315" lon="-1.619408">
        <ele>569.2</ele>
        <time>2020-08-12T20:01:55Z</time>
      </trkpt>
      <trkpt lat="43.061731" lon="-1.619382">
        <ele>562.4</ele>
        <time>2020-08-12T20:01:58Z</time>
      </trkpt>
      <trkpt lat="43.062144" lon="-1.619297">
        <ele>562.4</ele>
        <time>2020-08-12T20:02:00Z</time>
      </trkpt>
      <trkpt lat="43.062689" lon="-1.61909">
        <ele>582.4</ele>
        <time>2020-08-12T20:02:03Z</time>
      </trkpt>
      <trkpt lat="43.063066" lon="-1.618887">
        <ele>582.4</ele>
        <time>2020-08-12T20:02:05Z</time>
      </trkpt>
      <trkpt lat="43.064087" lon="-1.618287">
        <ele>597.2</ele>
        <time>2020-08-12T20:02:10Z</time>
      </trkpt>
      <trkpt lat="43.064563" lon="-1.618066">
        <ele>566.0</ele>
        <time>2020-08-12T20:02:13Z</time>
      </trkpt>
      <trkpt lat="43.064868" lon="-1.61797">
        <ele>566.0</ele>
        <time>2020-08-12T20:02:15Z</time>
      </trkpt>
      <trkpt lat="43.065274" lon="-1.617879">
        <ele>538.2</ele>
        <time>2020-08-12T20:02:17Z</time>
      </trkpt>
      <trkpt lat="43.065636" lon="-1.617836">
        <ele>538.2</ele>
        <time>2020-08-12T20:02:19Z</time>
      </trkpt>
      <trkpt lat="43.066067" lon="-1.617835">
        <ele>526.8</ele>
        <time>2020-08-12T20:02:22Z</time>
      </trkpt>
      <trkpt lat="43.067474" lon="-1.617992">
        <ele>525.8</ele>
        <time>2020-08-12T20:02:29Z</time>
      </trkpt>
      <trkpt lat="43.068048" lon="-1.617973">
        <ele>526.8</ele>
        <time>2020-08-12T20:02:32Z</time>
      </trkpt>
      <trkpt lat="43.068332" lon="-1.617941">
        <ele>526.8</ele>
        <time>2020-08-12T20:02:33Z</time>
      </trkpt>
      <trkpt lat="43.068932" lon="-1.617814">
        <ele>519.2</ele>
        <time>2020-08-12T20:02:36Z</time>
      </trkpt>
      <trkpt lat="43.069151" lon="-1.617733">
        <ele>519.2</ele>
        <time>2020-08-12T20:02:38Z</time>
      </trkpt>
      <trkpt lat="43.069658" lon="-1.617486">
        <ele>543.6</ele>
        <time>2020-08-12T20:02:40Z</time>
      </trkpt>
      <trkpt lat="43.078791" lon="-1.609686">
        <ele>549.8</ele>
        <time>2020-08-12T20:03:36Z</time>
      </trkpt>
      <trkpt lat="43.079405" lon="-1.609132">
        <ele>525.4</ele>
        <time>2020-08-12T20:03:39Z</time>
      </trkpt>
      <trkpt lat="43.080743" lon="-1.60798">
        <ele>513.2</ele>
        <time>2020-08-12T20:03:48Z</time>
      </trkpt>
      <trkpt lat="43.081017" lon="-1.607764">
        <ele>505.6</ele>
        <time>2020-08-12T20:03:49Z</time>
      </trkpt>
      <trkpt lat="43.081527" lon="-1.607437">
        <ele>505.4</ele>
        <time>2020-08-12T20:03:52Z</time>
      </trkpt>
      <trkpt lat="43.081993" lon="-1.607214">
        <ele>498.0</ele>
        <time>2020-08-12T20:03:55Z</time>
      </trkpt>
      <trkpt lat="43.082301" lon="-1.607108">
        <ele>498.0</ele>
        <time>2020-08-12T20:03:56Z</time>
      </trkpt>
      <trkpt lat="43.082627" lon="-1.607014">
        <ele>487.0</ele>
        <time>2020-08-12T20:03:58Z</time>
      </trkpt>
      <trkpt lat="43.083305" lon="-1.606922">
        <ele>487.0</ele>
        <time>2020-08-12T20:04:02Z</time>
      </trkpt>
      <trkpt lat="43.083703" lon="-1.606916">
        <ele>477.0</ele>
        <time>2020-08-12T20:04:04Z</time>
      </trkpt>
      <trkpt lat="43.084325" lon="-1.606978">
        <ele>469.2</ele>
        <time>2020-08-12T20:04:07Z</time>
      </trkpt>
      <trkpt lat="43.085104" lon="-1.607086">
        <ele>463.0</ele>
        <time>2020-08-12T20:04:11Z</time>
      </trkpt>
      <trkpt lat="43.085657" lon="-1.607089">
        <ele>463.0</ele>
        <time>2020-08-12T20:04:14Z</time>
      </trkpt>
      <trkpt lat="43.085984" lon="-1.607046">
        <ele>453.4</ele>
        <time>2020-08-12T20:04:15Z</time>
      </trkpt>
      <trkpt lat="43.086244" lon="-1.606979">
        <ele>453.4</ele>
        <time>2020-08-12T20:04:17Z</time>
      </trkpt>
      <trkpt lat="43.086641" lon="-1.60683">
        <ele>453.4</ele>
        <time>2020-08-12T20:04:19Z</time>
      </trkpt>
      <trkpt lat="43.087059" lon="-1.606613">
        <ele>460.4</ele>
        <time>2020-08-12T20:04:21Z</time>
      </trkpt>
      <trkpt lat="43.087474" lon="-1.606324">
        <ele>460.4</ele>
        <time>2020-08-12T20:04:24Z</time>
      </trkpt>
      <trkpt lat="43.087821" lon="-1.606009">
        <ele>447.8</ele>
        <time>2020-08-12T20:04:26Z</time>
      </trkpt>
      <trkpt lat="43.088224" lon="-1.60553">
        <ele>463.8</ele>
        <time>2020-08-12T20:04:29Z</time>
      </trkpt>
      <trkpt lat="43.088466" lon="-1.605195">
        <ele>440.6</ele>
        <time>2020-08-12T20:04:31Z</time>
      </trkpt>
      <trkpt lat="43.088974" lon="-1.604339">
        <ele>452.6</ele>
        <time>2020-08-12T20:04:35Z</time>
      </trkpt>
      <trkpt lat="43.089448" lon="-1.603587">
        <ele>432.2</ele>
        <time>2020-08-12T20:04:39Z</time>
      </trkpt>
      <trkpt lat="43.089814" lon="-1.603125">
        <ele>445.0</ele>
        <time>2020-08-12T20:04:41Z</time>
      </trkpt>
      <trkpt lat="43.090111" lon="-1.602802">
        <ele>412.6</ele>
        <time>2020-08-12T20:04:44Z</time>
      </trkpt>
      <trkpt lat="43.090879" lon="-1.602054">
        <ele>401.0</ele>
        <time>2020-08-12T20:04:49Z</time>
      </trkpt>
      <trkpt lat="43.091155" lon="-1.601742">
        <ele>401.0</ele>
        <time>2020-08-12T20:04:50Z</time>
      </trkpt>
      <trkpt lat="43.091478" lon="-1.601271">
        <ele>416.4</ele>
        <time>2020-08-12T20:04:53Z</time>
      </trkpt>
      <trkpt lat="43.091719" lon="-1.600846">
        <ele>391.8</ele>
        <time>2020-08-12T20:04:55Z</time>
      </trkpt>
      <trkpt lat="43.091896" lon="-1.600481">
        <ele>400.4</ele>
        <time>2020-08-12T20:04:57Z</time>
      </trkpt>
      <trkpt lat="43.092058" lon="-1.600073">
        <ele>400.4</ele>
        <time>2020-08-12T20:04:59Z</time>
      </trkpt>
      <trkpt lat="43.092247" lon="-1.59946">
        <ele>402.0</ele>
        <time>2020-08-12T20:05:01Z</time>
      </trkpt>
      <trkpt lat="43.09252" lon="-1.598454">
        <ele>373.2</ele>
        <time>2020-08-12T20:05:05Z</time>
      </trkpt>
      <trkpt lat="43.092658" lon="-1.598033">
        <ele>375.0</ele>
        <time>2020-08-12T20:05:07Z</time>
      </trkpt>
      <trkpt lat="43.092788" lon="-1.597699">
        <ele>375.0</ele>
        <time>2020-08-12T20:05:08Z</time>
      </trkpt>
      <trkpt lat="43.093042" lon="-1.597196">
        <ele>381.6</ele>
        <time>2020-08-12T20:05:11Z</time>
      </trkpt>
      <trkpt lat="43.093337" lon="-1.596727">
        <ele>355.4</ele>
        <time>2020-08-12T20:05:13Z</time>
      </trkpt>
      <trkpt lat="43.093555" lon="-1.596442">
        <ele>356.4</ele>
        <time>2020-08-12T20:05:15Z</time>
      </trkpt>
      <trkpt lat="43.093981" lon="-1.595942">
        <ele>356.4</ele>
        <time>2020-08-12T20:05:18Z</time>
      </trkpt>
      <trkpt lat="43.094255" lon="-1.595689">
        <ele>322.4</ele>
        <time>2020-08-12T20:05:20Z</time>
      </trkpt>
      <trkpt lat="43.094473" lon="-1.595531">
        <ele>322.4</ele>
        <time>2020-08-12T20:05:21Z</time>
      </trkpt>
      <trkpt lat="43.094738" lon="-1.595371">
        <ele>322.4</ele>
        <time>2020-08-12T20:05:23Z</time>
      </trkpt>
      <trkpt lat="43.097062" lon="-1.594329">
        <ele>318.6</ele>
        <time>2020-08-12T20:05:35Z</time>
      </trkpt>
      <trkpt lat="43.097719" lon="-1.594069">
        <ele>336.2</ele>
        <time>2020-08-12T20:05:39Z</time>
      </trkpt>
      <trkpt lat="43.098288" lon="-1.593928">
        <ele>336.2</ele>
        <time>2020-08-12T20:05:42Z</time>
      </trkpt>
      <trkpt lat="43.098676" lon="-1.593863">
        <ele>316.6</ele>
        <time>2020-08-12T20:05:44Z</time>
      </trkpt>
      <trkpt lat="43.099249" lon="-1.593808">
        <ele>302.8</ele>
        <time>2020-08-12T20:05:47Z</time>
      </trkpt>
      <trkpt lat="43.100072" lon="-1.593773">
        <ele>298.4</ele>
        <time>2020-08-12T20:05:51Z</time>
      </trkpt>
      <trkpt lat="43.101055" lon="-1.593652">
        <ele>296.4</ele>
        <time>2020-08-12T20:05:56Z</time>
      </trkpt>
      <trkpt lat="43.103369" lon="-1.593145">
        <ele>293.8</ele>
        <time>2020-08-12T20:06:08Z</time>
      </trkpt>
      <trkpt lat="43.10408" lon="-1.593039">
        <ele>293.8</ele>
        <time>2020-08-12T20:06:12Z</time>
      </trkpt>
      <trkpt lat="43.104938" lon="-1.592967">
        <ele>285.0</ele>
        <time>2020-08-12T20:06:16Z</time>
      </trkpt>
      <trkpt lat="43.10596" lon="-1.592948">
        <ele>268.8</ele>
        <time>2020-08-12T20:06:22Z</time>
      </trkpt>
      <trkpt lat="43.106873" lon="-1.592998">
        <ele>264.8</ele>
        <time>2020-08-12T20:06:26Z</time>
      </trkpt>
      <trkpt lat="43.107437" lon="-1.593068">
        <ele>264.8</ele>
        <time>2020-08-12T20:06:29Z</time>
      </trkpt>
      <trkpt lat="43.108398" lon="-1.593248">
        <ele>255.0</ele>
        <time>2020-08-12T20:06:34Z</time>
      </trkpt>
      <trkpt lat="43.108717" lon="-1.593334">
        <ele>255.8</ele>
        <time>2020-08-12T20:06:36Z</time>
      </trkpt>
      <trkpt lat="43.109081" lon="-1.593464">
        <ele>255.8</ele>
        <time>2020-08-12T20:06:38Z</time>
      </trkpt>
      <trkpt lat="43.109327" lon="-1.593591">
        <ele>247.2</ele>
        <time>2020-08-12T20:06:39Z</time>
      </trkpt>
      <trkpt lat="43.110645" lon="-1.594389">
        <ele>244.2</ele>
        <time>2020-08-12T20:06:47Z</time>
      </trkpt>
      <trkpt lat="43.110959" lon="-1.594551">
        <ele>237.6</ele>
        <time>2020-08-12T20:06:48Z</time>
      </trkpt>
      <trkpt lat="43.111295" lon="-1.594681">
        <ele>237.6</ele>
        <time>2020-08-12T20:06:50Z</time>
      </trkpt>
      <trkpt lat="43.112267" lon="-1.594905">
        <ele>236.2</ele>
        <time>2020-08-12T20:06:55Z</time>
      </trkpt>
      <trkpt lat="43.112925" lon="-1.595015">
        <ele>232.2</ele>
        <time>2020-08-12T20:06:59Z</time>
      </trkpt>
      <trkpt lat="43.113489" lon="-1.595155">
        <ele>224.4</ele>
        <time>2020-08-12T20:07:02Z</time>
      </trkpt>
      <trkpt lat="43.114024" lon="-1.595358">
        <ele>224.4</ele>
        <time>2020-08-12T20:07:04Z</time>
      </trkpt>
      <trkpt lat="43.115076" lon="-1.595942">
        <ele>227.8</ele>
        <time>2020-08-12T20:07:10Z</time>
      </trkpt>
      <trkpt lat="43.115576" lon="-1.596193">
        <ele>227.8</ele>
        <time>2020-08-12T20:07:13Z</time>
      </trkpt>
      <trkpt lat="43.115917" lon="-1.596326">
        <ele>222.0</ele>
        <time>2020-08-12T20:07:15Z</time>
      </trkpt>
      <trkpt lat="43.116449" lon="-1.596439">
        <ele>222.0</ele>
        <time>2020-08-12T20:07:17Z</time>
      </trkpt>
      <trkpt lat="43.117001" lon="-1.596476">
        <ele>217.8</ele>
        <time>2020-08-12T20:07:20Z</time>
      </trkpt>
      <trkpt lat="43.117318" lon="-1.596458">
        <ele>217.8</ele>
        <time>2020-08-12T20:07:22Z</time>
      </trkpt>
      <trkpt lat="43.117615" lon="-1.596396">
        <ele>217.2</ele>
        <time>2020-08-12T20:07:23Z</time>
      </trkpt>
      <trkpt lat="43.11817" lon="-1.59623">
        <ele>217.2</ele>
        <time>2020-08-12T20:07:26Z</time>
      </trkpt>
      <trkpt lat="43.118748" lon="-1.595959">
        <ele>226.4</ele>
        <time>2020-08-12T20:07:30Z</time>
      </trkpt>
      <trkpt lat="43.121089" lon="-1.594508">
        <ele>215.4</ele>
        <time>2020-08-12T20:07:43Z</time>
      </trkpt>
      <trkpt lat="43.121649" lon="-1.594254">
        <ele>215.4</ele>
        <time>2020-08-12T20:07:46Z</time>
      </trkpt>
      <trkpt lat="43.122301" lon="-1.59409">
        <ele>219.6</ele>
        <time>2020-08-12T20:07:49Z</time>
      </trkpt>
      <trkpt lat="43.122865" lon="-1.594059">
        <ele>213.2</ele>
        <time>2020-08-12T20:07:52Z</time>
      </trkpt>
      <trkpt lat="43.123442" lon="-1.594131">
        <ele>213.1</ele>
        <time>2020-08-12T20:07:58Z</time>
      </trkpt>
      <trkpt lat="43.123442" lon="-1.594131">
        <ele>213.1</ele>
        <time>2020-08-12T20:07:58Z</time>
      </trkpt>
      <trkpt lat="43.125553" lon="-1.594733">
        <ele>202.8</ele>
        <time>2020-08-12T20:08:09Z</time>
      </trkpt>
      <trkpt lat="43.125907" lon="-1.594856">
        <ele>202.2</ele>
        <time>2020-08-12T20:08:11Z</time>
      </trkpt>
      <trkpt lat="43.126248" lon="-1.595007">
        <ele>210.0</ele>
        <time>2020-08-12T20:08:13Z</time>
      </trkpt>
      <trkpt lat="43.12646" lon="-1.595127">
        <ele>210.0</ele>
        <time>2020-08-12T20:08:14Z</time>
      </trkpt>
      <trkpt lat="43.127083" lon="-1.595547">
        <ele>208.0</ele>
        <time>2020-08-12T20:08:18Z</time>
      </trkpt>
      <trkpt lat="43.128734" lon="-1.596739">
        <ele>205.6</ele>
        <time>2020-08-12T20:08:27Z</time>
      </trkpt>
      <trkpt lat="43.12903" lon="-1.596975">
        <ele>205.6</ele>
        <time>2020-08-12T20:08:29Z</time>
      </trkpt>
      <trkpt lat="43.129358" lon="-1.597293">
        <ele>199.2</ele>
        <time>2020-08-12T20:08:31Z</time>
      </trkpt>
      <trkpt lat="43.129899" lon="-1.597913">
        <ele>200.6</ele>
        <time>2020-08-12T20:08:35Z</time>
      </trkpt>
      <trkpt lat="43.130239" lon="-1.598394">
        <ele>194.0</ele>
        <time>2020-08-12T20:08:37Z</time>
      </trkpt>
      <trkpt lat="43.130581" lon="-1.598979">
        <ele>194.0</ele>
        <time>2020-08-12T20:08:40Z</time>
      </trkpt>
      <trkpt lat="43.130844" lon="-1.599494">
        <ele>191.0</ele>
        <time>2020-08-12T20:08:43Z</time>
      </trkpt>
      <trkpt lat="43.131656" lon="-1.601226">
        <ele>206.6</ele>
        <time>2020-08-12T20:08:50Z</time>
      </trkpt>
      <trkpt lat="43.131925" lon="-1.601873">
        <ele>190.8</ele>
        <time>2020-08-12T20:08:53Z</time>
      </trkpt>
      <trkpt lat="43.132146" lon="-1.602577">
        <ele>190.2</ele>
        <time>2020-08-12T20:08:56Z</time>
      </trkpt>
      <trkpt lat="43.132252" lon="-1.603026">
        <ele>190.2</ele>
        <time>2020-08-12T20:08:58Z</time>
      </trkpt>
      <trkpt lat="43.132329" lon="-1.603439">
        <ele>186.8</ele>
        <time>2020-08-12T20:08:59Z</time>
      </trkpt>
      <trkpt lat="43.132405" lon="-1.604171">
        <ele>185.0</ele>
        <time>2020-08-12T20:09:02Z</time>
      </trkpt>
      <trkpt lat="43.132426" lon="-1.604871">
        <ele>185.0</ele>
        <time>2020-08-12T20:09:05Z</time>
      </trkpt>
      <trkpt lat="43.132429" lon="-1.605471">
        <ele>182.4</ele>
        <time>2020-08-12T20:09:07Z</time>
      </trkpt>
      <trkpt lat="43.132464" lon="-1.606047">
        <ele>177.4</ele>
        <time>2020-08-12T20:09:09Z</time>
      </trkpt>
      <trkpt lat="43.13252" lon="-1.606502">
        <ele>172.8</ele>
        <time>2020-08-12T20:09:11Z</time>
      </trkpt>
      <trkpt lat="43.132661" lon="-1.607244">
        <ele>166.0</ele>
        <time>2020-08-12T20:09:14Z</time>
      </trkpt>
      <trkpt lat="43.132759" lon="-1.607651">
        <ele>164.8</ele>
        <time>2020-08-12T20:09:15Z</time>
      </trkpt>
      <trkpt lat="43.132895" lon="-1.608083">
        <ele>164.8</ele>
        <time>2020-08-12T20:09:17Z</time>
      </trkpt>
      <trkpt lat="43.133336" lon="-1.60913">
        <ele>165.6</ele>
        <time>2020-08-12T20:09:22Z</time>
      </trkpt>
      <trkpt lat="43.134069" lon="-1.610461">
        <ele>191.8</ele>
        <time>2020-08-12T20:09:28Z</time>
      </trkpt>
      <trkpt lat="43.134445" lon="-1.611259">
        <ele>188.8</ele>
        <time>2020-08-12T20:09:32Z</time>
      </trkpt>
      <trkpt lat="43.135113" lon="-1.612543">
        <ele>201.8</ele>
        <time>2020-08-12T20:09:37Z</time>
      </trkpt>
      <trkpt lat="43.135293" lon="-1.612966">
        <ele>201.8</ele>
        <time>2020-08-12T20:09:39Z</time>
      </trkpt>
      <trkpt lat="43.135464" lon="-1.613457">
        <ele>210.8</ele>
        <time>2020-08-12T20:09:41Z</time>
      </trkpt>
      <trkpt lat="43.135686" lon="-1.614555">
        <ele>218.4</ele>
        <time>2020-08-12T20:09:46Z</time>
      </trkpt>
      <trkpt lat="43.135732" lon="-1.614923">
        <ele>218.4</ele>
        <time>2020-08-12T20:09:47Z</time>
      </trkpt>
      <trkpt lat="43.135744" lon="-1.615398">
        <ele>220.4</ele>
        <time>2020-08-12T20:09:49Z</time>
      </trkpt>
      <trkpt lat="43.135718" lon="-1.61604">
        <ele>214.6</ele>
        <time>2020-08-12T20:09:51Z</time>
      </trkpt>
      <trkpt lat="43.135678" lon="-1.616569">
        <ele>214.6</ele>
        <time>2020-08-12T20:09:53Z</time>
      </trkpt>
      <trkpt lat="43.135603" lon="-1.617194">
        <ele>198.0</ele>
        <time>2020-08-12T20:09:56Z</time>
      </trkpt>
      <trkpt lat="43.135531" lon="-1.617711">
        <ele>177.2</ele>
        <time>2020-08-12T20:09:58Z</time>
      </trkpt>
      <trkpt lat="43.135482" lon="-1.617939">
        <ele>177.2</ele>
        <time>2020-08-12T20:09:59Z</time>
      </trkpt>
      <trkpt lat="43.1354" lon="-1.618282">
        <ele>177.2</ele>
        <time>2020-08-12T20:10:00Z</time>
      </trkpt>
      <trkpt lat="43.135232" lon="-1.618826">
        <ele>160.2</ele>
        <time>2020-08-12T20:10:02Z</time>
      </trkpt>
      <trkpt lat="43.135094" lon="-1.619174">
        <ele>148.8</ele>
        <time>2020-08-12T20:10:04Z</time>
      </trkpt>
      <trkpt lat="43.13492" lon="-1.619552">
        <ele>164.2</ele>
        <time>2020-08-12T20:10:06Z</time>
      </trkpt>
      <trkpt lat="43.13475" lon="-1.619855">
        <ele>164.2</ele>
        <time>2020-08-12T20:10:07Z</time>
      </trkpt>
      <trkpt lat="43.134486" lon="-1.62026">
        <ele>150.8</ele>
        <time>2020-08-12T20:10:09Z</time>
      </trkpt>
      <trkpt lat="43.134192" lon="-1.620626">
        <ele>150.8</ele>
        <time>2020-08-12T20:10:11Z</time>
      </trkpt>
      <trkpt lat="43.13331" lon="-1.621592">
        <ele>173.4</ele>
        <time>2020-08-12T20:10:17Z</time>
      </trkpt>
      <trkpt lat="43.133017" lon="-1.621957">
        <ele>161.4</ele>
        <time>2020-08-12T20:10:19Z</time>
      </trkpt>
      <trkpt lat="43.132679" lon="-1.622392">
        <ele>161.4</ele>
        <time>2020-08-12T20:10:22Z</time>
      </trkpt>
      <trkpt lat="43.132057" lon="-1.623316">
        <ele>166.8</ele>
        <time>2020-08-12T20:10:26Z</time>
      </trkpt>
      <trkpt lat="43.131788" lon="-1.623792">
        <ele>155.2</ele>
        <time>2020-08-12T20:10:29Z</time>
      </trkpt>
      <trkpt lat="43.13127" lon="-1.624873">
        <ele>160.4</ele>
        <time>2020-08-12T20:10:34Z</time>
      </trkpt>
      <trkpt lat="43.130987" lon="-1.625603">
        <ele>154.8</ele>
        <time>2020-08-12T20:10:37Z</time>
      </trkpt>
      <trkpt lat="43.130823" lon="-1.62608">
        <ele>176.0</ele>
        <time>2020-08-12T20:10:39Z</time>
      </trkpt>
      <trkpt lat="43.130565" lon="-1.626988">
        <ele>177.0</ele>
        <time>2020-08-12T20:10:43Z</time>
      </trkpt>
      <trkpt lat="43.130384" lon="-1.62806">
        <ele>173.8</ele>
        <time>2020-08-12T20:10:47Z</time>
      </trkpt>
      <trkpt lat="43.130331" lon="-1.62873">
        <ele>167.2</ele>
        <time>2020-08-12T20:10:49Z</time>
      </trkpt>
      <trkpt lat="43.130313" lon="-1.629189">
        <ele>161.8</ele>
        <time>2020-08-12T20:10:51Z</time>
      </trkpt>
      <trkpt lat="43.130286" lon="-1.633734">
        <ele>158.0</ele>
        <time>2020-08-12T20:11:08Z</time>
      </trkpt>
      <trkpt lat="43.130299" lon="-1.634858">
        <ele>160.6</ele>
        <time>2020-08-12T20:11:12Z</time>
      </trkpt>
      <trkpt lat="43.130328" lon="-1.635342">
        <ele>162.8</ele>
        <time>2020-08-12T20:11:14Z</time>
      </trkpt>
      <trkpt lat="43.130395" lon="-1.635895">
        <ele>161.4</ele>
        <time>2020-08-12T20:11:16Z</time>
      </trkpt>
      <trkpt lat="43.130495" lon="-1.636453">
        <ele>161.4</ele>
        <time>2020-08-12T20:11:18Z</time>
      </trkpt>
      <trkpt lat="43.130613" lon="-1.636965">
        <ele>156.8</ele>
        <time>2020-08-12T20:11:20Z</time>
      </trkpt>
      <trkpt lat="43.130739" lon="-1.637415">
        <ele>156.8</ele>
        <time>2020-08-12T20:11:22Z</time>
      </trkpt>
      <trkpt lat="43.130903" lon="-1.637872">
        <ele>134.6</ele>
        <time>2020-08-12T20:11:24Z</time>
      </trkpt>
      <trkpt lat="43.131199" lon="-1.638604">
        <ele>132.4</ele>
        <time>2020-08-12T20:11:27Z</time>
      </trkpt>
      <trkpt lat="43.131471" lon="-1.639216">
        <ele>131.0</ele>
        <time>2020-08-12T20:11:30Z</time>
      </trkpt>
      <trkpt lat="43.13271" lon="-1.641818">
        <ele>136.6</ele>
        <time>2020-08-12T20:11:41Z</time>
      </trkpt>
      <trkpt lat="43.132927" lon="-1.642286">
        <ele>136.6</ele>
        <time>2020-08-12T20:11:44Z</time>
      </trkpt>
      <trkpt lat="43.133067" lon="-1.642645">
        <ele>136.6</ele>
        <time>2020-08-12T20:11:45Z</time>
      </trkpt>
      <trkpt lat="43.133212" lon="-1.643078">
        <ele>136.6</ele>
        <time>2020-08-12T20:11:47Z</time>
      </trkpt>
      <trkpt lat="43.13332" lon="-1.643462">
        <ele>137.0</ele>
        <time>2020-08-12T20:11:48Z</time>
      </trkpt>
      <trkpt lat="43.133384" lon="-1.643761">
        <ele>151.2</ele>
        <time>2020-08-12T20:11:50Z</time>
      </trkpt>
      <trkpt lat="43.133453" lon="-1.644129">
        <ele>151.2</ele>
        <time>2020-08-12T20:11:51Z</time>
      </trkpt>
      <trkpt lat="43.133541" lon="-1.644894">
        <ele>150.4</ele>
        <time>2020-08-12T20:11:54Z</time>
      </trkpt>
      <trkpt lat="43.133554" lon="-1.645423">
        <ele>149.0</ele>
        <time>2020-08-12T20:11:56Z</time>
      </trkpt>
      <trkpt lat="43.133508" lon="-1.646326">
        <ele>151.4</ele>
        <time>2020-08-12T20:11:59Z</time>
      </trkpt>
      <trkpt lat="43.133385" lon="-1.647097">
        <ele>155.8</ele>
        <time>2020-08-12T20:12:02Z</time>
      </trkpt>
      <trkpt lat="43.133287" lon="-1.647515">
        <ele>141.6</ele>
        <time>2020-08-12T20:12:04Z</time>
      </trkpt>
      <trkpt lat="43.133132" lon="-1.648029">
        <ele>141.6</ele>
        <time>2020-08-12T20:12:06Z</time>
      </trkpt>
      <trkpt lat="43.132539" lon="-1.649839">
        <ele>154.4</ele>
        <time>2020-08-12T20:12:14Z</time>
      </trkpt>
      <trkpt lat="43.132423" lon="-1.650334">
        <ele>143.6</ele>
        <time>2020-08-12T20:12:16Z</time>
      </trkpt>
      <trkpt lat="43.132355" lon="-1.650706">
        <ele>143.6</ele>
        <time>2020-08-12T20:12:17Z</time>
      </trkpt>
      <trkpt lat="43.132248" lon="-1.65154">
        <ele>147.4</ele>
        <time>2020-08-12T20:12:20Z</time>
      </trkpt>
      <trkpt lat="43.13223" lon="-1.65186">
        <ele>147.6</ele>
        <time>2020-08-12T20:12:21Z</time>
      </trkpt>
      <trkpt lat="43.132228" lon="-1.652563">
        <ele>146.0</ele>
        <time>2020-08-12T20:12:24Z</time>
      </trkpt>
      <trkpt lat="43.132251" lon="-1.653179">
        <ele>146.0</ele>
        <time>2020-08-12T20:12:26Z</time>
      </trkpt>
      <trkpt lat="43.132371" lon="-1.654642">
        <ele>140.6</ele>
        <time>2020-08-12T20:12:32Z</time>
      </trkpt>
      <trkpt lat="43.132483" lon="-1.655729">
        <ele>139.8</ele>
        <time>2020-08-12T20:12:36Z</time>
      </trkpt>
      <trkpt lat="43.132578" lon="-1.656249">
        <ele>156.0</ele>
        <time>2020-08-12T20:12:38Z</time>
      </trkpt>
      <trkpt lat="43.132689" lon="-1.656684">
        <ele>152.6</ele>
        <time>2020-08-12T20:12:40Z</time>
      </trkpt>
      <trkpt lat="43.132792" lon="-1.657015">
        <ele>152.6</ele>
        <time>2020-08-12T20:12:41Z</time>
      </trkpt>
      <trkpt lat="43.133355" lon="-1.658675">
        <ele>157.6</ele>
        <time>2020-08-12T20:12:48Z</time>
      </trkpt>
      <trkpt lat="43.134506" lon="-1.662031">
        <ele>141.6</ele>
        <time>2020-08-12T20:13:02Z</time>
      </trkpt>
      <trkpt lat="43.134701" lon="-1.662498">
        <ele>141.6</ele>
        <time>2020-08-12T20:13:04Z</time>
      </trkpt>
      <trkpt lat="43.134861" lon="-1.662802">
        <ele>133.8</ele>
        <time>2020-08-12T20:13:05Z</time>
      </trkpt>
      <trkpt lat="43.135041" lon="-1.663096">
        <ele>154.2</ele>
        <time>2020-08-12T20:13:07Z</time>
      </trkpt>
      <trkpt lat="43.135315" lon="-1.663465">
        <ele>137.6</ele>
        <time>2020-08-12T20:13:09Z</time>
      </trkpt>
      <trkpt lat="43.135586" lon="-1.663764">
        <ele>137.6</ele>
        <time>2020-08-12T20:13:11Z</time>
      </trkpt>
      <trkpt lat="43.135911" lon="-1.664031">
        <ele>142.4</ele>
        <time>2020-08-12T20:13:13Z</time>
      </trkpt>
      <trkpt lat="43.135911" lon="-1.664031">
        <ele>142.4</ele>
        <time>2020-08-12T20:13:13Z</time>
      </trkpt>
      <trkpt lat="43.136169" lon="-1.664211">
        <ele>131.2</ele>
        <time>2020-08-12T20:13:15Z</time>
      </trkpt>
      <trkpt lat="43.136524" lon="-1.664389">
        <ele>131.2</ele>
        <time>2020-08-12T20:13:17Z</time>
      </trkpt>
      <trkpt lat="43.137017" lon="-1.664545">
        <ele>135.6</ele>
        <time>2020-08-12T20:13:20Z</time>
      </trkpt>
      <trkpt lat="43.137201" lon="-1.664584">
        <ele>135.6</ele>
        <time>2020-08-12T20:13:20Z</time>
      </trkpt>
      <trkpt lat="43.138138" lon="-1.664658">
        <ele>137.8</ele>
        <time>2020-08-12T20:13:25Z</time>
      </trkpt>
      <trkpt lat="43.138484" lon="-1.664714">
        <ele>141.4</ele>
        <time>2020-08-12T20:13:27Z</time>
      </trkpt>
      <trkpt lat="43.138921" lon="-1.66485">
        <ele>141.4</ele>
        <time>2020-08-12T20:13:29Z</time>
      </trkpt>
      <trkpt lat="43.139432" lon="-1.665168">
        <ele>141.6</ele>
        <time>2020-08-12T20:13:32Z</time>
      </trkpt>
      <trkpt lat="43.139953" lon="-1.665547">
        <ele>141.6</ele>
        <time>2020-08-12T20:13:35Z</time>
      </trkpt>
      <trkpt lat="43.140299" lon="-1.665738">
        <ele>142.2</ele>
        <time>2020-08-12T20:13:37Z</time>
      </trkpt>
      <trkpt lat="43.140494" lon="-1.665817">
        <ele>142.2</ele>
        <time>2020-08-12T20:13:38Z</time>
      </trkpt>
      <trkpt lat="43.141671" lon="-1.666063">
        <ele>144.8</ele>
        <time>2020-08-12T20:13:44Z</time>
      </trkpt>
      <trkpt lat="43.142023" lon="-1.666177">
        <ele>144.8</ele>
        <time>2020-08-12T20:13:46Z</time>
      </trkpt>
      <trkpt lat="43.142701" lon="-1.666493">
        <ele>144.4</ele>
        <time>2020-08-12T20:13:50Z</time>
      </trkpt>
      <trkpt lat="43.144051" lon="-1.667265">
        <ele>139.6</ele>
        <time>2020-08-12T20:13:57Z</time>
      </trkpt>
      <trkpt lat="43.14453" lon="-1.667487">
        <ele>135.2</ele>
        <time>2020-08-12T20:14:00Z</time>
      </trkpt>
      <trkpt lat="43.144792" lon="-1.667554">
        <ele>139.4</ele>
        <time>2020-08-12T20:14:01Z</time>
      </trkpt>
      <trkpt lat="43.145063" lon="-1.667593">
        <ele>128.2</ele>
        <time>2020-08-12T20:14:03Z</time>
      </trkpt>
      <trkpt lat="43.145313" lon="-1.667591">
        <ele>128.2</ele>
        <time>2020-08-12T20:14:04Z</time>
      </trkpt>
      <trkpt lat="43.145597" lon="-1.667554">
        <ele>128.2</ele>
        <time>2020-08-12T20:14:05Z</time>
      </trkpt>
      <trkpt lat="43.146307" lon="-1.667345">
        <ele>133.8</ele>
        <time>2020-08-12T20:14:09Z</time>
      </trkpt>
      <trkpt lat="43.146615" lon="-1.667293">
        <ele>133.8</ele>
        <time>2020-08-12T20:14:11Z</time>
      </trkpt>
      <trkpt lat="43.146847" lon="-1.667289">
        <ele>129.0</ele>
        <time>2020-08-12T20:14:12Z</time>
      </trkpt>
      <trkpt lat="43.147346" lon="-1.667389">
        <ele>129.0</ele>
        <time>2020-08-12T20:14:15Z</time>
      </trkpt>
      <trkpt lat="43.148796" lon="-1.667896">
        <ele>118.2</ele>
        <time>2020-08-12T20:14:22Z</time>
      </trkpt>
      <trkpt lat="43.149087" lon="-1.667948">
        <ele>118.2</ele>
        <time>2020-08-12T20:14:24Z</time>
      </trkpt>
      <trkpt lat="43.149383" lon="-1.66797">
        <ele>119.8</ele>
        <time>2020-08-12T20:14:25Z</time>
      </trkpt>
      <trkpt lat="43.14999" lon="-1.667973">
        <ele>119.8</ele>
        <time>2020-08-12T20:14:28Z</time>
      </trkpt>
      <trkpt lat="43.150361" lon="-1.668005">
        <ele>122.8</ele>
        <time>2020-08-12T20:14:30Z</time>
      </trkpt>
      <trkpt lat="43.150649" lon="-1.668064">
        <ele>122.8</ele>
        <time>2020-08-12T20:14:32Z</time>
      </trkpt>
      <trkpt lat="43.151264" lon="-1.668224">
        <ele>121.8</ele>
        <time>2020-08-12T20:14:35Z</time>
      </trkpt>
      <trkpt lat="43.152584" lon="-1.668615">
        <ele>117.4</ele>
        <time>2020-08-12T20:14:42Z</time>
      </trkpt>
      <trkpt lat="43.153393" lon="-1.66889">
        <ele>114.0</ele>
        <time>2020-08-12T20:14:46Z</time>
      </trkpt>
      <trkpt lat="43.157839" lon="-1.670582">
        <ele>109.4</ele>
        <time>2020-08-12T20:15:10Z</time>
      </trkpt>
      <trkpt lat="43.158305" lon="-1.670704">
        <ele>109.4</ele>
        <time>2020-08-12T20:15:13Z</time>
      </trkpt>
      <trkpt lat="43.158558" lon="-1.670742">
        <ele>109.4</ele>
        <time>2020-08-12T20:15:14Z</time>
      </trkpt>
      <trkpt lat="43.158991" lon="-1.670753">
        <ele>109.4</ele>
        <time>2020-08-12T20:15:16Z</time>
      </trkpt>
      <trkpt lat="43.159359" lon="-1.670702">
        <ele>107.4</ele>
        <time>2020-08-12T20:15:18Z</time>
      </trkpt>
      <trkpt lat="43.159817" lon="-1.670585">
        <ele>107.4</ele>
        <time>2020-08-12T20:15:21Z</time>
      </trkpt>
      <trkpt lat="43.160056" lon="-1.67049">
        <ele>107.0</ele>
        <time>2020-08-12T20:15:22Z</time>
      </trkpt>
      <trkpt lat="43.160442" lon="-1.670276">
        <ele>107.0</ele>
        <time>2020-08-12T20:15:24Z</time>
      </trkpt>
      <trkpt lat="43.160797" lon="-1.670014">
        <ele>107.0</ele>
        <time>2020-08-12T20:15:26Z</time>
      </trkpt>
      <trkpt lat="43.161278" lon="-1.669556">
        <ele>107.8</ele>
        <time>2020-08-12T20:15:29Z</time>
      </trkpt>
      <trkpt lat="43.162123" lon="-1.668547">
        <ele>111.8</ele>
        <time>2020-08-12T20:15:35Z</time>
      </trkpt>
      <trkpt lat="43.162699" lon="-1.667993">
        <ele>115.8</ele>
        <time>2020-08-12T20:15:38Z</time>
      </trkpt>
      <trkpt lat="43.163089" lon="-1.667735">
        <ele>115.8</ele>
        <time>2020-08-12T20:15:41Z</time>
      </trkpt>
      <trkpt lat="43.163374" lon="-1.667582">
        <ele>112.4</ele>
        <time>2020-08-12T20:15:42Z</time>
      </trkpt>
      <trkpt lat="43.163745" lon="-1.667442">
        <ele>124.4</ele>
        <time>2020-08-12T20:15:44Z</time>
      </trkpt>
      <trkpt lat="43.164113" lon="-1.667362">
        <ele>124.4</ele>
        <time>2020-08-12T20:15:46Z</time>
      </trkpt>
      <trkpt lat="43.164432" lon="-1.667328">
        <ele>118.8</ele>
        <time>2020-08-12T20:15:48Z</time>
      </trkpt>
      <trkpt lat="43.164676" lon="-1.667326">
        <ele>118.8</ele>
        <time>2020-08-12T20:15:49Z</time>
      </trkpt>
      <trkpt lat="43.165024" lon="-1.667381">
        <ele>126.6</ele>
        <time>2020-08-12T20:15:51Z</time>
      </trkpt>
      <trkpt lat="43.165833" lon="-1.667599">
        <ele>118.2</ele>
        <time>2020-08-12T20:15:55Z</time>
      </trkpt>
      <trkpt lat="43.171504" lon="-1.669548">
        <ele>131.8</ele>
        <time>2020-08-12T20:16:25Z</time>
      </trkpt>
      <trkpt lat="43.172179" lon="-1.669744">
        <ele>123.4</ele>
        <time>2020-08-12T20:16:29Z</time>
      </trkpt>
      <trkpt lat="43.172678" lon="-1.669784">
        <ele>121.8</ele>
        <time>2020-08-12T20:16:31Z</time>
      </trkpt>
      <trkpt lat="43.172948" lon="-1.669782">
        <ele>121.8</ele>
        <time>2020-08-12T20:16:32Z</time>
      </trkpt>
      <trkpt lat="43.173292" lon="-1.669726">
        <ele>121.8</ele>
        <time>2020-08-12T20:16:34Z</time>
      </trkpt>
      <trkpt lat="43.173744" lon="-1.669603">
        <ele>119.0</ele>
        <time>2020-08-12T20:16:37Z</time>
      </trkpt>
      <trkpt lat="43.17468" lon="-1.669187">
        <ele>111.4</ele>
        <time>2020-08-12T20:16:42Z</time>
      </trkpt>
      <trkpt lat="43.175259" lon="-1.66903">
        <ele>106.6</ele>
        <time>2020-08-12T20:16:45Z</time>
      </trkpt>
      <trkpt lat="43.175847" lon="-1.668959">
        <ele>105.8</ele>
        <time>2020-08-12T20:16:48Z</time>
      </trkpt>
      <trkpt lat="43.176119" lon="-1.66896">
        <ele>105.8</ele>
        <time>2020-08-12T20:16:49Z</time>
      </trkpt>
      <trkpt lat="43.176732" lon="-1.669011">
        <ele>115.6</ele>
        <time>2020-08-12T20:16:52Z</time>
      </trkpt>
      <trkpt lat="43.177301" lon="-1.669158">
        <ele>115.6</ele>
        <time>2020-08-12T20:16:55Z</time>
      </trkpt>
      <trkpt lat="43.177688" lon="-1.669318">
        <ele>133.6</ele>
        <time>2020-08-12T20:16:57Z</time>
      </trkpt>
      <trkpt lat="43.178017" lon="-1.669487">
        <ele>133.6</ele>
        <time>2020-08-12T20:16:59Z</time>
      </trkpt>
      <trkpt lat="43.179272" lon="-1.670264">
        <ele>134.0</ele>
        <time>2020-08-12T20:17:06Z</time>
      </trkpt>
      <trkpt lat="43.17993" lon="-1.670555">
        <ele>134.0</ele>
        <time>2020-08-12T20:17:10Z</time>
      </trkpt>
      <trkpt lat="43.180452" lon="-1.670708">
        <ele>126.2</ele>
        <time>2020-08-12T20:17:13Z</time>
      </trkpt>
      <trkpt lat="43.180741" lon="-1.670765">
        <ele>126.2</ele>
        <time>2020-08-12T20:17:14Z</time>
      </trkpt>
      <trkpt lat="43.181323" lon="-1.670812">
        <ele>120.2</ele>
        <time>2020-08-12T20:17:17Z</time>
      </trkpt>
      <trkpt lat="43.181616" lon="-1.670811">
        <ele>120.2</ele>
        <time>2020-08-12T20:17:19Z</time>
      </trkpt>
      <trkpt lat="43.182095" lon="-1.670763">
        <ele>118.0</ele>
        <time>2020-08-12T20:17:21Z</time>
      </trkpt>
      <trkpt lat="43.183555" lon="-1.670401">
        <ele>116.0</ele>
        <time>2020-08-12T20:17:29Z</time>
      </trkpt>
      <trkpt lat="43.184598" lon="-1.670224">
        <ele>109.6</ele>
        <time>2020-08-12T20:17:34Z</time>
      </trkpt>
      <trkpt lat="43.185896" lon="-1.670116">
        <ele>98.0</ele>
        <time>2020-08-12T20:17:41Z</time>
      </trkpt>
      <trkpt lat="43.186552" lon="-1.67001">
        <ele>98.0</ele>
        <time>2020-08-12T20:17:44Z</time>
      </trkpt>
      <trkpt lat="43.186846" lon="-1.669945">
        <ele>116.6</ele>
        <time>2020-08-12T20:17:46Z</time>
      </trkpt>
      <trkpt lat="43.188886" lon="-1.669136">
        <ele>144.6</ele>
        <time>2020-08-12T20:17:57Z</time>
      </trkpt>
      <trkpt lat="43.189145" lon="-1.668984">
        <ele>144.6</ele>
        <time>2020-08-12T20:17:58Z</time>
      </trkpt>
      <trkpt lat="43.189448" lon="-1.668847">
        <ele>113.0</ele>
        <time>2020-08-12T20:18:00Z</time>
      </trkpt>
      <trkpt lat="43.189898" lon="-1.668548">
        <ele>113.0</ele>
        <time>2020-08-12T20:18:03Z</time>
      </trkpt>
      <trkpt lat="43.190391" lon="-1.668168">
        <ele>100.0</ele>
        <time>2020-08-12T20:18:06Z</time>
      </trkpt>
      <trkpt lat="43.191575" lon="-1.667076">
        <ele>106.6</ele>
        <time>2020-08-12T20:18:13Z</time>
      </trkpt>
      <trkpt lat="43.191898" lon="-1.666825">
        <ele>122.0</ele>
        <time>2020-08-12T20:18:15Z</time>
      </trkpt>
      <trkpt lat="43.192229" lon="-1.6666">
        <ele>104.6</ele>
        <time>2020-08-12T20:18:17Z</time>
      </trkpt>
      <trkpt lat="43.192736" lon="-1.666306">
        <ele>109.4</ele>
        <time>2020-08-12T20:18:20Z</time>
      </trkpt>
      <trkpt lat="43.193199" lon="-1.666084">
        <ele>109.4</ele>
        <time>2020-08-12T20:18:23Z</time>
      </trkpt>
      <trkpt lat="43.193644" lon="-1.665924">
        <ele>105.0</ele>
        <time>2020-08-12T20:18:25Z</time>
      </trkpt>
      <trkpt lat="43.194287" lon="-1.665744">
        <ele>93.2</ele>
        <time>2020-08-12T20:18:28Z</time>
      </trkpt>
      <trkpt lat="43.195309" lon="-1.665529">
        <ele>93.2</ele>
        <time>2020-08-12T20:18:34Z</time>
      </trkpt>
      <trkpt lat="43.196278" lon="-1.665242">
        <ele>94.2</ele>
        <time>2020-08-12T20:18:39Z</time>
      </trkpt>
      <trkpt lat="43.196776" lon="-1.665073">
        <ele>94.8</ele>
        <time>2020-08-12T20:18:41Z</time>
      </trkpt>
      <trkpt lat="43.197951" lon="-1.664584">
        <ele>95.2</ele>
        <time>2020-08-12T20:18:48Z</time>
      </trkpt>
      <trkpt lat="43.19845" lon="-1.664349">
        <ele>95.8</ele>
        <time>2020-08-12T20:18:50Z</time>
      </trkpt>
      <trkpt lat="43.203541" lon="-1.661691">
        <ele>121.6</ele>
        <time>2020-08-12T20:19:18Z</time>
      </trkpt>
      <trkpt lat="43.203886" lon="-1.661541">
        <ele>116.0</ele>
        <time>2020-08-12T20:19:20Z</time>
      </trkpt>
      <trkpt lat="43.204183" lon="-1.661439">
        <ele>91.6</ele>
        <time>2020-08-12T20:19:22Z</time>
      </trkpt>
      <trkpt lat="43.204483" lon="-1.661363">
        <ele>91.6</ele>
        <time>2020-08-12T20:19:24Z</time>
      </trkpt>
      <trkpt lat="43.204831" lon="-1.661315">
        <ele>91.6</ele>
        <time>2020-08-12T20:19:25Z</time>
      </trkpt>
      <trkpt lat="43.20516" lon="-1.661304">
        <ele>88.6</ele>
        <time>2020-08-12T20:19:27Z</time>
      </trkpt>
      <trkpt lat="43.205437" lon="-1.661311">
        <ele>88.6</ele>
        <time>2020-08-12T20:19:28Z</time>
      </trkpt>
      <trkpt lat="43.20593" lon="-1.661397">
        <ele>94.0</ele>
        <time>2020-08-12T20:19:31Z</time>
      </trkpt>
      <trkpt lat="43.206496" lon="-1.661575">
        <ele>94.0</ele>
        <time>2020-08-12T20:19:34Z</time>
      </trkpt>
      <trkpt lat="43.207131" lon="-1.661802">
        <ele>91.6</ele>
        <time>2020-08-12T20:19:37Z</time>
      </trkpt>
      <trkpt lat="43.207417" lon="-1.661925">
        <ele>91.6</ele>
        <time>2020-08-12T20:19:39Z</time>
      </trkpt>
      <trkpt lat="43.207732" lon="-1.66209">
        <ele>90.0</ele>
        <time>2020-08-12T20:19:41Z</time>
      </trkpt>
      <trkpt lat="43.208006" lon="-1.662269">
        <ele>90.0</ele>
        <time>2020-08-12T20:19:42Z</time>
      </trkpt>
      <trkpt lat="43.208314" lon="-1.66254">
        <ele>97.8</ele>
        <time>2020-08-12T20:19:44Z</time>
      </trkpt>
      <trkpt lat="43.208526" lon="-1.662763">
        <ele>91.8</ele>
        <time>2020-08-12T20:19:45Z</time>
      </trkpt>
      <trkpt lat="43.208785" lon="-1.663092">
        <ele>91.8</ele>
        <time>2020-08-12T20:19:47Z</time>
      </trkpt>
      <trkpt lat="43.209333" lon="-1.663915">
        <ele>93.0</ele>
        <time>2020-08-12T20:19:51Z</time>
      </trkpt>
      <trkpt lat="43.20964" lon="-1.664439">
        <ele>91.8</ele>
        <time>2020-08-12T20:19:54Z</time>
      </trkpt>
      <trkpt lat="43.209884" lon="-1.664994">
        <ele>91.8</ele>
        <time>2020-08-12T20:19:56Z</time>
      </trkpt>
      <trkpt lat="43.209996" lon="-1.665351">
        <ele>99.2</ele>
        <time>2020-08-12T20:19:58Z</time>
      </trkpt>
      <trkpt lat="43.210124" lon="-1.665912">
        <ele>89.6</ele>
        <time>2020-08-12T20:20:00Z</time>
      </trkpt>
      <trkpt lat="43.210193" lon="-1.666366">
        <ele>89.6</ele>
        <time>2020-08-12T20:20:02Z</time>
      </trkpt>
      <trkpt lat="43.210244" lon="-1.66701">
        <ele>91.2</ele>
        <time>2020-08-12T20:20:04Z</time>
      </trkpt>
      <trkpt lat="43.21034" lon="-1.667607">
        <ele>93.2</ele>
        <time>2020-08-12T20:20:06Z</time>
      </trkpt>
      <trkpt lat="43.210504" lon="-1.668291">
        <ele>93.2</ele>
        <time>2020-08-12T20:20:09Z</time>
      </trkpt>
      <trkpt lat="43.210628" lon="-1.668712">
        <ele>99.6</ele>
        <time>2020-08-12T20:20:11Z</time>
      </trkpt>
      <trkpt lat="43.210779" lon="-1.669163">
        <ele>99.6</ele>
        <time>2020-08-12T20:20:13Z</time>
      </trkpt>
      <trkpt lat="43.210943" lon="-1.669577">
        <ele>94.8</ele>
        <time>2020-08-12T20:20:14Z</time>
      </trkpt>
      <trkpt lat="43.211434" lon="-1.670589">
        <ele>98.2</ele>
        <time>2020-08-12T20:20:19Z</time>
      </trkpt>
      <trkpt lat="43.211589" lon="-1.670852">
        <ele>109.0</ele>
        <time>2020-08-12T20:20:20Z</time>
      </trkpt>
      <trkpt lat="43.211756" lon="-1.671081">
        <ele>89.2</ele>
        <time>2020-08-12T20:20:22Z</time>
      </trkpt>
      <trkpt lat="43.211969" lon="-1.671328">
        <ele>89.2</ele>
        <time>2020-08-12T20:20:23Z</time>
      </trkpt>
      <trkpt lat="43.212437" lon="-1.671701">
        <ele>102.8</ele>
        <time>2020-08-12T20:20:26Z</time>
      </trkpt>
      <trkpt lat="43.212876" lon="-1.67192">
        <ele>91.0</ele>
        <time>2020-08-12T20:20:29Z</time>
      </trkpt>
      <trkpt lat="43.213042" lon="-1.671973">
        <ele>91.0</ele>
        <time>2020-08-12T20:20:29Z</time>
      </trkpt>
      <trkpt lat="43.213461" lon="-1.672034">
        <ele>94.0</ele>
        <time>2020-08-12T20:20:32Z</time>
      </trkpt>
      <trkpt lat="43.213788" lon="-1.672027">
        <ele>94.0</ele>
        <time>2020-08-12T20:20:33Z</time>
      </trkpt>
      <trkpt lat="43.214193" lon="-1.671945">
        <ele>111.0</ele>
        <time>2020-08-12T20:20:36Z</time>
      </trkpt>
      <trkpt lat="43.214979" lon="-1.671648">
        <ele>82.8</ele>
        <time>2020-08-12T20:20:40Z</time>
      </trkpt>
      <trkpt lat="43.215305" lon="-1.67155">
        <ele>92.2</ele>
        <time>2020-08-12T20:20:42Z</time>
      </trkpt>
      <trkpt lat="43.21565" lon="-1.671512">
        <ele>92.2</ele>
        <time>2020-08-12T20:20:43Z</time>
      </trkpt>
      <trkpt lat="43.215905" lon="-1.671518">
        <ele>93.2</ele>
        <time>2020-08-12T20:20:45Z</time>
      </trkpt>
      <trkpt lat="43.216184" lon="-1.671565">
        <ele>93.2</ele>
        <time>2020-08-12T20:20:46Z</time>
      </trkpt>
      <trkpt lat="43.216409" lon="-1.671629">
        <ele>93.2</ele>
        <time>2020-08-12T20:20:47Z</time>
      </trkpt>
      <trkpt lat="43.216873" lon="-1.671856">
        <ele>103.8</ele>
        <time>2020-08-12T20:20:50Z</time>
      </trkpt>
      <trkpt lat="43.218627" lon="-1.673023">
        <ele>98.6</ele>
        <time>2020-08-12T20:21:00Z</time>
      </trkpt>
      <trkpt lat="43.222309" lon="-1.675168">
        <ele>88.0</ele>
        <time>2020-08-12T20:21:20Z</time>
      </trkpt>
      <trkpt lat="43.222857" lon="-1.675167">
        <ele>73.2</ele>
        <time>2020-08-12T20:21:23Z</time>
      </trkpt>
      <trkpt lat="43.223168" lon="-1.675111">
        <ele>73.2</ele>
        <time>2020-08-12T20:21:25Z</time>
      </trkpt>
      <trkpt lat="43.223452" lon="-1.675023">
        <ele>67.2</ele>
        <time>2020-08-12T20:21:26Z</time>
      </trkpt>
      <trkpt lat="43.223784" lon="-1.674954">
        <ele>83.0</ele>
        <time>2020-08-12T20:21:28Z</time>
      </trkpt>
      <trkpt lat="43.224137" lon="-1.6749">
        <ele>83.0</ele>
        <time>2020-08-12T20:21:30Z</time>
      </trkpt>
      <trkpt lat="43.224458" lon="-1.674898">
        <ele>78.8</ele>
        <time>2020-08-12T20:21:32Z</time>
      </trkpt>
      <trkpt lat="43.224745" lon="-1.674941">
        <ele>78.8</ele>
        <time>2020-08-12T20:21:33Z</time>
      </trkpt>
      <trkpt lat="43.225035" lon="-1.675025">
        <ele>67.2</ele>
        <time>2020-08-12T20:21:35Z</time>
      </trkpt>
      <trkpt lat="43.225335" lon="-1.675165">
        <ele>67.2</ele>
        <time>2020-08-12T20:21:36Z</time>
      </trkpt>
      <trkpt lat="43.225597" lon="-1.675326">
        <ele>67.2</ele>
        <time>2020-08-12T20:21:38Z</time>
      </trkpt>
      <trkpt lat="43.2259" lon="-1.675585">
        <ele>76.6</ele>
        <time>2020-08-12T20:21:40Z</time>
      </trkpt>
      <trkpt lat="43.226184" lon="-1.675876">
        <ele>67.0</ele>
        <time>2020-08-12T20:21:42Z</time>
      </trkpt>
      <trkpt lat="43.226778" lon="-1.676539">
        <ele>71.8</ele>
        <time>2020-08-12T20:21:46Z</time>
      </trkpt>
      <trkpt lat="43.227036" lon="-1.676754">
        <ele>64.2</ele>
        <time>2020-08-12T20:21:47Z</time>
      </trkpt>
      <trkpt lat="43.227377" lon="-1.676956">
        <ele>64.2</ele>
        <time>2020-08-12T20:21:49Z</time>
      </trkpt>
      <trkpt lat="43.227656" lon="-1.677069">
        <ele>63.8</ele>
        <time>2020-08-12T20:21:51Z</time>
      </trkpt>
      <trkpt lat="43.22799" lon="-1.677137">
        <ele>63.8</ele>
        <time>2020-08-12T20:21:52Z</time>
      </trkpt>
      <trkpt lat="43.22838" lon="-1.677149">
        <ele>65.2</ele>
        <time>2020-08-12T20:21:54Z</time>
      </trkpt>
      <trkpt lat="43.228673" lon="-1.677102">
        <ele>65.2</ele>
        <time>2020-08-12T20:21:56Z</time>
      </trkpt>
      <trkpt lat="43.228979" lon="-1.676999">
        <ele>65.2</ele>
        <time>2020-08-12T20:21:57Z</time>
      </trkpt>
      <trkpt lat="43.229311" lon="-1.676831">
        <ele>66.8</ele>
        <time>2020-08-12T20:21:59Z</time>
      </trkpt>
      <trkpt lat="43.229611" lon="-1.676601">
        <ele>77.0</ele>
        <time>2020-08-12T20:22:01Z</time>
      </trkpt>
      <trkpt lat="43.230181" lon="-1.676066">
        <ele>70.4</ele>
        <time>2020-08-12T20:22:05Z</time>
      </trkpt>
      <trkpt lat="43.230438" lon="-1.675852">
        <ele>70.4</ele>
        <time>2020-08-12T20:22:06Z</time>
      </trkpt>
      <trkpt lat="43.230721" lon="-1.675669">
        <ele>77.0</ele>
        <time>2020-08-12T20:22:08Z</time>
      </trkpt>
      <trkpt lat="43.231029" lon="-1.675547">
        <ele>71.8</ele>
        <time>2020-08-12T20:22:09Z</time>
      </trkpt>
      <trkpt lat="43.23131" lon="-1.675477">
        <ele>71.8</ele>
        <time>2020-08-12T20:22:11Z</time>
      </trkpt>
      <trkpt lat="43.231651" lon="-1.675466">
        <ele>71.8</ele>
        <time>2020-08-12T20:22:13Z</time>
      </trkpt>
      <trkpt lat="43.231875" lon="-1.675498">
        <ele>82.2</ele>
        <time>2020-08-12T20:22:14Z</time>
      </trkpt>
      <trkpt lat="43.232133" lon="-1.675565">
        <ele>82.2</ele>
        <time>2020-08-12T20:22:15Z</time>
      </trkpt>
      <trkpt lat="43.232361" lon="-1.675656">
        <ele>82.2</ele>
        <time>2020-08-12T20:22:16Z</time>
      </trkpt>
      <trkpt lat="43.233001" lon="-1.676084">
        <ele>109.0</ele>
        <time>2020-08-12T20:22:20Z</time>
      </trkpt>
      <trkpt lat="43.234132" lon="-1.676954">
        <ele>120.6</ele>
        <time>2020-08-12T20:22:27Z</time>
      </trkpt>
      <trkpt lat="43.234403" lon="-1.677112">
        <ele>101.4</ele>
        <time>2020-08-12T20:22:29Z</time>
      </trkpt>
      <trkpt lat="43.234683" lon="-1.677223">
        <ele>101.4</ele>
        <time>2020-08-12T20:22:30Z</time>
      </trkpt>
      <trkpt lat="43.235013" lon="-1.677285">
        <ele>91.4</ele>
        <time>2020-08-12T20:22:32Z</time>
      </trkpt>
      <trkpt lat="43.235355" lon="-1.677298">
        <ele>91.4</ele>
        <time>2020-08-12T20:22:34Z</time>
      </trkpt>
      <trkpt lat="43.235624" lon="-1.677254">
        <ele>91.4</ele>
        <time>2020-08-12T20:22:35Z</time>
      </trkpt>
      <trkpt lat="43.235929" lon="-1.67714">
        <ele>96.8</ele>
        <time>2020-08-12T20:22:37Z</time>
      </trkpt>
      <trkpt lat="43.236233" lon="-1.676956">
        <ele>96.8</ele>
        <time>2020-08-12T20:22:38Z</time>
      </trkpt>
      <trkpt lat="43.236473" lon="-1.676753">
        <ele>96.8</ele>
        <time>2020-08-12T20:22:40Z</time>
      </trkpt>
      <trkpt lat="43.236727" lon="-1.676493">
        <ele>88.6</ele>
        <time>2020-08-12T20:22:41Z</time>
      </trkpt>
      <trkpt lat="43.238182" lon="-1.674658">
        <ele>70.6</ele>
        <time>2020-08-12T20:22:52Z</time>
      </trkpt>
      <trkpt lat="43.238398" lon="-1.674445">
        <ele>78.4</ele>
        <time>2020-08-12T20:22:53Z</time>
      </trkpt>
      <trkpt lat="43.238663" lon="-1.674246">
        <ele>78.4</ele>
        <time>2020-08-12T20:22:55Z</time>
      </trkpt>
      <trkpt lat="43.23891" lon="-1.674115">
        <ele>64.2</ele>
        <time>2020-08-12T20:22:56Z</time>
      </trkpt>
      <trkpt lat="43.239194" lon="-1.674012">
        <ele>61.4</ele>
        <time>2020-08-12T20:22:58Z</time>
      </trkpt>
      <trkpt lat="43.239535" lon="-1.673945">
        <ele>61.4</ele>
        <time>2020-08-12T20:22:59Z</time>
      </trkpt>
      <trkpt lat="43.240391" lon="-1.673854">
        <ele>58.4</ele>
        <time>2020-08-12T20:23:04Z</time>
      </trkpt>
      <trkpt lat="43.240611" lon="-1.673782">
        <ele>58.4</ele>
        <time>2020-08-12T20:23:05Z</time>
      </trkpt>
      <trkpt lat="43.241051" lon="-1.673563">
        <ele>60.0</ele>
        <time>2020-08-12T20:23:07Z</time>
      </trkpt>
      <trkpt lat="43.241236" lon="-1.67343">
        <ele>60.0</ele>
        <time>2020-08-12T20:23:08Z</time>
      </trkpt>
      <trkpt lat="43.241374" lon="-1.673307">
        <ele>68.2</ele>
        <time>2020-08-12T20:23:09Z</time>
      </trkpt>
      <trkpt lat="43.241562" lon="-1.673072">
        <ele>68.2</ele>
        <time>2020-08-12T20:23:11Z</time>
      </trkpt>
      <trkpt lat="43.241772" lon="-1.672766">
        <ele>64.6</ele>
        <time>2020-08-12T20:23:12Z</time>
      </trkpt>
      <trkpt lat="43.242922" lon="-1.670758">
        <ele>57.2</ele>
        <time>2020-08-12T20:23:22Z</time>
      </trkpt>
      <trkpt lat="43.243044" lon="-1.670571">
        <ele>57.2</ele>
        <time>2020-08-12T20:23:23Z</time>
      </trkpt>
      <trkpt lat="43.243255" lon="-1.670321">
        <ele>57.2</ele>
        <time>2020-08-12T20:23:24Z</time>
      </trkpt>
      <trkpt lat="43.243445" lon="-1.670131">
        <ele>54.2</ele>
        <time>2020-08-12T20:23:25Z</time>
      </trkpt>
      <trkpt lat="43.243819" lon="-1.669879">
        <ele>62.6</ele>
        <time>2020-08-12T20:23:27Z</time>
      </trkpt>
      <trkpt lat="43.244144" lon="-1.669728">
        <ele>62.6</ele>
        <time>2020-08-12T20:23:29Z</time>
      </trkpt>
      <trkpt lat="43.244444" lon="-1.669663">
        <ele>57.6</ele>
        <time>2020-08-12T20:23:31Z</time>
      </trkpt>
      <trkpt lat="43.244774" lon="-1.669649">
        <ele>57.6</ele>
        <time>2020-08-12T20:23:32Z</time>
      </trkpt>
      <trkpt lat="43.24511" lon="-1.669704">
        <ele>57.8</ele>
        <time>2020-08-12T20:23:34Z</time>
      </trkpt>
      <trkpt lat="43.245353" lon="-1.669777">
        <ele>57.8</ele>
        <time>2020-08-12T20:23:38Z</time>
      </trkpt>
      <trkpt lat="43.245353" lon="-1.669777">
        <ele>57.8</ele>
        <time>2020-08-12T20:23:38Z</time>
      </trkpt>
      <trkpt lat="43.245572" lon="-1.66988">
        <ele>57.8</ele>
        <time>2020-08-12T20:23:40Z</time>
      </trkpt>
      <trkpt lat="43.245803" lon="-1.670024">
        <ele>65.4</ele>
        <time>2020-08-12T20:23:41Z</time>
      </trkpt>
      <trkpt lat="43.248469" lon="-1.672072">
        <ele>87.6</ele>
        <time>2020-08-12T20:23:58Z</time>
      </trkpt>
      <trkpt lat="43.248915" lon="-1.672496">
        <ele>87.6</ele>
        <time>2020-08-12T20:24:01Z</time>
      </trkpt>
      <trkpt lat="43.249236" lon="-1.672874">
        <ele>75.8</ele>
        <time>2020-08-12T20:24:03Z</time>
      </trkpt>
      <trkpt lat="43.249941" lon="-1.673827">
        <ele>91.0</ele>
        <time>2020-08-12T20:24:08Z</time>
      </trkpt>
      <trkpt lat="43.250204" lon="-1.674138">
        <ele>59.0</ele>
        <time>2020-08-12T20:24:11Z</time>
      </trkpt>
      <trkpt lat="43.250545" lon="-1.674475">
        <ele>66.0</ele>
        <time>2020-08-12T20:24:13Z</time>
      </trkpt>
      <trkpt lat="43.250893" lon="-1.674758">
        <ele>54.0</ele>
        <time>2020-08-12T20:24:15Z</time>
      </trkpt>
      <trkpt lat="43.251167" lon="-1.674943">
        <ele>54.0</ele>
        <time>2020-08-12T20:24:17Z</time>
      </trkpt>
      <trkpt lat="43.254707" lon="-1.676963">
        <ele>103.0</ele>
        <time>2020-08-12T20:24:38Z</time>
      </trkpt>
      <trkpt lat="43.25494" lon="-1.67721">
        <ele>103.0</ele>
        <time>2020-08-12T20:24:39Z</time>
      </trkpt>
      <trkpt lat="43.255227" lon="-1.677466">
        <ele>78.4</ele>
        <time>2020-08-12T20:24:42Z</time>
      </trkpt>
      <trkpt lat="43.25575" lon="-1.677873">
        <ele>75.4</ele>
        <time>2020-08-12T20:24:45Z</time>
      </trkpt>
      <trkpt lat="43.256433" lon="-1.678315">
        <ele>71.4</ele>
        <time>2020-08-12T20:24:49Z</time>
      </trkpt>
      <trkpt lat="43.256805" lon="-1.678518">
        <ele>64.0</ele>
        <time>2020-08-12T20:24:51Z</time>
      </trkpt>
      <trkpt lat="43.257371" lon="-1.678778">
        <ele>64.0</ele>
        <time>2020-08-12T20:24:54Z</time>
      </trkpt>
      <trkpt lat="43.257998" lon="-1.679024">
        <ele>61.6</ele>
        <time>2020-08-12T20:24:58Z</time>
      </trkpt>
      <trkpt lat="43.258351" lon="-1.67919">
        <ele>53.6</ele>
        <time>2020-08-12T20:25:00Z</time>
      </trkpt>
      <trkpt lat="43.258872" lon="-1.679518">
        <ele>53.6</ele>
        <time>2020-08-12T20:25:03Z</time>
      </trkpt>
      <trkpt lat="43.259348" lon="-1.679919">
        <ele>53.0</ele>
        <time>2020-08-12T20:25:06Z</time>
      </trkpt>
      <trkpt lat="43.259527" lon="-1.680109">
        <ele>74.4</ele>
        <time>2020-08-12T20:25:08Z</time>
      </trkpt>
      <trkpt lat="43.259812" lon="-1.680456">
        <ele>74.4</ele>
        <time>2020-08-12T20:25:10Z</time>
      </trkpt>
      <trkpt lat="43.260171" lon="-1.681002">
        <ele>75.0</ele>
        <time>2020-08-12T20:25:13Z</time>
      </trkpt>
      <trkpt lat="43.260512" lon="-1.681687">
        <ele>81.4</ele>
        <time>2020-08-12T20:25:16Z</time>
      </trkpt>
      <trkpt lat="43.260785" lon="-1.682427">
        <ele>81.4</ele>
        <time>2020-08-12T20:25:19Z</time>
      </trkpt>
      <trkpt lat="43.261039" lon="-1.68334">
        <ele>66.2</ele>
        <time>2020-08-12T20:25:23Z</time>
      </trkpt>
      <trkpt lat="43.261185" lon="-1.68378">
        <ele>66.2</ele>
        <time>2020-08-12T20:25:25Z</time>
      </trkpt>
      <trkpt lat="43.261341" lon="-1.684111">
        <ele>66.2</ele>
        <time>2020-08-12T20:25:26Z</time>
      </trkpt>
      <trkpt lat="43.261622" lon="-1.684534">
        <ele>75.2</ele>
        <time>2020-08-12T20:25:29Z</time>
      </trkpt>
      <trkpt lat="43.261839" lon="-1.684783">
        <ele>54.8</ele>
        <time>2020-08-12T20:25:31Z</time>
      </trkpt>
      <trkpt lat="43.262074" lon="-1.684983">
        <ele>54.8</ele>
        <time>2020-08-12T20:25:32Z</time>
      </trkpt>
      <trkpt lat="43.262259" lon="-1.685113">
        <ele>59.2</ele>
        <time>2020-08-12T20:25:33Z</time>
      </trkpt>
      <trkpt lat="43.262553" lon="-1.685267">
        <ele>45.2</ele>
        <time>2020-08-12T20:25:35Z</time>
      </trkpt>
      <trkpt lat="43.262847" lon="-1.685371">
        <ele>45.2</ele>
        <time>2020-08-12T20:25:37Z</time>
      </trkpt>
      <trkpt lat="43.2631" lon="-1.685413">
        <ele>45.2</ele>
        <time>2020-08-12T20:25:38Z</time>
      </trkpt>
      <trkpt lat="43.263363" lon="-1.68543">
        <ele>46.4</ele>
        <time>2020-08-12T20:25:39Z</time>
      </trkpt>
      <trkpt lat="43.263935" lon="-1.685385">
        <ele>46.4</ele>
        <time>2020-08-12T20:25:43Z</time>
      </trkpt>
      <trkpt lat="43.26425" lon="-1.685314">
        <ele>49.2</ele>
        <time>2020-08-12T20:25:44Z</time>
      </trkpt>
      <trkpt lat="43.264638" lon="-1.685191">
        <ele>49.2</ele>
        <time>2020-08-12T20:25:46Z</time>
      </trkpt>
      <trkpt lat="43.264909" lon="-1.685076">
        <ele>49.2</ele>
        <time>2020-08-12T20:25:48Z</time>
      </trkpt>
      <trkpt lat="43.26531" lon="-1.68484">
        <ele>54.6</ele>
        <time>2020-08-12T20:25:50Z</time>
      </trkpt>
      <trkpt lat="43.265726" lon="-1.684556">
        <ele>54.6</ele>
        <time>2020-08-12T20:25:53Z</time>
      </trkpt>
      <trkpt lat="43.267158" lon="-1.683471">
        <ele>50.4</ele>
        <time>2020-08-12T20:26:02Z</time>
      </trkpt>
      <trkpt lat="43.267448" lon="-1.683275">
        <ele>61.6</ele>
        <time>2020-08-12T20:26:03Z</time>
      </trkpt>
      <trkpt lat="43.267701" lon="-1.683159">
        <ele>56.2</ele>
        <time>2020-08-12T20:26:05Z</time>
      </trkpt>
      <trkpt lat="43.267913" lon="-1.683098">
        <ele>56.2</ele>
        <time>2020-08-12T20:26:06Z</time>
      </trkpt>
      <trkpt lat="43.268146" lon="-1.683063">
        <ele>56.2</ele>
        <time>2020-08-12T20:26:07Z</time>
      </trkpt>
      <trkpt lat="43.268369" lon="-1.683071">
        <ele>57.2</ele>
        <time>2020-08-12T20:26:09Z</time>
      </trkpt>
      <trkpt lat="43.268575" lon="-1.683107">
        <ele>57.2</ele>
        <time>2020-08-12T20:26:10Z</time>
      </trkpt>
      <trkpt lat="43.268836" lon="-1.683199">
        <ele>57.2</ele>
        <time>2020-08-12T20:26:11Z</time>
      </trkpt>
      <trkpt lat="43.269052" lon="-1.683303">
        <ele>57.2</ele>
        <time>2020-08-12T20:26:12Z</time>
      </trkpt>
      <trkpt lat="43.269229" lon="-1.683427">
        <ele>50.0</ele>
        <time>2020-08-12T20:26:14Z</time>
      </trkpt>
      <trkpt lat="43.269359" lon="-1.683538">
        <ele>50.0</ele>
        <time>2020-08-12T20:26:14Z</time>
      </trkpt>
      <trkpt lat="43.269539" lon="-1.68373">
        <ele>50.0</ele>
        <time>2020-08-12T20:26:16Z</time>
      </trkpt>
      <trkpt lat="43.269703" lon="-1.683944">
        <ele>50.0</ele>
        <time>2020-08-12T20:26:17Z</time>
      </trkpt>
      <trkpt lat="43.269834" lon="-1.684159">
        <ele>50.0</ele>
        <time>2020-08-12T20:26:18Z</time>
      </trkpt>
      <trkpt lat="43.26995" lon="-1.68439">
        <ele>45.8</ele>
        <time>2020-08-12T20:26:19Z</time>
      </trkpt>
      <trkpt lat="43.270106" lon="-1.684823">
        <ele>46.6</ele>
        <time>2020-08-12T20:26:21Z</time>
      </trkpt>
      <trkpt lat="43.270172" lon="-1.685098">
        <ele>42.6</ele>
        <time>2020-08-12T20:26:22Z</time>
      </trkpt>
      <trkpt lat="43.270341" lon="-1.68613">
        <ele>43.8</ele>
        <time>2020-08-12T20:26:26Z</time>
      </trkpt>
      <trkpt lat="43.270442" lon="-1.686594">
        <ele>43.8</ele>
        <time>2020-08-12T20:26:28Z</time>
      </trkpt>
      <trkpt lat="43.270553" lon="-1.686971">
        <ele>46.8</ele>
        <time>2020-08-12T20:26:30Z</time>
      </trkpt>
      <trkpt lat="43.270785" lon="-1.68758">
        <ele>49.0</ele>
        <time>2020-08-12T20:26:32Z</time>
      </trkpt>
      <trkpt lat="43.27105" lon="-1.688179">
        <ele>37.6</ele>
        <time>2020-08-12T20:26:35Z</time>
      </trkpt>
      <trkpt lat="43.271183" lon="-1.688445">
        <ele>37.8</ele>
        <time>2020-08-12T20:26:37Z</time>
      </trkpt>
      <trkpt lat="43.271346" lon="-1.688717">
        <ele>37.8</ele>
        <time>2020-08-12T20:26:38Z</time>
      </trkpt>
      <trkpt lat="43.271756" lon="-1.689208">
        <ele>36.4</ele>
        <time>2020-08-12T20:26:41Z</time>
      </trkpt>
      <trkpt lat="43.273472" lon="-1.690565">
        <ele>46.0</ele>
        <time>2020-08-12T20:26:52Z</time>
      </trkpt>
      <trkpt lat="43.273935" lon="-1.690957">
        <ele>55.8</ele>
        <time>2020-08-12T20:26:55Z</time>
      </trkpt>
      <trkpt lat="43.274273" lon="-1.691314">
        <ele>53.2</ele>
        <time>2020-08-12T20:26:57Z</time>
      </trkpt>
      <trkpt lat="43.274569" lon="-1.691683">
        <ele>66.2</ele>
        <time>2020-08-12T20:26:59Z</time>
      </trkpt>
      <trkpt lat="43.275131" lon="-1.692636">
        <ele>74.2</ele>
        <time>2020-08-12T20:27:04Z</time>
      </trkpt>
      <trkpt lat="43.275396" lon="-1.693477">
        <ele>73.8</ele>
        <time>2020-08-12T20:27:08Z</time>
      </trkpt>
      <trkpt lat="43.275624" lon="-1.694623">
        <ele>70.8</ele>
        <time>2020-08-12T20:27:12Z</time>
      </trkpt>
      <trkpt lat="43.275682" lon="-1.695144">
        <ele>66.4</ele>
        <time>2020-08-12T20:27:14Z</time>
      </trkpt>
      <trkpt lat="43.275738" lon="-1.69881">
        <ele>57.4</ele>
        <time>2020-08-12T20:27:29Z</time>
      </trkpt>
      <trkpt lat="43.275789" lon="-1.700308">
        <ele>53.2</ele>
        <time>2020-08-12T20:27:35Z</time>
      </trkpt>
      <trkpt lat="43.275778" lon="-1.701349">
        <ele>46.6</ele>
        <time>2020-08-12T20:27:39Z</time>
      </trkpt>
      <trkpt lat="43.275817" lon="-1.702283">
        <ele>41.6</ele>
        <time>2020-08-12T20:27:42Z</time>
      </trkpt>
      <trkpt lat="43.27586" lon="-1.70255">
        <ele>33.2</ele>
        <time>2020-08-12T20:27:44Z</time>
      </trkpt>
      <trkpt lat="43.276113" lon="-1.703304">
        <ele>33.2</ele>
        <time>2020-08-12T20:27:47Z</time>
      </trkpt>
      <trkpt lat="43.276289" lon="-1.703635">
        <ele>33.2</ele>
        <time>2020-08-12T20:27:48Z</time>
      </trkpt>
      <trkpt lat="43.2766" lon="-1.704087">
        <ele>33.2</ele>
        <time>2020-08-12T20:27:51Z</time>
      </trkpt>
      <trkpt lat="43.276967" lon="-1.704559">
        <ele>38.4</ele>
        <time>2020-08-12T20:27:54Z</time>
      </trkpt>
      <trkpt lat="43.27721" lon="-1.705075">
        <ele>37.0</ele>
        <time>2020-08-12T20:27:56Z</time>
      </trkpt>
      <trkpt lat="43.277342" lon="-1.705506">
        <ele>37.0</ele>
        <time>2020-08-12T20:27:58Z</time>
      </trkpt>
      <trkpt lat="43.277481" lon="-1.706169">
        <ele>35.4</ele>
        <time>2020-08-12T20:28:01Z</time>
      </trkpt>
      <trkpt lat="43.277617" lon="-1.707443">
        <ele>46.2</ele>
        <time>2020-08-12T20:28:06Z</time>
      </trkpt>
      <trkpt lat="43.277737" lon="-1.708029">
        <ele>40.2</ele>
        <time>2020-08-12T20:28:08Z</time>
      </trkpt>
      <trkpt lat="43.277893" lon="-1.708529">
        <ele>36.6</ele>
        <time>2020-08-12T20:28:10Z</time>
      </trkpt>
      <trkpt lat="43.278196" lon="-1.709319">
        <ele>33.0</ele>
        <time>2020-08-12T20:28:14Z</time>
      </trkpt>
      <trkpt lat="43.278554" lon="-1.71013">
        <ele>37.4</ele>
        <time>2020-08-12T20:28:17Z</time>
      </trkpt>
      <trkpt lat="43.278791" lon="-1.710504">
        <ele>37.4</ele>
        <time>2020-08-12T20:28:19Z</time>
      </trkpt>
      <trkpt lat="43.279105" lon="-1.710866">
        <ele>30.4</ele>
        <time>2020-08-12T20:28:22Z</time>
      </trkpt>
      <trkpt lat="43.279403" lon="-1.711126">
        <ele>35.2</ele>
        <time>2020-08-12T20:28:24Z</time>
      </trkpt>
      <trkpt lat="43.279792" lon="-1.71134">
        <ele>35.2</ele>
        <time>2020-08-12T20:28:26Z</time>
      </trkpt>
      <trkpt lat="43.282406" lon="-1.712078">
        <ele>32.6</ele>
        <time>2020-08-12T20:28:40Z</time>
      </trkpt>
      <trkpt lat="43.282886" lon="-1.712154">
        <ele>41.2</ele>
        <time>2020-08-12T20:28:43Z</time>
      </trkpt>
      <trkpt lat="43.283375" lon="-1.712154">
        <ele>42.8</ele>
        <time>2020-08-12T20:28:46Z</time>
      </trkpt>
      <trkpt lat="43.284449" lon="-1.711966">
        <ele>34.6</ele>
        <time>2020-08-12T20:28:51Z</time>
      </trkpt>
      <trkpt lat="43.285188" lon="-1.711896">
        <ele>31.4</ele>
        <time>2020-08-12T20:28:55Z</time>
      </trkpt>
      <trkpt lat="43.286136" lon="-1.711888">
        <ele>36.0</ele>
        <time>2020-08-12T20:29:01Z</time>
      </trkpt>
      <trkpt lat="43.287119" lon="-1.712079">
        <ele>34.8</ele>
        <time>2020-08-12T20:29:06Z</time>
      </trkpt>
      <trkpt lat="43.289074" lon="-1.712336">
        <ele>37.6</ele>
        <time>2020-08-12T20:29:16Z</time>
      </trkpt>
      <trkpt lat="43.289319" lon="-1.712383">
        <ele>45.0</ele>
        <time>2020-08-12T20:29:18Z</time>
      </trkpt>
      <trkpt lat="43.289572" lon="-1.712458">
        <ele>45.0</ele>
        <time>2020-08-12T20:29:19Z</time>
      </trkpt>
      <trkpt lat="43.289877" lon="-1.712603">
        <ele>79.4</ele>
        <time>2020-08-12T20:29:22Z</time>
      </trkpt>
      <trkpt lat="43.290075" lon="-1.712739">
        <ele>58.4</ele>
        <time>2020-08-12T20:29:23Z</time>
      </trkpt>
      <trkpt lat="43.29033" lon="-1.71298">
        <ele>58.4</ele>
        <time>2020-08-12T20:29:25Z</time>
      </trkpt>
      <trkpt lat="43.290667" lon="-1.713395">
        <ele>74.6</ele>
        <time>2020-08-12T20:29:27Z</time>
      </trkpt>
      <trkpt lat="43.290828" lon="-1.713654">
        <ele>74.6</ele>
        <time>2020-08-12T20:29:29Z</time>
      </trkpt>
      <trkpt lat="43.290982" lon="-1.713953">
        <ele>44.0</ele>
        <time>2020-08-12T20:29:31Z</time>
      </trkpt>
      <trkpt lat="43.29111" lon="-1.714266">
        <ele>45.4</ele>
        <time>2020-08-12T20:29:32Z</time>
      </trkpt>
      <trkpt lat="43.291223" lon="-1.714653">
        <ele>45.4</ele>
        <time>2020-08-12T20:29:34Z</time>
      </trkpt>
      <trkpt lat="43.2913" lon="-1.71509">
        <ele>48.0</ele>
        <time>2020-08-12T20:29:36Z</time>
      </trkpt>
      <trkpt lat="43.29144" lon="-1.716506">
        <ele>53.4</ele>
        <time>2020-08-12T20:29:41Z</time>
      </trkpt>
      <trkpt lat="43.291785" lon="-1.7194">
        <ele>39.0</ele>
        <time>2020-08-12T20:29:53Z</time>
      </trkpt>
      <trkpt lat="43.291838" lon="-1.720071">
        <ele>42.6</ele>
        <time>2020-08-12T20:29:56Z</time>
      </trkpt>
      <trkpt lat="43.29184" lon="-1.720769">
        <ele>42.6</ele>
        <time>2020-08-12T20:29:58Z</time>
      </trkpt>
      <trkpt lat="43.291688" lon="-1.722519">
        <ele>42.2</ele>
        <time>2020-08-12T20:30:05Z</time>
      </trkpt>
      <trkpt lat="43.291671" lon="-1.723064">
        <ele>42.2</ele>
        <time>2020-08-12T20:30:07Z</time>
      </trkpt>
      <trkpt lat="43.291744" lon="-1.724858">
        <ele>31.8</ele>
        <time>2020-08-12T20:30:14Z</time>
      </trkpt>
      <trkpt lat="43.291777" lon="-1.726071">
        <ele>39.4</ele>
        <time>2020-08-12T20:30:19Z</time>
      </trkpt>
      <trkpt lat="43.291813" lon="-1.72647">
        <ele>39.4</ele>
        <time>2020-08-12T20:30:21Z</time>
      </trkpt>
      <trkpt lat="43.291883" lon="-1.72687">
        <ele>34.6</ele>
        <time>2020-08-12T20:30:22Z</time>
      </trkpt>
      <trkpt lat="43.291985" lon="-1.72726">
        <ele>34.6</ele>
        <time>2020-08-12T20:30:24Z</time>
      </trkpt>
      <trkpt lat="43.292091" lon="-1.727559">
        <ele>29.0</ele>
        <time>2020-08-12T20:30:25Z</time>
      </trkpt>
      <trkpt lat="43.292243" lon="-1.727909">
        <ele>29.0</ele>
        <time>2020-08-12T20:30:27Z</time>
      </trkpt>
      <trkpt lat="43.292391" lon="-1.728188">
        <ele>29.0</ele>
        <time>2020-08-12T20:30:28Z</time>
      </trkpt>
      <trkpt lat="43.292537" lon="-1.728414">
        <ele>26.8</ele>
        <time>2020-08-12T20:30:30Z</time>
      </trkpt>
      <trkpt lat="43.292869" lon="-1.728829">
        <ele>26.8</ele>
        <time>2020-08-12T20:30:32Z</time>
      </trkpt>
      <trkpt lat="43.293363" lon="-1.729248">
        <ele>31.2</ele>
        <time>2020-08-12T20:30:35Z</time>
      </trkpt>
      <trkpt lat="43.294245" lon="-1.729865">
        <ele>24.8</ele>
        <time>2020-08-12T20:30:40Z</time>
      </trkpt>
      <trkpt lat="43.295334" lon="-1.730572">
        <ele>44.0</ele>
        <time>2020-08-12T20:30:47Z</time>
      </trkpt>
      <trkpt lat="43.29679" lon="-1.731395">
        <ele>53.4</ele>
        <time>2020-08-12T20:30:56Z</time>
      </trkpt>
      <trkpt lat="43.298706" lon="-1.732383">
        <ele>59.4</ele>
        <time>2020-08-12T20:31:07Z</time>
      </trkpt>
      <trkpt lat="43.300497" lon="-1.733426">
        <ele>95.4</ele>
        <time>2020-08-12T20:31:17Z</time>
      </trkpt>
      <trkpt lat="43.30092" lon="-1.733635">
        <ele>79.6</ele>
        <time>2020-08-12T20:31:20Z</time>
      </trkpt>
      <trkpt lat="43.301782" lon="-1.733992">
        <ele>67.2</ele>
        <time>2020-08-12T20:31:25Z</time>
      </trkpt>
      <trkpt lat="43.302206" lon="-1.734131">
        <ele>67.2</ele>
        <time>2020-08-12T20:31:27Z</time>
      </trkpt>
      <trkpt lat="43.302951" lon="-1.734319">
        <ele>79.4</ele>
        <time>2020-08-12T20:31:31Z</time>
      </trkpt>
      <trkpt lat="43.303887" lon="-1.73451">
        <ele>54.8</ele>
        <time>2020-08-12T20:31:36Z</time>
      </trkpt>
      <trkpt lat="43.30471" lon="-1.734726">
        <ele>47.2</ele>
        <time>2020-08-12T20:31:41Z</time>
      </trkpt>
      <trkpt lat="43.305239" lon="-1.734984">
        <ele>43.8</ele>
        <time>2020-08-12T20:31:44Z</time>
      </trkpt>
      <trkpt lat="43.305467" lon="-1.735129">
        <ele>79.6</ele>
        <time>2020-08-12T20:31:46Z</time>
      </trkpt>
      <trkpt lat="43.30783" lon="-1.736746">
        <ele>97.8</ele>
        <time>2020-08-12T20:32:01Z</time>
      </trkpt>
      <trkpt lat="43.309051" lon="-1.737761">
        <ele>95.0</ele>
        <time>2020-08-12T20:32:08Z</time>
      </trkpt>
      <trkpt lat="43.309444" lon="-1.738262">
        <ele>63.0</ele>
        <time>2020-08-12T20:32:12Z</time>
      </trkpt>
      <trkpt lat="43.309683" lon="-1.73864">
        <ele>82.4</ele>
        <time>2020-08-12T20:32:14Z</time>
      </trkpt>
      <trkpt lat="43.310536" lon="-1.740264">
        <ele>71.2</ele>
        <time>2020-08-12T20:32:22Z</time>
      </trkpt>
      <trkpt lat="43.310827" lon="-1.74065">
        <ele>71.2</ele>
        <time>2020-08-12T20:32:24Z</time>
      </trkpt>
      <trkpt lat="43.311029" lon="-1.740857">
        <ele>49.8</ele>
        <time>2020-08-12T20:32:25Z</time>
      </trkpt>
      <trkpt lat="43.311236" lon="-1.741017">
        <ele>49.8</ele>
        <time>2020-08-12T20:32:27Z</time>
      </trkpt>
      <trkpt lat="43.311569" lon="-1.741232">
        <ele>49.8</ele>
        <time>2020-08-12T20:32:29Z</time>
      </trkpt>
      <trkpt lat="43.31174" lon="-1.741314">
        <ele>52.4</ele>
        <time>2020-08-12T20:32:30Z</time>
      </trkpt>
      <trkpt lat="43.312451" lon="-1.741576">
        <ele>52.4</ele>
        <time>2020-08-12T20:32:34Z</time>
      </trkpt>
      <trkpt lat="43.3163" lon="-1.742509">
        <ele>104.8</ele>
        <time>2020-08-12T20:32:55Z</time>
      </trkpt>
      <trkpt lat="43.316822" lon="-1.742583">
        <ele>71.2</ele>
        <time>2020-08-12T20:32:58Z</time>
      </trkpt>
      <trkpt lat="43.31771" lon="-1.74262">
        <ele>59.0</ele>
        <time>2020-08-12T20:33:03Z</time>
      </trkpt>
      <trkpt lat="43.318259" lon="-1.742611">
        <ele>59.0</ele>
        <time>2020-08-12T20:33:06Z</time>
      </trkpt>
      <trkpt lat="43.319448" lon="-1.74253">
        <ele>66.2</ele>
        <time>2020-08-12T20:33:12Z</time>
      </trkpt>
      <trkpt lat="43.320273" lon="-1.742433">
        <ele>33.2</ele>
        <time>2020-08-12T20:33:17Z</time>
      </trkpt>
      <trkpt lat="43.32151" lon="-1.7422">
        <ele>25.6</ele>
        <time>2020-08-12T20:33:24Z</time>
      </trkpt>
      <trkpt lat="43.322536" lon="-1.741973">
        <ele>40.0</ele>
        <time>2020-08-12T20:33:30Z</time>
      </trkpt>
      <trkpt lat="43.322996" lon="-1.741809">
        <ele>40.0</ele>
        <time>2020-08-12T20:33:32Z</time>
      </trkpt>
      <trkpt lat="43.323332" lon="-1.741642">
        <ele>27.8</ele>
        <time>2020-08-12T20:33:34Z</time>
      </trkpt>
      <trkpt lat="43.32411" lon="-1.741208">
        <ele>42.6</ele>
        <time>2020-08-12T20:33:39Z</time>
      </trkpt>
      <trkpt lat="43.32448" lon="-1.740945">
        <ele>59.8</ele>
        <time>2020-08-12T20:33:41Z</time>
      </trkpt>
      <trkpt lat="43.325187" lon="-1.7404">
        <ele>56.8</ele>
        <time>2020-08-12T20:33:46Z</time>
      </trkpt>
      <trkpt lat="43.325587" lon="-1.74014">
        <ele>56.8</ele>
        <time>2020-08-12T20:33:48Z</time>
      </trkpt>
      <trkpt lat="43.325983" lon="-1.739987">
        <ele>44.2</ele>
        <time>2020-08-12T20:33:50Z</time>
      </trkpt>
      <trkpt lat="43.326403" lon="-1.739939">
        <ele>44.2</ele>
        <time>2020-08-12T20:33:53Z</time>
      </trkpt>
      <trkpt lat="43.326615" lon="-1.739948">
        <ele>44.2</ele>
        <time>2020-08-12T20:33:54Z</time>
      </trkpt>
      <trkpt lat="43.326814" lon="-1.739983">
        <ele>45.4</ele>
        <time>2020-08-12T20:33:55Z</time>
      </trkpt>
      <trkpt lat="43.327067" lon="-1.740068">
        <ele>65.2</ele>
        <time>2020-08-12T20:33:57Z</time>
      </trkpt>
      <trkpt lat="43.327405" lon="-1.740234">
        <ele>65.2</ele>
        <time>2020-08-12T20:33:58Z</time>
      </trkpt>
      <trkpt lat="43.327579" lon="-1.740347">
        <ele>55.6</ele>
        <time>2020-08-12T20:34:00Z</time>
      </trkpt>
      <trkpt lat="43.327784" lon="-1.740527">
        <ele>55.6</ele>
        <time>2020-08-12T20:34:01Z</time>
      </trkpt>
      <trkpt lat="43.327959" lon="-1.74071">
        <ele>55.6</ele>
        <time>2020-08-12T20:34:02Z</time>
      </trkpt>
      <trkpt lat="43.328148" lon="-1.740949">
        <ele>63.2</ele>
        <time>2020-08-12T20:34:04Z</time>
      </trkpt>
      <trkpt lat="43.328318" lon="-1.741219">
        <ele>63.2</ele>
        <time>2020-08-12T20:34:05Z</time>
      </trkpt>
      <trkpt lat="43.328467" lon="-1.741523">
        <ele>47.0</ele>
        <time>2020-08-12T20:34:07Z</time>
      </trkpt>
      <trkpt lat="43.328599" lon="-1.741855">
        <ele>48.6</ele>
        <time>2020-08-12T20:34:08Z</time>
      </trkpt>
      <trkpt lat="43.32892" lon="-1.742877">
        <ele>51.8</ele>
        <time>2020-08-12T20:34:12Z</time>
      </trkpt>
      <trkpt lat="43.329136" lon="-1.743637">
        <ele>53.4</ele>
        <time>2020-08-12T20:34:16Z</time>
      </trkpt>
      <trkpt lat="43.329367" lon="-1.744519">
        <ele>36.0</ele>
        <time>2020-08-12T20:34:19Z</time>
      </trkpt>
      <trkpt lat="43.329582" lon="-1.745405">
        <ele>30.6</ele>
        <time>2020-08-12T20:34:23Z</time>
      </trkpt>
      <trkpt lat="43.329948" lon="-1.747113">
        <ele>33.2</ele>
        <time>2020-08-12T20:34:30Z</time>
      </trkpt>
      <trkpt lat="43.330093" lon="-1.747703">
        <ele>21.4</ele>
        <time>2020-08-12T20:34:33Z</time>
      </trkpt>
      <trkpt lat="43.330278" lon="-1.748335">
        <ele>22.4</ele>
        <time>2020-08-12T20:34:35Z</time>
      </trkpt>
      <trkpt lat="43.330544" lon="-1.749066">
        <ele>22.4</ele>
        <time>2020-08-12T20:34:38Z</time>
      </trkpt>
      <trkpt lat="43.330892" lon="-1.749887">
        <ele>13.8</ele>
        <time>2020-08-12T20:34:42Z</time>
      </trkpt>
      <trkpt lat="43.331507" lon="-1.751063">
        <ele>36.4</ele>
        <time>2020-08-12T20:34:48Z</time>
      </trkpt>
      <trkpt lat="43.331901" lon="-1.751751">
        <ele>51.8</ele>
        <time>2020-08-12T20:34:52Z</time>
      </trkpt>
      <trkpt lat="43.332271" lon="-1.752306">
        <ele>51.8</ele>
        <time>2020-08-12T20:34:55Z</time>
      </trkpt>
      <trkpt lat="43.332611" lon="-1.752702">
        <ele>54.2</ele>
        <time>2020-08-12T20:34:57Z</time>
      </trkpt>
      <trkpt lat="43.33287" lon="-1.752944">
        <ele>54.2</ele>
        <time>2020-08-12T20:34:59Z</time>
      </trkpt>
      <trkpt lat="43.333373" lon="-1.75328">
        <ele>37.0</ele>
        <time>2020-08-12T20:35:02Z</time>
      </trkpt>
      <trkpt lat="43.333741" lon="-1.753433">
        <ele>65.4</ele>
        <time>2020-08-12T20:35:04Z</time>
      </trkpt>
      <trkpt lat="43.333934" lon="-1.753486">
        <ele>65.4</ele>
        <time>2020-08-12T20:35:05Z</time>
      </trkpt>
      <trkpt lat="43.334322" lon="-1.753542">
        <ele>55.6</ele>
        <time>2020-08-12T20:35:07Z</time>
      </trkpt>
      <trkpt lat="43.33455" lon="-1.753538">
        <ele>55.6</ele>
        <time>2020-08-12T20:35:09Z</time>
      </trkpt>
      <trkpt lat="43.335108" lon="-1.753433">
        <ele>48.0</ele>
        <time>2020-08-12T20:35:12Z</time>
      </trkpt>
      <trkpt lat="43.335412" lon="-1.753216">
        <ele>21.4</ele>
        <time>2020-08-12T20:35:22Z</time>
      </trkpt>
      <trkpt lat="43.335435" lon="-1.753121">
        <ele>21.4</ele>
        <time>2020-08-12T20:35:23Z</time>
      </trkpt>
      <trkpt lat="43.335498" lon="-1.753039">
        <ele>21.4</ele>
        <time>2020-08-12T20:35:24Z</time>
      </trkpt>
      <trkpt lat="43.335593" lon="-1.753013">
        <ele>21.4</ele>
        <time>2020-08-12T20:35:25Z</time>
      </trkpt>
      <trkpt lat="43.335655" lon="-1.75304">
        <ele>21.4</ele>
        <time>2020-08-12T20:35:25Z</time>
      </trkpt>
      <trkpt lat="43.335698" lon="-1.753087">
        <ele>21.4</ele>
        <time>2020-08-12T20:35:26Z</time>
      </trkpt>
      <trkpt lat="43.33621" lon="-1.753163">
        <ele>18.2</ele>
        <time>2020-08-12T20:35:32Z</time>
      </trkpt>
      <trkpt lat="43.336675" lon="-1.753319">
        <ele>9.4</ele>
        <time>2020-08-12T20:35:37Z</time>
      </trkpt>
      <trkpt lat="43.336885" lon="-1.753411">
        <ele>25.8</ele>
        <time>2020-08-12T20:35:40Z</time>
      </trkpt>
      <trkpt lat="43.337401" lon="-1.753744">
        <ele>25.8</ele>
        <time>2020-08-12T20:35:46Z</time>
      </trkpt>
      <trkpt lat="43.338515" lon="-1.754772">
        <ele>9.0</ele>
        <time>2020-08-12T20:36:01Z</time>
      </trkpt>
      <trkpt lat="43.338672" lon="-1.754846">
        <ele>9.0</ele>
        <time>2020-08-12T20:36:04Z</time>
      </trkpt>
      <trkpt lat="43.338774" lon="-1.754799">
        <ele>9.0</ele>
        <time>2020-08-12T20:36:05Z</time>
      </trkpt>
      <trkpt lat="43.338888" lon="-1.754837">
        <ele>9.0</ele>
        <time>2020-08-12T20:36:07Z</time>
      </trkpt>
      <trkpt lat="43.338934" lon="-1.754889">
        <ele>9.0</ele>
        <time>2020-08-12T20:36:08Z</time>
      </trkpt>
      <trkpt lat="43.338968" lon="-1.754959">
        <ele>9.0</ele>
        <time>2020-08-12T20:36:08Z</time>
      </trkpt>
      <trkpt lat="43.338987" lon="-1.755054">
        <ele>15.2</ele>
        <time>2020-08-12T20:36:10Z</time>
      </trkpt>
      <trkpt lat="43.338979" lon="-1.755155">
        <ele>15.2</ele>
        <time>2020-08-12T20:36:11Z</time>
      </trkpt>
      <trkpt lat="43.338951" lon="-1.755235">
        <ele>15.2</ele>
        <time>2020-08-12T20:36:12Z</time>
      </trkpt>
      <trkpt lat="43.338897" lon="-1.755309">
        <ele>15.2</ele>
        <time>2020-08-12T20:36:13Z</time>
      </trkpt>
      <trkpt lat="43.338837" lon="-1.755346">
        <ele>15.2</ele>
        <time>2020-08-12T20:36:14Z</time>
      </trkpt>
      <trkpt lat="43.338757" lon="-1.755353">
        <ele>15.2</ele>
        <time>2020-08-12T20:36:15Z</time>
      </trkpt>
      <trkpt lat="43.338678" lon="-1.755313">
        <ele>15.2</ele>
        <time>2020-08-12T20:36:16Z</time>
      </trkpt>
      <trkpt lat="43.33854" lon="-1.755579">
        <ele>15.2</ele>
        <time>2020-08-12T20:36:20Z</time>
      </trkpt>
      <trkpt lat="43.338296" lon="-1.756112">
        <ele>39.4</ele>
        <time>2020-08-12T20:36:27Z</time>
      </trkpt>
      <trkpt lat="43.338281" lon="-1.756183">
        <ele>39.4</ele>
        <time>2020-08-12T20:36:27Z</time>
      </trkpt>
      <trkpt lat="43.338279" lon="-1.756358">
        <ele>39.4</ele>
        <time>2020-08-12T20:36:29Z</time>
      </trkpt>
      <trkpt lat="43.338298" lon="-1.756487">
        <ele>39.4</ele>
        <time>2020-08-12T20:36:31Z</time>
      </trkpt>
      <trkpt lat="43.338357" lon="-1.756592">
        <ele>18.2</ele>
        <time>2020-08-12T20:36:34Z</time>
      </trkpt>
      <trkpt lat="43.338439" lon="-1.756666">
        <ele>18.2</ele>
        <time>2020-08-12T20:36:35Z</time>
      </trkpt>
      <trkpt lat="43.33852" lon="-1.756707">
        <ele>20.6</ele>
        <time>2020-08-12T20:36:36Z</time>
      </trkpt>
      <trkpt lat="43.338625" lon="-1.756697">
        <ele>19.4</ele>
        <time>2020-08-12T20:36:38Z</time>
      </trkpt>
      <trkpt lat="43.338625" lon="-1.756697">
        <ele>19.4</ele>
        <time>2020-08-12T20:36:38Z</time>
      </trkpt>
      <trkpt lat="43.338708" lon="-1.75664">
        <ele>18.2</ele>
        <time>2020-08-12T20:36:38Z</time>
      </trkpt>
      <trkpt lat="43.338781" lon="-1.756559">
        <ele>18.2</ele>
        <time>2020-08-12T20:36:39Z</time>
      </trkpt>
      <trkpt lat="43.338854" lon="-1.756406">
        <ele>18.2</ele>
        <time>2020-08-12T20:36:39Z</time>
      </trkpt>
      <trkpt lat="43.338985" lon="-1.756041">
        <ele>18.2</ele>
        <time>2020-08-12T20:36:41Z</time>
      </trkpt>
      <trkpt lat="43.339217" lon="-1.755118">
        <ele>8.0</ele>
        <time>2020-08-12T20:36:44Z</time>
      </trkpt>
      <trkpt lat="43.340041" lon="-1.751453">
        <ele>8.0</ele>
        <time>2020-08-12T20:36:55Z</time>
      </trkpt>
      <trkpt lat="43.340321" lon="-1.750729">
        <ele>13.0</ele>
        <time>2020-08-12T20:36:58Z</time>
      </trkpt>
      <trkpt lat="43.340984" lon="-1.749389">
        <ele>16.4</ele>
        <time>2020-08-12T20:37:03Z</time>
      </trkpt>
      <trkpt lat="43.341327" lon="-1.748631">
        <ele>17.2</ele>
        <time>2020-08-12T20:37:06Z</time>
      </trkpt>
      <trkpt lat="43.341404" lon="-1.748338">
        <ele>17.2</ele>
        <time>2020-08-12T20:37:07Z</time>
      </trkpt>
      <trkpt lat="43.341448" lon="-1.747978">
        <ele>22.0</ele>
        <time>2020-08-12T20:37:08Z</time>
      </trkpt>
      <trkpt lat="43.341466" lon="-1.747596">
        <ele>22.0</ele>
        <time>2020-08-12T20:37:09Z</time>
      </trkpt>
      <trkpt lat="43.341417" lon="-1.746806">
        <ele>26.8</ele>
        <time>2020-08-12T20:37:11Z</time>
      </trkpt>
      <trkpt lat="43.340812" lon="-1.738314">
        <ele>87.0</ele>
        <time>2020-08-12T20:37:38Z</time>
      </trkpt>
      <trkpt lat="43.340838" lon="-1.736897">
        <ele>61.6</ele>
        <time>2020-08-12T20:37:42Z</time>
      </trkpt>
      <trkpt lat="43.340937" lon="-1.735458">
        <ele>75.4</ele>
        <time>2020-08-12T20:37:46Z</time>
      </trkpt>
      <trkpt lat="43.341007" lon="-1.733909">
        <ele>85.2</ele>
        <time>2020-08-12T20:37:51Z</time>
      </trkpt>
      <trkpt lat="43.340969" lon="-1.732614">
        <ele>88.2</ele>
        <time>2020-08-12T20:37:55Z</time>
      </trkpt>
      <trkpt lat="43.340983" lon="-1.731409">
        <ele>97.0</ele>
        <time>2020-08-12T20:37:59Z</time>
      </trkpt>
      <trkpt lat="43.341192" lon="-1.730082">
        <ele>102.2</ele>
        <time>2020-08-12T20:38:03Z</time>
      </trkpt>
      <trkpt lat="43.341545" lon="-1.728865">
        <ele>118.8</ele>
        <time>2020-08-12T20:38:07Z</time>
      </trkpt>
      <trkpt lat="43.34209" lon="-1.727254">
        <ele>107.4</ele>
        <time>2020-08-12T20:38:13Z</time>
      </trkpt>
      <trkpt lat="43.34283" lon="-1.725577">
        <ele>92.4</ele>
        <time>2020-08-12T20:38:19Z</time>
      </trkpt>
      <trkpt lat="43.34356" lon="-1.724218">
        <ele>94.4</ele>
        <time>2020-08-12T20:38:24Z</time>
      </trkpt>
      <trkpt lat="43.344171" lon="-1.723386">
        <ele>97.2</ele>
        <time>2020-08-12T20:38:27Z</time>
      </trkpt>
      <trkpt lat="43.344923" lon="-1.722644">
        <ele>84.0</ele>
        <time>2020-08-12T20:38:31Z</time>
      </trkpt>
      <trkpt lat="43.346088" lon="-1.721755">
        <ele>93.0</ele>
        <time>2020-08-12T20:38:37Z</time>
      </trkpt>
      <trkpt lat="43.346801" lon="-1.721164">
        <ele>81.2</ele>
        <time>2020-08-12T20:38:41Z</time>
      </trkpt>
      <trkpt lat="43.347609" lon="-1.720303">
        <ele>70.2</ele>
        <time>2020-08-12T20:38:45Z</time>
      </trkpt>
      <trkpt lat="43.348989" lon="-1.718568">
        <ele>58.2</ele>
        <time>2020-08-12T20:38:53Z</time>
      </trkpt>
      <trkpt lat="43.34984" lon="-1.717926">
        <ele>55.6</ele>
        <time>2020-08-12T20:38:57Z</time>
      </trkpt>
      <trkpt lat="43.350661" lon="-1.717655">
        <ele>56.8</ele>
        <time>2020-08-12T20:39:00Z</time>
      </trkpt>
      <trkpt lat="43.351434" lon="-1.717572">
        <ele>55.6</ele>
        <time>2020-08-12T20:39:04Z</time>
      </trkpt>
      <trkpt lat="43.353063" lon="-1.71753">
        <ele>46.8</ele>
        <time>2020-08-12T20:39:11Z</time>
      </trkpt>
      <trkpt lat="43.353852" lon="-1.717438">
        <ele>39.8</ele>
        <time>2020-08-12T20:39:14Z</time>
      </trkpt>
      <trkpt lat="43.354639" lon="-1.717198">
        <ele>37.4</ele>
        <time>2020-08-12T20:39:17Z</time>
      </trkpt>
      <trkpt lat="43.35532" lon="-1.716816">
        <ele>36.4</ele>
        <time>2020-08-12T20:39:20Z</time>
      </trkpt>
      <trkpt lat="43.356057" lon="-1.716184">
        <ele>36.8</ele>
        <time>2020-08-12T20:39:24Z</time>
      </trkpt>
      <trkpt lat="43.356723" lon="-1.715354">
        <ele>35.4</ele>
        <time>2020-08-12T20:39:28Z</time>
      </trkpt>
      <trkpt lat="43.357228" lon="-1.714474">
        <ele>32.8</ele>
        <time>2020-08-12T20:39:31Z</time>
      </trkpt>
      <trkpt lat="43.357715" lon="-1.713221">
        <ele>31.6</ele>
        <time>2020-08-12T20:39:36Z</time>
      </trkpt>
      <trkpt lat="43.358176" lon="-1.711095">
        <ele>29.6</ele>
        <time>2020-08-12T20:39:42Z</time>
      </trkpt>
      <trkpt lat="43.358435" lon="-1.709565">
        <ele>27.8</ele>
        <time>2020-08-12T20:39:47Z</time>
      </trkpt>
      <trkpt lat="43.358521" lon="-1.708308">
        <ele>25.2</ele>
        <time>2020-08-12T20:39:51Z</time>
      </trkpt>
      <trkpt lat="43.3585" lon="-1.707025">
        <ele>24.6</ele>
        <time>2020-08-12T20:39:55Z</time>
      </trkpt>
      <trkpt lat="43.358424" lon="-1.705664">
        <ele>25.6</ele>
        <time>2020-08-12T20:39:59Z</time>
      </trkpt>
      <trkpt lat="43.358393" lon="-1.704157">
        <ele>23.6</ele>
        <time>2020-08-12T20:40:04Z</time>
      </trkpt>
      <trkpt lat="43.358421" lon="-1.703264">
        <ele>21.2</ele>
        <time>2020-08-12T20:40:07Z</time>
      </trkpt>
      <trkpt lat="43.358581" lon="-1.701389">
        <ele>22.0</ele>
        <time>2020-08-12T20:40:12Z</time>
      </trkpt>
      <trkpt lat="43.358725" lon="-1.700669">
        <ele>19.6</ele>
        <time>2020-08-12T20:40:15Z</time>
      </trkpt>
      <trkpt lat="43.359134" lon="-1.698951">
        <ele>18.4</ele>
        <time>2020-08-12T20:40:20Z</time>
      </trkpt>
      <trkpt lat="43.359358" lon="-1.698204">
        <ele>15.8</ele>
        <time>2020-08-12T20:40:23Z</time>
      </trkpt>
      <trkpt lat="43.359666" lon="-1.697337">
        <ele>16.2</ele>
        <time>2020-08-12T20:40:26Z</time>
      </trkpt>
      <trkpt lat="43.360404" lon="-1.695484">
        <ele>14.4</ele>
        <time>2020-08-12T20:40:32Z</time>
      </trkpt>
      <trkpt lat="43.361347" lon="-1.693584">
        <ele>12.6</ele>
        <time>2020-08-12T20:40:39Z</time>
      </trkpt>
      <trkpt lat="43.361828" lon="-1.692706">
        <ele>11.6</ele>
        <time>2020-08-12T20:40:42Z</time>
      </trkpt>
      <trkpt lat="43.362458" lon="-1.691633">
        <ele>15.0</ele>
        <time>2020-08-12T20:40:47Z</time>
      </trkpt>
      <trkpt lat="43.363489" lon="-1.690151">
        <ele>19.2</ele>
        <time>2020-08-12T20:40:53Z</time>
      </trkpt>
      <trkpt lat="43.366788" lon="-1.685831">
        <ele>22.0</ele>
        <time>2020-08-12T20:41:12Z</time>
      </trkpt>
      <trkpt lat="43.368091" lon="-1.683933">
        <ele>23.4</ele>
        <time>2020-08-12T20:41:20Z</time>
      </trkpt>
      <trkpt lat="43.369108" lon="-1.682284">
        <ele>17.2</ele>
        <time>2020-08-12T20:41:27Z</time>
      </trkpt>
      <trkpt lat="43.370014" lon="-1.680727">
        <ele>13.0</ele>
        <time>2020-08-12T20:41:33Z</time>
      </trkpt>
      <trkpt lat="43.370418" lon="-1.679911">
        <ele>13.2</ele>
        <time>2020-08-12T20:41:36Z</time>
      </trkpt>
      <trkpt lat="43.370829" lon="-1.679022">
        <ele>12.8</ele>
        <time>2020-08-12T20:41:39Z</time>
      </trkpt>
      <trkpt lat="43.371191" lon="-1.678096">
        <ele>19.6</ele>
        <time>2020-08-12T20:41:42Z</time>
      </trkpt>
      <trkpt lat="43.371649" lon="-1.676866">
        <ele>22.2</ele>
        <time>2020-08-12T20:41:47Z</time>
      </trkpt>
      <trkpt lat="43.372115" lon="-1.67571">
        <ele>27.0</ele>
        <time>2020-08-12T20:41:51Z</time>
      </trkpt>
      <trkpt lat="43.372562" lon="-1.674398">
        <ele>30.6</ele>
        <time>2020-08-12T20:41:55Z</time>
      </trkpt>
      <trkpt lat="43.374182" lon="-1.669839">
        <ele>33.2</ele>
        <time>2020-08-12T20:42:11Z</time>
      </trkpt>
      <trkpt lat="43.374508" lon="-1.668746">
        <ele>32.8</ele>
        <time>2020-08-12T20:42:14Z</time>
      </trkpt>
      <trkpt lat="43.37472" lon="-1.667634">
        <ele>33.0</ele>
        <time>2020-08-12T20:42:18Z</time>
      </trkpt>
      <trkpt lat="43.374882" lon="-1.666348">
        <ele>40.8</ele>
        <time>2020-08-12T20:42:22Z</time>
      </trkpt>
      <trkpt lat="43.374892" lon="-1.665188">
        <ele>41.6</ele>
        <time>2020-08-12T20:42:25Z</time>
      </trkpt>
      <trkpt lat="43.374812" lon="-1.663959">
        <ele>30.4</ele>
        <time>2020-08-12T20:42:29Z</time>
      </trkpt>
      <trkpt lat="43.374631" lon="-1.662748">
        <ele>22.6</ele>
        <time>2020-08-12T20:42:33Z</time>
      </trkpt>
      <trkpt lat="43.374381" lon="-1.661533">
        <ele>27.6</ele>
        <time>2020-08-12T20:42:37Z</time>
      </trkpt>
      <trkpt lat="43.374049" lon="-1.66043">
        <ele>34.8</ele>
        <time>2020-08-12T20:42:40Z</time>
      </trkpt>
      <trkpt lat="43.373769" lon="-1.65929">
        <ele>38.0</ele>
        <time>2020-08-12T20:42:44Z</time>
      </trkpt>
      <trkpt lat="43.37356" lon="-1.658113">
        <ele>38.2</ele>
        <time>2020-08-12T20:42:48Z</time>
      </trkpt>
      <trkpt lat="43.373434" lon="-1.657076">
        <ele>37.8</ele>
        <time>2020-08-12T20:42:51Z</time>
      </trkpt>
      <trkpt lat="43.373397" lon="-1.656559">
        <ele>35.2</ele>
        <time>2020-08-12T20:42:53Z</time>
      </trkpt>
      <trkpt lat="43.373409" lon="-1.655741">
        <ele>31.8</ele>
        <time>2020-08-12T20:42:55Z</time>
      </trkpt>
      <trkpt lat="43.373451" lon="-1.655073">
        <ele>31.8</ele>
        <time>2020-08-12T20:42:57Z</time>
      </trkpt>
      <trkpt lat="43.373571" lon="-1.654233">
        <ele>27.8</ele>
        <time>2020-08-12T20:43:00Z</time>
      </trkpt>
      <trkpt lat="43.373712" lon="-1.653472">
        <ele>23.0</ele>
        <time>2020-08-12T20:43:02Z</time>
      </trkpt>
      <trkpt lat="43.373867" lon="-1.652789">
        <ele>20.6</ele>
        <time>2020-08-12T20:43:04Z</time>
      </trkpt>
      <trkpt lat="43.374162" lon="-1.651868">
        <ele>18.0</ele>
        <time>2020-08-12T20:43:08Z</time>
      </trkpt>
      <trkpt lat="43.374527" lon="-1.650929">
        <ele>16.0</ele>
        <time>2020-08-12T20:43:11Z</time>
      </trkpt>
      <trkpt lat="43.375026" lon="-1.650018">
        <ele>16.2</ele>
        <time>2020-08-12T20:43:14Z</time>
      </trkpt>
      <trkpt lat="43.375597" lon="-1.649161">
        <ele>14.4</ele>
        <time>2020-08-12T20:43:18Z</time>
      </trkpt>
      <trkpt lat="43.377165" lon="-1.647242">
        <ele>5.6</ele>
        <time>2020-08-12T20:43:27Z</time>
      </trkpt>
      <trkpt lat="43.378125" lon="-1.646289">
        <ele>5.2</ele>
        <time>2020-08-12T20:43:32Z</time>
      </trkpt>
      <trkpt lat="43.379218" lon="-1.645455">
        <ele>3.4</ele>
        <time>2020-08-12T20:43:37Z</time>
      </trkpt>
      <trkpt lat="43.380142" lon="-1.64495">
        <ele>2.8</ele>
        <time>2020-08-12T20:43:41Z</time>
      </trkpt>
      <trkpt lat="43.380903" lon="-1.644583">
        <ele>4.0</ele>
        <time>2020-08-12T20:43:44Z</time>
      </trkpt>
      <trkpt lat="43.381867" lon="-1.644256">
        <ele>5.6</ele>
        <time>2020-08-12T20:43:49Z</time>
      </trkpt>
      <trkpt lat="43.383172" lon="-1.643859">
        <ele>7.2</ele>
        <time>2020-08-12T20:43:54Z</time>
      </trkpt>
      <trkpt lat="43.383901" lon="-1.64355">
        <ele>12.8</ele>
        <time>2020-08-12T20:43:58Z</time>
      </trkpt>
      <trkpt lat="43.384918" lon="-1.643074">
        <ele>15.8</ele>
        <time>2020-08-12T20:44:02Z</time>
      </trkpt>
      <trkpt lat="43.387572" lon="-1.641547">
        <ele>31.2</ele>
        <time>2020-08-12T20:44:14Z</time>
      </trkpt>
      <trkpt lat="43.388632" lon="-1.640909">
        <ele>36.2</ele>
        <time>2020-08-12T20:44:19Z</time>
      </trkpt>
      <trkpt lat="43.389323" lon="-1.640441">
        <ele>40.6</ele>
        <time>2020-08-12T20:44:22Z</time>
      </trkpt>
      <trkpt lat="43.39135" lon="-1.638838">
        <ele>49.6</ele>
        <time>2020-08-12T20:44:32Z</time>
      </trkpt>
      <trkpt lat="43.392309" lon="-1.638188">
        <ele>53.2</ele>
        <time>2020-08-12T20:44:37Z</time>
      </trkpt>
      <trkpt lat="43.393413" lon="-1.637642">
        <ele>49.2</ele>
        <time>2020-08-12T20:44:42Z</time>
      </trkpt>
      <trkpt lat="43.394129" lon="-1.637447">
        <ele>53.6</ele>
        <time>2020-08-12T20:44:45Z</time>
      </trkpt>
      <trkpt lat="43.394995" lon="-1.637256">
        <ele>47.6</ele>
        <time>2020-08-12T20:44:48Z</time>
      </trkpt>
      <trkpt lat="43.396489" lon="-1.637099">
        <ele>42.2</ele>
        <time>2020-08-12T20:44:55Z</time>
      </trkpt>
      <trkpt lat="43.397019" lon="-1.637027">
        <ele>36.4</ele>
        <time>2020-08-12T20:44:57Z</time>
      </trkpt>
      <trkpt lat="43.397627" lon="-1.636913">
        <ele>32.6</ele>
        <time>2020-08-12T20:45:00Z</time>
      </trkpt>
      <trkpt lat="43.398236" lon="-1.636764">
        <ele>32.6</ele>
        <time>2020-08-12T20:45:02Z</time>
      </trkpt>
      <trkpt lat="43.399059" lon="-1.636452">
        <ele>36.2</ele>
        <time>2020-08-12T20:45:06Z</time>
      </trkpt>
      <trkpt lat="43.399984" lon="-1.635975">
        <ele>34.8</ele>
        <time>2020-08-12T20:45:10Z</time>
      </trkpt>
      <trkpt lat="43.400867" lon="-1.635327">
        <ele>27.4</ele>
        <time>2020-08-12T20:45:14Z</time>
      </trkpt>
      <trkpt lat="43.401569" lon="-1.634707">
        <ele>28.0</ele>
        <time>2020-08-12T20:45:18Z</time>
      </trkpt>
      <trkpt lat="43.402297" lon="-1.633938">
        <ele>23.6</ele>
        <time>2020-08-12T20:45:22Z</time>
      </trkpt>
      <trkpt lat="43.402961" lon="-1.633109">
        <ele>19.8</ele>
        <time>2020-08-12T20:45:25Z</time>
      </trkpt>
      <trkpt lat="43.403665" lon="-1.632171">
        <ele>17.2</ele>
        <time>2020-08-12T20:45:29Z</time>
      </trkpt>
      <trkpt lat="43.404687" lon="-1.630539">
        <ele>12.4</ele>
        <time>2020-08-12T20:45:36Z</time>
      </trkpt>
      <trkpt lat="43.406258" lon="-1.627532">
        <ele>13.0</ele>
        <time>2020-08-12T20:45:47Z</time>
      </trkpt>
      <trkpt lat="43.407401" lon="-1.625196">
        <ele>15.4</ele>
        <time>2020-08-12T20:45:56Z</time>
      </trkpt>
      <trkpt lat="43.407911" lon="-1.624287">
        <ele>17.6</ele>
        <time>2020-08-12T20:45:59Z</time>
      </trkpt>
      <trkpt lat="43.409684" lon="-1.621487">
        <ele>24.2</ele>
        <time>2020-08-12T20:46:11Z</time>
      </trkpt>
      <trkpt lat="43.409985" lon="-1.620908">
        <ele>24.2</ele>
        <time>2020-08-12T20:46:13Z</time>
      </trkpt>
      <trkpt lat="43.410323" lon="-1.620206">
        <ele>31.4</ele>
        <time>2020-08-12T20:46:16Z</time>
      </trkpt>
      <trkpt lat="43.410606" lon="-1.619549">
        <ele>29.8</ele>
        <time>2020-08-12T20:46:18Z</time>
      </trkpt>
      <trkpt lat="43.411504" lon="-1.617139">
        <ele>30.8</ele>
        <time>2020-08-12T20:46:26Z</time>
      </trkpt>
      <trkpt lat="43.411763" lon="-1.616536">
        <ele>36.2</ele>
        <time>2020-08-12T20:46:28Z</time>
      </trkpt>
      <trkpt lat="43.412051" lon="-1.615979">
        <ele>36.2</ele>
        <time>2020-08-12T20:46:30Z</time>
      </trkpt>
      <trkpt lat="43.41247" lon="-1.615239">
        <ele>35.8</ele>
        <time>2020-08-12T20:46:33Z</time>
      </trkpt>
      <trkpt lat="43.414381" lon="-1.612323">
        <ele>40.2</ele>
        <time>2020-08-12T20:46:45Z</time>
      </trkpt>
      <trkpt lat="43.414661" lon="-1.611809">
        <ele>40.2</ele>
        <time>2020-08-12T20:46:47Z</time>
      </trkpt>
      <trkpt lat="43.414932" lon="-1.611218">
        <ele>43.0</ele>
        <time>2020-08-12T20:46:49Z</time>
      </trkpt>
      <trkpt lat="43.415185" lon="-1.610524">
        <ele>34.2</ele>
        <time>2020-08-12T20:46:52Z</time>
      </trkpt>
      <trkpt lat="43.4154" lon="-1.609795">
        <ele>36.4</ele>
        <time>2020-08-12T20:46:54Z</time>
      </trkpt>
      <trkpt lat="43.41599" lon="-1.607563">
        <ele>36.0</ele>
        <time>2020-08-12T20:47:02Z</time>
      </trkpt>
      <trkpt lat="43.416258" lon="-1.606605">
        <ele>54.0</ele>
        <time>2020-08-12T20:47:05Z</time>
      </trkpt>
      <trkpt lat="43.416628" lon="-1.605625">
        <ele>59.6</ele>
        <time>2020-08-12T20:47:08Z</time>
      </trkpt>
      <trkpt lat="43.417046" lon="-1.604796">
        <ele>57.8</ele>
        <time>2020-08-12T20:47:11Z</time>
      </trkpt>
      <trkpt lat="43.417608" lon="-1.603817">
        <ele>63.4</ele>
        <time>2020-08-12T20:47:15Z</time>
      </trkpt>
      <trkpt lat="43.418712" lon="-1.601978">
        <ele>52.2</ele>
        <time>2020-08-12T20:47:22Z</time>
      </trkpt>
      <trkpt lat="43.419313" lon="-1.601165">
        <ele>47.4</ele>
        <time>2020-08-12T20:47:26Z</time>
      </trkpt>
      <trkpt lat="43.41985" lon="-1.600549">
        <ele>53.0</ele>
        <time>2020-08-12T20:47:29Z</time>
      </trkpt>
      <trkpt lat="43.420178" lon="-1.600237">
        <ele>46.4</ele>
        <time>2020-08-12T20:47:31Z</time>
      </trkpt>
      <trkpt lat="43.421772" lon="-1.598593">
        <ele>38.8</ele>
        <time>2020-08-12T20:47:39Z</time>
      </trkpt>
      <trkpt lat="43.422205" lon="-1.598114">
        <ele>41.8</ele>
        <time>2020-08-12T20:47:41Z</time>
      </trkpt>
      <trkpt lat="43.422625" lon="-1.597611">
        <ele>39.8</ele>
        <time>2020-08-12T20:47:44Z</time>
      </trkpt>
      <trkpt lat="43.422933" lon="-1.597202">
        <ele>41.2</ele>
        <time>2020-08-12T20:47:45Z</time>
      </trkpt>
      <trkpt lat="43.423523" lon="-1.596363">
        <ele>38.0</ele>
        <time>2020-08-12T20:47:49Z</time>
      </trkpt>
      <trkpt lat="43.424146" lon="-1.595341">
        <ele>32.2</ele>
        <time>2020-08-12T20:47:53Z</time>
      </trkpt>
      <trkpt lat="43.424529" lon="-1.594634">
        <ele>24.2</ele>
        <time>2020-08-12T20:47:56Z</time>
      </trkpt>
      <trkpt lat="43.426646" lon="-1.590572">
        <ele>23.2</ele>
        <time>2020-08-12T20:48:11Z</time>
      </trkpt>
      <trkpt lat="43.427223" lon="-1.589535">
        <ele>17.8</ele>
        <time>2020-08-12T20:48:15Z</time>
      </trkpt>
      <trkpt lat="43.427458" lon="-1.589168">
        <ele>17.8</ele>
        <time>2020-08-12T20:48:17Z</time>
      </trkpt>
      <trkpt lat="43.4286" lon="-1.587585">
        <ele>9.8</ele>
        <time>2020-08-12T20:48:23Z</time>
      </trkpt>
      <trkpt lat="43.429314" lon="-1.586483">
        <ele>7.8</ele>
        <time>2020-08-12T20:48:28Z</time>
      </trkpt>
      <trkpt lat="43.429841" lon="-1.585423">
        <ele>7.6</ele>
        <time>2020-08-12T20:48:32Z</time>
      </trkpt>
      <trkpt lat="43.430237" lon="-1.584398">
        <ele>6.8</ele>
        <time>2020-08-12T20:48:35Z</time>
      </trkpt>
      <trkpt lat="43.430551" lon="-1.583383">
        <ele>8.0</ele>
        <time>2020-08-12T20:48:39Z</time>
      </trkpt>
      <trkpt lat="43.431716" lon="-1.57885">
        <ele>7.4</ele>
        <time>2020-08-12T20:48:54Z</time>
      </trkpt>
      <trkpt lat="43.432045" lon="-1.577704">
        <ele>7.0</ele>
        <time>2020-08-12T20:48:57Z</time>
      </trkpt>
      <trkpt lat="43.432419" lon="-1.57668">
        <ele>6.4</ele>
        <time>2020-08-12T20:49:01Z</time>
      </trkpt>
      <trkpt lat="43.432807" lon="-1.57583">
        <ele>6.8</ele>
        <time>2020-08-12T20:49:04Z</time>
      </trkpt>
      <trkpt lat="43.433331" lon="-1.574913">
        <ele>7.0</ele>
        <time>2020-08-12T20:49:07Z</time>
      </trkpt>
      <trkpt lat="43.433818" lon="-1.574201">
        <ele>9.2</ele>
        <time>2020-08-12T20:49:10Z</time>
      </trkpt>
      <trkpt lat="43.434255" lon="-1.573663">
        <ele>12.0</ele>
        <time>2020-08-12T20:49:13Z</time>
      </trkpt>
      <trkpt lat="43.434807" lon="-1.573077">
        <ele>12.0</ele>
        <time>2020-08-12T20:49:16Z</time>
      </trkpt>
      <trkpt lat="43.435402" lon="-1.572554">
        <ele>13.6</ele>
        <time>2020-08-12T20:49:19Z</time>
      </trkpt>
      <trkpt lat="43.43759" lon="-1.571012">
        <ele>20.6</ele>
        <time>2020-08-12T20:49:29Z</time>
      </trkpt>
      <trkpt lat="43.438087" lon="-1.570585">
        <ele>20.4</ele>
        <time>2020-08-12T20:49:32Z</time>
      </trkpt>
      <trkpt lat="43.439561" lon="-1.569058">
        <ele>23.4</ele>
        <time>2020-08-12T20:49:39Z</time>
      </trkpt>
      <trkpt lat="43.440337" lon="-1.568324">
        <ele>21.2</ele>
        <time>2020-08-12T20:49:43Z</time>
      </trkpt>
      <trkpt lat="43.441105" lon="-1.567739">
        <ele>24.4</ele>
        <time>2020-08-12T20:49:47Z</time>
      </trkpt>
      <trkpt lat="43.441883" lon="-1.567256">
        <ele>23.2</ele>
        <time>2020-08-12T20:49:51Z</time>
      </trkpt>
      <trkpt lat="43.443557" lon="-1.56643">
        <ele>28.2</ele>
        <time>2020-08-12T20:49:58Z</time>
      </trkpt>
      <trkpt lat="43.4442" lon="-1.566006">
        <ele>30.6</ele>
        <time>2020-08-12T20:50:01Z</time>
      </trkpt>
      <trkpt lat="43.444911" lon="-1.565451">
        <ele>29.8</ele>
        <time>2020-08-12T20:50:05Z</time>
      </trkpt>
      <trkpt lat="43.445494" lon="-1.564897">
        <ele>33.4</ele>
        <time>2020-08-12T20:50:08Z</time>
      </trkpt>
      <trkpt lat="43.446199" lon="-1.564094">
        <ele>40.2</ele>
        <time>2020-08-12T20:50:11Z</time>
      </trkpt>
      <trkpt lat="43.446715" lon="-1.563372">
        <ele>50.6</ele>
        <time>2020-08-12T20:50:15Z</time>
      </trkpt>
      <trkpt lat="43.447163" lon="-1.562639">
        <ele>48.4</ele>
        <time>2020-08-12T20:50:18Z</time>
      </trkpt>
      <trkpt lat="43.447571" lon="-1.561827">
        <ele>54.2</ele>
        <time>2020-08-12T20:50:21Z</time>
      </trkpt>
      <trkpt lat="43.447852" lon="-1.561138">
        <ele>52.2</ele>
        <time>2020-08-12T20:50:23Z</time>
      </trkpt>
      <trkpt lat="43.448101" lon="-1.560389">
        <ele>54.2</ele>
        <time>2020-08-12T20:50:25Z</time>
      </trkpt>
      <trkpt lat="43.448271" lon="-1.559802">
        <ele>59.4</ele>
        <time>2020-08-12T20:50:27Z</time>
      </trkpt>
      <trkpt lat="43.448433" lon="-1.559084">
        <ele>65.2</ele>
        <time>2020-08-12T20:50:30Z</time>
      </trkpt>
      <trkpt lat="43.448547" lon="-1.558416">
        <ele>65.2</ele>
        <time>2020-08-12T20:50:32Z</time>
      </trkpt>
      <trkpt lat="43.448689" lon="-1.556834">
        <ele>67.8</ele>
        <time>2020-08-12T20:50:37Z</time>
      </trkpt>
      <trkpt lat="43.448709" lon="-1.556051">
        <ele>69.4</ele>
        <time>2020-08-12T20:50:39Z</time>
      </trkpt>
      <trkpt lat="43.448607" lon="-1.554807">
        <ele>68.4</ele>
        <time>2020-08-12T20:50:43Z</time>
      </trkpt>
      <trkpt lat="43.448417" lon="-1.55336">
        <ele>68.2</ele>
        <time>2020-08-12T20:50:47Z</time>
      </trkpt>
      <trkpt lat="43.448305" lon="-1.551494">
        <ele>58.6</ele>
        <time>2020-08-12T20:50:53Z</time>
      </trkpt>
      <trkpt lat="43.447942" lon="-1.548729">
        <ele>47.6</ele>
        <time>2020-08-12T20:51:02Z</time>
      </trkpt>
      <trkpt lat="43.447259" lon="-1.544846">
        <ele>51.6</ele>
        <time>2020-08-12T20:51:14Z</time>
      </trkpt>
      <trkpt lat="43.447101" lon="-1.543658">
        <ele>51.4</ele>
        <time>2020-08-12T20:51:18Z</time>
      </trkpt>
      <trkpt lat="43.447059" lon="-1.542851">
        <ele>49.4</ele>
        <time>2020-08-12T20:51:20Z</time>
      </trkpt>
      <trkpt lat="43.447064" lon="-1.542067">
        <ele>45.4</ele>
        <time>2020-08-12T20:51:23Z</time>
      </trkpt>
      <trkpt lat="43.447136" lon="-1.541065">
        <ele>41.4</ele>
        <time>2020-08-12T20:51:26Z</time>
      </trkpt>
      <trkpt lat="43.447294" lon="-1.540024">
        <ele>39.2</ele>
        <time>2020-08-12T20:51:29Z</time>
      </trkpt>
      <trkpt lat="43.447497" lon="-1.539121">
        <ele>43.2</ele>
        <time>2020-08-12T20:51:32Z</time>
      </trkpt>
      <trkpt lat="43.447724" lon="-1.538371">
        <ele>52.6</ele>
        <time>2020-08-12T20:51:34Z</time>
      </trkpt>
      <trkpt lat="43.448012" lon="-1.537656">
        <ele>54.6</ele>
        <time>2020-08-12T20:51:37Z</time>
      </trkpt>
      <trkpt lat="43.448335" lon="-1.536979">
        <ele>64.6</ele>
        <time>2020-08-12T20:51:39Z</time>
      </trkpt>
      <trkpt lat="43.448698" lon="-1.536336">
        <ele>58.2</ele>
        <time>2020-08-12T20:51:42Z</time>
      </trkpt>
      <trkpt lat="43.449173" lon="-1.535651">
        <ele>60.0</ele>
        <time>2020-08-12T20:51:45Z</time>
      </trkpt>
      <trkpt lat="43.449637" lon="-1.5351">
        <ele>60.0</ele>
        <time>2020-08-12T20:51:47Z</time>
      </trkpt>
      <trkpt lat="43.450963" lon="-1.533661">
        <ele>75.2</ele>
        <time>2020-08-12T20:51:54Z</time>
      </trkpt>
      <trkpt lat="43.451508" lon="-1.532999">
        <ele>76.4</ele>
        <time>2020-08-12T20:51:57Z</time>
      </trkpt>
      <trkpt lat="43.452043" lon="-1.53231">
        <ele>79.8</ele>
        <time>2020-08-12T20:52:01Z</time>
      </trkpt>
      <trkpt lat="43.452485" lon="-1.531673">
        <ele>79.8</ele>
        <time>2020-08-12T20:52:03Z</time>
      </trkpt>
      <trkpt lat="43.452823" lon="-1.531136">
        <ele>82.2</ele>
        <time>2020-08-12T20:52:05Z</time>
      </trkpt>
      <trkpt lat="43.453321" lon="-1.530249">
        <ele>82.2</ele>
        <time>2020-08-12T20:52:09Z</time>
      </trkpt>
      <trkpt lat="43.453843" lon="-1.529182">
        <ele>81.6</ele>
        <time>2020-08-12T20:52:13Z</time>
      </trkpt>
      <trkpt lat="43.45432" lon="-1.528019">
        <ele>77.8</ele>
        <time>2020-08-12T20:52:17Z</time>
      </trkpt>
      <trkpt lat="43.455029" lon="-1.526128">
        <ele>74.4</ele>
        <time>2020-08-12T20:52:23Z</time>
      </trkpt>
      <trkpt lat="43.455343" lon="-1.525386">
        <ele>71.2</ele>
        <time>2020-08-12T20:52:26Z</time>
      </trkpt>
      <trkpt lat="43.455714" lon="-1.524625">
        <ele>70.2</ele>
        <time>2020-08-12T20:52:29Z</time>
      </trkpt>
      <trkpt lat="43.456142" lon="-1.523872">
        <ele>64.4</ele>
        <time>2020-08-12T20:52:32Z</time>
      </trkpt>
      <trkpt lat="43.456688" lon="-1.523062">
        <ele>59.8</ele>
        <time>2020-08-12T20:52:35Z</time>
      </trkpt>
      <trkpt lat="43.457305" lon="-1.522287">
        <ele>58.0</ele>
        <time>2020-08-12T20:52:39Z</time>
      </trkpt>
      <trkpt lat="43.458496" lon="-1.520942">
        <ele>45.6</ele>
        <time>2020-08-12T20:52:45Z</time>
      </trkpt>
      <trkpt lat="43.459038" lon="-1.520238">
        <ele>44.4</ele>
        <time>2020-08-12T20:52:48Z</time>
      </trkpt>
      <trkpt lat="43.459527" lon="-1.519519">
        <ele>41.8</ele>
        <time>2020-08-12T20:52:51Z</time>
      </trkpt>
      <trkpt lat="43.459977" lon="-1.51872">
        <ele>43.4</ele>
        <time>2020-08-12T20:52:54Z</time>
      </trkpt>
      <trkpt lat="43.460286" lon="-1.518064">
        <ele>44.0</ele>
        <time>2020-08-12T20:52:57Z</time>
      </trkpt>
      <trkpt lat="43.460651" lon="-1.517194">
        <ele>45.0</ele>
        <time>2020-08-12T20:53:00Z</time>
      </trkpt>
      <trkpt lat="43.460881" lon="-1.516504">
        <ele>41.0</ele>
        <time>2020-08-12T20:53:02Z</time>
      </trkpt>
      <trkpt lat="43.461081" lon="-1.515765">
        <ele>40.6</ele>
        <time>2020-08-12T20:53:05Z</time>
      </trkpt>
      <trkpt lat="43.461249" lon="-1.514975">
        <ele>38.0</ele>
        <time>2020-08-12T20:53:07Z</time>
      </trkpt>
      <trkpt lat="43.461369" lon="-1.514233">
        <ele>38.0</ele>
        <time>2020-08-12T20:53:09Z</time>
      </trkpt>
      <trkpt lat="43.461474" lon="-1.513412">
        <ele>35.4</ele>
        <time>2020-08-12T20:53:12Z</time>
      </trkpt>
      <trkpt lat="43.46152" lon="-1.5126">
        <ele>32.8</ele>
        <time>2020-08-12T20:53:14Z</time>
      </trkpt>
      <trkpt lat="43.461528" lon="-1.511339">
        <ele>33.0</ele>
        <time>2020-08-12T20:53:18Z</time>
      </trkpt>
      <trkpt lat="43.461419" lon="-1.507411">
        <ele>36.4</ele>
        <time>2020-08-12T20:53:30Z</time>
      </trkpt>
      <trkpt lat="43.461367" lon="-1.506181">
        <ele>34.6</ele>
        <time>2020-08-12T20:53:34Z</time>
      </trkpt>
      <trkpt lat="43.461212" lon="-1.504009">
        <ele>34.0</ele>
        <time>2020-08-12T20:53:41Z</time>
      </trkpt>
      <trkpt lat="43.460885" lon="-1.500046">
        <ele>29.0</ele>
        <time>2020-08-12T20:53:53Z</time>
      </trkpt>
      <trkpt lat="43.460798" lon="-1.498714">
        <ele>31.0</ele>
        <time>2020-08-12T20:53:57Z</time>
      </trkpt>
      <trkpt lat="43.460777" lon="-1.498035">
        <ele>31.0</ele>
        <time>2020-08-12T20:53:59Z</time>
      </trkpt>
      <trkpt lat="43.460798" lon="-1.497155">
        <ele>30.0</ele>
        <time>2020-08-12T20:54:02Z</time>
      </trkpt>
      <trkpt lat="43.460859" lon="-1.496369">
        <ele>25.6</ele>
        <time>2020-08-12T20:54:04Z</time>
      </trkpt>
      <trkpt lat="43.460941" lon="-1.495775">
        <ele>24.4</ele>
        <time>2020-08-12T20:54:06Z</time>
      </trkpt>
      <trkpt lat="43.461107" lon="-1.495003">
        <ele>24.4</ele>
        <time>2020-08-12T20:54:09Z</time>
      </trkpt>
      <trkpt lat="43.461286" lon="-1.494303">
        <ele>24.4</ele>
        <time>2020-08-12T20:54:11Z</time>
      </trkpt>
      <trkpt lat="43.461735" lon="-1.492681">
        <ele>27.2</ele>
        <time>2020-08-12T20:54:16Z</time>
      </trkpt>
      <trkpt lat="43.462455" lon="-1.49028">
        <ele>31.0</ele>
        <time>2020-08-12T20:54:24Z</time>
      </trkpt>
      <trkpt lat="43.463171" lon="-1.488054">
        <ele>21.8</ele>
        <time>2020-08-12T20:54:32Z</time>
      </trkpt>
      <trkpt lat="43.463522" lon="-1.487172">
        <ele>9.2</ele>
        <time>2020-08-12T20:54:35Z</time>
      </trkpt>
      <trkpt lat="43.463868" lon="-1.486372">
        <ele>7.4</ele>
        <time>2020-08-12T20:54:38Z</time>
      </trkpt>
      <trkpt lat="43.466019" lon="-1.482104">
        <ele>3.4</ele>
        <time>2020-08-12T20:54:53Z</time>
      </trkpt>
      <trkpt lat="43.468272" lon="-1.477722">
        <ele>2.4</ele>
        <time>2020-08-12T20:55:10Z</time>
      </trkpt>
      <trkpt lat="43.468812" lon="-1.476344">
        <ele>1.2</ele>
        <time>2020-08-12T20:55:15Z</time>
      </trkpt>
      <trkpt lat="43.469241" lon="-1.475002">
        <ele>1.2</ele>
        <time>2020-08-12T20:55:19Z</time>
      </trkpt>
      <trkpt lat="43.46956" lon="-1.473618">
        <ele>1.4</ele>
        <time>2020-08-12T20:55:24Z</time>
      </trkpt>
      <trkpt lat="43.469745" lon="-1.472373">
        <ele>3.4</ele>
        <time>2020-08-12T20:55:27Z</time>
      </trkpt>
      <trkpt lat="43.469832" lon="-1.471422">
        <ele>4.8</ele>
        <time>2020-08-12T20:55:30Z</time>
      </trkpt>
      <trkpt lat="43.469891" lon="-1.469703">
        <ele>11.4</ele>
        <time>2020-08-12T20:55:36Z</time>
      </trkpt>
      <trkpt lat="43.469963" lon="-1.468175">
        <ele>29.8</ele>
        <time>2020-08-12T20:55:40Z</time>
      </trkpt>
      <trkpt lat="43.470111" lon="-1.467012">
        <ele>24.6</ele>
        <time>2020-08-12T20:55:44Z</time>
      </trkpt>
      <trkpt lat="43.470402" lon="-1.465887">
        <ele>25.2</ele>
        <time>2020-08-12T20:55:48Z</time>
      </trkpt>
      <trkpt lat="43.470828" lon="-1.464809">
        <ele>32.6</ele>
        <time>2020-08-12T20:55:51Z</time>
      </trkpt>
      <trkpt lat="43.471401" lon="-1.463745">
        <ele>18.4</ele>
        <time>2020-08-12T20:55:55Z</time>
      </trkpt>
      <trkpt lat="43.472544" lon="-1.462003">
        <ele>4.6</ele>
        <time>2020-08-12T20:56:03Z</time>
      </trkpt>
      <trkpt lat="43.473156" lon="-1.4609">
        <ele>5.4</ele>
        <time>2020-08-12T20:56:07Z</time>
      </trkpt>
      <trkpt lat="43.473553" lon="-1.459986">
        <ele>14.8</ele>
        <time>2020-08-12T20:56:10Z</time>
      </trkpt>
      <trkpt lat="43.473878" lon="-1.458925">
        <ele>14.2</ele>
        <time>2020-08-12T20:56:14Z</time>
      </trkpt>
      <trkpt lat="43.474534" lon="-1.455402">
        <ele>35.0</ele>
        <time>2020-08-12T20:56:25Z</time>
      </trkpt>
      <trkpt lat="43.474725" lon="-1.454636">
        <ele>35.0</ele>
        <time>2020-08-12T20:56:27Z</time>
      </trkpt>
      <trkpt lat="43.475173" lon="-1.453348">
        <ele>32.2</ele>
        <time>2020-08-12T20:56:32Z</time>
      </trkpt>
      <trkpt lat="43.475668" lon="-1.452125">
        <ele>26.4</ele>
        <time>2020-08-12T20:56:36Z</time>
      </trkpt>
      <trkpt lat="43.476282" lon="-1.450895">
        <ele>18.2</ele>
        <time>2020-08-12T20:56:41Z</time>
      </trkpt>
      <trkpt lat="43.476614" lon="-1.450275">
        <ele>14.4</ele>
        <time>2020-08-12T20:56:43Z</time>
      </trkpt>
      <trkpt lat="43.477688" lon="-1.448693">
        <ele>13.8</ele>
        <time>2020-08-12T20:56:50Z</time>
      </trkpt>
      <trkpt lat="43.478453" lon="-1.447965">
        <ele>14.0</ele>
        <time>2020-08-12T20:56:53Z</time>
      </trkpt>
      <trkpt lat="43.479038" lon="-1.447565">
        <ele>14.0</ele>
        <time>2020-08-12T20:56:56Z</time>
      </trkpt>
      <trkpt lat="43.479038" lon="-1.447565">
        <ele>14.0</ele>
        <time>2020-08-12T20:56:56Z</time>
      </trkpt>
      <trkpt lat="43.479683" lon="-1.447289">
        <ele>13.8</ele>
        <time>2020-08-12T20:56:59Z</time>
      </trkpt>
      <trkpt lat="43.480041" lon="-1.447162">
        <ele>17.2</ele>
        <time>2020-08-12T20:57:01Z</time>
      </trkpt>
      <trkpt lat="43.480403" lon="-1.447078">
        <ele>17.2</ele>
        <time>2020-08-12T20:57:02Z</time>
      </trkpt>
      <trkpt lat="43.480711" lon="-1.447033">
        <ele>17.2</ele>
        <time>2020-08-12T20:57:03Z</time>
      </trkpt>
      <trkpt lat="43.481099" lon="-1.447005">
        <ele>20.6</ele>
        <time>2020-08-12T20:57:05Z</time>
      </trkpt>
      <trkpt lat="43.481455" lon="-1.447006">
        <ele>20.6</ele>
        <time>2020-08-12T20:57:06Z</time>
      </trkpt>
      <trkpt lat="43.481774" lon="-1.447038">
        <ele>23.0</ele>
        <time>2020-08-12T20:57:08Z</time>
      </trkpt>
      <trkpt lat="43.48201" lon="-1.44708">
        <ele>23.0</ele>
        <time>2020-08-12T20:57:09Z</time>
      </trkpt>
      <trkpt lat="43.482416" lon="-1.447189">
        <ele>23.0</ele>
        <time>2020-08-12T20:57:10Z</time>
      </trkpt>
      <trkpt lat="43.483133" lon="-1.447404">
        <ele>18.2</ele>
        <time>2020-08-12T20:57:13Z</time>
      </trkpt>
      <trkpt lat="43.487279" lon="-1.448732">
        <ele>2.4</ele>
        <time>2020-08-12T20:57:31Z</time>
      </trkpt>
      <trkpt lat="43.488418" lon="-1.449133">
        <ele>8.4</ele>
        <time>2020-08-12T20:57:35Z</time>
      </trkpt>
      <trkpt lat="43.489887" lon="-1.449554">
        <ele>5.6</ele>
        <time>2020-08-12T20:57:42Z</time>
      </trkpt>
      <trkpt lat="43.490364" lon="-1.449631">
        <ele>6.2</ele>
        <time>2020-08-12T20:57:44Z</time>
      </trkpt>
      <trkpt lat="43.491315" lon="-1.449633">
        <ele>7.0</ele>
        <time>2020-08-12T20:57:47Z</time>
      </trkpt>
      <trkpt lat="43.492557" lon="-1.44935">
        <ele>8.6</ele>
        <time>2020-08-12T20:57:53Z</time>
      </trkpt>
      <trkpt lat="43.493378" lon="-1.449051">
        <ele>13.4</ele>
        <time>2020-08-12T20:57:56Z</time>
      </trkpt>
      <trkpt lat="43.494093" lon="-1.448709">
        <ele>13.4</ele>
        <time>2020-08-12T20:57:59Z</time>
      </trkpt>
      <trkpt lat="43.495186" lon="-1.447901">
        <ele>12.8</ele>
        <time>2020-08-12T20:58:04Z</time>
      </trkpt>
      <trkpt lat="43.495856" lon="-1.447238">
        <ele>13.6</ele>
        <time>2020-08-12T20:58:07Z</time>
      </trkpt>
      <trkpt lat="43.496817" lon="-1.445968">
        <ele>15.2</ele>
        <time>2020-08-12T20:58:13Z</time>
      </trkpt>
      <trkpt lat="43.498272" lon="-1.443366">
        <ele>9.6</ele>
        <time>2020-08-12T20:58:23Z</time>
      </trkpt>
      <trkpt lat="43.498994" lon="-1.442383">
        <ele>11.6</ele>
        <time>2020-08-12T20:58:27Z</time>
      </trkpt>
      <trkpt lat="43.49975" lon="-1.441594">
        <ele>12.6</ele>
        <time>2020-08-12T20:58:31Z</time>
      </trkpt>
      <trkpt lat="43.500669" lon="-1.440888">
        <ele>15.6</ele>
        <time>2020-08-12T20:58:35Z</time>
      </trkpt>
      <trkpt lat="43.501535" lon="-1.440417">
        <ele>19.4</ele>
        <time>2020-08-12T20:58:39Z</time>
      </trkpt>
      <trkpt lat="43.502457" lon="-1.44009">
        <ele>20.8</ele>
        <time>2020-08-12T20:58:42Z</time>
      </trkpt>
      <trkpt lat="43.503438" lon="-1.43994">
        <ele>24.6</ele>
        <time>2020-08-12T20:58:47Z</time>
      </trkpt>
      <trkpt lat="43.504298" lon="-1.439953">
        <ele>26.2</ele>
        <time>2020-08-12T20:58:50Z</time>
      </trkpt>
      <trkpt lat="43.505172" lon="-1.440105">
        <ele>24.6</ele>
        <time>2020-08-12T20:58:54Z</time>
      </trkpt>
      <trkpt lat="43.506042" lon="-1.440417">
        <ele>22.8</ele>
        <time>2020-08-12T20:58:57Z</time>
      </trkpt>
      <trkpt lat="43.506654" lon="-1.440712">
        <ele>22.8</ele>
        <time>2020-08-12T20:59:00Z</time>
      </trkpt>
      <trkpt lat="43.507474" lon="-1.441284">
        <ele>27.2</ele>
        <time>2020-08-12T20:59:04Z</time>
      </trkpt>
      <trkpt lat="43.508812" lon="-1.442317">
        <ele>26.6</ele>
        <time>2020-08-12T20:59:10Z</time>
      </trkpt>
      <trkpt lat="43.509476" lon="-1.442727">
        <ele>28.4</ele>
        <time>2020-08-12T20:59:13Z</time>
      </trkpt>
      <trkpt lat="43.510515" lon="-1.443234">
        <ele>29.2</ele>
        <time>2020-08-12T20:59:17Z</time>
      </trkpt>
      <trkpt lat="43.511459" lon="-1.4435">
        <ele>31.2</ele>
        <time>2020-08-12T20:59:21Z</time>
      </trkpt>
      <trkpt lat="43.51236" lon="-1.443601">
        <ele>30.0</ele>
        <time>2020-08-12T20:59:25Z</time>
      </trkpt>
      <trkpt lat="43.512897" lon="-1.443597">
        <ele>28.0</ele>
        <time>2020-08-12T20:59:27Z</time>
      </trkpt>
      <trkpt lat="43.513627" lon="-1.443509">
        <ele>27.0</ele>
        <time>2020-08-12T20:59:30Z</time>
      </trkpt>
      <trkpt lat="43.51466" lon="-1.443256">
        <ele>27.0</ele>
        <time>2020-08-12T20:59:34Z</time>
      </trkpt>
      <trkpt lat="43.515787" lon="-1.442823">
        <ele>26.6</ele>
        <time>2020-08-12T20:59:39Z</time>
      </trkpt>
      <trkpt lat="43.516993" lon="-1.442454">
        <ele>33.8</ele>
        <time>2020-08-12T20:59:44Z</time>
      </trkpt>
      <trkpt lat="43.519818" lon="-1.441928">
        <ele>40.0</ele>
        <time>2020-08-12T20:59:56Z</time>
      </trkpt>
      <trkpt lat="43.520534" lon="-1.441738">
        <ele>39.6</ele>
        <time>2020-08-12T20:59:59Z</time>
      </trkpt>
      <trkpt lat="43.521329" lon="-1.441486">
        <ele>38.6</ele>
        <time>2020-08-12T21:00:02Z</time>
      </trkpt>
      <trkpt lat="43.522323" lon="-1.4411">
        <ele>37.0</ele>
        <time>2020-08-12T21:00:06Z</time>
      </trkpt>
      <trkpt lat="43.522838" lon="-1.440864">
        <ele>35.8</ele>
        <time>2020-08-12T21:00:08Z</time>
      </trkpt>
      <trkpt lat="43.523789" lon="-1.440365">
        <ele>39.0</ele>
        <time>2020-08-12T21:00:13Z</time>
      </trkpt>
      <trkpt lat="43.524425" lon="-1.439984">
        <ele>45.0</ele>
        <time>2020-08-12T21:00:15Z</time>
      </trkpt>
      <trkpt lat="43.525254" lon="-1.439426">
        <ele>48.6</ele>
        <time>2020-08-12T21:00:19Z</time>
      </trkpt>
      <trkpt lat="43.525784" lon="-1.439006">
        <ele>49.4</ele>
        <time>2020-08-12T21:00:22Z</time>
      </trkpt>
      <trkpt lat="43.526697" lon="-1.438184">
        <ele>44.6</ele>
        <time>2020-08-12T21:00:26Z</time>
      </trkpt>
      <trkpt lat="43.527557" lon="-1.437203">
        <ele>38.4</ele>
        <time>2020-08-12T21:00:31Z</time>
      </trkpt>
      <trkpt lat="43.528486" lon="-1.435989">
        <ele>33.0</ele>
        <time>2020-08-12T21:00:36Z</time>
      </trkpt>
      <trkpt lat="43.529283" lon="-1.434822">
        <ele>25.4</ele>
        <time>2020-08-12T21:00:41Z</time>
      </trkpt>
      <trkpt lat="43.530041" lon="-1.433874">
        <ele>19.2</ele>
        <time>2020-08-12T21:00:45Z</time>
      </trkpt>
      <trkpt lat="43.530894" lon="-1.432903">
        <ele>17.8</ele>
        <time>2020-08-12T21:00:49Z</time>
      </trkpt>
      <trkpt lat="43.531783" lon="-1.432185">
        <ele>15.8</ele>
        <time>2020-08-12T21:00:53Z</time>
      </trkpt>
      <trkpt lat="43.532503" lon="-1.431701">
        <ele>15.2</ele>
        <time>2020-08-12T21:00:57Z</time>
      </trkpt>
      <trkpt lat="43.533164" lon="-1.431399">
        <ele>13.4</ele>
        <time>2020-08-12T21:01:00Z</time>
      </trkpt>
      <trkpt lat="43.533767" lon="-1.431205">
        <ele>14.6</ele>
        <time>2020-08-12T21:01:02Z</time>
      </trkpt>
      <trkpt lat="43.53443" lon="-1.431087">
        <ele>13.6</ele>
        <time>2020-08-12T21:01:05Z</time>
      </trkpt>
      <trkpt lat="43.535375" lon="-1.431137">
        <ele>12.0</ele>
        <time>2020-08-12T21:01:09Z</time>
      </trkpt>
      <trkpt lat="43.537397" lon="-1.431649">
        <ele>12.4</ele>
        <time>2020-08-12T21:01:17Z</time>
      </trkpt>
      <trkpt lat="43.538427" lon="-1.431819">
        <ele>9.0</ele>
        <time>2020-08-12T21:01:21Z</time>
      </trkpt>
      <trkpt lat="43.539314" lon="-1.431858">
        <ele>9.6</ele>
        <time>2020-08-12T21:01:25Z</time>
      </trkpt>
      <trkpt lat="43.539884" lon="-1.431838">
        <ele>9.6</ele>
        <time>2020-08-12T21:01:27Z</time>
      </trkpt>
      <trkpt lat="43.540385" lon="-1.431783">
        <ele>11.0</ele>
        <time>2020-08-12T21:01:29Z</time>
      </trkpt>
      <trkpt lat="43.542277" lon="-1.431483">
        <ele>14.4</ele>
        <time>2020-08-12T21:01:37Z</time>
      </trkpt>
      <trkpt lat="43.542772" lon="-1.431441">
        <ele>18.8</ele>
        <time>2020-08-12T21:01:39Z</time>
      </trkpt>
      <trkpt lat="43.54354" lon="-1.431431">
        <ele>20.4</ele>
        <time>2020-08-12T21:01:42Z</time>
      </trkpt>
      <trkpt lat="43.544755" lon="-1.431548">
        <ele>21.8</ele>
        <time>2020-08-12T21:01:47Z</time>
      </trkpt>
      <trkpt lat="43.548247" lon="-1.432422">
        <ele>37.8</ele>
        <time>2020-08-12T21:02:02Z</time>
      </trkpt>
      <trkpt lat="43.549476" lon="-1.432476">
        <ele>44.6</ele>
        <time>2020-08-12T21:02:07Z</time>
      </trkpt>
      <trkpt lat="43.551946" lon="-1.432332">
        <ele>50.0</ele>
        <time>2020-08-12T21:02:17Z</time>
      </trkpt>
      <trkpt lat="43.553522" lon="-1.432208">
        <ele>50.4</ele>
        <time>2020-08-12T21:02:23Z</time>
      </trkpt>
      <trkpt lat="43.553914" lon="-1.43216">
        <ele>50.4</ele>
        <time>2020-08-12T21:02:25Z</time>
      </trkpt>
      <trkpt lat="43.554617" lon="-1.432117">
        <ele>49.6</ele>
        <time>2020-08-12T21:02:27Z</time>
      </trkpt>
      <trkpt lat="43.55533" lon="-1.432042">
        <ele>48.4</ele>
        <time>2020-08-12T21:02:30Z</time>
      </trkpt>
      <trkpt lat="43.555867" lon="-1.431935">
        <ele>47.6</ele>
        <time>2020-08-12T21:02:33Z</time>
      </trkpt>
      <trkpt lat="43.556357" lon="-1.431801">
        <ele>47.6</ele>
        <time>2020-08-12T21:02:35Z</time>
      </trkpt>
      <trkpt lat="43.556942" lon="-1.431591">
        <ele>44.2</ele>
        <time>2020-08-12T21:02:37Z</time>
      </trkpt>
      <trkpt lat="43.558522" lon="-1.430919">
        <ele>41.8</ele>
        <time>2020-08-12T21:02:44Z</time>
      </trkpt>
      <trkpt lat="43.559341" lon="-1.430634">
        <ele>39.2</ele>
        <time>2020-08-12T21:02:47Z</time>
      </trkpt>
      <trkpt lat="43.559694" lon="-1.430532">
        <ele>39.2</ele>
        <time>2020-08-12T21:02:49Z</time>
      </trkpt>
      <trkpt lat="43.560454" lon="-1.430368">
        <ele>39.8</ele>
        <time>2020-08-12T21:02:52Z</time>
      </trkpt>
      <trkpt lat="43.561273" lon="-1.430258">
        <ele>40.0</ele>
        <time>2020-08-12T21:02:55Z</time>
      </trkpt>
      <trkpt lat="43.562107" lon="-1.430227">
        <ele>39.6</ele>
        <time>2020-08-12T21:02:59Z</time>
      </trkpt>
      <trkpt lat="43.562805" lon="-1.43026">
        <ele>38.4</ele>
        <time>2020-08-12T21:03:01Z</time>
      </trkpt>
      <trkpt lat="43.563275" lon="-1.430309">
        <ele>38.4</ele>
        <time>2020-08-12T21:03:03Z</time>
      </trkpt>
      <trkpt lat="43.563735" lon="-1.430383">
        <ele>35.8</ele>
        <time>2020-08-12T21:03:05Z</time>
      </trkpt>
      <trkpt lat="43.565596" lon="-1.430749">
        <ele>35.0</ele>
        <time>2020-08-12T21:03:13Z</time>
      </trkpt>
      <trkpt lat="43.566251" lon="-1.430831">
        <ele>38.2</ele>
        <time>2020-08-12T21:03:16Z</time>
      </trkpt>
      <trkpt lat="43.56676" lon="-1.43085">
        <ele>44.6</ele>
        <time>2020-08-12T21:03:18Z</time>
      </trkpt>
      <trkpt lat="43.5677" lon="-1.430814">
        <ele>44.2</ele>
        <time>2020-08-12T21:03:21Z</time>
      </trkpt>
      <trkpt lat="43.568167" lon="-1.430756">
        <ele>44.2</ele>
        <time>2020-08-12T21:03:23Z</time>
      </trkpt>
      <trkpt lat="43.570086" lon="-1.430395">
        <ele>43.8</ele>
        <time>2020-08-12T21:03:31Z</time>
      </trkpt>
      <trkpt lat="43.570846" lon="-1.430214">
        <ele>42.6</ele>
        <time>2020-08-12T21:03:34Z</time>
      </trkpt>
      <trkpt lat="43.571167" lon="-1.430121">
        <ele>42.6</ele>
        <time>2020-08-12T21:03:36Z</time>
      </trkpt>
      <trkpt lat="43.571845" lon="-1.429871">
        <ele>38.0</ele>
        <time>2020-08-12T21:03:39Z</time>
      </trkpt>
      <trkpt lat="43.572473" lon="-1.429585">
        <ele>38.0</ele>
        <time>2020-08-12T21:03:41Z</time>
      </trkpt>
      <trkpt lat="43.573305" lon="-1.429117">
        <ele>33.2</ele>
        <time>2020-08-12T21:03:45Z</time>
      </trkpt>
      <trkpt lat="43.574455" lon="-1.428291">
        <ele>25.0</ele>
        <time>2020-08-12T21:03:50Z</time>
      </trkpt>
      <trkpt lat="43.575311" lon="-1.427463">
        <ele>25.0</ele>
        <time>2020-08-12T21:03:54Z</time>
      </trkpt>
      <trkpt lat="43.5765" lon="-1.426268">
        <ele>23.0</ele>
        <time>2020-08-12T21:04:00Z</time>
      </trkpt>
      <trkpt lat="43.577414" lon="-1.425234">
        <ele>23.6</ele>
        <time>2020-08-12T21:04:05Z</time>
      </trkpt>
      <trkpt lat="43.578243" lon="-1.424387">
        <ele>20.8</ele>
        <time>2020-08-12T21:04:09Z</time>
      </trkpt>
      <trkpt lat="43.579173" lon="-1.423557">
        <ele>14.2</ele>
        <time>2020-08-12T21:04:14Z</time>
      </trkpt>
      <trkpt lat="43.580577" lon="-1.422492">
        <ele>13.6</ele>
        <time>2020-08-12T21:04:20Z</time>
      </trkpt>
      <trkpt lat="43.581367" lon="-1.421995">
        <ele>16.0</ele>
        <time>2020-08-12T21:04:24Z</time>
      </trkpt>
      <trkpt lat="43.581965" lon="-1.42165">
        <ele>13.4</ele>
        <time>2020-08-12T21:04:27Z</time>
      </trkpt>
      <trkpt lat="43.582416" lon="-1.421421">
        <ele>13.4</ele>
        <time>2020-08-12T21:04:29Z</time>
      </trkpt>
      <trkpt lat="43.583498" lon="-1.420936">
        <ele>19.4</ele>
        <time>2020-08-12T21:04:33Z</time>
      </trkpt>
      <trkpt lat="43.58411" lon="-1.420702">
        <ele>17.6</ele>
        <time>2020-08-12T21:04:36Z</time>
      </trkpt>
      <trkpt lat="43.586098" lon="-1.420066">
        <ele>15.8</ele>
        <time>2020-08-12T21:04:44Z</time>
      </trkpt>
      <trkpt lat="43.587577" lon="-1.419619">
        <ele>15.4</ele>
        <time>2020-08-12T21:04:50Z</time>
      </trkpt>
      <trkpt lat="43.58799" lon="-1.419451">
        <ele>15.4</ele>
        <time>2020-08-12T21:04:52Z</time>
      </trkpt>
      <trkpt lat="43.588705" lon="-1.419119">
        <ele>17.4</ele>
        <time>2020-08-12T21:04:55Z</time>
      </trkpt>
      <trkpt lat="43.589336" lon="-1.418789">
        <ele>14.6</ele>
        <time>2020-08-12T21:04:58Z</time>
      </trkpt>
      <trkpt lat="43.59191" lon="-1.417306">
        <ele>19.4</ele>
        <time>2020-08-12T21:05:09Z</time>
      </trkpt>
      <trkpt lat="43.593237" lon="-1.416608">
        <ele>19.6</ele>
        <time>2020-08-12T21:05:15Z</time>
      </trkpt>
      <trkpt lat="43.593831" lon="-1.416362">
        <ele>18.6</ele>
        <time>2020-08-12T21:05:18Z</time>
      </trkpt>
      <trkpt lat="43.594666" lon="-1.416052">
        <ele>18.4</ele>
        <time>2020-08-12T21:05:21Z</time>
      </trkpt>
      <trkpt lat="43.595764" lon="-1.415748">
        <ele>14.6</ele>
        <time>2020-08-12T21:05:26Z</time>
      </trkpt>
      <trkpt lat="43.596327" lon="-1.415622">
        <ele>14.0</ele>
        <time>2020-08-12T21:05:28Z</time>
      </trkpt>
      <trkpt lat="43.596828" lon="-1.415533">
        <ele>15.0</ele>
        <time>2020-08-12T21:05:30Z</time>
      </trkpt>
      <trkpt lat="43.597809" lon="-1.415423">
        <ele>15.8</ele>
        <time>2020-08-12T21:05:34Z</time>
      </trkpt>
      <trkpt lat="43.598419" lon="-1.415394">
        <ele>15.4</ele>
        <time>2020-08-12T21:05:36Z</time>
      </trkpt>
      <trkpt lat="43.599519" lon="-1.415429">
        <ele>14.4</ele>
        <time>2020-08-12T21:05:41Z</time>
      </trkpt>
      <trkpt lat="43.600242" lon="-1.415535">
        <ele>17.8</ele>
        <time>2020-08-12T21:05:44Z</time>
      </trkpt>
      <trkpt lat="43.602455" lon="-1.416">
        <ele>20.6</ele>
        <time>2020-08-12T21:05:53Z</time>
      </trkpt>
      <trkpt lat="43.603654" lon="-1.416141">
        <ele>22.0</ele>
        <time>2020-08-12T21:05:58Z</time>
      </trkpt>
      <trkpt lat="43.60453" lon="-1.416163">
        <ele>21.2</ele>
        <time>2020-08-12T21:06:01Z</time>
      </trkpt>
      <trkpt lat="43.60527" lon="-1.416118">
        <ele>15.8</ele>
        <time>2020-08-12T21:06:04Z</time>
      </trkpt>
      <trkpt lat="43.606039" lon="-1.41601">
        <ele>12.2</ele>
        <time>2020-08-12T21:06:08Z</time>
      </trkpt>
      <trkpt lat="43.607048" lon="-1.415749">
        <ele>13.6</ele>
        <time>2020-08-12T21:06:12Z</time>
      </trkpt>
      <trkpt lat="43.608632" lon="-1.415227">
        <ele>17.0</ele>
        <time>2020-08-12T21:06:18Z</time>
      </trkpt>
      <trkpt lat="43.611522" lon="-1.414102">
        <ele>18.2</ele>
        <time>2020-08-12T21:06:31Z</time>
      </trkpt>
      <trkpt lat="43.613086" lon="-1.413323">
        <ele>21.0</ele>
        <time>2020-08-12T21:06:37Z</time>
      </trkpt>
      <trkpt lat="43.614342" lon="-1.412385">
        <ele>27.2</ele>
        <time>2020-08-12T21:06:43Z</time>
      </trkpt>
      <trkpt lat="43.615479" lon="-1.411259">
        <ele>26.4</ele>
        <time>2020-08-12T21:06:49Z</time>
      </trkpt>
      <trkpt lat="43.616393" lon="-1.410094">
        <ele>25.0</ele>
        <time>2020-08-12T21:06:54Z</time>
      </trkpt>
      <trkpt lat="43.617475" lon="-1.408375">
        <ele>25.4</ele>
        <time>2020-08-12T21:07:01Z</time>
      </trkpt>
      <trkpt lat="43.61793" lon="-1.407602">
        <ele>26.8</ele>
        <time>2020-08-12T21:07:04Z</time>
      </trkpt>
      <trkpt lat="43.618415" lon="-1.406829">
        <ele>26.4</ele>
        <time>2020-08-12T21:07:07Z</time>
      </trkpt>
      <trkpt lat="43.618742" lon="-1.406344">
        <ele>23.0</ele>
        <time>2020-08-12T21:07:09Z</time>
      </trkpt>
      <trkpt lat="43.619635" lon="-1.405166">
        <ele>20.0</ele>
        <time>2020-08-12T21:07:14Z</time>
      </trkpt>
      <trkpt lat="43.620369" lon="-1.404274">
        <ele>15.8</ele>
        <time>2020-08-12T21:07:18Z</time>
      </trkpt>
      <trkpt lat="43.620966" lon="-1.403578">
        <ele>15.0</ele>
        <time>2020-08-12T21:07:21Z</time>
      </trkpt>
      <trkpt lat="43.622456" lon="-1.402049">
        <ele>13.6</ele>
        <time>2020-08-12T21:07:28Z</time>
      </trkpt>
      <trkpt lat="43.623938" lon="-1.400317">
        <ele>15.6</ele>
        <time>2020-08-12T21:07:36Z</time>
      </trkpt>
      <trkpt lat="43.626513" lon="-1.397896">
        <ele>11.0</ele>
        <time>2020-08-12T21:07:49Z</time>
      </trkpt>
      <trkpt lat="43.627508" lon="-1.396685">
        <ele>11.6</ele>
        <time>2020-08-12T21:07:54Z</time>
      </trkpt>
      <trkpt lat="43.633128" lon="-1.390064">
        <ele>9.2</ele>
        <time>2020-08-12T21:08:24Z</time>
      </trkpt>
      <trkpt lat="43.637797" lon="-1.384531">
        <ele>5.6</ele>
        <time>2020-08-12T21:08:49Z</time>
      </trkpt>
      <trkpt lat="43.638812" lon="-1.383204">
        <ele>9.0</ele>
        <time>2020-08-12T21:08:55Z</time>
      </trkpt>
      <trkpt lat="43.63984" lon="-1.381728">
        <ele>6.4</ele>
        <time>2020-08-12T21:09:01Z</time>
      </trkpt>
      <trkpt lat="43.640687" lon="-1.380307">
        <ele>3.6</ele>
        <time>2020-08-12T21:09:07Z</time>
      </trkpt>
      <trkpt lat="43.641412" lon="-1.378951">
        <ele>3.0</ele>
        <time>2020-08-12T21:09:12Z</time>
      </trkpt>
      <trkpt lat="43.642101" lon="-1.377509">
        <ele>4.0</ele>
        <time>2020-08-12T21:09:17Z</time>
      </trkpt>
      <trkpt lat="43.643473" lon="-1.374416">
        <ele>11.0</ele>
        <time>2020-08-12T21:09:27Z</time>
      </trkpt>
      <trkpt lat="43.644217" lon="-1.372961">
        <ele>10.0</ele>
        <time>2020-08-12T21:09:33Z</time>
      </trkpt>
      <trkpt lat="43.645106" lon="-1.371311">
        <ele>13.4</ele>
        <time>2020-08-12T21:09:39Z</time>
      </trkpt>
      <trkpt lat="43.64588" lon="-1.370043">
        <ele>13.6</ele>
        <time>2020-08-12T21:09:43Z</time>
      </trkpt>
      <trkpt lat="43.646547" lon="-1.368908">
        <ele>14.4</ele>
        <time>2020-08-12T21:09:48Z</time>
      </trkpt>
      <trkpt lat="43.647277" lon="-1.367373">
        <ele>14.0</ele>
        <time>2020-08-12T21:09:53Z</time>
      </trkpt>
      <trkpt lat="43.647965" lon="-1.365677">
        <ele>15.8</ele>
        <time>2020-08-12T21:09:59Z</time>
      </trkpt>
      <trkpt lat="43.648377" lon="-1.364039">
        <ele>16.6</ele>
        <time>2020-08-12T21:10:04Z</time>
      </trkpt>
      <trkpt lat="43.648741" lon="-1.362273">
        <ele>16.2</ele>
        <time>2020-08-12T21:10:09Z</time>
      </trkpt>
      <trkpt lat="43.648918" lon="-1.360188">
        <ele>15.4</ele>
        <time>2020-08-12T21:10:16Z</time>
      </trkpt>
      <trkpt lat="43.648889" lon="-1.358637">
        <ele>12.2</ele>
        <time>2020-08-12T21:10:20Z</time>
      </trkpt>
      <trkpt lat="43.648812" lon="-1.356708">
        <ele>12.0</ele>
        <time>2020-08-12T21:10:26Z</time>
      </trkpt>
      <trkpt lat="43.648809" lon="-1.355593">
        <ele>16.4</ele>
        <time>2020-08-12T21:10:29Z</time>
      </trkpt>
      <trkpt lat="43.648908" lon="-1.354062">
        <ele>13.2</ele>
        <time>2020-08-12T21:10:34Z</time>
      </trkpt>
      <trkpt lat="43.649134" lon="-1.352514">
        <ele>16.2</ele>
        <time>2020-08-12T21:10:38Z</time>
      </trkpt>
      <trkpt lat="43.64948" lon="-1.350984">
        <ele>17.0</ele>
        <time>2020-08-12T21:10:43Z</time>
      </trkpt>
      <trkpt lat="43.64992" lon="-1.349581">
        <ele>18.0</ele>
        <time>2020-08-12T21:10:48Z</time>
      </trkpt>
      <trkpt lat="43.650559" lon="-1.348021">
        <ele>16.8</ele>
        <time>2020-08-12T21:10:53Z</time>
      </trkpt>
      <trkpt lat="43.651223" lon="-1.346661">
        <ele>16.2</ele>
        <time>2020-08-12T21:10:58Z</time>
      </trkpt>
      <trkpt lat="43.651887" lon="-1.345243">
        <ele>15.8</ele>
        <time>2020-08-12T21:11:03Z</time>
      </trkpt>
      <trkpt lat="43.652461" lon="-1.343518">
        <ele>13.8</ele>
        <time>2020-08-12T21:11:08Z</time>
      </trkpt>
      <trkpt lat="43.652852" lon="-1.34191">
        <ele>10.4</ele>
        <time>2020-08-12T21:11:13Z</time>
      </trkpt>
      <trkpt lat="43.653203" lon="-1.340162">
        <ele>12.4</ele>
        <time>2020-08-12T21:11:19Z</time>
      </trkpt>
      <trkpt lat="43.653617" lon="-1.338524">
        <ele>18.0</ele>
        <time>2020-08-12T21:11:24Z</time>
      </trkpt>
      <trkpt lat="43.654242" lon="-1.336591">
        <ele>21.0</ele>
        <time>2020-08-12T21:11:30Z</time>
      </trkpt>
      <trkpt lat="43.655143" lon="-1.334569">
        <ele>21.4</ele>
        <time>2020-08-12T21:11:37Z</time>
      </trkpt>
      <trkpt lat="43.655471" lon="-1.333969">
        <ele>21.0</ele>
        <time>2020-08-12T21:11:39Z</time>
      </trkpt>
      <trkpt lat="43.656026" lon="-1.333054">
        <ele>21.6</ele>
        <time>2020-08-12T21:11:43Z</time>
      </trkpt>
      <trkpt lat="43.656791" lon="-1.331974">
        <ele>21.8</ele>
        <time>2020-08-12T21:11:47Z</time>
      </trkpt>
      <trkpt lat="43.657717" lon="-1.3308">
        <ele>20.0</ele>
        <time>2020-08-12T21:11:52Z</time>
      </trkpt>
      <trkpt lat="43.6591" lon="-1.329204">
        <ele>19.4</ele>
        <time>2020-08-12T21:12:00Z</time>
      </trkpt>
      <trkpt lat="43.660644" lon="-1.327592">
        <ele>20.4</ele>
        <time>2020-08-12T21:12:07Z</time>
      </trkpt>
      <trkpt lat="43.662131" lon="-1.326229">
        <ele>25.4</ele>
        <time>2020-08-12T21:12:15Z</time>
      </trkpt>
      <trkpt lat="43.663651" lon="-1.324964">
        <ele>23.8</ele>
        <time>2020-08-12T21:12:22Z</time>
      </trkpt>
      <trkpt lat="43.66752" lon="-1.322034">
        <ele>30.0</ele>
        <time>2020-08-12T21:12:40Z</time>
      </trkpt>
      <trkpt lat="43.669366" lon="-1.320543">
        <ele>30.4</ele>
        <time>2020-08-12T21:12:49Z</time>
      </trkpt>
      <trkpt lat="43.671011" lon="-1.319085">
        <ele>33.4</ele>
        <time>2020-08-12T21:12:56Z</time>
      </trkpt>
      <trkpt lat="43.67261" lon="-1.317433">
        <ele>34.6</ele>
        <time>2020-08-12T21:13:05Z</time>
      </trkpt>
      <trkpt lat="43.675114" lon="-1.314308">
        <ele>40.2</ele>
        <time>2020-08-12T21:13:18Z</time>
      </trkpt>
      <trkpt lat="43.676313" lon="-1.31256">
        <ele>38.6</ele>
        <time>2020-08-12T21:13:25Z</time>
      </trkpt>
      <trkpt lat="43.677315" lon="-1.310832">
        <ele>36.4</ele>
        <time>2020-08-12T21:13:32Z</time>
      </trkpt>
      <trkpt lat="43.678319" lon="-1.308641">
        <ele>36.4</ele>
        <time>2020-08-12T21:13:40Z</time>
      </trkpt>
      <trkpt lat="43.679052" lon="-1.306502">
        <ele>40.2</ele>
        <time>2020-08-12T21:13:47Z</time>
      </trkpt>
      <trkpt lat="43.679686" lon="-1.304382">
        <ele>40.6</ele>
        <time>2020-08-12T21:13:53Z</time>
      </trkpt>
      <trkpt lat="43.680106" lon="-1.302292">
        <ele>44.8</ele>
        <time>2020-08-12T21:14:00Z</time>
      </trkpt>
      <trkpt lat="43.680409" lon="-1.300066">
        <ele>43.0</ele>
        <time>2020-08-12T21:14:06Z</time>
      </trkpt>
      <trkpt lat="43.680562" lon="-1.297957">
        <ele>44.0</ele>
        <time>2020-08-12T21:14:13Z</time>
      </trkpt>
      <trkpt lat="43.680698" lon="-1.293459">
        <ele>44.2</ele>
        <time>2020-08-12T21:14:26Z</time>
      </trkpt>
      <trkpt lat="43.680787" lon="-1.291312">
        <ele>46.0</ele>
        <time>2020-08-12T21:14:32Z</time>
      </trkpt>
      <trkpt lat="43.68096" lon="-1.289198">
        <ele>41.0</ele>
        <time>2020-08-12T21:14:38Z</time>
      </trkpt>
      <trkpt lat="43.681106" lon="-1.287627">
        <ele>42.4</ele>
        <time>2020-08-12T21:14:43Z</time>
      </trkpt>
      <trkpt lat="43.681238" lon="-1.28672">
        <ele>43.0</ele>
        <time>2020-08-12T21:14:46Z</time>
      </trkpt>
      <trkpt lat="43.681817" lon="-1.283305">
        <ele>43.6</ele>
        <time>2020-08-12T21:14:56Z</time>
      </trkpt>
      <trkpt lat="43.682036" lon="-1.281821">
        <ele>43.2</ele>
        <time>2020-08-12T21:15:01Z</time>
      </trkpt>
      <trkpt lat="43.682191" lon="-1.280465">
        <ele>43.4</ele>
        <time>2020-08-12T21:15:05Z</time>
      </trkpt>
      <trkpt lat="43.682306" lon="-1.279141">
        <ele>42.4</ele>
        <time>2020-08-12T21:15:09Z</time>
      </trkpt>
      <trkpt lat="43.682392" lon="-1.277862">
        <ele>42.8</ele>
        <time>2020-08-12T21:15:12Z</time>
      </trkpt>
      <trkpt lat="43.682619" lon="-1.271692">
        <ele>47.8</ele>
        <time>2020-08-12T21:15:30Z</time>
      </trkpt>
      <trkpt lat="43.682786" lon="-1.269638">
        <ele>43.2</ele>
        <time>2020-08-12T21:15:37Z</time>
      </trkpt>
      <trkpt lat="43.682968" lon="-1.268122">
        <ele>42.2</ele>
        <time>2020-08-12T21:15:41Z</time>
      </trkpt>
      <trkpt lat="43.683194" lon="-1.266703">
        <ele>40.6</ele>
        <time>2020-08-12T21:15:45Z</time>
      </trkpt>
      <trkpt lat="43.683459" lon="-1.265322">
        <ele>37.0</ele>
        <time>2020-08-12T21:15:50Z</time>
      </trkpt>
      <trkpt lat="43.683749" lon="-1.26404">
        <ele>37.0</ele>
        <time>2020-08-12T21:15:54Z</time>
      </trkpt>
      <trkpt lat="43.684164" lon="-1.262498">
        <ele>36.0</ele>
        <time>2020-08-12T21:15:58Z</time>
      </trkpt>
      <trkpt lat="43.684578" lon="-1.26117">
        <ele>37.6</ele>
        <time>2020-08-12T21:16:03Z</time>
      </trkpt>
      <trkpt lat="43.685663" lon="-1.258035">
        <ele>34.0</ele>
        <time>2020-08-12T21:16:13Z</time>
      </trkpt>
      <trkpt lat="43.686566" lon="-1.255333">
        <ele>39.2</ele>
        <time>2020-08-12T21:16:22Z</time>
      </trkpt>
      <trkpt lat="43.687361" lon="-1.252486">
        <ele>40.8</ele>
        <time>2020-08-12T21:16:31Z</time>
      </trkpt>
      <trkpt lat="43.688356" lon="-1.248691">
        <ele>41.2</ele>
        <time>2020-08-12T21:16:42Z</time>
      </trkpt>
      <trkpt lat="43.689098" lon="-1.246214">
        <ele>43.6</ele>
        <time>2020-08-12T21:16:50Z</time>
      </trkpt>
      <trkpt lat="43.690209" lon="-1.243137">
        <ele>43.4</ele>
        <time>2020-08-12T21:17:00Z</time>
      </trkpt>
      <trkpt lat="43.691061" lon="-1.240839">
        <ele>43.6</ele>
        <time>2020-08-12T21:17:08Z</time>
      </trkpt>
      <trkpt lat="43.691517" lon="-1.239503">
        <ele>46.6</ele>
        <time>2020-08-12T21:17:12Z</time>
      </trkpt>
      <trkpt lat="43.692833" lon="-1.235399">
        <ele>40.6</ele>
        <time>2020-08-12T21:17:26Z</time>
      </trkpt>
      <trkpt lat="43.693319" lon="-1.234272">
        <ele>43.6</ele>
        <time>2020-08-12T21:17:29Z</time>
      </trkpt>
      <trkpt lat="43.693882" lon="-1.233221">
        <ele>42.0</ele>
        <time>2020-08-12T21:17:33Z</time>
      </trkpt>
      <trkpt lat="43.69456" lon="-1.232227">
        <ele>44.0</ele>
        <time>2020-08-12T21:17:37Z</time>
      </trkpt>
      <trkpt lat="43.695364" lon="-1.231278">
        <ele>46.0</ele>
        <time>2020-08-12T21:17:42Z</time>
      </trkpt>
      <trkpt lat="43.696527" lon="-1.230196">
        <ele>46.0</ele>
        <time>2020-08-12T21:17:47Z</time>
      </trkpt>
      <trkpt lat="43.697417" lon="-1.229624">
        <ele>46.6</ele>
        <time>2020-08-12T21:17:51Z</time>
      </trkpt>
      <trkpt lat="43.698311" lon="-1.229196">
        <ele>47.8</ele>
        <time>2020-08-12T21:17:55Z</time>
      </trkpt>
      <trkpt lat="43.69942" lon="-1.228892">
        <ele>50.4</ele>
        <time>2020-08-12T21:18:00Z</time>
      </trkpt>
      <trkpt lat="43.700432" lon="-1.228689">
        <ele>51.2</ele>
        <time>2020-08-12T21:18:04Z</time>
      </trkpt>
      <trkpt lat="43.70171" lon="-1.228551">
        <ele>49.4</ele>
        <time>2020-08-12T21:18:09Z</time>
      </trkpt>
      <trkpt lat="43.702502" lon="-1.228493">
        <ele>49.6</ele>
        <time>2020-08-12T21:18:12Z</time>
      </trkpt>
      <trkpt lat="43.707543" lon="-1.228216">
        <ele>54.4</ele>
        <time>2020-08-12T21:18:33Z</time>
      </trkpt>
      <trkpt lat="43.712363" lon="-1.227924">
        <ele>54.0</ele>
        <time>2020-08-12T21:18:53Z</time>
      </trkpt>
      <trkpt lat="43.714604" lon="-1.227822">
        <ele>56.6</ele>
        <time>2020-08-12T21:19:02Z</time>
      </trkpt>
      <trkpt lat="43.736543" lon="-1.226511">
        <ele>50.6</ele>
        <time>2020-08-12T21:20:31Z</time>
      </trkpt>
      <trkpt lat="43.737799" lon="-1.226401">
        <ele>50.8</ele>
        <time>2020-08-12T21:20:36Z</time>
      </trkpt>
      <trkpt lat="43.742356" lon="-1.225461">
        <ele>47.6</ele>
        <time>2020-08-12T21:20:55Z</time>
      </trkpt>
      <trkpt lat="43.764047" lon="-1.220634">
        <ele>41.8</ele>
        <time>2020-08-12T21:22:24Z</time>
      </trkpt>
      <trkpt lat="43.76666" lon="-1.220033">
        <ele>38.2</ele>
        <time>2020-08-12T21:22:35Z</time>
      </trkpt>
      <trkpt lat="43.768725" lon="-1.219533">
        <ele>36.8</ele>
        <time>2020-08-12T21:22:44Z</time>
      </trkpt>
      <trkpt lat="43.770081" lon="-1.219013">
        <ele>35.4</ele>
        <time>2020-08-12T21:22:49Z</time>
      </trkpt>
      <trkpt lat="43.770605" lon="-1.218721">
        <ele>35.4</ele>
        <time>2020-08-12T21:22:52Z</time>
      </trkpt>
      <trkpt lat="43.771124" lon="-1.218385">
        <ele>35.6</ele>
        <time>2020-08-12T21:22:54Z</time>
      </trkpt>
      <trkpt lat="43.771692" lon="-1.21798">
        <ele>35.6</ele>
        <time>2020-08-12T21:22:57Z</time>
      </trkpt>
      <trkpt lat="43.772192" lon="-1.217557">
        <ele>35.6</ele>
        <time>2020-08-12T21:22:59Z</time>
      </trkpt>
      <trkpt lat="43.772794" lon="-1.216975">
        <ele>36.2</ele>
        <time>2020-08-12T21:23:02Z</time>
      </trkpt>
      <trkpt lat="43.773158" lon="-1.216583">
        <ele>35.6</ele>
        <time>2020-08-12T21:23:04Z</time>
      </trkpt>
      <trkpt lat="43.775364" lon="-1.213807">
        <ele>36.2</ele>
        <time>2020-08-12T21:23:16Z</time>
      </trkpt>
      <trkpt lat="43.775376" lon="-1.213669">
        <ele>36.2</ele>
        <time>2020-08-12T21:23:17Z</time>
      </trkpt>
      <trkpt lat="43.776025" lon="-1.212886">
        <ele>34.6</ele>
        <time>2020-08-12T21:23:25Z</time>
      </trkpt>
      <trkpt lat="43.776456" lon="-1.212275">
        <ele>36.6</ele>
        <time>2020-08-12T21:23:31Z</time>
      </trkpt>
      <trkpt lat="43.776571" lon="-1.212028">
        <ele>36.6</ele>
        <time>2020-08-12T21:23:33Z</time>
      </trkpt>
      <trkpt lat="43.776744" lon="-1.211477">
        <ele>34.2</ele>
        <time>2020-08-12T21:23:37Z</time>
      </trkpt>
      <trkpt lat="43.776909" lon="-1.21063">
        <ele>33.8</ele>
        <time>2020-08-12T21:23:42Z</time>
      </trkpt>
      <trkpt lat="43.776993" lon="-1.210371">
        <ele>33.8</ele>
        <time>2020-08-12T21:23:44Z</time>
      </trkpt>
      <trkpt lat="43.777114" lon="-1.210148">
        <ele>33.8</ele>
        <time>2020-08-12T21:23:46Z</time>
      </trkpt>
      <trkpt lat="43.777289" lon="-1.209983">
        <ele>34.4</ele>
        <time>2020-08-12T21:23:48Z</time>
      </trkpt>
      <trkpt lat="43.777428" lon="-1.209921">
        <ele>34.4</ele>
        <time>2020-08-12T21:23:49Z</time>
      </trkpt>
      <trkpt lat="43.777644" lon="-1.209871">
        <ele>29.4</ele>
        <time>2020-08-12T21:23:51Z</time>
      </trkpt>
      <trkpt lat="43.777739" lon="-1.209829">
        <ele>29.4</ele>
        <time>2020-08-12T21:23:52Z</time>
      </trkpt>
      <trkpt lat="43.777835" lon="-1.209746">
        <ele>29.4</ele>
        <time>2020-08-12T21:23:53Z</time>
      </trkpt>
      <trkpt lat="43.777865" lon="-1.209622">
        <ele>29.4</ele>
        <time>2020-08-12T21:23:54Z</time>
      </trkpt>
      <trkpt lat="43.777952" lon="-1.209522">
        <ele>29.4</ele>
        <time>2020-08-12T21:23:55Z</time>
      </trkpt>
      <trkpt lat="43.778063" lon="-1.20951">
        <ele>29.4</ele>
        <time>2020-08-12T21:23:56Z</time>
      </trkpt>
      <trkpt lat="43.778144" lon="-1.209566">
        <ele>29.4</ele>
        <time>2020-08-12T21:23:57Z</time>
      </trkpt>
      <trkpt lat="43.778181" lon="-1.209627">
        <ele>29.4</ele>
        <time>2020-08-12T21:23:58Z</time>
      </trkpt>
      <trkpt lat="43.778208" lon="-1.209779">
        <ele>29.4</ele>
        <time>2020-08-12T21:23:59Z</time>
      </trkpt>
      <trkpt lat="43.778167" lon="-1.209925">
        <ele>29.4</ele>
        <time>2020-08-12T21:24:00Z</time>
      </trkpt>
      <trkpt lat="43.778165" lon="-1.210066">
        <ele>27.8</ele>
        <time>2020-08-12T21:24:01Z</time>
      </trkpt>
      <trkpt lat="43.778274" lon="-1.21059">
        <ele>27.8</ele>
        <time>2020-08-12T21:24:04Z</time>
      </trkpt>
      <trkpt lat="43.778311" lon="-1.2112">
        <ele>29.4</ele>
        <time>2020-08-12T21:24:08Z</time>
      </trkpt>
      <trkpt lat="43.778444" lon="-1.211929">
        <ele>28.8</ele>
        <time>2020-08-12T21:24:13Z</time>
      </trkpt>
      <trkpt lat="43.778603" lon="-1.212337">
        <ele>28.8</ele>
        <time>2020-08-12T21:24:16Z</time>
      </trkpt>
      <trkpt lat="43.778666" lon="-1.21244">
        <ele>28.8</ele>
        <time>2020-08-12T21:24:17Z</time>
      </trkpt>
      <trkpt lat="43.778734" lon="-1.21249">
        <ele>28.8</ele>
        <time>2020-08-12T21:24:18Z</time>
      </trkpt>
      <trkpt lat="43.778777" lon="-1.212592">
        <ele>29.0</ele>
        <time>2020-08-12T21:24:19Z</time>
      </trkpt>
      <trkpt lat="43.778768" lon="-1.212723">
        <ele>29.0</ele>
        <time>2020-08-12T21:24:20Z</time>
      </trkpt>
      <trkpt lat="43.778741" lon="-1.212778">
        <ele>29.0</ele>
        <time>2020-08-12T21:24:20Z</time>
      </trkpt>
      <trkpt lat="43.778736" lon="-1.212902">
        <ele>29.0</ele>
        <time>2020-08-12T21:24:21Z</time>
      </trkpt>
      <trkpt lat="43.778901" lon="-1.213871">
        <ele>29.0</ele>
        <time>2020-08-12T21:24:29Z</time>
      </trkpt>
      <trkpt lat="43.778956" lon="-1.214304">
        <ele>29.4</ele>
        <time>2020-08-12T21:24:33Z</time>
      </trkpt>
      <trkpt lat="43.778977" lon="-1.214839">
        <ele>29.4</ele>
        <time>2020-08-12T21:24:37Z</time>
      </trkpt>
      <trkpt lat="43.77899" lon="-1.214869">
        <ele>29.4</ele>
        <time>2020-08-12T21:24:38Z</time>
      </trkpt>
      <trkpt lat="43.779015" lon="-1.214896">
        <ele>29.4</ele>
        <time>2020-08-12T21:24:38Z</time>
      </trkpt>
      <trkpt lat="43.779786" lon="-1.215191">
        <ele>28.6</ele>
        <time>2020-08-12T21:24:47Z</time>
      </trkpt>
      <trkpt lat="43.780058" lon="-1.215366">
        <ele>28.2</ele>
        <time>2020-08-12T21:24:51Z</time>
      </trkpt>
      <trkpt lat="43.780605" lon="-1.215675">
        <ele>28.2</ele>
        <time>2020-08-12T21:24:57Z</time>
      </trkpt>
      <trkpt lat="43.780679" lon="-1.215741">
        <ele>28.2</ele>
        <time>2020-08-12T21:24:58Z</time>
      </trkpt>
      <trkpt lat="43.780695" lon="-1.215774">
        <ele>28.2</ele>
        <time>2020-08-12T21:24:59Z</time>
      </trkpt>
      <trkpt lat="43.780637" lon="-1.215922">
        <ele>28.8</ele>
        <time>2020-08-12T21:25:00Z</time>
      </trkpt>
      <trkpt lat="43.780613" lon="-1.216329">
        <ele>28.8</ele>
        <time>2020-08-12T21:25:03Z</time>
      </trkpt>
      <trkpt lat="43.780659" lon="-1.216351">
        <ele>28.8</ele>
        <time>2020-08-12T21:25:04Z</time>
      </trkpt>
      <trkpt lat="43.780674" lon="-1.216382">
        <ele>28.8</ele>
        <time>2020-08-12T21:25:04Z</time>
      </trkpt>
      <trkpt lat="43.780897" lon="-1.217235">
        <ele>27.8</ele>
        <time>2020-08-12T21:25:12Z</time>
      </trkpt>
      <trkpt lat="43.780986" lon="-1.217685">
        <ele>29.0</ele>
        <time>2020-08-12T21:25:16Z</time>
      </trkpt>
      <trkpt lat="43.781189" lon="-1.219018">
        <ele>29.4</ele>
        <time>2020-08-12T21:25:29Z</time>
      </trkpt>
      <trkpt lat="43.781195" lon="-1.219194">
        <ele>27.8</ele>
        <time>2020-08-12T21:25:30Z</time>
      </trkpt>
      <trkpt lat="43.781157" lon="-1.220364">
        <ele>28.6</ele>
        <time>2020-08-12T21:25:41Z</time>
      </trkpt>
      <trkpt lat="43.781125" lon="-1.220606">
        <ele>28.6</ele>
        <time>2020-08-12T21:25:43Z</time>
      </trkpt>
      <trkpt lat="43.780892" lon="-1.2218">
        <ele>26.0</ele>
        <time>2020-08-12T21:25:54Z</time>
      </trkpt>
      <trkpt lat="43.780858" lon="-1.222058">
        <ele>26.0</ele>
        <time>2020-08-12T21:25:56Z</time>
      </trkpt>
      <trkpt lat="43.780735" lon="-1.223653">
        <ele>24.0</ele>
        <time>2020-08-12T21:26:11Z</time>
      </trkpt>
      <trkpt lat="43.780726" lon="-1.223962">
        <ele>24.0</ele>
        <time>2020-08-12T21:26:14Z</time>
      </trkpt>
      <trkpt lat="43.78075" lon="-1.2242">
        <ele>22.8</ele>
        <time>2020-08-12T21:26:16Z</time>
      </trkpt>
      <trkpt lat="43.780822" lon="-1.224455">
        <ele>22.8</ele>
        <time>2020-08-12T21:26:18Z</time>
      </trkpt>
      <trkpt lat="43.780946" lon="-1.224703">
        <ele>22.4</ele>
        <time>2020-08-12T21:26:21Z</time>
      </trkpt>
      <trkpt lat="43.78113" lon="-1.224902">
        <ele>22.4</ele>
        <time>2020-08-12T21:26:24Z</time>
      </trkpt>
      <trkpt lat="43.781275" lon="-1.224983">
        <ele>22.4</ele>
        <time>2020-08-12T21:26:26Z</time>
      </trkpt>
      <trkpt lat="43.782559" lon="-1.225509">
        <ele>27.4</ele>
        <time>2020-08-12T21:26:42Z</time>
      </trkpt>
      <trkpt lat="43.782969" lon="-1.225569">
        <ele>27.4</ele>
        <time>2020-08-12T21:26:47Z</time>
      </trkpt>
      <trkpt lat="43.783505" lon="-1.22544">
        <ele>30.0</ele>
        <time>2020-08-12T21:26:54Z</time>
      </trkpt>
      <trkpt lat="43.783521" lon="-1.225338">
        <ele>30.0</ele>
        <time>2020-08-12T21:26:55Z</time>
      </trkpt>
      <trkpt lat="43.783546" lon="-1.225299">
        <ele>30.0</ele>
        <time>2020-08-12T21:26:55Z</time>
      </trkpt>
      <trkpt lat="43.783616" lon="-1.225264">
        <ele>30.0</ele>
        <time>2020-08-12T21:26:55Z</time>
      </trkpt>
      <trkpt lat="43.78365" lon="-1.225271">
        <ele>30.0</ele>
        <time>2020-08-12T21:26:56Z</time>
      </trkpt>
      <trkpt lat="43.783705" lon="-1.225324">
        <ele>30.0</ele>
        <time>2020-08-12T21:26:56Z</time>
      </trkpt>
      <trkpt lat="43.783729" lon="-1.225411">
        <ele>30.0</ele>
        <time>2020-08-12T21:26:57Z</time>
      </trkpt>
      <trkpt lat="43.783726" lon="-1.225458">
        <ele>30.0</ele>
        <time>2020-08-12T21:26:57Z</time>
      </trkpt>
      <trkpt lat="43.784061" lon="-1.225559">
        <ele>30.0</ele>
        <time>2020-08-12T21:26:59Z</time>
      </trkpt>
      <trkpt lat="43.784629" lon="-1.225591">
        <ele>30.8</ele>
        <time>2020-08-12T21:27:03Z</time>
      </trkpt>
      <trkpt lat="43.785878" lon="-1.225853">
        <ele>31.0</ele>
        <time>2020-08-12T21:27:11Z</time>
      </trkpt>
      <trkpt lat="43.786199" lon="-1.225948">
        <ele>31.0</ele>
        <time>2020-08-12T21:27:13Z</time>
      </trkpt>
      <trkpt lat="43.789244" lon="-1.227563">
        <ele>29.0</ele>
        <time>2020-08-12T21:27:34Z</time>
      </trkpt>
      <trkpt lat="43.789867" lon="-1.227905">
        <ele>29.0</ele>
        <time>2020-08-12T21:27:38Z</time>
      </trkpt>
      <trkpt lat="43.790153" lon="-1.2281">
        <ele>28.4</ele>
        <time>2020-08-12T21:27:40Z</time>
      </trkpt>
      <trkpt lat="43.790368" lon="-1.228297">
        <ele>28.4</ele>
        <time>2020-08-12T21:27:42Z</time>
      </trkpt>
      <trkpt lat="43.790593" lon="-1.228555">
        <ele>29.6</ele>
        <time>2020-08-12T21:27:44Z</time>
      </trkpt>
      <trkpt lat="43.791872" lon="-1.230273">
        <ele>35.2</ele>
        <time>2020-08-12T21:27:55Z</time>
      </trkpt>
      <trkpt lat="43.792572" lon="-1.230959">
        <ele>32.2</ele>
        <time>2020-08-12T21:28:01Z</time>
      </trkpt>
      <trkpt lat="43.79739" lon="-1.235295">
        <ele>44.2</ele>
        <time>2020-08-12T21:28:37Z</time>
      </trkpt>
      <trkpt lat="43.803488" lon="-1.240736">
        <ele>39.6</ele>
        <time>2020-08-12T21:29:24Z</time>
      </trkpt>
      <trkpt lat="43.829954" lon="-1.264284">
        <ele>42.0</ele>
        <time>2020-08-12T21:32:46Z</time>
      </trkpt>
      <trkpt lat="43.830234" lon="-1.264607">
        <ele>40.0</ele>
        <time>2020-08-12T21:32:48Z</time>
      </trkpt>
      <trkpt lat="43.830383" lon="-1.264844">
        <ele>40.0</ele>
        <time>2020-08-12T21:32:50Z</time>
      </trkpt>
      <trkpt lat="43.830519" lon="-1.26511">
        <ele>39.2</ele>
        <time>2020-08-12T21:32:51Z</time>
      </trkpt>
      <trkpt lat="43.832956" lon="-1.271071">
        <ele>37.0</ele>
        <time>2020-08-12T21:33:23Z</time>
      </trkpt>
      <trkpt lat="43.833145" lon="-1.27148">
        <ele>37.0</ele>
        <time>2020-08-12T21:33:25Z</time>
      </trkpt>
      <trkpt lat="43.833343" lon="-1.271814">
        <ele>35.2</ele>
        <time>2020-08-12T21:33:27Z</time>
      </trkpt>
      <trkpt lat="43.833547" lon="-1.272054">
        <ele>35.2</ele>
        <time>2020-08-12T21:33:29Z</time>
      </trkpt>
      <trkpt lat="43.833778" lon="-1.272273">
        <ele>35.2</ele>
        <time>2020-08-12T21:33:31Z</time>
      </trkpt>
      <trkpt lat="43.841657" lon="-1.278203">
        <ele>31.2</ele>
        <time>2020-08-12T21:34:28Z</time>
      </trkpt>
      <trkpt lat="43.847673" lon="-1.282696">
        <ele>37.2</ele>
        <time>2020-08-12T21:35:12Z</time>
      </trkpt>
      <trkpt lat="43.84831" lon="-1.283262">
        <ele>37.2</ele>
        <time>2020-08-12T21:35:17Z</time>
      </trkpt>
      <trkpt lat="43.850495" lon="-1.285396">
        <ele>37.8</ele>
        <time>2020-08-12T21:35:34Z</time>
      </trkpt>
      <trkpt lat="43.851605" lon="-1.286506">
        <ele>37.4</ele>
        <time>2020-08-12T21:35:43Z</time>
      </trkpt>
      <trkpt lat="43.852116" lon="-1.286953">
        <ele>38.6</ele>
        <time>2020-08-12T21:35:47Z</time>
      </trkpt>
      <trkpt lat="43.852689" lon="-1.287357">
        <ele>36.8</ele>
        <time>2020-08-12T21:35:51Z</time>
      </trkpt>
      <trkpt lat="43.855108" lon="-1.288897">
        <ele>38.8</ele>
        <time>2020-08-12T21:36:08Z</time>
      </trkpt>
      <trkpt lat="43.855722" lon="-1.289306">
        <ele>39.4</ele>
        <time>2020-08-12T21:36:12Z</time>
      </trkpt>
      <trkpt lat="43.859113" lon="-1.291768">
        <ele>32.8</ele>
        <time>2020-08-12T21:36:37Z</time>
      </trkpt>
      <trkpt lat="43.861374" lon="-1.293271">
        <ele>27.8</ele>
        <time>2020-08-12T21:36:53Z</time>
      </trkpt>
      <trkpt lat="43.862129" lon="-1.293738">
        <ele>28.0</ele>
        <time>2020-08-12T21:36:58Z</time>
      </trkpt>
      <trkpt lat="43.862462" lon="-1.293871">
        <ele>28.0</ele>
        <time>2020-08-12T21:37:00Z</time>
      </trkpt>
      <trkpt lat="43.864528" lon="-1.294438">
        <ele>25.4</ele>
        <time>2020-08-12T21:37:14Z</time>
      </trkpt>
      <trkpt lat="43.864792" lon="-1.294544">
        <ele>25.4</ele>
        <time>2020-08-12T21:37:16Z</time>
      </trkpt>
      <trkpt lat="43.86515" lon="-1.294758">
        <ele>27.2</ele>
        <time>2020-08-12T21:37:18Z</time>
      </trkpt>
      <trkpt lat="43.867545" lon="-1.296627">
        <ele>35.6</ele>
        <time>2020-08-12T21:37:36Z</time>
      </trkpt>
      <trkpt lat="43.868871" lon="-1.297638">
        <ele>28.2</ele>
        <time>2020-08-12T21:37:45Z</time>
      </trkpt>
      <trkpt lat="43.870658" lon="-1.299048">
        <ele>21.2</ele>
        <time>2020-08-12T21:37:59Z</time>
      </trkpt>
      <trkpt lat="43.8727" lon="-1.300615">
        <ele>17.8</ele>
        <time>2020-08-12T21:38:14Z</time>
      </trkpt>
      <trkpt lat="43.87297" lon="-1.300722">
        <ele>17.8</ele>
        <time>2020-08-12T21:38:16Z</time>
      </trkpt>
      <trkpt lat="43.87301" lon="-1.30071">
        <ele>17.8</ele>
        <time>2020-08-12T21:38:16Z</time>
      </trkpt>
      <trkpt lat="43.873082" lon="-1.300732">
        <ele>17.8</ele>
        <time>2020-08-12T21:38:17Z</time>
      </trkpt>
      <trkpt lat="43.873134" lon="-1.300799">
        <ele>17.8</ele>
        <time>2020-08-12T21:38:18Z</time>
      </trkpt>
      <trkpt lat="43.873154" lon="-1.300888">
        <ele>18.2</ele>
        <time>2020-08-12T21:38:18Z</time>
      </trkpt>
      <trkpt lat="43.873442" lon="-1.301195">
        <ele>18.6</ele>
        <time>2020-08-12T21:38:22Z</time>
      </trkpt>
      <trkpt lat="43.874089" lon="-1.301701">
        <ele>19.6</ele>
        <time>2020-08-12T21:38:30Z</time>
      </trkpt>
      <trkpt lat="43.874691" lon="-1.302143">
        <ele>22.2</ele>
        <time>2020-08-12T21:38:38Z</time>
      </trkpt>
      <trkpt lat="43.874879" lon="-1.302221">
        <ele>22.2</ele>
        <time>2020-08-12T21:38:40Z</time>
      </trkpt>
      <trkpt lat="43.875045" lon="-1.30223">
        <ele>24.2</ele>
        <time>2020-08-12T21:38:42Z</time>
      </trkpt>
      <trkpt lat="43.875193" lon="-1.302711">
        <ele>25.6</ele>
        <time>2020-08-12T21:38:46Z</time>
      </trkpt>
      <trkpt lat="43.875511" lon="-1.302849">
        <ele>25.6</ele>
        <time>2020-08-12T21:38:49Z</time>
      </trkpt>
      <trkpt lat="43.875958" lon="-1.302996">
        <ele>27.0</ele>
        <time>2020-08-12T21:38:54Z</time>
      </trkpt>
      <trkpt lat="43.876143" lon="-1.303033">
        <ele>27.0</ele>
        <time>2020-08-12T21:38:56Z</time>
      </trkpt>
      <trkpt lat="43.876473" lon="-1.302966">
        <ele>27.0</ele>
        <time>2020-08-12T21:38:59Z</time>
      </trkpt>
      <trkpt lat="43.87707" lon="-1.302749">
        <ele>22.8</ele>
        <time>2020-08-12T21:39:06Z</time>
      </trkpt>
      <trkpt lat="43.877276" lon="-1.302713">
        <ele>22.8</ele>
        <time>2020-08-12T21:39:08Z</time>
      </trkpt>
      <trkpt lat="43.877276" lon="-1.302666">
        <ele>22.8</ele>
        <time>2020-08-12T21:39:08Z</time>
      </trkpt>
      <trkpt lat="43.877313" lon="-1.302577">
        <ele>22.8</ele>
        <time>2020-08-12T21:39:09Z</time>
      </trkpt>
      <trkpt lat="43.877368" lon="-1.30255">
        <ele>22.8</ele>
        <time>2020-08-12T21:39:10Z</time>
      </trkpt>
      <trkpt lat="43.877544" lon="-1.302616">
        <ele>18.2</ele>
        <time>2020-08-12T21:39:12Z</time>
      </trkpt>
      <trkpt lat="43.877637" lon="-1.302526">
        <ele>18.2</ele>
        <time>2020-08-12T21:39:14Z</time>
      </trkpt>
      <trkpt lat="43.877792" lon="-1.302444">
        <ele>17.6</ele>
        <time>2020-08-12T21:39:16Z</time>
      </trkpt>
      <trkpt lat="43.879782" lon="-1.30164">
        <ele>16.2</ele>
        <time>2020-08-12T21:39:42Z</time>
      </trkpt>
      <trkpt lat="43.880061" lon="-1.301531">
        <ele>16.8</ele>
        <time>2020-08-12T21:39:46Z</time>
      </trkpt>
      <trkpt lat="43.880243" lon="-1.301486">
        <ele>16.8</ele>
        <time>2020-08-12T21:39:49Z</time>
      </trkpt>
      <trkpt lat="43.880244" lon="-1.30143">
        <ele>16.8</ele>
        <time>2020-08-12T21:39:49Z</time>
      </trkpt>
      <trkpt lat="43.880272" lon="-1.301388">
        <ele>16.8</ele>
        <time>2020-08-12T21:39:49Z</time>
      </trkpt>
      <trkpt lat="43.880313" lon="-1.301383">
        <ele>16.8</ele>
        <time>2020-08-12T21:39:50Z</time>
      </trkpt>
      <trkpt lat="43.880346" lon="-1.301417">
        <ele>16.8</ele>
        <time>2020-08-12T21:39:50Z</time>
      </trkpt>
      <trkpt lat="43.880355" lon="-1.301472">
        <ele>16.8</ele>
        <time>2020-08-12T21:39:50Z</time>
      </trkpt>
      <trkpt lat="43.880403" lon="-1.301469">
        <ele>16.8</ele>
        <time>2020-08-12T21:39:51Z</time>
      </trkpt>
      <trkpt lat="43.881224" lon="-1.301726">
        <ele>15.6</ele>
        <time>2020-08-12T21:39:58Z</time>
      </trkpt>
      <trkpt lat="43.881434" lon="-1.30177">
        <ele>15.6</ele>
        <time>2020-08-12T21:40:00Z</time>
      </trkpt>
      <trkpt lat="43.881651" lon="-1.301762">
        <ele>15.6</ele>
        <time>2020-08-12T21:40:01Z</time>
      </trkpt>
      <trkpt lat="43.881988" lon="-1.30166">
        <ele>17.0</ele>
        <time>2020-08-12T21:40:04Z</time>
      </trkpt>
      <trkpt lat="43.882264" lon="-1.301477">
        <ele>17.0</ele>
        <time>2020-08-12T21:40:07Z</time>
      </trkpt>
      <trkpt lat="43.882607" lon="-1.301176">
        <ele>14.6</ele>
        <time>2020-08-12T21:40:10Z</time>
      </trkpt>
      <trkpt lat="43.884542" lon="-1.299049">
        <ele>11.6</ele>
        <time>2020-08-12T21:40:31Z</time>
      </trkpt>
      <trkpt lat="43.884761" lon="-1.298755">
        <ele>11.6</ele>
        <time>2020-08-12T21:40:33Z</time>
      </trkpt>
      <trkpt lat="43.885879" lon="-1.296337">
        <ele>11.6</ele>
        <time>2020-08-12T21:40:51Z</time>
      </trkpt>
      <trkpt lat="43.886119" lon="-1.295866">
        <ele>11.6</ele>
        <time>2020-08-12T21:40:54Z</time>
      </trkpt>
      <trkpt lat="43.887043" lon="-1.294402">
        <ele>14.2</ele>
        <time>2020-08-12T21:41:06Z</time>
      </trkpt>
      <trkpt lat="43.88726" lon="-1.294167">
        <ele>14.2</ele>
        <time>2020-08-12T21:41:08Z</time>
      </trkpt>
      <trkpt lat="43.887627" lon="-1.293834">
        <ele>12.6</ele>
        <time>2020-08-12T21:41:12Z</time>
      </trkpt>
      <trkpt lat="43.887976" lon="-1.293604">
        <ele>12.6</ele>
        <time>2020-08-12T21:41:15Z</time>
      </trkpt>
      <trkpt lat="43.88816" lon="-1.293521">
        <ele>12.6</ele>
        <time>2020-08-12T21:41:17Z</time>
      </trkpt>
      <trkpt lat="43.893683" lon="-1.291657">
        <ele>11.6</ele>
        <time>2020-08-12T21:42:05Z</time>
      </trkpt>
      <trkpt lat="43.893992" lon="-1.291567">
        <ele>11.6</ele>
        <time>2020-08-12T21:42:07Z</time>
      </trkpt>
      <trkpt lat="43.894421" lon="-1.291525">
        <ele>12.4</ele>
        <time>2020-08-12T21:42:11Z</time>
      </trkpt>
      <trkpt lat="43.896303" lon="-1.291775">
        <ele>13.4</ele>
        <time>2020-08-12T21:42:27Z</time>
      </trkpt>
      <trkpt lat="43.90306" lon="-1.292794">
        <ele>28.4</ele>
        <time>2020-08-12T21:43:24Z</time>
      </trkpt>
      <trkpt lat="43.90309" lon="-1.292709">
        <ele>28.4</ele>
        <time>2020-08-12T21:43:24Z</time>
      </trkpt>
      <trkpt lat="43.903147" lon="-1.292668">
        <ele>28.4</ele>
        <time>2020-08-12T21:43:25Z</time>
      </trkpt>
      <trkpt lat="43.903179" lon="-1.292666">
        <ele>28.4</ele>
        <time>2020-08-12T21:43:25Z</time>
      </trkpt>
      <trkpt lat="43.903212" lon="-1.292679">
        <ele>28.4</ele>
        <time>2020-08-12T21:43:25Z</time>
      </trkpt>
      <trkpt lat="43.903262" lon="-1.292744">
        <ele>28.4</ele>
        <time>2020-08-12T21:43:25Z</time>
      </trkpt>
      <trkpt lat="43.903274" lon="-1.292837">
        <ele>28.4</ele>
        <time>2020-08-12T21:43:26Z</time>
      </trkpt>
      <trkpt lat="43.903687" lon="-1.292892">
        <ele>26.8</ele>
        <time>2020-08-12T21:43:29Z</time>
      </trkpt>
      <trkpt lat="43.904321" lon="-1.293138">
        <ele>26.0</ele>
        <time>2020-08-12T21:43:33Z</time>
      </trkpt>
      <trkpt lat="43.905317" lon="-1.29372">
        <ele>27.6</ele>
        <time>2020-08-12T21:43:40Z</time>
      </trkpt>
      <trkpt lat="43.908771" lon="-1.295665">
        <ele>22.4</ele>
        <time>2020-08-12T21:44:04Z</time>
      </trkpt>
      <trkpt lat="43.912819" lon="-1.297901">
        <ele>19.0</ele>
        <time>2020-08-12T21:44:32Z</time>
      </trkpt>
      <trkpt lat="43.914025" lon="-1.298606">
        <ele>15.2</ele>
        <time>2020-08-12T21:44:40Z</time>
      </trkpt>
      <trkpt lat="43.914142" lon="-1.298708">
        <ele>15.2</ele>
        <time>2020-08-12T21:44:41Z</time>
      </trkpt>
      <trkpt lat="43.91429" lon="-1.298947">
        <ele>14.8</ele>
        <time>2020-08-12T21:44:42Z</time>
      </trkpt>
      <trkpt lat="43.914386" lon="-1.299253">
        <ele>13.8</ele>
        <time>2020-08-12T21:44:44Z</time>
      </trkpt>
      <trkpt lat="43.914404" lon="-1.299371">
        <ele>13.8</ele>
        <time>2020-08-12T21:44:45Z</time>
      </trkpt>
      <trkpt lat="43.914408" lon="-1.29951">
        <ele>13.8</ele>
        <time>2020-08-12T21:44:45Z</time>
      </trkpt>
      <trkpt lat="43.914388" lon="-1.299671">
        <ele>13.8</ele>
        <time>2020-08-12T21:44:46Z</time>
      </trkpt>
      <trkpt lat="43.914262" lon="-1.300167">
        <ele>15.6</ele>
        <time>2020-08-12T21:44:48Z</time>
      </trkpt>
      <trkpt lat="43.91421" lon="-1.300504">
        <ele>15.6</ele>
        <time>2020-08-12T21:44:50Z</time>
      </trkpt>
      <trkpt lat="43.91421" lon="-1.300672">
        <ele>15.6</ele>
        <time>2020-08-12T21:44:51Z</time>
      </trkpt>
      <trkpt lat="43.914244" lon="-1.30083">
        <ele>15.6</ele>
        <time>2020-08-12T21:44:52Z</time>
      </trkpt>
      <trkpt lat="43.914727" lon="-1.302419">
        <ele>16.4</ele>
        <time>2020-08-12T21:45:00Z</time>
      </trkpt>
      <trkpt lat="43.915071" lon="-1.303464">
        <ele>17.8</ele>
        <time>2020-08-12T21:45:05Z</time>
      </trkpt>
      <trkpt lat="43.915196" lon="-1.303715">
        <ele>17.8</ele>
        <time>2020-08-12T21:45:06Z</time>
      </trkpt>
      <trkpt lat="43.915292" lon="-1.303822">
        <ele>17.8</ele>
        <time>2020-08-12T21:45:07Z</time>
      </trkpt>
      <trkpt lat="43.91556" lon="-1.30403">
        <ele>17.8</ele>
        <time>2020-08-12T21:45:09Z</time>
      </trkpt>
      <trkpt lat="43.915731" lon="-1.304098">
        <ele>17.8</ele>
        <time>2020-08-12T21:45:10Z</time>
      </trkpt>
      <trkpt lat="43.915684" lon="-1.304813">
        <ele>17.0</ele>
        <time>2020-08-12T21:45:17Z</time>
      </trkpt>
      <trkpt lat="43.915673" lon="-1.305204">
        <ele>15.6</ele>
        <time>2020-08-12T21:45:20Z</time>
      </trkpt>
      <trkpt lat="43.915664" lon="-1.306539">
        <ele>15.2</ele>
        <time>2020-08-12T21:45:32Z</time>
      </trkpt>
      <trkpt lat="43.915633" lon="-1.307904">
        <ele>14.8</ele>
        <time>2020-08-12T21:45:44Z</time>
      </trkpt>
      <trkpt lat="43.915633" lon="-1.30801">
        <ele>14.8</ele>
        <time>2020-08-12T21:45:45Z</time>
      </trkpt>
      <trkpt lat="43.915676" lon="-1.308338">
        <ele>16.8</ele>
        <time>2020-08-12T21:45:47Z</time>
      </trkpt>
      <trkpt lat="43.915718" lon="-1.30839">
        <ele>16.8</ele>
        <time>2020-08-12T21:45:48Z</time>
      </trkpt>
      <trkpt lat="43.915729" lon="-1.308459">
        <ele>16.8</ele>
        <time>2020-08-12T21:45:49Z</time>
      </trkpt>
      <trkpt lat="43.915703" lon="-1.308533">
        <ele>16.8</ele>
        <time>2020-08-12T21:45:49Z</time>
      </trkpt>
      <trkpt lat="43.915665" lon="-1.308562">
        <ele>16.8</ele>
        <time>2020-08-12T21:45:49Z</time>
      </trkpt>
      <trkpt lat="43.915627" lon="-1.308693">
        <ele>16.8</ele>
        <time>2020-08-12T21:45:50Z</time>
      </trkpt>
      <trkpt lat="43.91553" lon="-1.313157">
        <ele>20.8</ele>
        <time>2020-08-12T21:46:12Z</time>
      </trkpt>
      <trkpt lat="43.915528" lon="-1.313733">
        <ele>19.6</ele>
        <time>2020-08-12T21:46:14Z</time>
      </trkpt>
      <trkpt lat="43.915488" lon="-1.314521">
        <ele>17.4</ele>
        <time>2020-08-12T21:46:18Z</time>
      </trkpt>
      <trkpt lat="43.915393" lon="-1.315759">
        <ele>15.4</ele>
        <time>2020-08-12T21:46:24Z</time>
      </trkpt>
      <trkpt lat="43.915298" lon="-1.317528">
        <ele>17.6</ele>
        <time>2020-08-12T21:46:32Z</time>
      </trkpt>
      <trkpt lat="43.915264" lon="-1.318485">
        <ele>19.6</ele>
        <time>2020-08-12T21:46:37Z</time>
      </trkpt>
      <trkpt lat="43.915251" lon="-1.319745">
        <ele>18.6</ele>
        <time>2020-08-12T21:46:43Z</time>
      </trkpt>
      <trkpt lat="43.915196" lon="-1.320269">
        <ele>17.2</ele>
        <time>2020-08-12T21:46:45Z</time>
      </trkpt>
      <trkpt lat="43.915153" lon="-1.32049">
        <ele>17.2</ele>
        <time>2020-08-12T21:46:47Z</time>
      </trkpt>
      <trkpt lat="43.915086" lon="-1.320722">
        <ele>17.2</ele>
        <time>2020-08-12T21:46:48Z</time>
      </trkpt>
      <trkpt lat="43.914968" lon="-1.321019">
        <ele>16.8</ele>
        <time>2020-08-12T21:46:49Z</time>
      </trkpt>
      <trkpt lat="43.914338" lon="-1.322438">
        <ele>17.4</ele>
        <time>2020-08-12T21:46:57Z</time>
      </trkpt>
      <trkpt lat="43.913479" lon="-1.324114">
        <ele>14.4</ele>
        <time>2020-08-12T21:47:07Z</time>
      </trkpt>
      <trkpt lat="43.912576" lon="-1.325721">
        <ele>15.6</ele>
        <time>2020-08-12T21:47:17Z</time>
      </trkpt>
      <trkpt lat="43.912126" lon="-1.326898">
        <ele>19.0</ele>
        <time>2020-08-12T21:47:23Z</time>
      </trkpt>
      <trkpt lat="43.912037" lon="-1.327205">
        <ele>19.0</ele>
        <time>2020-08-12T21:47:24Z</time>
      </trkpt>
      <trkpt lat="43.912003" lon="-1.327394">
        <ele>19.0</ele>
        <time>2020-08-12T21:47:25Z</time>
      </trkpt>
      <trkpt lat="43.911984" lon="-1.327622">
        <ele>24.2</ele>
        <time>2020-08-12T21:47:27Z</time>
      </trkpt>
      <trkpt lat="43.912069" lon="-1.328702">
        <ele>28.6</ele>
        <time>2020-08-12T21:47:32Z</time>
      </trkpt>
      <trkpt lat="43.912168" lon="-1.329632">
        <ele>31.6</ele>
        <time>2020-08-12T21:47:36Z</time>
      </trkpt>
      <trkpt lat="43.912163" lon="-1.329854">
        <ele>31.6</ele>
        <time>2020-08-12T21:47:37Z</time>
      </trkpt>
      <trkpt lat="43.912044" lon="-1.330835">
        <ele>39.6</ele>
        <time>2020-08-12T21:47:42Z</time>
      </trkpt>
      <trkpt lat="43.912086" lon="-1.331339">
        <ele>39.6</ele>
        <time>2020-08-12T21:47:44Z</time>
      </trkpt>
      <trkpt lat="43.91206" lon="-1.332142">
        <ele>40.8</ele>
        <time>2020-08-12T21:47:48Z</time>
      </trkpt>
      <trkpt lat="43.91184" lon="-1.334949">
        <ele>43.0</ele>
        <time>2020-08-12T21:48:02Z</time>
      </trkpt>
      <trkpt lat="43.911852" lon="-1.335355">
        <ele>43.8</ele>
        <time>2020-08-12T21:48:03Z</time>
      </trkpt>
      <trkpt lat="43.91207" lon="-1.336148">
        <ele>41.2</ele>
        <time>2020-08-12T21:48:07Z</time>
      </trkpt>
      <trkpt lat="43.912109" lon="-1.336339">
        <ele>41.2</ele>
        <time>2020-08-12T21:48:08Z</time>
      </trkpt>
      <trkpt lat="43.912142" lon="-1.336646">
        <ele>41.2</ele>
        <time>2020-08-12T21:48:10Z</time>
      </trkpt>
      <trkpt lat="43.912079" lon="-1.337021">
        <ele>39.2</ele>
        <time>2020-08-12T21:48:12Z</time>
      </trkpt>
      <trkpt lat="43.91161" lon="-1.338504">
        <ele>36.2</ele>
        <time>2020-08-12T21:48:19Z</time>
      </trkpt>
      <trkpt lat="43.911561" lon="-1.338746">
        <ele>36.2</ele>
        <time>2020-08-12T21:48:21Z</time>
      </trkpt>
      <trkpt lat="43.911534" lon="-1.33897">
        <ele>36.2</ele>
        <time>2020-08-12T21:48:22Z</time>
      </trkpt>
      <trkpt lat="43.911485" lon="-1.339617">
        <ele>42.6</ele>
        <time>2020-08-12T21:48:25Z</time>
      </trkpt>
      <trkpt lat="43.911496" lon="-1.34004">
        <ele>47.4</ele>
        <time>2020-08-12T21:48:27Z</time>
      </trkpt>
      <trkpt lat="43.911547" lon="-1.340264">
        <ele>47.4</ele>
        <time>2020-08-12T21:48:28Z</time>
      </trkpt>
      <trkpt lat="43.911834" lon="-1.340861">
        <ele>48.4</ele>
        <time>2020-08-12T21:48:31Z</time>
      </trkpt>
      <trkpt lat="43.91192" lon="-1.341116">
        <ele>48.4</ele>
        <time>2020-08-12T21:48:33Z</time>
      </trkpt>
      <trkpt lat="43.911979" lon="-1.341523">
        <ele>48.4</ele>
        <time>2020-08-12T21:48:35Z</time>
      </trkpt>
      <trkpt lat="43.911976" lon="-1.341843">
        <ele>45.6</ele>
        <time>2020-08-12T21:48:36Z</time>
      </trkpt>
      <trkpt lat="43.911934" lon="-1.342585">
        <ele>42.8</ele>
        <time>2020-08-12T21:48:40Z</time>
      </trkpt>
      <trkpt lat="43.911941" lon="-1.342823">
        <ele>42.8</ele>
        <time>2020-08-12T21:48:41Z</time>
      </trkpt>
      <trkpt lat="43.911955" lon="-1.343088">
        <ele>42.8</ele>
        <time>2020-08-12T21:48:42Z</time>
      </trkpt>
      <trkpt lat="43.912129" lon="-1.344284">
        <ele>35.6</ele>
        <time>2020-08-12T21:48:48Z</time>
      </trkpt>
      <trkpt lat="43.91214" lon="-1.344529">
        <ele>35.6</ele>
        <time>2020-08-12T21:48:49Z</time>
      </trkpt>
      <trkpt lat="43.912113" lon="-1.345732">
        <ele>34.8</ele>
        <time>2020-08-12T21:48:55Z</time>
      </trkpt>
      <trkpt lat="43.911931" lon="-1.346789">
        <ele>39.0</ele>
        <time>2020-08-12T21:49:00Z</time>
      </trkpt>
      <trkpt lat="43.911921" lon="-1.346947">
        <ele>39.0</ele>
        <time>2020-08-12T21:49:01Z</time>
      </trkpt>
      <trkpt lat="43.91196" lon="-1.347289">
        <ele>39.0</ele>
        <time>2020-08-12T21:49:02Z</time>
      </trkpt>
      <trkpt lat="43.91215" lon="-1.348077">
        <ele>39.0</ele>
        <time>2020-08-12T21:49:06Z</time>
      </trkpt>
      <trkpt lat="43.912236" lon="-1.3486">
        <ele>33.2</ele>
        <time>2020-08-12T21:49:09Z</time>
      </trkpt>
      <trkpt lat="43.912254" lon="-1.348819">
        <ele>33.2</ele>
        <time>2020-08-12T21:49:10Z</time>
      </trkpt>
      <trkpt lat="43.912253" lon="-1.349082">
        <ele>33.2</ele>
        <time>2020-08-12T21:49:11Z</time>
      </trkpt>
      <trkpt lat="43.912105" lon="-1.351221">
        <ele>13.2</ele>
        <time>2020-08-12T21:49:21Z</time>
      </trkpt>
      <trkpt lat="43.912094" lon="-1.35161">
        <ele>13.2</ele>
        <time>2020-08-12T21:49:23Z</time>
      </trkpt>
      <trkpt lat="43.91211" lon="-1.352856">
        <ele>12.6</ele>
        <time>2020-08-12T21:49:29Z</time>
      </trkpt>
      <trkpt lat="43.912152" lon="-1.353983">
        <ele>14.2</ele>
        <time>2020-08-12T21:49:34Z</time>
      </trkpt>
      <trkpt lat="43.912108" lon="-1.354524">
        <ele>13.8</ele>
        <time>2020-08-12T21:49:37Z</time>
      </trkpt>
      <trkpt lat="43.912006" lon="-1.355117">
        <ele>12.6</ele>
        <time>2020-08-12T21:49:40Z</time>
      </trkpt>
      <trkpt lat="43.911798" lon="-1.355706">
        <ele>12.6</ele>
        <time>2020-08-12T21:49:43Z</time>
      </trkpt>
      <trkpt lat="43.911707" lon="-1.355903">
        <ele>15.6</ele>
        <time>2020-08-12T21:49:44Z</time>
      </trkpt>
      <trkpt lat="43.911603" lon="-1.356077">
        <ele>14.8</ele>
        <time>2020-08-12T21:49:45Z</time>
      </trkpt>
      <trkpt lat="43.911424" lon="-1.356305">
        <ele>14.8</ele>
        <time>2020-08-12T21:49:47Z</time>
      </trkpt>
      <trkpt lat="43.910752" lon="-1.3568">
        <ele>14.2</ele>
        <time>2020-08-12T21:49:52Z</time>
      </trkpt>
      <trkpt lat="43.910559" lon="-1.356987">
        <ele>14.2</ele>
        <time>2020-08-12T21:49:53Z</time>
      </trkpt>
      <trkpt lat="43.907805" lon="-1.360549">
        <ele>14.0</ele>
        <time>2020-08-12T21:50:18Z</time>
      </trkpt>
      <trkpt lat="43.907198" lon="-1.361281">
        <ele>16.8</ele>
        <time>2020-08-12T21:50:23Z</time>
      </trkpt>
      <trkpt lat="43.906786" lon="-1.361625">
        <ele>16.8</ele>
        <time>2020-08-12T21:50:27Z</time>
      </trkpt>
      <trkpt lat="43.904924" lon="-1.362796">
        <ele>18.0</ele>
        <time>2020-08-12T21:50:40Z</time>
      </trkpt>
      <trkpt lat="43.904243" lon="-1.363395">
        <ele>21.2</ele>
        <time>2020-08-12T21:50:45Z</time>
      </trkpt>
      <trkpt lat="43.904024" lon="-1.363518">
        <ele>19.8</ele>
        <time>2020-08-12T21:50:47Z</time>
      </trkpt>
      <trkpt lat="43.904024" lon="-1.363518">
        <ele>19.8</ele>
        <time>2020-08-12T21:50:47Z</time>
      </trkpt>
      <trkpt lat="43.904243" lon="-1.363395">
        <ele>21.2</ele>
        <time>2020-08-12T21:50:49Z</time>
      </trkpt>
      <trkpt lat="43.904924" lon="-1.362796">
        <ele>18.0</ele>
        <time>2020-08-12T21:50:54Z</time>
      </trkpt>
      <trkpt lat="43.906786" lon="-1.361625">
        <ele>16.8</ele>
        <time>2020-08-12T21:51:07Z</time>
      </trkpt>
      <trkpt lat="43.907198" lon="-1.361281">
        <ele>16.8</ele>
        <time>2020-08-12T21:51:11Z</time>
      </trkpt>
      <trkpt lat="43.907805" lon="-1.360549">
        <ele>14.0</ele>
        <time>2020-08-12T21:51:16Z</time>
      </trkpt>
      <trkpt lat="43.910559" lon="-1.356987">
        <ele>14.2</ele>
        <time>2020-08-12T21:51:41Z</time>
      </trkpt>
      <trkpt lat="43.910752" lon="-1.3568">
        <ele>14.2</ele>
        <time>2020-08-12T21:51:42Z</time>
      </trkpt>
      <trkpt lat="43.911424" lon="-1.356305">
        <ele>14.8</ele>
        <time>2020-08-12T21:51:47Z</time>
      </trkpt>
      <trkpt lat="43.911603" lon="-1.356077">
        <ele>14.8</ele>
        <time>2020-08-12T21:51:49Z</time>
      </trkpt>
      <trkpt lat="43.911707" lon="-1.355903">
        <ele>15.6</ele>
        <time>2020-08-12T21:51:50Z</time>
      </trkpt>
      <trkpt lat="43.911798" lon="-1.355706">
        <ele>12.6</ele>
        <time>2020-08-12T21:51:51Z</time>
      </trkpt>
      <trkpt lat="43.912006" lon="-1.355117">
        <ele>12.6</ele>
        <time>2020-08-12T21:51:54Z</time>
      </trkpt>
      <trkpt lat="43.912108" lon="-1.354524">
        <ele>13.8</ele>
        <time>2020-08-12T21:51:57Z</time>
      </trkpt>
      <trkpt lat="43.912152" lon="-1.353983">
        <ele>14.2</ele>
        <time>2020-08-12T21:51:59Z</time>
      </trkpt>
      <trkpt lat="43.91211" lon="-1.352856">
        <ele>12.6</ele>
        <time>2020-08-12T21:52:05Z</time>
      </trkpt>
      <trkpt lat="43.912094" lon="-1.35161">
        <ele>13.2</ele>
        <time>2020-08-12T21:52:11Z</time>
      </trkpt>
      <trkpt lat="43.912105" lon="-1.351221">
        <ele>13.2</ele>
        <time>2020-08-12T21:52:13Z</time>
      </trkpt>
      <trkpt lat="43.912253" lon="-1.349082">
        <ele>33.2</ele>
        <time>2020-08-12T21:52:23Z</time>
      </trkpt>
      <trkpt lat="43.912254" lon="-1.348819">
        <ele>33.2</ele>
        <time>2020-08-12T21:52:24Z</time>
      </trkpt>
      <trkpt lat="43.912236" lon="-1.3486">
        <ele>33.2</ele>
        <time>2020-08-12T21:52:25Z</time>
      </trkpt>
      <trkpt lat="43.91215" lon="-1.348077">
        <ele>39.0</ele>
        <time>2020-08-12T21:52:28Z</time>
      </trkpt>
      <trkpt lat="43.91196" lon="-1.347289">
        <ele>39.0</ele>
        <time>2020-08-12T21:52:32Z</time>
      </trkpt>
      <trkpt lat="43.911921" lon="-1.346947">
        <ele>39.0</ele>
        <time>2020-08-12T21:52:33Z</time>
      </trkpt>
      <trkpt lat="43.911931" lon="-1.346789">
        <ele>39.0</ele>
        <time>2020-08-12T21:52:34Z</time>
      </trkpt>
      <trkpt lat="43.912113" lon="-1.345732">
        <ele>34.8</ele>
        <time>2020-08-12T21:52:39Z</time>
      </trkpt>
      <trkpt lat="43.91214" lon="-1.344529">
        <ele>35.6</ele>
        <time>2020-08-12T21:52:45Z</time>
      </trkpt>
      <trkpt lat="43.912129" lon="-1.344284">
        <ele>35.6</ele>
        <time>2020-08-12T21:52:46Z</time>
      </trkpt>
      <trkpt lat="43.911955" lon="-1.343088">
        <ele>42.8</ele>
        <time>2020-08-12T21:52:52Z</time>
      </trkpt>
      <trkpt lat="43.911941" lon="-1.342823">
        <ele>42.8</ele>
        <time>2020-08-12T21:52:53Z</time>
      </trkpt>
      <trkpt lat="43.911934" lon="-1.342585">
        <ele>42.8</ele>
        <time>2020-08-12T21:52:54Z</time>
      </trkpt>
      <trkpt lat="43.911976" lon="-1.341843">
        <ele>45.6</ele>
        <time>2020-08-12T21:52:58Z</time>
      </trkpt>
      <trkpt lat="43.911979" lon="-1.341523">
        <ele>48.4</ele>
        <time>2020-08-12T21:52:59Z</time>
      </trkpt>
      <trkpt lat="43.91192" lon="-1.341116">
        <ele>48.4</ele>
        <time>2020-08-12T21:53:01Z</time>
      </trkpt>
      <trkpt lat="43.911834" lon="-1.340861">
        <ele>48.4</ele>
        <time>2020-08-12T21:53:03Z</time>
      </trkpt>
      <trkpt lat="43.911547" lon="-1.340264">
        <ele>47.4</ele>
        <time>2020-08-12T21:53:06Z</time>
      </trkpt>
      <trkpt lat="43.911496" lon="-1.34004">
        <ele>47.4</ele>
        <time>2020-08-12T21:53:07Z</time>
      </trkpt>
      <trkpt lat="43.911485" lon="-1.339617">
        <ele>42.6</ele>
        <time>2020-08-12T21:53:09Z</time>
      </trkpt>
      <trkpt lat="43.911534" lon="-1.33897">
        <ele>36.2</ele>
        <time>2020-08-12T21:53:12Z</time>
      </trkpt>
      <trkpt lat="43.911561" lon="-1.338746">
        <ele>36.2</ele>
        <time>2020-08-12T21:53:13Z</time>
      </trkpt>
      <trkpt lat="43.91161" lon="-1.338504">
        <ele>36.2</ele>
        <time>2020-08-12T21:53:14Z</time>
      </trkpt>
      <trkpt lat="43.912079" lon="-1.337021">
        <ele>39.2</ele>
        <time>2020-08-12T21:53:22Z</time>
      </trkpt>
      <trkpt lat="43.912142" lon="-1.336646">
        <ele>41.2</ele>
        <time>2020-08-12T21:53:24Z</time>
      </trkpt>
      <trkpt lat="43.912109" lon="-1.336339">
        <ele>41.2</ele>
        <time>2020-08-12T21:53:25Z</time>
      </trkpt>
      <trkpt lat="43.91207" lon="-1.336148">
        <ele>41.2</ele>
        <time>2020-08-12T21:53:26Z</time>
      </trkpt>
      <trkpt lat="43.911852" lon="-1.335355">
        <ele>43.8</ele>
        <time>2020-08-12T21:53:30Z</time>
      </trkpt>
      <trkpt lat="43.91184" lon="-1.334949">
        <ele>43.0</ele>
        <time>2020-08-12T21:53:32Z</time>
      </trkpt>
      <trkpt lat="43.91206" lon="-1.332142">
        <ele>40.8</ele>
        <time>2020-08-12T21:53:46Z</time>
      </trkpt>
      <trkpt lat="43.912086" lon="-1.331339">
        <ele>39.6</ele>
        <time>2020-08-12T21:53:50Z</time>
      </trkpt>
      <trkpt lat="43.912044" lon="-1.330835">
        <ele>39.6</ele>
        <time>2020-08-12T21:53:52Z</time>
      </trkpt>
      <trkpt lat="43.912163" lon="-1.329854">
        <ele>31.6</ele>
        <time>2020-08-12T21:53:57Z</time>
      </trkpt>
      <trkpt lat="43.912168" lon="-1.329632">
        <ele>31.6</ele>
        <time>2020-08-12T21:53:58Z</time>
      </trkpt>
      <trkpt lat="43.912069" lon="-1.328702">
        <ele>28.6</ele>
        <time>2020-08-12T21:54:02Z</time>
      </trkpt>
      <trkpt lat="43.911984" lon="-1.327622">
        <ele>24.2</ele>
        <time>2020-08-12T21:54:07Z</time>
      </trkpt>
      <trkpt lat="43.912003" lon="-1.327394">
        <ele>19.0</ele>
        <time>2020-08-12T21:54:08Z</time>
      </trkpt>
      <trkpt lat="43.912037" lon="-1.327205">
        <ele>19.0</ele>
        <time>2020-08-12T21:54:09Z</time>
      </trkpt>
      <trkpt lat="43.912126" lon="-1.326898">
        <ele>19.0</ele>
        <time>2020-08-12T21:54:11Z</time>
      </trkpt>
      <trkpt lat="43.912576" lon="-1.325721">
        <ele>15.6</ele>
        <time>2020-08-12T21:54:17Z</time>
      </trkpt>
      <trkpt lat="43.913479" lon="-1.324114">
        <ele>14.4</ele>
        <time>2020-08-12T21:54:27Z</time>
      </trkpt>
      <trkpt lat="43.914338" lon="-1.322438">
        <ele>17.4</ele>
        <time>2020-08-12T21:54:37Z</time>
      </trkpt>
      <trkpt lat="43.914968" lon="-1.321019">
        <ele>16.8</ele>
        <time>2020-08-12T21:54:45Z</time>
      </trkpt>
      <trkpt lat="43.915086" lon="-1.320722">
        <ele>17.2</ele>
        <time>2020-08-12T21:54:46Z</time>
      </trkpt>
      <trkpt lat="43.915153" lon="-1.32049">
        <ele>17.2</ele>
        <time>2020-08-12T21:54:47Z</time>
      </trkpt>
      <trkpt lat="43.915196" lon="-1.320269">
        <ele>17.2</ele>
        <time>2020-08-12T21:54:48Z</time>
      </trkpt>
      <trkpt lat="43.915251" lon="-1.319745">
        <ele>18.6</ele>
        <time>2020-08-12T21:54:51Z</time>
      </trkpt>
      <trkpt lat="43.915264" lon="-1.318485">
        <ele>19.6</ele>
        <time>2020-08-12T21:54:57Z</time>
      </trkpt>
      <trkpt lat="43.915298" lon="-1.317528">
        <ele>17.6</ele>
        <time>2020-08-12T21:55:01Z</time>
      </trkpt>
      <trkpt lat="43.915393" lon="-1.315759">
        <ele>15.4</ele>
        <time>2020-08-12T21:55:10Z</time>
      </trkpt>
      <trkpt lat="43.915488" lon="-1.314521">
        <ele>17.4</ele>
        <time>2020-08-12T21:55:16Z</time>
      </trkpt>
      <trkpt lat="43.915528" lon="-1.313733">
        <ele>19.6</ele>
        <time>2020-08-12T21:55:19Z</time>
      </trkpt>
      <trkpt lat="43.91553" lon="-1.313157">
        <ele>20.8</ele>
        <time>2020-08-12T21:55:22Z</time>
      </trkpt>
      <trkpt lat="43.915627" lon="-1.308562">
        <ele>16.8</ele>
        <time>2020-08-12T21:55:44Z</time>
      </trkpt>
      <trkpt lat="43.915568" lon="-1.308496">
        <ele>16.8</ele>
        <time>2020-08-12T21:55:45Z</time>
      </trkpt>
      <trkpt lat="43.915562" lon="-1.308427">
        <ele>16.8</ele>
        <time>2020-08-12T21:55:46Z</time>
      </trkpt>
      <trkpt lat="43.915584" lon="-1.308366">
        <ele>16.8</ele>
        <time>2020-08-12T21:55:46Z</time>
      </trkpt>
      <trkpt lat="43.915626" lon="-1.308333">
        <ele>14.8</ele>
        <time>2020-08-12T21:55:47Z</time>
      </trkpt>
      <trkpt lat="43.915664" lon="-1.306539">
        <ele>15.2</ele>
        <time>2020-08-12T21:56:02Z</time>
      </trkpt>
      <trkpt lat="43.915673" lon="-1.305204">
        <ele>15.6</ele>
        <time>2020-08-12T21:56:13Z</time>
      </trkpt>
      <trkpt lat="43.915684" lon="-1.304813">
        <ele>17.0</ele>
        <time>2020-08-12T21:56:17Z</time>
      </trkpt>
      <trkpt lat="43.915731" lon="-1.304098">
        <ele>17.8</ele>
        <time>2020-08-12T21:56:23Z</time>
      </trkpt>
      <trkpt lat="43.915731" lon="-1.304098">
        <ele>17.5</ele>
        <time>2020-08-12T21:56:23Z</time>
      </trkpt>
      <trkpt lat="43.915731" lon="-1.304098">
        <ele>17.5</ele>
        <time>2020-08-12T21:56:23Z</time>
      </trkpt>
      <trkpt lat="43.917471" lon="-1.304543">
        <ele>20.0</ele>
        <time>2020-08-12T21:56:32Z</time>
      </trkpt>
      <trkpt lat="43.92047" lon="-1.305209">
        <ele>23.0</ele>
        <time>2020-08-12T21:56:48Z</time>
      </trkpt>
      <trkpt lat="43.921851" lon="-1.305297">
        <ele>22.2</ele>
        <time>2020-08-12T21:56:55Z</time>
      </trkpt>
      <trkpt lat="43.928915" lon="-1.305611">
        <ele>21.4</ele>
        <time>2020-08-12T21:57:31Z</time>
      </trkpt>
      <trkpt lat="43.929393" lon="-1.305582">
        <ele>24.6</ele>
        <time>2020-08-12T21:57:33Z</time>
      </trkpt>
      <trkpt lat="43.933616" lon="-1.304893">
        <ele>27.4</ele>
        <time>2020-08-12T21:57:55Z</time>
      </trkpt>
      <trkpt lat="43.934239" lon="-1.304845">
        <ele>28.4</ele>
        <time>2020-08-12T21:57:58Z</time>
      </trkpt>
      <trkpt lat="43.936589" lon="-1.304911">
        <ele>30.0</ele>
        <time>2020-08-12T21:58:10Z</time>
      </trkpt>
      <trkpt lat="43.936912" lon="-1.30487">
        <ele>29.2</ele>
        <time>2020-08-12T21:58:12Z</time>
      </trkpt>
      <trkpt lat="43.937219" lon="-1.304755">
        <ele>29.2</ele>
        <time>2020-08-12T21:58:13Z</time>
      </trkpt>
      <trkpt lat="43.939603" lon="-1.303496">
        <ele>29.4</ele>
        <time>2020-08-12T21:58:26Z</time>
      </trkpt>
      <trkpt lat="43.940489" lon="-1.303208">
        <ele>32.2</ele>
        <time>2020-08-12T21:58:31Z</time>
      </trkpt>
      <trkpt lat="43.94145" lon="-1.303019">
        <ele>32.2</ele>
        <time>2020-08-12T21:58:36Z</time>
      </trkpt>
      <trkpt lat="43.943882" lon="-1.302849">
        <ele>34.8</ele>
        <time>2020-08-12T21:58:48Z</time>
      </trkpt>
      <trkpt lat="43.944503" lon="-1.302747">
        <ele>34.8</ele>
        <time>2020-08-12T21:58:52Z</time>
      </trkpt>
      <trkpt lat="43.946741" lon="-1.302262">
        <ele>26.8</ele>
        <time>2020-08-12T21:59:03Z</time>
      </trkpt>
      <trkpt lat="43.947006" lon="-1.302236">
        <ele>26.8</ele>
        <time>2020-08-12T21:59:05Z</time>
      </trkpt>
      <trkpt lat="43.948479" lon="-1.30231">
        <ele>26.8</ele>
        <time>2020-08-12T21:59:12Z</time>
      </trkpt>
      <trkpt lat="43.948774" lon="-1.302268">
        <ele>26.8</ele>
        <time>2020-08-12T21:59:14Z</time>
      </trkpt>
      <trkpt lat="43.95007" lon="-1.301819">
        <ele>29.4</ele>
        <time>2020-08-12T21:59:20Z</time>
      </trkpt>
      <trkpt lat="43.950815" lon="-1.301409">
        <ele>29.2</ele>
        <time>2020-08-12T21:59:25Z</time>
      </trkpt>
      <trkpt lat="43.951163" lon="-1.301256">
        <ele>30.8</ele>
        <time>2020-08-12T21:59:26Z</time>
      </trkpt>
      <trkpt lat="43.95402" lon="-1.300467">
        <ele>28.6</ele>
        <time>2020-08-12T21:59:41Z</time>
      </trkpt>
      <trkpt lat="43.956061" lon="-1.299933">
        <ele>31.0</ele>
        <time>2020-08-12T21:59:52Z</time>
      </trkpt>
      <trkpt lat="43.960434" lon="-1.29869">
        <ele>36.6</ele>
        <time>2020-08-12T22:00:15Z</time>
      </trkpt>
      <trkpt lat="43.961246" lon="-1.298221">
        <ele>31.8</ele>
        <time>2020-08-12T22:00:19Z</time>
      </trkpt>
      <trkpt lat="43.963216" lon="-1.297032">
        <ele>36.4</ele>
        <time>2020-08-12T22:00:30Z</time>
      </trkpt>
      <trkpt lat="43.965397" lon="-1.296379">
        <ele>36.4</ele>
        <time>2020-08-12T22:00:42Z</time>
      </trkpt>
      <trkpt lat="43.967715" lon="-1.29559">
        <ele>40.6</ele>
        <time>2020-08-12T22:00:54Z</time>
      </trkpt>
      <trkpt lat="43.967979" lon="-1.295455">
        <ele>40.6</ele>
        <time>2020-08-12T22:00:55Z</time>
      </trkpt>
      <trkpt lat="43.968282" lon="-1.295181">
        <ele>40.6</ele>
        <time>2020-08-12T22:00:57Z</time>
      </trkpt>
      <trkpt lat="43.97221" lon="-1.290268">
        <ele>40.0</ele>
        <time>2020-08-12T22:01:24Z</time>
      </trkpt>
      <trkpt lat="43.979931" lon="-1.28044">
        <ele>39.8</ele>
        <time>2020-08-12T22:02:18Z</time>
      </trkpt>
      <trkpt lat="43.982309" lon="-1.277385">
        <ele>40.4</ele>
        <time>2020-08-12T22:02:34Z</time>
      </trkpt>
      <trkpt lat="43.983649" lon="-1.27572">
        <ele>42.2</ele>
        <time>2020-08-12T22:02:43Z</time>
      </trkpt>
      <trkpt lat="43.984022" lon="-1.275368">
        <ele>42.2</ele>
        <time>2020-08-12T22:02:46Z</time>
      </trkpt>
      <trkpt lat="43.984189" lon="-1.275294">
        <ele>42.8</ele>
        <time>2020-08-12T22:02:47Z</time>
      </trkpt>
      <trkpt lat="43.984414" lon="-1.275227">
        <ele>42.8</ele>
        <time>2020-08-12T22:02:48Z</time>
      </trkpt>
      <trkpt lat="43.989842" lon="-1.274195">
        <ele>41.6</ele>
        <time>2020-08-12T22:03:16Z</time>
      </trkpt>
      <trkpt lat="43.991232" lon="-1.273903">
        <ele>36.8</ele>
        <time>2020-08-12T22:03:23Z</time>
      </trkpt>
      <trkpt lat="43.991518" lon="-1.273826">
        <ele>36.8</ele>
        <time>2020-08-12T22:03:24Z</time>
      </trkpt>
      <trkpt lat="43.991733" lon="-1.273706">
        <ele>36.6</ele>
        <time>2020-08-12T22:03:26Z</time>
      </trkpt>
      <trkpt lat="43.99207" lon="-1.273451">
        <ele>36.6</ele>
        <time>2020-08-12T22:03:28Z</time>
      </trkpt>
      <trkpt lat="43.994574" lon="-1.271486">
        <ele>34.8</ele>
        <time>2020-08-12T22:03:42Z</time>
      </trkpt>
      <trkpt lat="43.994873" lon="-1.271288">
        <ele>34.8</ele>
        <time>2020-08-12T22:03:44Z</time>
      </trkpt>
      <trkpt lat="43.995775" lon="-1.270747">
        <ele>34.2</ele>
        <time>2020-08-12T22:03:49Z</time>
      </trkpt>
      <trkpt lat="43.998103" lon="-1.269376">
        <ele>35.0</ele>
        <time>2020-08-12T22:04:02Z</time>
      </trkpt>
      <trkpt lat="43.998399" lon="-1.269253">
        <ele>35.6</ele>
        <time>2020-08-12T22:04:04Z</time>
      </trkpt>
      <trkpt lat="44.002465" lon="-1.268074">
        <ele>40.6</ele>
        <time>2020-08-12T22:04:25Z</time>
      </trkpt>
      <trkpt lat="44.003886" lon="-1.267642">
        <ele>34.4</ele>
        <time>2020-08-12T22:04:32Z</time>
      </trkpt>
      <trkpt lat="44.010551" lon="-1.265206">
        <ele>34.6</ele>
        <time>2020-08-12T22:05:07Z</time>
      </trkpt>
      <trkpt lat="44.011854" lon="-1.264711">
        <ele>32.6</ele>
        <time>2020-08-12T22:05:14Z</time>
      </trkpt>
      <trkpt lat="44.012124" lon="-1.264577">
        <ele>32.6</ele>
        <time>2020-08-12T22:05:16Z</time>
      </trkpt>
      <trkpt lat="44.01232" lon="-1.264427">
        <ele>32.6</ele>
        <time>2020-08-12T22:05:17Z</time>
      </trkpt>
      <trkpt lat="44.012447" lon="-1.2643">
        <ele>32.6</ele>
        <time>2020-08-12T22:05:18Z</time>
      </trkpt>
      <trkpt lat="44.012939" lon="-1.263687">
        <ele>28.6</ele>
        <time>2020-08-12T22:05:21Z</time>
      </trkpt>
      <trkpt lat="44.013142" lon="-1.263466">
        <ele>28.6</ele>
        <time>2020-08-12T22:05:22Z</time>
      </trkpt>
      <trkpt lat="44.013436" lon="-1.263223">
        <ele>26.0</ele>
        <time>2020-08-12T22:05:24Z</time>
      </trkpt>
      <trkpt lat="44.01371" lon="-1.263029">
        <ele>26.0</ele>
        <time>2020-08-12T22:05:26Z</time>
      </trkpt>
      <trkpt lat="44.014243" lon="-1.262735">
        <ele>25.6</ele>
        <time>2020-08-12T22:05:29Z</time>
      </trkpt>
      <trkpt lat="44.014563" lon="-1.262583">
        <ele>25.6</ele>
        <time>2020-08-12T22:05:30Z</time>
      </trkpt>
      <trkpt lat="44.014949" lon="-1.262436">
        <ele>25.8</ele>
        <time>2020-08-12T22:05:32Z</time>
      </trkpt>
      <trkpt lat="44.016271" lon="-1.26199">
        <ele>24.2</ele>
        <time>2020-08-12T22:05:39Z</time>
      </trkpt>
      <trkpt lat="44.022004" lon="-1.260168">
        <ele>23.2</ele>
        <time>2020-08-12T22:06:09Z</time>
      </trkpt>
      <trkpt lat="44.024619" lon="-1.259313">
        <ele>21.4</ele>
        <time>2020-08-12T22:06:23Z</time>
      </trkpt>
      <trkpt lat="44.025938" lon="-1.258873">
        <ele>22.6</ele>
        <time>2020-08-12T22:06:30Z</time>
      </trkpt>
      <trkpt lat="44.026091" lon="-1.258769">
        <ele>22.6</ele>
        <time>2020-08-12T22:06:31Z</time>
      </trkpt>
      <trkpt lat="44.026117" lon="-1.258667">
        <ele>22.6</ele>
        <time>2020-08-12T22:06:32Z</time>
      </trkpt>
      <trkpt lat="44.026178" lon="-1.258612">
        <ele>22.6</ele>
        <time>2020-08-12T22:06:32Z</time>
      </trkpt>
      <trkpt lat="44.026221" lon="-1.258608">
        <ele>22.6</ele>
        <time>2020-08-12T22:06:33Z</time>
      </trkpt>
      <trkpt lat="44.026292" lon="-1.258655">
        <ele>22.6</ele>
        <time>2020-08-12T22:06:33Z</time>
      </trkpt>
      <trkpt lat="44.026484" lon="-1.258675">
        <ele>22.6</ele>
        <time>2020-08-12T22:06:35Z</time>
      </trkpt>
      <trkpt lat="44.032246" lon="-1.256809">
        <ele>13.8</ele>
        <time>2020-08-12T22:07:24Z</time>
      </trkpt>
      <trkpt lat="44.032332" lon="-1.256753">
        <ele>13.8</ele>
        <time>2020-08-12T22:07:25Z</time>
      </trkpt>
      <trkpt lat="44.032002" lon="-1.255759">
        <ele>14.6</ele>
        <time>2020-08-12T22:07:35Z</time>
      </trkpt>
      <trkpt lat="44.031978" lon="-1.255633">
        <ele>14.6</ele>
        <time>2020-08-12T22:07:36Z</time>
      </trkpt>
      <trkpt lat="44.031698" lon="-1.253857">
        <ele>15.8</ele>
        <time>2020-08-12T22:07:53Z</time>
      </trkpt>
      <trkpt lat="44.031546" lon="-1.252715">
        <ele>16.4</ele>
        <time>2020-08-12T22:08:04Z</time>
      </trkpt>
      <trkpt lat="44.031549" lon="-1.252498">
        <ele>16.4</ele>
        <time>2020-08-12T22:08:06Z</time>
      </trkpt>
      <trkpt lat="44.032355" lon="-1.251082">
        <ele>16.0</ele>
        <time>2020-08-12T22:08:16Z</time>
      </trkpt>
      <trkpt lat="44.032669" lon="-1.250469">
        <ele>15.2</ele>
        <time>2020-08-12T22:08:21Z</time>
      </trkpt>
      <trkpt lat="44.033474" lon="-1.249126">
        <ele>15.6</ele>
        <time>2020-08-12T22:08:30Z</time>
      </trkpt>
      <trkpt lat="44.034606" lon="-1.247072">
        <ele>18.0</ele>
        <time>2020-08-12T22:08:45Z</time>
      </trkpt>
      <trkpt lat="44.039395" lon="-1.241158">
        <ele>16.2</ele>
        <time>2020-08-12T22:09:34Z</time>
      </trkpt>
      <trkpt lat="44.041272" lon="-1.238684">
        <ele>15.2</ele>
        <time>2020-08-12T22:09:54Z</time>
      </trkpt>
      <trkpt lat="44.041345" lon="-1.238475">
        <ele>15.2</ele>
        <time>2020-08-12T22:09:55Z</time>
      </trkpt>
      <trkpt lat="44.042056" lon="-1.238018">
        <ele>15.0</ele>
        <time>2020-08-12T22:10:01Z</time>
      </trkpt>
      <trkpt lat="44.042784" lon="-1.237736">
        <ele>16.6</ele>
        <time>2020-08-12T22:10:07Z</time>
      </trkpt>
      <trkpt lat="44.048686" lon="-1.234532">
        <ele>13.2</ele>
        <time>2020-08-12T22:10:56Z</time>
      </trkpt>
      <trkpt lat="44.051261" lon="-1.23317">
        <ele>13.8</ele>
        <time>2020-08-12T22:11:17Z</time>
      </trkpt>
      <trkpt lat="44.053293" lon="-1.232036">
        <ele>13.2</ele>
        <time>2020-08-12T22:11:34Z</time>
      </trkpt>
      <trkpt lat="44.056388" lon="-1.229042">
        <ele>24.0</ele>
        <time>2020-08-12T22:12:03Z</time>
      </trkpt>
      <trkpt lat="44.056616" lon="-1.228752">
        <ele>24.0</ele>
        <time>2020-08-12T22:12:05Z</time>
      </trkpt>
      <trkpt lat="44.057284" lon="-1.227158">
        <ele>30.8</ele>
        <time>2020-08-12T22:12:15Z</time>
      </trkpt>
      <trkpt lat="44.057563" lon="-1.226872">
        <ele>30.2</ele>
        <time>2020-08-12T22:12:18Z</time>
      </trkpt>
      <trkpt lat="44.05808" lon="-1.226404">
        <ele>30.8</ele>
        <time>2020-08-12T22:12:23Z</time>
      </trkpt>
      <trkpt lat="44.058499" lon="-1.226109">
        <ele>27.0</ele>
        <time>2020-08-12T22:12:26Z</time>
      </trkpt>
      <trkpt lat="44.058499" lon="-1.226109">
        <ele>27.0</ele>
        <time>2020-08-12T22:12:26Z</time>
      </trkpt>
      <trkpt lat="44.058499" lon="-1.226109">
        <ele>27.0</ele>
        <time>2020-08-12T22:12:26Z</time>
      </trkpt>
      <trkpt lat="44.058499" lon="-1.226109">
        <ele>27.0</ele>
        <time>2020-08-12T22:12:26Z</time>
      </trkpt>
      <trkpt lat="44.058797" lon="-1.226119">
        <ele>27.0</ele>
        <time>2020-08-12T22:12:30Z</time>
      </trkpt>
      <trkpt lat="44.059597" lon="-1.22622">
        <ele>24.8</ele>
        <time>2020-08-12T22:12:42Z</time>
      </trkpt>
      <trkpt lat="44.06054" lon="-1.226274">
        <ele>22.8</ele>
        <time>2020-08-12T22:12:55Z</time>
      </trkpt>
      <trkpt lat="44.061229" lon="-1.226154">
        <ele>22.0</ele>
        <time>2020-08-12T22:13:05Z</time>
      </trkpt>
      <trkpt lat="44.061836" lon="-1.226091">
        <ele>24.6</ele>
        <time>2020-08-12T22:13:13Z</time>
      </trkpt>
      <trkpt lat="44.062004" lon="-1.226169">
        <ele>24.6</ele>
        <time>2020-08-12T22:13:16Z</time>
      </trkpt>
      <trkpt lat="44.062118" lon="-1.226187">
        <ele>24.6</ele>
        <time>2020-08-12T22:13:17Z</time>
      </trkpt>
      <trkpt lat="44.062184" lon="-1.226245">
        <ele>24.6</ele>
        <time>2020-08-12T22:13:18Z</time>
      </trkpt>
      <trkpt lat="44.062372" lon="-1.226597">
        <ele>24.6</ele>
        <time>2020-08-12T22:13:23Z</time>
      </trkpt>
      <trkpt lat="44.06248" lon="-1.226882">
        <ele>25.4</ele>
        <time>2020-08-12T22:13:26Z</time>
      </trkpt>
      <trkpt lat="44.062541" lon="-1.226962">
        <ele>25.2</ele>
        <time>2020-08-12T22:13:27Z</time>
      </trkpt>
      <trkpt lat="44.062618" lon="-1.226999">
        <ele>25.2</ele>
        <time>2020-08-12T22:13:28Z</time>
      </trkpt>
      <trkpt lat="44.062716" lon="-1.227005">
        <ele>25.2</ele>
        <time>2020-08-12T22:13:29Z</time>
      </trkpt>
      <trkpt lat="44.063746" lon="-1.226832">
        <ele>22.4</ele>
        <time>2020-08-12T22:13:41Z</time>
      </trkpt>
      <trkpt lat="44.064089" lon="-1.226857">
        <ele>22.4</ele>
        <time>2020-08-12T22:13:44Z</time>
      </trkpt>
      <trkpt lat="44.064309" lon="-1.226959">
        <ele>19.8</ele>
        <time>2020-08-12T22:13:47Z</time>
      </trkpt>
      <trkpt lat="44.065867" lon="-1.22782">
        <ele>15.4</ele>
        <time>2020-08-12T22:14:05Z</time>
      </trkpt>
      <trkpt lat="44.070465" lon="-1.230438">
        <ele>9.6</ele>
        <time>2020-08-12T22:15:00Z</time>
      </trkpt>
      <trkpt lat="44.070874" lon="-1.230647">
        <ele>9.8</ele>
        <time>2020-08-12T22:15:04Z</time>
      </trkpt>
      <trkpt lat="44.071807" lon="-1.2312">
        <ele>9.6</ele>
        <time>2020-08-12T22:15:15Z</time>
      </trkpt>
      <trkpt lat="44.07203" lon="-1.231303">
        <ele>9.6</ele>
        <time>2020-08-12T22:15:18Z</time>
      </trkpt>
      <trkpt lat="44.072292" lon="-1.231397">
        <ele>9.6</ele>
        <time>2020-08-12T22:15:21Z</time>
      </trkpt>
      <trkpt lat="44.07279" lon="-1.231533">
        <ele>10.4</ele>
        <time>2020-08-12T22:15:27Z</time>
      </trkpt>
      <trkpt lat="44.073748" lon="-1.23177">
        <ele>11.8</ele>
        <time>2020-08-12T22:15:37Z</time>
      </trkpt>
      <trkpt lat="44.074126" lon="-1.231833">
        <ele>11.8</ele>
        <time>2020-08-12T22:15:41Z</time>
      </trkpt>
      <trkpt lat="44.074404" lon="-1.231779">
        <ele>13.0</ele>
        <time>2020-08-12T22:15:44Z</time>
      </trkpt>
      <trkpt lat="44.074513" lon="-1.231732">
        <ele>13.0</ele>
        <time>2020-08-12T22:15:46Z</time>
      </trkpt>
      <trkpt lat="44.074746" lon="-1.231486">
        <ele>11.2</ele>
        <time>2020-08-12T22:15:49Z</time>
      </trkpt>
      <trkpt lat="44.074778" lon="-1.231401">
        <ele>11.2</ele>
        <time>2020-08-12T22:15:49Z</time>
      </trkpt>
      <trkpt lat="44.074727" lon="-1.231046">
        <ele>11.2</ele>
        <time>2020-08-12T22:15:50Z</time>
      </trkpt>
      <trkpt lat="44.074647" lon="-1.230688">
        <ele>10.6</ele>
        <time>2020-08-12T22:15:52Z</time>
      </trkpt>
      <trkpt lat="44.074604" lon="-1.230345">
        <ele>10.6</ele>
        <time>2020-08-12T22:15:53Z</time>
      </trkpt>
      <trkpt lat="44.074608" lon="-1.229852">
        <ele>11.0</ele>
        <time>2020-08-12T22:15:55Z</time>
      </trkpt>
      <trkpt lat="44.074668" lon="-1.229401">
        <ele>11.0</ele>
        <time>2020-08-12T22:15:56Z</time>
      </trkpt>
      <trkpt lat="44.074711" lon="-1.229205">
        <ele>11.0</ele>
        <time>2020-08-12T22:15:57Z</time>
      </trkpt>
      <trkpt lat="44.075028" lon="-1.228202">
        <ele>9.4</ele>
        <time>2020-08-12T22:16:01Z</time>
      </trkpt>
      <trkpt lat="44.07752" lon="-1.217371">
        <ele>22.6</ele>
        <time>2020-08-12T22:16:39Z</time>
      </trkpt>
      <trkpt lat="44.077603" lon="-1.216848">
        <ele>22.6</ele>
        <time>2020-08-12T22:16:41Z</time>
      </trkpt>
      <trkpt lat="44.077613" lon="-1.216273">
        <ele>21.2</ele>
        <time>2020-08-12T22:16:43Z</time>
      </trkpt>
      <trkpt lat="44.077297" lon="-1.212691">
        <ele>14.8</ele>
        <time>2020-08-12T22:16:55Z</time>
      </trkpt>
      <trkpt lat="44.0773" lon="-1.212556">
        <ele>14.8</ele>
        <time>2020-08-12T22:16:56Z</time>
      </trkpt>
      <trkpt lat="44.07736" lon="-1.212439">
        <ele>15.4</ele>
        <time>2020-08-12T22:16:56Z</time>
      </trkpt>
      <trkpt lat="44.077647" lon="-1.212113">
        <ele>16.4</ele>
        <time>2020-08-12T22:16:58Z</time>
      </trkpt>
      <trkpt lat="44.077779" lon="-1.211899">
        <ele>16.4</ele>
        <time>2020-08-12T22:16:59Z</time>
      </trkpt>
      <trkpt lat="44.077982" lon="-1.211457">
        <ele>15.8</ele>
        <time>2020-08-12T22:17:00Z</time>
      </trkpt>
      <trkpt lat="44.078475" lon="-1.21017">
        <ele>18.0</ele>
        <time>2020-08-12T22:17:05Z</time>
      </trkpt>
      <trkpt lat="44.0786" lon="-1.209904">
        <ele>19.4</ele>
        <time>2020-08-12T22:17:06Z</time>
      </trkpt>
      <trkpt lat="44.078689" lon="-1.209766">
        <ele>19.4</ele>
        <time>2020-08-12T22:17:07Z</time>
      </trkpt>
      <trkpt lat="44.078847" lon="-1.209639">
        <ele>19.4</ele>
        <time>2020-08-12T22:17:08Z</time>
      </trkpt>
      <trkpt lat="44.079438" lon="-1.209277">
        <ele>21.4</ele>
        <time>2020-08-12T22:17:11Z</time>
      </trkpt>
      <trkpt lat="44.079574" lon="-1.209123">
        <ele>21.8</ele>
        <time>2020-08-12T22:17:12Z</time>
      </trkpt>
      <trkpt lat="44.079651" lon="-1.208984">
        <ele>21.8</ele>
        <time>2020-08-12T22:17:12Z</time>
      </trkpt>
      <trkpt lat="44.079726" lon="-1.208795">
        <ele>21.8</ele>
        <time>2020-08-12T22:17:13Z</time>
      </trkpt>
      <trkpt lat="44.079964" lon="-1.20793">
        <ele>21.4</ele>
        <time>2020-08-12T22:17:16Z</time>
      </trkpt>
      <trkpt lat="44.080087" lon="-1.207628">
        <ele>24.2</ele>
        <time>2020-08-12T22:17:17Z</time>
      </trkpt>
      <trkpt lat="44.080347" lon="-1.20709">
        <ele>23.6</ele>
        <time>2020-08-12T22:17:20Z</time>
      </trkpt>
      <trkpt lat="44.080371" lon="-1.206986">
        <ele>23.6</ele>
        <time>2020-08-12T22:17:20Z</time>
      </trkpt>
      <trkpt lat="44.080388" lon="-1.206695">
        <ele>23.6</ele>
        <time>2020-08-12T22:17:21Z</time>
      </trkpt>
      <trkpt lat="44.080148" lon="-1.200569">
        <ele>21.4</ele>
        <time>2020-08-12T22:17:42Z</time>
      </trkpt>
      <trkpt lat="44.080165" lon="-1.200122">
        <ele>21.4</ele>
        <time>2020-08-12T22:17:43Z</time>
      </trkpt>
      <trkpt lat="44.080199" lon="-1.199857">
        <ele>21.8</ele>
        <time>2020-08-12T22:17:44Z</time>
      </trkpt>
      <trkpt lat="44.080264" lon="-1.199607">
        <ele>21.8</ele>
        <time>2020-08-12T22:17:45Z</time>
      </trkpt>
      <trkpt lat="44.080707" lon="-1.198554">
        <ele>21.2</ele>
        <time>2020-08-12T22:17:49Z</time>
      </trkpt>
      <trkpt lat="44.080886" lon="-1.198022">
        <ele>23.8</ele>
        <time>2020-08-12T22:17:51Z</time>
      </trkpt>
      <trkpt lat="44.080964" lon="-1.197688">
        <ele>23.8</ele>
        <time>2020-08-12T22:17:52Z</time>
      </trkpt>
      <trkpt lat="44.082117" lon="-1.189463">
        <ele>21.4</ele>
        <time>2020-08-12T22:18:21Z</time>
      </trkpt>
      <trkpt lat="44.082128" lon="-1.189217">
        <ele>21.4</ele>
        <time>2020-08-12T22:18:22Z</time>
      </trkpt>
      <trkpt lat="44.082121" lon="-1.189026">
        <ele>21.6</ele>
        <time>2020-08-12T22:18:22Z</time>
      </trkpt>
      <trkpt lat="44.082056" lon="-1.188516">
        <ele>21.6</ele>
        <time>2020-08-12T22:18:24Z</time>
      </trkpt>
      <trkpt lat="44.081427" lon="-1.185311">
        <ele>20.8</ele>
        <time>2020-08-12T22:18:35Z</time>
      </trkpt>
      <trkpt lat="44.081408" lon="-1.185043">
        <ele>20.8</ele>
        <time>2020-08-12T22:18:36Z</time>
      </trkpt>
      <trkpt lat="44.081415" lon="-1.184601">
        <ele>24.2</ele>
        <time>2020-08-12T22:18:38Z</time>
      </trkpt>
      <trkpt lat="44.081459" lon="-1.184256">
        <ele>24.2</ele>
        <time>2020-08-12T22:18:39Z</time>
      </trkpt>
      <trkpt lat="44.081596" lon="-1.183466">
        <ele>24.4</ele>
        <time>2020-08-12T22:18:42Z</time>
      </trkpt>
      <trkpt lat="44.081686" lon="-1.182674">
        <ele>24.6</ele>
        <time>2020-08-12T22:18:44Z</time>
      </trkpt>
      <trkpt lat="44.081708" lon="-1.182404">
        <ele>26.4</ele>
        <time>2020-08-12T22:18:45Z</time>
      </trkpt>
      <trkpt lat="44.0817" lon="-1.181854">
        <ele>26.4</ele>
        <time>2020-08-12T22:18:47Z</time>
      </trkpt>
      <trkpt lat="44.081666" lon="-1.181404">
        <ele>25.6</ele>
        <time>2020-08-12T22:18:49Z</time>
      </trkpt>
      <trkpt lat="44.081481" lon="-1.179641">
        <ele>26.6</ele>
        <time>2020-08-12T22:18:55Z</time>
      </trkpt>
      <trkpt lat="44.081297" lon="-1.178069">
        <ele>27.2</ele>
        <time>2020-08-12T22:19:00Z</time>
      </trkpt>
      <trkpt lat="44.08124" lon="-1.177683">
        <ele>27.2</ele>
        <time>2020-08-12T22:19:01Z</time>
      </trkpt>
      <trkpt lat="44.080783" lon="-1.17552">
        <ele>25.4</ele>
        <time>2020-08-12T22:19:09Z</time>
      </trkpt>
      <trkpt lat="44.080646" lon="-1.175056">
        <ele>25.4</ele>
        <time>2020-08-12T22:19:11Z</time>
      </trkpt>
      <trkpt lat="44.080366" lon="-1.174293">
        <ele>25.2</ele>
        <time>2020-08-12T22:19:14Z</time>
      </trkpt>
      <trkpt lat="44.080292" lon="-1.174027">
        <ele>24.2</ele>
        <time>2020-08-12T22:19:15Z</time>
      </trkpt>
      <trkpt lat="44.080241" lon="-1.17373">
        <ele>24.2</ele>
        <time>2020-08-12T22:19:16Z</time>
      </trkpt>
      <trkpt lat="44.080214" lon="-1.173453">
        <ele>24.2</ele>
        <time>2020-08-12T22:19:17Z</time>
      </trkpt>
      <trkpt lat="44.080181" lon="-1.172681">
        <ele>22.8</ele>
        <time>2020-08-12T22:19:19Z</time>
      </trkpt>
      <trkpt lat="44.08013" lon="-1.172167">
        <ele>23.8</ele>
        <time>2020-08-12T22:19:21Z</time>
      </trkpt>
      <trkpt lat="44.080077" lon="-1.171941">
        <ele>23.8</ele>
        <time>2020-08-12T22:19:22Z</time>
      </trkpt>
      <trkpt lat="44.079835" lon="-1.171272">
        <ele>20.4</ele>
        <time>2020-08-12T22:19:24Z</time>
      </trkpt>
      <trkpt lat="44.080113" lon="-1.171284">
        <ele>23.6</ele>
        <time>2020-08-12T22:19:27Z</time>
      </trkpt>
      <trkpt lat="44.081273" lon="-1.171237">
        <ele>28.0</ele>
        <time>2020-08-12T22:19:35Z</time>
      </trkpt>
      <trkpt lat="44.082749" lon="-1.17103">
        <ele>27.6</ele>
        <time>2020-08-12T22:19:47Z</time>
      </trkpt>
      <trkpt lat="44.083061" lon="-1.171037">
        <ele>27.6</ele>
        <time>2020-08-12T22:19:49Z</time>
      </trkpt>
      <trkpt lat="44.083306" lon="-1.171076">
        <ele>27.6</ele>
        <time>2020-08-12T22:19:51Z</time>
      </trkpt>
      <trkpt lat="44.084063" lon="-1.171326">
        <ele>25.8</ele>
        <time>2020-08-12T22:19:57Z</time>
      </trkpt>
      <trkpt lat="44.089177" lon="-1.173248">
        <ele>31.2</ele>
        <time>2020-08-12T22:20:38Z</time>
      </trkpt>
      <trkpt lat="44.090128" lon="-1.173582">
        <ele>32.4</ele>
        <time>2020-08-12T22:20:45Z</time>
      </trkpt>
      <trkpt lat="44.093889" lon="-1.175071">
        <ele>39.0</ele>
        <time>2020-08-12T22:21:15Z</time>
      </trkpt>
      <trkpt lat="44.094683" lon="-1.175457">
        <ele>38.2</ele>
        <time>2020-08-12T22:21:22Z</time>
      </trkpt>
      <trkpt lat="44.096922" lon="-1.176686">
        <ele>44.4</ele>
        <time>2020-08-12T22:21:40Z</time>
      </trkpt>
      <trkpt lat="44.100103" lon="-1.178342">
        <ele>44.0</ele>
        <time>2020-08-12T22:22:06Z</time>
      </trkpt>
      <trkpt lat="44.102275" lon="-1.179525">
        <ele>44.8</ele>
        <time>2020-08-12T22:22:24Z</time>
      </trkpt>
      <trkpt lat="44.102316" lon="-1.179519">
        <ele>44.8</ele>
        <time>2020-08-12T22:22:24Z</time>
      </trkpt>
      <trkpt lat="44.102711" lon="-1.181255">
        <ele>39.0</ele>
        <time>2020-08-12T22:22:34Z</time>
      </trkpt>
      <trkpt lat="44.102841" lon="-1.181742">
        <ele>41.0</ele>
        <time>2020-08-12T22:22:37Z</time>
      </trkpt>
      <trkpt lat="44.102957" lon="-1.182061">
        <ele>41.0</ele>
        <time>2020-08-12T22:22:39Z</time>
      </trkpt>
      <trkpt lat="44.103101" lon="-1.18237">
        <ele>41.0</ele>
        <time>2020-08-12T22:22:41Z</time>
      </trkpt>
      <trkpt lat="44.103269" lon="-1.182622">
        <ele>46.4</ele>
        <time>2020-08-12T22:22:43Z</time>
      </trkpt>
      <trkpt lat="44.103475" lon="-1.18286">
        <ele>45.8</ele>
        <time>2020-08-12T22:22:45Z</time>
      </trkpt>
      <trkpt lat="44.107992" lon="-1.186701">
        <ele>52.0</ele>
        <time>2020-08-12T22:23:24Z</time>
      </trkpt>
      <trkpt lat="44.131124" lon="-1.206224">
        <ele>48.6</ele>
        <time>2020-08-12T22:26:45Z</time>
      </trkpt>
      <trkpt lat="44.140453" lon="-1.214123">
        <ele>46.8</ele>
        <time>2020-08-12T22:28:06Z</time>
      </trkpt>
      <trkpt lat="44.140654" lon="-1.214287">
        <ele>47.0</ele>
        <time>2020-08-12T22:28:08Z</time>
      </trkpt>
      <trkpt lat="44.141102" lon="-1.214513">
        <ele>45.2</ele>
        <time>2020-08-12T22:28:11Z</time>
      </trkpt>
      <trkpt lat="44.141195" lon="-1.214591">
        <ele>45.2</ele>
        <time>2020-08-12T22:28:12Z</time>
      </trkpt>
      <trkpt lat="44.141533" lon="-1.215037">
        <ele>46.0</ele>
        <time>2020-08-12T22:28:16Z</time>
      </trkpt>
      <trkpt lat="44.142572" lon="-1.21592">
        <ele>41.8</ele>
        <time>2020-08-12T22:28:25Z</time>
      </trkpt>
      <trkpt lat="44.143019" lon="-1.216206">
        <ele>41.8</ele>
        <time>2020-08-12T22:28:28Z</time>
      </trkpt>
      <trkpt lat="44.143716" lon="-1.216502">
        <ele>41.2</ele>
        <time>2020-08-12T22:28:34Z</time>
      </trkpt>
      <trkpt lat="44.143961" lon="-1.216573">
        <ele>41.2</ele>
        <time>2020-08-12T22:28:36Z</time>
      </trkpt>
      <trkpt lat="44.144564" lon="-1.216664">
        <ele>42.0</ele>
        <time>2020-08-12T22:28:40Z</time>
      </trkpt>
      <trkpt lat="44.144722" lon="-1.21667">
        <ele>43.4</ele>
        <time>2020-08-12T22:28:41Z</time>
      </trkpt>
      <trkpt lat="44.145294" lon="-1.21662">
        <ele>43.2</ele>
        <time>2020-08-12T22:28:46Z</time>
      </trkpt>
      <trkpt lat="44.145754" lon="-1.216508">
        <ele>43.2</ele>
        <time>2020-08-12T22:28:49Z</time>
      </trkpt>
      <trkpt lat="44.147502" lon="-1.215955">
        <ele>43.4</ele>
        <time>2020-08-12T22:29:02Z</time>
      </trkpt>
      <trkpt lat="44.147796" lon="-1.215879">
        <ele>43.4</ele>
        <time>2020-08-12T22:29:05Z</time>
      </trkpt>
      <trkpt lat="44.14786" lon="-1.215838">
        <ele>43.4</ele>
        <time>2020-08-12T22:29:05Z</time>
      </trkpt>
      <trkpt lat="44.147931" lon="-1.215849">
        <ele>43.4</ele>
        <time>2020-08-12T22:29:05Z</time>
      </trkpt>
      <trkpt lat="44.147963" lon="-1.215874">
        <ele>43.4</ele>
        <time>2020-08-12T22:29:06Z</time>
      </trkpt>
      <trkpt lat="44.148086" lon="-1.215841">
        <ele>43.4</ele>
        <time>2020-08-12T22:29:06Z</time>
      </trkpt>
      <trkpt lat="44.148326" lon="-1.215728">
        <ele>42.6</ele>
        <time>2020-08-12T22:29:08Z</time>
      </trkpt>
      <trkpt lat="44.151795" lon="-1.214642">
        <ele>44.6</ele>
        <time>2020-08-12T22:29:29Z</time>
      </trkpt>
      <trkpt lat="44.152002" lon="-1.214604">
        <ele>44.6</ele>
        <time>2020-08-12T22:29:30Z</time>
      </trkpt>
      <trkpt lat="44.152416" lon="-1.214587">
        <ele>44.6</ele>
        <time>2020-08-12T22:29:33Z</time>
      </trkpt>
      <trkpt lat="44.152637" lon="-1.214614">
        <ele>44.4</ele>
        <time>2020-08-12T22:29:34Z</time>
      </trkpt>
      <trkpt lat="44.152904" lon="-1.214688">
        <ele>44.4</ele>
        <time>2020-08-12T22:29:36Z</time>
      </trkpt>
      <trkpt lat="44.153468" lon="-1.214897">
        <ele>45.0</ele>
        <time>2020-08-12T22:29:39Z</time>
      </trkpt>
      <trkpt lat="44.162356" lon="-1.218794">
        <ele>38.6</ele>
        <time>2020-08-12T22:30:34Z</time>
      </trkpt>
      <trkpt lat="44.164407" lon="-1.219601">
        <ele>40.8</ele>
        <time>2020-08-12T22:30:47Z</time>
      </trkpt>
      <trkpt lat="44.167772" lon="-1.21981">
        <ele>37.8</ele>
        <time>2020-08-12T22:31:07Z</time>
      </trkpt>
      <trkpt lat="44.168" lon="-1.219854">
        <ele>37.8</ele>
        <time>2020-08-12T22:31:08Z</time>
      </trkpt>
      <trkpt lat="44.168229" lon="-1.219938">
        <ele>37.8</ele>
        <time>2020-08-12T22:31:09Z</time>
      </trkpt>
      <trkpt lat="44.16845" lon="-1.220047">
        <ele>35.2</ele>
        <time>2020-08-12T22:31:11Z</time>
      </trkpt>
      <trkpt lat="44.169005" lon="-1.220432">
        <ele>35.2</ele>
        <time>2020-08-12T22:31:15Z</time>
      </trkpt>
      <trkpt lat="44.173389" lon="-1.223762">
        <ele>35.0</ele>
        <time>2020-08-12T22:31:44Z</time>
      </trkpt>
      <trkpt lat="44.173745" lon="-1.223978">
        <ele>35.0</ele>
        <time>2020-08-12T22:31:46Z</time>
      </trkpt>
      <trkpt lat="44.174594" lon="-1.224371">
        <ele>35.6</ele>
        <time>2020-08-12T22:31:52Z</time>
      </trkpt>
      <trkpt lat="44.178831" lon="-1.225995">
        <ele>29.4</ele>
        <time>2020-08-12T22:32:18Z</time>
      </trkpt>
      <trkpt lat="44.18023" lon="-1.226501">
        <ele>31.4</ele>
        <time>2020-08-12T22:32:26Z</time>
      </trkpt>
      <trkpt lat="44.180854" lon="-1.226675">
        <ele>30.2</ele>
        <time>2020-08-12T22:32:30Z</time>
      </trkpt>
      <trkpt lat="44.18277" lon="-1.227154">
        <ele>31.8</ele>
        <time>2020-08-12T22:32:42Z</time>
      </trkpt>
      <trkpt lat="44.185945" lon="-1.227994">
        <ele>28.8</ele>
        <time>2020-08-12T22:33:01Z</time>
      </trkpt>
      <trkpt lat="44.192708" lon="-1.229683">
        <ele>19.8</ele>
        <time>2020-08-12T22:33:41Z</time>
      </trkpt>
      <trkpt lat="44.193118" lon="-1.229752">
        <ele>19.8</ele>
        <time>2020-08-12T22:33:44Z</time>
      </trkpt>
      <trkpt lat="44.193316" lon="-1.229597">
        <ele>19.8</ele>
        <time>2020-08-12T22:33:45Z</time>
      </trkpt>
      <trkpt lat="44.193328" lon="-1.229537">
        <ele>19.8</ele>
        <time>2020-08-12T22:33:46Z</time>
      </trkpt>
      <trkpt lat="44.193385" lon="-1.229443">
        <ele>19.8</ele>
        <time>2020-08-12T22:33:46Z</time>
      </trkpt>
      <trkpt lat="44.193478" lon="-1.229411">
        <ele>19.8</ele>
        <time>2020-08-12T22:33:47Z</time>
      </trkpt>
      <trkpt lat="44.193529" lon="-1.22943">
        <ele>19.8</ele>
        <time>2020-08-12T22:33:48Z</time>
      </trkpt>
      <trkpt lat="44.193568" lon="-1.229466">
        <ele>19.8</ele>
        <time>2020-08-12T22:33:48Z</time>
      </trkpt>
      <trkpt lat="44.193614" lon="-1.229578">
        <ele>19.8</ele>
        <time>2020-08-12T22:33:49Z</time>
      </trkpt>
      <trkpt lat="44.193616" lon="-1.229643">
        <ele>19.8</ele>
        <time>2020-08-12T22:33:49Z</time>
      </trkpt>
      <trkpt lat="44.193746" lon="-1.229817">
        <ele>19.8</ele>
        <time>2020-08-12T22:33:51Z</time>
      </trkpt>
      <trkpt lat="44.195026" lon="-1.229819">
        <ele>18.4</ele>
        <time>2020-08-12T22:34:08Z</time>
      </trkpt>
      <trkpt lat="44.195022" lon="-1.229572">
        <ele>18.4</ele>
        <time>2020-08-12T22:34:10Z</time>
      </trkpt>
      <trkpt lat="44.195066" lon="-1.229316">
        <ele>18.4</ele>
        <time>2020-08-12T22:34:11Z</time>
      </trkpt>
      <trkpt lat="44.195125" lon="-1.22913">
        <ele>18.4</ele>
        <time>2020-08-12T22:34:13Z</time>
      </trkpt>
      <trkpt lat="44.195203" lon="-1.228965">
        <ele>18.4</ele>
        <time>2020-08-12T22:34:14Z</time>
      </trkpt>
      <trkpt lat="44.196134" lon="-1.227711">
        <ele>18.0</ele>
        <time>2020-08-12T22:34:28Z</time>
      </trkpt>
      <trkpt lat="44.196387" lon="-1.227313">
        <ele>17.8</ele>
        <time>2020-08-12T22:34:32Z</time>
      </trkpt>
      <trkpt lat="44.19719" lon="-1.226704">
        <ele>16.6</ele>
        <time>2020-08-12T22:34:41Z</time>
      </trkpt>
      <trkpt lat="44.197379" lon="-1.226503">
        <ele>17.0</ele>
        <time>2020-08-12T22:34:43Z</time>
      </trkpt>
      <trkpt lat="44.197573" lon="-1.226187">
        <ele>17.8</ele>
        <time>2020-08-12T22:34:46Z</time>
      </trkpt>
      <trkpt lat="44.198154" lon="-1.224891">
        <ele>18.8</ele>
        <time>2020-08-12T22:34:58Z</time>
      </trkpt>
      <trkpt lat="44.200349" lon="-1.227512">
        <ele>15.8</ele>
        <time>2020-08-12T22:35:27Z</time>
      </trkpt>
      <trkpt lat="44.2004" lon="-1.227448">
        <ele>16.8</ele>
        <time>2020-08-12T22:35:28Z</time>
      </trkpt>
      <trkpt lat="44.200471" lon="-1.227462">
        <ele>16.8</ele>
        <time>2020-08-12T22:35:29Z</time>
      </trkpt>
      <trkpt lat="44.200504" lon="-1.227522">
        <ele>15.8</ele>
        <time>2020-08-12T22:35:30Z</time>
      </trkpt>
      <trkpt lat="44.200492" lon="-1.227631">
        <ele>15.8</ele>
        <time>2020-08-12T22:35:31Z</time>
      </trkpt>
      <trkpt lat="44.200472" lon="-1.227657">
        <ele>15.8</ele>
        <time>2020-08-12T22:35:31Z</time>
      </trkpt>
      <trkpt lat="44.200554" lon="-1.227734">
        <ele>15.8</ele>
        <time>2020-08-12T22:35:32Z</time>
      </trkpt>
      <trkpt lat="44.200932" lon="-1.228187">
        <ele>16.2</ele>
        <time>2020-08-12T22:35:38Z</time>
      </trkpt>
      <trkpt lat="44.201068" lon="-1.228276">
        <ele>16.2</ele>
        <time>2020-08-12T22:35:40Z</time>
      </trkpt>
      <trkpt lat="44.20124" lon="-1.228272">
        <ele>16.2</ele>
        <time>2020-08-12T22:35:42Z</time>
      </trkpt>
      <trkpt lat="44.202682" lon="-1.227148">
        <ele>14.8</ele>
        <time>2020-08-12T22:36:02Z</time>
      </trkpt>
      <trkpt lat="44.202991" lon="-1.22744">
        <ele>14.8</ele>
        <time>2020-08-12T22:36:07Z</time>
      </trkpt>
      <trkpt lat="44.203051" lon="-1.227458">
        <ele>14.8</ele>
        <time>2020-08-12T22:36:08Z</time>
      </trkpt>
      <trkpt lat="44.203136" lon="-1.227431">
        <ele>14.8</ele>
        <time>2020-08-12T22:36:09Z</time>
      </trkpt>
      <trkpt lat="44.203197" lon="-1.227369">
        <ele>14.8</ele>
        <time>2020-08-12T22:36:10Z</time>
      </trkpt>
      <trkpt lat="44.203408" lon="-1.226865">
        <ele>14.0</ele>
        <time>2020-08-12T22:36:16Z</time>
      </trkpt>
      <trkpt lat="44.203832" lon="-1.227294">
        <ele>14.0</ele>
        <time>2020-08-12T22:36:25Z</time>
      </trkpt>
      <trkpt lat="44.204087" lon="-1.2275">
        <ele>14.0</ele>
        <time>2020-08-12T22:36:31Z</time>
      </trkpt>
      <trkpt lat="44.204106" lon="-1.227458">
        <ele>14.0</ele>
        <time>2020-08-12T22:36:32Z</time>
      </trkpt>
      <trkpt lat="44.204167" lon="-1.227406">
        <ele>14.2</ele>
        <time>2020-08-12T22:36:33Z</time>
      </trkpt>
      <trkpt lat="44.204239" lon="-1.227412">
        <ele>14.2</ele>
        <time>2020-08-12T22:36:34Z</time>
      </trkpt>
      <trkpt lat="44.204271" lon="-1.227436">
        <ele>14.2</ele>
        <time>2020-08-12T22:36:35Z</time>
      </trkpt>
      <trkpt lat="44.204293" lon="-1.227468">
        <ele>14.2</ele>
        <time>2020-08-12T22:36:35Z</time>
      </trkpt>
      <trkpt lat="44.204316" lon="-1.227594">
        <ele>13.0</ele>
        <time>2020-08-12T22:36:37Z</time>
      </trkpt>
      <trkpt lat="44.204307" lon="-1.227637">
        <ele>13.0</ele>
        <time>2020-08-12T22:36:38Z</time>
      </trkpt>
      <trkpt lat="44.204605" lon="-1.227874">
        <ele>13.0</ele>
        <time>2020-08-12T22:36:44Z</time>
      </trkpt>
      <trkpt lat="44.204785" lon="-1.228045">
        <ele>13.0</ele>
        <time>2020-08-12T22:36:48Z</time>
      </trkpt>
      <trkpt lat="44.204847" lon="-1.228126">
        <ele>13.0</ele>
        <time>2020-08-12T22:36:50Z</time>
      </trkpt>
      <trkpt lat="44.204989" lon="-1.228405">
        <ele>12.6</ele>
        <time>2020-08-12T22:36:54Z</time>
      </trkpt>
      <trkpt lat="44.205405" lon="-1.229353">
        <ele>12.4</ele>
        <time>2020-08-12T22:37:09Z</time>
      </trkpt>
      <trkpt lat="44.205529" lon="-1.229591">
        <ele>12.4</ele>
        <time>2020-08-12T22:37:13Z</time>
      </trkpt>
      <trkpt lat="44.206157" lon="-1.230422">
        <ele>11.0</ele>
        <time>2020-08-12T22:37:29Z</time>
      </trkpt>
      <trkpt lat="44.206261" lon="-1.23053">
        <ele>11.0</ele>
        <time>2020-08-12T22:37:31Z</time>
      </trkpt>
      <trkpt lat="44.206443" lon="-1.230622">
        <ele>11.0</ele>
        <time>2020-08-12T22:37:35Z</time>
      </trkpt>
      <trkpt lat="44.206453" lon="-1.230588">
        <ele>11.0</ele>
        <time>2020-08-12T22:37:35Z</time>
      </trkpt>
      <trkpt lat="44.206531" lon="-1.2305">
        <ele>11.0</ele>
        <time>2020-08-12T22:37:36Z</time>
      </trkpt>
      <trkpt lat="44.206581" lon="-1.230487">
        <ele>11.0</ele>
        <time>2020-08-12T22:37:37Z</time>
      </trkpt>
      <trkpt lat="44.206673" lon="-1.230523">
        <ele>10.8</ele>
        <time>2020-08-12T22:37:37Z</time>
      </trkpt>
      <trkpt lat="44.206733" lon="-1.230626">
        <ele>10.8</ele>
        <time>2020-08-12T22:37:38Z</time>
      </trkpt>
      <trkpt lat="44.20674" lon="-1.230758">
        <ele>10.8</ele>
        <time>2020-08-12T22:37:39Z</time>
      </trkpt>
      <trkpt lat="44.206691" lon="-1.230873">
        <ele>10.2</ele>
        <time>2020-08-12T22:37:40Z</time>
      </trkpt>
      <trkpt lat="44.207242" lon="-1.231533">
        <ele>10.2</ele>
        <time>2020-08-12T22:37:48Z</time>
      </trkpt>
      <trkpt lat="44.207357" lon="-1.231598">
        <ele>10.2</ele>
        <time>2020-08-12T22:37:49Z</time>
      </trkpt>
      <trkpt lat="44.208896" lon="-1.233333">
        <ele>10.2</ele>
        <time>2020-08-12T22:38:09Z</time>
      </trkpt>
      <trkpt lat="44.209138" lon="-1.233551">
        <ele>10.2</ele>
        <time>2020-08-12T22:38:12Z</time>
      </trkpt>
      <trkpt lat="44.209408" lon="-1.233725">
        <ele>8.8</ele>
        <time>2020-08-12T22:38:15Z</time>
      </trkpt>
      <trkpt lat="44.209624" lon="-1.233826">
        <ele>8.8</ele>
        <time>2020-08-12T22:38:18Z</time>
      </trkpt>
      <trkpt lat="44.210879" lon="-1.234311">
        <ele>8.4</ele>
        <time>2020-08-12T22:38:31Z</time>
      </trkpt>
      <trkpt lat="44.211643" lon="-1.234633">
        <ele>8.4</ele>
        <time>2020-08-12T22:38:39Z</time>
      </trkpt>
      <trkpt lat="44.211699" lon="-1.234691">
        <ele>9.0</ele>
        <time>2020-08-12T22:38:40Z</time>
      </trkpt>
      <trkpt lat="44.211809" lon="-1.234922">
        <ele>9.0</ele>
        <time>2020-08-12T22:38:42Z</time>
      </trkpt>
      <trkpt lat="44.211947" lon="-1.234845">
        <ele>9.0</ele>
        <time>2020-08-12T22:38:44Z</time>
      </trkpt>
      <trkpt lat="44.212093" lon="-1.234792">
        <ele>9.0</ele>
        <time>2020-08-12T22:38:45Z</time>
      </trkpt>
      <trkpt lat="44.212705" lon="-1.234625">
        <ele>9.4</ele>
        <time>2020-08-12T22:38:51Z</time>
      </trkpt>
      <trkpt lat="44.213376" lon="-1.234485">
        <ele>10.0</ele>
        <time>2020-08-12T22:38:58Z</time>
      </trkpt>
      <trkpt lat="44.21407" lon="-1.234295">
        <ele>10.0</ele>
        <time>2020-08-12T22:39:06Z</time>
      </trkpt>
      <trkpt lat="44.214863" lon="-1.234061">
        <ele>9.8</ele>
        <time>2020-08-12T22:39:14Z</time>
      </trkpt>
      <trkpt lat="44.215038" lon="-1.233969">
        <ele>9.0</ele>
        <time>2020-08-12T22:39:16Z</time>
      </trkpt>
      <trkpt lat="44.215043" lon="-1.233868">
        <ele>9.0</ele>
        <time>2020-08-12T22:39:17Z</time>
      </trkpt>
      <trkpt lat="44.215082" lon="-1.233824">
        <ele>9.0</ele>
        <time>2020-08-12T22:39:17Z</time>
      </trkpt>
      <trkpt lat="44.215152" lon="-1.233835">
        <ele>9.0</ele>
        <time>2020-08-12T22:39:18Z</time>
      </trkpt>
      <trkpt lat="44.215187" lon="-1.233921">
        <ele>9.0</ele>
        <time>2020-08-12T22:39:18Z</time>
      </trkpt>
      <trkpt lat="44.215292" lon="-1.233894">
        <ele>9.0</ele>
        <time>2020-08-12T22:39:20Z</time>
      </trkpt>
      <trkpt lat="44.215292" lon="-1.233894">
        <ele>9.0</ele>
        <time>2020-08-12T22:39:20Z</time>
      </trkpt>
      <trkpt lat="44.215438" lon="-1.233791">
        <ele>9.0</ele>
        <time>2020-08-12T22:39:21Z</time>
      </trkpt>
      <trkpt lat="44.21584" lon="-1.233352">
        <ele>8.6</ele>
        <time>2020-08-12T22:39:23Z</time>
      </trkpt>
      <trkpt lat="44.217879" lon="-1.231047">
        <ele>17.4</ele>
        <time>2020-08-12T22:39:37Z</time>
      </trkpt>
      <trkpt lat="44.218224" lon="-1.230732">
        <ele>20.8</ele>
        <time>2020-08-12T22:39:39Z</time>
      </trkpt>
      <trkpt lat="44.218794" lon="-1.230458">
        <ele>20.8</ele>
        <time>2020-08-12T22:39:42Z</time>
      </trkpt>
      <trkpt lat="44.223921" lon="-1.228194">
        <ele>22.2</ele>
        <time>2020-08-12T22:40:11Z</time>
      </trkpt>
      <trkpt lat="44.224086" lon="-1.228086">
        <ele>22.2</ele>
        <time>2020-08-12T22:40:12Z</time>
      </trkpt>
      <trkpt lat="44.22417" lon="-1.228003">
        <ele>20.4</ele>
        <time>2020-08-12T22:40:12Z</time>
      </trkpt>
      <trkpt lat="44.22488" lon="-1.22712">
        <ele>21.0</ele>
        <time>2020-08-12T22:40:17Z</time>
      </trkpt>
      <trkpt lat="44.227693" lon="-1.223571">
        <ele>14.8</ele>
        <time>2020-08-12T22:40:37Z</time>
      </trkpt>
      <trkpt lat="44.227915" lon="-1.223266">
        <ele>14.2</ele>
        <time>2020-08-12T22:40:39Z</time>
      </trkpt>
      <trkpt lat="44.228876" lon="-1.221739">
        <ele>19.6</ele>
        <time>2020-08-12T22:40:47Z</time>
      </trkpt>
      <trkpt lat="44.229001" lon="-1.221608">
        <ele>24.0</ele>
        <time>2020-08-12T22:40:47Z</time>
      </trkpt>
      <trkpt lat="44.229194" lon="-1.221469">
        <ele>23.4</ele>
        <time>2020-08-12T22:40:49Z</time>
      </trkpt>
      <trkpt lat="44.229344" lon="-1.221411">
        <ele>23.4</ele>
        <time>2020-08-12T22:40:49Z</time>
      </trkpt>
      <trkpt lat="44.229527" lon="-1.221383">
        <ele>23.4</ele>
        <time>2020-08-12T22:40:50Z</time>
      </trkpt>
      <trkpt lat="44.229693" lon="-1.2214">
        <ele>23.4</ele>
        <time>2020-08-12T22:40:51Z</time>
      </trkpt>
      <trkpt lat="44.229836" lon="-1.221444">
        <ele>23.4</ele>
        <time>2020-08-12T22:40:52Z</time>
      </trkpt>
      <trkpt lat="44.230037" lon="-1.221572">
        <ele>19.2</ele>
        <time>2020-08-12T22:40:53Z</time>
      </trkpt>
      <trkpt lat="44.230419" lon="-1.221882">
        <ele>24.0</ele>
        <time>2020-08-12T22:40:56Z</time>
      </trkpt>
      <trkpt lat="44.231082" lon="-1.222494">
        <ele>19.6</ele>
        <time>2020-08-12T22:41:00Z</time>
      </trkpt>
      <trkpt lat="44.231371" lon="-1.222699">
        <ele>29.8</ele>
        <time>2020-08-12T22:41:01Z</time>
      </trkpt>
      <trkpt lat="44.232958" lon="-1.223459">
        <ele>26.6</ele>
        <time>2020-08-12T22:41:10Z</time>
      </trkpt>
      <trkpt lat="44.233271" lon="-1.223565">
        <ele>26.6</ele>
        <time>2020-08-12T22:41:12Z</time>
      </trkpt>
      <trkpt lat="44.233514" lon="-1.223571">
        <ele>22.6</ele>
        <time>2020-08-12T22:41:13Z</time>
      </trkpt>
      <trkpt lat="44.233707" lon="-1.223515">
        <ele>22.6</ele>
        <time>2020-08-12T22:41:14Z</time>
      </trkpt>
      <trkpt lat="44.233847" lon="-1.223433">
        <ele>22.6</ele>
        <time>2020-08-12T22:41:15Z</time>
      </trkpt>
      <trkpt lat="44.233936" lon="-1.223354">
        <ele>22.6</ele>
        <time>2020-08-12T22:41:16Z</time>
      </trkpt>
      <trkpt lat="44.234115" lon="-1.223119">
        <ele>14.8</ele>
        <time>2020-08-12T22:41:17Z</time>
      </trkpt>
      <trkpt lat="44.234275" lon="-1.222776">
        <ele>14.4</ele>
        <time>2020-08-12T22:41:19Z</time>
      </trkpt>
      <trkpt lat="44.236575" lon="-1.216916">
        <ele>11.0</ele>
        <time>2020-08-12T22:41:44Z</time>
      </trkpt>
      <trkpt lat="44.237888" lon="-1.213526">
        <ele>13.4</ele>
        <time>2020-08-12T22:41:58Z</time>
      </trkpt>
      <trkpt lat="44.241446" lon="-1.20261">
        <ele>21.8</ele>
        <time>2020-08-12T22:42:44Z</time>
      </trkpt>
      <trkpt lat="44.241668" lon="-1.202074">
        <ele>19.6</ele>
        <time>2020-08-12T22:42:46Z</time>
      </trkpt>
      <trkpt lat="44.242067" lon="-1.201413">
        <ele>16.0</ele>
        <time>2020-08-12T22:42:49Z</time>
      </trkpt>
      <trkpt lat="44.242296" lon="-1.201075">
        <ele>16.0</ele>
        <time>2020-08-12T22:42:51Z</time>
      </trkpt>
      <trkpt lat="44.242467" lon="-1.200868">
        <ele>16.0</ele>
        <time>2020-08-12T22:42:52Z</time>
      </trkpt>
      <trkpt lat="44.242741" lon="-1.200602">
        <ele>16.0</ele>
        <time>2020-08-12T22:42:54Z</time>
      </trkpt>
      <trkpt lat="44.243015" lon="-1.200411">
        <ele>16.0</ele>
        <time>2020-08-12T22:42:56Z</time>
      </trkpt>
      <trkpt lat="44.248256" lon="-1.197254">
        <ele>24.2</ele>
        <time>2020-08-12T22:43:26Z</time>
      </trkpt>
      <trkpt lat="44.248909" lon="-1.196882">
        <ele>23.6</ele>
        <time>2020-08-12T22:43:29Z</time>
      </trkpt>
      <trkpt lat="44.249039" lon="-1.196842">
        <ele>23.6</ele>
        <time>2020-08-12T22:43:30Z</time>
      </trkpt>
      <trkpt lat="44.249315" lon="-1.196825">
        <ele>22.0</ele>
        <time>2020-08-12T22:43:32Z</time>
      </trkpt>
      <trkpt lat="44.255273" lon="-1.196767">
        <ele>18.8</ele>
        <time>2020-08-12T22:44:03Z</time>
      </trkpt>
      <trkpt lat="44.257739" lon="-1.196521">
        <ele>23.0</ele>
        <time>2020-08-12T22:44:16Z</time>
      </trkpt>
      <trkpt lat="44.258653" lon="-1.196407">
        <ele>21.8</ele>
        <time>2020-08-12T22:44:21Z</time>
      </trkpt>
      <trkpt lat="44.264636" lon="-1.195759">
        <ele>20.0</ele>
        <time>2020-08-12T22:44:52Z</time>
      </trkpt>
      <trkpt lat="44.264711" lon="-1.195741">
        <ele>20.0</ele>
        <time>2020-08-12T22:44:53Z</time>
      </trkpt>
      <trkpt lat="44.264931" lon="-1.195621">
        <ele>20.0</ele>
        <time>2020-08-12T22:44:54Z</time>
      </trkpt>
      <trkpt lat="44.266481" lon="-1.1942">
        <ele>23.4</ele>
        <time>2020-08-12T22:45:04Z</time>
      </trkpt>
      <trkpt lat="44.267028" lon="-1.193675">
        <ele>23.8</ele>
        <time>2020-08-12T22:45:07Z</time>
      </trkpt>
      <trkpt lat="44.267231" lon="-1.193437">
        <ele>23.8</ele>
        <time>2020-08-12T22:45:09Z</time>
      </trkpt>
      <trkpt lat="44.26846" lon="-1.191778">
        <ele>22.0</ele>
        <time>2020-08-12T22:45:18Z</time>
      </trkpt>
      <trkpt lat="44.269496" lon="-1.190373">
        <ele>25.6</ele>
        <time>2020-08-12T22:45:25Z</time>
      </trkpt>
      <trkpt lat="44.269573" lon="-1.190237">
        <ele>25.6</ele>
        <time>2020-08-12T22:45:26Z</time>
      </trkpt>
      <trkpt lat="44.269603" lon="-1.190069">
        <ele>25.6</ele>
        <time>2020-08-12T22:45:27Z</time>
      </trkpt>
      <trkpt lat="44.269567" lon="-1.189609">
        <ele>28.0</ele>
        <time>2020-08-12T22:45:28Z</time>
      </trkpt>
      <trkpt lat="44.269595" lon="-1.189228">
        <ele>28.0</ele>
        <time>2020-08-12T22:45:30Z</time>
      </trkpt>
      <trkpt lat="44.269671" lon="-1.188879">
        <ele>29.4</ele>
        <time>2020-08-12T22:45:31Z</time>
      </trkpt>
      <trkpt lat="44.270582" lon="-1.185257">
        <ele>25.2</ele>
        <time>2020-08-12T22:45:46Z</time>
      </trkpt>
      <trkpt lat="44.27084" lon="-1.184065">
        <ele>24.8</ele>
        <time>2020-08-12T22:45:50Z</time>
      </trkpt>
      <trkpt lat="44.270865" lon="-1.183995">
        <ele>24.8</ele>
        <time>2020-08-12T22:45:51Z</time>
      </trkpt>
      <trkpt lat="44.270899" lon="-1.183953">
        <ele>24.8</ele>
        <time>2020-08-12T22:45:51Z</time>
      </trkpt>
      <trkpt lat="44.270968" lon="-1.183926">
        <ele>24.8</ele>
        <time>2020-08-12T22:45:51Z</time>
      </trkpt>
      <trkpt lat="44.271515" lon="-1.183938">
        <ele>24.8</ele>
        <time>2020-08-12T22:45:54Z</time>
      </trkpt>
      <trkpt lat="44.271781" lon="-1.183919">
        <ele>25.0</ele>
        <time>2020-08-12T22:45:56Z</time>
      </trkpt>
      <trkpt lat="44.27202" lon="-1.183832">
        <ele>25.0</ele>
        <time>2020-08-12T22:45:57Z</time>
      </trkpt>
      <trkpt lat="44.27256" lon="-1.183487">
        <ele>25.6</ele>
        <time>2020-08-12T22:46:00Z</time>
      </trkpt>
      <trkpt lat="44.272696" lon="-1.183451">
        <ele>25.6</ele>
        <time>2020-08-12T22:46:01Z</time>
      </trkpt>
      <trkpt lat="44.27277" lon="-1.183447">
        <ele>25.6</ele>
        <time>2020-08-12T22:46:01Z</time>
      </trkpt>
      <trkpt lat="44.272865" lon="-1.183477">
        <ele>25.6</ele>
        <time>2020-08-12T22:46:02Z</time>
      </trkpt>
      <trkpt lat="44.273239" lon="-1.183706">
        <ele>25.6</ele>
        <time>2020-08-12T22:46:04Z</time>
      </trkpt>
      <trkpt lat="44.273333" lon="-1.183704">
        <ele>25.6</ele>
        <time>2020-08-12T22:46:04Z</time>
      </trkpt>
      <trkpt lat="44.273423" lon="-1.183666">
        <ele>28.0</ele>
        <time>2020-08-12T22:46:05Z</time>
      </trkpt>
      <trkpt lat="44.274401" lon="-1.182931">
        <ele>29.6</ele>
        <time>2020-08-12T22:46:11Z</time>
      </trkpt>
      <trkpt lat="44.274775" lon="-1.182697">
        <ele>29.6</ele>
        <time>2020-08-12T22:46:13Z</time>
      </trkpt>
      <trkpt lat="44.275052" lon="-1.182547">
        <ele>29.0</ele>
        <time>2020-08-12T22:46:14Z</time>
      </trkpt>
      <trkpt lat="44.275778" lon="-1.182222">
        <ele>29.4</ele>
        <time>2020-08-12T22:46:18Z</time>
      </trkpt>
      <trkpt lat="44.276452" lon="-1.18189">
        <ele>29.6</ele>
        <time>2020-08-12T22:46:22Z</time>
      </trkpt>
      <trkpt lat="44.276686" lon="-1.181735">
        <ele>30.2</ele>
        <time>2020-08-12T22:46:24Z</time>
      </trkpt>
      <trkpt lat="44.278414" lon="-1.180317">
        <ele>31.6</ele>
        <time>2020-08-12T22:46:34Z</time>
      </trkpt>
      <trkpt lat="44.279121" lon="-1.179771">
        <ele>34.6</ele>
        <time>2020-08-12T22:46:38Z</time>
      </trkpt>
      <trkpt lat="44.284217" lon="-1.176356">
        <ele>34.2</ele>
        <time>2020-08-12T22:47:08Z</time>
      </trkpt>
      <trkpt lat="44.291959" lon="-1.171126">
        <ele>35.6</ele>
        <time>2020-08-12T22:47:54Z</time>
      </trkpt>
      <trkpt lat="44.29422" lon="-1.16968">
        <ele>38.0</ele>
        <time>2020-08-12T22:48:07Z</time>
      </trkpt>
      <trkpt lat="44.294793" lon="-1.169227">
        <ele>38.0</ele>
        <time>2020-08-12T22:48:10Z</time>
      </trkpt>
      <trkpt lat="44.295174" lon="-1.169026">
        <ele>37.2</ele>
        <time>2020-08-12T22:48:12Z</time>
      </trkpt>
      <trkpt lat="44.299529" lon="-1.167673">
        <ele>40.0</ele>
        <time>2020-08-12T22:48:36Z</time>
      </trkpt>
      <trkpt lat="44.299794" lon="-1.167539">
        <ele>40.0</ele>
        <time>2020-08-12T22:48:37Z</time>
      </trkpt>
      <trkpt lat="44.300058" lon="-1.16736">
        <ele>37.8</ele>
        <time>2020-08-12T22:48:39Z</time>
      </trkpt>
      <trkpt lat="44.300167" lon="-1.167263">
        <ele>37.8</ele>
        <time>2020-08-12T22:48:40Z</time>
      </trkpt>
      <trkpt lat="44.3019" lon="-1.165399">
        <ele>35.2</ele>
        <time>2020-08-12T22:48:51Z</time>
      </trkpt>
      <trkpt lat="44.309159" lon="-1.157528">
        <ele>35.0</ele>
        <time>2020-08-12T22:49:39Z</time>
      </trkpt>
      <trkpt lat="44.309553" lon="-1.157151">
        <ele>34.6</ele>
        <time>2020-08-12T22:49:42Z</time>
      </trkpt>
      <trkpt lat="44.310065" lon="-1.156745">
        <ele>33.2</ele>
        <time>2020-08-12T22:49:45Z</time>
      </trkpt>
      <trkpt lat="44.31282" lon="-1.154651">
        <ele>30.8</ele>
        <time>2020-08-12T22:50:02Z</time>
      </trkpt>
      <trkpt lat="44.313565" lon="-1.154055">
        <ele>30.8</ele>
        <time>2020-08-12T22:50:06Z</time>
      </trkpt>
      <trkpt lat="44.314859" lon="-1.152836">
        <ele>30.0</ele>
        <time>2020-08-12T22:50:14Z</time>
      </trkpt>
      <trkpt lat="44.315124" lon="-1.152619">
        <ele>28.6</ele>
        <time>2020-08-12T22:50:16Z</time>
      </trkpt>
      <trkpt lat="44.316943" lon="-1.151411">
        <ele>35.0</ele>
        <time>2020-08-12T22:50:27Z</time>
      </trkpt>
      <trkpt lat="44.321777" lon="-1.148913">
        <ele>35.8</ele>
        <time>2020-08-12T22:50:54Z</time>
      </trkpt>
      <trkpt lat="44.324671" lon="-1.147185">
        <ele>32.8</ele>
        <time>2020-08-12T22:51:10Z</time>
      </trkpt>
      <trkpt lat="44.32509" lon="-1.146914">
        <ele>27.6</ele>
        <time>2020-08-12T22:51:14Z</time>
      </trkpt>
      <trkpt lat="44.32509" lon="-1.146914">
        <ele>27.6</ele>
        <time>2020-08-12T22:51:14Z</time>
      </trkpt>
      <trkpt lat="44.325166" lon="-1.146747">
        <ele>27.6</ele>
        <time>2020-08-12T22:51:15Z</time>
      </trkpt>
      <trkpt lat="44.325187" lon="-1.146634">
        <ele>26.4</ele>
        <time>2020-08-12T22:51:16Z</time>
      </trkpt>
      <trkpt lat="44.325171" lon="-1.146551">
        <ele>26.4</ele>
        <time>2020-08-12T22:51:16Z</time>
      </trkpt>
      <trkpt lat="44.325188" lon="-1.146444">
        <ele>26.4</ele>
        <time>2020-08-12T22:51:17Z</time>
      </trkpt>
      <trkpt lat="44.325212" lon="-1.146399">
        <ele>26.4</ele>
        <time>2020-08-12T22:51:17Z</time>
      </trkpt>
      <trkpt lat="44.325277" lon="-1.146347">
        <ele>26.4</ele>
        <time>2020-08-12T22:51:17Z</time>
      </trkpt>
      <trkpt lat="44.325363" lon="-1.14611">
        <ele>26.4</ele>
        <time>2020-08-12T22:51:19Z</time>
      </trkpt>
      <trkpt lat="44.325388" lon="-1.145969">
        <ele>26.4</ele>
        <time>2020-08-12T22:51:19Z</time>
      </trkpt>
      <trkpt lat="44.325382" lon="-1.145648">
        <ele>25.0</ele>
        <time>2020-08-12T22:51:21Z</time>
      </trkpt>
      <trkpt lat="44.325355" lon="-1.145289">
        <ele>25.0</ele>
        <time>2020-08-12T22:51:22Z</time>
      </trkpt>
      <trkpt lat="44.325259" lon="-1.144663">
        <ele>25.6</ele>
        <time>2020-08-12T22:51:25Z</time>
      </trkpt>
      <trkpt lat="44.325117" lon="-1.144183">
        <ele>25.6</ele>
        <time>2020-08-12T22:51:27Z</time>
      </trkpt>
      <trkpt lat="44.323693" lon="-1.13991">
        <ele>25.4</ele>
        <time>2020-08-12T22:51:47Z</time>
      </trkpt>
      <trkpt lat="44.323524" lon="-1.13931">
        <ele>25.4</ele>
        <time>2020-08-12T22:51:50Z</time>
      </trkpt>
      <trkpt lat="44.322697" lon="-1.133833">
        <ele>28.4</ele>
        <time>2020-08-12T22:52:14Z</time>
      </trkpt>
      <trkpt lat="44.322648" lon="-1.133597">
        <ele>28.4</ele>
        <time>2020-08-12T22:52:15Z</time>
      </trkpt>
      <trkpt lat="44.322604" lon="-1.133109">
        <ele>29.2</ele>
        <time>2020-08-12T22:52:17Z</time>
      </trkpt>
      <trkpt lat="44.322528" lon="-1.132783">
        <ele>29.2</ele>
        <time>2020-08-12T22:52:18Z</time>
      </trkpt>
      <trkpt lat="44.322391" lon="-1.131876">
        <ele>31.2</ele>
        <time>2020-08-12T22:52:22Z</time>
      </trkpt>
      <trkpt lat="44.322355" lon="-1.13143">
        <ele>31.2</ele>
        <time>2020-08-12T22:52:24Z</time>
      </trkpt>
      <trkpt lat="44.32234" lon="-1.131036">
        <ele>31.2</ele>
        <time>2020-08-12T22:52:26Z</time>
      </trkpt>
      <trkpt lat="44.322359" lon="-1.127777">
        <ele>30.4</ele>
        <time>2020-08-12T22:52:40Z</time>
      </trkpt>
      <trkpt lat="44.322346" lon="-1.127203">
        <ele>32.2</ele>
        <time>2020-08-12T22:52:42Z</time>
      </trkpt>
      <trkpt lat="44.322175" lon="-1.122957">
        <ele>37.4</ele>
        <time>2020-08-12T22:53:01Z</time>
      </trkpt>
      <trkpt lat="44.322125" lon="-1.122028">
        <ele>37.0</ele>
        <time>2020-08-12T22:53:05Z</time>
      </trkpt>
      <trkpt lat="44.322068" lon="-1.121502">
        <ele>35.4</ele>
        <time>2020-08-12T22:53:07Z</time>
      </trkpt>
      <trkpt lat="44.321317" lon="-1.115913">
        <ele>32.8</ele>
        <time>2020-08-12T22:53:31Z</time>
      </trkpt>
      <trkpt lat="44.32128" lon="-1.115525">
        <ele>31.6</ele>
        <time>2020-08-12T22:53:33Z</time>
      </trkpt>
      <trkpt lat="44.321279" lon="-1.115249">
        <ele>31.6</ele>
        <time>2020-08-12T22:53:34Z</time>
      </trkpt>
      <trkpt lat="44.321305" lon="-1.1149">
        <ele>31.2</ele>
        <time>2020-08-12T22:53:36Z</time>
      </trkpt>
      <trkpt lat="44.322303" lon="-1.108463">
        <ele>35.0</ele>
        <time>2020-08-12T22:54:04Z</time>
      </trkpt>
      <trkpt lat="44.322353" lon="-1.107807">
        <ele>36.6</ele>
        <time>2020-08-12T22:54:07Z</time>
      </trkpt>
      <trkpt lat="44.322361" lon="-1.107071">
        <ele>38.2</ele>
        <time>2020-08-12T22:54:10Z</time>
      </trkpt>
      <trkpt lat="44.322451" lon="-1.105963">
        <ele>39.2</ele>
        <time>2020-08-12T22:54:14Z</time>
      </trkpt>
      <trkpt lat="44.322501" lon="-1.105">
        <ele>36.8</ele>
        <time>2020-08-12T22:54:19Z</time>
      </trkpt>
      <trkpt lat="44.322539" lon="-1.104641">
        <ele>37.6</ele>
        <time>2020-08-12T22:54:20Z</time>
      </trkpt>
      <trkpt lat="44.322572" lon="-1.104472">
        <ele>37.6</ele>
        <time>2020-08-12T22:54:21Z</time>
      </trkpt>
      <trkpt lat="44.322663" lon="-1.104153">
        <ele>39.0</ele>
        <time>2020-08-12T22:54:22Z</time>
      </trkpt>
      <trkpt lat="44.324917" lon="-1.097956">
        <ele>36.0</ele>
        <time>2020-08-12T22:54:52Z</time>
      </trkpt>
      <trkpt lat="44.325049" lon="-1.097781">
        <ele>37.0</ele>
        <time>2020-08-12T22:54:53Z</time>
      </trkpt>
      <trkpt lat="44.326266" lon="-1.096594">
        <ele>36.4</ele>
        <time>2020-08-12T22:55:02Z</time>
      </trkpt>
      <trkpt lat="44.326476" lon="-1.096354">
        <ele>36.4</ele>
        <time>2020-08-12T22:55:04Z</time>
      </trkpt>
      <trkpt lat="44.32667" lon="-1.096061">
        <ele>34.2</ele>
        <time>2020-08-12T22:55:05Z</time>
      </trkpt>
      <trkpt lat="44.326877" lon="-1.095623">
        <ele>33.2</ele>
        <time>2020-08-12T22:55:08Z</time>
      </trkpt>
      <trkpt lat="44.327111" lon="-1.09497">
        <ele>30.8</ele>
        <time>2020-08-12T22:55:11Z</time>
      </trkpt>
      <trkpt lat="44.327994" lon="-1.092303">
        <ele>35.4</ele>
        <time>2020-08-12T22:55:23Z</time>
      </trkpt>
      <trkpt lat="44.328077" lon="-1.092084">
        <ele>35.4</ele>
        <time>2020-08-12T22:55:24Z</time>
      </trkpt>
      <trkpt lat="44.32829" lon="-1.091683">
        <ele>35.4</ele>
        <time>2020-08-12T22:55:26Z</time>
      </trkpt>
      <trkpt lat="44.328527" lon="-1.091378">
        <ele>36.0</ele>
        <time>2020-08-12T22:55:28Z</time>
      </trkpt>
      <trkpt lat="44.330231" lon="-1.089571">
        <ele>35.6</ele>
        <time>2020-08-12T22:55:41Z</time>
      </trkpt>
      <trkpt lat="44.330545" lon="-1.089137">
        <ele>35.4</ele>
        <time>2020-08-12T22:55:44Z</time>
      </trkpt>
      <trkpt lat="44.330644" lon="-1.088861">
        <ele>35.4</ele>
        <time>2020-08-12T22:55:45Z</time>
      </trkpt>
      <trkpt lat="44.330662" lon="-1.088779">
        <ele>35.4</ele>
        <time>2020-08-12T22:55:45Z</time>
      </trkpt>
      <trkpt lat="44.330662" lon="-1.08864">
        <ele>35.4</ele>
        <time>2020-08-12T22:55:46Z</time>
      </trkpt>
      <trkpt lat="44.330638" lon="-1.088486">
        <ele>35.4</ele>
        <time>2020-08-12T22:55:47Z</time>
      </trkpt>
      <trkpt lat="44.330678" lon="-1.08834">
        <ele>35.4</ele>
        <time>2020-08-12T22:55:47Z</time>
      </trkpt>
      <trkpt lat="44.330718" lon="-1.088286">
        <ele>35.4</ele>
        <time>2020-08-12T22:55:47Z</time>
      </trkpt>
      <trkpt lat="44.330812" lon="-1.088234">
        <ele>35.4</ele>
        <time>2020-08-12T22:55:48Z</time>
      </trkpt>
      <trkpt lat="44.330876" lon="-1.088167">
        <ele>33.4</ele>
        <time>2020-08-12T22:55:48Z</time>
      </trkpt>
      <trkpt lat="44.331309" lon="-1.087374">
        <ele>33.2</ele>
        <time>2020-08-12T22:55:52Z</time>
      </trkpt>
      <trkpt lat="44.331473" lon="-1.087172">
        <ele>33.2</ele>
        <time>2020-08-12T22:55:53Z</time>
      </trkpt>
      <trkpt lat="44.331743" lon="-1.086925">
        <ele>31.6</ele>
        <time>2020-08-12T22:55:54Z</time>
      </trkpt>
      <trkpt lat="44.332047" lon="-1.086736">
        <ele>31.6</ele>
        <time>2020-08-12T22:55:56Z</time>
      </trkpt>
      <trkpt lat="44.338513" lon="-1.083376">
        <ele>24.2</ele>
        <time>2020-08-12T22:56:27Z</time>
      </trkpt>
      <trkpt lat="44.338847" lon="-1.083178">
        <ele>25.8</ele>
        <time>2020-08-12T22:56:29Z</time>
      </trkpt>
      <trkpt lat="44.339028" lon="-1.08302">
        <ele>25.8</ele>
        <time>2020-08-12T22:56:30Z</time>
      </trkpt>
      <trkpt lat="44.339219" lon="-1.082795">
        <ele>27.6</ele>
        <time>2020-08-12T22:56:31Z</time>
      </trkpt>
      <trkpt lat="44.340023" lon="-1.081766">
        <ele>26.2</ele>
        <time>2020-08-12T22:56:36Z</time>
      </trkpt>
      <trkpt lat="44.340196" lon="-1.081458">
        <ele>27.4</ele>
        <time>2020-08-12T22:56:37Z</time>
      </trkpt>
      <trkpt lat="44.340208" lon="-1.081337">
        <ele>27.4</ele>
        <time>2020-08-12T22:56:38Z</time>
      </trkpt>
      <trkpt lat="44.340201" lon="-1.081074">
        <ele>27.4</ele>
        <time>2020-08-12T22:56:39Z</time>
      </trkpt>
      <trkpt lat="44.34017" lon="-1.081036">
        <ele>27.4</ele>
        <time>2020-08-12T22:56:39Z</time>
      </trkpt>
      <trkpt lat="44.340139" lon="-1.080932">
        <ele>27.4</ele>
        <time>2020-08-12T22:56:39Z</time>
      </trkpt>
      <trkpt lat="44.340142" lon="-1.080875">
        <ele>27.4</ele>
        <time>2020-08-12T22:56:40Z</time>
      </trkpt>
      <trkpt lat="44.340158" lon="-1.080818">
        <ele>29.4</ele>
        <time>2020-08-12T22:56:40Z</time>
      </trkpt>
      <trkpt lat="44.340225" lon="-1.080741">
        <ele>29.4</ele>
        <time>2020-08-12T22:56:40Z</time>
      </trkpt>
      <trkpt lat="44.3403" lon="-1.080733">
        <ele>29.4</ele>
        <time>2020-08-12T22:56:41Z</time>
      </trkpt>
      <trkpt lat="44.340366" lon="-1.080784">
        <ele>29.4</ele>
        <time>2020-08-12T22:56:41Z</time>
      </trkpt>
      <trkpt lat="44.340389" lon="-1.080827">
        <ele>29.4</ele>
        <time>2020-08-12T22:56:41Z</time>
      </trkpt>
      <trkpt lat="44.340572" lon="-1.080902">
        <ele>27.4</ele>
        <time>2020-08-12T22:56:42Z</time>
      </trkpt>
      <trkpt lat="44.340682" lon="-1.080907">
        <ele>27.4</ele>
        <time>2020-08-12T22:56:42Z</time>
      </trkpt>
      <trkpt lat="44.341007" lon="-1.080793">
        <ele>25.8</ele>
        <time>2020-08-12T22:56:44Z</time>
      </trkpt>
      <trkpt lat="44.34132" lon="-1.080833">
        <ele>24.0</ele>
        <time>2020-08-12T22:56:45Z</time>
      </trkpt>
      <trkpt lat="44.341721" lon="-1.080945">
        <ele>24.2</ele>
        <time>2020-08-12T22:56:47Z</time>
      </trkpt>
      <trkpt lat="44.343031" lon="-1.081654">
        <ele>25.4</ele>
        <time>2020-08-12T22:56:54Z</time>
      </trkpt>
      <trkpt lat="44.343243" lon="-1.08174">
        <ele>26.6</ele>
        <time>2020-08-12T22:56:55Z</time>
      </trkpt>
      <trkpt lat="44.343421" lon="-1.081767">
        <ele>27.0</ele>
        <time>2020-08-12T22:56:56Z</time>
      </trkpt>
      <trkpt lat="44.343573" lon="-1.081757">
        <ele>27.0</ele>
        <time>2020-08-12T22:56:56Z</time>
      </trkpt>
      <trkpt lat="44.344504" lon="-1.081541">
        <ele>26.4</ele>
        <time>2020-08-12T22:57:01Z</time>
      </trkpt>
      <trkpt lat="44.344701" lon="-1.081444">
        <ele>26.4</ele>
        <time>2020-08-12T22:57:02Z</time>
      </trkpt>
      <trkpt lat="44.344779" lon="-1.081377">
        <ele>26.4</ele>
        <time>2020-08-12T22:57:02Z</time>
      </trkpt>
      <trkpt lat="44.34488" lon="-1.081252">
        <ele>26.4</ele>
        <time>2020-08-12T22:57:03Z</time>
      </trkpt>
      <trkpt lat="44.34503" lon="-1.081008">
        <ele>27.8</ele>
        <time>2020-08-12T22:57:04Z</time>
      </trkpt>
      <trkpt lat="44.346283" lon="-1.078689">
        <ele>28.8</ele>
        <time>2020-08-12T22:57:13Z</time>
      </trkpt>
      <trkpt lat="44.346283" lon="-1.078689">
        <ele>28.8</ele>
        <time>2020-08-12T22:57:13Z</time>
      </trkpt>
      <trkpt lat="44.347339" lon="-1.079582">
        <ele>30.0</ele>
        <time>2020-08-12T22:57:36Z</time>
      </trkpt>
      <trkpt lat="44.34762" lon="-1.079245">
        <ele>29.8</ele>
        <time>2020-08-12T22:57:42Z</time>
      </trkpt>
      <trkpt lat="44.347828" lon="-1.079066">
        <ele>29.8</ele>
        <time>2020-08-12T22:57:47Z</time>
      </trkpt>
      <trkpt lat="44.348943" lon="-1.078258">
        <ele>30.8</ele>
        <time>2020-08-12T22:58:08Z</time>
      </trkpt>
      <trkpt lat="44.348985" lon="-1.078561">
        <ele>30.2</ele>
        <time>2020-08-12T22:58:10Z</time>
      </trkpt>
      <trkpt lat="44.349173" lon="-1.079455">
        <ele>30.2</ele>
        <time>2020-08-12T22:58:17Z</time>
      </trkpt>
      <trkpt lat="44.349819" lon="-1.079132">
        <ele>31.0</ele>
        <time>2020-08-12T22:58:26Z</time>
      </trkpt>
      <trkpt lat="44.350115" lon="-1.078956">
        <ele>32.2</ele>
        <time>2020-08-12T22:58:30Z</time>
      </trkpt>
      <trkpt lat="44.350184" lon="-1.078905">
        <ele>32.2</ele>
        <time>2020-08-12T22:58:31Z</time>
      </trkpt>
      <trkpt lat="44.350487" lon="-1.078559">
        <ele>32.2</ele>
        <time>2020-08-12T22:58:36Z</time>
      </trkpt>
      <trkpt lat="44.350622" lon="-1.078453">
        <ele>32.2</ele>
        <time>2020-08-12T22:58:38Z</time>
      </trkpt>
      <trkpt lat="44.35104" lon="-1.078236">
        <ele>32.8</ele>
        <time>2020-08-12T22:58:44Z</time>
      </trkpt>
      <trkpt lat="44.351552" lon="-1.078097">
        <ele>32.8</ele>
        <time>2020-08-12T22:58:51Z</time>
      </trkpt>
      <trkpt lat="44.351651" lon="-1.078012">
        <ele>32.8</ele>
        <time>2020-08-12T22:58:53Z</time>
      </trkpt>
      <trkpt lat="44.351843" lon="-1.078288">
        <ele>32.8</ele>
        <time>2020-08-12T22:58:56Z</time>
      </trkpt>
      <trkpt lat="44.352194" lon="-1.078714">
        <ele>32.0</ele>
        <time>2020-08-12T22:59:02Z</time>
      </trkpt>
      <trkpt lat="44.352669" lon="-1.079168">
        <ele>31.8</ele>
        <time>2020-08-12T22:59:09Z</time>
      </trkpt>
      <trkpt lat="44.352939" lon="-1.079394">
        <ele>31.8</ele>
        <time>2020-08-12T22:59:13Z</time>
      </trkpt>
      <trkpt lat="44.353215" lon="-1.079454">
        <ele>31.8</ele>
        <time>2020-08-12T22:59:16Z</time>
      </trkpt>
      <trkpt lat="44.353308" lon="-1.079442">
        <ele>31.8</ele>
        <time>2020-08-12T22:59:18Z</time>
      </trkpt>
      <trkpt lat="44.35338" lon="-1.079384">
        <ele>33.2</ele>
        <time>2020-08-12T22:59:19Z</time>
      </trkpt>
      <trkpt lat="44.353417" lon="-1.079322">
        <ele>33.2</ele>
        <time>2020-08-12T22:59:19Z</time>
      </trkpt>
      <trkpt lat="44.353467" lon="-1.079156">
        <ele>33.6</ele>
        <time>2020-08-12T22:59:20Z</time>
      </trkpt>
      <trkpt lat="44.353545" lon="-1.079068">
        <ele>33.6</ele>
        <time>2020-08-12T22:59:21Z</time>
      </trkpt>
      <trkpt lat="44.353616" lon="-1.079037">
        <ele>33.6</ele>
        <time>2020-08-12T22:59:22Z</time>
      </trkpt>
      <trkpt lat="44.35369" lon="-1.079038">
        <ele>33.6</ele>
        <time>2020-08-12T22:59:22Z</time>
      </trkpt>
      <trkpt lat="44.353761" lon="-1.079073">
        <ele>33.6</ele>
        <time>2020-08-12T22:59:23Z</time>
      </trkpt>
      <trkpt lat="44.353824" lon="-1.079143">
        <ele>33.6</ele>
        <time>2020-08-12T22:59:24Z</time>
      </trkpt>
      <trkpt lat="44.353866" lon="-1.079238">
        <ele>33.2</ele>
        <time>2020-08-12T22:59:24Z</time>
      </trkpt>
      <trkpt lat="44.353881" lon="-1.079316">
        <ele>33.2</ele>
        <time>2020-08-12T22:59:25Z</time>
      </trkpt>
      <trkpt lat="44.353868" lon="-1.079476">
        <ele>33.2</ele>
        <time>2020-08-12T22:59:26Z</time>
      </trkpt>
      <trkpt lat="44.353844" lon="-1.07954">
        <ele>33.2</ele>
        <time>2020-08-12T22:59:26Z</time>
      </trkpt>
      <trkpt lat="44.353769" lon="-1.07964">
        <ele>33.2</ele>
        <time>2020-08-12T22:59:27Z</time>
      </trkpt>
      <trkpt lat="44.353721" lon="-1.079815">
        <ele>33.2</ele>
        <time>2020-08-12T22:59:28Z</time>
      </trkpt>
      <trkpt lat="44.353724" lon="-1.079952">
        <ele>33.2</ele>
        <time>2020-08-12T22:59:29Z</time>
      </trkpt>
      <trkpt lat="44.353773" lon="-1.080138">
        <ele>33.6</ele>
        <time>2020-08-12T22:59:30Z</time>
      </trkpt>
      <trkpt lat="44.353996" lon="-1.08036">
        <ele>33.6</ele>
        <time>2020-08-12T22:59:32Z</time>
      </trkpt>
      <trkpt lat="44.354876" lon="-1.081158">
        <ele>33.0</ele>
        <time>2020-08-12T22:59:40Z</time>
      </trkpt>
      <trkpt lat="44.355415" lon="-1.081735">
        <ele>33.0</ele>
        <time>2020-08-12T22:59:45Z</time>
      </trkpt>
      <trkpt lat="44.35577" lon="-1.082167">
        <ele>33.0</ele>
        <time>2020-08-12T22:59:48Z</time>
      </trkpt>
      <trkpt lat="44.356191" lon="-1.082749">
        <ele>33.6</ele>
        <time>2020-08-12T22:59:52Z</time>
      </trkpt>
      <trkpt lat="44.356405" lon="-1.083088">
        <ele>33.6</ele>
        <time>2020-08-12T22:59:55Z</time>
      </trkpt>
      <trkpt lat="44.35679" lon="-1.083766">
        <ele>33.6</ele>
        <time>2020-08-12T22:59:59Z</time>
      </trkpt>
      <trkpt lat="44.357074" lon="-1.084345">
        <ele>32.6</ele>
        <time>2020-08-12T23:00:03Z</time>
      </trkpt>
      <trkpt lat="44.359029" lon="-1.089045">
        <ele>39.8</ele>
        <time>2020-08-12T23:00:31Z</time>
      </trkpt>
      <trkpt lat="44.359203" lon="-1.089312">
        <ele>37.0</ele>
        <time>2020-08-12T23:00:33Z</time>
      </trkpt>
      <trkpt lat="44.359271" lon="-1.089391">
        <ele>37.0</ele>
        <time>2020-08-12T23:00:34Z</time>
      </trkpt>
      <trkpt lat="44.35937" lon="-1.089397">
        <ele>37.0</ele>
        <time>2020-08-12T23:00:35Z</time>
      </trkpt>
      <trkpt lat="44.359423" lon="-1.089425">
        <ele>37.0</ele>
        <time>2020-08-12T23:00:35Z</time>
      </trkpt>
      <trkpt lat="44.35947" lon="-1.089471">
        <ele>37.0</ele>
        <time>2020-08-12T23:00:35Z</time>
      </trkpt>
      <trkpt lat="44.359522" lon="-1.089565">
        <ele>37.0</ele>
        <time>2020-08-12T23:00:36Z</time>
      </trkpt>
      <trkpt lat="44.359548" lon="-1.089745">
        <ele>37.0</ele>
        <time>2020-08-12T23:00:36Z</time>
      </trkpt>
      <trkpt lat="44.359502" lon="-1.08996">
        <ele>37.0</ele>
        <time>2020-08-12T23:00:37Z</time>
      </trkpt>
      <trkpt lat="44.359513" lon="-1.090094">
        <ele>35.2</ele>
        <time>2020-08-12T23:00:38Z</time>
      </trkpt>
      <trkpt lat="44.359591" lon="-1.090404">
        <ele>35.2</ele>
        <time>2020-08-12T23:00:39Z</time>
      </trkpt>
      <trkpt lat="44.362876" lon="-1.098355">
        <ele>39.2</ele>
        <time>2020-08-12T23:01:17Z</time>
      </trkpt>
      <trkpt lat="44.364753" lon="-1.10286">
        <ele>34.0</ele>
        <time>2020-08-12T23:01:38Z</time>
      </trkpt>
      <trkpt lat="44.366737" lon="-1.107704">
        <ele>38.2</ele>
        <time>2020-08-12T23:02:01Z</time>
      </trkpt>
      <trkpt lat="44.36747" lon="-1.109429">
        <ele>35.6</ele>
        <time>2020-08-12T23:02:09Z</time>
      </trkpt>
      <trkpt lat="44.368779" lon="-1.112689">
        <ele>33.6</ele>
        <time>2020-08-12T23:02:24Z</time>
      </trkpt>
      <trkpt lat="44.369011" lon="-1.113345">
        <ele>32.2</ele>
        <time>2020-08-12T23:02:27Z</time>
      </trkpt>
      <trkpt lat="44.369267" lon="-1.114151">
        <ele>32.8</ele>
        <time>2020-08-12T23:02:31Z</time>
      </trkpt>
      <trkpt lat="44.370215" lon="-1.117525">
        <ele>33.4</ele>
        <time>2020-08-12T23:02:46Z</time>
      </trkpt>
      <trkpt lat="44.370721" lon="-1.119043">
        <ele>32.8</ele>
        <time>2020-08-12T23:02:52Z</time>
      </trkpt>
      <trkpt lat="44.371072" lon="-1.119932">
        <ele>32.8</ele>
        <time>2020-08-12T23:02:57Z</time>
      </trkpt>
      <trkpt lat="44.371358" lon="-1.120612">
        <ele>31.8</ele>
        <time>2020-08-12T23:03:00Z</time>
      </trkpt>
      <trkpt lat="44.375217" lon="-1.129322">
        <ele>34.6</ele>
        <time>2020-08-12T23:03:42Z</time>
      </trkpt>
      <trkpt lat="44.376665" lon="-1.13264">
        <ele>30.6</ele>
        <time>2020-08-12T23:03:58Z</time>
      </trkpt>
      <trkpt lat="44.376952" lon="-1.133078">
        <ele>31.6</ele>
        <time>2020-08-12T23:04:00Z</time>
      </trkpt>
      <trkpt lat="44.377066" lon="-1.133089">
        <ele>31.6</ele>
        <time>2020-08-12T23:04:01Z</time>
      </trkpt>
      <trkpt lat="44.37712" lon="-1.133125">
        <ele>31.6</ele>
        <time>2020-08-12T23:04:01Z</time>
      </trkpt>
      <trkpt lat="44.377166" lon="-1.13318">
        <ele>31.6</ele>
        <time>2020-08-12T23:04:01Z</time>
      </trkpt>
      <trkpt lat="44.377204" lon="-1.133263">
        <ele>31.6</ele>
        <time>2020-08-12T23:04:02Z</time>
      </trkpt>
      <trkpt lat="44.377218" lon="-1.133325">
        <ele>31.6</ele>
        <time>2020-08-12T23:04:02Z</time>
      </trkpt>
      <trkpt lat="44.377218" lon="-1.133455">
        <ele>30.8</ele>
        <time>2020-08-12T23:04:03Z</time>
      </trkpt>
      <trkpt lat="44.377191" lon="-1.133554">
        <ele>30.8</ele>
        <time>2020-08-12T23:04:03Z</time>
      </trkpt>
      <trkpt lat="44.377201" lon="-1.133677">
        <ele>30.8</ele>
        <time>2020-08-12T23:04:03Z</time>
      </trkpt>
      <trkpt lat="44.377222" lon="-1.133801">
        <ele>30.8</ele>
        <time>2020-08-12T23:04:04Z</time>
      </trkpt>
      <trkpt lat="44.3773" lon="-1.134071">
        <ele>30.8</ele>
        <time>2020-08-12T23:04:05Z</time>
      </trkpt>
      <trkpt lat="44.381017" lon="-1.142475">
        <ele>32.6</ele>
        <time>2020-08-12T23:04:45Z</time>
      </trkpt>
      <trkpt lat="44.382159" lon="-1.145108">
        <ele>29.0</ele>
        <time>2020-08-12T23:04:57Z</time>
      </trkpt>
      <trkpt lat="44.383404" lon="-1.147917">
        <ele>28.8</ele>
        <time>2020-08-12T23:05:11Z</time>
      </trkpt>
      <trkpt lat="44.38365" lon="-1.148354">
        <ele>28.6</ele>
        <time>2020-08-12T23:05:13Z</time>
      </trkpt>
      <trkpt lat="44.383729" lon="-1.148465">
        <ele>28.6</ele>
        <time>2020-08-12T23:05:14Z</time>
      </trkpt>
      <trkpt lat="44.383805" lon="-1.148459">
        <ele>28.6</ele>
        <time>2020-08-12T23:05:14Z</time>
      </trkpt>
      <trkpt lat="44.383881" lon="-1.148487">
        <ele>28.6</ele>
        <time>2020-08-12T23:05:15Z</time>
      </trkpt>
      <trkpt lat="44.383945" lon="-1.148548">
        <ele>28.6</ele>
        <time>2020-08-12T23:05:16Z</time>
      </trkpt>
      <trkpt lat="44.383988" lon="-1.148625">
        <ele>28.6</ele>
        <time>2020-08-12T23:05:16Z</time>
      </trkpt>
      <trkpt lat="44.384014" lon="-1.148717">
        <ele>28.6</ele>
        <time>2020-08-12T23:05:17Z</time>
      </trkpt>
      <trkpt lat="44.384019" lon="-1.148815">
        <ele>28.6</ele>
        <time>2020-08-12T23:05:18Z</time>
      </trkpt>
      <trkpt lat="44.384002" lon="-1.148916">
        <ele>28.6</ele>
        <time>2020-08-12T23:05:18Z</time>
      </trkpt>
      <trkpt lat="44.383964" lon="-1.149005">
        <ele>28.6</ele>
        <time>2020-08-12T23:05:19Z</time>
      </trkpt>
      <trkpt lat="44.383951" lon="-1.149087">
        <ele>28.6</ele>
        <time>2020-08-12T23:05:20Z</time>
      </trkpt>
      <trkpt lat="44.383955" lon="-1.149205">
        <ele>28.8</ele>
        <time>2020-08-12T23:05:20Z</time>
      </trkpt>
      <trkpt lat="44.384044" lon="-1.149442">
        <ele>28.8</ele>
        <time>2020-08-12T23:05:22Z</time>
      </trkpt>
      <trkpt lat="44.38413" lon="-1.14961">
        <ele>28.8</ele>
        <time>2020-08-12T23:05:24Z</time>
      </trkpt>
      <trkpt lat="44.384256" lon="-1.149803">
        <ele>28.4</ele>
        <time>2020-08-12T23:05:25Z</time>
      </trkpt>
      <trkpt lat="44.384666" lon="-1.150577">
        <ele>28.6</ele>
        <time>2020-08-12T23:05:32Z</time>
      </trkpt>
      <trkpt lat="44.385884" lon="-1.152664">
        <ele>29.2</ele>
        <time>2020-08-12T23:05:50Z</time>
      </trkpt>
      <trkpt lat="44.386098" lon="-1.152957">
        <ele>29.2</ele>
        <time>2020-08-12T23:05:52Z</time>
      </trkpt>
      <trkpt lat="44.386452" lon="-1.153339">
        <ele>29.6</ele>
        <time>2020-08-12T23:05:57Z</time>
      </trkpt>
      <trkpt lat="44.386567" lon="-1.153505">
        <ele>29.6</ele>
        <time>2020-08-12T23:05:58Z</time>
      </trkpt>
      <trkpt lat="44.386647" lon="-1.153674">
        <ele>29.6</ele>
        <time>2020-08-12T23:05:59Z</time>
      </trkpt>
      <trkpt lat="44.38679" lon="-1.154103">
        <ele>29.8</ele>
        <time>2020-08-12T23:06:03Z</time>
      </trkpt>
      <trkpt lat="44.386875" lon="-1.154302">
        <ele>29.2</ele>
        <time>2020-08-12T23:06:04Z</time>
      </trkpt>
      <trkpt lat="44.390711" lon="-1.160759">
        <ele>27.4</ele>
        <time>2020-08-12T23:07:00Z</time>
      </trkpt>
      <trkpt lat="44.390814" lon="-1.16096">
        <ele>26.8</ele>
        <time>2020-08-12T23:07:02Z</time>
      </trkpt>
      <trkpt lat="44.390959" lon="-1.1614">
        <ele>27.8</ele>
        <time>2020-08-12T23:07:05Z</time>
      </trkpt>
      <trkpt lat="44.391047" lon="-1.161507">
        <ele>27.8</ele>
        <time>2020-08-12T23:07:06Z</time>
      </trkpt>
      <trkpt lat="44.391095" lon="-1.161497">
        <ele>27.8</ele>
        <time>2020-08-12T23:07:07Z</time>
      </trkpt>
      <trkpt lat="44.391182" lon="-1.161535">
        <ele>27.8</ele>
        <time>2020-08-12T23:07:08Z</time>
      </trkpt>
      <trkpt lat="44.391345" lon="-1.161872">
        <ele>27.6</ele>
        <time>2020-08-12T23:07:10Z</time>
      </trkpt>
      <trkpt lat="44.39141" lon="-1.161944">
        <ele>27.6</ele>
        <time>2020-08-12T23:07:11Z</time>
      </trkpt>
      <trkpt lat="44.391566" lon="-1.162198">
        <ele>27.6</ele>
        <time>2020-08-12T23:07:14Z</time>
      </trkpt>
      <trkpt lat="44.392943" lon="-1.164519">
        <ele>26.6</ele>
        <time>2020-08-12T23:07:36Z</time>
      </trkpt>
      <trkpt lat="44.393046" lon="-1.16466">
        <ele>26.6</ele>
        <time>2020-08-12T23:07:37Z</time>
      </trkpt>
      <trkpt lat="44.393179" lon="-1.164759">
        <ele>26.6</ele>
        <time>2020-08-12T23:07:39Z</time>
      </trkpt>
      <trkpt lat="44.393276" lon="-1.164768">
        <ele>26.6</ele>
        <time>2020-08-12T23:07:40Z</time>
      </trkpt>
      <trkpt lat="44.393382" lon="-1.164711">
        <ele>26.8</ele>
        <time>2020-08-12T23:07:41Z</time>
      </trkpt>
      <trkpt lat="44.393435" lon="-1.164657">
        <ele>26.8</ele>
        <time>2020-08-12T23:07:42Z</time>
      </trkpt>
      <trkpt lat="44.393529" lon="-1.164638">
        <ele>26.8</ele>
        <time>2020-08-12T23:07:43Z</time>
      </trkpt>
      <trkpt lat="44.393618" lon="-1.164697">
        <ele>26.8</ele>
        <time>2020-08-12T23:07:44Z</time>
      </trkpt>
      <trkpt lat="44.393651" lon="-1.164754">
        <ele>26.8</ele>
        <time>2020-08-12T23:07:44Z</time>
      </trkpt>
      <trkpt lat="44.393729" lon="-1.164797">
        <ele>26.8</ele>
        <time>2020-08-12T23:07:45Z</time>
      </trkpt>
      <trkpt lat="44.393932" lon="-1.164814">
        <ele>26.8</ele>
        <time>2020-08-12T23:07:47Z</time>
      </trkpt>
      <trkpt lat="44.394025" lon="-1.16477">
        <ele>26.8</ele>
        <time>2020-08-12T23:07:48Z</time>
      </trkpt>
      <trkpt lat="44.394167" lon="-1.164661">
        <ele>27.6</ele>
        <time>2020-08-12T23:07:50Z</time>
      </trkpt>
      <trkpt lat="44.394307" lon="-1.164495">
        <ele>27.6</ele>
        <time>2020-08-12T23:07:52Z</time>
      </trkpt>
      <trkpt lat="44.394542" lon="-1.164145">
        <ele>27.6</ele>
        <time>2020-08-12T23:07:55Z</time>
      </trkpt>
      <trkpt lat="44.394581" lon="-1.164082">
        <ele>27.6</ele>
        <time>2020-08-12T23:07:56Z</time>
      </trkpt>
      <trkpt lat="44.394609" lon="-1.164066">
        <ele>27.6</ele>
        <time>2020-08-12T23:07:56Z</time>
      </trkpt>
      <trkpt lat="44.394671" lon="-1.164073">
        <ele>27.6</ele>
        <time>2020-08-12T23:07:57Z</time>
      </trkpt>
      <trkpt lat="44.394699" lon="-1.164097">
        <ele>27.6</ele>
        <time>2020-08-12T23:07:57Z</time>
      </trkpt>
      <trkpt lat="44.395262" lon="-1.16394">
        <ele>28.2</ele>
        <time>2020-08-12T23:08:03Z</time>
      </trkpt>
      <trkpt lat="44.396052" lon="-1.16661">
        <ele>26.4</ele>
        <time>2020-08-12T23:08:24Z</time>
      </trkpt>
      <trkpt lat="44.39784" lon="-1.166045">
        <ele>24.4</ele>
        <time>2020-08-12T23:08:43Z</time>
      </trkpt>
      <trkpt lat="44.401075" lon="-1.164218">
        <ele>25.2</ele>
        <time>2020-08-12T23:09:19Z</time>
      </trkpt>
      <trkpt lat="44.401689" lon="-1.163899">
        <ele>25.2</ele>
        <time>2020-08-12T23:09:25Z</time>
      </trkpt>
      <trkpt lat="44.401842" lon="-1.163782">
        <ele>25.2</ele>
        <time>2020-08-12T23:09:27Z</time>
      </trkpt>
      <trkpt lat="44.403391" lon="-1.162912">
        <ele>25.2</ele>
        <time>2020-08-12T23:09:44Z</time>
      </trkpt>
      <trkpt lat="44.405868" lon="-1.16156">
        <ele>25.6</ele>
        <time>2020-08-12T23:10:11Z</time>
      </trkpt>
      <trkpt lat="44.406799" lon="-1.160995">
        <ele>25.0</ele>
        <time>2020-08-12T23:10:22Z</time>
      </trkpt>
      <trkpt lat="44.407825" lon="-1.160404">
        <ele>26.2</ele>
        <time>2020-08-12T23:10:33Z</time>
      </trkpt>
      <trkpt lat="44.407771" lon="-1.160299">
        <ele>26.2</ele>
        <time>2020-08-12T23:10:34Z</time>
      </trkpt>
      <trkpt lat="44.407757" lon="-1.160197">
        <ele>26.2</ele>
        <time>2020-08-12T23:10:35Z</time>
      </trkpt>
      <trkpt lat="44.407774" lon="-1.160095">
        <ele>26.2</ele>
        <time>2020-08-12T23:10:36Z</time>
      </trkpt>
      <trkpt lat="44.407824" lon="-1.160003">
        <ele>26.2</ele>
        <time>2020-08-12T23:10:37Z</time>
      </trkpt>
      <trkpt lat="44.407878" lon="-1.159958">
        <ele>26.4</ele>
        <time>2020-08-12T23:10:38Z</time>
      </trkpt>
      <trkpt lat="44.407955" lon="-1.159942">
        <ele>26.4</ele>
        <time>2020-08-12T23:10:39Z</time>
      </trkpt>
      <trkpt lat="44.408027" lon="-1.159968">
        <ele>26.4</ele>
        <time>2020-08-12T23:10:40Z</time>
      </trkpt>
      <trkpt lat="44.408393" lon="-1.159999">
        <ele>25.6</ele>
        <time>2020-08-12T23:10:44Z</time>
      </trkpt>
      <trkpt lat="44.408749" lon="-1.159926">
        <ele>25.6</ele>
        <time>2020-08-12T23:10:48Z</time>
      </trkpt>
      <trkpt lat="44.410369" lon="-1.159024">
        <ele>27.2</ele>
        <time>2020-08-12T23:11:11Z</time>
      </trkpt>
      <trkpt lat="44.410893" lon="-1.158674">
        <ele>26.6</ele>
        <time>2020-08-12T23:11:19Z</time>
      </trkpt>
      <trkpt lat="44.412787" lon="-1.157144">
        <ele>27.2</ele>
        <time>2020-08-12T23:11:48Z</time>
      </trkpt>
      <trkpt lat="44.412952" lon="-1.156969">
        <ele>27.2</ele>
        <time>2020-08-12T23:11:50Z</time>
      </trkpt>
      <trkpt lat="44.413162" lon="-1.15666">
        <ele>27.0</ele>
        <time>2020-08-12T23:11:54Z</time>
      </trkpt>
      <trkpt lat="44.41347" lon="-1.155961">
        <ele>28.4</ele>
        <time>2020-08-12T23:12:02Z</time>
      </trkpt>
      <trkpt lat="44.413603" lon="-1.155741">
        <ele>29.8</ele>
        <time>2020-08-12T23:12:05Z</time>
      </trkpt>
      <trkpt lat="44.413633" lon="-1.155605">
        <ele>29.8</ele>
        <time>2020-08-12T23:12:06Z</time>
      </trkpt>
      <trkpt lat="44.413647" lon="-1.155504">
        <ele>29.8</ele>
        <time>2020-08-12T23:12:07Z</time>
      </trkpt>
      <trkpt lat="44.413685" lon="-1.155417">
        <ele>29.8</ele>
        <time>2020-08-12T23:12:07Z</time>
      </trkpt>
      <trkpt lat="44.413742" lon="-1.155352">
        <ele>29.8</ele>
        <time>2020-08-12T23:12:08Z</time>
      </trkpt>
      <trkpt lat="44.41381" lon="-1.155317">
        <ele>29.8</ele>
        <time>2020-08-12T23:12:08Z</time>
      </trkpt>
      <trkpt lat="44.413883" lon="-1.155316">
        <ele>29.8</ele>
        <time>2020-08-12T23:12:09Z</time>
      </trkpt>
      <trkpt lat="44.413946" lon="-1.155345">
        <ele>29.8</ele>
        <time>2020-08-12T23:12:09Z</time>
      </trkpt>
      <trkpt lat="44.413999" lon="-1.155399">
        <ele>29.8</ele>
        <time>2020-08-12T23:12:10Z</time>
      </trkpt>
      <trkpt lat="44.414059" lon="-1.155549">
        <ele>29.8</ele>
        <time>2020-08-12T23:12:11Z</time>
      </trkpt>
      <trkpt lat="44.414053" lon="-1.155709">
        <ele>29.8</ele>
        <time>2020-08-12T23:12:11Z</time>
      </trkpt>
      <trkpt lat="44.414028" lon="-1.155781">
        <ele>29.8</ele>
        <time>2020-08-12T23:12:12Z</time>
      </trkpt>
      <trkpt lat="44.414025" lon="-1.155915">
        <ele>28.4</ele>
        <time>2020-08-12T23:12:13Z</time>
      </trkpt>
      <trkpt lat="44.414053" lon="-1.156046">
        <ele>28.4</ele>
        <time>2020-08-12T23:12:13Z</time>
      </trkpt>
      <trkpt lat="44.414095" lon="-1.156147">
        <ele>28.4</ele>
        <time>2020-08-12T23:12:14Z</time>
      </trkpt>
      <trkpt lat="44.414149" lon="-1.156241">
        <ele>28.4</ele>
        <time>2020-08-12T23:12:14Z</time>
      </trkpt>
      <trkpt lat="44.414254" lon="-1.156337">
        <ele>32.2</ele>
        <time>2020-08-12T23:12:15Z</time>
      </trkpt>
      <trkpt lat="44.414347" lon="-1.156393">
        <ele>32.2</ele>
        <time>2020-08-12T23:12:16Z</time>
      </trkpt>
      <trkpt lat="44.414473" lon="-1.156421">
        <ele>32.2</ele>
        <time>2020-08-12T23:12:17Z</time>
      </trkpt>
      <trkpt lat="44.415" lon="-1.156456">
        <ele>32.2</ele>
        <time>2020-08-12T23:12:21Z</time>
      </trkpt>
      <trkpt lat="44.420776" lon="-1.156994">
        <ele>25.2</ele>
        <time>2020-08-12T23:13:03Z</time>
      </trkpt>
      <trkpt lat="44.420974" lon="-1.157075">
        <ele>25.4</ele>
        <time>2020-08-12T23:13:05Z</time>
      </trkpt>
      <trkpt lat="44.421147" lon="-1.1572">
        <ele>25.4</ele>
        <time>2020-08-12T23:13:06Z</time>
      </trkpt>
      <trkpt lat="44.421253" lon="-1.15731">
        <ele>25.4</ele>
        <time>2020-08-12T23:13:07Z</time>
      </trkpt>
      <trkpt lat="44.421876" lon="-1.158021">
        <ele>24.6</ele>
        <time>2020-08-12T23:13:13Z</time>
      </trkpt>
      <trkpt lat="44.422102" lon="-1.158256">
        <ele>24.6</ele>
        <time>2020-08-12T23:13:15Z</time>
      </trkpt>
      <trkpt lat="44.422255" lon="-1.158454">
        <ele>25.0</ele>
        <time>2020-08-12T23:13:17Z</time>
      </trkpt>
      <trkpt lat="44.422446" lon="-1.158908">
        <ele>25.0</ele>
        <time>2020-08-12T23:13:19Z</time>
      </trkpt>
      <trkpt lat="44.422606" lon="-1.159407">
        <ele>26.2</ele>
        <time>2020-08-12T23:13:22Z</time>
      </trkpt>
      <trkpt lat="44.422748" lon="-1.159681">
        <ele>26.2</ele>
        <time>2020-08-12T23:13:24Z</time>
      </trkpt>
      <trkpt lat="44.422886" lon="-1.159881">
        <ele>26.2</ele>
        <time>2020-08-12T23:13:25Z</time>
      </trkpt>
      <trkpt lat="44.423031" lon="-1.160048">
        <ele>24.4</ele>
        <time>2020-08-12T23:13:27Z</time>
      </trkpt>
      <trkpt lat="44.423241" lon="-1.160246">
        <ele>24.4</ele>
        <time>2020-08-12T23:13:29Z</time>
      </trkpt>
      <trkpt lat="44.4248" lon="-1.161669">
        <ele>31.0</ele>
        <time>2020-08-12T23:13:42Z</time>
      </trkpt>
      <trkpt lat="44.424898" lon="-1.16178">
        <ele>31.0</ele>
        <time>2020-08-12T23:13:43Z</time>
      </trkpt>
      <trkpt lat="44.425017" lon="-1.161959">
        <ele>29.6</ele>
        <time>2020-08-12T23:13:44Z</time>
      </trkpt>
      <trkpt lat="44.42514" lon="-1.162241">
        <ele>29.6</ele>
        <time>2020-08-12T23:13:46Z</time>
      </trkpt>
      <trkpt lat="44.425204" lon="-1.162519">
        <ele>29.8</ele>
        <time>2020-08-12T23:13:48Z</time>
      </trkpt>
      <trkpt lat="44.427958" lon="-1.176186">
        <ele>20.2</ele>
        <time>2020-08-12T23:15:02Z</time>
      </trkpt>
      <trkpt lat="44.428077" lon="-1.176888">
        <ele>20.2</ele>
        <time>2020-08-12T23:15:06Z</time>
      </trkpt>
      <trkpt lat="44.428131" lon="-1.177414">
        <ele>20.2</ele>
        <time>2020-08-12T23:15:08Z</time>
      </trkpt>
      <trkpt lat="44.428159" lon="-1.177977">
        <ele>21.0</ele>
        <time>2020-08-12T23:15:11Z</time>
      </trkpt>
      <trkpt lat="44.428149" lon="-1.179215">
        <ele>22.6</ele>
        <time>2020-08-12T23:15:18Z</time>
      </trkpt>
      <trkpt lat="44.42817" lon="-1.179497">
        <ele>22.6</ele>
        <time>2020-08-12T23:15:19Z</time>
      </trkpt>
      <trkpt lat="44.42824" lon="-1.179735">
        <ele>22.6</ele>
        <time>2020-08-12T23:15:21Z</time>
      </trkpt>
      <trkpt lat="44.428337" lon="-1.179913">
        <ele>24.2</ele>
        <time>2020-08-12T23:15:22Z</time>
      </trkpt>
      <trkpt lat="44.428463" lon="-1.180051">
        <ele>25.0</ele>
        <time>2020-08-12T23:15:23Z</time>
      </trkpt>
      <trkpt lat="44.428607" lon="-1.180145">
        <ele>25.0</ele>
        <time>2020-08-12T23:15:24Z</time>
      </trkpt>
      <trkpt lat="44.428672" lon="-1.180166">
        <ele>25.0</ele>
        <time>2020-08-12T23:15:25Z</time>
      </trkpt>
      <trkpt lat="44.428822" lon="-1.180186">
        <ele>25.0</ele>
        <time>2020-08-12T23:15:26Z</time>
      </trkpt>
      <trkpt lat="44.428971" lon="-1.180161">
        <ele>25.0</ele>
        <time>2020-08-12T23:15:27Z</time>
      </trkpt>
      <trkpt lat="44.429172" lon="-1.180036">
        <ele>30.2</ele>
        <time>2020-08-12T23:15:28Z</time>
      </trkpt>
      <trkpt lat="44.42934" lon="-1.17981">
        <ele>28.8</ele>
        <time>2020-08-12T23:15:30Z</time>
      </trkpt>
      <trkpt lat="44.429428" lon="-1.179581">
        <ele>28.8</ele>
        <time>2020-08-12T23:15:31Z</time>
      </trkpt>
      <trkpt lat="44.429464" lon="-1.179279">
        <ele>28.8</ele>
        <time>2020-08-12T23:15:33Z</time>
      </trkpt>
      <trkpt lat="44.429432" lon="-1.177874">
        <ele>24.6</ele>
        <time>2020-08-12T23:15:40Z</time>
      </trkpt>
      <trkpt lat="44.429443" lon="-1.177672">
        <ele>24.6</ele>
        <time>2020-08-12T23:15:41Z</time>
      </trkpt>
      <trkpt lat="44.429469" lon="-1.177531">
        <ele>24.6</ele>
        <time>2020-08-12T23:15:42Z</time>
      </trkpt>
      <trkpt lat="44.429562" lon="-1.177287">
        <ele>22.8</ele>
        <time>2020-08-12T23:15:44Z</time>
      </trkpt>
      <trkpt lat="44.429622" lon="-1.177185">
        <ele>22.8</ele>
        <time>2020-08-12T23:15:44Z</time>
      </trkpt>
      <trkpt lat="44.429719" lon="-1.177078">
        <ele>22.8</ele>
        <time>2020-08-12T23:15:45Z</time>
      </trkpt>
      <trkpt lat="44.429795" lon="-1.177023">
        <ele>22.8</ele>
        <time>2020-08-12T23:15:46Z</time>
      </trkpt>
      <trkpt lat="44.429934" lon="-1.176969">
        <ele>22.8</ele>
        <time>2020-08-12T23:15:47Z</time>
      </trkpt>
      <trkpt lat="44.430039" lon="-1.176955">
        <ele>26.0</ele>
        <time>2020-08-12T23:15:48Z</time>
      </trkpt>
      <trkpt lat="44.430168" lon="-1.176967">
        <ele>26.0</ele>
        <time>2020-08-12T23:15:49Z</time>
      </trkpt>
      <trkpt lat="44.430277" lon="-1.177007">
        <ele>26.0</ele>
        <time>2020-08-12T23:15:49Z</time>
      </trkpt>
      <trkpt lat="44.430372" lon="-1.177076">
        <ele>26.0</ele>
        <time>2020-08-12T23:15:50Z</time>
      </trkpt>
      <trkpt lat="44.430459" lon="-1.177176">
        <ele>26.0</ele>
        <time>2020-08-12T23:15:51Z</time>
      </trkpt>
      <trkpt lat="44.430536" lon="-1.177306">
        <ele>26.0</ele>
        <time>2020-08-12T23:15:52Z</time>
      </trkpt>
      <trkpt lat="44.430607" lon="-1.177494">
        <ele>26.0</ele>
        <time>2020-08-12T23:15:53Z</time>
      </trkpt>
      <trkpt lat="44.43065" lon="-1.177721">
        <ele>29.0</ele>
        <time>2020-08-12T23:15:54Z</time>
      </trkpt>
      <trkpt lat="44.430813" lon="-1.179122">
        <ele>32.2</ele>
        <time>2020-08-12T23:16:02Z</time>
      </trkpt>
      <trkpt lat="44.430845" lon="-1.179348">
        <ele>34.8</ele>
        <time>2020-08-12T23:16:03Z</time>
      </trkpt>
      <trkpt lat="44.430919" lon="-1.179688">
        <ele>34.8</ele>
        <time>2020-08-12T23:16:05Z</time>
      </trkpt>
      <trkpt lat="44.430975" lon="-1.17982">
        <ele>34.8</ele>
        <time>2020-08-12T23:16:06Z</time>
      </trkpt>
      <trkpt lat="44.43122" lon="-1.180181">
        <ele>37.6</ele>
        <time>2020-08-12T23:16:08Z</time>
      </trkpt>
      <trkpt lat="44.431296" lon="-1.180357">
        <ele>37.6</ele>
        <time>2020-08-12T23:16:09Z</time>
      </trkpt>
      <trkpt lat="44.431373" lon="-1.180661">
        <ele>37.6</ele>
        <time>2020-08-12T23:16:11Z</time>
      </trkpt>
      <trkpt lat="44.431492" lon="-1.181348">
        <ele>37.6</ele>
        <time>2020-08-12T23:16:15Z</time>
      </trkpt>
      <trkpt lat="44.431615" lon="-1.181918">
        <ele>36.6</ele>
        <time>2020-08-12T23:16:18Z</time>
      </trkpt>
      <trkpt lat="44.431802" lon="-1.182696">
        <ele>31.0</ele>
        <time>2020-08-12T23:16:22Z</time>
      </trkpt>
      <trkpt lat="44.431967" lon="-1.183356">
        <ele>29.0</ele>
        <time>2020-08-12T23:16:26Z</time>
      </trkpt>
      <trkpt lat="44.43239" lon="-1.184819">
        <ele>29.6</ele>
        <time>2020-08-12T23:16:34Z</time>
      </trkpt>
      <trkpt lat="44.432455" lon="-1.184983">
        <ele>29.6</ele>
        <time>2020-08-12T23:16:35Z</time>
      </trkpt>
      <trkpt lat="44.432629" lon="-1.18532">
        <ele>31.2</ele>
        <time>2020-08-12T23:16:37Z</time>
      </trkpt>
      <trkpt lat="44.433483" lon="-1.18676">
        <ele>33.2</ele>
        <time>2020-08-12T23:16:47Z</time>
      </trkpt>
      <trkpt lat="44.433648" lon="-1.187009">
        <ele>33.2</ele>
        <time>2020-08-12T23:16:49Z</time>
      </trkpt>
      <trkpt lat="44.433763" lon="-1.187144">
        <ele>33.2</ele>
        <time>2020-08-12T23:16:50Z</time>
      </trkpt>
      <trkpt lat="44.433879" lon="-1.187254">
        <ele>33.2</ele>
        <time>2020-08-12T23:16:51Z</time>
      </trkpt>
      <trkpt lat="44.434083" lon="-1.187393">
        <ele>33.2</ele>
        <time>2020-08-12T23:16:52Z</time>
      </trkpt>
      <trkpt lat="44.435148" lon="-1.188044">
        <ele>29.2</ele>
        <time>2020-08-12T23:17:01Z</time>
      </trkpt>
      <trkpt lat="44.435466" lon="-1.18826">
        <ele>29.2</ele>
        <time>2020-08-12T23:17:03Z</time>
      </trkpt>
      <trkpt lat="44.437146" lon="-1.189539">
        <ele>32.0</ele>
        <time>2020-08-12T23:17:17Z</time>
      </trkpt>
      <trkpt lat="44.437601" lon="-1.189935">
        <ele>29.4</ele>
        <time>2020-08-12T23:17:21Z</time>
      </trkpt>
      <trkpt lat="44.437903" lon="-1.190278">
        <ele>33.2</ele>
        <time>2020-08-12T23:17:24Z</time>
      </trkpt>
      <trkpt lat="44.438131" lon="-1.190582">
        <ele>33.2</ele>
        <time>2020-08-12T23:17:26Z</time>
      </trkpt>
      <trkpt lat="44.438815" lon="-1.191675">
        <ele>35.8</ele>
        <time>2020-08-12T23:17:34Z</time>
      </trkpt>
      <trkpt lat="44.439001" lon="-1.192051">
        <ele>35.8</ele>
        <time>2020-08-12T23:17:36Z</time>
      </trkpt>
      <trkpt lat="44.439379" lon="-1.192906">
        <ele>29.8</ele>
        <time>2020-08-12T23:17:42Z</time>
      </trkpt>
      <trkpt lat="44.439477" lon="-1.193022">
        <ele>29.8</ele>
        <time>2020-08-12T23:17:43Z</time>
      </trkpt>
      <trkpt lat="44.439534" lon="-1.193061">
        <ele>29.8</ele>
        <time>2020-08-12T23:17:43Z</time>
      </trkpt>
      <trkpt lat="44.439657" lon="-1.193104">
        <ele>29.8</ele>
        <time>2020-08-12T23:17:44Z</time>
      </trkpt>
      <trkpt lat="44.439787" lon="-1.193105">
        <ele>29.8</ele>
        <time>2020-08-12T23:17:45Z</time>
      </trkpt>
      <trkpt lat="44.440128" lon="-1.193024">
        <ele>26.6</ele>
        <time>2020-08-12T23:17:48Z</time>
      </trkpt>
      <trkpt lat="44.440384" lon="-1.192831">
        <ele>26.6</ele>
        <time>2020-08-12T23:17:50Z</time>
      </trkpt>
      <trkpt lat="44.44044" lon="-1.192769">
        <ele>26.6</ele>
        <time>2020-08-12T23:17:50Z</time>
      </trkpt>
      <trkpt lat="44.440598" lon="-1.192536">
        <ele>26.6</ele>
        <time>2020-08-12T23:17:52Z</time>
      </trkpt>
      <trkpt lat="44.440669" lon="-1.192368">
        <ele>25.0</ele>
        <time>2020-08-12T23:17:53Z</time>
      </trkpt>
      <trkpt lat="44.440936" lon="-1.191527">
        <ele>24.4</ele>
        <time>2020-08-12T23:17:58Z</time>
      </trkpt>
      <trkpt lat="44.441065" lon="-1.191311">
        <ele>24.4</ele>
        <time>2020-08-12T23:17:59Z</time>
      </trkpt>
      <trkpt lat="44.441171" lon="-1.191229">
        <ele>24.4</ele>
        <time>2020-08-12T23:18:00Z</time>
      </trkpt>
      <trkpt lat="44.441307" lon="-1.191193">
        <ele>24.4</ele>
        <time>2020-08-12T23:18:01Z</time>
      </trkpt>
      <trkpt lat="44.441495" lon="-1.191222">
        <ele>24.4</ele>
        <time>2020-08-12T23:18:02Z</time>
      </trkpt>
      <trkpt lat="44.442517" lon="-1.191698">
        <ele>28.8</ele>
        <time>2020-08-12T23:18:10Z</time>
      </trkpt>
      <trkpt lat="44.442734" lon="-1.191834">
        <ele>28.8</ele>
        <time>2020-08-12T23:18:12Z</time>
      </trkpt>
      <trkpt lat="44.443078" lon="-1.192101">
        <ele>28.8</ele>
        <time>2020-08-12T23:18:15Z</time>
      </trkpt>
      <trkpt lat="44.443213" lon="-1.192247">
        <ele>28.8</ele>
        <time>2020-08-12T23:18:16Z</time>
      </trkpt>
      <trkpt lat="44.443879" lon="-1.19314">
        <ele>32.6</ele>
        <time>2020-08-12T23:18:23Z</time>
      </trkpt>
      <trkpt lat="44.444592" lon="-1.194158">
        <ele>33.2</ele>
        <time>2020-08-12T23:18:30Z</time>
      </trkpt>
      <trkpt lat="44.444704" lon="-1.194293">
        <ele>34.2</ele>
        <time>2020-08-12T23:18:31Z</time>
      </trkpt>
      <trkpt lat="44.445147" lon="-1.194636">
        <ele>30.0</ele>
        <time>2020-08-12T23:18:35Z</time>
      </trkpt>
      <trkpt lat="44.445507" lon="-1.194848">
        <ele>30.0</ele>
        <time>2020-08-12T23:18:38Z</time>
      </trkpt>
      <trkpt lat="44.446126" lon="-1.195148">
        <ele>30.0</ele>
        <time>2020-08-12T23:18:43Z</time>
      </trkpt>
      <trkpt lat="44.446359" lon="-1.195334">
        <ele>30.0</ele>
        <time>2020-08-12T23:18:45Z</time>
      </trkpt>
      <trkpt lat="44.447421" lon="-1.196582">
        <ele>32.8</ele>
        <time>2020-08-12T23:18:55Z</time>
      </trkpt>
      <trkpt lat="44.447841" lon="-1.196941">
        <ele>33.8</ele>
        <time>2020-08-12T23:18:58Z</time>
      </trkpt>
      <trkpt lat="44.448336" lon="-1.197226">
        <ele>32.8</ele>
        <time>2020-08-12T23:19:02Z</time>
      </trkpt>
      <trkpt lat="44.450197" lon="-1.197831">
        <ele>32.6</ele>
        <time>2020-08-12T23:19:16Z</time>
      </trkpt>
      <trkpt lat="44.450544" lon="-1.19799">
        <ele>32.6</ele>
        <time>2020-08-12T23:19:19Z</time>
      </trkpt>
      <trkpt lat="44.450681" lon="-1.198087">
        <ele>32.6</ele>
        <time>2020-08-12T23:19:20Z</time>
      </trkpt>
      <trkpt lat="44.450956" lon="-1.198326">
        <ele>30.0</ele>
        <time>2020-08-12T23:19:22Z</time>
      </trkpt>
      <trkpt lat="44.451843" lon="-1.199188">
        <ele>31.8</ele>
        <time>2020-08-12T23:19:30Z</time>
      </trkpt>
      <trkpt lat="44.45207" lon="-1.199343">
        <ele>31.8</ele>
        <time>2020-08-12T23:19:32Z</time>
      </trkpt>
      <trkpt lat="44.453421" lon="-1.20001">
        <ele>33.6</ele>
        <time>2020-08-12T23:19:43Z</time>
      </trkpt>
      <trkpt lat="44.455596" lon="-1.200861">
        <ele>36.6</ele>
        <time>2020-08-12T23:19:59Z</time>
      </trkpt>
      <trkpt lat="44.456182" lon="-1.201129">
        <ele>33.8</ele>
        <time>2020-08-12T23:20:04Z</time>
      </trkpt>
      <trkpt lat="44.456326" lon="-1.201258">
        <ele>33.8</ele>
        <time>2020-08-12T23:20:05Z</time>
      </trkpt>
      <trkpt lat="44.456455" lon="-1.201442">
        <ele>33.8</ele>
        <time>2020-08-12T23:20:06Z</time>
      </trkpt>
      <trkpt lat="44.456812" lon="-1.202167">
        <ele>36.0</ele>
        <time>2020-08-12T23:20:11Z</time>
      </trkpt>
      <trkpt lat="44.456938" lon="-1.202475">
        <ele>36.0</ele>
        <time>2020-08-12T23:20:13Z</time>
      </trkpt>
      <trkpt lat="44.457" lon="-1.2027">
        <ele>39.6</ele>
        <time>2020-08-12T23:20:14Z</time>
      </trkpt>
      <trkpt lat="44.457049" lon="-1.202991">
        <ele>39.6</ele>
        <time>2020-08-12T23:20:16Z</time>
      </trkpt>
      <trkpt lat="44.457098" lon="-1.203704">
        <ele>40.8</ele>
        <time>2020-08-12T23:20:19Z</time>
      </trkpt>
      <trkpt lat="44.457142" lon="-1.204125">
        <ele>40.8</ele>
        <time>2020-08-12T23:20:21Z</time>
      </trkpt>
      <trkpt lat="44.457166" lon="-1.204265">
        <ele>42.4</ele>
        <time>2020-08-12T23:20:22Z</time>
      </trkpt>
      <trkpt lat="44.457277" lon="-1.204678">
        <ele>42.4</ele>
        <time>2020-08-12T23:20:25Z</time>
      </trkpt>
      <trkpt lat="44.457691" lon="-1.205762">
        <ele>51.6</ele>
        <time>2020-08-12T23:20:31Z</time>
      </trkpt>
      <trkpt lat="44.458404" lon="-1.207398">
        <ele>54.8</ele>
        <time>2020-08-12T23:20:41Z</time>
      </trkpt>
      <trkpt lat="44.458483" lon="-1.207552">
        <ele>52.6</ele>
        <time>2020-08-12T23:20:42Z</time>
      </trkpt>
      <trkpt lat="44.458729" lon="-1.208289">
        <ele>52.6</ele>
        <time>2020-08-12T23:20:46Z</time>
      </trkpt>
      <trkpt lat="44.458782" lon="-1.208625">
        <ele>48.8</ele>
        <time>2020-08-12T23:20:48Z</time>
      </trkpt>
      <trkpt lat="44.458835" lon="-1.210517">
        <ele>43.8</ele>
        <time>2020-08-12T23:20:58Z</time>
      </trkpt>
      <trkpt lat="44.459052" lon="-1.214025">
        <ele>27.4</ele>
        <time>2020-08-12T23:21:16Z</time>
      </trkpt>
      <trkpt lat="44.459086" lon="-1.214675">
        <ele>35.4</ele>
        <time>2020-08-12T23:21:20Z</time>
      </trkpt>
      <trkpt lat="44.459086" lon="-1.214957">
        <ele>35.4</ele>
        <time>2020-08-12T23:21:21Z</time>
      </trkpt>
      <trkpt lat="44.459067" lon="-1.215217">
        <ele>50.0</ele>
        <time>2020-08-12T23:21:23Z</time>
      </trkpt>
      <trkpt lat="44.458961" lon="-1.215759">
        <ele>50.0</ele>
        <time>2020-08-12T23:21:26Z</time>
      </trkpt>
      <trkpt lat="44.458886" lon="-1.216007">
        <ele>58.2</ele>
        <time>2020-08-12T23:21:27Z</time>
      </trkpt>
      <trkpt lat="44.45844" lon="-1.217254">
        <ele>59.2</ele>
        <time>2020-08-12T23:21:35Z</time>
      </trkpt>
      <trkpt lat="44.45829" lon="-1.217783">
        <ele>54.6</ele>
        <time>2020-08-12T23:21:38Z</time>
      </trkpt>
      <trkpt lat="44.458192" lon="-1.218197">
        <ele>54.6</ele>
        <time>2020-08-12T23:21:40Z</time>
      </trkpt>
      <trkpt lat="44.458158" lon="-1.218417">
        <ele>52.2</ele>
        <time>2020-08-12T23:21:41Z</time>
      </trkpt>
      <trkpt lat="44.458088" lon="-1.219308">
        <ele>53.2</ele>
        <time>2020-08-12T23:21:46Z</time>
      </trkpt>
      <trkpt lat="44.458011" lon="-1.219723">
        <ele>53.2</ele>
        <time>2020-08-12T23:21:48Z</time>
      </trkpt>
      <trkpt lat="44.457916" lon="-1.219989">
        <ele>53.2</ele>
        <time>2020-08-12T23:21:49Z</time>
      </trkpt>
      <trkpt lat="44.457533" lon="-1.220741">
        <ele>58.6</ele>
        <time>2020-08-12T23:21:54Z</time>
      </trkpt>
      <trkpt lat="44.457376" lon="-1.221109">
        <ele>60.8</ele>
        <time>2020-08-12T23:21:57Z</time>
      </trkpt>
      <trkpt lat="44.45729" lon="-1.221398">
        <ele>60.8</ele>
        <time>2020-08-12T23:21:58Z</time>
      </trkpt>
      <trkpt lat="44.457251" lon="-1.221721">
        <ele>60.8</ele>
        <time>2020-08-12T23:22:00Z</time>
      </trkpt>
      <trkpt lat="44.457282" lon="-1.221973">
        <ele>60.8</ele>
        <time>2020-08-12T23:22:01Z</time>
      </trkpt>
      <trkpt lat="44.457389" lon="-1.222253">
        <ele>60.8</ele>
        <time>2020-08-12T23:22:03Z</time>
      </trkpt>
      <trkpt lat="44.458543" lon="-1.224498">
        <ele>50.8</ele>
        <time>2020-08-12T23:22:17Z</time>
      </trkpt>
      <trkpt lat="44.458587" lon="-1.224648">
        <ele>50.8</ele>
        <time>2020-08-12T23:22:18Z</time>
      </trkpt>
      <trkpt lat="44.458615" lon="-1.224872">
        <ele>50.8</ele>
        <time>2020-08-12T23:22:19Z</time>
      </trkpt>
      <trkpt lat="44.458618" lon="-1.225051">
        <ele>51.4</ele>
        <time>2020-08-12T23:22:20Z</time>
      </trkpt>
      <trkpt lat="44.458595" lon="-1.225325">
        <ele>51.4</ele>
        <time>2020-08-12T23:22:22Z</time>
      </trkpt>
      <trkpt lat="44.458363" lon="-1.226878">
        <ele>45.0</ele>
        <time>2020-08-12T23:22:30Z</time>
      </trkpt>
      <trkpt lat="44.458282" lon="-1.227104">
        <ele>47.0</ele>
        <time>2020-08-12T23:22:31Z</time>
      </trkpt>
      <trkpt lat="44.458135" lon="-1.227306">
        <ele>47.0</ele>
        <time>2020-08-12T23:22:33Z</time>
      </trkpt>
      <trkpt lat="44.457543" lon="-1.227906">
        <ele>42.0</ele>
        <time>2020-08-12T23:22:38Z</time>
      </trkpt>
      <trkpt lat="44.45731" lon="-1.228219">
        <ele>44.0</ele>
        <time>2020-08-12T23:22:41Z</time>
      </trkpt>
      <trkpt lat="44.457198" lon="-1.228413">
        <ele>38.8</ele>
        <time>2020-08-12T23:22:42Z</time>
      </trkpt>
      <trkpt lat="44.456345" lon="-1.230145">
        <ele>30.2</ele>
        <time>2020-08-12T23:22:53Z</time>
      </trkpt>
      <trkpt lat="44.456159" lon="-1.230465">
        <ele>30.2</ele>
        <time>2020-08-12T23:22:55Z</time>
      </trkpt>
      <trkpt lat="44.456115" lon="-1.230614">
        <ele>30.2</ele>
        <time>2020-08-12T23:22:56Z</time>
      </trkpt>
      <trkpt lat="44.456114" lon="-1.230673">
        <ele>30.2</ele>
        <time>2020-08-12T23:22:58Z</time>
      </trkpt>
      <trkpt lat="44.456145" lon="-1.230759">
        <ele>30.2</ele>
        <time>2020-08-12T23:22:59Z</time>
      </trkpt>
      <trkpt lat="44.45622" lon="-1.230836">
        <ele>30.8</ele>
        <time>2020-08-12T23:23:00Z</time>
      </trkpt>
      <trkpt lat="44.45622" lon="-1.230836">
        <ele>30.8</ele>
        <time>2020-08-12T23:23:00Z</time>
      </trkpt>
      <trkpt lat="44.45631" lon="-1.230869">
        <ele>31.4</ele>
        <time>2020-08-12T23:23:01Z</time>
      </trkpt>
      <trkpt lat="44.456392" lon="-1.230854">
        <ele>31.4</ele>
        <time>2020-08-12T23:23:01Z</time>
      </trkpt>
      <trkpt lat="44.456809" lon="-1.230863">
        <ele>32.4</ele>
        <time>2020-08-12T23:23:06Z</time>
      </trkpt>
      <trkpt lat="44.464336" lon="-1.230856">
        <ele>20.6</ele>
        <time>2020-08-12T23:23:55Z</time>
      </trkpt>
      <trkpt lat="44.464674" lon="-1.230891">
        <ele>20.6</ele>
        <time>2020-08-12T23:23:58Z</time>
      </trkpt>
      <trkpt lat="44.465236" lon="-1.231142">
        <ele>20.2</ele>
        <time>2020-08-12T23:24:01Z</time>
      </trkpt>
      <trkpt lat="44.465546" lon="-1.231402">
        <ele>20.2</ele>
        <time>2020-08-12T23:24:04Z</time>
      </trkpt>
      <trkpt lat="44.465768" lon="-1.23164">
        <ele>20.2</ele>
        <time>2020-08-12T23:24:06Z</time>
      </trkpt>
      <trkpt lat="44.46601" lon="-1.23198">
        <ele>21.2</ele>
        <time>2020-08-12T23:24:08Z</time>
      </trkpt>
      <trkpt lat="44.466621" lon="-1.233214">
        <ele>20.8</ele>
        <time>2020-08-12T23:24:15Z</time>
      </trkpt>
      <trkpt lat="44.466819" lon="-1.233529">
        <ele>20.4</ele>
        <time>2020-08-12T23:24:17Z</time>
      </trkpt>
      <trkpt lat="44.466986" lon="-1.233751">
        <ele>20.4</ele>
        <time>2020-08-12T23:24:19Z</time>
      </trkpt>
      <trkpt lat="44.467137" lon="-1.233912">
        <ele>20.4</ele>
        <time>2020-08-12T23:24:20Z</time>
      </trkpt>
      <trkpt lat="44.467297" lon="-1.234046">
        <ele>20.4</ele>
        <time>2020-08-12T23:24:21Z</time>
      </trkpt>
      <trkpt lat="44.467557" lon="-1.234224">
        <ele>22.0</ele>
        <time>2020-08-12T23:24:23Z</time>
      </trkpt>
      <trkpt lat="44.467767" lon="-1.234326">
        <ele>22.0</ele>
        <time>2020-08-12T23:24:24Z</time>
      </trkpt>
      <trkpt lat="44.468203" lon="-1.234449">
        <ele>22.0</ele>
        <time>2020-08-12T23:24:27Z</time>
      </trkpt>
      <trkpt lat="44.472234" lon="-1.235459">
        <ele>19.4</ele>
        <time>2020-08-12T23:24:54Z</time>
      </trkpt>
      <trkpt lat="44.473032" lon="-1.235587">
        <ele>20.6</ele>
        <time>2020-08-12T23:25:00Z</time>
      </trkpt>
      <trkpt lat="44.473213" lon="-1.235591">
        <ele>20.6</ele>
        <time>2020-08-12T23:25:01Z</time>
      </trkpt>
      <trkpt lat="44.473602" lon="-1.235547">
        <ele>21.0</ele>
        <time>2020-08-12T23:25:03Z</time>
      </trkpt>
      <trkpt lat="44.47569" lon="-1.23514">
        <ele>21.4</ele>
        <time>2020-08-12T23:25:17Z</time>
      </trkpt>
      <trkpt lat="44.476056" lon="-1.235129">
        <ele>21.8</ele>
        <time>2020-08-12T23:25:20Z</time>
      </trkpt>
      <trkpt lat="44.476467" lon="-1.235185">
        <ele>21.8</ele>
        <time>2020-08-12T23:25:22Z</time>
      </trkpt>
      <trkpt lat="44.48545" lon="-1.236714">
        <ele>15.2</ele>
        <time>2020-08-12T23:26:22Z</time>
      </trkpt>
      <trkpt lat="44.485623" lon="-1.236713">
        <ele>15.2</ele>
        <time>2020-08-12T23:26:23Z</time>
      </trkpt>
      <trkpt lat="44.492759" lon="-1.235974">
        <ele>18.0</ele>
        <time>2020-08-12T23:27:11Z</time>
      </trkpt>
      <trkpt lat="44.495575" lon="-1.235854">
        <ele>18.0</ele>
        <time>2020-08-12T23:27:29Z</time>
      </trkpt>
      <trkpt lat="44.500098" lon="-1.235391">
        <ele>17.4</ele>
        <time>2020-08-12T23:27:59Z</time>
      </trkpt>
      <trkpt lat="44.507432" lon="-1.234664">
        <ele>13.0</ele>
        <time>2020-08-12T23:28:48Z</time>
      </trkpt>
      <trkpt lat="44.50783" lon="-1.234638">
        <ele>12.4</ele>
        <time>2020-08-12T23:28:50Z</time>
      </trkpt>
      <trkpt lat="44.50828" lon="-1.23465">
        <ele>12.4</ele>
        <time>2020-08-12T23:28:53Z</time>
      </trkpt>
      <trkpt lat="44.508615" lon="-1.234703">
        <ele>12.6</ele>
        <time>2020-08-12T23:28:55Z</time>
      </trkpt>
      <trkpt lat="44.514011" lon="-1.235926">
        <ele>24.6</ele>
        <time>2020-08-12T23:29:31Z</time>
      </trkpt>
      <trkpt lat="44.514336" lon="-1.235974">
        <ele>21.4</ele>
        <time>2020-08-12T23:29:34Z</time>
      </trkpt>
      <trkpt lat="44.518004" lon="-1.235776">
        <ele>15.0</ele>
        <time>2020-08-12T23:29:58Z</time>
      </trkpt>
      <trkpt lat="44.520057" lon="-1.235747">
        <ele>22.8</ele>
        <time>2020-08-12T23:30:11Z</time>
      </trkpt>
      <trkpt lat="44.522664" lon="-1.235527">
        <ele>20.8</ele>
        <time>2020-08-12T23:30:29Z</time>
      </trkpt>
      <trkpt lat="44.523102" lon="-1.23551">
        <ele>20.8</ele>
        <time>2020-08-12T23:30:32Z</time>
      </trkpt>
      <trkpt lat="44.523363" lon="-1.235541">
        <ele>20.6</ele>
        <time>2020-08-12T23:30:33Z</time>
      </trkpt>
      <trkpt lat="44.528716" lon="-1.237281">
        <ele>18.8</ele>
        <time>2020-08-12T23:31:10Z</time>
      </trkpt>
      <trkpt lat="44.529959" lon="-1.237702">
        <ele>21.0</ele>
        <time>2020-08-12T23:31:18Z</time>
      </trkpt>
      <trkpt lat="44.530422" lon="-1.237801">
        <ele>22.6</ele>
        <time>2020-08-12T23:31:21Z</time>
      </trkpt>
      <trkpt lat="44.530758" lon="-1.237838">
        <ele>22.6</ele>
        <time>2020-08-12T23:31:23Z</time>
      </trkpt>
      <trkpt lat="44.530967" lon="-1.237801">
        <ele>23.6</ele>
        <time>2020-08-12T23:31:25Z</time>
      </trkpt>
      <trkpt lat="44.53159" lon="-1.237785">
        <ele>23.6</ele>
        <time>2020-08-12T23:31:29Z</time>
      </trkpt>
      <trkpt lat="44.536283" lon="-1.237338">
        <ele>19.4</ele>
        <time>2020-08-12T23:32:00Z</time>
      </trkpt>
      <trkpt lat="44.536605" lon="-1.237322">
        <ele>19.4</ele>
        <time>2020-08-12T23:32:02Z</time>
      </trkpt>
      <trkpt lat="44.536914" lon="-1.237353">
        <ele>19.4</ele>
        <time>2020-08-12T23:32:04Z</time>
      </trkpt>
      <trkpt lat="44.537152" lon="-1.237419">
        <ele>19.4</ele>
        <time>2020-08-12T23:32:06Z</time>
      </trkpt>
      <trkpt lat="44.541489" lon="-1.239041">
        <ele>20.0</ele>
        <time>2020-08-12T23:32:35Z</time>
      </trkpt>
      <trkpt lat="44.5435" lon="-1.239838">
        <ele>19.8</ele>
        <time>2020-08-12T23:32:49Z</time>
      </trkpt>
      <trkpt lat="44.545558" lon="-1.240602">
        <ele>18.8</ele>
        <time>2020-08-12T23:33:03Z</time>
      </trkpt>
      <trkpt lat="44.545745" lon="-1.240651">
        <ele>18.8</ele>
        <time>2020-08-12T23:33:04Z</time>
      </trkpt>
      <trkpt lat="44.545988" lon="-1.240678">
        <ele>18.4</ele>
        <time>2020-08-12T23:33:06Z</time>
      </trkpt>
      <trkpt lat="44.546212" lon="-1.240676">
        <ele>18.4</ele>
        <time>2020-08-12T23:33:07Z</time>
      </trkpt>
      <trkpt lat="44.546463" lon="-1.240639">
        <ele>18.4</ele>
        <time>2020-08-12T23:33:09Z</time>
      </trkpt>
      <trkpt lat="44.546631" lon="-1.24059">
        <ele>18.4</ele>
        <time>2020-08-12T23:33:10Z</time>
      </trkpt>
      <trkpt lat="44.547033" lon="-1.240413">
        <ele>19.0</ele>
        <time>2020-08-12T23:33:13Z</time>
      </trkpt>
      <trkpt lat="44.554306" lon="-1.236572">
        <ele>32.8</ele>
        <time>2020-08-12T23:34:04Z</time>
      </trkpt>
      <trkpt lat="44.555366" lon="-1.23599">
        <ele>32.8</ele>
        <time>2020-08-12T23:34:12Z</time>
      </trkpt>
      <trkpt lat="44.555776" lon="-1.235779">
        <ele>33.8</ele>
        <time>2020-08-12T23:34:15Z</time>
      </trkpt>
      <trkpt lat="44.556026" lon="-1.235673">
        <ele>33.0</ele>
        <time>2020-08-12T23:34:16Z</time>
      </trkpt>
      <trkpt lat="44.556369" lon="-1.235593">
        <ele>33.0</ele>
        <time>2020-08-12T23:34:19Z</time>
      </trkpt>
      <trkpt lat="44.556775" lon="-1.235585">
        <ele>32.8</ele>
        <time>2020-08-12T23:34:21Z</time>
      </trkpt>
      <trkpt lat="44.557047" lon="-1.235624">
        <ele>32.8</ele>
        <time>2020-08-12T23:34:23Z</time>
      </trkpt>
      <trkpt lat="44.55818" lon="-1.235925">
        <ele>29.2</ele>
        <time>2020-08-12T23:34:31Z</time>
      </trkpt>
      <trkpt lat="44.558547" lon="-1.235972">
        <ele>29.0</ele>
        <time>2020-08-12T23:34:33Z</time>
      </trkpt>
      <trkpt lat="44.558789" lon="-1.235957">
        <ele>29.0</ele>
        <time>2020-08-12T23:34:35Z</time>
      </trkpt>
      <trkpt lat="44.559111" lon="-1.235885">
        <ele>29.0</ele>
        <time>2020-08-12T23:34:37Z</time>
      </trkpt>
      <trkpt lat="44.559111" lon="-1.235885">
        <ele>29.0</ele>
        <time>2020-08-12T23:34:37Z</time>
      </trkpt>
      <trkpt lat="44.55942" lon="-1.235758">
        <ele>33.4</ele>
        <time>2020-08-12T23:34:39Z</time>
      </trkpt>
      <trkpt lat="44.559642" lon="-1.23563">
        <ele>33.4</ele>
        <time>2020-08-12T23:34:41Z</time>
      </trkpt>
      <trkpt lat="44.559815" lon="-1.235499">
        <ele>33.4</ele>
        <time>2020-08-12T23:34:43Z</time>
      </trkpt>
      <trkpt lat="44.561376" lon="-1.234042">
        <ele>26.6</ele>
        <time>2020-08-12T23:34:56Z</time>
      </trkpt>
      <trkpt lat="44.561772" lon="-1.23376">
        <ele>28.2</ele>
        <time>2020-08-12T23:34:59Z</time>
      </trkpt>
      <trkpt lat="44.564177" lon="-1.232502">
        <ele>21.4</ele>
        <time>2020-08-12T23:35:17Z</time>
      </trkpt>
      <trkpt lat="44.564419" lon="-1.232366">
        <ele>22.4</ele>
        <time>2020-08-12T23:35:19Z</time>
      </trkpt>
      <trkpt lat="44.564594" lon="-1.23223">
        <ele>22.4</ele>
        <time>2020-08-12T23:35:20Z</time>
      </trkpt>
      <trkpt lat="44.564871" lon="-1.231923">
        <ele>22.4</ele>
        <time>2020-08-12T23:35:23Z</time>
      </trkpt>
      <trkpt lat="44.565513" lon="-1.230975">
        <ele>19.2</ele>
        <time>2020-08-12T23:35:30Z</time>
      </trkpt>
      <trkpt lat="44.567678" lon="-1.228018">
        <ele>20.8</ele>
        <time>2020-08-12T23:35:51Z</time>
      </trkpt>
      <trkpt lat="44.568221" lon="-1.22738">
        <ele>26.8</ele>
        <time>2020-08-12T23:35:56Z</time>
      </trkpt>
      <trkpt lat="44.568464" lon="-1.227207">
        <ele>24.4</ele>
        <time>2020-08-12T23:35:58Z</time>
      </trkpt>
      <trkpt lat="44.569113" lon="-1.226924">
        <ele>24.4</ele>
        <time>2020-08-12T23:36:03Z</time>
      </trkpt>
      <trkpt lat="44.570171" lon="-1.226508">
        <ele>38.4</ele>
        <time>2020-08-12T23:36:11Z</time>
      </trkpt>
      <trkpt lat="44.570405" lon="-1.226379">
        <ele>38.4</ele>
        <time>2020-08-12T23:36:12Z</time>
      </trkpt>
      <trkpt lat="44.570542" lon="-1.226278">
        <ele>38.4</ele>
        <time>2020-08-12T23:36:13Z</time>
      </trkpt>
      <trkpt lat="44.570949" lon="-1.225831">
        <ele>50.0</ele>
        <time>2020-08-12T23:36:17Z</time>
      </trkpt>
      <trkpt lat="44.571067" lon="-1.225625">
        <ele>50.0</ele>
        <time>2020-08-12T23:36:19Z</time>
      </trkpt>
      <trkpt lat="44.57121" lon="-1.225294">
        <ele>50.0</ele>
        <time>2020-08-12T23:36:21Z</time>
      </trkpt>
      <trkpt lat="44.571382" lon="-1.224618">
        <ele>56.4</ele>
        <time>2020-08-12T23:36:24Z</time>
      </trkpt>
      <trkpt lat="44.572533" lon="-1.219374">
        <ele>46.4</ele>
        <time>2020-08-12T23:36:52Z</time>
      </trkpt>
      <trkpt lat="44.572686" lon="-1.218848">
        <ele>48.0</ele>
        <time>2020-08-12T23:36:55Z</time>
      </trkpt>
      <trkpt lat="44.572833" lon="-1.218535">
        <ele>48.0</ele>
        <time>2020-08-12T23:36:57Z</time>
      </trkpt>
      <trkpt lat="44.573" lon="-1.218288">
        <ele>52.4</ele>
        <time>2020-08-12T23:36:58Z</time>
      </trkpt>
      <trkpt lat="44.573257" lon="-1.218004">
        <ele>52.4</ele>
        <time>2020-08-12T23:37:01Z</time>
      </trkpt>
      <trkpt lat="44.57374" lon="-1.217582">
        <ele>49.4</ele>
        <time>2020-08-12T23:37:05Z</time>
      </trkpt>
      <trkpt lat="44.573939" lon="-1.217353">
        <ele>55.4</ele>
        <time>2020-08-12T23:37:07Z</time>
      </trkpt>
      <trkpt lat="44.574218" lon="-1.216968">
        <ele>54.0</ele>
        <time>2020-08-12T23:37:09Z</time>
      </trkpt>
      <trkpt lat="44.574425" lon="-1.216598">
        <ele>60.6</ele>
        <time>2020-08-12T23:37:12Z</time>
      </trkpt>
      <trkpt lat="44.574835" lon="-1.215786">
        <ele>65.0</ele>
        <time>2020-08-12T23:37:17Z</time>
      </trkpt>
      <trkpt lat="44.575714" lon="-1.214235">
        <ele>67.8</ele>
        <time>2020-08-12T23:37:27Z</time>
      </trkpt>
      <trkpt lat="44.576019" lon="-1.213824">
        <ele>65.6</ele>
        <time>2020-08-12T23:37:30Z</time>
      </trkpt>
      <trkpt lat="44.576225" lon="-1.213604">
        <ele>65.6</ele>
        <time>2020-08-12T23:37:32Z</time>
      </trkpt>
      <trkpt lat="44.576383" lon="-1.21347">
        <ele>65.6</ele>
        <time>2020-08-12T23:37:33Z</time>
      </trkpt>
      <trkpt lat="44.577179" lon="-1.212971">
        <ele>61.4</ele>
        <time>2020-08-12T23:37:39Z</time>
      </trkpt>
      <trkpt lat="44.577386" lon="-1.212889">
        <ele>61.4</ele>
        <time>2020-08-12T23:37:41Z</time>
      </trkpt>
      <trkpt lat="44.578077" lon="-1.212762">
        <ele>62.2</ele>
        <time>2020-08-12T23:37:46Z</time>
      </trkpt>
      <trkpt lat="44.579206" lon="-1.212727">
        <ele>60.0</ele>
        <time>2020-08-12T23:37:54Z</time>
      </trkpt>
      <trkpt lat="44.58034" lon="-1.212534">
        <ele>60.4</ele>
        <time>2020-08-12T23:38:02Z</time>
      </trkpt>
      <trkpt lat="44.581577" lon="-1.211978">
        <ele>58.4</ele>
        <time>2020-08-12T23:38:11Z</time>
      </trkpt>
      <trkpt lat="44.582228" lon="-1.211781">
        <ele>60.4</ele>
        <time>2020-08-12T23:38:16Z</time>
      </trkpt>
      <trkpt lat="44.582442" lon="-1.211682">
        <ele>60.4</ele>
        <time>2020-08-12T23:38:17Z</time>
      </trkpt>
      <trkpt lat="44.582615" lon="-1.211563">
        <ele>56.2</ele>
        <time>2020-08-12T23:38:19Z</time>
      </trkpt>
      <trkpt lat="44.582792" lon="-1.211404">
        <ele>56.2</ele>
        <time>2020-08-12T23:38:20Z</time>
      </trkpt>
      <trkpt lat="44.583912" lon="-1.210094">
        <ele>50.2</ele>
        <time>2020-08-12T23:38:31Z</time>
      </trkpt>
      <trkpt lat="44.584483" lon="-1.209352">
        <ele>44.0</ele>
        <time>2020-08-12T23:38:36Z</time>
      </trkpt>
      <trkpt lat="44.58476" lon="-1.208954">
        <ele>43.2</ele>
        <time>2020-08-12T23:38:39Z</time>
      </trkpt>
      <trkpt lat="44.585058" lon="-1.208443">
        <ele>40.4</ele>
        <time>2020-08-12T23:38:42Z</time>
      </trkpt>
      <trkpt lat="44.585362" lon="-1.207837">
        <ele>39.2</ele>
        <time>2020-08-12T23:38:46Z</time>
      </trkpt>
      <trkpt lat="44.585559" lon="-1.207397">
        <ele>38.6</ele>
        <time>2020-08-12T23:38:49Z</time>
      </trkpt>
      <trkpt lat="44.587493" lon="-1.203513">
        <ele>35.8</ele>
        <time>2020-08-12T23:39:13Z</time>
      </trkpt>
      <trkpt lat="44.587647" lon="-1.203076">
        <ele>40.2</ele>
        <time>2020-08-12T23:39:15Z</time>
      </trkpt>
      <trkpt lat="44.588123" lon="-1.201257">
        <ele>39.4</ele>
        <time>2020-08-12T23:39:25Z</time>
      </trkpt>
      <trkpt lat="44.588349" lon="-1.200571">
        <ele>39.4</ele>
        <time>2020-08-12T23:39:29Z</time>
      </trkpt>
      <trkpt lat="44.588894" lon="-1.199499">
        <ele>40.8</ele>
        <time>2020-08-12T23:39:35Z</time>
      </trkpt>
      <trkpt lat="44.589184" lon="-1.199008">
        <ele>38.8</ele>
        <time>2020-08-12T23:39:38Z</time>
      </trkpt>
      <trkpt lat="44.58941" lon="-1.198715">
        <ele>38.8</ele>
        <time>2020-08-12T23:39:41Z</time>
      </trkpt>
      <trkpt lat="44.591299" lon="-1.196604">
        <ele>33.8</ele>
        <time>2020-08-12T23:39:58Z</time>
      </trkpt>
      <trkpt lat="44.591498" lon="-1.196423">
        <ele>33.8</ele>
        <time>2020-08-12T23:39:59Z</time>
      </trkpt>
      <trkpt lat="44.591679" lon="-1.196335">
        <ele>32.8</ele>
        <time>2020-08-12T23:40:01Z</time>
      </trkpt>
      <trkpt lat="44.59215" lon="-1.196172">
        <ele>32.8</ele>
        <time>2020-08-12T23:40:04Z</time>
      </trkpt>
      <trkpt lat="44.59281" lon="-1.196026">
        <ele>34.8</ele>
        <time>2020-08-12T23:40:09Z</time>
      </trkpt>
      <trkpt lat="44.593731" lon="-1.195862">
        <ele>36.6</ele>
        <time>2020-08-12T23:40:16Z</time>
      </trkpt>
      <trkpt lat="44.594372" lon="-1.19579">
        <ele>36.2</ele>
        <time>2020-08-12T23:40:20Z</time>
      </trkpt>
      <trkpt lat="44.594938" lon="-1.195794">
        <ele>36.2</ele>
        <time>2020-08-12T23:40:24Z</time>
      </trkpt>
      <trkpt lat="44.595559" lon="-1.19586">
        <ele>43.6</ele>
        <time>2020-08-12T23:40:29Z</time>
      </trkpt>
      <trkpt lat="44.596226" lon="-1.19598">
        <ele>45.8</ele>
        <time>2020-08-12T23:40:33Z</time>
      </trkpt>
      <trkpt lat="44.596808" lon="-1.196141">
        <ele>42.8</ele>
        <time>2020-08-12T23:40:38Z</time>
      </trkpt>
      <trkpt lat="44.597763" lon="-1.196526">
        <ele>39.8</ele>
        <time>2020-08-12T23:40:45Z</time>
      </trkpt>
      <trkpt lat="44.59802" lon="-1.196463">
        <ele>39.8</ele>
        <time>2020-08-12T23:40:47Z</time>
      </trkpt>
      <trkpt lat="44.598069" lon="-1.19635">
        <ele>39.8</ele>
        <time>2020-08-12T23:40:48Z</time>
      </trkpt>
      <trkpt lat="44.598139" lon="-1.196261">
        <ele>39.8</ele>
        <time>2020-08-12T23:40:48Z</time>
      </trkpt>
      <trkpt lat="44.598225" lon="-1.196205">
        <ele>39.8</ele>
        <time>2020-08-12T23:40:49Z</time>
      </trkpt>
      <trkpt lat="44.598318" lon="-1.196186">
        <ele>39.8</ele>
        <time>2020-08-12T23:40:50Z</time>
      </trkpt>
      <trkpt lat="44.598499" lon="-1.195723">
        <ele>36.4</ele>
        <time>2020-08-12T23:40:52Z</time>
      </trkpt>
      <trkpt lat="44.598579" lon="-1.194972">
        <ele>37.0</ele>
        <time>2020-08-12T23:40:56Z</time>
      </trkpt>
      <trkpt lat="44.598599" lon="-1.194343">
        <ele>37.0</ele>
        <time>2020-08-12T23:40:59Z</time>
      </trkpt>
      <trkpt lat="44.598587" lon="-1.193985">
        <ele>38.4</ele>
        <time>2020-08-12T23:41:01Z</time>
      </trkpt>
      <trkpt lat="44.598358" lon="-1.19164">
        <ele>37.6</ele>
        <time>2020-08-12T23:41:13Z</time>
      </trkpt>
      <trkpt lat="44.59836" lon="-1.190905">
        <ele>37.6</ele>
        <time>2020-08-12T23:41:16Z</time>
      </trkpt>
      <trkpt lat="44.598422" lon="-1.190141">
        <ele>36.4</ele>
        <time>2020-08-12T23:41:20Z</time>
      </trkpt>
      <trkpt lat="44.598601" lon="-1.189323">
        <ele>36.2</ele>
        <time>2020-08-12T23:41:24Z</time>
      </trkpt>
      <trkpt lat="44.598861" lon="-1.188585">
        <ele>38.4</ele>
        <time>2020-08-12T23:41:28Z</time>
      </trkpt>
      <trkpt lat="44.600218" lon="-1.185562">
        <ele>41.0</ele>
        <time>2020-08-12T23:41:46Z</time>
      </trkpt>
      <trkpt lat="44.600548" lon="-1.184784">
        <ele>42.0</ele>
        <time>2020-08-12T23:41:50Z</time>
      </trkpt>
      <trkpt lat="44.60069" lon="-1.184326">
        <ele>42.0</ele>
        <time>2020-08-12T23:41:53Z</time>
      </trkpt>
      <trkpt lat="44.60079" lon="-1.183848">
        <ele>39.8</ele>
        <time>2020-08-12T23:41:55Z</time>
      </trkpt>
      <trkpt lat="44.600829" lon="-1.183549">
        <ele>39.8</ele>
        <time>2020-08-12T23:41:57Z</time>
      </trkpt>
      <trkpt lat="44.600855" lon="-1.182921">
        <ele>40.0</ele>
        <time>2020-08-12T23:42:00Z</time>
      </trkpt>
      <trkpt lat="44.600613" lon="-1.178641">
        <ele>28.2</ele>
        <time>2020-08-12T23:42:21Z</time>
      </trkpt>
      <trkpt lat="44.60055" lon="-1.177312">
        <ele>28.4</ele>
        <time>2020-08-12T23:42:27Z</time>
      </trkpt>
      <trkpt lat="44.60058" lon="-1.176738">
        <ele>28.4</ele>
        <time>2020-08-12T23:42:30Z</time>
      </trkpt>
      <trkpt lat="44.600636" lon="-1.176388">
        <ele>30.2</ele>
        <time>2020-08-12T23:42:32Z</time>
      </trkpt>
      <trkpt lat="44.600761" lon="-1.175922">
        <ele>30.2</ele>
        <time>2020-08-12T23:42:34Z</time>
      </trkpt>
      <trkpt lat="44.600857" lon="-1.175654">
        <ele>27.2</ele>
        <time>2020-08-12T23:42:36Z</time>
      </trkpt>
      <trkpt lat="44.600981" lon="-1.175382">
        <ele>27.2</ele>
        <time>2020-08-12T23:42:37Z</time>
      </trkpt>
      <trkpt lat="44.603125" lon="-1.171291">
        <ele>29.6</ele>
        <time>2020-08-12T23:43:02Z</time>
      </trkpt>
      <trkpt lat="44.603356" lon="-1.170825">
        <ele>28.2</ele>
        <time>2020-08-12T23:43:05Z</time>
      </trkpt>
      <trkpt lat="44.603577" lon="-1.170294">
        <ele>28.2</ele>
        <time>2020-08-12T23:43:08Z</time>
      </trkpt>
      <trkpt lat="44.603652" lon="-1.170051">
        <ele>28.2</ele>
        <time>2020-08-12T23:43:10Z</time>
      </trkpt>
      <trkpt lat="44.60371" lon="-1.169762">
        <ele>29.4</ele>
        <time>2020-08-12T23:43:11Z</time>
      </trkpt>
      <trkpt lat="44.603776" lon="-1.16911">
        <ele>31.2</ele>
        <time>2020-08-12T23:43:14Z</time>
      </trkpt>
      <trkpt lat="44.603765" lon="-1.168713">
        <ele>31.2</ele>
        <time>2020-08-12T23:43:16Z</time>
      </trkpt>
      <trkpt lat="44.603671" lon="-1.167557">
        <ele>31.8</ele>
        <time>2020-08-12T23:43:22Z</time>
      </trkpt>
      <trkpt lat="44.603651" lon="-1.166952">
        <ele>30.8</ele>
        <time>2020-08-12T23:43:25Z</time>
      </trkpt>
      <trkpt lat="44.603668" lon="-1.166669">
        <ele>30.8</ele>
        <time>2020-08-12T23:43:26Z</time>
      </trkpt>
      <trkpt lat="44.603702" lon="-1.166413">
        <ele>28.6</ele>
        <time>2020-08-12T23:43:28Z</time>
      </trkpt>
      <trkpt lat="44.603772" lon="-1.166056">
        <ele>28.6</ele>
        <time>2020-08-12T23:43:29Z</time>
      </trkpt>
      <trkpt lat="44.603914" lon="-1.165616">
        <ele>29.0</ele>
        <time>2020-08-12T23:43:32Z</time>
      </trkpt>
      <trkpt lat="44.60435" lon="-1.164722">
        <ele>27.8</ele>
        <time>2020-08-12T23:43:37Z</time>
      </trkpt>
      <trkpt lat="44.607106" lon="-1.15938">
        <ele>25.2</ele>
        <time>2020-08-12T23:44:10Z</time>
      </trkpt>
      <trkpt lat="44.607532" lon="-1.158658">
        <ele>23.6</ele>
        <time>2020-08-12T23:44:14Z</time>
      </trkpt>
      <trkpt lat="44.607787" lon="-1.158308">
        <ele>23.6</ele>
        <time>2020-08-12T23:44:17Z</time>
      </trkpt>
      <trkpt lat="44.608255" lon="-1.157749">
        <ele>23.6</ele>
        <time>2020-08-12T23:44:21Z</time>
      </trkpt>
      <trkpt lat="44.60843" lon="-1.15749">
        <ele>20.4</ele>
        <time>2020-08-12T23:44:23Z</time>
      </trkpt>
      <trkpt lat="44.608534" lon="-1.157191">
        <ele>20.4</ele>
        <time>2020-08-12T23:44:24Z</time>
      </trkpt>
      <trkpt lat="44.60854" lon="-1.157081">
        <ele>20.4</ele>
        <time>2020-08-12T23:44:25Z</time>
      </trkpt>
      <trkpt lat="44.608565" lon="-1.156976">
        <ele>20.4</ele>
        <time>2020-08-12T23:44:25Z</time>
      </trkpt>
      <trkpt lat="44.608655" lon="-1.156822">
        <ele>20.4</ele>
        <time>2020-08-12T23:44:26Z</time>
      </trkpt>
      <trkpt lat="44.608769" lon="-1.156746">
        <ele>20.4</ele>
        <time>2020-08-12T23:44:27Z</time>
      </trkpt>
      <trkpt lat="44.608831" lon="-1.156735">
        <ele>20.4</ele>
        <time>2020-08-12T23:44:28Z</time>
      </trkpt>
      <trkpt lat="44.608909" lon="-1.156745">
        <ele>20.4</ele>
        <time>2020-08-12T23:44:28Z</time>
      </trkpt>
      <trkpt lat="44.608981" lon="-1.156782">
        <ele>20.4</ele>
        <time>2020-08-12T23:44:29Z</time>
      </trkpt>
      <trkpt lat="44.609045" lon="-1.156844">
        <ele>20.4</ele>
        <time>2020-08-12T23:44:29Z</time>
      </trkpt>
      <trkpt lat="44.609453" lon="-1.156713">
        <ele>19.4</ele>
        <time>2020-08-12T23:44:32Z</time>
      </trkpt>
      <trkpt lat="44.610282" lon="-1.156205">
        <ele>19.2</ele>
        <time>2020-08-12T23:44:39Z</time>
      </trkpt>
      <trkpt lat="44.611515" lon="-1.155489">
        <ele>24.4</ele>
        <time>2020-08-12T23:44:48Z</time>
      </trkpt>
      <trkpt lat="44.612131" lon="-1.15511">
        <ele>28.2</ele>
        <time>2020-08-12T23:44:53Z</time>
      </trkpt>
      <trkpt lat="44.612374" lon="-1.154933">
        <ele>32.4</ele>
        <time>2020-08-12T23:44:55Z</time>
      </trkpt>
      <trkpt lat="44.613918" lon="-1.154057">
        <ele>21.6</ele>
        <time>2020-08-12T23:45:06Z</time>
      </trkpt>
      <trkpt lat="44.614229" lon="-1.153842">
        <ele>17.8</ele>
        <time>2020-08-12T23:45:09Z</time>
      </trkpt>
      <trkpt lat="44.614318" lon="-1.153742">
        <ele>17.8</ele>
        <time>2020-08-12T23:45:09Z</time>
      </trkpt>
      <trkpt lat="44.61438" lon="-1.153612">
        <ele>17.8</ele>
        <time>2020-08-12T23:45:10Z</time>
      </trkpt>
      <trkpt lat="44.614413" lon="-1.153477">
        <ele>17.8</ele>
        <time>2020-08-12T23:45:11Z</time>
      </trkpt>
      <trkpt lat="44.614413" lon="-1.153319">
        <ele>16.2</ele>
        <time>2020-08-12T23:45:12Z</time>
      </trkpt>
      <trkpt lat="44.614388" lon="-1.15319">
        <ele>16.2</ele>
        <time>2020-08-12T23:45:12Z</time>
      </trkpt>
      <trkpt lat="44.61432" lon="-1.153036">
        <ele>16.2</ele>
        <time>2020-08-12T23:45:13Z</time>
      </trkpt>
      <trkpt lat="44.614217" lon="-1.152921">
        <ele>16.2</ele>
        <time>2020-08-12T23:45:14Z</time>
      </trkpt>
      <trkpt lat="44.614094" lon="-1.152865">
        <ele>17.6</ele>
        <time>2020-08-12T23:45:15Z</time>
      </trkpt>
      <trkpt lat="44.614009" lon="-1.15286">
        <ele>17.6</ele>
        <time>2020-08-12T23:45:15Z</time>
      </trkpt>
      <trkpt lat="44.613897" lon="-1.152894">
        <ele>17.6</ele>
        <time>2020-08-12T23:45:16Z</time>
      </trkpt>
      <trkpt lat="44.613753" lon="-1.15303">
        <ele>17.6</ele>
        <time>2020-08-12T23:45:17Z</time>
      </trkpt>
      <trkpt lat="44.613697" lon="-1.153158">
        <ele>17.6</ele>
        <time>2020-08-12T23:45:18Z</time>
      </trkpt>
      <trkpt lat="44.613657" lon="-1.153323">
        <ele>17.6</ele>
        <time>2020-08-12T23:45:19Z</time>
      </trkpt>
      <trkpt lat="44.613648" lon="-1.153502">
        <ele>21.6</ele>
        <time>2020-08-12T23:45:20Z</time>
      </trkpt>
      <trkpt lat="44.613727" lon="-1.154052">
        <ele>21.6</ele>
        <time>2020-08-12T23:45:23Z</time>
      </trkpt>
      <trkpt lat="44.614035" lon="-1.155095">
        <ele>26.6</ele>
        <time>2020-08-12T23:45:28Z</time>
      </trkpt>
      <trkpt lat="44.614218" lon="-1.155552">
        <ele>22.0</ele>
        <time>2020-08-12T23:45:31Z</time>
      </trkpt>
      <trkpt lat="44.614454" lon="-1.156079">
        <ele>22.0</ele>
        <time>2020-08-12T23:45:34Z</time>
      </trkpt>
      <trkpt lat="44.615055" lon="-1.157202">
        <ele>18.2</ele>
        <time>2020-08-12T23:45:41Z</time>
      </trkpt>
      <trkpt lat="44.615378" lon="-1.157668">
        <ele>17.2</ele>
        <time>2020-08-12T23:45:44Z</time>
      </trkpt>
      <trkpt lat="44.6158" lon="-1.158204">
        <ele>17.2</ele>
        <time>2020-08-12T23:45:48Z</time>
      </trkpt>
      <trkpt lat="44.616567" lon="-1.158986">
        <ele>18.4</ele>
        <time>2020-08-12T23:45:54Z</time>
      </trkpt>
      <trkpt lat="44.616921" lon="-1.159275">
        <ele>15.6</ele>
        <time>2020-08-12T23:45:57Z</time>
      </trkpt>
      <trkpt lat="44.617577" lon="-1.159727">
        <ele>10.2</ele>
        <time>2020-08-12T23:46:02Z</time>
      </trkpt>
      <trkpt lat="44.617946" lon="-1.159931">
        <ele>10.2</ele>
        <time>2020-08-12T23:46:05Z</time>
      </trkpt>
      <trkpt lat="44.618319" lon="-1.1601">
        <ele>12.6</ele>
        <time>2020-08-12T23:46:08Z</time>
      </trkpt>
      <trkpt lat="44.619025" lon="-1.160366">
        <ele>9.8</ele>
        <time>2020-08-12T23:46:13Z</time>
      </trkpt>
      <trkpt lat="44.619809" lon="-1.160501">
        <ele>9.0</ele>
        <time>2020-08-12T23:46:18Z</time>
      </trkpt>
      <trkpt lat="44.620467" lon="-1.160534">
        <ele>9.6</ele>
        <time>2020-08-12T23:46:23Z</time>
      </trkpt>
      <trkpt lat="44.620869" lon="-1.160516">
        <ele>9.8</ele>
        <time>2020-08-12T23:46:26Z</time>
      </trkpt>
      <trkpt lat="44.621267" lon="-1.16046">
        <ele>9.8</ele>
        <time>2020-08-12T23:46:28Z</time>
      </trkpt>
      <trkpt lat="44.621849" lon="-1.160333">
        <ele>8.4</ele>
        <time>2020-08-12T23:46:32Z</time>
      </trkpt>
      <trkpt lat="44.622111" lon="-1.160174">
        <ele>8.4</ele>
        <time>2020-08-12T23:46:34Z</time>
      </trkpt>
      <trkpt lat="44.622157" lon="-1.160124">
        <ele>8.4</ele>
        <time>2020-08-12T23:46:35Z</time>
      </trkpt>
      <trkpt lat="44.622201" lon="-1.160039">
        <ele>8.4</ele>
        <time>2020-08-12T23:46:35Z</time>
      </trkpt>
      <trkpt lat="44.622269" lon="-1.159913">
        <ele>9.0</ele>
        <time>2020-08-12T23:46:36Z</time>
      </trkpt>
      <trkpt lat="44.622315" lon="-1.159876">
        <ele>9.0</ele>
        <time>2020-08-12T23:46:37Z</time>
      </trkpt>
      <trkpt lat="44.62242" lon="-1.159861">
        <ele>9.0</ele>
        <time>2020-08-12T23:46:38Z</time>
      </trkpt>
      <trkpt lat="44.622594" lon="-1.15996">
        <ele>7.2</ele>
        <time>2020-08-12T23:46:39Z</time>
      </trkpt>
      <trkpt lat="44.622867" lon="-1.159941">
        <ele>7.2</ele>
        <time>2020-08-12T23:46:41Z</time>
      </trkpt>
      <trkpt lat="44.627698" lon="-1.157659">
        <ele>2.6</ele>
        <time>2020-08-12T23:47:22Z</time>
      </trkpt>
      <trkpt lat="44.628406" lon="-1.157336">
        <ele>3.4</ele>
        <time>2020-08-12T23:47:28Z</time>
      </trkpt>
      <trkpt lat="44.62876" lon="-1.157199">
        <ele>3.4</ele>
        <time>2020-08-12T23:47:31Z</time>
      </trkpt>
      <trkpt lat="44.629256" lon="-1.156947">
        <ele>3.6</ele>
        <time>2020-08-12T23:47:36Z</time>
      </trkpt>
      <trkpt lat="44.629663" lon="-1.156766">
        <ele>3.6</ele>
        <time>2020-08-12T23:47:39Z</time>
      </trkpt>
      <trkpt lat="44.629824" lon="-1.156596">
        <ele>3.6</ele>
        <time>2020-08-12T23:47:41Z</time>
      </trkpt>
      <trkpt lat="44.629837" lon="-1.156489">
        <ele>3.6</ele>
        <time>2020-08-12T23:47:42Z</time>
      </trkpt>
      <trkpt lat="44.629875" lon="-1.156394">
        <ele>3.6</ele>
        <time>2020-08-12T23:47:43Z</time>
      </trkpt>
      <trkpt lat="44.629931" lon="-1.15632">
        <ele>3.6</ele>
        <time>2020-08-12T23:47:44Z</time>
      </trkpt>
      <trkpt lat="44.630002" lon="-1.156276">
        <ele>2.4</ele>
        <time>2020-08-12T23:47:45Z</time>
      </trkpt>
      <trkpt lat="44.630079" lon="-1.156266">
        <ele>2.4</ele>
        <time>2020-08-12T23:47:46Z</time>
      </trkpt>
      <trkpt lat="44.630154" lon="-1.15629">
        <ele>2.4</ele>
        <time>2020-08-12T23:47:47Z</time>
      </trkpt>
      <trkpt lat="44.63022" lon="-1.156348">
        <ele>2.4</ele>
        <time>2020-08-12T23:47:48Z</time>
      </trkpt>
      <trkpt lat="44.630269" lon="-1.156432">
        <ele>2.4</ele>
        <time>2020-08-12T23:47:48Z</time>
      </trkpt>
      <trkpt lat="44.630297" lon="-1.156533">
        <ele>2.4</ele>
        <time>2020-08-12T23:47:49Z</time>
      </trkpt>
      <trkpt lat="44.6303" lon="-1.156645">
        <ele>2.4</ele>
        <time>2020-08-12T23:47:50Z</time>
      </trkpt>
      <trkpt lat="44.630276" lon="-1.156753">
        <ele>2.6</ele>
        <time>2020-08-12T23:47:51Z</time>
      </trkpt>
      <trkpt lat="44.630229" lon="-1.156843">
        <ele>2.6</ele>
        <time>2020-08-12T23:47:52Z</time>
      </trkpt>
      <trkpt lat="44.630163" lon="-1.156906">
        <ele>2.6</ele>
        <time>2020-08-12T23:47:53Z</time>
      </trkpt>
      <trkpt lat="44.630163" lon="-1.157067">
        <ele>2.6</ele>
        <time>2020-08-12T23:47:55Z</time>
      </trkpt>
      <trkpt lat="44.630255" lon="-1.157305">
        <ele>2.6</ele>
        <time>2020-08-12T23:47:56Z</time>
      </trkpt>
      <trkpt lat="44.630328" lon="-1.157435">
        <ele>2.6</ele>
        <time>2020-08-12T23:47:57Z</time>
      </trkpt>
      <trkpt lat="44.630406" lon="-1.157525">
        <ele>3.6</ele>
        <time>2020-08-12T23:47:58Z</time>
      </trkpt>
      <trkpt lat="44.631324" lon="-1.158154">
        <ele>4.2</ele>
        <time>2020-08-12T23:48:05Z</time>
      </trkpt>
      <trkpt lat="44.631634" lon="-1.158416">
        <ele>5.8</ele>
        <time>2020-08-12T23:48:08Z</time>
      </trkpt>
      <trkpt lat="44.631847" lon="-1.158626">
        <ele>6.6</ele>
        <time>2020-08-12T23:48:09Z</time>
      </trkpt>
      <trkpt lat="44.632183" lon="-1.159102">
        <ele>6.6</ele>
        <time>2020-08-12T23:48:13Z</time>
      </trkpt>
      <trkpt lat="44.632318" lon="-1.159353">
        <ele>8.2</ele>
        <time>2020-08-12T23:48:14Z</time>
      </trkpt>
      <trkpt lat="44.632552" lon="-1.159857">
        <ele>7.2</ele>
        <time>2020-08-12T23:48:18Z</time>
      </trkpt>
      <trkpt lat="44.63261" lon="-1.160031">
        <ele>7.8</ele>
        <time>2020-08-12T23:48:19Z</time>
      </trkpt>
      <trkpt lat="44.632695" lon="-1.160493">
        <ele>7.8</ele>
        <time>2020-08-12T23:48:21Z</time>
      </trkpt>
      <trkpt lat="44.632743" lon="-1.160659">
        <ele>7.8</ele>
        <time>2020-08-12T23:48:22Z</time>
      </trkpt>
      <trkpt lat="44.632839" lon="-1.160805">
        <ele>7.8</ele>
        <time>2020-08-12T23:48:23Z</time>
      </trkpt>
      <trkpt lat="44.632904" lon="-1.160857">
        <ele>7.8</ele>
        <time>2020-08-12T23:48:23Z</time>
      </trkpt>
      <trkpt lat="44.633125" lon="-1.160805">
        <ele>7.8</ele>
        <time>2020-08-12T23:48:25Z</time>
      </trkpt>
      <trkpt lat="44.633144" lon="-1.160716">
        <ele>7.8</ele>
        <time>2020-08-12T23:48:26Z</time>
      </trkpt>
      <trkpt lat="44.633183" lon="-1.16064">
        <ele>7.8</ele>
        <time>2020-08-12T23:48:27Z</time>
      </trkpt>
      <trkpt lat="44.633237" lon="-1.160585">
        <ele>7.8</ele>
        <time>2020-08-12T23:48:28Z</time>
      </trkpt>
      <trkpt lat="44.633301" lon="-1.160558">
        <ele>7.8</ele>
        <time>2020-08-12T23:48:28Z</time>
      </trkpt>
      <trkpt lat="44.633368" lon="-1.16056">
        <ele>3.6</ele>
        <time>2020-08-12T23:48:29Z</time>
      </trkpt>
      <trkpt lat="44.633433" lon="-1.160594">
        <ele>3.6</ele>
        <time>2020-08-12T23:48:30Z</time>
      </trkpt>
      <trkpt lat="44.633572" lon="-1.160526">
        <ele>3.6</ele>
        <time>2020-08-12T23:48:32Z</time>
      </trkpt>
      <trkpt lat="44.633679" lon="-1.160315">
        <ele>3.6</ele>
        <time>2020-08-12T23:48:35Z</time>
      </trkpt>
      <trkpt lat="44.633736" lon="-1.160112">
        <ele>3.6</ele>
        <time>2020-08-12T23:48:37Z</time>
      </trkpt>
      <trkpt lat="44.633956" lon="-1.158704">
        <ele>4.2</ele>
        <time>2020-08-12T23:48:50Z</time>
      </trkpt>
      <trkpt lat="44.634496" lon="-1.156088">
        <ele>2.6</ele>
        <time>2020-08-12T23:49:16Z</time>
      </trkpt>
      <trkpt lat="44.634626" lon="-1.155908">
        <ele>2.6</ele>
        <time>2020-08-12T23:49:19Z</time>
      </trkpt>
      <trkpt lat="44.63469" lon="-1.155857">
        <ele>2.6</ele>
        <time>2020-08-12T23:49:20Z</time>
      </trkpt>
      <trkpt lat="44.634741" lon="-1.155826">
        <ele>1.8</ele>
        <time>2020-08-12T23:49:21Z</time>
      </trkpt>
      <trkpt lat="44.634857" lon="-1.155821">
        <ele>1.8</ele>
        <time>2020-08-12T23:49:24Z</time>
      </trkpt>
      <trkpt lat="44.635175" lon="-1.155869">
        <ele>4.0</ele>
        <time>2020-08-12T23:49:29Z</time>
      </trkpt>
      <trkpt lat="44.635706" lon="-1.155989">
        <ele>4.0</ele>
        <time>2020-08-12T23:49:39Z</time>
      </trkpt>
      <trkpt lat="44.635799" lon="-1.156033">
        <ele>4.0</ele>
        <time>2020-08-12T23:49:41Z</time>
      </trkpt>
      <trkpt lat="44.635919" lon="-1.156157">
        <ele>4.4</ele>
        <time>2020-08-12T23:49:44Z</time>
      </trkpt>
      <trkpt lat="44.63635" lon="-1.156823">
        <ele>3.2</ele>
        <time>2020-08-12T23:49:56Z</time>
      </trkpt>
      <trkpt lat="44.637008" lon="-1.157682">
        <ele>2.8</ele>
        <time>2020-08-12T23:50:12Z</time>
      </trkpt>
      <trkpt lat="44.63777" lon="-1.158631">
        <ele>3.9</ele>
        <time>2020-08-12T23:50:31Z</time>
      </trkpt>
      <trkpt lat="44.63777" lon="-1.158631">
        <ele>3.9</ele>
        <time>2020-08-12T23:50:31Z</time>
      </trkpt>
      <trkpt lat="44.637008" lon="-1.157682">
        <ele>2.8</ele>
        <time>2020-08-12T23:50:48Z</time>
      </trkpt>
      <trkpt lat="44.63635" lon="-1.156823">
        <ele>3.2</ele>
        <time>2020-08-12T23:51:02Z</time>
      </trkpt>
      <trkpt lat="44.635919" lon="-1.156157">
        <ele>4.4</ele>
        <time>2020-08-12T23:51:13Z</time>
      </trkpt>
      <trkpt lat="44.635018" lon="-1.156044">
        <ele>4.0</ele>
        <time>2020-08-12T23:51:27Z</time>
      </trkpt>
      <trkpt lat="44.634494" lon="-1.155732">
        <ele>1.8</ele>
        <time>2020-08-12T23:51:33Z</time>
      </trkpt>
      <trkpt lat="44.634311" lon="-1.155645">
        <ele>1.8</ele>
        <time>2020-08-12T23:51:35Z</time>
      </trkpt>
      <trkpt lat="44.634147" lon="-1.155628">
        <ele>0.8</ele>
        <time>2020-08-12T23:51:37Z</time>
      </trkpt>
      <trkpt lat="44.633812" lon="-1.155677">
        <ele>0.8</ele>
        <time>2020-08-12T23:51:40Z</time>
      </trkpt>
      <trkpt lat="44.633277" lon="-1.15571">
        <ele>2.0</ele>
        <time>2020-08-12T23:51:46Z</time>
      </trkpt>
      <trkpt lat="44.631793" lon="-1.156128">
        <ele>3.0</ele>
        <time>2020-08-12T23:52:01Z</time>
      </trkpt>
      <trkpt lat="44.630517" lon="-1.156548">
        <ele>2.4</ele>
        <time>2020-08-12T23:52:15Z</time>
      </trkpt>
      <trkpt lat="44.6303" lon="-1.156645">
        <ele>2.4</ele>
        <time>2020-08-12T23:52:17Z</time>
      </trkpt>
      <trkpt lat="44.630276" lon="-1.156753">
        <ele>2.6</ele>
        <time>2020-08-12T23:52:18Z</time>
      </trkpt>
      <trkpt lat="44.630229" lon="-1.156843">
        <ele>2.6</ele>
        <time>2020-08-12T23:52:18Z</time>
      </trkpt>
      <trkpt lat="44.630163" lon="-1.156906">
        <ele>2.6</ele>
        <time>2020-08-12T23:52:19Z</time>
      </trkpt>
      <trkpt lat="44.630086" lon="-1.156935">
        <ele>2.6</ele>
        <time>2020-08-12T23:52:20Z</time>
      </trkpt>
      <trkpt lat="44.630006" lon="-1.156927">
        <ele>2.6</ele>
        <time>2020-08-12T23:52:20Z</time>
      </trkpt>
      <trkpt lat="44.629932" lon="-1.156883">
        <ele>3.6</ele>
        <time>2020-08-12T23:52:21Z</time>
      </trkpt>
      <trkpt lat="44.629874" lon="-1.156806">
        <ele>3.6</ele>
        <time>2020-08-12T23:52:22Z</time>
      </trkpt>
      <trkpt lat="44.629713" lon="-1.15684">
        <ele>3.6</ele>
        <time>2020-08-12T23:52:23Z</time>
      </trkpt>
      <trkpt lat="44.628406" lon="-1.157336">
        <ele>3.4</ele>
        <time>2020-08-12T23:52:34Z</time>
      </trkpt>
      <trkpt lat="44.622867" lon="-1.159941">
        <ele>7.2</ele>
        <time>2020-08-12T23:53:22Z</time>
      </trkpt>
      <trkpt lat="44.62281" lon="-1.160004">
        <ele>7.2</ele>
        <time>2020-08-12T23:53:22Z</time>
      </trkpt>
      <trkpt lat="44.622696" lon="-1.160071">
        <ele>7.2</ele>
        <time>2020-08-12T23:53:23Z</time>
      </trkpt>
      <trkpt lat="44.622626" lon="-1.160139">
        <ele>7.2</ele>
        <time>2020-08-12T23:53:24Z</time>
      </trkpt>
      <trkpt lat="44.62258" lon="-1.160226">
        <ele>7.2</ele>
        <time>2020-08-12T23:53:25Z</time>
      </trkpt>
      <trkpt lat="44.622553" lon="-1.160301">
        <ele>7.2</ele>
        <time>2020-08-12T23:53:25Z</time>
      </trkpt>
      <trkpt lat="44.622505" lon="-1.160369">
        <ele>7.2</ele>
        <time>2020-08-12T23:53:26Z</time>
      </trkpt>
      <trkpt lat="44.622444" lon="-1.16041">
        <ele>8.4</ele>
        <time>2020-08-12T23:53:26Z</time>
      </trkpt>
      <trkpt lat="44.622376" lon="-1.160421">
        <ele>8.4</ele>
        <time>2020-08-12T23:53:27Z</time>
      </trkpt>
      <trkpt lat="44.622274" lon="-1.160371">
        <ele>8.4</ele>
        <time>2020-08-12T23:53:27Z</time>
      </trkpt>
      <trkpt lat="44.622187" lon="-1.160303">
        <ele>8.4</ele>
        <time>2020-08-12T23:53:28Z</time>
      </trkpt>
      <trkpt lat="44.621849" lon="-1.160333">
        <ele>8.4</ele>
        <time>2020-08-12T23:53:30Z</time>
      </trkpt>
      <trkpt lat="44.621267" lon="-1.16046">
        <ele>9.8</ele>
        <time>2020-08-12T23:53:34Z</time>
      </trkpt>
      <trkpt lat="44.620869" lon="-1.160516">
        <ele>9.8</ele>
        <time>2020-08-12T23:53:37Z</time>
      </trkpt>
      <trkpt lat="44.620467" lon="-1.160534">
        <ele>9.6</ele>
        <time>2020-08-12T23:53:40Z</time>
      </trkpt>
      <trkpt lat="44.619809" lon="-1.160501">
        <ele>9.0</ele>
        <time>2020-08-12T23:53:44Z</time>
      </trkpt>
      <trkpt lat="44.619025" lon="-1.160366">
        <ele>9.8</ele>
        <time>2020-08-12T23:53:50Z</time>
      </trkpt>
      <trkpt lat="44.618319" lon="-1.1601">
        <ele>12.6</ele>
        <time>2020-08-12T23:53:55Z</time>
      </trkpt>
      <trkpt lat="44.617946" lon="-1.159931">
        <ele>10.2</ele>
        <time>2020-08-12T23:53:58Z</time>
      </trkpt>
      <trkpt lat="44.617577" lon="-1.159727">
        <ele>10.2</ele>
        <time>2020-08-12T23:54:00Z</time>
      </trkpt>
      <trkpt lat="44.616921" lon="-1.159275">
        <ele>15.6</ele>
        <time>2020-08-12T23:54:06Z</time>
      </trkpt>
      <trkpt lat="44.616567" lon="-1.158986">
        <ele>18.4</ele>
        <time>2020-08-12T23:54:08Z</time>
      </trkpt>
      <trkpt lat="44.6158" lon="-1.158204">
        <ele>17.2</ele>
        <time>2020-08-12T23:54:15Z</time>
      </trkpt>
      <trkpt lat="44.615378" lon="-1.157668">
        <ele>17.2</ele>
        <time>2020-08-12T23:54:19Z</time>
      </trkpt>
      <trkpt lat="44.615055" lon="-1.157202">
        <ele>18.2</ele>
        <time>2020-08-12T23:54:22Z</time>
      </trkpt>
      <trkpt lat="44.614454" lon="-1.156079">
        <ele>22.0</ele>
        <time>2020-08-12T23:54:29Z</time>
      </trkpt>
      <trkpt lat="44.614218" lon="-1.155552">
        <ele>22.0</ele>
        <time>2020-08-12T23:54:32Z</time>
      </trkpt>
      <trkpt lat="44.614035" lon="-1.155095">
        <ele>26.6</ele>
        <time>2020-08-12T23:54:35Z</time>
      </trkpt>
      <trkpt lat="44.613607" lon="-1.153647">
        <ele>21.6</ele>
        <time>2020-08-12T23:54:42Z</time>
      </trkpt>
      <trkpt lat="44.613481" lon="-1.153049">
        <ele>17.6</ele>
        <time>2020-08-12T23:54:45Z</time>
      </trkpt>
      <trkpt lat="44.613303" lon="-1.151938">
        <ele>17.4</ele>
        <time>2020-08-12T23:54:51Z</time>
      </trkpt>
      <trkpt lat="44.613258" lon="-1.15107">
        <ele>17.4</ele>
        <time>2020-08-12T23:54:55Z</time>
      </trkpt>
      <trkpt lat="44.613258" lon="-1.150163">
        <ele>19.8</ele>
        <time>2020-08-12T23:55:00Z</time>
      </trkpt>
      <trkpt lat="44.613283" lon="-1.14961">
        <ele>21.0</ele>
        <time>2020-08-12T23:55:03Z</time>
      </trkpt>
      <trkpt lat="44.613385" lon="-1.148609">
        <ele>17.8</ele>
        <time>2020-08-12T23:55:08Z</time>
      </trkpt>
      <trkpt lat="44.613466" lon="-1.148107">
        <ele>16.8</ele>
        <time>2020-08-12T23:55:10Z</time>
      </trkpt>
      <trkpt lat="44.613681" lon="-1.147107">
        <ele>17.8</ele>
        <time>2020-08-12T23:55:15Z</time>
      </trkpt>
      <trkpt lat="44.613794" lon="-1.146689">
        <ele>17.8</ele>
        <time>2020-08-12T23:55:17Z</time>
      </trkpt>
      <trkpt lat="44.613925" lon="-1.14628">
        <ele>19.2</ele>
        <time>2020-08-12T23:55:20Z</time>
      </trkpt>
      <trkpt lat="44.614265" lon="-1.145298">
        <ele>17.8</ele>
        <time>2020-08-12T23:55:25Z</time>
      </trkpt>
      <trkpt lat="44.615678" lon="-1.14139">
        <ele>10.6</ele>
        <time>2020-08-12T23:55:47Z</time>
      </trkpt>
      <trkpt lat="44.616327" lon="-1.139461">
        <ele>10.8</ele>
        <time>2020-08-12T23:55:57Z</time>
      </trkpt>
      <trkpt lat="44.616561" lon="-1.138466">
        <ele>9.2</ele>
        <time>2020-08-12T23:56:02Z</time>
      </trkpt>
      <trkpt lat="44.616592" lon="-1.138288">
        <ele>8.0</ele>
        <time>2020-08-12T23:56:03Z</time>
      </trkpt>
      <trkpt lat="44.616598" lon="-1.138117">
        <ele>8.0</ele>
        <time>2020-08-12T23:56:04Z</time>
      </trkpt>
      <trkpt lat="44.616573" lon="-1.13804">
        <ele>8.0</ele>
        <time>2020-08-12T23:56:04Z</time>
      </trkpt>
      <trkpt lat="44.61657" lon="-1.13788">
        <ele>8.0</ele>
        <time>2020-08-12T23:56:05Z</time>
      </trkpt>
      <trkpt lat="44.616621" lon="-1.137747">
        <ele>8.0</ele>
        <time>2020-08-12T23:56:06Z</time>
      </trkpt>
      <trkpt lat="44.616772" lon="-1.137583">
        <ele>9.6</ele>
        <time>2020-08-12T23:56:07Z</time>
      </trkpt>
      <trkpt lat="44.616833" lon="-1.137474">
        <ele>7.8</ele>
        <time>2020-08-12T23:56:08Z</time>
      </trkpt>
      <trkpt lat="44.617014" lon="-1.136959">
        <ele>7.8</ele>
        <time>2020-08-12T23:56:11Z</time>
      </trkpt>
      <trkpt lat="44.617084" lon="-1.136825">
        <ele>7.8</ele>
        <time>2020-08-12T23:56:12Z</time>
      </trkpt>
      <trkpt lat="44.617234" lon="-1.136203">
        <ele>7.2</ele>
        <time>2020-08-12T23:56:15Z</time>
      </trkpt>
      <trkpt lat="44.617426" lon="-1.13535">
        <ele>6.6</ele>
        <time>2020-08-12T23:56:20Z</time>
      </trkpt>
      <trkpt lat="44.617602" lon="-1.134474">
        <ele>7.2</ele>
        <time>2020-08-12T23:56:24Z</time>
      </trkpt>
      <trkpt lat="44.617807" lon="-1.133299">
        <ele>8.2</ele>
        <time>2020-08-12T23:56:30Z</time>
      </trkpt>
      <trkpt lat="44.617955" lon="-1.132306">
        <ele>7.8</ele>
        <time>2020-08-12T23:56:36Z</time>
      </trkpt>
      <trkpt lat="44.618096" lon="-1.131137">
        <ele>8.0</ele>
        <time>2020-08-12T23:56:42Z</time>
      </trkpt>
      <trkpt lat="44.618178" lon="-1.130282">
        <ele>8.0</ele>
        <time>2020-08-12T23:56:46Z</time>
      </trkpt>
      <trkpt lat="44.618242" lon="-1.129491">
        <ele>9.0</ele>
        <time>2020-08-12T23:56:50Z</time>
      </trkpt>
      <trkpt lat="44.618309" lon="-1.128371">
        <ele>10.2</ele>
        <time>2020-08-12T23:56:56Z</time>
      </trkpt>
      <trkpt lat="44.618353" lon="-1.126838">
        <ele>10.0</ele>
        <time>2020-08-12T23:57:04Z</time>
      </trkpt>
      <trkpt lat="44.618334" lon="-1.126661">
        <ele>10.0</ele>
        <time>2020-08-12T23:57:04Z</time>
      </trkpt>
      <trkpt lat="44.618293" lon="-1.125643">
        <ele>9.6</ele>
        <time>2020-08-12T23:57:10Z</time>
      </trkpt>
      <trkpt lat="44.618247" lon="-1.125434">
        <ele>9.6</ele>
        <time>2020-08-12T23:57:11Z</time>
      </trkpt>
      <trkpt lat="44.61821" lon="-1.125351">
        <ele>9.6</ele>
        <time>2020-08-12T23:57:11Z</time>
      </trkpt>
      <trkpt lat="44.618164" lon="-1.125286">
        <ele>9.6</ele>
        <time>2020-08-12T23:57:12Z</time>
      </trkpt>
      <trkpt lat="44.618128" lon="-1.125189">
        <ele>9.6</ele>
        <time>2020-08-12T23:57:12Z</time>
      </trkpt>
      <trkpt lat="44.618127" lon="-1.125044">
        <ele>9.6</ele>
        <time>2020-08-12T23:57:13Z</time>
      </trkpt>
      <trkpt lat="44.618222" lon="-1.124795">
        <ele>8.6</ele>
        <time>2020-08-12T23:57:14Z</time>
      </trkpt>
      <trkpt lat="44.618256" lon="-1.124661">
        <ele>8.6</ele>
        <time>2020-08-12T23:57:15Z</time>
      </trkpt>
      <trkpt lat="44.618267" lon="-1.124487">
        <ele>8.6</ele>
        <time>2020-08-12T23:57:16Z</time>
      </trkpt>
      <trkpt lat="44.618238" lon="-1.123733">
        <ele>7.8</ele>
        <time>2020-08-12T23:57:19Z</time>
      </trkpt>
      <trkpt lat="44.61824" lon="-1.123279">
        <ele>7.8</ele>
        <time>2020-08-12T23:57:22Z</time>
      </trkpt>
      <trkpt lat="44.61819" lon="-1.122603">
        <ele>7.8</ele>
        <time>2020-08-12T23:57:25Z</time>
      </trkpt>
      <trkpt lat="44.617871" lon="-1.119535">
        <ele>10.6</ele>
        <time>2020-08-12T23:57:40Z</time>
      </trkpt>
      <trkpt lat="44.616037" lon="-1.104241">
        <ele>10.8</ele>
        <time>2020-08-12T23:58:54Z</time>
      </trkpt>
      <trkpt lat="44.61584" lon="-1.103348">
        <ele>9.8</ele>
        <time>2020-08-12T23:58:58Z</time>
      </trkpt>
      <trkpt lat="44.615729" lon="-1.103144">
        <ele>9.0</ele>
        <time>2020-08-12T23:58:59Z</time>
      </trkpt>
      <trkpt lat="44.615651" lon="-1.103094">
        <ele>9.0</ele>
        <time>2020-08-12T23:59:00Z</time>
      </trkpt>
      <trkpt lat="44.615583" lon="-1.103021">
        <ele>9.0</ele>
        <time>2020-08-12T23:59:00Z</time>
      </trkpt>
      <trkpt lat="44.615529" lon="-1.102929">
        <ele>9.0</ele>
        <time>2020-08-12T23:59:01Z</time>
      </trkpt>
      <trkpt lat="44.615471" lon="-1.102716">
        <ele>9.0</ele>
        <time>2020-08-12T23:59:02Z</time>
      </trkpt>
      <trkpt lat="44.615466" lon="-1.102608">
        <ele>9.0</ele>
        <time>2020-08-12T23:59:02Z</time>
      </trkpt>
      <trkpt lat="44.615503" lon="-1.102402">
        <ele>10.6</ele>
        <time>2020-08-12T23:59:03Z</time>
      </trkpt>
      <trkpt lat="44.615591" lon="-1.102235">
        <ele>10.6</ele>
        <time>2020-08-12T23:59:04Z</time>
      </trkpt>
      <trkpt lat="44.61565" lon="-1.102172">
        <ele>10.6</ele>
        <time>2020-08-12T23:59:05Z</time>
      </trkpt>
      <trkpt lat="44.615665" lon="-1.101899">
        <ele>10.6</ele>
        <time>2020-08-12T23:59:06Z</time>
      </trkpt>
      <trkpt lat="44.614704" lon="-1.093655">
        <ele>10.6</ele>
        <time>2020-08-12T23:59:41Z</time>
      </trkpt>
      <trkpt lat="44.614506" lon="-1.091677">
        <ele>12.0</ele>
        <time>2020-08-12T23:59:50Z</time>
      </trkpt>
      <trkpt lat="44.61434" lon="-1.089699">
        <ele>10.4</ele>
        <time>2020-08-12T23:59:58Z</time>
      </trkpt>
      <trkpt lat="44.614213" lon="-1.087804">
        <ele>10.0</ele>
        <time>2020-08-13T00:00:06Z</time>
      </trkpt>
      <trkpt lat="44.61412" lon="-1.085682">
        <ele>11.0</ele>
        <time>2020-08-13T00:00:15Z</time>
      </trkpt>
      <trkpt lat="44.614087" lon="-1.084146">
        <ele>9.6</ele>
        <time>2020-08-13T00:00:21Z</time>
      </trkpt>
      <trkpt lat="44.614098" lon="-1.081082">
        <ele>9.2</ele>
        <time>2020-08-13T00:00:34Z</time>
      </trkpt>
      <trkpt lat="44.614146" lon="-1.079567">
        <ele>10.4</ele>
        <time>2020-08-13T00:00:41Z</time>
      </trkpt>
      <trkpt lat="44.614225" lon="-1.077891">
        <ele>11.2</ele>
        <time>2020-08-13T00:00:48Z</time>
      </trkpt>
      <trkpt lat="44.614524" lon="-1.073819">
        <ele>9.4</ele>
        <time>2020-08-13T00:01:05Z</time>
      </trkpt>
      <trkpt lat="44.614537" lon="-1.0733">
        <ele>9.8</ele>
        <time>2020-08-13T00:01:07Z</time>
      </trkpt>
      <trkpt lat="44.614505" lon="-1.073215">
        <ele>9.8</ele>
        <time>2020-08-13T00:01:08Z</time>
      </trkpt>
      <trkpt lat="44.614423" lon="-1.073102">
        <ele>9.8</ele>
        <time>2020-08-13T00:01:08Z</time>
      </trkpt>
      <trkpt lat="44.614368" lon="-1.072949">
        <ele>9.8</ele>
        <time>2020-08-13T00:01:09Z</time>
      </trkpt>
      <trkpt lat="44.614369" lon="-1.072774">
        <ele>9.8</ele>
        <time>2020-08-13T00:01:09Z</time>
      </trkpt>
      <trkpt lat="44.614405" lon="-1.07263">
        <ele>9.8</ele>
        <time>2020-08-13T00:01:10Z</time>
      </trkpt>
      <trkpt lat="44.614459" lon="-1.072528">
        <ele>9.8</ele>
        <time>2020-08-13T00:01:10Z</time>
      </trkpt>
      <trkpt lat="44.614623" lon="-1.072378">
        <ele>10.8</ele>
        <time>2020-08-13T00:01:11Z</time>
      </trkpt>
      <trkpt lat="44.61467" lon="-1.072287">
        <ele>10.8</ele>
        <time>2020-08-13T00:01:11Z</time>
      </trkpt>
      <trkpt lat="44.61471" lon="-1.072114">
        <ele>10.8</ele>
        <time>2020-08-13T00:01:12Z</time>
      </trkpt>
      <trkpt lat="44.614776" lon="-1.071624">
        <ele>11.0</ele>
        <time>2020-08-13T00:01:13Z</time>
      </trkpt>
      <trkpt lat="44.615174" lon="-1.067731">
        <ele>12.4</ele>
        <time>2020-08-13T00:01:25Z</time>
      </trkpt>
      <trkpt lat="44.615267" lon="-1.066235">
        <ele>13.0</ele>
        <time>2020-08-13T00:01:29Z</time>
      </trkpt>
      <trkpt lat="44.61534" lon="-1.064334">
        <ele>12.2</ele>
        <time>2020-08-13T00:01:35Z</time>
      </trkpt>
      <trkpt lat="44.615336" lon="-1.062852">
        <ele>12.2</ele>
        <time>2020-08-13T00:01:39Z</time>
      </trkpt>
      <trkpt lat="44.615281" lon="-1.06091">
        <ele>13.8</ele>
        <time>2020-08-13T00:01:45Z</time>
      </trkpt>
      <trkpt lat="44.615138" lon="-1.05873">
        <ele>13.6</ele>
        <time>2020-08-13T00:01:51Z</time>
      </trkpt>
      <trkpt lat="44.615037" lon="-1.057591">
        <ele>13.0</ele>
        <time>2020-08-13T00:01:54Z</time>
      </trkpt>
      <trkpt lat="44.61486" lon="-1.055863">
        <ele>11.2</ele>
        <time>2020-08-13T00:01:59Z</time>
      </trkpt>
      <trkpt lat="44.614228" lon="-1.050244">
        <ele>10.4</ele>
        <time>2020-08-13T00:02:16Z</time>
      </trkpt>
      <trkpt lat="44.613935" lon="-1.047478">
        <ele>12.0</ele>
        <time>2020-08-13T00:02:24Z</time>
      </trkpt>
      <trkpt lat="44.613489" lon="-1.043736">
        <ele>13.0</ele>
        <time>2020-08-13T00:02:35Z</time>
      </trkpt>
      <trkpt lat="44.613216" lon="-1.040768">
        <ele>14.4</ele>
        <time>2020-08-13T00:02:44Z</time>
      </trkpt>
      <trkpt lat="44.612746" lon="-1.036974">
        <ele>13.6</ele>
        <time>2020-08-13T00:02:55Z</time>
      </trkpt>
      <trkpt lat="44.612514" lon="-1.034889">
        <ele>11.6</ele>
        <time>2020-08-13T00:03:01Z</time>
      </trkpt>
      <trkpt lat="44.61208" lon="-1.030577">
        <ele>11.6</ele>
        <time>2020-08-13T00:03:14Z</time>
      </trkpt>
      <trkpt lat="44.611805" lon="-1.025842">
        <ele>12.0</ele>
        <time>2020-08-13T00:03:28Z</time>
      </trkpt>
      <trkpt lat="44.611683" lon="-1.022308">
        <ele>11.0</ele>
        <time>2020-08-13T00:03:38Z</time>
      </trkpt>
      <trkpt lat="44.611628" lon="-1.019096">
        <ele>9.8</ele>
        <time>2020-08-13T00:03:47Z</time>
      </trkpt>
      <trkpt lat="44.611671" lon="-1.01532">
        <ele>11.2</ele>
        <time>2020-08-13T00:03:58Z</time>
      </trkpt>
      <trkpt lat="44.611817" lon="-1.011646">
        <ele>10.8</ele>
        <time>2020-08-13T00:04:09Z</time>
      </trkpt>
      <trkpt lat="44.612012" lon="-1.008419">
        <ele>10.4</ele>
        <time>2020-08-13T00:04:18Z</time>
      </trkpt>
      <trkpt lat="44.612262" lon="-1.005611">
        <ele>10.8</ele>
        <time>2020-08-13T00:04:27Z</time>
      </trkpt>
      <trkpt lat="44.612691" lon="-1.001792">
        <ele>11.2</ele>
        <time>2020-08-13T00:04:38Z</time>
      </trkpt>
      <trkpt lat="44.613326" lon="-0.997226">
        <ele>12.8</ele>
        <time>2020-08-13T00:04:51Z</time>
      </trkpt>
      <trkpt lat="44.613858" lon="-0.994231">
        <ele>11.2</ele>
        <time>2020-08-13T00:05:00Z</time>
      </trkpt>
      <trkpt lat="44.614298" lon="-0.991991">
        <ele>10.6</ele>
        <time>2020-08-13T00:05:07Z</time>
      </trkpt>
      <trkpt lat="44.615074" lon="-0.988343">
        <ele>10.2</ele>
        <time>2020-08-13T00:05:18Z</time>
      </trkpt>
      <trkpt lat="44.615862" lon="-0.985098">
        <ele>9.4</ele>
        <time>2020-08-13T00:05:28Z</time>
      </trkpt>
      <trkpt lat="44.616766" lon="-0.981622">
        <ele>7.0</ele>
        <time>2020-08-13T00:05:39Z</time>
      </trkpt>
      <trkpt lat="44.617395" lon="-0.979391">
        <ele>4.8</ele>
        <time>2020-08-13T00:05:46Z</time>
      </trkpt>
      <trkpt lat="44.618018" lon="-0.977382">
        <ele>6.8</ele>
        <time>2020-08-13T00:05:52Z</time>
      </trkpt>
      <trkpt lat="44.619375" lon="-0.973451">
        <ele>6.2</ele>
        <time>2020-08-13T00:06:05Z</time>
      </trkpt>
      <trkpt lat="44.620285" lon="-0.9711">
        <ele>7.4</ele>
        <time>2020-08-13T00:06:13Z</time>
      </trkpt>
      <trkpt lat="44.621373" lon="-0.968413">
        <ele>10.0</ele>
        <time>2020-08-13T00:06:22Z</time>
      </trkpt>
      <trkpt lat="44.622497" lon="-0.965718">
        <ele>10.0</ele>
        <time>2020-08-13T00:06:31Z</time>
      </trkpt>
      <trkpt lat="44.624028" lon="-0.961912">
        <ele>11.0</ele>
        <time>2020-08-13T00:06:44Z</time>
      </trkpt>
      <trkpt lat="44.624556" lon="-0.96052">
        <ele>9.2</ele>
        <time>2020-08-13T00:06:54Z</time>
      </trkpt>
      <trkpt lat="44.624744" lon="-0.959962">
        <ele>10.8</ele>
        <time>2020-08-13T00:06:58Z</time>
      </trkpt>
      <trkpt lat="44.624877" lon="-0.95949">
        <ele>10.8</ele>
        <time>2020-08-13T00:07:01Z</time>
      </trkpt>
      <trkpt lat="44.624931" lon="-0.95912">
        <ele>13.4</ele>
        <time>2020-08-13T00:07:04Z</time>
      </trkpt>
      <trkpt lat="44.624908" lon="-0.958766">
        <ele>13.4</ele>
        <time>2020-08-13T00:07:06Z</time>
      </trkpt>
      <trkpt lat="44.624858" lon="-0.958471">
        <ele>13.4</ele>
        <time>2020-08-13T00:07:08Z</time>
      </trkpt>
      <trkpt lat="44.624664" lon="-0.957881">
        <ele>14.6</ele>
        <time>2020-08-13T00:07:12Z</time>
      </trkpt>
      <trkpt lat="44.624612" lon="-0.957618">
        <ele>14.6</ele>
        <time>2020-08-13T00:07:14Z</time>
      </trkpt>
      <trkpt lat="44.624629" lon="-0.957322">
        <ele>15.6</ele>
        <time>2020-08-13T00:07:16Z</time>
      </trkpt>
      <trkpt lat="44.624663" lon="-0.957201">
        <ele>15.6</ele>
        <time>2020-08-13T00:07:17Z</time>
      </trkpt>
      <trkpt lat="44.624806" lon="-0.956927">
        <ele>15.6</ele>
        <time>2020-08-13T00:07:19Z</time>
      </trkpt>
      <trkpt lat="44.624981" lon="-0.956722">
        <ele>15.6</ele>
        <time>2020-08-13T00:07:21Z</time>
      </trkpt>
      <trkpt lat="44.625041" lon="-0.956612">
        <ele>12.8</ele>
        <time>2020-08-13T00:07:22Z</time>
      </trkpt>
      <trkpt lat="44.625087" lon="-0.95657">
        <ele>12.8</ele>
        <time>2020-08-13T00:07:23Z</time>
      </trkpt>
      <trkpt lat="44.625069" lon="-0.956509">
        <ele>12.8</ele>
        <time>2020-08-13T00:07:23Z</time>
      </trkpt>
      <trkpt lat="44.625079" lon="-0.956378">
        <ele>12.8</ele>
        <time>2020-08-13T00:07:24Z</time>
      </trkpt>
      <trkpt lat="44.625123" lon="-0.956305">
        <ele>12.8</ele>
        <time>2020-08-13T00:07:24Z</time>
      </trkpt>
      <trkpt lat="44.625144" lon="-0.956283">
        <ele>12.8</ele>
        <time>2020-08-13T00:07:24Z</time>
      </trkpt>
      <trkpt lat="44.625237" lon="-0.956265">
        <ele>12.8</ele>
        <time>2020-08-13T00:07:25Z</time>
      </trkpt>
      <trkpt lat="44.625318" lon="-0.956331">
        <ele>12.8</ele>
        <time>2020-08-13T00:07:25Z</time>
      </trkpt>
      <trkpt lat="44.625353" lon="-0.956453">
        <ele>12.8</ele>
        <time>2020-08-13T00:07:26Z</time>
      </trkpt>
      <trkpt lat="44.625327" lon="-0.956579">
        <ele>12.8</ele>
        <time>2020-08-13T00:07:27Z</time>
      </trkpt>
      <trkpt lat="44.625294" lon="-0.956626">
        <ele>12.8</ele>
        <time>2020-08-13T00:07:27Z</time>
      </trkpt>
      <trkpt lat="44.625621" lon="-0.957188">
        <ele>13.6</ele>
        <time>2020-08-13T00:07:30Z</time>
      </trkpt>
      <trkpt lat="44.626234" lon="-0.958324">
        <ele>12.2</ele>
        <time>2020-08-13T00:07:37Z</time>
      </trkpt>
      <trkpt lat="44.6266" lon="-0.958904">
        <ele>12.8</ele>
        <time>2020-08-13T00:07:40Z</time>
      </trkpt>
      <trkpt lat="44.626849" lon="-0.959253">
        <ele>13.4</ele>
        <time>2020-08-13T00:07:42Z</time>
      </trkpt>
      <trkpt lat="44.62739" lon="-0.959882">
        <ele>13.4</ele>
        <time>2020-08-13T00:07:47Z</time>
      </trkpt>
      <trkpt lat="44.627443" lon="-0.959815">
        <ele>13.4</ele>
        <time>2020-08-13T00:07:47Z</time>
      </trkpt>
      <trkpt lat="44.627494" lon="-0.959789">
        <ele>13.4</ele>
        <time>2020-08-13T00:07:48Z</time>
      </trkpt>
      <trkpt lat="44.627548" lon="-0.959788">
        <ele>12.0</ele>
        <time>2020-08-13T00:07:48Z</time>
      </trkpt>
      <trkpt lat="44.62762" lon="-0.959832">
        <ele>12.0</ele>
        <time>2020-08-13T00:07:49Z</time>
      </trkpt>
      <trkpt lat="44.627675" lon="-0.959917">
        <ele>12.0</ele>
        <time>2020-08-13T00:07:50Z</time>
      </trkpt>
      <trkpt lat="44.627691" lon="-0.95999">
        <ele>12.0</ele>
        <time>2020-08-13T00:07:50Z</time>
      </trkpt>
      <trkpt lat="44.62769" lon="-0.960066">
        <ele>11.6</ele>
        <time>2020-08-13T00:07:50Z</time>
      </trkpt>
      <trkpt lat="44.627654" lon="-0.960168">
        <ele>11.6</ele>
        <time>2020-08-13T00:07:51Z</time>
      </trkpt>
      <trkpt lat="44.628269" lon="-0.960748">
        <ele>11.6</ele>
        <time>2020-08-13T00:07:57Z</time>
      </trkpt>
      <trkpt lat="44.628393" lon="-0.960842">
        <ele>11.8</ele>
        <time>2020-08-13T00:07:58Z</time>
      </trkpt>
      <trkpt lat="44.62864" lon="-0.960983">
        <ele>11.8</ele>
        <time>2020-08-13T00:08:00Z</time>
      </trkpt>
      <trkpt lat="44.628901" lon="-0.961058">
        <ele>11.8</ele>
        <time>2020-08-13T00:08:02Z</time>
      </trkpt>
      <trkpt lat="44.629157" lon="-0.96107">
        <ele>11.8</ele>
        <time>2020-08-13T00:08:04Z</time>
      </trkpt>
      <trkpt lat="44.630826" lon="-0.961">
        <ele>11.8</ele>
        <time>2020-08-13T00:08:18Z</time>
      </trkpt>
      <trkpt lat="44.631048" lon="-0.961028">
        <ele>10.4</ele>
        <time>2020-08-13T00:08:20Z</time>
      </trkpt>
      <trkpt lat="44.63127" lon="-0.961097">
        <ele>10.4</ele>
        <time>2020-08-13T00:08:22Z</time>
      </trkpt>
      <trkpt lat="44.63139" lon="-0.961162">
        <ele>10.4</ele>
        <time>2020-08-13T00:08:23Z</time>
      </trkpt>
      <trkpt lat="44.631891" lon="-0.961564">
        <ele>11.4</ele>
        <time>2020-08-13T00:08:27Z</time>
      </trkpt>
      <trkpt lat="44.632145" lon="-0.961744">
        <ele>12.0</ele>
        <time>2020-08-13T00:08:30Z</time>
      </trkpt>
      <trkpt lat="44.63234" lon="-0.961852">
        <ele>12.0</ele>
        <time>2020-08-13T00:08:31Z</time>
      </trkpt>
      <trkpt lat="44.63252" lon="-0.961911">
        <ele>13.0</ele>
        <time>2020-08-13T00:08:33Z</time>
      </trkpt>
      <trkpt lat="44.632654" lon="-0.961989">
        <ele>13.0</ele>
        <time>2020-08-13T00:08:34Z</time>
      </trkpt>
      <trkpt lat="44.63283" lon="-0.962006">
        <ele>13.0</ele>
        <time>2020-08-13T00:08:35Z</time>
      </trkpt>
      <trkpt lat="44.632913" lon="-0.961938">
        <ele>13.0</ele>
        <time>2020-08-13T00:08:37Z</time>
      </trkpt>
      <trkpt lat="44.632997" lon="-0.961925">
        <ele>13.0</ele>
        <time>2020-08-13T00:08:38Z</time>
      </trkpt>
      <trkpt lat="44.633087" lon="-0.961967">
        <ele>13.0</ele>
        <time>2020-08-13T00:08:39Z</time>
      </trkpt>
      <trkpt lat="44.633145" lon="-0.962031">
        <ele>13.0</ele>
        <time>2020-08-13T00:08:40Z</time>
      </trkpt>
      <trkpt lat="44.633183" lon="-0.962119">
        <ele>13.0</ele>
        <time>2020-08-13T00:08:41Z</time>
      </trkpt>
      <trkpt lat="44.633197" lon="-0.962219">
        <ele>13.0</ele>
        <time>2020-08-13T00:08:42Z</time>
      </trkpt>
      <trkpt lat="44.633188" lon="-0.96232">
        <ele>13.0</ele>
        <time>2020-08-13T00:08:43Z</time>
      </trkpt>
      <trkpt lat="44.633156" lon="-0.962412">
        <ele>13.0</ele>
        <time>2020-08-13T00:08:44Z</time>
      </trkpt>
      <trkpt lat="44.633142" lon="-0.962523">
        <ele>12.8</ele>
        <time>2020-08-13T00:08:45Z</time>
      </trkpt>
      <trkpt lat="44.633145" lon="-0.962625">
        <ele>12.8</ele>
        <time>2020-08-13T00:08:46Z</time>
      </trkpt>
      <trkpt lat="44.633188" lon="-0.962761">
        <ele>12.8</ele>
        <time>2020-08-13T00:08:47Z</time>
      </trkpt>
      <trkpt lat="44.633241" lon="-0.962865">
        <ele>12.8</ele>
        <time>2020-08-13T00:08:48Z</time>
      </trkpt>
      <trkpt lat="44.635893" lon="-0.965334">
        <ele>11.8</ele>
        <time>2020-08-13T00:09:30Z</time>
      </trkpt>
      <trkpt lat="44.636051" lon="-0.965497">
        <ele>11.8</ele>
        <time>2020-08-13T00:09:33Z</time>
      </trkpt>
      <trkpt lat="44.636301" lon="-0.965799">
        <ele>11.8</ele>
        <time>2020-08-13T00:09:37Z</time>
      </trkpt>
      <trkpt lat="44.636781" lon="-0.966456">
        <ele>12.4</ele>
        <time>2020-08-13T00:09:46Z</time>
      </trkpt>
      <trkpt lat="44.637005" lon="-0.966829">
        <ele>11.6</ele>
        <time>2020-08-13T00:09:50Z</time>
      </trkpt>
      <trkpt lat="44.637296" lon="-0.967385">
        <ele>11.6</ele>
        <time>2020-08-13T00:09:57Z</time>
      </trkpt>
      <trkpt lat="44.637499" lon="-0.967803">
        <ele>10.8</ele>
        <time>2020-08-13T00:10:02Z</time>
      </trkpt>
      <trkpt lat="44.637552" lon="-0.967957">
        <ele>11.0</ele>
        <time>2020-08-13T00:10:03Z</time>
      </trkpt>
      <trkpt lat="44.637653" lon="-0.968123">
        <ele>11.0</ele>
        <time>2020-08-13T00:10:05Z</time>
      </trkpt>
      <trkpt lat="44.637714" lon="-0.968173">
        <ele>11.0</ele>
        <time>2020-08-13T00:10:06Z</time>
      </trkpt>
      <trkpt lat="44.637769" lon="-0.968204">
        <ele>11.0</ele>
        <time>2020-08-13T00:10:07Z</time>
      </trkpt>
      <trkpt lat="44.637812" lon="-0.968277">
        <ele>11.0</ele>
        <time>2020-08-13T00:10:08Z</time>
      </trkpt>
      <trkpt lat="44.637822" lon="-0.968372">
        <ele>11.0</ele>
        <time>2020-08-13T00:10:09Z</time>
      </trkpt>
      <trkpt lat="44.637881" lon="-0.968498">
        <ele>11.0</ele>
        <time>2020-08-13T00:10:10Z</time>
      </trkpt>
      <trkpt lat="44.637908" lon="-0.968627">
        <ele>11.0</ele>
        <time>2020-08-13T00:10:12Z</time>
      </trkpt>
      <trkpt lat="44.638394" lon="-0.969578">
        <ele>11.6</ele>
        <time>2020-08-13T00:10:23Z</time>
      </trkpt>
      <trkpt lat="44.638736" lon="-0.970333">
        <ele>10.8</ele>
        <time>2020-08-13T00:10:32Z</time>
      </trkpt>
      <trkpt lat="44.639445" lon="-0.97176">
        <ele>12.6</ele>
        <time>2020-08-13T00:10:49Z</time>
      </trkpt>
      <trkpt lat="44.640046" lon="-0.973017">
        <ele>12.0</ele>
        <time>2020-08-13T00:11:03Z</time>
      </trkpt>
      <trkpt lat="44.640128" lon="-0.972994">
        <ele>12.0</ele>
        <time>2020-08-13T00:11:04Z</time>
      </trkpt>
      <trkpt lat="44.640179" lon="-0.973039">
        <ele>12.0</ele>
        <time>2020-08-13T00:11:05Z</time>
      </trkpt>
      <trkpt lat="44.640195" lon="-0.973078">
        <ele>12.0</ele>
        <time>2020-08-13T00:11:06Z</time>
      </trkpt>
      <trkpt lat="44.640196" lon="-0.973166">
        <ele>12.0</ele>
        <time>2020-08-13T00:11:06Z</time>
      </trkpt>
      <trkpt lat="44.640158" lon="-0.973237">
        <ele>12.0</ele>
        <time>2020-08-13T00:11:07Z</time>
      </trkpt>
      <trkpt lat="44.641503" lon="-0.975986">
        <ele>11.8</ele>
        <time>2020-08-13T00:11:38Z</time>
      </trkpt>
      <trkpt lat="44.641527" lon="-0.975969">
        <ele>11.8</ele>
        <time>2020-08-13T00:11:38Z</time>
      </trkpt>
      <trkpt lat="44.641605" lon="-0.975983">
        <ele>11.8</ele>
        <time>2020-08-13T00:11:39Z</time>
      </trkpt>
      <trkpt lat="44.641626" lon="-0.976008">
        <ele>11.8</ele>
        <time>2020-08-13T00:11:39Z</time>
      </trkpt>
      <trkpt lat="44.641648" lon="-0.976086">
        <ele>11.8</ele>
        <time>2020-08-13T00:11:40Z</time>
      </trkpt>
      <trkpt lat="44.641645" lon="-0.976128">
        <ele>11.8</ele>
        <time>2020-08-13T00:11:41Z</time>
      </trkpt>
      <trkpt lat="44.64161" lon="-0.976197">
        <ele>11.8</ele>
        <time>2020-08-13T00:11:41Z</time>
      </trkpt>
      <trkpt lat="44.641984" lon="-0.976901">
        <ele>12.0</ele>
        <time>2020-08-13T00:11:50Z</time>
      </trkpt>
      <trkpt lat="44.642029" lon="-0.977075">
        <ele>12.0</ele>
        <time>2020-08-13T00:11:51Z</time>
      </trkpt>
      <trkpt lat="44.642029" lon="-0.977075">
        <ele>12.0</ele>
        <time>2020-08-13T00:11:51Z</time>
      </trkpt>
      <trkpt lat="44.642082" lon="-0.977114">
        <ele>12.0</ele>
        <time>2020-08-13T00:11:52Z</time>
      </trkpt>
      <trkpt lat="44.642288" lon="-0.977477">
        <ele>12.0</ele>
        <time>2020-08-13T00:11:56Z</time>
      </trkpt>
      <trkpt lat="44.642411" lon="-0.977645">
        <ele>12.6</ele>
        <time>2020-08-13T00:11:59Z</time>
      </trkpt>
      <trkpt lat="44.642507" lon="-0.977739">
        <ele>12.2</ele>
        <time>2020-08-13T00:12:00Z</time>
      </trkpt>
      <trkpt lat="44.64275" lon="-0.977905">
        <ele>12.2</ele>
        <time>2020-08-13T00:12:04Z</time>
      </trkpt>
      <trkpt lat="44.642796" lon="-0.978031">
        <ele>12.2</ele>
        <time>2020-08-13T00:12:05Z</time>
      </trkpt>
      <trkpt lat="44.642949" lon="-0.978113">
        <ele>12.2</ele>
        <time>2020-08-13T00:12:07Z</time>
      </trkpt>
      <trkpt lat="44.64399" lon="-0.978317">
        <ele>11.6</ele>
        <time>2020-08-13T00:12:21Z</time>
      </trkpt>
      <trkpt lat="44.644127" lon="-0.978412">
        <ele>12.0</ele>
        <time>2020-08-13T00:12:23Z</time>
      </trkpt>
      <trkpt lat="44.644195" lon="-0.978363">
        <ele>12.0</ele>
        <time>2020-08-13T00:12:24Z</time>
      </trkpt>
      <trkpt lat="44.644258" lon="-0.978413">
        <ele>12.0</ele>
        <time>2020-08-13T00:12:25Z</time>
      </trkpt>
      <trkpt lat="44.644268" lon="-0.978445">
        <ele>12.0</ele>
        <time>2020-08-13T00:12:25Z</time>
      </trkpt>
      <trkpt lat="44.644271" lon="-0.97848">
        <ele>12.0</ele>
        <time>2020-08-13T00:12:26Z</time>
      </trkpt>
      <trkpt lat="44.644233" lon="-0.978567">
        <ele>12.0</ele>
        <time>2020-08-13T00:12:27Z</time>
      </trkpt>
      <trkpt lat="44.64421" lon="-0.978581">
        <ele>12.0</ele>
        <time>2020-08-13T00:12:27Z</time>
      </trkpt>
      <trkpt lat="44.644216" lon="-0.978715">
        <ele>12.0</ele>
        <time>2020-08-13T00:12:28Z</time>
      </trkpt>
      <trkpt lat="44.644263" lon="-0.978946">
        <ele>12.0</ele>
        <time>2020-08-13T00:12:30Z</time>
      </trkpt>
      <trkpt lat="44.644914" lon="-0.980892">
        <ele>12.8</ele>
        <time>2020-08-13T00:12:49Z</time>
      </trkpt>
      <trkpt lat="44.644963" lon="-0.981222">
        <ele>12.8</ele>
        <time>2020-08-13T00:12:52Z</time>
      </trkpt>
      <trkpt lat="44.645015" lon="-0.982089">
        <ele>12.2</ele>
        <time>2020-08-13T00:13:00Z</time>
      </trkpt>
      <trkpt lat="44.645058" lon="-0.982415">
        <ele>12.2</ele>
        <time>2020-08-13T00:13:03Z</time>
      </trkpt>
      <trkpt lat="44.645114" lon="-0.982597">
        <ele>10.6</ele>
        <time>2020-08-13T00:13:04Z</time>
      </trkpt>
      <trkpt lat="44.645203" lon="-0.982777">
        <ele>10.6</ele>
        <time>2020-08-13T00:13:06Z</time>
      </trkpt>
      <trkpt lat="44.645326" lon="-0.982907">
        <ele>10.6</ele>
        <time>2020-08-13T00:13:08Z</time>
      </trkpt>
      <trkpt lat="44.645482" lon="-0.982985">
        <ele>10.6</ele>
        <time>2020-08-13T00:13:10Z</time>
      </trkpt>
      <trkpt lat="44.645678" lon="-0.983015">
        <ele>10.6</ele>
        <time>2020-08-13T00:13:13Z</time>
      </trkpt>
      <trkpt lat="44.64654" lon="-0.982901">
        <ele>10.2</ele>
        <time>2020-08-13T00:13:23Z</time>
      </trkpt>
      <trkpt lat="44.646634" lon="-0.982907">
        <ele>10.2</ele>
        <time>2020-08-13T00:13:25Z</time>
      </trkpt>
      <trkpt lat="44.646917" lon="-0.982984">
        <ele>10.2</ele>
        <time>2020-08-13T00:13:28Z</time>
      </trkpt>
      <trkpt lat="44.657412" lon="-0.987871">
        <ele>12.8</ele>
        <time>2020-08-13T00:15:45Z</time>
      </trkpt>
      <trkpt lat="44.657758" lon="-0.988051">
        <ele>11.8</ele>
        <time>2020-08-13T00:15:50Z</time>
      </trkpt>
      <trkpt lat="44.657981" lon="-0.988193">
        <ele>11.8</ele>
        <time>2020-08-13T00:15:53Z</time>
      </trkpt>
      <trkpt lat="44.658389" lon="-0.98852">
        <ele>10.2</ele>
        <time>2020-08-13T00:15:59Z</time>
      </trkpt>
      <trkpt lat="44.662597" lon="-0.992188">
        <ele>10.4</ele>
        <time>2020-08-13T00:17:00Z</time>
      </trkpt>
      <trkpt lat="44.662619" lon="-0.992148">
        <ele>10.4</ele>
        <time>2020-08-13T00:17:00Z</time>
      </trkpt>
      <trkpt lat="44.662684" lon="-0.992105">
        <ele>10.4</ele>
        <time>2020-08-13T00:17:01Z</time>
      </trkpt>
      <trkpt lat="44.662751" lon="-0.992121">
        <ele>10.4</ele>
        <time>2020-08-13T00:17:02Z</time>
      </trkpt>
      <trkpt lat="44.662799" lon="-0.992182">
        <ele>10.4</ele>
        <time>2020-08-13T00:17:02Z</time>
      </trkpt>
      <trkpt lat="44.662813" lon="-0.992225">
        <ele>10.4</ele>
        <time>2020-08-13T00:17:03Z</time>
      </trkpt>
      <trkpt lat="44.662812" lon="-0.992317">
        <ele>10.4</ele>
        <time>2020-08-13T00:17:03Z</time>
      </trkpt>
      <trkpt lat="44.662798" lon="-0.992359">
        <ele>10.4</ele>
        <time>2020-08-13T00:17:03Z</time>
      </trkpt>
      <trkpt lat="44.66442" lon="-0.99378">
        <ele>8.4</ele>
        <time>2020-08-13T00:17:20Z</time>
      </trkpt>
      <trkpt lat="44.66484" lon="-0.994229">
        <ele>8.0</ele>
        <time>2020-08-13T00:17:25Z</time>
      </trkpt>
      <trkpt lat="44.664968" lon="-0.994406">
        <ele>8.0</ele>
        <time>2020-08-13T00:17:26Z</time>
      </trkpt>
      <trkpt lat="44.665245" lon="-0.994896">
        <ele>8.4</ele>
        <time>2020-08-13T00:17:30Z</time>
      </trkpt>
      <trkpt lat="44.665343" lon="-0.995114">
        <ele>8.6</ele>
        <time>2020-08-13T00:17:32Z</time>
      </trkpt>
      <trkpt lat="44.666072" lon="-0.997039">
        <ele>8.4</ele>
        <time>2020-08-13T00:17:45Z</time>
      </trkpt>
      <trkpt lat="44.666212" lon="-0.997319">
        <ele>8.4</ele>
        <time>2020-08-13T00:17:47Z</time>
      </trkpt>
      <trkpt lat="44.666446" lon="-0.997642">
        <ele>8.4</ele>
        <time>2020-08-13T00:17:50Z</time>
      </trkpt>
      <trkpt lat="44.66669" lon="-0.997881">
        <ele>8.6</ele>
        <time>2020-08-13T00:17:53Z</time>
      </trkpt>
      <trkpt lat="44.66683" lon="-0.997987">
        <ele>8.6</ele>
        <time>2020-08-13T00:17:54Z</time>
      </trkpt>
      <trkpt lat="44.666935" lon="-0.998055">
        <ele>8.6</ele>
        <time>2020-08-13T00:17:55Z</time>
      </trkpt>
      <trkpt lat="44.667231" lon="-0.998183">
        <ele>8.6</ele>
        <time>2020-08-13T00:17:58Z</time>
      </trkpt>
      <trkpt lat="44.667513" lon="-0.998238">
        <ele>10.8</ele>
        <time>2020-08-13T00:18:00Z</time>
      </trkpt>
      <trkpt lat="44.670646" lon="-0.998196">
        <ele>13.4</ele>
        <time>2020-08-13T00:18:28Z</time>
      </trkpt>
      <trkpt lat="44.670874" lon="-0.9982">
        <ele>11.4</ele>
        <time>2020-08-13T00:18:30Z</time>
      </trkpt>
      <trkpt lat="44.671175" lon="-0.998238">
        <ele>11.4</ele>
        <time>2020-08-13T00:18:32Z</time>
      </trkpt>
      <trkpt lat="44.671375" lon="-0.998286">
        <ele>11.4</ele>
        <time>2020-08-13T00:18:34Z</time>
      </trkpt>
      <trkpt lat="44.671694" lon="-0.998407">
        <ele>10.0</ele>
        <time>2020-08-13T00:18:37Z</time>
      </trkpt>
      <trkpt lat="44.671943" lon="-0.998546">
        <ele>10.0</ele>
        <time>2020-08-13T00:18:39Z</time>
      </trkpt>
      <trkpt lat="44.672183" lon="-0.998753">
        <ele>10.0</ele>
        <time>2020-08-13T00:18:42Z</time>
      </trkpt>
      <trkpt lat="44.67229" lon="-0.998817">
        <ele>10.0</ele>
        <time>2020-08-13T00:18:43Z</time>
      </trkpt>
      <trkpt lat="44.672368" lon="-0.998791">
        <ele>10.0</ele>
        <time>2020-08-13T00:18:44Z</time>
      </trkpt>
      <trkpt lat="44.672391" lon="-0.998807">
        <ele>10.0</ele>
        <time>2020-08-13T00:18:44Z</time>
      </trkpt>
      <trkpt lat="44.672428" lon="-0.998901">
        <ele>10.0</ele>
        <time>2020-08-13T00:18:45Z</time>
      </trkpt>
      <trkpt lat="44.672412" lon="-0.998971">
        <ele>10.0</ele>
        <time>2020-08-13T00:18:45Z</time>
      </trkpt>
      <trkpt lat="44.672508" lon="-0.999062">
        <ele>9.2</ele>
        <time>2020-08-13T00:18:46Z</time>
      </trkpt>
      <trkpt lat="44.672844" lon="-0.999516">
        <ele>8.4</ele>
        <time>2020-08-13T00:18:51Z</time>
      </trkpt>
      <trkpt lat="44.678252" lon="-1.007539">
        <ele>7.8</ele>
        <time>2020-08-13T00:20:09Z</time>
      </trkpt>
      <trkpt lat="44.678459" lon="-1.007856">
        <ele>6.4</ele>
        <time>2020-08-13T00:20:12Z</time>
      </trkpt>
      <trkpt lat="44.678536" lon="-1.008051">
        <ele>6.4</ele>
        <time>2020-08-13T00:20:13Z</time>
      </trkpt>
      <trkpt lat="44.678564" lon="-1.008031">
        <ele>6.4</ele>
        <time>2020-08-13T00:20:14Z</time>
      </trkpt>
      <trkpt lat="44.678626" lon="-1.008031">
        <ele>6.4</ele>
        <time>2020-08-13T00:20:15Z</time>
      </trkpt>
      <trkpt lat="44.678678" lon="-1.008086">
        <ele>6.4</ele>
        <time>2020-08-13T00:20:16Z</time>
      </trkpt>
      <trkpt lat="44.678696" lon="-1.008177">
        <ele>6.4</ele>
        <time>2020-08-13T00:20:17Z</time>
      </trkpt>
      <trkpt lat="44.678689" lon="-1.008219">
        <ele>6.4</ele>
        <time>2020-08-13T00:20:17Z</time>
      </trkpt>
      <trkpt lat="44.678651" lon="-1.008285">
        <ele>6.4</ele>
        <time>2020-08-13T00:20:18Z</time>
      </trkpt>
      <trkpt lat="44.679014" lon="-1.009361">
        <ele>6.0</ele>
        <time>2020-08-13T00:20:30Z</time>
      </trkpt>
      <trkpt lat="44.679249" lon="-1.009697">
        <ele>5.2</ele>
        <time>2020-08-13T00:20:35Z</time>
      </trkpt>
      <trkpt lat="44.679476" lon="-1.009945">
        <ele>5.2</ele>
        <time>2020-08-13T00:20:40Z</time>
      </trkpt>
      <trkpt lat="44.679754" lon="-1.010351">
        <ele>4.4</ele>
        <time>2020-08-13T00:20:45Z</time>
      </trkpt>
      <trkpt lat="44.679992" lon="-1.010772">
        <ele>4.4</ele>
        <time>2020-08-13T00:20:51Z</time>
      </trkpt>
      <trkpt lat="44.680564" lon="-1.012">
        <ele>4.4</ele>
        <time>2020-08-13T00:21:06Z</time>
      </trkpt>
      <trkpt lat="44.680634" lon="-1.012124">
        <ele>4.4</ele>
        <time>2020-08-13T00:21:08Z</time>
      </trkpt>
      <trkpt lat="44.681608" lon="-1.013292">
        <ele>4.2</ele>
        <time>2020-08-13T00:21:27Z</time>
      </trkpt>
      <trkpt lat="44.681626" lon="-1.013264">
        <ele>4.2</ele>
        <time>2020-08-13T00:21:27Z</time>
      </trkpt>
      <trkpt lat="44.681705" lon="-1.013237">
        <ele>4.2</ele>
        <time>2020-08-13T00:21:28Z</time>
      </trkpt>
      <trkpt lat="44.681754" lon="-1.013275">
        <ele>4.2</ele>
        <time>2020-08-13T00:21:29Z</time>
      </trkpt>
      <trkpt lat="44.681779" lon="-1.013348">
        <ele>4.4</ele>
        <time>2020-08-13T00:21:29Z</time>
      </trkpt>
      <trkpt lat="44.681751" lon="-1.01346">
        <ele>4.4</ele>
        <time>2020-08-13T00:21:30Z</time>
      </trkpt>
      <trkpt lat="44.684821" lon="-1.017102">
        <ele>4.2</ele>
        <time>2020-08-13T00:22:08Z</time>
      </trkpt>
      <trkpt lat="44.685026" lon="-1.017327">
        <ele>3.8</ele>
        <time>2020-08-13T00:22:11Z</time>
      </trkpt>
      <trkpt lat="44.686048" lon="-1.018329">
        <ele>4.6</ele>
        <time>2020-08-13T00:22:23Z</time>
      </trkpt>
      <trkpt lat="44.68641" lon="-1.018657">
        <ele>5.0</ele>
        <time>2020-08-13T00:22:27Z</time>
      </trkpt>
      <trkpt lat="44.686784" lon="-1.01894">
        <ele>5.4</ele>
        <time>2020-08-13T00:22:31Z</time>
      </trkpt>
      <trkpt lat="44.687012" lon="-1.019022">
        <ele>5.4</ele>
        <time>2020-08-13T00:22:33Z</time>
      </trkpt>
      <trkpt lat="44.687593" lon="-1.019127">
        <ele>5.6</ele>
        <time>2020-08-13T00:22:39Z</time>
      </trkpt>
      <trkpt lat="44.687753" lon="-1.019214">
        <ele>5.4</ele>
        <time>2020-08-13T00:22:40Z</time>
      </trkpt>
      <trkpt lat="44.688072" lon="-1.019527">
        <ele>5.4</ele>
        <time>2020-08-13T00:22:44Z</time>
      </trkpt>
      <trkpt lat="44.688875" lon="-1.02043">
        <ele>4.2</ele>
        <time>2020-08-13T00:22:54Z</time>
      </trkpt>
      <trkpt lat="44.689185" lon="-1.020684">
        <ele>4.6</ele>
        <time>2020-08-13T00:22:57Z</time>
      </trkpt>
      <trkpt lat="44.689501" lon="-1.020849">
        <ele>5.8</ele>
        <time>2020-08-13T00:23:00Z</time>
      </trkpt>
      <trkpt lat="44.689716" lon="-1.020896">
        <ele>5.8</ele>
        <time>2020-08-13T00:23:02Z</time>
      </trkpt>
      <trkpt lat="44.690297" lon="-1.020916">
        <ele>5.0</ele>
        <time>2020-08-13T00:23:08Z</time>
      </trkpt>
      <trkpt lat="44.69087" lon="-1.020974">
        <ele>5.8</ele>
        <time>2020-08-13T00:23:13Z</time>
      </trkpt>
      <trkpt lat="44.692417" lon="-1.021347">
        <ele>5.6</ele>
        <time>2020-08-13T00:23:29Z</time>
      </trkpt>
      <trkpt lat="44.692429" lon="-1.021297">
        <ele>5.6</ele>
        <time>2020-08-13T00:23:29Z</time>
      </trkpt>
      <trkpt lat="44.692482" lon="-1.021225">
        <ele>5.6</ele>
        <time>2020-08-13T00:23:29Z</time>
      </trkpt>
      <trkpt lat="44.692555" lon="-1.021211">
        <ele>7.6</ele>
        <time>2020-08-13T00:23:29Z</time>
      </trkpt>
      <trkpt lat="44.69262" lon="-1.021261">
        <ele>7.6</ele>
        <time>2020-08-13T00:23:30Z</time>
      </trkpt>
      <trkpt lat="44.692651" lon="-1.021356">
        <ele>7.6</ele>
        <time>2020-08-13T00:23:30Z</time>
      </trkpt>
      <trkpt lat="44.692649" lon="-1.021408">
        <ele>7.6</ele>
        <time>2020-08-13T00:23:30Z</time>
      </trkpt>
      <trkpt lat="44.699038" lon="-1.022968">
        <ele>12.6</ele>
        <time>2020-08-13T00:24:00Z</time>
      </trkpt>
      <trkpt lat="44.699454" lon="-1.023088">
        <ele>10.0</ele>
        <time>2020-08-13T00:24:02Z</time>
      </trkpt>
      <trkpt lat="44.699654" lon="-1.023198">
        <ele>10.0</ele>
        <time>2020-08-13T00:24:03Z</time>
      </trkpt>
      <trkpt lat="44.699873" lon="-1.023401">
        <ele>12.4</ele>
        <time>2020-08-13T00:24:04Z</time>
      </trkpt>
      <trkpt lat="44.700037" lon="-1.023656">
        <ele>10.4</ele>
        <time>2020-08-13T00:24:05Z</time>
      </trkpt>
      <trkpt lat="44.700186" lon="-1.024053">
        <ele>10.4</ele>
        <time>2020-08-13T00:24:07Z</time>
      </trkpt>
      <trkpt lat="44.700593" lon="-1.025471">
        <ele>10.8</ele>
        <time>2020-08-13T00:24:12Z</time>
      </trkpt>
      <trkpt lat="44.700669" lon="-1.025788">
        <ele>10.8</ele>
        <time>2020-08-13T00:24:13Z</time>
      </trkpt>
      <trkpt lat="44.701587" lon="-1.03304">
        <ele>5.0</ele>
        <time>2020-08-13T00:24:37Z</time>
      </trkpt>
      <trkpt lat="44.701623" lon="-1.033035">
        <ele>5.0</ele>
        <time>2020-08-13T00:24:37Z</time>
      </trkpt>
      <trkpt lat="44.701688" lon="-1.033073">
        <ele>5.2</ele>
        <time>2020-08-13T00:24:38Z</time>
      </trkpt>
      <trkpt lat="44.701709" lon="-1.033113">
        <ele>5.2</ele>
        <time>2020-08-13T00:24:39Z</time>
      </trkpt>
      <trkpt lat="44.701721" lon="-1.033161">
        <ele>5.2</ele>
        <time>2020-08-13T00:24:39Z</time>
      </trkpt>
      <trkpt lat="44.701711" lon="-1.03325">
        <ele>5.2</ele>
        <time>2020-08-13T00:24:40Z</time>
      </trkpt>
      <trkpt lat="44.701666" lon="-1.033314">
        <ele>5.0</ele>
        <time>2020-08-13T00:24:41Z</time>
      </trkpt>
      <trkpt lat="44.701636" lon="-1.033329">
        <ele>5.0</ele>
        <time>2020-08-13T00:24:41Z</time>
      </trkpt>
      <trkpt lat="44.701723" lon="-1.033824">
        <ele>5.0</ele>
        <time>2020-08-13T00:24:45Z</time>
      </trkpt>
      <trkpt lat="44.701814" lon="-1.034161">
        <ele>5.0</ele>
        <time>2020-08-13T00:24:48Z</time>
      </trkpt>
      <trkpt lat="44.701981" lon="-1.034596">
        <ele>4.8</ele>
        <time>2020-08-13T00:24:52Z</time>
      </trkpt>
      <trkpt lat="44.702178" lon="-1.034958">
        <ele>4.8</ele>
        <time>2020-08-13T00:24:56Z</time>
      </trkpt>
      <trkpt lat="44.702588" lon="-1.035578">
        <ele>4.8</ele>
        <time>2020-08-13T00:25:03Z</time>
      </trkpt>
      <trkpt lat="44.702945" lon="-1.036202">
        <ele>5.2</ele>
        <time>2020-08-13T00:25:09Z</time>
      </trkpt>
      <trkpt lat="44.703301" lon="-1.036967">
        <ele>4.6</ele>
        <time>2020-08-13T00:25:16Z</time>
      </trkpt>
      <trkpt lat="44.703706" lon="-1.038577">
        <ele>4.2</ele>
        <time>2020-08-13T00:25:30Z</time>
      </trkpt>
      <trkpt lat="44.703785" lon="-1.03859">
        <ele>4.2</ele>
        <time>2020-08-13T00:25:31Z</time>
      </trkpt>
      <trkpt lat="44.703841" lon="-1.03867">
        <ele>4.2</ele>
        <time>2020-08-13T00:25:32Z</time>
      </trkpt>
      <trkpt lat="44.703845" lon="-1.0388">
        <ele>4.2</ele>
        <time>2020-08-13T00:25:33Z</time>
      </trkpt>
      <trkpt lat="44.703783" lon="-1.038897">
        <ele>4.2</ele>
        <time>2020-08-13T00:25:34Z</time>
      </trkpt>
      <trkpt lat="44.704145" lon="-1.040163">
        <ele>3.6</ele>
        <time>2020-08-13T00:25:44Z</time>
      </trkpt>
      <trkpt lat="44.704731" lon="-1.041601">
        <ele>4.6</ele>
        <time>2020-08-13T00:25:56Z</time>
      </trkpt>
      <trkpt lat="44.705489" lon="-1.043392">
        <ele>5.2</ele>
        <time>2020-08-13T00:26:11Z</time>
      </trkpt>
      <trkpt lat="44.70552" lon="-1.043375">
        <ele>5.2</ele>
        <time>2020-08-13T00:26:11Z</time>
      </trkpt>
      <trkpt lat="44.705588" lon="-1.04338">
        <ele>5.2</ele>
        <time>2020-08-13T00:26:12Z</time>
      </trkpt>
      <trkpt lat="44.705636" lon="-1.043426">
        <ele>5.2</ele>
        <time>2020-08-13T00:26:13Z</time>
      </trkpt>
      <trkpt lat="44.705661" lon="-1.043487">
        <ele>5.2</ele>
        <time>2020-08-13T00:26:13Z</time>
      </trkpt>
      <trkpt lat="44.705664" lon="-1.043567">
        <ele>5.2</ele>
        <time>2020-08-13T00:26:14Z</time>
      </trkpt>
      <trkpt lat="44.705611" lon="-1.043677">
        <ele>5.2</ele>
        <time>2020-08-13T00:26:15Z</time>
      </trkpt>
      <trkpt lat="44.706908" lon="-1.046689">
        <ele>7.8</ele>
        <time>2020-08-13T00:26:40Z</time>
      </trkpt>
      <trkpt lat="44.707486" lon="-1.048098">
        <ele>6.6</ele>
        <time>2020-08-13T00:26:52Z</time>
      </trkpt>
      <trkpt lat="44.707655" lon="-1.048464">
        <ele>5.6</ele>
        <time>2020-08-13T00:26:55Z</time>
      </trkpt>
      <trkpt lat="44.710819" lon="-1.053999">
        <ele>3.0</ele>
        <time>2020-08-13T00:27:47Z</time>
      </trkpt>
      <trkpt lat="44.711433" lon="-1.05511">
        <ele>3.0</ele>
        <time>2020-08-13T00:27:57Z</time>
      </trkpt>
      <trkpt lat="44.715862" lon="-1.062949">
        <ele>5.0</ele>
        <time>2020-08-13T00:29:10Z</time>
      </trkpt>
      <trkpt lat="44.71599" lon="-1.063116">
        <ele>5.0</ele>
        <time>2020-08-13T00:29:12Z</time>
      </trkpt>
      <trkpt lat="44.716224" lon="-1.063313">
        <ele>5.0</ele>
        <time>2020-08-13T00:29:15Z</time>
      </trkpt>
      <trkpt lat="44.716538" lon="-1.06352">
        <ele>5.6</ele>
        <time>2020-08-13T00:29:18Z</time>
      </trkpt>
      <trkpt lat="44.717496" lon="-1.064069">
        <ele>6.4</ele>
        <time>2020-08-13T00:29:29Z</time>
      </trkpt>
      <trkpt lat="44.718031" lon="-1.064401">
        <ele>5.8</ele>
        <time>2020-08-13T00:29:35Z</time>
      </trkpt>
      <trkpt lat="44.718722" lon="-1.064872">
        <ele>5.2</ele>
        <time>2020-08-13T00:29:43Z</time>
      </trkpt>
      <trkpt lat="44.723095" lon="-1.067619">
        <ele>8.2</ele>
        <time>2020-08-13T00:30:32Z</time>
      </trkpt>
      <trkpt lat="44.72585" lon="-1.069327">
        <ele>12.6</ele>
        <time>2020-08-13T00:31:02Z</time>
      </trkpt>
      <trkpt lat="44.725868" lon="-1.06929">
        <ele>12.6</ele>
        <time>2020-08-13T00:31:03Z</time>
      </trkpt>
      <trkpt lat="44.725952" lon="-1.069234">
        <ele>12.6</ele>
        <time>2020-08-13T00:31:04Z</time>
      </trkpt>
      <trkpt lat="44.726014" lon="-1.069254">
        <ele>12.6</ele>
        <time>2020-08-13T00:31:04Z</time>
      </trkpt>
      <trkpt lat="44.726061" lon="-1.069314">
        <ele>12.6</ele>
        <time>2020-08-13T00:31:05Z</time>
      </trkpt>
      <trkpt lat="44.726076" lon="-1.069444">
        <ele>12.6</ele>
        <time>2020-08-13T00:31:06Z</time>
      </trkpt>
      <trkpt lat="44.726064" lon="-1.069486">
        <ele>12.6</ele>
        <time>2020-08-13T00:31:06Z</time>
      </trkpt>
      <trkpt lat="44.726302" lon="-1.069572">
        <ele>12.6</ele>
        <time>2020-08-13T00:31:09Z</time>
      </trkpt>
      <trkpt lat="44.727271" lon="-1.070189">
        <ele>9.4</ele>
        <time>2020-08-13T00:31:20Z</time>
      </trkpt>
      <trkpt lat="44.727537" lon="-1.070451">
        <ele>9.6</ele>
        <time>2020-08-13T00:31:23Z</time>
      </trkpt>
      <trkpt lat="44.727751" lon="-1.070739">
        <ele>9.6</ele>
        <time>2020-08-13T00:31:26Z</time>
      </trkpt>
      <trkpt lat="44.728097" lon="-1.071328">
        <ele>8.6</ele>
        <time>2020-08-13T00:31:32Z</time>
      </trkpt>
      <trkpt lat="44.728691" lon="-1.07251">
        <ele>7.8</ele>
        <time>2020-08-13T00:31:42Z</time>
      </trkpt>
      <trkpt lat="44.729072" lon="-1.073225">
        <ele>7.8</ele>
        <time>2020-08-13T00:31:49Z</time>
      </trkpt>
      <trkpt lat="44.730235" lon="-1.075605">
        <ele>7.2</ele>
        <time>2020-08-13T00:32:10Z</time>
      </trkpt>
      <trkpt lat="44.730299" lon="-1.075575">
        <ele>7.2</ele>
        <time>2020-08-13T00:32:10Z</time>
      </trkpt>
      <trkpt lat="44.730339" lon="-1.075607">
        <ele>7.2</ele>
        <time>2020-08-13T00:32:11Z</time>
      </trkpt>
      <trkpt lat="44.730357" lon="-1.075667">
        <ele>7.2</ele>
        <time>2020-08-13T00:32:12Z</time>
      </trkpt>
      <trkpt lat="44.730329" lon="-1.075753">
        <ele>7.2</ele>
        <time>2020-08-13T00:32:12Z</time>
      </trkpt>
      <trkpt lat="44.73156" lon="-1.078115">
        <ele>7.0</ele>
        <time>2020-08-13T00:32:36Z</time>
      </trkpt>
      <trkpt lat="44.732802" lon="-1.080547">
        <ele>6.6</ele>
        <time>2020-08-13T00:33:00Z</time>
      </trkpt>
      <trkpt lat="44.734133" lon="-1.08308">
        <ele>6.8</ele>
        <time>2020-08-13T00:33:26Z</time>
      </trkpt>
      <trkpt lat="44.737513" lon="-1.089731">
        <ele>7.0</ele>
        <time>2020-08-13T00:34:32Z</time>
      </trkpt>
      <trkpt lat="44.739184" lon="-1.092967">
        <ele>5.8</ele>
        <time>2020-08-13T00:35:05Z</time>
      </trkpt>
      <trkpt lat="44.73976" lon="-1.094043">
        <ele>5.2</ele>
        <time>2020-08-13T00:35:16Z</time>
      </trkpt>
      <trkpt lat="44.740372" lon="-1.095273">
        <ele>4.8</ele>
        <time>2020-08-13T00:35:28Z</time>
      </trkpt>
      <trkpt lat="44.740802" lon="-1.096089">
        <ele>4.2</ele>
        <time>2020-08-13T00:35:36Z</time>
      </trkpt>
      <trkpt lat="44.742066" lon="-1.098586">
        <ele>4.4</ele>
        <time>2020-08-13T00:36:01Z</time>
      </trkpt>
      <trkpt lat="44.743612" lon="-1.101572">
        <ele>3.8</ele>
        <time>2020-08-13T00:36:31Z</time>
      </trkpt>
      <trkpt lat="44.744137" lon="-1.102263">
        <ele>3.2</ele>
        <time>2020-08-13T00:36:39Z</time>
      </trkpt>
      <trkpt lat="44.748564" lon="-1.106583">
        <ele>4.8</ele>
        <time>2020-08-13T00:37:41Z</time>
      </trkpt>
      <trkpt lat="44.748601" lon="-1.106552">
        <ele>4.8</ele>
        <time>2020-08-13T00:37:42Z</time>
      </trkpt>
      <trkpt lat="44.748686" lon="-1.106545">
        <ele>4.8</ele>
        <time>2020-08-13T00:37:42Z</time>
      </trkpt>
      <trkpt lat="44.748758" lon="-1.106609">
        <ele>4.8</ele>
        <time>2020-08-13T00:37:43Z</time>
      </trkpt>
      <trkpt lat="44.748791" lon="-1.10672">
        <ele>5.4</ele>
        <time>2020-08-13T00:37:44Z</time>
      </trkpt>
      <trkpt lat="44.74877" lon="-1.106842">
        <ele>5.4</ele>
        <time>2020-08-13T00:37:45Z</time>
      </trkpt>
      <trkpt lat="44.748952" lon="-1.106973">
        <ele>5.4</ele>
        <time>2020-08-13T00:37:46Z</time>
      </trkpt>
      <trkpt lat="44.756013" lon="-1.113859">
        <ele>10.4</ele>
        <time>2020-08-13T00:39:02Z</time>
      </trkpt>
      <trkpt lat="44.756231" lon="-1.114163">
        <ele>10.4</ele>
        <time>2020-08-13T00:39:05Z</time>
      </trkpt>
      <trkpt lat="44.756344" lon="-1.114463">
        <ele>9.8</ele>
        <time>2020-08-13T00:39:07Z</time>
      </trkpt>
      <trkpt lat="44.757609" lon="-1.117938">
        <ele>5.0</ele>
        <time>2020-08-13T00:39:32Z</time>
      </trkpt>
      <trkpt lat="44.757655" lon="-1.118228">
        <ele>5.0</ele>
        <time>2020-08-13T00:39:33Z</time>
      </trkpt>
      <trkpt lat="44.757723" lon="-1.118214">
        <ele>5.0</ele>
        <time>2020-08-13T00:39:34Z</time>
      </trkpt>
      <trkpt lat="44.757781" lon="-1.118264">
        <ele>5.0</ele>
        <time>2020-08-13T00:39:35Z</time>
      </trkpt>
      <trkpt lat="44.757799" lon="-1.118306">
        <ele>5.0</ele>
        <time>2020-08-13T00:39:35Z</time>
      </trkpt>
      <trkpt lat="44.757805" lon="-1.118355">
        <ele>6.2</ele>
        <time>2020-08-13T00:39:36Z</time>
      </trkpt>
      <trkpt lat="44.757782" lon="-1.118446">
        <ele>6.2</ele>
        <time>2020-08-13T00:39:37Z</time>
      </trkpt>
      <trkpt lat="44.757755" lon="-1.118478">
        <ele>6.2</ele>
        <time>2020-08-13T00:39:37Z</time>
      </trkpt>
      <trkpt lat="44.759497" lon="-1.123157">
        <ele>11.4</ele>
        <time>2020-08-13T00:40:20Z</time>
      </trkpt>
      <trkpt lat="44.761542" lon="-1.128878">
        <ele>6.4</ele>
        <time>2020-08-13T00:41:13Z</time>
      </trkpt>
      <trkpt lat="44.761605" lon="-1.128966">
        <ele>6.4</ele>
        <time>2020-08-13T00:41:14Z</time>
      </trkpt>
      <trkpt lat="44.761667" lon="-1.128946">
        <ele>6.8</ele>
        <time>2020-08-13T00:41:15Z</time>
      </trkpt>
      <trkpt lat="44.761729" lon="-1.128956">
        <ele>6.8</ele>
        <time>2020-08-13T00:41:16Z</time>
      </trkpt>
      <trkpt lat="44.761786" lon="-1.128995">
        <ele>6.8</ele>
        <time>2020-08-13T00:41:16Z</time>
      </trkpt>
      <trkpt lat="44.761831" lon="-1.129058">
        <ele>6.8</ele>
        <time>2020-08-13T00:41:17Z</time>
      </trkpt>
      <trkpt lat="44.761857" lon="-1.129135">
        <ele>6.8</ele>
        <time>2020-08-13T00:41:18Z</time>
      </trkpt>
      <trkpt lat="44.761865" lon="-1.129221">
        <ele>7.6</ele>
        <time>2020-08-13T00:41:19Z</time>
      </trkpt>
      <trkpt lat="44.761853" lon="-1.129306">
        <ele>7.6</ele>
        <time>2020-08-13T00:41:20Z</time>
      </trkpt>
      <trkpt lat="44.761822" lon="-1.12938">
        <ele>7.6</ele>
        <time>2020-08-13T00:41:20Z</time>
      </trkpt>
      <trkpt lat="44.761775" lon="-1.129437">
        <ele>7.6</ele>
        <time>2020-08-13T00:41:21Z</time>
      </trkpt>
      <trkpt lat="44.762049" lon="-1.13017">
        <ele>7.4</ele>
        <time>2020-08-13T00:41:29Z</time>
      </trkpt>
      <trkpt lat="44.762221" lon="-1.130712">
        <ele>7.4</ele>
        <time>2020-08-13T00:41:34Z</time>
      </trkpt>
      <trkpt lat="44.762833" lon="-1.132425">
        <ele>5.8</ele>
        <time>2020-08-13T00:41:52Z</time>
      </trkpt>
      <trkpt lat="44.763131" lon="-1.133219">
        <ele>5.4</ele>
        <time>2020-08-13T00:42:00Z</time>
      </trkpt>
      <trkpt lat="44.763275" lon="-1.133491">
        <ele>4.6</ele>
        <time>2020-08-13T00:42:03Z</time>
      </trkpt>
      <trkpt lat="44.763632" lon="-1.134023">
        <ele>4.6</ele>
        <time>2020-08-13T00:42:10Z</time>
      </trkpt>
      <trkpt lat="44.764467" lon="-1.135197">
        <ele>4.2</ele>
        <time>2020-08-13T00:42:25Z</time>
      </trkpt>
      <trkpt lat="44.764954" lon="-1.135937">
        <ele>3.8</ele>
        <time>2020-08-13T00:42:35Z</time>
      </trkpt>
      <trkpt lat="44.765099" lon="-1.136365">
        <ele>4.4</ele>
        <time>2020-08-13T00:42:39Z</time>
      </trkpt>
      <trkpt lat="44.765589" lon="-1.138115">
        <ele>4.0</ele>
        <time>2020-08-13T00:42:57Z</time>
      </trkpt>
      <trkpt lat="44.76563" lon="-1.1382">
        <ele>4.0</ele>
        <time>2020-08-13T00:42:57Z</time>
      </trkpt>
      <trkpt lat="44.765771" lon="-1.138432">
        <ele>4.4</ele>
        <time>2020-08-13T00:43:00Z</time>
      </trkpt>
      <trkpt lat="44.765877" lon="-1.138562">
        <ele>4.2</ele>
        <time>2020-08-13T00:43:02Z</time>
      </trkpt>
      <trkpt lat="44.76636" lon="-1.13893">
        <ele>4.2</ele>
        <time>2020-08-13T00:43:09Z</time>
      </trkpt>
      <trkpt lat="44.766913" lon="-1.139308">
        <ele>5.4</ele>
        <time>2020-08-13T00:43:17Z</time>
      </trkpt>
      <trkpt lat="44.767009" lon="-1.139397">
        <ele>5.4</ele>
        <time>2020-08-13T00:43:19Z</time>
      </trkpt>
      <trkpt lat="44.767052" lon="-1.139476">
        <ele>5.4</ele>
        <time>2020-08-13T00:43:20Z</time>
      </trkpt>
      <trkpt lat="44.767127" lon="-1.139433">
        <ele>5.4</ele>
        <time>2020-08-13T00:43:20Z</time>
      </trkpt>
      <trkpt lat="44.76735" lon="-1.139515">
        <ele>5.4</ele>
        <time>2020-08-13T00:43:23Z</time>
      </trkpt>
      <trkpt lat="44.767499" lon="-1.139534">
        <ele>5.4</ele>
        <time>2020-08-13T00:43:24Z</time>
      </trkpt>
      <trkpt lat="44.767642" lon="-1.139505">
        <ele>5.4</ele>
        <time>2020-08-13T00:43:26Z</time>
      </trkpt>
      <trkpt lat="44.767728" lon="-1.139528">
        <ele>5.4</ele>
        <time>2020-08-13T00:43:27Z</time>
      </trkpt>
      <trkpt lat="44.767775" lon="-1.139569">
        <ele>5.4</ele>
        <time>2020-08-13T00:43:27Z</time>
      </trkpt>
      <trkpt lat="44.767799" lon="-1.139626">
        <ele>5.4</ele>
        <time>2020-08-13T00:43:28Z</time>
      </trkpt>
      <trkpt lat="44.767737" lon="-1.139955">
        <ele>5.4</ele>
        <time>2020-08-13T00:43:30Z</time>
      </trkpt>
      <trkpt lat="44.767677" lon="-1.140123">
        <ele>6.0</ele>
        <time>2020-08-13T00:43:32Z</time>
      </trkpt>
      <trkpt lat="44.769939" lon="-1.14068">
        <ele>5.2</ele>
        <time>2020-08-13T00:44:02Z</time>
      </trkpt>
      <trkpt lat="44.77016" lon="-1.140743">
        <ele>5.2</ele>
        <time>2020-08-13T00:44:05Z</time>
      </trkpt>
      <trkpt lat="44.770379" lon="-1.140847">
        <ele>5.2</ele>
        <time>2020-08-13T00:44:08Z</time>
      </trkpt>
      <trkpt lat="44.770368" lon="-1.140974">
        <ele>5.2</ele>
        <time>2020-08-13T00:44:09Z</time>
      </trkpt>
      <trkpt lat="44.770523" lon="-1.141917">
        <ele>4.8</ele>
        <time>2020-08-13T00:44:17Z</time>
      </trkpt>
      <trkpt lat="44.771413" lon="-1.143867">
        <ele>4.8</ele>
        <time>2020-08-13T00:44:35Z</time>
      </trkpt>
      <trkpt lat="44.77169" lon="-1.144534">
        <ele>4.2</ele>
        <time>2020-08-13T00:44:42Z</time>
      </trkpt>
      <trkpt lat="44.771976" lon="-1.145516">
        <ele>3.8</ele>
        <time>2020-08-13T00:44:50Z</time>
      </trkpt>
      <trkpt lat="44.772109" lon="-1.145829">
        <ele>3.8</ele>
        <time>2020-08-13T00:44:53Z</time>
      </trkpt>
      <trkpt lat="44.772219" lon="-1.145859">
        <ele>3.4</ele>
        <time>2020-08-13T00:44:54Z</time>
      </trkpt>
      <trkpt lat="44.773592" lon="-1.146886">
        <ele>6.4</ele>
        <time>2020-08-13T00:45:12Z</time>
      </trkpt>
      <trkpt lat="44.774184" lon="-1.147601">
        <ele>5.2</ele>
        <time>2020-08-13T00:45:21Z</time>
      </trkpt>
      <trkpt lat="44.774534" lon="-1.148125">
        <ele>5.2</ele>
        <time>2020-08-13T00:45:27Z</time>
      </trkpt>
      <trkpt lat="44.775287" lon="-1.1486">
        <ele>5.2</ele>
        <time>2020-08-13T00:45:36Z</time>
      </trkpt>
      <trkpt lat="44.77638" lon="-1.148895">
        <ele>6.2</ele>
        <time>2020-08-13T00:45:48Z</time>
      </trkpt>
      <trkpt lat="44.777333" lon="-1.150612">
        <ele>4.8</ele>
        <time>2020-08-13T00:46:06Z</time>
      </trkpt>
      <trkpt lat="44.777704" lon="-1.15083">
        <ele>5.4</ele>
        <time>2020-08-13T00:46:11Z</time>
      </trkpt>
      <trkpt lat="44.777704" lon="-1.15083">
        <ele>5.4</ele>
        <time>2020-08-13T00:46:11Z</time>
      </trkpt>
      <trkpt lat="44.778023" lon="-1.150831">
        <ele>6.0</ele>
        <time>2020-08-13T00:46:13Z</time>
      </trkpt>
      <trkpt lat="44.779957" lon="-1.150513">
        <ele>7.2</ele>
        <time>2020-08-13T00:46:29Z</time>
      </trkpt>
      <trkpt lat="44.780482" lon="-1.150571">
        <ele>8.4</ele>
        <time>2020-08-13T00:46:34Z</time>
      </trkpt>
      <trkpt lat="44.781092" lon="-1.151014">
        <ele>7.8</ele>
        <time>2020-08-13T00:46:39Z</time>
      </trkpt>
      <trkpt lat="44.781397" lon="-1.151289">
        <ele>7.8</ele>
        <time>2020-08-13T00:46:42Z</time>
      </trkpt>
      <trkpt lat="44.781594" lon="-1.151511">
        <ele>7.8</ele>
        <time>2020-08-13T00:46:44Z</time>
      </trkpt>
      <trkpt lat="44.781778" lon="-1.151778">
        <ele>6.0</ele>
        <time>2020-08-13T00:46:47Z</time>
      </trkpt>
      <trkpt lat="44.781917" lon="-1.151885">
        <ele>6.0</ele>
        <time>2020-08-13T00:46:48Z</time>
      </trkpt>
      <trkpt lat="44.78206" lon="-1.15194">
        <ele>6.0</ele>
        <time>2020-08-13T00:46:49Z</time>
      </trkpt>
      <trkpt lat="44.782173" lon="-1.151904">
        <ele>6.0</ele>
        <time>2020-08-13T00:46:50Z</time>
      </trkpt>
      <trkpt lat="44.782191" lon="-1.15188">
        <ele>6.0</ele>
        <time>2020-08-13T00:46:50Z</time>
      </trkpt>
      <trkpt lat="44.782315" lon="-1.149211">
        <ele>7.8</ele>
        <time>2020-08-13T00:47:06Z</time>
      </trkpt>
      <trkpt lat="44.782294" lon="-1.148171">
        <ele>8.8</ele>
        <time>2020-08-13T00:47:12Z</time>
      </trkpt>
      <trkpt lat="44.782212" lon="-1.14726">
        <ele>8.6</ele>
        <time>2020-08-13T00:47:18Z</time>
      </trkpt>
      <trkpt lat="44.782075" lon="-1.146627">
        <ele>7.2</ele>
        <time>2020-08-13T00:47:21Z</time>
      </trkpt>
      <trkpt lat="44.782029" lon="-1.14632">
        <ele>7.2</ele>
        <time>2020-08-13T00:47:22Z</time>
      </trkpt>
      <trkpt lat="44.781958" lon="-1.146029">
        <ele>7.2</ele>
        <time>2020-08-13T00:47:24Z</time>
      </trkpt>
      <trkpt lat="44.781885" lon="-1.145807">
        <ele>6.6</ele>
        <time>2020-08-13T00:47:25Z</time>
      </trkpt>
      <trkpt lat="44.781302" lon="-1.144327">
        <ele>8.2</ele>
        <time>2020-08-13T00:47:34Z</time>
      </trkpt>
      <trkpt lat="44.781145" lon="-1.143647">
        <ele>8.0</ele>
        <time>2020-08-13T00:47:37Z</time>
      </trkpt>
      <trkpt lat="44.781109" lon="-1.143584">
        <ele>8.0</ele>
        <time>2020-08-13T00:47:38Z</time>
      </trkpt>
      <trkpt lat="44.781068" lon="-1.143502">
        <ele>8.0</ele>
        <time>2020-08-13T00:47:39Z</time>
      </trkpt>
      <trkpt lat="44.781072" lon="-1.143408">
        <ele>8.0</ele>
        <time>2020-08-13T00:47:40Z</time>
      </trkpt>
      <trkpt lat="44.781114" lon="-1.143339">
        <ele>8.0</ele>
        <time>2020-08-13T00:47:40Z</time>
      </trkpt>
      <trkpt lat="44.781174" lon="-1.143317">
        <ele>8.6</ele>
        <time>2020-08-13T00:47:41Z</time>
      </trkpt>
      <trkpt lat="44.781205" lon="-1.143326">
        <ele>8.6</ele>
        <time>2020-08-13T00:47:42Z</time>
      </trkpt>
      <trkpt lat="44.781358" lon="-1.143411">
        <ele>8.0</ele>
        <time>2020-08-13T00:47:44Z</time>
      </trkpt>
      <trkpt lat="44.781572" lon="-1.143409">
        <ele>8.0</ele>
        <time>2020-08-13T00:47:47Z</time>
      </trkpt>
      <trkpt lat="44.78166" lon="-1.143384">
        <ele>8.0</ele>
        <time>2020-08-13T00:47:48Z</time>
      </trkpt>
      <trkpt lat="44.781725" lon="-1.143329">
        <ele>9.4</ele>
        <time>2020-08-13T00:47:49Z</time>
      </trkpt>
      <trkpt lat="44.781749" lon="-1.143306">
        <ele>9.4</ele>
        <time>2020-08-13T00:47:49Z</time>
      </trkpt>
      <trkpt lat="44.781835" lon="-1.143304">
        <ele>9.4</ele>
        <time>2020-08-13T00:47:50Z</time>
      </trkpt>
      <trkpt lat="44.781974" lon="-1.14339">
        <ele>8.0</ele>
        <time>2020-08-13T00:47:52Z</time>
      </trkpt>
      <trkpt lat="44.782331" lon="-1.143417">
        <ele>8.0</ele>
        <time>2020-08-13T00:47:57Z</time>
      </trkpt>
      <trkpt lat="44.783548" lon="-1.143376">
        <ele>7.0</ele>
        <time>2020-08-13T00:48:13Z</time>
      </trkpt>
      <trkpt lat="44.784143" lon="-1.143376">
        <ele>7.0</ele>
        <time>2020-08-13T00:48:21Z</time>
      </trkpt>
      <trkpt lat="44.786799" lon="-1.143614">
        <ele>7.4</ele>
        <time>2020-08-13T00:48:55Z</time>
      </trkpt>
      <trkpt lat="44.78683" lon="-1.1435">
        <ele>7.4</ele>
        <time>2020-08-13T00:48:57Z</time>
      </trkpt>
      <trkpt lat="44.787331" lon="-1.143199">
        <ele>8.6</ele>
        <time>2020-08-13T00:49:04Z</time>
      </trkpt>
      <trkpt lat="44.787822" lon="-1.142768">
        <ele>8.0</ele>
        <time>2020-08-13T00:49:11Z</time>
      </trkpt>
      <trkpt lat="44.788082" lon="-1.142314">
        <ele>9.2</ele>
        <time>2020-08-13T00:49:17Z</time>
      </trkpt>
      <trkpt lat="44.789077" lon="-1.140217">
        <ele>10.8</ele>
        <time>2020-08-13T00:49:40Z</time>
      </trkpt>
      <trkpt lat="44.789634" lon="-1.139623">
        <ele>14.0</ele>
        <time>2020-08-13T00:49:50Z</time>
      </trkpt>
      <trkpt lat="44.790212" lon="-1.139274">
        <ele>10.4</ele>
        <time>2020-08-13T00:49:58Z</time>
      </trkpt>
      <trkpt lat="44.790937" lon="-1.138893">
        <ele>9.2</ele>
        <time>2020-08-13T00:50:08Z</time>
      </trkpt>
      <trkpt lat="44.792496" lon="-1.13825">
        <ele>9.6</ele>
        <time>2020-08-13T00:50:29Z</time>
      </trkpt>
      <trkpt lat="44.795709" lon="-1.137064">
        <ele>10.0</ele>
        <time>2020-08-13T00:51:13Z</time>
      </trkpt>
      <trkpt lat="44.798314" lon="-1.136069">
        <ele>9.2</ele>
        <time>2020-08-13T00:51:49Z</time>
      </trkpt>
      <trkpt lat="44.800292" lon="-1.135349">
        <ele>11.2</ele>
        <time>2020-08-13T00:52:15Z</time>
      </trkpt>
      <trkpt lat="44.800923" lon="-1.135351">
        <ele>11.6</ele>
        <time>2020-08-13T00:52:24Z</time>
      </trkpt>
      <trkpt lat="44.801535" lon="-1.13538">
        <ele>11.6</ele>
        <time>2020-08-13T00:52:32Z</time>
      </trkpt>
      <trkpt lat="44.801573" lon="-1.135403">
        <ele>11.6</ele>
        <time>2020-08-13T00:52:32Z</time>
      </trkpt>
      <trkpt lat="44.801705" lon="-1.135147">
        <ele>11.6</ele>
        <time>2020-08-13T00:52:34Z</time>
      </trkpt>
      <trkpt lat="44.802518" lon="-1.133745">
        <ele>11.2</ele>
        <time>2020-08-13T00:52:44Z</time>
      </trkpt>
      <trkpt lat="44.802651" lon="-1.133532">
        <ele>11.2</ele>
        <time>2020-08-13T00:52:46Z</time>
      </trkpt>
      <trkpt lat="44.803185" lon="-1.132775">
        <ele>11.6</ele>
        <time>2020-08-13T00:52:52Z</time>
      </trkpt>
      <trkpt lat="44.803544" lon="-1.13234">
        <ele>12.2</ele>
        <time>2020-08-13T00:52:56Z</time>
      </trkpt>
      <trkpt lat="44.803751" lon="-1.132166">
        <ele>12.2</ele>
        <time>2020-08-13T00:52:58Z</time>
      </trkpt>
      <trkpt lat="44.803952" lon="-1.132027">
        <ele>12.2</ele>
        <time>2020-08-13T00:53:00Z</time>
      </trkpt>
      <trkpt lat="44.804481" lon="-1.131777">
        <ele>12.6</ele>
        <time>2020-08-13T00:53:04Z</time>
      </trkpt>
      <trkpt lat="44.804916" lon="-1.131675">
        <ele>12.6</ele>
        <time>2020-08-13T00:53:08Z</time>
      </trkpt>
      <trkpt lat="44.807752" lon="-1.131296">
        <ele>15.2</ele>
        <time>2020-08-13T00:53:31Z</time>
      </trkpt>
      <trkpt lat="44.808717" lon="-1.131149">
        <ele>16.8</ele>
        <time>2020-08-13T00:53:38Z</time>
      </trkpt>
      <trkpt lat="44.817987" lon="-1.129932">
        <ele>20.0</ele>
        <time>2020-08-13T00:54:53Z</time>
      </trkpt>
      <trkpt lat="44.834367" lon="-1.126977">
        <ele>17.4</ele>
        <time>2020-08-13T00:57:05Z</time>
      </trkpt>
      <trkpt lat="44.835641" lon="-1.126722">
        <ele>18.8</ele>
        <time>2020-08-13T00:57:16Z</time>
      </trkpt>
      <trkpt lat="44.836297" lon="-1.126562">
        <ele>19.4</ele>
        <time>2020-08-13T00:57:21Z</time>
      </trkpt>
      <trkpt lat="44.839486" lon="-1.12204">
        <ele>15.2</ele>
        <time>2020-08-13T00:57:57Z</time>
      </trkpt>
      <trkpt lat="44.846468" lon="-1.11232">
        <ele>20.8</ele>
        <time>2020-08-13T00:59:16Z</time>
      </trkpt>
      <trkpt lat="44.851912" lon="-1.104605">
        <ele>21.4</ele>
        <time>2020-08-13T01:00:18Z</time>
      </trkpt>
      <trkpt lat="44.852338" lon="-1.104009">
        <ele>22.8</ele>
        <time>2020-08-13T01:00:23Z</time>
      </trkpt>
      <trkpt lat="44.852764" lon="-1.103487">
        <ele>21.0</ele>
        <time>2020-08-13T01:00:27Z</time>
      </trkpt>
      <trkpt lat="44.855993" lon="-1.100316">
        <ele>21.0</ele>
        <time>2020-08-13T01:00:59Z</time>
      </trkpt>
      <trkpt lat="44.860977" lon="-1.095543">
        <ele>23.6</ele>
        <time>2020-08-13T01:01:47Z</time>
      </trkpt>
      <trkpt lat="44.865399" lon="-1.09139">
        <ele>25.8</ele>
        <time>2020-08-13T01:02:30Z</time>
      </trkpt>
      <trkpt lat="44.866933" lon="-1.089983">
        <ele>24.4</ele>
        <time>2020-08-13T01:02:44Z</time>
      </trkpt>
      <trkpt lat="44.867102" lon="-1.089866">
        <ele>24.4</ele>
        <time>2020-08-13T01:02:46Z</time>
      </trkpt>
      <trkpt lat="44.86732" lon="-1.089797">
        <ele>24.4</ele>
        <time>2020-08-13T01:02:48Z</time>
      </trkpt>
      <trkpt lat="44.867529" lon="-1.089786">
        <ele>24.8</ele>
        <time>2020-08-13T01:02:49Z</time>
      </trkpt>
      <trkpt lat="44.869383" lon="-1.089974">
        <ele>23.2</ele>
        <time>2020-08-13T01:03:04Z</time>
      </trkpt>
      <trkpt lat="44.869658" lon="-1.090065">
        <ele>23.2</ele>
        <time>2020-08-13T01:03:07Z</time>
      </trkpt>
      <trkpt lat="44.869838" lon="-1.090168">
        <ele>23.2</ele>
        <time>2020-08-13T01:03:08Z</time>
      </trkpt>
      <trkpt lat="44.87242" lon="-1.091934">
        <ele>23.8</ele>
        <time>2020-08-13T01:03:31Z</time>
      </trkpt>
      <trkpt lat="44.872516" lon="-1.092007">
        <ele>23.0</ele>
        <time>2020-08-13T01:03:32Z</time>
      </trkpt>
      <trkpt lat="44.872622" lon="-1.092123">
        <ele>23.0</ele>
        <time>2020-08-13T01:03:33Z</time>
      </trkpt>
      <trkpt lat="44.872907" lon="-1.092537">
        <ele>23.6</ele>
        <time>2020-08-13T01:03:36Z</time>
      </trkpt>
      <trkpt lat="44.872977" lon="-1.092501">
        <ele>23.6</ele>
        <time>2020-08-13T01:03:38Z</time>
      </trkpt>
      <trkpt lat="44.873044" lon="-1.092548">
        <ele>23.6</ele>
        <time>2020-08-13T01:03:39Z</time>
      </trkpt>
      <trkpt lat="44.87315" lon="-1.092483">
        <ele>23.0</ele>
        <time>2020-08-13T01:03:40Z</time>
      </trkpt>
      <trkpt lat="44.874115" lon="-1.091746">
        <ele>22.8</ele>
        <time>2020-08-13T01:03:57Z</time>
      </trkpt>
      <trkpt lat="44.87423" lon="-1.091544">
        <ele>23.6</ele>
        <time>2020-08-13T01:04:00Z</time>
      </trkpt>
      <trkpt lat="44.874468" lon="-1.090656">
        <ele>23.4</ele>
        <time>2020-08-13T01:04:11Z</time>
      </trkpt>
      <trkpt lat="44.874886" lon="-1.089982">
        <ele>23.8</ele>
        <time>2020-08-13T01:04:20Z</time>
      </trkpt>
      <trkpt lat="44.87495" lon="-1.089826">
        <ele>23.8</ele>
        <time>2020-08-13T01:04:22Z</time>
      </trkpt>
      <trkpt lat="44.875139" lon="-1.088726">
        <ele>23.2</ele>
        <time>2020-08-13T01:04:35Z</time>
      </trkpt>
      <trkpt lat="44.875183" lon="-1.08834">
        <ele>23.2</ele>
        <time>2020-08-13T01:04:39Z</time>
      </trkpt>
      <trkpt lat="44.875306" lon="-1.086694">
        <ele>22.2</ele>
        <time>2020-08-13T01:04:57Z</time>
      </trkpt>
      <trkpt lat="44.875348" lon="-1.085535">
        <ele>22.0</ele>
        <time>2020-08-13T01:05:10Z</time>
      </trkpt>
      <trkpt lat="44.875415" lon="-1.085159">
        <ele>22.0</ele>
        <time>2020-08-13T01:05:14Z</time>
      </trkpt>
      <trkpt lat="44.875528" lon="-1.084933">
        <ele>22.0</ele>
        <time>2020-08-13T01:05:17Z</time>
      </trkpt>
      <trkpt lat="44.875495" lon="-1.084912">
        <ele>22.0</ele>
        <time>2020-08-13T01:05:17Z</time>
      </trkpt>
      <trkpt lat="44.87545" lon="-1.084835">
        <ele>22.0</ele>
        <time>2020-08-13T01:05:18Z</time>
      </trkpt>
      <trkpt lat="44.875442" lon="-1.084736">
        <ele>22.0</ele>
        <time>2020-08-13T01:05:18Z</time>
      </trkpt>
      <trkpt lat="44.875474" lon="-1.084647">
        <ele>22.0</ele>
        <time>2020-08-13T01:05:19Z</time>
      </trkpt>
      <trkpt lat="44.875536" lon="-1.084599">
        <ele>22.0</ele>
        <time>2020-08-13T01:05:19Z</time>
      </trkpt>
      <trkpt lat="44.875572" lon="-1.084596">
        <ele>22.0</ele>
        <time>2020-08-13T01:05:19Z</time>
      </trkpt>
      <trkpt lat="44.875635" lon="-1.08463">
        <ele>22.0</ele>
        <time>2020-08-13T01:05:20Z</time>
      </trkpt>
      <trkpt lat="44.875676" lon="-1.084708">
        <ele>22.0</ele>
        <time>2020-08-13T01:05:20Z</time>
      </trkpt>
      <trkpt lat="44.875683" lon="-1.084755">
        <ele>22.0</ele>
        <time>2020-08-13T01:05:20Z</time>
      </trkpt>
      <trkpt lat="44.875898" lon="-1.084639">
        <ele>22.6</ele>
        <time>2020-08-13T01:05:22Z</time>
      </trkpt>
      <trkpt lat="44.876122" lon="-1.084553">
        <ele>22.6</ele>
        <time>2020-08-13T01:05:23Z</time>
      </trkpt>
      <trkpt lat="44.876284" lon="-1.084516">
        <ele>22.6</ele>
        <time>2020-08-13T01:05:24Z</time>
      </trkpt>
      <trkpt lat="44.876437" lon="-1.084506">
        <ele>22.6</ele>
        <time>2020-08-13T01:05:25Z</time>
      </trkpt>
      <trkpt lat="44.879863" lon="-1.084998">
        <ele>22.2</ele>
        <time>2020-08-13T01:05:44Z</time>
      </trkpt>
      <trkpt lat="44.88104" lon="-1.085179">
        <ele>21.8</ele>
        <time>2020-08-13T01:05:51Z</time>
      </trkpt>
      <trkpt lat="44.881499" lon="-1.085283">
        <ele>21.8</ele>
        <time>2020-08-13T01:05:53Z</time>
      </trkpt>
      <trkpt lat="44.883178" lon="-1.085841">
        <ele>23.6</ele>
        <time>2020-08-13T01:06:03Z</time>
      </trkpt>
      <trkpt lat="44.883701" lon="-1.086034">
        <ele>22.4</ele>
        <time>2020-08-13T01:06:06Z</time>
      </trkpt>
      <trkpt lat="44.884925" lon="-1.086641">
        <ele>23.2</ele>
        <time>2020-08-13T01:06:14Z</time>
      </trkpt>
      <trkpt lat="44.88701" lon="-1.087727">
        <ele>19.2</ele>
        <time>2020-08-13T01:06:26Z</time>
      </trkpt>
      <trkpt lat="44.887577" lon="-1.088051">
        <ele>19.8</ele>
        <time>2020-08-13T01:06:30Z</time>
      </trkpt>
      <trkpt lat="44.889335" lon="-1.089381">
        <ele>26.4</ele>
        <time>2020-08-13T01:06:41Z</time>
      </trkpt>
      <trkpt lat="44.889642" lon="-1.089583">
        <ele>26.4</ele>
        <time>2020-08-13T01:06:43Z</time>
      </trkpt>
      <trkpt lat="44.889899" lon="-1.089717">
        <ele>26.4</ele>
        <time>2020-08-13T01:06:44Z</time>
      </trkpt>
      <trkpt lat="44.890233" lon="-1.089795">
        <ele>26.4</ele>
        <time>2020-08-13T01:06:46Z</time>
      </trkpt>
      <trkpt lat="44.890524" lon="-1.089806">
        <ele>26.4</ele>
        <time>2020-08-13T01:06:48Z</time>
      </trkpt>
      <trkpt lat="44.890925" lon="-1.089714">
        <ele>25.2</ele>
        <time>2020-08-13T01:06:50Z</time>
      </trkpt>
      <trkpt lat="44.891518" lon="-1.089446">
        <ele>25.2</ele>
        <time>2020-08-13T01:06:54Z</time>
      </trkpt>
      <trkpt lat="44.893132" lon="-1.088653">
        <ele>27.8</ele>
        <time>2020-08-13T01:07:03Z</time>
      </trkpt>
      <trkpt lat="44.902475" lon="-1.084196">
        <ele>25.6</ele>
        <time>2020-08-13T01:07:59Z</time>
      </trkpt>
      <trkpt lat="44.912624" lon="-1.079323">
        <ele>19.6</ele>
        <time>2020-08-13T01:09:00Z</time>
      </trkpt>
      <trkpt lat="44.93556" lon="-1.068208">
        <ele>22.0</ele>
        <time>2020-08-13T01:11:17Z</time>
      </trkpt>
      <trkpt lat="44.94159" lon="-1.065267">
        <ele>25.4</ele>
        <time>2020-08-13T01:11:53Z</time>
      </trkpt>
      <trkpt lat="44.941962" lon="-1.065107">
        <ele>27.0</ele>
        <time>2020-08-13T01:11:55Z</time>
      </trkpt>
      <trkpt lat="44.942284" lon="-1.065007">
        <ele>27.0</ele>
        <time>2020-08-13T01:11:57Z</time>
      </trkpt>
      <trkpt lat="44.942625" lon="-1.064956">
        <ele>26.0</ele>
        <time>2020-08-13T01:11:59Z</time>
      </trkpt>
      <trkpt lat="44.943006" lon="-1.064934">
        <ele>26.0</ele>
        <time>2020-08-13T01:12:01Z</time>
      </trkpt>
      <trkpt lat="44.946454" lon="-1.065055">
        <ele>20.4</ele>
        <time>2020-08-13T01:12:21Z</time>
      </trkpt>
      <trkpt lat="44.946919" lon="-1.065153">
        <ele>19.6</ele>
        <time>2020-08-13T01:12:23Z</time>
      </trkpt>
      <trkpt lat="44.94944" lon="-1.066238">
        <ele>21.6</ele>
        <time>2020-08-13T01:12:38Z</time>
      </trkpt>
      <trkpt lat="44.954964" lon="-1.068704">
        <ele>18.4</ele>
        <time>2020-08-13T01:13:11Z</time>
      </trkpt>
      <trkpt lat="44.956869" lon="-1.069596">
        <ele>20.0</ele>
        <time>2020-08-13T01:13:22Z</time>
      </trkpt>
      <trkpt lat="44.96397" lon="-1.07272">
        <ele>19.0</ele>
        <time>2020-08-13T01:14:04Z</time>
      </trkpt>
      <trkpt lat="44.974414" lon="-1.077355">
        <ele>16.8</ele>
        <time>2020-08-13T01:15:06Z</time>
      </trkpt>
      <trkpt lat="44.974521" lon="-1.076885">
        <ele>16.8</ele>
        <time>2020-08-13T01:15:13Z</time>
      </trkpt>
      <trkpt lat="44.974911" lon="-1.076601">
        <ele>16.4</ele>
        <time>2020-08-13T01:15:21Z</time>
      </trkpt>
      <trkpt lat="44.97501" lon="-1.076548">
        <ele>16.4</ele>
        <time>2020-08-13T01:15:23Z</time>
      </trkpt>
      <trkpt lat="44.975105" lon="-1.076529">
        <ele>16.4</ele>
        <time>2020-08-13T01:15:24Z</time>
      </trkpt>
      <trkpt lat="44.975811" lon="-1.076496">
        <ele>16.4</ele>
        <time>2020-08-13T01:15:37Z</time>
      </trkpt>
      <trkpt lat="44.975931" lon="-1.076526">
        <ele>17.2</ele>
        <time>2020-08-13T01:15:40Z</time>
      </trkpt>
      <trkpt lat="44.976012" lon="-1.076571">
        <ele>17.2</ele>
        <time>2020-08-13T01:15:41Z</time>
      </trkpt>
      <trkpt lat="44.976328" lon="-1.076801">
        <ele>17.0</ele>
        <time>2020-08-13T01:15:48Z</time>
      </trkpt>
      <trkpt lat="44.976414" lon="-1.07664">
        <ele>17.2</ele>
        <time>2020-08-13T01:15:51Z</time>
      </trkpt>
      <trkpt lat="44.976459" lon="-1.076601">
        <ele>17.2</ele>
        <time>2020-08-13T01:15:51Z</time>
      </trkpt>
      <trkpt lat="44.97654" lon="-1.076621">
        <ele>17.2</ele>
        <time>2020-08-13T01:15:53Z</time>
      </trkpt>
      <trkpt lat="44.976552" lon="-1.076182">
        <ele>17.2</ele>
        <time>2020-08-13T01:15:59Z</time>
      </trkpt>
      <trkpt lat="44.976901" lon="-1.075778">
        <ele>17.6</ele>
        <time>2020-08-13T01:16:05Z</time>
      </trkpt>
      <trkpt lat="44.976915" lon="-1.075634">
        <ele>17.6</ele>
        <time>2020-08-13T01:16:06Z</time>
      </trkpt>
      <trkpt lat="44.976954" lon="-1.075468">
        <ele>17.6</ele>
        <time>2020-08-13T01:16:08Z</time>
      </trkpt>
      <trkpt lat="44.977097" lon="-1.075195">
        <ele>17.6</ele>
        <time>2020-08-13T01:16:11Z</time>
      </trkpt>
      <trkpt lat="44.977255" lon="-1.074593">
        <ele>18.4</ele>
        <time>2020-08-13T01:16:17Z</time>
      </trkpt>
      <trkpt lat="44.977254" lon="-1.074469">
        <ele>18.4</ele>
        <time>2020-08-13T01:16:18Z</time>
      </trkpt>
      <trkpt lat="44.977175" lon="-1.073891">
        <ele>18.2</ele>
        <time>2020-08-13T01:16:23Z</time>
      </trkpt>
      <trkpt lat="44.977181" lon="-1.07384">
        <ele>18.2</ele>
        <time>2020-08-13T01:16:24Z</time>
      </trkpt>
      <trkpt lat="44.977248" lon="-1.073745">
        <ele>18.2</ele>
        <time>2020-08-13T01:16:25Z</time>
      </trkpt>
      <trkpt lat="44.977096" lon="-1.073263">
        <ele>17.4</ele>
        <time>2020-08-13T01:16:28Z</time>
      </trkpt>
      <trkpt lat="44.976652" lon="-1.071573">
        <ele>16.4</ele>
        <time>2020-08-13T01:16:37Z</time>
      </trkpt>
      <trkpt lat="44.976578" lon="-1.07096">
        <ele>16.4</ele>
        <time>2020-08-13T01:16:40Z</time>
      </trkpt>
      <trkpt lat="44.976597" lon="-1.070011">
        <ele>16.8</ele>
        <time>2020-08-13T01:16:45Z</time>
      </trkpt>
      <trkpt lat="44.976557" lon="-1.067402">
        <ele>18.0</ele>
        <time>2020-08-13T01:16:58Z</time>
      </trkpt>
      <trkpt lat="44.976678" lon="-1.067411">
        <ele>17.4</ele>
        <time>2020-08-13T01:16:59Z</time>
      </trkpt>
      <trkpt lat="44.976838" lon="-1.067282">
        <ele>17.4</ele>
        <time>2020-08-13T01:17:00Z</time>
      </trkpt>
      <trkpt lat="44.97741" lon="-1.066679">
        <ele>17.4</ele>
        <time>2020-08-13T01:17:06Z</time>
      </trkpt>
      <trkpt lat="44.979169" lon="-1.064742">
        <ele>18.6</ele>
        <time>2020-08-13T01:17:23Z</time>
      </trkpt>
      <trkpt lat="44.979749" lon="-1.062646">
        <ele>19.2</ele>
        <time>2020-08-13T01:17:35Z</time>
      </trkpt>
      <trkpt lat="44.979683" lon="-1.062582">
        <ele>19.2</ele>
        <time>2020-08-13T01:17:36Z</time>
      </trkpt>
      <trkpt lat="44.97965" lon="-1.062472">
        <ele>20.2</ele>
        <time>2020-08-13T01:17:36Z</time>
      </trkpt>
      <trkpt lat="44.979657" lon="-1.062381">
        <ele>20.2</ele>
        <time>2020-08-13T01:17:36Z</time>
      </trkpt>
      <trkpt lat="44.979685" lon="-1.06231">
        <ele>20.2</ele>
        <time>2020-08-13T01:17:37Z</time>
      </trkpt>
      <trkpt lat="44.979731" lon="-1.062258">
        <ele>20.2</ele>
        <time>2020-08-13T01:17:37Z</time>
      </trkpt>
      <trkpt lat="44.979791" lon="-1.062236">
        <ele>20.2</ele>
        <time>2020-08-13T01:17:37Z</time>
      </trkpt>
      <trkpt lat="44.979791" lon="-1.062236">
        <ele>20.2</ele>
        <time>2020-08-13T01:17:37Z</time>
      </trkpt>
      <trkpt lat="44.979853" lon="-1.062251">
        <ele>20.2</ele>
        <time>2020-08-13T01:17:38Z</time>
      </trkpt>
      <trkpt lat="44.979899" lon="-1.06229">
        <ele>20.2</ele>
        <time>2020-08-13T01:17:38Z</time>
      </trkpt>
      <trkpt lat="44.979938" lon="-1.062371">
        <ele>20.2</ele>
        <time>2020-08-13T01:17:39Z</time>
      </trkpt>
      <trkpt lat="44.979941" lon="-1.062511">
        <ele>19.2</ele>
        <time>2020-08-13T01:17:39Z</time>
      </trkpt>
      <trkpt lat="44.980954" lon="-1.062937">
        <ele>16.0</ele>
        <time>2020-08-13T01:17:46Z</time>
      </trkpt>
      <trkpt lat="44.98162" lon="-1.063321">
        <ele>16.0</ele>
        <time>2020-08-13T01:17:51Z</time>
      </trkpt>
      <trkpt lat="44.98209" lon="-1.063667">
        <ele>16.0</ele>
        <time>2020-08-13T01:17:54Z</time>
      </trkpt>
      <trkpt lat="44.982555" lon="-1.064047">
        <ele>17.6</ele>
        <time>2020-08-13T01:17:58Z</time>
      </trkpt>
      <trkpt lat="44.982942" lon="-1.064432">
        <ele>18.0</ele>
        <time>2020-08-13T01:18:01Z</time>
      </trkpt>
      <trkpt lat="44.983323" lon="-1.064847">
        <ele>18.0</ele>
        <time>2020-08-13T01:18:04Z</time>
      </trkpt>
      <trkpt lat="44.983678" lon="-1.065292">
        <ele>18.8</ele>
        <time>2020-08-13T01:18:07Z</time>
      </trkpt>
      <trkpt lat="44.984177" lon="-1.066005">
        <ele>17.6</ele>
        <time>2020-08-13T01:18:12Z</time>
      </trkpt>
      <trkpt lat="44.984565" lon="-1.066669">
        <ele>17.6</ele>
        <time>2020-08-13T01:18:16Z</time>
      </trkpt>
      <trkpt lat="44.984917" lon="-1.067354">
        <ele>17.6</ele>
        <time>2020-08-13T01:18:20Z</time>
      </trkpt>
      <trkpt lat="44.989693" lon="-1.078159">
        <ele>17.2</ele>
        <time>2020-08-13T01:19:19Z</time>
      </trkpt>
      <trkpt lat="44.989741" lon="-1.078124">
        <ele>17.2</ele>
        <time>2020-08-13T01:19:19Z</time>
      </trkpt>
      <trkpt lat="44.989795" lon="-1.078114">
        <ele>17.2</ele>
        <time>2020-08-13T01:19:19Z</time>
      </trkpt>
      <trkpt lat="44.989848" lon="-1.078131">
        <ele>17.2</ele>
        <time>2020-08-13T01:19:20Z</time>
      </trkpt>
      <trkpt lat="44.989894" lon="-1.078172">
        <ele>17.2</ele>
        <time>2020-08-13T01:19:20Z</time>
      </trkpt>
      <trkpt lat="44.989927" lon="-1.078232">
        <ele>17.2</ele>
        <time>2020-08-13T01:19:20Z</time>
      </trkpt>
      <trkpt lat="44.989945" lon="-1.078364">
        <ele>18.0</ele>
        <time>2020-08-13T01:19:21Z</time>
      </trkpt>
      <trkpt lat="44.989932" lon="-1.07843">
        <ele>18.0</ele>
        <time>2020-08-13T01:19:21Z</time>
      </trkpt>
      <trkpt lat="44.989869" lon="-1.078531">
        <ele>18.0</ele>
        <time>2020-08-13T01:19:22Z</time>
      </trkpt>
      <trkpt lat="44.989903" lon="-1.078608">
        <ele>18.0</ele>
        <time>2020-08-13T01:19:22Z</time>
      </trkpt>
      <trkpt lat="44.990224" lon="-1.079298">
        <ele>17.8</ele>
        <time>2020-08-13T01:19:26Z</time>
      </trkpt>
      <trkpt lat="44.990563" lon="-1.079942">
        <ele>17.8</ele>
        <time>2020-08-13T01:19:30Z</time>
      </trkpt>
      <trkpt lat="44.990905" lon="-1.080565">
        <ele>17.4</ele>
        <time>2020-08-13T01:19:33Z</time>
      </trkpt>
      <trkpt lat="44.991269" lon="-1.081153">
        <ele>17.6</ele>
        <time>2020-08-13T01:19:37Z</time>
      </trkpt>
      <trkpt lat="44.995704" lon="-1.087302">
        <ele>17.8</ele>
        <time>2020-08-13T01:20:17Z</time>
      </trkpt>
      <trkpt lat="44.995768" lon="-1.087243">
        <ele>17.8</ele>
        <time>2020-08-13T01:20:18Z</time>
      </trkpt>
      <trkpt lat="44.995843" lon="-1.087216">
        <ele>18.4</ele>
        <time>2020-08-13T01:20:18Z</time>
      </trkpt>
      <trkpt lat="44.995919" lon="-1.087224">
        <ele>18.4</ele>
        <time>2020-08-13T01:20:19Z</time>
      </trkpt>
      <trkpt lat="44.99599" lon="-1.087264">
        <ele>18.4</ele>
        <time>2020-08-13T01:20:20Z</time>
      </trkpt>
      <trkpt lat="44.996048" lon="-1.087335">
        <ele>18.4</ele>
        <time>2020-08-13T01:20:20Z</time>
      </trkpt>
      <trkpt lat="44.996087" lon="-1.087427">
        <ele>18.4</ele>
        <time>2020-08-13T01:20:21Z</time>
      </trkpt>
      <trkpt lat="44.996104" lon="-1.087533">
        <ele>19.8</ele>
        <time>2020-08-13T01:20:21Z</time>
      </trkpt>
      <trkpt lat="44.996096" lon="-1.08764">
        <ele>19.8</ele>
        <time>2020-08-13T01:20:22Z</time>
      </trkpt>
      <trkpt lat="44.996065" lon="-1.087739">
        <ele>19.8</ele>
        <time>2020-08-13T01:20:23Z</time>
      </trkpt>
      <trkpt lat="44.996237" lon="-1.087898">
        <ele>19.8</ele>
        <time>2020-08-13T01:20:24Z</time>
      </trkpt>
      <trkpt lat="44.996598" lon="-1.088402">
        <ele>21.2</ele>
        <time>2020-08-13T01:20:28Z</time>
      </trkpt>
      <trkpt lat="44.996933" lon="-1.088767">
        <ele>19.0</ele>
        <time>2020-08-13T01:20:32Z</time>
      </trkpt>
      <trkpt lat="45.002846" lon="-1.092827">
        <ele>18.0</ele>
        <time>2020-08-13T01:21:24Z</time>
      </trkpt>
      <trkpt lat="45.003218" lon="-1.093118">
        <ele>18.0</ele>
        <time>2020-08-13T01:21:27Z</time>
      </trkpt>
      <trkpt lat="45.003434" lon="-1.093326">
        <ele>17.2</ele>
        <time>2020-08-13T01:21:29Z</time>
      </trkpt>
      <trkpt lat="45.003705" lon="-1.093637">
        <ele>17.4</ele>
        <time>2020-08-13T01:21:32Z</time>
      </trkpt>
      <trkpt lat="45.003934" lon="-1.093944">
        <ele>17.4</ele>
        <time>2020-08-13T01:21:34Z</time>
      </trkpt>
      <trkpt lat="45.004127" lon="-1.094267">
        <ele>17.8</ele>
        <time>2020-08-13T01:21:37Z</time>
      </trkpt>
      <trkpt lat="45.004355" lon="-1.094725">
        <ele>16.8</ele>
        <time>2020-08-13T01:21:40Z</time>
      </trkpt>
      <trkpt lat="45.004571" lon="-1.09528">
        <ele>18.4</ele>
        <time>2020-08-13T01:21:43Z</time>
      </trkpt>
      <trkpt lat="45.006101" lon="-1.101517">
        <ele>18.4</ele>
        <time>2020-08-13T01:22:20Z</time>
      </trkpt>
      <trkpt lat="45.00712" lon="-1.105438">
        <ele>16.6</ele>
        <time>2020-08-13T01:22:44Z</time>
      </trkpt>
      <trkpt lat="45.007398" lon="-1.1069">
        <ele>17.4</ele>
        <time>2020-08-13T01:22:52Z</time>
      </trkpt>
      <trkpt lat="45.007522" lon="-1.108396">
        <ele>16.2</ele>
        <time>2020-08-13T01:23:01Z</time>
      </trkpt>
      <trkpt lat="45.007641" lon="-1.112658">
        <ele>20.2</ele>
        <time>2020-08-13T01:23:24Z</time>
      </trkpt>
      <trkpt lat="45.007714" lon="-1.116697">
        <ele>21.2</ele>
        <time>2020-08-13T01:23:47Z</time>
      </trkpt>
      <trkpt lat="45.007748" lon="-1.116992">
        <ele>21.2</ele>
        <time>2020-08-13T01:23:49Z</time>
      </trkpt>
      <trkpt lat="45.007844" lon="-1.117483">
        <ele>21.2</ele>
        <time>2020-08-13T01:23:52Z</time>
      </trkpt>
      <trkpt lat="45.007911" lon="-1.11753">
        <ele>20.4</ele>
        <time>2020-08-13T01:23:52Z</time>
      </trkpt>
      <trkpt lat="45.007964" lon="-1.117605">
        <ele>20.4</ele>
        <time>2020-08-13T01:23:53Z</time>
      </trkpt>
      <trkpt lat="45.007996" lon="-1.117701">
        <ele>20.4</ele>
        <time>2020-08-13T01:23:54Z</time>
      </trkpt>
      <trkpt lat="45.008004" lon="-1.117806">
        <ele>20.4</ele>
        <time>2020-08-13T01:23:54Z</time>
      </trkpt>
      <trkpt lat="45.007988" lon="-1.117909">
        <ele>20.4</ele>
        <time>2020-08-13T01:23:55Z</time>
      </trkpt>
      <trkpt lat="45.007948" lon="-1.117999">
        <ele>20.4</ele>
        <time>2020-08-13T01:23:55Z</time>
      </trkpt>
      <trkpt lat="45.007982" lon="-1.118229">
        <ele>20.4</ele>
        <time>2020-08-13T01:23:57Z</time>
      </trkpt>
      <trkpt lat="45.008139" lon="-1.118924">
        <ele>20.2</ele>
        <time>2020-08-13T01:24:01Z</time>
      </trkpt>
      <trkpt lat="45.008192" lon="-1.11925">
        <ele>20.0</ele>
        <time>2020-08-13T01:24:03Z</time>
      </trkpt>
      <trkpt lat="45.008221" lon="-1.119566">
        <ele>20.0</ele>
        <time>2020-08-13T01:24:05Z</time>
      </trkpt>
      <trkpt lat="45.008233" lon="-1.119961">
        <ele>20.0</ele>
        <time>2020-08-13T01:24:08Z</time>
      </trkpt>
      <trkpt lat="45.008217" lon="-1.120347">
        <ele>20.2</ele>
        <time>2020-08-13T01:24:10Z</time>
      </trkpt>
      <trkpt lat="45.007443" lon="-1.125679">
        <ele>27.0</ele>
        <time>2020-08-13T01:24:43Z</time>
      </trkpt>
      <trkpt lat="45.007366" lon="-1.126372">
        <ele>28.2</ele>
        <time>2020-08-13T01:24:47Z</time>
      </trkpt>
      <trkpt lat="45.00733" lon="-1.127266">
        <ele>29.4</ele>
        <time>2020-08-13T01:24:52Z</time>
      </trkpt>
      <trkpt lat="45.007336" lon="-1.128054">
        <ele>29.8</ele>
        <time>2020-08-13T01:24:57Z</time>
      </trkpt>
      <trkpt lat="45.007359" lon="-1.12856">
        <ele>28.0</ele>
        <time>2020-08-13T01:25:00Z</time>
      </trkpt>
      <trkpt lat="45.007854" lon="-1.135003">
        <ele>26.6</ele>
        <time>2020-08-13T01:25:39Z</time>
      </trkpt>
      <trkpt lat="45.007899" lon="-1.13594">
        <ele>26.8</ele>
        <time>2020-08-13T01:25:45Z</time>
      </trkpt>
      <trkpt lat="45.007899" lon="-1.136716">
        <ele>26.6</ele>
        <time>2020-08-13T01:25:49Z</time>
      </trkpt>
      <trkpt lat="45.007882" lon="-1.137371">
        <ele>26.6</ele>
        <time>2020-08-13T01:25:53Z</time>
      </trkpt>
      <trkpt lat="45.007776" lon="-1.138813">
        <ele>28.0</ele>
        <time>2020-08-13T01:26:02Z</time>
      </trkpt>
      <trkpt lat="45.007649" lon="-1.139779">
        <ele>28.2</ele>
        <time>2020-08-13T01:26:08Z</time>
      </trkpt>
      <trkpt lat="45.006794" lon="-1.145171">
        <ele>40.4</ele>
        <time>2020-08-13T01:26:41Z</time>
      </trkpt>
      <trkpt lat="45.006592" lon="-1.146136">
        <ele>38.2</ele>
        <time>2020-08-13T01:26:47Z</time>
      </trkpt>
      <trkpt lat="45.006371" lon="-1.14676">
        <ele>36.4</ele>
        <time>2020-08-13T01:26:51Z</time>
      </trkpt>
      <trkpt lat="45.006039" lon="-1.147491">
        <ele>36.4</ele>
        <time>2020-08-13T01:26:57Z</time>
      </trkpt>
      <trkpt lat="45.005505" lon="-1.148352">
        <ele>33.0</ele>
        <time>2020-08-13T01:27:04Z</time>
      </trkpt>
      <trkpt lat="45.004384" lon="-1.149822">
        <ele>32.2</ele>
        <time>2020-08-13T01:27:17Z</time>
      </trkpt>
      <trkpt lat="45.004012" lon="-1.150358">
        <ele>32.4</ele>
        <time>2020-08-13T01:27:21Z</time>
      </trkpt>
      <trkpt lat="45.003861" lon="-1.150628">
        <ele>32.4</ele>
        <time>2020-08-13T01:27:23Z</time>
      </trkpt>
      <trkpt lat="45.00376" lon="-1.150865">
        <ele>33.6</ele>
        <time>2020-08-13T01:27:25Z</time>
      </trkpt>
      <trkpt lat="45.003628" lon="-1.151259">
        <ele>33.6</ele>
        <time>2020-08-13T01:27:27Z</time>
      </trkpt>
      <trkpt lat="45.003531" lon="-1.151693">
        <ele>35.6</ele>
        <time>2020-08-13T01:27:30Z</time>
      </trkpt>
      <trkpt lat="45.00349" lon="-1.152028">
        <ele>35.6</ele>
        <time>2020-08-13T01:27:32Z</time>
      </trkpt>
      <trkpt lat="45.003479" lon="-1.152356">
        <ele>35.6</ele>
        <time>2020-08-13T01:27:34Z</time>
      </trkpt>
      <trkpt lat="45.003581" lon="-1.155166">
        <ele>34.4</ele>
        <time>2020-08-13T01:27:51Z</time>
      </trkpt>
      <trkpt lat="45.003642" lon="-1.155845">
        <ele>30.8</ele>
        <time>2020-08-13T01:27:55Z</time>
      </trkpt>
      <trkpt lat="45.0037" lon="-1.156069">
        <ele>30.8</ele>
        <time>2020-08-13T01:27:57Z</time>
      </trkpt>
      <trkpt lat="45.003777" lon="-1.156278">
        <ele>30.8</ele>
        <time>2020-08-13T01:27:58Z</time>
      </trkpt>
      <trkpt lat="45.004042" lon="-1.156719">
        <ele>28.0</ele>
        <time>2020-08-13T01:28:02Z</time>
      </trkpt>
      <trkpt lat="45.005154" lon="-1.158122">
        <ele>25.4</ele>
        <time>2020-08-13T01:28:14Z</time>
      </trkpt>
      <trkpt lat="45.006128" lon="-1.159299">
        <ele>31.6</ele>
        <time>2020-08-13T01:28:25Z</time>
      </trkpt>
      <trkpt lat="45.006242" lon="-1.159474">
        <ele>31.6</ele>
        <time>2020-08-13T01:28:27Z</time>
      </trkpt>
      <trkpt lat="45.006353" lon="-1.159714">
        <ele>31.6</ele>
        <time>2020-08-13T01:28:28Z</time>
      </trkpt>
      <trkpt lat="45.006431" lon="-1.159985">
        <ele>31.6</ele>
        <time>2020-08-13T01:28:30Z</time>
      </trkpt>
      <trkpt lat="45.006476" lon="-1.160231">
        <ele>33.4</ele>
        <time>2020-08-13T01:28:32Z</time>
      </trkpt>
      <trkpt lat="45.006502" lon="-1.160539">
        <ele>33.4</ele>
        <time>2020-08-13T01:28:34Z</time>
      </trkpt>
      <trkpt lat="45.006487" lon="-1.160836">
        <ele>32.6</ele>
        <time>2020-08-13T01:28:35Z</time>
      </trkpt>
      <trkpt lat="45.00643" lon="-1.16115">
        <ele>32.6</ele>
        <time>2020-08-13T01:28:37Z</time>
      </trkpt>
      <trkpt lat="45.005753" lon="-1.16316">
        <ele>35.0</ele>
        <time>2020-08-13T01:28:51Z</time>
      </trkpt>
      <trkpt lat="45.005668" lon="-1.163574">
        <ele>28.6</ele>
        <time>2020-08-13T01:28:53Z</time>
      </trkpt>
      <trkpt lat="45.005587" lon="-1.164214">
        <ele>22.4</ele>
        <time>2020-08-13T01:28:57Z</time>
      </trkpt>
      <trkpt lat="45.005377" lon="-1.167637">
        <ele>19.6</ele>
        <time>2020-08-13T01:29:18Z</time>
      </trkpt>
      <trkpt lat="45.005368" lon="-1.16822">
        <ele>19.6</ele>
        <time>2020-08-13T01:29:21Z</time>
      </trkpt>
      <trkpt lat="45.005439" lon="-1.169069">
        <ele>19.4</ele>
        <time>2020-08-13T01:29:27Z</time>
      </trkpt>
      <trkpt lat="45.005961" lon="-1.172502">
        <ele>25.4</ele>
        <time>2020-08-13T01:29:48Z</time>
      </trkpt>
      <trkpt lat="45.006026" lon="-1.173054">
        <ele>25.4</ele>
        <time>2020-08-13T01:29:51Z</time>
      </trkpt>
      <trkpt lat="45.00605" lon="-1.175651">
        <ele>22.0</ele>
        <time>2020-08-13T01:30:07Z</time>
      </trkpt>
      <trkpt lat="45.006111" lon="-1.175659">
        <ele>22.0</ele>
        <time>2020-08-13T01:30:07Z</time>
      </trkpt>
      <trkpt lat="45.006167" lon="-1.175695">
        <ele>22.0</ele>
        <time>2020-08-13T01:30:08Z</time>
      </trkpt>
      <trkpt lat="45.006211" lon="-1.175755">
        <ele>22.0</ele>
        <time>2020-08-13T01:30:08Z</time>
      </trkpt>
      <trkpt lat="45.006239" lon="-1.175833">
        <ele>22.0</ele>
        <time>2020-08-13T01:30:08Z</time>
      </trkpt>
      <trkpt lat="45.006248" lon="-1.175919">
        <ele>23.4</ele>
        <time>2020-08-13T01:30:09Z</time>
      </trkpt>
      <trkpt lat="45.007978" lon="-1.175839">
        <ele>21.2</ele>
        <time>2020-08-13T01:30:19Z</time>
      </trkpt>
      <trkpt lat="45.008804" lon="-1.175824">
        <ele>22.6</ele>
        <time>2020-08-13T01:30:24Z</time>
      </trkpt>
      <trkpt lat="45.009278" lon="-1.175772">
        <ele>23.8</ele>
        <time>2020-08-13T01:30:27Z</time>
      </trkpt>
      <trkpt lat="45.009845" lon="-1.17561">
        <ele>23.8</ele>
        <time>2020-08-13T01:30:30Z</time>
      </trkpt>
      <trkpt lat="45.010046" lon="-1.175527">
        <ele>21.6</ele>
        <time>2020-08-13T01:30:31Z</time>
      </trkpt>
      <trkpt lat="45.010232" lon="-1.175381">
        <ele>21.6</ele>
        <time>2020-08-13T01:30:32Z</time>
      </trkpt>
      <trkpt lat="45.010485" lon="-1.175137">
        <ele>21.6</ele>
        <time>2020-08-13T01:30:34Z</time>
      </trkpt>
      <trkpt lat="45.010777" lon="-1.174794">
        <ele>24.8</ele>
        <time>2020-08-13T01:30:36Z</time>
      </trkpt>
      <trkpt lat="45.011043" lon="-1.174382">
        <ele>20.4</ele>
        <time>2020-08-13T01:30:39Z</time>
      </trkpt>
      <trkpt lat="45.01165" lon="-1.173326">
        <ele>25.2</ele>
        <time>2020-08-13T01:30:44Z</time>
      </trkpt>
      <trkpt lat="45.011935" lon="-1.172983">
        <ele>21.4</ele>
        <time>2020-08-13T01:30:47Z</time>
      </trkpt>
      <trkpt lat="45.012233" lon="-1.1727">
        <ele>21.4</ele>
        <time>2020-08-13T01:30:49Z</time>
      </trkpt>
      <trkpt lat="45.012548" lon="-1.172502">
        <ele>19.6</ele>
        <time>2020-08-13T01:30:51Z</time>
      </trkpt>
      <trkpt lat="45.012997" lon="-1.172314">
        <ele>18.0</ele>
        <time>2020-08-13T01:30:54Z</time>
      </trkpt>
      <trkpt lat="45.013466" lon="-1.172246">
        <ele>17.2</ele>
        <time>2020-08-13T01:30:56Z</time>
      </trkpt>
      <trkpt lat="45.013711" lon="-1.172256">
        <ele>17.2</ele>
        <time>2020-08-13T01:30:58Z</time>
      </trkpt>
      <trkpt lat="45.014023" lon="-1.172305">
        <ele>17.2</ele>
        <time>2020-08-13T01:31:00Z</time>
      </trkpt>
      <trkpt lat="45.014466" lon="-1.172485">
        <ele>19.8</ele>
        <time>2020-08-13T01:31:02Z</time>
      </trkpt>
      <trkpt lat="45.014866" lon="-1.172734">
        <ele>17.6</ele>
        <time>2020-08-13T01:31:05Z</time>
      </trkpt>
      <trkpt lat="45.016219" lon="-1.173979">
        <ele>27.4</ele>
        <time>2020-08-13T01:31:14Z</time>
      </trkpt>
      <trkpt lat="45.017348" lon="-1.175069">
        <ele>23.4</ele>
        <time>2020-08-13T01:31:22Z</time>
      </trkpt>
      <trkpt lat="45.017742" lon="-1.175506">
        <ele>24.4</ele>
        <time>2020-08-13T01:31:25Z</time>
      </trkpt>
      <trkpt lat="45.018828" lon="-1.176862">
        <ele>26.2</ele>
        <time>2020-08-13T01:31:34Z</time>
      </trkpt>
      <trkpt lat="45.019229" lon="-1.177326">
        <ele>21.4</ele>
        <time>2020-08-13T01:31:37Z</time>
      </trkpt>
      <trkpt lat="45.019647" lon="-1.177635">
        <ele>22.6</ele>
        <time>2020-08-13T01:31:40Z</time>
      </trkpt>
      <trkpt lat="45.020096" lon="-1.177764">
        <ele>17.4</ele>
        <time>2020-08-13T01:31:42Z</time>
      </trkpt>
      <trkpt lat="45.020096" lon="-1.177764">
        <ele>17.4</ele>
        <time>2020-08-13T01:31:42Z</time>
      </trkpt>
      <trkpt lat="45.020557" lon="-1.177738">
        <ele>17.4</ele>
        <time>2020-08-13T01:31:45Z</time>
      </trkpt>
      <trkpt lat="45.020994" lon="-1.17754">
        <ele>15.2</ele>
        <time>2020-08-13T01:31:47Z</time>
      </trkpt>
      <trkpt lat="45.023876" lon="-1.175626">
        <ele>22.0</ele>
        <time>2020-08-13T01:32:01Z</time>
      </trkpt>
      <trkpt lat="45.024385" lon="-1.175352">
        <ele>25.8</ele>
        <time>2020-08-13T01:32:04Z</time>
      </trkpt>
      <trkpt lat="45.024937" lon="-1.175197">
        <ele>25.8</ele>
        <time>2020-08-13T01:32:06Z</time>
      </trkpt>
      <trkpt lat="45.025423" lon="-1.175155">
        <ele>27.0</ele>
        <time>2020-08-13T01:32:09Z</time>
      </trkpt>
      <trkpt lat="45.027522" lon="-1.175215">
        <ele>23.6</ele>
        <time>2020-08-13T01:32:18Z</time>
      </trkpt>
      <trkpt lat="45.027995" lon="-1.175197">
        <ele>23.6</ele>
        <time>2020-08-13T01:32:21Z</time>
      </trkpt>
      <trkpt lat="45.030057" lon="-1.174966">
        <ele>17.8</ele>
        <time>2020-08-13T01:32:30Z</time>
      </trkpt>
      <trkpt lat="45.030373" lon="-1.175">
        <ele>22.2</ele>
        <time>2020-08-13T01:32:32Z</time>
      </trkpt>
      <trkpt lat="45.030682" lon="-1.175086">
        <ele>22.2</ele>
        <time>2020-08-13T01:32:33Z</time>
      </trkpt>
      <trkpt lat="45.032387" lon="-1.17573">
        <ele>18.8</ele>
        <time>2020-08-13T01:32:41Z</time>
      </trkpt>
      <trkpt lat="45.032835" lon="-1.175833">
        <ele>19.2</ele>
        <time>2020-08-13T01:32:43Z</time>
      </trkpt>
      <trkpt lat="45.033333" lon="-1.175755">
        <ele>19.2</ele>
        <time>2020-08-13T01:32:45Z</time>
      </trkpt>
      <trkpt lat="45.034187" lon="-1.175495">
        <ele>18.6</ele>
        <time>2020-08-13T01:32:50Z</time>
      </trkpt>
      <trkpt lat="45.03463" lon="-1.175478">
        <ele>18.6</ele>
        <time>2020-08-13T01:32:52Z</time>
      </trkpt>
      <trkpt lat="45.037239" lon="-1.175901">
        <ele>24.0</ele>
        <time>2020-08-13T01:33:04Z</time>
      </trkpt>
      <trkpt lat="45.03787" lon="-1.176056">
        <ele>23.0</ele>
        <time>2020-08-13T01:33:07Z</time>
      </trkpt>
      <trkpt lat="45.038798" lon="-1.176176">
        <ele>22.2</ele>
        <time>2020-08-13T01:33:11Z</time>
      </trkpt>
      <trkpt lat="45.039325" lon="-1.176159">
        <ele>23.8</ele>
        <time>2020-08-13T01:33:13Z</time>
      </trkpt>
      <trkpt lat="45.040787" lon="-1.175901">
        <ele>23.8</ele>
        <time>2020-08-13T01:33:20Z</time>
      </trkpt>
      <trkpt lat="45.04109" lon="-1.175781">
        <ele>22.8</ele>
        <time>2020-08-13T01:33:22Z</time>
      </trkpt>
      <trkpt lat="45.041412" lon="-1.175549">
        <ele>22.8</ele>
        <time>2020-08-13T01:33:23Z</time>
      </trkpt>
      <trkpt lat="45.043001" lon="-1.174296">
        <ele>25.0</ele>
        <time>2020-08-13T01:33:32Z</time>
      </trkpt>
      <trkpt lat="45.043589" lon="-1.173858">
        <ele>22.4</ele>
        <time>2020-08-13T01:33:35Z</time>
      </trkpt>
      <trkpt lat="45.043983" lon="-1.17367">
        <ele>22.4</ele>
        <time>2020-08-13T01:33:37Z</time>
      </trkpt>
      <trkpt lat="45.044498" lon="-1.173575">
        <ele>22.8</ele>
        <time>2020-08-13T01:33:39Z</time>
      </trkpt>
      <trkpt lat="45.044972" lon="-1.17355">
        <ele>22.8</ele>
        <time>2020-08-13T01:33:41Z</time>
      </trkpt>
      <trkpt lat="45.045414" lon="-1.173661">
        <ele>25.0</ele>
        <time>2020-08-13T01:33:43Z</time>
      </trkpt>
      <trkpt lat="45.045966" lon="-1.173901">
        <ele>24.8</ele>
        <time>2020-08-13T01:33:46Z</time>
      </trkpt>
      <trkpt lat="45.046779" lon="-1.174065">
        <ele>23.8</ele>
        <time>2020-08-13T01:33:50Z</time>
      </trkpt>
      <trkpt lat="45.04784" lon="-1.17415">
        <ele>22.8</ele>
        <time>2020-08-13T01:33:55Z</time>
      </trkpt>
      <trkpt lat="45.048319" lon="-1.174065">
        <ele>22.8</ele>
        <time>2020-08-13T01:33:57Z</time>
      </trkpt>
      <trkpt lat="45.048695" lon="-1.173919">
        <ele>23.2</ele>
        <time>2020-08-13T01:33:59Z</time>
      </trkpt>
      <trkpt lat="45.049186" lon="-1.173696">
        <ele>23.8</ele>
        <time>2020-08-13T01:34:01Z</time>
      </trkpt>
      <trkpt lat="45.049799" lon="-1.173249">
        <ele>25.2</ele>
        <time>2020-08-13T01:34:04Z</time>
      </trkpt>
      <trkpt lat="45.050138" lon="-1.173103">
        <ele>25.2</ele>
        <time>2020-08-13T01:34:06Z</time>
      </trkpt>
      <trkpt lat="45.050344" lon="-1.173095">
        <ele>25.2</ele>
        <time>2020-08-13T01:34:07Z</time>
      </trkpt>
      <trkpt lat="45.050678" lon="-1.173155">
        <ele>25.2</ele>
        <time>2020-08-13T01:34:08Z</time>
      </trkpt>
      <trkpt lat="45.051011" lon="-1.173412">
        <ele>25.4</ele>
        <time>2020-08-13T01:34:10Z</time>
      </trkpt>
      <trkpt lat="45.052194" lon="-1.174631">
        <ele>23.6</ele>
        <time>2020-08-13T01:34:17Z</time>
      </trkpt>
      <trkpt lat="45.052824" lon="-1.175223">
        <ele>24.8</ele>
        <time>2020-08-13T01:34:20Z</time>
      </trkpt>
      <trkpt lat="45.053127" lon="-1.175374">
        <ele>24.8</ele>
        <time>2020-08-13T01:34:22Z</time>
      </trkpt>
      <trkpt lat="45.053794" lon="-1.175524">
        <ele>25.4</ele>
        <time>2020-08-13T01:34:25Z</time>
      </trkpt>
      <trkpt lat="45.05411" lon="-1.175626">
        <ele>25.4</ele>
        <time>2020-08-13T01:34:26Z</time>
      </trkpt>
      <trkpt lat="45.054746" lon="-1.175867">
        <ele>27.0</ele>
        <time>2020-08-13T01:34:29Z</time>
      </trkpt>
      <trkpt lat="45.055195" lon="-1.176064">
        <ele>26.6</ele>
        <time>2020-08-13T01:34:31Z</time>
      </trkpt>
      <trkpt lat="45.055626" lon="-1.176382">
        <ele>26.6</ele>
        <time>2020-08-13T01:34:34Z</time>
      </trkpt>
      <trkpt lat="45.056347" lon="-1.17724">
        <ele>25.6</ele>
        <time>2020-08-13T01:34:38Z</time>
      </trkpt>
      <trkpt lat="45.05679" lon="-1.177446">
        <ele>24.8</ele>
        <time>2020-08-13T01:34:40Z</time>
      </trkpt>
      <trkpt lat="45.057681" lon="-1.177326">
        <ele>22.4</ele>
        <time>2020-08-13T01:34:44Z</time>
      </trkpt>
      <trkpt lat="45.058142" lon="-1.177128">
        <ele>22.4</ele>
        <time>2020-08-13T01:34:47Z</time>
      </trkpt>
      <trkpt lat="45.058481" lon="-1.176742">
        <ele>17.4</ele>
        <time>2020-08-13T01:34:49Z</time>
      </trkpt>
      <trkpt lat="45.058785" lon="-1.176245">
        <ele>21.2</ele>
        <time>2020-08-13T01:34:51Z</time>
      </trkpt>
      <trkpt lat="45.059118" lon="-1.175824">
        <ele>25.6</ele>
        <time>2020-08-13T01:34:53Z</time>
      </trkpt>
      <trkpt lat="45.059518" lon="-1.175601">
        <ele>20.0</ele>
        <time>2020-08-13T01:34:55Z</time>
      </trkpt>
      <trkpt lat="45.0605" lon="-1.175438">
        <ele>16.8</ele>
        <time>2020-08-13T01:34:59Z</time>
      </trkpt>
      <trkpt lat="45.06087" lon="-1.175429">
        <ele>17.2</ele>
        <time>2020-08-13T01:35:01Z</time>
      </trkpt>
      <trkpt lat="45.06104" lon="-1.175455">
        <ele>17.2</ele>
        <time>2020-08-13T01:35:02Z</time>
      </trkpt>
      <trkpt lat="45.061295" lon="-1.175558">
        <ele>17.2</ele>
        <time>2020-08-13T01:35:03Z</time>
      </trkpt>
      <trkpt lat="45.061767" lon="-1.175807">
        <ele>21.0</ele>
        <time>2020-08-13T01:35:05Z</time>
      </trkpt>
      <trkpt lat="45.061992" lon="-1.175893">
        <ele>23.6</ele>
        <time>2020-08-13T01:35:06Z</time>
      </trkpt>
      <trkpt lat="45.062422" lon="-1.175987">
        <ele>23.6</ele>
        <time>2020-08-13T01:35:08Z</time>
      </trkpt>
      <trkpt lat="45.062598" lon="-1.176047">
        <ele>27.4</ele>
        <time>2020-08-13T01:35:09Z</time>
      </trkpt>
      <trkpt lat="45.062828" lon="-1.176176">
        <ele>27.4</ele>
        <time>2020-08-13T01:35:10Z</time>
      </trkpt>
      <trkpt lat="45.063228" lon="-1.176519">
        <ele>27.4</ele>
        <time>2020-08-13T01:35:13Z</time>
      </trkpt>
      <trkpt lat="45.063532" lon="-1.176751">
        <ele>28.2</ele>
        <time>2020-08-13T01:35:14Z</time>
      </trkpt>
      <trkpt lat="45.063756" lon="-1.176871">
        <ele>28.2</ele>
        <time>2020-08-13T01:35:15Z</time>
      </trkpt>
      <trkpt lat="45.064162" lon="-1.176905">
        <ele>28.2</ele>
        <time>2020-08-13T01:35:17Z</time>
      </trkpt>
      <trkpt lat="45.064526" lon="-1.176751">
        <ele>22.4</ele>
        <time>2020-08-13T01:35:19Z</time>
      </trkpt>
      <trkpt lat="45.064689" lon="-1.176622">
        <ele>20.6</ele>
        <time>2020-08-13T01:35:20Z</time>
      </trkpt>
      <trkpt lat="45.064962" lon="-1.176236">
        <ele>20.6</ele>
        <time>2020-08-13T01:35:22Z</time>
      </trkpt>
      <trkpt lat="45.065296" lon="-1.175575">
        <ele>15.2</ele>
        <time>2020-08-13T01:35:24Z</time>
      </trkpt>
      <trkpt lat="45.065459" lon="-1.175309">
        <ele>15.2</ele>
        <time>2020-08-13T01:35:25Z</time>
      </trkpt>
      <trkpt lat="45.065623" lon="-1.175094">
        <ele>15.2</ele>
        <time>2020-08-13T01:35:26Z</time>
      </trkpt>
      <trkpt lat="45.065872" lon="-1.174871">
        <ele>14.4</ele>
        <time>2020-08-13T01:35:28Z</time>
      </trkpt>
      <trkpt lat="45.066744" lon="-1.174302">
        <ele>14.0</ele>
        <time>2020-08-13T01:35:32Z</time>
      </trkpt>
      <trkpt lat="45.067101" lon="-1.173933">
        <ele>15.2</ele>
        <time>2020-08-13T01:35:34Z</time>
      </trkpt>
      <trkpt lat="45.067295" lon="-1.173667">
        <ele>15.2</ele>
        <time>2020-08-13T01:35:35Z</time>
      </trkpt>
      <trkpt lat="45.067598" lon="-1.173178">
        <ele>18.6</ele>
        <time>2020-08-13T01:35:38Z</time>
      </trkpt>
      <trkpt lat="45.067823" lon="-1.172886">
        <ele>18.6</ele>
        <time>2020-08-13T01:35:39Z</time>
      </trkpt>
      <trkpt lat="45.068103" lon="-1.17264">
        <ele>18.6</ele>
        <time>2020-08-13T01:35:40Z</time>
      </trkpt>
      <trkpt lat="45.068344" lon="-1.172517">
        <ele>21.6</ele>
        <time>2020-08-13T01:35:42Z</time>
      </trkpt>
      <trkpt lat="45.068635" lon="-1.172414">
        <ele>23.0</ele>
        <time>2020-08-13T01:35:43Z</time>
      </trkpt>
      <trkpt lat="45.069078" lon="-1.172399">
        <ele>23.0</ele>
        <time>2020-08-13T01:35:45Z</time>
      </trkpt>
      <trkpt lat="45.069533" lon="-1.172442">
        <ele>23.4</ele>
        <time>2020-08-13T01:35:47Z</time>
      </trkpt>
      <trkpt lat="45.069933" lon="-1.172382">
        <ele>23.4</ele>
        <time>2020-08-13T01:35:49Z</time>
      </trkpt>
      <trkpt lat="45.070358" lon="-1.172262">
        <ele>25.4</ele>
        <time>2020-08-13T01:35:51Z</time>
      </trkpt>
      <trkpt lat="45.070849" lon="-1.172159">
        <ele>27.2</ele>
        <time>2020-08-13T01:35:53Z</time>
      </trkpt>
      <trkpt lat="45.071285" lon="-1.172202">
        <ele>27.2</ele>
        <time>2020-08-13T01:35:55Z</time>
      </trkpt>
      <trkpt lat="45.07217" lon="-1.172417">
        <ele>26.8</ele>
        <time>2020-08-13T01:35:59Z</time>
      </trkpt>
      <trkpt lat="45.072643" lon="-1.172382">
        <ele>25.2</ele>
        <time>2020-08-13T01:36:02Z</time>
      </trkpt>
      <trkpt lat="45.07417" lon="-1.172142">
        <ele>27.0</ele>
        <time>2020-08-13T01:36:09Z</time>
      </trkpt>
      <trkpt lat="45.074552" lon="-1.172048">
        <ele>27.0</ele>
        <time>2020-08-13T01:36:10Z</time>
      </trkpt>
      <trkpt lat="45.074667" lon="-1.171996">
        <ele>27.0</ele>
        <time>2020-08-13T01:36:11Z</time>
      </trkpt>
      <trkpt lat="45.075037" lon="-1.171721">
        <ele>29.2</ele>
        <time>2020-08-13T01:36:13Z</time>
      </trkpt>
      <trkpt lat="45.075231" lon="-1.171601">
        <ele>28.0</ele>
        <time>2020-08-13T01:36:14Z</time>
      </trkpt>
      <trkpt lat="45.075394" lon="-1.17155">
        <ele>28.0</ele>
        <time>2020-08-13T01:36:15Z</time>
      </trkpt>
      <trkpt lat="45.075607" lon="-1.171524">
        <ele>28.0</ele>
        <time>2020-08-13T01:36:16Z</time>
      </trkpt>
      <trkpt lat="45.078281" lon="-1.171603">
        <ele>21.8</ele>
        <time>2020-08-13T01:36:28Z</time>
      </trkpt>
      <trkpt lat="45.078466" lon="-1.171517">
        <ele>22.6</ele>
        <time>2020-08-13T01:36:29Z</time>
      </trkpt>
      <trkpt lat="45.078566" lon="-1.171411">
        <ele>22.6</ele>
        <time>2020-08-13T01:36:29Z</time>
      </trkpt>
      <trkpt lat="45.078566" lon="-1.171411">
        <ele>22.6</ele>
        <time>2020-08-13T01:36:29Z</time>
      </trkpt>
      <trkpt lat="45.078566" lon="-1.171411">
        <ele>22.6</ele>
        <time>2020-08-13T01:36:29Z</time>
      </trkpt>
      <trkpt lat="45.078625" lon="-1.171189">
        <ele>22.6</ele>
        <time>2020-08-13T01:36:30Z</time>
      </trkpt>
      <trkpt lat="45.078639" lon="-1.171075">
        <ele>22.6</ele>
        <time>2020-08-13T01:36:31Z</time>
      </trkpt>
      <trkpt lat="45.078598" lon="-1.170882">
        <ele>22.6</ele>
        <time>2020-08-13T01:36:32Z</time>
      </trkpt>
      <trkpt lat="45.078217" lon="-1.168068">
        <ele>31.4</ele>
        <time>2020-08-13T01:36:44Z</time>
      </trkpt>
      <trkpt lat="45.078186" lon="-1.165567">
        <ele>31.4</ele>
        <time>2020-08-13T01:36:54Z</time>
      </trkpt>
      <trkpt lat="45.078119" lon="-1.165129">
        <ele>31.4</ele>
        <time>2020-08-13T01:36:56Z</time>
      </trkpt>
      <trkpt lat="45.077931" lon="-1.164734">
        <ele>37.6</ele>
        <time>2020-08-13T01:36:58Z</time>
      </trkpt>
      <trkpt lat="45.077295" lon="-1.163945">
        <ele>42.6</ele>
        <time>2020-08-13T01:37:03Z</time>
      </trkpt>
      <trkpt lat="45.076998" lon="-1.163421">
        <ele>42.6</ele>
        <time>2020-08-13T01:37:06Z</time>
      </trkpt>
      <trkpt lat="45.076816" lon="-1.162889">
        <ele>45.6</ele>
        <time>2020-08-13T01:37:09Z</time>
      </trkpt>
      <trkpt lat="45.07667" lon="-1.16222">
        <ele>42.8</ele>
        <time>2020-08-13T01:37:12Z</time>
      </trkpt>
      <trkpt lat="45.076646" lon="-1.16185">
        <ele>36.8</ele>
        <time>2020-08-13T01:37:13Z</time>
      </trkpt>
      <trkpt lat="45.076677" lon="-1.160932">
        <ele>36.2</ele>
        <time>2020-08-13T01:37:17Z</time>
      </trkpt>
      <trkpt lat="45.076598" lon="-1.160409">
        <ele>28.4</ele>
        <time>2020-08-13T01:37:20Z</time>
      </trkpt>
      <trkpt lat="45.076434" lon="-1.159731">
        <ele>31.0</ele>
        <time>2020-08-13T01:37:23Z</time>
      </trkpt>
      <trkpt lat="45.076107" lon="-1.158512">
        <ele>34.2</ele>
        <time>2020-08-13T01:37:28Z</time>
      </trkpt>
      <trkpt lat="45.075246" lon="-1.155525">
        <ele>34.0</ele>
        <time>2020-08-13T01:37:42Z</time>
      </trkpt>
      <trkpt lat="45.074979" lon="-1.154666">
        <ele>38.4</ele>
        <time>2020-08-13T01:37:46Z</time>
      </trkpt>
      <trkpt lat="45.074458" lon="-1.153396">
        <ele>38.0</ele>
        <time>2020-08-13T01:37:52Z</time>
      </trkpt>
      <trkpt lat="45.072488" lon="-1.149419">
        <ele>30.0</ele>
        <time>2020-08-13T01:38:13Z</time>
      </trkpt>
      <trkpt lat="45.072325" lon="-1.149028">
        <ele>29.6</ele>
        <time>2020-08-13T01:38:15Z</time>
      </trkpt>
      <trkpt lat="45.072255" lon="-1.148757">
        <ele>29.6</ele>
        <time>2020-08-13T01:38:16Z</time>
      </trkpt>
      <trkpt lat="45.072238" lon="-1.148457">
        <ele>29.6</ele>
        <time>2020-08-13T01:38:17Z</time>
      </trkpt>
      <trkpt lat="45.072338" lon="-1.147183">
        <ele>28.4</ele>
        <time>2020-08-13T01:38:23Z</time>
      </trkpt>
      <trkpt lat="45.072332" lon="-1.147083">
        <ele>28.4</ele>
        <time>2020-08-13T01:38:23Z</time>
      </trkpt>
      <trkpt lat="45.072304" lon="-1.147026">
        <ele>28.4</ele>
        <time>2020-08-13T01:38:23Z</time>
      </trkpt>
      <trkpt lat="45.072286" lon="-1.14689">
        <ele>28.4</ele>
        <time>2020-08-13T01:38:24Z</time>
      </trkpt>
      <trkpt lat="45.072323" lon="-1.146761">
        <ele>28.4</ele>
        <time>2020-08-13T01:38:25Z</time>
      </trkpt>
      <trkpt lat="45.072358" lon="-1.146713">
        <ele>28.4</ele>
        <time>2020-08-13T01:38:25Z</time>
      </trkpt>
      <trkpt lat="45.072378" lon="-1.146572">
        <ele>28.4</ele>
        <time>2020-08-13T01:38:25Z</time>
      </trkpt>
      <trkpt lat="45.072397" lon="-1.14623">
        <ele>28.4</ele>
        <time>2020-08-13T01:38:27Z</time>
      </trkpt>
      <trkpt lat="45.072384" lon="-1.14583">
        <ele>30.4</ele>
        <time>2020-08-13T01:38:29Z</time>
      </trkpt>
      <trkpt lat="45.072322" lon="-1.145453">
        <ele>30.4</ele>
        <time>2020-08-13T01:38:30Z</time>
      </trkpt>
      <trkpt lat="45.072162" lon="-1.144836">
        <ele>30.6</ele>
        <time>2020-08-13T01:38:33Z</time>
      </trkpt>
      <trkpt lat="45.072084" lon="-1.144647">
        <ele>30.6</ele>
        <time>2020-08-13T01:38:34Z</time>
      </trkpt>
      <trkpt lat="45.071895" lon="-1.144267">
        <ele>30.6</ele>
        <time>2020-08-13T01:38:36Z</time>
      </trkpt>
      <trkpt lat="45.071767" lon="-1.144076">
        <ele>29.0</ele>
        <time>2020-08-13T01:38:37Z</time>
      </trkpt>
      <trkpt lat="45.071548" lon="-1.143907">
        <ele>26.4</ele>
        <time>2020-08-13T01:38:38Z</time>
      </trkpt>
      <trkpt lat="45.071415" lon="-1.143853">
        <ele>26.4</ele>
        <time>2020-08-13T01:38:39Z</time>
      </trkpt>
      <trkpt lat="45.071379" lon="-1.143874">
        <ele>26.4</ele>
        <time>2020-08-13T01:38:40Z</time>
      </trkpt>
      <trkpt lat="45.071304" lon="-1.143862">
        <ele>26.4</ele>
        <time>2020-08-13T01:38:41Z</time>
      </trkpt>
      <trkpt lat="45.071272" lon="-1.143829">
        <ele>26.4</ele>
        <time>2020-08-13T01:38:41Z</time>
      </trkpt>
      <trkpt lat="45.071062" lon="-1.143795">
        <ele>26.4</ele>
        <time>2020-08-13T01:38:44Z</time>
      </trkpt>
      <trkpt lat="45.070306" lon="-1.144044">
        <ele>23.0</ele>
        <time>2020-08-13T01:38:54Z</time>
      </trkpt>
      <trkpt lat="45.070187" lon="-1.14404">
        <ele>23.0</ele>
        <time>2020-08-13T01:38:56Z</time>
      </trkpt>
      <trkpt lat="45.069586" lon="-1.143887">
        <ele>26.8</ele>
        <time>2020-08-13T01:39:04Z</time>
      </trkpt>
      <trkpt lat="45.069407" lon="-1.143778">
        <ele>26.8</ele>
        <time>2020-08-13T01:39:06Z</time>
      </trkpt>
      <trkpt lat="45.069324" lon="-1.143706">
        <ele>26.8</ele>
        <time>2020-08-13T01:39:07Z</time>
      </trkpt>
      <trkpt lat="45.068857" lon="-1.142963">
        <ele>25.6</ele>
        <time>2020-08-13T01:39:17Z</time>
      </trkpt>
      <trkpt lat="45.068153" lon="-1.142029">
        <ele>19.6</ele>
        <time>2020-08-13T01:39:29Z</time>
      </trkpt>
      <trkpt lat="45.068001" lon="-1.141769">
        <ele>19.6</ele>
        <time>2020-08-13T01:39:33Z</time>
      </trkpt>
      <trkpt lat="45.067845" lon="-1.141403">
        <ele>18.6</ele>
        <time>2020-08-13T01:39:37Z</time>
      </trkpt>
      <trkpt lat="45.06773" lon="-1.14105">
        <ele>18.6</ele>
        <time>2020-08-13T01:39:40Z</time>
      </trkpt>
      <trkpt lat="45.067656" lon="-1.141036">
        <ele>18.6</ele>
        <time>2020-08-13T01:39:41Z</time>
      </trkpt>
      <trkpt lat="45.067615" lon="-1.140926">
        <ele>18.6</ele>
        <time>2020-08-13T01:39:41Z</time>
      </trkpt>
      <trkpt lat="45.067632" lon="-1.140824">
        <ele>18.6</ele>
        <time>2020-08-13T01:39:42Z</time>
      </trkpt>
      <trkpt lat="45.06747" lon="-1.140447">
        <ele>18.8</ele>
        <time>2020-08-13T01:39:44Z</time>
      </trkpt>
      <trkpt lat="45.066125" lon="-1.137709">
        <ele>25.2</ele>
        <time>2020-08-13T01:40:01Z</time>
      </trkpt>
      <trkpt lat="45.065867" lon="-1.137216">
        <ele>22.8</ele>
        <time>2020-08-13T01:40:04Z</time>
      </trkpt>
      <trkpt lat="45.065632" lon="-1.136885">
        <ele>25.8</ele>
        <time>2020-08-13T01:40:06Z</time>
      </trkpt>
      <trkpt lat="45.064625" lon="-1.135888">
        <ele>23.4</ele>
        <time>2020-08-13T01:40:15Z</time>
      </trkpt>
      <trkpt lat="45.064314" lon="-1.135525">
        <ele>21.2</ele>
        <time>2020-08-13T01:40:17Z</time>
      </trkpt>
      <trkpt lat="45.064183" lon="-1.135349">
        <ele>21.2</ele>
        <time>2020-08-13T01:40:19Z</time>
      </trkpt>
      <trkpt lat="45.062487" lon="-1.132444">
        <ele>19.8</ele>
        <time>2020-08-13T01:40:37Z</time>
      </trkpt>
      <trkpt lat="45.062191" lon="-1.131835">
        <ele>19.8</ele>
        <time>2020-08-13T01:40:41Z</time>
      </trkpt>
      <trkpt lat="45.062069" lon="-1.131494">
        <ele>19.0</ele>
        <time>2020-08-13T01:40:43Z</time>
      </trkpt>
      <trkpt lat="45.061955" lon="-1.131097">
        <ele>19.0</ele>
        <time>2020-08-13T01:40:45Z</time>
      </trkpt>
      <trkpt lat="45.061446" lon="-1.128864">
        <ele>22.2</ele>
        <time>2020-08-13T01:40:57Z</time>
      </trkpt>
      <trkpt lat="45.061348" lon="-1.128633">
        <ele>22.2</ele>
        <time>2020-08-13T01:40:58Z</time>
      </trkpt>
      <trkpt lat="45.061273" lon="-1.128508">
        <ele>22.2</ele>
        <time>2020-08-13T01:40:59Z</time>
      </trkpt>
      <trkpt lat="45.060938" lon="-1.128053">
        <ele>20.2</ele>
        <time>2020-08-13T01:41:02Z</time>
      </trkpt>
      <trkpt lat="45.060813" lon="-1.127819">
        <ele>20.0</ele>
        <time>2020-08-13T01:41:03Z</time>
      </trkpt>
      <trkpt lat="45.060676" lon="-1.127399">
        <ele>18.2</ele>
        <time>2020-08-13T01:41:06Z</time>
      </trkpt>
      <trkpt lat="45.060613" lon="-1.12701">
        <ele>18.2</ele>
        <time>2020-08-13T01:41:08Z</time>
      </trkpt>
      <trkpt lat="45.060561" lon="-1.125623">
        <ele>17.6</ele>
        <time>2020-08-13T01:41:15Z</time>
      </trkpt>
      <trkpt lat="45.060554" lon="-1.125063">
        <ele>17.6</ele>
        <time>2020-08-13T01:41:17Z</time>
      </trkpt>
      <trkpt lat="45.060583" lon="-1.124472">
        <ele>16.6</ele>
        <time>2020-08-13T01:41:20Z</time>
      </trkpt>
      <trkpt lat="45.060618" lon="-1.124236">
        <ele>16.6</ele>
        <time>2020-08-13T01:41:21Z</time>
      </trkpt>
      <trkpt lat="45.060686" lon="-1.123988">
        <ele>16.4</ele>
        <time>2020-08-13T01:41:23Z</time>
      </trkpt>
      <trkpt lat="45.060865" lon="-1.123475">
        <ele>16.0</ele>
        <time>2020-08-13T01:41:26Z</time>
      </trkpt>
      <trkpt lat="45.06208" lon="-1.120428">
        <ele>16.0</ele>
        <time>2020-08-13T01:41:43Z</time>
      </trkpt>
      <trkpt lat="45.072494" lon="-1.093314">
        <ele>17.4</ele>
        <time>2020-08-13T01:44:16Z</time>
      </trkpt>
      <trkpt lat="45.072776" lon="-1.092624">
        <ele>17.8</ele>
        <time>2020-08-13T01:44:20Z</time>
      </trkpt>
      <trkpt lat="45.072911" lon="-1.092229">
        <ele>17.2</ele>
        <time>2020-08-13T01:44:22Z</time>
      </trkpt>
      <trkpt lat="45.073002" lon="-1.091858">
        <ele>17.2</ele>
        <time>2020-08-13T01:44:24Z</time>
      </trkpt>
      <trkpt lat="45.073068" lon="-1.091449">
        <ele>16.2</ele>
        <time>2020-08-13T01:44:26Z</time>
      </trkpt>
      <trkpt lat="45.07328" lon="-1.089673">
        <ele>15.8</ele>
        <time>2020-08-13T01:44:35Z</time>
      </trkpt>
      <trkpt lat="45.078017" lon="-1.046891">
        <ele>22.0</ele>
        <time>2020-08-13T01:48:09Z</time>
      </trkpt>
      <trkpt lat="45.078039" lon="-1.046702">
        <ele>22.0</ele>
        <time>2020-08-13T01:48:10Z</time>
      </trkpt>
      <trkpt lat="45.078159" lon="-1.046148">
        <ele>22.2</ele>
        <time>2020-08-13T01:48:13Z</time>
      </trkpt>
      <trkpt lat="45.078128" lon="-1.046136">
        <ele>22.2</ele>
        <time>2020-08-13T01:48:13Z</time>
      </trkpt>
      <trkpt lat="45.078083" lon="-1.046073">
        <ele>22.2</ele>
        <time>2020-08-13T01:48:14Z</time>
      </trkpt>
      <trkpt lat="45.078076" lon="-1.045993">
        <ele>22.2</ele>
        <time>2020-08-13T01:48:14Z</time>
      </trkpt>
      <trkpt lat="45.078097" lon="-1.045931">
        <ele>22.2</ele>
        <time>2020-08-13T01:48:15Z</time>
      </trkpt>
      <trkpt lat="45.078125" lon="-1.0459">
        <ele>22.2</ele>
        <time>2020-08-13T01:48:15Z</time>
      </trkpt>
      <trkpt lat="45.078175" lon="-1.045887">
        <ele>22.2</ele>
        <time>2020-08-13T01:48:16Z</time>
      </trkpt>
      <trkpt lat="45.078175" lon="-1.045887">
        <ele>22.2</ele>
        <time>2020-08-13T01:48:16Z</time>
      </trkpt>
      <trkpt lat="45.078222" lon="-1.045912">
        <ele>22.2</ele>
        <time>2020-08-13T01:48:16Z</time>
      </trkpt>
      <trkpt lat="45.078252" lon="-1.045965">
        <ele>22.2</ele>
        <time>2020-08-13T01:48:16Z</time>
      </trkpt>
      <trkpt lat="45.07826" lon="-1.046016">
        <ele>22.2</ele>
        <time>2020-08-13T01:48:17Z</time>
      </trkpt>
      <trkpt lat="45.078365" lon="-1.046062">
        <ele>21.8</ele>
        <time>2020-08-13T01:48:17Z</time>
      </trkpt>
      <trkpt lat="45.079218" lon="-1.046105">
        <ele>21.8</ele>
        <time>2020-08-13T01:48:23Z</time>
      </trkpt>
      <trkpt lat="45.083177" lon="-1.046012">
        <ele>23.0</ele>
        <time>2020-08-13T01:48:50Z</time>
      </trkpt>
      <trkpt lat="45.086238" lon="-1.045987">
        <ele>23.2</ele>
        <time>2020-08-13T01:49:10Z</time>
      </trkpt>
      <trkpt lat="45.087816" lon="-1.045945">
        <ele>23.2</ele>
        <time>2020-08-13T01:49:21Z</time>
      </trkpt>
      <trkpt lat="45.090443" lon="-1.045929">
        <ele>20.8</ele>
        <time>2020-08-13T01:49:38Z</time>
      </trkpt>
      <trkpt lat="45.093423" lon="-1.045846">
        <ele>22.4</ele>
        <time>2020-08-13T01:49:58Z</time>
      </trkpt>
      <trkpt lat="45.096552" lon="-1.045825">
        <ele>21.8</ele>
        <time>2020-08-13T01:50:19Z</time>
      </trkpt>
      <trkpt lat="45.102597" lon="-1.04571">
        <ele>20.6</ele>
        <time>2020-08-13T01:51:00Z</time>
      </trkpt>
      <trkpt lat="45.110149" lon="-1.045614">
        <ele>21.0</ele>
        <time>2020-08-13T01:51:50Z</time>
      </trkpt>
      <trkpt lat="45.116316" lon="-1.045508">
        <ele>19.8</ele>
        <time>2020-08-13T01:52:32Z</time>
      </trkpt>
      <trkpt lat="45.117192" lon="-1.045517">
        <ele>19.8</ele>
        <time>2020-08-13T01:52:37Z</time>
      </trkpt>
      <trkpt lat="45.126799" lon="-1.045369">
        <ele>19.6</ele>
        <time>2020-08-13T01:53:42Z</time>
      </trkpt>
      <trkpt lat="45.141541" lon="-1.045179">
        <ele>19.8</ele>
        <time>2020-08-13T01:55:21Z</time>
      </trkpt>
      <trkpt lat="45.14473" lon="-1.045165">
        <ele>18.8</ele>
        <time>2020-08-13T01:55:42Z</time>
      </trkpt>
      <trkpt lat="45.14504" lon="-1.045204">
        <ele>20.4</ele>
        <time>2020-08-13T01:55:44Z</time>
      </trkpt>
      <trkpt lat="45.151497" lon="-1.047109">
        <ele>18.2</ele>
        <time>2020-08-13T01:56:28Z</time>
      </trkpt>
      <trkpt lat="45.158627" lon="-1.049241">
        <ele>19.8</ele>
        <time>2020-08-13T01:57:17Z</time>
      </trkpt>
      <trkpt lat="45.164557" lon="-1.050984">
        <ele>17.0</ele>
        <time>2020-08-13T01:57:58Z</time>
      </trkpt>
      <trkpt lat="45.169476" lon="-1.052493">
        <ele>16.8</ele>
        <time>2020-08-13T01:58:31Z</time>
      </trkpt>
      <trkpt lat="45.173839" lon="-1.053768">
        <ele>18.0</ele>
        <time>2020-08-13T01:59:01Z</time>
      </trkpt>
      <trkpt lat="45.176833" lon="-1.05468">
        <ele>17.4</ele>
        <time>2020-08-13T01:59:22Z</time>
      </trkpt>
      <trkpt lat="45.182887" lon="-1.056462">
        <ele>18.0</ele>
        <time>2020-08-13T02:00:03Z</time>
      </trkpt>
      <trkpt lat="45.18409" lon="-1.056834">
        <ele>17.4</ele>
        <time>2020-08-13T02:00:11Z</time>
      </trkpt>
      <trkpt lat="45.184201" lon="-1.056841">
        <ele>17.4</ele>
        <time>2020-08-13T02:00:12Z</time>
      </trkpt>
      <trkpt lat="45.185338" lon="-1.05719">
        <ele>17.8</ele>
        <time>2020-08-13T02:00:20Z</time>
      </trkpt>
      <trkpt lat="45.185443" lon="-1.057195">
        <ele>17.8</ele>
        <time>2020-08-13T02:00:21Z</time>
      </trkpt>
      <trkpt lat="45.185618" lon="-1.058715">
        <ele>18.8</ele>
        <time>2020-08-13T02:00:35Z</time>
      </trkpt>
      <trkpt lat="45.186185" lon="-1.058555">
        <ele>18.6</ele>
        <time>2020-08-13T02:00:41Z</time>
      </trkpt>
      <trkpt lat="45.186741" lon="-1.059839">
        <ele>18.6</ele>
        <time>2020-08-13T02:00:52Z</time>
      </trkpt>
      <trkpt lat="45.186939" lon="-1.060274">
        <ele>18.8</ele>
        <time>2020-08-13T02:00:55Z</time>
      </trkpt>
      <trkpt lat="45.187043" lon="-1.060441">
        <ele>18.8</ele>
        <time>2020-08-13T02:00:57Z</time>
      </trkpt>
      <trkpt lat="45.188898" lon="-1.062338">
        <ele>17.8</ele>
        <time>2020-08-13T02:01:20Z</time>
      </trkpt>
      <trkpt lat="45.188968" lon="-1.062476">
        <ele>17.8</ele>
        <time>2020-08-13T02:01:22Z</time>
      </trkpt>
      <trkpt lat="45.189024" lon="-1.062488">
        <ele>17.8</ele>
        <time>2020-08-13T02:01:22Z</time>
      </trkpt>
      <trkpt lat="45.189092" lon="-1.062537">
        <ele>17.4</ele>
        <time>2020-08-13T02:01:23Z</time>
      </trkpt>
      <trkpt lat="45.193359" lon="-1.066938">
        <ele>18.4</ele>
        <time>2020-08-13T02:02:02Z</time>
      </trkpt>
      <trkpt lat="45.1938" lon="-1.06736">
        <ele>18.4</ele>
        <time>2020-08-13T02:02:06Z</time>
      </trkpt>
      <trkpt lat="45.196692" lon="-1.07039">
        <ele>18.6</ele>
        <time>2020-08-13T02:02:33Z</time>
      </trkpt>
      <trkpt lat="45.197117" lon="-1.070774">
        <ele>18.6</ele>
        <time>2020-08-13T02:02:37Z</time>
      </trkpt>
      <trkpt lat="45.19744" lon="-1.071025">
        <ele>18.4</ele>
        <time>2020-08-13T02:02:39Z</time>
      </trkpt>
      <trkpt lat="45.197826" lon="-1.071286">
        <ele>18.4</ele>
        <time>2020-08-13T02:02:42Z</time>
      </trkpt>
      <trkpt lat="45.20634" lon="-1.076367">
        <ele>17.6</ele>
        <time>2020-08-13T02:03:51Z</time>
      </trkpt>
      <trkpt lat="45.207185" lon="-1.076955">
        <ele>19.2</ele>
        <time>2020-08-13T02:03:58Z</time>
      </trkpt>
      <trkpt lat="45.207217" lon="-1.076892">
        <ele>19.2</ele>
        <time>2020-08-13T02:03:59Z</time>
      </trkpt>
      <trkpt lat="45.207314" lon="-1.076822">
        <ele>19.2</ele>
        <time>2020-08-13T02:04:00Z</time>
      </trkpt>
      <trkpt lat="45.20737" lon="-1.076823">
        <ele>19.2</ele>
        <time>2020-08-13T02:04:00Z</time>
      </trkpt>
      <trkpt lat="45.207423" lon="-1.07685">
        <ele>19.2</ele>
        <time>2020-08-13T02:04:00Z</time>
      </trkpt>
      <trkpt lat="45.207468" lon="-1.076899">
        <ele>19.2</ele>
        <time>2020-08-13T02:04:01Z</time>
      </trkpt>
      <trkpt lat="45.2075" lon="-1.076966">
        <ele>19.2</ele>
        <time>2020-08-13T02:04:01Z</time>
      </trkpt>
      <trkpt lat="45.207514" lon="-1.077045">
        <ele>18.6</ele>
        <time>2020-08-13T02:04:01Z</time>
      </trkpt>
      <trkpt lat="45.207633" lon="-1.077045">
        <ele>18.6</ele>
        <time>2020-08-13T02:04:02Z</time>
      </trkpt>
      <trkpt lat="45.20816" lon="-1.077137">
        <ele>18.6</ele>
        <time>2020-08-13T02:04:06Z</time>
      </trkpt>
      <trkpt lat="45.208578" lon="-1.07716">
        <ele>18.4</ele>
        <time>2020-08-13T02:04:08Z</time>
      </trkpt>
      <trkpt lat="45.242107" lon="-1.080617">
        <ele>16.0</ele>
        <time>2020-08-13T02:07:49Z</time>
      </trkpt>
      <trkpt lat="45.247122" lon="-1.081104">
        <ele>15.3</ele>
        <time>2020-08-13T02:08:22Z</time>
      </trkpt>
      <trkpt lat="45.247122" lon="-1.081104">
        <ele>15.3</ele>
        <time>2020-08-13T02:08:22Z</time>
      </trkpt>
      <trkpt lat="45.247549" lon="-1.081102">
        <ele>15.6</ele>
        <time>2020-08-13T02:08:25Z</time>
      </trkpt>
      <trkpt lat="45.250516" lon="-1.080961">
        <ele>15.8</ele>
        <time>2020-08-13T02:08:46Z</time>
      </trkpt>
      <trkpt lat="45.270654" lon="-1.079978">
        <ele>11.2</ele>
        <time>2020-08-13T02:11:10Z</time>
      </trkpt>
      <trkpt lat="45.285823" lon="-1.079917">
        <ele>10.2</ele>
        <time>2020-08-13T02:12:58Z</time>
      </trkpt>
      <trkpt lat="45.286592" lon="-1.079893">
        <ele>9.0</ele>
        <time>2020-08-13T02:13:03Z</time>
      </trkpt>
      <trkpt lat="45.286913" lon="-1.079839">
        <ele>9.6</ele>
        <time>2020-08-13T02:13:06Z</time>
      </trkpt>
      <trkpt lat="45.287379" lon="-1.07972">
        <ele>9.6</ele>
        <time>2020-08-13T02:13:09Z</time>
      </trkpt>
      <trkpt lat="45.296453" lon="-1.077075">
        <ele>7.8</ele>
        <time>2020-08-13T02:14:15Z</time>
      </trkpt>
      <trkpt lat="45.297385" lon="-1.076729">
        <ele>7.8</ele>
        <time>2020-08-13T02:14:22Z</time>
      </trkpt>
      <trkpt lat="45.300254" lon="-1.075506">
        <ele>9.6</ele>
        <time>2020-08-13T02:14:44Z</time>
      </trkpt>
      <trkpt lat="45.309947" lon="-1.071437">
        <ele>8.0</ele>
        <time>2020-08-13T02:15:56Z</time>
      </trkpt>
      <trkpt lat="45.310491" lon="-1.071233">
        <ele>7.8</ele>
        <time>2020-08-13T02:16:00Z</time>
      </trkpt>
      <trkpt lat="45.310701" lon="-1.071184">
        <ele>7.8</ele>
        <time>2020-08-13T02:16:01Z</time>
      </trkpt>
      <trkpt lat="45.322652" lon="-1.070107">
        <ele>6.2</ele>
        <time>2020-08-13T02:17:27Z</time>
      </trkpt>
      <trkpt lat="45.325179" lon="-1.069885">
        <ele>5.0</ele>
        <time>2020-08-13T02:17:45Z</time>
      </trkpt>
      <trkpt lat="45.325512" lon="-1.069877">
        <ele>5.0</ele>
        <time>2020-08-13T02:17:47Z</time>
      </trkpt>
      <trkpt lat="45.326105" lon="-1.069946">
        <ele>5.0</ele>
        <time>2020-08-13T02:17:51Z</time>
      </trkpt>
      <trkpt lat="45.335291" lon="-1.07164">
        <ele>6.6</ele>
        <time>2020-08-13T02:18:57Z</time>
      </trkpt>
      <trkpt lat="45.335647" lon="-1.071691">
        <ele>5.4</ele>
        <time>2020-08-13T02:19:00Z</time>
      </trkpt>
      <trkpt lat="45.336232" lon="-1.071693">
        <ele>5.8</ele>
        <time>2020-08-13T02:19:04Z</time>
      </trkpt>
      <trkpt lat="45.336834" lon="-1.071605">
        <ele>5.8</ele>
        <time>2020-08-13T02:19:09Z</time>
      </trkpt>
      <trkpt lat="45.337426" lon="-1.071426">
        <ele>5.8</ele>
        <time>2020-08-13T02:19:13Z</time>
      </trkpt>
      <trkpt lat="45.337694" lon="-1.071303">
        <ele>5.0</ele>
        <time>2020-08-13T02:19:15Z</time>
      </trkpt>
      <trkpt lat="45.352085" lon="-1.062817">
        <ele>7.2</ele>
        <time>2020-08-13T02:21:06Z</time>
      </trkpt>
      <trkpt lat="45.35287" lon="-1.06234">
        <ele>6.6</ele>
        <time>2020-08-13T02:21:12Z</time>
      </trkpt>
      <trkpt lat="45.353494" lon="-1.061903">
        <ele>7.0</ele>
        <time>2020-08-13T02:21:17Z</time>
      </trkpt>
      <trkpt lat="45.354507" lon="-1.061133">
        <ele>7.8</ele>
        <time>2020-08-13T02:21:25Z</time>
      </trkpt>
      <trkpt lat="45.355094" lon="-1.060633">
        <ele>8.8</ele>
        <time>2020-08-13T02:21:30Z</time>
      </trkpt>
      <trkpt lat="45.355188" lon="-1.060523">
        <ele>8.8</ele>
        <time>2020-08-13T02:21:31Z</time>
      </trkpt>
      <trkpt lat="45.355188" lon="-1.060523">
        <ele>8.8</ele>
        <time>2020-08-13T02:21:31Z</time>
      </trkpt>
      <trkpt lat="45.355188" lon="-1.060523">
        <ele>8.8</ele>
        <time>2020-08-13T02:21:31Z</time>
      </trkpt>
      <trkpt lat="45.355434" lon="-1.06106">
        <ele>8.8</ele>
        <time>2020-08-13T02:21:38Z</time>
      </trkpt>
      <trkpt lat="45.355663" lon="-1.061469">
        <ele>8.8</ele>
        <time>2020-08-13T02:21:44Z</time>
      </trkpt>
      <trkpt lat="45.355902" lon="-1.061792">
        <ele>7.8</ele>
        <time>2020-08-13T02:21:49Z</time>
      </trkpt>
      <trkpt lat="45.356335" lon="-1.061356">
        <ele>8.4</ele>
        <time>2020-08-13T02:21:54Z</time>
      </trkpt>
      <trkpt lat="45.356475" lon="-1.061245">
        <ele>8.4</ele>
        <time>2020-08-13T02:21:56Z</time>
      </trkpt>
      <trkpt lat="45.356535" lon="-1.061625">
        <ele>8.4</ele>
        <time>2020-08-13T02:21:59Z</time>
      </trkpt>
      <trkpt lat="45.356541" lon="-1.061936">
        <ele>7.8</ele>
        <time>2020-08-13T02:22:02Z</time>
      </trkpt>
      <trkpt lat="45.356572" lon="-1.062244">
        <ele>7.8</ele>
        <time>2020-08-13T02:22:04Z</time>
      </trkpt>
      <trkpt lat="45.356637" lon="-1.062368">
        <ele>7.8</ele>
        <time>2020-08-13T02:22:05Z</time>
      </trkpt>
      <trkpt lat="45.356977" lon="-1.062731">
        <ele>7.0</ele>
        <time>2020-08-13T02:22:08Z</time>
      </trkpt>
      <trkpt lat="45.357145" lon="-1.063115">
        <ele>7.0</ele>
        <time>2020-08-13T02:22:10Z</time>
      </trkpt>
      <trkpt lat="45.357605" lon="-1.064">
        <ele>6.6</ele>
        <time>2020-08-13T02:22:16Z</time>
      </trkpt>
      <trkpt lat="45.357871" lon="-1.064428">
        <ele>7.4</ele>
        <time>2020-08-13T02:22:19Z</time>
      </trkpt>
      <trkpt lat="45.358507" lon="-1.065151">
        <ele>7.4</ele>
        <time>2020-08-13T02:22:26Z</time>
      </trkpt>
      <trkpt lat="45.358869" lon="-1.065423">
        <ele>7.4</ele>
        <time>2020-08-13T02:22:29Z</time>
      </trkpt>
      <trkpt lat="45.363397" lon="-1.067711">
        <ele>7.0</ele>
        <time>2020-08-13T02:23:06Z</time>
      </trkpt>
      <trkpt lat="45.363656" lon="-1.067899">
        <ele>7.0</ele>
        <time>2020-08-13T02:23:08Z</time>
      </trkpt>
      <trkpt lat="45.363938" lon="-1.068249">
        <ele>7.0</ele>
        <time>2020-08-13T02:23:11Z</time>
      </trkpt>
      <trkpt lat="45.367166" lon="-1.074143">
        <ele>7.8</ele>
        <time>2020-08-13T02:23:51Z</time>
      </trkpt>
      <trkpt lat="45.373728" lon="-1.079559">
        <ele>4.4</ele>
        <time>2020-08-13T02:24:49Z</time>
      </trkpt>
      <trkpt lat="45.373978" lon="-1.079791">
        <ele>4.4</ele>
        <time>2020-08-13T02:24:51Z</time>
      </trkpt>
      <trkpt lat="45.374181" lon="-1.080066">
        <ele>3.6</ele>
        <time>2020-08-13T02:24:53Z</time>
      </trkpt>
      <trkpt lat="45.37633" lon="-1.083597">
        <ele>5.8</ele>
        <time>2020-08-13T02:25:18Z</time>
      </trkpt>
      <trkpt lat="45.376676" lon="-1.083843">
        <ele>5.2</ele>
        <time>2020-08-13T02:25:21Z</time>
      </trkpt>
      <trkpt lat="45.377643" lon="-1.084296">
        <ele>5.4</ele>
        <time>2020-08-13T02:25:29Z</time>
      </trkpt>
      <trkpt lat="45.378427" lon="-1.084993">
        <ele>6.0</ele>
        <time>2020-08-13T02:25:36Z</time>
      </trkpt>
      <trkpt lat="45.388237" lon="-1.09711">
        <ele>3.4</ele>
        <time>2020-08-13T02:27:15Z</time>
      </trkpt>
      <trkpt lat="45.389786" lon="-1.09866">
        <ele>4.4</ele>
        <time>2020-08-13T02:27:30Z</time>
      </trkpt>
      <trkpt lat="45.391131" lon="-1.099386">
        <ele>7.0</ele>
        <time>2020-08-13T02:27:41Z</time>
      </trkpt>
      <trkpt lat="45.393371" lon="-1.099615">
        <ele>8.0</ele>
        <time>2020-08-13T02:27:58Z</time>
      </trkpt>
      <trkpt lat="45.393371" lon="-1.099615">
        <ele>8.3</ele>
        <time>2020-08-13T02:27:58Z</time>
      </trkpt>
      <trkpt lat="45.393371" lon="-1.099615">
        <ele>8.3</ele>
        <time>2020-08-13T02:27:58Z</time>
      </trkpt>
      <trkpt lat="45.393371" lon="-1.099615">
        <ele>8.0</ele>
        <time>2020-08-13T02:27:58Z</time>
      </trkpt>
      <trkpt lat="45.39527" lon="-1.098902">
        <ele>8.6</ele>
        <time>2020-08-13T02:28:12Z</time>
      </trkpt>
      <trkpt lat="45.408388" lon="-1.093006">
        <ele>8.6</ele>
        <time>2020-08-13T02:29:48Z</time>
      </trkpt>
      <trkpt lat="45.411704" lon="-1.091496">
        <ele>10.6</ele>
        <time>2020-08-13T02:30:12Z</time>
      </trkpt>
      <trkpt lat="45.41293" lon="-1.090964">
        <ele>10.6</ele>
        <time>2020-08-13T02:30:21Z</time>
      </trkpt>
      <trkpt lat="45.413935" lon="-1.090394">
        <ele>11.4</ele>
        <time>2020-08-13T02:30:28Z</time>
      </trkpt>
      <trkpt lat="45.413948" lon="-1.090305">
        <ele>11.4</ele>
        <time>2020-08-13T02:30:29Z</time>
      </trkpt>
      <trkpt lat="45.413989" lon="-1.090281">
        <ele>11.4</ele>
        <time>2020-08-13T02:30:29Z</time>
      </trkpt>
      <trkpt lat="45.41403" lon="-1.090305">
        <ele>11.4</ele>
        <time>2020-08-13T02:30:30Z</time>
      </trkpt>
      <trkpt lat="45.414049" lon="-1.090368">
        <ele>11.4</ele>
        <time>2020-08-13T02:30:30Z</time>
      </trkpt>
      <trkpt lat="45.414212" lon="-1.09027">
        <ele>12.4</ele>
        <time>2020-08-13T02:30:31Z</time>
      </trkpt>
      <trkpt lat="45.416198" lon="-1.08944">
        <ele>12.6</ele>
        <time>2020-08-13T02:30:47Z</time>
      </trkpt>
      <trkpt lat="45.416691" lon="-1.089307">
        <ele>12.8</ele>
        <time>2020-08-13T02:30:51Z</time>
      </trkpt>
      <trkpt lat="45.417211" lon="-1.089271">
        <ele>12.8</ele>
        <time>2020-08-13T02:30:55Z</time>
      </trkpt>
      <trkpt lat="45.417744" lon="-1.089298">
        <ele>14.0</ele>
        <time>2020-08-13T02:30:59Z</time>
      </trkpt>
      <trkpt lat="45.418938" lon="-1.089605">
        <ele>14.0</ele>
        <time>2020-08-13T02:31:09Z</time>
      </trkpt>
      <trkpt lat="45.422389" lon="-1.090685">
        <ele>13.6</ele>
        <time>2020-08-13T02:31:36Z</time>
      </trkpt>
      <trkpt lat="45.423305" lon="-1.091035">
        <ele>13.0</ele>
        <time>2020-08-13T02:31:43Z</time>
      </trkpt>
      <trkpt lat="45.427881" lon="-1.092291">
        <ele>13.4</ele>
        <time>2020-08-13T02:32:19Z</time>
      </trkpt>
      <trkpt lat="45.43185" lon="-1.093461">
        <ele>12.8</ele>
        <time>2020-08-13T02:32:50Z</time>
      </trkpt>
      <trkpt lat="45.433403" lon="-1.093946">
        <ele>12.2</ele>
        <time>2020-08-13T02:33:02Z</time>
      </trkpt>
      <trkpt lat="45.434917" lon="-1.094593">
        <ele>11.6</ele>
        <time>2020-08-13T02:33:15Z</time>
      </trkpt>
      <trkpt lat="45.436758" lon="-1.09542">
        <ele>6.4</ele>
        <time>2020-08-13T02:33:29Z</time>
      </trkpt>
      <trkpt lat="45.436774" lon="-1.093625">
        <ele>5.6</ele>
        <time>2020-08-13T02:33:49Z</time>
      </trkpt>
      <trkpt lat="45.437387" lon="-1.091765">
        <ele>7.0</ele>
        <time>2020-08-13T02:34:03Z</time>
      </trkpt>
      <trkpt lat="45.437638" lon="-1.091324">
        <ele>7.0</ele>
        <time>2020-08-13T02:34:07Z</time>
      </trkpt>
      <trkpt lat="45.437989" lon="-1.09083">
        <ele>6.8</ele>
        <time>2020-08-13T02:34:12Z</time>
      </trkpt>
      <trkpt lat="45.438171" lon="-1.090702">
        <ele>6.8</ele>
        <time>2020-08-13T02:34:15Z</time>
      </trkpt>
      <trkpt lat="45.438747" lon="-1.090465">
        <ele>5.4</ele>
        <time>2020-08-13T02:34:21Z</time>
      </trkpt>
      <trkpt lat="45.439041" lon="-1.090286">
        <ele>5.4</ele>
        <time>2020-08-13T02:34:24Z</time>
      </trkpt>
      <trkpt lat="45.44001" lon="-1.089187">
        <ele>5.0</ele>
        <time>2020-08-13T02:34:37Z</time>
      </trkpt>
      <trkpt lat="45.4412" lon="-1.087932">
        <ele>5.2</ele>
        <time>2020-08-13T02:34:52Z</time>
      </trkpt>
      <trkpt lat="45.44172" lon="-1.087468">
        <ele>5.0</ele>
        <time>2020-08-13T02:34:58Z</time>
      </trkpt>
      <trkpt lat="45.441957" lon="-1.0873">
        <ele>5.0</ele>
        <time>2020-08-13T02:35:01Z</time>
      </trkpt>
      <trkpt lat="45.442223" lon="-1.087146">
        <ele>5.0</ele>
        <time>2020-08-13T02:35:04Z</time>
      </trkpt>
      <trkpt lat="45.442428" lon="-1.086992">
        <ele>5.0</ele>
        <time>2020-08-13T02:35:06Z</time>
      </trkpt>
      <trkpt lat="45.442548" lon="-1.086879">
        <ele>5.6</ele>
        <time>2020-08-13T02:35:08Z</time>
      </trkpt>
      <trkpt lat="45.442747" lon="-1.086599">
        <ele>4.8</ele>
        <time>2020-08-13T02:35:10Z</time>
      </trkpt>
      <trkpt lat="45.443029" lon="-1.086388">
        <ele>4.8</ele>
        <time>2020-08-13T02:35:14Z</time>
      </trkpt>
      <trkpt lat="45.443392" lon="-1.086197">
        <ele>4.4</ele>
        <time>2020-08-13T02:35:18Z</time>
      </trkpt>
      <trkpt lat="45.444685" lon="-1.084354">
        <ele>3.8</ele>
        <time>2020-08-13T02:35:51Z</time>
      </trkpt>
      <trkpt lat="45.44474" lon="-1.084357">
        <ele>3.8</ele>
        <time>2020-08-13T02:35:52Z</time>
      </trkpt>
      <trkpt lat="45.444783" lon="-1.084394">
        <ele>3.8</ele>
        <time>2020-08-13T02:35:53Z</time>
      </trkpt>
      <trkpt lat="45.444885" lon="-1.08395">
        <ele>4.2</ele>
        <time>2020-08-13T02:35:56Z</time>
      </trkpt>
      <trkpt lat="45.445057" lon="-1.083513">
        <ele>4.8</ele>
        <time>2020-08-13T02:35:59Z</time>
      </trkpt>
      <trkpt lat="45.445471" lon="-1.082691">
        <ele>4.8</ele>
        <time>2020-08-13T02:36:04Z</time>
      </trkpt>
      <trkpt lat="45.447201" lon="-1.080211">
        <ele>3.8</ele>
        <time>2020-08-13T02:36:23Z</time>
      </trkpt>
      <trkpt lat="45.448065" lon="-1.079537">
        <ele>3.6</ele>
        <time>2020-08-13T02:36:31Z</time>
      </trkpt>
      <trkpt lat="45.458678" lon="-1.070235">
        <ele>0.8</ele>
        <time>2020-08-13T02:38:07Z</time>
      </trkpt>
      <trkpt lat="45.460016" lon="-1.069043">
        <ele>1.4</ele>
        <time>2020-08-13T02:38:20Z</time>
      </trkpt>
      <trkpt lat="45.460108" lon="-1.068862">
        <ele>1.4</ele>
        <time>2020-08-13T02:38:21Z</time>
      </trkpt>
      <trkpt lat="45.460212" lon="-1.068747">
        <ele>1.4</ele>
        <time>2020-08-13T02:38:22Z</time>
      </trkpt>
      <trkpt lat="45.460282" lon="-1.068701">
        <ele>1.4</ele>
        <time>2020-08-13T02:38:23Z</time>
      </trkpt>
      <trkpt lat="45.460282" lon="-1.068701">
        <ele>1.4</ele>
        <time>2020-08-13T02:38:23Z</time>
      </trkpt>
      <trkpt lat="45.460282" lon="-1.068701">
        <ele>1.4</ele>
        <time>2020-08-13T02:38:23Z</time>
      </trkpt>
      <trkpt lat="45.46201" lon="-1.070841">
        <ele>1.0</ele>
        <time>2020-08-13T02:38:37Z</time>
      </trkpt>
      <trkpt lat="45.463524" lon="-1.072783">
        <ele>1.0</ele>
        <time>2020-08-13T02:38:51Z</time>
      </trkpt>
      <trkpt lat="45.470871" lon="-1.082531">
        <ele>0.8</ele>
        <time>2020-08-13T02:39:56Z</time>
      </trkpt>
      <trkpt lat="45.473602" lon="-1.08614">
        <ele>-0.2</ele>
        <time>2020-08-13T02:40:20Z</time>
      </trkpt>
      <trkpt lat="45.474463" lon="-1.08724">
        <ele>0.2</ele>
        <time>2020-08-13T02:40:27Z</time>
      </trkpt>
      <trkpt lat="45.475381" lon="-1.088301">
        <ele>1.0</ele>
        <time>2020-08-13T02:40:35Z</time>
      </trkpt>
      <trkpt lat="45.475877" lon="-1.088806">
        <ele>1.2</ele>
        <time>2020-08-13T02:40:39Z</time>
      </trkpt>
      <trkpt lat="45.476399" lon="-1.089299">
        <ele>0.8</ele>
        <time>2020-08-13T02:40:43Z</time>
      </trkpt>
      <trkpt lat="45.476984" lon="-1.089801">
        <ele>1.2</ele>
        <time>2020-08-13T02:40:47Z</time>
      </trkpt>
      <trkpt lat="45.477662" lon="-1.090333">
        <ele>0.8</ele>
        <time>2020-08-13T02:40:52Z</time>
      </trkpt>
      <trkpt lat="45.478856" lon="-1.091079">
        <ele>1.2</ele>
        <time>2020-08-13T02:41:01Z</time>
      </trkpt>
      <trkpt lat="45.479422" lon="-1.091368">
        <ele>1.0</ele>
        <time>2020-08-13T02:41:05Z</time>
      </trkpt>
      <trkpt lat="45.480122" lon="-1.091694">
        <ele>0.8</ele>
        <time>2020-08-13T02:41:10Z</time>
      </trkpt>
      <trkpt lat="45.48093" lon="-1.091993">
        <ele>0.8</ele>
        <time>2020-08-13T02:41:15Z</time>
      </trkpt>
      <trkpt lat="45.481844" lon="-1.092271">
        <ele>1.0</ele>
        <time>2020-08-13T02:41:21Z</time>
      </trkpt>
      <trkpt lat="45.482886" lon="-1.092422">
        <ele>1.2</ele>
        <time>2020-08-13T02:41:28Z</time>
      </trkpt>
      <trkpt lat="45.483601" lon="-1.092488">
        <ele>1.6</ele>
        <time>2020-08-13T02:41:33Z</time>
      </trkpt>
      <trkpt lat="45.484468" lon="-1.092497">
        <ele>1.8</ele>
        <time>2020-08-13T02:41:38Z</time>
      </trkpt>
      <trkpt lat="45.485776" lon="-1.092375">
        <ele>1.8</ele>
        <time>2020-08-13T02:41:47Z</time>
      </trkpt>
      <trkpt lat="45.486468" lon="-1.092279">
        <ele>1.8</ele>
        <time>2020-08-13T02:41:51Z</time>
      </trkpt>
      <trkpt lat="45.486879" lon="-1.092174">
        <ele>2.0</ele>
        <time>2020-08-13T02:41:54Z</time>
      </trkpt>
      <trkpt lat="45.498837" lon="-1.088386">
        <ele>0.8</ele>
        <time>2020-08-13T02:43:13Z</time>
      </trkpt>
      <trkpt lat="45.499497" lon="-1.08823">
        <ele>1.4</ele>
        <time>2020-08-13T02:43:18Z</time>
      </trkpt>
      <trkpt lat="45.500209" lon="-1.088131">
        <ele>1.0</ele>
        <time>2020-08-13T02:43:22Z</time>
      </trkpt>
      <trkpt lat="45.500786" lon="-1.088129">
        <ele>1.0</ele>
        <time>2020-08-13T02:43:26Z</time>
      </trkpt>
      <trkpt lat="45.50145" lon="-1.088223">
        <ele>1.2</ele>
        <time>2020-08-13T02:43:30Z</time>
      </trkpt>
      <trkpt lat="45.501827" lon="-1.088314">
        <ele>1.0</ele>
        <time>2020-08-13T02:43:33Z</time>
      </trkpt>
      <trkpt lat="45.502226" lon="-1.088456">
        <ele>1.0</ele>
        <time>2020-08-13T02:43:36Z</time>
      </trkpt>
      <trkpt lat="45.502793" lon="-1.088731">
        <ele>1.2</ele>
        <time>2020-08-13T02:43:39Z</time>
      </trkpt>
      <trkpt lat="45.503386" lon="-1.089108">
        <ele>1.4</ele>
        <time>2020-08-13T02:43:44Z</time>
      </trkpt>
      <trkpt lat="45.503884" lon="-1.089522">
        <ele>1.2</ele>
        <time>2020-08-13T02:43:47Z</time>
      </trkpt>
      <trkpt lat="45.504138" lon="-1.089768">
        <ele>1.2</ele>
        <time>2020-08-13T02:43:49Z</time>
      </trkpt>
      <trkpt lat="45.504639" lon="-1.090356">
        <ele>1.0</ele>
        <time>2020-08-13T02:43:54Z</time>
      </trkpt>
      <trkpt lat="45.50473" lon="-1.090438">
        <ele>1.0</ele>
        <time>2020-08-13T02:43:54Z</time>
      </trkpt>
      <trkpt lat="45.505098" lon="-1.090958">
        <ele>1.0</ele>
        <time>2020-08-13T02:43:58Z</time>
      </trkpt>
      <trkpt lat="45.505679" lon="-1.091899">
        <ele>0.8</ele>
        <time>2020-08-13T02:44:03Z</time>
      </trkpt>
      <trkpt lat="45.507443" lon="-1.095103">
        <ele>1.8</ele>
        <time>2020-08-13T02:44:22Z</time>
      </trkpt>
      <trkpt lat="45.507494" lon="-1.095233">
        <ele>1.8</ele>
        <time>2020-08-13T02:44:23Z</time>
      </trkpt>
      <trkpt lat="45.510168" lon="-1.099972">
        <ele>0.4</ele>
        <time>2020-08-13T02:44:50Z</time>
      </trkpt>
      <trkpt lat="45.510507" lon="-1.100513">
        <ele>0.8</ele>
        <time>2020-08-13T02:44:54Z</time>
      </trkpt>
      <trkpt lat="45.51097" lon="-1.101143">
        <ele>1.4</ele>
        <time>2020-08-13T02:44:58Z</time>
      </trkpt>
      <trkpt lat="45.511454" lon="-1.101693">
        <ele>1.2</ele>
        <time>2020-08-13T02:45:02Z</time>
      </trkpt>
      <trkpt lat="45.511782" lon="-1.102014">
        <ele>2.2</ele>
        <time>2020-08-13T02:45:04Z</time>
      </trkpt>
      <trkpt lat="45.512063" lon="-1.102257">
        <ele>2.2</ele>
        <time>2020-08-13T02:45:06Z</time>
      </trkpt>
      <trkpt lat="45.512711" lon="-1.102727">
        <ele>2.6</ele>
        <time>2020-08-13T02:45:11Z</time>
      </trkpt>
      <trkpt lat="45.513436" lon="-1.103106">
        <ele>2.0</ele>
        <time>2020-08-13T02:45:16Z</time>
      </trkpt>
      <trkpt lat="45.513814" lon="-1.10325">
        <ele>2.0</ele>
        <time>2020-08-13T02:45:19Z</time>
      </trkpt>
      <trkpt lat="45.514213" lon="-1.103369">
        <ele>0.4</ele>
        <time>2020-08-13T02:45:21Z</time>
      </trkpt>
      <trkpt lat="45.514639" lon="-1.103438">
        <ele>0.4</ele>
        <time>2020-08-13T02:45:24Z</time>
      </trkpt>
      <trkpt lat="45.515104" lon="-1.103473">
        <ele>0.6</ele>
        <time>2020-08-13T02:45:27Z</time>
      </trkpt>
      <trkpt lat="45.516008" lon="-1.103463">
        <ele>1.4</ele>
        <time>2020-08-13T02:45:33Z</time>
      </trkpt>
      <trkpt lat="45.522487" lon="-1.102851">
        <ele>1.6</ele>
        <time>2020-08-13T02:46:15Z</time>
      </trkpt>
      <trkpt lat="45.523751" lon="-1.102686">
        <ele>1.8</ele>
        <time>2020-08-13T02:46:23Z</time>
      </trkpt>
      <trkpt lat="45.523751" lon="-1.102686">
        <ele>1.8</ele>
        <time>2020-08-13T02:46:23Z</time>
      </trkpt>
      <trkpt lat="45.52478" lon="-1.102471">
        <ele>1.4</ele>
        <time>2020-08-13T02:46:30Z</time>
      </trkpt>
      <trkpt lat="45.525839" lon="-1.102196">
        <ele>2.6</ele>
        <time>2020-08-13T02:46:37Z</time>
      </trkpt>
      <trkpt lat="45.526199" lon="-1.102071">
        <ele>2.6</ele>
        <time>2020-08-13T02:46:40Z</time>
      </trkpt>
      <trkpt lat="45.533132" lon="-1.099213">
        <ele>1.2</ele>
        <time>2020-08-13T02:47:27Z</time>
      </trkpt>
      <trkpt lat="45.533321" lon="-1.099177">
        <ele>1.2</ele>
        <time>2020-08-13T02:47:28Z</time>
      </trkpt>
      <trkpt lat="45.533523" lon="-1.099169">
        <ele>1.2</ele>
        <time>2020-08-13T02:47:30Z</time>
      </trkpt>
      <trkpt lat="45.535469" lon="-1.099217">
        <ele>7.0</ele>
        <time>2020-08-13T02:47:42Z</time>
      </trkpt>
      <trkpt lat="45.536279" lon="-1.099073">
        <ele>6.6</ele>
        <time>2020-08-13T02:47:48Z</time>
      </trkpt>
      <trkpt lat="45.538406" lon="-1.098612">
        <ele>10.8</ele>
        <time>2020-08-13T02:48:02Z</time>
      </trkpt>
      <trkpt lat="45.538852" lon="-1.098482">
        <ele>10.8</ele>
        <time>2020-08-13T02:48:05Z</time>
      </trkpt>
      <trkpt lat="45.539171" lon="-1.098348">
        <ele>13.4</ele>
        <time>2020-08-13T02:48:07Z</time>
      </trkpt>
      <trkpt lat="45.5397" lon="-1.097998">
        <ele>6.2</ele>
        <time>2020-08-13T02:48:11Z</time>
      </trkpt>
      <trkpt lat="45.540145" lon="-1.097634">
        <ele>9.2</ele>
        <time>2020-08-13T02:48:14Z</time>
      </trkpt>
      <trkpt lat="45.540432" lon="-1.097347">
        <ele>5.0</ele>
        <time>2020-08-13T02:48:17Z</time>
      </trkpt>
      <trkpt lat="45.541781" lon="-1.095718">
        <ele>8.0</ele>
        <time>2020-08-13T02:48:28Z</time>
      </trkpt>
      <trkpt lat="45.542142" lon="-1.095232">
        <ele>8.0</ele>
        <time>2020-08-13T02:48:32Z</time>
      </trkpt>
      <trkpt lat="45.542711" lon="-1.094354">
        <ele>9.0</ele>
        <time>2020-08-13T02:48:37Z</time>
      </trkpt>
      <trkpt lat="45.543197" lon="-1.093528">
        <ele>8.6</ele>
        <time>2020-08-13T02:48:42Z</time>
      </trkpt>
      <trkpt lat="45.543603" lon="-1.09269">
        <ele>9.8</ele>
        <time>2020-08-13T02:48:47Z</time>
      </trkpt>
      <trkpt lat="45.544055" lon="-1.091609">
        <ele>9.2</ele>
        <time>2020-08-13T02:48:53Z</time>
      </trkpt>
      <trkpt lat="45.544441" lon="-1.090536">
        <ele>9.0</ele>
        <time>2020-08-13T02:48:58Z</time>
      </trkpt>
      <trkpt lat="45.544748" lon="-1.089508">
        <ele>9.0</ele>
        <time>2020-08-13T02:49:03Z</time>
      </trkpt>
      <trkpt lat="45.54495" lon="-1.08863">
        <ele>9.4</ele>
        <time>2020-08-13T02:49:07Z</time>
      </trkpt>
      <trkpt lat="45.545323" lon="-1.086825">
        <ele>8.8</ele>
        <time>2020-08-13T02:49:16Z</time>
      </trkpt>
      <trkpt lat="45.545491" lon="-1.085932">
        <ele>8.0</ele>
        <time>2020-08-13T02:49:20Z</time>
      </trkpt>
      <trkpt lat="45.545626" lon="-1.085109">
        <ele>8.0</ele>
        <time>2020-08-13T02:49:24Z</time>
      </trkpt>
      <trkpt lat="45.546249" lon="-1.080369">
        <ele>9.4</ele>
        <time>2020-08-13T02:49:46Z</time>
      </trkpt>
      <trkpt lat="45.546809" lon="-1.076656">
        <ele>7.2</ele>
        <time>2020-08-13T02:50:04Z</time>
      </trkpt>
      <trkpt lat="45.547348" lon="-1.073442">
        <ele>8.6</ele>
        <time>2020-08-13T02:50:19Z</time>
      </trkpt>
      <trkpt lat="45.547398" lon="-1.07304">
        <ele>10.8</ele>
        <time>2020-08-13T02:50:21Z</time>
      </trkpt>
      <trkpt lat="45.547493" lon="-1.071901">
        <ele>13.0</ele>
        <time>2020-08-13T02:50:26Z</time>
      </trkpt>
      <trkpt lat="45.547502" lon="-1.071582">
        <ele>14.0</ele>
        <time>2020-08-13T02:50:28Z</time>
      </trkpt>
      <trkpt lat="45.547483" lon="-1.071186">
        <ele>12.6</ele>
        <time>2020-08-13T02:50:30Z</time>
      </trkpt>
      <trkpt lat="45.547248" lon="-1.069223">
        <ele>7.8</ele>
        <time>2020-08-13T02:50:39Z</time>
      </trkpt>
      <trkpt lat="45.547243" lon="-1.069061">
        <ele>6.8</ele>
        <time>2020-08-13T02:50:40Z</time>
      </trkpt>
      <trkpt lat="45.547267" lon="-1.068819">
        <ele>6.8</ele>
        <time>2020-08-13T02:50:41Z</time>
      </trkpt>
      <trkpt lat="45.547344" lon="-1.06853">
        <ele>6.8</ele>
        <time>2020-08-13T02:50:42Z</time>
      </trkpt>
      <trkpt lat="45.547432" lon="-1.068345">
        <ele>6.8</ele>
        <time>2020-08-13T02:50:43Z</time>
      </trkpt>
      <trkpt lat="45.547675" lon="-1.068056">
        <ele>5.8</ele>
        <time>2020-08-13T02:50:45Z</time>
      </trkpt>
      <trkpt lat="45.547788" lon="-1.067813">
        <ele>5.8</ele>
        <time>2020-08-13T02:50:47Z</time>
      </trkpt>
      <trkpt lat="45.547804" lon="-1.067729">
        <ele>5.8</ele>
        <time>2020-08-13T02:50:47Z</time>
      </trkpt>
      <trkpt lat="45.547849" lon="-1.067672">
        <ele>5.8</ele>
        <time>2020-08-13T02:50:48Z</time>
      </trkpt>
      <trkpt lat="45.547916" lon="-1.067662">
        <ele>5.8</ele>
        <time>2020-08-13T02:50:48Z</time>
      </trkpt>
      <trkpt lat="45.547948" lon="-1.06768">
        <ele>5.8</ele>
        <time>2020-08-13T02:50:49Z</time>
      </trkpt>
      <trkpt lat="45.547973" lon="-1.067713">
        <ele>5.8</ele>
        <time>2020-08-13T02:50:49Z</time>
      </trkpt>
      <trkpt lat="45.548045" lon="-1.067931">
        <ele>5.8</ele>
        <time>2020-08-13T02:50:51Z</time>
      </trkpt>
      <trkpt lat="45.548101" lon="-1.068046">
        <ele>5.8</ele>
        <time>2020-08-13T02:50:52Z</time>
      </trkpt>
      <trkpt lat="45.548387" lon="-1.068463">
        <ele>6.4</ele>
        <time>2020-08-13T02:50:56Z</time>
      </trkpt>
      <trkpt lat="45.54847" lon="-1.06856">
        <ele>6.4</ele>
        <time>2020-08-13T02:50:57Z</time>
      </trkpt>
      <trkpt lat="45.548587" lon="-1.068643">
        <ele>6.4</ele>
        <time>2020-08-13T02:50:58Z</time>
      </trkpt>
      <trkpt lat="45.548693" lon="-1.068657">
        <ele>6.4</ele>
        <time>2020-08-13T02:50:59Z</time>
      </trkpt>
      <trkpt lat="45.548756" lon="-1.068616">
        <ele>6.4</ele>
        <time>2020-08-13T02:51:00Z</time>
      </trkpt>
      <trkpt lat="45.548809" lon="-1.06854">
        <ele>6.4</ele>
        <time>2020-08-13T02:51:00Z</time>
      </trkpt>
      <trkpt lat="45.549022" lon="-1.0676">
        <ele>5.4</ele>
        <time>2020-08-13T02:51:07Z</time>
      </trkpt>
      <trkpt lat="45.549094" lon="-1.067422">
        <ele>5.2</ele>
        <time>2020-08-13T02:51:08Z</time>
      </trkpt>
      <trkpt lat="45.549193" lon="-1.067237">
        <ele>6.0</ele>
        <time>2020-08-13T02:51:10Z</time>
      </trkpt>
      <trkpt lat="45.549315" lon="-1.067068">
        <ele>6.0</ele>
        <time>2020-08-13T02:51:12Z</time>
      </trkpt>
      <trkpt lat="45.549933" lon="-1.066343">
        <ele>6.0</ele>
        <time>2020-08-13T02:51:19Z</time>
      </trkpt>
      <trkpt lat="45.55003" lon="-1.066289">
        <ele>5.8</ele>
        <time>2020-08-13T02:51:20Z</time>
      </trkpt>
      <trkpt lat="45.550119" lon="-1.066282">
        <ele>5.8</ele>
        <time>2020-08-13T02:51:21Z</time>
      </trkpt>
      <trkpt lat="45.550272" lon="-1.066352">
        <ele>5.8</ele>
        <time>2020-08-13T02:51:23Z</time>
      </trkpt>
      <trkpt lat="45.550607" lon="-1.066626">
        <ele>5.8</ele>
        <time>2020-08-13T02:51:26Z</time>
      </trkpt>
      <trkpt lat="45.550769" lon="-1.066731">
        <ele>5.4</ele>
        <time>2020-08-13T02:51:28Z</time>
      </trkpt>
      <trkpt lat="45.551036" lon="-1.066835">
        <ele>3.6</ele>
        <time>2020-08-13T02:51:31Z</time>
      </trkpt>
      <trkpt lat="45.551226" lon="-1.066872">
        <ele>3.6</ele>
        <time>2020-08-13T02:51:33Z</time>
      </trkpt>
      <trkpt lat="45.551577" lon="-1.067028">
        <ele>3.6</ele>
        <time>2020-08-13T02:51:36Z</time>
      </trkpt>
      <trkpt lat="45.551659" lon="-1.067023">
        <ele>3.6</ele>
        <time>2020-08-13T02:51:37Z</time>
      </trkpt>
      <trkpt lat="45.551712" lon="-1.067002">
        <ele>1.6</ele>
        <time>2020-08-13T02:51:37Z</time>
      </trkpt>
      <trkpt lat="45.551807" lon="-1.066913">
        <ele>1.6</ele>
        <time>2020-08-13T02:51:39Z</time>
      </trkpt>
      <trkpt lat="45.552642" lon="-1.06566">
        <ele>3.2</ele>
        <time>2020-08-13T02:51:50Z</time>
      </trkpt>
      <trkpt lat="45.552741" lon="-1.065566">
        <ele>3.2</ele>
        <time>2020-08-13T02:51:51Z</time>
      </trkpt>
      <trkpt lat="45.552877" lon="-1.065487">
        <ele>3.2</ele>
        <time>2020-08-13T02:51:53Z</time>
      </trkpt>
      <trkpt lat="45.552967" lon="-1.06547">
        <ele>3.2</ele>
        <time>2020-08-13T02:51:54Z</time>
      </trkpt>
      <trkpt lat="45.553047" lon="-1.06549">
        <ele>3.2</ele>
        <time>2020-08-13T02:51:54Z</time>
      </trkpt>
      <trkpt lat="45.553106" lon="-1.065531">
        <ele>3.2</ele>
        <time>2020-08-13T02:51:55Z</time>
      </trkpt>
      <trkpt lat="45.553517" lon="-1.065985">
        <ele>2.4</ele>
        <time>2020-08-13T02:52:00Z</time>
      </trkpt>
      <trkpt lat="45.553671" lon="-1.066079">
        <ele>2.4</ele>
        <time>2020-08-13T02:52:02Z</time>
      </trkpt>
      <trkpt lat="45.554007" lon="-1.066239">
        <ele>2.4</ele>
        <time>2020-08-13T02:52:05Z</time>
      </trkpt>
      <trkpt lat="45.554491" lon="-1.066542">
        <ele>3.0</ele>
        <time>2020-08-13T02:52:10Z</time>
      </trkpt>
      <trkpt lat="45.554657" lon="-1.066604">
        <ele>3.0</ele>
        <time>2020-08-13T02:52:12Z</time>
      </trkpt>
      <trkpt lat="45.555182" lon="-1.066685">
        <ele>2.0</ele>
        <time>2020-08-13T02:52:17Z</time>
      </trkpt>
      <trkpt lat="45.555393" lon="-1.066775">
        <ele>2.0</ele>
        <time>2020-08-13T02:52:19Z</time>
      </trkpt>
      <trkpt lat="45.555755" lon="-1.06699">
        <ele>2.0</ele>
        <time>2020-08-13T02:52:23Z</time>
      </trkpt>
      <trkpt lat="45.556296" lon="-1.067194">
        <ele>2.0</ele>
        <time>2020-08-13T02:52:28Z</time>
      </trkpt>
      <trkpt lat="45.556672" lon="-1.067248">
        <ele>3.6</ele>
        <time>2020-08-13T02:52:32Z</time>
      </trkpt>
      <trkpt lat="45.557696" lon="-1.067293">
        <ele>4.0</ele>
        <time>2020-08-13T02:52:42Z</time>
      </trkpt>
      <trkpt lat="45.558128" lon="-1.067346">
        <ele>4.0</ele>
        <time>2020-08-13T02:52:46Z</time>
      </trkpt>
      <trkpt lat="45.558703" lon="-1.067509">
        <ele>2.6</ele>
        <time>2020-08-13T02:52:52Z</time>
      </trkpt>
      <trkpt lat="45.558819" lon="-1.067502">
        <ele>2.6</ele>
        <time>2020-08-13T02:52:53Z</time>
      </trkpt>
      <trkpt lat="45.559065" lon="-1.067371">
        <ele>4.2</ele>
        <time>2020-08-13T02:52:55Z</time>
      </trkpt>
      <trkpt lat="45.559196" lon="-1.067348">
        <ele>4.4</ele>
        <time>2020-08-13T02:52:56Z</time>
      </trkpt>
      <trkpt lat="45.560276" lon="-1.067419">
        <ele>6.8</ele>
        <time>2020-08-13T02:53:07Z</time>
      </trkpt>
      <trkpt lat="45.560728" lon="-1.067479">
        <ele>6.8</ele>
        <time>2020-08-13T02:53:11Z</time>
      </trkpt>
      <trkpt lat="45.560836" lon="-1.067526">
        <ele>8.6</ele>
        <time>2020-08-13T02:53:12Z</time>
      </trkpt>
      <trkpt lat="45.561629" lon="-1.068076">
        <ele>8.6</ele>
        <time>2020-08-13T02:53:21Z</time>
      </trkpt>
      <trkpt lat="45.56194" lon="-1.068228">
        <ele>9.4</ele>
        <time>2020-08-13T02:53:24Z</time>
      </trkpt>
      <trkpt lat="45.562128" lon="-1.068274">
        <ele>9.4</ele>
        <time>2020-08-13T02:53:26Z</time>
      </trkpt>
      <trkpt lat="45.562266" lon="-1.068286">
        <ele>9.4</ele>
        <time>2020-08-13T02:53:27Z</time>
      </trkpt>
      <trkpt lat="45.562526" lon="-1.068249">
        <ele>9.0</ele>
        <time>2020-08-13T02:53:30Z</time>
      </trkpt>
      <trkpt lat="45.562615" lon="-1.068215">
        <ele>9.0</ele>
        <time>2020-08-13T02:53:31Z</time>
      </trkpt>
      <trkpt lat="45.563126" lon="-1.067926">
        <ele>9.0</ele>
        <time>2020-08-13T02:53:36Z</time>
      </trkpt>
      <trkpt lat="45.564283" lon="-1.06707">
        <ele>10.1</ele>
        <time>2020-08-13T02:53:49Z</time>
      </trkpt>
      <trkpt lat="45.624799" lon="-1.028962">
        <ele>8.2</ele>
        <time>2020-08-12T14:21:57Z</time>
      </trkpt>
      <trkpt lat="45.624514" lon="-1.029729">
        <ele>8.4</ele>
        <time>2020-08-12T14:22:11Z</time>
      </trkpt>
      <trkpt lat="45.623945" lon="-1.029272">
        <ele>8.4</ele>
        <time>2020-08-12T14:22:26Z</time>
      </trkpt>
      <trkpt lat="45.624485" lon="-1.027841">
        <ele>7.8</ele>
        <time>2020-08-12T14:22:52Z</time>
      </trkpt>
      <trkpt lat="45.624707" lon="-1.027009">
        <ele>7.8</ele>
        <time>2020-08-12T14:23:06Z</time>
      </trkpt>
      <trkpt lat="45.624796" lon="-1.026578">
        <ele>7.0</ele>
        <time>2020-08-12T14:23:14Z</time>
      </trkpt>
      <trkpt lat="45.625568" lon="-1.026853">
        <ele>9.4</ele>
        <time>2020-08-12T14:23:32Z</time>
      </trkpt>
      <trkpt lat="45.625669" lon="-1.026835">
        <ele>9.4</ele>
        <time>2020-08-12T14:23:34Z</time>
      </trkpt>
      <trkpt lat="45.625671" lon="-1.026774">
        <ele>9.4</ele>
        <time>2020-08-12T14:23:35Z</time>
      </trkpt>
      <trkpt lat="45.625719" lon="-1.026715">
        <ele>9.4</ele>
        <time>2020-08-12T14:23:36Z</time>
      </trkpt>
      <trkpt lat="45.625776" lon="-1.026448">
        <ele>8.0</ele>
        <time>2020-08-12T14:23:40Z</time>
      </trkpt>
      <trkpt lat="45.625933" lon="-1.026579">
        <ele>10.4</ele>
        <time>2020-08-12T14:23:42Z</time>
      </trkpt>
      <trkpt lat="45.626068" lon="-1.02645">
        <ele>10.4</ele>
        <time>2020-08-12T14:23:46Z</time>
      </trkpt>
      <trkpt lat="45.626396" lon="-1.026829">
        <ele>11.4</ele>
        <time>2020-08-12T14:23:55Z</time>
      </trkpt>
      <trkpt lat="45.627046" lon="-1.026174">
        <ele>13.4</ele>
        <time>2020-08-12T14:24:06Z</time>
      </trkpt>
      <trkpt lat="45.628009" lon="-1.025246">
        <ele>17.2</ele>
        <time>2020-08-12T14:24:21Z</time>
      </trkpt>
      <trkpt lat="45.628475" lon="-1.024826">
        <ele>18.6</ele>
        <time>2020-08-12T14:24:28Z</time>
      </trkpt>
      <trkpt lat="45.62856" lon="-1.025182">
        <ele>20.2</ele>
        <time>2020-08-12T14:24:32Z</time>
      </trkpt>
      <trkpt lat="45.628667" lon="-1.025488">
        <ele>20.2</ele>
        <time>2020-08-12T14:24:35Z</time>
      </trkpt>
      <trkpt lat="45.62895" lon="-1.026059">
        <ele>21.0</ele>
        <time>2020-08-12T14:24:41Z</time>
      </trkpt>
      <trkpt lat="45.629314" lon="-1.026728">
        <ele>23.6</ele>
        <time>2020-08-12T14:24:49Z</time>
      </trkpt>
      <trkpt lat="45.629688" lon="-1.027528">
        <ele>23.6</ele>
        <time>2020-08-12T14:24:58Z</time>
      </trkpt>
      <trkpt lat="45.629755" lon="-1.027608">
        <ele>23.6</ele>
        <time>2020-08-12T14:24:59Z</time>
      </trkpt>
      <trkpt lat="45.629881" lon="-1.027682">
        <ele>23.6</ele>
        <time>2020-08-12T14:25:01Z</time>
      </trkpt>
      <trkpt lat="45.630088" lon="-1.027853">
        <ele>24.0</ele>
        <time>2020-08-12T14:25:04Z</time>
      </trkpt>
      <trkpt lat="45.630202" lon="-1.028003">
        <ele>24.0</ele>
        <time>2020-08-12T14:25:06Z</time>
      </trkpt>
      <trkpt lat="45.630588" lon="-1.027601">
        <ele>24.0</ele>
        <time>2020-08-12T14:25:13Z</time>
      </trkpt>
      <trkpt lat="45.63088" lon="-1.028317">
        <ele>23.6</ele>
        <time>2020-08-12T14:25:20Z</time>
      </trkpt>
      <trkpt lat="45.631489" lon="-1.027769">
        <ele>23.6</ele>
        <time>2020-08-12T14:25:30Z</time>
      </trkpt>
      <trkpt lat="45.631564" lon="-1.02775">
        <ele>23.6</ele>
        <time>2020-08-12T14:25:31Z</time>
      </trkpt>
      <trkpt lat="45.632202" lon="-1.027408">
        <ele>23.0</ele>
        <time>2020-08-12T14:25:40Z</time>
      </trkpt>
      <trkpt lat="45.632728" lon="-1.027063">
        <ele>23.8</ele>
        <time>2020-08-12T14:25:47Z</time>
      </trkpt>
      <trkpt lat="45.633034" lon="-1.026827">
        <ele>23.8</ele>
        <time>2020-08-12T14:25:52Z</time>
      </trkpt>
      <trkpt lat="45.633316" lon="-1.026577">
        <ele>21.0</ele>
        <time>2020-08-12T14:25:56Z</time>
      </trkpt>
      <trkpt lat="45.63362" lon="-1.026379">
        <ele>23.4</ele>
        <time>2020-08-12T14:26:01Z</time>
      </trkpt>
      <trkpt lat="45.633884" lon="-1.02623">
        <ele>23.4</ele>
        <time>2020-08-12T14:26:04Z</time>
      </trkpt>
      <trkpt lat="45.634866" lon="-1.025773">
        <ele>24.6</ele>
        <time>2020-08-12T14:26:18Z</time>
      </trkpt>
      <trkpt lat="45.635868" lon="-1.025183">
        <ele>23.0</ele>
        <time>2020-08-12T14:26:32Z</time>
      </trkpt>
      <trkpt lat="45.636119" lon="-1.025067">
        <ele>23.0</ele>
        <time>2020-08-12T14:26:36Z</time>
      </trkpt>
      <trkpt lat="45.636412" lon="-1.025394">
        <ele>23.0</ele>
        <time>2020-08-12T14:26:41Z</time>
      </trkpt>
      <trkpt lat="45.636581" lon="-1.025616">
        <ele>23.0</ele>
        <time>2020-08-12T14:26:44Z</time>
      </trkpt>
      <trkpt lat="45.636677" lon="-1.025876">
        <ele>22.6</ele>
        <time>2020-08-12T14:26:46Z</time>
      </trkpt>
      <trkpt lat="45.638658" lon="-1.025373">
        <ele>20.2</ele>
        <time>2020-08-12T14:27:13Z</time>
      </trkpt>
      <trkpt lat="45.638837" lon="-1.025294">
        <ele>20.2</ele>
        <time>2020-08-12T14:27:15Z</time>
      </trkpt>
      <trkpt lat="45.638913" lon="-1.025189">
        <ele>20.2</ele>
        <time>2020-08-12T14:27:17Z</time>
      </trkpt>
      <trkpt lat="45.638926" lon="-1.025072">
        <ele>20.2</ele>
        <time>2020-08-12T14:27:18Z</time>
      </trkpt>
      <trkpt lat="45.638958" lon="-1.024963">
        <ele>18.4</ele>
        <time>2020-08-12T14:27:19Z</time>
      </trkpt>
      <trkpt lat="45.639007" lon="-1.024868">
        <ele>18.4</ele>
        <time>2020-08-12T14:27:20Z</time>
      </trkpt>
      <trkpt lat="45.639087" lon="-1.024779">
        <ele>18.4</ele>
        <time>2020-08-12T14:27:21Z</time>
      </trkpt>
      <trkpt lat="45.639183" lon="-1.024728">
        <ele>18.6</ele>
        <time>2020-08-12T14:27:22Z</time>
      </trkpt>
      <trkpt lat="45.639284" lon="-1.024721">
        <ele>18.6</ele>
        <time>2020-08-12T14:27:23Z</time>
      </trkpt>
      <trkpt lat="45.639383" lon="-1.024756">
        <ele>18.6</ele>
        <time>2020-08-12T14:27:24Z</time>
      </trkpt>
      <trkpt lat="45.639458" lon="-1.02482">
        <ele>18.6</ele>
        <time>2020-08-12T14:27:26Z</time>
      </trkpt>
      <trkpt lat="45.63952" lon="-1.024909">
        <ele>18.6</ele>
        <time>2020-08-12T14:27:27Z</time>
      </trkpt>
      <trkpt lat="45.639579" lon="-1.025083">
        <ele>19.8</ele>
        <time>2020-08-12T14:27:28Z</time>
      </trkpt>
      <trkpt lat="45.639585" lon="-1.025275">
        <ele>19.8</ele>
        <time>2020-08-12T14:27:30Z</time>
      </trkpt>
      <trkpt lat="45.639554" lon="-1.025416">
        <ele>19.8</ele>
        <time>2020-08-12T14:27:31Z</time>
      </trkpt>
      <trkpt lat="45.639494" lon="-1.025537">
        <ele>19.8</ele>
        <time>2020-08-12T14:27:32Z</time>
      </trkpt>
      <trkpt lat="45.639435" lon="-1.025904">
        <ele>21.0</ele>
        <time>2020-08-12T14:27:35Z</time>
      </trkpt>
      <trkpt lat="45.639481" lon="-1.026799">
        <ele>22.0</ele>
        <time>2020-08-12T14:27:43Z</time>
      </trkpt>
      <trkpt lat="45.639574" lon="-1.027901">
        <ele>23.0</ele>
        <time>2020-08-12T14:27:48Z</time>
      </trkpt>
      <trkpt lat="45.639604" lon="-1.028416">
        <ele>23.8</ele>
        <time>2020-08-12T14:27:51Z</time>
      </trkpt>
      <trkpt lat="45.639746" lon="-1.029843">
        <ele>23.6</ele>
        <time>2020-08-12T14:27:58Z</time>
      </trkpt>
      <trkpt lat="45.639903" lon="-1.030715">
        <ele>24.2</ele>
        <time>2020-08-12T14:28:03Z</time>
      </trkpt>
      <trkpt lat="45.64014" lon="-1.031579">
        <ele>25.2</ele>
        <time>2020-08-12T14:28:07Z</time>
      </trkpt>
      <trkpt lat="45.640365" lon="-1.032246">
        <ele>24.6</ele>
        <time>2020-08-12T14:28:11Z</time>
      </trkpt>
      <trkpt lat="45.641798" lon="-1.035866">
        <ele>23.0</ele>
        <time>2020-08-12T14:28:32Z</time>
      </trkpt>
      <trkpt lat="45.642119" lon="-1.036722">
        <ele>23.4</ele>
        <time>2020-08-12T14:28:36Z</time>
      </trkpt>
      <trkpt lat="45.643386" lon="-1.039945">
        <ele>23.6</ele>
        <time>2020-08-12T14:28:55Z</time>
      </trkpt>
      <trkpt lat="45.644114" lon="-1.041748">
        <ele>20.4</ele>
        <time>2020-08-12T14:29:05Z</time>
      </trkpt>
      <trkpt lat="45.644251" lon="-1.042046">
        <ele>20.0</ele>
        <time>2020-08-12T14:29:07Z</time>
      </trkpt>
      <trkpt lat="45.644592" lon="-1.042705">
        <ele>19.0</ele>
        <time>2020-08-12T14:29:11Z</time>
      </trkpt>
      <trkpt lat="45.644955" lon="-1.043325">
        <ele>19.0</ele>
        <time>2020-08-12T14:29:15Z</time>
      </trkpt>
      <trkpt lat="45.64513" lon="-1.04358">
        <ele>14.6</ele>
        <time>2020-08-12T14:29:17Z</time>
      </trkpt>
      <trkpt lat="45.645563" lon="-1.044127">
        <ele>14.6</ele>
        <time>2020-08-12T14:29:21Z</time>
      </trkpt>
      <trkpt lat="45.64602" lon="-1.044636">
        <ele>12.8</ele>
        <time>2020-08-12T14:29:25Z</time>
      </trkpt>
      <trkpt lat="45.646633" lon="-1.045218">
        <ele>12.8</ele>
        <time>2020-08-12T14:29:30Z</time>
      </trkpt>
      <trkpt lat="45.647187" lon="-1.045845">
        <ele>15.8</ele>
        <time>2020-08-12T14:29:35Z</time>
      </trkpt>
      <trkpt lat="45.647983" lon="-1.04666">
        <ele>18.4</ele>
        <time>2020-08-12T14:29:42Z</time>
      </trkpt>
      <trkpt lat="45.648698" lon="-1.047285">
        <ele>21.4</ele>
        <time>2020-08-12T14:29:48Z</time>
      </trkpt>
      <trkpt lat="45.648747" lon="-1.047344">
        <ele>21.4</ele>
        <time>2020-08-12T14:29:48Z</time>
      </trkpt>
      <trkpt lat="45.648871" lon="-1.047308">
        <ele>21.4</ele>
        <time>2020-08-12T14:29:49Z</time>
      </trkpt>
      <trkpt lat="45.648938" lon="-1.047328">
        <ele>21.4</ele>
        <time>2020-08-12T14:29:50Z</time>
      </trkpt>
      <trkpt lat="45.648998" lon="-1.047375">
        <ele>21.4</ele>
        <time>2020-08-12T14:29:50Z</time>
      </trkpt>
      <trkpt lat="45.649072" lon="-1.047504">
        <ele>22.4</ele>
        <time>2020-08-12T14:29:51Z</time>
      </trkpt>
      <trkpt lat="45.64909" lon="-1.047585">
        <ele>22.4</ele>
        <time>2020-08-12T14:29:52Z</time>
      </trkpt>
      <trkpt lat="45.649189" lon="-1.047753">
        <ele>23.6</ele>
        <time>2020-08-12T14:29:53Z</time>
      </trkpt>
      <trkpt lat="45.649498" lon="-1.047994">
        <ele>23.6</ele>
        <time>2020-08-12T14:29:55Z</time>
      </trkpt>
      <trkpt lat="45.649796" lon="-1.04818">
        <ele>23.6</ele>
        <time>2020-08-12T14:29:57Z</time>
      </trkpt>
      <trkpt lat="45.650598" lon="-1.04879">
        <ele>23.8</ele>
        <time>2020-08-12T14:30:04Z</time>
      </trkpt>
      <trkpt lat="45.651121" lon="-1.049276">
        <ele>22.6</ele>
        <time>2020-08-12T14:30:08Z</time>
      </trkpt>
      <trkpt lat="45.651595" lon="-1.049818">
        <ele>22.6</ele>
        <time>2020-08-12T14:30:12Z</time>
      </trkpt>
      <trkpt lat="45.652779" lon="-1.051491">
        <ele>22.8</ele>
        <time>2020-08-12T14:30:24Z</time>
      </trkpt>
      <trkpt lat="45.653491" lon="-1.05237">
        <ele>22.8</ele>
        <time>2020-08-12T14:30:31Z</time>
      </trkpt>
      <trkpt lat="45.654255" lon="-1.053181">
        <ele>20.4</ele>
        <time>2020-08-12T14:30:38Z</time>
      </trkpt>
      <trkpt lat="45.654789" lon="-1.053628">
        <ele>18.8</ele>
        <time>2020-08-12T14:30:42Z</time>
      </trkpt>
      <trkpt lat="45.65531" lon="-1.054108">
        <ele>19.0</ele>
        <time>2020-08-12T14:30:46Z</time>
      </trkpt>
      <trkpt lat="45.655526" lon="-1.054331">
        <ele>18.6</ele>
        <time>2020-08-12T14:30:48Z</time>
      </trkpt>
      <trkpt lat="45.655927" lon="-1.054853">
        <ele>18.2</ele>
        <time>2020-08-12T14:30:52Z</time>
      </trkpt>
      <trkpt lat="45.657676" lon="-1.057301">
        <ele>22.4</ele>
        <time>2020-08-12T14:31:09Z</time>
      </trkpt>
      <trkpt lat="45.658421" lon="-1.058406">
        <ele>24.4</ele>
        <time>2020-08-12T14:31:17Z</time>
      </trkpt>
      <trkpt lat="45.659216" lon="-1.059383">
        <ele>24.0</ele>
        <time>2020-08-12T14:31:24Z</time>
      </trkpt>
      <trkpt lat="45.659494" lon="-1.059672">
        <ele>24.0</ele>
        <time>2020-08-12T14:31:27Z</time>
      </trkpt>
      <trkpt lat="45.659812" lon="-1.059967">
        <ele>24.0</ele>
        <time>2020-08-12T14:31:29Z</time>
      </trkpt>
      <trkpt lat="45.660406" lon="-1.060449">
        <ele>22.4</ele>
        <time>2020-08-12T14:31:34Z</time>
      </trkpt>
      <trkpt lat="45.66069" lon="-1.060593">
        <ele>22.4</ele>
        <time>2020-08-12T14:31:36Z</time>
      </trkpt>
      <trkpt lat="45.660917" lon="-1.060673">
        <ele>21.6</ele>
        <time>2020-08-12T14:31:38Z</time>
      </trkpt>
      <trkpt lat="45.661405" lon="-1.060738">
        <ele>21.6</ele>
        <time>2020-08-12T14:31:41Z</time>
      </trkpt>
      <trkpt lat="45.661492" lon="-1.060702">
        <ele>21.6</ele>
        <time>2020-08-12T14:31:42Z</time>
      </trkpt>
      <trkpt lat="45.661582" lon="-1.06057">
        <ele>21.6</ele>
        <time>2020-08-12T14:31:43Z</time>
      </trkpt>
      <trkpt lat="45.661658" lon="-1.060402">
        <ele>21.6</ele>
        <time>2020-08-12T14:31:45Z</time>
      </trkpt>
      <trkpt lat="45.661764" lon="-1.060272">
        <ele>20.6</ele>
        <time>2020-08-12T14:31:46Z</time>
      </trkpt>
      <trkpt lat="45.661892" lon="-1.060191">
        <ele>20.6</ele>
        <time>2020-08-12T14:31:47Z</time>
      </trkpt>
      <trkpt lat="45.662087" lon="-1.060166">
        <ele>20.6</ele>
        <time>2020-08-12T14:31:50Z</time>
      </trkpt>
      <trkpt lat="45.662249" lon="-1.060246">
        <ele>20.6</ele>
        <time>2020-08-12T14:31:51Z</time>
      </trkpt>
      <trkpt lat="45.662342" lon="-1.060338">
        <ele>20.6</ele>
        <time>2020-08-12T14:31:53Z</time>
      </trkpt>
      <trkpt lat="45.662377" lon="-1.060386">
        <ele>20.6</ele>
        <time>2020-08-12T14:31:53Z</time>
      </trkpt>
      <trkpt lat="45.662483" lon="-1.060644">
        <ele>20.6</ele>
        <time>2020-08-12T14:31:55Z</time>
      </trkpt>
      <trkpt lat="45.662506" lon="-1.060849">
        <ele>19.2</ele>
        <time>2020-08-12T14:31:57Z</time>
      </trkpt>
      <trkpt lat="45.662486" lon="-1.061055">
        <ele>21.6</ele>
        <time>2020-08-12T14:31:58Z</time>
      </trkpt>
      <trkpt lat="45.662382" lon="-1.061304">
        <ele>21.6</ele>
        <time>2020-08-12T14:32:00Z</time>
      </trkpt>
      <trkpt lat="45.662362" lon="-1.06145">
        <ele>21.6</ele>
        <time>2020-08-12T14:32:02Z</time>
      </trkpt>
      <trkpt lat="45.662361" lon="-1.061629">
        <ele>21.6</ele>
        <time>2020-08-12T14:32:03Z</time>
      </trkpt>
      <trkpt lat="45.6624" lon="-1.06187">
        <ele>21.0</ele>
        <time>2020-08-12T14:32:05Z</time>
      </trkpt>
      <trkpt lat="45.662473" lon="-1.062132">
        <ele>21.0</ele>
        <time>2020-08-12T14:32:07Z</time>
      </trkpt>
      <trkpt lat="45.662848" lon="-1.063115">
        <ele>20.2</ele>
        <time>2020-08-12T14:32:15Z</time>
      </trkpt>
      <trkpt lat="45.662947" lon="-1.063472">
        <ele>19.0</ele>
        <time>2020-08-12T14:32:18Z</time>
      </trkpt>
      <trkpt lat="45.663046" lon="-1.063926">
        <ele>19.0</ele>
        <time>2020-08-12T14:32:21Z</time>
      </trkpt>
      <trkpt lat="45.66338" lon="-1.065738">
        <ele>14.2</ele>
        <time>2020-08-12T14:32:35Z</time>
      </trkpt>
      <trkpt lat="45.663533" lon="-1.067136">
        <ele>16.4</ele>
        <time>2020-08-12T14:32:46Z</time>
      </trkpt>
      <trkpt lat="45.663588" lon="-1.068019">
        <ele>18.2</ele>
        <time>2020-08-12T14:32:52Z</time>
      </trkpt>
      <trkpt lat="45.66368" lon="-1.071958">
        <ele>19.8</ele>
        <time>2020-08-12T14:33:21Z</time>
      </trkpt>
      <trkpt lat="45.663718" lon="-1.071962">
        <ele>19.8</ele>
        <time>2020-08-12T14:33:21Z</time>
      </trkpt>
      <trkpt lat="45.663784" lon="-1.072017">
        <ele>19.8</ele>
        <time>2020-08-12T14:33:22Z</time>
      </trkpt>
      <trkpt lat="45.663817" lon="-1.072114">
        <ele>19.8</ele>
        <time>2020-08-12T14:33:23Z</time>
      </trkpt>
      <trkpt lat="45.663817" lon="-1.072169">
        <ele>19.8</ele>
        <time>2020-08-12T14:33:23Z</time>
      </trkpt>
      <trkpt lat="45.663806" lon="-1.07222">
        <ele>19.8</ele>
        <time>2020-08-12T14:33:23Z</time>
      </trkpt>
      <trkpt lat="45.663757" lon="-1.0723">
        <ele>19.8</ele>
        <time>2020-08-12T14:33:24Z</time>
      </trkpt>
      <trkpt lat="45.663686" lon="-1.072327">
        <ele>19.8</ele>
        <time>2020-08-12T14:33:25Z</time>
      </trkpt>
      <trkpt lat="45.663703" lon="-1.073484">
        <ele>25.8</ele>
        <time>2020-08-12T14:33:32Z</time>
      </trkpt>
      <trkpt lat="45.6637" lon="-1.073778">
        <ele>25.8</ele>
        <time>2020-08-12T14:33:34Z</time>
      </trkpt>
      <trkpt lat="45.663672" lon="-1.074172">
        <ele>26.4</ele>
        <time>2020-08-12T14:33:37Z</time>
      </trkpt>
      <trkpt lat="45.663623" lon="-1.074556">
        <ele>26.4</ele>
        <time>2020-08-12T14:33:39Z</time>
      </trkpt>
      <trkpt lat="45.663498" lon="-1.075261">
        <ele>26.0</ele>
        <time>2020-08-12T14:33:44Z</time>
      </trkpt>
      <trkpt lat="45.663343" lon="-1.07589">
        <ele>26.0</ele>
        <time>2020-08-12T14:33:48Z</time>
      </trkpt>
      <trkpt lat="45.663224" lon="-1.076269">
        <ele>27.6</ele>
        <time>2020-08-12T14:33:51Z</time>
      </trkpt>
      <trkpt lat="45.663035" lon="-1.076761">
        <ele>26.2</ele>
        <time>2020-08-12T14:33:54Z</time>
      </trkpt>
      <trkpt lat="45.660098" lon="-1.083314">
        <ele>29.2</ele>
        <time>2020-08-12T14:34:44Z</time>
      </trkpt>
      <trkpt lat="45.659824" lon="-1.083978">
        <ele>29.2</ele>
        <time>2020-08-12T14:34:49Z</time>
      </trkpt>
      <trkpt lat="45.659543" lon="-1.084583">
        <ele>28.6</ele>
        <time>2020-08-12T14:34:54Z</time>
      </trkpt>
      <trkpt lat="45.658014" lon="-1.087559">
        <ele>23.0</ele>
        <time>2020-08-12T14:35:18Z</time>
      </trkpt>
      <trkpt lat="45.6579" lon="-1.087882">
        <ele>23.0</ele>
        <time>2020-08-12T14:35:20Z</time>
      </trkpt>
      <trkpt lat="45.657347" lon="-1.089276">
        <ele>22.4</ele>
        <time>2020-08-12T14:35:30Z</time>
      </trkpt>
      <trkpt lat="45.657372" lon="-1.089366">
        <ele>22.4</ele>
        <time>2020-08-12T14:35:31Z</time>
      </trkpt>
      <trkpt lat="45.657354" lon="-1.089477">
        <ele>22.4</ele>
        <time>2020-08-12T14:35:31Z</time>
      </trkpt>
      <trkpt lat="45.657328" lon="-1.089521">
        <ele>22.4</ele>
        <time>2020-08-12T14:35:32Z</time>
      </trkpt>
      <trkpt lat="45.657266" lon="-1.08956">
        <ele>22.4</ele>
        <time>2020-08-12T14:35:32Z</time>
      </trkpt>
      <trkpt lat="45.657142" lon="-1.089864">
        <ele>22.4</ele>
        <time>2020-08-12T14:35:34Z</time>
      </trkpt>
      <trkpt lat="45.656793" lon="-1.090995">
        <ele>21.4</ele>
        <time>2020-08-12T14:35:40Z</time>
      </trkpt>
      <trkpt lat="45.656222" lon="-1.093354">
        <ele>18.6</ele>
        <time>2020-08-12T14:35:52Z</time>
      </trkpt>
      <trkpt lat="45.655411" lon="-1.09652">
        <ele>18.8</ele>
        <time>2020-08-12T14:36:08Z</time>
      </trkpt>
      <trkpt lat="45.65524" lon="-1.097237">
        <ele>22.4</ele>
        <time>2020-08-12T14:36:11Z</time>
      </trkpt>
      <trkpt lat="45.653726" lon="-1.104341">
        <ele>26.6</ele>
        <time>2020-08-12T14:36:46Z</time>
      </trkpt>
      <trkpt lat="45.653695" lon="-1.104747">
        <ele>26.6</ele>
        <time>2020-08-12T14:36:48Z</time>
      </trkpt>
      <trkpt lat="45.653702" lon="-1.105318">
        <ele>27.4</ele>
        <time>2020-08-12T14:36:51Z</time>
      </trkpt>
      <trkpt lat="45.653764" lon="-1.105573">
        <ele>27.4</ele>
        <time>2020-08-12T14:36:52Z</time>
      </trkpt>
      <trkpt lat="45.653889" lon="-1.105972">
        <ele>26.2</ele>
        <time>2020-08-12T14:36:54Z</time>
      </trkpt>
      <trkpt lat="45.653996" lon="-1.106237">
        <ele>26.2</ele>
        <time>2020-08-12T14:36:56Z</time>
      </trkpt>
      <trkpt lat="45.654414" lon="-1.107435">
        <ele>24.8</ele>
        <time>2020-08-12T14:37:02Z</time>
      </trkpt>
      <trkpt lat="45.654895" lon="-1.108726">
        <ele>22.6</ele>
        <time>2020-08-12T14:37:09Z</time>
      </trkpt>
      <trkpt lat="45.65507" lon="-1.109238">
        <ele>21.8</ele>
        <time>2020-08-12T14:37:12Z</time>
      </trkpt>
      <trkpt lat="45.65525" lon="-1.10995">
        <ele>21.8</ele>
        <time>2020-08-12T14:37:15Z</time>
      </trkpt>
      <trkpt lat="45.655325" lon="-1.110484">
        <ele>21.2</ele>
        <time>2020-08-12T14:37:18Z</time>
      </trkpt>
      <trkpt lat="45.655563" lon="-1.112656">
        <ele>19.8</ele>
        <time>2020-08-12T14:37:28Z</time>
      </trkpt>
      <trkpt lat="45.655598" lon="-1.113564">
        <ele>19.6</ele>
        <time>2020-08-12T14:37:33Z</time>
      </trkpt>
      <trkpt lat="45.655732" lon="-1.115278">
        <ele>19.2</ele>
        <time>2020-08-12T14:37:41Z</time>
      </trkpt>
      <trkpt lat="45.655817" lon="-1.116621">
        <ele>19.0</ele>
        <time>2020-08-12T14:37:47Z</time>
      </trkpt>
      <trkpt lat="45.655877" lon="-1.11729">
        <ele>19.8</ele>
        <time>2020-08-12T14:37:50Z</time>
      </trkpt>
      <trkpt lat="45.655941" lon="-1.117713">
        <ele>19.0</ele>
        <time>2020-08-12T14:37:52Z</time>
      </trkpt>
      <trkpt lat="45.656033" lon="-1.11794">
        <ele>19.0</ele>
        <time>2020-08-12T14:37:54Z</time>
      </trkpt>
      <trkpt lat="45.656215" lon="-1.118306">
        <ele>19.0</ele>
        <time>2020-08-12T14:37:56Z</time>
      </trkpt>
      <trkpt lat="45.656573" lon="-1.118886">
        <ele>17.0</ele>
        <time>2020-08-12T14:37:59Z</time>
      </trkpt>
      <trkpt lat="45.656748" lon="-1.119272">
        <ele>16.6</ele>
        <time>2020-08-12T14:38:02Z</time>
      </trkpt>
      <trkpt lat="45.656879" lon="-1.119613">
        <ele>16.6</ele>
        <time>2020-08-12T14:38:03Z</time>
      </trkpt>
      <trkpt lat="45.657173" lon="-1.120571">
        <ele>15.8</ele>
        <time>2020-08-12T14:38:08Z</time>
      </trkpt>
      <trkpt lat="45.657379" lon="-1.121118">
        <ele>17.0</ele>
        <time>2020-08-12T14:38:11Z</time>
      </trkpt>
      <trkpt lat="45.657497" lon="-1.121507">
        <ele>17.0</ele>
        <time>2020-08-12T14:38:13Z</time>
      </trkpt>
      <trkpt lat="45.657599" lon="-1.121994">
        <ele>18.2</ele>
        <time>2020-08-12T14:38:16Z</time>
      </trkpt>
      <trkpt lat="45.657787" lon="-1.123124">
        <ele>20.8</ele>
        <time>2020-08-12T14:38:21Z</time>
      </trkpt>
      <trkpt lat="45.658479" lon="-1.125718">
        <ele>17.0</ele>
        <time>2020-08-12T14:38:35Z</time>
      </trkpt>
      <trkpt lat="45.658552" lon="-1.126252">
        <ele>14.6</ele>
        <time>2020-08-12T14:38:37Z</time>
      </trkpt>
      <trkpt lat="45.658726" lon="-1.126646">
        <ele>14.6</ele>
        <time>2020-08-12T14:38:39Z</time>
      </trkpt>
      <trkpt lat="45.659206" lon="-1.127117">
        <ele>13.6</ele>
        <time>2020-08-12T14:38:43Z</time>
      </trkpt>
      <trkpt lat="45.660298" lon="-1.128292">
        <ele>13.8</ele>
        <time>2020-08-12T14:38:53Z</time>
      </trkpt>
      <trkpt lat="45.660526" lon="-1.128599">
        <ele>13.6</ele>
        <time>2020-08-12T14:38:55Z</time>
      </trkpt>
      <trkpt lat="45.660803" lon="-1.129025">
        <ele>13.6</ele>
        <time>2020-08-12T14:38:58Z</time>
      </trkpt>
      <trkpt lat="45.661918" lon="-1.131915">
        <ele>16.0</ele>
        <time>2020-08-12T14:39:13Z</time>
      </trkpt>
      <trkpt lat="45.663318" lon="-1.13497">
        <ele>14.2</ele>
        <time>2020-08-12T14:39:31Z</time>
      </trkpt>
      <trkpt lat="45.664347" lon="-1.136705">
        <ele>18.6</ele>
        <time>2020-08-12T14:39:41Z</time>
      </trkpt>
      <trkpt lat="45.664428" lon="-1.136865">
        <ele>18.6</ele>
        <time>2020-08-12T14:39:42Z</time>
      </trkpt>
      <trkpt lat="45.66633" lon="-1.139986">
        <ele>20.4</ele>
        <time>2020-08-12T14:40:02Z</time>
      </trkpt>
      <trkpt lat="45.666624" lon="-1.140408">
        <ele>18.8</ele>
        <time>2020-08-12T14:40:05Z</time>
      </trkpt>
      <trkpt lat="45.666979" lon="-1.14086">
        <ele>16.8</ele>
        <time>2020-08-12T14:40:08Z</time>
      </trkpt>
      <trkpt lat="45.667305" lon="-1.141237">
        <ele>16.8</ele>
        <time>2020-08-12T14:40:11Z</time>
      </trkpt>
      <trkpt lat="45.66791" lon="-1.141792">
        <ele>14.6</ele>
        <time>2020-08-12T14:40:16Z</time>
      </trkpt>
      <trkpt lat="45.669071" lon="-1.142925">
        <ele>12.0</ele>
        <time>2020-08-12T14:40:25Z</time>
      </trkpt>
      <trkpt lat="45.669822" lon="-1.143697">
        <ele>10.4</ele>
        <time>2020-08-12T14:40:32Z</time>
      </trkpt>
      <trkpt lat="45.670043" lon="-1.143896">
        <ele>13.0</ele>
        <time>2020-08-12T14:40:33Z</time>
      </trkpt>
      <trkpt lat="45.670401" lon="-1.144202">
        <ele>11.0</ele>
        <time>2020-08-12T14:40:36Z</time>
      </trkpt>
      <trkpt lat="45.671445" lon="-1.144927">
        <ele>13.2</ele>
        <time>2020-08-12T14:40:44Z</time>
      </trkpt>
      <trkpt lat="45.672034" lon="-1.145309">
        <ele>11.8</ele>
        <time>2020-08-12T14:40:49Z</time>
      </trkpt>
      <trkpt lat="45.673215" lon="-1.145999">
        <ele>10.4</ele>
        <time>2020-08-12T14:40:57Z</time>
      </trkpt>
      <trkpt lat="45.674047" lon="-1.146509">
        <ele>11.8</ele>
        <time>2020-08-12T14:41:03Z</time>
      </trkpt>
      <trkpt lat="45.674384" lon="-1.146776">
        <ele>10.6</ele>
        <time>2020-08-12T14:41:06Z</time>
      </trkpt>
      <trkpt lat="45.674708" lon="-1.147076">
        <ele>10.6</ele>
        <time>2020-08-12T14:41:09Z</time>
      </trkpt>
      <trkpt lat="45.675062" lon="-1.147494">
        <ele>11.0</ele>
        <time>2020-08-12T14:41:12Z</time>
      </trkpt>
      <trkpt lat="45.675408" lon="-1.147975">
        <ele>11.4</ele>
        <time>2020-08-12T14:41:15Z</time>
      </trkpt>
      <trkpt lat="45.677389" lon="-1.151001">
        <ele>9.4</ele>
        <time>2020-08-12T14:41:35Z</time>
      </trkpt>
      <trkpt lat="45.678981" lon="-1.153332">
        <ele>8.8</ele>
        <time>2020-08-12T14:41:50Z</time>
      </trkpt>
      <trkpt lat="45.679324" lon="-1.153893">
        <ele>10.2</ele>
        <time>2020-08-12T14:41:54Z</time>
      </trkpt>
      <trkpt lat="45.680051" lon="-1.154936">
        <ele>11.2</ele>
        <time>2020-08-12T14:42:01Z</time>
      </trkpt>
      <trkpt lat="45.680253" lon="-1.155397">
        <ele>10.0</ele>
        <time>2020-08-12T14:42:03Z</time>
      </trkpt>
      <trkpt lat="45.680419" lon="-1.156072">
        <ele>9.4</ele>
        <time>2020-08-12T14:42:07Z</time>
      </trkpt>
      <trkpt lat="45.680457" lon="-1.156262">
        <ele>9.4</ele>
        <time>2020-08-12T14:42:08Z</time>
      </trkpt>
      <trkpt lat="45.68052" lon="-1.156788">
        <ele>8.4</ele>
        <time>2020-08-12T14:42:10Z</time>
      </trkpt>
      <trkpt lat="45.680583" lon="-1.157679">
        <ele>8.0</ele>
        <time>2020-08-12T14:42:15Z</time>
      </trkpt>
      <trkpt lat="45.680644" lon="-1.15809">
        <ele>8.0</ele>
        <time>2020-08-12T14:42:17Z</time>
      </trkpt>
      <trkpt lat="45.680716" lon="-1.158449">
        <ele>7.8</ele>
        <time>2020-08-12T14:42:18Z</time>
      </trkpt>
      <trkpt lat="45.680811" lon="-1.158726">
        <ele>7.8</ele>
        <time>2020-08-12T14:42:20Z</time>
      </trkpt>
      <trkpt lat="45.680896" lon="-1.158909">
        <ele>8.4</ele>
        <time>2020-08-12T14:42:21Z</time>
      </trkpt>
      <trkpt lat="45.681888" lon="-1.16061">
        <ele>6.2</ele>
        <time>2020-08-12T14:42:31Z</time>
      </trkpt>
      <trkpt lat="45.682705" lon="-1.161935">
        <ele>7.2</ele>
        <time>2020-08-12T14:42:40Z</time>
      </trkpt>
      <trkpt lat="45.682808" lon="-1.162043">
        <ele>7.2</ele>
        <time>2020-08-12T14:42:41Z</time>
      </trkpt>
      <trkpt lat="45.682953" lon="-1.162143">
        <ele>7.2</ele>
        <time>2020-08-12T14:42:42Z</time>
      </trkpt>
      <trkpt lat="45.683" lon="-1.162153">
        <ele>7.2</ele>
        <time>2020-08-12T14:42:42Z</time>
      </trkpt>
      <trkpt lat="45.683074" lon="-1.162232">
        <ele>7.2</ele>
        <time>2020-08-12T14:42:44Z</time>
      </trkpt>
      <trkpt lat="45.683093" lon="-1.162292">
        <ele>7.2</ele>
        <time>2020-08-12T14:42:44Z</time>
      </trkpt>
      <trkpt lat="45.683093" lon="-1.162397">
        <ele>7.2</ele>
        <time>2020-08-12T14:42:45Z</time>
      </trkpt>
      <trkpt lat="45.683114" lon="-1.162489">
        <ele>7.2</ele>
        <time>2020-08-12T14:42:46Z</time>
      </trkpt>
      <trkpt lat="45.683215" lon="-1.162769">
        <ele>7.4</ele>
        <time>2020-08-12T14:42:49Z</time>
      </trkpt>
      <trkpt lat="45.684677" lon="-1.165096">
        <ele>9.2</ele>
        <time>2020-08-12T14:43:18Z</time>
      </trkpt>
      <trkpt lat="45.68576" lon="-1.166871">
        <ele>9.0</ele>
        <time>2020-08-12T14:43:39Z</time>
      </trkpt>
      <trkpt lat="45.686431" lon="-1.168054">
        <ele>9.0</ele>
        <time>2020-08-12T14:43:53Z</time>
      </trkpt>
      <trkpt lat="45.686579" lon="-1.168357">
        <ele>9.4</ele>
        <time>2020-08-12T14:43:57Z</time>
      </trkpt>
      <trkpt lat="45.686811" lon="-1.16861">
        <ele>9.8</ele>
        <time>2020-08-12T14:44:01Z</time>
      </trkpt>
      <trkpt lat="45.686848" lon="-1.168598">
        <ele>9.8</ele>
        <time>2020-08-12T14:44:01Z</time>
      </trkpt>
      <trkpt lat="45.686921" lon="-1.168625">
        <ele>9.8</ele>
        <time>2020-08-12T14:44:03Z</time>
      </trkpt>
      <trkpt lat="45.68695" lon="-1.168661">
        <ele>9.8</ele>
        <time>2020-08-12T14:44:04Z</time>
      </trkpt>
      <trkpt lat="45.686977" lon="-1.168751">
        <ele>9.8</ele>
        <time>2020-08-12T14:44:05Z</time>
      </trkpt>
      <trkpt lat="45.686969" lon="-1.16884">
        <ele>9.8</ele>
        <time>2020-08-12T14:44:06Z</time>
      </trkpt>
      <trkpt lat="45.686905" lon="-1.168933">
        <ele>9.8</ele>
        <time>2020-08-12T14:44:08Z</time>
      </trkpt>
      <trkpt lat="45.686901" lon="-1.169203">
        <ele>9.6</ele>
        <time>2020-08-12T14:44:12Z</time>
      </trkpt>
      <trkpt lat="45.687286" lon="-1.170145">
        <ele>10.2</ele>
        <time>2020-08-12T14:44:22Z</time>
      </trkpt>
      <trkpt lat="45.687473" lon="-1.170654">
        <ele>10.2</ele>
        <time>2020-08-12T14:44:27Z</time>
      </trkpt>
      <trkpt lat="45.687797" lon="-1.171443">
        <ele>9.0</ele>
        <time>2020-08-12T14:44:36Z</time>
      </trkpt>
      <trkpt lat="45.688225" lon="-1.172548">
        <ele>9.2</ele>
        <time>2020-08-12T14:44:47Z</time>
      </trkpt>
      <trkpt lat="45.689365" lon="-1.175367">
        <ele>8.4</ele>
        <time>2020-08-12T14:45:17Z</time>
      </trkpt>
      <trkpt lat="45.689725" lon="-1.176325">
        <ele>8.2</ele>
        <time>2020-08-12T14:45:27Z</time>
      </trkpt>
      <trkpt lat="45.689956" lon="-1.176841">
        <ele>8.2</ele>
        <time>2020-08-12T14:45:33Z</time>
      </trkpt>
      <trkpt lat="45.690424" lon="-1.178038">
        <ele>8.6</ele>
        <time>2020-08-12T14:45:45Z</time>
      </trkpt>
      <trkpt lat="45.690585" lon="-1.178283">
        <ele>8.6</ele>
        <time>2020-08-12T14:45:48Z</time>
      </trkpt>
      <trkpt lat="45.690933" lon="-1.178454">
        <ele>6.8</ele>
        <time>2020-08-12T14:45:53Z</time>
      </trkpt>
      <trkpt lat="45.691017" lon="-1.178406">
        <ele>6.8</ele>
        <time>2020-08-12T14:45:55Z</time>
      </trkpt>
      <trkpt lat="45.691106" lon="-1.178394">
        <ele>6.8</ele>
        <time>2020-08-12T14:45:56Z</time>
      </trkpt>
      <trkpt lat="45.691194" lon="-1.178419">
        <ele>6.8</ele>
        <time>2020-08-12T14:45:57Z</time>
      </trkpt>
      <trkpt lat="45.69127" lon="-1.178475">
        <ele>6.8</ele>
        <time>2020-08-12T14:45:58Z</time>
      </trkpt>
      <trkpt lat="45.691332" lon="-1.178558">
        <ele>6.8</ele>
        <time>2020-08-12T14:45:59Z</time>
      </trkpt>
      <trkpt lat="45.691376" lon="-1.178662">
        <ele>6.8</ele>
        <time>2020-08-12T14:46:00Z</time>
      </trkpt>
      <trkpt lat="45.691402" lon="-1.17886">
        <ele>6.8</ele>
        <time>2020-08-12T14:46:02Z</time>
      </trkpt>
      <trkpt lat="45.691381" lon="-1.179002">
        <ele>6.8</ele>
        <time>2020-08-12T14:46:03Z</time>
      </trkpt>
      <trkpt lat="45.69133" lon="-1.179126">
        <ele>6.8</ele>
        <time>2020-08-12T14:46:05Z</time>
      </trkpt>
      <trkpt lat="45.691215" lon="-1.17925">
        <ele>6.2</ele>
        <time>2020-08-12T14:46:07Z</time>
      </trkpt>
      <trkpt lat="45.69115" lon="-1.17935">
        <ele>6.2</ele>
        <time>2020-08-12T14:46:08Z</time>
      </trkpt>
      <trkpt lat="45.691061" lon="-1.179582">
        <ele>6.2</ele>
        <time>2020-08-12T14:46:10Z</time>
      </trkpt>
      <trkpt lat="45.691048" lon="-1.179738">
        <ele>6.2</ele>
        <time>2020-08-12T14:46:12Z</time>
      </trkpt>
      <trkpt lat="45.691072" lon="-1.179971">
        <ele>6.2</ele>
        <time>2020-08-12T14:46:14Z</time>
      </trkpt>
      <trkpt lat="45.691325" lon="-1.180643">
        <ele>7.0</ele>
        <time>2020-08-12T14:46:21Z</time>
      </trkpt>
      <trkpt lat="45.691878" lon="-1.181999">
        <ele>8.6</ele>
        <time>2020-08-12T14:46:35Z</time>
      </trkpt>
      <trkpt lat="45.691124" lon="-1.182567">
        <ele>9.8</ele>
        <time>2020-08-12T14:46:47Z</time>
      </trkpt>
      <trkpt lat="45.691029" lon="-1.18266">
        <ele>9.8</ele>
        <time>2020-08-12T14:46:48Z</time>
      </trkpt>
      <trkpt lat="45.691004" lon="-1.18281">
        <ele>9.8</ele>
        <time>2020-08-12T14:46:50Z</time>
      </trkpt>
      <trkpt lat="45.691151" lon="-1.183238">
        <ele>9.8</ele>
        <time>2020-08-12T14:46:54Z</time>
      </trkpt>
      <trkpt lat="45.691188" lon="-1.183267">
        <ele>9.8</ele>
        <time>2020-08-12T14:46:54Z</time>
      </trkpt>
      <trkpt lat="45.691141" lon="-1.183397">
        <ele>10.0</ele>
        <time>2020-08-12T14:46:59Z</time>
      </trkpt>
      <trkpt lat="45.690795" lon="-1.183641">
        <ele>8.0</ele>
        <time>2020-08-12T14:47:17Z</time>
      </trkpt>
      <trkpt lat="45.690778" lon="-1.183761">
        <ele>8.0</ele>
        <time>2020-08-12T14:47:21Z</time>
      </trkpt>
      <trkpt lat="45.690778" lon="-1.183761">
        <ele>8.0</ele>
        <time>2020-08-12T14:47:21Z</time>
      </trkpt>
      <trkpt lat="45.690795" lon="-1.183641">
        <ele>8.0</ele>
        <time>2020-08-12T14:47:25Z</time>
      </trkpt>
      <trkpt lat="45.691141" lon="-1.183397">
        <ele>10.0</ele>
        <time>2020-08-12T14:47:43Z</time>
      </trkpt>
      <trkpt lat="45.691188" lon="-1.183267">
        <ele>9.8</ele>
        <time>2020-08-12T14:47:47Z</time>
      </trkpt>
      <trkpt lat="45.691151" lon="-1.183238">
        <ele>9.8</ele>
        <time>2020-08-12T14:47:48Z</time>
      </trkpt>
      <trkpt lat="45.691004" lon="-1.18281">
        <ele>9.8</ele>
        <time>2020-08-12T14:47:52Z</time>
      </trkpt>
      <trkpt lat="45.691029" lon="-1.18266">
        <ele>9.8</ele>
        <time>2020-08-12T14:47:54Z</time>
      </trkpt>
      <trkpt lat="45.691124" lon="-1.182567">
        <ele>9.8</ele>
        <time>2020-08-12T14:47:55Z</time>
      </trkpt>
      <trkpt lat="45.691878" lon="-1.181999">
        <ele>8.6</ele>
        <time>2020-08-12T14:48:06Z</time>
      </trkpt>
      <trkpt lat="45.692223" lon="-1.183025">
        <ele>10.0</ele>
        <time>2020-08-12T14:48:13Z</time>
      </trkpt>
      <trkpt lat="45.692894" lon="-1.185368">
        <ele>9.8</ele>
        <time>2020-08-12T14:48:27Z</time>
      </trkpt>
      <trkpt lat="45.693506" lon="-1.187654">
        <ele>6.6</ele>
        <time>2020-08-12T14:48:40Z</time>
      </trkpt>
      <trkpt lat="45.694129" lon="-1.189826">
        <ele>7.8</ele>
        <time>2020-08-12T14:48:53Z</time>
      </trkpt>
      <trkpt lat="45.695308" lon="-1.194081">
        <ele>5.0</ele>
        <time>2020-08-12T14:49:18Z</time>
      </trkpt>
      <trkpt lat="45.69542" lon="-1.194423">
        <ele>5.4</ele>
        <time>2020-08-12T14:49:20Z</time>
      </trkpt>
      <trkpt lat="45.695595" lon="-1.194721">
        <ele>5.4</ele>
        <time>2020-08-12T14:49:22Z</time>
      </trkpt>
      <trkpt lat="45.695807" lon="-1.194959">
        <ele>5.4</ele>
        <time>2020-08-12T14:49:24Z</time>
      </trkpt>
      <trkpt lat="45.695954" lon="-1.195095">
        <ele>6.6</ele>
        <time>2020-08-12T14:49:25Z</time>
      </trkpt>
      <trkpt lat="45.697579" lon="-1.196368">
        <ele>9.2</ele>
        <time>2020-08-12T14:49:40Z</time>
      </trkpt>
      <trkpt lat="45.697693" lon="-1.196488">
        <ele>9.2</ele>
        <time>2020-08-12T14:49:41Z</time>
      </trkpt>
      <trkpt lat="45.697884" lon="-1.196741">
        <ele>9.0</ele>
        <time>2020-08-12T14:49:43Z</time>
      </trkpt>
      <trkpt lat="45.698051" lon="-1.197068">
        <ele>9.0</ele>
        <time>2020-08-12T14:49:45Z</time>
      </trkpt>
      <trkpt lat="45.698196" lon="-1.197513">
        <ele>7.8</ele>
        <time>2020-08-12T14:49:48Z</time>
      </trkpt>
      <trkpt lat="45.698236" lon="-1.19773">
        <ele>7.8</ele>
        <time>2020-08-12T14:49:49Z</time>
      </trkpt>
      <trkpt lat="45.698898" lon="-1.203446">
        <ele>9.0</ele>
        <time>2020-08-12T14:50:21Z</time>
      </trkpt>
      <trkpt lat="45.699009" lon="-1.204187">
        <ele>9.4</ele>
        <time>2020-08-12T14:50:25Z</time>
      </trkpt>
      <trkpt lat="45.699306" lon="-1.20583">
        <ele>8.8</ele>
        <time>2020-08-12T14:50:34Z</time>
      </trkpt>
      <trkpt lat="45.699334" lon="-1.206022">
        <ele>9.4</ele>
        <time>2020-08-12T14:50:35Z</time>
      </trkpt>
      <trkpt lat="45.699359" lon="-1.206547">
        <ele>9.4</ele>
        <time>2020-08-12T14:50:38Z</time>
      </trkpt>
      <trkpt lat="45.699288" lon="-1.207266">
        <ele>12.0</ele>
        <time>2020-08-12T14:50:42Z</time>
      </trkpt>
      <trkpt lat="45.69923" lon="-1.207681">
        <ele>16.6</ele>
        <time>2020-08-12T14:50:45Z</time>
      </trkpt>
      <trkpt lat="45.699152" lon="-1.208083">
        <ele>16.6</ele>
        <time>2020-08-12T14:50:47Z</time>
      </trkpt>
      <trkpt lat="45.69883" lon="-1.209193">
        <ele>18.8</ele>
        <time>2020-08-12T14:50:53Z</time>
      </trkpt>
      <trkpt lat="45.698671" lon="-1.209665">
        <ele>18.8</ele>
        <time>2020-08-12T14:50:56Z</time>
      </trkpt>
      <trkpt lat="45.698591" lon="-1.209844">
        <ele>18.8</ele>
        <time>2020-08-12T14:50:57Z</time>
      </trkpt>
      <trkpt lat="45.69849" lon="-1.210039">
        <ele>17.4</ele>
        <time>2020-08-12T14:50:59Z</time>
      </trkpt>
      <trkpt lat="45.69807" lon="-1.210713">
        <ele>14.25</ele>
        <time>2020-08-12T14:51:04Z</time>
      </trkpt>
      <trkpt lat="45.69794" lon="-1.211028">
        <ele>12.25</ele>
        <time>2020-08-12T14:51:06Z</time>
      </trkpt>
      <trkpt lat="45.697892" lon="-1.211284">
        <ele>12.25</ele>
        <time>2020-08-12T14:51:07Z</time>
      </trkpt>
      <trkpt lat="45.697881" lon="-1.211539">
        <ele>12.25</ele>
        <time>2020-08-12T14:51:09Z</time>
      </trkpt>
      <trkpt lat="45.697892" lon="-1.211723">
        <ele>10.5</ele>
        <time>2020-08-12T14:51:10Z</time>
      </trkpt>
      <trkpt lat="45.69804" lon="-1.213019">
        <ele>11.5</ele>
        <time>2020-08-12T14:51:17Z</time>
      </trkpt>
      <trkpt lat="45.69807" lon="-1.213551">
        <ele>12.0</ele>
        <time>2020-08-12T14:51:20Z</time>
      </trkpt>
      <trkpt lat="45.698061" lon="-1.215896">
        <ele>11.8</ele>
        <time>2020-08-12T14:51:33Z</time>
      </trkpt>
      <trkpt lat="45.698011" lon="-1.217892">
        <ele>12.4</ele>
        <time>2020-08-12T14:51:43Z</time>
      </trkpt>
      <trkpt lat="45.69802" lon="-1.218246">
        <ele>12.4</ele>
        <time>2020-08-12T14:51:45Z</time>
      </trkpt>
      <trkpt lat="45.698078" lon="-1.218656">
        <ele>12.0</ele>
        <time>2020-08-12T14:51:48Z</time>
      </trkpt>
      <trkpt lat="45.698668" lon="-1.221474">
        <ele>16.8</ele>
        <time>2020-08-12T14:52:04Z</time>
      </trkpt>
      <trkpt lat="45.698757" lon="-1.221753">
        <ele>17.6</ele>
        <time>2020-08-12T14:52:05Z</time>
      </trkpt>
      <trkpt lat="45.699097" lon="-1.222423">
        <ele>17.6</ele>
        <time>2020-08-12T14:52:10Z</time>
      </trkpt>
      <trkpt lat="45.699196" lon="-1.222684">
        <ele>14.0</ele>
        <time>2020-08-12T14:52:12Z</time>
      </trkpt>
      <trkpt lat="45.699224" lon="-1.222798">
        <ele>14.0</ele>
        <time>2020-08-12T14:52:12Z</time>
      </trkpt>
      <trkpt lat="45.69928" lon="-1.223456">
        <ele>15.6</ele>
        <time>2020-08-12T14:52:16Z</time>
      </trkpt>
      <trkpt lat="45.69932" lon="-1.224901">
        <ele>18.2</ele>
        <time>2020-08-12T14:52:24Z</time>
      </trkpt>
      <trkpt lat="45.699347" lon="-1.225222">
        <ele>19.8</ele>
        <time>2020-08-12T14:52:26Z</time>
      </trkpt>
      <trkpt lat="45.699407" lon="-1.225548">
        <ele>19.8</ele>
        <time>2020-08-12T14:52:27Z</time>
      </trkpt>
      <trkpt lat="45.699573" lon="-1.226236">
        <ele>18.6</ele>
        <time>2020-08-12T14:52:31Z</time>
      </trkpt>
      <trkpt lat="45.6996" lon="-1.226474">
        <ele>18.6</ele>
        <time>2020-08-12T14:52:33Z</time>
      </trkpt>
      <trkpt lat="45.699579" lon="-1.226784">
        <ele>15.4</ele>
        <time>2020-08-12T14:52:34Z</time>
      </trkpt>
      <trkpt lat="45.699357" lon="-1.227511">
        <ele>11.6</ele>
        <time>2020-08-12T14:52:39Z</time>
      </trkpt>
      <trkpt lat="45.699326" lon="-1.227725">
        <ele>11.6</ele>
        <time>2020-08-12T14:52:40Z</time>
      </trkpt>
      <trkpt lat="45.699319" lon="-1.227904">
        <ele>11.6</ele>
        <time>2020-08-12T14:52:41Z</time>
      </trkpt>
      <trkpt lat="45.699374" lon="-1.228311">
        <ele>11.6</ele>
        <time>2020-08-12T14:52:43Z</time>
      </trkpt>
      <trkpt lat="45.699433" lon="-1.228494">
        <ele>9.6</ele>
        <time>2020-08-12T14:52:44Z</time>
      </trkpt>
      <trkpt lat="45.699575" lon="-1.228775">
        <ele>9.6</ele>
        <time>2020-08-12T14:52:46Z</time>
      </trkpt>
      <trkpt lat="45.699731" lon="-1.22897">
        <ele>9.6</ele>
        <time>2020-08-12T14:52:48Z</time>
      </trkpt>
      <trkpt lat="45.700411" lon="-1.229418">
        <ele>8.6</ele>
        <time>2020-08-12T14:52:53Z</time>
      </trkpt>
      <trkpt lat="45.706276" lon="-1.233091">
        <ele>6.0</ele>
        <time>2020-08-12T14:53:39Z</time>
      </trkpt>
      <trkpt lat="45.706485" lon="-1.233189">
        <ele>6.0</ele>
        <time>2020-08-12T14:53:40Z</time>
      </trkpt>
      <trkpt lat="45.706591" lon="-1.233218">
        <ele>6.0</ele>
        <time>2020-08-12T14:53:41Z</time>
      </trkpt>
      <trkpt lat="45.706769" lon="-1.233231">
        <ele>5.6</ele>
        <time>2020-08-12T14:53:42Z</time>
      </trkpt>
      <trkpt lat="45.707016" lon="-1.233194">
        <ele>5.6</ele>
        <time>2020-08-12T14:53:44Z</time>
      </trkpt>
      <trkpt lat="45.708977" lon="-1.232711">
        <ele>5.0</ele>
        <time>2020-08-12T14:53:58Z</time>
      </trkpt>
      <trkpt lat="45.710234" lon="-1.232707">
        <ele>6.4</ele>
        <time>2020-08-12T14:54:07Z</time>
      </trkpt>
      <trkpt lat="45.710391" lon="-1.232668">
        <ele>6.4</ele>
        <time>2020-08-12T14:54:08Z</time>
      </trkpt>
      <trkpt lat="45.71054" lon="-1.232582">
        <ele>6.4</ele>
        <time>2020-08-12T14:54:09Z</time>
      </trkpt>
      <trkpt lat="45.710941" lon="-1.231931">
        <ele>6.8</ele>
        <time>2020-08-12T14:54:14Z</time>
      </trkpt>
      <trkpt lat="45.711074" lon="-1.231781">
        <ele>6.8</ele>
        <time>2020-08-12T14:54:15Z</time>
      </trkpt>
      <trkpt lat="45.711274" lon="-1.231671">
        <ele>6.8</ele>
        <time>2020-08-12T14:54:16Z</time>
      </trkpt>
      <trkpt lat="45.718442" lon="-1.230183">
        <ele>5.8</ele>
        <time>2020-08-12T14:55:08Z</time>
      </trkpt>
      <trkpt lat="45.719907" lon="-1.229858">
        <ele>7.2</ele>
        <time>2020-08-12T14:55:18Z</time>
      </trkpt>
      <trkpt lat="45.72023" lon="-1.22975">
        <ele>8.4</ele>
        <time>2020-08-12T14:55:21Z</time>
      </trkpt>
      <trkpt lat="45.720375" lon="-1.229678">
        <ele>8.4</ele>
        <time>2020-08-12T14:55:22Z</time>
      </trkpt>
      <trkpt lat="45.720485" lon="-1.229585">
        <ele>8.4</ele>
        <time>2020-08-12T14:55:22Z</time>
      </trkpt>
      <trkpt lat="45.720651" lon="-1.229358">
        <ele>8.4</ele>
        <time>2020-08-12T14:55:24Z</time>
      </trkpt>
      <trkpt lat="45.721109" lon="-1.228403">
        <ele>9.6</ele>
        <time>2020-08-12T14:55:30Z</time>
      </trkpt>
      <trkpt lat="45.72127" lon="-1.228138">
        <ele>9.8</ele>
        <time>2020-08-12T14:55:32Z</time>
      </trkpt>
      <trkpt lat="45.721367" lon="-1.22803">
        <ele>9.8</ele>
        <time>2020-08-12T14:55:32Z</time>
      </trkpt>
      <trkpt lat="45.721488" lon="-1.227946">
        <ele>9.8</ele>
        <time>2020-08-12T14:55:33Z</time>
      </trkpt>
      <trkpt lat="45.721595" lon="-1.227907">
        <ele>9.8</ele>
        <time>2020-08-12T14:55:34Z</time>
      </trkpt>
      <trkpt lat="45.721755" lon="-1.227885">
        <ele>10.0</ele>
        <time>2020-08-12T14:55:35Z</time>
      </trkpt>
      <trkpt lat="45.722062" lon="-1.227887">
        <ele>10.0</ele>
        <time>2020-08-12T14:55:38Z</time>
      </trkpt>
      <trkpt lat="45.72222" lon="-1.227856">
        <ele>10.0</ele>
        <time>2020-08-12T14:55:39Z</time>
      </trkpt>
      <trkpt lat="45.722345" lon="-1.227794">
        <ele>10.0</ele>
        <time>2020-08-12T14:55:40Z</time>
      </trkpt>
      <trkpt lat="45.722493" lon="-1.227666">
        <ele>10.0</ele>
        <time>2020-08-12T14:55:41Z</time>
      </trkpt>
      <trkpt lat="45.72382" lon="-1.226339">
        <ele>10.6</ele>
        <time>2020-08-12T14:55:52Z</time>
      </trkpt>
      <trkpt lat="45.724659" lon="-1.225529">
        <ele>11.6</ele>
        <time>2020-08-12T14:55:59Z</time>
      </trkpt>
      <trkpt lat="45.725056" lon="-1.225334">
        <ele>12.2</ele>
        <time>2020-08-12T14:56:02Z</time>
      </trkpt>
      <trkpt lat="45.725864" lon="-1.22502">
        <ele>12.2</ele>
        <time>2020-08-12T14:56:08Z</time>
      </trkpt>
      <trkpt lat="45.726168" lon="-1.224833">
        <ele>12.2</ele>
        <time>2020-08-12T14:56:11Z</time>
      </trkpt>
      <trkpt lat="45.726478" lon="-1.224605">
        <ele>12.2</ele>
        <time>2020-08-12T14:56:13Z</time>
      </trkpt>
      <trkpt lat="45.726701" lon="-1.224493">
        <ele>11.4</ele>
        <time>2020-08-12T14:56:15Z</time>
      </trkpt>
      <trkpt lat="45.727031" lon="-1.224387">
        <ele>11.4</ele>
        <time>2020-08-12T14:56:17Z</time>
      </trkpt>
      <trkpt lat="45.727591" lon="-1.224309">
        <ele>10.4</ele>
        <time>2020-08-12T14:56:21Z</time>
      </trkpt>
      <trkpt lat="45.72812" lon="-1.224089">
        <ele>11.2</ele>
        <time>2020-08-12T14:56:25Z</time>
      </trkpt>
      <trkpt lat="45.728329" lon="-1.22394">
        <ele>11.2</ele>
        <time>2020-08-12T14:56:27Z</time>
      </trkpt>
      <trkpt lat="45.730446" lon="-1.222101">
        <ele>12.4</ele>
        <time>2020-08-12T14:56:44Z</time>
      </trkpt>
      <trkpt lat="45.730742" lon="-1.221862">
        <ele>12.4</ele>
        <time>2020-08-12T14:56:47Z</time>
      </trkpt>
      <trkpt lat="45.731511" lon="-1.221153">
        <ele>15.6</ele>
        <time>2020-08-12T14:56:53Z</time>
      </trkpt>
      <trkpt lat="45.731998" lon="-1.220804">
        <ele>18.0</ele>
        <time>2020-08-12T14:56:57Z</time>
      </trkpt>
      <trkpt lat="45.734308" lon="-1.219537">
        <ele>19.8</ele>
        <time>2020-08-12T14:57:15Z</time>
      </trkpt>
      <trkpt lat="45.734841" lon="-1.219233">
        <ele>19.8</ele>
        <time>2020-08-12T14:57:19Z</time>
      </trkpt>
      <trkpt lat="45.735157" lon="-1.219014">
        <ele>17.0</ele>
        <time>2020-08-12T14:57:21Z</time>
      </trkpt>
      <trkpt lat="45.735312" lon="-1.218866">
        <ele>17.0</ele>
        <time>2020-08-12T14:57:22Z</time>
      </trkpt>
      <trkpt lat="45.735473" lon="-1.218674">
        <ele>17.0</ele>
        <time>2020-08-12T14:57:24Z</time>
      </trkpt>
      <trkpt lat="45.735594" lon="-1.218478">
        <ele>17.0</ele>
        <time>2020-08-12T14:57:25Z</time>
      </trkpt>
      <trkpt lat="45.735956" lon="-1.217806">
        <ele>14.0</ele>
        <time>2020-08-12T14:57:29Z</time>
      </trkpt>
      <trkpt lat="45.736158" lon="-1.217505">
        <ele>14.0</ele>
        <time>2020-08-12T14:57:31Z</time>
      </trkpt>
      <trkpt lat="45.736318" lon="-1.217316">
        <ele>14.2</ele>
        <time>2020-08-12T14:57:33Z</time>
      </trkpt>
      <trkpt lat="45.73671" lon="-1.216947">
        <ele>16.8</ele>
        <time>2020-08-12T14:57:36Z</time>
      </trkpt>
      <trkpt lat="45.737182" lon="-1.216569">
        <ele>17.4</ele>
        <time>2020-08-12T14:57:40Z</time>
      </trkpt>
      <trkpt lat="45.737423" lon="-1.216411">
        <ele>17.4</ele>
        <time>2020-08-12T14:57:42Z</time>
      </trkpt>
      <trkpt lat="45.737829" lon="-1.216241">
        <ele>17.0</ele>
        <time>2020-08-12T14:57:45Z</time>
      </trkpt>
      <trkpt lat="45.738646" lon="-1.216041">
        <ele>16.4</ele>
        <time>2020-08-12T14:57:51Z</time>
      </trkpt>
      <trkpt lat="45.743629" lon="-1.214903">
        <ele>15.0</ele>
        <time>2020-08-12T14:58:27Z</time>
      </trkpt>
      <trkpt lat="45.743872" lon="-1.214894">
        <ele>15.0</ele>
        <time>2020-08-12T14:58:28Z</time>
      </trkpt>
      <trkpt lat="45.744116" lon="-1.214924">
        <ele>15.0</ele>
        <time>2020-08-12T14:58:30Z</time>
      </trkpt>
      <trkpt lat="45.744361" lon="-1.21499">
        <ele>15.2</ele>
        <time>2020-08-12T14:58:32Z</time>
      </trkpt>
      <trkpt lat="45.745203" lon="-1.215487">
        <ele>14.8</ele>
        <time>2020-08-12T14:58:38Z</time>
      </trkpt>
      <trkpt lat="45.74543" lon="-1.21557">
        <ele>14.8</ele>
        <time>2020-08-12T14:58:40Z</time>
      </trkpt>
      <trkpt lat="45.745652" lon="-1.215602">
        <ele>14.8</ele>
        <time>2020-08-12T14:58:41Z</time>
      </trkpt>
      <trkpt lat="45.745896" lon="-1.215616">
        <ele>13.8</ele>
        <time>2020-08-12T14:58:43Z</time>
      </trkpt>
      <trkpt lat="45.748844" lon="-1.21547">
        <ele>13.8</ele>
        <time>2020-08-12T14:59:04Z</time>
      </trkpt>
      <trkpt lat="45.749143" lon="-1.215489">
        <ele>13.8</ele>
        <time>2020-08-12T14:59:06Z</time>
      </trkpt>
      <trkpt lat="45.749414" lon="-1.215549">
        <ele>14.2</ele>
        <time>2020-08-12T14:59:08Z</time>
      </trkpt>
      <trkpt lat="45.752126" lon="-1.216549">
        <ele>23.2</ele>
        <time>2020-08-12T14:59:28Z</time>
      </trkpt>
      <trkpt lat="45.753895" lon="-1.217232">
        <ele>22.6</ele>
        <time>2020-08-12T14:59:41Z</time>
      </trkpt>
      <trkpt lat="45.754328" lon="-1.217511">
        <ele>23.2</ele>
        <time>2020-08-12T14:59:44Z</time>
      </trkpt>
      <trkpt lat="45.756109" lon="-1.218973">
        <ele>21.6</ele>
        <time>2020-08-12T14:59:59Z</time>
      </trkpt>
      <trkpt lat="45.756337" lon="-1.219112">
        <ele>21.6</ele>
        <time>2020-08-12T15:00:01Z</time>
      </trkpt>
      <trkpt lat="45.756547" lon="-1.21919">
        <ele>21.0</ele>
        <time>2020-08-12T15:00:02Z</time>
      </trkpt>
      <trkpt lat="45.756807" lon="-1.219211">
        <ele>23.4</ele>
        <time>2020-08-12T15:00:04Z</time>
      </trkpt>
      <trkpt lat="45.756969" lon="-1.219175">
        <ele>23.4</ele>
        <time>2020-08-12T15:00:05Z</time>
      </trkpt>
      <trkpt lat="45.757176" lon="-1.219077">
        <ele>21.8</ele>
        <time>2020-08-12T15:00:07Z</time>
      </trkpt>
      <trkpt lat="45.757355" lon="-1.218931">
        <ele>21.8</ele>
        <time>2020-08-12T15:00:08Z</time>
      </trkpt>
      <trkpt lat="45.757583" lon="-1.218668">
        <ele>17.2</ele>
        <time>2020-08-12T15:00:10Z</time>
      </trkpt>
      <trkpt lat="45.758296" lon="-1.217651">
        <ele>15.8</ele>
        <time>2020-08-12T15:00:17Z</time>
      </trkpt>
      <trkpt lat="45.758419" lon="-1.217452">
        <ele>17.2</ele>
        <time>2020-08-12T15:00:19Z</time>
      </trkpt>
      <trkpt lat="45.758579" lon="-1.217285">
        <ele>17.2</ele>
        <time>2020-08-12T15:00:20Z</time>
      </trkpt>
      <trkpt lat="45.758741" lon="-1.217149">
        <ele>17.2</ele>
        <time>2020-08-12T15:00:21Z</time>
      </trkpt>
      <trkpt lat="45.758972" lon="-1.217005">
        <ele>17.2</ele>
        <time>2020-08-12T15:00:23Z</time>
      </trkpt>
      <trkpt lat="45.759149" lon="-1.216929">
        <ele>17.2</ele>
        <time>2020-08-12T15:00:25Z</time>
      </trkpt>
      <trkpt lat="45.759305" lon="-1.21689">
        <ele>19.8</ele>
        <time>2020-08-12T15:00:26Z</time>
      </trkpt>
      <trkpt lat="45.760555" lon="-1.216789">
        <ele>20.8</ele>
        <time>2020-08-12T15:00:34Z</time>
      </trkpt>
      <trkpt lat="45.760912" lon="-1.216718">
        <ele>17.4</ele>
        <time>2020-08-12T15:00:37Z</time>
      </trkpt>
      <trkpt lat="45.761098" lon="-1.216635">
        <ele>18.2</ele>
        <time>2020-08-12T15:00:38Z</time>
      </trkpt>
      <trkpt lat="45.761545" lon="-1.216345">
        <ele>18.2</ele>
        <time>2020-08-12T15:00:42Z</time>
      </trkpt>
      <trkpt lat="45.762372" lon="-1.215715">
        <ele>22.6</ele>
        <time>2020-08-12T15:00:49Z</time>
      </trkpt>
      <trkpt lat="45.76257" lon="-1.215537">
        <ele>23.8</ele>
        <time>2020-08-12T15:00:50Z</time>
      </trkpt>
      <trkpt lat="45.762769" lon="-1.215307">
        <ele>23.8</ele>
        <time>2020-08-12T15:00:52Z</time>
      </trkpt>
      <trkpt lat="45.762946" lon="-1.215013">
        <ele>23.8</ele>
        <time>2020-08-12T15:00:54Z</time>
      </trkpt>
      <trkpt lat="45.763213" lon="-1.214472">
        <ele>27.4</ele>
        <time>2020-08-12T15:00:57Z</time>
      </trkpt>
      <trkpt lat="45.763456" lon="-1.21404">
        <ele>29.4</ele>
        <time>2020-08-12T15:01:00Z</time>
      </trkpt>
      <trkpt lat="45.763691" lon="-1.213736">
        <ele>29.4</ele>
        <time>2020-08-12T15:01:02Z</time>
      </trkpt>
      <trkpt lat="45.763875" lon="-1.213553">
        <ele>29.4</ele>
        <time>2020-08-12T15:01:04Z</time>
      </trkpt>
      <trkpt lat="45.764965" lon="-1.212616">
        <ele>32.8</ele>
        <time>2020-08-12T15:01:13Z</time>
      </trkpt>
      <trkpt lat="45.765185" lon="-1.212476">
        <ele>33.0</ele>
        <time>2020-08-12T15:01:15Z</time>
      </trkpt>
      <trkpt lat="45.765388" lon="-1.212405">
        <ele>33.0</ele>
        <time>2020-08-12T15:01:16Z</time>
      </trkpt>
      <trkpt lat="45.765698" lon="-1.212362">
        <ele>33.0</ele>
        <time>2020-08-12T15:01:18Z</time>
      </trkpt>
      <trkpt lat="45.766691" lon="-1.212293">
        <ele>35.8</ele>
        <time>2020-08-12T15:01:25Z</time>
      </trkpt>
      <trkpt lat="45.766834" lon="-1.212307">
        <ele>35.8</ele>
        <time>2020-08-12T15:01:26Z</time>
      </trkpt>
      <trkpt lat="45.767138" lon="-1.212407">
        <ele>35.8</ele>
        <time>2020-08-12T15:01:28Z</time>
      </trkpt>
      <trkpt lat="45.767296" lon="-1.212517">
        <ele>35.2</ele>
        <time>2020-08-12T15:01:30Z</time>
      </trkpt>
      <trkpt lat="45.767466" lon="-1.212698">
        <ele>35.2</ele>
        <time>2020-08-12T15:01:31Z</time>
      </trkpt>
      <trkpt lat="45.767812" lon="-1.213175">
        <ele>43.6</ele>
        <time>2020-08-12T15:01:35Z</time>
      </trkpt>
      <trkpt lat="45.767975" lon="-1.213457">
        <ele>41.4</ele>
        <time>2020-08-12T15:01:36Z</time>
      </trkpt>
      <trkpt lat="45.768246" lon="-1.214042">
        <ele>41.4</ele>
        <time>2020-08-12T15:01:40Z</time>
      </trkpt>
      <trkpt lat="45.768386" lon="-1.214291">
        <ele>46.0</ele>
        <time>2020-08-12T15:01:42Z</time>
      </trkpt>
      <trkpt lat="45.768598" lon="-1.214552">
        <ele>46.0</ele>
        <time>2020-08-12T15:01:44Z</time>
      </trkpt>
      <trkpt lat="45.768799" lon="-1.214683">
        <ele>46.0</ele>
        <time>2020-08-12T15:01:45Z</time>
      </trkpt>
      <trkpt lat="45.768905" lon="-1.214726">
        <ele>46.0</ele>
        <time>2020-08-12T15:01:46Z</time>
      </trkpt>
      <trkpt lat="45.769072" lon="-1.214763">
        <ele>46.0</ele>
        <time>2020-08-12T15:01:47Z</time>
      </trkpt>
      <trkpt lat="45.770002" lon="-1.214864">
        <ele>40.6</ele>
        <time>2020-08-12T15:01:54Z</time>
      </trkpt>
      <trkpt lat="45.770244" lon="-1.214934">
        <ele>40.6</ele>
        <time>2020-08-12T15:01:55Z</time>
      </trkpt>
      <trkpt lat="45.770465" lon="-1.215054">
        <ele>36.2</ele>
        <time>2020-08-12T15:01:57Z</time>
      </trkpt>
      <trkpt lat="45.770692" lon="-1.21522">
        <ele>36.2</ele>
        <time>2020-08-12T15:01:59Z</time>
      </trkpt>
      <trkpt lat="45.771477" lon="-1.215912">
        <ele>34.2</ele>
        <time>2020-08-12T15:02:05Z</time>
      </trkpt>
      <trkpt lat="45.771688" lon="-1.216066">
        <ele>36.4</ele>
        <time>2020-08-12T15:02:07Z</time>
      </trkpt>
      <trkpt lat="45.771852" lon="-1.216159">
        <ele>36.4</ele>
        <time>2020-08-12T15:02:08Z</time>
      </trkpt>
      <trkpt lat="45.773014" lon="-1.216683">
        <ele>32.4</ele>
        <time>2020-08-12T15:02:17Z</time>
      </trkpt>
      <trkpt lat="45.773278" lon="-1.216856">
        <ele>32.4</ele>
        <time>2020-08-12T15:02:19Z</time>
      </trkpt>
      <trkpt lat="45.773538" lon="-1.2171">
        <ele>35.4</ele>
        <time>2020-08-12T15:02:21Z</time>
      </trkpt>
      <trkpt lat="45.773724" lon="-1.217349">
        <ele>35.4</ele>
        <time>2020-08-12T15:02:23Z</time>
      </trkpt>
      <trkpt lat="45.774302" lon="-1.217984">
        <ele>32.8</ele>
        <time>2020-08-12T15:02:28Z</time>
      </trkpt>
      <trkpt lat="45.774504" lon="-1.218145">
        <ele>32.8</ele>
        <time>2020-08-12T15:02:30Z</time>
      </trkpt>
      <trkpt lat="45.774718" lon="-1.218249">
        <ele>32.8</ele>
        <time>2020-08-12T15:02:31Z</time>
      </trkpt>
      <trkpt lat="45.774926" lon="-1.218293">
        <ele>32.8</ele>
        <time>2020-08-12T15:02:33Z</time>
      </trkpt>
      <trkpt lat="45.775527" lon="-1.218269">
        <ele>29.6</ele>
        <time>2020-08-12T15:02:37Z</time>
      </trkpt>
      <trkpt lat="45.776218" lon="-1.218195">
        <ele>22.8</ele>
        <time>2020-08-12T15:02:42Z</time>
      </trkpt>
      <trkpt lat="45.77785" lon="-1.218078">
        <ele>11.4</ele>
        <time>2020-08-12T15:02:54Z</time>
      </trkpt>
      <trkpt lat="45.778827" lon="-1.217978">
        <ele>12.2</ele>
        <time>2020-08-12T15:03:01Z</time>
      </trkpt>
      <trkpt lat="45.77911" lon="-1.217919">
        <ele>12.2</ele>
        <time>2020-08-12T15:03:03Z</time>
      </trkpt>
      <trkpt lat="45.781441" lon="-1.217257">
        <ele>9.4</ele>
        <time>2020-08-12T15:03:20Z</time>
      </trkpt>
      <trkpt lat="45.782003" lon="-1.217054">
        <ele>7.6</ele>
        <time>2020-08-12T15:03:24Z</time>
      </trkpt>
      <trkpt lat="45.784141" lon="-1.216148">
        <ele>9.6</ele>
        <time>2020-08-12T15:03:39Z</time>
      </trkpt>
      <trkpt lat="45.784639" lon="-1.215988">
        <ele>9.2</ele>
        <time>2020-08-12T15:03:43Z</time>
      </trkpt>
      <trkpt lat="45.785429" lon="-1.215821">
        <ele>8.4</ele>
        <time>2020-08-12T15:03:49Z</time>
      </trkpt>
      <trkpt lat="45.787883" lon="-1.215386">
        <ele>9.8</ele>
        <time>2020-08-12T15:04:06Z</time>
      </trkpt>
      <trkpt lat="45.788112" lon="-1.2153">
        <ele>9.8</ele>
        <time>2020-08-12T15:04:08Z</time>
      </trkpt>
      <trkpt lat="45.788305" lon="-1.215159">
        <ele>9.8</ele>
        <time>2020-08-12T15:04:09Z</time>
      </trkpt>
      <trkpt lat="45.788436" lon="-1.215026">
        <ele>9.2</ele>
        <time>2020-08-12T15:04:11Z</time>
      </trkpt>
      <trkpt lat="45.788541" lon="-1.214832">
        <ele>9.8</ele>
        <time>2020-08-12T15:04:12Z</time>
      </trkpt>
      <trkpt lat="45.788637" lon="-1.214611">
        <ele>9.8</ele>
        <time>2020-08-12T15:04:13Z</time>
      </trkpt>
      <trkpt lat="45.789075" lon="-1.213399">
        <ele>10.4</ele>
        <time>2020-08-12T15:04:20Z</time>
      </trkpt>
      <trkpt lat="45.789152" lon="-1.213486">
        <ele>10.4</ele>
        <time>2020-08-12T15:04:22Z</time>
      </trkpt>
      <trkpt lat="45.789435" lon="-1.213276">
        <ele>8.0</ele>
        <time>2020-08-12T15:04:30Z</time>
      </trkpt>
      <trkpt lat="45.789587" lon="-1.213034">
        <ele>8.0</ele>
        <time>2020-08-12T15:04:35Z</time>
      </trkpt>
      <trkpt lat="45.789702" lon="-1.21296">
        <ele>8.0</ele>
        <time>2020-08-12T15:04:38Z</time>
      </trkpt>
      <trkpt lat="45.789762" lon="-1.212971">
        <ele>8.0</ele>
        <time>2020-08-12T15:04:39Z</time>
      </trkpt>
      <trkpt lat="45.789776" lon="-1.213058">
        <ele>8.0</ele>
        <time>2020-08-12T15:04:41Z</time>
      </trkpt>
      <trkpt lat="45.789849" lon="-1.213254">
        <ele>8.0</ele>
        <time>2020-08-12T15:04:44Z</time>
      </trkpt>
      <trkpt lat="45.789849" lon="-1.213254">
        <ele>8.0</ele>
        <time>2020-08-12T15:04:44Z</time>
      </trkpt>
      <trkpt lat="45.789865" lon="-1.213791">
        <ele>8.8</ele>
        <time>2020-08-12T15:04:53Z</time>
      </trkpt>
      <trkpt lat="45.78978" lon="-1.213986">
        <ele>8.8</ele>
        <time>2020-08-12T15:04:57Z</time>
      </trkpt>
      <trkpt lat="45.789713" lon="-1.214099">
        <ele>8.8</ele>
        <time>2020-08-12T15:04:59Z</time>
      </trkpt>
      <trkpt lat="45.789672" lon="-1.214254">
        <ele>9.0</ele>
        <time>2020-08-12T15:05:02Z</time>
      </trkpt>
      <trkpt lat="45.789665" lon="-1.214474">
        <ele>9.0</ele>
        <time>2020-08-12T15:05:05Z</time>
      </trkpt>
      <trkpt lat="45.78967" lon="-1.214635">
        <ele>9.0</ele>
        <time>2020-08-12T15:05:08Z</time>
      </trkpt>
      <trkpt lat="45.789713" lon="-1.214766">
        <ele>9.0</ele>
        <time>2020-08-12T15:05:10Z</time>
      </trkpt>
      <trkpt lat="45.789793" lon="-1.215344">
        <ele>8.4</ele>
        <time>2020-08-12T15:05:19Z</time>
      </trkpt>
      <trkpt lat="45.789752" lon="-1.215396">
        <ele>8.4</ele>
        <time>2020-08-12T15:05:21Z</time>
      </trkpt>
      <trkpt lat="45.789398" lon="-1.2155">
        <ele>8.4</ele>
        <time>2020-08-12T15:05:29Z</time>
      </trkpt>
      <trkpt lat="45.788964" lon="-1.21565">
        <ele>9.2</ele>
        <time>2020-08-12T15:05:39Z</time>
      </trkpt>
      <trkpt lat="45.78855" lon="-1.215696">
        <ele>9.2</ele>
        <time>2020-08-12T15:05:49Z</time>
      </trkpt>
      <trkpt lat="45.788602" lon="-1.217411">
        <ele>9.2</ele>
        <time>2020-08-12T15:06:26Z</time>
      </trkpt>
      <trkpt lat="45.786202" lon="-1.21753">
        <ele>9.2</ele>
        <time>2020-08-12T15:07:39Z</time>
      </trkpt>
      <trkpt lat="45.785483" lon="-1.217618">
        <ele>8.6</ele>
        <time>2020-08-12T15:08:02Z</time>
      </trkpt>
      <trkpt lat="45.783725" lon="-1.217717">
        <ele>8.2</ele>
        <time>2020-08-12T15:08:55Z</time>
      </trkpt>
      <trkpt lat="45.780904" lon="-1.217839">
        <ele>10.0</ele>
        <time>2020-08-12T15:10:22Z</time>
      </trkpt>
      <trkpt lat="45.780892" lon="-1.217417">
        <ele>9.4</ele>
        <time>2020-08-12T15:10:31Z</time>
      </trkpt>
      <trkpt lat="45.781441" lon="-1.217257">
        <ele>9.4</ele>
        <time>2020-08-12T15:10:36Z</time>
      </trkpt>
      <trkpt lat="45.782003" lon="-1.217054">
        <ele>7.6</ele>
        <time>2020-08-12T15:10:42Z</time>
      </trkpt>
      <trkpt lat="45.784141" lon="-1.216148">
        <ele>9.6</ele>
        <time>2020-08-12T15:11:03Z</time>
      </trkpt>
      <trkpt lat="45.784639" lon="-1.215988">
        <ele>9.2</ele>
        <time>2020-08-12T15:11:07Z</time>
      </trkpt>
      <trkpt lat="45.785429" lon="-1.215821">
        <ele>8.4</ele>
        <time>2020-08-12T15:11:15Z</time>
      </trkpt>
      <trkpt lat="45.787843" lon="-1.215395">
        <ele>9.8</ele>
        <time>2020-08-12T15:11:38Z</time>
      </trkpt>
      <trkpt lat="45.788112" lon="-1.2153">
        <ele>9.8</ele>
        <time>2020-08-12T15:11:40Z</time>
      </trkpt>
      <trkpt lat="45.788305" lon="-1.215159">
        <ele>9.8</ele>
        <time>2020-08-12T15:11:42Z</time>
      </trkpt>
      <trkpt lat="45.788436" lon="-1.215026">
        <ele>9.2</ele>
        <time>2020-08-12T15:11:44Z</time>
      </trkpt>
      <trkpt lat="45.788541" lon="-1.214832">
        <ele>9.8</ele>
        <time>2020-08-12T15:11:45Z</time>
      </trkpt>
      <trkpt lat="45.788637" lon="-1.214611">
        <ele>9.8</ele>
        <time>2020-08-12T15:11:47Z</time>
      </trkpt>
      <trkpt lat="45.789075" lon="-1.213399">
        <ele>10.4</ele>
        <time>2020-08-12T15:11:56Z</time>
      </trkpt>
      <trkpt lat="45.789683" lon="-1.21162">
        <ele>7.8</ele>
        <time>2020-08-12T15:12:09Z</time>
      </trkpt>
      <trkpt lat="45.789801" lon="-1.211166">
        <ele>7.8</ele>
        <time>2020-08-12T15:12:12Z</time>
      </trkpt>
      <trkpt lat="45.78988" lon="-1.210742">
        <ele>9.4</ele>
        <time>2020-08-12T15:12:15Z</time>
      </trkpt>
      <trkpt lat="45.78998" lon="-1.209874">
        <ele>10.4</ele>
        <time>2020-08-12T15:12:21Z</time>
      </trkpt>
      <trkpt lat="45.79001" lon="-1.209337">
        <ele>10.0</ele>
        <time>2020-08-12T15:12:24Z</time>
      </trkpt>
      <trkpt lat="45.790005" lon="-1.209044">
        <ele>10.8</ele>
        <time>2020-08-12T15:12:26Z</time>
      </trkpt>
      <trkpt lat="45.789911" lon="-1.208032">
        <ele>15.4</ele>
        <time>2020-08-12T15:12:33Z</time>
      </trkpt>
      <trkpt lat="45.789712" lon="-1.206475">
        <ele>16.0</ele>
        <time>2020-08-12T15:12:43Z</time>
      </trkpt>
      <trkpt lat="45.789684" lon="-1.206339">
        <ele>16.0</ele>
        <time>2020-08-12T15:12:44Z</time>
      </trkpt>
      <trkpt lat="45.789498" lon="-1.205822">
        <ele>13.6</ele>
        <time>2020-08-12T15:12:48Z</time>
      </trkpt>
      <trkpt lat="45.787872" lon="-1.202644">
        <ele>13.8</ele>
        <time>2020-08-12T15:13:14Z</time>
      </trkpt>
      <trkpt lat="45.787559" lon="-1.202004">
        <ele>17.0</ele>
        <time>2020-08-12T15:13:19Z</time>
      </trkpt>
      <trkpt lat="45.787443" lon="-1.201673">
        <ele>16.6</ele>
        <time>2020-08-12T15:13:21Z</time>
      </trkpt>
      <trkpt lat="45.787384" lon="-1.201343">
        <ele>17.4</ele>
        <time>2020-08-12T15:13:23Z</time>
      </trkpt>
      <trkpt lat="45.787379" lon="-1.201093">
        <ele>17.4</ele>
        <time>2020-08-12T15:13:25Z</time>
      </trkpt>
      <trkpt lat="45.7874" lon="-1.200867">
        <ele>17.4</ele>
        <time>2020-08-12T15:13:26Z</time>
      </trkpt>
      <trkpt lat="45.78745" lon="-1.200601">
        <ele>17.2</ele>
        <time>2020-08-12T15:13:28Z</time>
      </trkpt>
      <trkpt lat="45.787726" lon="-1.199824">
        <ele>18.6</ele>
        <time>2020-08-12T15:13:34Z</time>
      </trkpt>
      <trkpt lat="45.787821" lon="-1.199327">
        <ele>18.6</ele>
        <time>2020-08-12T15:13:37Z</time>
      </trkpt>
      <trkpt lat="45.787842" lon="-1.198925">
        <ele>21.4</ele>
        <time>2020-08-12T15:13:40Z</time>
      </trkpt>
      <trkpt lat="45.787704" lon="-1.197772">
        <ele>24.2</ele>
        <time>2020-08-12T15:13:48Z</time>
      </trkpt>
      <trkpt lat="45.787422" lon="-1.196364">
        <ele>28.4</ele>
        <time>2020-08-12T15:13:57Z</time>
      </trkpt>
      <trkpt lat="45.787412" lon="-1.196104">
        <ele>28.4</ele>
        <time>2020-08-12T15:13:59Z</time>
      </trkpt>
      <trkpt lat="45.787429" lon="-1.195876">
        <ele>28.4</ele>
        <time>2020-08-12T15:14:00Z</time>
      </trkpt>
      <trkpt lat="45.787472" lon="-1.195617">
        <ele>24.2</ele>
        <time>2020-08-12T15:14:02Z</time>
      </trkpt>
      <trkpt lat="45.787543" lon="-1.195381">
        <ele>21.4</ele>
        <time>2020-08-12T15:14:04Z</time>
      </trkpt>
      <trkpt lat="45.78766" lon="-1.195091">
        <ele>21.4</ele>
        <time>2020-08-12T15:14:06Z</time>
      </trkpt>
      <trkpt lat="45.78853" lon="-1.193256">
        <ele>13.4</ele>
        <time>2020-08-12T15:14:21Z</time>
      </trkpt>
      <trkpt lat="45.788666" lon="-1.192829">
        <ele>13.4</ele>
        <time>2020-08-12T15:14:24Z</time>
      </trkpt>
      <trkpt lat="45.788761" lon="-1.192208">
        <ele>12.4</ele>
        <time>2020-08-12T15:14:28Z</time>
      </trkpt>
      <trkpt lat="45.788837" lon="-1.18812">
        <ele>15.2</ele>
        <time>2020-08-12T15:14:54Z</time>
      </trkpt>
      <trkpt lat="45.788868" lon="-1.187638">
        <ele>15.2</ele>
        <time>2020-08-12T15:14:58Z</time>
      </trkpt>
      <trkpt lat="45.788907" lon="-1.187333">
        <ele>14.0</ele>
        <time>2020-08-12T15:15:00Z</time>
      </trkpt>
      <trkpt lat="45.788982" lon="-1.187021">
        <ele>14.0</ele>
        <time>2020-08-12T15:15:02Z</time>
      </trkpt>
      <trkpt lat="45.789073" lon="-1.186737">
        <ele>14.0</ele>
        <time>2020-08-12T15:15:04Z</time>
      </trkpt>
      <trkpt lat="45.789797" lon="-1.184812">
        <ele>22.8</ele>
        <time>2020-08-12T15:15:18Z</time>
      </trkpt>
      <trkpt lat="45.789938" lon="-1.184516">
        <ele>22.8</ele>
        <time>2020-08-12T15:15:20Z</time>
      </trkpt>
      <trkpt lat="45.790715" lon="-1.18313">
        <ele>21.8</ele>
        <time>2020-08-12T15:15:32Z</time>
      </trkpt>
      <trkpt lat="45.790949" lon="-1.182641">
        <ele>12.6</ele>
        <time>2020-08-12T15:15:36Z</time>
      </trkpt>
      <trkpt lat="45.791199" lon="-1.182036">
        <ele>14.2</ele>
        <time>2020-08-12T15:15:41Z</time>
      </trkpt>
      <trkpt lat="45.791469" lon="-1.181325">
        <ele>12.8</ele>
        <time>2020-08-12T15:15:46Z</time>
      </trkpt>
      <trkpt lat="45.791923" lon="-1.180046">
        <ele>8.0</ele>
        <time>2020-08-12T15:15:55Z</time>
      </trkpt>
      <trkpt lat="45.792404" lon="-1.178778">
        <ele>10.8</ele>
        <time>2020-08-12T15:16:05Z</time>
      </trkpt>
      <trkpt lat="45.792551" lon="-1.178241">
        <ele>9.6</ele>
        <time>2020-08-12T15:16:08Z</time>
      </trkpt>
      <trkpt lat="45.792608" lon="-1.177981">
        <ele>9.6</ele>
        <time>2020-08-12T15:16:10Z</time>
      </trkpt>
      <trkpt lat="45.792651" lon="-1.177659">
        <ele>9.6</ele>
        <time>2020-08-12T15:16:12Z</time>
      </trkpt>
      <trkpt lat="45.792717" lon="-1.176805">
        <ele>10.0</ele>
        <time>2020-08-12T15:16:18Z</time>
      </trkpt>
      <trkpt lat="45.792898" lon="-1.175767">
        <ele>10.0</ele>
        <time>2020-08-12T15:16:25Z</time>
      </trkpt>
      <trkpt lat="45.792937" lon="-1.175407">
        <ele>10.0</ele>
        <time>2020-08-12T15:16:27Z</time>
      </trkpt>
      <trkpt lat="45.792939" lon="-1.174755">
        <ele>10.0</ele>
        <time>2020-08-12T15:16:32Z</time>
      </trkpt>
      <trkpt lat="45.792951" lon="-1.174555">
        <ele>10.0</ele>
        <time>2020-08-12T15:16:33Z</time>
      </trkpt>
      <trkpt lat="45.792989" lon="-1.17438">
        <ele>10.0</ele>
        <time>2020-08-12T15:16:34Z</time>
      </trkpt>
      <trkpt lat="45.793073" lon="-1.17419">
        <ele>10.0</ele>
        <time>2020-08-12T15:16:35Z</time>
      </trkpt>
      <trkpt lat="45.793343" lon="-1.173857">
        <ele>8.2</ele>
        <time>2020-08-12T15:16:39Z</time>
      </trkpt>
      <trkpt lat="45.793407" lon="-1.173742">
        <ele>8.2</ele>
        <time>2020-08-12T15:16:40Z</time>
      </trkpt>
      <trkpt lat="45.793439" lon="-1.173626">
        <ele>8.2</ele>
        <time>2020-08-12T15:16:41Z</time>
      </trkpt>
      <trkpt lat="45.793547" lon="-1.172852">
        <ele>9.2</ele>
        <time>2020-08-12T15:16:46Z</time>
      </trkpt>
      <trkpt lat="45.793666" lon="-1.172558">
        <ele>9.2</ele>
        <time>2020-08-12T15:16:48Z</time>
      </trkpt>
      <trkpt lat="45.793776" lon="-1.172347">
        <ele>10.6</ele>
        <time>2020-08-12T15:16:50Z</time>
      </trkpt>
      <trkpt lat="45.793905" lon="-1.172216">
        <ele>10.6</ele>
        <time>2020-08-12T15:16:51Z</time>
      </trkpt>
      <trkpt lat="45.794153" lon="-1.172031">
        <ele>10.6</ele>
        <time>2020-08-12T15:16:54Z</time>
      </trkpt>
      <trkpt lat="45.794221" lon="-1.171944">
        <ele>7.25</ele>
        <time>2020-08-12T15:16:55Z</time>
      </trkpt>
      <trkpt lat="45.794314" lon="-1.171773">
        <ele>7.25</ele>
        <time>2020-08-12T15:16:56Z</time>
      </trkpt>
      <trkpt lat="45.794324" lon="-1.171483">
        <ele>8.2</ele>
        <time>2020-08-12T15:16:58Z</time>
      </trkpt>
      <trkpt lat="45.794145" lon="-1.170103">
        <ele>11.0</ele>
        <time>2020-08-12T15:17:07Z</time>
      </trkpt>
      <trkpt lat="45.79405" lon="-1.169499">
        <ele>10.0</ele>
        <time>2020-08-12T15:17:11Z</time>
      </trkpt>
      <trkpt lat="45.793914" lon="-1.168409">
        <ele>9.8</ele>
        <time>2020-08-12T15:17:18Z</time>
      </trkpt>
      <trkpt lat="45.793806" lon="-1.167373">
        <ele>11.2</ele>
        <time>2020-08-12T15:17:25Z</time>
      </trkpt>
      <trkpt lat="45.793244" lon="-1.162519">
        <ele>15.6</ele>
        <time>2020-08-12T15:17:57Z</time>
      </trkpt>
      <trkpt lat="45.793165" lon="-1.161989">
        <ele>15.6</ele>
        <time>2020-08-12T15:18:01Z</time>
      </trkpt>
      <trkpt lat="45.793187" lon="-1.161921">
        <ele>15.6</ele>
        <time>2020-08-12T15:18:02Z</time>
      </trkpt>
      <trkpt lat="45.792493" lon="-1.161121">
        <ele>15.8</ele>
        <time>2020-08-12T15:18:13Z</time>
      </trkpt>
      <trkpt lat="45.792472" lon="-1.161145">
        <ele>15.8</ele>
        <time>2020-08-12T15:18:14Z</time>
      </trkpt>
      <trkpt lat="45.792396" lon="-1.161153">
        <ele>15.8</ele>
        <time>2020-08-12T15:18:15Z</time>
      </trkpt>
      <trkpt lat="45.792357" lon="-1.161105">
        <ele>15.8</ele>
        <time>2020-08-12T15:18:15Z</time>
      </trkpt>
      <trkpt lat="45.792343" lon="-1.161033">
        <ele>15.8</ele>
        <time>2020-08-12T15:18:16Z</time>
      </trkpt>
      <trkpt lat="45.79238" lon="-1.160938">
        <ele>15.8</ele>
        <time>2020-08-12T15:18:17Z</time>
      </trkpt>
      <trkpt lat="45.792246" lon="-1.160767">
        <ele>13.6</ele>
        <time>2020-08-12T15:18:19Z</time>
      </trkpt>
      <trkpt lat="45.791724" lon="-1.160461">
        <ele>13.6</ele>
        <time>2020-08-12T15:18:27Z</time>
      </trkpt>
      <trkpt lat="45.791096" lon="-1.160134">
        <ele>12.2</ele>
        <time>2020-08-12T15:18:35Z</time>
      </trkpt>
      <trkpt lat="45.790491" lon="-1.159785">
        <ele>9.0</ele>
        <time>2020-08-12T15:18:44Z</time>
      </trkpt>
      <trkpt lat="45.787994" lon="-1.158419">
        <ele>10.2</ele>
        <time>2020-08-12T15:19:19Z</time>
      </trkpt>
      <trkpt lat="45.787257" lon="-1.158032">
        <ele>14.6</ele>
        <time>2020-08-12T15:19:29Z</time>
      </trkpt>
      <trkpt lat="45.786099" lon="-1.157497">
        <ele>8.8</ele>
        <time>2020-08-12T15:19:45Z</time>
      </trkpt>
      <trkpt lat="45.785791" lon="-1.157265">
        <ele>5.8</ele>
        <time>2020-08-12T15:19:50Z</time>
      </trkpt>
      <trkpt lat="45.785717" lon="-1.157358">
        <ele>5.8</ele>
        <time>2020-08-12T15:19:50Z</time>
      </trkpt>
      <trkpt lat="45.78567" lon="-1.157382">
        <ele>5.8</ele>
        <time>2020-08-12T15:19:51Z</time>
      </trkpt>
      <trkpt lat="45.785604" lon="-1.157388">
        <ele>5.8</ele>
        <time>2020-08-12T15:19:51Z</time>
      </trkpt>
      <trkpt lat="45.78554" lon="-1.157364">
        <ele>5.8</ele>
        <time>2020-08-12T15:19:51Z</time>
      </trkpt>
      <trkpt lat="45.785484" lon="-1.157312">
        <ele>5.8</ele>
        <time>2020-08-12T15:19:52Z</time>
      </trkpt>
      <trkpt lat="45.785426" lon="-1.157174">
        <ele>5.8</ele>
        <time>2020-08-12T15:19:53Z</time>
      </trkpt>
      <trkpt lat="45.785418" lon="-1.157094">
        <ele>5.8</ele>
        <time>2020-08-12T15:19:53Z</time>
      </trkpt>
      <trkpt lat="45.785428" lon="-1.157008">
        <ele>5.8</ele>
        <time>2020-08-12T15:19:53Z</time>
      </trkpt>
      <trkpt lat="45.785455" lon="-1.156929">
        <ele>5.8</ele>
        <time>2020-08-12T15:19:54Z</time>
      </trkpt>
      <trkpt lat="45.785496" lon="-1.156866">
        <ele>5.8</ele>
        <time>2020-08-12T15:19:54Z</time>
      </trkpt>
      <trkpt lat="45.785549" lon="-1.156822">
        <ele>5.8</ele>
        <time>2020-08-12T15:19:55Z</time>
      </trkpt>
      <trkpt lat="45.785608" lon="-1.156803">
        <ele>5.8</ele>
        <time>2020-08-12T15:19:55Z</time>
      </trkpt>
      <trkpt lat="45.785669" lon="-1.15681">
        <ele>5.8</ele>
        <time>2020-08-12T15:19:56Z</time>
      </trkpt>
      <trkpt lat="45.785852" lon="-1.156712">
        <ele>8.8</ele>
        <time>2020-08-12T15:19:57Z</time>
      </trkpt>
      <trkpt lat="45.786317" lon="-1.156149">
        <ele>5.2</ele>
        <time>2020-08-12T15:20:01Z</time>
      </trkpt>
      <trkpt lat="45.787003" lon="-1.155224">
        <ele>5.8</ele>
        <time>2020-08-12T15:20:07Z</time>
      </trkpt>
      <trkpt lat="45.787166" lon="-1.155027">
        <ele>5.8</ele>
        <time>2020-08-12T15:20:09Z</time>
      </trkpt>
      <trkpt lat="45.787451" lon="-1.154761">
        <ele>3.4</ele>
        <time>2020-08-12T15:20:11Z</time>
      </trkpt>
      <trkpt lat="45.788255" lon="-1.154207">
        <ele>6.8</ele>
        <time>2020-08-12T15:20:17Z</time>
      </trkpt>
      <trkpt lat="45.788624" lon="-1.153914">
        <ele>8.4</ele>
        <time>2020-08-12T15:20:20Z</time>
      </trkpt>
      <trkpt lat="45.791219" lon="-1.151615">
        <ele>12.2</ele>
        <time>2020-08-12T15:20:41Z</time>
      </trkpt>
      <trkpt lat="45.791749" lon="-1.15111">
        <ele>10.0</ele>
        <time>2020-08-12T15:20:45Z</time>
      </trkpt>
      <trkpt lat="45.792391" lon="-1.150393">
        <ele>9.8</ele>
        <time>2020-08-12T15:20:51Z</time>
      </trkpt>
      <trkpt lat="45.793407" lon="-1.149022">
        <ele>10.0</ele>
        <time>2020-08-12T15:21:00Z</time>
      </trkpt>
      <trkpt lat="45.793877" lon="-1.148246">
        <ele>12.2</ele>
        <time>2020-08-12T15:21:05Z</time>
      </trkpt>
      <trkpt lat="45.795932" lon="-1.144547">
        <ele>10.0</ele>
        <time>2020-08-12T15:21:27Z</time>
      </trkpt>
      <trkpt lat="45.799114" lon="-1.138726">
        <ele>0.0</ele>
        <time>2020-08-12T15:22:02Z</time>
      </trkpt>
      <trkpt lat="45.802024" lon="-1.13355">
        <ele>3.2</ele>
        <time>2020-08-12T15:22:34Z</time>
      </trkpt>
      <trkpt lat="45.802122" lon="-1.133394">
        <ele>3.2</ele>
        <time>2020-08-12T15:22:35Z</time>
      </trkpt>
      <trkpt lat="45.802431" lon="-1.132982">
        <ele>2.6</ele>
        <time>2020-08-12T15:22:37Z</time>
      </trkpt>
      <trkpt lat="45.802627" lon="-1.132771">
        <ele>3.0</ele>
        <time>2020-08-12T15:22:39Z</time>
      </trkpt>
      <trkpt lat="45.803007" lon="-1.132416">
        <ele>2.0</ele>
        <time>2020-08-12T15:22:42Z</time>
      </trkpt>
      <trkpt lat="45.803627" lon="-1.13203">
        <ele>2.4</ele>
        <time>2020-08-12T15:22:47Z</time>
      </trkpt>
      <trkpt lat="45.803979" lon="-1.131893">
        <ele>2.4</ele>
        <time>2020-08-12T15:22:49Z</time>
      </trkpt>
      <trkpt lat="45.804182" lon="-1.13183">
        <ele>2.6</ele>
        <time>2020-08-12T15:22:51Z</time>
      </trkpt>
      <trkpt lat="45.80475" lon="-1.131769">
        <ele>2.6</ele>
        <time>2020-08-12T15:22:54Z</time>
      </trkpt>
      <trkpt lat="45.805019" lon="-1.131795">
        <ele>3.0</ele>
        <time>2020-08-12T15:22:56Z</time>
      </trkpt>
      <trkpt lat="45.805945" lon="-1.131973">
        <ele>2.6</ele>
        <time>2020-08-12T15:23:03Z</time>
      </trkpt>
      <trkpt lat="45.81155" lon="-1.133177">
        <ele>2.0</ele>
        <time>2020-08-12T15:23:41Z</time>
      </trkpt>
      <trkpt lat="45.812091" lon="-1.133249">
        <ele>2.4</ele>
        <time>2020-08-12T15:23:45Z</time>
      </trkpt>
      <trkpt lat="45.812503" lon="-1.13324">
        <ele>3.0</ele>
        <time>2020-08-12T15:23:47Z</time>
      </trkpt>
      <trkpt lat="45.81302" lon="-1.133182">
        <ele>3.0</ele>
        <time>2020-08-12T15:23:51Z</time>
      </trkpt>
      <trkpt lat="45.814085" lon="-1.132843">
        <ele>3.8</ele>
        <time>2020-08-12T15:23:58Z</time>
      </trkpt>
      <trkpt lat="45.817344" lon="-1.131687">
        <ele>2.8</ele>
        <time>2020-08-12T15:24:21Z</time>
      </trkpt>
      <trkpt lat="45.819043" lon="-1.131151">
        <ele>2.8</ele>
        <time>2020-08-12T15:24:33Z</time>
      </trkpt>
      <trkpt lat="45.819764" lon="-1.130886">
        <ele>2.2</ele>
        <time>2020-08-12T15:24:38Z</time>
      </trkpt>
      <trkpt lat="45.820209" lon="-1.130634">
        <ele>0.4</ele>
        <time>2020-08-12T15:24:41Z</time>
      </trkpt>
      <trkpt lat="45.820621" lon="-1.130344">
        <ele>0.4</ele>
        <time>2020-08-12T15:24:44Z</time>
      </trkpt>
      <trkpt lat="45.821008" lon="-1.129979">
        <ele>0.6</ele>
        <time>2020-08-12T15:24:47Z</time>
      </trkpt>
      <trkpt lat="45.82144" lon="-1.129495">
        <ele>0.6</ele>
        <time>2020-08-12T15:24:51Z</time>
      </trkpt>
      <trkpt lat="45.822042" lon="-1.128529">
        <ele>1.4</ele>
        <time>2020-08-12T15:24:57Z</time>
      </trkpt>
      <trkpt lat="45.822145" lon="-1.12818">
        <ele>1.2</ele>
        <time>2020-08-12T15:24:59Z</time>
      </trkpt>
      <trkpt lat="45.822118" lon="-1.128071">
        <ele>1.2</ele>
        <time>2020-08-12T15:25:00Z</time>
      </trkpt>
      <trkpt lat="45.822119" lon="-1.12801">
        <ele>1.2</ele>
        <time>2020-08-12T15:25:00Z</time>
      </trkpt>
      <trkpt lat="45.82213" lon="-1.127955">
        <ele>1.2</ele>
        <time>2020-08-12T15:25:01Z</time>
      </trkpt>
      <trkpt lat="45.822173" lon="-1.127865">
        <ele>1.2</ele>
        <time>2020-08-12T15:25:02Z</time>
      </trkpt>
      <trkpt lat="45.822224" lon="-1.127819">
        <ele>1.2</ele>
        <time>2020-08-12T15:25:02Z</time>
      </trkpt>
      <trkpt lat="45.822351" lon="-1.127814">
        <ele>1.2</ele>
        <time>2020-08-12T15:25:03Z</time>
      </trkpt>
      <trkpt lat="45.822544" lon="-1.127606">
        <ele>1.6</ele>
        <time>2020-08-12T15:25:06Z</time>
      </trkpt>
      <trkpt lat="45.823242" lon="-1.126324">
        <ele>1.6</ele>
        <time>2020-08-12T15:25:18Z</time>
      </trkpt>
      <trkpt lat="45.823606" lon="-1.125793">
        <ele>2.4</ele>
        <time>2020-08-12T15:25:23Z</time>
      </trkpt>
      <trkpt lat="45.823829" lon="-1.125515">
        <ele>2.4</ele>
        <time>2020-08-12T15:25:26Z</time>
      </trkpt>
      <trkpt lat="45.824161" lon="-1.125163">
        <ele>2.4</ele>
        <time>2020-08-12T15:25:30Z</time>
      </trkpt>
      <trkpt lat="45.82467" lon="-1.12472">
        <ele>2.4</ele>
        <time>2020-08-12T15:25:36Z</time>
      </trkpt>
      <trkpt lat="45.826135" lon="-1.123619">
        <ele>4.8</ele>
        <time>2020-08-12T15:25:53Z</time>
      </trkpt>
      <trkpt lat="45.826984" lon="-1.122848">
        <ele>5.6</ele>
        <time>2020-08-12T15:26:03Z</time>
      </trkpt>
      <trkpt lat="45.827995" lon="-1.121817">
        <ele>5.8</ele>
        <time>2020-08-12T15:26:16Z</time>
      </trkpt>
      <trkpt lat="45.828522" lon="-1.123213">
        <ele>5.8</ele>
        <time>2020-08-12T15:26:27Z</time>
      </trkpt>
      <trkpt lat="45.828766" lon="-1.123939">
        <ele>5.2</ele>
        <time>2020-08-12T15:26:33Z</time>
      </trkpt>
      <trkpt lat="45.829046" lon="-1.125032">
        <ele>4.6</ele>
        <time>2020-08-12T15:26:41Z</time>
      </trkpt>
      <trkpt lat="45.829363" lon="-1.125777">
        <ele>4.4</ele>
        <time>2020-08-12T15:26:48Z</time>
      </trkpt>
      <trkpt lat="45.82955" lon="-1.126351">
        <ele>4.2</ele>
        <time>2020-08-12T15:26:52Z</time>
      </trkpt>
      <trkpt lat="45.829662" lon="-1.12678">
        <ele>3.8</ele>
        <time>2020-08-12T15:26:55Z</time>
      </trkpt>
      <trkpt lat="45.829676" lon="-1.127155">
        <ele>3.8</ele>
        <time>2020-08-12T15:26:58Z</time>
      </trkpt>
      <trkpt lat="45.829621" lon="-1.127702">
        <ele>2.8</ele>
        <time>2020-08-12T15:27:02Z</time>
      </trkpt>
      <trkpt lat="45.829458" lon="-1.128552">
        <ele>2.6</ele>
        <time>2020-08-12T15:27:08Z</time>
      </trkpt>
      <trkpt lat="45.829411" lon="-1.129087">
        <ele>2.6</ele>
        <time>2020-08-12T15:27:12Z</time>
      </trkpt>
      <trkpt lat="45.829434" lon="-1.129324">
        <ele>2.6</ele>
        <time>2020-08-12T15:27:14Z</time>
      </trkpt>
      <trkpt lat="45.829493" lon="-1.129521">
        <ele>2.6</ele>
        <time>2020-08-12T15:27:15Z</time>
      </trkpt>
      <trkpt lat="45.829697" lon="-1.129887">
        <ele>2.6</ele>
        <time>2020-08-12T15:27:19Z</time>
      </trkpt>
      <trkpt lat="45.829324" lon="-1.130348">
        <ele>2.2</ele>
        <time>2020-08-12T15:27:24Z</time>
      </trkpt>
      <trkpt lat="45.829469" lon="-1.131045">
        <ele>1.6</ele>
        <time>2020-08-12T15:27:27Z</time>
      </trkpt>
      <trkpt lat="45.829596" lon="-1.131269">
        <ele>1.6</ele>
        <time>2020-08-12T15:27:29Z</time>
      </trkpt>
      <trkpt lat="45.830972" lon="-1.133283">
        <ele>3.0</ele>
        <time>2020-08-12T15:27:43Z</time>
      </trkpt>
      <trkpt lat="45.83115" lon="-1.133676">
        <ele>3.0</ele>
        <time>2020-08-12T15:27:45Z</time>
      </trkpt>
      <trkpt lat="45.8319" lon="-1.135877">
        <ele>4.2</ele>
        <time>2020-08-12T15:27:57Z</time>
      </trkpt>
      <trkpt lat="45.832142" lon="-1.136721">
        <ele>3.4</ele>
        <time>2020-08-12T15:28:02Z</time>
      </trkpt>
      <trkpt lat="45.832572" lon="-1.138619">
        <ele>2.4</ele>
        <time>2020-08-12T15:28:12Z</time>
      </trkpt>
      <trkpt lat="45.832646" lon="-1.138662">
        <ele>2.4</ele>
        <time>2020-08-12T15:28:12Z</time>
      </trkpt>
      <trkpt lat="45.833125" lon="-1.138588">
        <ele>2.4</ele>
        <time>2020-08-12T15:28:16Z</time>
      </trkpt>
      <trkpt lat="45.833662" lon="-1.138371">
        <ele>2.6</ele>
        <time>2020-08-12T15:28:19Z</time>
      </trkpt>
      <trkpt lat="45.833849" lon="-1.138373">
        <ele>2.6</ele>
        <time>2020-08-12T15:28:21Z</time>
      </trkpt>
      <trkpt lat="45.834296" lon="-1.13853">
        <ele>3.4</ele>
        <time>2020-08-12T15:28:24Z</time>
      </trkpt>
      <trkpt lat="45.834423" lon="-1.138551">
        <ele>3.4</ele>
        <time>2020-08-12T15:28:25Z</time>
      </trkpt>
      <trkpt lat="45.834575" lon="-1.138479">
        <ele>3.4</ele>
        <time>2020-08-12T15:28:26Z</time>
      </trkpt>
      <trkpt lat="45.834682" lon="-1.138192">
        <ele>3.4</ele>
        <time>2020-08-12T15:28:28Z</time>
      </trkpt>
      <trkpt lat="45.834938" lon="-1.137008">
        <ele>3.8</ele>
        <time>2020-08-12T15:28:34Z</time>
      </trkpt>
      <trkpt lat="45.83531" lon="-1.135624">
        <ele>5.8</ele>
        <time>2020-08-12T15:28:41Z</time>
      </trkpt>
      <trkpt lat="45.835712" lon="-1.134322">
        <ele>6.4</ele>
        <time>2020-08-12T15:28:48Z</time>
      </trkpt>
      <trkpt lat="45.836128" lon="-1.13342">
        <ele>8.6</ele>
        <time>2020-08-12T15:28:54Z</time>
      </trkpt>
      <trkpt lat="45.836873" lon="-1.135107">
        <ele>7.2</ele>
        <time>2020-08-12T15:29:08Z</time>
      </trkpt>
      <trkpt lat="45.837459" lon="-1.136487">
        <ele>6.2</ele>
        <time>2020-08-12T15:29:19Z</time>
      </trkpt>
      <trkpt lat="45.837538" lon="-1.136774">
        <ele>6.6</ele>
        <time>2020-08-12T15:29:22Z</time>
      </trkpt>
      <trkpt lat="45.83758" lon="-1.137001">
        <ele>6.6</ele>
        <time>2020-08-12T15:29:23Z</time>
      </trkpt>
      <trkpt lat="45.837616" lon="-1.137512">
        <ele>5.8</ele>
        <time>2020-08-12T15:29:27Z</time>
      </trkpt>
      <trkpt lat="45.837666" lon="-1.137637">
        <ele>5.8</ele>
        <time>2020-08-12T15:29:28Z</time>
      </trkpt>
      <trkpt lat="45.837731" lon="-1.13771">
        <ele>5.8</ele>
        <time>2020-08-12T15:29:29Z</time>
      </trkpt>
      <trkpt lat="45.837835" lon="-1.137796">
        <ele>5.8</ele>
        <time>2020-08-12T15:29:30Z</time>
      </trkpt>
      <trkpt lat="45.837882" lon="-1.137915">
        <ele>5.8</ele>
        <time>2020-08-12T15:29:31Z</time>
      </trkpt>
      <trkpt lat="45.837883" lon="-1.13808">
        <ele>5.8</ele>
        <time>2020-08-12T15:29:32Z</time>
      </trkpt>
      <trkpt lat="45.837845" lon="-1.138185">
        <ele>5.8</ele>
        <time>2020-08-12T15:29:32Z</time>
      </trkpt>
      <trkpt lat="45.837839" lon="-1.138351">
        <ele>5.2</ele>
        <time>2020-08-12T15:29:33Z</time>
      </trkpt>
      <trkpt lat="45.838246" lon="-1.140154">
        <ele>5.8</ele>
        <time>2020-08-12T15:29:44Z</time>
      </trkpt>
      <trkpt lat="45.838369" lon="-1.141179">
        <ele>7.0</ele>
        <time>2020-08-12T15:29:50Z</time>
      </trkpt>
      <trkpt lat="45.838779" lon="-1.144067">
        <ele>5.6</ele>
        <time>2020-08-12T15:30:06Z</time>
      </trkpt>
      <trkpt lat="45.838956" lon="-1.14493">
        <ele>5.4</ele>
        <time>2020-08-12T15:30:11Z</time>
      </trkpt>
      <trkpt lat="45.839126" lon="-1.145515">
        <ele>5.0</ele>
        <time>2020-08-12T15:30:15Z</time>
      </trkpt>
      <trkpt lat="45.839445" lon="-1.146377">
        <ele>4.8</ele>
        <time>2020-08-12T15:30:20Z</time>
      </trkpt>
      <trkpt lat="45.839726" lon="-1.146966">
        <ele>4.4</ele>
        <time>2020-08-12T15:30:24Z</time>
      </trkpt>
      <trkpt lat="45.840033" lon="-1.147519">
        <ele>4.8</ele>
        <time>2020-08-12T15:30:28Z</time>
      </trkpt>
      <trkpt lat="45.840335" lon="-1.147958">
        <ele>4.8</ele>
        <time>2020-08-12T15:30:32Z</time>
      </trkpt>
      <trkpt lat="45.841361" lon="-1.149191">
        <ele>4.4</ele>
        <time>2020-08-12T15:30:42Z</time>
      </trkpt>
      <trkpt lat="45.841838" lon="-1.149642">
        <ele>4.6</ele>
        <time>2020-08-12T15:30:47Z</time>
      </trkpt>
      <trkpt lat="45.842081" lon="-1.149952">
        <ele>4.6</ele>
        <time>2020-08-12T15:30:50Z</time>
      </trkpt>
      <trkpt lat="45.842342" lon="-1.150171">
        <ele>4.6</ele>
        <time>2020-08-12T15:30:52Z</time>
      </trkpt>
      <trkpt lat="45.842425" lon="-1.15022">
        <ele>4.6</ele>
        <time>2020-08-12T15:30:53Z</time>
      </trkpt>
      <trkpt lat="45.842518" lon="-1.150208">
        <ele>4.6</ele>
        <time>2020-08-12T15:30:54Z</time>
      </trkpt>
      <trkpt lat="45.842599" lon="-1.150283">
        <ele>4.6</ele>
        <time>2020-08-12T15:30:54Z</time>
      </trkpt>
      <trkpt lat="45.842622" lon="-1.150345">
        <ele>4.6</ele>
        <time>2020-08-12T15:30:55Z</time>
      </trkpt>
      <trkpt lat="45.842619" lon="-1.150483">
        <ele>4.6</ele>
        <time>2020-08-12T15:30:56Z</time>
      </trkpt>
      <trkpt lat="45.842692" lon="-1.150674">
        <ele>4.6</ele>
        <time>2020-08-12T15:30:57Z</time>
      </trkpt>
      <trkpt lat="45.843207" lon="-1.151368">
        <ele>4.0</ele>
        <time>2020-08-12T15:31:03Z</time>
      </trkpt>
      <trkpt lat="45.843695" lon="-1.152221">
        <ele>3.0</ele>
        <time>2020-08-12T15:31:10Z</time>
      </trkpt>
      <trkpt lat="45.84414" lon="-1.152949">
        <ele>3.0</ele>
        <time>2020-08-12T15:31:16Z</time>
      </trkpt>
      <trkpt lat="45.844758" lon="-1.154086">
        <ele>3.0</ele>
        <time>2020-08-12T15:31:25Z</time>
      </trkpt>
      <trkpt lat="45.845058" lon="-1.154771">
        <ele>2.0</ele>
        <time>2020-08-12T15:31:29Z</time>
      </trkpt>
      <trkpt lat="45.845327" lon="-1.155483">
        <ele>2.0</ele>
        <time>2020-08-12T15:31:34Z</time>
      </trkpt>
      <trkpt lat="45.845601" lon="-1.156429">
        <ele>2.2</ele>
        <time>2020-08-12T15:31:41Z</time>
      </trkpt>
      <trkpt lat="45.845793" lon="-1.15726">
        <ele>1.0</ele>
        <time>2020-08-12T15:31:46Z</time>
      </trkpt>
      <trkpt lat="45.845869" lon="-1.157643">
        <ele>1.8</ele>
        <time>2020-08-12T15:31:48Z</time>
      </trkpt>
      <trkpt lat="45.845956" lon="-1.158312">
        <ele>1.8</ele>
        <time>2020-08-12T15:31:52Z</time>
      </trkpt>
      <trkpt lat="45.846001" lon="-1.158966">
        <ele>2.2</ele>
        <time>2020-08-12T15:31:56Z</time>
      </trkpt>
      <trkpt lat="45.846005" lon="-1.159328">
        <ele>3.6</ele>
        <time>2020-08-12T15:31:59Z</time>
      </trkpt>
      <trkpt lat="45.845929" lon="-1.160916">
        <ele>4.4</ele>
        <time>2020-08-12T15:32:08Z</time>
      </trkpt>
      <trkpt lat="45.845847" lon="-1.164161">
        <ele>3.8</ele>
        <time>2020-08-12T15:32:28Z</time>
      </trkpt>
      <trkpt lat="45.845783" lon="-1.165851">
        <ele>1.8</ele>
        <time>2020-08-12T15:32:38Z</time>
      </trkpt>
      <trkpt lat="45.845844" lon="-1.166658">
        <ele>1.6</ele>
        <time>2020-08-12T15:32:43Z</time>
      </trkpt>
      <trkpt lat="45.845937" lon="-1.16724">
        <ele>0.6</ele>
        <time>2020-08-12T15:32:47Z</time>
      </trkpt>
      <trkpt lat="45.846055" lon="-1.167796">
        <ele>0.67</ele>
        <time>2020-08-12T15:32:50Z</time>
      </trkpt>
      <trkpt lat="45.846216" lon="-1.16835">
        <ele>0.0</ele>
        <time>2020-08-12T15:32:54Z</time>
      </trkpt>
      <trkpt lat="45.846426" lon="-1.168906">
        <ele>0.0</ele>
        <time>2020-08-12T15:32:58Z</time>
      </trkpt>
      <trkpt lat="45.846659" lon="-1.169405">
        <ele>0.0</ele>
        <time>2020-08-12T15:33:02Z</time>
      </trkpt>
      <trkpt lat="45.846967" lon="-1.169951">
        <ele>0.0</ele>
        <time>2020-08-12T15:33:06Z</time>
      </trkpt>
      <trkpt lat="45.862108" lon="-1.195041">
        <ele>1.25</ele>
        <time>2020-08-12T15:36:28Z</time>
      </trkpt>
      <trkpt lat="45.863101" lon="-1.196718">
        <ele>3.0</ele>
        <time>2020-08-12T15:36:41Z</time>
      </trkpt>
      <trkpt lat="45.863199" lon="-1.196814">
        <ele>3.0</ele>
        <time>2020-08-12T15:36:42Z</time>
      </trkpt>
      <trkpt lat="45.86358" lon="-1.19736">
        <ele>3.6</ele>
        <time>2020-08-12T15:36:47Z</time>
      </trkpt>
      <trkpt lat="45.863832" lon="-1.197681">
        <ele>3.2</ele>
        <time>2020-08-12T15:36:50Z</time>
      </trkpt>
      <trkpt lat="45.864335" lon="-1.198462">
        <ele>3.2</ele>
        <time>2020-08-12T15:36:56Z</time>
      </trkpt>
      <trkpt lat="45.865055" lon="-1.199643">
        <ele>3.2</ele>
        <time>2020-08-12T15:37:06Z</time>
      </trkpt>
      <trkpt lat="45.865652" lon="-1.200663">
        <ele>3.0</ele>
        <time>2020-08-12T15:37:14Z</time>
      </trkpt>
      <trkpt lat="45.866126" lon="-1.201606">
        <ele>2.6</ele>
        <time>2020-08-12T15:37:21Z</time>
      </trkpt>
      <trkpt lat="45.866383" lon="-1.20208">
        <ele>2.6</ele>
        <time>2020-08-12T15:37:24Z</time>
      </trkpt>
      <trkpt lat="45.866453" lon="-1.202244">
        <ele>2.6</ele>
        <time>2020-08-12T15:37:26Z</time>
      </trkpt>
      <trkpt lat="45.866716" lon="-1.202745">
        <ele>2.6</ele>
        <time>2020-08-12T15:37:29Z</time>
      </trkpt>
      <trkpt lat="45.867319" lon="-1.204013">
        <ele>1.6</ele>
        <time>2020-08-12T15:37:39Z</time>
      </trkpt>
      <trkpt lat="45.867545" lon="-1.204537">
        <ele>2.4</ele>
        <time>2020-08-12T15:37:42Z</time>
      </trkpt>
      <trkpt lat="45.868191" lon="-1.206251">
        <ele>1.6</ele>
        <time>2020-08-12T15:37:54Z</time>
      </trkpt>
      <trkpt lat="45.868468" lon="-1.207107">
        <ele>2.4</ele>
        <time>2020-08-12T15:38:00Z</time>
      </trkpt>
      <trkpt lat="45.868551" lon="-1.207284">
        <ele>2.4</ele>
        <time>2020-08-12T15:38:01Z</time>
      </trkpt>
      <trkpt lat="45.868996" lon="-1.208629">
        <ele>2.0</ele>
        <time>2020-08-12T15:38:10Z</time>
      </trkpt>
      <trkpt lat="45.869077" lon="-1.208929">
        <ele>2.0</ele>
        <time>2020-08-12T15:38:12Z</time>
      </trkpt>
      <trkpt lat="45.869203" lon="-1.209783">
        <ele>2.4</ele>
        <time>2020-08-12T15:38:18Z</time>
      </trkpt>
      <trkpt lat="45.869258" lon="-1.210067">
        <ele>2.4</ele>
        <time>2020-08-12T15:38:19Z</time>
      </trkpt>
      <trkpt lat="45.8711" lon="-1.216975">
        <ele>3.4</ele>
        <time>2020-08-12T15:39:04Z</time>
      </trkpt>
      <trkpt lat="45.8712" lon="-1.217223">
        <ele>3.4</ele>
        <time>2020-08-12T15:39:06Z</time>
      </trkpt>
      <trkpt lat="45.871305" lon="-1.217406">
        <ele>3.4</ele>
        <time>2020-08-12T15:39:08Z</time>
      </trkpt>
      <trkpt lat="45.871364" lon="-1.217429">
        <ele>3.4</ele>
        <time>2020-08-12T15:39:08Z</time>
      </trkpt>
      <trkpt lat="45.871405" lon="-1.217469">
        <ele>3.4</ele>
        <time>2020-08-12T15:39:08Z</time>
      </trkpt>
      <trkpt lat="45.871452" lon="-1.217593">
        <ele>3.6</ele>
        <time>2020-08-12T15:39:09Z</time>
      </trkpt>
      <trkpt lat="45.871445" lon="-1.217718">
        <ele>3.6</ele>
        <time>2020-08-12T15:39:10Z</time>
      </trkpt>
      <trkpt lat="45.871399" lon="-1.217861">
        <ele>3.6</ele>
        <time>2020-08-12T15:39:11Z</time>
      </trkpt>
      <trkpt lat="45.871399" lon="-1.217978">
        <ele>3.6</ele>
        <time>2020-08-12T15:39:11Z</time>
      </trkpt>
      <trkpt lat="45.871451" lon="-1.218269">
        <ele>3.6</ele>
        <time>2020-08-12T15:39:13Z</time>
      </trkpt>
      <trkpt lat="45.872426" lon="-1.22194">
        <ele>1.4</ele>
        <time>2020-08-12T15:39:35Z</time>
      </trkpt>
      <trkpt lat="45.872775" lon="-1.222704">
        <ele>1.6</ele>
        <time>2020-08-12T15:39:41Z</time>
      </trkpt>
      <trkpt lat="45.872902" lon="-1.222903">
        <ele>1.6</ele>
        <time>2020-08-12T15:39:42Z</time>
      </trkpt>
      <trkpt lat="45.873015" lon="-1.222915">
        <ele>1.6</ele>
        <time>2020-08-12T15:39:43Z</time>
      </trkpt>
      <trkpt lat="45.873579" lon="-1.222815">
        <ele>2.2</ele>
        <time>2020-08-12T15:39:49Z</time>
      </trkpt>
      <trkpt lat="45.873921" lon="-1.222673">
        <ele>2.2</ele>
        <time>2020-08-12T15:39:53Z</time>
      </trkpt>
      <trkpt lat="45.87415" lon="-1.222517">
        <ele>2.2</ele>
        <time>2020-08-12T15:39:55Z</time>
      </trkpt>
      <trkpt lat="45.874662" lon="-1.222078">
        <ele>3.0</ele>
        <time>2020-08-12T15:40:02Z</time>
      </trkpt>
      <trkpt lat="45.877385" lon="-1.219638">
        <ele>4.8</ele>
        <time>2020-08-12T15:40:35Z</time>
      </trkpt>
      <trkpt lat="45.877581" lon="-1.219478">
        <ele>4.8</ele>
        <time>2020-08-12T15:40:37Z</time>
      </trkpt>
      <trkpt lat="45.87781" lon="-1.219334">
        <ele>4.8</ele>
        <time>2020-08-12T15:40:39Z</time>
      </trkpt>
      <trkpt lat="45.878022" lon="-1.219099">
        <ele>4.6</ele>
        <time>2020-08-12T15:40:42Z</time>
      </trkpt>
      <trkpt lat="45.878058" lon="-1.218963">
        <ele>4.6</ele>
        <time>2020-08-12T15:40:43Z</time>
      </trkpt>
      <trkpt lat="45.878133" lon="-1.218889">
        <ele>4.6</ele>
        <time>2020-08-12T15:40:44Z</time>
      </trkpt>
      <trkpt lat="45.878182" lon="-1.218882">
        <ele>4.6</ele>
        <time>2020-08-12T15:40:45Z</time>
      </trkpt>
      <trkpt lat="45.878273" lon="-1.218933">
        <ele>4.6</ele>
        <time>2020-08-12T15:40:46Z</time>
      </trkpt>
      <trkpt lat="45.87833" lon="-1.219054">
        <ele>4.6</ele>
        <time>2020-08-12T15:40:47Z</time>
      </trkpt>
      <trkpt lat="45.87833" lon="-1.219164">
        <ele>4.6</ele>
        <time>2020-08-12T15:40:48Z</time>
      </trkpt>
      <trkpt lat="45.878374" lon="-1.219372">
        <ele>4.2</ele>
        <time>2020-08-12T15:40:49Z</time>
      </trkpt>
      <trkpt lat="45.878601" lon="-1.219726">
        <ele>4.2</ele>
        <time>2020-08-12T15:40:53Z</time>
      </trkpt>
      <trkpt lat="45.879041" lon="-1.220273">
        <ele>4.4</ele>
        <time>2020-08-12T15:40:59Z</time>
      </trkpt>
      <trkpt lat="45.879436" lon="-1.22068">
        <ele>4.0</ele>
        <time>2020-08-12T15:41:05Z</time>
      </trkpt>
      <trkpt lat="45.881358" lon="-1.222563">
        <ele>5.2</ele>
        <time>2020-08-12T15:41:30Z</time>
      </trkpt>
      <trkpt lat="45.882555" lon="-1.22382">
        <ele>5.6</ele>
        <time>2020-08-12T15:41:46Z</time>
      </trkpt>
      <trkpt lat="45.882793" lon="-1.224123">
        <ele>5.6</ele>
        <time>2020-08-12T15:41:50Z</time>
      </trkpt>
      <trkpt lat="45.883935" lon="-1.225746">
        <ele>5.0</ele>
        <time>2020-08-12T15:42:07Z</time>
      </trkpt>
      <trkpt lat="45.884246" lon="-1.226259">
        <ele>4.6</ele>
        <time>2020-08-12T15:42:12Z</time>
      </trkpt>
      <trkpt lat="45.884643" lon="-1.226971">
        <ele>4.6</ele>
        <time>2020-08-12T15:42:19Z</time>
      </trkpt>
      <trkpt lat="45.885778" lon="-1.228602">
        <ele>7.4</ele>
        <time>2020-08-12T15:42:36Z</time>
      </trkpt>
      <trkpt lat="45.887041" lon="-1.230364">
        <ele>8.2</ele>
        <time>2020-08-12T15:42:56Z</time>
      </trkpt>
      <trkpt lat="45.887507" lon="-1.231048">
        <ele>8.2</ele>
        <time>2020-08-12T15:43:03Z</time>
      </trkpt>
      <trkpt lat="45.888005" lon="-1.231896">
        <ele>8.8</ele>
        <time>2020-08-12T15:43:11Z</time>
      </trkpt>
      <trkpt lat="45.888971" lon="-1.233872">
        <ele>7.6</ele>
        <time>2020-08-12T15:43:29Z</time>
      </trkpt>
      <trkpt lat="45.889215" lon="-1.234285">
        <ele>5.8</ele>
        <time>2020-08-12T15:43:34Z</time>
      </trkpt>
      <trkpt lat="45.889292" lon="-1.234303">
        <ele>5.8</ele>
        <time>2020-08-12T15:43:34Z</time>
      </trkpt>
      <trkpt lat="45.889339" lon="-1.234355">
        <ele>5.8</ele>
        <time>2020-08-12T15:43:35Z</time>
      </trkpt>
      <trkpt lat="45.889367" lon="-1.234432">
        <ele>5.8</ele>
        <time>2020-08-12T15:43:35Z</time>
      </trkpt>
      <trkpt lat="45.889362" lon="-1.234558">
        <ele>5.8</ele>
        <time>2020-08-12T15:43:36Z</time>
      </trkpt>
      <trkpt lat="45.889387" lon="-1.234762">
        <ele>5.8</ele>
        <time>2020-08-12T15:43:37Z</time>
      </trkpt>
      <trkpt lat="45.889487" lon="-1.234987">
        <ele>5.8</ele>
        <time>2020-08-12T15:43:38Z</time>
      </trkpt>
      <trkpt lat="45.889916" lon="-1.236096">
        <ele>5.8</ele>
        <time>2020-08-12T15:43:44Z</time>
      </trkpt>
      <trkpt lat="45.890474" lon="-1.237846">
        <ele>5.2</ele>
        <time>2020-08-12T15:43:53Z</time>
      </trkpt>
      <trkpt lat="45.890596" lon="-1.238157">
        <ele>5.2</ele>
        <time>2020-08-12T15:43:55Z</time>
      </trkpt>
      <trkpt lat="45.890723" lon="-1.238422">
        <ele>5.2</ele>
        <time>2020-08-12T15:43:56Z</time>
      </trkpt>
      <trkpt lat="45.890922" lon="-1.23875">
        <ele>3.6</ele>
        <time>2020-08-12T15:43:58Z</time>
      </trkpt>
      <trkpt lat="45.891145" lon="-1.239048">
        <ele>3.6</ele>
        <time>2020-08-12T15:44:00Z</time>
      </trkpt>
      <trkpt lat="45.891395" lon="-1.239297">
        <ele>5.4</ele>
        <time>2020-08-12T15:44:03Z</time>
      </trkpt>
      <trkpt lat="45.893179" lon="-1.24087">
        <ele>8.8</ele>
        <time>2020-08-12T15:44:17Z</time>
      </trkpt>
      <trkpt lat="45.894541" lon="-1.242126">
        <ele>11.0</ele>
        <time>2020-08-12T15:44:28Z</time>
      </trkpt>
      <trkpt lat="45.894869" lon="-1.24248">
        <ele>11.0</ele>
        <time>2020-08-12T15:44:31Z</time>
      </trkpt>
      <trkpt lat="45.895177" lon="-1.242882">
        <ele>11.4</ele>
        <time>2020-08-12T15:44:34Z</time>
      </trkpt>
      <trkpt lat="45.895449" lon="-1.24335">
        <ele>11.8</ele>
        <time>2020-08-12T15:44:37Z</time>
      </trkpt>
      <trkpt lat="45.895661" lon="-1.243897">
        <ele>11.8</ele>
        <time>2020-08-12T15:44:40Z</time>
      </trkpt>
      <trkpt lat="45.896453" lon="-1.246688">
        <ele>10.8</ele>
        <time>2020-08-12T15:44:54Z</time>
      </trkpt>
      <trkpt lat="45.896942" lon="-1.247633">
        <ele>10.0</ele>
        <time>2020-08-12T15:45:00Z</time>
      </trkpt>
      <trkpt lat="45.897473" lon="-1.248354">
        <ele>10.8</ele>
        <time>2020-08-12T15:45:05Z</time>
      </trkpt>
      <trkpt lat="45.897958" lon="-1.248922">
        <ele>10.4</ele>
        <time>2020-08-12T15:45:09Z</time>
      </trkpt>
      <trkpt lat="45.898501" lon="-1.249436">
        <ele>9.8</ele>
        <time>2020-08-12T15:45:13Z</time>
      </trkpt>
      <trkpt lat="45.898857" lon="-1.249699">
        <ele>9.8</ele>
        <time>2020-08-12T15:45:16Z</time>
      </trkpt>
      <trkpt lat="45.899285" lon="-1.250081">
        <ele>9.4</ele>
        <time>2020-08-12T15:45:20Z</time>
      </trkpt>
      <trkpt lat="45.899637" lon="-1.250487">
        <ele>9.4</ele>
        <time>2020-08-12T15:45:23Z</time>
      </trkpt>
      <trkpt lat="45.900158" lon="-1.251184">
        <ele>8.2</ele>
        <time>2020-08-12T15:45:28Z</time>
      </trkpt>
      <trkpt lat="45.90094" lon="-1.252154">
        <ele>6.4</ele>
        <time>2020-08-12T15:45:35Z</time>
      </trkpt>
      <trkpt lat="45.901173" lon="-1.252337">
        <ele>6.4</ele>
        <time>2020-08-12T15:45:37Z</time>
      </trkpt>
      <trkpt lat="45.901382" lon="-1.252466">
        <ele>6.4</ele>
        <time>2020-08-12T15:45:38Z</time>
      </trkpt>
      <trkpt lat="45.901656" lon="-1.252561">
        <ele>6.0</ele>
        <time>2020-08-12T15:45:40Z</time>
      </trkpt>
      <trkpt lat="45.901914" lon="-1.252604">
        <ele>5.2</ele>
        <time>2020-08-12T15:45:42Z</time>
      </trkpt>
      <trkpt lat="45.902136" lon="-1.252617">
        <ele>5.2</ele>
        <time>2020-08-12T15:45:43Z</time>
      </trkpt>
      <trkpt lat="45.902332" lon="-1.25258">
        <ele>5.2</ele>
        <time>2020-08-12T15:45:45Z</time>
      </trkpt>
      <trkpt lat="45.90248" lon="-1.252522">
        <ele>5.2</ele>
        <time>2020-08-12T15:45:46Z</time>
      </trkpt>
      <trkpt lat="45.902534" lon="-1.252439">
        <ele>4.8</ele>
        <time>2020-08-12T15:45:47Z</time>
      </trkpt>
      <trkpt lat="45.902593" lon="-1.252393">
        <ele>4.8</ele>
        <time>2020-08-12T15:45:48Z</time>
      </trkpt>
      <trkpt lat="45.902673" lon="-1.2524">
        <ele>4.8</ele>
        <time>2020-08-12T15:45:49Z</time>
      </trkpt>
      <trkpt lat="45.902734" lon="-1.252449">
        <ele>4.8</ele>
        <time>2020-08-12T15:45:50Z</time>
      </trkpt>
      <trkpt lat="45.902783" lon="-1.252566">
        <ele>4.6</ele>
        <time>2020-08-12T15:45:51Z</time>
      </trkpt>
      <trkpt lat="45.902873" lon="-1.252662">
        <ele>4.6</ele>
        <time>2020-08-12T15:45:52Z</time>
      </trkpt>
      <trkpt lat="45.903089" lon="-1.25277">
        <ele>4.6</ele>
        <time>2020-08-12T15:45:55Z</time>
      </trkpt>
      <trkpt lat="45.903376" lon="-1.252873">
        <ele>5.0</ele>
        <time>2020-08-12T15:45:59Z</time>
      </trkpt>
      <trkpt lat="45.903543" lon="-1.252985">
        <ele>5.0</ele>
        <time>2020-08-12T15:46:02Z</time>
      </trkpt>
      <trkpt lat="45.903692" lon="-1.253156">
        <ele>5.0</ele>
        <time>2020-08-12T15:46:04Z</time>
      </trkpt>
      <trkpt lat="45.903761" lon="-1.25332">
        <ele>5.0</ele>
        <time>2020-08-12T15:46:06Z</time>
      </trkpt>
      <trkpt lat="45.904099" lon="-1.254296">
        <ele>5.0</ele>
        <time>2020-08-12T15:46:16Z</time>
      </trkpt>
      <trkpt lat="45.904373" lon="-1.255203">
        <ele>5.4</ele>
        <time>2020-08-12T15:46:25Z</time>
      </trkpt>
      <trkpt lat="45.904569" lon="-1.255787">
        <ele>5.4</ele>
        <time>2020-08-12T15:46:31Z</time>
      </trkpt>
      <trkpt lat="45.904881" lon="-1.256625">
        <ele>5.2</ele>
        <time>2020-08-12T15:46:40Z</time>
      </trkpt>
      <trkpt lat="45.905123" lon="-1.25733">
        <ele>4.2</ele>
        <time>2020-08-12T15:46:47Z</time>
      </trkpt>
      <trkpt lat="45.905474" lon="-1.258442">
        <ele>4.6</ele>
        <time>2020-08-12T15:46:58Z</time>
      </trkpt>
      <trkpt lat="45.905607" lon="-1.25872">
        <ele>4.6</ele>
        <time>2020-08-12T15:47:02Z</time>
      </trkpt>
      <trkpt lat="45.905743" lon="-1.258827">
        <ele>4.6</ele>
        <time>2020-08-12T15:47:04Z</time>
      </trkpt>
      <trkpt lat="45.905826" lon="-1.258811">
        <ele>4.6</ele>
        <time>2020-08-12T15:47:05Z</time>
      </trkpt>
      <trkpt lat="45.905907" lon="-1.258839">
        <ele>4.2</ele>
        <time>2020-08-12T15:47:06Z</time>
      </trkpt>
      <trkpt lat="45.905977" lon="-1.258909">
        <ele>4.2</ele>
        <time>2020-08-12T15:47:07Z</time>
      </trkpt>
      <trkpt lat="45.906023" lon="-1.259012">
        <ele>4.2</ele>
        <time>2020-08-12T15:47:08Z</time>
      </trkpt>
      <trkpt lat="45.906039" lon="-1.259132">
        <ele>4.2</ele>
        <time>2020-08-12T15:47:09Z</time>
      </trkpt>
      <trkpt lat="45.906028" lon="-1.259234">
        <ele>4.2</ele>
        <time>2020-08-12T15:47:10Z</time>
      </trkpt>
      <trkpt lat="45.90592" lon="-1.259464">
        <ele>4.2</ele>
        <time>2020-08-12T15:47:13Z</time>
      </trkpt>
      <trkpt lat="45.90591" lon="-1.259599">
        <ele>4.2</ele>
        <time>2020-08-12T15:47:14Z</time>
      </trkpt>
      <trkpt lat="45.90592" lon="-1.259664">
        <ele>4.2</ele>
        <time>2020-08-12T15:47:15Z</time>
      </trkpt>
      <trkpt lat="45.905994" lon="-1.259822">
        <ele>4.2</ele>
        <time>2020-08-12T15:47:16Z</time>
      </trkpt>
      <trkpt lat="45.906087" lon="-1.259987">
        <ele>4.2</ele>
        <time>2020-08-12T15:47:18Z</time>
      </trkpt>
      <trkpt lat="45.906183" lon="-1.260116">
        <ele>4.0</ele>
        <time>2020-08-12T15:47:20Z</time>
      </trkpt>
      <trkpt lat="45.906732" lon="-1.260704">
        <ele>4.2</ele>
        <time>2020-08-12T15:47:29Z</time>
      </trkpt>
      <trkpt lat="45.907833" lon="-1.261973">
        <ele>4.0</ele>
        <time>2020-08-12T15:47:48Z</time>
      </trkpt>
      <trkpt lat="45.908256" lon="-1.262421">
        <ele>4.0</ele>
        <time>2020-08-12T15:47:54Z</time>
      </trkpt>
      <trkpt lat="45.909017" lon="-1.263314">
        <ele>4.8</ele>
        <time>2020-08-12T15:48:07Z</time>
      </trkpt>
      <trkpt lat="45.909104" lon="-1.26338">
        <ele>5.2</ele>
        <time>2020-08-12T15:48:09Z</time>
      </trkpt>
      <trkpt lat="45.909893" lon="-1.264329">
        <ele>5.4</ele>
        <time>2020-08-12T15:48:22Z</time>
      </trkpt>
      <trkpt lat="45.910255" lon="-1.264703">
        <ele>6.0</ele>
        <time>2020-08-12T15:48:28Z</time>
      </trkpt>
      <trkpt lat="45.910989" lon="-1.265595">
        <ele>5.4</ele>
        <time>2020-08-12T15:48:41Z</time>
      </trkpt>
      <trkpt lat="45.911166" lon="-1.265785">
        <ele>5.4</ele>
        <time>2020-08-12T15:48:44Z</time>
      </trkpt>
      <trkpt lat="45.911218" lon="-1.265813">
        <ele>5.4</ele>
        <time>2020-08-12T15:48:44Z</time>
      </trkpt>
      <trkpt lat="45.911275" lon="-1.265843">
        <ele>4.6</ele>
        <time>2020-08-12T15:48:45Z</time>
      </trkpt>
      <trkpt lat="45.911297" lon="-1.265879">
        <ele>4.6</ele>
        <time>2020-08-12T15:48:45Z</time>
      </trkpt>
      <trkpt lat="45.911309" lon="-1.265936">
        <ele>4.6</ele>
        <time>2020-08-12T15:48:46Z</time>
      </trkpt>
      <trkpt lat="45.911487" lon="-1.266304">
        <ele>4.6</ele>
        <time>2020-08-12T15:48:48Z</time>
      </trkpt>
      <trkpt lat="45.911947" lon="-1.267073">
        <ele>5.6</ele>
        <time>2020-08-12T15:48:54Z</time>
      </trkpt>
      <trkpt lat="45.914155" lon="-1.270977">
        <ele>4.8</ele>
        <time>2020-08-12T15:49:24Z</time>
      </trkpt>
      <trkpt lat="45.914857" lon="-1.271982">
        <ele>5.6</ele>
        <time>2020-08-12T15:49:32Z</time>
      </trkpt>
      <trkpt lat="45.915729" lon="-1.273114">
        <ele>6.8</ele>
        <time>2020-08-12T15:49:42Z</time>
      </trkpt>
      <trkpt lat="45.917424" lon="-1.275228">
        <ele>4.6</ele>
        <time>2020-08-12T15:50:01Z</time>
      </trkpt>
      <trkpt lat="45.917851" lon="-1.275679">
        <ele>4.2</ele>
        <time>2020-08-12T15:50:05Z</time>
      </trkpt>
      <trkpt lat="45.918796" lon="-1.276564">
        <ele>5.2</ele>
        <time>2020-08-12T15:50:14Z</time>
      </trkpt>
      <trkpt lat="45.923697" lon="-1.280797">
        <ele>6.8</ele>
        <time>2020-08-12T15:51:03Z</time>
      </trkpt>
      <trkpt lat="45.923978" lon="-1.28106">
        <ele>7.8</ele>
        <time>2020-08-12T15:51:05Z</time>
      </trkpt>
      <trkpt lat="45.924067" lon="-1.281093">
        <ele>7.8</ele>
        <time>2020-08-12T15:51:06Z</time>
      </trkpt>
      <trkpt lat="45.924469" lon="-1.281424">
        <ele>6.2</ele>
        <time>2020-08-12T15:51:10Z</time>
      </trkpt>
      <trkpt lat="45.925387" lon="-1.282235">
        <ele>3.6</ele>
        <time>2020-08-12T15:51:19Z</time>
      </trkpt>
      <trkpt lat="45.926857" lon="-1.283583">
        <ele>4.6</ele>
        <time>2020-08-12T15:51:34Z</time>
      </trkpt>
      <trkpt lat="45.927142" lon="-1.283941">
        <ele>4.6</ele>
        <time>2020-08-12T15:51:37Z</time>
      </trkpt>
      <trkpt lat="45.927393" lon="-1.284318">
        <ele>4.8</ele>
        <time>2020-08-12T15:51:40Z</time>
      </trkpt>
      <trkpt lat="45.927637" lon="-1.284788">
        <ele>6.0</ele>
        <time>2020-08-12T15:51:43Z</time>
      </trkpt>
      <trkpt lat="45.929145" lon="-1.287955">
        <ele>4.6</ele>
        <time>2020-08-12T15:52:06Z</time>
      </trkpt>
      <trkpt lat="45.93008" lon="-1.290202">
        <ele>6.4</ele>
        <time>2020-08-12T15:52:21Z</time>
      </trkpt>
      <trkpt lat="45.93055" lon="-1.291274">
        <ele>6.8</ele>
        <time>2020-08-12T15:52:29Z</time>
      </trkpt>
      <trkpt lat="45.931011" lon="-1.292031">
        <ele>8.0</ele>
        <time>2020-08-12T15:52:34Z</time>
      </trkpt>
      <trkpt lat="45.931346" lon="-1.292451">
        <ele>8.0</ele>
        <time>2020-08-12T15:52:38Z</time>
      </trkpt>
      <trkpt lat="45.93216" lon="-1.293304">
        <ele>7.8</ele>
        <time>2020-08-12T15:52:47Z</time>
      </trkpt>
      <trkpt lat="45.932751" lon="-1.294137">
        <ele>7.6</ele>
        <time>2020-08-12T15:52:54Z</time>
      </trkpt>
      <trkpt lat="45.932892" lon="-1.294429">
        <ele>7.6</ele>
        <time>2020-08-12T15:52:56Z</time>
      </trkpt>
      <trkpt lat="45.9329" lon="-1.294494">
        <ele>7.6</ele>
        <time>2020-08-12T15:52:56Z</time>
      </trkpt>
      <trkpt lat="45.933147" lon="-1.295094">
        <ele>7.4</ele>
        <time>2020-08-12T15:53:02Z</time>
      </trkpt>
      <trkpt lat="45.934016" lon="-1.297515">
        <ele>6.4</ele>
        <time>2020-08-12T15:53:27Z</time>
      </trkpt>
      <trkpt lat="45.934043" lon="-1.297532">
        <ele>6.4</ele>
        <time>2020-08-12T15:53:28Z</time>
      </trkpt>
      <trkpt lat="45.934174" lon="-1.297909">
        <ele>7.8</ele>
        <time>2020-08-12T15:53:32Z</time>
      </trkpt>
      <trkpt lat="45.93417" lon="-1.297972">
        <ele>7.8</ele>
        <time>2020-08-12T15:53:32Z</time>
      </trkpt>
      <trkpt lat="45.934465" lon="-1.298782">
        <ele>7.2</ele>
        <time>2020-08-12T15:53:41Z</time>
      </trkpt>
      <trkpt lat="45.934638" lon="-1.299316">
        <ele>7.0</ele>
        <time>2020-08-12T15:53:46Z</time>
      </trkpt>
      <trkpt lat="45.93467" lon="-1.299344">
        <ele>7.0</ele>
        <time>2020-08-12T15:53:46Z</time>
      </trkpt>
      <trkpt lat="45.934965" lon="-1.300396">
        <ele>7.0</ele>
        <time>2020-08-12T15:53:57Z</time>
      </trkpt>
      <trkpt lat="45.935019" lon="-1.300615">
        <ele>8.2</ele>
        <time>2020-08-12T15:53:59Z</time>
      </trkpt>
      <trkpt lat="45.935011" lon="-1.3007">
        <ele>8.2</ele>
        <time>2020-08-12T15:54:00Z</time>
      </trkpt>
      <trkpt lat="45.935635" lon="-1.303258">
        <ele>9.2</ele>
        <time>2020-08-12T15:54:25Z</time>
      </trkpt>
      <trkpt lat="45.935761" lon="-1.303574">
        <ele>8.8</ele>
        <time>2020-08-12T15:54:28Z</time>
      </trkpt>
      <trkpt lat="45.935808" lon="-1.303624">
        <ele>8.8</ele>
        <time>2020-08-12T15:54:29Z</time>
      </trkpt>
      <trkpt lat="45.935829" lon="-1.303697">
        <ele>8.8</ele>
        <time>2020-08-12T15:54:30Z</time>
      </trkpt>
      <trkpt lat="45.935821" lon="-1.303776">
        <ele>8.8</ele>
        <time>2020-08-12T15:54:31Z</time>
      </trkpt>
      <trkpt lat="45.935787" lon="-1.303837">
        <ele>8.8</ele>
        <time>2020-08-12T15:54:32Z</time>
      </trkpt>
      <trkpt lat="45.93582" lon="-1.30413">
        <ele>8.8</ele>
        <time>2020-08-12T15:54:35Z</time>
      </trkpt>
      <trkpt lat="45.935819" lon="-1.304267">
        <ele>9.6</ele>
        <time>2020-08-12T15:54:37Z</time>
      </trkpt>
      <trkpt lat="45.936012" lon="-1.305346">
        <ele>10.2</ele>
        <time>2020-08-12T15:54:47Z</time>
      </trkpt>
      <trkpt lat="45.936072" lon="-1.305616">
        <ele>10.2</ele>
        <time>2020-08-12T15:54:50Z</time>
      </trkpt>
      <trkpt lat="45.936218" lon="-1.306172">
        <ele>10.0</ele>
        <time>2020-08-12T15:54:55Z</time>
      </trkpt>
      <trkpt lat="45.936378" lon="-1.306678">
        <ele>9.4</ele>
        <time>2020-08-12T15:55:00Z</time>
      </trkpt>
      <trkpt lat="45.936588" lon="-1.307205">
        <ele>9.4</ele>
        <time>2020-08-12T15:55:06Z</time>
      </trkpt>
      <trkpt lat="45.937067" lon="-1.30806">
        <ele>9.4</ele>
        <time>2020-08-12T15:55:16Z</time>
      </trkpt>
      <trkpt lat="45.937688" lon="-1.309065">
        <ele>9.4</ele>
        <time>2020-08-12T15:55:28Z</time>
      </trkpt>
      <trkpt lat="45.938532" lon="-1.310509">
        <ele>8.4</ele>
        <time>2020-08-12T15:55:45Z</time>
      </trkpt>
      <trkpt lat="45.939367" lon="-1.311892">
        <ele>8.8</ele>
        <time>2020-08-12T15:56:02Z</time>
      </trkpt>
      <trkpt lat="45.939928" lon="-1.31272">
        <ele>8.6</ele>
        <time>2020-08-12T15:56:13Z</time>
      </trkpt>
      <trkpt lat="45.940269" lon="-1.313105">
        <ele>9.4</ele>
        <time>2020-08-12T15:56:19Z</time>
      </trkpt>
      <trkpt lat="45.94064" lon="-1.313488">
        <ele>8.2</ele>
        <time>2020-08-12T15:56:25Z</time>
      </trkpt>
      <trkpt lat="45.941057" lon="-1.313891">
        <ele>8.8</ele>
        <time>2020-08-12T15:56:31Z</time>
      </trkpt>
      <trkpt lat="45.941899" lon="-1.314654">
        <ele>7.8</ele>
        <time>2020-08-12T15:56:44Z</time>
      </trkpt>
      <trkpt lat="45.942139" lon="-1.314916">
        <ele>7.8</ele>
        <time>2020-08-12T15:56:48Z</time>
      </trkpt>
      <trkpt lat="45.94287" lon="-1.315781">
        <ele>7.0</ele>
        <time>2020-08-12T15:57:01Z</time>
      </trkpt>
      <trkpt lat="45.943097" lon="-1.316017">
        <ele>7.4</ele>
        <time>2020-08-12T15:57:04Z</time>
      </trkpt>
      <trkpt lat="45.943182" lon="-1.316148">
        <ele>7.4</ele>
        <time>2020-08-12T15:57:06Z</time>
      </trkpt>
      <trkpt lat="45.943829" lon="-1.317527">
        <ele>9.0</ele>
        <time>2020-08-12T15:57:21Z</time>
      </trkpt>
      <trkpt lat="45.944035" lon="-1.318034">
        <ele>9.0</ele>
        <time>2020-08-12T15:57:27Z</time>
      </trkpt>
      <trkpt lat="45.944276" lon="-1.318708">
        <ele>8.6</ele>
        <time>2020-08-12T15:57:33Z</time>
      </trkpt>
      <trkpt lat="45.944465" lon="-1.318996">
        <ele>8.6</ele>
        <time>2020-08-12T15:57:37Z</time>
      </trkpt>
      <trkpt lat="45.944623" lon="-1.319169">
        <ele>7.8</ele>
        <time>2020-08-12T15:57:40Z</time>
      </trkpt>
      <trkpt lat="45.944677" lon="-1.319194">
        <ele>7.8</ele>
        <time>2020-08-12T15:57:41Z</time>
      </trkpt>
      <trkpt lat="45.944708" lon="-1.319261">
        <ele>7.8</ele>
        <time>2020-08-12T15:57:42Z</time>
      </trkpt>
      <trkpt lat="45.944701" lon="-1.319352">
        <ele>7.8</ele>
        <time>2020-08-12T15:57:43Z</time>
      </trkpt>
      <trkpt lat="45.944677" lon="-1.319391">
        <ele>7.8</ele>
        <time>2020-08-12T15:57:43Z</time>
      </trkpt>
      <trkpt lat="45.944698" lon="-1.319446">
        <ele>7.8</ele>
        <time>2020-08-12T15:57:44Z</time>
      </trkpt>
      <trkpt lat="45.944703" lon="-1.31954">
        <ele>7.8</ele>
        <time>2020-08-12T15:57:45Z</time>
      </trkpt>
      <trkpt lat="45.944742" lon="-1.319725">
        <ele>7.8</ele>
        <time>2020-08-12T15:57:47Z</time>
      </trkpt>
      <trkpt lat="45.94482" lon="-1.320006">
        <ele>7.6</ele>
        <time>2020-08-12T15:57:51Z</time>
      </trkpt>
      <trkpt lat="45.945183" lon="-1.320872">
        <ele>8.6</ele>
        <time>2020-08-12T15:58:00Z</time>
      </trkpt>
      <trkpt lat="45.945364" lon="-1.321385">
        <ele>8.6</ele>
        <time>2020-08-12T15:58:05Z</time>
      </trkpt>
      <trkpt lat="45.945691" lon="-1.322106">
        <ele>9.4</ele>
        <time>2020-08-12T15:58:13Z</time>
      </trkpt>
      <trkpt lat="45.94634" lon="-1.32336">
        <ele>9.2</ele>
        <time>2020-08-12T15:58:27Z</time>
      </trkpt>
      <trkpt lat="45.946673" lon="-1.323877">
        <ele>9.2</ele>
        <time>2020-08-12T15:58:32Z</time>
      </trkpt>
      <trkpt lat="45.950179" lon="-1.329092">
        <ele>9.8</ele>
        <time>2020-08-12T15:59:16Z</time>
      </trkpt>
      <trkpt lat="45.951559" lon="-1.330804">
        <ele>8.6</ele>
        <time>2020-08-12T15:59:32Z</time>
      </trkpt>
      <trkpt lat="45.952702" lon="-1.332188">
        <ele>9.0</ele>
        <time>2020-08-12T15:59:45Z</time>
      </trkpt>
      <trkpt lat="45.952936" lon="-1.332524">
        <ele>9.2</ele>
        <time>2020-08-12T15:59:48Z</time>
      </trkpt>
      <trkpt lat="45.954043" lon="-1.334322">
        <ele>7.4</ele>
        <time>2020-08-12T16:00:03Z</time>
      </trkpt>
      <trkpt lat="45.954593" lon="-1.335088">
        <ele>7.6</ele>
        <time>2020-08-12T16:00:09Z</time>
      </trkpt>
      <trkpt lat="45.957546" lon="-1.338742">
        <ele>7.4</ele>
        <time>2020-08-12T16:00:43Z</time>
      </trkpt>
      <trkpt lat="45.958078" lon="-1.339335">
        <ele>7.0</ele>
        <time>2020-08-12T16:00:49Z</time>
      </trkpt>
      <trkpt lat="45.962039" lon="-1.342989">
        <ele>9.6</ele>
        <time>2020-08-12T16:01:31Z</time>
      </trkpt>
      <trkpt lat="45.966843" lon="-1.347376">
        <ele>9.4</ele>
        <time>2020-08-12T16:02:21Z</time>
      </trkpt>
      <trkpt lat="45.967052" lon="-1.347546">
        <ele>9.4</ele>
        <time>2020-08-12T16:02:23Z</time>
      </trkpt>
      <trkpt lat="45.967372" lon="-1.347751">
        <ele>9.4</ele>
        <time>2020-08-12T16:02:26Z</time>
      </trkpt>
      <trkpt lat="45.967574" lon="-1.347945">
        <ele>8.2</ele>
        <time>2020-08-12T16:02:28Z</time>
      </trkpt>
      <trkpt lat="45.968019" lon="-1.348228">
        <ele>8.2</ele>
        <time>2020-08-12T16:02:32Z</time>
      </trkpt>
      <trkpt lat="45.970349" lon="-1.349485">
        <ele>9.8</ele>
        <time>2020-08-12T16:02:54Z</time>
      </trkpt>
      <trkpt lat="45.971728" lon="-1.350259">
        <ele>9.2</ele>
        <time>2020-08-12T16:03:07Z</time>
      </trkpt>
      <trkpt lat="45.972308" lon="-1.350503">
        <ele>9.2</ele>
        <time>2020-08-12T16:03:12Z</time>
      </trkpt>
      <trkpt lat="45.972842" lon="-1.350796">
        <ele>9.2</ele>
        <time>2020-08-12T16:03:17Z</time>
      </trkpt>
      <trkpt lat="45.973454" lon="-1.351021">
        <ele>9.2</ele>
        <time>2020-08-12T16:03:23Z</time>
      </trkpt>
      <trkpt lat="45.973619" lon="-1.351105">
        <ele>9.2</ele>
        <time>2020-08-12T16:03:24Z</time>
      </trkpt>
      <trkpt lat="45.97384" lon="-1.351319">
        <ele>9.2</ele>
        <time>2020-08-12T16:03:27Z</time>
      </trkpt>
      <trkpt lat="45.974357" lon="-1.351639">
        <ele>8.6</ele>
        <time>2020-08-12T16:03:32Z</time>
      </trkpt>
      <trkpt lat="45.975737" lon="-1.35266">
        <ele>7.4</ele>
        <time>2020-08-12T16:03:45Z</time>
      </trkpt>
      <trkpt lat="45.975766" lon="-1.352619">
        <ele>7.4</ele>
        <time>2020-08-12T16:03:46Z</time>
      </trkpt>
      <trkpt lat="45.975824" lon="-1.352623">
        <ele>7.4</ele>
        <time>2020-08-12T16:03:46Z</time>
      </trkpt>
      <trkpt lat="45.975848" lon="-1.352663">
        <ele>7.2</ele>
        <time>2020-08-12T16:03:46Z</time>
      </trkpt>
      <trkpt lat="45.975844" lon="-1.352741">
        <ele>7.2</ele>
        <time>2020-08-12T16:03:47Z</time>
      </trkpt>
      <trkpt lat="45.975994" lon="-1.352864">
        <ele>7.2</ele>
        <time>2020-08-12T16:03:48Z</time>
      </trkpt>
      <trkpt lat="45.977607" lon="-1.354055">
        <ele>5.2</ele>
        <time>2020-08-12T16:04:02Z</time>
      </trkpt>
      <trkpt lat="45.978988" lon="-1.355114">
        <ele>4.2</ele>
        <time>2020-08-12T16:04:15Z</time>
      </trkpt>
      <trkpt lat="45.979394" lon="-1.355406">
        <ele>3.2</ele>
        <time>2020-08-12T16:04:18Z</time>
      </trkpt>
      <trkpt lat="45.979911" lon="-1.355731">
        <ele>3.2</ele>
        <time>2020-08-12T16:04:22Z</time>
      </trkpt>
      <trkpt lat="45.996161" lon="-1.363584">
        <ele>2.6</ele>
        <time>2020-08-12T16:06:36Z</time>
      </trkpt>
      <trkpt lat="45.996279" lon="-1.363596">
        <ele>2.6</ele>
        <time>2020-08-12T16:06:37Z</time>
      </trkpt>
      <trkpt lat="45.996524" lon="-1.363678">
        <ele>2.6</ele>
        <time>2020-08-12T16:06:38Z</time>
      </trkpt>
      <trkpt lat="45.996624" lon="-1.363656">
        <ele>2.6</ele>
        <time>2020-08-12T16:06:39Z</time>
      </trkpt>
      <trkpt lat="45.996793" lon="-1.363514">
        <ele>3.2</ele>
        <time>2020-08-12T16:06:39Z</time>
      </trkpt>
      <trkpt lat="45.99675" lon="-1.363656">
        <ele>3.2</ele>
        <time>2020-08-12T16:06:40Z</time>
      </trkpt>
      <trkpt lat="45.996797" lon="-1.363898">
        <ele>3.2</ele>
        <time>2020-08-12T16:06:41Z</time>
      </trkpt>
      <trkpt lat="46.013515" lon="-1.372022">
        <ele>2.6</ele>
        <time>2020-08-12T16:08:46Z</time>
      </trkpt>
      <trkpt lat="46.017858" lon="-1.374154">
        <ele>4.6</ele>
        <time>2020-08-12T16:09:19Z</time>
      </trkpt>
      <trkpt lat="46.020255" lon="-1.375304">
        <ele>4.6</ele>
        <time>2020-08-12T16:09:37Z</time>
      </trkpt>
      <trkpt lat="46.020273" lon="-1.375258">
        <ele>4.6</ele>
        <time>2020-08-12T16:09:37Z</time>
      </trkpt>
      <trkpt lat="46.020332" lon="-1.375195">
        <ele>4.6</ele>
        <time>2020-08-12T16:09:38Z</time>
      </trkpt>
      <trkpt lat="46.020368" lon="-1.375184">
        <ele>4.6</ele>
        <time>2020-08-12T16:09:38Z</time>
      </trkpt>
      <trkpt lat="46.020439" lon="-1.375209">
        <ele>4.6</ele>
        <time>2020-08-12T16:09:39Z</time>
      </trkpt>
      <trkpt lat="46.020488" lon="-1.375283">
        <ele>4.6</ele>
        <time>2020-08-12T16:09:40Z</time>
      </trkpt>
      <trkpt lat="46.020502" lon="-1.375381">
        <ele>4.6</ele>
        <time>2020-08-12T16:09:41Z</time>
      </trkpt>
      <trkpt lat="46.020495" lon="-1.37543">
        <ele>4.6</ele>
        <time>2020-08-12T16:09:41Z</time>
      </trkpt>
      <trkpt lat="46.025092" lon="-1.377662">
        <ele>6.2</ele>
        <time>2020-08-12T16:10:36Z</time>
      </trkpt>
      <trkpt lat="46.025012" lon="-1.377798">
        <ele>6.2</ele>
        <time>2020-08-12T16:10:40Z</time>
      </trkpt>
      <trkpt lat="46.024194" lon="-1.378075">
        <ele>5.6</ele>
        <time>2020-08-12T16:11:05Z</time>
      </trkpt>
      <trkpt lat="46.024126" lon="-1.378122">
        <ele>5.2</ele>
        <time>2020-08-12T16:11:08Z</time>
      </trkpt>
      <trkpt lat="46.024112" lon="-1.378152">
        <ele>5.2</ele>
        <time>2020-08-12T16:11:08Z</time>
      </trkpt>
      <trkpt lat="46.024112" lon="-1.378152">
        <ele>5.2</ele>
        <time>2020-08-12T16:11:08Z</time>
      </trkpt>
      <trkpt lat="46.024126" lon="-1.378122">
        <ele>5.2</ele>
        <time>2020-08-12T16:11:09Z</time>
      </trkpt>
      <trkpt lat="46.024194" lon="-1.378075">
        <ele>5.6</ele>
        <time>2020-08-12T16:11:11Z</time>
      </trkpt>
      <trkpt lat="46.025012" lon="-1.377798">
        <ele>6.2</ele>
        <time>2020-08-12T16:11:37Z</time>
      </trkpt>
      <trkpt lat="46.025092" lon="-1.377662">
        <ele>6.2</ele>
        <time>2020-08-12T16:11:41Z</time>
      </trkpt>
      <trkpt lat="46.020495" lon="-1.37543">
        <ele>4.6</ele>
        <time>2020-08-12T16:12:35Z</time>
      </trkpt>
      <trkpt lat="46.020481" lon="-1.37547">
        <ele>4.6</ele>
        <time>2020-08-12T16:12:35Z</time>
      </trkpt>
      <trkpt lat="46.020406" lon="-1.375546">
        <ele>4.6</ele>
        <time>2020-08-12T16:12:36Z</time>
      </trkpt>
      <trkpt lat="46.02034" lon="-1.375545">
        <ele>4.6</ele>
        <time>2020-08-12T16:12:36Z</time>
      </trkpt>
      <trkpt lat="46.02028" lon="-1.375492">
        <ele>4.6</ele>
        <time>2020-08-12T16:12:37Z</time>
      </trkpt>
      <trkpt lat="46.020261" lon="-1.37545">
        <ele>4.6</ele>
        <time>2020-08-12T16:12:37Z</time>
      </trkpt>
      <trkpt lat="46.020248" lon="-1.375353">
        <ele>4.6</ele>
        <time>2020-08-12T16:12:38Z</time>
      </trkpt>
      <trkpt lat="46.020255" lon="-1.375304">
        <ele>4.6</ele>
        <time>2020-08-12T16:12:38Z</time>
      </trkpt>
      <trkpt lat="46.015667" lon="-1.373088">
        <ele>2.8</ele>
        <time>2020-08-12T16:13:14Z</time>
      </trkpt>
      <trkpt lat="46.013515" lon="-1.372022">
        <ele>2.6</ele>
        <time>2020-08-12T16:13:31Z</time>
      </trkpt>
      <trkpt lat="46.002815" lon="-1.366833">
        <ele>1.2</ele>
        <time>2020-08-12T16:14:55Z</time>
      </trkpt>
      <trkpt lat="45.994633" lon="-1.362838">
        <ele>2.8</ele>
        <time>2020-08-12T16:16:00Z</time>
      </trkpt>
      <trkpt lat="45.980228" lon="-1.355896">
        <ele>3.2</ele>
        <time>2020-08-12T16:17:53Z</time>
      </trkpt>
      <trkpt lat="45.979911" lon="-1.355731">
        <ele>3.2</ele>
        <time>2020-08-12T16:17:55Z</time>
      </trkpt>
      <trkpt lat="45.979394" lon="-1.355406">
        <ele>3.2</ele>
        <time>2020-08-12T16:18:00Z</time>
      </trkpt>
      <trkpt lat="45.975844" lon="-1.352741">
        <ele>7.2</ele>
        <time>2020-08-12T16:18:30Z</time>
      </trkpt>
      <trkpt lat="45.975832" lon="-1.352763">
        <ele>7.4</ele>
        <time>2020-08-12T16:18:30Z</time>
      </trkpt>
      <trkpt lat="45.975777" lon="-1.352782">
        <ele>7.4</ele>
        <time>2020-08-12T16:18:30Z</time>
      </trkpt>
      <trkpt lat="45.975759" lon="-1.35277">
        <ele>7.4</ele>
        <time>2020-08-12T16:18:30Z</time>
      </trkpt>
      <trkpt lat="45.975746" lon="-1.352754">
        <ele>7.4</ele>
        <time>2020-08-12T16:18:31Z</time>
      </trkpt>
      <trkpt lat="45.975737" lon="-1.35266">
        <ele>7.4</ele>
        <time>2020-08-12T16:18:31Z</time>
      </trkpt>
      <trkpt lat="45.974357" lon="-1.351639">
        <ele>8.6</ele>
        <time>2020-08-12T16:18:45Z</time>
      </trkpt>
      <trkpt lat="45.97384" lon="-1.351319">
        <ele>9.2</ele>
        <time>2020-08-12T16:18:50Z</time>
      </trkpt>
      <trkpt lat="45.973619" lon="-1.351105">
        <ele>9.2</ele>
        <time>2020-08-12T16:18:53Z</time>
      </trkpt>
      <trkpt lat="45.973454" lon="-1.351021">
        <ele>9.2</ele>
        <time>2020-08-12T16:18:54Z</time>
      </trkpt>
      <trkpt lat="45.972842" lon="-1.350796">
        <ele>9.2</ele>
        <time>2020-08-12T16:19:00Z</time>
      </trkpt>
      <trkpt lat="45.972308" lon="-1.350503">
        <ele>9.2</ele>
        <time>2020-08-12T16:19:05Z</time>
      </trkpt>
      <trkpt lat="45.971728" lon="-1.350259">
        <ele>9.2</ele>
        <time>2020-08-12T16:19:10Z</time>
      </trkpt>
      <trkpt lat="45.970349" lon="-1.349485">
        <ele>9.8</ele>
        <time>2020-08-12T16:19:24Z</time>
      </trkpt>
      <trkpt lat="45.968019" lon="-1.348228">
        <ele>8.2</ele>
        <time>2020-08-12T16:19:46Z</time>
      </trkpt>
      <trkpt lat="45.967297" lon="-1.347789">
        <ele>9.4</ele>
        <time>2020-08-12T16:19:53Z</time>
      </trkpt>
      <trkpt lat="45.967052" lon="-1.347546">
        <ele>9.4</ele>
        <time>2020-08-12T16:19:56Z</time>
      </trkpt>
      <trkpt lat="45.966843" lon="-1.347376">
        <ele>9.4</ele>
        <time>2020-08-12T16:19:58Z</time>
      </trkpt>
      <trkpt lat="45.962039" lon="-1.342989">
        <ele>9.6</ele>
        <time>2020-08-12T16:20:49Z</time>
      </trkpt>
      <trkpt lat="45.958078" lon="-1.339335">
        <ele>7.0</ele>
        <time>2020-08-12T16:21:31Z</time>
      </trkpt>
      <trkpt lat="45.957546" lon="-1.338742">
        <ele>7.4</ele>
        <time>2020-08-12T16:21:37Z</time>
      </trkpt>
      <trkpt lat="45.954593" lon="-1.335088">
        <ele>7.6</ele>
        <time>2020-08-12T16:22:12Z</time>
      </trkpt>
      <trkpt lat="45.954043" lon="-1.334322">
        <ele>7.4</ele>
        <time>2020-08-12T16:22:19Z</time>
      </trkpt>
      <trkpt lat="45.952936" lon="-1.332524">
        <ele>9.2</ele>
        <time>2020-08-12T16:22:34Z</time>
      </trkpt>
      <trkpt lat="45.952702" lon="-1.332188">
        <ele>9.0</ele>
        <time>2020-08-12T16:22:37Z</time>
      </trkpt>
      <trkpt lat="45.951559" lon="-1.330804">
        <ele>8.6</ele>
        <time>2020-08-12T16:22:50Z</time>
      </trkpt>
      <trkpt lat="45.950179" lon="-1.329092">
        <ele>9.8</ele>
        <time>2020-08-12T16:23:07Z</time>
      </trkpt>
      <trkpt lat="45.946673" lon="-1.323877">
        <ele>9.2</ele>
        <time>2020-08-12T16:23:52Z</time>
      </trkpt>
      <trkpt lat="45.945977" lon="-1.3228">
        <ele>9.6</ele>
        <time>2020-08-12T16:24:01Z</time>
      </trkpt>
      <trkpt lat="45.94565" lon="-1.322142">
        <ele>9.4</ele>
        <time>2020-08-12T16:24:06Z</time>
      </trkpt>
      <trkpt lat="45.945487" lon="-1.321762">
        <ele>9.4</ele>
        <time>2020-08-12T16:24:09Z</time>
      </trkpt>
      <trkpt lat="45.945364" lon="-1.321385">
        <ele>8.6</ele>
        <time>2020-08-12T16:24:12Z</time>
      </trkpt>
      <trkpt lat="45.945183" lon="-1.320872">
        <ele>8.6</ele>
        <time>2020-08-12T16:24:17Z</time>
      </trkpt>
      <trkpt lat="45.944695" lon="-1.319738">
        <ele>7.8</ele>
        <time>2020-08-12T16:24:29Z</time>
      </trkpt>
      <trkpt lat="45.944594" lon="-1.31941">
        <ele>7.8</ele>
        <time>2020-08-12T16:24:32Z</time>
      </trkpt>
      <trkpt lat="45.944563" lon="-1.319388">
        <ele>7.8</ele>
        <time>2020-08-12T16:24:33Z</time>
      </trkpt>
      <trkpt lat="45.94454" lon="-1.319294">
        <ele>7.8</ele>
        <time>2020-08-12T16:24:34Z</time>
      </trkpt>
      <trkpt lat="45.944447" lon="-1.319115">
        <ele>8.6</ele>
        <time>2020-08-12T16:24:36Z</time>
      </trkpt>
      <trkpt lat="45.944276" lon="-1.318708">
        <ele>8.6</ele>
        <time>2020-08-12T16:24:40Z</time>
      </trkpt>
      <trkpt lat="45.944035" lon="-1.318034">
        <ele>9.0</ele>
        <time>2020-08-12T16:24:48Z</time>
      </trkpt>
      <trkpt lat="45.943829" lon="-1.317527">
        <ele>9.0</ele>
        <time>2020-08-12T16:24:53Z</time>
      </trkpt>
      <trkpt lat="45.943182" lon="-1.316148">
        <ele>7.4</ele>
        <time>2020-08-12T16:25:09Z</time>
      </trkpt>
      <trkpt lat="45.943097" lon="-1.316017">
        <ele>7.4</ele>
        <time>2020-08-12T16:25:11Z</time>
      </trkpt>
      <trkpt lat="45.94287" lon="-1.315781">
        <ele>7.0</ele>
        <time>2020-08-12T16:25:14Z</time>
      </trkpt>
      <trkpt lat="45.942139" lon="-1.314916">
        <ele>7.8</ele>
        <time>2020-08-12T16:25:27Z</time>
      </trkpt>
      <trkpt lat="45.941899" lon="-1.314654">
        <ele>7.8</ele>
        <time>2020-08-12T16:25:31Z</time>
      </trkpt>
      <trkpt lat="45.941057" lon="-1.313891">
        <ele>8.8</ele>
        <time>2020-08-12T16:25:45Z</time>
      </trkpt>
      <trkpt lat="45.94064" lon="-1.313488">
        <ele>8.2</ele>
        <time>2020-08-12T16:25:52Z</time>
      </trkpt>
      <trkpt lat="45.940269" lon="-1.313105">
        <ele>9.4</ele>
        <time>2020-08-12T16:25:58Z</time>
      </trkpt>
      <trkpt lat="45.939928" lon="-1.31272">
        <ele>8.6</ele>
        <time>2020-08-12T16:26:04Z</time>
      </trkpt>
      <trkpt lat="45.939367" lon="-1.311892">
        <ele>8.8</ele>
        <time>2020-08-12T16:26:15Z</time>
      </trkpt>
      <trkpt lat="45.936764" lon="-1.307537">
        <ele>9.4</ele>
        <time>2020-08-12T16:27:09Z</time>
      </trkpt>
      <trkpt lat="45.936588" lon="-1.307205">
        <ele>9.4</ele>
        <time>2020-08-12T16:27:13Z</time>
      </trkpt>
      <trkpt lat="45.936378" lon="-1.306678">
        <ele>9.4</ele>
        <time>2020-08-12T16:27:18Z</time>
      </trkpt>
      <trkpt lat="45.936218" lon="-1.306172">
        <ele>10.0</ele>
        <time>2020-08-12T16:27:24Z</time>
      </trkpt>
      <trkpt lat="45.936012" lon="-1.305346">
        <ele>10.2</ele>
        <time>2020-08-12T16:27:32Z</time>
      </trkpt>
      <trkpt lat="45.935819" lon="-1.304267">
        <ele>9.6</ele>
        <time>2020-08-12T16:27:42Z</time>
      </trkpt>
      <trkpt lat="45.935705" lon="-1.303863">
        <ele>8.8</ele>
        <time>2020-08-12T16:27:47Z</time>
      </trkpt>
      <trkpt lat="45.935649" lon="-1.30382">
        <ele>8.8</ele>
        <time>2020-08-12T16:27:48Z</time>
      </trkpt>
      <trkpt lat="45.935622" lon="-1.30374">
        <ele>8.8</ele>
        <time>2020-08-12T16:27:49Z</time>
      </trkpt>
      <trkpt lat="45.935629" lon="-1.303655">
        <ele>8.8</ele>
        <time>2020-08-12T16:27:50Z</time>
      </trkpt>
      <trkpt lat="45.935666" lon="-1.303591">
        <ele>8.8</ele>
        <time>2020-08-12T16:27:51Z</time>
      </trkpt>
      <trkpt lat="45.935635" lon="-1.303258">
        <ele>9.2</ele>
        <time>2020-08-12T16:27:55Z</time>
      </trkpt>
      <trkpt lat="45.93504" lon="-1.300808">
        <ele>8.2</ele>
        <time>2020-08-12T16:28:19Z</time>
      </trkpt>
      <trkpt lat="45.935011" lon="-1.3007">
        <ele>8.2</ele>
        <time>2020-08-12T16:28:20Z</time>
      </trkpt>
      <trkpt lat="45.934973" lon="-1.300669">
        <ele>7.0</ele>
        <time>2020-08-12T16:28:21Z</time>
      </trkpt>
      <trkpt lat="45.934814" lon="-1.30008">
        <ele>7.0</ele>
        <time>2020-08-12T16:28:26Z</time>
      </trkpt>
      <trkpt lat="45.934626" lon="-1.299371">
        <ele>7.0</ele>
        <time>2020-08-12T16:28:33Z</time>
      </trkpt>
      <trkpt lat="45.934638" lon="-1.299316">
        <ele>7.0</ele>
        <time>2020-08-12T16:28:34Z</time>
      </trkpt>
      <trkpt lat="45.934465" lon="-1.298782">
        <ele>7.2</ele>
        <time>2020-08-12T16:28:39Z</time>
      </trkpt>
      <trkpt lat="45.93417" lon="-1.297972">
        <ele>7.8</ele>
        <time>2020-08-12T16:28:48Z</time>
      </trkpt>
      <trkpt lat="45.934137" lon="-1.297941">
        <ele>6.4</ele>
        <time>2020-08-12T16:28:48Z</time>
      </trkpt>
      <trkpt lat="45.934049" lon="-1.297713">
        <ele>6.4</ele>
        <time>2020-08-12T16:28:51Z</time>
      </trkpt>
      <trkpt lat="45.934003" lon="-1.297568">
        <ele>6.4</ele>
        <time>2020-08-12T16:28:52Z</time>
      </trkpt>
      <trkpt lat="45.934016" lon="-1.297515">
        <ele>6.4</ele>
        <time>2020-08-12T16:28:53Z</time>
      </trkpt>
      <trkpt lat="45.933147" lon="-1.295094">
        <ele>7.4</ele>
        <time>2020-08-12T16:29:17Z</time>
      </trkpt>
      <trkpt lat="45.9329" lon="-1.294494">
        <ele>7.6</ele>
        <time>2020-08-12T16:29:24Z</time>
      </trkpt>
      <trkpt lat="45.932859" lon="-1.294477">
        <ele>7.6</ele>
        <time>2020-08-12T16:29:24Z</time>
      </trkpt>
      <trkpt lat="45.932553" lon="-1.293858">
        <ele>7.6</ele>
        <time>2020-08-12T16:29:29Z</time>
      </trkpt>
      <trkpt lat="45.93216" lon="-1.293304">
        <ele>7.8</ele>
        <time>2020-08-12T16:29:33Z</time>
      </trkpt>
      <trkpt lat="45.931346" lon="-1.292451">
        <ele>8.0</ele>
        <time>2020-08-12T16:29:42Z</time>
      </trkpt>
      <trkpt lat="45.931011" lon="-1.292031">
        <ele>8.0</ele>
        <time>2020-08-12T16:29:45Z</time>
      </trkpt>
      <trkpt lat="45.93055" lon="-1.291274">
        <ele>6.8</ele>
        <time>2020-08-12T16:29:51Z</time>
      </trkpt>
      <trkpt lat="45.93008" lon="-1.290202">
        <ele>6.4</ele>
        <time>2020-08-12T16:29:58Z</time>
      </trkpt>
      <trkpt lat="45.929145" lon="-1.287955">
        <ele>4.6</ele>
        <time>2020-08-12T16:30:14Z</time>
      </trkpt>
      <trkpt lat="45.927637" lon="-1.284788">
        <ele>6.0</ele>
        <time>2020-08-12T16:30:36Z</time>
      </trkpt>
      <trkpt lat="45.927393" lon="-1.284318">
        <ele>4.8</ele>
        <time>2020-08-12T16:30:39Z</time>
      </trkpt>
      <trkpt lat="45.927142" lon="-1.283941">
        <ele>4.6</ele>
        <time>2020-08-12T16:30:42Z</time>
      </trkpt>
      <trkpt lat="45.926857" lon="-1.283583">
        <ele>4.6</ele>
        <time>2020-08-12T16:30:45Z</time>
      </trkpt>
      <trkpt lat="45.926168" lon="-1.282941">
        <ele>3.4</ele>
        <time>2020-08-12T16:30:52Z</time>
      </trkpt>
      <trkpt lat="45.92567" lon="-1.282574">
        <ele>2.2</ele>
        <time>2020-08-12T16:30:57Z</time>
      </trkpt>
      <trkpt lat="45.924838" lon="-1.281866">
        <ele>4.6</ele>
        <time>2020-08-12T16:31:05Z</time>
      </trkpt>
      <trkpt lat="45.924041" lon="-1.281142">
        <ele>7.8</ele>
        <time>2020-08-12T16:31:13Z</time>
      </trkpt>
      <trkpt lat="45.923978" lon="-1.28106">
        <ele>7.8</ele>
        <time>2020-08-12T16:31:14Z</time>
      </trkpt>
      <trkpt lat="45.923697" lon="-1.280797">
        <ele>6.8</ele>
        <time>2020-08-12T16:31:16Z</time>
      </trkpt>
      <trkpt lat="45.918796" lon="-1.276564">
        <ele>5.2</ele>
        <time>2020-08-12T16:32:04Z</time>
      </trkpt>
      <trkpt lat="45.917851" lon="-1.275679">
        <ele>4.2</ele>
        <time>2020-08-12T16:32:13Z</time>
      </trkpt>
      <trkpt lat="45.917424" lon="-1.275228">
        <ele>4.6</ele>
        <time>2020-08-12T16:32:18Z</time>
      </trkpt>
      <trkpt lat="45.915729" lon="-1.273114">
        <ele>6.8</ele>
        <time>2020-08-12T16:32:37Z</time>
      </trkpt>
      <trkpt lat="45.914857" lon="-1.271982">
        <ele>5.6</ele>
        <time>2020-08-12T16:32:46Z</time>
      </trkpt>
      <trkpt lat="45.914155" lon="-1.270977">
        <ele>4.8</ele>
        <time>2020-08-12T16:32:55Z</time>
      </trkpt>
      <trkpt lat="45.911947" lon="-1.267073">
        <ele>5.6</ele>
        <time>2020-08-12T16:33:24Z</time>
      </trkpt>
      <trkpt lat="45.911487" lon="-1.266304">
        <ele>4.6</ele>
        <time>2020-08-12T16:33:30Z</time>
      </trkpt>
      <trkpt lat="45.911255" lon="-1.266068">
        <ele>4.6</ele>
        <time>2020-08-12T16:33:32Z</time>
      </trkpt>
      <trkpt lat="45.911214" lon="-1.26608">
        <ele>4.6</ele>
        <time>2020-08-12T16:33:33Z</time>
      </trkpt>
      <trkpt lat="45.911174" lon="-1.266065">
        <ele>4.6</ele>
        <time>2020-08-12T16:33:34Z</time>
      </trkpt>
      <trkpt lat="45.911142" lon="-1.266027">
        <ele>4.6</ele>
        <time>2020-08-12T16:33:34Z</time>
      </trkpt>
      <trkpt lat="45.911095" lon="-1.265786">
        <ele>5.4</ele>
        <time>2020-08-12T16:33:37Z</time>
      </trkpt>
      <trkpt lat="45.910989" lon="-1.265595">
        <ele>5.4</ele>
        <time>2020-08-12T16:33:40Z</time>
      </trkpt>
      <trkpt lat="45.910255" lon="-1.264703">
        <ele>6.0</ele>
        <time>2020-08-12T16:33:53Z</time>
      </trkpt>
      <trkpt lat="45.909893" lon="-1.264329">
        <ele>5.4</ele>
        <time>2020-08-12T16:33:59Z</time>
      </trkpt>
      <trkpt lat="45.909448" lon="-1.263804">
        <ele>5.0</ele>
        <time>2020-08-12T16:34:06Z</time>
      </trkpt>
      <trkpt lat="45.90938" lon="-1.263765">
        <ele>5.0</ele>
        <time>2020-08-12T16:34:07Z</time>
      </trkpt>
      <trkpt lat="45.90908" lon="-1.263414">
        <ele>5.2</ele>
        <time>2020-08-12T16:34:12Z</time>
      </trkpt>
      <trkpt lat="45.909" lon="-1.263288">
        <ele>4.8</ele>
        <time>2020-08-12T16:34:14Z</time>
      </trkpt>
      <trkpt lat="45.9087" lon="-1.262928">
        <ele>4.8</ele>
        <time>2020-08-12T16:34:19Z</time>
      </trkpt>
      <trkpt lat="45.908282" lon="-1.262451">
        <ele>4.0</ele>
        <time>2020-08-12T16:34:26Z</time>
      </trkpt>
      <trkpt lat="45.907438" lon="-1.26153">
        <ele>3.6</ele>
        <time>2020-08-12T16:34:40Z</time>
      </trkpt>
      <trkpt lat="45.906732" lon="-1.260704">
        <ele>4.2</ele>
        <time>2020-08-12T16:34:52Z</time>
      </trkpt>
      <trkpt lat="45.906183" lon="-1.260116">
        <ele>4.0</ele>
        <time>2020-08-12T16:35:01Z</time>
      </trkpt>
      <trkpt lat="45.906087" lon="-1.259987">
        <ele>4.2</ele>
        <time>2020-08-12T16:35:03Z</time>
      </trkpt>
      <trkpt lat="45.90592" lon="-1.259664">
        <ele>4.2</ele>
        <time>2020-08-12T16:35:06Z</time>
      </trkpt>
      <trkpt lat="45.905768" lon="-1.259449">
        <ele>4.8</ele>
        <time>2020-08-12T16:35:09Z</time>
      </trkpt>
      <trkpt lat="45.90571" lon="-1.259418">
        <ele>4.8</ele>
        <time>2020-08-12T16:35:10Z</time>
      </trkpt>
      <trkpt lat="45.905623" lon="-1.259301">
        <ele>4.8</ele>
        <time>2020-08-12T16:35:12Z</time>
      </trkpt>
      <trkpt lat="45.90559" lon="-1.259139">
        <ele>4.6</ele>
        <time>2020-08-12T16:35:13Z</time>
      </trkpt>
      <trkpt lat="45.905588" lon="-1.258929">
        <ele>4.6</ele>
        <time>2020-08-12T16:35:15Z</time>
      </trkpt>
      <trkpt lat="45.905553" lon="-1.258791">
        <ele>4.6</ele>
        <time>2020-08-12T16:35:17Z</time>
      </trkpt>
      <trkpt lat="45.905345" lon="-1.258249">
        <ele>4.4</ele>
        <time>2020-08-12T16:35:22Z</time>
      </trkpt>
      <trkpt lat="45.905126" lon="-1.257802">
        <ele>4.4</ele>
        <time>2020-08-12T16:35:27Z</time>
      </trkpt>
      <trkpt lat="45.904297" lon="-1.256586">
        <ele>5.2</ele>
        <time>2020-08-12T16:35:43Z</time>
      </trkpt>
      <trkpt lat="45.903591" lon="-1.255585">
        <ele>4.8</ele>
        <time>2020-08-12T16:35:56Z</time>
      </trkpt>
      <trkpt lat="45.902971" lon="-1.254746">
        <ele>5.0</ele>
        <time>2020-08-12T16:36:07Z</time>
      </trkpt>
      <trkpt lat="45.902817" lon="-1.254485">
        <ele>5.0</ele>
        <time>2020-08-12T16:36:10Z</time>
      </trkpt>
      <trkpt lat="45.90275" lon="-1.254323">
        <ele>5.0</ele>
        <time>2020-08-12T16:36:12Z</time>
      </trkpt>
      <trkpt lat="45.902673" lon="-1.254007">
        <ele>5.0</ele>
        <time>2020-08-12T16:36:15Z</time>
      </trkpt>
      <trkpt lat="45.902642" lon="-1.253802">
        <ele>5.0</ele>
        <time>2020-08-12T16:36:17Z</time>
      </trkpt>
      <trkpt lat="45.902612" lon="-1.253148">
        <ele>4.6</ele>
        <time>2020-08-12T16:36:23Z</time>
      </trkpt>
      <trkpt lat="45.902588" lon="-1.253004">
        <ele>4.6</ele>
        <time>2020-08-12T16:36:24Z</time>
      </trkpt>
      <trkpt lat="45.902559" lon="-1.252925">
        <ele>4.6</ele>
        <time>2020-08-12T16:36:25Z</time>
      </trkpt>
      <trkpt lat="45.90255" lon="-1.252826">
        <ele>4.6</ele>
        <time>2020-08-12T16:36:26Z</time>
      </trkpt>
      <trkpt lat="45.902488" lon="-1.25274">
        <ele>5.2</ele>
        <time>2020-08-12T16:36:27Z</time>
      </trkpt>
      <trkpt lat="45.902336" lon="-1.252669">
        <ele>5.2</ele>
        <time>2020-08-12T16:36:28Z</time>
      </trkpt>
      <trkpt lat="45.902136" lon="-1.252617">
        <ele>5.2</ele>
        <time>2020-08-12T16:36:29Z</time>
      </trkpt>
      <trkpt lat="45.901914" lon="-1.252604">
        <ele>5.2</ele>
        <time>2020-08-12T16:36:31Z</time>
      </trkpt>
      <trkpt lat="45.901656" lon="-1.252561">
        <ele>6.0</ele>
        <time>2020-08-12T16:36:32Z</time>
      </trkpt>
      <trkpt lat="45.901382" lon="-1.252466">
        <ele>6.4</ele>
        <time>2020-08-12T16:36:34Z</time>
      </trkpt>
      <trkpt lat="45.901173" lon="-1.252337">
        <ele>6.4</ele>
        <time>2020-08-12T16:36:36Z</time>
      </trkpt>
      <trkpt lat="45.90094" lon="-1.252154">
        <ele>6.4</ele>
        <time>2020-08-12T16:36:38Z</time>
      </trkpt>
      <trkpt lat="45.900158" lon="-1.251184">
        <ele>8.2</ele>
        <time>2020-08-12T16:36:45Z</time>
      </trkpt>
      <trkpt lat="45.899637" lon="-1.250487">
        <ele>9.4</ele>
        <time>2020-08-12T16:36:50Z</time>
      </trkpt>
      <trkpt lat="45.899285" lon="-1.250081">
        <ele>9.4</ele>
        <time>2020-08-12T16:36:53Z</time>
      </trkpt>
      <trkpt lat="45.898857" lon="-1.249699">
        <ele>9.8</ele>
        <time>2020-08-12T16:36:56Z</time>
      </trkpt>
      <trkpt lat="45.898501" lon="-1.249436">
        <ele>9.8</ele>
        <time>2020-08-12T16:36:59Z</time>
      </trkpt>
      <trkpt lat="45.898084" lon="-1.249163">
        <ele>10.4</ele>
        <time>2020-08-12T16:37:02Z</time>
      </trkpt>
      <trkpt lat="45.897766" lon="-1.248885">
        <ele>10.4</ele>
        <time>2020-08-12T16:37:05Z</time>
      </trkpt>
      <trkpt lat="45.897406" lon="-1.248491">
        <ele>10.8</ele>
        <time>2020-08-12T16:37:08Z</time>
      </trkpt>
      <trkpt lat="45.896925" lon="-1.247793">
        <ele>10.0</ele>
        <time>2020-08-12T16:37:12Z</time>
      </trkpt>
      <trkpt lat="45.896652" lon="-1.247307">
        <ele>10.8</ele>
        <time>2020-08-12T16:37:15Z</time>
      </trkpt>
      <trkpt lat="45.896453" lon="-1.246688">
        <ele>10.8</ele>
        <time>2020-08-12T16:37:19Z</time>
      </trkpt>
      <trkpt lat="45.895661" lon="-1.243897">
        <ele>11.8</ele>
        <time>2020-08-12T16:37:33Z</time>
      </trkpt>
      <trkpt lat="45.895449" lon="-1.24335">
        <ele>11.8</ele>
        <time>2020-08-12T16:37:36Z</time>
      </trkpt>
      <trkpt lat="45.895177" lon="-1.242882">
        <ele>11.4</ele>
        <time>2020-08-12T16:37:39Z</time>
      </trkpt>
      <trkpt lat="45.894869" lon="-1.24248">
        <ele>11.0</ele>
        <time>2020-08-12T16:37:42Z</time>
      </trkpt>
      <trkpt lat="45.894541" lon="-1.242126">
        <ele>11.0</ele>
        <time>2020-08-12T16:37:44Z</time>
      </trkpt>
      <trkpt lat="45.893179" lon="-1.24087">
        <ele>8.8</ele>
        <time>2020-08-12T16:37:56Z</time>
      </trkpt>
      <trkpt lat="45.891395" lon="-1.239297">
        <ele>5.4</ele>
        <time>2020-08-12T16:38:10Z</time>
      </trkpt>
      <trkpt lat="45.891145" lon="-1.239048">
        <ele>3.6</ele>
        <time>2020-08-12T16:38:12Z</time>
      </trkpt>
      <trkpt lat="45.890922" lon="-1.23875">
        <ele>3.6</ele>
        <time>2020-08-12T16:38:14Z</time>
      </trkpt>
      <trkpt lat="45.890723" lon="-1.238422">
        <ele>5.2</ele>
        <time>2020-08-12T16:38:16Z</time>
      </trkpt>
      <trkpt lat="45.890596" lon="-1.238157">
        <ele>5.2</ele>
        <time>2020-08-12T16:38:18Z</time>
      </trkpt>
      <trkpt lat="45.890474" lon="-1.237846">
        <ele>5.2</ele>
        <time>2020-08-12T16:38:19Z</time>
      </trkpt>
      <trkpt lat="45.889916" lon="-1.236096">
        <ele>5.8</ele>
        <time>2020-08-12T16:38:28Z</time>
      </trkpt>
      <trkpt lat="45.889487" lon="-1.234987">
        <ele>5.8</ele>
        <time>2020-08-12T16:38:35Z</time>
      </trkpt>
      <trkpt lat="45.889353" lon="-1.234782">
        <ele>5.8</ele>
        <time>2020-08-12T16:38:36Z</time>
      </trkpt>
      <trkpt lat="45.889259" lon="-1.234681">
        <ele>5.8</ele>
        <time>2020-08-12T16:38:37Z</time>
      </trkpt>
      <trkpt lat="45.889192" lon="-1.234677">
        <ele>5.8</ele>
        <time>2020-08-12T16:38:37Z</time>
      </trkpt>
      <trkpt lat="45.889133" lon="-1.234626">
        <ele>7.0</ele>
        <time>2020-08-12T16:38:38Z</time>
      </trkpt>
      <trkpt lat="45.889098" lon="-1.23454">
        <ele>7.0</ele>
        <time>2020-08-12T16:38:39Z</time>
      </trkpt>
      <trkpt lat="45.889079" lon="-1.234238">
        <ele>7.0</ele>
        <time>2020-08-12T16:38:41Z</time>
      </trkpt>
      <trkpt lat="45.888971" lon="-1.233872">
        <ele>7.6</ele>
        <time>2020-08-12T16:38:45Z</time>
      </trkpt>
      <trkpt lat="45.888005" lon="-1.231896">
        <ele>8.8</ele>
        <time>2020-08-12T16:39:03Z</time>
      </trkpt>
      <trkpt lat="45.887507" lon="-1.231048">
        <ele>8.2</ele>
        <time>2020-08-12T16:39:11Z</time>
      </trkpt>
      <trkpt lat="45.887041" lon="-1.230364">
        <ele>8.2</ele>
        <time>2020-08-12T16:39:18Z</time>
      </trkpt>
      <trkpt lat="45.885778" lon="-1.228602">
        <ele>7.4</ele>
        <time>2020-08-12T16:39:37Z</time>
      </trkpt>
      <trkpt lat="45.884643" lon="-1.226971">
        <ele>4.6</ele>
        <time>2020-08-12T16:39:55Z</time>
      </trkpt>
      <trkpt lat="45.884246" lon="-1.226259">
        <ele>4.6</ele>
        <time>2020-08-12T16:40:01Z</time>
      </trkpt>
      <trkpt lat="45.883935" lon="-1.225746">
        <ele>5.0</ele>
        <time>2020-08-12T16:40:07Z</time>
      </trkpt>
      <trkpt lat="45.882793" lon="-1.224123">
        <ele>5.6</ele>
        <time>2020-08-12T16:40:24Z</time>
      </trkpt>
      <trkpt lat="45.882555" lon="-1.22382">
        <ele>5.6</ele>
        <time>2020-08-12T16:40:27Z</time>
      </trkpt>
      <trkpt lat="45.881358" lon="-1.222563">
        <ele>5.2</ele>
        <time>2020-08-12T16:40:43Z</time>
      </trkpt>
      <trkpt lat="45.879436" lon="-1.22068">
        <ele>4.0</ele>
        <time>2020-08-12T16:41:08Z</time>
      </trkpt>
      <trkpt lat="45.879041" lon="-1.220273">
        <ele>4.4</ele>
        <time>2020-08-12T16:41:14Z</time>
      </trkpt>
      <trkpt lat="45.878601" lon="-1.219726">
        <ele>4.2</ele>
        <time>2020-08-12T16:41:20Z</time>
      </trkpt>
      <trkpt lat="45.878317" lon="-1.21941">
        <ele>4.8</ele>
        <time>2020-08-12T16:41:24Z</time>
      </trkpt>
      <trkpt lat="45.878195" lon="-1.219344">
        <ele>4.8</ele>
        <time>2020-08-12T16:41:25Z</time>
      </trkpt>
      <trkpt lat="45.877952" lon="-1.219312">
        <ele>4.8</ele>
        <time>2020-08-12T16:41:28Z</time>
      </trkpt>
      <trkpt lat="45.87781" lon="-1.219334">
        <ele>4.8</ele>
        <time>2020-08-12T16:41:29Z</time>
      </trkpt>
      <trkpt lat="45.877581" lon="-1.219478">
        <ele>4.8</ele>
        <time>2020-08-12T16:41:32Z</time>
      </trkpt>
      <trkpt lat="45.87415" lon="-1.222517">
        <ele>2.2</ele>
        <time>2020-08-12T16:42:13Z</time>
      </trkpt>
      <trkpt lat="45.873921" lon="-1.222673">
        <ele>2.2</ele>
        <time>2020-08-12T16:42:16Z</time>
      </trkpt>
      <trkpt lat="45.87332" lon="-1.222938">
        <ele>1.6</ele>
        <time>2020-08-12T16:42:22Z</time>
      </trkpt>
      <trkpt lat="45.873251" lon="-1.223016">
        <ele>1.6</ele>
        <time>2020-08-12T16:42:23Z</time>
      </trkpt>
      <trkpt lat="45.873171" lon="-1.223182">
        <ele>1.6</ele>
        <time>2020-08-12T16:42:25Z</time>
      </trkpt>
      <trkpt lat="45.87317" lon="-1.223286">
        <ele>1.6</ele>
        <time>2020-08-12T16:42:25Z</time>
      </trkpt>
      <trkpt lat="45.873147" lon="-1.223385">
        <ele>1.4</ele>
        <time>2020-08-12T16:42:26Z</time>
      </trkpt>
      <trkpt lat="45.873104" lon="-1.223469">
        <ele>1.4</ele>
        <time>2020-08-12T16:42:27Z</time>
      </trkpt>
      <trkpt lat="45.873045" lon="-1.223529">
        <ele>1.4</ele>
        <time>2020-08-12T16:42:27Z</time>
      </trkpt>
      <trkpt lat="45.872975" lon="-1.22356">
        <ele>1.4</ele>
        <time>2020-08-12T16:42:28Z</time>
      </trkpt>
      <trkpt lat="45.872903" lon="-1.223559">
        <ele>1.4</ele>
        <time>2020-08-12T16:42:28Z</time>
      </trkpt>
      <trkpt lat="45.872834" lon="-1.223526">
        <ele>1.4</ele>
        <time>2020-08-12T16:42:29Z</time>
      </trkpt>
      <trkpt lat="45.872777" lon="-1.223465">
        <ele>1.4</ele>
        <time>2020-08-12T16:42:30Z</time>
      </trkpt>
      <trkpt lat="45.872736" lon="-1.223383">
        <ele>1.4</ele>
        <time>2020-08-12T16:42:30Z</time>
      </trkpt>
      <trkpt lat="45.872713" lon="-1.223287">
        <ele>1.6</ele>
        <time>2020-08-12T16:42:31Z</time>
      </trkpt>
      <trkpt lat="45.872712" lon="-1.223185">
        <ele>1.6</ele>
        <time>2020-08-12T16:42:31Z</time>
      </trkpt>
      <trkpt lat="45.872732" lon="-1.223088">
        <ele>1.6</ele>
        <time>2020-08-12T16:42:32Z</time>
      </trkpt>
      <trkpt lat="45.87271" lon="-1.222886">
        <ele>1.6</ele>
        <time>2020-08-12T16:42:33Z</time>
      </trkpt>
      <trkpt lat="45.872426" lon="-1.22194">
        <ele>1.4</ele>
        <time>2020-08-12T16:42:39Z</time>
      </trkpt>
      <trkpt lat="45.871451" lon="-1.218269">
        <ele>3.6</ele>
        <time>2020-08-12T16:43:02Z</time>
      </trkpt>
      <trkpt lat="45.871356" lon="-1.218027">
        <ele>3.6</ele>
        <time>2020-08-12T16:43:04Z</time>
      </trkpt>
      <trkpt lat="45.871253" lon="-1.217862">
        <ele>3.6</ele>
        <time>2020-08-12T16:43:05Z</time>
      </trkpt>
      <trkpt lat="45.871176" lon="-1.217796">
        <ele>3.6</ele>
        <time>2020-08-12T16:43:06Z</time>
      </trkpt>
      <trkpt lat="45.871137" lon="-1.217689">
        <ele>3.6</ele>
        <time>2020-08-12T16:43:07Z</time>
      </trkpt>
      <trkpt lat="45.871141" lon="-1.217562">
        <ele>3.6</ele>
        <time>2020-08-12T16:43:08Z</time>
      </trkpt>
      <trkpt lat="45.871177" lon="-1.217416">
        <ele>3.4</ele>
        <time>2020-08-12T16:43:08Z</time>
      </trkpt>
      <trkpt lat="45.8711" lon="-1.216975">
        <ele>3.4</ele>
        <time>2020-08-12T16:43:11Z</time>
      </trkpt>
      <trkpt lat="45.869258" lon="-1.210067">
        <ele>2.4</ele>
        <time>2020-08-12T16:43:56Z</time>
      </trkpt>
      <trkpt lat="45.868917" lon="-1.209054">
        <ele>2.0</ele>
        <time>2020-08-12T16:44:03Z</time>
      </trkpt>
      <trkpt lat="45.868866" lon="-1.208745">
        <ele>2.0</ele>
        <time>2020-08-12T16:44:05Z</time>
      </trkpt>
      <trkpt lat="45.868678" lon="-1.207923">
        <ele>2.4</ele>
        <time>2020-08-12T16:44:10Z</time>
      </trkpt>
      <trkpt lat="45.868468" lon="-1.207107">
        <ele>2.4</ele>
        <time>2020-08-12T16:44:15Z</time>
      </trkpt>
      <trkpt lat="45.868191" lon="-1.206251">
        <ele>1.6</ele>
        <time>2020-08-12T16:44:21Z</time>
      </trkpt>
      <trkpt lat="45.867545" lon="-1.204537">
        <ele>2.4</ele>
        <time>2020-08-12T16:44:33Z</time>
      </trkpt>
      <trkpt lat="45.867319" lon="-1.204013">
        <ele>1.6</ele>
        <time>2020-08-12T16:44:37Z</time>
      </trkpt>
      <trkpt lat="45.866716" lon="-1.202745">
        <ele>2.6</ele>
        <time>2020-08-12T16:44:46Z</time>
      </trkpt>
      <trkpt lat="45.866453" lon="-1.202244">
        <ele>2.6</ele>
        <time>2020-08-12T16:44:50Z</time>
      </trkpt>
      <trkpt lat="45.866037" lon="-1.201632">
        <ele>2.6</ele>
        <time>2020-08-12T16:44:55Z</time>
      </trkpt>
      <trkpt lat="45.865419" lon="-1.200833">
        <ele>3.0</ele>
        <time>2020-08-12T16:45:02Z</time>
      </trkpt>
      <trkpt lat="45.865041" lon="-1.200277">
        <ele>3.0</ele>
        <time>2020-08-12T16:45:07Z</time>
      </trkpt>
      <trkpt lat="45.863899" lon="-1.19836">
        <ele>2.8</ele>
        <time>2020-08-12T16:45:22Z</time>
      </trkpt>
      <trkpt lat="45.863503" lon="-1.197609">
        <ele>3.2</ele>
        <time>2020-08-12T16:45:28Z</time>
      </trkpt>
      <trkpt lat="45.863136" lon="-1.196834">
        <ele>3.0</ele>
        <time>2020-08-12T16:45:34Z</time>
      </trkpt>
      <trkpt lat="45.863101" lon="-1.196718">
        <ele>3.0</ele>
        <time>2020-08-12T16:45:35Z</time>
      </trkpt>
      <trkpt lat="45.862108" lon="-1.195041">
        <ele>1.25</ele>
        <time>2020-08-12T16:45:48Z</time>
      </trkpt>
      <trkpt lat="45.846967" lon="-1.169951">
        <ele>0.0</ele>
        <time>2020-08-12T16:49:09Z</time>
      </trkpt>
      <trkpt lat="45.846659" lon="-1.169405">
        <ele>0.0</ele>
        <time>2020-08-12T16:49:14Z</time>
      </trkpt>
      <trkpt lat="45.846426" lon="-1.168906">
        <ele>0.0</ele>
        <time>2020-08-12T16:49:17Z</time>
      </trkpt>
      <trkpt lat="45.846216" lon="-1.16835">
        <ele>0.0</ele>
        <time>2020-08-12T16:49:21Z</time>
      </trkpt>
      <trkpt lat="45.846055" lon="-1.167796">
        <ele>0.67</ele>
        <time>2020-08-12T16:49:25Z</time>
      </trkpt>
      <trkpt lat="45.845937" lon="-1.16724">
        <ele>0.6</ele>
        <time>2020-08-12T16:49:28Z</time>
      </trkpt>
      <trkpt lat="45.845844" lon="-1.166658">
        <ele>1.6</ele>
        <time>2020-08-12T16:49:32Z</time>
      </trkpt>
      <trkpt lat="45.845809" lon="-1.166297">
        <ele>1.8</ele>
        <time>2020-08-12T16:49:34Z</time>
      </trkpt>
      <trkpt lat="45.845783" lon="-1.165851">
        <ele>1.8</ele>
        <time>2020-08-12T16:49:37Z</time>
      </trkpt>
      <trkpt lat="45.845759" lon="-1.16473">
        <ele>2.8</ele>
        <time>2020-08-12T16:49:44Z</time>
      </trkpt>
      <trkpt lat="45.845807" lon="-1.1628">
        <ele>3.8</ele>
        <time>2020-08-12T16:49:56Z</time>
      </trkpt>
      <trkpt lat="45.845917" lon="-1.15988">
        <ele>3.6</ele>
        <time>2020-08-12T16:50:13Z</time>
      </trkpt>
      <trkpt lat="45.845912" lon="-1.159394">
        <ele>3.6</ele>
        <time>2020-08-12T16:50:16Z</time>
      </trkpt>
      <trkpt lat="45.845854" lon="-1.158373">
        <ele>2.2</ele>
        <time>2020-08-12T16:50:22Z</time>
      </trkpt>
      <trkpt lat="45.845762" lon="-1.157321">
        <ele>1.0</ele>
        <time>2020-08-12T16:50:29Z</time>
      </trkpt>
      <trkpt lat="45.845695" lon="-1.156838">
        <ele>1.0</ele>
        <time>2020-08-12T16:50:32Z</time>
      </trkpt>
      <trkpt lat="45.845489" lon="-1.156015">
        <ele>2.2</ele>
        <time>2020-08-12T16:50:37Z</time>
      </trkpt>
      <trkpt lat="45.845327" lon="-1.155483">
        <ele>2.0</ele>
        <time>2020-08-12T16:50:41Z</time>
      </trkpt>
      <trkpt lat="45.845058" lon="-1.154771">
        <ele>2.0</ele>
        <time>2020-08-12T16:50:46Z</time>
      </trkpt>
      <trkpt lat="45.844758" lon="-1.154086">
        <ele>3.0</ele>
        <time>2020-08-12T16:50:51Z</time>
      </trkpt>
      <trkpt lat="45.84414" lon="-1.152949">
        <ele>3.0</ele>
        <time>2020-08-12T16:50:59Z</time>
      </trkpt>
      <trkpt lat="45.843695" lon="-1.152221">
        <ele>3.0</ele>
        <time>2020-08-12T16:51:05Z</time>
      </trkpt>
      <trkpt lat="45.843353" lon="-1.151725">
        <ele>3.0</ele>
        <time>2020-08-12T16:51:09Z</time>
      </trkpt>
      <trkpt lat="45.842992" lon="-1.151246">
        <ele>4.0</ele>
        <time>2020-08-12T16:51:14Z</time>
      </trkpt>
      <trkpt lat="45.842834" lon="-1.150998">
        <ele>4.0</ele>
        <time>2020-08-12T16:51:16Z</time>
      </trkpt>
      <trkpt lat="45.842553" lon="-1.150681">
        <ele>4.6</ele>
        <time>2020-08-12T16:51:19Z</time>
      </trkpt>
      <trkpt lat="45.842464" lon="-1.150613">
        <ele>4.6</ele>
        <time>2020-08-12T16:51:20Z</time>
      </trkpt>
      <trkpt lat="45.842382" lon="-1.150554">
        <ele>4.6</ele>
        <time>2020-08-12T16:51:21Z</time>
      </trkpt>
      <trkpt lat="45.842356" lon="-1.150501">
        <ele>4.6</ele>
        <time>2020-08-12T16:51:21Z</time>
      </trkpt>
      <trkpt lat="45.842341" lon="-1.150405">
        <ele>4.6</ele>
        <time>2020-08-12T16:51:21Z</time>
      </trkpt>
      <trkpt lat="45.842131" lon="-1.150115">
        <ele>4.6</ele>
        <time>2020-08-12T16:51:24Z</time>
      </trkpt>
      <trkpt lat="45.841692" lon="-1.149617">
        <ele>4.6</ele>
        <time>2020-08-12T16:51:28Z</time>
      </trkpt>
      <trkpt lat="45.841361" lon="-1.149191">
        <ele>4.4</ele>
        <time>2020-08-12T16:51:32Z</time>
      </trkpt>
      <trkpt lat="45.840335" lon="-1.147958">
        <ele>4.8</ele>
        <time>2020-08-12T16:51:42Z</time>
      </trkpt>
      <trkpt lat="45.840033" lon="-1.147519">
        <ele>4.8</ele>
        <time>2020-08-12T16:51:46Z</time>
      </trkpt>
      <trkpt lat="45.839726" lon="-1.146966">
        <ele>4.4</ele>
        <time>2020-08-12T16:51:50Z</time>
      </trkpt>
      <trkpt lat="45.839445" lon="-1.146377">
        <ele>4.8</ele>
        <time>2020-08-12T16:51:54Z</time>
      </trkpt>
      <trkpt lat="45.839126" lon="-1.145515">
        <ele>5.0</ele>
        <time>2020-08-12T16:51:59Z</time>
      </trkpt>
      <trkpt lat="45.838956" lon="-1.14493">
        <ele>5.4</ele>
        <time>2020-08-12T16:52:03Z</time>
      </trkpt>
      <trkpt lat="45.838779" lon="-1.144067">
        <ele>5.6</ele>
        <time>2020-08-12T16:52:08Z</time>
      </trkpt>
      <trkpt lat="45.838369" lon="-1.141179">
        <ele>7.0</ele>
        <time>2020-08-12T16:52:24Z</time>
      </trkpt>
      <trkpt lat="45.838181" lon="-1.140226">
        <ele>5.8</ele>
        <time>2020-08-12T16:52:29Z</time>
      </trkpt>
      <trkpt lat="45.838008" lon="-1.139357">
        <ele>5.0</ele>
        <time>2020-08-12T16:52:34Z</time>
      </trkpt>
      <trkpt lat="45.83791" lon="-1.138962">
        <ele>5.2</ele>
        <time>2020-08-12T16:52:37Z</time>
      </trkpt>
      <trkpt lat="45.837765" lon="-1.138527">
        <ele>5.2</ele>
        <time>2020-08-12T16:52:39Z</time>
      </trkpt>
      <trkpt lat="45.837637" lon="-1.13829">
        <ele>5.8</ele>
        <time>2020-08-12T16:52:41Z</time>
      </trkpt>
      <trkpt lat="45.837529" lon="-1.1382">
        <ele>5.8</ele>
        <time>2020-08-12T16:52:42Z</time>
      </trkpt>
      <trkpt lat="45.837481" lon="-1.138069">
        <ele>4.8</ele>
        <time>2020-08-12T16:52:43Z</time>
      </trkpt>
      <trkpt lat="45.837484" lon="-1.137915">
        <ele>4.8</ele>
        <time>2020-08-12T16:52:45Z</time>
      </trkpt>
      <trkpt lat="45.837543" lon="-1.137779">
        <ele>5.8</ele>
        <time>2020-08-12T16:52:46Z</time>
      </trkpt>
      <trkpt lat="45.837548" lon="-1.137449">
        <ele>6.6</ele>
        <time>2020-08-12T16:52:48Z</time>
      </trkpt>
      <trkpt lat="45.837525" lon="-1.137025">
        <ele>6.6</ele>
        <time>2020-08-12T16:52:51Z</time>
      </trkpt>
      <trkpt lat="45.837425" lon="-1.136588">
        <ele>6.2</ele>
        <time>2020-08-12T16:52:55Z</time>
      </trkpt>
      <trkpt lat="45.836448" lon="-1.134372">
        <ele>7.8</ele>
        <time>2020-08-12T16:53:14Z</time>
      </trkpt>
      <trkpt lat="45.836086" lon="-1.133501">
        <ele>8.6</ele>
        <time>2020-08-12T16:53:21Z</time>
      </trkpt>
      <trkpt lat="45.835791" lon="-1.132853">
        <ele>6.8</ele>
        <time>2020-08-12T16:53:27Z</time>
      </trkpt>
      <trkpt lat="45.835549" lon="-1.132232">
        <ele>8.0</ele>
        <time>2020-08-12T16:53:32Z</time>
      </trkpt>
      <trkpt lat="45.833127" lon="-1.12674">
        <ele>8.4</ele>
        <time>2020-08-12T16:54:27Z</time>
      </trkpt>
      <trkpt lat="45.832938" lon="-1.126408">
        <ele>9.4</ele>
        <time>2020-08-12T16:54:31Z</time>
      </trkpt>
      <trkpt lat="45.832745" lon="-1.125874">
        <ele>9.4</ele>
        <time>2020-08-12T16:54:36Z</time>
      </trkpt>
      <trkpt lat="45.831953" lon="-1.124079">
        <ele>9.2</ele>
        <time>2020-08-12T16:54:54Z</time>
      </trkpt>
      <trkpt lat="45.831457" lon="-1.123">
        <ele>6.8</ele>
        <time>2020-08-12T16:55:04Z</time>
      </trkpt>
      <trkpt lat="45.831256" lon="-1.122513">
        <ele>6.8</ele>
        <time>2020-08-12T16:55:09Z</time>
      </trkpt>
      <trkpt lat="45.831094" lon="-1.122041">
        <ele>7.4</ele>
        <time>2020-08-12T16:55:14Z</time>
      </trkpt>
      <trkpt lat="45.830913" lon="-1.121615">
        <ele>8.2</ele>
        <time>2020-08-12T16:55:18Z</time>
      </trkpt>
      <trkpt lat="45.830753" lon="-1.121073">
        <ele>8.2</ele>
        <time>2020-08-12T16:55:23Z</time>
      </trkpt>
      <trkpt lat="45.830657" lon="-1.12045">
        <ele>8.4</ele>
        <time>2020-08-12T16:55:28Z</time>
      </trkpt>
      <trkpt lat="45.830605" lon="-1.120268">
        <ele>8.4</ele>
        <time>2020-08-12T16:55:30Z</time>
      </trkpt>
      <trkpt lat="45.830565" lon="-1.120184">
        <ele>8.4</ele>
        <time>2020-08-12T16:55:31Z</time>
      </trkpt>
      <trkpt lat="45.830415" lon="-1.120054">
        <ele>8.4</ele>
        <time>2020-08-12T16:55:33Z</time>
      </trkpt>
      <trkpt lat="45.830288" lon="-1.120094">
        <ele>8.4</ele>
        <time>2020-08-12T16:55:34Z</time>
      </trkpt>
      <trkpt lat="45.830164" lon="-1.120033">
        <ele>8.4</ele>
        <time>2020-08-12T16:55:35Z</time>
      </trkpt>
      <trkpt lat="45.830079" lon="-1.119886">
        <ele>9.2</ele>
        <time>2020-08-12T16:55:36Z</time>
      </trkpt>
      <trkpt lat="45.83006" lon="-1.11972">
        <ele>9.2</ele>
        <time>2020-08-12T16:55:37Z</time>
      </trkpt>
      <trkpt lat="45.830079" lon="-1.11961">
        <ele>9.2</ele>
        <time>2020-08-12T16:55:38Z</time>
      </trkpt>
      <trkpt lat="45.830121" lon="-1.119515">
        <ele>9.2</ele>
        <time>2020-08-12T16:55:39Z</time>
      </trkpt>
      <trkpt lat="45.83023" lon="-1.119415">
        <ele>9.2</ele>
        <time>2020-08-12T16:55:40Z</time>
      </trkpt>
      <trkpt lat="45.830342" lon="-1.119397">
        <ele>9.2</ele>
        <time>2020-08-12T16:55:41Z</time>
      </trkpt>
      <trkpt lat="45.830458" lon="-1.11923">
        <ele>9.2</ele>
        <time>2020-08-12T16:55:43Z</time>
      </trkpt>
      <trkpt lat="45.83053" lon="-1.11905">
        <ele>10.0</ele>
        <time>2020-08-12T16:55:44Z</time>
      </trkpt>
      <trkpt lat="45.830558" lon="-1.118803">
        <ele>10.0</ele>
        <time>2020-08-12T16:55:45Z</time>
      </trkpt>
      <trkpt lat="45.830974" lon="-1.112787">
        <ele>11.4</ele>
        <time>2020-08-12T16:56:23Z</time>
      </trkpt>
      <trkpt lat="45.831095" lon="-1.111808">
        <ele>11.8</ele>
        <time>2020-08-12T16:56:29Z</time>
      </trkpt>
      <trkpt lat="45.831105" lon="-1.111018">
        <ele>12.2</ele>
        <time>2020-08-12T16:56:34Z</time>
      </trkpt>
      <trkpt lat="45.831066" lon="-1.109972">
        <ele>11.0</ele>
        <time>2020-08-12T16:56:41Z</time>
      </trkpt>
      <trkpt lat="45.830994" lon="-1.109066">
        <ele>10.6</ele>
        <time>2020-08-12T16:56:46Z</time>
      </trkpt>
      <trkpt lat="45.830471" lon="-1.104268">
        <ele>12.2</ele>
        <time>2020-08-12T16:57:17Z</time>
      </trkpt>
      <trkpt lat="45.830268" lon="-1.102237">
        <ele>14.6</ele>
        <time>2020-08-12T16:57:29Z</time>
      </trkpt>
      <trkpt lat="45.830026" lon="-1.10027">
        <ele>16.0</ele>
        <time>2020-08-12T16:57:42Z</time>
      </trkpt>
      <trkpt lat="45.82957" lon="-1.098382">
        <ele>17.0</ele>
        <time>2020-08-12T16:57:54Z</time>
      </trkpt>
      <trkpt lat="45.829467" lon="-1.098047">
        <ele>17.4</ele>
        <time>2020-08-12T16:57:57Z</time>
      </trkpt>
      <trkpt lat="45.829765" lon="-1.097867">
        <ele>17.4</ele>
        <time>2020-08-12T16:57:59Z</time>
      </trkpt>
      <trkpt lat="45.830007" lon="-1.097761">
        <ele>18.0</ele>
        <time>2020-08-12T16:58:00Z</time>
      </trkpt>
      <trkpt lat="45.830558" lon="-1.097593">
        <ele>18.0</ele>
        <time>2020-08-12T16:58:04Z</time>
      </trkpt>
      <trkpt lat="45.831316" lon="-1.097262">
        <ele>18.0</ele>
        <time>2020-08-12T16:58:09Z</time>
      </trkpt>
      <trkpt lat="45.832099" lon="-1.096888">
        <ele>16.8</ele>
        <time>2020-08-12T16:58:14Z</time>
      </trkpt>
      <trkpt lat="45.832369" lon="-1.096727">
        <ele>16.8</ele>
        <time>2020-08-12T16:58:16Z</time>
      </trkpt>
      <trkpt lat="45.832492" lon="-1.096625">
        <ele>17.2</ele>
        <time>2020-08-12T16:58:17Z</time>
      </trkpt>
      <trkpt lat="45.833073" lon="-1.095967">
        <ele>17.2</ele>
        <time>2020-08-12T16:58:21Z</time>
      </trkpt>
      <trkpt lat="45.833354" lon="-1.095567">
        <ele>16.6</ele>
        <time>2020-08-12T16:58:24Z</time>
      </trkpt>
      <trkpt lat="45.833463" lon="-1.095317">
        <ele>16.6</ele>
        <time>2020-08-12T16:58:25Z</time>
      </trkpt>
      <trkpt lat="45.833619" lon="-1.09448">
        <ele>16.8</ele>
        <time>2020-08-12T16:58:29Z</time>
      </trkpt>
      <trkpt lat="45.833688" lon="-1.094216">
        <ele>16.8</ele>
        <time>2020-08-12T16:58:30Z</time>
      </trkpt>
      <trkpt lat="45.833771" lon="-1.094036">
        <ele>17.4</ele>
        <time>2020-08-12T16:58:31Z</time>
      </trkpt>
      <trkpt lat="45.834153" lon="-1.093428">
        <ele>17.4</ele>
        <time>2020-08-12T16:58:35Z</time>
      </trkpt>
      <trkpt lat="45.834461" lon="-1.092838">
        <ele>18.4</ele>
        <time>2020-08-12T16:58:38Z</time>
      </trkpt>
      <trkpt lat="45.83489" lon="-1.091934">
        <ele>17.0</ele>
        <time>2020-08-12T16:58:43Z</time>
      </trkpt>
      <trkpt lat="45.835125" lon="-1.091112">
        <ele>16.8</ele>
        <time>2020-08-12T16:58:47Z</time>
      </trkpt>
      <trkpt lat="45.835277" lon="-1.090746">
        <ele>14.2</ele>
        <time>2020-08-12T16:58:48Z</time>
      </trkpt>
      <trkpt lat="45.835374" lon="-1.090571">
        <ele>14.2</ele>
        <time>2020-08-12T16:58:49Z</time>
      </trkpt>
      <trkpt lat="45.835876" lon="-1.089891">
        <ele>13.0</ele>
        <time>2020-08-12T16:58:54Z</time>
      </trkpt>
      <trkpt lat="45.836678" lon="-1.088928">
        <ele>13.6</ele>
        <time>2020-08-12T16:59:00Z</time>
      </trkpt>
      <trkpt lat="45.836968" lon="-1.088657">
        <ele>13.6</ele>
        <time>2020-08-12T16:59:03Z</time>
      </trkpt>
      <trkpt lat="45.837085" lon="-1.088591">
        <ele>13.6</ele>
        <time>2020-08-12T16:59:03Z</time>
      </trkpt>
      <trkpt lat="45.837182" lon="-1.088562">
        <ele>13.6</ele>
        <time>2020-08-12T16:59:04Z</time>
      </trkpt>
      <trkpt lat="45.837291" lon="-1.08857">
        <ele>13.6</ele>
        <time>2020-08-12T16:59:05Z</time>
      </trkpt>
      <trkpt lat="45.837404" lon="-1.088606">
        <ele>13.6</ele>
        <time>2020-08-12T16:59:05Z</time>
      </trkpt>
      <trkpt lat="45.837627" lon="-1.088769">
        <ele>12.2</ele>
        <time>2020-08-12T16:59:07Z</time>
      </trkpt>
      <trkpt lat="45.837778" lon="-1.088931">
        <ele>12.2</ele>
        <time>2020-08-12T16:59:08Z</time>
      </trkpt>
      <trkpt lat="45.838876" lon="-1.090395">
        <ele>11.6</ele>
        <time>2020-08-12T16:59:18Z</time>
      </trkpt>
      <trkpt lat="45.839029" lon="-1.090516">
        <ele>11.6</ele>
        <time>2020-08-12T16:59:19Z</time>
      </trkpt>
      <trkpt lat="45.839222" lon="-1.090625">
        <ele>7.2</ele>
        <time>2020-08-12T16:59:20Z</time>
      </trkpt>
      <trkpt lat="45.839402" lon="-1.090646">
        <ele>7.2</ele>
        <time>2020-08-12T16:59:21Z</time>
      </trkpt>
      <trkpt lat="45.839539" lon="-1.090608">
        <ele>7.2</ele>
        <time>2020-08-12T16:59:22Z</time>
      </trkpt>
      <trkpt lat="45.839653" lon="-1.090552">
        <ele>7.2</ele>
        <time>2020-08-12T16:59:23Z</time>
      </trkpt>
      <trkpt lat="45.839902" lon="-1.090381">
        <ele>7.2</ele>
        <time>2020-08-12T16:59:24Z</time>
      </trkpt>
      <trkpt lat="45.840182" lon="-1.090146">
        <ele>4.4</ele>
        <time>2020-08-12T16:59:27Z</time>
      </trkpt>
      <trkpt lat="45.840286" lon="-1.090022">
        <ele>4.4</ele>
        <time>2020-08-12T16:59:27Z</time>
      </trkpt>
      <trkpt lat="45.840369" lon="-1.089866">
        <ele>3.4</ele>
        <time>2020-08-12T16:59:28Z</time>
      </trkpt>
      <trkpt lat="45.840438" lon="-1.08962">
        <ele>3.4</ele>
        <time>2020-08-12T16:59:29Z</time>
      </trkpt>
      <trkpt lat="45.840447" lon="-1.089454">
        <ele>3.4</ele>
        <time>2020-08-12T16:59:30Z</time>
      </trkpt>
      <trkpt lat="45.840434" lon="-1.089299">
        <ele>3.4</ele>
        <time>2020-08-12T16:59:31Z</time>
      </trkpt>
      <trkpt lat="45.840267" lon="-1.08867">
        <ele>2.4</ele>
        <time>2020-08-12T16:59:34Z</time>
      </trkpt>
      <trkpt lat="45.840179" lon="-1.08813">
        <ele>1.8</ele>
        <time>2020-08-12T16:59:36Z</time>
      </trkpt>
      <trkpt lat="45.840176" lon="-1.087961">
        <ele>1.8</ele>
        <time>2020-08-12T16:59:37Z</time>
      </trkpt>
      <trkpt lat="45.840213" lon="-1.0878">
        <ele>1.8</ele>
        <time>2020-08-12T16:59:38Z</time>
      </trkpt>
      <trkpt lat="45.840285" lon="-1.087636">
        <ele>1.8</ele>
        <time>2020-08-12T16:59:39Z</time>
      </trkpt>
      <trkpt lat="45.843353" lon="-1.084383">
        <ele>0.4</ele>
        <time>2020-08-12T17:00:03Z</time>
      </trkpt>
      <trkpt lat="45.843724" lon="-1.084081">
        <ele>1.2</ele>
        <time>2020-08-12T17:00:05Z</time>
      </trkpt>
      <trkpt lat="45.84407" lon="-1.08383">
        <ele>1.2</ele>
        <time>2020-08-12T17:00:08Z</time>
      </trkpt>
      <trkpt lat="45.84461" lon="-1.083554">
        <ele>1.6</ele>
        <time>2020-08-12T17:00:11Z</time>
      </trkpt>
      <trkpt lat="45.845917" lon="-1.082742">
        <ele>0.6</ele>
        <time>2020-08-12T17:00:20Z</time>
      </trkpt>
      <trkpt lat="45.8463" lon="-1.082404">
        <ele>0.4</ele>
        <time>2020-08-12T17:00:23Z</time>
      </trkpt>
      <trkpt lat="45.846512" lon="-1.082121">
        <ele>0.4</ele>
        <time>2020-08-12T17:00:25Z</time>
      </trkpt>
      <trkpt lat="45.846683" lon="-1.081841">
        <ele>1.4</ele>
        <time>2020-08-12T17:00:26Z</time>
      </trkpt>
      <trkpt lat="45.84687" lon="-1.081448">
        <ele>0.6</ele>
        <time>2020-08-12T17:00:29Z</time>
      </trkpt>
      <trkpt lat="45.848212" lon="-1.078111">
        <ele>2.0</ele>
        <time>2020-08-12T17:00:45Z</time>
      </trkpt>
      <trkpt lat="45.848521" lon="-1.077379">
        <ele>4.6</ele>
        <time>2020-08-12T17:00:49Z</time>
      </trkpt>
      <trkpt lat="45.848611" lon="-1.0773">
        <ele>4.6</ele>
        <time>2020-08-12T17:00:50Z</time>
      </trkpt>
      <trkpt lat="45.848786" lon="-1.077347">
        <ele>4.6</ele>
        <time>2020-08-12T17:00:51Z</time>
      </trkpt>
      <trkpt lat="45.851732" lon="-1.078672">
        <ele>4.8</ele>
        <time>2020-08-12T17:01:13Z</time>
      </trkpt>
      <trkpt lat="45.851846" lon="-1.078698">
        <ele>4.8</ele>
        <time>2020-08-12T17:01:14Z</time>
      </trkpt>
      <trkpt lat="45.851941" lon="-1.078677">
        <ele>4.8</ele>
        <time>2020-08-12T17:01:14Z</time>
      </trkpt>
      <trkpt lat="45.852145" lon="-1.078491">
        <ele>4.8</ele>
        <time>2020-08-12T17:01:16Z</time>
      </trkpt>
      <trkpt lat="45.852399" lon="-1.078103">
        <ele>5.8</ele>
        <time>2020-08-12T17:01:19Z</time>
      </trkpt>
      <trkpt lat="45.85261" lon="-1.077647">
        <ele>6.4</ele>
        <time>2020-08-12T17:01:21Z</time>
      </trkpt>
      <trkpt lat="45.852734" lon="-1.077523">
        <ele>6.4</ele>
        <time>2020-08-12T17:01:22Z</time>
      </trkpt>
      <trkpt lat="45.852967" lon="-1.077412">
        <ele>4.6</ele>
        <time>2020-08-12T17:01:24Z</time>
      </trkpt>
      <trkpt lat="45.853137" lon="-1.077437">
        <ele>4.6</ele>
        <time>2020-08-12T17:01:25Z</time>
      </trkpt>
      <trkpt lat="45.853848" lon="-1.07787">
        <ele>6.8</ele>
        <time>2020-08-12T17:01:31Z</time>
      </trkpt>
      <trkpt lat="45.854028" lon="-1.07796">
        <ele>6.8</ele>
        <time>2020-08-12T17:01:32Z</time>
      </trkpt>
      <trkpt lat="45.854841" lon="-1.078134">
        <ele>6.6</ele>
        <time>2020-08-12T17:01:38Z</time>
      </trkpt>
      <trkpt lat="45.855066" lon="-1.078207">
        <ele>5.6</ele>
        <time>2020-08-12T17:01:39Z</time>
      </trkpt>
      <trkpt lat="45.855244" lon="-1.078331">
        <ele>5.6</ele>
        <time>2020-08-12T17:01:41Z</time>
      </trkpt>
      <trkpt lat="45.85611" lon="-1.079156">
        <ele>7.0</ele>
        <time>2020-08-12T17:01:48Z</time>
      </trkpt>
      <trkpt lat="45.856253" lon="-1.079354">
        <ele>11.4</ele>
        <time>2020-08-12T17:01:49Z</time>
      </trkpt>
      <trkpt lat="45.856646" lon="-1.080059">
        <ele>13.8</ele>
        <time>2020-08-12T17:01:54Z</time>
      </trkpt>
      <trkpt lat="45.856776" lon="-1.080204">
        <ele>9.2</ele>
        <time>2020-08-12T17:01:55Z</time>
      </trkpt>
      <trkpt lat="45.856872" lon="-1.080258">
        <ele>9.2</ele>
        <time>2020-08-12T17:01:56Z</time>
      </trkpt>
      <trkpt lat="45.857017" lon="-1.080293">
        <ele>9.2</ele>
        <time>2020-08-12T17:01:57Z</time>
      </trkpt>
      <trkpt lat="45.857124" lon="-1.08028">
        <ele>9.2</ele>
        <time>2020-08-12T17:01:58Z</time>
      </trkpt>
      <trkpt lat="45.85727" lon="-1.08022">
        <ele>9.2</ele>
        <time>2020-08-12T17:01:59Z</time>
      </trkpt>
      <trkpt lat="45.857395" lon="-1.080118">
        <ele>9.2</ele>
        <time>2020-08-12T17:02:00Z</time>
      </trkpt>
      <trkpt lat="45.857687" lon="-1.079808">
        <ele>3.0</ele>
        <time>2020-08-12T17:02:02Z</time>
      </trkpt>
      <trkpt lat="45.857792" lon="-1.079636">
        <ele>3.0</ele>
        <time>2020-08-12T17:02:03Z</time>
      </trkpt>
      <trkpt lat="45.857927" lon="-1.07937">
        <ele>3.0</ele>
        <time>2020-08-12T17:02:05Z</time>
      </trkpt>
      <trkpt lat="45.858044" lon="-1.079043">
        <ele>2.0</ele>
        <time>2020-08-12T17:02:07Z</time>
      </trkpt>
      <trkpt lat="45.85826" lon="-1.078342">
        <ele>2.0</ele>
        <time>2020-08-12T17:02:10Z</time>
      </trkpt>
      <trkpt lat="45.858434" lon="-1.07797">
        <ele>2.2</ele>
        <time>2020-08-12T17:02:13Z</time>
      </trkpt>
      <trkpt lat="45.858677" lon="-1.077702">
        <ele>2.2</ele>
        <time>2020-08-12T17:02:15Z</time>
      </trkpt>
      <trkpt lat="45.859047" lon="-1.077451">
        <ele>2.0</ele>
        <time>2020-08-12T17:02:18Z</time>
      </trkpt>
      <trkpt lat="45.859303" lon="-1.077347">
        <ele>2.6</ele>
        <time>2020-08-12T17:02:20Z</time>
      </trkpt>
      <trkpt lat="45.859507" lon="-1.077309">
        <ele>2.6</ele>
        <time>2020-08-12T17:02:21Z</time>
      </trkpt>
      <trkpt lat="45.862652" lon="-1.077006">
        <ele>2.4</ele>
        <time>2020-08-12T17:02:43Z</time>
      </trkpt>
      <trkpt lat="45.862866" lon="-1.076937">
        <ele>2.4</ele>
        <time>2020-08-12T17:02:45Z</time>
      </trkpt>
      <trkpt lat="45.863043" lon="-1.076848">
        <ele>2.4</ele>
        <time>2020-08-12T17:02:46Z</time>
      </trkpt>
      <trkpt lat="45.863446" lon="-1.076541">
        <ele>1.4</ele>
        <time>2020-08-12T17:02:49Z</time>
      </trkpt>
      <trkpt lat="45.86371" lon="-1.076221">
        <ele>1.4</ele>
        <time>2020-08-12T17:02:52Z</time>
      </trkpt>
      <trkpt lat="45.864751" lon="-1.07464">
        <ele>1.4</ele>
        <time>2020-08-12T17:03:02Z</time>
      </trkpt>
      <trkpt lat="45.864932" lon="-1.074301">
        <ele>1.4</ele>
        <time>2020-08-12T17:03:04Z</time>
      </trkpt>
      <trkpt lat="45.865005" lon="-1.074058">
        <ele>1.8</ele>
        <time>2020-08-12T17:03:06Z</time>
      </trkpt>
      <trkpt lat="45.865202" lon="-1.072815">
        <ele>2.6</ele>
        <time>2020-08-12T17:03:12Z</time>
      </trkpt>
      <trkpt lat="45.865209" lon="-1.07259">
        <ele>2.6</ele>
        <time>2020-08-12T17:03:13Z</time>
      </trkpt>
      <trkpt lat="45.865191" lon="-1.072323">
        <ele>3.2</ele>
        <time>2020-08-12T17:03:14Z</time>
      </trkpt>
      <trkpt lat="45.865158" lon="-1.072076">
        <ele>3.2</ele>
        <time>2020-08-12T17:03:15Z</time>
      </trkpt>
      <trkpt lat="45.865032" lon="-1.07149">
        <ele>3.6</ele>
        <time>2020-08-12T17:03:18Z</time>
      </trkpt>
      <trkpt lat="45.86504" lon="-1.071317">
        <ele>3.6</ele>
        <time>2020-08-12T17:03:19Z</time>
      </trkpt>
      <trkpt lat="45.865087" lon="-1.071191">
        <ele>3.6</ele>
        <time>2020-08-12T17:03:20Z</time>
      </trkpt>
      <trkpt lat="45.865163" lon="-1.071105">
        <ele>3.6</ele>
        <time>2020-08-12T17:03:21Z</time>
      </trkpt>
      <trkpt lat="45.865535" lon="-1.07091">
        <ele>3.6</ele>
        <time>2020-08-12T17:03:24Z</time>
      </trkpt>
      <trkpt lat="45.865352" lon="-1.070204">
        <ele>4.2</ele>
        <time>2020-08-12T17:03:33Z</time>
      </trkpt>
      <trkpt lat="45.867862" lon="-1.06889">
        <ele>4.4</ele>
        <time>2020-08-12T17:04:22Z</time>
      </trkpt>
      <trkpt lat="45.868041" lon="-1.06957">
        <ele>4.2</ele>
        <time>2020-08-12T17:04:32Z</time>
      </trkpt>
      <trkpt lat="45.868077" lon="-1.069393">
        <ele>4.2</ele>
        <time>2020-08-12T17:04:32Z</time>
      </trkpt>
      <trkpt lat="45.868177" lon="-1.069298">
        <ele>4.2</ele>
        <time>2020-08-12T17:04:33Z</time>
      </trkpt>
      <trkpt lat="45.8682" lon="-1.069236">
        <ele>4.2</ele>
        <time>2020-08-12T17:04:33Z</time>
      </trkpt>
      <trkpt lat="45.868204" lon="-1.068907">
        <ele>4.4</ele>
        <time>2020-08-12T17:04:35Z</time>
      </trkpt>
      <trkpt lat="45.868185" lon="-1.068762">
        <ele>4.4</ele>
        <time>2020-08-12T17:04:35Z</time>
      </trkpt>
      <trkpt lat="45.867865" lon="-1.067651">
        <ele>4.4</ele>
        <time>2020-08-12T17:04:40Z</time>
      </trkpt>
      <trkpt lat="45.867894" lon="-1.067425">
        <ele>4.4</ele>
        <time>2020-08-12T17:04:41Z</time>
      </trkpt>
      <trkpt lat="45.868022" lon="-1.067275">
        <ele>4.4</ele>
        <time>2020-08-12T17:04:42Z</time>
      </trkpt>
      <trkpt lat="45.869198" lon="-1.066675">
        <ele>1.6</ele>
        <time>2020-08-12T17:04:49Z</time>
      </trkpt>
      <trkpt lat="45.869506" lon="-1.066633">
        <ele>1.8</ele>
        <time>2020-08-12T17:04:51Z</time>
      </trkpt>
      <trkpt lat="45.872132" lon="-1.06653">
        <ele>0.8</ele>
        <time>2020-08-12T17:05:06Z</time>
      </trkpt>
      <trkpt lat="45.872407" lon="-1.066441">
        <ele>0.8</ele>
        <time>2020-08-12T17:05:07Z</time>
      </trkpt>
      <trkpt lat="45.872481" lon="-1.066353">
        <ele>0.8</ele>
        <time>2020-08-12T17:05:08Z</time>
      </trkpt>
      <trkpt lat="45.872505" lon="-1.066139">
        <ele>0.4</ele>
        <time>2020-08-12T17:05:09Z</time>
      </trkpt>
      <trkpt lat="45.872459" lon="-1.065797">
        <ele>0.2</ele>
        <time>2020-08-12T17:05:10Z</time>
      </trkpt>
      <trkpt lat="45.872254" lon="-1.064797">
        <ele>0.2</ele>
        <time>2020-08-12T17:05:14Z</time>
      </trkpt>
      <trkpt lat="45.872307" lon="-1.064478">
        <ele>0.2</ele>
        <time>2020-08-12T17:05:16Z</time>
      </trkpt>
      <trkpt lat="45.872309" lon="-1.064149">
        <ele>0.2</ele>
        <time>2020-08-12T17:05:17Z</time>
      </trkpt>
      <trkpt lat="45.872246" lon="-1.063843">
        <ele>0.2</ele>
        <time>2020-08-12T17:05:18Z</time>
      </trkpt>
      <trkpt lat="45.871159" lon="-1.060177">
        <ele>1.0</ele>
        <time>2020-08-12T17:05:34Z</time>
      </trkpt>
      <trkpt lat="45.871068" lon="-1.05981">
        <ele>1.0</ele>
        <time>2020-08-12T17:05:36Z</time>
      </trkpt>
      <trkpt lat="45.871045" lon="-1.059449">
        <ele>1.0</ele>
        <time>2020-08-12T17:05:37Z</time>
      </trkpt>
      <trkpt lat="45.871083" lon="-1.059179">
        <ele>1.0</ele>
        <time>2020-08-12T17:05:38Z</time>
      </trkpt>
      <trkpt lat="45.871279" lon="-1.058475">
        <ele>1.2</ele>
        <time>2020-08-12T17:05:41Z</time>
      </trkpt>
      <trkpt lat="45.871443" lon="-1.058219">
        <ele>1.6</ele>
        <time>2020-08-12T17:05:43Z</time>
      </trkpt>
      <trkpt lat="45.87239" lon="-1.057062">
        <ele>1.4</ele>
        <time>2020-08-12T17:05:50Z</time>
      </trkpt>
      <trkpt lat="45.872487" lon="-1.05683">
        <ele>1.4</ele>
        <time>2020-08-12T17:05:51Z</time>
      </trkpt>
      <trkpt lat="45.87257" lon="-1.05652">
        <ele>1.6</ele>
        <time>2020-08-12T17:05:52Z</time>
      </trkpt>
      <trkpt lat="45.872655" lon="-1.05644">
        <ele>1.6</ele>
        <time>2020-08-12T17:05:53Z</time>
      </trkpt>
      <trkpt lat="45.872738" lon="-1.05643">
        <ele>1.6</ele>
        <time>2020-08-12T17:05:53Z</time>
      </trkpt>
      <trkpt lat="45.872839" lon="-1.056518">
        <ele>1.6</ele>
        <time>2020-08-12T17:05:54Z</time>
      </trkpt>
      <trkpt lat="45.873845" lon="-1.058186">
        <ele>1.6</ele>
        <time>2020-08-12T17:06:03Z</time>
      </trkpt>
      <trkpt lat="45.87397" lon="-1.058508">
        <ele>1.6</ele>
        <time>2020-08-12T17:06:04Z</time>
      </trkpt>
      <trkpt lat="45.874033" lon="-1.058832">
        <ele>1.6</ele>
        <time>2020-08-12T17:06:05Z</time>
      </trkpt>
      <trkpt lat="45.874072" lon="-1.059252">
        <ele>1.6</ele>
        <time>2020-08-12T17:06:07Z</time>
      </trkpt>
      <trkpt lat="45.87414" lon="-1.059534">
        <ele>1.6</ele>
        <time>2020-08-12T17:06:08Z</time>
      </trkpt>
      <trkpt lat="45.874242" lon="-1.059766">
        <ele>1.0</ele>
        <time>2020-08-12T17:06:09Z</time>
      </trkpt>
      <trkpt lat="45.87436" lon="-1.059894">
        <ele>1.0</ele>
        <time>2020-08-12T17:06:10Z</time>
      </trkpt>
      <trkpt lat="45.874465" lon="-1.059939">
        <ele>1.0</ele>
        <time>2020-08-12T17:06:11Z</time>
      </trkpt>
      <trkpt lat="45.874642" lon="-1.059862">
        <ele>1.0</ele>
        <time>2020-08-12T17:06:12Z</time>
      </trkpt>
      <trkpt lat="45.877492" lon="-1.057162">
        <ele>1.6</ele>
        <time>2020-08-12T17:06:31Z</time>
      </trkpt>
      <trkpt lat="45.877807" lon="-1.056894">
        <ele>1.4</ele>
        <time>2020-08-12T17:06:33Z</time>
      </trkpt>
      <trkpt lat="45.879554" lon="-1.055914">
        <ele>1.8</ele>
        <time>2020-08-12T17:06:44Z</time>
      </trkpt>
      <trkpt lat="45.881275" lon="-1.054888">
        <ele>0.8</ele>
        <time>2020-08-12T17:06:55Z</time>
      </trkpt>
      <trkpt lat="45.881868" lon="-1.054483">
        <ele>0.6</ele>
        <time>2020-08-12T17:06:58Z</time>
      </trkpt>
      <trkpt lat="45.881963" lon="-1.054401">
        <ele>0.6</ele>
        <time>2020-08-12T17:06:59Z</time>
      </trkpt>
      <trkpt lat="45.882084" lon="-1.054366">
        <ele>0.6</ele>
        <time>2020-08-12T17:07:00Z</time>
      </trkpt>
      <trkpt lat="45.882259" lon="-1.054423">
        <ele>0.6</ele>
        <time>2020-08-12T17:07:01Z</time>
      </trkpt>
      <trkpt lat="45.883783" lon="-1.055543">
        <ele>0.2</ele>
        <time>2020-08-12T17:07:11Z</time>
      </trkpt>
      <trkpt lat="45.883943" lon="-1.055621">
        <ele>0.2</ele>
        <time>2020-08-12T17:07:12Z</time>
      </trkpt>
      <trkpt lat="45.884098" lon="-1.05559">
        <ele>0.2</ele>
        <time>2020-08-12T17:07:12Z</time>
      </trkpt>
      <trkpt lat="45.884232" lon="-1.055474">
        <ele>0.8</ele>
        <time>2020-08-12T17:07:13Z</time>
      </trkpt>
      <trkpt lat="45.88476" lon="-1.054422">
        <ele>1.0</ele>
        <time>2020-08-12T17:07:18Z</time>
      </trkpt>
      <trkpt lat="45.88513" lon="-1.053804">
        <ele>1.2</ele>
        <time>2020-08-12T17:07:22Z</time>
      </trkpt>
      <trkpt lat="45.885172" lon="-1.053655">
        <ele>1.2</ele>
        <time>2020-08-12T17:07:22Z</time>
      </trkpt>
      <trkpt lat="45.885241" lon="-1.053143">
        <ele>1.0</ele>
        <time>2020-08-12T17:07:24Z</time>
      </trkpt>
      <trkpt lat="45.885299" lon="-1.052982">
        <ele>1.0</ele>
        <time>2020-08-12T17:07:25Z</time>
      </trkpt>
      <trkpt lat="45.885478" lon="-1.052816">
        <ele>1.0</ele>
        <time>2020-08-12T17:07:26Z</time>
      </trkpt>
      <trkpt lat="45.885614" lon="-1.052744">
        <ele>1.0</ele>
        <time>2020-08-12T17:07:27Z</time>
      </trkpt>
      <trkpt lat="45.886108" lon="-1.052725">
        <ele>1.0</ele>
        <time>2020-08-12T17:07:30Z</time>
      </trkpt>
      <trkpt lat="45.886227" lon="-1.052672">
        <ele>1.0</ele>
        <time>2020-08-12T17:07:31Z</time>
      </trkpt>
      <trkpt lat="45.888879" lon="-1.051084">
        <ele>1.4</ele>
        <time>2020-08-12T17:07:47Z</time>
      </trkpt>
      <trkpt lat="45.888969" lon="-1.050994">
        <ele>1.4</ele>
        <time>2020-08-12T17:07:48Z</time>
      </trkpt>
      <trkpt lat="45.889011" lon="-1.050875">
        <ele>1.4</ele>
        <time>2020-08-12T17:07:48Z</time>
      </trkpt>
      <trkpt lat="45.889069" lon="-1.050546">
        <ele>1.4</ele>
        <time>2020-08-12T17:07:50Z</time>
      </trkpt>
      <trkpt lat="45.889119" lon="-1.05041">
        <ele>1.4</ele>
        <time>2020-08-12T17:07:50Z</time>
      </trkpt>
      <trkpt lat="45.88923" lon="-1.050298">
        <ele>1.4</ele>
        <time>2020-08-12T17:07:51Z</time>
      </trkpt>
      <trkpt lat="45.890374" lon="-1.049697">
        <ele>0.8</ele>
        <time>2020-08-12T17:07:58Z</time>
      </trkpt>
      <trkpt lat="45.890593" lon="-1.04952">
        <ele>0.8</ele>
        <time>2020-08-12T17:07:59Z</time>
      </trkpt>
      <trkpt lat="45.891309" lon="-1.048706">
        <ele>0.6</ele>
        <time>2020-08-12T17:08:05Z</time>
      </trkpt>
      <trkpt lat="45.894421" lon="-1.045286">
        <ele>0.6</ele>
        <time>2020-08-12T17:08:27Z</time>
      </trkpt>
      <trkpt lat="45.894596" lon="-1.04515">
        <ele>0.6</ele>
        <time>2020-08-12T17:08:28Z</time>
      </trkpt>
      <trkpt lat="45.894894" lon="-1.045032">
        <ele>0.6</ele>
        <time>2020-08-12T17:08:30Z</time>
      </trkpt>
      <trkpt lat="45.895141" lon="-1.045019">
        <ele>1.2</ele>
        <time>2020-08-12T17:08:31Z</time>
      </trkpt>
      <trkpt lat="45.89718" lon="-1.045096">
        <ele>1.2</ele>
        <time>2020-08-12T17:08:43Z</time>
      </trkpt>
      <trkpt lat="45.897393" lon="-1.045059">
        <ele>1.2</ele>
        <time>2020-08-12T17:08:44Z</time>
      </trkpt>
      <trkpt lat="45.898474" lon="-1.044701">
        <ele>0.6</ele>
        <time>2020-08-12T17:08:50Z</time>
      </trkpt>
      <trkpt lat="45.898712" lon="-1.044605">
        <ele>0.6</ele>
        <time>2020-08-12T17:08:52Z</time>
      </trkpt>
      <trkpt lat="45.898849" lon="-1.044504">
        <ele>0.6</ele>
        <time>2020-08-12T17:08:53Z</time>
      </trkpt>
      <trkpt lat="45.899652" lon="-1.043515">
        <ele>0.8</ele>
        <time>2020-08-12T17:08:59Z</time>
      </trkpt>
      <trkpt lat="45.900664" lon="-1.042323">
        <ele>0.6</ele>
        <time>2020-08-12T17:09:06Z</time>
      </trkpt>
      <trkpt lat="45.901786" lon="-1.040942">
        <ele>2.4</ele>
        <time>2020-08-12T17:09:15Z</time>
      </trkpt>
      <trkpt lat="45.901979" lon="-1.040647">
        <ele>2.2</ele>
        <time>2020-08-12T17:09:16Z</time>
      </trkpt>
      <trkpt lat="45.902077" lon="-1.040461">
        <ele>2.2</ele>
        <time>2020-08-12T17:09:17Z</time>
      </trkpt>
      <trkpt lat="45.902276" lon="-1.039946">
        <ele>1.4</ele>
        <time>2020-08-12T17:09:20Z</time>
      </trkpt>
      <trkpt lat="45.90269" lon="-1.038769">
        <ele>2.6</ele>
        <time>2020-08-12T17:09:25Z</time>
      </trkpt>
      <trkpt lat="45.902793" lon="-1.038563">
        <ele>2.6</ele>
        <time>2020-08-12T17:09:26Z</time>
      </trkpt>
      <trkpt lat="45.902969" lon="-1.038268">
        <ele>2.8</ele>
        <time>2020-08-12T17:09:27Z</time>
      </trkpt>
      <trkpt lat="45.903325" lon="-1.037747">
        <ele>2.8</ele>
        <time>2020-08-12T17:09:30Z</time>
      </trkpt>
      <trkpt lat="45.904595" lon="-1.036319">
        <ele>4.4</ele>
        <time>2020-08-12T17:09:39Z</time>
      </trkpt>
      <trkpt lat="45.905033" lon="-1.035786">
        <ele>5.8</ele>
        <time>2020-08-12T17:09:43Z</time>
      </trkpt>
      <trkpt lat="45.905385" lon="-1.035315">
        <ele>5.8</ele>
        <time>2020-08-12T17:09:45Z</time>
      </trkpt>
      <trkpt lat="45.905727" lon="-1.03471">
        <ele>4.8</ele>
        <time>2020-08-12T17:09:49Z</time>
      </trkpt>
      <trkpt lat="45.906027" lon="-1.03427">
        <ele>4.2</ele>
        <time>2020-08-12T17:09:51Z</time>
      </trkpt>
      <trkpt lat="45.906446" lon="-1.033746">
        <ele>3.2</ele>
        <time>2020-08-12T17:09:54Z</time>
      </trkpt>
      <trkpt lat="45.907308" lon="-1.032743">
        <ele>3.6</ele>
        <time>2020-08-12T17:10:00Z</time>
      </trkpt>
      <trkpt lat="45.90823" lon="-1.031766">
        <ele>3.8</ele>
        <time>2020-08-12T17:10:07Z</time>
      </trkpt>
      <trkpt lat="45.908953" lon="-1.030848">
        <ele>5.0</ele>
        <time>2020-08-12T17:10:13Z</time>
      </trkpt>
      <trkpt lat="45.909268" lon="-1.030481">
        <ele>5.0</ele>
        <time>2020-08-12T17:10:15Z</time>
      </trkpt>
      <trkpt lat="45.910119" lon="-1.02959">
        <ele>4.0</ele>
        <time>2020-08-12T17:10:21Z</time>
      </trkpt>
      <trkpt lat="45.911147" lon="-1.028446">
        <ele>1.8</ele>
        <time>2020-08-12T17:10:28Z</time>
      </trkpt>
      <trkpt lat="45.91352" lon="-1.025573">
        <ele>13.8</ele>
        <time>2020-08-12T17:10:46Z</time>
      </trkpt>
      <trkpt lat="45.914192" lon="-1.024794">
        <ele>13.6</ele>
        <time>2020-08-12T17:10:51Z</time>
      </trkpt>
      <trkpt lat="45.914494" lon="-1.024403">
        <ele>13.6</ele>
        <time>2020-08-12T17:10:53Z</time>
      </trkpt>
      <trkpt lat="45.914789" lon="-1.024067">
        <ele>13.8</ele>
        <time>2020-08-12T17:10:55Z</time>
      </trkpt>
      <trkpt lat="45.915651" lon="-1.023231">
        <ele>12.6</ele>
        <time>2020-08-12T17:11:01Z</time>
      </trkpt>
      <trkpt lat="45.915897" lon="-1.02297">
        <ele>11.8</ele>
        <time>2020-08-12T17:11:03Z</time>
      </trkpt>
      <trkpt lat="45.916471" lon="-1.022273">
        <ele>12.8</ele>
        <time>2020-08-12T17:11:07Z</time>
      </trkpt>
      <trkpt lat="45.916958" lon="-1.021757">
        <ele>13.0</ele>
        <time>2020-08-12T17:11:11Z</time>
      </trkpt>
      <trkpt lat="45.917283" lon="-1.021382">
        <ele>14.2</ele>
        <time>2020-08-12T17:11:13Z</time>
      </trkpt>
      <trkpt lat="45.917596" lon="-1.021059">
        <ele>13.4</ele>
        <time>2020-08-12T17:11:15Z</time>
      </trkpt>
      <trkpt lat="45.919545" lon="-1.019328">
        <ele>12.2</ele>
        <time>2020-08-12T17:11:28Z</time>
      </trkpt>
      <trkpt lat="45.920661" lon="-1.018298">
        <ele>13.0</ele>
        <time>2020-08-12T17:11:36Z</time>
      </trkpt>
      <trkpt lat="45.921924" lon="-1.017184">
        <ele>12.8</ele>
        <time>2020-08-12T17:11:44Z</time>
      </trkpt>
      <trkpt lat="45.922522" lon="-1.016607">
        <ele>12.4</ele>
        <time>2020-08-12T17:11:49Z</time>
      </trkpt>
      <trkpt lat="45.923029" lon="-1.016036">
        <ele>12.4</ele>
        <time>2020-08-12T17:11:52Z</time>
      </trkpt>
      <trkpt lat="45.92398" lon="-1.015041">
        <ele>11.8</ele>
        <time>2020-08-12T17:11:59Z</time>
      </trkpt>
      <trkpt lat="45.924504" lon="-1.014337">
        <ele>11.4</ele>
        <time>2020-08-12T17:12:03Z</time>
      </trkpt>
      <trkpt lat="45.924727" lon="-1.013976">
        <ele>14.2</ele>
        <time>2020-08-12T17:12:05Z</time>
      </trkpt>
      <trkpt lat="45.925284" lon="-1.012951">
        <ele>12.6</ele>
        <time>2020-08-12T17:12:10Z</time>
      </trkpt>
      <trkpt lat="45.925622" lon="-1.012371">
        <ele>14.0</ele>
        <time>2020-08-12T17:12:13Z</time>
      </trkpt>
      <trkpt lat="45.925711" lon="-1.012313">
        <ele>14.0</ele>
        <time>2020-08-12T17:12:14Z</time>
      </trkpt>
      <trkpt lat="45.925714" lon="-1.01243">
        <ele>14.0</ele>
        <time>2020-08-12T17:12:14Z</time>
      </trkpt>
      <trkpt lat="45.925665" lon="-1.012657">
        <ele>12.6</ele>
        <time>2020-08-12T17:12:15Z</time>
      </trkpt>
      <trkpt lat="45.925647" lon="-1.012982">
        <ele>12.6</ele>
        <time>2020-08-12T17:12:17Z</time>
      </trkpt>
      <trkpt lat="45.925793" lon="-1.014121">
        <ele>11.4</ele>
        <time>2020-08-12T17:12:22Z</time>
      </trkpt>
      <trkpt lat="45.926202" lon="-1.016827">
        <ele>7.4</ele>
        <time>2020-08-12T17:12:35Z</time>
      </trkpt>
      <trkpt lat="45.926429" lon="-1.018208">
        <ele>10.6</ele>
        <time>2020-08-12T17:12:41Z</time>
      </trkpt>
      <trkpt lat="45.926541" lon="-1.018656">
        <ele>12.2</ele>
        <time>2020-08-12T17:12:43Z</time>
      </trkpt>
      <trkpt lat="45.926641" lon="-1.018989">
        <ele>12.2</ele>
        <time>2020-08-12T17:12:45Z</time>
      </trkpt>
      <trkpt lat="45.927345" lon="-1.020695">
        <ele>15.2</ele>
        <time>2020-08-12T17:12:54Z</time>
      </trkpt>
      <trkpt lat="45.927823" lon="-1.021565">
        <ele>17.4</ele>
        <time>2020-08-12T17:12:59Z</time>
      </trkpt>
      <trkpt lat="45.928336" lon="-1.022607">
        <ele>19.6</ele>
        <time>2020-08-12T17:13:05Z</time>
      </trkpt>
      <trkpt lat="45.928621" lon="-1.02325">
        <ele>19.6</ele>
        <time>2020-08-12T17:13:08Z</time>
      </trkpt>
      <trkpt lat="45.930317" lon="-1.027337">
        <ele>17.6</ele>
        <time>2020-08-12T17:13:30Z</time>
      </trkpt>
      <trkpt lat="45.931114" lon="-1.029622">
        <ele>17.2</ele>
        <time>2020-08-12T17:13:42Z</time>
      </trkpt>
      <trkpt lat="45.931302" lon="-1.030286">
        <ele>16.4</ele>
        <time>2020-08-12T17:13:45Z</time>
      </trkpt>
      <trkpt lat="45.931614" lon="-1.031532">
        <ele>15.2</ele>
        <time>2020-08-12T17:13:51Z</time>
      </trkpt>
      <trkpt lat="45.931698" lon="-1.031904">
        <ele>12.6</ele>
        <time>2020-08-12T17:13:53Z</time>
      </trkpt>
      <trkpt lat="45.931767" lon="-1.032359">
        <ele>12.6</ele>
        <time>2020-08-12T17:13:55Z</time>
      </trkpt>
      <trkpt lat="45.931824" lon="-1.033026">
        <ele>11.8</ele>
        <time>2020-08-12T17:13:58Z</time>
      </trkpt>
      <trkpt lat="45.931883" lon="-1.033996">
        <ele>12.2</ele>
        <time>2020-08-12T17:14:02Z</time>
      </trkpt>
      <trkpt lat="45.931977" lon="-1.034845">
        <ele>13.2</ele>
        <time>2020-08-12T17:14:06Z</time>
      </trkpt>
      <trkpt lat="45.932136" lon="-1.035661">
        <ele>13.6</ele>
        <time>2020-08-12T17:14:10Z</time>
      </trkpt>
      <trkpt lat="45.932226" lon="-1.036321">
        <ele>13.0</ele>
        <time>2020-08-12T17:14:13Z</time>
      </trkpt>
      <trkpt lat="45.932303" lon="-1.037085">
        <ele>12.8</ele>
        <time>2020-08-12T17:14:16Z</time>
      </trkpt>
      <trkpt lat="45.932385" lon="-1.038448">
        <ele>13.2</ele>
        <time>2020-08-12T17:14:23Z</time>
      </trkpt>
      <trkpt lat="45.932429" lon="-1.039811">
        <ele>12.4</ele>
        <time>2020-08-12T17:14:29Z</time>
      </trkpt>
      <trkpt lat="45.93241" lon="-1.040114">
        <ele>11.6</ele>
        <time>2020-08-12T17:14:30Z</time>
      </trkpt>
      <trkpt lat="45.932313" lon="-1.040878">
        <ele>10.8</ele>
        <time>2020-08-12T17:14:34Z</time>
      </trkpt>
      <trkpt lat="45.932312" lon="-1.041082">
        <ele>10.8</ele>
        <time>2020-08-12T17:14:35Z</time>
      </trkpt>
      <trkpt lat="45.932341" lon="-1.041317">
        <ele>10.8</ele>
        <time>2020-08-12T17:14:36Z</time>
      </trkpt>
      <trkpt lat="45.932428" lon="-1.041729">
        <ele>11.0</ele>
        <time>2020-08-12T17:14:38Z</time>
      </trkpt>
      <trkpt lat="45.932494" lon="-1.0418">
        <ele>11.0</ele>
        <time>2020-08-12T17:14:39Z</time>
      </trkpt>
      <trkpt lat="45.932503" lon="-1.041877">
        <ele>10.6</ele>
        <time>2020-08-12T17:14:39Z</time>
      </trkpt>
      <trkpt lat="45.932494" lon="-1.041921">
        <ele>11.0</ele>
        <time>2020-08-12T17:14:40Z</time>
      </trkpt>
      <trkpt lat="45.932615" lon="-1.042228">
        <ele>10.6</ele>
        <time>2020-08-12T17:14:42Z</time>
      </trkpt>
      <trkpt lat="45.932841" lon="-1.04273">
        <ele>11.6</ele>
        <time>2020-08-12T17:14:45Z</time>
      </trkpt>
      <trkpt lat="45.934211" lon="-1.044708">
        <ele>13.2</ele>
        <time>2020-08-12T17:15:01Z</time>
      </trkpt>
      <trkpt lat="45.934501" lon="-1.045284">
        <ele>13.8</ele>
        <time>2020-08-12T17:15:05Z</time>
      </trkpt>
      <trkpt lat="45.93463" lon="-1.045602">
        <ele>13.8</ele>
        <time>2020-08-12T17:15:07Z</time>
      </trkpt>
      <trkpt lat="45.934853" lon="-1.046248">
        <ele>13.6</ele>
        <time>2020-08-12T17:15:11Z</time>
      </trkpt>
      <trkpt lat="45.936006" lon="-1.050572">
        <ele>14.4</ele>
        <time>2020-08-12T17:15:37Z</time>
      </trkpt>
      <trkpt lat="45.936032" lon="-1.050799">
        <ele>14.4</ele>
        <time>2020-08-12T17:15:39Z</time>
      </trkpt>
      <trkpt lat="45.935989" lon="-1.050972">
        <ele>15.0</ele>
        <time>2020-08-12T17:15:40Z</time>
      </trkpt>
      <trkpt lat="45.935958" lon="-1.051691">
        <ele>14.6</ele>
        <time>2020-08-12T17:15:44Z</time>
      </trkpt>
      <trkpt lat="45.935982" lon="-1.0521">
        <ele>14.6</ele>
        <time>2020-08-12T17:15:46Z</time>
      </trkpt>
      <trkpt lat="45.936028" lon="-1.052306">
        <ele>14.6</ele>
        <time>2020-08-12T17:15:47Z</time>
      </trkpt>
      <trkpt lat="45.936263" lon="-1.05305">
        <ele>14.2</ele>
        <time>2020-08-12T17:15:52Z</time>
      </trkpt>
      <trkpt lat="45.93695" lon="-1.054965">
        <ele>12.6</ele>
        <time>2020-08-12T17:16:04Z</time>
      </trkpt>
      <trkpt lat="45.937091" lon="-1.055454">
        <ele>13.2</ele>
        <time>2020-08-12T17:16:07Z</time>
      </trkpt>
      <trkpt lat="45.937164" lon="-1.055874">
        <ele>14.6</ele>
        <time>2020-08-12T17:16:09Z</time>
      </trkpt>
      <trkpt lat="45.937269" lon="-1.057109">
        <ele>15.8</ele>
        <time>2020-08-12T17:16:16Z</time>
      </trkpt>
      <trkpt lat="45.93733" lon="-1.057646">
        <ele>15.6</ele>
        <time>2020-08-12T17:16:19Z</time>
      </trkpt>
      <trkpt lat="45.937447" lon="-1.058187">
        <ele>15.6</ele>
        <time>2020-08-12T17:16:23Z</time>
      </trkpt>
      <trkpt lat="45.937594" lon="-1.058622">
        <ele>15.8</ele>
        <time>2020-08-12T17:16:25Z</time>
      </trkpt>
      <trkpt lat="45.938215" lon="-1.059961">
        <ele>15.8</ele>
        <time>2020-08-12T17:16:34Z</time>
      </trkpt>
      <trkpt lat="45.938726" lon="-1.061308">
        <ele>15.4</ele>
        <time>2020-08-12T17:16:43Z</time>
      </trkpt>
      <trkpt lat="45.939253" lon="-1.06296">
        <ele>14.8</ele>
        <time>2020-08-12T17:16:53Z</time>
      </trkpt>
      <trkpt lat="45.939665" lon="-1.06387">
        <ele>14.0</ele>
        <time>2020-08-12T17:16:59Z</time>
      </trkpt>
      <trkpt lat="45.939769" lon="-1.064208">
        <ele>13.6</ele>
        <time>2020-08-12T17:17:01Z</time>
      </trkpt>
      <trkpt lat="45.940153" lon="-1.065751">
        <ele>14.4</ele>
        <time>2020-08-12T17:17:11Z</time>
      </trkpt>
      <trkpt lat="45.940302" lon="-1.066246">
        <ele>14.8</ele>
        <time>2020-08-12T17:17:14Z</time>
      </trkpt>
      <trkpt lat="45.940455" lon="-1.066672">
        <ele>14.8</ele>
        <time>2020-08-12T17:17:16Z</time>
      </trkpt>
      <trkpt lat="45.940643" lon="-1.067066">
        <ele>14.8</ele>
        <time>2020-08-12T17:17:19Z</time>
      </trkpt>
      <trkpt lat="45.940832" lon="-1.067401">
        <ele>14.8</ele>
        <time>2020-08-12T17:17:22Z</time>
      </trkpt>
      <trkpt lat="45.941199" lon="-1.067937">
        <ele>14.0</ele>
        <time>2020-08-12T17:17:26Z</time>
      </trkpt>
      <trkpt lat="45.941528" lon="-1.068323">
        <ele>14.0</ele>
        <time>2020-08-12T17:17:29Z</time>
      </trkpt>
      <trkpt lat="45.942559" lon="-1.0693">
        <ele>11.4</ele>
        <time>2020-08-12T17:17:39Z</time>
      </trkpt>
      <trkpt lat="45.942679" lon="-1.069413">
        <ele>11.4</ele>
        <time>2020-08-12T17:17:40Z</time>
      </trkpt>
      <trkpt lat="45.942761" lon="-1.069443">
        <ele>11.4</ele>
        <time>2020-08-12T17:17:41Z</time>
      </trkpt>
      <trkpt lat="45.943536" lon="-1.069575">
        <ele>8.6</ele>
        <time>2020-08-12T17:17:47Z</time>
      </trkpt>
      <trkpt lat="45.943583" lon="-1.069755">
        <ele>8.6</ele>
        <time>2020-08-12T17:17:50Z</time>
      </trkpt>
      <trkpt lat="45.943583" lon="-1.069755">
        <ele>8.6</ele>
        <time>2020-08-12T17:17:50Z</time>
      </trkpt>
      <trkpt lat="45.943536" lon="-1.069575">
        <ele>8.6</ele>
        <time>2020-08-12T17:17:52Z</time>
      </trkpt>
      <trkpt lat="45.942761" lon="-1.069443">
        <ele>11.4</ele>
        <time>2020-08-12T17:17:59Z</time>
      </trkpt>
      <trkpt lat="45.942679" lon="-1.069413">
        <ele>11.4</ele>
        <time>2020-08-12T17:17:59Z</time>
      </trkpt>
      <trkpt lat="45.942559" lon="-1.0693">
        <ele>11.4</ele>
        <time>2020-08-12T17:18:00Z</time>
      </trkpt>
      <trkpt lat="45.941528" lon="-1.068323">
        <ele>14.0</ele>
        <time>2020-08-12T17:18:11Z</time>
      </trkpt>
      <trkpt lat="45.941199" lon="-1.067937">
        <ele>14.0</ele>
        <time>2020-08-12T17:18:14Z</time>
      </trkpt>
      <trkpt lat="45.940832" lon="-1.067401">
        <ele>14.8</ele>
        <time>2020-08-12T17:18:18Z</time>
      </trkpt>
      <trkpt lat="45.940643" lon="-1.067066">
        <ele>14.8</ele>
        <time>2020-08-12T17:18:21Z</time>
      </trkpt>
      <trkpt lat="45.940455" lon="-1.066672">
        <ele>14.8</ele>
        <time>2020-08-12T17:18:23Z</time>
      </trkpt>
      <trkpt lat="45.940302" lon="-1.066246">
        <ele>14.8</ele>
        <time>2020-08-12T17:18:26Z</time>
      </trkpt>
      <trkpt lat="45.940153" lon="-1.065751">
        <ele>14.4</ele>
        <time>2020-08-12T17:18:29Z</time>
      </trkpt>
      <trkpt lat="45.939769" lon="-1.064208">
        <ele>13.6</ele>
        <time>2020-08-12T17:18:38Z</time>
      </trkpt>
      <trkpt lat="45.939665" lon="-1.06387">
        <ele>14.0</ele>
        <time>2020-08-12T17:18:40Z</time>
      </trkpt>
      <trkpt lat="45.939253" lon="-1.06296">
        <ele>14.8</ele>
        <time>2020-08-12T17:18:47Z</time>
      </trkpt>
      <trkpt lat="45.938726" lon="-1.061308">
        <ele>15.4</ele>
        <time>2020-08-12T17:18:57Z</time>
      </trkpt>
      <trkpt lat="45.938215" lon="-1.059961">
        <ele>15.8</ele>
        <time>2020-08-12T17:19:05Z</time>
      </trkpt>
      <trkpt lat="45.937594" lon="-1.058622">
        <ele>15.8</ele>
        <time>2020-08-12T17:19:15Z</time>
      </trkpt>
      <trkpt lat="45.937447" lon="-1.058187">
        <ele>15.6</ele>
        <time>2020-08-12T17:19:17Z</time>
      </trkpt>
      <trkpt lat="45.93733" lon="-1.057646">
        <ele>15.6</ele>
        <time>2020-08-12T17:19:20Z</time>
      </trkpt>
      <trkpt lat="45.937269" lon="-1.057109">
        <ele>15.8</ele>
        <time>2020-08-12T17:19:24Z</time>
      </trkpt>
      <trkpt lat="45.937164" lon="-1.055874">
        <ele>14.6</ele>
        <time>2020-08-12T17:19:31Z</time>
      </trkpt>
      <trkpt lat="45.937091" lon="-1.055454">
        <ele>13.2</ele>
        <time>2020-08-12T17:19:33Z</time>
      </trkpt>
      <trkpt lat="45.93695" lon="-1.054965">
        <ele>12.6</ele>
        <time>2020-08-12T17:19:36Z</time>
      </trkpt>
      <trkpt lat="45.936263" lon="-1.05305">
        <ele>14.2</ele>
        <time>2020-08-12T17:19:48Z</time>
      </trkpt>
      <trkpt lat="45.936028" lon="-1.052306">
        <ele>14.6</ele>
        <time>2020-08-12T17:19:53Z</time>
      </trkpt>
      <trkpt lat="45.935982" lon="-1.0521">
        <ele>14.6</ele>
        <time>2020-08-12T17:19:54Z</time>
      </trkpt>
      <trkpt lat="45.935958" lon="-1.051691">
        <ele>14.6</ele>
        <time>2020-08-12T17:19:56Z</time>
      </trkpt>
      <trkpt lat="45.935989" lon="-1.050972">
        <ele>15.0</ele>
        <time>2020-08-12T17:20:00Z</time>
      </trkpt>
      <trkpt lat="45.936032" lon="-1.050799">
        <ele>14.4</ele>
        <time>2020-08-12T17:20:01Z</time>
      </trkpt>
      <trkpt lat="45.936006" lon="-1.050572">
        <ele>14.4</ele>
        <time>2020-08-12T17:20:03Z</time>
      </trkpt>
      <trkpt lat="45.934853" lon="-1.046248">
        <ele>13.6</ele>
        <time>2020-08-12T17:20:29Z</time>
      </trkpt>
      <trkpt lat="45.93463" lon="-1.045602">
        <ele>13.8</ele>
        <time>2020-08-12T17:20:33Z</time>
      </trkpt>
      <trkpt lat="45.934501" lon="-1.045284">
        <ele>13.8</ele>
        <time>2020-08-12T17:20:35Z</time>
      </trkpt>
      <trkpt lat="45.934211" lon="-1.044708">
        <ele>13.2</ele>
        <time>2020-08-12T17:20:39Z</time>
      </trkpt>
      <trkpt lat="45.932841" lon="-1.04273">
        <ele>11.6</ele>
        <time>2020-08-12T17:20:55Z</time>
      </trkpt>
      <trkpt lat="45.932615" lon="-1.042228">
        <ele>10.6</ele>
        <time>2020-08-12T17:20:58Z</time>
      </trkpt>
      <trkpt lat="45.932496" lon="-1.042075">
        <ele>11.0</ele>
        <time>2020-08-12T17:20:59Z</time>
      </trkpt>
      <trkpt lat="45.932408" lon="-1.041995">
        <ele>11.0</ele>
        <time>2020-08-12T17:21:00Z</time>
      </trkpt>
      <trkpt lat="45.932354" lon="-1.041967">
        <ele>11.0</ele>
        <time>2020-08-12T17:21:01Z</time>
      </trkpt>
      <trkpt lat="45.932318" lon="-1.041866">
        <ele>11.0</ele>
        <time>2020-08-12T17:21:02Z</time>
      </trkpt>
      <trkpt lat="45.932349" lon="-1.04163">
        <ele>10.8</ele>
        <time>2020-08-12T17:21:03Z</time>
      </trkpt>
      <trkpt lat="45.932341" lon="-1.041317">
        <ele>10.8</ele>
        <time>2020-08-12T17:21:06Z</time>
      </trkpt>
      <trkpt lat="45.932312" lon="-1.041082">
        <ele>10.8</ele>
        <time>2020-08-12T17:21:07Z</time>
      </trkpt>
      <trkpt lat="45.932313" lon="-1.040878">
        <ele>10.8</ele>
        <time>2020-08-12T17:21:08Z</time>
      </trkpt>
      <trkpt lat="45.93241" lon="-1.040114">
        <ele>11.6</ele>
        <time>2020-08-12T17:21:11Z</time>
      </trkpt>
      <trkpt lat="45.932429" lon="-1.039811">
        <ele>12.4</ele>
        <time>2020-08-12T17:21:13Z</time>
      </trkpt>
      <trkpt lat="45.932385" lon="-1.038448">
        <ele>13.2</ele>
        <time>2020-08-12T17:21:19Z</time>
      </trkpt>
      <trkpt lat="45.932303" lon="-1.037085">
        <ele>12.8</ele>
        <time>2020-08-12T17:21:25Z</time>
      </trkpt>
      <trkpt lat="45.932226" lon="-1.036321">
        <ele>13.0</ele>
        <time>2020-08-12T17:21:28Z</time>
      </trkpt>
      <trkpt lat="45.932136" lon="-1.035661">
        <ele>13.6</ele>
        <time>2020-08-12T17:21:31Z</time>
      </trkpt>
      <trkpt lat="45.931977" lon="-1.034845">
        <ele>13.2</ele>
        <time>2020-08-12T17:21:35Z</time>
      </trkpt>
      <trkpt lat="45.931883" lon="-1.033996">
        <ele>12.2</ele>
        <time>2020-08-12T17:21:39Z</time>
      </trkpt>
      <trkpt lat="45.931824" lon="-1.033026">
        <ele>11.8</ele>
        <time>2020-08-12T17:21:43Z</time>
      </trkpt>
      <trkpt lat="45.931767" lon="-1.032359">
        <ele>12.6</ele>
        <time>2020-08-12T17:21:46Z</time>
      </trkpt>
      <trkpt lat="45.931698" lon="-1.031904">
        <ele>12.6</ele>
        <time>2020-08-12T17:21:49Z</time>
      </trkpt>
      <trkpt lat="45.931614" lon="-1.031532">
        <ele>15.2</ele>
        <time>2020-08-12T17:21:50Z</time>
      </trkpt>
      <trkpt lat="45.931302" lon="-1.030286">
        <ele>16.4</ele>
        <time>2020-08-12T17:21:56Z</time>
      </trkpt>
      <trkpt lat="45.931114" lon="-1.029622">
        <ele>17.2</ele>
        <time>2020-08-12T17:22:00Z</time>
      </trkpt>
      <trkpt lat="45.930317" lon="-1.027337">
        <ele>17.6</ele>
        <time>2020-08-12T17:22:11Z</time>
      </trkpt>
      <trkpt lat="45.928621" lon="-1.02325">
        <ele>19.6</ele>
        <time>2020-08-12T17:22:33Z</time>
      </trkpt>
      <trkpt lat="45.928336" lon="-1.022607">
        <ele>19.6</ele>
        <time>2020-08-12T17:22:36Z</time>
      </trkpt>
      <trkpt lat="45.927823" lon="-1.021565">
        <ele>17.4</ele>
        <time>2020-08-12T17:22:42Z</time>
      </trkpt>
      <trkpt lat="45.927345" lon="-1.020695">
        <ele>15.2</ele>
        <time>2020-08-12T17:22:47Z</time>
      </trkpt>
      <trkpt lat="45.926641" lon="-1.018989">
        <ele>12.2</ele>
        <time>2020-08-12T17:22:56Z</time>
      </trkpt>
      <trkpt lat="45.926541" lon="-1.018656">
        <ele>12.2</ele>
        <time>2020-08-12T17:22:57Z</time>
      </trkpt>
      <trkpt lat="45.926429" lon="-1.018208">
        <ele>10.6</ele>
        <time>2020-08-12T17:22:59Z</time>
      </trkpt>
      <trkpt lat="45.926202" lon="-1.016827">
        <ele>7.4</ele>
        <time>2020-08-12T17:23:06Z</time>
      </trkpt>
      <trkpt lat="45.925793" lon="-1.014121">
        <ele>11.4</ele>
        <time>2020-08-12T17:23:18Z</time>
      </trkpt>
      <trkpt lat="45.925647" lon="-1.012982">
        <ele>12.6</ele>
        <time>2020-08-12T17:23:24Z</time>
      </trkpt>
      <trkpt lat="45.925665" lon="-1.012657">
        <ele>12.6</ele>
        <time>2020-08-12T17:23:25Z</time>
      </trkpt>
      <trkpt lat="45.925714" lon="-1.01243">
        <ele>14.0</ele>
        <time>2020-08-12T17:23:26Z</time>
      </trkpt>
      <trkpt lat="45.925711" lon="-1.012313">
        <ele>14.0</ele>
        <time>2020-08-12T17:23:27Z</time>
      </trkpt>
      <trkpt lat="45.92581" lon="-1.012116">
        <ele>14.0</ele>
        <time>2020-08-12T17:23:28Z</time>
      </trkpt>
      <trkpt lat="45.9264" lon="-1.011129">
        <ele>13.2</ele>
        <time>2020-08-12T17:23:38Z</time>
      </trkpt>
      <trkpt lat="45.926502" lon="-1.01074">
        <ele>14.8</ele>
        <time>2020-08-12T17:23:41Z</time>
      </trkpt>
      <trkpt lat="45.926499" lon="-1.010555">
        <ele>14.8</ele>
        <time>2020-08-12T17:23:42Z</time>
      </trkpt>
      <trkpt lat="45.926463" lon="-1.010368">
        <ele>14.8</ele>
        <time>2020-08-12T17:23:43Z</time>
      </trkpt>
      <trkpt lat="45.926325" lon="-1.010063">
        <ele>14.8</ele>
        <time>2020-08-12T17:23:46Z</time>
      </trkpt>
      <trkpt lat="45.925862" lon="-1.008525">
        <ele>14.4</ele>
        <time>2020-08-12T17:23:58Z</time>
      </trkpt>
      <trkpt lat="45.925727" lon="-1.008158">
        <ele>12.6</ele>
        <time>2020-08-12T17:24:01Z</time>
      </trkpt>
      <trkpt lat="45.925627" lon="-1.008062">
        <ele>12.6</ele>
        <time>2020-08-12T17:24:02Z</time>
      </trkpt>
      <trkpt lat="45.92489" lon="-1.007761">
        <ele>14.6</ele>
        <time>2020-08-12T17:24:10Z</time>
      </trkpt>
      <trkpt lat="45.92463" lon="-1.007616">
        <ele>14.6</ele>
        <time>2020-08-12T17:24:13Z</time>
      </trkpt>
      <trkpt lat="45.924065" lon="-1.005829">
        <ele>14.8</ele>
        <time>2020-08-12T17:24:27Z</time>
      </trkpt>
      <trkpt lat="45.923929" lon="-1.005485">
        <ele>14.8</ele>
        <time>2020-08-12T17:24:30Z</time>
      </trkpt>
      <trkpt lat="45.923808" lon="-1.005263">
        <ele>14.8</ele>
        <time>2020-08-12T17:24:32Z</time>
      </trkpt>
      <trkpt lat="45.922824" lon="-1.003917">
        <ele>15.0</ele>
        <time>2020-08-12T17:24:45Z</time>
      </trkpt>
      <trkpt lat="45.922526" lon="-1.003629">
        <ele>15.0</ele>
        <time>2020-08-12T17:24:49Z</time>
      </trkpt>
      <trkpt lat="45.922268" lon="-1.003462">
        <ele>15.0</ele>
        <time>2020-08-12T17:24:52Z</time>
      </trkpt>
      <trkpt lat="45.921694" lon="-1.003222">
        <ele>14.0</ele>
        <time>2020-08-12T17:24:58Z</time>
      </trkpt>
      <trkpt lat="45.921675" lon="-1.003268">
        <ele>14.0</ele>
        <time>2020-08-12T17:24:58Z</time>
      </trkpt>
      <trkpt lat="45.921613" lon="-1.003326">
        <ele>12.8</ele>
        <time>2020-08-12T17:24:59Z</time>
      </trkpt>
      <trkpt lat="45.921547" lon="-1.003327">
        <ele>12.8</ele>
        <time>2020-08-12T17:24:59Z</time>
      </trkpt>
      <trkpt lat="45.921473" lon="-1.003245">
        <ele>12.8</ele>
        <time>2020-08-12T17:24:59Z</time>
      </trkpt>
      <trkpt lat="45.921457" lon="-1.003139">
        <ele>12.8</ele>
        <time>2020-08-12T17:25:00Z</time>
      </trkpt>
      <trkpt lat="45.921466" lon="-1.003085">
        <ele>12.8</ele>
        <time>2020-08-12T17:25:00Z</time>
      </trkpt>
      <trkpt lat="45.921381" lon="-1.003059">
        <ele>12.8</ele>
        <time>2020-08-12T17:25:01Z</time>
      </trkpt>
      <trkpt lat="45.920279" lon="-1.002501">
        <ele>11.0</ele>
        <time>2020-08-12T17:25:06Z</time>
      </trkpt>
      <trkpt lat="45.919753" lon="-1.002273">
        <ele>10.6</ele>
        <time>2020-08-12T17:25:09Z</time>
      </trkpt>
      <trkpt lat="45.919315" lon="-1.001998">
        <ele>10.6</ele>
        <time>2020-08-12T17:25:12Z</time>
      </trkpt>
      <trkpt lat="45.919157" lon="-1.001823">
        <ele>12.4</ele>
        <time>2020-08-12T17:25:13Z</time>
      </trkpt>
      <trkpt lat="45.919015" lon="-1.001604">
        <ele>12.2</ele>
        <time>2020-08-12T17:25:14Z</time>
      </trkpt>
      <trkpt lat="45.918004" lon="-0.99972">
        <ele>13.4</ele>
        <time>2020-08-12T17:25:22Z</time>
      </trkpt>
      <trkpt lat="45.917692" lon="-0.999205">
        <ele>13.4</ele>
        <time>2020-08-12T17:25:24Z</time>
      </trkpt>
      <trkpt lat="45.917396" lon="-0.998544">
        <ele>11.8</ele>
        <time>2020-08-12T17:25:27Z</time>
      </trkpt>
      <trkpt lat="45.917225" lon="-0.998113">
        <ele>10.4</ele>
        <time>2020-08-12T17:25:29Z</time>
      </trkpt>
      <trkpt lat="45.916583" lon="-0.996343">
        <ele>4.4</ele>
        <time>2020-08-12T17:25:36Z</time>
      </trkpt>
      <trkpt lat="45.915917" lon="-0.99457">
        <ele>4.6</ele>
        <time>2020-08-12T17:25:43Z</time>
      </trkpt>
      <trkpt lat="45.914863" lon="-0.991667">
        <ele>13.0</ele>
        <time>2020-08-12T17:25:55Z</time>
      </trkpt>
      <trkpt lat="45.914628" lon="-0.990969">
        <ele>12.8</ele>
        <time>2020-08-12T17:25:57Z</time>
      </trkpt>
      <trkpt lat="45.912406" lon="-0.985014">
        <ele>9.8</ele>
        <time>2020-08-12T17:26:21Z</time>
      </trkpt>
      <trkpt lat="45.91222" lon="-0.984478">
        <ele>8.6</ele>
        <time>2020-08-12T17:26:23Z</time>
      </trkpt>
      <trkpt lat="45.911966" lon="-0.983577">
        <ele>6.2</ele>
        <time>2020-08-12T17:26:27Z</time>
      </trkpt>
      <trkpt lat="45.911817" lon="-0.9826">
        <ele>4.2</ele>
        <time>2020-08-12T17:26:30Z</time>
      </trkpt>
      <trkpt lat="45.911787" lon="-0.98186">
        <ele>3.6</ele>
        <time>2020-08-12T17:26:33Z</time>
      </trkpt>
      <trkpt lat="45.911802" lon="-0.980797">
        <ele>5.4</ele>
        <time>2020-08-12T17:26:37Z</time>
      </trkpt>
      <trkpt lat="45.911686" lon="-0.97992">
        <ele>6.6</ele>
        <time>2020-08-12T17:26:40Z</time>
      </trkpt>
      <trkpt lat="45.911644" lon="-0.979926">
        <ele>7.4</ele>
        <time>2020-08-12T17:26:40Z</time>
      </trkpt>
      <trkpt lat="45.911567" lon="-0.979883">
        <ele>7.4</ele>
        <time>2020-08-12T17:26:41Z</time>
      </trkpt>
      <trkpt lat="45.911539" lon="-0.979839">
        <ele>7.4</ele>
        <time>2020-08-12T17:26:41Z</time>
      </trkpt>
      <trkpt lat="45.911515" lon="-0.979719">
        <ele>7.4</ele>
        <time>2020-08-12T17:26:41Z</time>
      </trkpt>
      <trkpt lat="45.911545" lon="-0.979601">
        <ele>7.4</ele>
        <time>2020-08-12T17:26:42Z</time>
      </trkpt>
      <trkpt lat="45.911577" lon="-0.979559">
        <ele>7.4</ele>
        <time>2020-08-12T17:26:42Z</time>
      </trkpt>
      <trkpt lat="45.911519" lon="-0.979398">
        <ele>7.4</ele>
        <time>2020-08-12T17:26:43Z</time>
      </trkpt>
      <trkpt lat="45.911336" lon="-0.97901">
        <ele>7.2</ele>
        <time>2020-08-12T17:26:45Z</time>
      </trkpt>
      <trkpt lat="45.910193" lon="-0.977333">
        <ele>8.4</ele>
        <time>2020-08-12T17:26:56Z</time>
      </trkpt>
      <trkpt lat="45.909841" lon="-0.97678">
        <ele>8.2</ele>
        <time>2020-08-12T17:27:00Z</time>
      </trkpt>
      <trkpt lat="45.909046" lon="-0.975392">
        <ele>10.2</ele>
        <time>2020-08-12T17:27:08Z</time>
      </trkpt>
      <trkpt lat="45.908599" lon="-0.97451">
        <ele>9.8</ele>
        <time>2020-08-12T17:27:13Z</time>
      </trkpt>
      <trkpt lat="45.90811" lon="-0.973337">
        <ele>10.0</ele>
        <time>2020-08-12T17:27:20Z</time>
      </trkpt>
      <trkpt lat="45.907068" lon="-0.970495">
        <ele>10.0</ele>
        <time>2020-08-12T17:27:35Z</time>
      </trkpt>
      <trkpt lat="45.90674" lon="-0.969647">
        <ele>9.4</ele>
        <time>2020-08-12T17:27:39Z</time>
      </trkpt>
      <trkpt lat="45.906448" lon="-0.968768">
        <ele>10.6</ele>
        <time>2020-08-12T17:27:44Z</time>
      </trkpt>
      <trkpt lat="45.906212" lon="-0.967917">
        <ele>10.4</ele>
        <time>2020-08-12T17:27:48Z</time>
      </trkpt>
      <trkpt lat="45.905986" lon="-0.967377">
        <ele>10.4</ele>
        <time>2020-08-12T17:27:51Z</time>
      </trkpt>
      <trkpt lat="45.905956" lon="-0.967397">
        <ele>10.4</ele>
        <time>2020-08-12T17:27:51Z</time>
      </trkpt>
      <trkpt lat="45.905857" lon="-0.967393">
        <ele>10.4</ele>
        <time>2020-08-12T17:27:52Z</time>
      </trkpt>
      <trkpt lat="45.905783" lon="-0.9673">
        <ele>11.4</ele>
        <time>2020-08-12T17:27:52Z</time>
      </trkpt>
      <trkpt lat="45.905765" lon="-0.967215">
        <ele>11.4</ele>
        <time>2020-08-12T17:27:52Z</time>
      </trkpt>
      <trkpt lat="45.905772" lon="-0.967133">
        <ele>11.4</ele>
        <time>2020-08-12T17:27:53Z</time>
      </trkpt>
      <trkpt lat="45.905715" lon="-0.96692">
        <ele>11.4</ele>
        <time>2020-08-12T17:27:53Z</time>
      </trkpt>
      <trkpt lat="45.905227" lon="-0.965971">
        <ele>11.0</ele>
        <time>2020-08-12T17:27:57Z</time>
      </trkpt>
      <trkpt lat="45.905072" lon="-0.965777">
        <ele>11.0</ele>
        <time>2020-08-12T17:27:58Z</time>
      </trkpt>
      <trkpt lat="45.904992" lon="-0.965755">
        <ele>10.8</ele>
        <time>2020-08-12T17:27:59Z</time>
      </trkpt>
      <trkpt lat="45.904949" lon="-0.965706">
        <ele>10.8</ele>
        <time>2020-08-12T17:27:59Z</time>
      </trkpt>
      <trkpt lat="45.904918" lon="-0.965617">
        <ele>10.8</ele>
        <time>2020-08-12T17:28:00Z</time>
      </trkpt>
      <trkpt lat="45.904915" lon="-0.965557">
        <ele>10.8</ele>
        <time>2020-08-12T17:28:00Z</time>
      </trkpt>
      <trkpt lat="45.904944" lon="-0.965446">
        <ele>10.8</ele>
        <time>2020-08-12T17:28:00Z</time>
      </trkpt>
      <trkpt lat="45.905016" lon="-0.965374">
        <ele>11.0</ele>
        <time>2020-08-12T17:28:01Z</time>
      </trkpt>
      <trkpt lat="45.905108" lon="-0.965377">
        <ele>11.0</ele>
        <time>2020-08-12T17:28:02Z</time>
      </trkpt>
      <trkpt lat="45.905176" lon="-0.965451">
        <ele>11.0</ele>
        <time>2020-08-12T17:28:02Z</time>
      </trkpt>
      <trkpt lat="45.905202" lon="-0.965557">
        <ele>11.0</ele>
        <time>2020-08-12T17:28:03Z</time>
      </trkpt>
      <trkpt lat="45.905352" lon="-0.965642">
        <ele>11.0</ele>
        <time>2020-08-12T17:28:04Z</time>
      </trkpt>
      <trkpt lat="45.905899" lon="-0.965609">
        <ele>10.2</ele>
        <time>2020-08-12T17:28:08Z</time>
      </trkpt>
      <trkpt lat="45.906833" lon="-0.965608">
        <ele>9.6</ele>
        <time>2020-08-12T17:28:15Z</time>
      </trkpt>
      <trkpt lat="45.907595" lon="-0.965468">
        <ele>8.8</ele>
        <time>2020-08-12T17:28:20Z</time>
      </trkpt>
      <trkpt lat="45.908666" lon="-0.965322">
        <ele>9.8</ele>
        <time>2020-08-12T17:28:28Z</time>
      </trkpt>
      <trkpt lat="45.90957" lon="-0.965311">
        <ele>11.0</ele>
        <time>2020-08-12T17:28:34Z</time>
      </trkpt>
      <trkpt lat="45.911062" lon="-0.965191">
        <ele>11.2</ele>
        <time>2020-08-12T17:28:45Z</time>
      </trkpt>
      <trkpt lat="45.911769" lon="-0.965166">
        <ele>11.4</ele>
        <time>2020-08-12T17:28:50Z</time>
      </trkpt>
      <trkpt lat="45.912377" lon="-0.965178">
        <ele>11.4</ele>
        <time>2020-08-12T17:28:54Z</time>
      </trkpt>
      <trkpt lat="45.912964" lon="-0.965225">
        <ele>11.6</ele>
        <time>2020-08-12T17:28:58Z</time>
      </trkpt>
      <trkpt lat="45.913522" lon="-0.965303">
        <ele>11.2</ele>
        <time>2020-08-12T17:29:02Z</time>
      </trkpt>
      <trkpt lat="45.913921" lon="-0.965374">
        <ele>11.2</ele>
        <time>2020-08-12T17:29:05Z</time>
      </trkpt>
      <trkpt lat="45.914681" lon="-0.965554">
        <ele>9.4</ele>
        <time>2020-08-12T17:29:11Z</time>
      </trkpt>
      <trkpt lat="45.915582" lon="-0.965843">
        <ele>4.6</ele>
        <time>2020-08-12T17:29:17Z</time>
      </trkpt>
      <trkpt lat="45.916289" lon="-0.966132">
        <ele>4.2</ele>
        <time>2020-08-12T17:29:22Z</time>
      </trkpt>
      <trkpt lat="45.917172" lon="-0.966561">
        <ele>3.4</ele>
        <time>2020-08-12T17:29:29Z</time>
      </trkpt>
      <trkpt lat="45.918072" lon="-0.967092">
        <ele>1.6</ele>
        <time>2020-08-12T17:29:36Z</time>
      </trkpt>
      <trkpt lat="45.918893" lon="-0.967665">
        <ele>2.4</ele>
        <time>2020-08-12T17:29:42Z</time>
      </trkpt>
      <trkpt lat="45.919499" lon="-0.968143">
        <ele>4.2</ele>
        <time>2020-08-12T17:29:47Z</time>
      </trkpt>
      <trkpt lat="45.919916" lon="-0.968503">
        <ele>3.0</ele>
        <time>2020-08-12T17:29:51Z</time>
      </trkpt>
      <trkpt lat="45.920508" lon="-0.96906">
        <ele>4.2</ele>
        <time>2020-08-12T17:29:56Z</time>
      </trkpt>
      <trkpt lat="45.921113" lon="-0.969691">
        <ele>2.6</ele>
        <time>2020-08-12T17:30:01Z</time>
      </trkpt>
      <trkpt lat="45.921868" lon="-0.970588">
        <ele>1.6</ele>
        <time>2020-08-12T17:30:08Z</time>
      </trkpt>
      <trkpt lat="45.922103" lon="-0.970911">
        <ele>2.4</ele>
        <time>2020-08-12T17:30:10Z</time>
      </trkpt>
      <trkpt lat="45.923167" lon="-0.972247">
        <ele>2.0</ele>
        <time>2020-08-12T17:30:20Z</time>
      </trkpt>
      <trkpt lat="45.924228" lon="-0.97362">
        <ele>0.4</ele>
        <time>2020-08-12T17:30:31Z</time>
      </trkpt>
      <trkpt lat="45.924761" lon="-0.974347">
        <ele>0.8</ele>
        <time>2020-08-12T17:30:36Z</time>
      </trkpt>
      <trkpt lat="45.925695" lon="-0.975527">
        <ele>1.2</ele>
        <time>2020-08-12T17:30:45Z</time>
      </trkpt>
      <trkpt lat="45.926973" lon="-0.9772">
        <ele>-0.2</ele>
        <time>2020-08-12T17:30:57Z</time>
      </trkpt>
      <trkpt lat="45.927408" lon="-0.977729">
        <ele>-0.4</ele>
        <time>2020-08-12T17:31:01Z</time>
      </trkpt>
      <trkpt lat="45.928085" lon="-0.978453">
        <ele>0.6</ele>
        <time>2020-08-12T17:31:07Z</time>
      </trkpt>
      <trkpt lat="45.93064" lon="-0.981035">
        <ele>1.0</ele>
        <time>2020-08-12T17:31:29Z</time>
      </trkpt>
      <trkpt lat="45.932474" lon="-0.982924">
        <ele>0.4</ele>
        <time>2020-08-12T17:31:45Z</time>
      </trkpt>
      <trkpt lat="45.933396" lon="-0.983844">
        <ele>0.8</ele>
        <time>2020-08-12T17:31:53Z</time>
      </trkpt>
      <trkpt lat="45.933653" lon="-0.984043">
        <ele>0.8</ele>
        <time>2020-08-12T17:31:55Z</time>
      </trkpt>
      <trkpt lat="45.934275" lon="-0.984384">
        <ele>0.0</ele>
        <time>2020-08-12T17:32:00Z</time>
      </trkpt>
      <trkpt lat="45.934658" lon="-0.984521">
        <ele>0.0</ele>
        <time>2020-08-12T17:32:03Z</time>
      </trkpt>
      <trkpt lat="45.935013" lon="-0.984608">
        <ele>1.6</ele>
        <time>2020-08-12T17:32:05Z</time>
      </trkpt>
      <trkpt lat="45.935319" lon="-0.984644">
        <ele>1.6</ele>
        <time>2020-08-12T17:32:08Z</time>
      </trkpt>
      <trkpt lat="45.935555" lon="-0.984651">
        <ele>1.6</ele>
        <time>2020-08-12T17:32:09Z</time>
      </trkpt>
      <trkpt lat="45.935935" lon="-0.984591">
        <ele>3.2</ele>
        <time>2020-08-12T17:32:12Z</time>
      </trkpt>
      <trkpt lat="45.93609" lon="-0.984542">
        <ele>3.2</ele>
        <time>2020-08-12T17:32:13Z</time>
      </trkpt>
      <trkpt lat="45.936327" lon="-0.984446">
        <ele>3.2</ele>
        <time>2020-08-12T17:32:15Z</time>
      </trkpt>
      <trkpt lat="45.936439" lon="-0.984365">
        <ele>3.2</ele>
        <time>2020-08-12T17:32:16Z</time>
      </trkpt>
      <trkpt lat="45.93649" lon="-0.984295">
        <ele>3.2</ele>
        <time>2020-08-12T17:32:16Z</time>
      </trkpt>
      <trkpt lat="45.936528" lon="-0.984195">
        <ele>3.2</ele>
        <time>2020-08-12T17:32:17Z</time>
      </trkpt>
      <trkpt lat="45.936567" lon="-0.984042">
        <ele>4.2</ele>
        <time>2020-08-12T17:32:18Z</time>
      </trkpt>
      <trkpt lat="45.936641" lon="-0.983918">
        <ele>4.2</ele>
        <time>2020-08-12T17:32:20Z</time>
      </trkpt>
      <trkpt lat="45.936739" lon="-0.983837">
        <ele>3.8</ele>
        <time>2020-08-12T17:32:21Z</time>
      </trkpt>
      <trkpt lat="45.936846" lon="-0.983809">
        <ele>3.8</ele>
        <time>2020-08-12T17:32:23Z</time>
      </trkpt>
      <trkpt lat="45.936952" lon="-0.983832">
        <ele>3.8</ele>
        <time>2020-08-12T17:32:24Z</time>
      </trkpt>
      <trkpt lat="45.937048" lon="-0.983904">
        <ele>3.8</ele>
        <time>2020-08-12T17:32:26Z</time>
      </trkpt>
      <trkpt lat="45.937096" lon="-0.983968">
        <ele>3.8</ele>
        <time>2020-08-12T17:32:26Z</time>
      </trkpt>
      <trkpt lat="45.937231" lon="-0.984235">
        <ele>4.0</ele>
        <time>2020-08-12T17:32:29Z</time>
      </trkpt>
      <trkpt lat="45.937282" lon="-0.984306">
        <ele>4.0</ele>
        <time>2020-08-12T17:32:30Z</time>
      </trkpt>
      <trkpt lat="45.937359" lon="-0.984368">
        <ele>4.0</ele>
        <time>2020-08-12T17:32:32Z</time>
      </trkpt>
      <trkpt lat="45.937543" lon="-0.984454">
        <ele>3.8</ele>
        <time>2020-08-12T17:32:34Z</time>
      </trkpt>
      <trkpt lat="45.937861" lon="-0.984476">
        <ele>3.8</ele>
        <time>2020-08-12T17:32:38Z</time>
      </trkpt>
      <trkpt lat="45.938004" lon="-0.984504">
        <ele>3.8</ele>
        <time>2020-08-12T17:32:40Z</time>
      </trkpt>
      <trkpt lat="45.938134" lon="-0.984565">
        <ele>3.8</ele>
        <time>2020-08-12T17:32:42Z</time>
      </trkpt>
      <trkpt lat="45.938331" lon="-0.98474">
        <ele>3.8</ele>
        <time>2020-08-12T17:32:45Z</time>
      </trkpt>
      <trkpt lat="45.938766" lon="-0.98536">
        <ele>2.8</ele>
        <time>2020-08-12T17:32:53Z</time>
      </trkpt>
      <trkpt lat="45.938912" lon="-0.985536">
        <ele>2.8</ele>
        <time>2020-08-12T17:32:56Z</time>
      </trkpt>
      <trkpt lat="45.940796" lon="-0.987045">
        <ele>2.0</ele>
        <time>2020-08-12T17:33:24Z</time>
      </trkpt>
      <trkpt lat="45.941239" lon="-0.987428">
        <ele>2.4</ele>
        <time>2020-08-12T17:33:31Z</time>
      </trkpt>
      <trkpt lat="45.942475" lon="-0.98866">
        <ele>2.4</ele>
        <time>2020-08-12T17:33:51Z</time>
      </trkpt>
      <trkpt lat="45.942725" lon="-0.988863">
        <ele>2.8</ele>
        <time>2020-08-12T17:33:54Z</time>
      </trkpt>
      <trkpt lat="45.943227" lon="-0.989169">
        <ele>1.6</ele>
        <time>2020-08-12T17:34:01Z</time>
      </trkpt>
      <trkpt lat="45.943471" lon="-0.989251">
        <ele>2.2</ele>
        <time>2020-08-12T17:34:05Z</time>
      </trkpt>
      <trkpt lat="45.943993" lon="-0.989326">
        <ele>2.2</ele>
        <time>2020-08-12T17:34:12Z</time>
      </trkpt>
      <trkpt lat="45.94427" lon="-0.989317">
        <ele>1.8</ele>
        <time>2020-08-12T17:34:15Z</time>
      </trkpt>
      <trkpt lat="45.945199" lon="-0.98901">
        <ele>1.2</ele>
        <time>2020-08-12T17:34:28Z</time>
      </trkpt>
      <trkpt lat="45.946035" lon="-0.988651">
        <ele>0.4</ele>
        <time>2020-08-12T17:34:39Z</time>
      </trkpt>
      <trkpt lat="45.946721" lon="-0.988282">
        <ele>1.6</ele>
        <time>2020-08-12T17:34:49Z</time>
      </trkpt>
      <trkpt lat="45.946849" lon="-0.988186">
        <ele>1.6</ele>
        <time>2020-08-12T17:34:51Z</time>
      </trkpt>
      <trkpt lat="45.946881" lon="-0.988048">
        <ele>1.6</ele>
        <time>2020-08-12T17:34:52Z</time>
      </trkpt>
      <trkpt lat="45.946955" lon="-0.987974">
        <ele>1.6</ele>
        <time>2020-08-12T17:34:52Z</time>
      </trkpt>
      <trkpt lat="45.947006" lon="-0.987964">
        <ele>1.6</ele>
        <time>2020-08-12T17:34:53Z</time>
      </trkpt>
      <trkpt lat="45.947094" lon="-0.988011">
        <ele>1.6</ele>
        <time>2020-08-12T17:34:53Z</time>
      </trkpt>
      <trkpt lat="45.9475" lon="-0.987933">
        <ele>1.6</ele>
        <time>2020-08-12T17:34:56Z</time>
      </trkpt>
      <trkpt lat="45.947846" lon="-0.987849">
        <ele>2.2</ele>
        <time>2020-08-12T17:34:59Z</time>
      </trkpt>
      <trkpt lat="45.948166" lon="-0.9877">
        <ele>2.2</ele>
        <time>2020-08-12T17:35:02Z</time>
      </trkpt>
      <trkpt lat="45.948462" lon="-0.987539">
        <ele>2.8</ele>
        <time>2020-08-12T17:35:04Z</time>
      </trkpt>
      <trkpt lat="45.949762" lon="-0.98675">
        <ele>3.6</ele>
        <time>2020-08-12T17:35:15Z</time>
      </trkpt>
      <trkpt lat="45.95037" lon="-0.986352">
        <ele>4.0</ele>
        <time>2020-08-12T17:35:20Z</time>
      </trkpt>
      <trkpt lat="45.952128" lon="-0.985055">
        <ele>1.6</ele>
        <time>2020-08-12T17:35:34Z</time>
      </trkpt>
      <trkpt lat="45.952663" lon="-0.984627">
        <ele>2.4</ele>
        <time>2020-08-12T17:35:39Z</time>
      </trkpt>
      <trkpt lat="45.9537" lon="-0.983732">
        <ele>3.2</ele>
        <time>2020-08-12T17:35:48Z</time>
      </trkpt>
      <trkpt lat="45.954231" lon="-0.983239">
        <ele>3.6</ele>
        <time>2020-08-12T17:35:53Z</time>
      </trkpt>
      <trkpt lat="45.955299" lon="-0.982185">
        <ele>3.8</ele>
        <time>2020-08-12T17:36:03Z</time>
      </trkpt>
      <trkpt lat="45.956538" lon="-0.980881">
        <ele>3.4</ele>
        <time>2020-08-12T17:36:14Z</time>
      </trkpt>
      <trkpt lat="45.957062" lon="-0.980256">
        <ele>3.2</ele>
        <time>2020-08-12T17:36:19Z</time>
      </trkpt>
      <trkpt lat="45.957447" lon="-0.979712">
        <ele>4.6</ele>
        <time>2020-08-12T17:36:23Z</time>
      </trkpt>
      <trkpt lat="45.957639" lon="-0.979392">
        <ele>3.6</ele>
        <time>2020-08-12T17:36:25Z</time>
      </trkpt>
      <trkpt lat="45.957813" lon="-0.979145">
        <ele>5.0</ele>
        <time>2020-08-12T17:36:27Z</time>
      </trkpt>
      <trkpt lat="45.957935" lon="-0.97891">
        <ele>5.0</ele>
        <time>2020-08-12T17:36:29Z</time>
      </trkpt>
      <trkpt lat="45.957871" lon="-0.97873">
        <ele>5.0</ele>
        <time>2020-08-12T17:36:30Z</time>
      </trkpt>
      <trkpt lat="45.95786" lon="-0.978583">
        <ele>5.0</ele>
        <time>2020-08-12T17:36:31Z</time>
      </trkpt>
      <trkpt lat="45.957881" lon="-0.978437">
        <ele>5.0</ele>
        <time>2020-08-12T17:36:32Z</time>
      </trkpt>
      <trkpt lat="45.957926" lon="-0.978316">
        <ele>6.2</ele>
        <time>2020-08-12T17:36:33Z</time>
      </trkpt>
      <trkpt lat="45.957993" lon="-0.978219">
        <ele>6.2</ele>
        <time>2020-08-12T17:36:34Z</time>
      </trkpt>
      <trkpt lat="45.958077" lon="-0.978152">
        <ele>6.2</ele>
        <time>2020-08-12T17:36:35Z</time>
      </trkpt>
      <trkpt lat="45.958169" lon="-0.978121">
        <ele>6.2</ele>
        <time>2020-08-12T17:36:36Z</time>
      </trkpt>
      <trkpt lat="45.958265" lon="-0.978128">
        <ele>6.2</ele>
        <time>2020-08-12T17:36:37Z</time>
      </trkpt>
      <trkpt lat="45.958391" lon="-0.978204">
        <ele>5.6</ele>
        <time>2020-08-12T17:36:38Z</time>
      </trkpt>
      <trkpt lat="45.958461" lon="-0.978297">
        <ele>5.6</ele>
        <time>2020-08-12T17:36:39Z</time>
      </trkpt>
      <trkpt lat="45.95851" lon="-0.978414">
        <ele>5.4</ele>
        <time>2020-08-12T17:36:40Z</time>
      </trkpt>
      <trkpt lat="45.958535" lon="-0.978546">
        <ele>5.4</ele>
        <time>2020-08-12T17:36:41Z</time>
      </trkpt>
      <trkpt lat="45.958744" lon="-0.978716">
        <ele>5.4</ele>
        <time>2020-08-12T17:36:43Z</time>
      </trkpt>
      <trkpt lat="45.95904" lon="-0.978796">
        <ele>5.4</ele>
        <time>2020-08-12T17:36:46Z</time>
      </trkpt>
      <trkpt lat="45.959226" lon="-0.978873">
        <ele>6.2</ele>
        <time>2020-08-12T17:36:48Z</time>
      </trkpt>
      <trkpt lat="45.962671" lon="-0.979643">
        <ele>9.0</ele>
        <time>2020-08-12T17:37:21Z</time>
      </trkpt>
      <trkpt lat="45.964745" lon="-0.980146">
        <ele>13.0</ele>
        <time>2020-08-12T17:37:40Z</time>
      </trkpt>
      <trkpt lat="45.965312" lon="-0.980232">
        <ele>14.4</ele>
        <time>2020-08-12T17:37:46Z</time>
      </trkpt>
      <trkpt lat="45.966186" lon="-0.980224">
        <ele>15.2</ele>
        <time>2020-08-12T17:37:54Z</time>
      </trkpt>
      <trkpt lat="45.966429" lon="-0.98025">
        <ele>15.2</ele>
        <time>2020-08-12T17:37:56Z</time>
      </trkpt>
      <trkpt lat="45.966951" lon="-0.980407">
        <ele>15.8</ele>
        <time>2020-08-12T17:38:01Z</time>
      </trkpt>
      <trkpt lat="45.967015" lon="-0.980347">
        <ele>15.8</ele>
        <time>2020-08-12T17:38:02Z</time>
      </trkpt>
      <trkpt lat="45.96709" lon="-0.980321">
        <ele>15.8</ele>
        <time>2020-08-12T17:38:02Z</time>
      </trkpt>
      <trkpt lat="45.967167" lon="-0.980331">
        <ele>15.8</ele>
        <time>2020-08-12T17:38:03Z</time>
      </trkpt>
      <trkpt lat="45.967237" lon="-0.980378">
        <ele>15.8</ele>
        <time>2020-08-12T17:38:03Z</time>
      </trkpt>
      <trkpt lat="45.967293" lon="-0.980454">
        <ele>15.8</ele>
        <time>2020-08-12T17:38:03Z</time>
      </trkpt>
      <trkpt lat="45.967328" lon="-0.980553">
        <ele>15.8</ele>
        <time>2020-08-12T17:38:04Z</time>
      </trkpt>
      <trkpt lat="45.967418" lon="-0.980659">
        <ele>15.8</ele>
        <time>2020-08-12T17:38:04Z</time>
      </trkpt>
      <trkpt lat="45.967488" lon="-0.980708">
        <ele>15.8</ele>
        <time>2020-08-12T17:38:05Z</time>
      </trkpt>
      <trkpt lat="45.967648" lon="-0.980774">
        <ele>16.0</ele>
        <time>2020-08-12T17:38:06Z</time>
      </trkpt>
      <trkpt lat="45.968381" lon="-0.980948">
        <ele>15.0</ele>
        <time>2020-08-12T17:38:10Z</time>
      </trkpt>
      <trkpt lat="45.968501" lon="-0.980995">
        <ele>15.0</ele>
        <time>2020-08-12T17:38:10Z</time>
      </trkpt>
      <trkpt lat="45.968631" lon="-0.98107">
        <ele>15.0</ele>
        <time>2020-08-12T17:38:11Z</time>
      </trkpt>
      <trkpt lat="45.968774" lon="-0.981203">
        <ele>15.0</ele>
        <time>2020-08-12T17:38:12Z</time>
      </trkpt>
      <trkpt lat="45.968834" lon="-0.981284">
        <ele>15.0</ele>
        <time>2020-08-12T17:38:12Z</time>
      </trkpt>
      <trkpt lat="45.968894" lon="-0.981371">
        <ele>15.0</ele>
        <time>2020-08-12T17:38:13Z</time>
      </trkpt>
      <trkpt lat="45.968995" lon="-0.981601">
        <ele>15.0</ele>
        <time>2020-08-12T17:38:14Z</time>
      </trkpt>
      <trkpt lat="45.969087" lon="-0.981926">
        <ele>14.8</ele>
        <time>2020-08-12T17:38:15Z</time>
      </trkpt>
      <trkpt lat="45.969222" lon="-0.982584">
        <ele>12.6</ele>
        <time>2020-08-12T17:38:17Z</time>
      </trkpt>
      <trkpt lat="45.969338" lon="-0.982964">
        <ele>12.6</ele>
        <time>2020-08-12T17:38:19Z</time>
      </trkpt>
      <trkpt lat="45.969466" lon="-0.983261">
        <ele>12.6</ele>
        <time>2020-08-12T17:38:20Z</time>
      </trkpt>
      <trkpt lat="45.97003" lon="-0.984241">
        <ele>9.8</ele>
        <time>2020-08-12T17:38:25Z</time>
      </trkpt>
      <trkpt lat="45.970566" lon="-0.984959">
        <ele>9.8</ele>
        <time>2020-08-12T17:38:29Z</time>
      </trkpt>
      <trkpt lat="45.970857" lon="-0.985307">
        <ele>7.8</ele>
        <time>2020-08-12T17:38:31Z</time>
      </trkpt>
      <trkpt lat="45.97261" lon="-0.98733">
        <ele>4.8</ele>
        <time>2020-08-12T17:38:42Z</time>
      </trkpt>
      <trkpt lat="45.973213" lon="-0.9881">
        <ele>3.8</ele>
        <time>2020-08-12T17:38:46Z</time>
      </trkpt>
      <trkpt lat="45.973709" lon="-0.988784">
        <ele>2.6</ele>
        <time>2020-08-12T17:38:50Z</time>
      </trkpt>
      <trkpt lat="45.974369" lon="-0.989792">
        <ele>2.4</ele>
        <time>2020-08-12T17:38:55Z</time>
      </trkpt>
      <trkpt lat="45.979177" lon="-0.997367">
        <ele>1.8</ele>
        <time>2020-08-12T17:39:32Z</time>
      </trkpt>
      <trkpt lat="45.979405" lon="-0.997782">
        <ele>1.6</ele>
        <time>2020-08-12T17:39:34Z</time>
      </trkpt>
      <trkpt lat="45.97977" lon="-0.998607">
        <ele>1.6</ele>
        <time>2020-08-12T17:39:37Z</time>
      </trkpt>
      <trkpt lat="45.979911" lon="-0.999002">
        <ele>1.6</ele>
        <time>2020-08-12T17:39:39Z</time>
      </trkpt>
      <trkpt lat="45.980038" lon="-0.99946">
        <ele>2.6</ele>
        <time>2020-08-12T17:39:41Z</time>
      </trkpt>
      <trkpt lat="45.980168" lon="-1.000019">
        <ele>2.6</ele>
        <time>2020-08-12T17:39:43Z</time>
      </trkpt>
      <trkpt lat="45.980256" lon="-1.000553">
        <ele>2.6</ele>
        <time>2020-08-12T17:39:45Z</time>
      </trkpt>
      <trkpt lat="45.980306" lon="-1.001138">
        <ele>2.0</ele>
        <time>2020-08-12T17:39:47Z</time>
      </trkpt>
      <trkpt lat="45.980337" lon="-1.001747">
        <ele>2.0</ele>
        <time>2020-08-12T17:39:49Z</time>
      </trkpt>
      <trkpt lat="45.980605" lon="-1.007928">
        <ele>1.6</ele>
        <time>2020-08-12T17:40:12Z</time>
      </trkpt>
      <trkpt lat="45.980776" lon="-1.010779">
        <ele>2.4</ele>
        <time>2020-08-12T17:40:22Z</time>
      </trkpt>
      <trkpt lat="45.980859" lon="-1.011873">
        <ele>2.2</ele>
        <time>2020-08-12T17:40:26Z</time>
      </trkpt>
      <trkpt lat="45.981082" lon="-1.013429">
        <ele>1.8</ele>
        <time>2020-08-12T17:40:32Z</time>
      </trkpt>
      <trkpt lat="45.981404" lon="-1.014714">
        <ele>1.4</ele>
        <time>2020-08-12T17:40:36Z</time>
      </trkpt>
      <trkpt lat="45.981576" lon="-1.015313">
        <ele>1.2</ele>
        <time>2020-08-12T17:40:39Z</time>
      </trkpt>
      <trkpt lat="45.987146" lon="-1.03054">
        <ele>10.2</ele>
        <time>2020-08-12T17:41:41Z</time>
      </trkpt>
      <trkpt lat="45.987704" lon="-1.032169">
        <ele>13.2</ele>
        <time>2020-08-12T17:41:47Z</time>
      </trkpt>
      <trkpt lat="45.98865" lon="-1.034776">
        <ele>14.8</ele>
        <time>2020-08-12T17:41:58Z</time>
      </trkpt>
      <trkpt lat="45.988965" lon="-1.035458">
        <ele>15.4</ele>
        <time>2020-08-12T17:42:01Z</time>
      </trkpt>
      <trkpt lat="45.989179" lon="-1.035839">
        <ele>15.6</ele>
        <time>2020-08-12T17:42:03Z</time>
      </trkpt>
      <trkpt lat="45.989685" lon="-1.036535">
        <ele>15.6</ele>
        <time>2020-08-12T17:42:06Z</time>
      </trkpt>
      <trkpt lat="45.990067" lon="-1.036961">
        <ele>15.8</ele>
        <time>2020-08-12T17:42:09Z</time>
      </trkpt>
      <trkpt lat="45.990438" lon="-1.037264">
        <ele>15.8</ele>
        <time>2020-08-12T17:42:11Z</time>
      </trkpt>
      <trkpt lat="45.990765" lon="-1.037494">
        <ele>15.8</ele>
        <time>2020-08-12T17:42:13Z</time>
      </trkpt>
      <trkpt lat="45.991201" lon="-1.037735">
        <ele>16.0</ele>
        <time>2020-08-12T17:42:15Z</time>
      </trkpt>
      <trkpt lat="45.992331" lon="-1.038301">
        <ele>16.4</ele>
        <time>2020-08-12T17:42:22Z</time>
      </trkpt>
      <trkpt lat="46.015121" lon="-1.050322">
        <ele>5.8</ele>
        <time>2020-08-12T17:44:28Z</time>
      </trkpt>
      <trkpt lat="46.020283" lon="-1.053067">
        <ele>9.0</ele>
        <time>2020-08-12T17:44:56Z</time>
      </trkpt>
      <trkpt lat="46.023539" lon="-1.054835">
        <ele>10.0</ele>
        <time>2020-08-12T17:45:14Z</time>
      </trkpt>
      <trkpt lat="46.024124" lon="-1.055133">
        <ele>10.8</ele>
        <time>2020-08-12T17:45:18Z</time>
      </trkpt>
      <trkpt lat="46.025132" lon="-1.055544">
        <ele>9.6</ele>
        <time>2020-08-12T17:45:23Z</time>
      </trkpt>
      <trkpt lat="46.025575" lon="-1.055653">
        <ele>9.6</ele>
        <time>2020-08-12T17:45:25Z</time>
      </trkpt>
      <trkpt lat="46.026171" lon="-1.055755">
        <ele>8.4</ele>
        <time>2020-08-12T17:45:28Z</time>
      </trkpt>
      <trkpt lat="46.026922" lon="-1.055827">
        <ele>7.2</ele>
        <time>2020-08-12T17:45:32Z</time>
      </trkpt>
      <trkpt lat="46.027431" lon="-1.055807">
        <ele>7.2</ele>
        <time>2020-08-12T17:45:35Z</time>
      </trkpt>
      <trkpt lat="46.027989" lon="-1.055747">
        <ele>7.8</ele>
        <time>2020-08-12T17:45:38Z</time>
      </trkpt>
      <trkpt lat="46.028468" lon="-1.055645">
        <ele>8.4</ele>
        <time>2020-08-12T17:45:40Z</time>
      </trkpt>
      <trkpt lat="46.029038" lon="-1.055475">
        <ele>8.4</ele>
        <time>2020-08-12T17:45:43Z</time>
      </trkpt>
      <trkpt lat="46.029758" lon="-1.05518">
        <ele>6.8</ele>
        <time>2020-08-12T17:45:47Z</time>
      </trkpt>
      <trkpt lat="46.03041" lon="-1.054839">
        <ele>3.0</ele>
        <time>2020-08-12T17:45:51Z</time>
      </trkpt>
      <trkpt lat="46.031076" lon="-1.054388">
        <ele>2.8</ele>
        <time>2020-08-12T17:45:55Z</time>
      </trkpt>
      <trkpt lat="46.031601" lon="-1.053971">
        <ele>2.4</ele>
        <time>2020-08-12T17:45:58Z</time>
      </trkpt>
      <trkpt lat="46.032373" lon="-1.053236">
        <ele>2.4</ele>
        <time>2020-08-12T17:46:03Z</time>
      </trkpt>
      <trkpt lat="46.037175" lon="-1.0485">
        <ele>2.0</ele>
        <time>2020-08-12T17:46:33Z</time>
      </trkpt>
      <trkpt lat="46.037844" lon="-1.047937">
        <ele>1.6</ele>
        <time>2020-08-12T17:46:37Z</time>
      </trkpt>
      <trkpt lat="46.038163" lon="-1.047705">
        <ele>1.6</ele>
        <time>2020-08-12T17:46:39Z</time>
      </trkpt>
      <trkpt lat="46.038417" lon="-1.047547">
        <ele>1.6</ele>
        <time>2020-08-12T17:46:40Z</time>
      </trkpt>
      <trkpt lat="46.039104" lon="-1.047202">
        <ele>2.2</ele>
        <time>2020-08-12T17:46:44Z</time>
      </trkpt>
      <trkpt lat="46.039632" lon="-1.047002">
        <ele>2.4</ele>
        <time>2020-08-12T17:46:47Z</time>
      </trkpt>
      <trkpt lat="46.042692" lon="-1.04603">
        <ele>3.2</ele>
        <time>2020-08-12T17:47:03Z</time>
      </trkpt>
      <trkpt lat="46.043079" lon="-1.045922">
        <ele>3.2</ele>
        <time>2020-08-12T17:47:05Z</time>
      </trkpt>
      <trkpt lat="46.043748" lon="-1.045847">
        <ele>3.2</ele>
        <time>2020-08-12T17:47:09Z</time>
      </trkpt>
      <trkpt lat="46.044349" lon="-1.045896">
        <ele>3.6</ele>
        <time>2020-08-12T17:47:12Z</time>
      </trkpt>
      <trkpt lat="46.044772" lon="-1.045998">
        <ele>3.6</ele>
        <time>2020-08-12T17:47:14Z</time>
      </trkpt>
      <trkpt lat="46.045101" lon="-1.04612">
        <ele>3.4</ele>
        <time>2020-08-12T17:47:16Z</time>
      </trkpt>
      <trkpt lat="46.045447" lon="-1.046286">
        <ele>3.4</ele>
        <time>2020-08-12T17:47:18Z</time>
      </trkpt>
      <trkpt lat="46.045838" lon="-1.046534">
        <ele>3.0</ele>
        <time>2020-08-12T17:47:20Z</time>
      </trkpt>
      <trkpt lat="46.046213" lon="-1.046828">
        <ele>2.6</ele>
        <time>2020-08-12T17:47:22Z</time>
      </trkpt>
      <trkpt lat="46.046518" lon="-1.047122">
        <ele>2.6</ele>
        <time>2020-08-12T17:47:24Z</time>
      </trkpt>
      <trkpt lat="46.046809" lon="-1.047448">
        <ele>2.8</ele>
        <time>2020-08-12T17:47:26Z</time>
      </trkpt>
      <trkpt lat="46.048798" lon="-1.050106">
        <ele>3.4</ele>
        <time>2020-08-12T17:47:40Z</time>
      </trkpt>
      <trkpt lat="46.049306" lon="-1.050658">
        <ele>2.6</ele>
        <time>2020-08-12T17:47:43Z</time>
      </trkpt>
      <trkpt lat="46.049816" lon="-1.05111">
        <ele>2.8</ele>
        <time>2020-08-12T17:47:46Z</time>
      </trkpt>
      <trkpt lat="46.054982" lon="-1.055343">
        <ele>3.8</ele>
        <time>2020-08-12T17:48:17Z</time>
      </trkpt>
      <trkpt lat="46.057662" lon="-1.057582">
        <ele>3.0</ele>
        <time>2020-08-12T17:48:33Z</time>
      </trkpt>
      <trkpt lat="46.060205" lon="-1.059744">
        <ele>2.0</ele>
        <time>2020-08-12T17:48:49Z</time>
      </trkpt>
      <trkpt lat="46.061142" lon="-1.060497">
        <ele>2.8</ele>
        <time>2020-08-12T17:48:54Z</time>
      </trkpt>
      <trkpt lat="46.063332" lon="-1.062401">
        <ele>6.4</ele>
        <time>2020-08-12T17:49:07Z</time>
      </trkpt>
      <trkpt lat="46.065286" lon="-1.063965">
        <ele>3.8</ele>
        <time>2020-08-12T17:49:19Z</time>
      </trkpt>
      <trkpt lat="46.080809" lon="-1.076649">
        <ele>2.6</ele>
        <time>2020-08-12T17:50:52Z</time>
      </trkpt>
      <trkpt lat="46.084277" lon="-1.079277">
        <ele>2.2</ele>
        <time>2020-08-12T17:51:12Z</time>
      </trkpt>
      <trkpt lat="46.090519" lon="-1.084424">
        <ele>1.2</ele>
        <time>2020-08-12T17:51:49Z</time>
      </trkpt>
      <trkpt lat="46.099268" lon="-1.09157">
        <ele>4.6</ele>
        <time>2020-08-12T17:52:41Z</time>
      </trkpt>
      <trkpt lat="46.101197" lon="-1.093135">
        <ele>7.4</ele>
        <time>2020-08-12T17:52:53Z</time>
      </trkpt>
      <trkpt lat="46.102788" lon="-1.094384">
        <ele>11.6</ele>
        <time>2020-08-12T17:53:02Z</time>
      </trkpt>
      <trkpt lat="46.104099" lon="-1.095476">
        <ele>13.4</ele>
        <time>2020-08-12T17:53:10Z</time>
      </trkpt>
      <trkpt lat="46.105473" lon="-1.096687">
        <ele>12.4</ele>
        <time>2020-08-12T17:53:19Z</time>
      </trkpt>
      <trkpt lat="46.106491" lon="-1.097443">
        <ele>11.6</ele>
        <time>2020-08-12T17:53:25Z</time>
      </trkpt>
      <trkpt lat="46.108144" lon="-1.09892">
        <ele>9.6</ele>
        <time>2020-08-12T17:53:35Z</time>
      </trkpt>
      <trkpt lat="46.112743" lon="-1.102785">
        <ele>5.0</ele>
        <time>2020-08-12T17:54:02Z</time>
      </trkpt>
      <trkpt lat="46.11923" lon="-1.108091">
        <ele>2.6</ele>
        <time>2020-08-12T17:54:41Z</time>
      </trkpt>
      <trkpt lat="46.120576" lon="-1.109179">
        <ele>1.8</ele>
        <time>2020-08-12T17:54:49Z</time>
      </trkpt>
      <trkpt lat="46.120916" lon="-1.109403">
        <ele>2.0</ele>
        <time>2020-08-12T17:54:51Z</time>
      </trkpt>
      <trkpt lat="46.121453" lon="-1.109668">
        <ele>2.0</ele>
        <time>2020-08-12T17:54:54Z</time>
      </trkpt>
      <trkpt lat="46.121708" lon="-1.109756">
        <ele>2.6</ele>
        <time>2020-08-12T17:54:55Z</time>
      </trkpt>
      <trkpt lat="46.122228" lon="-1.109867">
        <ele>2.6</ele>
        <time>2020-08-12T17:54:58Z</time>
      </trkpt>
      <trkpt lat="46.122769" lon="-1.10989">
        <ele>3.8</ele>
        <time>2020-08-12T17:55:01Z</time>
      </trkpt>
      <trkpt lat="46.123449" lon="-1.109797">
        <ele>4.6</ele>
        <time>2020-08-12T17:55:04Z</time>
      </trkpt>
      <trkpt lat="46.123809" lon="-1.109669">
        <ele>4.6</ele>
        <time>2020-08-12T17:55:06Z</time>
      </trkpt>
      <trkpt lat="46.124235" lon="-1.109466">
        <ele>4.2</ele>
        <time>2020-08-12T17:55:09Z</time>
      </trkpt>
      <trkpt lat="46.124654" lon="-1.109208">
        <ele>4.2</ele>
        <time>2020-08-12T17:55:11Z</time>
      </trkpt>
      <trkpt lat="46.124994" lon="-1.108924">
        <ele>3.8</ele>
        <time>2020-08-12T17:55:13Z</time>
      </trkpt>
      <trkpt lat="46.125314" lon="-1.108611">
        <ele>3.4</ele>
        <time>2020-08-12T17:55:15Z</time>
      </trkpt>
      <trkpt lat="46.125614" lon="-1.108256">
        <ele>3.0</ele>
        <time>2020-08-12T17:55:17Z</time>
      </trkpt>
      <trkpt lat="46.125892" lon="-1.107854">
        <ele>3.6</ele>
        <time>2020-08-12T17:55:19Z</time>
      </trkpt>
      <trkpt lat="46.126264" lon="-1.107207">
        <ele>3.6</ele>
        <time>2020-08-12T17:55:22Z</time>
      </trkpt>
      <trkpt lat="46.127099" lon="-1.105524">
        <ele>4.6</ele>
        <time>2020-08-12T17:55:30Z</time>
      </trkpt>
      <trkpt lat="46.127756" lon="-1.104254">
        <ele>4.4</ele>
        <time>2020-08-12T17:55:35Z</time>
      </trkpt>
      <trkpt lat="46.128133" lon="-1.103652">
        <ele>4.8</ele>
        <time>2020-08-12T17:55:38Z</time>
      </trkpt>
      <trkpt lat="46.128571" lon="-1.103093">
        <ele>4.2</ele>
        <time>2020-08-12T17:55:41Z</time>
      </trkpt>
      <trkpt lat="46.129019" lon="-1.102599">
        <ele>4.2</ele>
        <time>2020-08-12T17:55:44Z</time>
      </trkpt>
      <trkpt lat="46.129305" lon="-1.102313">
        <ele>3.8</ele>
        <time>2020-08-12T17:55:46Z</time>
      </trkpt>
      <trkpt lat="46.12993" lon="-1.101863">
        <ele>3.8</ele>
        <time>2020-08-12T17:55:50Z</time>
      </trkpt>
      <trkpt lat="46.130389" lon="-1.101614">
        <ele>4.6</ele>
        <time>2020-08-12T17:55:52Z</time>
      </trkpt>
      <trkpt lat="46.130858" lon="-1.10139">
        <ele>5.6</ele>
        <time>2020-08-12T17:55:55Z</time>
      </trkpt>
      <trkpt lat="46.131351" lon="-1.101225">
        <ele>5.6</ele>
        <time>2020-08-12T17:55:57Z</time>
      </trkpt>
      <trkpt lat="46.131907" lon="-1.101123">
        <ele>7.4</ele>
        <time>2020-08-12T17:56:00Z</time>
      </trkpt>
      <trkpt lat="46.132527" lon="-1.101084">
        <ele>9.8</ele>
        <time>2020-08-12T17:56:03Z</time>
      </trkpt>
      <trkpt lat="46.133082" lon="-1.101145">
        <ele>9.8</ele>
        <time>2020-08-12T17:56:06Z</time>
      </trkpt>
      <trkpt lat="46.133694" lon="-1.101325">
        <ele>10.8</ele>
        <time>2020-08-12T17:56:10Z</time>
      </trkpt>
      <trkpt lat="46.134268" lon="-1.101534">
        <ele>12.6</ele>
        <time>2020-08-12T17:56:13Z</time>
      </trkpt>
      <trkpt lat="46.134785" lon="-1.101845">
        <ele>11.2</ele>
        <time>2020-08-12T17:56:16Z</time>
      </trkpt>
      <trkpt lat="46.136842" lon="-1.103209">
        <ele>16.0</ele>
        <time>2020-08-12T17:56:27Z</time>
      </trkpt>
      <trkpt lat="46.140428" lon="-1.105474">
        <ele>16.8</ele>
        <time>2020-08-12T17:56:48Z</time>
      </trkpt>
      <trkpt lat="46.141371" lon="-1.106115">
        <ele>13.4</ele>
        <time>2020-08-12T17:56:53Z</time>
      </trkpt>
      <trkpt lat="46.144884" lon="-1.108387">
        <ele>8.6</ele>
        <time>2020-08-12T17:57:13Z</time>
      </trkpt>
      <trkpt lat="46.146545" lon="-1.109415">
        <ele>6.2</ele>
        <time>2020-08-12T17:57:22Z</time>
      </trkpt>
      <trkpt lat="46.148433" lon="-1.110693">
        <ele>3.6</ele>
        <time>2020-08-12T17:57:33Z</time>
      </trkpt>
      <trkpt lat="46.150021" lon="-1.111669">
        <ele>6.6</ele>
        <time>2020-08-12T17:57:42Z</time>
      </trkpt>
      <trkpt lat="46.153053" lon="-1.113644">
        <ele>10.0</ele>
        <time>2020-08-12T17:57:59Z</time>
      </trkpt>
      <trkpt lat="46.154103" lon="-1.114369">
        <ele>11.8</ele>
        <time>2020-08-12T17:58:05Z</time>
      </trkpt>
      <trkpt lat="46.15486" lon="-1.114972">
        <ele>12.0</ele>
        <time>2020-08-12T17:58:10Z</time>
      </trkpt>
      <trkpt lat="46.155555" lon="-1.115659">
        <ele>10.4</ele>
        <time>2020-08-12T17:58:14Z</time>
      </trkpt>
      <trkpt lat="46.158443" lon="-1.119275">
        <ele>10.2</ele>
        <time>2020-08-12T17:58:34Z</time>
      </trkpt>
      <trkpt lat="46.159052" lon="-1.119997">
        <ele>10.2</ele>
        <time>2020-08-12T17:58:38Z</time>
      </trkpt>
      <trkpt lat="46.159645" lon="-1.120579">
        <ele>10.6</ele>
        <time>2020-08-12T17:58:42Z</time>
      </trkpt>
      <trkpt lat="46.160216" lon="-1.121003">
        <ele>11.0</ele>
        <time>2020-08-12T17:58:45Z</time>
      </trkpt>
      <trkpt lat="46.160789" lon="-1.121391">
        <ele>11.0</ele>
        <time>2020-08-12T17:58:49Z</time>
      </trkpt>
      <trkpt lat="46.161277" lon="-1.121634">
        <ele>10.0</ele>
        <time>2020-08-12T17:58:51Z</time>
      </trkpt>
      <trkpt lat="46.162107" lon="-1.121907">
        <ele>7.2</ele>
        <time>2020-08-12T17:58:56Z</time>
      </trkpt>
      <trkpt lat="46.162567" lon="-1.122">
        <ele>5.2</ele>
        <time>2020-08-12T17:58:58Z</time>
      </trkpt>
      <trkpt lat="46.163156" lon="-1.122045">
        <ele>5.2</ele>
        <time>2020-08-12T17:59:01Z</time>
      </trkpt>
      <trkpt lat="46.163721" lon="-1.122028">
        <ele>4.6</ele>
        <time>2020-08-12T17:59:04Z</time>
      </trkpt>
      <trkpt lat="46.164184" lon="-1.121975">
        <ele>5.2</ele>
        <time>2020-08-12T17:59:07Z</time>
      </trkpt>
      <trkpt lat="46.165616" lon="-1.121555">
        <ele>7.8</ele>
        <time>2020-08-12T17:59:14Z</time>
      </trkpt>
      <trkpt lat="46.168148" lon="-1.120861">
        <ele>16.6</ele>
        <time>2020-08-12T17:59:28Z</time>
      </trkpt>
      <trkpt lat="46.169515" lon="-1.120508">
        <ele>17.6</ele>
        <time>2020-08-12T17:59:35Z</time>
      </trkpt>
      <trkpt lat="46.169941" lon="-1.120441">
        <ele>17.6</ele>
        <time>2020-08-12T17:59:37Z</time>
      </trkpt>
      <trkpt lat="46.170276" lon="-1.120424">
        <ele>18.6</ele>
        <time>2020-08-12T17:59:39Z</time>
      </trkpt>
      <trkpt lat="46.17056" lon="-1.120442">
        <ele>18.6</ele>
        <time>2020-08-12T17:59:40Z</time>
      </trkpt>
      <trkpt lat="46.17091" lon="-1.120498">
        <ele>18.8</ele>
        <time>2020-08-12T17:59:42Z</time>
      </trkpt>
      <trkpt lat="46.171369" lon="-1.120645">
        <ele>18.8</ele>
        <time>2020-08-12T17:59:44Z</time>
      </trkpt>
      <trkpt lat="46.171675" lon="-1.120786">
        <ele>20.4</ele>
        <time>2020-08-12T17:59:46Z</time>
      </trkpt>
      <trkpt lat="46.172326" lon="-1.121178">
        <ele>20.4</ele>
        <time>2020-08-12T17:59:50Z</time>
      </trkpt>
      <trkpt lat="46.172584" lon="-1.121372">
        <ele>21.8</ele>
        <time>2020-08-12T17:59:51Z</time>
      </trkpt>
      <trkpt lat="46.172825" lon="-1.121598">
        <ele>21.8</ele>
        <time>2020-08-12T17:59:53Z</time>
      </trkpt>
      <trkpt lat="46.173459" lon="-1.122335">
        <ele>21.8</ele>
        <time>2020-08-12T17:59:57Z</time>
      </trkpt>
      <trkpt lat="46.175085" lon="-1.124287">
        <ele>19.6</ele>
        <time>2020-08-12T18:00:08Z</time>
      </trkpt>
      <trkpt lat="46.178047" lon="-1.12791">
        <ele>14.8</ele>
        <time>2020-08-12T18:00:28Z</time>
      </trkpt>
      <trkpt lat="46.178706" lon="-1.128759">
        <ele>12.6</ele>
        <time>2020-08-12T18:00:33Z</time>
      </trkpt>
      <trkpt lat="46.178945" lon="-1.129093">
        <ele>12.6</ele>
        <time>2020-08-12T18:00:34Z</time>
      </trkpt>
      <trkpt lat="46.179442" lon="-1.129859">
        <ele>11.4</ele>
        <time>2020-08-12T18:00:38Z</time>
      </trkpt>
      <trkpt lat="46.179722" lon="-1.130332">
        <ele>11.4</ele>
        <time>2020-08-12T18:00:40Z</time>
      </trkpt>
      <trkpt lat="46.180136" lon="-1.131162">
        <ele>12.6</ele>
        <time>2020-08-12T18:00:44Z</time>
      </trkpt>
      <trkpt lat="46.180364" lon="-1.131691">
        <ele>12.8</ele>
        <time>2020-08-12T18:00:46Z</time>
      </trkpt>
      <trkpt lat="46.180549" lon="-1.132176">
        <ele>12.8</ele>
        <time>2020-08-12T18:00:48Z</time>
      </trkpt>
      <trkpt lat="46.180776" lon="-1.132847">
        <ele>12.0</ele>
        <time>2020-08-12T18:00:51Z</time>
      </trkpt>
      <trkpt lat="46.180994" lon="-1.133622">
        <ele>10.4</ele>
        <time>2020-08-12T18:00:54Z</time>
      </trkpt>
      <trkpt lat="46.181221" lon="-1.134617">
        <ele>9.4</ele>
        <time>2020-08-12T18:00:58Z</time>
      </trkpt>
      <trkpt lat="46.181343" lon="-1.135248">
        <ele>9.0</ele>
        <time>2020-08-12T18:01:00Z</time>
      </trkpt>
      <trkpt lat="46.181505" lon="-1.136457">
        <ele>10.2</ele>
        <time>2020-08-12T18:01:05Z</time>
      </trkpt>
      <trkpt lat="46.181561" lon="-1.137224">
        <ele>11.0</ele>
        <time>2020-08-12T18:01:07Z</time>
      </trkpt>
      <trkpt lat="46.181581" lon="-1.137742">
        <ele>12.4</ele>
        <time>2020-08-12T18:01:09Z</time>
      </trkpt>
      <trkpt lat="46.181587" lon="-1.138413">
        <ele>13.2</ele>
        <time>2020-08-12T18:01:12Z</time>
      </trkpt>
      <trkpt lat="46.181541" lon="-1.14246">
        <ele>9.0</ele>
        <time>2020-08-12T18:01:26Z</time>
      </trkpt>
      <trkpt lat="46.181517" lon="-1.143504">
        <ele>7.8</ele>
        <time>2020-08-12T18:01:30Z</time>
      </trkpt>
      <trkpt lat="46.181474" lon="-1.144163">
        <ele>7.8</ele>
        <time>2020-08-12T18:01:32Z</time>
      </trkpt>
      <trkpt lat="46.181403" lon="-1.144834">
        <ele>8.4</ele>
        <time>2020-08-12T18:01:35Z</time>
      </trkpt>
      <trkpt lat="46.18123" lon="-1.145944">
        <ele>11.2</ele>
        <time>2020-08-12T18:01:39Z</time>
      </trkpt>
      <trkpt lat="46.181115" lon="-1.146519">
        <ele>11.2</ele>
        <time>2020-08-12T18:01:41Z</time>
      </trkpt>
      <trkpt lat="46.179487" lon="-1.153445">
        <ele>7.0</ele>
        <time>2020-08-12T18:02:07Z</time>
      </trkpt>
      <trkpt lat="46.178496" lon="-1.157733">
        <ele>15.4</ele>
        <time>2020-08-12T18:02:24Z</time>
      </trkpt>
      <trkpt lat="46.176907" lon="-1.164424">
        <ele>10.8</ele>
        <time>2020-08-12T18:02:49Z</time>
      </trkpt>
      <trkpt lat="46.174274" lon="-1.175713">
        <ele>19.2</ele>
        <time>2020-08-12T18:03:32Z</time>
      </trkpt>
      <trkpt lat="46.174074" lon="-1.176518">
        <ele>18.8</ele>
        <time>2020-08-12T18:03:35Z</time>
      </trkpt>
      <trkpt lat="46.173644" lon="-1.178395">
        <ele>16.8</ele>
        <time>2020-08-12T18:03:42Z</time>
      </trkpt>
      <trkpt lat="46.171711" lon="-1.186567">
        <ele>8.6</ele>
        <time>2020-08-12T18:04:13Z</time>
      </trkpt>
      <trkpt lat="46.171275" lon="-1.18854">
        <ele>9.8</ele>
        <time>2020-08-12T18:04:20Z</time>
      </trkpt>
      <trkpt lat="46.171128" lon="-1.189507">
        <ele>10.4</ele>
        <time>2020-08-12T18:04:24Z</time>
      </trkpt>
      <trkpt lat="46.171075" lon="-1.190216">
        <ele>10.0</ele>
        <time>2020-08-12T18:04:27Z</time>
      </trkpt>
      <trkpt lat="46.171055" lon="-1.190709">
        <ele>10.0</ele>
        <time>2020-08-12T18:04:28Z</time>
      </trkpt>
      <trkpt lat="46.171068" lon="-1.191448">
        <ele>10.2</ele>
        <time>2020-08-12T18:04:31Z</time>
      </trkpt>
      <trkpt lat="46.171145" lon="-1.192377">
        <ele>10.6</ele>
        <time>2020-08-12T18:04:34Z</time>
      </trkpt>
      <trkpt lat="46.17122" lon="-1.192916">
        <ele>11.2</ele>
        <time>2020-08-12T18:04:36Z</time>
      </trkpt>
      <trkpt lat="46.171317" lon="-1.193471">
        <ele>12.4</ele>
        <time>2020-08-12T18:04:38Z</time>
      </trkpt>
      <trkpt lat="46.171455" lon="-1.194048">
        <ele>12.4</ele>
        <time>2020-08-12T18:04:41Z</time>
      </trkpt>
      <trkpt lat="46.171593" lon="-1.194529">
        <ele>13.6</ele>
        <time>2020-08-12T18:04:42Z</time>
      </trkpt>
      <trkpt lat="46.174124" lon="-1.202782">
        <ele>7.2</ele>
        <time>2020-08-12T18:05:15Z</time>
      </trkpt>
      <trkpt lat="46.174526" lon="-1.204137">
        <ele>9.0</ele>
        <time>2020-08-12T18:05:20Z</time>
      </trkpt>
      <trkpt lat="46.174885" lon="-1.205632">
        <ele>11.0</ele>
        <time>2020-08-12T18:05:26Z</time>
      </trkpt>
      <trkpt lat="46.17511" lon="-1.206894">
        <ele>12.2</ele>
        <time>2020-08-12T18:05:31Z</time>
      </trkpt>
      <trkpt lat="46.17522" lon="-1.207669">
        <ele>12.0</ele>
        <time>2020-08-12T18:05:33Z</time>
      </trkpt>
      <trkpt lat="46.175308" lon="-1.208434">
        <ele>13.2</ele>
        <time>2020-08-12T18:05:36Z</time>
      </trkpt>
      <trkpt lat="46.175372" lon="-1.209183">
        <ele>14.2</ele>
        <time>2020-08-12T18:05:39Z</time>
      </trkpt>
      <trkpt lat="46.1755" lon="-1.211213">
        <ele>12.0</ele>
        <time>2020-08-12T18:05:46Z</time>
      </trkpt>
      <trkpt lat="46.175555" lon="-1.211823">
        <ele>11.2</ele>
        <time>2020-08-12T18:05:49Z</time>
      </trkpt>
      <trkpt lat="46.175637" lon="-1.213308">
        <ele>10.6</ele>
        <time>2020-08-12T18:05:54Z</time>
      </trkpt>
      <trkpt lat="46.175674" lon="-1.214143">
        <ele>9.6</ele>
        <time>2020-08-12T18:05:57Z</time>
      </trkpt>
      <trkpt lat="46.175668" lon="-1.214411">
        <ele>8.8</ele>
        <time>2020-08-12T18:05:58Z</time>
      </trkpt>
      <trkpt lat="46.175624" lon="-1.214734">
        <ele>8.8</ele>
        <time>2020-08-12T18:05:59Z</time>
      </trkpt>
      <trkpt lat="46.175478" lon="-1.215209">
        <ele>7.8</ele>
        <time>2020-08-12T18:06:01Z</time>
      </trkpt>
      <trkpt lat="46.175478" lon="-1.2154">
        <ele>7.8</ele>
        <time>2020-08-12T18:06:02Z</time>
      </trkpt>
      <trkpt lat="46.175538" lon="-1.21555">
        <ele>7.8</ele>
        <time>2020-08-12T18:06:02Z</time>
      </trkpt>
      <trkpt lat="46.175641" lon="-1.21559">
        <ele>7.8</ele>
        <time>2020-08-12T18:06:03Z</time>
      </trkpt>
      <trkpt lat="46.175734" lon="-1.215715">
        <ele>7.8</ele>
        <time>2020-08-12T18:06:05Z</time>
      </trkpt>
      <trkpt lat="46.175771" lon="-1.215888">
        <ele>6.8</ele>
        <time>2020-08-12T18:06:06Z</time>
      </trkpt>
      <trkpt lat="46.175761" lon="-1.216002">
        <ele>6.8</ele>
        <time>2020-08-12T18:06:07Z</time>
      </trkpt>
      <trkpt lat="46.175716" lon="-1.216125">
        <ele>6.8</ele>
        <time>2020-08-12T18:06:07Z</time>
      </trkpt>
      <trkpt lat="46.175656" lon="-1.2162">
        <ele>6.8</ele>
        <time>2020-08-12T18:06:08Z</time>
      </trkpt>
      <trkpt lat="46.175599" lon="-1.216238">
        <ele>6.8</ele>
        <time>2020-08-12T18:06:09Z</time>
      </trkpt>
      <trkpt lat="46.175582" lon="-1.216422">
        <ele>6.8</ele>
        <time>2020-08-12T18:06:10Z</time>
      </trkpt>
      <trkpt lat="46.17563" lon="-1.216743">
        <ele>6.2</ele>
        <time>2020-08-12T18:06:12Z</time>
      </trkpt>
      <trkpt lat="46.175758" lon="-1.217207">
        <ele>6.2</ele>
        <time>2020-08-12T18:06:16Z</time>
      </trkpt>
      <trkpt lat="46.175855" lon="-1.21804">
        <ele>6.4</ele>
        <time>2020-08-12T18:06:21Z</time>
      </trkpt>
      <trkpt lat="46.17588" lon="-1.218554">
        <ele>5.0</ele>
        <time>2020-08-12T18:06:25Z</time>
      </trkpt>
      <trkpt lat="46.175871" lon="-1.219582">
        <ele>2.75</ele>
        <time>2020-08-12T18:06:31Z</time>
      </trkpt>
      <trkpt lat="46.175756" lon="-1.221333">
        <ele>0.0</ele>
        <time>2020-08-12T18:06:43Z</time>
      </trkpt>
      <trkpt lat="46.17566" lon="-1.222143">
        <ele>0.0</ele>
        <time>2020-08-12T18:06:49Z</time>
      </trkpt>
      <trkpt lat="46.175628" lon="-1.222287">
        <ele>0.0</ele>
        <time>2020-08-12T18:06:50Z</time>
      </trkpt>
      <trkpt lat="46.175392" lon="-1.224127">
        <ele>0.0</ele>
        <time>2020-08-12T18:07:02Z</time>
      </trkpt>
      <trkpt lat="46.175241" lon="-1.225179">
        <ele>0.0</ele>
        <time>2020-08-12T18:07:09Z</time>
      </trkpt>
      <trkpt lat="46.174846" lon="-1.227598">
        <ele>0.0</ele>
        <time>2020-08-12T18:07:26Z</time>
      </trkpt>
      <trkpt lat="46.174384" lon="-1.230005">
        <ele>0.0</ele>
        <time>2020-08-12T18:07:43Z</time>
      </trkpt>
      <trkpt lat="46.173937" lon="-1.232051">
        <ele>0.0</ele>
        <time>2020-08-12T18:07:57Z</time>
      </trkpt>
      <trkpt lat="46.173443" lon="-1.234069">
        <ele>0.0</ele>
        <time>2020-08-12T18:08:11Z</time>
      </trkpt>
      <trkpt lat="46.172805" lon="-1.236407">
        <ele>0.0</ele>
        <time>2020-08-12T18:08:28Z</time>
      </trkpt>
      <trkpt lat="46.172215" lon="-1.23836">
        <ele>0.0</ele>
        <time>2020-08-12T18:08:42Z</time>
      </trkpt>
      <trkpt lat="46.171576" lon="-1.240298">
        <ele>0.0</ele>
        <time>2020-08-12T18:08:56Z</time>
      </trkpt>
      <trkpt lat="46.170894" lon="-1.2422">
        <ele>0.0</ele>
        <time>2020-08-12T18:09:11Z</time>
      </trkpt>
      <trkpt lat="46.170046" lon="-1.244372">
        <ele>0.0</ele>
        <time>2020-08-12T18:09:27Z</time>
      </trkpt>
      <trkpt lat="46.169134" lon="-1.246509">
        <ele>0.0</ele>
        <time>2020-08-12T18:09:44Z</time>
      </trkpt>
      <trkpt lat="46.16817" lon="-1.248583">
        <ele>0.0</ele>
        <time>2020-08-12T18:10:01Z</time>
      </trkpt>
      <trkpt lat="46.167593" lon="-1.249749">
        <ele>0.0</ele>
        <time>2020-08-12T18:10:10Z</time>
      </trkpt>
      <trkpt lat="46.167147" lon="-1.250609">
        <ele>0.0</ele>
        <time>2020-08-12T18:10:17Z</time>
      </trkpt>
      <trkpt lat="46.166234" lon="-1.252289">
        <ele>0.0</ele>
        <time>2020-08-12T18:10:31Z</time>
      </trkpt>
      <trkpt lat="46.165599" lon="-1.253396">
        <ele>3.5</ele>
        <time>2020-08-12T18:10:41Z</time>
      </trkpt>
      <trkpt lat="46.165115" lon="-1.254201">
        <ele>3.0</ele>
        <time>2020-08-12T18:10:48Z</time>
      </trkpt>
      <trkpt lat="46.163968" lon="-1.256015">
        <ele>3.4</ele>
        <time>2020-08-12T18:11:04Z</time>
      </trkpt>
      <trkpt lat="46.163835" lon="-1.256255">
        <ele>3.4</ele>
        <time>2020-08-12T18:11:07Z</time>
      </trkpt>
      <trkpt lat="46.163343" lon="-1.256924">
        <ele>3.5</ele>
        <time>2020-08-12T18:11:13Z</time>
      </trkpt>
      <trkpt lat="46.162867" lon="-1.257449">
        <ele>4.6</ele>
        <time>2020-08-12T18:11:19Z</time>
      </trkpt>
      <trkpt lat="46.1624" lon="-1.257894">
        <ele>5.0</ele>
        <time>2020-08-12T18:11:24Z</time>
      </trkpt>
      <trkpt lat="46.162299" lon="-1.258058">
        <ele>5.0</ele>
        <time>2020-08-12T18:11:26Z</time>
      </trkpt>
      <trkpt lat="46.162279" lon="-1.258127">
        <ele>5.0</ele>
        <time>2020-08-12T18:11:26Z</time>
      </trkpt>
      <trkpt lat="46.162254" lon="-1.25828">
        <ele>5.0</ele>
        <time>2020-08-12T18:11:28Z</time>
      </trkpt>
      <trkpt lat="46.16222" lon="-1.258343">
        <ele>5.4</ele>
        <time>2020-08-12T18:11:28Z</time>
      </trkpt>
      <trkpt lat="46.162125" lon="-1.25842">
        <ele>5.4</ele>
        <time>2020-08-12T18:11:29Z</time>
      </trkpt>
      <trkpt lat="46.162097" lon="-1.258471">
        <ele>5.4</ele>
        <time>2020-08-12T18:11:30Z</time>
      </trkpt>
      <trkpt lat="46.161829" lon="-1.259615">
        <ele>5.0</ele>
        <time>2020-08-12T18:11:39Z</time>
      </trkpt>
      <trkpt lat="46.161733" lon="-1.25992">
        <ele>5.0</ele>
        <time>2020-08-12T18:11:42Z</time>
      </trkpt>
      <trkpt lat="46.161303" lon="-1.260931">
        <ele>4.2</ele>
        <time>2020-08-12T18:11:51Z</time>
      </trkpt>
      <trkpt lat="46.160722" lon="-1.262483">
        <ele>5.4</ele>
        <time>2020-08-12T18:12:05Z</time>
      </trkpt>
      <trkpt lat="46.160574" lon="-1.262791">
        <ele>4.8</ele>
        <time>2020-08-12T18:12:08Z</time>
      </trkpt>
      <trkpt lat="46.160112" lon="-1.263611">
        <ele>4.6</ele>
        <time>2020-08-12T18:12:17Z</time>
      </trkpt>
      <trkpt lat="46.160002" lon="-1.263913">
        <ele>4.6</ele>
        <time>2020-08-12T18:12:19Z</time>
      </trkpt>
      <trkpt lat="46.159673" lon="-1.265241">
        <ele>5.0</ele>
        <time>2020-08-12T18:12:30Z</time>
      </trkpt>
      <trkpt lat="46.15965" lon="-1.265699">
        <ele>5.0</ele>
        <time>2020-08-12T18:12:34Z</time>
      </trkpt>
      <trkpt lat="46.159667" lon="-1.265795">
        <ele>5.0</ele>
        <time>2020-08-12T18:12:35Z</time>
      </trkpt>
      <trkpt lat="46.159635" lon="-1.265934">
        <ele>5.4</ele>
        <time>2020-08-12T18:12:36Z</time>
      </trkpt>
      <trkpt lat="46.15957" lon="-1.266005">
        <ele>5.4</ele>
        <time>2020-08-12T18:12:37Z</time>
      </trkpt>
      <trkpt lat="46.159466" lon="-1.266008">
        <ele>5.4</ele>
        <time>2020-08-12T18:12:38Z</time>
      </trkpt>
      <trkpt lat="46.159401" lon="-1.265945">
        <ele>5.4</ele>
        <time>2020-08-12T18:12:39Z</time>
      </trkpt>
      <trkpt lat="46.159337" lon="-1.265761">
        <ele>5.0</ele>
        <time>2020-08-12T18:12:41Z</time>
      </trkpt>
      <trkpt lat="46.159279" lon="-1.265685">
        <ele>5.0</ele>
        <time>2020-08-12T18:12:42Z</time>
      </trkpt>
      <trkpt lat="46.159087" lon="-1.265533">
        <ele>5.2</ele>
        <time>2020-08-12T18:12:45Z</time>
      </trkpt>
      <trkpt lat="46.158578" lon="-1.265267">
        <ele>5.2</ele>
        <time>2020-08-12T18:12:52Z</time>
      </trkpt>
      <trkpt lat="46.158414" lon="-1.26522">
        <ele>5.2</ele>
        <time>2020-08-12T18:12:54Z</time>
      </trkpt>
      <trkpt lat="46.158245" lon="-1.265202">
        <ele>4.6</ele>
        <time>2020-08-12T18:12:56Z</time>
      </trkpt>
      <trkpt lat="46.158007" lon="-1.265229">
        <ele>4.6</ele>
        <time>2020-08-12T18:12:59Z</time>
      </trkpt>
      <trkpt lat="46.157793" lon="-1.265303">
        <ele>4.6</ele>
        <time>2020-08-12T18:13:02Z</time>
      </trkpt>
      <trkpt lat="46.157636" lon="-1.265393">
        <ele>4.6</ele>
        <time>2020-08-12T18:13:04Z</time>
      </trkpt>
      <trkpt lat="46.15747" lon="-1.26552">
        <ele>3.25</ele>
        <time>2020-08-12T18:13:06Z</time>
      </trkpt>
      <trkpt lat="46.157245" lon="-1.265782">
        <ele>3.25</ele>
        <time>2020-08-12T18:13:10Z</time>
      </trkpt>
      <trkpt lat="46.157115" lon="-1.265994">
        <ele>4.75</ele>
        <time>2020-08-12T18:13:12Z</time>
      </trkpt>
      <trkpt lat="46.156672" lon="-1.266971">
        <ele>5.2</ele>
        <time>2020-08-12T18:13:22Z</time>
      </trkpt>
      <trkpt lat="46.155994" lon="-1.268232">
        <ele>4.75</ele>
        <time>2020-08-12T18:13:36Z</time>
      </trkpt>
      <trkpt lat="46.155533" lon="-1.269047">
        <ele>5.33</ele>
        <time>2020-08-12T18:13:45Z</time>
      </trkpt>
      <trkpt lat="46.155234" lon="-1.269499">
        <ele>4.8</ele>
        <time>2020-08-12T18:13:50Z</time>
      </trkpt>
      <trkpt lat="46.153655" lon="-1.27171">
        <ele>5.2</ele>
        <time>2020-08-12T18:14:18Z</time>
      </trkpt>
      <trkpt lat="46.152858" lon="-1.272688">
        <ele>4.4</ele>
        <time>2020-08-12T18:14:31Z</time>
      </trkpt>
      <trkpt lat="46.15177" lon="-1.273961">
        <ele>3.0</ele>
        <time>2020-08-12T18:14:48Z</time>
      </trkpt>
      <trkpt lat="46.151507" lon="-1.27421">
        <ele>3.2</ele>
        <time>2020-08-12T18:14:52Z</time>
      </trkpt>
      <trkpt lat="46.150855" lon="-1.274672">
        <ele>3.2</ele>
        <time>2020-08-12T18:15:01Z</time>
      </trkpt>
      <trkpt lat="46.150765" lon="-1.274761">
        <ele>3.33</ele>
        <time>2020-08-12T18:15:03Z</time>
      </trkpt>
      <trkpt lat="46.150692" lon="-1.274869">
        <ele>3.33</ele>
        <time>2020-08-12T18:15:04Z</time>
      </trkpt>
      <trkpt lat="46.150587" lon="-1.27513">
        <ele>4.0</ele>
        <time>2020-08-12T18:15:07Z</time>
      </trkpt>
      <trkpt lat="46.150559" lon="-1.275291">
        <ele>4.0</ele>
        <time>2020-08-12T18:15:08Z</time>
      </trkpt>
      <trkpt lat="46.150553" lon="-1.275428">
        <ele>4.0</ele>
        <time>2020-08-12T18:15:09Z</time>
      </trkpt>
      <trkpt lat="46.150573" lon="-1.275567">
        <ele>4.0</ele>
        <time>2020-08-12T18:15:11Z</time>
      </trkpt>
      <trkpt lat="46.150671" lon="-1.275854">
        <ele>3.8</ele>
        <time>2020-08-12T18:15:13Z</time>
      </trkpt>
      <trkpt lat="46.15187" lon="-1.278714">
        <ele>1.6</ele>
        <time>2020-08-12T18:15:42Z</time>
      </trkpt>
      <trkpt lat="46.152306" lon="-1.27981">
        <ele>2.0</ele>
        <time>2020-08-12T18:15:53Z</time>
      </trkpt>
      <trkpt lat="46.15246" lon="-1.280322">
        <ele>2.8</ele>
        <time>2020-08-12T18:15:58Z</time>
      </trkpt>
      <trkpt lat="46.152531" lon="-1.280613">
        <ele>3.0</ele>
        <time>2020-08-12T18:16:01Z</time>
      </trkpt>
      <trkpt lat="46.152674" lon="-1.281405">
        <ele>3.2</ele>
        <time>2020-08-12T18:16:08Z</time>
      </trkpt>
      <trkpt lat="46.152703" lon="-1.281655">
        <ele>3.2</ele>
        <time>2020-08-12T18:16:10Z</time>
      </trkpt>
      <trkpt lat="46.152771" lon="-1.281987">
        <ele>3.6</ele>
        <time>2020-08-12T18:16:13Z</time>
      </trkpt>
      <trkpt lat="46.152852" lon="-1.282006">
        <ele>3.6</ele>
        <time>2020-08-12T18:16:14Z</time>
      </trkpt>
      <trkpt lat="46.152924" lon="-1.28206">
        <ele>3.6</ele>
        <time>2020-08-12T18:16:15Z</time>
      </trkpt>
      <trkpt lat="46.15298" lon="-1.282145">
        <ele>3.6</ele>
        <time>2020-08-12T18:16:16Z</time>
      </trkpt>
      <trkpt lat="46.153015" lon="-1.282251">
        <ele>3.6</ele>
        <time>2020-08-12T18:16:16Z</time>
      </trkpt>
      <trkpt lat="46.153025" lon="-1.282356">
        <ele>3.6</ele>
        <time>2020-08-12T18:16:17Z</time>
      </trkpt>
      <trkpt lat="46.153014" lon="-1.28246">
        <ele>3.6</ele>
        <time>2020-08-12T18:16:18Z</time>
      </trkpt>
      <trkpt lat="46.152982" lon="-1.282557">
        <ele>4.0</ele>
        <time>2020-08-12T18:16:19Z</time>
      </trkpt>
      <trkpt lat="46.152932" lon="-1.282636">
        <ele>4.0</ele>
        <time>2020-08-12T18:16:19Z</time>
      </trkpt>
      <trkpt lat="46.152869" lon="-1.282691">
        <ele>4.0</ele>
        <time>2020-08-12T18:16:20Z</time>
      </trkpt>
      <trkpt lat="46.152784" lon="-1.283122">
        <ele>4.0</ele>
        <time>2020-08-12T18:16:23Z</time>
      </trkpt>
      <trkpt lat="46.152799" lon="-1.283493">
        <ele>5.2</ele>
        <time>2020-08-12T18:16:25Z</time>
      </trkpt>
      <trkpt lat="46.152844" lon="-1.284058">
        <ele>5.2</ele>
        <time>2020-08-12T18:16:29Z</time>
      </trkpt>
      <trkpt lat="46.15295" lon="-1.284623">
        <ele>6.0</ele>
        <time>2020-08-12T18:16:33Z</time>
      </trkpt>
      <trkpt lat="46.153093" lon="-1.285111">
        <ele>7.0</ele>
        <time>2020-08-12T18:16:36Z</time>
      </trkpt>
      <trkpt lat="46.153292" lon="-1.285648">
        <ele>7.0</ele>
        <time>2020-08-12T18:16:40Z</time>
      </trkpt>
      <trkpt lat="46.153412" lon="-1.286126">
        <ele>7.8</ele>
        <time>2020-08-12T18:16:43Z</time>
      </trkpt>
      <trkpt lat="46.153481" lon="-1.286517">
        <ele>7.8</ele>
        <time>2020-08-12T18:16:46Z</time>
      </trkpt>
      <trkpt lat="46.153652" lon="-1.288544">
        <ele>8.0</ele>
        <time>2020-08-12T18:16:59Z</time>
      </trkpt>
      <trkpt lat="46.153695" lon="-1.288852">
        <ele>8.0</ele>
        <time>2020-08-12T18:17:01Z</time>
      </trkpt>
      <trkpt lat="46.153752" lon="-1.289161">
        <ele>8.0</ele>
        <time>2020-08-12T18:17:03Z</time>
      </trkpt>
      <trkpt lat="46.154011" lon="-1.290041">
        <ele>7.0</ele>
        <time>2020-08-12T18:17:10Z</time>
      </trkpt>
      <trkpt lat="46.154099" lon="-1.290475">
        <ele>7.0</ele>
        <time>2020-08-12T18:17:12Z</time>
      </trkpt>
      <trkpt lat="46.154137" lon="-1.290841">
        <ele>5.6</ele>
        <time>2020-08-12T18:17:15Z</time>
      </trkpt>
      <trkpt lat="46.154157" lon="-1.291251">
        <ele>5.6</ele>
        <time>2020-08-12T18:17:17Z</time>
      </trkpt>
      <trkpt lat="46.154148" lon="-1.291747">
        <ele>4.8</ele>
        <time>2020-08-12T18:17:21Z</time>
      </trkpt>
      <trkpt lat="46.154101" lon="-1.292454">
        <ele>4.8</ele>
        <time>2020-08-12T18:17:25Z</time>
      </trkpt>
      <trkpt lat="46.154022" lon="-1.292899">
        <ele>6.0</ele>
        <time>2020-08-12T18:17:28Z</time>
      </trkpt>
      <trkpt lat="46.15377" lon="-1.293835">
        <ele>6.8</ele>
        <time>2020-08-12T18:17:35Z</time>
      </trkpt>
      <trkpt lat="46.153727" lon="-1.29415">
        <ele>6.8</ele>
        <time>2020-08-12T18:17:37Z</time>
      </trkpt>
      <trkpt lat="46.1537" lon="-1.294591">
        <ele>7.6</ele>
        <time>2020-08-12T18:17:40Z</time>
      </trkpt>
      <trkpt lat="46.153716" lon="-1.294985">
        <ele>7.6</ele>
        <time>2020-08-12T18:17:42Z</time>
      </trkpt>
      <trkpt lat="46.153784" lon="-1.295842">
        <ele>8.2</ele>
        <time>2020-08-12T18:17:48Z</time>
      </trkpt>
      <trkpt lat="46.15377" lon="-1.29645">
        <ele>8.2</ele>
        <time>2020-08-12T18:17:52Z</time>
      </trkpt>
      <trkpt lat="46.153731" lon="-1.296729">
        <ele>8.6</ele>
        <time>2020-08-12T18:17:53Z</time>
      </trkpt>
      <trkpt lat="46.153637" lon="-1.297984">
        <ele>9.4</ele>
        <time>2020-08-12T18:18:02Z</time>
      </trkpt>
      <trkpt lat="46.153443" lon="-1.300868">
        <ele>10.2</ele>
        <time>2020-08-12T18:18:20Z</time>
      </trkpt>
      <trkpt lat="46.153294" lon="-1.301881">
        <ele>9.2</ele>
        <time>2020-08-12T18:18:27Z</time>
      </trkpt>
      <trkpt lat="46.15317" lon="-1.302604">
        <ele>9.0</ele>
        <time>2020-08-12T18:18:32Z</time>
      </trkpt>
      <trkpt lat="46.153111" lon="-1.303219">
        <ele>9.0</ele>
        <time>2020-08-12T18:18:36Z</time>
      </trkpt>
      <trkpt lat="46.153105" lon="-1.303623">
        <ele>8.6</ele>
        <time>2020-08-12T18:18:38Z</time>
      </trkpt>
      <trkpt lat="46.153126" lon="-1.30406">
        <ele>8.6</ele>
        <time>2020-08-12T18:18:41Z</time>
      </trkpt>
      <trkpt lat="46.153194" lon="-1.30444">
        <ele>8.6</ele>
        <time>2020-08-12T18:18:44Z</time>
      </trkpt>
      <trkpt lat="46.153267" lon="-1.305147">
        <ele>8.2</ele>
        <time>2020-08-12T18:18:48Z</time>
      </trkpt>
      <trkpt lat="46.153341" lon="-1.306066">
        <ele>9.2</ele>
        <time>2020-08-12T18:18:54Z</time>
      </trkpt>
      <trkpt lat="46.153375" lon="-1.306183">
        <ele>9.2</ele>
        <time>2020-08-12T18:18:55Z</time>
      </trkpt>
      <trkpt lat="46.153455" lon="-1.306271">
        <ele>9.2</ele>
        <time>2020-08-12T18:18:56Z</time>
      </trkpt>
      <trkpt lat="46.15348" lon="-1.306383">
        <ele>9.2</ele>
        <time>2020-08-12T18:18:57Z</time>
      </trkpt>
      <trkpt lat="46.153451" lon="-1.306522">
        <ele>9.2</ele>
        <time>2020-08-12T18:18:58Z</time>
      </trkpt>
      <trkpt lat="46.153469" lon="-1.306918">
        <ele>9.0</ele>
        <time>2020-08-12T18:19:01Z</time>
      </trkpt>
      <trkpt lat="46.153463" lon="-1.307282">
        <ele>9.0</ele>
        <time>2020-08-12T18:19:03Z</time>
      </trkpt>
      <trkpt lat="46.153429" lon="-1.307763">
        <ele>8.8</ele>
        <time>2020-08-12T18:19:07Z</time>
      </trkpt>
      <trkpt lat="46.153475" lon="-1.308317">
        <ele>8.8</ele>
        <time>2020-08-12T18:19:11Z</time>
      </trkpt>
      <trkpt lat="46.153559" lon="-1.308898">
        <ele>9.2</ele>
        <time>2020-08-12T18:19:15Z</time>
      </trkpt>
      <trkpt lat="46.154397" lon="-1.312809">
        <ele>9.6</ele>
        <time>2020-08-12T18:19:44Z</time>
      </trkpt>
      <trkpt lat="46.154513" lon="-1.3132">
        <ele>9.6</ele>
        <time>2020-08-12T18:19:47Z</time>
      </trkpt>
      <trkpt lat="46.154618" lon="-1.313482">
        <ele>9.2</ele>
        <time>2020-08-12T18:19:49Z</time>
      </trkpt>
      <trkpt lat="46.154869" lon="-1.314049">
        <ele>9.2</ele>
        <time>2020-08-12T18:19:54Z</time>
      </trkpt>
      <trkpt lat="46.155336" lon="-1.315019">
        <ele>9.0</ele>
        <time>2020-08-12T18:20:02Z</time>
      </trkpt>
      <trkpt lat="46.155717" lon="-1.315096">
        <ele>9.0</ele>
        <time>2020-08-12T18:20:05Z</time>
      </trkpt>
      <trkpt lat="46.156395" lon="-1.315354">
        <ele>9.4</ele>
        <time>2020-08-12T18:20:10Z</time>
      </trkpt>
      <trkpt lat="46.156732" lon="-1.315597">
        <ele>9.8</ele>
        <time>2020-08-12T18:20:13Z</time>
      </trkpt>
      <trkpt lat="46.158486" lon="-1.317319">
        <ele>9.0</ele>
        <time>2020-08-12T18:20:27Z</time>
      </trkpt>
      <trkpt lat="46.159166" lon="-1.317833">
        <ele>9.4</ele>
        <time>2020-08-12T18:20:32Z</time>
      </trkpt>
      <trkpt lat="46.159535" lon="-1.318236">
        <ele>9.8</ele>
        <time>2020-08-12T18:20:36Z</time>
      </trkpt>
      <trkpt lat="46.159701" lon="-1.318462">
        <ele>10.2</ele>
        <time>2020-08-12T18:20:37Z</time>
      </trkpt>
      <trkpt lat="46.159996" lon="-1.318925">
        <ele>10.2</ele>
        <time>2020-08-12T18:20:40Z</time>
      </trkpt>
      <trkpt lat="46.160274" lon="-1.31928">
        <ele>9.4</ele>
        <time>2020-08-12T18:20:43Z</time>
      </trkpt>
      <trkpt lat="46.162221" lon="-1.321449">
        <ele>9.8</ele>
        <time>2020-08-12T18:21:00Z</time>
      </trkpt>
      <trkpt lat="46.162439" lon="-1.321673">
        <ele>9.6</ele>
        <time>2020-08-12T18:21:01Z</time>
      </trkpt>
      <trkpt lat="46.16275" lon="-1.321931">
        <ele>9.8</ele>
        <time>2020-08-12T18:21:04Z</time>
      </trkpt>
      <trkpt lat="46.163278" lon="-1.322299">
        <ele>9.8</ele>
        <time>2020-08-12T18:21:08Z</time>
      </trkpt>
      <trkpt lat="46.163553" lon="-1.322452">
        <ele>10.4</ele>
        <time>2020-08-12T18:21:10Z</time>
      </trkpt>
      <trkpt lat="46.164406" lon="-1.322856">
        <ele>10.2</ele>
        <time>2020-08-12T18:21:16Z</time>
      </trkpt>
      <trkpt lat="46.164638" lon="-1.322997">
        <ele>10.2</ele>
        <time>2020-08-12T18:21:18Z</time>
      </trkpt>
      <trkpt lat="46.166803" lon="-1.324531">
        <ele>9.4</ele>
        <time>2020-08-12T18:21:34Z</time>
      </trkpt>
      <trkpt lat="46.167173" lon="-1.324776">
        <ele>9.4</ele>
        <time>2020-08-12T18:21:37Z</time>
      </trkpt>
      <trkpt lat="46.168318" lon="-1.325344">
        <ele>11.2</ele>
        <time>2020-08-12T18:21:45Z</time>
      </trkpt>
      <trkpt lat="46.170172" lon="-1.326377">
        <ele>16.8</ele>
        <time>2020-08-12T18:21:59Z</time>
      </trkpt>
      <trkpt lat="46.170474" lon="-1.326565">
        <ele>16.8</ele>
        <time>2020-08-12T18:22:01Z</time>
      </trkpt>
      <trkpt lat="46.170916" lon="-1.327002">
        <ele>16.2</ele>
        <time>2020-08-12T18:22:05Z</time>
      </trkpt>
      <trkpt lat="46.172141" lon="-1.328459">
        <ele>17.0</ele>
        <time>2020-08-12T18:22:16Z</time>
      </trkpt>
      <trkpt lat="46.17247" lon="-1.328789">
        <ele>17.0</ele>
        <time>2020-08-12T18:22:19Z</time>
      </trkpt>
      <trkpt lat="46.173121" lon="-1.329318">
        <ele>17.6</ele>
        <time>2020-08-12T18:22:24Z</time>
      </trkpt>
      <trkpt lat="46.173432" lon="-1.329512">
        <ele>16.8</ele>
        <time>2020-08-12T18:22:26Z</time>
      </trkpt>
      <trkpt lat="46.174117" lon="-1.329766">
        <ele>16.8</ele>
        <time>2020-08-12T18:22:31Z</time>
      </trkpt>
      <trkpt lat="46.174447" lon="-1.329912">
        <ele>14.6</ele>
        <time>2020-08-12T18:22:33Z</time>
      </trkpt>
      <trkpt lat="46.174576" lon="-1.329988">
        <ele>14.6</ele>
        <time>2020-08-12T18:22:34Z</time>
      </trkpt>
      <trkpt lat="46.174793" lon="-1.33016">
        <ele>13.4</ele>
        <time>2020-08-12T18:22:36Z</time>
      </trkpt>
      <trkpt lat="46.174949" lon="-1.330316">
        <ele>13.4</ele>
        <time>2020-08-12T18:22:37Z</time>
      </trkpt>
      <trkpt lat="46.176054" lon="-1.331522">
        <ele>11.0</ele>
        <time>2020-08-12T18:22:47Z</time>
      </trkpt>
      <trkpt lat="46.176394" lon="-1.331724">
        <ele>11.4</ele>
        <time>2020-08-12T18:22:49Z</time>
      </trkpt>
      <trkpt lat="46.177073" lon="-1.332049">
        <ele>9.8</ele>
        <time>2020-08-12T18:22:54Z</time>
      </trkpt>
      <trkpt lat="46.177557" lon="-1.332275">
        <ele>9.0</ele>
        <time>2020-08-12T18:22:58Z</time>
      </trkpt>
      <trkpt lat="46.178084" lon="-1.33247">
        <ele>9.0</ele>
        <time>2020-08-12T18:23:01Z</time>
      </trkpt>
      <trkpt lat="46.178325" lon="-1.332658">
        <ele>9.4</ele>
        <time>2020-08-12T18:23:03Z</time>
      </trkpt>
      <trkpt lat="46.178691" lon="-1.333013">
        <ele>9.2</ele>
        <time>2020-08-12T18:23:06Z</time>
      </trkpt>
      <trkpt lat="46.178829" lon="-1.333123">
        <ele>9.2</ele>
        <time>2020-08-12T18:23:07Z</time>
      </trkpt>
      <trkpt lat="46.178928" lon="-1.333154">
        <ele>9.2</ele>
        <time>2020-08-12T18:23:08Z</time>
      </trkpt>
      <trkpt lat="46.179182" lon="-1.333152">
        <ele>10.4</ele>
        <time>2020-08-12T18:23:10Z</time>
      </trkpt>
      <trkpt lat="46.179243" lon="-1.333057">
        <ele>10.4</ele>
        <time>2020-08-12T18:23:11Z</time>
      </trkpt>
      <trkpt lat="46.179298" lon="-1.333022">
        <ele>10.4</ele>
        <time>2020-08-12T18:23:11Z</time>
      </trkpt>
      <trkpt lat="46.179358" lon="-1.333014">
        <ele>10.4</ele>
        <time>2020-08-12T18:23:12Z</time>
      </trkpt>
      <trkpt lat="46.17944" lon="-1.333051">
        <ele>10.4</ele>
        <time>2020-08-12T18:23:13Z</time>
      </trkpt>
      <trkpt lat="46.179513" lon="-1.333166">
        <ele>10.4</ele>
        <time>2020-08-12T18:23:14Z</time>
      </trkpt>
      <trkpt lat="46.179529" lon="-1.333328">
        <ele>10.4</ele>
        <time>2020-08-12T18:23:15Z</time>
      </trkpt>
      <trkpt lat="46.179609" lon="-1.33346">
        <ele>11.0</ele>
        <time>2020-08-12T18:23:16Z</time>
      </trkpt>
      <trkpt lat="46.179768" lon="-1.333695">
        <ele>11.0</ele>
        <time>2020-08-12T18:23:18Z</time>
      </trkpt>
      <trkpt lat="46.1804" lon="-1.334496">
        <ele>11.6</ele>
        <time>2020-08-12T18:23:26Z</time>
      </trkpt>
      <trkpt lat="46.185244" lon="-1.340045">
        <ele>12.0</ele>
        <time>2020-08-12T18:24:23Z</time>
      </trkpt>
      <trkpt lat="46.186283" lon="-1.341393">
        <ele>13.6</ele>
        <time>2020-08-12T18:24:36Z</time>
      </trkpt>
      <trkpt lat="46.187248" lon="-1.342789">
        <ele>16.2</ele>
        <time>2020-08-12T18:24:49Z</time>
      </trkpt>
      <trkpt lat="46.187767" lon="-1.34344">
        <ele>16.0</ele>
        <time>2020-08-12T18:24:55Z</time>
      </trkpt>
      <trkpt lat="46.188479" lon="-1.344459">
        <ele>15.2</ele>
        <time>2020-08-12T18:25:05Z</time>
      </trkpt>
      <trkpt lat="46.189162" lon="-1.345353">
        <ele>15.6</ele>
        <time>2020-08-12T18:25:13Z</time>
      </trkpt>
      <trkpt lat="46.189531" lon="-1.345735">
        <ele>14.4</ele>
        <time>2020-08-12T18:25:17Z</time>
      </trkpt>
      <trkpt lat="46.189906" lon="-1.346058">
        <ele>15.2</ele>
        <time>2020-08-12T18:25:21Z</time>
      </trkpt>
      <trkpt lat="46.190261" lon="-1.346252">
        <ele>14.4</ele>
        <time>2020-08-12T18:25:25Z</time>
      </trkpt>
      <trkpt lat="46.190717" lon="-1.346363">
        <ele>14.4</ele>
        <time>2020-08-12T18:25:29Z</time>
      </trkpt>
      <trkpt lat="46.191081" lon="-1.346364">
        <ele>14.4</ele>
        <time>2020-08-12T18:25:33Z</time>
      </trkpt>
      <trkpt lat="46.192082" lon="-1.346165">
        <ele>14.2</ele>
        <time>2020-08-12T18:25:42Z</time>
      </trkpt>
      <trkpt lat="46.192363" lon="-1.346131">
        <ele>14.2</ele>
        <time>2020-08-12T18:25:45Z</time>
      </trkpt>
      <trkpt lat="46.192517" lon="-1.346138">
        <ele>12.4</ele>
        <time>2020-08-12T18:25:46Z</time>
      </trkpt>
      <trkpt lat="46.192895" lon="-1.346212">
        <ele>12.4</ele>
        <time>2020-08-12T18:25:50Z</time>
      </trkpt>
      <trkpt lat="46.193244" lon="-1.346358">
        <ele>12.4</ele>
        <time>2020-08-12T18:25:53Z</time>
      </trkpt>
      <trkpt lat="46.193353" lon="-1.34638">
        <ele>11.2</ele>
        <time>2020-08-12T18:25:54Z</time>
      </trkpt>
      <trkpt lat="46.193577" lon="-1.346519">
        <ele>11.2</ele>
        <time>2020-08-12T18:25:56Z</time>
      </trkpt>
      <trkpt lat="46.193969" lon="-1.346825">
        <ele>11.4</ele>
        <time>2020-08-12T18:26:01Z</time>
      </trkpt>
      <trkpt lat="46.194061" lon="-1.346782">
        <ele>11.4</ele>
        <time>2020-08-12T18:26:01Z</time>
      </trkpt>
      <trkpt lat="46.194124" lon="-1.346803">
        <ele>11.4</ele>
        <time>2020-08-12T18:26:01Z</time>
      </trkpt>
      <trkpt lat="46.194175" lon="-1.34686">
        <ele>10.4</ele>
        <time>2020-08-12T18:26:02Z</time>
      </trkpt>
      <trkpt lat="46.194196" lon="-1.346909">
        <ele>10.4</ele>
        <time>2020-08-12T18:26:02Z</time>
      </trkpt>
      <trkpt lat="46.19421" lon="-1.347021">
        <ele>10.4</ele>
        <time>2020-08-12T18:26:02Z</time>
      </trkpt>
      <trkpt lat="46.194275" lon="-1.347165">
        <ele>10.4</ele>
        <time>2020-08-12T18:26:03Z</time>
      </trkpt>
      <trkpt lat="46.194421" lon="-1.347401">
        <ele>10.4</ele>
        <time>2020-08-12T18:26:04Z</time>
      </trkpt>
      <trkpt lat="46.194696" lon="-1.347951">
        <ele>11.4</ele>
        <time>2020-08-12T18:26:06Z</time>
      </trkpt>
      <trkpt lat="46.195787" lon="-1.349744">
        <ele>11.4</ele>
        <time>2020-08-12T18:26:20Z</time>
      </trkpt>
      <trkpt lat="46.196003" lon="-1.350129">
        <ele>11.2</ele>
        <time>2020-08-12T18:26:22Z</time>
      </trkpt>
      <trkpt lat="46.197435" lon="-1.353158">
        <ele>10.4</ele>
        <time>2020-08-12T18:26:44Z</time>
      </trkpt>
      <trkpt lat="46.198011" lon="-1.354582">
        <ele>10.2</ele>
        <time>2020-08-12T18:26:53Z</time>
      </trkpt>
      <trkpt lat="46.198066" lon="-1.354612">
        <ele>10.2</ele>
        <time>2020-08-12T18:26:54Z</time>
      </trkpt>
      <trkpt lat="46.19809" lon="-1.354661">
        <ele>10.2</ele>
        <time>2020-08-12T18:26:54Z</time>
      </trkpt>
      <trkpt lat="46.198096" lon="-1.354704">
        <ele>10.2</ele>
        <time>2020-08-12T18:26:55Z</time>
      </trkpt>
      <trkpt lat="46.198066" lon="-1.354801">
        <ele>10.2</ele>
        <time>2020-08-12T18:26:56Z</time>
      </trkpt>
      <trkpt lat="46.198123" lon="-1.354956">
        <ele>10.2</ele>
        <time>2020-08-12T18:26:57Z</time>
      </trkpt>
      <trkpt lat="46.198461" lon="-1.356445">
        <ele>10.4</ele>
        <time>2020-08-12T18:27:11Z</time>
      </trkpt>
      <trkpt lat="46.198952" lon="-1.358325">
        <ele>9.8</ele>
        <time>2020-08-12T18:27:29Z</time>
      </trkpt>
      <trkpt lat="46.198971" lon="-1.358636">
        <ele>9.6</ele>
        <time>2020-08-12T18:27:32Z</time>
      </trkpt>
      <trkpt lat="46.198937" lon="-1.358925">
        <ele>9.6</ele>
        <time>2020-08-12T18:27:35Z</time>
      </trkpt>
      <trkpt lat="46.198634" lon="-1.360291">
        <ele>9.6</ele>
        <time>2020-08-12T18:27:48Z</time>
      </trkpt>
      <trkpt lat="46.198686" lon="-1.360338">
        <ele>9.6</ele>
        <time>2020-08-12T18:27:48Z</time>
      </trkpt>
      <trkpt lat="46.19872" lon="-1.360413">
        <ele>9.6</ele>
        <time>2020-08-12T18:27:48Z</time>
      </trkpt>
      <trkpt lat="46.198728" lon="-1.360502">
        <ele>9.6</ele>
        <time>2020-08-12T18:27:49Z</time>
      </trkpt>
      <trkpt lat="46.198715" lon="-1.360572">
        <ele>9.6</ele>
        <time>2020-08-12T18:27:49Z</time>
      </trkpt>
      <trkpt lat="46.198686" lon="-1.36063">
        <ele>9.6</ele>
        <time>2020-08-12T18:27:49Z</time>
      </trkpt>
      <trkpt lat="46.198602" lon="-1.360687">
        <ele>9.6</ele>
        <time>2020-08-12T18:27:50Z</time>
      </trkpt>
      <trkpt lat="46.198518" lon="-1.360662">
        <ele>9.6</ele>
        <time>2020-08-12T18:27:50Z</time>
      </trkpt>
      <trkpt lat="46.198483" lon="-1.360622">
        <ele>9.6</ele>
        <time>2020-08-12T18:27:50Z</time>
      </trkpt>
      <trkpt lat="46.19837" lon="-1.360826">
        <ele>9.6</ele>
        <time>2020-08-12T18:27:51Z</time>
      </trkpt>
      <trkpt lat="46.198315" lon="-1.361229">
        <ele>10.2</ele>
        <time>2020-08-12T18:27:53Z</time>
      </trkpt>
      <trkpt lat="46.198237" lon="-1.361624">
        <ele>10.2</ele>
        <time>2020-08-12T18:27:54Z</time>
      </trkpt>
      <trkpt lat="46.19781" lon="-1.363233">
        <ele>10.2</ele>
        <time>2020-08-12T18:28:00Z</time>
      </trkpt>
      <trkpt lat="46.197395" lon="-1.364369">
        <ele>11.0</ele>
        <time>2020-08-12T18:28:04Z</time>
      </trkpt>
      <trkpt lat="46.197338" lon="-1.364604">
        <ele>11.0</ele>
        <time>2020-08-12T18:28:05Z</time>
      </trkpt>
      <trkpt lat="46.197306" lon="-1.364876">
        <ele>11.0</ele>
        <time>2020-08-12T18:28:06Z</time>
      </trkpt>
      <trkpt lat="46.197303" lon="-1.365116">
        <ele>11.2</ele>
        <time>2020-08-12T18:28:07Z</time>
      </trkpt>
      <trkpt lat="46.197341" lon="-1.365513">
        <ele>11.2</ele>
        <time>2020-08-12T18:28:08Z</time>
      </trkpt>
      <trkpt lat="46.197484" lon="-1.366276">
        <ele>11.6</ele>
        <time>2020-08-12T18:28:11Z</time>
      </trkpt>
      <trkpt lat="46.197707" lon="-1.369259">
        <ele>11.6</ele>
        <time>2020-08-12T18:28:21Z</time>
      </trkpt>
      <trkpt lat="46.197749" lon="-1.370195">
        <ele>11.4</ele>
        <time>2020-08-12T18:28:25Z</time>
      </trkpt>
      <trkpt lat="46.197875" lon="-1.371047">
        <ele>11.0</ele>
        <time>2020-08-12T18:28:28Z</time>
      </trkpt>
      <trkpt lat="46.19793" lon="-1.371289">
        <ele>11.0</ele>
        <time>2020-08-12T18:28:28Z</time>
      </trkpt>
      <trkpt lat="46.197979" lon="-1.371293">
        <ele>11.0</ele>
        <time>2020-08-12T18:28:29Z</time>
      </trkpt>
      <trkpt lat="46.198063" lon="-1.371367">
        <ele>11.0</ele>
        <time>2020-08-12T18:28:30Z</time>
      </trkpt>
      <trkpt lat="46.198098" lon="-1.3715">
        <ele>11.0</ele>
        <time>2020-08-12T18:28:31Z</time>
      </trkpt>
      <trkpt lat="46.198091" lon="-1.371571">
        <ele>11.0</ele>
        <time>2020-08-12T18:28:31Z</time>
      </trkpt>
      <trkpt lat="46.198505" lon="-1.371834">
        <ele>10.4</ele>
        <time>2020-08-12T18:28:35Z</time>
      </trkpt>
      <trkpt lat="46.198689" lon="-1.372022">
        <ele>10.4</ele>
        <time>2020-08-12T18:28:37Z</time>
      </trkpt>
      <trkpt lat="46.199233" lon="-1.372674">
        <ele>10.2</ele>
        <time>2020-08-12T18:28:43Z</time>
      </trkpt>
      <trkpt lat="46.200368" lon="-1.373977">
        <ele>10.4</ele>
        <time>2020-08-12T18:28:55Z</time>
      </trkpt>
      <trkpt lat="46.20075" lon="-1.37438">
        <ele>10.0</ele>
        <time>2020-08-12T18:28:59Z</time>
      </trkpt>
      <trkpt lat="46.200981" lon="-1.374546">
        <ele>9.6</ele>
        <time>2020-08-12T18:29:01Z</time>
      </trkpt>
      <trkpt lat="46.201044" lon="-1.374465">
        <ele>9.6</ele>
        <time>2020-08-12T18:29:02Z</time>
      </trkpt>
      <trkpt lat="46.201102" lon="-1.374466">
        <ele>9.6</ele>
        <time>2020-08-12T18:29:02Z</time>
      </trkpt>
      <trkpt lat="46.201154" lon="-1.374522">
        <ele>9.6</ele>
        <time>2020-08-12T18:29:03Z</time>
      </trkpt>
      <trkpt lat="46.201169" lon="-1.374571">
        <ele>9.6</ele>
        <time>2020-08-12T18:29:03Z</time>
      </trkpt>
      <trkpt lat="46.201171" lon="-1.374618">
        <ele>9.6</ele>
        <time>2020-08-12T18:29:03Z</time>
      </trkpt>
      <trkpt lat="46.201144" lon="-1.374702">
        <ele>9.6</ele>
        <time>2020-08-12T18:29:04Z</time>
      </trkpt>
      <trkpt lat="46.201118" lon="-1.374731">
        <ele>9.6</ele>
        <time>2020-08-12T18:29:04Z</time>
      </trkpt>
      <trkpt lat="46.201108" lon="-1.375013">
        <ele>9.6</ele>
        <time>2020-08-12T18:29:05Z</time>
      </trkpt>
      <trkpt lat="46.201047" lon="-1.375292">
        <ele>9.6</ele>
        <time>2020-08-12T18:29:07Z</time>
      </trkpt>
      <trkpt lat="46.199787" lon="-1.380179">
        <ele>7.6</ele>
        <time>2020-08-12T18:29:32Z</time>
      </trkpt>
      <trkpt lat="46.199729" lon="-1.380516">
        <ele>7.6</ele>
        <time>2020-08-12T18:29:34Z</time>
      </trkpt>
      <trkpt lat="46.199682" lon="-1.380875">
        <ele>6.8</ele>
        <time>2020-08-12T18:29:36Z</time>
      </trkpt>
      <trkpt lat="46.199661" lon="-1.381268">
        <ele>6.8</ele>
        <time>2020-08-12T18:29:38Z</time>
      </trkpt>
      <trkpt lat="46.199578" lon="-1.383625">
        <ele>7.2</ele>
        <time>2020-08-12T18:29:49Z</time>
      </trkpt>
      <trkpt lat="46.199589" lon="-1.384324">
        <ele>6.8</ele>
        <time>2020-08-12T18:29:52Z</time>
      </trkpt>
      <trkpt lat="46.199678" lon="-1.385973">
        <ele>6.0</ele>
        <time>2020-08-12T18:30:01Z</time>
      </trkpt>
      <trkpt lat="46.199686" lon="-1.387135">
        <ele>6.4</ele>
        <time>2020-08-12T18:30:06Z</time>
      </trkpt>
      <trkpt lat="46.199767" lon="-1.389651">
        <ele>5.6</ele>
        <time>2020-08-12T18:30:18Z</time>
      </trkpt>
      <trkpt lat="46.199812" lon="-1.39033">
        <ele>5.4</ele>
        <time>2020-08-12T18:30:22Z</time>
      </trkpt>
      <trkpt lat="46.199849" lon="-1.390572">
        <ele>5.4</ele>
        <time>2020-08-12T18:30:23Z</time>
      </trkpt>
      <trkpt lat="46.200088" lon="-1.391487">
        <ele>5.2</ele>
        <time>2020-08-12T18:30:28Z</time>
      </trkpt>
      <trkpt lat="46.200182" lon="-1.391936">
        <ele>5.0</ele>
        <time>2020-08-12T18:30:30Z</time>
      </trkpt>
      <trkpt lat="46.200305" lon="-1.392719">
        <ele>5.2</ele>
        <time>2020-08-12T18:30:34Z</time>
      </trkpt>
      <trkpt lat="46.200395" lon="-1.393619">
        <ele>5.0</ele>
        <time>2020-08-12T18:30:38Z</time>
      </trkpt>
      <trkpt lat="46.200515" lon="-1.395205">
        <ele>4.8</ele>
        <time>2020-08-12T18:30:46Z</time>
      </trkpt>
      <trkpt lat="46.200574" lon="-1.39632">
        <ele>5.0</ele>
        <time>2020-08-12T18:30:52Z</time>
      </trkpt>
      <trkpt lat="46.200574" lon="-1.396649">
        <ele>5.0</ele>
        <time>2020-08-12T18:30:53Z</time>
      </trkpt>
      <trkpt lat="46.200536" lon="-1.397662">
        <ele>5.2</ele>
        <time>2020-08-12T18:30:58Z</time>
      </trkpt>
      <trkpt lat="46.200539" lon="-1.398103">
        <ele>5.2</ele>
        <time>2020-08-12T18:31:00Z</time>
      </trkpt>
      <trkpt lat="46.20062" lon="-1.399482">
        <ele>4.0</ele>
        <time>2020-08-12T18:31:07Z</time>
      </trkpt>
      <trkpt lat="46.200616" lon="-1.399835">
        <ele>4.0</ele>
        <time>2020-08-12T18:31:09Z</time>
      </trkpt>
      <trkpt lat="46.200596" lon="-1.400171">
        <ele>4.0</ele>
        <time>2020-08-12T18:31:10Z</time>
      </trkpt>
      <trkpt lat="46.200394" lon="-1.401577">
        <ele>3.0</ele>
        <time>2020-08-12T18:31:17Z</time>
      </trkpt>
      <trkpt lat="46.200318" lon="-1.402567">
        <ele>2.2</ele>
        <time>2020-08-12T18:31:22Z</time>
      </trkpt>
      <trkpt lat="46.20028" lon="-1.403977">
        <ele>1.8</ele>
        <time>2020-08-12T18:31:29Z</time>
      </trkpt>
      <trkpt lat="46.200223" lon="-1.404594">
        <ele>1.0</ele>
        <time>2020-08-12T18:31:32Z</time>
      </trkpt>
      <trkpt lat="46.200111" lon="-1.405175">
        <ele>0.8</ele>
        <time>2020-08-12T18:31:35Z</time>
      </trkpt>
      <trkpt lat="46.199796" lon="-1.406448">
        <ele>1.6</ele>
        <time>2020-08-12T18:31:42Z</time>
      </trkpt>
      <trkpt lat="46.199673" lon="-1.40731">
        <ele>2.0</ele>
        <time>2020-08-12T18:31:46Z</time>
      </trkpt>
      <trkpt lat="46.199321" lon="-1.409281">
        <ele>2.0</ele>
        <time>2020-08-12T18:31:56Z</time>
      </trkpt>
      <trkpt lat="46.199127" lon="-1.410628">
        <ele>2.4</ele>
        <time>2020-08-12T18:32:03Z</time>
      </trkpt>
      <trkpt lat="46.199012" lon="-1.411199">
        <ele>2.2</ele>
        <time>2020-08-12T18:32:06Z</time>
      </trkpt>
      <trkpt lat="46.197997" lon="-1.414583">
        <ele>0.6</ele>
        <time>2020-08-12T18:32:24Z</time>
      </trkpt>
      <trkpt lat="46.197864" lon="-1.414976">
        <ele>0.6</ele>
        <time>2020-08-12T18:32:26Z</time>
      </trkpt>
      <trkpt lat="46.197778" lon="-1.415189">
        <ele>0.8</ele>
        <time>2020-08-12T18:32:27Z</time>
      </trkpt>
      <trkpt lat="46.19752" lon="-1.415667">
        <ele>0.8</ele>
        <time>2020-08-12T18:32:30Z</time>
      </trkpt>
      <trkpt lat="46.196991" lon="-1.416452">
        <ele>1.6</ele>
        <time>2020-08-12T18:32:35Z</time>
      </trkpt>
      <trkpt lat="46.196803" lon="-1.416814">
        <ele>1.4</ele>
        <time>2020-08-12T18:32:37Z</time>
      </trkpt>
      <trkpt lat="46.19654" lon="-1.417483">
        <ele>1.6</ele>
        <time>2020-08-12T18:32:41Z</time>
      </trkpt>
      <trkpt lat="46.196484" lon="-1.417743">
        <ele>1.6</ele>
        <time>2020-08-12T18:32:43Z</time>
      </trkpt>
      <trkpt lat="46.196412" lon="-1.418247">
        <ele>1.6</ele>
        <time>2020-08-12T18:32:45Z</time>
      </trkpt>
      <trkpt lat="46.196276" lon="-1.419383">
        <ele>2.4</ele>
        <time>2020-08-12T18:32:51Z</time>
      </trkpt>
      <trkpt lat="46.1963" lon="-1.419633">
        <ele>2.4</ele>
        <time>2020-08-12T18:32:52Z</time>
      </trkpt>
      <trkpt lat="46.196319" lon="-1.419665">
        <ele>2.4</ele>
        <time>2020-08-12T18:32:52Z</time>
      </trkpt>
      <trkpt lat="46.196332" lon="-1.419747">
        <ele>2.4</ele>
        <time>2020-08-12T18:32:53Z</time>
      </trkpt>
      <trkpt lat="46.196324" lon="-1.420011">
        <ele>2.0</ele>
        <time>2020-08-12T18:32:55Z</time>
      </trkpt>
      <trkpt lat="46.196399" lon="-1.420373">
        <ele>2.0</ele>
        <time>2020-08-12T18:32:58Z</time>
      </trkpt>
      <trkpt lat="46.196534" lon="-1.420755">
        <ele>2.0</ele>
        <time>2020-08-12T18:33:01Z</time>
      </trkpt>
      <trkpt lat="46.1968" lon="-1.421272">
        <ele>2.4</ele>
        <time>2020-08-12T18:33:06Z</time>
      </trkpt>
      <trkpt lat="46.197886" lon="-1.422695">
        <ele>2.6</ele>
        <time>2020-08-12T18:33:21Z</time>
      </trkpt>
      <trkpt lat="46.198079" lon="-1.422919">
        <ele>2.6</ele>
        <time>2020-08-12T18:33:24Z</time>
      </trkpt>
      <trkpt lat="46.19833" lon="-1.42326">
        <ele>2.6</ele>
        <time>2020-08-12T18:33:28Z</time>
      </trkpt>
      <trkpt lat="46.198513" lon="-1.423568">
        <ele>1.4</ele>
        <time>2020-08-12T18:33:31Z</time>
      </trkpt>
      <trkpt lat="46.198593" lon="-1.423753">
        <ele>1.4</ele>
        <time>2020-08-12T18:33:32Z</time>
      </trkpt>
      <trkpt lat="46.198674" lon="-1.424003">
        <ele>1.4</ele>
        <time>2020-08-12T18:33:35Z</time>
      </trkpt>
      <trkpt lat="46.198732" lon="-1.424264">
        <ele>1.6</ele>
        <time>2020-08-12T18:33:37Z</time>
      </trkpt>
      <trkpt lat="46.198755" lon="-1.424477">
        <ele>1.6</ele>
        <time>2020-08-12T18:33:38Z</time>
      </trkpt>
      <trkpt lat="46.198761" lon="-1.424792">
        <ele>1.6</ele>
        <time>2020-08-12T18:33:41Z</time>
      </trkpt>
      <trkpt lat="46.198724" lon="-1.425176">
        <ele>1.4</ele>
        <time>2020-08-12T18:33:43Z</time>
      </trkpt>
      <trkpt lat="46.19857" lon="-1.425766">
        <ele>1.4</ele>
        <time>2020-08-12T18:33:48Z</time>
      </trkpt>
      <trkpt lat="46.19796" lon="-1.427269">
        <ele>0.6</ele>
        <time>2020-08-12T18:34:01Z</time>
      </trkpt>
      <trkpt lat="46.197801" lon="-1.427628">
        <ele>1.0</ele>
        <time>2020-08-12T18:34:04Z</time>
      </trkpt>
      <trkpt lat="46.197568" lon="-1.4283">
        <ele>1.0</ele>
        <time>2020-08-12T18:34:10Z</time>
      </trkpt>
      <trkpt lat="46.197295" lon="-1.428883">
        <ele>1.8</ele>
        <time>2020-08-12T18:34:15Z</time>
      </trkpt>
      <trkpt lat="46.197049" lon="-1.429499">
        <ele>1.8</ele>
        <time>2020-08-12T18:34:20Z</time>
      </trkpt>
      <trkpt lat="46.196392" lon="-1.430512">
        <ele>2.0</ele>
        <time>2020-08-12T18:34:31Z</time>
      </trkpt>
      <trkpt lat="46.196332" lon="-1.430581">
        <ele>2.0</ele>
        <time>2020-08-12T18:34:32Z</time>
      </trkpt>
      <trkpt lat="46.196198" lon="-1.430864">
        <ele>1.4</ele>
        <time>2020-08-12T18:34:34Z</time>
      </trkpt>
      <trkpt lat="46.19605" lon="-1.431376">
        <ele>1.4</ele>
        <time>2020-08-12T18:34:38Z</time>
      </trkpt>
      <trkpt lat="46.196077" lon="-1.431486">
        <ele>1.4</ele>
        <time>2020-08-12T18:34:39Z</time>
      </trkpt>
      <trkpt lat="46.196071" lon="-1.431753">
        <ele>1.0</ele>
        <time>2020-08-12T18:34:41Z</time>
      </trkpt>
      <trkpt lat="46.196101" lon="-1.431994">
        <ele>1.0</ele>
        <time>2020-08-12T18:34:43Z</time>
      </trkpt>
      <trkpt lat="46.196167" lon="-1.432167">
        <ele>1.0</ele>
        <time>2020-08-12T18:34:44Z</time>
      </trkpt>
      <trkpt lat="46.196282" lon="-1.432393">
        <ele>1.0</ele>
        <time>2020-08-12T18:34:46Z</time>
      </trkpt>
      <trkpt lat="46.1964" lon="-1.432738">
        <ele>1.6</ele>
        <time>2020-08-12T18:34:49Z</time>
      </trkpt>
      <trkpt lat="46.197733" lon="-1.43586">
        <ele>2.6</ele>
        <time>2020-08-12T18:35:15Z</time>
      </trkpt>
      <trkpt lat="46.198071" lon="-1.436585">
        <ele>2.6</ele>
        <time>2020-08-12T18:35:21Z</time>
      </trkpt>
      <trkpt lat="46.198948" lon="-1.438719">
        <ele>3.2</ele>
        <time>2020-08-12T18:35:39Z</time>
      </trkpt>
      <trkpt lat="46.199154" lon="-1.439171">
        <ele>2.6</ele>
        <time>2020-08-12T18:35:42Z</time>
      </trkpt>
      <trkpt lat="46.200157" lon="-1.441556">
        <ele>2.4</ele>
        <time>2020-08-12T18:36:02Z</time>
      </trkpt>
      <trkpt lat="46.200406" lon="-1.442232">
        <ele>3.0</ele>
        <time>2020-08-12T18:36:08Z</time>
      </trkpt>
      <trkpt lat="46.200733" lon="-1.443202">
        <ele>3.4</ele>
        <time>2020-08-12T18:36:15Z</time>
      </trkpt>
      <trkpt lat="46.200928" lon="-1.443846">
        <ele>2.8</ele>
        <time>2020-08-12T18:36:20Z</time>
      </trkpt>
      <trkpt lat="46.201175" lon="-1.444823">
        <ele>2.6</ele>
        <time>2020-08-12T18:36:28Z</time>
      </trkpt>
      <trkpt lat="46.201344" lon="-1.445638">
        <ele>3.2</ele>
        <time>2020-08-12T18:36:34Z</time>
      </trkpt>
      <trkpt lat="46.201603" lon="-1.447202">
        <ele>6.4</ele>
        <time>2020-08-12T18:36:45Z</time>
      </trkpt>
      <trkpt lat="46.201751" lon="-1.447878">
        <ele>7.2</ele>
        <time>2020-08-12T18:36:50Z</time>
      </trkpt>
      <trkpt lat="46.201799" lon="-1.448181">
        <ele>7.2</ele>
        <time>2020-08-12T18:36:52Z</time>
      </trkpt>
      <trkpt lat="46.201856" lon="-1.448696">
        <ele>7.2</ele>
        <time>2020-08-12T18:36:56Z</time>
      </trkpt>
      <trkpt lat="46.202089" lon="-1.450168">
        <ele>9.4</ele>
        <time>2020-08-12T18:37:07Z</time>
      </trkpt>
      <trkpt lat="46.203511" lon="-1.458892">
        <ele>7.0</ele>
        <time>2020-08-12T18:38:10Z</time>
      </trkpt>
      <trkpt lat="46.203585" lon="-1.459227">
        <ele>6.2</ele>
        <time>2020-08-12T18:38:13Z</time>
      </trkpt>
      <trkpt lat="46.203663" lon="-1.459408">
        <ele>6.2</ele>
        <time>2020-08-12T18:38:14Z</time>
      </trkpt>
      <trkpt lat="46.203734" lon="-1.459505">
        <ele>6.2</ele>
        <time>2020-08-12T18:38:15Z</time>
      </trkpt>
      <trkpt lat="46.203802" lon="-1.459701">
        <ele>6.2</ele>
        <time>2020-08-12T18:38:17Z</time>
      </trkpt>
      <trkpt lat="46.203815" lon="-1.459852">
        <ele>6.2</ele>
        <time>2020-08-12T18:38:18Z</time>
      </trkpt>
      <trkpt lat="46.203843" lon="-1.4599">
        <ele>6.2</ele>
        <time>2020-08-12T18:38:18Z</time>
      </trkpt>
      <trkpt lat="46.203837" lon="-1.459997">
        <ele>6.2</ele>
        <time>2020-08-12T18:38:19Z</time>
      </trkpt>
      <trkpt lat="46.203792" lon="-1.460045">
        <ele>6.0</ele>
        <time>2020-08-12T18:38:19Z</time>
      </trkpt>
      <trkpt lat="46.203722" lon="-1.460323">
        <ele>6.0</ele>
        <time>2020-08-12T18:38:21Z</time>
      </trkpt>
      <trkpt lat="46.203723" lon="-1.46189">
        <ele>4.8</ele>
        <time>2020-08-12T18:38:29Z</time>
      </trkpt>
      <trkpt lat="46.203691" lon="-1.46408">
        <ele>4.2</ele>
        <time>2020-08-12T18:38:41Z</time>
      </trkpt>
      <trkpt lat="46.203738" lon="-1.464986">
        <ele>4.0</ele>
        <time>2020-08-12T18:38:45Z</time>
      </trkpt>
      <trkpt lat="46.204002" lon="-1.46751">
        <ele>3.25</ele>
        <time>2020-08-12T18:38:59Z</time>
      </trkpt>
      <trkpt lat="46.204025" lon="-1.468036">
        <ele>3.25</ele>
        <time>2020-08-12T18:39:02Z</time>
      </trkpt>
      <trkpt lat="46.204005" lon="-1.468474">
        <ele>2.25</ele>
        <time>2020-08-12T18:39:04Z</time>
      </trkpt>
      <trkpt lat="46.203717" lon="-1.470485">
        <ele>2.5</ele>
        <time>2020-08-12T18:39:15Z</time>
      </trkpt>
      <trkpt lat="46.203425" lon="-1.472671">
        <ele>1.25</ele>
        <time>2020-08-12T18:39:27Z</time>
      </trkpt>
      <trkpt lat="46.203183" lon="-1.474233">
        <ele>1.0</ele>
        <time>2020-08-12T18:39:35Z</time>
      </trkpt>
      <trkpt lat="46.202927" lon="-1.475508">
        <ele>1.5</ele>
        <time>2020-08-12T18:39:43Z</time>
      </trkpt>
      <trkpt lat="46.202629" lon="-1.477465">
        <ele>5.25</ele>
        <time>2020-08-12T18:39:53Z</time>
      </trkpt>
      <trkpt lat="46.202502" lon="-1.478397">
        <ele>5.6</ele>
        <time>2020-08-12T18:39:58Z</time>
      </trkpt>
      <trkpt lat="46.202337" lon="-1.479303">
        <ele>3.5</ele>
        <time>2020-08-12T18:40:03Z</time>
      </trkpt>
      <trkpt lat="46.202038" lon="-1.481153">
        <ele>3.0</ele>
        <time>2020-08-12T18:40:13Z</time>
      </trkpt>
      <trkpt lat="46.202022" lon="-1.481348">
        <ele>3.0</ele>
        <time>2020-08-12T18:40:14Z</time>
      </trkpt>
      <trkpt lat="46.202022" lon="-1.481679">
        <ele>3.25</ele>
        <time>2020-08-12T18:40:16Z</time>
      </trkpt>
      <trkpt lat="46.202168" lon="-1.483242">
        <ele>2.2</ele>
        <time>2020-08-12T18:40:25Z</time>
      </trkpt>
      <trkpt lat="46.20217" lon="-1.483464">
        <ele>2.8</ele>
        <time>2020-08-12T18:40:26Z</time>
      </trkpt>
      <trkpt lat="46.202135" lon="-1.483782">
        <ele>2.8</ele>
        <time>2020-08-12T18:40:27Z</time>
      </trkpt>
      <trkpt lat="46.201921" lon="-1.484966">
        <ele>2.8</ele>
        <time>2020-08-12T18:40:34Z</time>
      </trkpt>
      <trkpt lat="46.201864" lon="-1.485207">
        <ele>2.8</ele>
        <time>2020-08-12T18:40:35Z</time>
      </trkpt>
      <trkpt lat="46.201742" lon="-1.485571">
        <ele>2.8</ele>
        <time>2020-08-12T18:40:37Z</time>
      </trkpt>
      <trkpt lat="46.201582" lon="-1.486013">
        <ele>3.75</ele>
        <time>2020-08-12T18:40:40Z</time>
      </trkpt>
      <trkpt lat="46.201429" lon="-1.486332">
        <ele>3.75</ele>
        <time>2020-08-12T18:40:42Z</time>
      </trkpt>
      <trkpt lat="46.201371" lon="-1.486412">
        <ele>3.75</ele>
        <time>2020-08-12T18:40:43Z</time>
      </trkpt>
      <trkpt lat="46.201215" lon="-1.486567">
        <ele>3.75</ele>
        <time>2020-08-12T18:40:44Z</time>
      </trkpt>
      <trkpt lat="46.200649" lon="-1.486924">
        <ele>3.33</ele>
        <time>2020-08-12T18:40:49Z</time>
      </trkpt>
      <trkpt lat="46.200532" lon="-1.487107">
        <ele>3.33</ele>
        <time>2020-08-12T18:40:50Z</time>
      </trkpt>
      <trkpt lat="46.200498" lon="-1.487216">
        <ele>3.33</ele>
        <time>2020-08-12T18:40:51Z</time>
      </trkpt>
      <trkpt lat="46.200237" lon="-1.488682">
        <ele>3.0</ele>
        <time>2020-08-12T18:40:59Z</time>
      </trkpt>
      <trkpt lat="46.200068" lon="-1.489346">
        <ele>1.2</ele>
        <time>2020-08-12T18:41:03Z</time>
      </trkpt>
      <trkpt lat="46.199834" lon="-1.489928">
        <ele>0.33</ele>
        <time>2020-08-12T18:41:06Z</time>
      </trkpt>
      <trkpt lat="46.199613" lon="-1.490411">
        <ele>-0.8</ele>
        <time>2020-08-12T18:41:09Z</time>
      </trkpt>
      <trkpt lat="46.199457" lon="-1.490712">
        <ele>-0.8</ele>
        <time>2020-08-12T18:41:11Z</time>
      </trkpt>
      <trkpt lat="46.1993" lon="-1.490966">
        <ele>-0.4</ele>
        <time>2020-08-12T18:41:13Z</time>
      </trkpt>
      <trkpt lat="46.198947" lon="-1.491445">
        <ele>-1.0</ele>
        <time>2020-08-12T18:41:17Z</time>
      </trkpt>
      <trkpt lat="46.198282" lon="-1.492258">
        <ele>0.67</ele>
        <time>2020-08-12T18:41:24Z</time>
      </trkpt>
      <trkpt lat="46.197912" lon="-1.492672">
        <ele>0.0</ele>
        <time>2020-08-12T18:41:27Z</time>
      </trkpt>
      <trkpt lat="46.196891" lon="-1.494158">
        <ele>-0.75</ele>
        <time>2020-08-12T18:41:38Z</time>
      </trkpt>
      <trkpt lat="46.196418" lon="-1.494906">
        <ele>0.0</ele>
        <time>2020-08-12T18:41:44Z</time>
      </trkpt>
      <trkpt lat="46.196306" lon="-1.495134">
        <ele>-0.5</ele>
        <time>2020-08-12T18:41:45Z</time>
      </trkpt>
      <trkpt lat="46.196139" lon="-1.495561">
        <ele>-0.5</ele>
        <time>2020-08-12T18:41:48Z</time>
      </trkpt>
      <trkpt lat="46.195777" lon="-1.496686">
        <ele>-1.5</ele>
        <time>2020-08-12T18:41:55Z</time>
      </trkpt>
      <trkpt lat="46.195701" lon="-1.49698">
        <ele>-1.5</ele>
        <time>2020-08-12T18:41:56Z</time>
      </trkpt>
      <trkpt lat="46.195521" lon="-1.497826">
        <ele>-0.5</ele>
        <time>2020-08-12T18:42:01Z</time>
      </trkpt>
      <trkpt lat="46.195343" lon="-1.498457">
        <ele>-0.2</ele>
        <time>2020-08-12T18:42:05Z</time>
      </trkpt>
      <trkpt lat="46.195027" lon="-1.499251">
        <ele>0.4</ele>
        <time>2020-08-12T18:42:09Z</time>
      </trkpt>
      <trkpt lat="46.194692" lon="-1.499979">
        <ele>0.0</ele>
        <time>2020-08-12T18:42:14Z</time>
      </trkpt>
      <trkpt lat="46.194676" lon="-1.500071">
        <ele>0.8</ele>
        <time>2020-08-12T18:42:15Z</time>
      </trkpt>
      <trkpt lat="46.194694" lon="-1.500191">
        <ele>0.8</ele>
        <time>2020-08-12T18:42:15Z</time>
      </trkpt>
      <trkpt lat="46.19473" lon="-1.500269">
        <ele>0.8</ele>
        <time>2020-08-12T18:42:16Z</time>
      </trkpt>
      <trkpt lat="46.194787" lon="-1.500334">
        <ele>0.8</ele>
        <time>2020-08-12T18:42:16Z</time>
      </trkpt>
      <trkpt lat="46.194868" lon="-1.500389">
        <ele>0.8</ele>
        <time>2020-08-12T18:42:17Z</time>
      </trkpt>
      <trkpt lat="46.195115" lon="-1.500488">
        <ele>0.8</ele>
        <time>2020-08-12T18:42:19Z</time>
      </trkpt>
      <trkpt lat="46.195823" lon="-1.500607">
        <ele>0.8</ele>
        <time>2020-08-12T18:42:24Z</time>
      </trkpt>
      <trkpt lat="46.196229" lon="-1.500704">
        <ele>1.0</ele>
        <time>2020-08-12T18:42:28Z</time>
      </trkpt>
      <trkpt lat="46.196546" lon="-1.500846">
        <ele>1.2</ele>
        <time>2020-08-12T18:42:30Z</time>
      </trkpt>
      <trkpt lat="46.196861" lon="-1.501069">
        <ele>1.2</ele>
        <time>2020-08-12T18:42:33Z</time>
      </trkpt>
      <trkpt lat="46.197248" lon="-1.501401">
        <ele>1.2</ele>
        <time>2020-08-12T18:42:36Z</time>
      </trkpt>
      <trkpt lat="46.198721" lon="-1.502313">
        <ele>0.4</ele>
        <time>2020-08-12T18:42:49Z</time>
      </trkpt>
      <trkpt lat="46.198845" lon="-1.502411">
        <ele>0.4</ele>
        <time>2020-08-12T18:42:50Z</time>
      </trkpt>
      <trkpt lat="46.198963" lon="-1.502535">
        <ele>0.6</ele>
        <time>2020-08-12T18:42:51Z</time>
      </trkpt>
      <trkpt lat="46.199141" lon="-1.50276">
        <ele>0.6</ele>
        <time>2020-08-12T18:42:53Z</time>
      </trkpt>
      <trkpt lat="46.199335" lon="-1.503102">
        <ele>0.0</ele>
        <time>2020-08-12T18:42:55Z</time>
      </trkpt>
      <trkpt lat="46.200154" lon="-1.504741">
        <ele>0.4</ele>
        <time>2020-08-12T18:43:06Z</time>
      </trkpt>
      <trkpt lat="46.200322" lon="-1.505112">
        <ele>1.0</ele>
        <time>2020-08-12T18:43:08Z</time>
      </trkpt>
      <trkpt lat="46.200445" lon="-1.5055">
        <ele>1.0</ele>
        <time>2020-08-12T18:43:10Z</time>
      </trkpt>
      <trkpt lat="46.200642" lon="-1.506471">
        <ele>1.0</ele>
        <time>2020-08-12T18:43:16Z</time>
      </trkpt>
      <trkpt lat="46.201016" lon="-1.507981">
        <ele>1.8</ele>
        <time>2020-08-12T18:43:24Z</time>
      </trkpt>
      <trkpt lat="46.201085" lon="-1.508172">
        <ele>1.8</ele>
        <time>2020-08-12T18:43:25Z</time>
      </trkpt>
      <trkpt lat="46.201167" lon="-1.508335">
        <ele>1.0</ele>
        <time>2020-08-12T18:43:27Z</time>
      </trkpt>
      <trkpt lat="46.201378" lon="-1.508642">
        <ele>1.0</ele>
        <time>2020-08-12T18:43:29Z</time>
      </trkpt>
      <trkpt lat="46.202413" lon="-1.509795">
        <ele>0.4</ele>
        <time>2020-08-12T18:43:39Z</time>
      </trkpt>
      <trkpt lat="46.202926" lon="-1.510521">
        <ele>0.6</ele>
        <time>2020-08-12T18:43:44Z</time>
      </trkpt>
      <trkpt lat="46.203186" lon="-1.510963">
        <ele>1.2</ele>
        <time>2020-08-12T18:43:48Z</time>
      </trkpt>
      <trkpt lat="46.203214" lon="-1.510934">
        <ele>1.2</ele>
        <time>2020-08-12T18:43:48Z</time>
      </trkpt>
      <trkpt lat="46.203283" lon="-1.510921">
        <ele>1.2</ele>
        <time>2020-08-12T18:43:49Z</time>
      </trkpt>
      <trkpt lat="46.203343" lon="-1.51097">
        <ele>1.4</ele>
        <time>2020-08-12T18:43:49Z</time>
      </trkpt>
      <trkpt lat="46.203362" lon="-1.511013">
        <ele>1.4</ele>
        <time>2020-08-12T18:43:49Z</time>
      </trkpt>
      <trkpt lat="46.203368" lon="-1.511116">
        <ele>1.4</ele>
        <time>2020-08-12T18:43:50Z</time>
      </trkpt>
      <trkpt lat="46.203329" lon="-1.511201">
        <ele>1.2</ele>
        <time>2020-08-12T18:43:51Z</time>
      </trkpt>
      <trkpt lat="46.203581" lon="-1.511689">
        <ele>1.8</ele>
        <time>2020-08-12T18:43:55Z</time>
      </trkpt>
      <trkpt lat="46.20376" lon="-1.512093">
        <ele>1.8</ele>
        <time>2020-08-12T18:43:58Z</time>
      </trkpt>
      <trkpt lat="46.204178" lon="-1.51368">
        <ele>2.0</ele>
        <time>2020-08-12T18:44:09Z</time>
      </trkpt>
      <trkpt lat="46.205113" lon="-1.517532">
        <ele>3.0</ele>
        <time>2020-08-12T18:44:35Z</time>
      </trkpt>
      <trkpt lat="46.205486" lon="-1.518897">
        <ele>3.4</ele>
        <time>2020-08-12T18:44:44Z</time>
      </trkpt>
      <trkpt lat="46.205705" lon="-1.519528">
        <ele>2.8</ele>
        <time>2020-08-12T18:44:48Z</time>
      </trkpt>
      <trkpt lat="46.205813" lon="-1.519922">
        <ele>2.8</ele>
        <time>2020-08-12T18:44:51Z</time>
      </trkpt>
      <trkpt lat="46.206265" lon="-1.521057">
        <ele>2.4</ele>
        <time>2020-08-12T18:44:59Z</time>
      </trkpt>
      <trkpt lat="46.206525" lon="-1.521475">
        <ele>2.4</ele>
        <time>2020-08-12T18:45:03Z</time>
      </trkpt>
      <trkpt lat="46.206644" lon="-1.52161">
        <ele>2.4</ele>
        <time>2020-08-12T18:45:04Z</time>
      </trkpt>
      <trkpt lat="46.206837" lon="-1.521763">
        <ele>2.2</ele>
        <time>2020-08-12T18:45:06Z</time>
      </trkpt>
      <trkpt lat="46.207133" lon="-1.521904">
        <ele>2.2</ele>
        <time>2020-08-12T18:45:09Z</time>
      </trkpt>
      <trkpt lat="46.207285" lon="-1.521932">
        <ele>2.2</ele>
        <time>2020-08-12T18:45:11Z</time>
      </trkpt>
      <trkpt lat="46.207571" lon="-1.521939">
        <ele>1.2</ele>
        <time>2020-08-12T18:45:13Z</time>
      </trkpt>
      <trkpt lat="46.207891" lon="-1.5219">
        <ele>1.2</ele>
        <time>2020-08-12T18:45:16Z</time>
      </trkpt>
      <trkpt lat="46.209808" lon="-1.521146">
        <ele>1.6</ele>
        <time>2020-08-12T18:45:35Z</time>
      </trkpt>
      <trkpt lat="46.210168" lon="-1.520981">
        <ele>1.2</ele>
        <time>2020-08-12T18:45:38Z</time>
      </trkpt>
      <trkpt lat="46.21026" lon="-1.520956">
        <ele>1.2</ele>
        <time>2020-08-12T18:45:39Z</time>
      </trkpt>
      <trkpt lat="46.210508" lon="-1.520945">
        <ele>1.2</ele>
        <time>2020-08-12T18:45:41Z</time>
      </trkpt>
      <trkpt lat="46.210599" lon="-1.520951">
        <ele>1.2</ele>
        <time>2020-08-12T18:45:42Z</time>
      </trkpt>
      <trkpt lat="46.210704" lon="-1.52099">
        <ele>1.2</ele>
        <time>2020-08-12T18:45:43Z</time>
      </trkpt>
      <trkpt lat="46.2111" lon="-1.521276">
        <ele>0.8</ele>
        <time>2020-08-12T18:45:47Z</time>
      </trkpt>
      <trkpt lat="46.21136" lon="-1.521548">
        <ele>0.8</ele>
        <time>2020-08-12T18:45:50Z</time>
      </trkpt>
      <trkpt lat="46.212449" lon="-1.523024">
        <ele>0.2</ele>
        <time>2020-08-12T18:46:04Z</time>
      </trkpt>
      <trkpt lat="46.212872" lon="-1.52349">
        <ele>-0.4</ele>
        <time>2020-08-12T18:46:09Z</time>
      </trkpt>
      <trkpt lat="46.213975" lon="-1.524636">
        <ele>-0.6</ele>
        <time>2020-08-12T18:46:21Z</time>
      </trkpt>
      <trkpt lat="46.214195" lon="-1.524838">
        <ele>0.4</ele>
        <time>2020-08-12T18:46:24Z</time>
      </trkpt>
      <trkpt lat="46.214398" lon="-1.524995">
        <ele>0.4</ele>
        <time>2020-08-12T18:46:26Z</time>
      </trkpt>
      <trkpt lat="46.214804" lon="-1.525214">
        <ele>1.6</ele>
        <time>2020-08-12T18:46:30Z</time>
      </trkpt>
      <trkpt lat="46.215685" lon="-1.525512">
        <ele>3.0</ele>
        <time>2020-08-12T18:46:38Z</time>
      </trkpt>
      <trkpt lat="46.216139" lon="-1.525655">
        <ele>3.2</ele>
        <time>2020-08-12T18:46:42Z</time>
      </trkpt>
      <trkpt lat="46.217056" lon="-1.525834">
        <ele>4.6</ele>
        <time>2020-08-12T18:46:51Z</time>
      </trkpt>
      <trkpt lat="46.217304" lon="-1.525916">
        <ele>4.6</ele>
        <time>2020-08-12T18:46:53Z</time>
      </trkpt>
      <trkpt lat="46.217588" lon="-1.526047">
        <ele>3.8</ele>
        <time>2020-08-12T18:46:56Z</time>
      </trkpt>
      <trkpt lat="46.218388" lon="-1.526556">
        <ele>2.0</ele>
        <time>2020-08-12T18:47:04Z</time>
      </trkpt>
      <trkpt lat="46.21893" lon="-1.526924">
        <ele>4.6</ele>
        <time>2020-08-12T18:47:10Z</time>
      </trkpt>
      <trkpt lat="46.219212" lon="-1.527143">
        <ele>2.2</ele>
        <time>2020-08-12T18:47:13Z</time>
      </trkpt>
      <trkpt lat="46.219668" lon="-1.527602">
        <ele>3.0</ele>
        <time>2020-08-12T18:47:18Z</time>
      </trkpt>
      <trkpt lat="46.220042" lon="-1.52806">
        <ele>1.0</ele>
        <time>2020-08-12T18:47:22Z</time>
      </trkpt>
      <trkpt lat="46.220462" lon="-1.52868">
        <ele>1.6</ele>
        <time>2020-08-12T18:47:28Z</time>
      </trkpt>
      <trkpt lat="46.220595" lon="-1.528953">
        <ele>1.6</ele>
        <time>2020-08-12T18:47:30Z</time>
      </trkpt>
      <trkpt lat="46.220774" lon="-1.529407">
        <ele>4.0</ele>
        <time>2020-08-12T18:47:33Z</time>
      </trkpt>
      <trkpt lat="46.221239" lon="-1.530678">
        <ele>5.2</ele>
        <time>2020-08-12T18:47:42Z</time>
      </trkpt>
      <trkpt lat="46.221438" lon="-1.531127">
        <ele>4.8</ele>
        <time>2020-08-12T18:47:46Z</time>
      </trkpt>
      <trkpt lat="46.221723" lon="-1.531613">
        <ele>3.0</ele>
        <time>2020-08-12T18:47:50Z</time>
      </trkpt>
      <trkpt lat="46.222829" lon="-1.532839">
        <ele>1.6</ele>
        <time>2020-08-12T18:48:03Z</time>
      </trkpt>
      <trkpt lat="46.224231" lon="-1.534226">
        <ele>1.6</ele>
        <time>2020-08-12T18:48:18Z</time>
      </trkpt>
      <trkpt lat="46.22935" lon="-1.53902">
        <ele>0.6</ele>
        <time>2020-08-12T18:49:15Z</time>
      </trkpt>
      <trkpt lat="46.229616" lon="-1.539325">
        <ele>2.0</ele>
        <time>2020-08-12T18:49:18Z</time>
      </trkpt>
      <trkpt lat="46.229844" lon="-1.539681">
        <ele>2.0</ele>
        <time>2020-08-12T18:49:21Z</time>
      </trkpt>
      <trkpt lat="46.230518" lon="-1.540648">
        <ele>1.0</ele>
        <time>2020-08-12T18:49:29Z</time>
      </trkpt>
      <trkpt lat="46.230645" lon="-1.540772">
        <ele>1.0</ele>
        <time>2020-08-12T18:49:31Z</time>
      </trkpt>
      <trkpt lat="46.231849" lon="-1.541742">
        <ele>0.2</ele>
        <time>2020-08-12T18:49:44Z</time>
      </trkpt>
      <trkpt lat="46.232341" lon="-1.542165">
        <ele>0.2</ele>
        <time>2020-08-12T18:49:49Z</time>
      </trkpt>
      <trkpt lat="46.233103" lon="-1.542911">
        <ele>1.0</ele>
        <time>2020-08-12T18:49:57Z</time>
      </trkpt>
      <trkpt lat="46.234285" lon="-1.544193">
        <ele>0.0</ele>
        <time>2020-08-12T18:50:11Z</time>
      </trkpt>
      <trkpt lat="46.234498" lon="-1.544389">
        <ele>0.0</ele>
        <time>2020-08-12T18:50:13Z</time>
      </trkpt>
      <trkpt lat="46.234847" lon="-1.544613">
        <ele>0.0</ele>
        <time>2020-08-12T18:50:17Z</time>
      </trkpt>
      <trkpt lat="46.235216" lon="-1.544743">
        <ele>0.2</ele>
        <time>2020-08-12T18:50:20Z</time>
      </trkpt>
      <trkpt lat="46.235579" lon="-1.544784">
        <ele>0.2</ele>
        <time>2020-08-12T18:50:24Z</time>
      </trkpt>
      <trkpt lat="46.235937" lon="-1.544748">
        <ele>0.4</ele>
        <time>2020-08-12T18:50:27Z</time>
      </trkpt>
      <trkpt lat="46.236669" lon="-1.544571">
        <ele>0.8</ele>
        <time>2020-08-12T18:50:34Z</time>
      </trkpt>
      <trkpt lat="46.237208" lon="-1.544482">
        <ele>0.8</ele>
        <time>2020-08-12T18:50:39Z</time>
      </trkpt>
      <trkpt lat="46.23783" lon="-1.544445">
        <ele>0.8</ele>
        <time>2020-08-12T18:50:44Z</time>
      </trkpt>
      <trkpt lat="46.238512" lon="-1.544327">
        <ele>0.4</ele>
        <time>2020-08-12T18:50:51Z</time>
      </trkpt>
      <trkpt lat="46.238735" lon="-1.544259">
        <ele>0.4</ele>
        <time>2020-08-12T18:50:53Z</time>
      </trkpt>
      <trkpt lat="46.239127" lon="-1.544218">
        <ele>0.4</ele>
        <time>2020-08-12T18:50:57Z</time>
      </trkpt>
      <trkpt lat="46.239285" lon="-1.54425">
        <ele>0.4</ele>
        <time>2020-08-12T18:50:58Z</time>
      </trkpt>
      <trkpt lat="46.239354" lon="-1.544197">
        <ele>0.4</ele>
        <time>2020-08-12T18:50:59Z</time>
      </trkpt>
      <trkpt lat="46.23943" lon="-1.544169">
        <ele>0.4</ele>
        <time>2020-08-12T18:50:59Z</time>
      </trkpt>
      <trkpt lat="46.239509" lon="-1.544168">
        <ele>0.4</ele>
        <time>2020-08-12T18:51:00Z</time>
      </trkpt>
      <trkpt lat="46.239585" lon="-1.544196">
        <ele>0.4</ele>
        <time>2020-08-12T18:51:01Z</time>
      </trkpt>
      <trkpt lat="46.239654" lon="-1.54425">
        <ele>0.4</ele>
        <time>2020-08-12T18:51:02Z</time>
      </trkpt>
      <trkpt lat="46.239874" lon="-1.54418">
        <ele>0.4</ele>
        <time>2020-08-12T18:51:04Z</time>
      </trkpt>
      <trkpt lat="46.241874" lon="-1.543759">
        <ele>2.2</ele>
        <time>2020-08-12T18:51:28Z</time>
      </trkpt>
      <trkpt lat="46.242219" lon="-1.543615">
        <ele>2.2</ele>
        <time>2020-08-12T18:51:32Z</time>
      </trkpt>
      <trkpt lat="46.242275" lon="-1.543557">
        <ele>2.2</ele>
        <time>2020-08-12T18:51:33Z</time>
      </trkpt>
      <trkpt lat="46.24236" lon="-1.543396">
        <ele>2.2</ele>
        <time>2020-08-12T18:51:34Z</time>
      </trkpt>
      <trkpt lat="46.242384" lon="-1.54328">
        <ele>1.8</ele>
        <time>2020-08-12T18:51:35Z</time>
      </trkpt>
      <trkpt lat="46.242407" lon="-1.542994">
        <ele>1.8</ele>
        <time>2020-08-12T18:51:38Z</time>
      </trkpt>
      <trkpt lat="46.242412" lon="-1.541208">
        <ele>1.0</ele>
        <time>2020-08-12T18:51:52Z</time>
      </trkpt>
      <trkpt lat="46.242458" lon="-1.539953">
        <ele>0.4</ele>
        <time>2020-08-12T18:52:02Z</time>
      </trkpt>
      <trkpt lat="46.242657" lon="-1.538123">
        <ele>3.0</ele>
        <time>2020-08-12T18:52:17Z</time>
      </trkpt>
      <trkpt lat="46.242744" lon="-1.537116">
        <ele>3.2</ele>
        <time>2020-08-12T18:52:25Z</time>
      </trkpt>
      <trkpt lat="46.242891" lon="-1.536217">
        <ele>3.2</ele>
        <time>2020-08-12T18:52:33Z</time>
      </trkpt>
      <trkpt lat="46.243305" lon="-1.534395">
        <ele>3.4</ele>
        <time>2020-08-12T18:52:48Z</time>
      </trkpt>
      <trkpt lat="46.243947" lon="-1.531812">
        <ele>2.6</ele>
        <time>2020-08-12T18:53:10Z</time>
      </trkpt>
      <trkpt lat="46.244192" lon="-1.530973">
        <ele>6.2</ele>
        <time>2020-08-12T18:53:18Z</time>
      </trkpt>
      <trkpt lat="46.244298" lon="-1.53055">
        <ele>5.2</ele>
        <time>2020-08-12T18:53:21Z</time>
      </trkpt>
      <trkpt lat="46.244632" lon="-1.528795">
        <ele>4.0</ele>
        <time>2020-08-12T18:53:36Z</time>
      </trkpt>
      <trkpt lat="46.244989" lon="-1.527395">
        <ele>3.2</ele>
        <time>2020-08-12T18:53:48Z</time>
      </trkpt>
      <trkpt lat="46.245352" lon="-1.526221">
        <ele>6.0</ele>
        <time>2020-08-12T18:53:58Z</time>
      </trkpt>
      <trkpt lat="46.245598" lon="-1.52558">
        <ele>5.2</ele>
        <time>2020-08-12T18:54:04Z</time>
      </trkpt>
      <trkpt lat="46.245727" lon="-1.525195">
        <ele>5.2</ele>
        <time>2020-08-12T18:54:07Z</time>
      </trkpt>
      <trkpt lat="46.246316" lon="-1.522985">
        <ele>4.6</ele>
        <time>2020-08-12T18:54:27Z</time>
      </trkpt>
      <trkpt lat="46.246511" lon="-1.521896">
        <ele>4.8</ele>
        <time>2020-08-12T18:54:36Z</time>
      </trkpt>
      <trkpt lat="46.246541" lon="-1.521071">
        <ele>3.8</ele>
        <time>2020-08-12T18:54:42Z</time>
      </trkpt>
      <trkpt lat="46.246613" lon="-1.520267">
        <ele>3.4</ele>
        <time>2020-08-12T18:54:49Z</time>
      </trkpt>
      <trkpt lat="46.246821" lon="-1.519009">
        <ele>5.4</ele>
        <time>2020-08-12T18:54:59Z</time>
      </trkpt>
      <trkpt lat="46.246936" lon="-1.518451">
        <ele>5.4</ele>
        <time>2020-08-12T18:55:04Z</time>
      </trkpt>
      <trkpt lat="46.24743" lon="-1.516588">
        <ele>3.4</ele>
        <time>2020-08-12T18:55:20Z</time>
      </trkpt>
      <trkpt lat="46.247493" lon="-1.516295">
        <ele>3.4</ele>
        <time>2020-08-12T18:55:22Z</time>
      </trkpt>
      <trkpt lat="46.247891" lon="-1.512829">
        <ele>2.4</ele>
        <time>2020-08-12T18:55:51Z</time>
      </trkpt>
      <trkpt lat="46.24792" lon="-1.512473">
        <ele>2.6</ele>
        <time>2020-08-12T18:55:53Z</time>
      </trkpt>
      <trkpt lat="46.247923" lon="-1.512117">
        <ele>2.6</ele>
        <time>2020-08-12T18:55:56Z</time>
      </trkpt>
      <trkpt lat="46.247812" lon="-1.510212">
        <ele>3.6</ele>
        <time>2020-08-12T18:56:12Z</time>
      </trkpt>
      <trkpt lat="46.247826" lon="-1.509828">
        <ele>4.4</ele>
        <time>2020-08-12T18:56:15Z</time>
      </trkpt>
      <trkpt lat="46.247957" lon="-1.508763">
        <ele>4.2</ele>
        <time>2020-08-12T18:56:23Z</time>
      </trkpt>
      <trkpt lat="46.247958" lon="-1.508502">
        <ele>4.2</ele>
        <time>2020-08-12T18:56:26Z</time>
      </trkpt>
      <trkpt lat="46.247921" lon="-1.507981">
        <ele>4.0</ele>
        <time>2020-08-12T18:56:30Z</time>
      </trkpt>
      <trkpt lat="46.247933" lon="-1.507071">
        <ele>4.2</ele>
        <time>2020-08-12T18:56:37Z</time>
      </trkpt>
      <trkpt lat="46.247911" lon="-1.506644">
        <ele>4.2</ele>
        <time>2020-08-12T18:56:41Z</time>
      </trkpt>
      <trkpt lat="46.247883" lon="-1.506347">
        <ele>4.2</ele>
        <time>2020-08-12T18:56:43Z</time>
      </trkpt>
      <trkpt lat="46.247747" lon="-1.505588">
        <ele>3.6</ele>
        <time>2020-08-12T18:56:49Z</time>
      </trkpt>
      <trkpt lat="46.246672" lon="-1.500486">
        <ele>2.6</ele>
        <time>2020-08-12T18:57:32Z</time>
      </trkpt>
      <trkpt lat="46.246262" lon="-1.498772">
        <ele>1.0</ele>
        <time>2020-08-12T18:57:47Z</time>
      </trkpt>
      <trkpt lat="46.246051" lon="-1.498148">
        <ele>1.8</ele>
        <time>2020-08-12T18:57:52Z</time>
      </trkpt>
      <trkpt lat="46.245999" lon="-1.497954">
        <ele>1.8</ele>
        <time>2020-08-12T18:57:54Z</time>
      </trkpt>
      <trkpt lat="46.245952" lon="-1.497424">
        <ele>2.2</ele>
        <time>2020-08-12T18:57:58Z</time>
      </trkpt>
      <trkpt lat="46.245967" lon="-1.496516">
        <ele>1.8</ele>
        <time>2020-08-12T18:58:06Z</time>
      </trkpt>
      <trkpt lat="46.245903" lon="-1.494662">
        <ele>0.8</ele>
        <time>2020-08-12T18:58:21Z</time>
      </trkpt>
      <trkpt lat="46.245744" lon="-1.491874">
        <ele>0.8</ele>
        <time>2020-08-12T18:58:43Z</time>
      </trkpt>
      <trkpt lat="46.24574" lon="-1.491202">
        <ele>0.6</ele>
        <time>2020-08-12T18:58:48Z</time>
      </trkpt>
      <trkpt lat="46.245764" lon="-1.490808">
        <ele>0.0</ele>
        <time>2020-08-12T18:58:52Z</time>
      </trkpt>
      <trkpt lat="46.245872" lon="-1.490303">
        <ele>-0.2</ele>
        <time>2020-08-12T18:58:56Z</time>
      </trkpt>
      <trkpt lat="46.246089" lon="-1.489662">
        <ele>-0.6</ele>
        <time>2020-08-12T18:59:02Z</time>
      </trkpt>
      <trkpt lat="46.246115" lon="-1.489543">
        <ele>-0.6</ele>
        <time>2020-08-12T18:59:03Z</time>
      </trkpt>
      <trkpt lat="46.246171" lon="-1.488841">
        <ele>0.4</ele>
        <time>2020-08-12T18:59:08Z</time>
      </trkpt>
      <trkpt lat="46.246574" lon="-1.486838">
        <ele>1.8</ele>
        <time>2020-08-12T18:59:25Z</time>
      </trkpt>
      <trkpt lat="46.246625" lon="-1.486692">
        <ele>1.8</ele>
        <time>2020-08-12T18:59:26Z</time>
      </trkpt>
      <trkpt lat="46.246708" lon="-1.486597">
        <ele>1.6</ele>
        <time>2020-08-12T18:59:28Z</time>
      </trkpt>
      <trkpt lat="46.246758" lon="-1.486572">
        <ele>1.6</ele>
        <time>2020-08-12T18:59:28Z</time>
      </trkpt>
      <trkpt lat="46.246871" lon="-1.486571">
        <ele>1.6</ele>
        <time>2020-08-12T18:59:30Z</time>
      </trkpt>
      <trkpt lat="46.246985" lon="-1.486647">
        <ele>1.6</ele>
        <time>2020-08-12T18:59:31Z</time>
      </trkpt>
      <trkpt lat="46.247478" lon="-1.487209">
        <ele>1.4</ele>
        <time>2020-08-12T18:59:38Z</time>
      </trkpt>
      <trkpt lat="46.247539" lon="-1.487259">
        <ele>1.6</ele>
        <time>2020-08-12T18:59:39Z</time>
      </trkpt>
      <trkpt lat="46.247637" lon="-1.48731">
        <ele>1.6</ele>
        <time>2020-08-12T18:59:40Z</time>
      </trkpt>
      <trkpt lat="46.247746" lon="-1.48729">
        <ele>1.6</ele>
        <time>2020-08-12T18:59:42Z</time>
      </trkpt>
      <trkpt lat="46.247838" lon="-1.487218">
        <ele>1.6</ele>
        <time>2020-08-12T18:59:43Z</time>
      </trkpt>
      <trkpt lat="46.247908" lon="-1.487087">
        <ele>1.6</ele>
        <time>2020-08-12T18:59:44Z</time>
      </trkpt>
      <trkpt lat="46.247941" lon="-1.486966">
        <ele>1.6</ele>
        <time>2020-08-12T18:59:45Z</time>
      </trkpt>
      <trkpt lat="46.247964" lon="-1.486043">
        <ele>2.0</ele>
        <time>2020-08-12T18:59:53Z</time>
      </trkpt>
      <trkpt lat="46.247953" lon="-1.485814">
        <ele>2.6</ele>
        <time>2020-08-12T18:59:54Z</time>
      </trkpt>
      <trkpt lat="46.247905" lon="-1.485564">
        <ele>2.6</ele>
        <time>2020-08-12T18:59:57Z</time>
      </trkpt>
      <trkpt lat="46.247806" lon="-1.485192">
        <ele>2.6</ele>
        <time>2020-08-12T19:00:00Z</time>
      </trkpt>
      <trkpt lat="46.247324" lon="-1.48372">
        <ele>2.8</ele>
        <time>2020-08-12T19:00:13Z</time>
      </trkpt>
      <trkpt lat="46.247254" lon="-1.483433">
        <ele>2.8</ele>
        <time>2020-08-12T19:00:15Z</time>
      </trkpt>
      <trkpt lat="46.247187" lon="-1.482993">
        <ele>3.6</ele>
        <time>2020-08-12T19:00:19Z</time>
      </trkpt>
      <trkpt lat="46.247142" lon="-1.482842">
        <ele>3.6</ele>
        <time>2020-08-12T19:00:20Z</time>
      </trkpt>
      <trkpt lat="46.247113" lon="-1.48279">
        <ele>3.6</ele>
        <time>2020-08-12T19:00:21Z</time>
      </trkpt>
      <trkpt lat="46.247061" lon="-1.482748">
        <ele>3.6</ele>
        <time>2020-08-12T19:00:21Z</time>
      </trkpt>
      <trkpt lat="46.246964" lon="-1.482722">
        <ele>3.6</ele>
        <time>2020-08-12T19:00:23Z</time>
      </trkpt>
      <trkpt lat="46.246567" lon="-1.48282">
        <ele>3.4</ele>
        <time>2020-08-12T19:00:27Z</time>
      </trkpt>
      <trkpt lat="46.24457" lon="-1.483465">
        <ele>2.8</ele>
        <time>2020-08-12T19:00:51Z</time>
      </trkpt>
      <trkpt lat="46.244367" lon="-1.483506">
        <ele>2.8</ele>
        <time>2020-08-12T19:00:53Z</time>
      </trkpt>
      <trkpt lat="46.243786" lon="-1.483472">
        <ele>2.4</ele>
        <time>2020-08-12T19:01:00Z</time>
      </trkpt>
      <trkpt lat="46.243115" lon="-1.483464">
        <ele>2.4</ele>
        <time>2020-08-12T19:01:08Z</time>
      </trkpt>
      <trkpt lat="46.242064" lon="-1.483492">
        <ele>2.6</ele>
        <time>2020-08-12T19:01:20Z</time>
      </trkpt>
      <trkpt lat="46.240162" lon="-1.483712">
        <ele>2.6</ele>
        <time>2020-08-12T19:01:42Z</time>
      </trkpt>
      <trkpt lat="46.239901" lon="-1.483786">
        <ele>3.4</ele>
        <time>2020-08-12T19:01:46Z</time>
      </trkpt>
      <trkpt lat="46.239796" lon="-1.483852">
        <ele>3.4</ele>
        <time>2020-08-12T19:01:47Z</time>
      </trkpt>
      <trkpt lat="46.239351" lon="-1.484258">
        <ele>2.4</ele>
        <time>2020-08-12T19:01:53Z</time>
      </trkpt>
      <trkpt lat="46.239027" lon="-1.484498">
        <ele>3.4</ele>
        <time>2020-08-12T19:01:57Z</time>
      </trkpt>
      <trkpt lat="46.238241" lon="-1.48482">
        <ele>3.6</ele>
        <time>2020-08-12T19:02:07Z</time>
      </trkpt>
      <trkpt lat="46.237614" lon="-1.485041">
        <ele>3.2</ele>
        <time>2020-08-12T19:02:14Z</time>
      </trkpt>
      <trkpt lat="46.237472" lon="-1.485061">
        <ele>3.0</ele>
        <time>2020-08-12T19:02:16Z</time>
      </trkpt>
      <trkpt lat="46.236785" lon="-1.485009">
        <ele>3.0</ele>
        <time>2020-08-12T19:02:24Z</time>
      </trkpt>
      <trkpt lat="46.235087" lon="-1.484699">
        <ele>3.4</ele>
        <time>2020-08-12T19:02:44Z</time>
      </trkpt>
      <trkpt lat="46.233589" lon="-1.484628">
        <ele>4.0</ele>
        <time>2020-08-12T19:03:01Z</time>
      </trkpt>
      <trkpt lat="46.232903" lon="-1.484538">
        <ele>4.2</ele>
        <time>2020-08-12T19:03:09Z</time>
      </trkpt>
      <trkpt lat="46.232509" lon="-1.484438">
        <ele>4.2</ele>
        <time>2020-08-12T19:03:14Z</time>
      </trkpt>
      <trkpt lat="46.232255" lon="-1.484331">
        <ele>4.2</ele>
        <time>2020-08-12T19:03:17Z</time>
      </trkpt>
      <trkpt lat="46.230601" lon="-1.483501">
        <ele>3.2</ele>
        <time>2020-08-12T19:03:38Z</time>
      </trkpt>
      <trkpt lat="46.230601" lon="-1.483501">
        <ele>3.2</ele>
        <time>2020-08-12T19:03:38Z</time>
      </trkpt>
      <trkpt lat="46.232255" lon="-1.484331">
        <ele>4.2</ele>
        <time>2020-08-12T19:03:58Z</time>
      </trkpt>
      <trkpt lat="46.232509" lon="-1.484438">
        <ele>4.2</ele>
        <time>2020-08-12T19:04:01Z</time>
      </trkpt>
      <trkpt lat="46.232903" lon="-1.484538">
        <ele>4.2</ele>
        <time>2020-08-12T19:04:06Z</time>
      </trkpt>
      <trkpt lat="46.233589" lon="-1.484628">
        <ele>4.0</ele>
        <time>2020-08-12T19:04:14Z</time>
      </trkpt>
      <trkpt lat="46.235087" lon="-1.484699">
        <ele>3.4</ele>
        <time>2020-08-12T19:04:31Z</time>
      </trkpt>
      <trkpt lat="46.236785" lon="-1.485009">
        <ele>3.0</ele>
        <time>2020-08-12T19:04:51Z</time>
      </trkpt>
      <trkpt lat="46.237472" lon="-1.485061">
        <ele>3.0</ele>
        <time>2020-08-12T19:04:59Z</time>
      </trkpt>
      <trkpt lat="46.237614" lon="-1.485041">
        <ele>3.2</ele>
        <time>2020-08-12T19:05:01Z</time>
      </trkpt>
      <trkpt lat="46.238241" lon="-1.48482">
        <ele>3.6</ele>
        <time>2020-08-12T19:05:08Z</time>
      </trkpt>
      <trkpt lat="46.239027" lon="-1.484498">
        <ele>3.4</ele>
        <time>2020-08-12T19:05:18Z</time>
      </trkpt>
      <trkpt lat="46.239351" lon="-1.484258">
        <ele>2.4</ele>
        <time>2020-08-12T19:05:22Z</time>
      </trkpt>
      <trkpt lat="46.239796" lon="-1.483852">
        <ele>3.4</ele>
        <time>2020-08-12T19:05:28Z</time>
      </trkpt>
      <trkpt lat="46.239901" lon="-1.483786">
        <ele>3.4</ele>
        <time>2020-08-12T19:05:30Z</time>
      </trkpt>
      <trkpt lat="46.240162" lon="-1.483712">
        <ele>2.6</ele>
        <time>2020-08-12T19:05:33Z</time>
      </trkpt>
      <trkpt lat="46.242064" lon="-1.483492">
        <ele>2.6</ele>
        <time>2020-08-12T19:05:55Z</time>
      </trkpt>
      <trkpt lat="46.243115" lon="-1.483464">
        <ele>2.4</ele>
        <time>2020-08-12T19:06:07Z</time>
      </trkpt>
      <trkpt lat="46.243786" lon="-1.483472">
        <ele>2.4</ele>
        <time>2020-08-12T19:06:15Z</time>
      </trkpt>
      <trkpt lat="46.244367" lon="-1.483506">
        <ele>2.8</ele>
        <time>2020-08-12T19:06:22Z</time>
      </trkpt>
      <trkpt lat="46.24457" lon="-1.483465">
        <ele>2.8</ele>
        <time>2020-08-12T19:06:24Z</time>
      </trkpt>
      <trkpt lat="46.246567" lon="-1.48282">
        <ele>3.4</ele>
        <time>2020-08-12T19:06:48Z</time>
      </trkpt>
      <trkpt lat="46.246964" lon="-1.482722">
        <ele>3.6</ele>
        <time>2020-08-12T19:06:53Z</time>
      </trkpt>
      <trkpt lat="46.247061" lon="-1.482748">
        <ele>3.6</ele>
        <time>2020-08-12T19:06:54Z</time>
      </trkpt>
      <trkpt lat="46.247113" lon="-1.48279">
        <ele>3.6</ele>
        <time>2020-08-12T19:06:55Z</time>
      </trkpt>
      <trkpt lat="46.247142" lon="-1.482842">
        <ele>3.6</ele>
        <time>2020-08-12T19:06:55Z</time>
      </trkpt>
      <trkpt lat="46.247187" lon="-1.482993">
        <ele>3.6</ele>
        <time>2020-08-12T19:06:56Z</time>
      </trkpt>
      <trkpt lat="46.247254" lon="-1.483433">
        <ele>2.8</ele>
        <time>2020-08-12T19:07:00Z</time>
      </trkpt>
      <trkpt lat="46.247324" lon="-1.48372">
        <ele>2.8</ele>
        <time>2020-08-12T19:07:03Z</time>
      </trkpt>
      <trkpt lat="46.247806" lon="-1.485192">
        <ele>2.6</ele>
        <time>2020-08-12T19:07:16Z</time>
      </trkpt>
      <trkpt lat="46.247905" lon="-1.485564">
        <ele>2.6</ele>
        <time>2020-08-12T19:07:19Z</time>
      </trkpt>
      <trkpt lat="46.247953" lon="-1.485814">
        <ele>2.6</ele>
        <time>2020-08-12T19:07:21Z</time>
      </trkpt>
      <trkpt lat="46.247964" lon="-1.486043">
        <ele>2.0</ele>
        <time>2020-08-12T19:07:23Z</time>
      </trkpt>
      <trkpt lat="46.247941" lon="-1.486966">
        <ele>1.6</ele>
        <time>2020-08-12T19:07:30Z</time>
      </trkpt>
      <trkpt lat="46.247908" lon="-1.487087">
        <ele>1.6</ele>
        <time>2020-08-12T19:07:31Z</time>
      </trkpt>
      <trkpt lat="46.247838" lon="-1.487218">
        <ele>1.6</ele>
        <time>2020-08-12T19:07:33Z</time>
      </trkpt>
      <trkpt lat="46.247746" lon="-1.48729">
        <ele>1.6</ele>
        <time>2020-08-12T19:07:34Z</time>
      </trkpt>
      <trkpt lat="46.247637" lon="-1.48731">
        <ele>1.6</ele>
        <time>2020-08-12T19:07:35Z</time>
      </trkpt>
      <trkpt lat="46.247539" lon="-1.487259">
        <ele>1.6</ele>
        <time>2020-08-12T19:07:36Z</time>
      </trkpt>
      <trkpt lat="46.247478" lon="-1.487209">
        <ele>1.4</ele>
        <time>2020-08-12T19:07:37Z</time>
      </trkpt>
      <trkpt lat="46.246985" lon="-1.486647">
        <ele>1.6</ele>
        <time>2020-08-12T19:07:44Z</time>
      </trkpt>
      <trkpt lat="46.246871" lon="-1.486571">
        <ele>1.6</ele>
        <time>2020-08-12T19:07:46Z</time>
      </trkpt>
      <trkpt lat="46.246758" lon="-1.486572">
        <ele>1.6</ele>
        <time>2020-08-12T19:07:47Z</time>
      </trkpt>
      <trkpt lat="46.246708" lon="-1.486597">
        <ele>1.6</ele>
        <time>2020-08-12T19:07:48Z</time>
      </trkpt>
      <trkpt lat="46.246625" lon="-1.486692">
        <ele>1.8</ele>
        <time>2020-08-12T19:07:49Z</time>
      </trkpt>
      <trkpt lat="46.246574" lon="-1.486838">
        <ele>1.8</ele>
        <time>2020-08-12T19:07:50Z</time>
      </trkpt>
      <trkpt lat="46.246171" lon="-1.488841">
        <ele>0.4</ele>
        <time>2020-08-12T19:08:07Z</time>
      </trkpt>
      <trkpt lat="46.246115" lon="-1.489543">
        <ele>-0.6</ele>
        <time>2020-08-12T19:08:13Z</time>
      </trkpt>
      <trkpt lat="46.246089" lon="-1.489662">
        <ele>-0.6</ele>
        <time>2020-08-12T19:08:14Z</time>
      </trkpt>
      <trkpt lat="46.245872" lon="-1.490303">
        <ele>-0.2</ele>
        <time>2020-08-12T19:08:20Z</time>
      </trkpt>
      <trkpt lat="46.245764" lon="-1.490808">
        <ele>0.0</ele>
        <time>2020-08-12T19:08:24Z</time>
      </trkpt>
      <trkpt lat="46.24574" lon="-1.491202">
        <ele>0.6</ele>
        <time>2020-08-12T19:08:27Z</time>
      </trkpt>
      <trkpt lat="46.245744" lon="-1.491874">
        <ele>0.8</ele>
        <time>2020-08-12T19:08:33Z</time>
      </trkpt>
      <trkpt lat="46.245903" lon="-1.494662">
        <ele>0.8</ele>
        <time>2020-08-12T19:08:55Z</time>
      </trkpt>
      <trkpt lat="46.245967" lon="-1.496516">
        <ele>1.8</ele>
        <time>2020-08-12T19:09:10Z</time>
      </trkpt>
      <trkpt lat="46.245952" lon="-1.497424">
        <ele>2.2</ele>
        <time>2020-08-12T19:09:17Z</time>
      </trkpt>
      <trkpt lat="46.245999" lon="-1.497954">
        <ele>1.8</ele>
        <time>2020-08-12T19:09:22Z</time>
      </trkpt>
      <trkpt lat="46.246051" lon="-1.498148">
        <ele>1.8</ele>
        <time>2020-08-12T19:09:23Z</time>
      </trkpt>
      <trkpt lat="46.246262" lon="-1.498772">
        <ele>1.0</ele>
        <time>2020-08-12T19:09:29Z</time>
      </trkpt>
      <trkpt lat="46.246672" lon="-1.500486">
        <ele>2.6</ele>
        <time>2020-08-12T19:09:44Z</time>
      </trkpt>
      <trkpt lat="46.247747" lon="-1.505588">
        <ele>3.6</ele>
        <time>2020-08-12T19:10:27Z</time>
      </trkpt>
      <trkpt lat="46.247883" lon="-1.506347">
        <ele>4.2</ele>
        <time>2020-08-12T19:10:33Z</time>
      </trkpt>
      <trkpt lat="46.247911" lon="-1.506644">
        <ele>4.2</ele>
        <time>2020-08-12T19:10:35Z</time>
      </trkpt>
      <trkpt lat="46.247933" lon="-1.507071">
        <ele>4.2</ele>
        <time>2020-08-12T19:10:39Z</time>
      </trkpt>
      <trkpt lat="46.247921" lon="-1.507981">
        <ele>4.0</ele>
        <time>2020-08-12T19:10:46Z</time>
      </trkpt>
      <trkpt lat="46.247958" lon="-1.508502">
        <ele>4.2</ele>
        <time>2020-08-12T19:10:50Z</time>
      </trkpt>
      <trkpt lat="46.247957" lon="-1.508763">
        <ele>4.2</ele>
        <time>2020-08-12T19:10:52Z</time>
      </trkpt>
      <trkpt lat="46.247826" lon="-1.509828">
        <ele>4.4</ele>
        <time>2020-08-12T19:11:01Z</time>
      </trkpt>
      <trkpt lat="46.247812" lon="-1.510212">
        <ele>3.6</ele>
        <time>2020-08-12T19:11:04Z</time>
      </trkpt>
      <trkpt lat="46.247923" lon="-1.512117">
        <ele>2.6</ele>
        <time>2020-08-12T19:11:20Z</time>
      </trkpt>
      <trkpt lat="46.24792" lon="-1.512473">
        <ele>2.6</ele>
        <time>2020-08-12T19:11:23Z</time>
      </trkpt>
      <trkpt lat="46.247891" lon="-1.512829">
        <ele>2.4</ele>
        <time>2020-08-12T19:11:25Z</time>
      </trkpt>
      <trkpt lat="46.247528" lon="-1.516045">
        <ele>8.2</ele>
        <time>2020-08-12T19:11:52Z</time>
      </trkpt>
      <trkpt lat="46.247493" lon="-1.516295">
        <ele>3.4</ele>
        <time>2020-08-12T19:11:54Z</time>
      </trkpt>
      <trkpt lat="46.24743" lon="-1.516588">
        <ele>3.4</ele>
        <time>2020-08-12T19:11:56Z</time>
      </trkpt>
      <trkpt lat="46.246936" lon="-1.518451">
        <ele>5.4</ele>
        <time>2020-08-12T19:12:12Z</time>
      </trkpt>
      <trkpt lat="46.246821" lon="-1.519009">
        <ele>5.4</ele>
        <time>2020-08-12T19:12:17Z</time>
      </trkpt>
      <trkpt lat="46.246613" lon="-1.520267">
        <ele>3.4</ele>
        <time>2020-08-12T19:12:27Z</time>
      </trkpt>
      <trkpt lat="46.246541" lon="-1.521071">
        <ele>3.8</ele>
        <time>2020-08-12T19:12:34Z</time>
      </trkpt>
      <trkpt lat="46.246511" lon="-1.521896">
        <ele>4.8</ele>
        <time>2020-08-12T19:12:41Z</time>
      </trkpt>
      <trkpt lat="46.246316" lon="-1.522985">
        <ele>4.6</ele>
        <time>2020-08-12T19:12:50Z</time>
      </trkpt>
      <trkpt lat="46.245727" lon="-1.525195">
        <ele>5.2</ele>
        <time>2020-08-12T19:13:09Z</time>
      </trkpt>
      <trkpt lat="46.245598" lon="-1.52558">
        <ele>5.2</ele>
        <time>2020-08-12T19:13:12Z</time>
      </trkpt>
      <trkpt lat="46.245352" lon="-1.526221">
        <ele>6.0</ele>
        <time>2020-08-12T19:13:18Z</time>
      </trkpt>
      <trkpt lat="46.244989" lon="-1.527395">
        <ele>3.2</ele>
        <time>2020-08-12T19:13:29Z</time>
      </trkpt>
      <trkpt lat="46.244632" lon="-1.528795">
        <ele>4.0</ele>
        <time>2020-08-12T19:13:41Z</time>
      </trkpt>
      <trkpt lat="46.244298" lon="-1.53055">
        <ele>5.2</ele>
        <time>2020-08-12T19:13:55Z</time>
      </trkpt>
      <trkpt lat="46.244192" lon="-1.530973">
        <ele>6.2</ele>
        <time>2020-08-12T19:13:59Z</time>
      </trkpt>
      <trkpt lat="46.243947" lon="-1.531812">
        <ele>2.6</ele>
        <time>2020-08-12T19:14:06Z</time>
      </trkpt>
      <trkpt lat="46.243305" lon="-1.534395">
        <ele>3.4</ele>
        <time>2020-08-12T19:14:28Z</time>
      </trkpt>
      <trkpt lat="46.242891" lon="-1.536217">
        <ele>3.2</ele>
        <time>2020-08-12T19:14:44Z</time>
      </trkpt>
      <trkpt lat="46.242744" lon="-1.537116">
        <ele>3.2</ele>
        <time>2020-08-12T19:14:51Z</time>
      </trkpt>
      <trkpt lat="46.242657" lon="-1.538123">
        <ele>3.0</ele>
        <time>2020-08-12T19:14:59Z</time>
      </trkpt>
      <trkpt lat="46.242458" lon="-1.539953">
        <ele>0.4</ele>
        <time>2020-08-12T19:15:14Z</time>
      </trkpt>
      <trkpt lat="46.242412" lon="-1.541208">
        <ele>1.0</ele>
        <time>2020-08-12T19:15:24Z</time>
      </trkpt>
      <trkpt lat="46.242407" lon="-1.542994">
        <ele>1.8</ele>
        <time>2020-08-12T19:15:39Z</time>
      </trkpt>
      <trkpt lat="46.242384" lon="-1.54328">
        <ele>1.8</ele>
        <time>2020-08-12T19:15:41Z</time>
      </trkpt>
      <trkpt lat="46.24236" lon="-1.543396">
        <ele>2.2</ele>
        <time>2020-08-12T19:15:42Z</time>
      </trkpt>
      <trkpt lat="46.242275" lon="-1.543557">
        <ele>2.2</ele>
        <time>2020-08-12T19:15:44Z</time>
      </trkpt>
      <trkpt lat="46.242219" lon="-1.543615">
        <ele>2.2</ele>
        <time>2020-08-12T19:15:45Z</time>
      </trkpt>
      <trkpt lat="46.241874" lon="-1.543759">
        <ele>2.2</ele>
        <time>2020-08-12T19:15:49Z</time>
      </trkpt>
      <trkpt lat="46.240559" lon="-1.544029">
        <ele>1.4</ele>
        <time>2020-08-12T19:16:04Z</time>
      </trkpt>
      <trkpt lat="46.240126" lon="-1.544135">
        <ele>1.4</ele>
        <time>2020-08-12T19:16:09Z</time>
      </trkpt>
      <trkpt lat="46.239909" lon="-1.544239">
        <ele>0.4</ele>
        <time>2020-08-12T19:16:12Z</time>
      </trkpt>
      <trkpt lat="46.239728" lon="-1.544356">
        <ele>0.4</ele>
        <time>2020-08-12T19:16:15Z</time>
      </trkpt>
      <trkpt lat="46.239772" lon="-1.544477">
        <ele>0.4</ele>
        <time>2020-08-12T19:16:16Z</time>
      </trkpt>
      <trkpt lat="46.239789" lon="-1.544612">
        <ele>0.4</ele>
        <time>2020-08-12T19:16:17Z</time>
      </trkpt>
      <trkpt lat="46.239779" lon="-1.544749">
        <ele>0.4</ele>
        <time>2020-08-12T19:16:18Z</time>
      </trkpt>
      <trkpt lat="46.23974" lon="-1.544874">
        <ele>0.4</ele>
        <time>2020-08-12T19:16:18Z</time>
      </trkpt>
      <trkpt lat="46.239678" lon="-1.544978">
        <ele>0.4</ele>
        <time>2020-08-12T19:16:19Z</time>
      </trkpt>
      <trkpt lat="46.239598" lon="-1.545051">
        <ele>0.0</ele>
        <time>2020-08-12T19:16:20Z</time>
      </trkpt>
      <trkpt lat="46.239451" lon="-1.545089">
        <ele>0.0</ele>
        <time>2020-08-12T19:16:22Z</time>
      </trkpt>
      <trkpt lat="46.239315" lon="-1.545032">
        <ele>0.0</ele>
        <time>2020-08-12T19:16:23Z</time>
      </trkpt>
      <trkpt lat="46.239245" lon="-1.544957">
        <ele>0.4</ele>
        <time>2020-08-12T19:16:24Z</time>
      </trkpt>
      <trkpt lat="46.239192" lon="-1.544856">
        <ele>0.4</ele>
        <time>2020-08-12T19:16:25Z</time>
      </trkpt>
      <trkpt lat="46.239159" lon="-1.544739">
        <ele>0.4</ele>
        <time>2020-08-12T19:16:26Z</time>
      </trkpt>
      <trkpt lat="46.23915" lon="-1.544613">
        <ele>0.4</ele>
        <time>2020-08-12T19:16:27Z</time>
      </trkpt>
      <trkpt lat="46.238961" lon="-1.544415">
        <ele>0.4</ele>
        <time>2020-08-12T19:16:29Z</time>
      </trkpt>
      <trkpt lat="46.238782" lon="-1.544351">
        <ele>0.4</ele>
        <time>2020-08-12T19:16:31Z</time>
      </trkpt>
      <trkpt lat="46.238512" lon="-1.544327">
        <ele>0.4</ele>
        <time>2020-08-12T19:16:33Z</time>
      </trkpt>
      <trkpt lat="46.23783" lon="-1.544445">
        <ele>0.8</ele>
        <time>2020-08-12T19:16:40Z</time>
      </trkpt>
      <trkpt lat="46.237208" lon="-1.544482">
        <ele>0.8</ele>
        <time>2020-08-12T19:16:45Z</time>
      </trkpt>
      <trkpt lat="46.236669" lon="-1.544571">
        <ele>0.8</ele>
        <time>2020-08-12T19:16:50Z</time>
      </trkpt>
      <trkpt lat="46.235937" lon="-1.544748">
        <ele>0.4</ele>
        <time>2020-08-12T19:16:57Z</time>
      </trkpt>
      <trkpt lat="46.235579" lon="-1.544784">
        <ele>0.2</ele>
        <time>2020-08-12T19:17:01Z</time>
      </trkpt>
      <trkpt lat="46.235216" lon="-1.544743">
        <ele>0.2</ele>
        <time>2020-08-12T19:17:04Z</time>
      </trkpt>
      <trkpt lat="46.234847" lon="-1.544613">
        <ele>0.0</ele>
        <time>2020-08-12T19:17:07Z</time>
      </trkpt>
      <trkpt lat="46.234498" lon="-1.544389">
        <ele>0.0</ele>
        <time>2020-08-12T19:17:11Z</time>
      </trkpt>
      <trkpt lat="46.234285" lon="-1.544193">
        <ele>0.0</ele>
        <time>2020-08-12T19:17:13Z</time>
      </trkpt>
      <trkpt lat="46.233103" lon="-1.542911">
        <ele>1.0</ele>
        <time>2020-08-12T19:17:27Z</time>
      </trkpt>
      <trkpt lat="46.232341" lon="-1.542165">
        <ele>0.2</ele>
        <time>2020-08-12T19:17:35Z</time>
      </trkpt>
      <trkpt lat="46.231849" lon="-1.541742">
        <ele>0.2</ele>
        <time>2020-08-12T19:17:41Z</time>
      </trkpt>
      <trkpt lat="46.230645" lon="-1.540772">
        <ele>1.0</ele>
        <time>2020-08-12T19:17:53Z</time>
      </trkpt>
      <trkpt lat="46.230518" lon="-1.540648">
        <ele>1.0</ele>
        <time>2020-08-12T19:17:55Z</time>
      </trkpt>
      <trkpt lat="46.229844" lon="-1.539681">
        <ele>2.0</ele>
        <time>2020-08-12T19:18:03Z</time>
      </trkpt>
      <trkpt lat="46.229616" lon="-1.539325">
        <ele>2.0</ele>
        <time>2020-08-12T19:18:06Z</time>
      </trkpt>
      <trkpt lat="46.22935" lon="-1.53902">
        <ele>0.6</ele>
        <time>2020-08-12T19:18:10Z</time>
      </trkpt>
      <trkpt lat="46.224231" lon="-1.534226">
        <ele>1.6</ele>
        <time>2020-08-12T19:19:06Z</time>
      </trkpt>
      <trkpt lat="46.223649" lon="-1.533712">
        <ele>1.6</ele>
        <time>2020-08-12T19:19:12Z</time>
      </trkpt>
      <trkpt lat="46.223201" lon="-1.533353">
        <ele>2.2</ele>
        <time>2020-08-12T19:19:17Z</time>
      </trkpt>
      <trkpt lat="46.222473" lon="-1.532597">
        <ele>3.6</ele>
        <time>2020-08-12T19:19:25Z</time>
      </trkpt>
      <trkpt lat="46.221854" lon="-1.531858">
        <ele>2.4</ele>
        <time>2020-08-12T19:19:32Z</time>
      </trkpt>
      <trkpt lat="46.221438" lon="-1.531127">
        <ele>4.8</ele>
        <time>2020-08-12T19:19:38Z</time>
      </trkpt>
      <trkpt lat="46.221239" lon="-1.530678">
        <ele>5.2</ele>
        <time>2020-08-12T19:19:42Z</time>
      </trkpt>
      <trkpt lat="46.220889" lon="-1.52971">
        <ele>3.8</ele>
        <time>2020-08-12T19:19:49Z</time>
      </trkpt>
      <trkpt lat="46.220595" lon="-1.528953">
        <ele>1.6</ele>
        <time>2020-08-12T19:19:54Z</time>
      </trkpt>
      <trkpt lat="46.220462" lon="-1.52868">
        <ele>1.6</ele>
        <time>2020-08-12T19:19:56Z</time>
      </trkpt>
      <trkpt lat="46.220042" lon="-1.52806">
        <ele>1.0</ele>
        <time>2020-08-12T19:20:02Z</time>
      </trkpt>
      <trkpt lat="46.219668" lon="-1.527602">
        <ele>3.0</ele>
        <time>2020-08-12T19:20:06Z</time>
      </trkpt>
      <trkpt lat="46.219212" lon="-1.527143">
        <ele>2.2</ele>
        <time>2020-08-12T19:20:12Z</time>
      </trkpt>
      <trkpt lat="46.21893" lon="-1.526924">
        <ele>4.6</ele>
        <time>2020-08-12T19:20:14Z</time>
      </trkpt>
      <trkpt lat="46.218388" lon="-1.526556">
        <ele>2.0</ele>
        <time>2020-08-12T19:20:20Z</time>
      </trkpt>
      <trkpt lat="46.217588" lon="-1.526047">
        <ele>3.8</ele>
        <time>2020-08-12T19:20:28Z</time>
      </trkpt>
      <trkpt lat="46.217304" lon="-1.525916">
        <ele>4.6</ele>
        <time>2020-08-12T19:20:31Z</time>
      </trkpt>
      <trkpt lat="46.217056" lon="-1.525834">
        <ele>4.6</ele>
        <time>2020-08-12T19:20:33Z</time>
      </trkpt>
      <trkpt lat="46.216139" lon="-1.525655">
        <ele>3.2</ele>
        <time>2020-08-12T19:20:42Z</time>
      </trkpt>
      <trkpt lat="46.215685" lon="-1.525512">
        <ele>3.0</ele>
        <time>2020-08-12T19:20:46Z</time>
      </trkpt>
      <trkpt lat="46.214804" lon="-1.525214">
        <ele>1.6</ele>
        <time>2020-08-12T19:20:54Z</time>
      </trkpt>
      <trkpt lat="46.214398" lon="-1.524995">
        <ele>0.4</ele>
        <time>2020-08-12T19:20:58Z</time>
      </trkpt>
      <trkpt lat="46.214195" lon="-1.524838">
        <ele>0.4</ele>
        <time>2020-08-12T19:21:00Z</time>
      </trkpt>
      <trkpt lat="46.213975" lon="-1.524636">
        <ele>-0.6</ele>
        <time>2020-08-12T19:21:03Z</time>
      </trkpt>
      <trkpt lat="46.212872" lon="-1.52349">
        <ele>-0.4</ele>
        <time>2020-08-12T19:21:15Z</time>
      </trkpt>
      <trkpt lat="46.212239" lon="-1.522793">
        <ele>0.2</ele>
        <time>2020-08-12T19:21:23Z</time>
      </trkpt>
      <trkpt lat="46.211192" lon="-1.521471">
        <ele>0.8</ele>
        <time>2020-08-12T19:21:35Z</time>
      </trkpt>
      <trkpt lat="46.210984" lon="-1.521278">
        <ele>0.8</ele>
        <time>2020-08-12T19:21:38Z</time>
      </trkpt>
      <trkpt lat="46.210828" lon="-1.521173">
        <ele>1.2</ele>
        <time>2020-08-12T19:21:39Z</time>
      </trkpt>
      <trkpt lat="46.210594" lon="-1.521081">
        <ele>1.2</ele>
        <time>2020-08-12T19:21:41Z</time>
      </trkpt>
      <trkpt lat="46.210276" lon="-1.521046">
        <ele>1.2</ele>
        <time>2020-08-12T19:21:44Z</time>
      </trkpt>
      <trkpt lat="46.209969" lon="-1.521081">
        <ele>1.6</ele>
        <time>2020-08-12T19:21:47Z</time>
      </trkpt>
      <trkpt lat="46.20772" lon="-1.521977">
        <ele>1.2</ele>
        <time>2020-08-12T19:22:09Z</time>
      </trkpt>
      <trkpt lat="46.207435" lon="-1.522025">
        <ele>2.2</ele>
        <time>2020-08-12T19:22:11Z</time>
      </trkpt>
      <trkpt lat="46.207136" lon="-1.52198">
        <ele>2.2</ele>
        <time>2020-08-12T19:22:14Z</time>
      </trkpt>
      <trkpt lat="46.206949" lon="-1.521903">
        <ele>2.2</ele>
        <time>2020-08-12T19:22:16Z</time>
      </trkpt>
      <trkpt lat="46.206818" lon="-1.521822">
        <ele>2.2</ele>
        <time>2020-08-12T19:22:17Z</time>
      </trkpt>
      <trkpt lat="46.206613" lon="-1.521656">
        <ele>2.4</ele>
        <time>2020-08-12T19:22:19Z</time>
      </trkpt>
      <trkpt lat="46.206416" lon="-1.521421">
        <ele>2.4</ele>
        <time>2020-08-12T19:22:22Z</time>
      </trkpt>
      <trkpt lat="46.206302" lon="-1.521194">
        <ele>2.4</ele>
        <time>2020-08-12T19:22:23Z</time>
      </trkpt>
      <trkpt lat="46.206265" lon="-1.521057">
        <ele>2.4</ele>
        <time>2020-08-12T19:22:24Z</time>
      </trkpt>
      <trkpt lat="46.20607" lon="-1.520588">
        <ele>2.4</ele>
        <time>2020-08-12T19:22:28Z</time>
      </trkpt>
      <trkpt lat="46.205673" lon="-1.519554">
        <ele>2.8</ele>
        <time>2020-08-12T19:22:35Z</time>
      </trkpt>
      <trkpt lat="46.205389" lon="-1.518736">
        <ele>3.4</ele>
        <time>2020-08-12T19:22:41Z</time>
      </trkpt>
      <trkpt lat="46.205113" lon="-1.517532">
        <ele>3.0</ele>
        <time>2020-08-12T19:22:49Z</time>
      </trkpt>
      <trkpt lat="46.204178" lon="-1.51368">
        <ele>2.0</ele>
        <time>2020-08-12T19:23:15Z</time>
      </trkpt>
      <trkpt lat="46.20385" lon="-1.512421">
        <ele>1.8</ele>
        <time>2020-08-12T19:23:24Z</time>
      </trkpt>
      <trkpt lat="46.20376" lon="-1.512093">
        <ele>1.8</ele>
        <time>2020-08-12T19:23:26Z</time>
      </trkpt>
      <trkpt lat="46.203664" lon="-1.511866">
        <ele>1.8</ele>
        <time>2020-08-12T19:23:28Z</time>
      </trkpt>
      <trkpt lat="46.203329" lon="-1.511201">
        <ele>1.2</ele>
        <time>2020-08-12T19:23:33Z</time>
      </trkpt>
      <trkpt lat="46.20326" lon="-1.511234">
        <ele>1.2</ele>
        <time>2020-08-12T19:23:34Z</time>
      </trkpt>
      <trkpt lat="46.203192" lon="-1.511198">
        <ele>1.2</ele>
        <time>2020-08-12T19:23:34Z</time>
      </trkpt>
      <trkpt lat="46.203155" lon="-1.511109">
        <ele>1.2</ele>
        <time>2020-08-12T19:23:35Z</time>
      </trkpt>
      <trkpt lat="46.203164" lon="-1.511006">
        <ele>1.2</ele>
        <time>2020-08-12T19:23:35Z</time>
      </trkpt>
      <trkpt lat="46.203186" lon="-1.510963">
        <ele>1.2</ele>
        <time>2020-08-12T19:23:36Z</time>
      </trkpt>
      <trkpt lat="46.202926" lon="-1.510521">
        <ele>0.6</ele>
        <time>2020-08-12T19:23:39Z</time>
      </trkpt>
      <trkpt lat="46.202413" lon="-1.509795">
        <ele>0.4</ele>
        <time>2020-08-12T19:23:44Z</time>
      </trkpt>
      <trkpt lat="46.201378" lon="-1.508642">
        <ele>1.0</ele>
        <time>2020-08-12T19:23:54Z</time>
      </trkpt>
      <trkpt lat="46.201167" lon="-1.508335">
        <ele>1.0</ele>
        <time>2020-08-12T19:23:57Z</time>
      </trkpt>
      <trkpt lat="46.201085" lon="-1.508172">
        <ele>1.8</ele>
        <time>2020-08-12T19:23:58Z</time>
      </trkpt>
      <trkpt lat="46.201016" lon="-1.507981">
        <ele>1.8</ele>
        <time>2020-08-12T19:23:59Z</time>
      </trkpt>
      <trkpt lat="46.200642" lon="-1.506471">
        <ele>1.0</ele>
        <time>2020-08-12T19:24:07Z</time>
      </trkpt>
      <trkpt lat="46.200445" lon="-1.5055">
        <ele>1.0</ele>
        <time>2020-08-12T19:24:13Z</time>
      </trkpt>
      <trkpt lat="46.200322" lon="-1.505112">
        <ele>1.0</ele>
        <time>2020-08-12T19:24:15Z</time>
      </trkpt>
      <trkpt lat="46.200154" lon="-1.504741">
        <ele>0.4</ele>
        <time>2020-08-12T19:24:17Z</time>
      </trkpt>
      <trkpt lat="46.199335" lon="-1.503102">
        <ele>0.0</ele>
        <time>2020-08-12T19:24:28Z</time>
      </trkpt>
      <trkpt lat="46.199141" lon="-1.50276">
        <ele>0.6</ele>
        <time>2020-08-12T19:24:31Z</time>
      </trkpt>
      <trkpt lat="46.198963" lon="-1.502535">
        <ele>0.6</ele>
        <time>2020-08-12T19:24:32Z</time>
      </trkpt>
      <trkpt lat="46.198845" lon="-1.502411">
        <ele>0.4</ele>
        <time>2020-08-12T19:24:34Z</time>
      </trkpt>
      <trkpt lat="46.198721" lon="-1.502313">
        <ele>0.4</ele>
        <time>2020-08-12T19:24:35Z</time>
      </trkpt>
      <trkpt lat="46.197248" lon="-1.501401">
        <ele>1.2</ele>
        <time>2020-08-12T19:24:47Z</time>
      </trkpt>
      <trkpt lat="46.196861" lon="-1.501069">
        <ele>1.2</ele>
        <time>2020-08-12T19:24:50Z</time>
      </trkpt>
      <trkpt lat="46.196546" lon="-1.500846">
        <ele>1.2</ele>
        <time>2020-08-12T19:24:53Z</time>
      </trkpt>
      <trkpt lat="46.196229" lon="-1.500704">
        <ele>1.0</ele>
        <time>2020-08-12T19:24:56Z</time>
      </trkpt>
      <trkpt lat="46.195823" lon="-1.500607">
        <ele>0.8</ele>
        <time>2020-08-12T19:24:59Z</time>
      </trkpt>
      <trkpt lat="46.195115" lon="-1.500488">
        <ele>0.8</ele>
        <time>2020-08-12T19:25:04Z</time>
      </trkpt>
      <trkpt lat="46.194868" lon="-1.500389">
        <ele>0.8</ele>
        <time>2020-08-12T19:25:06Z</time>
      </trkpt>
      <trkpt lat="46.194787" lon="-1.500334">
        <ele>0.8</ele>
        <time>2020-08-12T19:25:07Z</time>
      </trkpt>
      <trkpt lat="46.19473" lon="-1.500269">
        <ele>0.8</ele>
        <time>2020-08-12T19:25:08Z</time>
      </trkpt>
      <trkpt lat="46.194694" lon="-1.500191">
        <ele>0.8</ele>
        <time>2020-08-12T19:25:08Z</time>
      </trkpt>
      <trkpt lat="46.194676" lon="-1.500071">
        <ele>0.8</ele>
        <time>2020-08-12T19:25:09Z</time>
      </trkpt>
      <trkpt lat="46.194692" lon="-1.499979">
        <ele>0.0</ele>
        <time>2020-08-12T19:25:09Z</time>
      </trkpt>
      <trkpt lat="46.195027" lon="-1.499251">
        <ele>0.4</ele>
        <time>2020-08-12T19:25:14Z</time>
      </trkpt>
      <trkpt lat="46.195343" lon="-1.498457">
        <ele>-0.2</ele>
        <time>2020-08-12T19:25:19Z</time>
      </trkpt>
      <trkpt lat="46.195521" lon="-1.497826">
        <ele>-0.5</ele>
        <time>2020-08-12T19:25:22Z</time>
      </trkpt>
      <trkpt lat="46.195701" lon="-1.49698">
        <ele>-1.5</ele>
        <time>2020-08-12T19:25:27Z</time>
      </trkpt>
      <trkpt lat="46.195777" lon="-1.496686">
        <ele>-1.5</ele>
        <time>2020-08-12T19:25:29Z</time>
      </trkpt>
      <trkpt lat="46.196139" lon="-1.495561">
        <ele>-0.5</ele>
        <time>2020-08-12T19:25:35Z</time>
      </trkpt>
      <trkpt lat="46.196306" lon="-1.495134">
        <ele>-0.5</ele>
        <time>2020-08-12T19:25:38Z</time>
      </trkpt>
      <trkpt lat="46.196418" lon="-1.494906">
        <ele>0.0</ele>
        <time>2020-08-12T19:25:40Z</time>
      </trkpt>
      <trkpt lat="46.196891" lon="-1.494158">
        <ele>-0.75</ele>
        <time>2020-08-12T19:25:45Z</time>
      </trkpt>
      <trkpt lat="46.197912" lon="-1.492672">
        <ele>0.0</ele>
        <time>2020-08-12T19:25:56Z</time>
      </trkpt>
      <trkpt lat="46.198282" lon="-1.492258">
        <ele>0.67</ele>
        <time>2020-08-12T19:26:00Z</time>
      </trkpt>
      <trkpt lat="46.198947" lon="-1.491445">
        <ele>-1.0</ele>
        <time>2020-08-12T19:26:06Z</time>
      </trkpt>
      <trkpt lat="46.1993" lon="-1.490966">
        <ele>-0.4</ele>
        <time>2020-08-12T19:26:10Z</time>
      </trkpt>
      <trkpt lat="46.199457" lon="-1.490712">
        <ele>-0.8</ele>
        <time>2020-08-12T19:26:12Z</time>
      </trkpt>
      <trkpt lat="46.199613" lon="-1.490411">
        <ele>-0.8</ele>
        <time>2020-08-12T19:26:14Z</time>
      </trkpt>
      <trkpt lat="46.199834" lon="-1.489928">
        <ele>0.33</ele>
        <time>2020-08-12T19:26:17Z</time>
      </trkpt>
      <trkpt lat="46.200068" lon="-1.489346">
        <ele>1.2</ele>
        <time>2020-08-12T19:26:21Z</time>
      </trkpt>
      <trkpt lat="46.200237" lon="-1.488682">
        <ele>3.0</ele>
        <time>2020-08-12T19:26:24Z</time>
      </trkpt>
      <trkpt lat="46.200498" lon="-1.487216">
        <ele>3.33</ele>
        <time>2020-08-12T19:26:32Z</time>
      </trkpt>
      <trkpt lat="46.200532" lon="-1.487107">
        <ele>3.33</ele>
        <time>2020-08-12T19:26:33Z</time>
      </trkpt>
      <trkpt lat="46.200649" lon="-1.486924">
        <ele>3.33</ele>
        <time>2020-08-12T19:26:34Z</time>
      </trkpt>
      <trkpt lat="46.201215" lon="-1.486567">
        <ele>3.75</ele>
        <time>2020-08-12T19:26:39Z</time>
      </trkpt>
      <trkpt lat="46.201371" lon="-1.486412">
        <ele>3.75</ele>
        <time>2020-08-12T19:26:41Z</time>
      </trkpt>
      <trkpt lat="46.201429" lon="-1.486332">
        <ele>3.75</ele>
        <time>2020-08-12T19:26:41Z</time>
      </trkpt>
      <trkpt lat="46.201582" lon="-1.486013">
        <ele>3.75</ele>
        <time>2020-08-12T19:26:43Z</time>
      </trkpt>
      <trkpt lat="46.201742" lon="-1.485571">
        <ele>2.8</ele>
        <time>2020-08-12T19:26:46Z</time>
      </trkpt>
      <trkpt lat="46.201864" lon="-1.485207">
        <ele>2.8</ele>
        <time>2020-08-12T19:26:48Z</time>
      </trkpt>
      <trkpt lat="46.201921" lon="-1.484966">
        <ele>2.8</ele>
        <time>2020-08-12T19:26:49Z</time>
      </trkpt>
      <trkpt lat="46.202135" lon="-1.483782">
        <ele>2.8</ele>
        <time>2020-08-12T19:26:56Z</time>
      </trkpt>
      <trkpt lat="46.20217" lon="-1.483464">
        <ele>2.8</ele>
        <time>2020-08-12T19:26:58Z</time>
      </trkpt>
      <trkpt lat="46.202168" lon="-1.483242">
        <ele>2.2</ele>
        <time>2020-08-12T19:26:59Z</time>
      </trkpt>
      <trkpt lat="46.202022" lon="-1.481679">
        <ele>3.25</ele>
        <time>2020-08-12T19:27:07Z</time>
      </trkpt>
      <trkpt lat="46.202022" lon="-1.481348">
        <ele>3.0</ele>
        <time>2020-08-12T19:27:09Z</time>
      </trkpt>
      <trkpt lat="46.202038" lon="-1.481153">
        <ele>3.0</ele>
        <time>2020-08-12T19:27:10Z</time>
      </trkpt>
      <trkpt lat="46.202337" lon="-1.479303">
        <ele>3.5</ele>
        <time>2020-08-12T19:27:20Z</time>
      </trkpt>
      <trkpt lat="46.202502" lon="-1.478397">
        <ele>5.6</ele>
        <time>2020-08-12T19:27:25Z</time>
      </trkpt>
      <trkpt lat="46.202629" lon="-1.477465">
        <ele>5.25</ele>
        <time>2020-08-12T19:27:30Z</time>
      </trkpt>
      <trkpt lat="46.202927" lon="-1.475508">
        <ele>1.5</ele>
        <time>2020-08-12T19:27:41Z</time>
      </trkpt>
      <trkpt lat="46.203183" lon="-1.474233">
        <ele>1.0</ele>
        <time>2020-08-12T19:27:48Z</time>
      </trkpt>
      <trkpt lat="46.203425" lon="-1.472671">
        <ele>1.25</ele>
        <time>2020-08-12T19:27:57Z</time>
      </trkpt>
      <trkpt lat="46.203717" lon="-1.470485">
        <ele>2.5</ele>
        <time>2020-08-12T19:28:08Z</time>
      </trkpt>
      <trkpt lat="46.204005" lon="-1.468474">
        <ele>2.25</ele>
        <time>2020-08-12T19:28:19Z</time>
      </trkpt>
      <trkpt lat="46.204025" lon="-1.468036">
        <ele>3.25</ele>
        <time>2020-08-12T19:28:22Z</time>
      </trkpt>
      <trkpt lat="46.204002" lon="-1.46751">
        <ele>3.25</ele>
        <time>2020-08-12T19:28:25Z</time>
      </trkpt>
      <trkpt lat="46.203738" lon="-1.464986">
        <ele>4.0</ele>
        <time>2020-08-12T19:28:38Z</time>
      </trkpt>
      <trkpt lat="46.203691" lon="-1.46408">
        <ele>4.2</ele>
        <time>2020-08-12T19:28:43Z</time>
      </trkpt>
      <trkpt lat="46.203723" lon="-1.46189">
        <ele>4.8</ele>
        <time>2020-08-12T19:28:55Z</time>
      </trkpt>
      <trkpt lat="46.203722" lon="-1.460323">
        <ele>6.0</ele>
        <time>2020-08-12T19:29:03Z</time>
      </trkpt>
      <trkpt lat="46.203707" lon="-1.459986">
        <ele>6.2</ele>
        <time>2020-08-12T19:29:05Z</time>
      </trkpt>
      <trkpt lat="46.203715" lon="-1.459877">
        <ele>6.2</ele>
        <time>2020-08-12T19:29:06Z</time>
      </trkpt>
      <trkpt lat="46.203738" lon="-1.459849">
        <ele>6.2</ele>
        <time>2020-08-12T19:29:06Z</time>
      </trkpt>
      <trkpt lat="46.203743" lon="-1.459706">
        <ele>6.2</ele>
        <time>2020-08-12T19:29:07Z</time>
      </trkpt>
      <trkpt lat="46.203663" lon="-1.459408">
        <ele>6.2</ele>
        <time>2020-08-12T19:29:09Z</time>
      </trkpt>
      <trkpt lat="46.203585" lon="-1.459227">
        <ele>6.2</ele>
        <time>2020-08-12T19:29:11Z</time>
      </trkpt>
      <trkpt lat="46.203511" lon="-1.458892">
        <ele>7.0</ele>
        <time>2020-08-12T19:29:13Z</time>
      </trkpt>
      <trkpt lat="46.201856" lon="-1.448696">
        <ele>7.2</ele>
        <time>2020-08-12T19:30:27Z</time>
      </trkpt>
      <trkpt lat="46.201743" lon="-1.448208">
        <ele>7.2</ele>
        <time>2020-08-12T19:30:31Z</time>
      </trkpt>
      <trkpt lat="46.201692" lon="-1.447907">
        <ele>7.2</ele>
        <time>2020-08-12T19:30:33Z</time>
      </trkpt>
      <trkpt lat="46.201603" lon="-1.447202">
        <ele>6.4</ele>
        <time>2020-08-12T19:30:38Z</time>
      </trkpt>
      <trkpt lat="46.201344" lon="-1.445638">
        <ele>3.2</ele>
        <time>2020-08-12T19:30:50Z</time>
      </trkpt>
      <trkpt lat="46.201175" lon="-1.444823">
        <ele>2.6</ele>
        <time>2020-08-12T19:30:56Z</time>
      </trkpt>
      <trkpt lat="46.200928" lon="-1.443846">
        <ele>2.8</ele>
        <time>2020-08-12T19:31:03Z</time>
      </trkpt>
      <trkpt lat="46.200733" lon="-1.443202">
        <ele>3.4</ele>
        <time>2020-08-12T19:31:08Z</time>
      </trkpt>
      <trkpt lat="46.200406" lon="-1.442232">
        <ele>3.0</ele>
        <time>2020-08-12T19:31:16Z</time>
      </trkpt>
      <trkpt lat="46.200157" lon="-1.441556">
        <ele>2.4</ele>
        <time>2020-08-12T19:31:21Z</time>
      </trkpt>
      <trkpt lat="46.199154" lon="-1.439171">
        <ele>2.6</ele>
        <time>2020-08-12T19:31:41Z</time>
      </trkpt>
      <trkpt lat="46.198948" lon="-1.438719">
        <ele>3.2</ele>
        <time>2020-08-12T19:31:45Z</time>
      </trkpt>
      <trkpt lat="46.198071" lon="-1.436585">
        <ele>2.6</ele>
        <time>2020-08-12T19:32:02Z</time>
      </trkpt>
      <trkpt lat="46.197733" lon="-1.43586">
        <ele>2.6</ele>
        <time>2020-08-12T19:32:09Z</time>
      </trkpt>
      <trkpt lat="46.196338" lon="-1.432584">
        <ele>1.6</ele>
        <time>2020-08-12T19:32:36Z</time>
      </trkpt>
      <trkpt lat="46.19611" lon="-1.432242">
        <ele>1.0</ele>
        <time>2020-08-12T19:32:39Z</time>
      </trkpt>
      <trkpt lat="46.196035" lon="-1.432053">
        <ele>1.0</ele>
        <time>2020-08-12T19:32:41Z</time>
      </trkpt>
      <trkpt lat="46.195958" lon="-1.43196">
        <ele>1.0</ele>
        <time>2020-08-12T19:32:42Z</time>
      </trkpt>
      <trkpt lat="46.195903" lon="-1.431927">
        <ele>1.0</ele>
        <time>2020-08-12T19:32:42Z</time>
      </trkpt>
      <trkpt lat="46.195768" lon="-1.431884">
        <ele>1.6</ele>
        <time>2020-08-12T19:32:44Z</time>
      </trkpt>
      <trkpt lat="46.195706" lon="-1.4318">
        <ele>1.6</ele>
        <time>2020-08-12T19:32:45Z</time>
      </trkpt>
      <trkpt lat="46.195662" lon="-1.431657">
        <ele>1.8</ele>
        <time>2020-08-12T19:32:46Z</time>
      </trkpt>
      <trkpt lat="46.195714" lon="-1.431408">
        <ele>1.8</ele>
        <time>2020-08-12T19:32:48Z</time>
      </trkpt>
      <trkpt lat="46.195781" lon="-1.431285">
        <ele>1.8</ele>
        <time>2020-08-12T19:32:49Z</time>
      </trkpt>
      <trkpt lat="46.195907" lon="-1.431249">
        <ele>1.4</ele>
        <time>2020-08-12T19:32:50Z</time>
      </trkpt>
      <trkpt lat="46.196054" lon="-1.431086">
        <ele>1.4</ele>
        <time>2020-08-12T19:32:52Z</time>
      </trkpt>
      <trkpt lat="46.196153" lon="-1.430806">
        <ele>2.0</ele>
        <time>2020-08-12T19:32:54Z</time>
      </trkpt>
      <trkpt lat="46.196392" lon="-1.430512">
        <ele>2.0</ele>
        <time>2020-08-12T19:32:57Z</time>
      </trkpt>
      <trkpt lat="46.196185" lon="-1.430289">
        <ele>2.0</ele>
        <time>2020-08-12T19:33:03Z</time>
      </trkpt>
      <trkpt lat="46.196125" lon="-1.430187">
        <ele>2.0</ele>
        <time>2020-08-12T19:33:05Z</time>
      </trkpt>
      <trkpt lat="46.196125" lon="-1.430057">
        <ele>2.0</ele>
        <time>2020-08-12T19:33:07Z</time>
      </trkpt>
      <trkpt lat="46.196155" lon="-1.429973">
        <ele>2.4</ele>
        <time>2020-08-12T19:33:08Z</time>
      </trkpt>
      <trkpt lat="46.196682" lon="-1.428997">
        <ele>1.8</ele>
        <time>2020-08-12T19:33:24Z</time>
      </trkpt>
      <trkpt lat="46.196885" lon="-1.428751">
        <ele>1.8</ele>
        <time>2020-08-12T19:33:29Z</time>
      </trkpt>
      <trkpt lat="46.196916" lon="-1.428692">
        <ele>1.8</ele>
        <time>2020-08-12T19:33:29Z</time>
      </trkpt>
      <trkpt lat="46.197279" lon="-1.427243">
        <ele>1.4</ele>
        <time>2020-08-12T19:33:49Z</time>
      </trkpt>
      <trkpt lat="46.197086" lon="-1.427171">
        <ele>1.4</ele>
        <time>2020-08-12T19:33:53Z</time>
      </trkpt>
      <trkpt lat="46.196893" lon="-1.427012">
        <ele>1.4</ele>
        <time>2020-08-12T19:33:57Z</time>
      </trkpt>
      <trkpt lat="46.196805" lon="-1.426885">
        <ele>1.4</ele>
        <time>2020-08-12T19:33:59Z</time>
      </trkpt>
      <trkpt lat="46.196666" lon="-1.426628">
        <ele>3.0</ele>
        <time>2020-08-12T19:34:03Z</time>
      </trkpt>
      <trkpt lat="46.196527" lon="-1.426429">
        <ele>3.0</ele>
        <time>2020-08-12T19:34:07Z</time>
      </trkpt>
      <trkpt lat="46.196393" lon="-1.426282">
        <ele>3.0</ele>
        <time>2020-08-12T19:34:10Z</time>
      </trkpt>
      <trkpt lat="46.19738" lon="-1.424893">
        <ele>2.6</ele>
        <time>2020-08-12T19:34:35Z</time>
      </trkpt>
      <trkpt lat="46.197444" lon="-1.424778">
        <ele>2.6</ele>
        <time>2020-08-12T19:34:37Z</time>
      </trkpt>
      <trkpt lat="46.197666" lon="-1.424259">
        <ele>2.6</ele>
        <time>2020-08-12T19:34:45Z</time>
      </trkpt>
      <trkpt lat="46.197432" lon="-1.423978">
        <ele>3.0</ele>
        <time>2020-08-12T19:34:51Z</time>
      </trkpt>
      <trkpt lat="46.197567" lon="-1.423736">
        <ele>2.8</ele>
        <time>2020-08-12T19:34:55Z</time>
      </trkpt>
      <trkpt lat="46.197567" lon="-1.42345">
        <ele>2.8</ele>
        <time>2020-08-12T19:34:58Z</time>
      </trkpt>
      <trkpt lat="46.197592" lon="-1.42334">
        <ele>2.8</ele>
        <time>2020-08-12T19:35:00Z</time>
      </trkpt>
      <trkpt lat="46.197693" lon="-1.423116">
        <ele>2.6</ele>
        <time>2020-08-12T19:35:03Z</time>
      </trkpt>
      <trkpt lat="46.197802" lon="-1.422784">
        <ele>2.6</ele>
        <time>2020-08-12T19:35:08Z</time>
      </trkpt>
      <trkpt lat="46.197886" lon="-1.422695">
        <ele>2.6</ele>
        <time>2020-08-12T19:35:10Z</time>
      </trkpt>
      <trkpt lat="46.1968" lon="-1.421272">
        <ele>2.4</ele>
        <time>2020-08-12T19:35:25Z</time>
      </trkpt>
      <trkpt lat="46.196534" lon="-1.420755">
        <ele>2.0</ele>
        <time>2020-08-12T19:35:29Z</time>
      </trkpt>
      <trkpt lat="46.196303" lon="-1.420138">
        <ele>2.0</ele>
        <time>2020-08-12T19:35:34Z</time>
      </trkpt>
      <trkpt lat="46.196245" lon="-1.419864">
        <ele>2.4</ele>
        <time>2020-08-12T19:35:36Z</time>
      </trkpt>
      <trkpt lat="46.19618" lon="-1.419829">
        <ele>2.4</ele>
        <time>2020-08-12T19:35:37Z</time>
      </trkpt>
      <trkpt lat="46.196156" lon="-1.419777">
        <ele>2.4</ele>
        <time>2020-08-12T19:35:37Z</time>
      </trkpt>
      <trkpt lat="46.196152" lon="-1.419715">
        <ele>2.4</ele>
        <time>2020-08-12T19:35:37Z</time>
      </trkpt>
      <trkpt lat="46.196168" lon="-1.419657">
        <ele>2.4</ele>
        <time>2020-08-12T19:35:38Z</time>
      </trkpt>
      <trkpt lat="46.196222" lon="-1.419605">
        <ele>2.4</ele>
        <time>2020-08-12T19:35:38Z</time>
      </trkpt>
      <trkpt lat="46.196231" lon="-1.419513">
        <ele>2.4</ele>
        <time>2020-08-12T19:35:39Z</time>
      </trkpt>
      <trkpt lat="46.196276" lon="-1.419383">
        <ele>2.4</ele>
        <time>2020-08-12T19:35:39Z</time>
      </trkpt>
      <trkpt lat="46.196412" lon="-1.418247">
        <ele>1.6</ele>
        <time>2020-08-12T19:35:45Z</time>
      </trkpt>
      <trkpt lat="46.196484" lon="-1.417743">
        <ele>1.6</ele>
        <time>2020-08-12T19:35:48Z</time>
      </trkpt>
      <trkpt lat="46.19654" lon="-1.417483">
        <ele>1.6</ele>
        <time>2020-08-12T19:35:49Z</time>
      </trkpt>
      <trkpt lat="46.196803" lon="-1.416814">
        <ele>1.4</ele>
        <time>2020-08-12T19:35:53Z</time>
      </trkpt>
      <trkpt lat="46.196991" lon="-1.416452">
        <ele>1.6</ele>
        <time>2020-08-12T19:35:55Z</time>
      </trkpt>
      <trkpt lat="46.19752" lon="-1.415667">
        <ele>0.8</ele>
        <time>2020-08-12T19:36:00Z</time>
      </trkpt>
      <trkpt lat="46.197778" lon="-1.415189">
        <ele>0.8</ele>
        <time>2020-08-12T19:36:03Z</time>
      </trkpt>
      <trkpt lat="46.197864" lon="-1.414976">
        <ele>0.6</ele>
        <time>2020-08-12T19:36:04Z</time>
      </trkpt>
      <trkpt lat="46.197997" lon="-1.414583">
        <ele>0.6</ele>
        <time>2020-08-12T19:36:06Z</time>
      </trkpt>
      <trkpt lat="46.199012" lon="-1.411199">
        <ele>2.2</ele>
        <time>2020-08-12T19:36:24Z</time>
      </trkpt>
      <trkpt lat="46.199127" lon="-1.410628">
        <ele>2.4</ele>
        <time>2020-08-12T19:36:27Z</time>
      </trkpt>
      <trkpt lat="46.199321" lon="-1.409281">
        <ele>2.0</ele>
        <time>2020-08-12T19:36:34Z</time>
      </trkpt>
      <trkpt lat="46.199673" lon="-1.40731">
        <ele>2.0</ele>
        <time>2020-08-12T19:36:44Z</time>
      </trkpt>
      <trkpt lat="46.199796" lon="-1.406448">
        <ele>1.6</ele>
        <time>2020-08-12T19:36:48Z</time>
      </trkpt>
      <trkpt lat="46.200111" lon="-1.405175">
        <ele>0.8</ele>
        <time>2020-08-12T19:36:55Z</time>
      </trkpt>
      <trkpt lat="46.200223" lon="-1.404594">
        <ele>1.0</ele>
        <time>2020-08-12T19:36:58Z</time>
      </trkpt>
      <trkpt lat="46.20028" lon="-1.403977">
        <ele>1.8</ele>
        <time>2020-08-12T19:37:01Z</time>
      </trkpt>
      <trkpt lat="46.200318" lon="-1.402567">
        <ele>2.2</ele>
        <time>2020-08-12T19:37:08Z</time>
      </trkpt>
      <trkpt lat="46.200394" lon="-1.401577">
        <ele>3.0</ele>
        <time>2020-08-12T19:37:12Z</time>
      </trkpt>
      <trkpt lat="46.200596" lon="-1.400171">
        <ele>4.0</ele>
        <time>2020-08-12T19:37:19Z</time>
      </trkpt>
      <trkpt lat="46.200616" lon="-1.399835">
        <ele>4.0</ele>
        <time>2020-08-12T19:37:21Z</time>
      </trkpt>
      <trkpt lat="46.20062" lon="-1.399482">
        <ele>4.0</ele>
        <time>2020-08-12T19:37:23Z</time>
      </trkpt>
      <trkpt lat="46.200539" lon="-1.398103">
        <ele>5.2</ele>
        <time>2020-08-12T19:37:29Z</time>
      </trkpt>
      <trkpt lat="46.200536" lon="-1.397662">
        <ele>5.2</ele>
        <time>2020-08-12T19:37:32Z</time>
      </trkpt>
      <trkpt lat="46.200574" lon="-1.396649">
        <ele>5.0</ele>
        <time>2020-08-12T19:37:37Z</time>
      </trkpt>
      <trkpt lat="46.200574" lon="-1.39632">
        <ele>5.0</ele>
        <time>2020-08-12T19:37:38Z</time>
      </trkpt>
      <trkpt lat="46.200515" lon="-1.395205">
        <ele>4.8</ele>
        <time>2020-08-12T19:37:44Z</time>
      </trkpt>
      <trkpt lat="46.200395" lon="-1.393619">
        <ele>5.0</ele>
        <time>2020-08-12T19:37:51Z</time>
      </trkpt>
      <trkpt lat="46.200305" lon="-1.392719">
        <ele>5.2</ele>
        <time>2020-08-12T19:37:56Z</time>
      </trkpt>
      <trkpt lat="46.200182" lon="-1.391936">
        <ele>5.0</ele>
        <time>2020-08-12T19:38:00Z</time>
      </trkpt>
      <trkpt lat="46.200088" lon="-1.391487">
        <ele>5.2</ele>
        <time>2020-08-12T19:38:02Z</time>
      </trkpt>
      <trkpt lat="46.199849" lon="-1.390572">
        <ele>5.4</ele>
        <time>2020-08-12T19:38:07Z</time>
      </trkpt>
      <trkpt lat="46.199812" lon="-1.39033">
        <ele>5.4</ele>
        <time>2020-08-12T19:38:08Z</time>
      </trkpt>
      <trkpt lat="46.199767" lon="-1.389651">
        <ele>5.6</ele>
        <time>2020-08-12T19:38:11Z</time>
      </trkpt>
      <trkpt lat="46.199686" lon="-1.387135">
        <ele>6.4</ele>
        <time>2020-08-12T19:38:24Z</time>
      </trkpt>
      <trkpt lat="46.199678" lon="-1.385973">
        <ele>6.0</ele>
        <time>2020-08-12T19:38:29Z</time>
      </trkpt>
      <trkpt lat="46.199589" lon="-1.384324">
        <ele>6.8</ele>
        <time>2020-08-12T19:38:37Z</time>
      </trkpt>
      <trkpt lat="46.199578" lon="-1.383625">
        <ele>7.2</ele>
        <time>2020-08-12T19:38:41Z</time>
      </trkpt>
      <trkpt lat="46.199661" lon="-1.381268">
        <ele>6.8</ele>
        <time>2020-08-12T19:38:52Z</time>
      </trkpt>
      <trkpt lat="46.199682" lon="-1.380875">
        <ele>6.8</ele>
        <time>2020-08-12T19:38:54Z</time>
      </trkpt>
      <trkpt lat="46.199729" lon="-1.380516">
        <ele>7.6</ele>
        <time>2020-08-12T19:38:56Z</time>
      </trkpt>
      <trkpt lat="46.199787" lon="-1.380179">
        <ele>7.6</ele>
        <time>2020-08-12T19:38:58Z</time>
      </trkpt>
      <trkpt lat="46.201047" lon="-1.375292">
        <ele>9.6</ele>
        <time>2020-08-12T19:39:23Z</time>
      </trkpt>
      <trkpt lat="46.201049" lon="-1.375005">
        <ele>9.6</ele>
        <time>2020-08-12T19:39:24Z</time>
      </trkpt>
      <trkpt lat="46.201024" lon="-1.374729">
        <ele>9.6</ele>
        <time>2020-08-12T19:39:26Z</time>
      </trkpt>
      <trkpt lat="46.201" lon="-1.374704">
        <ele>9.6</ele>
        <time>2020-08-12T19:39:26Z</time>
      </trkpt>
      <trkpt lat="46.200973" lon="-1.374587">
        <ele>9.6</ele>
        <time>2020-08-12T19:39:27Z</time>
      </trkpt>
      <trkpt lat="46.200981" lon="-1.374546">
        <ele>9.6</ele>
        <time>2020-08-12T19:39:27Z</time>
      </trkpt>
      <trkpt lat="46.20075" lon="-1.37438">
        <ele>10.0</ele>
        <time>2020-08-12T19:39:29Z</time>
      </trkpt>
      <trkpt lat="46.200368" lon="-1.373977">
        <ele>10.4</ele>
        <time>2020-08-12T19:39:33Z</time>
      </trkpt>
      <trkpt lat="46.199233" lon="-1.372674">
        <ele>10.2</ele>
        <time>2020-08-12T19:39:46Z</time>
      </trkpt>
      <trkpt lat="46.198689" lon="-1.372022">
        <ele>10.4</ele>
        <time>2020-08-12T19:39:52Z</time>
      </trkpt>
      <trkpt lat="46.198505" lon="-1.371834">
        <ele>10.4</ele>
        <time>2020-08-12T19:39:54Z</time>
      </trkpt>
      <trkpt lat="46.198091" lon="-1.371571">
        <ele>11.0</ele>
        <time>2020-08-12T19:39:58Z</time>
      </trkpt>
      <trkpt lat="46.198036" lon="-1.371681">
        <ele>10.6</ele>
        <time>2020-08-12T19:39:58Z</time>
      </trkpt>
      <trkpt lat="46.197947" lon="-1.371723">
        <ele>10.6</ele>
        <time>2020-08-12T19:39:59Z</time>
      </trkpt>
      <trkpt lat="46.197858" lon="-1.37168">
        <ele>10.6</ele>
        <time>2020-08-12T19:39:59Z</time>
      </trkpt>
      <trkpt lat="46.197804" lon="-1.37157">
        <ele>11.0</ele>
        <time>2020-08-12T19:39:59Z</time>
      </trkpt>
      <trkpt lat="46.197797" lon="-1.371502">
        <ele>11.0</ele>
        <time>2020-08-12T19:40:00Z</time>
      </trkpt>
      <trkpt lat="46.197822" lon="-1.371384">
        <ele>11.0</ele>
        <time>2020-08-12T19:40:00Z</time>
      </trkpt>
      <trkpt lat="46.197888" lon="-1.371305">
        <ele>11.0</ele>
        <time>2020-08-12T19:40:01Z</time>
      </trkpt>
      <trkpt lat="46.19793" lon="-1.371289">
        <ele>11.0</ele>
        <time>2020-08-12T19:40:01Z</time>
      </trkpt>
      <trkpt lat="46.197875" lon="-1.371047">
        <ele>11.0</ele>
        <time>2020-08-12T19:40:02Z</time>
      </trkpt>
      <trkpt lat="46.197749" lon="-1.370195">
        <ele>11.4</ele>
        <time>2020-08-12T19:40:04Z</time>
      </trkpt>
      <trkpt lat="46.197707" lon="-1.369259">
        <ele>11.6</ele>
        <time>2020-08-12T19:40:07Z</time>
      </trkpt>
      <trkpt lat="46.197484" lon="-1.366276">
        <ele>11.6</ele>
        <time>2020-08-12T19:40:17Z</time>
      </trkpt>
      <trkpt lat="46.197341" lon="-1.365513">
        <ele>11.2</ele>
        <time>2020-08-12T19:40:19Z</time>
      </trkpt>
      <trkpt lat="46.197303" lon="-1.365116">
        <ele>11.2</ele>
        <time>2020-08-12T19:40:21Z</time>
      </trkpt>
      <trkpt lat="46.197306" lon="-1.364876">
        <ele>11.0</ele>
        <time>2020-08-12T19:40:21Z</time>
      </trkpt>
      <trkpt lat="46.197338" lon="-1.364604">
        <ele>11.0</ele>
        <time>2020-08-12T19:40:22Z</time>
      </trkpt>
      <trkpt lat="46.197395" lon="-1.364369">
        <ele>11.0</ele>
        <time>2020-08-12T19:40:23Z</time>
      </trkpt>
      <trkpt lat="46.19781" lon="-1.363233">
        <ele>10.2</ele>
        <time>2020-08-12T19:40:27Z</time>
      </trkpt>
      <trkpt lat="46.198237" lon="-1.361624">
        <ele>10.2</ele>
        <time>2020-08-12T19:40:33Z</time>
      </trkpt>
      <trkpt lat="46.198315" lon="-1.361229">
        <ele>10.2</ele>
        <time>2020-08-12T19:40:34Z</time>
      </trkpt>
      <trkpt lat="46.19837" lon="-1.360826">
        <ele>9.6</ele>
        <time>2020-08-12T19:40:35Z</time>
      </trkpt>
      <trkpt lat="46.198483" lon="-1.360622">
        <ele>9.6</ele>
        <time>2020-08-12T19:40:36Z</time>
      </trkpt>
      <trkpt lat="46.198459" lon="-1.36057">
        <ele>9.6</ele>
        <time>2020-08-12T19:40:37Z</time>
      </trkpt>
      <trkpt lat="46.198449" lon="-1.360445">
        <ele>9.6</ele>
        <time>2020-08-12T19:40:38Z</time>
      </trkpt>
      <trkpt lat="46.198464" lon="-1.360385">
        <ele>9.6</ele>
        <time>2020-08-12T19:40:38Z</time>
      </trkpt>
      <trkpt lat="46.198495" lon="-1.36033">
        <ele>9.6</ele>
        <time>2020-08-12T19:40:39Z</time>
      </trkpt>
      <trkpt lat="46.198585" lon="-1.36028">
        <ele>9.6</ele>
        <time>2020-08-12T19:40:40Z</time>
      </trkpt>
      <trkpt lat="46.198634" lon="-1.360291">
        <ele>9.6</ele>
        <time>2020-08-12T19:40:41Z</time>
      </trkpt>
      <trkpt lat="46.198937" lon="-1.358925">
        <ele>9.6</ele>
        <time>2020-08-12T19:40:54Z</time>
      </trkpt>
      <trkpt lat="46.198971" lon="-1.358636">
        <ele>9.6</ele>
        <time>2020-08-12T19:40:56Z</time>
      </trkpt>
      <trkpt lat="46.198968" lon="-1.358482">
        <ele>9.6</ele>
        <time>2020-08-12T19:40:58Z</time>
      </trkpt>
      <trkpt lat="46.198952" lon="-1.358325">
        <ele>9.8</ele>
        <time>2020-08-12T19:40:59Z</time>
      </trkpt>
      <trkpt lat="46.198461" lon="-1.356445">
        <ele>10.4</ele>
        <time>2020-08-12T19:41:17Z</time>
      </trkpt>
      <trkpt lat="46.19801" lon="-1.354832">
        <ele>10.2</ele>
        <time>2020-08-12T19:41:33Z</time>
      </trkpt>
      <trkpt lat="46.19798" lon="-1.354825">
        <ele>10.2</ele>
        <time>2020-08-12T19:41:33Z</time>
      </trkpt>
      <trkpt lat="46.197934" lon="-1.35477">
        <ele>10.2</ele>
        <time>2020-08-12T19:41:33Z</time>
      </trkpt>
      <trkpt lat="46.197923" lon="-1.354703">
        <ele>10.2</ele>
        <time>2020-08-12T19:41:34Z</time>
      </trkpt>
      <trkpt lat="46.197945" lon="-1.354623">
        <ele>10.2</ele>
        <time>2020-08-12T19:41:34Z</time>
      </trkpt>
      <trkpt lat="46.197435" lon="-1.353158">
        <ele>10.4</ele>
        <time>2020-08-12T19:41:43Z</time>
      </trkpt>
      <trkpt lat="46.196003" lon="-1.350129">
        <ele>11.2</ele>
        <time>2020-08-12T19:42:03Z</time>
      </trkpt>
      <trkpt lat="46.195787" lon="-1.349744">
        <ele>11.4</ele>
        <time>2020-08-12T19:42:06Z</time>
      </trkpt>
      <trkpt lat="46.194696" lon="-1.347951">
        <ele>11.4</ele>
        <time>2020-08-12T19:42:19Z</time>
      </trkpt>
      <trkpt lat="46.194335" lon="-1.347384">
        <ele>10.4</ele>
        <time>2020-08-12T19:42:23Z</time>
      </trkpt>
      <trkpt lat="46.194252" lon="-1.347281">
        <ele>10.4</ele>
        <time>2020-08-12T19:42:24Z</time>
      </trkpt>
      <trkpt lat="46.194138" lon="-1.347188">
        <ele>11.4</ele>
        <time>2020-08-12T19:42:25Z</time>
      </trkpt>
      <trkpt lat="46.194041" lon="-1.347219">
        <ele>11.4</ele>
        <time>2020-08-12T19:42:26Z</time>
      </trkpt>
      <trkpt lat="46.193979" lon="-1.347188">
        <ele>11.4</ele>
        <time>2020-08-12T19:42:27Z</time>
      </trkpt>
      <trkpt lat="46.193914" lon="-1.347069">
        <ele>11.4</ele>
        <time>2020-08-12T19:42:28Z</time>
      </trkpt>
      <trkpt lat="46.193911" lon="-1.346949">
        <ele>11.4</ele>
        <time>2020-08-12T19:42:29Z</time>
      </trkpt>
      <trkpt lat="46.193747" lon="-1.346769">
        <ele>11.4</ele>
        <time>2020-08-12T19:42:30Z</time>
      </trkpt>
      <trkpt lat="46.193244" lon="-1.346358">
        <ele>12.4</ele>
        <time>2020-08-12T19:42:36Z</time>
      </trkpt>
      <trkpt lat="46.192895" lon="-1.346212">
        <ele>12.4</ele>
        <time>2020-08-12T19:42:39Z</time>
      </trkpt>
      <trkpt lat="46.192517" lon="-1.346138">
        <ele>12.4</ele>
        <time>2020-08-12T19:42:42Z</time>
      </trkpt>
      <trkpt lat="46.192363" lon="-1.346131">
        <ele>14.2</ele>
        <time>2020-08-12T19:42:44Z</time>
      </trkpt>
      <trkpt lat="46.192082" lon="-1.346165">
        <ele>14.2</ele>
        <time>2020-08-12T19:42:46Z</time>
      </trkpt>
      <trkpt lat="46.191081" lon="-1.346364">
        <ele>14.4</ele>
        <time>2020-08-12T19:42:56Z</time>
      </trkpt>
      <trkpt lat="46.190717" lon="-1.346363">
        <ele>14.4</ele>
        <time>2020-08-12T19:42:59Z</time>
      </trkpt>
      <trkpt lat="46.190261" lon="-1.346252">
        <ele>14.4</ele>
        <time>2020-08-12T19:43:03Z</time>
      </trkpt>
      <trkpt lat="46.189906" lon="-1.346058">
        <ele>15.2</ele>
        <time>2020-08-12T19:43:07Z</time>
      </trkpt>
      <trkpt lat="46.189531" lon="-1.345735">
        <ele>14.4</ele>
        <time>2020-08-12T19:43:11Z</time>
      </trkpt>
      <trkpt lat="46.189162" lon="-1.345353">
        <ele>15.6</ele>
        <time>2020-08-12T19:43:15Z</time>
      </trkpt>
      <trkpt lat="46.188228" lon="-1.344113">
        <ele>16.0</ele>
        <time>2020-08-12T19:43:26Z</time>
      </trkpt>
      <trkpt lat="46.18773" lon="-1.343501">
        <ele>16.0</ele>
        <time>2020-08-12T19:43:32Z</time>
      </trkpt>
      <trkpt lat="46.186283" lon="-1.341393">
        <ele>13.6</ele>
        <time>2020-08-12T19:43:51Z</time>
      </trkpt>
      <trkpt lat="46.185244" lon="-1.340045">
        <ele>12.0</ele>
        <time>2020-08-12T19:44:04Z</time>
      </trkpt>
      <trkpt lat="46.1804" lon="-1.334496">
        <ele>11.6</ele>
        <time>2020-08-12T19:45:00Z</time>
      </trkpt>
      <trkpt lat="46.179768" lon="-1.333695">
        <ele>11.0</ele>
        <time>2020-08-12T19:45:07Z</time>
      </trkpt>
      <trkpt lat="46.179579" lon="-1.333551">
        <ele>11.0</ele>
        <time>2020-08-12T19:45:09Z</time>
      </trkpt>
      <trkpt lat="46.179446" lon="-1.333509">
        <ele>11.0</ele>
        <time>2020-08-12T19:45:11Z</time>
      </trkpt>
      <trkpt lat="46.179353" lon="-1.333552">
        <ele>11.0</ele>
        <time>2020-08-12T19:45:11Z</time>
      </trkpt>
      <trkpt lat="46.179283" lon="-1.333537">
        <ele>11.0</ele>
        <time>2020-08-12T19:45:12Z</time>
      </trkpt>
      <trkpt lat="46.179222" lon="-1.333486">
        <ele>11.0</ele>
        <time>2020-08-12T19:45:12Z</time>
      </trkpt>
      <trkpt lat="46.179179" lon="-1.333405">
        <ele>11.0</ele>
        <time>2020-08-12T19:45:13Z</time>
      </trkpt>
      <trkpt lat="46.179159" lon="-1.333303">
        <ele>9.2</ele>
        <time>2020-08-12T19:45:13Z</time>
      </trkpt>
      <trkpt lat="46.178931" lon="-1.333197">
        <ele>9.2</ele>
        <time>2020-08-12T19:45:15Z</time>
      </trkpt>
      <trkpt lat="46.178829" lon="-1.333123">
        <ele>9.2</ele>
        <time>2020-08-12T19:45:16Z</time>
      </trkpt>
      <trkpt lat="46.178356" lon="-1.332697">
        <ele>9.2</ele>
        <time>2020-08-12T19:45:20Z</time>
      </trkpt>
      <trkpt lat="46.178285" lon="-1.33268">
        <ele>9.4</ele>
        <time>2020-08-12T19:45:20Z</time>
      </trkpt>
      <trkpt lat="46.177557" lon="-1.332275">
        <ele>9.0</ele>
        <time>2020-08-12T19:45:26Z</time>
      </trkpt>
      <trkpt lat="46.176394" lon="-1.331724">
        <ele>11.4</ele>
        <time>2020-08-12T19:45:34Z</time>
      </trkpt>
      <trkpt lat="46.176054" lon="-1.331522">
        <ele>11.0</ele>
        <time>2020-08-12T19:45:37Z</time>
      </trkpt>
      <trkpt lat="46.174949" lon="-1.330316">
        <ele>13.4</ele>
        <time>2020-08-12T19:45:46Z</time>
      </trkpt>
      <trkpt lat="46.174793" lon="-1.33016">
        <ele>13.4</ele>
        <time>2020-08-12T19:45:47Z</time>
      </trkpt>
      <trkpt lat="46.174576" lon="-1.329988">
        <ele>14.6</ele>
        <time>2020-08-12T19:45:49Z</time>
      </trkpt>
      <trkpt lat="46.174447" lon="-1.329912">
        <ele>14.6</ele>
        <time>2020-08-12T19:45:50Z</time>
      </trkpt>
      <trkpt lat="46.174117" lon="-1.329766">
        <ele>16.8</ele>
        <time>2020-08-12T19:45:52Z</time>
      </trkpt>
      <trkpt lat="46.173432" lon="-1.329512">
        <ele>16.8</ele>
        <time>2020-08-12T19:45:57Z</time>
      </trkpt>
      <trkpt lat="46.173121" lon="-1.329318">
        <ele>17.6</ele>
        <time>2020-08-12T19:46:00Z</time>
      </trkpt>
      <trkpt lat="46.17247" lon="-1.328789">
        <ele>17.0</ele>
        <time>2020-08-12T19:46:05Z</time>
      </trkpt>
      <trkpt lat="46.172141" lon="-1.328459">
        <ele>17.0</ele>
        <time>2020-08-12T19:46:08Z</time>
      </trkpt>
      <trkpt lat="46.170916" lon="-1.327002">
        <ele>16.2</ele>
        <time>2020-08-12T19:46:18Z</time>
      </trkpt>
      <trkpt lat="46.170474" lon="-1.326565">
        <ele>16.8</ele>
        <time>2020-08-12T19:46:22Z</time>
      </trkpt>
      <trkpt lat="46.170172" lon="-1.326377">
        <ele>16.8</ele>
        <time>2020-08-12T19:46:24Z</time>
      </trkpt>
      <trkpt lat="46.168318" lon="-1.325344">
        <ele>11.2</ele>
        <time>2020-08-12T19:46:38Z</time>
      </trkpt>
      <trkpt lat="46.167173" lon="-1.324776">
        <ele>9.4</ele>
        <time>2020-08-12T19:46:47Z</time>
      </trkpt>
      <trkpt lat="46.166803" lon="-1.324531">
        <ele>9.4</ele>
        <time>2020-08-12T19:46:49Z</time>
      </trkpt>
      <trkpt lat="46.164638" lon="-1.322997">
        <ele>10.2</ele>
        <time>2020-08-12T19:47:06Z</time>
      </trkpt>
      <trkpt lat="46.164406" lon="-1.322856">
        <ele>10.2</ele>
        <time>2020-08-12T19:47:08Z</time>
      </trkpt>
      <trkpt lat="46.163553" lon="-1.322452">
        <ele>10.4</ele>
        <time>2020-08-12T19:47:14Z</time>
      </trkpt>
      <trkpt lat="46.163278" lon="-1.322299">
        <ele>9.8</ele>
        <time>2020-08-12T19:47:16Z</time>
      </trkpt>
      <trkpt lat="46.16275" lon="-1.321931">
        <ele>9.8</ele>
        <time>2020-08-12T19:47:20Z</time>
      </trkpt>
      <trkpt lat="46.162439" lon="-1.321673">
        <ele>9.6</ele>
        <time>2020-08-12T19:47:22Z</time>
      </trkpt>
      <trkpt lat="46.162221" lon="-1.321449">
        <ele>9.8</ele>
        <time>2020-08-12T19:47:24Z</time>
      </trkpt>
      <trkpt lat="46.160274" lon="-1.31928">
        <ele>9.4</ele>
        <time>2020-08-12T19:47:41Z</time>
      </trkpt>
      <trkpt lat="46.159996" lon="-1.318925">
        <ele>10.2</ele>
        <time>2020-08-12T19:47:44Z</time>
      </trkpt>
      <trkpt lat="46.159701" lon="-1.318462">
        <ele>10.2</ele>
        <time>2020-08-12T19:47:47Z</time>
      </trkpt>
      <trkpt lat="46.159535" lon="-1.318236">
        <ele>9.8</ele>
        <time>2020-08-12T19:47:48Z</time>
      </trkpt>
      <trkpt lat="46.159166" lon="-1.317833">
        <ele>9.4</ele>
        <time>2020-08-12T19:47:52Z</time>
      </trkpt>
      <trkpt lat="46.158486" lon="-1.317319">
        <ele>9.0</ele>
        <time>2020-08-12T19:47:57Z</time>
      </trkpt>
      <trkpt lat="46.156732" lon="-1.315597">
        <ele>9.8</ele>
        <time>2020-08-12T19:48:11Z</time>
      </trkpt>
      <trkpt lat="46.156395" lon="-1.315354">
        <ele>9.4</ele>
        <time>2020-08-12T19:48:14Z</time>
      </trkpt>
      <trkpt lat="46.155694" lon="-1.315089">
        <ele>9.0</ele>
        <time>2020-08-12T19:48:19Z</time>
      </trkpt>
      <trkpt lat="46.155555" lon="-1.315146">
        <ele>9.0</ele>
        <time>2020-08-12T19:48:20Z</time>
      </trkpt>
      <trkpt lat="46.155457" lon="-1.315253">
        <ele>9.0</ele>
        <time>2020-08-12T19:48:21Z</time>
      </trkpt>
      <trkpt lat="46.155417" lon="-1.315367">
        <ele>9.0</ele>
        <time>2020-08-12T19:48:22Z</time>
      </trkpt>
      <trkpt lat="46.155381" lon="-1.315405">
        <ele>9.0</ele>
        <time>2020-08-12T19:48:22Z</time>
      </trkpt>
      <trkpt lat="46.155294" lon="-1.315426">
        <ele>9.0</ele>
        <time>2020-08-12T19:48:23Z</time>
      </trkpt>
      <trkpt lat="46.155215" lon="-1.31537">
        <ele>9.0</ele>
        <time>2020-08-12T19:48:24Z</time>
      </trkpt>
      <trkpt lat="46.155174" lon="-1.315257">
        <ele>9.0</ele>
        <time>2020-08-12T19:48:25Z</time>
      </trkpt>
      <trkpt lat="46.155194" lon="-1.314992">
        <ele>9.2</ele>
        <time>2020-08-12T19:48:27Z</time>
      </trkpt>
      <trkpt lat="46.155182" lon="-1.314821">
        <ele>9.2</ele>
        <time>2020-08-12T19:48:28Z</time>
      </trkpt>
      <trkpt lat="46.155097" lon="-1.314581">
        <ele>9.2</ele>
        <time>2020-08-12T19:48:30Z</time>
      </trkpt>
      <trkpt lat="46.154618" lon="-1.313482">
        <ele>9.2</ele>
        <time>2020-08-12T19:48:39Z</time>
      </trkpt>
      <trkpt lat="46.154513" lon="-1.3132">
        <ele>9.6</ele>
        <time>2020-08-12T19:48:42Z</time>
      </trkpt>
      <trkpt lat="46.154397" lon="-1.312809">
        <ele>9.6</ele>
        <time>2020-08-12T19:48:45Z</time>
      </trkpt>
      <trkpt lat="46.153559" lon="-1.308898">
        <ele>9.2</ele>
        <time>2020-08-12T19:49:14Z</time>
      </trkpt>
      <trkpt lat="46.153475" lon="-1.308317">
        <ele>8.8</ele>
        <time>2020-08-12T19:49:18Z</time>
      </trkpt>
      <trkpt lat="46.153447" lon="-1.307994">
        <ele>8.8</ele>
        <time>2020-08-12T19:49:20Z</time>
      </trkpt>
      <trkpt lat="46.153407" lon="-1.306913">
        <ele>9.0</ele>
        <time>2020-08-12T19:49:28Z</time>
      </trkpt>
      <trkpt lat="46.153382" lon="-1.306723">
        <ele>9.0</ele>
        <time>2020-08-12T19:49:29Z</time>
      </trkpt>
      <trkpt lat="46.15333" lon="-1.306614">
        <ele>8.8</ele>
        <time>2020-08-12T19:49:30Z</time>
      </trkpt>
      <trkpt lat="46.153276" lon="-1.306601">
        <ele>8.8</ele>
        <time>2020-08-12T19:49:31Z</time>
      </trkpt>
      <trkpt lat="46.153212" lon="-1.306538">
        <ele>8.8</ele>
        <time>2020-08-12T19:49:31Z</time>
      </trkpt>
      <trkpt lat="46.153174" lon="-1.306414">
        <ele>8.8</ele>
        <time>2020-08-12T19:49:32Z</time>
      </trkpt>
      <trkpt lat="46.153178" lon="-1.30634">
        <ele>8.8</ele>
        <time>2020-08-12T19:49:33Z</time>
      </trkpt>
      <trkpt lat="46.153199" lon="-1.306271">
        <ele>8.8</ele>
        <time>2020-08-12T19:49:33Z</time>
      </trkpt>
      <trkpt lat="46.153241" lon="-1.30621">
        <ele>8.8</ele>
        <time>2020-08-12T19:49:34Z</time>
      </trkpt>
      <trkpt lat="46.153275" lon="-1.306029">
        <ele>8.8</ele>
        <time>2020-08-12T19:49:35Z</time>
      </trkpt>
      <trkpt lat="46.153139" lon="-1.304428">
        <ele>8.6</ele>
        <time>2020-08-12T19:49:45Z</time>
      </trkpt>
      <trkpt lat="46.153105" lon="-1.303623">
        <ele>8.6</ele>
        <time>2020-08-12T19:49:51Z</time>
      </trkpt>
      <trkpt lat="46.153111" lon="-1.303219">
        <ele>9.0</ele>
        <time>2020-08-12T19:49:53Z</time>
      </trkpt>
      <trkpt lat="46.15317" lon="-1.302604">
        <ele>9.0</ele>
        <time>2020-08-12T19:49:57Z</time>
      </trkpt>
      <trkpt lat="46.153294" lon="-1.301881">
        <ele>9.2</ele>
        <time>2020-08-12T19:50:02Z</time>
      </trkpt>
      <trkpt lat="46.153443" lon="-1.300868">
        <ele>10.2</ele>
        <time>2020-08-12T19:50:09Z</time>
      </trkpt>
      <trkpt lat="46.153731" lon="-1.296729">
        <ele>8.6</ele>
        <time>2020-08-12T19:50:36Z</time>
      </trkpt>
      <trkpt lat="46.153725" lon="-1.296233">
        <ele>8.2</ele>
        <time>2020-08-12T19:50:39Z</time>
      </trkpt>
      <trkpt lat="46.15362" lon="-1.294936">
        <ele>7.6</ele>
        <time>2020-08-12T19:50:47Z</time>
      </trkpt>
      <trkpt lat="46.153612" lon="-1.294597">
        <ele>7.6</ele>
        <time>2020-08-12T19:50:49Z</time>
      </trkpt>
      <trkpt lat="46.153636" lon="-1.294225">
        <ele>7.6</ele>
        <time>2020-08-12T19:50:52Z</time>
      </trkpt>
      <trkpt lat="46.153676" lon="-1.293877">
        <ele>6.8</ele>
        <time>2020-08-12T19:50:54Z</time>
      </trkpt>
      <trkpt lat="46.153755" lon="-1.293495">
        <ele>6.8</ele>
        <time>2020-08-12T19:50:57Z</time>
      </trkpt>
      <trkpt lat="46.153884" lon="-1.293059">
        <ele>6.0</ele>
        <time>2020-08-12T19:51:00Z</time>
      </trkpt>
      <trkpt lat="46.153957" lon="-1.292726">
        <ele>6.0</ele>
        <time>2020-08-12T19:51:02Z</time>
      </trkpt>
      <trkpt lat="46.154045" lon="-1.291957">
        <ele>4.8</ele>
        <time>2020-08-12T19:51:07Z</time>
      </trkpt>
      <trkpt lat="46.15407" lon="-1.291176">
        <ele>5.6</ele>
        <time>2020-08-12T19:51:12Z</time>
      </trkpt>
      <trkpt lat="46.154055" lon="-1.290727">
        <ele>7.0</ele>
        <time>2020-08-12T19:51:15Z</time>
      </trkpt>
      <trkpt lat="46.154014" lon="-1.290342">
        <ele>7.0</ele>
        <time>2020-08-12T19:51:18Z</time>
      </trkpt>
      <trkpt lat="46.153896" lon="-1.289679">
        <ele>8.0</ele>
        <time>2020-08-12T19:51:22Z</time>
      </trkpt>
      <trkpt lat="46.153752" lon="-1.289161">
        <ele>8.0</ele>
        <time>2020-08-12T19:51:26Z</time>
      </trkpt>
      <trkpt lat="46.153652" lon="-1.288544">
        <ele>8.0</ele>
        <time>2020-08-12T19:51:30Z</time>
      </trkpt>
      <trkpt lat="46.153481" lon="-1.286517">
        <ele>7.8</ele>
        <time>2020-08-12T19:51:43Z</time>
      </trkpt>
      <trkpt lat="46.153412" lon="-1.286126">
        <ele>7.8</ele>
        <time>2020-08-12T19:51:45Z</time>
      </trkpt>
      <trkpt lat="46.153292" lon="-1.285648">
        <ele>7.0</ele>
        <time>2020-08-12T19:51:49Z</time>
      </trkpt>
      <trkpt lat="46.153093" lon="-1.285111">
        <ele>7.0</ele>
        <time>2020-08-12T19:51:53Z</time>
      </trkpt>
      <trkpt lat="46.15295" lon="-1.284623">
        <ele>6.0</ele>
        <time>2020-08-12T19:51:56Z</time>
      </trkpt>
      <trkpt lat="46.152844" lon="-1.284058">
        <ele>5.2</ele>
        <time>2020-08-12T19:52:00Z</time>
      </trkpt>
      <trkpt lat="46.152799" lon="-1.283493">
        <ele>5.2</ele>
        <time>2020-08-12T19:52:04Z</time>
      </trkpt>
      <trkpt lat="46.152784" lon="-1.283122">
        <ele>4.0</ele>
        <time>2020-08-12T19:52:06Z</time>
      </trkpt>
      <trkpt lat="46.152732" lon="-1.282714">
        <ele>4.0</ele>
        <time>2020-08-12T19:52:09Z</time>
      </trkpt>
      <trkpt lat="46.152653" lon="-1.282677">
        <ele>4.0</ele>
        <time>2020-08-12T19:52:10Z</time>
      </trkpt>
      <trkpt lat="46.152587" lon="-1.282604">
        <ele>4.0</ele>
        <time>2020-08-12T19:52:10Z</time>
      </trkpt>
      <trkpt lat="46.152541" lon="-1.282504">
        <ele>4.0</ele>
        <time>2020-08-12T19:52:11Z</time>
      </trkpt>
      <trkpt lat="46.152519" lon="-1.282389">
        <ele>3.6</ele>
        <time>2020-08-12T19:52:12Z</time>
      </trkpt>
      <trkpt lat="46.15252" lon="-1.282301">
        <ele>3.6</ele>
        <time>2020-08-12T19:52:13Z</time>
      </trkpt>
      <trkpt lat="46.152566" lon="-1.282139">
        <ele>3.6</ele>
        <time>2020-08-12T19:52:14Z</time>
      </trkpt>
      <trkpt lat="46.152654" lon="-1.282029">
        <ele>3.6</ele>
        <time>2020-08-12T19:52:15Z</time>
      </trkpt>
      <trkpt lat="46.152709" lon="-1.281998">
        <ele>3.6</ele>
        <time>2020-08-12T19:52:16Z</time>
      </trkpt>
      <trkpt lat="46.152703" lon="-1.281655">
        <ele>3.2</ele>
        <time>2020-08-12T19:52:19Z</time>
      </trkpt>
      <trkpt lat="46.152674" lon="-1.281405">
        <ele>3.2</ele>
        <time>2020-08-12T19:52:21Z</time>
      </trkpt>
      <trkpt lat="46.152531" lon="-1.280613">
        <ele>3.0</ele>
        <time>2020-08-12T19:52:28Z</time>
      </trkpt>
      <trkpt lat="46.15246" lon="-1.280322">
        <ele>2.8</ele>
        <time>2020-08-12T19:52:31Z</time>
      </trkpt>
      <trkpt lat="46.152306" lon="-1.27981">
        <ele>2.0</ele>
        <time>2020-08-12T19:52:35Z</time>
      </trkpt>
      <trkpt lat="46.15187" lon="-1.278714">
        <ele>1.6</ele>
        <time>2020-08-12T19:52:46Z</time>
      </trkpt>
      <trkpt lat="46.150671" lon="-1.275854">
        <ele>3.8</ele>
        <time>2020-08-12T19:53:15Z</time>
      </trkpt>
      <trkpt lat="46.150573" lon="-1.275567">
        <ele>4.0</ele>
        <time>2020-08-12T19:53:18Z</time>
      </trkpt>
      <trkpt lat="46.150553" lon="-1.275428">
        <ele>4.0</ele>
        <time>2020-08-12T19:53:19Z</time>
      </trkpt>
      <trkpt lat="46.150559" lon="-1.275291">
        <ele>4.0</ele>
        <time>2020-08-12T19:53:20Z</time>
      </trkpt>
      <trkpt lat="46.150587" lon="-1.27513">
        <ele>4.0</ele>
        <time>2020-08-12T19:53:22Z</time>
      </trkpt>
      <trkpt lat="46.150692" lon="-1.274869">
        <ele>3.33</ele>
        <time>2020-08-12T19:53:24Z</time>
      </trkpt>
      <trkpt lat="46.150765" lon="-1.274761">
        <ele>3.33</ele>
        <time>2020-08-12T19:53:26Z</time>
      </trkpt>
      <trkpt lat="46.150855" lon="-1.274672">
        <ele>3.2</ele>
        <time>2020-08-12T19:53:27Z</time>
      </trkpt>
      <trkpt lat="46.151507" lon="-1.27421">
        <ele>3.2</ele>
        <time>2020-08-12T19:53:36Z</time>
      </trkpt>
      <trkpt lat="46.15177" lon="-1.273961">
        <ele>3.0</ele>
        <time>2020-08-12T19:53:40Z</time>
      </trkpt>
      <trkpt lat="46.152858" lon="-1.272688">
        <ele>4.4</ele>
        <time>2020-08-12T19:53:57Z</time>
      </trkpt>
      <trkpt lat="46.153655" lon="-1.27171">
        <ele>5.2</ele>
        <time>2020-08-12T19:54:10Z</time>
      </trkpt>
      <trkpt lat="46.155234" lon="-1.269499">
        <ele>4.8</ele>
        <time>2020-08-12T19:54:38Z</time>
      </trkpt>
      <trkpt lat="46.155533" lon="-1.269047">
        <ele>5.33</ele>
        <time>2020-08-12T19:54:43Z</time>
      </trkpt>
      <trkpt lat="46.155994" lon="-1.268232">
        <ele>4.75</ele>
        <time>2020-08-12T19:54:52Z</time>
      </trkpt>
      <trkpt lat="46.156672" lon="-1.266971">
        <ele>5.2</ele>
        <time>2020-08-12T19:55:06Z</time>
      </trkpt>
      <trkpt lat="46.157115" lon="-1.265994">
        <ele>4.75</ele>
        <time>2020-08-12T19:55:16Z</time>
      </trkpt>
      <trkpt lat="46.157245" lon="-1.265782">
        <ele>3.25</ele>
        <time>2020-08-12T19:55:19Z</time>
      </trkpt>
      <trkpt lat="46.15747" lon="-1.26552">
        <ele>3.25</ele>
        <time>2020-08-12T19:55:22Z</time>
      </trkpt>
      <trkpt lat="46.157636" lon="-1.265393">
        <ele>4.6</ele>
        <time>2020-08-12T19:55:25Z</time>
      </trkpt>
      <trkpt lat="46.157793" lon="-1.265303">
        <ele>4.6</ele>
        <time>2020-08-12T19:55:27Z</time>
      </trkpt>
      <trkpt lat="46.158007" lon="-1.265229">
        <ele>4.6</ele>
        <time>2020-08-12T19:55:29Z</time>
      </trkpt>
      <trkpt lat="46.158245" lon="-1.265202">
        <ele>4.6</ele>
        <time>2020-08-12T19:55:32Z</time>
      </trkpt>
      <trkpt lat="46.158414" lon="-1.26522">
        <ele>5.2</ele>
        <time>2020-08-12T19:55:35Z</time>
      </trkpt>
      <trkpt lat="46.158578" lon="-1.265267">
        <ele>5.2</ele>
        <time>2020-08-12T19:55:37Z</time>
      </trkpt>
      <trkpt lat="46.159087" lon="-1.265533">
        <ele>5.2</ele>
        <time>2020-08-12T19:55:43Z</time>
      </trkpt>
      <trkpt lat="46.159302" lon="-1.26561">
        <ele>5.0</ele>
        <time>2020-08-12T19:55:46Z</time>
      </trkpt>
      <trkpt lat="46.159423" lon="-1.265625">
        <ele>5.0</ele>
        <time>2020-08-12T19:55:48Z</time>
      </trkpt>
      <trkpt lat="46.159505" lon="-1.265581">
        <ele>5.0</ele>
        <time>2020-08-12T19:55:49Z</time>
      </trkpt>
      <trkpt lat="46.159534" lon="-1.265541">
        <ele>5.0</ele>
        <time>2020-08-12T19:55:49Z</time>
      </trkpt>
      <trkpt lat="46.159673" lon="-1.265241">
        <ele>5.0</ele>
        <time>2020-08-12T19:55:52Z</time>
      </trkpt>
      <trkpt lat="46.160002" lon="-1.263913">
        <ele>4.6</ele>
        <time>2020-08-12T19:56:04Z</time>
      </trkpt>
      <trkpt lat="46.160112" lon="-1.263611">
        <ele>4.6</ele>
        <time>2020-08-12T19:56:06Z</time>
      </trkpt>
      <trkpt lat="46.160574" lon="-1.262791">
        <ele>4.8</ele>
        <time>2020-08-12T19:56:15Z</time>
      </trkpt>
      <trkpt lat="46.160722" lon="-1.262483">
        <ele>5.4</ele>
        <time>2020-08-12T19:56:18Z</time>
      </trkpt>
      <trkpt lat="46.161303" lon="-1.260931">
        <ele>4.2</ele>
        <time>2020-08-12T19:56:32Z</time>
      </trkpt>
      <trkpt lat="46.161733" lon="-1.25992">
        <ele>5.0</ele>
        <time>2020-08-12T19:56:42Z</time>
      </trkpt>
      <trkpt lat="46.161829" lon="-1.259615">
        <ele>5.0</ele>
        <time>2020-08-12T19:56:44Z</time>
      </trkpt>
      <trkpt lat="46.161936" lon="-1.259146">
        <ele>5.4</ele>
        <time>2020-08-12T19:56:49Z</time>
      </trkpt>
      <trkpt lat="46.161964" lon="-1.258729">
        <ele>5.4</ele>
        <time>2020-08-12T19:56:52Z</time>
      </trkpt>
      <trkpt lat="46.161963" lon="-1.258374">
        <ele>5.4</ele>
        <time>2020-08-12T19:56:55Z</time>
      </trkpt>
      <trkpt lat="46.161897" lon="-1.25826">
        <ele>5.0</ele>
        <time>2020-08-12T19:56:55Z</time>
      </trkpt>
      <trkpt lat="46.161879" lon="-1.258128">
        <ele>5.0</ele>
        <time>2020-08-12T19:56:56Z</time>
      </trkpt>
      <trkpt lat="46.161901" lon="-1.258007">
        <ele>5.0</ele>
        <time>2020-08-12T19:56:57Z</time>
      </trkpt>
      <trkpt lat="46.161982" lon="-1.257885">
        <ele>5.0</ele>
        <time>2020-08-12T19:56:57Z</time>
      </trkpt>
      <trkpt lat="46.162058" lon="-1.25785">
        <ele>5.0</ele>
        <time>2020-08-12T19:56:58Z</time>
      </trkpt>
      <trkpt lat="46.162167" lon="-1.257878">
        <ele>5.0</ele>
        <time>2020-08-12T19:56:58Z</time>
      </trkpt>
      <trkpt lat="46.162214" lon="-1.257865">
        <ele>5.0</ele>
        <time>2020-08-12T19:56:59Z</time>
      </trkpt>
      <trkpt lat="46.162397" lon="-1.257763">
        <ele>5.0</ele>
        <time>2020-08-12T19:57:00Z</time>
      </trkpt>
      <trkpt lat="46.162667" lon="-1.257554">
        <ele>5.0</ele>
        <time>2020-08-12T19:57:02Z</time>
      </trkpt>
      <trkpt lat="46.163305" lon="-1.256855">
        <ele>4.6</ele>
        <time>2020-08-12T19:57:07Z</time>
      </trkpt>
      <trkpt lat="46.163645" lon="-1.256445">
        <ele>3.4</ele>
        <time>2020-08-12T19:57:10Z</time>
      </trkpt>
      <trkpt lat="46.163968" lon="-1.256015">
        <ele>3.4</ele>
        <time>2020-08-12T19:57:12Z</time>
      </trkpt>
      <trkpt lat="46.165115" lon="-1.254201">
        <ele>3.0</ele>
        <time>2020-08-12T19:57:30Z</time>
      </trkpt>
      <trkpt lat="46.165599" lon="-1.253396">
        <ele>3.5</ele>
        <time>2020-08-12T19:57:37Z</time>
      </trkpt>
      <trkpt lat="46.166234" lon="-1.252289">
        <ele>0.0</ele>
        <time>2020-08-12T19:57:47Z</time>
      </trkpt>
      <trkpt lat="46.167147" lon="-1.250609">
        <ele>0.0</ele>
        <time>2020-08-12T19:58:02Z</time>
      </trkpt>
      <trkpt lat="46.167593" lon="-1.249749">
        <ele>0.0</ele>
        <time>2020-08-12T19:58:10Z</time>
      </trkpt>
      <trkpt lat="46.16817" lon="-1.248583">
        <ele>0.0</ele>
        <time>2020-08-12T19:58:20Z</time>
      </trkpt>
      <trkpt lat="46.169134" lon="-1.246509">
        <ele>0.0</ele>
        <time>2020-08-12T19:58:37Z</time>
      </trkpt>
      <trkpt lat="46.170046" lon="-1.244372">
        <ele>0.0</ele>
        <time>2020-08-12T19:58:55Z</time>
      </trkpt>
      <trkpt lat="46.170894" lon="-1.2422">
        <ele>0.0</ele>
        <time>2020-08-12T19:59:13Z</time>
      </trkpt>
      <trkpt lat="46.171576" lon="-1.240298">
        <ele>0.0</ele>
        <time>2020-08-12T19:59:28Z</time>
      </trkpt>
      <trkpt lat="46.172215" lon="-1.23836">
        <ele>0.0</ele>
        <time>2020-08-12T19:59:43Z</time>
      </trkpt>
      <trkpt lat="46.172805" lon="-1.236407">
        <ele>0.0</ele>
        <time>2020-08-12T19:59:58Z</time>
      </trkpt>
      <trkpt lat="46.173443" lon="-1.234069">
        <ele>0.0</ele>
        <time>2020-08-12T20:00:16Z</time>
      </trkpt>
      <trkpt lat="46.173937" lon="-1.232051">
        <ele>0.0</ele>
        <time>2020-08-12T20:00:31Z</time>
      </trkpt>
      <trkpt lat="46.174384" lon="-1.230005">
        <ele>0.0</ele>
        <time>2020-08-12T20:00:46Z</time>
      </trkpt>
      <trkpt lat="46.174846" lon="-1.227598">
        <ele>0.0</ele>
        <time>2020-08-12T20:01:03Z</time>
      </trkpt>
      <trkpt lat="46.175241" lon="-1.225179">
        <ele>0.0</ele>
        <time>2020-08-12T20:01:21Z</time>
      </trkpt>
      <trkpt lat="46.175392" lon="-1.224127">
        <ele>0.0</ele>
        <time>2020-08-12T20:01:28Z</time>
      </trkpt>
      <trkpt lat="46.175628" lon="-1.222287">
        <ele>0.0</ele>
        <time>2020-08-12T20:01:42Z</time>
      </trkpt>
      <trkpt lat="46.175636" lon="-1.221541">
        <ele>0.0</ele>
        <time>2020-08-12T20:01:47Z</time>
      </trkpt>
      <trkpt lat="46.17562" lon="-1.221199">
        <ele>0.0</ele>
        <time>2020-08-12T20:01:49Z</time>
      </trkpt>
      <trkpt lat="46.17555" lon="-1.220603">
        <ele>0.0</ele>
        <time>2020-08-12T20:01:52Z</time>
      </trkpt>
      <trkpt lat="46.175363" lon="-1.219582">
        <ele>3.0</ele>
        <time>2020-08-12T20:01:57Z</time>
      </trkpt>
      <trkpt lat="46.175313" lon="-1.219216">
        <ele>3.0</ele>
        <time>2020-08-12T20:01:59Z</time>
      </trkpt>
      <trkpt lat="46.175159" lon="-1.217626">
        <ele>5.8</ele>
        <time>2020-08-12T20:02:07Z</time>
      </trkpt>
      <trkpt lat="46.175093" lon="-1.21684">
        <ele>6.2</ele>
        <time>2020-08-12T20:02:10Z</time>
      </trkpt>
      <trkpt lat="46.175064" lon="-1.216011">
        <ele>6.8</ele>
        <time>2020-08-12T20:02:13Z</time>
      </trkpt>
      <trkpt lat="46.175123" lon="-1.215158">
        <ele>7.8</ele>
        <time>2020-08-12T20:02:17Z</time>
      </trkpt>
      <trkpt lat="46.175214" lon="-1.214599">
        <ele>8.8</ele>
        <time>2020-08-12T20:02:19Z</time>
      </trkpt>
      <trkpt lat="46.175343" lon="-1.213957">
        <ele>9.6</ele>
        <time>2020-08-12T20:02:22Z</time>
      </trkpt>
      <trkpt lat="46.175413" lon="-1.213419">
        <ele>9.6</ele>
        <time>2020-08-12T20:02:24Z</time>
      </trkpt>
      <trkpt lat="46.175461" lon="-1.212763">
        <ele>10.6</ele>
        <time>2020-08-12T20:02:26Z</time>
      </trkpt>
      <trkpt lat="46.175452" lon="-1.212077">
        <ele>11.2</ele>
        <time>2020-08-12T20:02:29Z</time>
      </trkpt>
      <trkpt lat="46.175276" lon="-1.209211">
        <ele>14.2</ele>
        <time>2020-08-12T20:02:41Z</time>
      </trkpt>
      <trkpt lat="46.175172" lon="-1.208062">
        <ele>12.0</ele>
        <time>2020-08-12T20:02:46Z</time>
      </trkpt>
      <trkpt lat="46.175015" lon="-1.206915">
        <ele>12.2</ele>
        <time>2020-08-12T20:02:50Z</time>
      </trkpt>
      <trkpt lat="46.174887" lon="-1.206166">
        <ele>12.2</ele>
        <time>2020-08-12T20:02:53Z</time>
      </trkpt>
      <trkpt lat="46.174655" lon="-1.20507">
        <ele>11.0</ele>
        <time>2020-08-12T20:02:58Z</time>
      </trkpt>
      <trkpt lat="46.174487" lon="-1.20438">
        <ele>10.2</ele>
        <time>2020-08-12T20:03:01Z</time>
      </trkpt>
      <trkpt lat="46.174312" lon="-1.203741">
        <ele>9.0</ele>
        <time>2020-08-12T20:03:04Z</time>
      </trkpt>
      <trkpt lat="46.171507" lon="-1.194591">
        <ele>13.6</ele>
        <time>2020-08-12T20:03:44Z</time>
      </trkpt>
      <trkpt lat="46.171286" lon="-1.193775">
        <ele>12.4</ele>
        <time>2020-08-12T20:03:48Z</time>
      </trkpt>
      <trkpt lat="46.171173" lon="-1.193219">
        <ele>11.2</ele>
        <time>2020-08-12T20:03:50Z</time>
      </trkpt>
      <trkpt lat="46.171028" lon="-1.192202">
        <ele>10.6</ele>
        <time>2020-08-12T20:03:54Z</time>
      </trkpt>
      <trkpt lat="46.170972" lon="-1.19142">
        <ele>10.2</ele>
        <time>2020-08-12T20:03:58Z</time>
      </trkpt>
      <trkpt lat="46.17096" lon="-1.190693">
        <ele>10.0</ele>
        <time>2020-08-12T20:04:00Z</time>
      </trkpt>
      <trkpt lat="46.171008" lon="-1.189771">
        <ele>10.4</ele>
        <time>2020-08-12T20:04:04Z</time>
      </trkpt>
      <trkpt lat="46.171061" lon="-1.189243">
        <ele>10.4</ele>
        <time>2020-08-12T20:04:06Z</time>
      </trkpt>
      <trkpt lat="46.171178" lon="-1.188551">
        <ele>9.8</ele>
        <time>2020-08-12T20:04:09Z</time>
      </trkpt>
      <trkpt lat="46.171471" lon="-1.187184">
        <ele>7.8</ele>
        <time>2020-08-12T20:04:15Z</time>
      </trkpt>
      <trkpt lat="46.17323" lon="-1.179588">
        <ele>16.6</ele>
        <time>2020-08-12T20:04:47Z</time>
      </trkpt>
      <trkpt lat="46.17399" lon="-1.176465">
        <ele>18.8</ele>
        <time>2020-08-12T20:05:01Z</time>
      </trkpt>
      <trkpt lat="46.17479" lon="-1.173089">
        <ele>19.8</ele>
        <time>2020-08-12T20:05:15Z</time>
      </trkpt>
      <trkpt lat="46.176113" lon="-1.167389">
        <ele>13.4</ele>
        <time>2020-08-12T20:05:40Z</time>
      </trkpt>
      <trkpt lat="46.178196" lon="-1.158584">
        <ele>15.4</ele>
        <time>2020-08-12T20:06:17Z</time>
      </trkpt>
      <trkpt lat="46.178255" lon="-1.158046">
        <ele>14.6</ele>
        <time>2020-08-12T20:06:21Z</time>
      </trkpt>
      <trkpt lat="46.17877" lon="-1.155208">
        <ele>10.4</ele>
        <time>2020-08-12T20:06:39Z</time>
      </trkpt>
      <trkpt lat="46.178855" lon="-1.154518">
        <ele>9.0</ele>
        <time>2020-08-12T20:06:44Z</time>
      </trkpt>
      <trkpt lat="46.178889" lon="-1.153793">
        <ele>7.6</ele>
        <time>2020-08-12T20:06:48Z</time>
      </trkpt>
      <trkpt lat="46.178911" lon="-1.153642">
        <ele>7.6</ele>
        <time>2020-08-12T20:06:49Z</time>
      </trkpt>
      <trkpt lat="46.178948" lon="-1.153515">
        <ele>7.6</ele>
        <time>2020-08-12T20:06:50Z</time>
      </trkpt>
      <trkpt lat="46.179133" lon="-1.153158">
        <ele>6.4</ele>
        <time>2020-08-12T20:06:53Z</time>
      </trkpt>
      <trkpt lat="46.179165" lon="-1.153049">
        <ele>6.4</ele>
        <time>2020-08-12T20:06:54Z</time>
      </trkpt>
      <trkpt lat="46.179173" lon="-1.152952">
        <ele>6.8</ele>
        <time>2020-08-12T20:06:55Z</time>
      </trkpt>
      <trkpt lat="46.179156" lon="-1.152786">
        <ele>6.4</ele>
        <time>2020-08-12T20:06:56Z</time>
      </trkpt>
      <trkpt lat="46.17917" lon="-1.152648">
        <ele>6.8</ele>
        <time>2020-08-12T20:06:57Z</time>
      </trkpt>
      <trkpt lat="46.179203" lon="-1.15252">
        <ele>6.8</ele>
        <time>2020-08-12T20:06:59Z</time>
      </trkpt>
      <trkpt lat="46.179257" lon="-1.152403">
        <ele>7.2</ele>
        <time>2020-08-12T20:07:00Z</time>
      </trkpt>
      <trkpt lat="46.179412" lon="-1.152232">
        <ele>7.2</ele>
        <time>2020-08-12T20:07:02Z</time>
      </trkpt>
      <trkpt lat="46.179532" lon="-1.152183">
        <ele>7.2</ele>
        <time>2020-08-12T20:07:04Z</time>
      </trkpt>
      <trkpt lat="46.18002" lon="-1.152138">
        <ele>8.4</ele>
        <time>2020-08-12T20:07:11Z</time>
      </trkpt>
      <trkpt lat="46.180117" lon="-1.152151">
        <ele>8.4</ele>
        <time>2020-08-12T20:07:12Z</time>
      </trkpt>
      <trkpt lat="46.180209" lon="-1.152201">
        <ele>8.4</ele>
        <time>2020-08-12T20:07:13Z</time>
      </trkpt>
      <trkpt lat="46.180288" lon="-1.152279">
        <ele>8.4</ele>
        <time>2020-08-12T20:07:14Z</time>
      </trkpt>
      <trkpt lat="46.180364" lon="-1.152406">
        <ele>8.4</ele>
        <time>2020-08-12T20:07:16Z</time>
      </trkpt>
      <trkpt lat="46.180425" lon="-1.152559">
        <ele>7.6</ele>
        <time>2020-08-12T20:07:18Z</time>
      </trkpt>
      <trkpt lat="46.180517" lon="-1.152654">
        <ele>7.6</ele>
        <time>2020-08-12T20:07:19Z</time>
      </trkpt>
      <trkpt lat="46.180642" lon="-1.152742">
        <ele>7.6</ele>
        <time>2020-08-12T20:07:21Z</time>
      </trkpt>
      <trkpt lat="46.180786" lon="-1.152752">
        <ele>7.6</ele>
        <time>2020-08-12T20:07:23Z</time>
      </trkpt>
      <trkpt lat="46.181036" lon="-1.152681">
        <ele>9.6</ele>
        <time>2020-08-12T20:07:26Z</time>
      </trkpt>
      <trkpt lat="46.184119" lon="-1.152147">
        <ele>15.6</ele>
        <time>2020-08-12T20:08:07Z</time>
      </trkpt>
      <trkpt lat="46.184655" lon="-1.151988">
        <ele>16.6</ele>
        <time>2020-08-12T20:08:14Z</time>
      </trkpt>
      <trkpt lat="46.184888" lon="-1.151885">
        <ele>16.6</ele>
        <time>2020-08-12T20:08:17Z</time>
      </trkpt>
      <trkpt lat="46.185103" lon="-1.151759">
        <ele>18.6</ele>
        <time>2020-08-12T20:08:20Z</time>
      </trkpt>
      <trkpt lat="46.185513" lon="-1.151452">
        <ele>17.4</ele>
        <time>2020-08-12T20:08:26Z</time>
      </trkpt>
      <trkpt lat="46.185941" lon="-1.151065">
        <ele>19.2</ele>
        <time>2020-08-12T20:08:33Z</time>
      </trkpt>
      <trkpt lat="46.189609" lon="-1.14762">
        <ele>17.4</ele>
        <time>2020-08-12T20:09:31Z</time>
      </trkpt>
      <trkpt lat="46.189792" lon="-1.147439">
        <ele>15.8</ele>
        <time>2020-08-12T20:09:34Z</time>
      </trkpt>
      <trkpt lat="46.190051" lon="-1.147128">
        <ele>15.2</ele>
        <time>2020-08-12T20:09:38Z</time>
      </trkpt>
      <trkpt lat="46.19019" lon="-1.146919">
        <ele>15.2</ele>
        <time>2020-08-12T20:09:41Z</time>
      </trkpt>
      <trkpt lat="46.190189" lon="-1.146791">
        <ele>15.2</ele>
        <time>2020-08-12T20:09:41Z</time>
      </trkpt>
      <trkpt lat="46.190209" lon="-1.146666">
        <ele>14.6</ele>
        <time>2020-08-12T20:09:42Z</time>
      </trkpt>
      <trkpt lat="46.19025" lon="-1.146548">
        <ele>14.6</ele>
        <time>2020-08-12T20:09:42Z</time>
      </trkpt>
      <trkpt lat="46.19031" lon="-1.146448">
        <ele>14.6</ele>
        <time>2020-08-12T20:09:43Z</time>
      </trkpt>
      <trkpt lat="46.190385" lon="-1.146372">
        <ele>14.6</ele>
        <time>2020-08-12T20:09:44Z</time>
      </trkpt>
      <trkpt lat="46.190534" lon="-1.146309">
        <ele>14.6</ele>
        <time>2020-08-12T20:09:45Z</time>
      </trkpt>
      <trkpt lat="46.190692" lon="-1.146122">
        <ele>14.6</ele>
        <time>2020-08-12T20:09:46Z</time>
      </trkpt>
      <trkpt lat="46.19076" lon="-1.146003">
        <ele>14.6</ele>
        <time>2020-08-12T20:09:47Z</time>
      </trkpt>
      <trkpt lat="46.191017" lon="-1.145388">
        <ele>13.6</ele>
        <time>2020-08-12T20:09:50Z</time>
      </trkpt>
      <trkpt lat="46.191788" lon="-1.143178">
        <ele>17.2</ele>
        <time>2020-08-12T20:10:01Z</time>
      </trkpt>
      <trkpt lat="46.191926" lon="-1.142848">
        <ele>17.2</ele>
        <time>2020-08-12T20:10:02Z</time>
      </trkpt>
      <trkpt lat="46.192071" lon="-1.142568">
        <ele>17.2</ele>
        <time>2020-08-12T20:10:04Z</time>
      </trkpt>
      <trkpt lat="46.192237" lon="-1.142302">
        <ele>17.6</ele>
        <time>2020-08-12T20:10:06Z</time>
      </trkpt>
      <trkpt lat="46.192421" lon="-1.142062">
        <ele>17.6</ele>
        <time>2020-08-12T20:10:07Z</time>
      </trkpt>
      <trkpt lat="46.192638" lon="-1.141831">
        <ele>18.6</ele>
        <time>2020-08-12T20:10:09Z</time>
      </trkpt>
      <trkpt lat="46.192862" lon="-1.141631">
        <ele>19.0</ele>
        <time>2020-08-12T20:10:11Z</time>
      </trkpt>
      <trkpt lat="46.193165" lon="-1.141425">
        <ele>19.0</ele>
        <time>2020-08-12T20:10:13Z</time>
      </trkpt>
      <trkpt lat="46.193694" lon="-1.1412">
        <ele>19.4</ele>
        <time>2020-08-12T20:10:16Z</time>
      </trkpt>
      <trkpt lat="46.196929" lon="-1.140046">
        <ele>20.6</ele>
        <time>2020-08-12T20:10:38Z</time>
      </trkpt>
      <trkpt lat="46.197452" lon="-1.139843">
        <ele>22.4</ele>
        <time>2020-08-12T20:10:41Z</time>
      </trkpt>
      <trkpt lat="46.198192" lon="-1.139602">
        <ele>23.0</ele>
        <time>2020-08-12T20:10:46Z</time>
      </trkpt>
      <trkpt lat="46.202207" lon="-1.138435">
        <ele>25.2</ele>
        <time>2020-08-12T20:11:12Z</time>
      </trkpt>
      <trkpt lat="46.20519" lon="-1.137603">
        <ele>16.4</ele>
        <time>2020-08-12T20:11:31Z</time>
      </trkpt>
      <trkpt lat="46.207044" lon="-1.137053">
        <ele>14.4</ele>
        <time>2020-08-12T20:11:44Z</time>
      </trkpt>
      <trkpt lat="46.20743" lon="-1.1369">
        <ele>14.4</ele>
        <time>2020-08-12T20:11:46Z</time>
      </trkpt>
      <trkpt lat="46.208197" lon="-1.136672">
        <ele>15.0</ele>
        <time>2020-08-12T20:11:51Z</time>
      </trkpt>
      <trkpt lat="46.208824" lon="-1.136459">
        <ele>16.4</ele>
        <time>2020-08-12T20:11:55Z</time>
      </trkpt>
      <trkpt lat="46.209474" lon="-1.136189">
        <ele>17.2</ele>
        <time>2020-08-12T20:12:00Z</time>
      </trkpt>
      <trkpt lat="46.209925" lon="-1.13594">
        <ele>17.2</ele>
        <time>2020-08-12T20:12:03Z</time>
      </trkpt>
      <trkpt lat="46.210338" lon="-1.135642">
        <ele>17.6</ele>
        <time>2020-08-12T20:12:06Z</time>
      </trkpt>
      <trkpt lat="46.210436" lon="-1.135534">
        <ele>17.6</ele>
        <time>2020-08-12T20:12:06Z</time>
      </trkpt>
      <trkpt lat="46.210471" lon="-1.135461">
        <ele>17.6</ele>
        <time>2020-08-12T20:12:07Z</time>
      </trkpt>
      <trkpt lat="46.210471" lon="-1.135364">
        <ele>17.6</ele>
        <time>2020-08-12T20:12:07Z</time>
      </trkpt>
      <trkpt lat="46.210522" lon="-1.135185">
        <ele>17.6</ele>
        <time>2020-08-12T20:12:08Z</time>
      </trkpt>
      <trkpt lat="46.210628" lon="-1.135067">
        <ele>17.6</ele>
        <time>2020-08-12T20:12:09Z</time>
      </trkpt>
      <trkpt lat="46.210754" lon="-1.135039">
        <ele>17.6</ele>
        <time>2020-08-12T20:12:10Z</time>
      </trkpt>
      <trkpt lat="46.210816" lon="-1.135059">
        <ele>17.6</ele>
        <time>2020-08-12T20:12:10Z</time>
      </trkpt>
      <trkpt lat="46.210911" lon="-1.135144">
        <ele>19.2</ele>
        <time>2020-08-12T20:12:11Z</time>
      </trkpt>
      <trkpt lat="46.211055" lon="-1.135104">
        <ele>19.2</ele>
        <time>2020-08-12T20:12:12Z</time>
      </trkpt>
      <trkpt lat="46.211406" lon="-1.134823">
        <ele>19.8</ele>
        <time>2020-08-12T20:12:14Z</time>
      </trkpt>
      <trkpt lat="46.211674" lon="-1.134652">
        <ele>21.0</ele>
        <time>2020-08-12T20:12:16Z</time>
      </trkpt>
      <trkpt lat="46.212114" lon="-1.134458">
        <ele>21.0</ele>
        <time>2020-08-12T20:12:19Z</time>
      </trkpt>
      <trkpt lat="46.212408" lon="-1.13438">
        <ele>21.0</ele>
        <time>2020-08-12T20:12:21Z</time>
      </trkpt>
      <trkpt lat="46.212837" lon="-1.134346">
        <ele>20.4</ele>
        <time>2020-08-12T20:12:24Z</time>
      </trkpt>
      <trkpt lat="46.213094" lon="-1.13438">
        <ele>20.4</ele>
        <time>2020-08-12T20:12:25Z</time>
      </trkpt>
      <trkpt lat="46.215173" lon="-1.134816">
        <ele>14.8</ele>
        <time>2020-08-12T20:12:38Z</time>
      </trkpt>
      <trkpt lat="46.215456" lon="-1.134859">
        <ele>14.8</ele>
        <time>2020-08-12T20:12:40Z</time>
      </trkpt>
      <trkpt lat="46.21578" lon="-1.134848">
        <ele>14.8</ele>
        <time>2020-08-12T20:12:42Z</time>
      </trkpt>
      <trkpt lat="46.216109" lon="-1.134801">
        <ele>14.6</ele>
        <time>2020-08-12T20:12:44Z</time>
      </trkpt>
      <trkpt lat="46.216458" lon="-1.134725">
        <ele>14.6</ele>
        <time>2020-08-12T20:12:46Z</time>
      </trkpt>
      <trkpt lat="46.216657" lon="-1.134627">
        <ele>14.6</ele>
        <time>2020-08-12T20:12:48Z</time>
      </trkpt>
      <trkpt lat="46.217151" lon="-1.134335">
        <ele>14.8</ele>
        <time>2020-08-12T20:12:51Z</time>
      </trkpt>
      <trkpt lat="46.217708" lon="-1.133967">
        <ele>15.4</ele>
        <time>2020-08-12T20:12:55Z</time>
      </trkpt>
      <trkpt lat="46.218153" lon="-1.133583">
        <ele>15.4</ele>
        <time>2020-08-12T20:12:58Z</time>
      </trkpt>
      <trkpt lat="46.218369" lon="-1.133353">
        <ele>15.4</ele>
        <time>2020-08-12T20:13:00Z</time>
      </trkpt>
      <trkpt lat="46.218572" lon="-1.133103">
        <ele>15.4</ele>
        <time>2020-08-12T20:13:02Z</time>
      </trkpt>
      <trkpt lat="46.218782" lon="-1.132807">
        <ele>15.4</ele>
        <time>2020-08-12T20:13:03Z</time>
      </trkpt>
      <trkpt lat="46.221678" lon="-1.128343">
        <ele>21.0</ele>
        <time>2020-08-12T20:13:30Z</time>
      </trkpt>
      <trkpt lat="46.221924" lon="-1.127974">
        <ele>21.8</ele>
        <time>2020-08-12T20:13:32Z</time>
      </trkpt>
      <trkpt lat="46.222313" lon="-1.127438">
        <ele>22.4</ele>
        <time>2020-08-12T20:13:36Z</time>
      </trkpt>
      <trkpt lat="46.222725" lon="-1.126945">
        <ele>22.4</ele>
        <time>2020-08-12T20:13:39Z</time>
      </trkpt>
      <trkpt lat="46.223017" lon="-1.126635">
        <ele>21.6</ele>
        <time>2020-08-12T20:13:41Z</time>
      </trkpt>
      <trkpt lat="46.223461" lon="-1.126209">
        <ele>20.2</ele>
        <time>2020-08-12T20:13:45Z</time>
      </trkpt>
      <trkpt lat="46.223768" lon="-1.125951">
        <ele>20.2</ele>
        <time>2020-08-12T20:13:47Z</time>
      </trkpt>
      <trkpt lat="46.224225" lon="-1.125614">
        <ele>19.0</ele>
        <time>2020-08-12T20:13:50Z</time>
      </trkpt>
      <trkpt lat="46.224716" lon="-1.125307">
        <ele>19.0</ele>
        <time>2020-08-12T20:13:54Z</time>
      </trkpt>
      <trkpt lat="46.225392" lon="-1.12497">
        <ele>18.8</ele>
        <time>2020-08-12T20:13:58Z</time>
      </trkpt>
      <trkpt lat="46.225903" lon="-1.124774">
        <ele>18.6</ele>
        <time>2020-08-12T20:14:01Z</time>
      </trkpt>
      <trkpt lat="46.226253" lon="-1.124672">
        <ele>18.6</ele>
        <time>2020-08-12T20:14:04Z</time>
      </trkpt>
      <trkpt lat="46.226781" lon="-1.124558">
        <ele>18.4</ele>
        <time>2020-08-12T20:14:07Z</time>
      </trkpt>
      <trkpt lat="46.231143" lon="-1.123961">
        <ele>22.4</ele>
        <time>2020-08-12T20:14:34Z</time>
      </trkpt>
      <trkpt lat="46.231775" lon="-1.123788">
        <ele>21.8</ele>
        <time>2020-08-12T20:14:39Z</time>
      </trkpt>
      <trkpt lat="46.231893" lon="-1.123688">
        <ele>21.8</ele>
        <time>2020-08-12T20:14:39Z</time>
      </trkpt>
      <trkpt lat="46.231934" lon="-1.123589">
        <ele>21.8</ele>
        <time>2020-08-12T20:14:40Z</time>
      </trkpt>
      <trkpt lat="46.231992" lon="-1.123512">
        <ele>21.8</ele>
        <time>2020-08-12T20:14:41Z</time>
      </trkpt>
      <trkpt lat="46.232103" lon="-1.123453">
        <ele>21.8</ele>
        <time>2020-08-12T20:14:41Z</time>
      </trkpt>
      <trkpt lat="46.232225" lon="-1.123472">
        <ele>21.8</ele>
        <time>2020-08-12T20:14:42Z</time>
      </trkpt>
      <trkpt lat="46.23233" lon="-1.123574">
        <ele>21.8</ele>
        <time>2020-08-12T20:14:43Z</time>
      </trkpt>
      <trkpt lat="46.232383" lon="-1.123567">
        <ele>21.8</ele>
        <time>2020-08-12T20:14:43Z</time>
      </trkpt>
      <trkpt lat="46.232881" lon="-1.123416">
        <ele>21.8</ele>
        <time>2020-08-12T20:14:47Z</time>
      </trkpt>
      <trkpt lat="46.233079" lon="-1.123384">
        <ele>21.8</ele>
        <time>2020-08-12T20:14:48Z</time>
      </trkpt>
      <trkpt lat="46.23361" lon="-1.123237">
        <ele>22.6</ele>
        <time>2020-08-12T20:14:52Z</time>
      </trkpt>
      <trkpt lat="46.234068" lon="-1.12307">
        <ele>22.6</ele>
        <time>2020-08-12T20:14:55Z</time>
      </trkpt>
      <trkpt lat="46.234293" lon="-1.122963">
        <ele>23.4</ele>
        <time>2020-08-12T20:14:57Z</time>
      </trkpt>
      <trkpt lat="46.234762" lon="-1.12266">
        <ele>23.4</ele>
        <time>2020-08-12T20:15:00Z</time>
      </trkpt>
      <trkpt lat="46.235083" lon="-1.122376">
        <ele>24.6</ele>
        <time>2020-08-12T20:15:03Z</time>
      </trkpt>
      <trkpt lat="46.235379" lon="-1.122057">
        <ele>24.6</ele>
        <time>2020-08-12T20:15:05Z</time>
      </trkpt>
      <trkpt lat="46.235737" lon="-1.121575">
        <ele>24.6</ele>
        <time>2020-08-12T20:15:09Z</time>
      </trkpt>
      <trkpt lat="46.235943" lon="-1.121235">
        <ele>24.8</ele>
        <time>2020-08-12T20:15:11Z</time>
      </trkpt>
      <trkpt lat="46.236207" lon="-1.120682">
        <ele>24.4</ele>
        <time>2020-08-12T20:15:14Z</time>
      </trkpt>
      <trkpt lat="46.236405" lon="-1.12015">
        <ele>24.4</ele>
        <time>2020-08-12T20:15:17Z</time>
      </trkpt>
      <trkpt lat="46.236581" lon="-1.119583">
        <ele>23.6</ele>
        <time>2020-08-12T20:15:20Z</time>
      </trkpt>
      <trkpt lat="46.238917" lon="-1.111312">
        <ele>10.8</ele>
        <time>2020-08-12T20:16:02Z</time>
      </trkpt>
      <trkpt lat="46.239164" lon="-1.110319">
        <ele>11.2</ele>
        <time>2020-08-12T20:16:07Z</time>
      </trkpt>
      <trkpt lat="46.239273" lon="-1.109807">
        <ele>10.2</ele>
        <time>2020-08-12T20:16:10Z</time>
      </trkpt>
      <trkpt lat="46.239411" lon="-1.109028">
        <ele>10.0</ele>
        <time>2020-08-12T20:16:13Z</time>
      </trkpt>
      <trkpt lat="46.239552" lon="-1.108093">
        <ele>9.8</ele>
        <time>2020-08-12T20:16:18Z</time>
      </trkpt>
      <trkpt lat="46.240687" lon="-1.099247">
        <ele>5.4</ele>
        <time>2020-08-12T20:17:00Z</time>
      </trkpt>
      <trkpt lat="46.240941" lon="-1.097157">
        <ele>3.4</ele>
        <time>2020-08-12T20:17:10Z</time>
      </trkpt>
      <trkpt lat="46.241077" lon="-1.095766">
        <ele>2.8</ele>
        <time>2020-08-12T20:17:17Z</time>
      </trkpt>
      <trkpt lat="46.242234" lon="-1.08269">
        <ele>5.0</ele>
        <time>2020-08-12T20:18:19Z</time>
      </trkpt>
      <trkpt lat="46.242353" lon="-1.081621">
        <ele>5.8</ele>
        <time>2020-08-12T20:18:24Z</time>
      </trkpt>
      <trkpt lat="46.242558" lon="-1.080275">
        <ele>3.2</ele>
        <time>2020-08-12T20:18:31Z</time>
      </trkpt>
      <trkpt lat="46.242579" lon="-1.079979">
        <ele>3.6</ele>
        <time>2020-08-12T20:18:32Z</time>
      </trkpt>
      <trkpt lat="46.242581" lon="-1.079719">
        <ele>3.6</ele>
        <time>2020-08-12T20:18:34Z</time>
      </trkpt>
      <trkpt lat="46.242569" lon="-1.079638">
        <ele>3.6</ele>
        <time>2020-08-12T20:18:34Z</time>
      </trkpt>
      <trkpt lat="46.242503" lon="-1.079565">
        <ele>3.6</ele>
        <time>2020-08-12T20:18:35Z</time>
      </trkpt>
      <trkpt lat="46.242438" lon="-1.079426">
        <ele>6.4</ele>
        <time>2020-08-12T20:18:35Z</time>
      </trkpt>
      <trkpt lat="46.242414" lon="-1.079247">
        <ele>6.4</ele>
        <time>2020-08-12T20:18:36Z</time>
      </trkpt>
      <trkpt lat="46.242442" lon="-1.079069">
        <ele>7.2</ele>
        <time>2020-08-12T20:18:37Z</time>
      </trkpt>
      <trkpt lat="46.242474" lon="-1.07899">
        <ele>7.2</ele>
        <time>2020-08-12T20:18:37Z</time>
      </trkpt>
      <trkpt lat="46.242563" lon="-1.078873">
        <ele>4.4</ele>
        <time>2020-08-12T20:18:38Z</time>
      </trkpt>
      <trkpt lat="46.242664" lon="-1.078817">
        <ele>4.4</ele>
        <time>2020-08-12T20:18:39Z</time>
      </trkpt>
      <trkpt lat="46.242733" lon="-1.07881">
        <ele>4.4</ele>
        <time>2020-08-12T20:18:39Z</time>
      </trkpt>
      <trkpt lat="46.24277" lon="-1.07876">
        <ele>4.4</ele>
        <time>2020-08-12T20:18:40Z</time>
      </trkpt>
      <trkpt lat="46.242863" lon="-1.07858">
        <ele>4.4</ele>
        <time>2020-08-12T20:18:41Z</time>
      </trkpt>
      <trkpt lat="46.242968" lon="-1.078285">
        <ele>5.4</ele>
        <time>2020-08-12T20:18:42Z</time>
      </trkpt>
      <trkpt lat="46.243854" lon="-1.075025">
        <ele>6.0</ele>
        <time>2020-08-12T20:18:58Z</time>
      </trkpt>
      <trkpt lat="46.244175" lon="-1.074127">
        <ele>2.0</ele>
        <time>2020-08-12T20:19:03Z</time>
      </trkpt>
      <trkpt lat="46.244348" lon="-1.073697">
        <ele>2.0</ele>
        <time>2020-08-12T20:19:05Z</time>
      </trkpt>
      <trkpt lat="46.244753" lon="-1.072854">
        <ele>2.4</ele>
        <time>2020-08-12T20:19:10Z</time>
      </trkpt>
      <trkpt lat="46.24497" lon="-1.07245">
        <ele>3.8</ele>
        <time>2020-08-12T20:19:12Z</time>
      </trkpt>
      <trkpt lat="46.245449" lon="-1.07168">
        <ele>1.0</ele>
        <time>2020-08-12T20:19:17Z</time>
      </trkpt>
      <trkpt lat="46.245981" lon="-1.070974">
        <ele>0.8</ele>
        <time>2020-08-12T20:19:22Z</time>
      </trkpt>
      <trkpt lat="46.246553" lon="-1.070339">
        <ele>0.6</ele>
        <time>2020-08-12T20:19:26Z</time>
      </trkpt>
      <trkpt lat="46.247164" lon="-1.069777">
        <ele>0.6</ele>
        <time>2020-08-12T20:19:31Z</time>
      </trkpt>
      <trkpt lat="46.247633" lon="-1.069415">
        <ele>1.2</ele>
        <time>2020-08-12T20:19:35Z</time>
      </trkpt>
      <trkpt lat="46.248119" lon="-1.069095">
        <ele>1.2</ele>
        <time>2020-08-12T20:19:38Z</time>
      </trkpt>
      <trkpt lat="46.251482" lon="-1.067314">
        <ele>0.2</ele>
        <time>2020-08-12T20:20:02Z</time>
      </trkpt>
      <trkpt lat="46.252154" lon="-1.066895">
        <ele>1.0</ele>
        <time>2020-08-12T20:20:06Z</time>
      </trkpt>
      <trkpt lat="46.25246" lon="-1.066671">
        <ele>1.0</ele>
        <time>2020-08-12T20:20:09Z</time>
      </trkpt>
      <trkpt lat="46.252482" lon="-1.066579">
        <ele>0.8</ele>
        <time>2020-08-12T20:20:09Z</time>
      </trkpt>
      <trkpt lat="46.252524" lon="-1.066501">
        <ele>1.4</ele>
        <time>2020-08-12T20:20:10Z</time>
      </trkpt>
      <trkpt lat="46.252613" lon="-1.066427">
        <ele>1.4</ele>
        <time>2020-08-12T20:20:11Z</time>
      </trkpt>
      <trkpt lat="46.252664" lon="-1.066415">
        <ele>1.4</ele>
        <time>2020-08-12T20:20:11Z</time>
      </trkpt>
      <trkpt lat="46.252713" lon="-1.06642">
        <ele>1.4</ele>
        <time>2020-08-12T20:20:11Z</time>
      </trkpt>
      <trkpt lat="46.252803" lon="-1.066478">
        <ele>1.4</ele>
        <time>2020-08-12T20:20:12Z</time>
      </trkpt>
      <trkpt lat="46.252839" lon="-1.066527">
        <ele>1.4</ele>
        <time>2020-08-12T20:20:12Z</time>
      </trkpt>
      <trkpt lat="46.252889" lon="-1.066528">
        <ele>1.4</ele>
        <time>2020-08-12T20:20:13Z</time>
      </trkpt>
      <trkpt lat="46.254478" lon="-1.066297">
        <ele>-0.2</ele>
        <time>2020-08-12T20:20:25Z</time>
      </trkpt>
      <trkpt lat="46.254788" lon="-1.066279">
        <ele>-0.2</ele>
        <time>2020-08-12T20:20:27Z</time>
      </trkpt>
      <trkpt lat="46.255541" lon="-1.066319">
        <ele>0.2</ele>
        <time>2020-08-12T20:20:33Z</time>
      </trkpt>
      <trkpt lat="46.262905" lon="-1.06715">
        <ele>1.6</ele>
        <time>2020-08-12T20:21:27Z</time>
      </trkpt>
      <trkpt lat="46.267673" lon="-1.067486">
        <ele>0.6</ele>
        <time>2020-08-12T20:22:03Z</time>
      </trkpt>
      <trkpt lat="46.270594" lon="-1.067717">
        <ele>1.8</ele>
        <time>2020-08-12T20:22:25Z</time>
      </trkpt>
      <trkpt lat="46.273083" lon="-1.067878">
        <ele>1.2</ele>
        <time>2020-08-12T20:22:43Z</time>
      </trkpt>
      <trkpt lat="46.274148" lon="-1.067918">
        <ele>0.8</ele>
        <time>2020-08-12T20:22:51Z</time>
      </trkpt>
      <trkpt lat="46.27485" lon="-1.068008">
        <ele>0.8</ele>
        <time>2020-08-12T20:22:56Z</time>
      </trkpt>
      <trkpt lat="46.275186" lon="-1.068102">
        <ele>1.0</ele>
        <time>2020-08-12T20:22:59Z</time>
      </trkpt>
      <trkpt lat="46.27559" lon="-1.068302">
        <ele>1.0</ele>
        <time>2020-08-12T20:23:02Z</time>
      </trkpt>
      <trkpt lat="46.275795" lon="-1.068448">
        <ele>0.6</ele>
        <time>2020-08-12T20:23:04Z</time>
      </trkpt>
      <trkpt lat="46.276103" lon="-1.068721">
        <ele>1.2</ele>
        <time>2020-08-12T20:23:06Z</time>
      </trkpt>
      <trkpt lat="46.276306" lon="-1.068945">
        <ele>1.2</ele>
        <time>2020-08-12T20:23:08Z</time>
      </trkpt>
      <trkpt lat="46.279427" lon="-1.07263">
        <ele>1.6</ele>
        <time>2020-08-12T20:23:38Z</time>
      </trkpt>
      <trkpt lat="46.285698" lon="-1.080354">
        <ele>0.6</ele>
        <time>2020-08-12T20:24:39Z</time>
      </trkpt>
      <trkpt lat="46.285941" lon="-1.080638">
        <ele>0.4</ele>
        <time>2020-08-12T20:24:42Z</time>
      </trkpt>
      <trkpt lat="46.286134" lon="-1.080821">
        <ele>0.4</ele>
        <time>2020-08-12T20:24:43Z</time>
      </trkpt>
      <trkpt lat="46.286322" lon="-1.080962">
        <ele>0.6</ele>
        <time>2020-08-12T20:24:45Z</time>
      </trkpt>
      <trkpt lat="46.292926" lon="-1.085014">
        <ele>1.4</ele>
        <time>2020-08-12T20:25:38Z</time>
      </trkpt>
      <trkpt lat="46.293897" lon="-1.085591">
        <ele>1.6</ele>
        <time>2020-08-12T20:25:46Z</time>
      </trkpt>
      <trkpt lat="46.294293" lon="-1.085771">
        <ele>1.8</ele>
        <time>2020-08-12T20:25:49Z</time>
      </trkpt>
      <trkpt lat="46.304446" lon="-1.087822">
        <ele>4.8</ele>
        <time>2020-08-12T20:27:05Z</time>
      </trkpt>
      <trkpt lat="46.304688" lon="-1.087846">
        <ele>4.8</ele>
        <time>2020-08-12T20:27:07Z</time>
      </trkpt>
      <trkpt lat="46.304895" lon="-1.087841">
        <ele>4.8</ele>
        <time>2020-08-12T20:27:09Z</time>
      </trkpt>
      <trkpt lat="46.305065" lon="-1.087788">
        <ele>5.6</ele>
        <time>2020-08-12T20:27:10Z</time>
      </trkpt>
      <trkpt lat="46.305159" lon="-1.087732">
        <ele>5.6</ele>
        <time>2020-08-12T20:27:11Z</time>
      </trkpt>
      <trkpt lat="46.305196" lon="-1.087656">
        <ele>5.6</ele>
        <time>2020-08-12T20:27:11Z</time>
      </trkpt>
      <trkpt lat="46.305283" lon="-1.087598">
        <ele>5.6</ele>
        <time>2020-08-12T20:27:12Z</time>
      </trkpt>
      <trkpt lat="46.305346" lon="-1.087607">
        <ele>5.6</ele>
        <time>2020-08-12T20:27:12Z</time>
      </trkpt>
      <trkpt lat="46.305422" lon="-1.087684">
        <ele>5.6</ele>
        <time>2020-08-12T20:27:13Z</time>
      </trkpt>
      <trkpt lat="46.30571" lon="-1.087697">
        <ele>5.6</ele>
        <time>2020-08-12T20:27:15Z</time>
      </trkpt>
      <trkpt lat="46.305881" lon="-1.087657">
        <ele>4.4</ele>
        <time>2020-08-12T20:27:16Z</time>
      </trkpt>
      <trkpt lat="46.306187" lon="-1.08753">
        <ele>4.4</ele>
        <time>2020-08-12T20:27:18Z</time>
      </trkpt>
      <trkpt lat="46.30791" lon="-1.086456">
        <ele>1.4</ele>
        <time>2020-08-12T20:27:31Z</time>
      </trkpt>
      <trkpt lat="46.308504" lon="-1.086038">
        <ele>1.4</ele>
        <time>2020-08-12T20:27:36Z</time>
      </trkpt>
      <trkpt lat="46.309888" lon="-1.08481">
        <ele>1.0</ele>
        <time>2020-08-12T20:27:47Z</time>
      </trkpt>
      <trkpt lat="46.310529" lon="-1.084298">
        <ele>1.4</ele>
        <time>2020-08-12T20:27:52Z</time>
      </trkpt>
      <trkpt lat="46.310948" lon="-1.084041">
        <ele>1.8</ele>
        <time>2020-08-12T20:27:56Z</time>
      </trkpt>
      <trkpt lat="46.312594" lon="-1.08329">
        <ele>2.8</ele>
        <time>2020-08-12T20:28:08Z</time>
      </trkpt>
      <trkpt lat="46.313008" lon="-1.083145">
        <ele>2.8</ele>
        <time>2020-08-12T20:28:11Z</time>
      </trkpt>
      <trkpt lat="46.313556" lon="-1.083053">
        <ele>2.0</ele>
        <time>2020-08-12T20:28:14Z</time>
      </trkpt>
      <trkpt lat="46.323026" lon="-1.082353">
        <ele>1.4</ele>
        <time>2020-08-12T20:29:20Z</time>
      </trkpt>
      <trkpt lat="46.323599" lon="-1.082229">
        <ele>1.4</ele>
        <time>2020-08-12T20:29:25Z</time>
      </trkpt>
      <trkpt lat="46.324098" lon="-1.082042">
        <ele>1.4</ele>
        <time>2020-08-12T20:29:28Z</time>
      </trkpt>
      <trkpt lat="46.324485" lon="-1.081836">
        <ele>1.8</ele>
        <time>2020-08-12T20:29:31Z</time>
      </trkpt>
      <trkpt lat="46.32542" lon="-1.081258">
        <ele>2.2</ele>
        <time>2020-08-12T20:29:38Z</time>
      </trkpt>
      <trkpt lat="46.325676" lon="-1.081127">
        <ele>2.2</ele>
        <time>2020-08-12T20:29:40Z</time>
      </trkpt>
      <trkpt lat="46.325985" lon="-1.081006">
        <ele>2.0</ele>
        <time>2020-08-12T20:29:42Z</time>
      </trkpt>
      <trkpt lat="46.326269" lon="-1.080924">
        <ele>2.0</ele>
        <time>2020-08-12T20:29:44Z</time>
      </trkpt>
      <trkpt lat="46.326823" lon="-1.080834">
        <ele>1.4</ele>
        <time>2020-08-12T20:29:48Z</time>
      </trkpt>
      <trkpt lat="46.327381" lon="-1.080841">
        <ele>1.4</ele>
        <time>2020-08-12T20:29:52Z</time>
      </trkpt>
      <trkpt lat="46.327714" lon="-1.080888">
        <ele>0.4</ele>
        <time>2020-08-12T20:29:54Z</time>
      </trkpt>
      <trkpt lat="46.332985" lon="-1.081898">
        <ele>1.6</ele>
        <time>2020-08-12T20:30:31Z</time>
      </trkpt>
      <trkpt lat="46.334424" lon="-1.082081">
        <ele>0.8</ele>
        <time>2020-08-12T20:30:41Z</time>
      </trkpt>
      <trkpt lat="46.334625" lon="-1.082138">
        <ele>0.8</ele>
        <time>2020-08-12T20:30:43Z</time>
      </trkpt>
      <trkpt lat="46.342248" lon="-1.083649">
        <ele>1.2</ele>
        <time>2020-08-12T20:31:36Z</time>
      </trkpt>
      <trkpt lat="46.343207" lon="-1.083808">
        <ele>1.4</ele>
        <time>2020-08-12T20:31:43Z</time>
      </trkpt>
      <trkpt lat="46.343877" lon="-1.083967">
        <ele>1.0</ele>
        <time>2020-08-12T20:31:48Z</time>
      </trkpt>
      <trkpt lat="46.345048" lon="-1.084208">
        <ele>0.6</ele>
        <time>2020-08-12T20:31:56Z</time>
      </trkpt>
      <trkpt lat="46.354254" lon="-1.086045">
        <ele>1.6</ele>
        <time>2020-08-12T20:33:01Z</time>
      </trkpt>
      <trkpt lat="46.354701" lon="-1.086108">
        <ele>1.6</ele>
        <time>2020-08-12T20:33:04Z</time>
      </trkpt>
      <trkpt lat="46.355623" lon="-1.086314">
        <ele>1.6</ele>
        <time>2020-08-12T20:33:11Z</time>
      </trkpt>
      <trkpt lat="46.357442" lon="-1.086676">
        <ele>0.4</ele>
        <time>2020-08-12T20:33:23Z</time>
      </trkpt>
      <trkpt lat="46.366596" lon="-1.088466">
        <ele>0.8</ele>
        <time>2020-08-12T20:34:28Z</time>
      </trkpt>
      <trkpt lat="46.369068" lon="-1.088974">
        <ele>0.2</ele>
        <time>2020-08-12T20:34:45Z</time>
      </trkpt>
      <trkpt lat="46.370851" lon="-1.089369">
        <ele>1.0</ele>
        <time>2020-08-12T20:34:58Z</time>
      </trkpt>
      <trkpt lat="46.371281" lon="-1.089531">
        <ele>1.0</ele>
        <time>2020-08-12T20:35:01Z</time>
      </trkpt>
      <trkpt lat="46.371598" lon="-1.089722">
        <ele>1.0</ele>
        <time>2020-08-12T20:35:03Z</time>
      </trkpt>
      <trkpt lat="46.371834" lon="-1.089944">
        <ele>1.0</ele>
        <time>2020-08-12T20:35:05Z</time>
      </trkpt>
      <trkpt lat="46.373419" lon="-1.091594">
        <ele>1.4</ele>
        <time>2020-08-12T20:35:19Z</time>
      </trkpt>
      <trkpt lat="46.373575" lon="-1.091725">
        <ele>1.4</ele>
        <time>2020-08-12T20:35:20Z</time>
      </trkpt>
      <trkpt lat="46.373793" lon="-1.091868">
        <ele>1.4</ele>
        <time>2020-08-12T20:35:22Z</time>
      </trkpt>
      <trkpt lat="46.374185" lon="-1.092029">
        <ele>2.0</ele>
        <time>2020-08-12T20:35:24Z</time>
      </trkpt>
      <trkpt lat="46.374406" lon="-1.092027">
        <ele>2.0</ele>
        <time>2020-08-12T20:35:26Z</time>
      </trkpt>
      <trkpt lat="46.374898" lon="-1.091969">
        <ele>2.0</ele>
        <time>2020-08-12T20:35:29Z</time>
      </trkpt>
      <trkpt lat="46.374968" lon="-1.091858">
        <ele>2.0</ele>
        <time>2020-08-12T20:35:30Z</time>
      </trkpt>
      <trkpt lat="46.375015" lon="-1.091824">
        <ele>2.6</ele>
        <time>2020-08-12T20:35:31Z</time>
      </trkpt>
      <trkpt lat="46.37508" lon="-1.091804">
        <ele>2.6</ele>
        <time>2020-08-12T20:35:31Z</time>
      </trkpt>
      <trkpt lat="46.375146" lon="-1.091814">
        <ele>2.6</ele>
        <time>2020-08-12T20:35:32Z</time>
      </trkpt>
      <trkpt lat="46.375207" lon="-1.091852">
        <ele>2.6</ele>
        <time>2020-08-12T20:35:33Z</time>
      </trkpt>
      <trkpt lat="46.375257" lon="-1.091914">
        <ele>2.6</ele>
        <time>2020-08-12T20:35:33Z</time>
      </trkpt>
      <trkpt lat="46.375292" lon="-1.091994">
        <ele>2.6</ele>
        <time>2020-08-12T20:35:34Z</time>
      </trkpt>
      <trkpt lat="46.37531" lon="-1.092097">
        <ele>2.6</ele>
        <time>2020-08-12T20:35:34Z</time>
      </trkpt>
      <trkpt lat="46.375304" lon="-1.092202">
        <ele>2.6</ele>
        <time>2020-08-12T20:35:35Z</time>
      </trkpt>
      <trkpt lat="46.375274" lon="-1.092299">
        <ele>2.6</ele>
        <time>2020-08-12T20:35:36Z</time>
      </trkpt>
      <trkpt lat="46.375212" lon="-1.092388">
        <ele>2.6</ele>
        <time>2020-08-12T20:35:36Z</time>
      </trkpt>
      <trkpt lat="46.375196" lon="-1.092481">
        <ele>2.6</ele>
        <time>2020-08-12T20:35:37Z</time>
      </trkpt>
      <trkpt lat="46.375186" lon="-1.092955">
        <ele>3.2</ele>
        <time>2020-08-12T20:35:40Z</time>
      </trkpt>
      <trkpt lat="46.375195" lon="-1.093066">
        <ele>3.2</ele>
        <time>2020-08-12T20:35:40Z</time>
      </trkpt>
      <trkpt lat="46.375171" lon="-1.093511">
        <ele>2.8</ele>
        <time>2020-08-12T20:35:43Z</time>
      </trkpt>
      <trkpt lat="46.375062" lon="-1.094359">
        <ele>2.8</ele>
        <time>2020-08-12T20:35:48Z</time>
      </trkpt>
      <trkpt lat="46.37505" lon="-1.094917">
        <ele>2.8</ele>
        <time>2020-08-12T20:35:52Z</time>
      </trkpt>
      <trkpt lat="46.375101" lon="-1.095472">
        <ele>2.6</ele>
        <time>2020-08-12T20:35:55Z</time>
      </trkpt>
      <trkpt lat="46.375172" lon="-1.095831">
        <ele>2.6</ele>
        <time>2020-08-12T20:35:57Z</time>
      </trkpt>
      <trkpt lat="46.375428" lon="-1.096914">
        <ele>1.4</ele>
        <time>2020-08-12T20:36:04Z</time>
      </trkpt>
      <trkpt lat="46.375589" lon="-1.097515">
        <ele>1.0</ele>
        <time>2020-08-12T20:36:08Z</time>
      </trkpt>
      <trkpt lat="46.376139" lon="-1.099244">
        <ele>1.0</ele>
        <time>2020-08-12T20:36:19Z</time>
      </trkpt>
      <trkpt lat="46.376284" lon="-1.099775">
        <ele>1.0</ele>
        <time>2020-08-12T20:36:23Z</time>
      </trkpt>
      <trkpt lat="46.376395" lon="-1.100236">
        <ele>1.2</ele>
        <time>2020-08-12T20:36:26Z</time>
      </trkpt>
      <trkpt lat="46.376567" lon="-1.101169">
        <ele>1.6</ele>
        <time>2020-08-12T20:36:31Z</time>
      </trkpt>
      <trkpt lat="46.376669" lon="-1.101928">
        <ele>1.4</ele>
        <time>2020-08-12T20:36:36Z</time>
      </trkpt>
      <trkpt lat="46.376707" lon="-1.102484">
        <ele>1.4</ele>
        <time>2020-08-12T20:36:39Z</time>
      </trkpt>
      <trkpt lat="46.37677" lon="-1.104008">
        <ele>2.0</ele>
        <time>2020-08-12T20:36:49Z</time>
      </trkpt>
      <trkpt lat="46.376798" lon="-1.105066">
        <ele>2.2</ele>
        <time>2020-08-12T20:36:55Z</time>
      </trkpt>
      <trkpt lat="46.376801" lon="-1.106439">
        <ele>1.8</ele>
        <time>2020-08-12T20:37:03Z</time>
      </trkpt>
      <trkpt lat="46.376856" lon="-1.106988">
        <ele>1.6</ele>
        <time>2020-08-12T20:37:07Z</time>
      </trkpt>
      <trkpt lat="46.376991" lon="-1.107716">
        <ele>1.4</ele>
        <time>2020-08-12T20:37:11Z</time>
      </trkpt>
      <trkpt lat="46.377154" lon="-1.108306">
        <ele>1.4</ele>
        <time>2020-08-12T20:37:15Z</time>
      </trkpt>
      <trkpt lat="46.377323" lon="-1.108752">
        <ele>1.0</ele>
        <time>2020-08-12T20:37:18Z</time>
      </trkpt>
      <trkpt lat="46.378321" lon="-1.111134">
        <ele>1.4</ele>
        <time>2020-08-12T20:37:35Z</time>
      </trkpt>
      <trkpt lat="46.378488" lon="-1.111674">
        <ele>1.2</ele>
        <time>2020-08-12T20:37:38Z</time>
      </trkpt>
      <trkpt lat="46.37859" lon="-1.112216">
        <ele>1.2</ele>
        <time>2020-08-12T20:37:41Z</time>
      </trkpt>
      <trkpt lat="46.378623" lon="-1.112497">
        <ele>1.2</ele>
        <time>2020-08-12T20:37:43Z</time>
      </trkpt>
      <trkpt lat="46.378646" lon="-1.112977">
        <ele>1.6</ele>
        <time>2020-08-12T20:37:46Z</time>
      </trkpt>
      <trkpt lat="46.378646" lon="-1.113722">
        <ele>2.4</ele>
        <time>2020-08-12T20:37:51Z</time>
      </trkpt>
      <trkpt lat="46.378666" lon="-1.114405">
        <ele>2.4</ele>
        <time>2020-08-12T20:37:55Z</time>
      </trkpt>
      <trkpt lat="46.378731" lon="-1.114937">
        <ele>2.4</ele>
        <time>2020-08-12T20:37:58Z</time>
      </trkpt>
      <trkpt lat="46.379413" lon="-1.117485">
        <ele>2.6</ele>
        <time>2020-08-12T20:38:14Z</time>
      </trkpt>
      <trkpt lat="46.379544" lon="-1.117896">
        <ele>2.4</ele>
        <time>2020-08-12T20:38:17Z</time>
      </trkpt>
      <trkpt lat="46.380158" lon="-1.119174">
        <ele>3.0</ele>
        <time>2020-08-12T20:38:26Z</time>
      </trkpt>
      <trkpt lat="46.38048" lon="-1.119978">
        <ele>3.0</ele>
        <time>2020-08-12T20:38:32Z</time>
      </trkpt>
      <trkpt lat="46.380539" lon="-1.120209">
        <ele>3.0</ele>
        <time>2020-08-12T20:38:33Z</time>
      </trkpt>
      <trkpt lat="46.380565" lon="-1.12054">
        <ele>3.0</ele>
        <time>2020-08-12T20:38:35Z</time>
      </trkpt>
      <trkpt lat="46.380512" lon="-1.120827">
        <ele>3.0</ele>
        <time>2020-08-12T20:38:37Z</time>
      </trkpt>
      <trkpt lat="46.380181" lon="-1.122028">
        <ele>4.4</ele>
        <time>2020-08-12T20:38:45Z</time>
      </trkpt>
      <trkpt lat="46.380083" lon="-1.122678">
        <ele>4.4</ele>
        <time>2020-08-12T20:38:49Z</time>
      </trkpt>
      <trkpt lat="46.380062" lon="-1.123035">
        <ele>4.4</ele>
        <time>2020-08-12T20:38:51Z</time>
      </trkpt>
      <trkpt lat="46.380078" lon="-1.123143">
        <ele>4.4</ele>
        <time>2020-08-12T20:38:52Z</time>
      </trkpt>
      <trkpt lat="46.380145" lon="-1.123448">
        <ele>4.2</ele>
        <time>2020-08-12T20:38:54Z</time>
      </trkpt>
      <trkpt lat="46.380367" lon="-1.124279">
        <ele>3.6</ele>
        <time>2020-08-12T20:38:59Z</time>
      </trkpt>
      <trkpt lat="46.380482" lon="-1.124564">
        <ele>3.6</ele>
        <time>2020-08-12T20:39:01Z</time>
      </trkpt>
      <trkpt lat="46.380893" lon="-1.125335">
        <ele>4.0</ele>
        <time>2020-08-12T20:39:07Z</time>
      </trkpt>
      <trkpt lat="46.381343" lon="-1.126384">
        <ele>4.0</ele>
        <time>2020-08-12T20:39:14Z</time>
      </trkpt>
      <trkpt lat="46.382159" lon="-1.128673">
        <ele>4.2</ele>
        <time>2020-08-12T20:39:30Z</time>
      </trkpt>
      <trkpt lat="46.382451" lon="-1.129414">
        <ele>3.0</ele>
        <time>2020-08-12T20:39:35Z</time>
      </trkpt>
      <trkpt lat="46.382565" lon="-1.12981">
        <ele>3.8</ele>
        <time>2020-08-12T20:39:37Z</time>
      </trkpt>
      <trkpt lat="46.382704" lon="-1.13042">
        <ele>3.2</ele>
        <time>2020-08-12T20:39:41Z</time>
      </trkpt>
      <trkpt lat="46.382719" lon="-1.130572">
        <ele>3.2</ele>
        <time>2020-08-12T20:39:42Z</time>
      </trkpt>
      <trkpt lat="46.382711" lon="-1.130678">
        <ele>3.2</ele>
        <time>2020-08-12T20:39:43Z</time>
      </trkpt>
      <trkpt lat="46.382669" lon="-1.131011">
        <ele>2.8</ele>
        <time>2020-08-12T20:39:45Z</time>
      </trkpt>
      <trkpt lat="46.382614" lon="-1.131206">
        <ele>2.8</ele>
        <time>2020-08-12T20:39:46Z</time>
      </trkpt>
      <trkpt lat="46.382385" lon="-1.131647">
        <ele>2.0</ele>
        <time>2020-08-12T20:39:49Z</time>
      </trkpt>
      <trkpt lat="46.382176" lon="-1.13215">
        <ele>1.8</ele>
        <time>2020-08-12T20:39:53Z</time>
      </trkpt>
      <trkpt lat="46.382016" lon="-1.132675">
        <ele>2.0</ele>
        <time>2020-08-12T20:39:56Z</time>
      </trkpt>
      <trkpt lat="46.381916" lon="-1.1331">
        <ele>2.0</ele>
        <time>2020-08-12T20:39:59Z</time>
      </trkpt>
      <trkpt lat="46.381722" lon="-1.134401">
        <ele>2.0</ele>
        <time>2020-08-12T20:40:07Z</time>
      </trkpt>
      <trkpt lat="46.38156" lon="-1.135651">
        <ele>2.0</ele>
        <time>2020-08-12T20:40:14Z</time>
      </trkpt>
      <trkpt lat="46.381537" lon="-1.136217">
        <ele>2.4</ele>
        <time>2020-08-12T20:40:18Z</time>
      </trkpt>
      <trkpt lat="46.381619" lon="-1.136661">
        <ele>2.4</ele>
        <time>2020-08-12T20:40:21Z</time>
      </trkpt>
      <trkpt lat="46.381679" lon="-1.136756">
        <ele>3.6</ele>
        <time>2020-08-12T20:40:21Z</time>
      </trkpt>
      <trkpt lat="46.381819" lon="-1.136817">
        <ele>3.6</ele>
        <time>2020-08-12T20:40:22Z</time>
      </trkpt>
      <trkpt lat="46.382332" lon="-1.136753">
        <ele>3.6</ele>
        <time>2020-08-12T20:40:24Z</time>
      </trkpt>
      <trkpt lat="46.385239" lon="-1.136508">
        <ele>2.4</ele>
        <time>2020-08-12T20:40:38Z</time>
      </trkpt>
      <trkpt lat="46.39421" lon="-1.135787">
        <ele>1.6</ele>
        <time>2020-08-12T20:41:22Z</time>
      </trkpt>
      <trkpt lat="46.399901" lon="-1.135308">
        <ele>1.0</ele>
        <time>2020-08-12T20:41:49Z</time>
      </trkpt>
      <trkpt lat="46.400147" lon="-1.135302">
        <ele>1.4</ele>
        <time>2020-08-12T20:41:50Z</time>
      </trkpt>
      <trkpt lat="46.400333" lon="-1.13534">
        <ele>1.4</ele>
        <time>2020-08-12T20:41:51Z</time>
      </trkpt>
      <trkpt lat="46.400501" lon="-1.135412">
        <ele>1.4</ele>
        <time>2020-08-12T20:41:52Z</time>
      </trkpt>
      <trkpt lat="46.400658" lon="-1.135513">
        <ele>1.4</ele>
        <time>2020-08-12T20:41:53Z</time>
      </trkpt>
      <trkpt lat="46.400818" lon="-1.135663">
        <ele>1.4</ele>
        <time>2020-08-12T20:41:54Z</time>
      </trkpt>
      <trkpt lat="46.401077" lon="-1.135968">
        <ele>1.8</ele>
        <time>2020-08-12T20:41:55Z</time>
      </trkpt>
      <trkpt lat="46.401249" lon="-1.136129">
        <ele>1.8</ele>
        <time>2020-08-12T20:41:56Z</time>
      </trkpt>
      <trkpt lat="46.401409" lon="-1.136239">
        <ele>1.8</ele>
        <time>2020-08-12T20:41:57Z</time>
      </trkpt>
      <trkpt lat="46.401594" lon="-1.136313">
        <ele>1.8</ele>
        <time>2020-08-12T20:41:58Z</time>
      </trkpt>
      <trkpt lat="46.401947" lon="-1.136359">
        <ele>2.2</ele>
        <time>2020-08-12T20:42:00Z</time>
      </trkpt>
      <trkpt lat="46.402818" lon="-1.13634">
        <ele>1.6</ele>
        <time>2020-08-12T20:42:04Z</time>
      </trkpt>
      <trkpt lat="46.403061" lon="-1.136394">
        <ele>1.6</ele>
        <time>2020-08-12T20:42:05Z</time>
      </trkpt>
      <trkpt lat="46.403215" lon="-1.136477">
        <ele>1.6</ele>
        <time>2020-08-12T20:42:06Z</time>
      </trkpt>
      <trkpt lat="46.403693" lon="-1.136946">
        <ele>0.8</ele>
        <time>2020-08-12T20:42:09Z</time>
      </trkpt>
      <trkpt lat="46.403845" lon="-1.137057">
        <ele>0.8</ele>
        <time>2020-08-12T20:42:10Z</time>
      </trkpt>
      <trkpt lat="46.403999" lon="-1.137125">
        <ele>0.8</ele>
        <time>2020-08-12T20:42:10Z</time>
      </trkpt>
      <trkpt lat="46.414741" lon="-1.140646">
        <ele>1.2</ele>
        <time>2020-08-12T20:43:03Z</time>
      </trkpt>
      <trkpt lat="46.414956" lon="-1.14074">
        <ele>1.2</ele>
        <time>2020-08-12T20:43:04Z</time>
      </trkpt>
      <trkpt lat="46.415147" lon="-1.140855">
        <ele>1.4</ele>
        <time>2020-08-12T20:43:05Z</time>
      </trkpt>
      <trkpt lat="46.41546" lon="-1.141103">
        <ele>1.4</ele>
        <time>2020-08-12T20:43:07Z</time>
      </trkpt>
      <trkpt lat="46.415761" lon="-1.141265">
        <ele>1.4</ele>
        <time>2020-08-12T20:43:09Z</time>
      </trkpt>
      <trkpt lat="46.415904" lon="-1.14131">
        <ele>0.6</ele>
        <time>2020-08-12T20:43:09Z</time>
      </trkpt>
      <trkpt lat="46.416041" lon="-1.141338">
        <ele>0.6</ele>
        <time>2020-08-12T20:43:10Z</time>
      </trkpt>
      <trkpt lat="46.420005" lon="-1.141495">
        <ele>1.6</ele>
        <time>2020-08-12T20:43:29Z</time>
      </trkpt>
      <trkpt lat="46.420818" lon="-1.141624">
        <ele>1.6</ele>
        <time>2020-08-12T20:43:33Z</time>
      </trkpt>
      <trkpt lat="46.422373" lon="-1.141995">
        <ele>1.6</ele>
        <time>2020-08-12T20:43:41Z</time>
      </trkpt>
      <trkpt lat="46.422683" lon="-1.1421">
        <ele>1.6</ele>
        <time>2020-08-12T20:43:42Z</time>
      </trkpt>
      <trkpt lat="46.42562" lon="-1.143505">
        <ele>1.4</ele>
        <time>2020-08-12T20:43:57Z</time>
      </trkpt>
      <trkpt lat="46.426353" lon="-1.143909">
        <ele>1.6</ele>
        <time>2020-08-12T20:44:01Z</time>
      </trkpt>
      <trkpt lat="46.426627" lon="-1.144035">
        <ele>1.6</ele>
        <time>2020-08-12T20:44:02Z</time>
      </trkpt>
      <trkpt lat="46.427027" lon="-1.144181">
        <ele>1.4</ele>
        <time>2020-08-12T20:44:04Z</time>
      </trkpt>
      <trkpt lat="46.429034" lon="-1.144994">
        <ele>1.2</ele>
        <time>2020-08-12T20:44:14Z</time>
      </trkpt>
      <trkpt lat="46.43106" lon="-1.145749">
        <ele>2.4</ele>
        <time>2020-08-12T20:44:24Z</time>
      </trkpt>
      <trkpt lat="46.431634" lon="-1.145898">
        <ele>1.2</ele>
        <time>2020-08-12T20:44:27Z</time>
      </trkpt>
      <trkpt lat="46.434619" lon="-1.146362">
        <ele>1.0</ele>
        <time>2020-08-12T20:44:42Z</time>
      </trkpt>
      <trkpt lat="46.435677" lon="-1.146406">
        <ele>0.4</ele>
        <time>2020-08-12T20:44:47Z</time>
      </trkpt>
      <trkpt lat="46.438412" lon="-1.146751">
        <ele>1.0</ele>
        <time>2020-08-12T20:45:00Z</time>
      </trkpt>
      <trkpt lat="46.438773" lon="-1.14675">
        <ele>1.0</ele>
        <time>2020-08-12T20:45:02Z</time>
      </trkpt>
      <trkpt lat="46.439105" lon="-1.146664">
        <ele>1.4</ele>
        <time>2020-08-12T20:45:03Z</time>
      </trkpt>
      <trkpt lat="46.439395" lon="-1.146548">
        <ele>1.6</ele>
        <time>2020-08-12T20:45:05Z</time>
      </trkpt>
      <trkpt lat="46.4396" lon="-1.146502">
        <ele>1.6</ele>
        <time>2020-08-12T20:45:06Z</time>
      </trkpt>
      <trkpt lat="46.440011" lon="-1.146494">
        <ele>1.6</ele>
        <time>2020-08-12T20:45:08Z</time>
      </trkpt>
      <trkpt lat="46.440204" lon="-1.146517">
        <ele>1.6</ele>
        <time>2020-08-12T20:45:09Z</time>
      </trkpt>
      <trkpt lat="46.440606" lon="-1.146656">
        <ele>1.6</ele>
        <time>2020-08-12T20:45:11Z</time>
      </trkpt>
      <trkpt lat="46.440877" lon="-1.146809">
        <ele>1.6</ele>
        <time>2020-08-12T20:45:12Z</time>
      </trkpt>
      <trkpt lat="46.4417" lon="-1.147343">
        <ele>2.6</ele>
        <time>2020-08-12T20:45:16Z</time>
      </trkpt>
      <trkpt lat="46.442006" lon="-1.147453">
        <ele>2.6</ele>
        <time>2020-08-12T20:45:18Z</time>
      </trkpt>
      <trkpt lat="46.442307" lon="-1.147479">
        <ele>2.6</ele>
        <time>2020-08-12T20:45:19Z</time>
      </trkpt>
      <trkpt lat="46.442881" lon="-1.147307">
        <ele>3.6</ele>
        <time>2020-08-12T20:45:22Z</time>
      </trkpt>
      <trkpt lat="46.44318" lon="-1.147248">
        <ele>3.6</ele>
        <time>2020-08-12T20:45:24Z</time>
      </trkpt>
      <trkpt lat="46.443866" lon="-1.147205">
        <ele>3.0</ele>
        <time>2020-08-12T20:45:27Z</time>
      </trkpt>
      <trkpt lat="46.44408" lon="-1.14718">
        <ele>3.0</ele>
        <time>2020-08-12T20:45:28Z</time>
      </trkpt>
      <trkpt lat="46.444352" lon="-1.147114">
        <ele>2.8</ele>
        <time>2020-08-12T20:45:29Z</time>
      </trkpt>
      <trkpt lat="46.444715" lon="-1.147076">
        <ele>2.8</ele>
        <time>2020-08-12T20:45:31Z</time>
      </trkpt>
      <trkpt lat="46.444963" lon="-1.14711">
        <ele>2.8</ele>
        <time>2020-08-12T20:45:32Z</time>
      </trkpt>
      <trkpt lat="46.445135" lon="-1.147159">
        <ele>2.6</ele>
        <time>2020-08-12T20:45:33Z</time>
      </trkpt>
      <trkpt lat="46.445315" lon="-1.147226">
        <ele>2.6</ele>
        <time>2020-08-12T20:45:34Z</time>
      </trkpt>
      <trkpt lat="46.4468" lon="-1.147971">
        <ele>5.0</ele>
        <time>2020-08-12T20:45:41Z</time>
      </trkpt>
      <trkpt lat="46.447199" lon="-1.148215">
        <ele>5.0</ele>
        <time>2020-08-12T20:45:44Z</time>
      </trkpt>
      <trkpt lat="46.447374" lon="-1.148373">
        <ele>5.2</ele>
        <time>2020-08-12T20:45:45Z</time>
      </trkpt>
      <trkpt lat="46.447681" lon="-1.148709">
        <ele>6.0</ele>
        <time>2020-08-12T20:45:46Z</time>
      </trkpt>
      <trkpt lat="46.447901" lon="-1.149031">
        <ele>6.0</ele>
        <time>2020-08-12T20:45:48Z</time>
      </trkpt>
      <trkpt lat="46.448806" lon="-1.150859">
        <ele>5.8</ele>
        <time>2020-08-12T20:45:55Z</time>
      </trkpt>
      <trkpt lat="46.449133" lon="-1.151428">
        <ele>5.8</ele>
        <time>2020-08-12T20:45:58Z</time>
      </trkpt>
      <trkpt lat="46.449434" lon="-1.151831">
        <ele>4.8</ele>
        <time>2020-08-12T20:46:00Z</time>
      </trkpt>
      <trkpt lat="46.450448" lon="-1.152967">
        <ele>4.2</ele>
        <time>2020-08-12T20:46:06Z</time>
      </trkpt>
      <trkpt lat="46.450623" lon="-1.153221">
        <ele>4.2</ele>
        <time>2020-08-12T20:46:07Z</time>
      </trkpt>
      <trkpt lat="46.450746" lon="-1.153433">
        <ele>4.4</ele>
        <time>2020-08-12T20:46:08Z</time>
      </trkpt>
      <trkpt lat="46.450884" lon="-1.15378">
        <ele>4.6</ele>
        <time>2020-08-12T20:46:09Z</time>
      </trkpt>
      <trkpt lat="46.450995" lon="-1.154346">
        <ele>5.4</ele>
        <time>2020-08-12T20:46:11Z</time>
      </trkpt>
      <trkpt lat="46.451097" lon="-1.155259">
        <ele>5.6</ele>
        <time>2020-08-12T20:46:14Z</time>
      </trkpt>
      <trkpt lat="46.45116" lon="-1.155516">
        <ele>5.6</ele>
        <time>2020-08-12T20:46:15Z</time>
      </trkpt>
      <trkpt lat="46.451247" lon="-1.155677">
        <ele>5.6</ele>
        <time>2020-08-12T20:46:16Z</time>
      </trkpt>
      <trkpt lat="46.45147" lon="-1.155974">
        <ele>6.2</ele>
        <time>2020-08-12T20:46:17Z</time>
      </trkpt>
      <trkpt lat="46.451897" lon="-1.156409">
        <ele>6.2</ele>
        <time>2020-08-12T20:46:20Z</time>
      </trkpt>
      <trkpt lat="46.452457" lon="-1.157045">
        <ele>5.8</ele>
        <time>2020-08-12T20:46:23Z</time>
      </trkpt>
      <trkpt lat="46.452519" lon="-1.15718">
        <ele>6.4</ele>
        <time>2020-08-12T20:46:24Z</time>
      </trkpt>
      <trkpt lat="46.452655" lon="-1.157277">
        <ele>6.4</ele>
        <time>2020-08-12T20:46:25Z</time>
      </trkpt>
      <trkpt lat="46.452716" lon="-1.157315">
        <ele>6.4</ele>
        <time>2020-08-12T20:46:25Z</time>
      </trkpt>
      <trkpt lat="46.452736" lon="-1.157353">
        <ele>6.4</ele>
        <time>2020-08-12T20:46:26Z</time>
      </trkpt>
      <trkpt lat="46.452748" lon="-1.157448">
        <ele>6.4</ele>
        <time>2020-08-12T20:46:26Z</time>
      </trkpt>
      <trkpt lat="46.452721" lon="-1.157531">
        <ele>6.4</ele>
        <time>2020-08-12T20:46:27Z</time>
      </trkpt>
      <trkpt lat="46.452665" lon="-1.157575">
        <ele>6.4</ele>
        <time>2020-08-12T20:46:28Z</time>
      </trkpt>
      <trkpt lat="46.452633" lon="-1.157576">
        <ele>6.4</ele>
        <time>2020-08-12T20:46:28Z</time>
      </trkpt>
      <trkpt lat="46.45249" lon="-1.15769">
        <ele>5.6</ele>
        <time>2020-08-12T20:46:30Z</time>
      </trkpt>
      <trkpt lat="46.452438" lon="-1.157775">
        <ele>5.6</ele>
        <time>2020-08-12T20:46:30Z</time>
      </trkpt>
      <trkpt lat="46.451965" lon="-1.158255">
        <ele>5.6</ele>
        <time>2020-08-12T20:46:36Z</time>
      </trkpt>
      <trkpt lat="46.451727" lon="-1.158565">
        <ele>5.8</ele>
        <time>2020-08-12T20:46:40Z</time>
      </trkpt>
      <trkpt lat="46.451556" lon="-1.15885">
        <ele>5.6</ele>
        <time>2020-08-12T20:46:42Z</time>
      </trkpt>
      <trkpt lat="46.451396" lon="-1.159167">
        <ele>5.6</ele>
        <time>2020-08-12T20:46:45Z</time>
      </trkpt>
      <trkpt lat="46.451254" lon="-1.159535">
        <ele>5.6</ele>
        <time>2020-08-12T20:46:48Z</time>
      </trkpt>
      <trkpt lat="46.451143" lon="-1.159884">
        <ele>5.6</ele>
        <time>2020-08-12T20:46:50Z</time>
      </trkpt>
      <trkpt lat="46.451054" lon="-1.160296">
        <ele>5.6</ele>
        <time>2020-08-12T20:46:54Z</time>
      </trkpt>
      <trkpt lat="46.450996" lon="-1.160682">
        <ele>5.6</ele>
        <time>2020-08-12T20:46:56Z</time>
      </trkpt>
      <trkpt lat="46.4508" lon="-1.162379">
        <ele>4.4</ele>
        <time>2020-08-12T20:47:08Z</time>
      </trkpt>
      <trkpt lat="46.450658" lon="-1.162265">
        <ele>4.4</ele>
        <time>2020-08-12T20:47:11Z</time>
      </trkpt>
      <trkpt lat="46.450389" lon="-1.162202">
        <ele>4.4</ele>
        <time>2020-08-12T20:47:16Z</time>
      </trkpt>
      <trkpt lat="46.450389" lon="-1.162202">
        <ele>4.4</ele>
        <time>2020-08-12T20:47:16Z</time>
      </trkpt>
      <trkpt lat="46.450658" lon="-1.162265">
        <ele>4.4</ele>
        <time>2020-08-12T20:47:21Z</time>
      </trkpt>
      <trkpt lat="46.4508" lon="-1.162379">
        <ele>4.4</ele>
        <time>2020-08-12T20:47:24Z</time>
      </trkpt>
      <trkpt lat="46.450645" lon="-1.163705">
        <ele>4.0</ele>
        <time>2020-08-12T20:47:35Z</time>
      </trkpt>
      <trkpt lat="46.450658" lon="-1.164918">
        <ele>4.2</ele>
        <time>2020-08-12T20:47:45Z</time>
      </trkpt>
      <trkpt lat="46.450648" lon="-1.165231">
        <ele>4.6</ele>
        <time>2020-08-12T20:47:47Z</time>
      </trkpt>
      <trkpt lat="46.450573" lon="-1.165779">
        <ele>4.6</ele>
        <time>2020-08-12T20:47:52Z</time>
      </trkpt>
      <trkpt lat="46.450427" lon="-1.166294">
        <ele>4.8</ele>
        <time>2020-08-12T20:47:56Z</time>
      </trkpt>
      <trkpt lat="46.450257" lon="-1.166636">
        <ele>4.8</ele>
        <time>2020-08-12T20:47:59Z</time>
      </trkpt>
      <trkpt lat="46.450086" lon="-1.166861">
        <ele>5.8</ele>
        <time>2020-08-12T20:48:02Z</time>
      </trkpt>
      <trkpt lat="46.448502" lon="-1.16808">
        <ele>4.4</ele>
        <time>2020-08-12T20:48:23Z</time>
      </trkpt>
      <trkpt lat="46.448469" lon="-1.16822">
        <ele>4.4</ele>
        <time>2020-08-12T20:48:24Z</time>
      </trkpt>
      <trkpt lat="46.448476" lon="-1.168321">
        <ele>4.4</ele>
        <time>2020-08-12T20:48:25Z</time>
      </trkpt>
      <trkpt lat="46.448644" lon="-1.168825">
        <ele>4.6</ele>
        <time>2020-08-12T20:48:29Z</time>
      </trkpt>
      <trkpt lat="46.44869" lon="-1.168833">
        <ele>4.6</ele>
        <time>2020-08-12T20:48:30Z</time>
      </trkpt>
      <trkpt lat="46.448716" lon="-1.168872">
        <ele>4.6</ele>
        <time>2020-08-12T20:48:30Z</time>
      </trkpt>
      <trkpt lat="46.448723" lon="-1.168926">
        <ele>4.6</ele>
        <time>2020-08-12T20:48:30Z</time>
      </trkpt>
      <trkpt lat="46.448709" lon="-1.168976">
        <ele>4.6</ele>
        <time>2020-08-12T20:48:30Z</time>
      </trkpt>
      <trkpt lat="46.448679" lon="-1.169008">
        <ele>4.6</ele>
        <time>2020-08-12T20:48:31Z</time>
      </trkpt>
      <trkpt lat="46.448598" lon="-1.168995">
        <ele>4.6</ele>
        <time>2020-08-12T20:48:31Z</time>
      </trkpt>
      <trkpt lat="46.448546" lon="-1.169087">
        <ele>4.6</ele>
        <time>2020-08-12T20:48:32Z</time>
      </trkpt>
      <trkpt lat="46.447482" lon="-1.169895">
        <ele>3.8</ele>
        <time>2020-08-12T20:48:40Z</time>
      </trkpt>
      <trkpt lat="46.447134" lon="-1.17008">
        <ele>3.4</ele>
        <time>2020-08-12T20:48:42Z</time>
      </trkpt>
      <trkpt lat="46.446884" lon="-1.170182">
        <ele>3.4</ele>
        <time>2020-08-12T20:48:44Z</time>
      </trkpt>
      <trkpt lat="46.44622" lon="-1.170361">
        <ele>3.0</ele>
        <time>2020-08-12T20:48:49Z</time>
      </trkpt>
      <trkpt lat="46.444401" lon="-1.170812">
        <ele>2.8</ele>
        <time>2020-08-12T20:49:01Z</time>
      </trkpt>
      <trkpt lat="46.444166" lon="-1.170862">
        <ele>3.2</ele>
        <time>2020-08-12T20:49:03Z</time>
      </trkpt>
      <trkpt lat="46.443512" lon="-1.170946">
        <ele>3.2</ele>
        <time>2020-08-12T20:49:07Z</time>
      </trkpt>
      <trkpt lat="46.442153" lon="-1.171037">
        <ele>1.8</ele>
        <time>2020-08-12T20:49:16Z</time>
      </trkpt>
      <trkpt lat="46.44053" lon="-1.171077">
        <ele>1.6</ele>
        <time>2020-08-12T20:49:27Z</time>
      </trkpt>
      <trkpt lat="46.439671" lon="-1.171119">
        <ele>1.4</ele>
        <time>2020-08-12T20:49:33Z</time>
      </trkpt>
      <trkpt lat="46.439444" lon="-1.171078">
        <ele>1.4</ele>
        <time>2020-08-12T20:49:35Z</time>
      </trkpt>
      <trkpt lat="46.439267" lon="-1.171021">
        <ele>1.4</ele>
        <time>2020-08-12T20:49:36Z</time>
      </trkpt>
      <trkpt lat="46.435381" lon="-1.169651">
        <ele>1.2</ele>
        <time>2020-08-12T20:50:03Z</time>
      </trkpt>
      <trkpt lat="46.435205" lon="-1.169611">
        <ele>1.2</ele>
        <time>2020-08-12T20:50:04Z</time>
      </trkpt>
      <trkpt lat="46.43196" lon="-1.169338">
        <ele>1.8</ele>
        <time>2020-08-12T20:50:26Z</time>
      </trkpt>
      <trkpt lat="46.431503" lon="-1.169254">
        <ele>1.4</ele>
        <time>2020-08-12T20:50:29Z</time>
      </trkpt>
      <trkpt lat="46.430838" lon="-1.169091">
        <ele>2.0</ele>
        <time>2020-08-12T20:50:33Z</time>
      </trkpt>
      <trkpt lat="46.430194" lon="-1.16903">
        <ele>2.2</ele>
        <time>2020-08-12T20:50:38Z</time>
      </trkpt>
      <trkpt lat="46.429045" lon="-1.169055">
        <ele>1.6</ele>
        <time>2020-08-12T20:50:46Z</time>
      </trkpt>
      <trkpt lat="46.428304" lon="-1.169116">
        <ele>1.2</ele>
        <time>2020-08-12T20:50:51Z</time>
      </trkpt>
      <trkpt lat="46.426592" lon="-1.169475">
        <ele>1.8</ele>
        <time>2020-08-12T20:51:02Z</time>
      </trkpt>
      <trkpt lat="46.423821" lon="-1.170296">
        <ele>2.2</ele>
        <time>2020-08-12T20:51:21Z</time>
      </trkpt>
      <trkpt lat="46.423162" lon="-1.170544">
        <ele>1.6</ele>
        <time>2020-08-12T20:51:26Z</time>
      </trkpt>
      <trkpt lat="46.420237" lon="-1.172342">
        <ele>1.6</ele>
        <time>2020-08-12T20:51:47Z</time>
      </trkpt>
      <trkpt lat="46.417155" lon="-1.174616">
        <ele>2.0</ele>
        <time>2020-08-12T20:52:11Z</time>
      </trkpt>
      <trkpt lat="46.414207" lon="-1.176672">
        <ele>0.8</ele>
        <time>2020-08-12T20:52:33Z</time>
      </trkpt>
      <trkpt lat="46.413782" lon="-1.176893">
        <ele>0.2</ele>
        <time>2020-08-12T20:52:36Z</time>
      </trkpt>
      <trkpt lat="46.411954" lon="-1.177669">
        <ele>1.4</ele>
        <time>2020-08-12T20:52:49Z</time>
      </trkpt>
      <trkpt lat="46.409601" lon="-1.178751">
        <ele>1.2</ele>
        <time>2020-08-12T20:53:05Z</time>
      </trkpt>
      <trkpt lat="46.409384" lon="-1.178881">
        <ele>1.2</ele>
        <time>2020-08-12T20:53:07Z</time>
      </trkpt>
      <trkpt lat="46.409041" lon="-1.179183">
        <ele>0.6</ele>
        <time>2020-08-12T20:53:09Z</time>
      </trkpt>
      <trkpt lat="46.408555" lon="-1.179757">
        <ele>0.6</ele>
        <time>2020-08-12T20:53:14Z</time>
      </trkpt>
      <trkpt lat="46.40803" lon="-1.180335">
        <ele>0.8</ele>
        <time>2020-08-12T20:53:18Z</time>
      </trkpt>
      <trkpt lat="46.407106" lon="-1.181322">
        <ele>1.4</ele>
        <time>2020-08-12T20:53:26Z</time>
      </trkpt>
      <trkpt lat="46.406881" lon="-1.18153">
        <ele>1.4</ele>
        <time>2020-08-12T20:53:28Z</time>
      </trkpt>
      <trkpt lat="46.404339" lon="-1.183121">
        <ele>0.6</ele>
        <time>2020-08-12T20:53:46Z</time>
      </trkpt>
      <trkpt lat="46.404093" lon="-1.183332">
        <ele>1.4</ele>
        <time>2020-08-12T20:53:48Z</time>
      </trkpt>
      <trkpt lat="46.403175" lon="-1.184291">
        <ele>0.4</ele>
        <time>2020-08-12T20:53:56Z</time>
      </trkpt>
      <trkpt lat="46.402302" lon="-1.184922">
        <ele>0.6</ele>
        <time>2020-08-12T20:54:02Z</time>
      </trkpt>
      <trkpt lat="46.402163" lon="-1.185051">
        <ele>0.0</ele>
        <time>2020-08-12T20:54:04Z</time>
      </trkpt>
      <trkpt lat="46.402043" lon="-1.185195">
        <ele>0.0</ele>
        <time>2020-08-12T20:54:05Z</time>
      </trkpt>
      <trkpt lat="46.401905" lon="-1.185418">
        <ele>0.0</ele>
        <time>2020-08-12T20:54:06Z</time>
      </trkpt>
      <trkpt lat="46.401582" lon="-1.186124">
        <ele>0.4</ele>
        <time>2020-08-12T20:54:10Z</time>
      </trkpt>
      <trkpt lat="46.401408" lon="-1.186462">
        <ele>0.4</ele>
        <time>2020-08-12T20:54:12Z</time>
      </trkpt>
      <trkpt lat="46.401267" lon="-1.18669">
        <ele>1.0</ele>
        <time>2020-08-12T20:54:13Z</time>
      </trkpt>
      <trkpt lat="46.40059" lon="-1.18759">
        <ele>1.2</ele>
        <time>2020-08-12T20:54:20Z</time>
      </trkpt>
      <trkpt lat="46.400103" lon="-1.188201">
        <ele>1.2</ele>
        <time>2020-08-12T20:54:24Z</time>
      </trkpt>
      <trkpt lat="46.399224" lon="-1.189186">
        <ele>1.2</ele>
        <time>2020-08-12T20:54:31Z</time>
      </trkpt>
      <trkpt lat="46.399002" lon="-1.189537">
        <ele>1.8</ele>
        <time>2020-08-12T20:54:34Z</time>
      </trkpt>
      <trkpt lat="46.398762" lon="-1.190025">
        <ele>1.4</ele>
        <time>2020-08-12T20:54:36Z</time>
      </trkpt>
      <trkpt lat="46.398511" lon="-1.190477">
        <ele>1.4</ele>
        <time>2020-08-12T20:54:39Z</time>
      </trkpt>
      <trkpt lat="46.397515" lon="-1.1922">
        <ele>1.4</ele>
        <time>2020-08-12T20:54:50Z</time>
      </trkpt>
      <trkpt lat="46.397417" lon="-1.192203">
        <ele>1.8</ele>
        <time>2020-08-12T20:54:50Z</time>
      </trkpt>
      <trkpt lat="46.397445" lon="-1.192284">
        <ele>1.8</ele>
        <time>2020-08-12T20:54:51Z</time>
      </trkpt>
      <trkpt lat="46.397433" lon="-1.192364">
        <ele>1.8</ele>
        <time>2020-08-12T20:54:52Z</time>
      </trkpt>
      <trkpt lat="46.397374" lon="-1.192427">
        <ele>1.8</ele>
        <time>2020-08-12T20:54:53Z</time>
      </trkpt>
      <trkpt lat="46.397327" lon="-1.192423">
        <ele>1.8</ele>
        <time>2020-08-12T20:54:53Z</time>
      </trkpt>
      <trkpt lat="46.397323" lon="-1.192542">
        <ele>1.6</ele>
        <time>2020-08-12T20:54:54Z</time>
      </trkpt>
      <trkpt lat="46.396505" lon="-1.194005">
        <ele>1.6</ele>
        <time>2020-08-12T20:55:11Z</time>
      </trkpt>
      <trkpt lat="46.395259" lon="-1.195832">
        <ele>2.6</ele>
        <time>2020-08-12T20:55:34Z</time>
      </trkpt>
      <trkpt lat="46.395136" lon="-1.195971">
        <ele>2.4</ele>
        <time>2020-08-12T20:55:36Z</time>
      </trkpt>
      <trkpt lat="46.395007" lon="-1.196041">
        <ele>2.4</ele>
        <time>2020-08-12T20:55:38Z</time>
      </trkpt>
      <trkpt lat="46.394355" lon="-1.196243">
        <ele>3.4</ele>
        <time>2020-08-12T20:55:47Z</time>
      </trkpt>
      <trkpt lat="46.39403" lon="-1.196434">
        <ele>4.2</ele>
        <time>2020-08-12T20:55:51Z</time>
      </trkpt>
      <trkpt lat="46.394109" lon="-1.196936">
        <ele>4.6</ele>
        <time>2020-08-12T20:55:57Z</time>
      </trkpt>
      <trkpt lat="46.3941" lon="-1.196996">
        <ele>4.6</ele>
        <time>2020-08-12T20:55:57Z</time>
      </trkpt>
      <trkpt lat="46.394069" lon="-1.197051">
        <ele>4.6</ele>
        <time>2020-08-12T20:55:58Z</time>
      </trkpt>
      <trkpt lat="46.393837" lon="-1.197164">
        <ele>4.6</ele>
        <time>2020-08-12T20:56:01Z</time>
      </trkpt>
      <trkpt lat="46.393481" lon="-1.197459">
        <ele>4.6</ele>
        <time>2020-08-12T20:56:07Z</time>
      </trkpt>
      <trkpt lat="46.392683" lon="-1.198067">
        <ele>3.8</ele>
        <time>2020-08-12T20:56:20Z</time>
      </trkpt>
      <trkpt lat="46.392354" lon="-1.198246">
        <ele>2.6</ele>
        <time>2020-08-12T20:56:26Z</time>
      </trkpt>
      <trkpt lat="46.392022" lon="-1.198478">
        <ele>2.8</ele>
        <time>2020-08-12T20:56:31Z</time>
      </trkpt>
      <trkpt lat="46.391814" lon="-1.198603">
        <ele>2.8</ele>
        <time>2020-08-12T20:56:34Z</time>
      </trkpt>
      <trkpt lat="46.391452" lon="-1.198657">
        <ele>2.0</ele>
        <time>2020-08-12T20:56:39Z</time>
      </trkpt>
      <trkpt lat="46.391428" lon="-1.198722">
        <ele>2.0</ele>
        <time>2020-08-12T20:56:40Z</time>
      </trkpt>
      <trkpt lat="46.391379" lon="-1.198708">
        <ele>2.0</ele>
        <time>2020-08-12T20:56:40Z</time>
      </trkpt>
      <trkpt lat="46.391364" lon="-1.198728">
        <ele>2.0</ele>
        <time>2020-08-12T20:56:40Z</time>
      </trkpt>
      <trkpt lat="46.390505" lon="-1.200062">
        <ele>0.8</ele>
        <time>2020-08-12T20:56:51Z</time>
      </trkpt>
      <trkpt lat="46.389678" lon="-1.200863">
        <ele>0.6</ele>
        <time>2020-08-12T20:56:59Z</time>
      </trkpt>
      <trkpt lat="46.389257" lon="-1.201246">
        <ele>0.6</ele>
        <time>2020-08-12T20:57:03Z</time>
      </trkpt>
      <trkpt lat="46.389046" lon="-1.201408">
        <ele>0.6</ele>
        <time>2020-08-12T20:57:05Z</time>
      </trkpt>
      <trkpt lat="46.388805" lon="-1.201526">
        <ele>0.6</ele>
        <time>2020-08-12T20:57:07Z</time>
      </trkpt>
      <trkpt lat="46.388496" lon="-1.201592">
        <ele>0.6</ele>
        <time>2020-08-12T20:57:10Z</time>
      </trkpt>
      <trkpt lat="46.38487" lon="-1.202143">
        <ele>1.2</ele>
        <time>2020-08-12T20:57:40Z</time>
      </trkpt>
      <trkpt lat="46.38487" lon="-1.202143">
        <ele>1.2</ele>
        <time>2020-08-12T20:57:40Z</time>
      </trkpt>
      <trkpt lat="46.374971" lon="-1.203649">
        <ele>1.8</ele>
        <time>2020-08-12T20:58:51Z</time>
      </trkpt>
      <trkpt lat="46.37456" lon="-1.203758">
        <ele>1.8</ele>
        <time>2020-08-12T20:58:54Z</time>
      </trkpt>
      <trkpt lat="46.374382" lon="-1.203837">
        <ele>1.8</ele>
        <time>2020-08-12T20:58:56Z</time>
      </trkpt>
      <trkpt lat="46.373979" lon="-1.204085">
        <ele>2.4</ele>
        <time>2020-08-12T20:58:59Z</time>
      </trkpt>
      <trkpt lat="46.373649" lon="-1.204365">
        <ele>2.0</ele>
        <time>2020-08-12T20:59:01Z</time>
      </trkpt>
      <trkpt lat="46.373406" lon="-1.204648">
        <ele>2.0</ele>
        <time>2020-08-12T20:59:04Z</time>
      </trkpt>
      <trkpt lat="46.373198" lon="-1.204935">
        <ele>2.6</ele>
        <time>2020-08-12T20:59:06Z</time>
      </trkpt>
      <trkpt lat="46.372876" lon="-1.205456">
        <ele>1.8</ele>
        <time>2020-08-12T20:59:09Z</time>
      </trkpt>
      <trkpt lat="46.371571" lon="-1.20762">
        <ele>0.8</ele>
        <time>2020-08-12T20:59:23Z</time>
      </trkpt>
      <trkpt lat="46.371361" lon="-1.208013">
        <ele>0.8</ele>
        <time>2020-08-12T20:59:26Z</time>
      </trkpt>
      <trkpt lat="46.371189" lon="-1.208377">
        <ele>0.4</ele>
        <time>2020-08-12T20:59:28Z</time>
      </trkpt>
      <trkpt lat="46.371071" lon="-1.208664">
        <ele>0.4</ele>
        <time>2020-08-12T20:59:30Z</time>
      </trkpt>
      <trkpt lat="46.370954" lon="-1.209014">
        <ele>0.4</ele>
        <time>2020-08-12T20:59:31Z</time>
      </trkpt>
      <trkpt lat="46.370862" lon="-1.209358">
        <ele>-0.4</ele>
        <time>2020-08-12T20:59:33Z</time>
      </trkpt>
      <trkpt lat="46.37075" lon="-1.209865">
        <ele>0.0</ele>
        <time>2020-08-12T20:59:36Z</time>
      </trkpt>
      <trkpt lat="46.370298" lon="-1.21225">
        <ele>0.4</ele>
        <time>2020-08-12T20:59:48Z</time>
      </trkpt>
      <trkpt lat="46.370182" lon="-1.212797">
        <ele>1.0</ele>
        <time>2020-08-12T20:59:51Z</time>
      </trkpt>
      <trkpt lat="46.370068" lon="-1.213188">
        <ele>1.0</ele>
        <time>2020-08-12T20:59:53Z</time>
      </trkpt>
      <trkpt lat="46.369271" lon="-1.21547">
        <ele>1.0</ele>
        <time>2020-08-12T21:00:05Z</time>
      </trkpt>
      <trkpt lat="46.368865" lon="-1.216508">
        <ele>1.2</ele>
        <time>2020-08-12T21:00:11Z</time>
      </trkpt>
      <trkpt lat="46.368363" lon="-1.217649">
        <ele>1.2</ele>
        <time>2020-08-12T21:00:18Z</time>
      </trkpt>
      <trkpt lat="46.368235" lon="-1.21806">
        <ele>0.8</ele>
        <time>2020-08-12T21:00:20Z</time>
      </trkpt>
      <trkpt lat="46.368174" lon="-1.218461">
        <ele>1.0</ele>
        <time>2020-08-12T21:00:22Z</time>
      </trkpt>
      <trkpt lat="46.36812" lon="-1.219699">
        <ele>1.2</ele>
        <time>2020-08-12T21:00:28Z</time>
      </trkpt>
      <trkpt lat="46.367979" lon="-1.229604">
        <ele>2.2</ele>
        <time>2020-08-12T21:01:17Z</time>
      </trkpt>
      <trkpt lat="46.367964" lon="-1.230035">
        <ele>2.6</ele>
        <time>2020-08-12T21:01:19Z</time>
      </trkpt>
      <trkpt lat="46.367902" lon="-1.230533">
        <ele>2.6</ele>
        <time>2020-08-12T21:01:22Z</time>
      </trkpt>
      <trkpt lat="46.367842" lon="-1.230803">
        <ele>2.6</ele>
        <time>2020-08-12T21:01:23Z</time>
      </trkpt>
      <trkpt lat="46.367496" lon="-1.232157">
        <ele>2.4</ele>
        <time>2020-08-12T21:01:30Z</time>
      </trkpt>
      <trkpt lat="46.36725" lon="-1.232954">
        <ele>2.2</ele>
        <time>2020-08-12T21:01:34Z</time>
      </trkpt>
      <trkpt lat="46.367164" lon="-1.233194">
        <ele>2.2</ele>
        <time>2020-08-12T21:01:36Z</time>
      </trkpt>
      <trkpt lat="46.366646" lon="-1.234421">
        <ele>1.6</ele>
        <time>2020-08-12T21:01:43Z</time>
      </trkpt>
      <trkpt lat="46.366421" lon="-1.234794">
        <ele>1.6</ele>
        <time>2020-08-12T21:01:45Z</time>
      </trkpt>
      <trkpt lat="46.366191" lon="-1.235034">
        <ele>0.8</ele>
        <time>2020-08-12T21:01:47Z</time>
      </trkpt>
      <trkpt lat="46.36533" lon="-1.235857">
        <ele>0.8</ele>
        <time>2020-08-12T21:01:55Z</time>
      </trkpt>
      <trkpt lat="46.365217" lon="-1.235983">
        <ele>0.8</ele>
        <time>2020-08-12T21:01:56Z</time>
      </trkpt>
      <trkpt lat="46.365084" lon="-1.236172">
        <ele>0.8</ele>
        <time>2020-08-12T21:01:57Z</time>
      </trkpt>
      <trkpt lat="46.364933" lon="-1.236463">
        <ele>1.2</ele>
        <time>2020-08-12T21:01:59Z</time>
      </trkpt>
      <trkpt lat="46.363935" lon="-1.238751">
        <ele>2.2</ele>
        <time>2020-08-12T21:02:12Z</time>
      </trkpt>
      <trkpt lat="46.363085" lon="-1.240794">
        <ele>1.8</ele>
        <time>2020-08-12T21:02:24Z</time>
      </trkpt>
      <trkpt lat="46.363121" lon="-1.240834">
        <ele>2.0</ele>
        <time>2020-08-12T21:02:24Z</time>
      </trkpt>
      <trkpt lat="46.363158" lon="-1.240951">
        <ele>2.0</ele>
        <time>2020-08-12T21:02:26Z</time>
      </trkpt>
      <trkpt lat="46.363138" lon="-1.241075">
        <ele>2.0</ele>
        <time>2020-08-12T21:02:27Z</time>
      </trkpt>
      <trkpt lat="46.363072" lon="-1.241156">
        <ele>2.0</ele>
        <time>2020-08-12T21:02:28Z</time>
      </trkpt>
      <trkpt lat="46.362986" lon="-1.241164">
        <ele>2.0</ele>
        <time>2020-08-12T21:02:29Z</time>
      </trkpt>
      <trkpt lat="46.362946" lon="-1.241139">
        <ele>2.0</ele>
        <time>2020-08-12T21:02:30Z</time>
      </trkpt>
      <trkpt lat="46.362513" lon="-1.242162">
        <ele>3.0</ele>
        <time>2020-08-12T21:02:41Z</time>
      </trkpt>
      <trkpt lat="46.36244" lon="-1.242265">
        <ele>2.4</ele>
        <time>2020-08-12T21:02:42Z</time>
      </trkpt>
      <trkpt lat="46.362332" lon="-1.242357">
        <ele>2.4</ele>
        <time>2020-08-12T21:02:44Z</time>
      </trkpt>
      <trkpt lat="46.362232" lon="-1.242409">
        <ele>2.4</ele>
        <time>2020-08-12T21:02:45Z</time>
      </trkpt>
      <trkpt lat="46.362056" lon="-1.242418">
        <ele>2.4</ele>
        <time>2020-08-12T21:02:48Z</time>
      </trkpt>
      <trkpt lat="46.361822" lon="-1.24235">
        <ele>2.4</ele>
        <time>2020-08-12T21:02:51Z</time>
      </trkpt>
      <trkpt lat="46.361119" lon="-1.241998">
        <ele>3.4</ele>
        <time>2020-08-12T21:03:01Z</time>
      </trkpt>
      <trkpt lat="46.360721" lon="-1.241836">
        <ele>3.8</ele>
        <time>2020-08-12T21:03:06Z</time>
      </trkpt>
      <trkpt lat="46.360325" lon="-1.241791">
        <ele>3.8</ele>
        <time>2020-08-12T21:03:12Z</time>
      </trkpt>
      <trkpt lat="46.360107" lon="-1.241824">
        <ele>3.8</ele>
        <time>2020-08-12T21:03:15Z</time>
      </trkpt>
      <trkpt lat="46.35955" lon="-1.242231">
        <ele>3.4</ele>
        <time>2020-08-12T21:03:23Z</time>
      </trkpt>
      <trkpt lat="46.359257" lon="-1.242389">
        <ele>3.4</ele>
        <time>2020-08-12T21:03:27Z</time>
      </trkpt>
      <trkpt lat="46.358825" lon="-1.242501">
        <ele>4.2</ele>
        <time>2020-08-12T21:03:33Z</time>
      </trkpt>
      <trkpt lat="46.358596" lon="-1.242637">
        <ele>4.2</ele>
        <time>2020-08-12T21:03:37Z</time>
      </trkpt>
      <trkpt lat="46.358422" lon="-1.242814">
        <ele>4.2</ele>
        <time>2020-08-12T21:03:40Z</time>
      </trkpt>
      <trkpt lat="46.358098" lon="-1.243254">
        <ele>6.2</ele>
        <time>2020-08-12T21:03:46Z</time>
      </trkpt>
      <trkpt lat="46.357622" lon="-1.244266">
        <ele>6.4</ele>
        <time>2020-08-12T21:03:57Z</time>
      </trkpt>
      <trkpt lat="46.357428" lon="-1.244603">
        <ele>7.8</ele>
        <time>2020-08-12T21:04:01Z</time>
      </trkpt>
      <trkpt lat="46.357346" lon="-1.244716">
        <ele>7.8</ele>
        <time>2020-08-12T21:04:03Z</time>
      </trkpt>
      <trkpt lat="46.356338" lon="-1.245933">
        <ele>6.2</ele>
        <time>2020-08-12T21:04:20Z</time>
      </trkpt>
      <trkpt lat="46.356166" lon="-1.246108">
        <ele>6.2</ele>
        <time>2020-08-12T21:04:23Z</time>
      </trkpt>
      <trkpt lat="46.355535" lon="-1.246467">
        <ele>5.2</ele>
        <time>2020-08-12T21:04:32Z</time>
      </trkpt>
      <trkpt lat="46.355474" lon="-1.246536">
        <ele>5.2</ele>
        <time>2020-08-12T21:04:33Z</time>
      </trkpt>
      <trkpt lat="46.355133" lon="-1.24713">
        <ele>6.2</ele>
        <time>2020-08-12T21:04:40Z</time>
      </trkpt>
      <trkpt lat="46.354661" lon="-1.247674">
        <ele>7.0</ele>
        <time>2020-08-12T21:04:49Z</time>
      </trkpt>
      <trkpt lat="46.354606" lon="-1.247761">
        <ele>7.0</ele>
        <time>2020-08-12T21:04:50Z</time>
      </trkpt>
      <trkpt lat="46.354289" lon="-1.248707">
        <ele>8.2</ele>
        <time>2020-08-12T21:04:59Z</time>
      </trkpt>
      <trkpt lat="46.354238" lon="-1.248913">
        <ele>8.2</ele>
        <time>2020-08-12T21:05:02Z</time>
      </trkpt>
      <trkpt lat="46.354185" lon="-1.249744">
        <ele>8.8</ele>
        <time>2020-08-12T21:05:09Z</time>
      </trkpt>
      <trkpt lat="46.354112" lon="-1.249917">
        <ele>9.0</ele>
        <time>2020-08-12T21:05:13Z</time>
      </trkpt>
      <trkpt lat="46.353643" lon="-1.250575">
        <ele>9.4</ele>
        <time>2020-08-12T21:05:28Z</time>
      </trkpt>
      <trkpt lat="46.353928" lon="-1.251084">
        <ele>10.2</ele>
        <time>2020-08-12T21:05:36Z</time>
      </trkpt>
      <trkpt lat="46.354269" lon="-1.251586">
        <ele>9.0</ele>
        <time>2020-08-12T21:05:45Z</time>
      </trkpt>
      <trkpt lat="46.354025" lon="-1.25206">
        <ele>11.0</ele>
        <time>2020-08-12T21:05:52Z</time>
      </trkpt>
      <trkpt lat="46.353594" lon="-1.252816">
        <ele>12.2</ele>
        <time>2020-08-12T21:06:05Z</time>
      </trkpt>
      <trkpt lat="46.353543" lon="-1.25288">
        <ele>12.2</ele>
        <time>2020-08-12T21:06:06Z</time>
      </trkpt>
      <trkpt lat="46.35349" lon="-1.253001">
        <ele>12.2</ele>
        <time>2020-08-12T21:06:08Z</time>
      </trkpt>
      <trkpt lat="46.35346" lon="-1.253159">
        <ele>12.2</ele>
        <time>2020-08-12T21:06:10Z</time>
      </trkpt>
      <trkpt lat="46.353462" lon="-1.253236">
        <ele>12.2</ele>
        <time>2020-08-12T21:06:11Z</time>
      </trkpt>
      <trkpt lat="46.353479" lon="-1.253331">
        <ele>12.2</ele>
        <time>2020-08-12T21:06:12Z</time>
      </trkpt>
      <trkpt lat="46.353591" lon="-1.25367">
        <ele>13.4</ele>
        <time>2020-08-12T21:06:17Z</time>
      </trkpt>
      <trkpt lat="46.353604" lon="-1.253785">
        <ele>13.4</ele>
        <time>2020-08-12T21:06:19Z</time>
      </trkpt>
      <trkpt lat="46.353592" lon="-1.253904">
        <ele>13.4</ele>
        <time>2020-08-12T21:06:20Z</time>
      </trkpt>
      <trkpt lat="46.353381" lon="-1.254475">
        <ele>14.0</ele>
        <time>2020-08-12T21:06:28Z</time>
      </trkpt>
      <trkpt lat="46.353068" lon="-1.255092">
        <ele>13.2</ele>
        <time>2020-08-12T21:06:38Z</time>
      </trkpt>
      <trkpt lat="46.352653" lon="-1.255839">
        <ele>14.4</ele>
        <time>2020-08-12T21:06:50Z</time>
      </trkpt>
      <trkpt lat="46.352559" lon="-1.256103">
        <ele>14.4</ele>
        <time>2020-08-12T21:06:54Z</time>
      </trkpt>
      <trkpt lat="46.352324" lon="-1.256637">
        <ele>11.8</ele>
        <time>2020-08-12T21:07:02Z</time>
      </trkpt>
      <trkpt lat="46.351614" lon="-1.257736">
        <ele>10.2</ele>
        <time>2020-08-12T21:07:21Z</time>
      </trkpt>
      <trkpt lat="46.350907" lon="-1.258616">
        <ele>9.0</ele>
        <time>2020-08-12T21:07:38Z</time>
      </trkpt>
      <trkpt lat="46.350794" lon="-1.258805">
        <ele>5.8</ele>
        <time>2020-08-12T21:07:42Z</time>
      </trkpt>
      <trkpt lat="46.350637" lon="-1.259172">
        <ele>5.6</ele>
        <time>2020-08-12T21:07:47Z</time>
      </trkpt>
      <trkpt lat="46.350061" lon="-1.260651">
        <ele>5.4</ele>
        <time>2020-08-12T21:08:09Z</time>
      </trkpt>
      <trkpt lat="46.349582" lon="-1.260563">
        <ele>4.0</ele>
        <time>2020-08-12T21:08:16Z</time>
      </trkpt>
      <trkpt lat="46.348539" lon="-1.26055">
        <ele>2.0</ele>
        <time>2020-08-12T21:08:35Z</time>
      </trkpt>
      <trkpt lat="46.348417" lon="-1.260792">
        <ele>2.0</ele>
        <time>2020-08-12T21:08:37Z</time>
      </trkpt>
      <trkpt lat="46.348339" lon="-1.260882">
        <ele>1.8</ele>
        <time>2020-08-12T21:08:37Z</time>
      </trkpt>
      <trkpt lat="46.348225" lon="-1.260942">
        <ele>1.0</ele>
        <time>2020-08-12T21:08:38Z</time>
      </trkpt>
      <trkpt lat="46.347396" lon="-1.261217">
        <ele>0.8</ele>
        <time>2020-08-12T21:08:44Z</time>
      </trkpt>
      <trkpt lat="46.345883" lon="-1.261669">
        <ele>1.4</ele>
        <time>2020-08-12T21:08:54Z</time>
      </trkpt>
      <trkpt lat="46.343705" lon="-1.262382">
        <ele>0.8</ele>
        <time>2020-08-12T21:09:09Z</time>
      </trkpt>
      <trkpt lat="46.34214" lon="-1.262921">
        <ele>1.0</ele>
        <time>2020-08-12T21:09:20Z</time>
      </trkpt>
      <trkpt lat="46.340246" lon="-1.263609">
        <ele>1.6</ele>
        <time>2020-08-12T21:09:33Z</time>
      </trkpt>
      <trkpt lat="46.33928" lon="-1.263988">
        <ele>1.6</ele>
        <time>2020-08-12T21:09:40Z</time>
      </trkpt>
      <trkpt lat="46.338956" lon="-1.264136">
        <ele>1.8</ele>
        <time>2020-08-12T21:09:42Z</time>
      </trkpt>
      <trkpt lat="46.338607" lon="-1.264345">
        <ele>2.6</ele>
        <time>2020-08-12T21:09:45Z</time>
      </trkpt>
      <trkpt lat="46.338374" lon="-1.264544">
        <ele>2.6</ele>
        <time>2020-08-12T21:09:47Z</time>
      </trkpt>
      <trkpt lat="46.338181" lon="-1.264743">
        <ele>2.4</ele>
        <time>2020-08-12T21:09:48Z</time>
      </trkpt>
      <trkpt lat="46.33801" lon="-1.264966">
        <ele>2.4</ele>
        <time>2020-08-12T21:09:50Z</time>
      </trkpt>
      <trkpt lat="46.337849" lon="-1.265216">
        <ele>2.2</ele>
        <time>2020-08-12T21:09:51Z</time>
      </trkpt>
      <trkpt lat="46.337709" lon="-1.2655">
        <ele>2.2</ele>
        <time>2020-08-12T21:09:53Z</time>
      </trkpt>
      <trkpt lat="46.337585" lon="-1.265833">
        <ele>2.2</ele>
        <time>2020-08-12T21:09:55Z</time>
      </trkpt>
      <trkpt lat="46.33751" lon="-1.266089">
        <ele>2.2</ele>
        <time>2020-08-12T21:09:56Z</time>
      </trkpt>
      <trkpt lat="46.337422" lon="-1.266473">
        <ele>1.2</ele>
        <time>2020-08-12T21:09:58Z</time>
      </trkpt>
      <trkpt lat="46.33736" lon="-1.266954">
        <ele>0.8</ele>
        <time>2020-08-12T21:10:00Z</time>
      </trkpt>
      <trkpt lat="46.337269" lon="-1.268171">
        <ele>0.0</ele>
        <time>2020-08-12T21:10:06Z</time>
      </trkpt>
      <trkpt lat="46.337163" lon="-1.270377">
        <ele>-0.2</ele>
        <time>2020-08-12T21:10:16Z</time>
      </trkpt>
      <trkpt lat="46.337185" lon="-1.272215">
        <ele>0.8</ele>
        <time>2020-08-12T21:10:25Z</time>
      </trkpt>
      <trkpt lat="46.337232" lon="-1.273336">
        <ele>1.4</ele>
        <time>2020-08-12T21:10:30Z</time>
      </trkpt>
      <trkpt lat="46.3373" lon="-1.274345">
        <ele>1.8</ele>
        <time>2020-08-12T21:10:34Z</time>
      </trkpt>
      <trkpt lat="46.337568" lon="-1.276341">
        <ele>1.6</ele>
        <time>2020-08-12T21:10:44Z</time>
      </trkpt>
      <trkpt lat="46.33788" lon="-1.27999">
        <ele>1.4</ele>
        <time>2020-08-12T21:11:01Z</time>
      </trkpt>
      <trkpt lat="46.337941" lon="-1.280411">
        <ele>1.6</ele>
        <time>2020-08-12T21:11:03Z</time>
      </trkpt>
      <trkpt lat="46.338031" lon="-1.280702">
        <ele>1.6</ele>
        <time>2020-08-12T21:11:04Z</time>
      </trkpt>
      <trkpt lat="46.338084" lon="-1.280826">
        <ele>1.6</ele>
        <time>2020-08-12T21:11:05Z</time>
      </trkpt>
      <trkpt lat="46.338244" lon="-1.281035">
        <ele>1.8</ele>
        <time>2020-08-12T21:11:07Z</time>
      </trkpt>
      <trkpt lat="46.338337" lon="-1.281044">
        <ele>1.6</ele>
        <time>2020-08-12T21:11:07Z</time>
      </trkpt>
      <trkpt lat="46.338453" lon="-1.28112">
        <ele>1.6</ele>
        <time>2020-08-12T21:11:08Z</time>
      </trkpt>
      <trkpt lat="46.338535" lon="-1.281249">
        <ele>1.6</ele>
        <time>2020-08-12T21:11:09Z</time>
      </trkpt>
      <trkpt lat="46.338565" lon="-1.281343">
        <ele>1.6</ele>
        <time>2020-08-12T21:11:09Z</time>
      </trkpt>
      <trkpt lat="46.33858" lon="-1.281451">
        <ele>1.6</ele>
        <time>2020-08-12T21:11:10Z</time>
      </trkpt>
      <trkpt lat="46.338557" lon="-1.281657">
        <ele>1.6</ele>
        <time>2020-08-12T21:11:11Z</time>
      </trkpt>
      <trkpt lat="46.338507" lon="-1.281776">
        <ele>1.6</ele>
        <time>2020-08-12T21:11:11Z</time>
      </trkpt>
      <trkpt lat="46.338516" lon="-1.282075">
        <ele>1.6</ele>
        <time>2020-08-12T21:11:13Z</time>
      </trkpt>
      <trkpt lat="46.338648" lon="-1.282513">
        <ele>1.8</ele>
        <time>2020-08-12T21:11:15Z</time>
      </trkpt>
      <trkpt lat="46.338737" lon="-1.282934">
        <ele>1.8</ele>
        <time>2020-08-12T21:11:17Z</time>
      </trkpt>
      <trkpt lat="46.338794" lon="-1.283827">
        <ele>1.2</ele>
        <time>2020-08-12T21:11:21Z</time>
      </trkpt>
      <trkpt lat="46.338891" lon="-1.284643">
        <ele>0.6</ele>
        <time>2020-08-12T21:11:24Z</time>
      </trkpt>
      <trkpt lat="46.338954" lon="-1.285017">
        <ele>0.2</ele>
        <time>2020-08-12T21:11:26Z</time>
      </trkpt>
      <trkpt lat="46.339117" lon="-1.285744">
        <ele>0.2</ele>
        <time>2020-08-12T21:11:29Z</time>
      </trkpt>
      <trkpt lat="46.345371" lon="-1.31076">
        <ele>0.8</ele>
        <time>2020-08-12T21:13:28Z</time>
      </trkpt>
      <trkpt lat="46.345605" lon="-1.311643">
        <ele>0.8</ele>
        <time>2020-08-12T21:13:32Z</time>
      </trkpt>
      <trkpt lat="46.345927" lon="-1.312627">
        <ele>0.6</ele>
        <time>2020-08-12T21:13:37Z</time>
      </trkpt>
      <trkpt lat="46.346105" lon="-1.31299">
        <ele>0.6</ele>
        <time>2020-08-12T21:13:39Z</time>
      </trkpt>
      <trkpt lat="46.34617" lon="-1.31309">
        <ele>0.6</ele>
        <time>2020-08-12T21:13:39Z</time>
      </trkpt>
      <trkpt lat="46.346276" lon="-1.31311">
        <ele>0.6</ele>
        <time>2020-08-12T21:13:40Z</time>
      </trkpt>
      <trkpt lat="46.346365" lon="-1.313175">
        <ele>0.6</ele>
        <time>2020-08-12T21:13:41Z</time>
      </trkpt>
      <trkpt lat="46.34644" lon="-1.313289">
        <ele>0.6</ele>
        <time>2020-08-12T21:13:41Z</time>
      </trkpt>
      <trkpt lat="46.346486" lon="-1.313456">
        <ele>1.0</ele>
        <time>2020-08-12T21:13:42Z</time>
      </trkpt>
      <trkpt lat="46.346488" lon="-1.313597">
        <ele>1.0</ele>
        <time>2020-08-12T21:13:43Z</time>
      </trkpt>
      <trkpt lat="46.346459" lon="-1.313734">
        <ele>1.0</ele>
        <time>2020-08-12T21:13:43Z</time>
      </trkpt>
      <trkpt lat="46.346406" lon="-1.313842">
        <ele>1.0</ele>
        <time>2020-08-12T21:13:44Z</time>
      </trkpt>
      <trkpt lat="46.346344" lon="-1.313914">
        <ele>1.0</ele>
        <time>2020-08-12T21:13:45Z</time>
      </trkpt>
      <trkpt lat="46.346281" lon="-1.314172">
        <ele>0.8</ele>
        <time>2020-08-12T21:13:46Z</time>
      </trkpt>
      <trkpt lat="46.346258" lon="-1.314763">
        <ele>0.8</ele>
        <time>2020-08-12T21:13:48Z</time>
      </trkpt>
      <trkpt lat="46.3463" lon="-1.315462">
        <ele>0.8</ele>
        <time>2020-08-12T21:13:52Z</time>
      </trkpt>
      <trkpt lat="46.346424" lon="-1.316755">
        <ele>1.2</ele>
        <time>2020-08-12T21:13:57Z</time>
      </trkpt>
      <trkpt lat="46.346625" lon="-1.317906">
        <ele>0.8</ele>
        <time>2020-08-12T21:14:03Z</time>
      </trkpt>
      <trkpt lat="46.346983" lon="-1.319394">
        <ele>-0.2</ele>
        <time>2020-08-12T21:14:10Z</time>
      </trkpt>
      <trkpt lat="46.34804" lon="-1.323612">
        <ele>0.6</ele>
        <time>2020-08-12T21:14:30Z</time>
      </trkpt>
      <trkpt lat="46.353318" lon="-1.344938">
        <ele>0.8</ele>
        <time>2020-08-12T21:16:11Z</time>
      </trkpt>
      <trkpt lat="46.353529" lon="-1.345919">
        <ele>1.0</ele>
        <time>2020-08-12T21:16:16Z</time>
      </trkpt>
      <trkpt lat="46.35363" lon="-1.346602">
        <ele>1.0</ele>
        <time>2020-08-12T21:16:19Z</time>
      </trkpt>
      <trkpt lat="46.353655" lon="-1.346848">
        <ele>0.8</ele>
        <time>2020-08-12T21:16:20Z</time>
      </trkpt>
      <trkpt lat="46.353706" lon="-1.347795">
        <ele>0.8</ele>
        <time>2020-08-12T21:16:25Z</time>
      </trkpt>
      <trkpt lat="46.353704" lon="-1.348174">
        <ele>0.8</ele>
        <time>2020-08-12T21:16:26Z</time>
      </trkpt>
      <trkpt lat="46.353647" lon="-1.349218">
        <ele>1.2</ele>
        <time>2020-08-12T21:16:31Z</time>
      </trkpt>
      <trkpt lat="46.353562" lon="-1.349885">
        <ele>1.2</ele>
        <time>2020-08-12T21:16:34Z</time>
      </trkpt>
      <trkpt lat="46.353448" lon="-1.350522">
        <ele>1.4</ele>
        <time>2020-08-12T21:16:37Z</time>
      </trkpt>
      <trkpt lat="46.353368" lon="-1.35086">
        <ele>1.6</ele>
        <time>2020-08-12T21:16:39Z</time>
      </trkpt>
      <trkpt lat="46.352337" lon="-1.354639">
        <ele>1.6</ele>
        <time>2020-08-12T21:16:57Z</time>
      </trkpt>
      <trkpt lat="46.352139" lon="-1.3555">
        <ele>1.8</ele>
        <time>2020-08-12T21:17:01Z</time>
      </trkpt>
      <trkpt lat="46.351995" lon="-1.356442">
        <ele>1.4</ele>
        <time>2020-08-12T21:17:05Z</time>
      </trkpt>
      <trkpt lat="46.351925" lon="-1.357056">
        <ele>1.8</ele>
        <time>2020-08-12T21:17:08Z</time>
      </trkpt>
      <trkpt lat="46.351858" lon="-1.357949">
        <ele>1.4</ele>
        <time>2020-08-12T21:17:12Z</time>
      </trkpt>
      <trkpt lat="46.351848" lon="-1.358933">
        <ele>1.2</ele>
        <time>2020-08-12T21:17:16Z</time>
      </trkpt>
      <trkpt lat="46.351871" lon="-1.359579">
        <ele>2.0</ele>
        <time>2020-08-12T21:17:19Z</time>
      </trkpt>
      <trkpt lat="46.352216" lon="-1.36625">
        <ele>1.2</ele>
        <time>2020-08-12T21:17:49Z</time>
      </trkpt>
      <trkpt lat="46.352275" lon="-1.367154">
        <ele>1.4</ele>
        <time>2020-08-12T21:17:53Z</time>
      </trkpt>
      <trkpt lat="46.352356" lon="-1.367414">
        <ele>1.4</ele>
        <time>2020-08-12T21:17:55Z</time>
      </trkpt>
      <trkpt lat="46.352427" lon="-1.367472">
        <ele>1.4</ele>
        <time>2020-08-12T21:17:55Z</time>
      </trkpt>
      <trkpt lat="46.352511" lon="-1.367616">
        <ele>0.8</ele>
        <time>2020-08-12T21:17:56Z</time>
      </trkpt>
      <trkpt lat="46.352542" lon="-1.367739">
        <ele>0.8</ele>
        <time>2020-08-12T21:17:57Z</time>
      </trkpt>
      <trkpt lat="46.352546" lon="-1.367879">
        <ele>0.8</ele>
        <time>2020-08-12T21:17:57Z</time>
      </trkpt>
      <trkpt lat="46.352516" lon="-1.368024">
        <ele>0.8</ele>
        <time>2020-08-12T21:17:58Z</time>
      </trkpt>
      <trkpt lat="46.352477" lon="-1.368111">
        <ele>1.4</ele>
        <time>2020-08-12T21:17:59Z</time>
      </trkpt>
      <trkpt lat="46.352361" lon="-1.368235">
        <ele>1.4</ele>
        <time>2020-08-12T21:17:59Z</time>
      </trkpt>
      <trkpt lat="46.352302" lon="-1.368465">
        <ele>1.8</ele>
        <time>2020-08-12T21:18:01Z</time>
      </trkpt>
      <trkpt lat="46.3523" lon="-1.368744">
        <ele>1.8</ele>
        <time>2020-08-12T21:18:02Z</time>
      </trkpt>
      <trkpt lat="46.35237" lon="-1.369652">
        <ele>1.4</ele>
        <time>2020-08-12T21:18:06Z</time>
      </trkpt>
      <trkpt lat="46.354238" lon="-1.381035">
        <ele>1.4</ele>
        <time>2020-08-12T21:19:00Z</time>
      </trkpt>
      <trkpt lat="46.354337" lon="-1.381728">
        <ele>1.8</ele>
        <time>2020-08-12T21:19:04Z</time>
      </trkpt>
      <trkpt lat="46.354405" lon="-1.382365">
        <ele>1.8</ele>
        <time>2020-08-12T21:19:06Z</time>
      </trkpt>
      <trkpt lat="46.354456" lon="-1.382972">
        <ele>1.4</ele>
        <time>2020-08-12T21:19:09Z</time>
      </trkpt>
      <trkpt lat="46.354516" lon="-1.384216">
        <ele>0.8</ele>
        <time>2020-08-12T21:19:15Z</time>
      </trkpt>
      <trkpt lat="46.354506" lon="-1.385374">
        <ele>0.6</ele>
        <time>2020-08-12T21:19:20Z</time>
      </trkpt>
      <trkpt lat="46.354484" lon="-1.38597">
        <ele>0.6</ele>
        <time>2020-08-12T21:19:23Z</time>
      </trkpt>
      <trkpt lat="46.354452" lon="-1.386483">
        <ele>0.6</ele>
        <time>2020-08-12T21:19:26Z</time>
      </trkpt>
      <trkpt lat="46.354362" lon="-1.387405">
        <ele>0.6</ele>
        <time>2020-08-12T21:19:30Z</time>
      </trkpt>
      <trkpt lat="46.353584" lon="-1.392926">
        <ele>1.0</ele>
        <time>2020-08-12T21:19:56Z</time>
      </trkpt>
      <trkpt lat="46.3535" lon="-1.393592">
        <ele>0.8</ele>
        <time>2020-08-12T21:19:59Z</time>
      </trkpt>
      <trkpt lat="46.353403" lon="-1.39455">
        <ele>0.8</ele>
        <time>2020-08-12T21:20:04Z</time>
      </trkpt>
      <trkpt lat="46.353366" lon="-1.395105">
        <ele>0.8</ele>
        <time>2020-08-12T21:20:06Z</time>
      </trkpt>
      <trkpt lat="46.353304" lon="-1.39721">
        <ele>1.4</ele>
        <time>2020-08-12T21:20:16Z</time>
      </trkpt>
      <trkpt lat="46.353314" lon="-1.398445">
        <ele>1.8</ele>
        <time>2020-08-12T21:20:22Z</time>
      </trkpt>
      <trkpt lat="46.353412" lon="-1.399954">
        <ele>1.4</ele>
        <time>2020-08-12T21:20:29Z</time>
      </trkpt>
      <trkpt lat="46.353543" lon="-1.401352">
        <ele>0.4</ele>
        <time>2020-08-12T21:20:35Z</time>
      </trkpt>
      <trkpt lat="46.353602" lon="-1.402248">
        <ele>0.6</ele>
        <time>2020-08-12T21:20:39Z</time>
      </trkpt>
      <trkpt lat="46.353672" lon="-1.405833">
        <ele>1.4</ele>
        <time>2020-08-12T21:20:56Z</time>
      </trkpt>
      <trkpt lat="46.353664" lon="-1.407916">
        <ele>1.6</ele>
        <time>2020-08-12T21:21:06Z</time>
      </trkpt>
      <trkpt lat="46.353766" lon="-1.413451">
        <ele>1.2</ele>
        <time>2020-08-12T21:21:31Z</time>
      </trkpt>
      <trkpt lat="46.353869" lon="-1.418007">
        <ele>2.2</ele>
        <time>2020-08-12T21:21:52Z</time>
      </trkpt>
      <trkpt lat="46.353914" lon="-1.421463">
        <ele>2.0</ele>
        <time>2020-08-12T21:22:08Z</time>
      </trkpt>
      <trkpt lat="46.353993" lon="-1.422825">
        <ele>2.0</ele>
        <time>2020-08-12T21:22:15Z</time>
      </trkpt>
      <trkpt lat="46.354185" lon="-1.423666">
        <ele>1.6</ele>
        <time>2020-08-12T21:22:19Z</time>
      </trkpt>
      <trkpt lat="46.354284" lon="-1.423889">
        <ele>1.6</ele>
        <time>2020-08-12T21:22:20Z</time>
      </trkpt>
      <trkpt lat="46.354402" lon="-1.423971">
        <ele>1.6</ele>
        <time>2020-08-12T21:22:21Z</time>
      </trkpt>
      <trkpt lat="46.354482" lon="-1.42411">
        <ele>1.6</ele>
        <time>2020-08-12T21:22:22Z</time>
      </trkpt>
      <trkpt lat="46.354506" lon="-1.424189">
        <ele>1.8</ele>
        <time>2020-08-12T21:22:23Z</time>
      </trkpt>
      <trkpt lat="46.354518" lon="-1.42436">
        <ele>1.8</ele>
        <time>2020-08-12T21:22:24Z</time>
      </trkpt>
      <trkpt lat="46.354482" lon="-1.424535">
        <ele>1.8</ele>
        <time>2020-08-12T21:22:25Z</time>
      </trkpt>
      <trkpt lat="46.354394" lon="-1.42468">
        <ele>1.8</ele>
        <time>2020-08-12T21:22:26Z</time>
      </trkpt>
      <trkpt lat="46.354271" lon="-1.424758">
        <ele>1.8</ele>
        <time>2020-08-12T21:22:28Z</time>
      </trkpt>
      <trkpt lat="46.354221" lon="-1.424818">
        <ele>1.8</ele>
        <time>2020-08-12T21:22:28Z</time>
      </trkpt>
      <trkpt lat="46.354002" lon="-1.42538">
        <ele>1.6</ele>
        <time>2020-08-12T21:22:33Z</time>
      </trkpt>
      <trkpt lat="46.353843" lon="-1.425671">
        <ele>1.6</ele>
        <time>2020-08-12T21:22:35Z</time>
      </trkpt>
      <trkpt lat="46.353324" lon="-1.426719">
        <ele>0.8</ele>
        <time>2020-08-12T21:22:44Z</time>
      </trkpt>
      <trkpt lat="46.352938" lon="-1.42762">
        <ele>1.2</ele>
        <time>2020-08-12T21:22:50Z</time>
      </trkpt>
      <trkpt lat="46.352678" lon="-1.428096">
        <ele>1.2</ele>
        <time>2020-08-12T21:22:54Z</time>
      </trkpt>
      <trkpt lat="46.352553" lon="-1.428238">
        <ele>1.2</ele>
        <time>2020-08-12T21:22:56Z</time>
      </trkpt>
      <trkpt lat="46.352379" lon="-1.428552">
        <ele>1.6</ele>
        <time>2020-08-12T21:22:59Z</time>
      </trkpt>
      <trkpt lat="46.352274" lon="-1.428705">
        <ele>1.6</ele>
        <time>2020-08-12T21:23:00Z</time>
      </trkpt>
      <trkpt lat="46.3522" lon="-1.428953">
        <ele>1.6</ele>
        <time>2020-08-12T21:23:02Z</time>
      </trkpt>
      <trkpt lat="46.352187" lon="-1.42918">
        <ele>1.6</ele>
        <time>2020-08-12T21:23:03Z</time>
      </trkpt>
      <trkpt lat="46.352161" lon="-1.429253">
        <ele>1.6</ele>
        <time>2020-08-12T21:23:04Z</time>
      </trkpt>
      <trkpt lat="46.352067" lon="-1.429418">
        <ele>1.6</ele>
        <time>2020-08-12T21:23:05Z</time>
      </trkpt>
      <trkpt lat="46.352008" lon="-1.429478">
        <ele>1.6</ele>
        <time>2020-08-12T21:23:06Z</time>
      </trkpt>
      <trkpt lat="46.351859" lon="-1.429511">
        <ele>1.6</ele>
        <time>2020-08-12T21:23:07Z</time>
      </trkpt>
      <trkpt lat="46.351753" lon="-1.429503">
        <ele>1.6</ele>
        <time>2020-08-12T21:23:08Z</time>
      </trkpt>
      <trkpt lat="46.351658" lon="-1.429556">
        <ele>2.0</ele>
        <time>2020-08-12T21:23:09Z</time>
      </trkpt>
      <trkpt lat="46.351397" lon="-1.429964">
        <ele>2.0</ele>
        <time>2020-08-12T21:23:13Z</time>
      </trkpt>
      <trkpt lat="46.351071" lon="-1.430238">
        <ele>1.6</ele>
        <time>2020-08-12T21:23:17Z</time>
      </trkpt>
      <trkpt lat="46.351008" lon="-1.430324">
        <ele>1.6</ele>
        <time>2020-08-12T21:23:17Z</time>
      </trkpt>
      <trkpt lat="46.350874" lon="-1.430618">
        <ele>1.6</ele>
        <time>2020-08-12T21:23:20Z</time>
      </trkpt>
      <trkpt lat="46.350757" lon="-1.432024">
        <ele>2.2</ele>
        <time>2020-08-12T21:23:30Z</time>
      </trkpt>
      <trkpt lat="46.350354" lon="-1.435857">
        <ele>2.2</ele>
        <time>2020-08-12T21:23:57Z</time>
      </trkpt>
      <trkpt lat="46.350216" lon="-1.436688">
        <ele>1.6</ele>
        <time>2020-08-12T21:24:03Z</time>
      </trkpt>
      <trkpt lat="46.349955" lon="-1.437726">
        <ele>1.0</ele>
        <time>2020-08-12T21:24:11Z</time>
      </trkpt>
      <trkpt lat="46.349258" lon="-1.439785">
        <ele>1.6</ele>
        <time>2020-08-12T21:24:27Z</time>
      </trkpt>
      <trkpt lat="46.349071" lon="-1.440197">
        <ele>3.2</ele>
        <time>2020-08-12T21:24:31Z</time>
      </trkpt>
      <trkpt lat="46.349138" lon="-1.440248">
        <ele>3.2</ele>
        <time>2020-08-12T21:24:32Z</time>
      </trkpt>
      <trkpt lat="46.349335" lon="-1.44048">
        <ele>1.8</ele>
        <time>2020-08-12T21:24:37Z</time>
      </trkpt>
      <trkpt lat="46.349587" lon="-1.440839">
        <ele>2.0</ele>
        <time>2020-08-12T21:24:43Z</time>
      </trkpt>
      <trkpt lat="46.349743" lon="-1.44119">
        <ele>2.0</ele>
        <time>2020-08-12T21:24:49Z</time>
      </trkpt>
      <trkpt lat="46.350164" lon="-1.442344">
        <ele>1.4</ele>
        <time>2020-08-12T21:25:05Z</time>
      </trkpt>
      <trkpt lat="46.350544" lon="-1.443023">
        <ele>2.2</ele>
        <time>2020-08-12T21:25:16Z</time>
      </trkpt>
      <trkpt lat="46.350587" lon="-1.44306">
        <ele>2.2</ele>
        <time>2020-08-12T21:25:17Z</time>
      </trkpt>
      <trkpt lat="46.350671" lon="-1.443075">
        <ele>2.2</ele>
        <time>2020-08-12T21:25:19Z</time>
      </trkpt>
      <trkpt lat="46.35098" lon="-1.442993">
        <ele>1.6</ele>
        <time>2020-08-12T21:25:25Z</time>
      </trkpt>
      <trkpt lat="46.351156" lon="-1.442896">
        <ele>1.6</ele>
        <time>2020-08-12T21:25:28Z</time>
      </trkpt>
      <trkpt lat="46.351206" lon="-1.442894">
        <ele>1.6</ele>
        <time>2020-08-12T21:25:29Z</time>
      </trkpt>
      <trkpt lat="46.351771" lon="-1.443243">
        <ele>1.6</ele>
        <time>2020-08-12T21:25:40Z</time>
      </trkpt>
      <trkpt lat="46.351843" lon="-1.44324">
        <ele>1.6</ele>
        <time>2020-08-12T21:25:42Z</time>
      </trkpt>
      <trkpt lat="46.351892" lon="-1.443181">
        <ele>1.6</ele>
        <time>2020-08-12T21:25:43Z</time>
      </trkpt>
      <trkpt lat="46.35276" lon="-1.441145">
        <ele>1.4</ele>
        <time>2020-08-12T21:26:13Z</time>
      </trkpt>
      <trkpt lat="46.352836" lon="-1.441059">
        <ele>1.4</ele>
        <time>2020-08-12T21:26:15Z</time>
      </trkpt>
      <trkpt lat="46.353551" lon="-1.440923">
        <ele>0.8</ele>
        <time>2020-08-12T21:26:28Z</time>
      </trkpt>
      <trkpt lat="46.355468" lon="-1.440662">
        <ele>2.0</ele>
        <time>2020-08-12T21:27:04Z</time>
      </trkpt>
      <trkpt lat="46.355536" lon="-1.44069">
        <ele>2.0</ele>
        <time>2020-08-12T21:27:05Z</time>
      </trkpt>
      <trkpt lat="46.355562" lon="-1.44077">
        <ele>2.0</ele>
        <time>2020-08-12T21:27:06Z</time>
      </trkpt>
      <trkpt lat="46.355692" lon="-1.442042">
        <ele>1.8</ele>
        <time>2020-08-12T21:27:22Z</time>
      </trkpt>
      <trkpt lat="46.355683" lon="-1.442768">
        <ele>1.4</ele>
        <time>2020-08-12T21:27:32Z</time>
      </trkpt>
      <trkpt lat="46.355699" lon="-1.44289">
        <ele>1.4</ele>
        <time>2020-08-12T21:27:33Z</time>
      </trkpt>
      <trkpt lat="46.355769" lon="-1.443052">
        <ele>1.6</ele>
        <time>2020-08-12T21:27:36Z</time>
      </trkpt>
      <trkpt lat="46.355769" lon="-1.443052">
        <ele>1.6</ele>
        <time>2020-08-12T21:27:36Z</time>
      </trkpt>
      <trkpt lat="46.356158" lon="-1.443966">
        <ele>1.8</ele>
        <time>2020-08-12T21:27:49Z</time>
      </trkpt>
      <trkpt lat="46.356645" lon="-1.44486">
        <ele>1.4</ele>
        <time>2020-08-12T21:28:04Z</time>
      </trkpt>
      <trkpt lat="46.35705" lon="-1.445545">
        <ele>2.0</ele>
        <time>2020-08-12T21:28:15Z</time>
      </trkpt>
      <trkpt lat="46.357075" lon="-1.445655">
        <ele>2.0</ele>
        <time>2020-08-12T21:28:17Z</time>
      </trkpt>
      <trkpt lat="46.357089" lon="-1.446021">
        <ele>2.2</ele>
        <time>2020-08-12T21:28:21Z</time>
      </trkpt>
      <trkpt lat="46.357143" lon="-1.446179">
        <ele>2.2</ele>
        <time>2020-08-12T21:28:24Z</time>
      </trkpt>
      <trkpt lat="46.357595" lon="-1.446887">
        <ele>1.2</ele>
        <time>2020-08-12T21:28:36Z</time>
      </trkpt>
      <trkpt lat="46.357831" lon="-1.447357">
        <ele>1.2</ele>
        <time>2020-08-12T21:28:43Z</time>
      </trkpt>
      <trkpt lat="46.357954" lon="-1.447548">
        <ele>0.4</ele>
        <time>2020-08-12T21:28:47Z</time>
      </trkpt>
      <trkpt lat="46.358392" lon="-1.448184">
        <ele>1.0</ele>
        <time>2020-08-12T21:28:58Z</time>
      </trkpt>
      <trkpt lat="46.35878" lon="-1.44871">
        <ele>0.8</ele>
        <time>2020-08-12T21:29:08Z</time>
      </trkpt>
      <trkpt lat="46.358994" lon="-1.449043">
        <ele>0.8</ele>
        <time>2020-08-12T21:29:14Z</time>
      </trkpt>
      <trkpt lat="46.359245" lon="-1.449632">
        <ele>1.2</ele>
        <time>2020-08-12T21:29:22Z</time>
      </trkpt>
      <trkpt lat="46.359362" lon="-1.449873">
        <ele>1.2</ele>
        <time>2020-08-12T21:29:26Z</time>
      </trkpt>
      <trkpt lat="46.359626" lon="-1.450311">
        <ele>1.0</ele>
        <time>2020-08-12T21:29:34Z</time>
      </trkpt>
      <trkpt lat="46.360151" lon="-1.451427">
        <ele>2.4</ele>
        <time>2020-08-12T21:29:51Z</time>
      </trkpt>
      <trkpt lat="46.360166" lon="-1.451642">
        <ele>2.4</ele>
        <time>2020-08-12T21:29:54Z</time>
      </trkpt>
      <trkpt lat="46.360479" lon="-1.451617">
        <ele>2.4</ele>
        <time>2020-08-12T21:29:57Z</time>
      </trkpt>
      <trkpt lat="46.361025" lon="-1.451627">
        <ele>2.8</ele>
        <time>2020-08-12T21:30:04Z</time>
      </trkpt>
      <trkpt lat="46.361484" lon="-1.45161">
        <ele>2.8</ele>
        <time>2020-08-12T21:30:10Z</time>
      </trkpt>
      <trkpt lat="46.361758" lon="-1.45155">
        <ele>1.8</ele>
        <time>2020-08-12T21:30:13Z</time>
      </trkpt>
      <trkpt lat="46.361929" lon="-1.451377">
        <ele>1.8</ele>
        <time>2020-08-12T21:30:16Z</time>
      </trkpt>
      <trkpt lat="46.364171" lon="-1.455074">
        <ele>2.0</ele>
        <time>2020-08-12T21:30:45Z</time>
      </trkpt>
      <trkpt lat="46.364462" lon="-1.455525">
        <ele>2.0</ele>
        <time>2020-08-12T21:30:49Z</time>
      </trkpt>
      <trkpt lat="46.364766" lon="-1.455952">
        <ele>2.6</ele>
        <time>2020-08-12T21:30:53Z</time>
      </trkpt>
      <trkpt lat="46.36507" lon="-1.456319">
        <ele>2.8</ele>
        <time>2020-08-12T21:30:56Z</time>
      </trkpt>
      <trkpt lat="46.36537" lon="-1.45664">
        <ele>2.8</ele>
        <time>2020-08-12T21:30:59Z</time>
      </trkpt>
      <trkpt lat="46.36562" lon="-1.456874">
        <ele>3.2</ele>
        <time>2020-08-12T21:31:02Z</time>
      </trkpt>
      <trkpt lat="46.366366" lon="-1.457505">
        <ele>4.4</ele>
        <time>2020-08-12T21:31:09Z</time>
      </trkpt>
      <trkpt lat="46.373888" lon="-1.46241">
        <ele>9.0</ele>
        <time>2020-08-12T21:32:21Z</time>
      </trkpt>
      <trkpt lat="46.376573" lon="-1.464444">
        <ele>8.4</ele>
        <time>2020-08-12T21:32:47Z</time>
      </trkpt>
      <trkpt lat="46.376733" lon="-1.464545">
        <ele>10.6</ele>
        <time>2020-08-12T21:32:49Z</time>
      </trkpt>
      <trkpt lat="46.37712" lon="-1.464697">
        <ele>10.6</ele>
        <time>2020-08-12T21:32:52Z</time>
      </trkpt>
      <trkpt lat="46.377657" lon="-1.46482">
        <ele>12.2</ele>
        <time>2020-08-12T21:32:57Z</time>
      </trkpt>
      <trkpt lat="46.378212" lon="-1.465003">
        <ele>15.6</ele>
        <time>2020-08-12T21:33:02Z</time>
      </trkpt>
      <trkpt lat="46.380233" lon="-1.465788">
        <ele>10.8</ele>
        <time>2020-08-12T21:33:20Z</time>
      </trkpt>
      <trkpt lat="46.38042" lon="-1.465844">
        <ele>17.8</ele>
        <time>2020-08-12T21:33:22Z</time>
      </trkpt>
      <trkpt lat="46.380686" lon="-1.465843">
        <ele>17.8</ele>
        <time>2020-08-12T21:33:24Z</time>
      </trkpt>
      <trkpt lat="46.380935" lon="-1.465776">
        <ele>9.0</ele>
        <time>2020-08-12T21:33:26Z</time>
      </trkpt>
      <trkpt lat="46.381286" lon="-1.465751">
        <ele>9.0</ele>
        <time>2020-08-12T21:33:29Z</time>
      </trkpt>
      <trkpt lat="46.381585" lon="-1.465792">
        <ele>9.0</ele>
        <time>2020-08-12T21:33:32Z</time>
      </trkpt>
      <trkpt lat="46.382323" lon="-1.46595">
        <ele>12.8</ele>
        <time>2020-08-12T21:33:38Z</time>
      </trkpt>
      <trkpt lat="46.382548" lon="-1.465965">
        <ele>12.0</ele>
        <time>2020-08-12T21:33:40Z</time>
      </trkpt>
      <trkpt lat="46.382823" lon="-1.465942">
        <ele>12.0</ele>
        <time>2020-08-12T21:33:43Z</time>
      </trkpt>
      <trkpt lat="46.383467" lon="-1.465762">
        <ele>8.6</ele>
        <time>2020-08-12T21:33:48Z</time>
      </trkpt>
      <trkpt lat="46.383729" lon="-1.465733">
        <ele>8.6</ele>
        <time>2020-08-12T21:33:51Z</time>
      </trkpt>
      <trkpt lat="46.383873" lon="-1.465745">
        <ele>8.6</ele>
        <time>2020-08-12T21:33:52Z</time>
      </trkpt>
      <trkpt lat="46.384249" lon="-1.465851">
        <ele>10.0</ele>
        <time>2020-08-12T21:33:55Z</time>
      </trkpt>
      <trkpt lat="46.384422" lon="-1.465972">
        <ele>10.0</ele>
        <time>2020-08-12T21:33:57Z</time>
      </trkpt>
      <trkpt lat="46.384684" lon="-1.466195">
        <ele>10.0</ele>
        <time>2020-08-12T21:34:00Z</time>
      </trkpt>
      <trkpt lat="46.385209" lon="-1.466678">
        <ele>6.8</ele>
        <time>2020-08-12T21:34:05Z</time>
      </trkpt>
      <trkpt lat="46.385464" lon="-1.466949">
        <ele>6.8</ele>
        <time>2020-08-12T21:34:08Z</time>
      </trkpt>
      <trkpt lat="46.385612" lon="-1.467175">
        <ele>6.8</ele>
        <time>2020-08-12T21:34:10Z</time>
      </trkpt>
      <trkpt lat="46.385867" lon="-1.46769">
        <ele>5.4</ele>
        <time>2020-08-12T21:34:13Z</time>
      </trkpt>
      <trkpt lat="46.385966" lon="-1.467818">
        <ele>5.4</ele>
        <time>2020-08-12T21:34:15Z</time>
      </trkpt>
      <trkpt lat="46.386161" lon="-1.468003">
        <ele>5.4</ele>
        <time>2020-08-12T21:34:17Z</time>
      </trkpt>
      <trkpt lat="46.386475" lon="-1.468222">
        <ele>5.4</ele>
        <time>2020-08-12T21:34:20Z</time>
      </trkpt>
      <trkpt lat="46.386266" lon="-1.46897">
        <ele>6.0</ele>
        <time>2020-08-12T21:34:28Z</time>
      </trkpt>
      <trkpt lat="46.386244" lon="-1.469127">
        <ele>6.0</ele>
        <time>2020-08-12T21:34:30Z</time>
      </trkpt>
      <trkpt lat="46.386231" lon="-1.46958">
        <ele>6.4</ele>
        <time>2020-08-12T21:34:35Z</time>
      </trkpt>
      <trkpt lat="46.386246" lon="-1.469852">
        <ele>6.4</ele>
        <time>2020-08-12T21:34:38Z</time>
      </trkpt>
      <trkpt lat="46.386707" lon="-1.469959">
        <ele>6.0</ele>
        <time>2020-08-12T21:34:45Z</time>
      </trkpt>
      <trkpt lat="46.386869" lon="-1.470089">
        <ele>6.6</ele>
        <time>2020-08-12T21:34:48Z</time>
      </trkpt>
      <trkpt lat="46.386979" lon="-1.47022">
        <ele>6.6</ele>
        <time>2020-08-12T21:34:50Z</time>
      </trkpt>
      <trkpt lat="46.387395" lon="-1.470479">
        <ele>6.6</ele>
        <time>2020-08-12T21:34:57Z</time>
      </trkpt>
      <trkpt lat="46.387545" lon="-1.470655">
        <ele>6.6</ele>
        <time>2020-08-12T21:35:00Z</time>
      </trkpt>
      <trkpt lat="46.387613" lon="-1.470674">
        <ele>6.6</ele>
        <time>2020-08-12T21:35:01Z</time>
      </trkpt>
      <trkpt lat="46.387968" lon="-1.470679">
        <ele>6.6</ele>
        <time>2020-08-12T21:35:06Z</time>
      </trkpt>
      <trkpt lat="46.387973" lon="-1.470801">
        <ele>6.6</ele>
        <time>2020-08-12T21:35:08Z</time>
      </trkpt>
      <trkpt lat="46.388553" lon="-1.470948">
        <ele>11.0</ele>
        <time>2020-08-12T21:35:19Z</time>
      </trkpt>
      <trkpt lat="46.388581" lon="-1.470912">
        <ele>11.0</ele>
        <time>2020-08-12T21:35:20Z</time>
      </trkpt>
      <trkpt lat="46.388614" lon="-1.470764">
        <ele>6.4</ele>
        <time>2020-08-12T21:35:22Z</time>
      </trkpt>
      <trkpt lat="46.389574" lon="-1.471464">
        <ele>10.6</ele>
        <time>2020-08-12T21:35:32Z</time>
      </trkpt>
      <trkpt lat="46.389718" lon="-1.471532">
        <ele>10.6</ele>
        <time>2020-08-12T21:35:34Z</time>
      </trkpt>
      <trkpt lat="46.389993" lon="-1.471605">
        <ele>10.6</ele>
        <time>2020-08-12T21:35:36Z</time>
      </trkpt>
      <trkpt lat="46.390268" lon="-1.471744">
        <ele>16.2</ele>
        <time>2020-08-12T21:35:39Z</time>
      </trkpt>
      <trkpt lat="46.39048" lon="-1.471936">
        <ele>16.2</ele>
        <time>2020-08-12T21:35:41Z</time>
      </trkpt>
      <trkpt lat="46.390615" lon="-1.472122">
        <ele>16.2</ele>
        <time>2020-08-12T21:35:43Z</time>
      </trkpt>
      <trkpt lat="46.391111" lon="-1.473023">
        <ele>14.8</ele>
        <time>2020-08-12T21:35:51Z</time>
      </trkpt>
      <trkpt lat="46.39125" lon="-1.47333">
        <ele>14.8</ele>
        <time>2020-08-12T21:35:53Z</time>
      </trkpt>
      <trkpt lat="46.391481" lon="-1.473938">
        <ele>15.2</ele>
        <time>2020-08-12T21:35:58Z</time>
      </trkpt>
      <trkpt lat="46.391576" lon="-1.474133">
        <ele>15.2</ele>
        <time>2020-08-12T21:35:59Z</time>
      </trkpt>
      <trkpt lat="46.392137" lon="-1.474807">
        <ele>12.0</ele>
        <time>2020-08-12T21:36:06Z</time>
      </trkpt>
      <trkpt lat="46.392215" lon="-1.47494">
        <ele>12.0</ele>
        <time>2020-08-12T21:36:08Z</time>
      </trkpt>
      <trkpt lat="46.392349" lon="-1.475279">
        <ele>13.0</ele>
        <time>2020-08-12T21:36:10Z</time>
      </trkpt>
      <trkpt lat="46.392392" lon="-1.475477">
        <ele>13.0</ele>
        <time>2020-08-12T21:36:11Z</time>
      </trkpt>
      <trkpt lat="46.392512" lon="-1.476572">
        <ele>8.4</ele>
        <time>2020-08-12T21:36:19Z</time>
      </trkpt>
      <trkpt lat="46.392861" lon="-1.478869">
        <ele>7.0</ele>
        <time>2020-08-12T21:36:34Z</time>
      </trkpt>
      <trkpt lat="46.392933" lon="-1.479866">
        <ele>7.2</ele>
        <time>2020-08-12T21:36:41Z</time>
      </trkpt>
      <trkpt lat="46.392944" lon="-1.480266">
        <ele>8.8</ele>
        <time>2020-08-12T21:36:43Z</time>
      </trkpt>
      <trkpt lat="46.392945" lon="-1.481986">
        <ele>7.4</ele>
        <time>2020-08-12T21:36:55Z</time>
      </trkpt>
      <trkpt lat="46.392958" lon="-1.482179">
        <ele>7.4</ele>
        <time>2020-08-12T21:36:56Z</time>
      </trkpt>
      <trkpt lat="46.393002" lon="-1.482469">
        <ele>7.4</ele>
        <time>2020-08-12T21:36:58Z</time>
      </trkpt>
      <trkpt lat="46.393079" lon="-1.482742">
        <ele>6.6</ele>
        <time>2020-08-12T21:37:00Z</time>
      </trkpt>
      <trkpt lat="46.393241" lon="-1.483098">
        <ele>6.6</ele>
        <time>2020-08-12T21:37:03Z</time>
      </trkpt>
      <trkpt lat="46.394003" lon="-1.484546">
        <ele>5.6</ele>
        <time>2020-08-12T21:37:15Z</time>
      </trkpt>
      <trkpt lat="46.394139" lon="-1.484736">
        <ele>5.6</ele>
        <time>2020-08-12T21:37:17Z</time>
      </trkpt>
      <trkpt lat="46.394336" lon="-1.484964">
        <ele>5.0</ele>
        <time>2020-08-12T21:37:19Z</time>
      </trkpt>
      <trkpt lat="46.394524" lon="-1.485116">
        <ele>7.6</ele>
        <time>2020-08-12T21:37:21Z</time>
      </trkpt>
      <trkpt lat="46.3946" lon="-1.485146">
        <ele>7.6</ele>
        <time>2020-08-12T21:37:22Z</time>
      </trkpt>
      <trkpt lat="46.394786" lon="-1.485154">
        <ele>7.6</ele>
        <time>2020-08-12T21:37:24Z</time>
      </trkpt>
      <trkpt lat="46.394966" lon="-1.485104">
        <ele>7.6</ele>
        <time>2020-08-12T21:37:25Z</time>
      </trkpt>
      <trkpt lat="46.395136" lon="-1.48498">
        <ele>7.8</ele>
        <time>2020-08-12T21:37:27Z</time>
      </trkpt>
      <trkpt lat="46.395536" lon="-1.484535">
        <ele>7.8</ele>
        <time>2020-08-12T21:37:32Z</time>
      </trkpt>
      <trkpt lat="46.396596" lon="-1.48359">
        <ele>9.0</ele>
        <time>2020-08-12T21:37:44Z</time>
      </trkpt>
      <trkpt lat="46.396916" lon="-1.4834">
        <ele>10.6</ele>
        <time>2020-08-12T21:37:47Z</time>
      </trkpt>
      <trkpt lat="46.396999" lon="-1.483372">
        <ele>10.6</ele>
        <time>2020-08-12T21:37:48Z</time>
      </trkpt>
      <trkpt lat="46.397353" lon="-1.483369">
        <ele>10.6</ele>
        <time>2020-08-12T21:37:51Z</time>
      </trkpt>
      <trkpt lat="46.397465" lon="-1.483397">
        <ele>10.6</ele>
        <time>2020-08-12T21:37:52Z</time>
      </trkpt>
      <trkpt lat="46.397732" lon="-1.483547">
        <ele>12.0</ele>
        <time>2020-08-12T21:37:55Z</time>
      </trkpt>
      <trkpt lat="46.398379" lon="-1.484006">
        <ele>11.2</ele>
        <time>2020-08-12T21:38:02Z</time>
      </trkpt>
      <trkpt lat="46.398499" lon="-1.484064">
        <ele>11.2</ele>
        <time>2020-08-12T21:38:03Z</time>
      </trkpt>
      <trkpt lat="46.399146" lon="-1.484205">
        <ele>13.4</ele>
        <time>2020-08-12T21:38:10Z</time>
      </trkpt>
      <trkpt lat="46.399346" lon="-1.484303">
        <ele>12.8</ele>
        <time>2020-08-12T21:38:12Z</time>
      </trkpt>
      <trkpt lat="46.399532" lon="-1.484421">
        <ele>12.8</ele>
        <time>2020-08-12T21:38:13Z</time>
      </trkpt>
      <trkpt lat="46.399683" lon="-1.484554">
        <ele>12.8</ele>
        <time>2020-08-12T21:38:15Z</time>
      </trkpt>
      <trkpt lat="46.400003" lon="-1.484918">
        <ele>10.4</ele>
        <time>2020-08-12T21:38:19Z</time>
      </trkpt>
      <trkpt lat="46.400754" lon="-1.485432">
        <ele>12.4</ele>
        <time>2020-08-12T21:38:27Z</time>
      </trkpt>
      <trkpt lat="46.401481" lon="-1.48601">
        <ele>9.8</ele>
        <time>2020-08-12T21:38:35Z</time>
      </trkpt>
      <trkpt lat="46.401643" lon="-1.486116">
        <ele>9.8</ele>
        <time>2020-08-12T21:38:37Z</time>
      </trkpt>
      <trkpt lat="46.401783" lon="-1.486177">
        <ele>7.4</ele>
        <time>2020-08-12T21:38:38Z</time>
      </trkpt>
      <trkpt lat="46.402234" lon="-1.486265">
        <ele>7.4</ele>
        <time>2020-08-12T21:38:42Z</time>
      </trkpt>
      <trkpt lat="46.402361" lon="-1.486313">
        <ele>7.4</ele>
        <time>2020-08-12T21:38:44Z</time>
      </trkpt>
      <trkpt lat="46.40249" lon="-1.486404">
        <ele>7.4</ele>
        <time>2020-08-12T21:38:45Z</time>
      </trkpt>
      <trkpt lat="46.402718" lon="-1.486652">
        <ele>6.0</ele>
        <time>2020-08-12T21:38:48Z</time>
      </trkpt>
      <trkpt lat="46.404498" lon="-1.488923">
        <ele>8.2</ele>
        <time>2020-08-12T21:39:10Z</time>
      </trkpt>
      <trkpt lat="46.405102" lon="-1.489676">
        <ele>10.2</ele>
        <time>2020-08-12T21:39:18Z</time>
      </trkpt>
      <trkpt lat="46.405295" lon="-1.489889">
        <ele>10.2</ele>
        <time>2020-08-12T21:39:20Z</time>
      </trkpt>
      <trkpt lat="46.406025" lon="-1.490539">
        <ele>10.2</ele>
        <time>2020-08-12T21:39:28Z</time>
      </trkpt>
      <trkpt lat="46.40687" lon="-1.491225">
        <ele>11.2</ele>
        <time>2020-08-12T21:39:38Z</time>
      </trkpt>
      <trkpt lat="46.407537" lon="-1.491728">
        <ele>13.8</ele>
        <time>2020-08-12T21:39:45Z</time>
      </trkpt>
      <trkpt lat="46.407799" lon="-1.491957">
        <ele>13.8</ele>
        <time>2020-08-12T21:39:48Z</time>
      </trkpt>
      <trkpt lat="46.408577" lon="-1.492826">
        <ele>13.4</ele>
        <time>2020-08-12T21:39:57Z</time>
      </trkpt>
      <trkpt lat="46.408601" lon="-1.492783">
        <ele>13.4</ele>
        <time>2020-08-12T21:39:58Z</time>
      </trkpt>
      <trkpt lat="46.408673" lon="-1.49273">
        <ele>13.4</ele>
        <time>2020-08-12T21:39:59Z</time>
      </trkpt>
      <trkpt lat="46.408723" lon="-1.492728">
        <ele>13.4</ele>
        <time>2020-08-12T21:40:00Z</time>
      </trkpt>
      <trkpt lat="46.408793" lon="-1.49277">
        <ele>13.4</ele>
        <time>2020-08-12T21:40:00Z</time>
      </trkpt>
      <trkpt lat="46.408824" lon="-1.492816">
        <ele>13.4</ele>
        <time>2020-08-12T21:40:01Z</time>
      </trkpt>
      <trkpt lat="46.408851" lon="-1.492924">
        <ele>13.4</ele>
        <time>2020-08-12T21:40:02Z</time>
      </trkpt>
      <trkpt lat="46.408848" lon="-1.492989">
        <ele>13.4</ele>
        <time>2020-08-12T21:40:03Z</time>
      </trkpt>
      <trkpt lat="46.408817" lon="-1.493081">
        <ele>13.4</ele>
        <time>2020-08-12T21:40:04Z</time>
      </trkpt>
      <trkpt lat="46.408784" lon="-1.493123">
        <ele>13.4</ele>
        <time>2020-08-12T21:40:04Z</time>
      </trkpt>
      <trkpt lat="46.4091" lon="-1.493551">
        <ele>14.2</ele>
        <time>2020-08-12T21:40:09Z</time>
      </trkpt>
      <trkpt lat="46.409293" lon="-1.493778">
        <ele>13.4</ele>
        <time>2020-08-12T21:40:13Z</time>
      </trkpt>
      <trkpt lat="46.409676" lon="-1.494154">
        <ele>13.4</ele>
        <time>2020-08-12T21:40:18Z</time>
      </trkpt>
      <trkpt lat="46.409835" lon="-1.494267">
        <ele>17.0</ele>
        <time>2020-08-12T21:40:21Z</time>
      </trkpt>
      <trkpt lat="46.410053" lon="-1.494358">
        <ele>14.8</ele>
        <time>2020-08-12T21:40:24Z</time>
      </trkpt>
      <trkpt lat="46.4102" lon="-1.494378">
        <ele>14.8</ele>
        <time>2020-08-12T21:40:25Z</time>
      </trkpt>
      <trkpt lat="46.41055" lon="-1.494356">
        <ele>14.8</ele>
        <time>2020-08-12T21:40:30Z</time>
      </trkpt>
      <trkpt lat="46.410863" lon="-1.496852">
        <ele>13.2</ele>
        <time>2020-08-12T21:40:47Z</time>
      </trkpt>
      <trkpt lat="46.410921" lon="-1.497197">
        <ele>13.2</ele>
        <time>2020-08-12T21:40:49Z</time>
      </trkpt>
      <trkpt lat="46.411518" lon="-1.499743">
        <ele>17.2</ele>
        <time>2020-08-12T21:41:07Z</time>
      </trkpt>
      <trkpt lat="46.411562" lon="-1.500043">
        <ele>18.2</ele>
        <time>2020-08-12T21:41:09Z</time>
      </trkpt>
      <trkpt lat="46.411502" lon="-1.503282">
        <ele>17.4</ele>
        <time>2020-08-12T21:41:30Z</time>
      </trkpt>
      <trkpt lat="46.411513" lon="-1.505202">
        <ele>20.0</ele>
        <time>2020-08-12T21:41:43Z</time>
      </trkpt>
      <trkpt lat="46.411599" lon="-1.506197">
        <ele>21.4</ele>
        <time>2020-08-12T21:41:49Z</time>
      </trkpt>
      <trkpt lat="46.411737" lon="-1.509095">
        <ele>18.4</ele>
        <time>2020-08-12T21:42:08Z</time>
      </trkpt>
      <trkpt lat="46.411839" lon="-1.510567">
        <ele>21.8</ele>
        <time>2020-08-12T21:42:18Z</time>
      </trkpt>
      <trkpt lat="46.411874" lon="-1.510732">
        <ele>21.8</ele>
        <time>2020-08-12T21:42:19Z</time>
      </trkpt>
      <trkpt lat="46.411951" lon="-1.510882">
        <ele>24.2</ele>
        <time>2020-08-12T21:42:20Z</time>
      </trkpt>
      <trkpt lat="46.413105" lon="-1.512522">
        <ele>25.2</ele>
        <time>2020-08-12T21:42:36Z</time>
      </trkpt>
      <trkpt lat="46.413161" lon="-1.512625">
        <ele>25.2</ele>
        <time>2020-08-12T21:42:37Z</time>
      </trkpt>
      <trkpt lat="46.413204" lon="-1.512751">
        <ele>25.2</ele>
        <time>2020-08-12T21:42:38Z</time>
      </trkpt>
      <trkpt lat="46.413227" lon="-1.512889">
        <ele>25.2</ele>
        <time>2020-08-12T21:42:39Z</time>
      </trkpt>
      <trkpt lat="46.413297" lon="-1.513754">
        <ele>25.4</ele>
        <time>2020-08-12T21:42:44Z</time>
      </trkpt>
      <trkpt lat="46.413679" lon="-1.517347">
        <ele>18.0</ele>
        <time>2020-08-12T21:43:08Z</time>
      </trkpt>
      <trkpt lat="46.420472" lon="-1.517872">
        <ele>14.4</ele>
        <time>2020-08-12T21:44:27Z</time>
      </trkpt>
      <trkpt lat="46.420996" lon="-1.517904">
        <ele>14.2</ele>
        <time>2020-08-12T21:44:33Z</time>
      </trkpt>
      <trkpt lat="46.421423" lon="-1.517891">
        <ele>14.2</ele>
        <time>2020-08-12T21:44:38Z</time>
      </trkpt>
      <trkpt lat="46.421509" lon="-1.517913">
        <ele>14.2</ele>
        <time>2020-08-12T21:44:39Z</time>
      </trkpt>
      <trkpt lat="46.421533" lon="-1.517942">
        <ele>14.2</ele>
        <time>2020-08-12T21:44:39Z</time>
      </trkpt>
      <trkpt lat="46.42149" lon="-1.518023">
        <ele>14.2</ele>
        <time>2020-08-12T21:44:40Z</time>
      </trkpt>
      <trkpt lat="46.421371" lon="-1.518371">
        <ele>13.8</ele>
        <time>2020-08-12T21:44:41Z</time>
      </trkpt>
      <trkpt lat="46.420312" lon="-1.522373">
        <ele>12.4</ele>
        <time>2020-08-12T21:45:01Z</time>
      </trkpt>
      <trkpt lat="46.420202" lon="-1.522844">
        <ele>12.4</ele>
        <time>2020-08-12T21:45:04Z</time>
      </trkpt>
      <trkpt lat="46.420157" lon="-1.523199">
        <ele>12.4</ele>
        <time>2020-08-12T21:45:05Z</time>
      </trkpt>
      <trkpt lat="46.420149" lon="-1.5234">
        <ele>11.8</ele>
        <time>2020-08-12T21:45:06Z</time>
      </trkpt>
      <trkpt lat="46.420182" lon="-1.524933">
        <ele>11.6</ele>
        <time>2020-08-12T21:45:14Z</time>
      </trkpt>
      <trkpt lat="46.420165" lon="-1.525251">
        <ele>11.0</ele>
        <time>2020-08-12T21:45:15Z</time>
      </trkpt>
      <trkpt lat="46.420092" lon="-1.52583">
        <ele>11.0</ele>
        <time>2020-08-12T21:45:18Z</time>
      </trkpt>
      <trkpt lat="46.420029" lon="-1.526132">
        <ele>10.2</ele>
        <time>2020-08-12T21:45:19Z</time>
      </trkpt>
      <trkpt lat="46.42008" lon="-1.526231">
        <ele>10.2</ele>
        <time>2020-08-12T21:45:20Z</time>
      </trkpt>
      <trkpt lat="46.420181" lon="-1.526747">
        <ele>9.6</ele>
        <time>2020-08-12T21:45:25Z</time>
      </trkpt>
      <trkpt lat="46.420278" lon="-1.527139">
        <ele>9.6</ele>
        <time>2020-08-12T21:45:28Z</time>
      </trkpt>
      <trkpt lat="46.420678" lon="-1.528357">
        <ele>9.8</ele>
        <time>2020-08-12T21:45:39Z</time>
      </trkpt>
      <trkpt lat="46.420795" lon="-1.528817">
        <ele>9.8</ele>
        <time>2020-08-12T21:45:43Z</time>
      </trkpt>
      <trkpt lat="46.420881" lon="-1.529273">
        <ele>8.8</ele>
        <time>2020-08-12T21:45:46Z</time>
      </trkpt>
      <trkpt lat="46.420949" lon="-1.529934">
        <ele>8.8</ele>
        <time>2020-08-12T21:45:52Z</time>
      </trkpt>
      <trkpt lat="46.421016" lon="-1.531257">
        <ele>8.6</ele>
        <time>2020-08-12T21:46:02Z</time>
      </trkpt>
      <trkpt lat="46.421109" lon="-1.532512">
        <ele>8.0</ele>
        <time>2020-08-12T21:46:12Z</time>
      </trkpt>
      <trkpt lat="46.42112" lon="-1.532834">
        <ele>8.0</ele>
        <time>2020-08-12T21:46:15Z</time>
      </trkpt>
      <trkpt lat="46.42112" lon="-1.533115">
        <ele>8.0</ele>
        <time>2020-08-12T21:46:17Z</time>
      </trkpt>
      <trkpt lat="46.421025" lon="-1.533924">
        <ele>7.8</ele>
        <time>2020-08-12T21:46:23Z</time>
      </trkpt>
      <trkpt lat="46.420974" lon="-1.534612">
        <ele>7.4</ele>
        <time>2020-08-12T21:46:29Z</time>
      </trkpt>
      <trkpt lat="46.420989" lon="-1.534775">
        <ele>7.4</ele>
        <time>2020-08-12T21:46:30Z</time>
      </trkpt>
      <trkpt lat="46.421122" lon="-1.535393">
        <ele>7.8</ele>
        <time>2020-08-12T21:46:35Z</time>
      </trkpt>
      <trkpt lat="46.421285" lon="-1.536024">
        <ele>8.4</ele>
        <time>2020-08-12T21:46:41Z</time>
      </trkpt>
      <trkpt lat="46.42157" lon="-1.536995">
        <ele>8.4</ele>
        <time>2020-08-12T21:46:49Z</time>
      </trkpt>
      <trkpt lat="46.421721" lon="-1.537339">
        <ele>8.0</ele>
        <time>2020-08-12T21:46:52Z</time>
      </trkpt>
      <trkpt lat="46.421786" lon="-1.537428">
        <ele>8.0</ele>
        <time>2020-08-12T21:46:53Z</time>
      </trkpt>
      <trkpt lat="46.421272" lon="-1.538098">
        <ele>7.8</ele>
        <time>2020-08-12T21:47:02Z</time>
      </trkpt>
      <trkpt lat="46.421225" lon="-1.538214">
        <ele>7.8</ele>
        <time>2020-08-12T21:47:03Z</time>
      </trkpt>
      <trkpt lat="46.421207" lon="-1.53832">
        <ele>7.8</ele>
        <time>2020-08-12T21:47:04Z</time>
      </trkpt>
      <trkpt lat="46.421214" lon="-1.538418">
        <ele>5.6</ele>
        <time>2020-08-12T21:47:05Z</time>
      </trkpt>
      <trkpt lat="46.421241" lon="-1.538508">
        <ele>5.6</ele>
        <time>2020-08-12T21:47:06Z</time>
      </trkpt>
      <trkpt lat="46.42145" lon="-1.538857">
        <ele>5.6</ele>
        <time>2020-08-12T21:47:10Z</time>
      </trkpt>
      <trkpt lat="46.421703" lon="-1.539635">
        <ele>3.6</ele>
        <time>2020-08-12T21:47:17Z</time>
      </trkpt>
      <trkpt lat="46.421781" lon="-1.539804">
        <ele>3.6</ele>
        <time>2020-08-12T21:47:19Z</time>
      </trkpt>
      <trkpt lat="46.422077" lon="-1.540239">
        <ele>4.6</ele>
        <time>2020-08-12T21:47:24Z</time>
      </trkpt>
      <trkpt lat="46.422231" lon="-1.540558">
        <ele>4.6</ele>
        <time>2020-08-12T21:47:28Z</time>
      </trkpt>
      <trkpt lat="46.423428" lon="-1.542623">
        <ele>9.4</ele>
        <time>2020-08-12T21:47:51Z</time>
      </trkpt>
      <trkpt lat="46.42434" lon="-1.545045">
        <ele>9.4</ele>
        <time>2020-08-12T21:48:15Z</time>
      </trkpt>
      <trkpt lat="46.425179" lon="-1.547219">
        <ele>12.4</ele>
        <time>2020-08-12T21:48:36Z</time>
      </trkpt>
      <trkpt lat="46.425222" lon="-1.547474">
        <ele>12.4</ele>
        <time>2020-08-12T21:48:38Z</time>
      </trkpt>
      <trkpt lat="46.425753" lon="-1.552193">
        <ele>12.0</ele>
        <time>2020-08-12T21:49:20Z</time>
      </trkpt>
      <trkpt lat="46.426323" lon="-1.557355">
        <ele>12.6</ele>
        <time>2020-08-12T21:50:05Z</time>
      </trkpt>
      <trkpt lat="46.426622" lon="-1.560202">
        <ele>12.8</ele>
        <time>2020-08-12T21:50:29Z</time>
      </trkpt>
      <trkpt lat="46.426851" lon="-1.562131">
        <ele>12.8</ele>
        <time>2020-08-12T21:50:46Z</time>
      </trkpt>
      <trkpt lat="46.427827" lon="-1.564787">
        <ele>11.2</ele>
        <time>2020-08-12T21:51:12Z</time>
      </trkpt>
      <trkpt lat="46.427913" lon="-1.565063">
        <ele>10.2</ele>
        <time>2020-08-12T21:51:15Z</time>
      </trkpt>
      <trkpt lat="46.42795" lon="-1.565238">
        <ele>10.2</ele>
        <time>2020-08-12T21:51:16Z</time>
      </trkpt>
      <trkpt lat="46.427952" lon="-1.565708">
        <ele>10.2</ele>
        <time>2020-08-12T21:51:20Z</time>
      </trkpt>
      <trkpt lat="46.427714" lon="-1.568571">
        <ele>10.0</ele>
        <time>2020-08-12T21:51:45Z</time>
      </trkpt>
      <trkpt lat="46.42758" lon="-1.568998">
        <ele>10.0</ele>
        <time>2020-08-12T21:51:49Z</time>
      </trkpt>
      <trkpt lat="46.427286" lon="-1.569539">
        <ele>11.6</ele>
        <time>2020-08-12T21:51:55Z</time>
      </trkpt>
      <trkpt lat="46.427724" lon="-1.569884">
        <ele>10.6</ele>
        <time>2020-08-12T21:52:03Z</time>
      </trkpt>
      <trkpt lat="46.427847" lon="-1.570021">
        <ele>11.0</ele>
        <time>2020-08-12T21:52:05Z</time>
      </trkpt>
      <trkpt lat="46.428188" lon="-1.570663">
        <ele>11.0</ele>
        <time>2020-08-12T21:52:14Z</time>
      </trkpt>
      <trkpt lat="46.428317" lon="-1.570872">
        <ele>10.6</ele>
        <time>2020-08-12T21:52:17Z</time>
      </trkpt>
      <trkpt lat="46.428249" lon="-1.571143">
        <ele>10.6</ele>
        <time>2020-08-12T21:52:20Z</time>
      </trkpt>
      <trkpt lat="46.428277" lon="-1.571898">
        <ele>10.2</ele>
        <time>2020-08-12T21:52:28Z</time>
      </trkpt>
      <trkpt lat="46.428295" lon="-1.572068">
        <ele>10.2</ele>
        <time>2020-08-12T21:52:30Z</time>
      </trkpt>
      <trkpt lat="46.428461" lon="-1.572862">
        <ele>10.2</ele>
        <time>2020-08-12T21:52:39Z</time>
      </trkpt>
      <trkpt lat="46.428512" lon="-1.573255">
        <ele>10.2</ele>
        <time>2020-08-12T21:52:43Z</time>
      </trkpt>
      <trkpt lat="46.428491" lon="-1.573531">
        <ele>10.0</ele>
        <time>2020-08-12T21:52:46Z</time>
      </trkpt>
      <trkpt lat="46.428401" lon="-1.573845">
        <ele>10.0</ele>
        <time>2020-08-12T21:52:49Z</time>
      </trkpt>
      <trkpt lat="46.428322" lon="-1.574049">
        <ele>9.8</ele>
        <time>2020-08-12T21:52:52Z</time>
      </trkpt>
      <trkpt lat="46.428157" lon="-1.574387">
        <ele>10.4</ele>
        <time>2020-08-12T21:52:56Z</time>
      </trkpt>
      <trkpt lat="46.428013" lon="-1.575191">
        <ele>10.4</ele>
        <time>2020-08-12T21:53:05Z</time>
      </trkpt>
      <trkpt lat="46.428279" lon="-1.575323">
        <ele>10.4</ele>
        <time>2020-08-12T21:53:07Z</time>
      </trkpt>
      <trkpt lat="46.428423" lon="-1.575444">
        <ele>10.2</ele>
        <time>2020-08-12T21:53:08Z</time>
      </trkpt>
      <trkpt lat="46.428913" lon="-1.576002">
        <ele>10.4</ele>
        <time>2020-08-12T21:53:13Z</time>
      </trkpt>
      <trkpt lat="46.429138" lon="-1.576211">
        <ele>10.4</ele>
        <time>2020-08-12T21:53:15Z</time>
      </trkpt>
      <trkpt lat="46.429322" lon="-1.576322">
        <ele>9.2</ele>
        <time>2020-08-12T21:53:16Z</time>
      </trkpt>
      <trkpt lat="46.429581" lon="-1.57644">
        <ele>9.2</ele>
        <time>2020-08-12T21:53:18Z</time>
      </trkpt>
      <trkpt lat="46.431274" lon="-1.577154">
        <ele>6.6</ele>
        <time>2020-08-12T21:53:31Z</time>
      </trkpt>
      <trkpt lat="46.431659" lon="-1.577366">
        <ele>6.6</ele>
        <time>2020-08-12T21:53:34Z</time>
      </trkpt>
      <trkpt lat="46.432206" lon="-1.577828">
        <ele>3.8</ele>
        <time>2020-08-12T21:53:38Z</time>
      </trkpt>
      <trkpt lat="46.432462" lon="-1.57795">
        <ele>3.8</ele>
        <time>2020-08-12T21:53:40Z</time>
      </trkpt>
      <trkpt lat="46.432755" lon="-1.577998">
        <ele>4.0</ele>
        <time>2020-08-12T21:53:42Z</time>
      </trkpt>
      <trkpt lat="46.435494" lon="-1.578204">
        <ele>3.8</ele>
        <time>2020-08-12T21:54:02Z</time>
      </trkpt>
      <trkpt lat="46.435861" lon="-1.578275">
        <ele>5.2</ele>
        <time>2020-08-12T21:54:05Z</time>
      </trkpt>
      <trkpt lat="46.436767" lon="-1.578521">
        <ele>6.4</ele>
        <time>2020-08-12T21:54:12Z</time>
      </trkpt>
      <trkpt lat="46.437413" lon="-1.578629">
        <ele>6.4</ele>
        <time>2020-08-12T21:54:16Z</time>
      </trkpt>
      <trkpt lat="46.437878" lon="-1.57868">
        <ele>6.8</ele>
        <time>2020-08-12T21:54:20Z</time>
      </trkpt>
      <trkpt lat="46.438174" lon="-1.578675">
        <ele>6.8</ele>
        <time>2020-08-12T21:54:22Z</time>
      </trkpt>
      <trkpt lat="46.439213" lon="-1.578432">
        <ele>6.4</ele>
        <time>2020-08-12T21:54:29Z</time>
      </trkpt>
      <trkpt lat="46.43964" lon="-1.578391">
        <ele>6.4</ele>
        <time>2020-08-12T21:54:32Z</time>
      </trkpt>
      <trkpt lat="46.440452" lon="-1.578445">
        <ele>6.8</ele>
        <time>2020-08-12T21:54:38Z</time>
      </trkpt>
      <trkpt lat="46.442228" lon="-1.578628">
        <ele>6.6</ele>
        <time>2020-08-12T21:54:51Z</time>
      </trkpt>
      <trkpt lat="46.442485" lon="-1.578679">
        <ele>6.6</ele>
        <time>2020-08-12T21:54:53Z</time>
      </trkpt>
      <trkpt lat="46.442891" lon="-1.578847">
        <ele>5.2</ele>
        <time>2020-08-12T21:54:56Z</time>
      </trkpt>
      <trkpt lat="46.44931" lon="-1.582002">
        <ele>8.4</ele>
        <time>2020-08-12T21:55:45Z</time>
      </trkpt>
      <trkpt lat="46.449511" lon="-1.582158">
        <ele>8.4</ele>
        <time>2020-08-12T21:55:47Z</time>
      </trkpt>
      <trkpt lat="46.449794" lon="-1.582486">
        <ele>8.4</ele>
        <time>2020-08-12T21:55:49Z</time>
      </trkpt>
      <trkpt lat="46.449929" lon="-1.582714">
        <ele>8.4</ele>
        <time>2020-08-12T21:55:51Z</time>
      </trkpt>
      <trkpt lat="46.450022" lon="-1.582911">
        <ele>6.0</ele>
        <time>2020-08-12T21:55:52Z</time>
      </trkpt>
      <trkpt lat="46.450338" lon="-1.583842">
        <ele>4.8</ele>
        <time>2020-08-12T21:55:57Z</time>
      </trkpt>
      <trkpt lat="46.453148" lon="-1.592513">
        <ele>7.8</ele>
        <time>2020-08-12T21:56:45Z</time>
      </trkpt>
      <trkpt lat="46.453271" lon="-1.592849">
        <ele>7.8</ele>
        <time>2020-08-12T21:56:47Z</time>
      </trkpt>
      <trkpt lat="46.453415" lon="-1.593173">
        <ele>6.8</ele>
        <time>2020-08-12T21:56:49Z</time>
      </trkpt>
      <trkpt lat="46.453883" lon="-1.594025">
        <ele>6.6</ele>
        <time>2020-08-12T21:56:54Z</time>
      </trkpt>
      <trkpt lat="46.454048" lon="-1.594369">
        <ele>6.2</ele>
        <time>2020-08-12T21:56:56Z</time>
      </trkpt>
      <trkpt lat="46.454327" lon="-1.595099">
        <ele>5.6</ele>
        <time>2020-08-12T21:57:00Z</time>
      </trkpt>
      <trkpt lat="46.454422" lon="-1.59526">
        <ele>5.6</ele>
        <time>2020-08-12T21:57:01Z</time>
      </trkpt>
      <trkpt lat="46.45448" lon="-1.595276">
        <ele>5.6</ele>
        <time>2020-08-12T21:57:02Z</time>
      </trkpt>
      <trkpt lat="46.454529" lon="-1.595323">
        <ele>5.6</ele>
        <time>2020-08-12T21:57:02Z</time>
      </trkpt>
      <trkpt lat="46.454569" lon="-1.595422">
        <ele>5.6</ele>
        <time>2020-08-12T21:57:03Z</time>
      </trkpt>
      <trkpt lat="46.45457" lon="-1.595533">
        <ele>5.6</ele>
        <time>2020-08-12T21:57:03Z</time>
      </trkpt>
      <trkpt lat="46.454534" lon="-1.595628">
        <ele>5.6</ele>
        <time>2020-08-12T21:57:04Z</time>
      </trkpt>
      <trkpt lat="46.454505" lon="-1.595663">
        <ele>5.6</ele>
        <time>2020-08-12T21:57:04Z</time>
      </trkpt>
      <trkpt lat="46.454479" lon="-1.595808">
        <ele>5.6</ele>
        <time>2020-08-12T21:57:05Z</time>
      </trkpt>
      <trkpt lat="46.454484" lon="-1.596024">
        <ele>5.4</ele>
        <time>2020-08-12T21:57:06Z</time>
      </trkpt>
      <trkpt lat="46.454524" lon="-1.596349">
        <ele>5.4</ele>
        <time>2020-08-12T21:57:07Z</time>
      </trkpt>
      <trkpt lat="46.454701" lon="-1.597131">
        <ele>6.4</ele>
        <time>2020-08-12T21:57:11Z</time>
      </trkpt>
      <trkpt lat="46.455486" lon="-1.600179">
        <ele>10.4</ele>
        <time>2020-08-12T21:57:26Z</time>
      </trkpt>
      <trkpt lat="46.455521" lon="-1.600448">
        <ele>10.4</ele>
        <time>2020-08-12T21:57:27Z</time>
      </trkpt>
      <trkpt lat="46.455537" lon="-1.601398">
        <ele>11.0</ele>
        <time>2020-08-12T21:57:31Z</time>
      </trkpt>
      <trkpt lat="46.455569" lon="-1.601748">
        <ele>11.2</ele>
        <time>2020-08-12T21:57:33Z</time>
      </trkpt>
      <trkpt lat="46.45563" lon="-1.602183">
        <ele>11.2</ele>
        <time>2020-08-12T21:57:35Z</time>
      </trkpt>
      <trkpt lat="46.455775" lon="-1.602788">
        <ele>10.8</ele>
        <time>2020-08-12T21:57:38Z</time>
      </trkpt>
      <trkpt lat="46.455977" lon="-1.603313">
        <ele>10.4</ele>
        <time>2020-08-12T21:57:41Z</time>
      </trkpt>
      <trkpt lat="46.456816" lon="-1.60526">
        <ele>13.8</ele>
        <time>2020-08-12T21:57:51Z</time>
      </trkpt>
      <trkpt lat="46.456905" lon="-1.605494">
        <ele>13.8</ele>
        <time>2020-08-12T21:57:52Z</time>
      </trkpt>
      <trkpt lat="46.457202" lon="-1.606444">
        <ele>15.6</ele>
        <time>2020-08-12T21:57:57Z</time>
      </trkpt>
      <trkpt lat="46.457334" lon="-1.606789">
        <ele>15.6</ele>
        <time>2020-08-12T21:57:59Z</time>
      </trkpt>
      <trkpt lat="46.457478" lon="-1.607029">
        <ele>15.6</ele>
        <time>2020-08-12T21:58:00Z</time>
      </trkpt>
      <trkpt lat="46.457683" lon="-1.607267">
        <ele>16.4</ele>
        <time>2020-08-12T21:58:02Z</time>
      </trkpt>
      <trkpt lat="46.457818" lon="-1.607328">
        <ele>16.4</ele>
        <time>2020-08-12T21:58:03Z</time>
      </trkpt>
      <trkpt lat="46.457982" lon="-1.607349">
        <ele>16.4</ele>
        <time>2020-08-12T21:58:04Z</time>
      </trkpt>
      <trkpt lat="46.458048" lon="-1.607285">
        <ele>16.4</ele>
        <time>2020-08-12T21:58:05Z</time>
      </trkpt>
      <trkpt lat="46.458126" lon="-1.607258">
        <ele>16.4</ele>
        <time>2020-08-12T21:58:05Z</time>
      </trkpt>
      <trkpt lat="46.458199" lon="-1.607271">
        <ele>16.4</ele>
        <time>2020-08-12T21:58:06Z</time>
      </trkpt>
      <trkpt lat="46.458301" lon="-1.607364">
        <ele>16.4</ele>
        <time>2020-08-12T21:58:07Z</time>
      </trkpt>
      <trkpt lat="46.458347" lon="-1.607485">
        <ele>14.8</ele>
        <time>2020-08-12T21:58:07Z</time>
      </trkpt>
      <trkpt lat="46.458356" lon="-1.607554">
        <ele>17.0</ele>
        <time>2020-08-12T21:58:08Z</time>
      </trkpt>
      <trkpt lat="46.458352" lon="-1.607642">
        <ele>17.0</ele>
        <time>2020-08-12T21:58:08Z</time>
      </trkpt>
      <trkpt lat="46.458326" lon="-1.607739">
        <ele>17.2</ele>
        <time>2020-08-12T21:58:09Z</time>
      </trkpt>
      <trkpt lat="46.458281" lon="-1.607819">
        <ele>17.2</ele>
        <time>2020-08-12T21:58:09Z</time>
      </trkpt>
      <trkpt lat="46.458223" lon="-1.607871">
        <ele>17.2</ele>
        <time>2020-08-12T21:58:09Z</time>
      </trkpt>
      <trkpt lat="46.458151" lon="-1.608209">
        <ele>17.2</ele>
        <time>2020-08-12T21:58:11Z</time>
      </trkpt>
      <trkpt lat="46.457775" lon="-1.611606">
        <ele>20.4</ele>
        <time>2020-08-12T21:58:27Z</time>
      </trkpt>
      <trkpt lat="46.457681" lon="-1.612599">
        <ele>22.0</ele>
        <time>2020-08-12T21:58:31Z</time>
      </trkpt>
      <trkpt lat="46.457648" lon="-1.613202">
        <ele>22.0</ele>
        <time>2020-08-12T21:58:34Z</time>
      </trkpt>
      <trkpt lat="46.457641" lon="-1.61388">
        <ele>22.4</ele>
        <time>2020-08-12T21:58:37Z</time>
      </trkpt>
      <trkpt lat="46.457654" lon="-1.614525">
        <ele>22.8</ele>
        <time>2020-08-12T21:58:40Z</time>
      </trkpt>
      <trkpt lat="46.457686" lon="-1.615069">
        <ele>23.2</ele>
        <time>2020-08-12T21:58:43Z</time>
      </trkpt>
      <trkpt lat="46.458093" lon="-1.618852">
        <ele>22.4</ele>
        <time>2020-08-12T21:59:00Z</time>
      </trkpt>
      <trkpt lat="46.458789" lon="-1.625004">
        <ele>21.8</ele>
        <time>2020-08-12T21:59:29Z</time>
      </trkpt>
      <trkpt lat="46.458986" lon="-1.62634">
        <ele>17.8</ele>
        <time>2020-08-12T21:59:35Z</time>
      </trkpt>
      <trkpt lat="46.45919" lon="-1.62749">
        <ele>8.0</ele>
        <time>2020-08-12T21:59:41Z</time>
      </trkpt>
      <trkpt lat="46.459472" lon="-1.628833">
        <ele>1.4</ele>
        <time>2020-08-12T21:59:47Z</time>
      </trkpt>
      <trkpt lat="46.459804" lon="-1.630113">
        <ele>7.6</ele>
        <time>2020-08-12T21:59:54Z</time>
      </trkpt>
      <trkpt lat="46.460113" lon="-1.631225">
        <ele>19.0</ele>
        <time>2020-08-12T21:59:59Z</time>
      </trkpt>
      <trkpt lat="46.460551" lon="-1.632627">
        <ele>25.4</ele>
        <time>2020-08-12T22:00:06Z</time>
      </trkpt>
      <trkpt lat="46.46095" lon="-1.633809">
        <ele>26.4</ele>
        <time>2020-08-12T22:00:12Z</time>
      </trkpt>
      <trkpt lat="46.461344" lon="-1.634886">
        <ele>25.4</ele>
        <time>2020-08-12T22:00:18Z</time>
      </trkpt>
      <trkpt lat="46.461701" lon="-1.635809">
        <ele>24.0</ele>
        <time>2020-08-12T22:00:23Z</time>
      </trkpt>
      <trkpt lat="46.462261" lon="-1.637074">
        <ele>22.8</ele>
        <time>2020-08-12T22:00:30Z</time>
      </trkpt>
      <trkpt lat="46.462681" lon="-1.637918">
        <ele>25.4</ele>
        <time>2020-08-12T22:00:34Z</time>
      </trkpt>
      <trkpt lat="46.462958" lon="-1.638461">
        <ele>27.4</ele>
        <time>2020-08-12T22:00:37Z</time>
      </trkpt>
      <trkpt lat="46.463784" lon="-1.639932">
        <ele>27.8</ele>
        <time>2020-08-12T22:00:46Z</time>
      </trkpt>
      <trkpt lat="46.464793" lon="-1.641519">
        <ele>29.4</ele>
        <time>2020-08-12T22:00:56Z</time>
      </trkpt>
      <trkpt lat="46.465414" lon="-1.642406">
        <ele>29.4</ele>
        <time>2020-08-12T22:01:02Z</time>
      </trkpt>
      <trkpt lat="46.465846" lon="-1.642976">
        <ele>29.8</ele>
        <time>2020-08-12T22:01:06Z</time>
      </trkpt>
      <trkpt lat="46.466493" lon="-1.643782">
        <ele>29.4</ele>
        <time>2020-08-12T22:01:11Z</time>
      </trkpt>
      <trkpt lat="46.472221" lon="-1.650462">
        <ele>32.8</ele>
        <time>2020-08-12T22:02:00Z</time>
      </trkpt>
      <trkpt lat="46.47328" lon="-1.651664">
        <ele>31.6</ele>
        <time>2020-08-12T22:02:09Z</time>
      </trkpt>
      <trkpt lat="46.473642" lon="-1.651948">
        <ele>31.4</ele>
        <time>2020-08-12T22:02:12Z</time>
      </trkpt>
      <trkpt lat="46.473948" lon="-1.652082">
        <ele>31.4</ele>
        <time>2020-08-12T22:02:14Z</time>
      </trkpt>
      <trkpt lat="46.474105" lon="-1.652114">
        <ele>31.4</ele>
        <time>2020-08-12T22:02:15Z</time>
      </trkpt>
      <trkpt lat="46.474352" lon="-1.652119">
        <ele>31.6</ele>
        <time>2020-08-12T22:02:17Z</time>
      </trkpt>
      <trkpt lat="46.474639" lon="-1.652063">
        <ele>31.6</ele>
        <time>2020-08-12T22:02:19Z</time>
      </trkpt>
      <trkpt lat="46.47502" lon="-1.651875">
        <ele>31.4</ele>
        <time>2020-08-12T22:02:22Z</time>
      </trkpt>
      <trkpt lat="46.4752" lon="-1.65163">
        <ele>32.6</ele>
        <time>2020-08-12T22:02:23Z</time>
      </trkpt>
      <trkpt lat="46.475233" lon="-1.651507">
        <ele>32.6</ele>
        <time>2020-08-12T22:02:24Z</time>
      </trkpt>
      <trkpt lat="46.475266" lon="-1.651459">
        <ele>32.6</ele>
        <time>2020-08-12T22:02:24Z</time>
      </trkpt>
      <trkpt lat="46.475301" lon="-1.651429">
        <ele>32.6</ele>
        <time>2020-08-12T22:02:24Z</time>
      </trkpt>
      <trkpt lat="46.47538" lon="-1.651409">
        <ele>32.6</ele>
        <time>2020-08-12T22:02:25Z</time>
      </trkpt>
      <trkpt lat="46.475467" lon="-1.651454">
        <ele>32.6</ele>
        <time>2020-08-12T22:02:26Z</time>
      </trkpt>
      <trkpt lat="46.475529" lon="-1.651575">
        <ele>32.6</ele>
        <time>2020-08-12T22:02:26Z</time>
      </trkpt>
      <trkpt lat="46.475538" lon="-1.651651">
        <ele>32.6</ele>
        <time>2020-08-12T22:02:27Z</time>
      </trkpt>
      <trkpt lat="46.475507" lon="-1.651795">
        <ele>31.4</ele>
        <time>2020-08-12T22:02:27Z</time>
      </trkpt>
      <trkpt lat="46.475471" lon="-1.65185">
        <ele>31.4</ele>
        <time>2020-08-12T22:02:28Z</time>
      </trkpt>
      <trkpt lat="46.475448" lon="-1.651962">
        <ele>31.4</ele>
        <time>2020-08-12T22:02:28Z</time>
      </trkpt>
      <trkpt lat="46.475455" lon="-1.652436">
        <ele>31.4</ele>
        <time>2020-08-12T22:02:30Z</time>
      </trkpt>
      <trkpt lat="46.477035" lon="-1.668982">
        <ele>32.8</ele>
        <time>2020-08-12T22:03:45Z</time>
      </trkpt>
      <trkpt lat="46.477959" lon="-1.678866">
        <ele>35.0</ele>
        <time>2020-08-12T22:04:29Z</time>
      </trkpt>
      <trkpt lat="46.47802" lon="-1.679">
        <ele>35.0</ele>
        <time>2020-08-12T22:04:30Z</time>
      </trkpt>
      <trkpt lat="46.478104" lon="-1.679112">
        <ele>35.0</ele>
        <time>2020-08-12T22:04:31Z</time>
      </trkpt>
      <trkpt lat="46.478181" lon="-1.679131">
        <ele>35.0</ele>
        <time>2020-08-12T22:04:31Z</time>
      </trkpt>
      <trkpt lat="46.478245" lon="-1.679195">
        <ele>34.6</ele>
        <time>2020-08-12T22:04:32Z</time>
      </trkpt>
      <trkpt lat="46.478276" lon="-1.679261">
        <ele>34.6</ele>
        <time>2020-08-12T22:04:32Z</time>
      </trkpt>
      <trkpt lat="46.478292" lon="-1.679417">
        <ele>34.6</ele>
        <time>2020-08-12T22:04:32Z</time>
      </trkpt>
      <trkpt lat="46.478242" lon="-1.679561">
        <ele>34.6</ele>
        <time>2020-08-12T22:04:33Z</time>
      </trkpt>
      <trkpt lat="46.478195" lon="-1.67961">
        <ele>34.6</ele>
        <time>2020-08-12T22:04:33Z</time>
      </trkpt>
      <trkpt lat="46.478141" lon="-1.679636">
        <ele>34.6</ele>
        <time>2020-08-12T22:04:34Z</time>
      </trkpt>
      <trkpt lat="46.478108" lon="-1.679698">
        <ele>34.6</ele>
        <time>2020-08-12T22:04:34Z</time>
      </trkpt>
      <trkpt lat="46.478057" lon="-1.679866">
        <ele>34.6</ele>
        <time>2020-08-12T22:04:34Z</time>
      </trkpt>
      <trkpt lat="46.478645" lon="-1.68628">
        <ele>34.2</ele>
        <time>2020-08-12T22:05:03Z</time>
      </trkpt>
      <trkpt lat="46.478773" lon="-1.687527">
        <ele>31.8</ele>
        <time>2020-08-12T22:05:09Z</time>
      </trkpt>
      <trkpt lat="46.478839" lon="-1.687744">
        <ele>31.8</ele>
        <time>2020-08-12T22:05:10Z</time>
      </trkpt>
      <trkpt lat="46.47887" lon="-1.687763">
        <ele>31.8</ele>
        <time>2020-08-12T22:05:10Z</time>
      </trkpt>
      <trkpt lat="46.478915" lon="-1.687842">
        <ele>31.8</ele>
        <time>2020-08-12T22:05:11Z</time>
      </trkpt>
      <trkpt lat="46.478921" lon="-1.687893">
        <ele>31.8</ele>
        <time>2020-08-12T22:05:11Z</time>
      </trkpt>
      <trkpt lat="46.478915" lon="-1.687944">
        <ele>31.8</ele>
        <time>2020-08-12T22:05:11Z</time>
      </trkpt>
      <trkpt lat="46.478876" lon="-1.688019">
        <ele>31.8</ele>
        <time>2020-08-12T22:05:12Z</time>
      </trkpt>
      <trkpt lat="46.478845" lon="-1.68827">
        <ele>31.8</ele>
        <time>2020-08-12T22:05:13Z</time>
      </trkpt>
      <trkpt lat="46.479437" lon="-1.694743">
        <ele>29.2</ele>
        <time>2020-08-12T22:05:42Z</time>
      </trkpt>
      <trkpt lat="46.480198" lon="-1.702714">
        <ele>17.4</ele>
        <time>2020-08-12T22:06:18Z</time>
      </trkpt>
      <trkpt lat="46.480336" lon="-1.703454">
        <ele>18.4</ele>
        <time>2020-08-12T22:06:21Z</time>
      </trkpt>
      <trkpt lat="46.480365" lon="-1.703524">
        <ele>18.4</ele>
        <time>2020-08-12T22:06:21Z</time>
      </trkpt>
      <trkpt lat="46.480411" lon="-1.703552">
        <ele>18.4</ele>
        <time>2020-08-12T22:06:22Z</time>
      </trkpt>
      <trkpt lat="46.480484" lon="-1.703647">
        <ele>18.4</ele>
        <time>2020-08-12T22:06:22Z</time>
      </trkpt>
      <trkpt lat="46.480521" lon="-1.703779">
        <ele>18.4</ele>
        <time>2020-08-12T22:06:23Z</time>
      </trkpt>
      <trkpt lat="46.480518" lon="-1.703905">
        <ele>18.4</ele>
        <time>2020-08-12T22:06:24Z</time>
      </trkpt>
      <trkpt lat="46.480481" lon="-1.70402">
        <ele>18.4</ele>
        <time>2020-08-12T22:06:24Z</time>
      </trkpt>
      <trkpt lat="46.480416" lon="-1.704105">
        <ele>18.4</ele>
        <time>2020-08-12T22:06:25Z</time>
      </trkpt>
      <trkpt lat="46.480384" lon="-1.704297">
        <ele>19.6</ele>
        <time>2020-08-12T22:06:26Z</time>
      </trkpt>
      <trkpt lat="46.480407" lon="-1.704881">
        <ele>19.6</ele>
        <time>2020-08-12T22:06:28Z</time>
      </trkpt>
      <trkpt lat="46.48125" lon="-1.713709">
        <ele>27.2</ele>
        <time>2020-08-12T22:07:08Z</time>
      </trkpt>
      <trkpt lat="46.481348" lon="-1.714535">
        <ele>27.8</ele>
        <time>2020-08-12T22:07:12Z</time>
      </trkpt>
      <trkpt lat="46.481581" lon="-1.715852">
        <ele>28.0</ele>
        <time>2020-08-12T22:07:18Z</time>
      </trkpt>
      <trkpt lat="46.481628" lon="-1.716047">
        <ele>28.0</ele>
        <time>2020-08-12T22:07:19Z</time>
      </trkpt>
      <trkpt lat="46.48166" lon="-1.716039">
        <ele>28.0</ele>
        <time>2020-08-12T22:07:19Z</time>
      </trkpt>
      <trkpt lat="46.481721" lon="-1.716066">
        <ele>28.4</ele>
        <time>2020-08-12T22:07:20Z</time>
      </trkpt>
      <trkpt lat="46.481758" lon="-1.716141">
        <ele>28.4</ele>
        <time>2020-08-12T22:07:21Z</time>
      </trkpt>
      <trkpt lat="46.481758" lon="-1.716234">
        <ele>28.4</ele>
        <time>2020-08-12T22:07:21Z</time>
      </trkpt>
      <trkpt lat="46.481718" lon="-1.716307">
        <ele>28.4</ele>
        <time>2020-08-12T22:07:22Z</time>
      </trkpt>
      <trkpt lat="46.481689" lon="-1.716326">
        <ele>28.4</ele>
        <time>2020-08-12T22:07:22Z</time>
      </trkpt>
      <trkpt lat="46.481828" lon="-1.717049">
        <ele>28.8</ele>
        <time>2020-08-12T22:07:27Z</time>
      </trkpt>
      <trkpt lat="46.484319" lon="-1.728452">
        <ele>28.4</ele>
        <time>2020-08-12T22:08:41Z</time>
      </trkpt>
      <trkpt lat="46.484316" lon="-1.728606">
        <ele>28.4</ele>
        <time>2020-08-12T22:08:42Z</time>
      </trkpt>
      <trkpt lat="46.484368" lon="-1.728634">
        <ele>28.4</ele>
        <time>2020-08-12T22:08:42Z</time>
      </trkpt>
      <trkpt lat="46.484438" lon="-1.728973">
        <ele>28.4</ele>
        <time>2020-08-12T22:08:45Z</time>
      </trkpt>
      <trkpt lat="46.484424" lon="-1.729027">
        <ele>28.4</ele>
        <time>2020-08-12T22:08:45Z</time>
      </trkpt>
      <trkpt lat="46.484387" lon="-1.729065">
        <ele>28.4</ele>
        <time>2020-08-12T22:08:45Z</time>
      </trkpt>
      <trkpt lat="46.484493" lon="-1.729319">
        <ele>28.8</ele>
        <time>2020-08-12T22:08:47Z</time>
      </trkpt>
      <trkpt lat="46.484548" lon="-1.729574">
        <ele>28.8</ele>
        <time>2020-08-12T22:08:49Z</time>
      </trkpt>
      <trkpt lat="46.484607" lon="-1.729556">
        <ele>28.8</ele>
        <time>2020-08-12T22:08:50Z</time>
      </trkpt>
      <trkpt lat="46.484736" lon="-1.72956">
        <ele>28.8</ele>
        <time>2020-08-12T22:08:51Z</time>
      </trkpt>
      <trkpt lat="46.484788" lon="-1.729606">
        <ele>28.8</ele>
        <time>2020-08-12T22:08:52Z</time>
      </trkpt>
      <trkpt lat="46.484908" lon="-1.729861">
        <ele>28.8</ele>
        <time>2020-08-12T22:08:54Z</time>
      </trkpt>
      <trkpt lat="46.485004" lon="-1.729999">
        <ele>28.6</ele>
        <time>2020-08-12T22:08:55Z</time>
      </trkpt>
      <trkpt lat="46.486139" lon="-1.73135">
        <ele>28.4</ele>
        <time>2020-08-12T22:09:10Z</time>
      </trkpt>
      <trkpt lat="46.487016" lon="-1.731921">
        <ele>27.8</ele>
        <time>2020-08-12T22:09:20Z</time>
      </trkpt>
      <trkpt lat="46.487309" lon="-1.732082">
        <ele>27.8</ele>
        <time>2020-08-12T22:09:23Z</time>
      </trkpt>
      <trkpt lat="46.48769" lon="-1.732245">
        <ele>28.0</ele>
        <time>2020-08-12T22:09:28Z</time>
      </trkpt>
      <trkpt lat="46.488005" lon="-1.732305">
        <ele>28.0</ele>
        <time>2020-08-12T22:09:31Z</time>
      </trkpt>
      <trkpt lat="46.489322" lon="-1.732185">
        <ele>25.8</ele>
        <time>2020-08-12T22:09:44Z</time>
      </trkpt>
      <trkpt lat="46.489456" lon="-1.73212">
        <ele>25.8</ele>
        <time>2020-08-12T22:09:46Z</time>
      </trkpt>
      <trkpt lat="46.489515" lon="-1.732069">
        <ele>25.8</ele>
        <time>2020-08-12T22:09:46Z</time>
      </trkpt>
      <trkpt lat="46.489543" lon="-1.732067">
        <ele>25.8</ele>
        <time>2020-08-12T22:09:46Z</time>
      </trkpt>
      <trkpt lat="46.489598" lon="-1.732099">
        <ele>25.8</ele>
        <time>2020-08-12T22:09:47Z</time>
      </trkpt>
      <trkpt lat="46.489629" lon="-1.732159">
        <ele>25.8</ele>
        <time>2020-08-12T22:09:47Z</time>
      </trkpt>
      <trkpt lat="46.489637" lon="-1.732217">
        <ele>25.8</ele>
        <time>2020-08-12T22:09:47Z</time>
      </trkpt>
      <trkpt lat="46.48962" lon="-1.732296">
        <ele>25.8</ele>
        <time>2020-08-12T22:09:48Z</time>
      </trkpt>
      <trkpt lat="46.489553" lon="-1.732361">
        <ele>25.8</ele>
        <time>2020-08-12T22:09:48Z</time>
      </trkpt>
      <trkpt lat="46.490289" lon="-1.738668">
        <ele>24.6</ele>
        <time>2020-08-12T22:10:13Z</time>
      </trkpt>
      <trkpt lat="46.490351" lon="-1.738881">
        <ele>24.6</ele>
        <time>2020-08-12T22:10:14Z</time>
      </trkpt>
      <trkpt lat="46.490433" lon="-1.739048">
        <ele>24.6</ele>
        <time>2020-08-12T22:10:15Z</time>
      </trkpt>
      <trkpt lat="46.490467" lon="-1.739072">
        <ele>24.6</ele>
        <time>2020-08-12T22:10:15Z</time>
      </trkpt>
      <trkpt lat="46.490536" lon="-1.739177">
        <ele>24.6</ele>
        <time>2020-08-12T22:10:16Z</time>
      </trkpt>
      <trkpt lat="46.490559" lon="-1.739335">
        <ele>24.6</ele>
        <time>2020-08-12T22:10:17Z</time>
      </trkpt>
      <trkpt lat="46.490532" lon="-1.739454">
        <ele>24.6</ele>
        <time>2020-08-12T22:10:17Z</time>
      </trkpt>
      <trkpt lat="46.490485" lon="-1.739531">
        <ele>24.6</ele>
        <time>2020-08-12T22:10:18Z</time>
      </trkpt>
      <trkpt lat="46.490462" lon="-1.739617">
        <ele>24.6</ele>
        <time>2020-08-12T22:10:18Z</time>
      </trkpt>
      <trkpt lat="46.490451" lon="-1.739828">
        <ele>24.6</ele>
        <time>2020-08-12T22:10:19Z</time>
      </trkpt>
      <trkpt lat="46.490464" lon="-1.739943">
        <ele>24.6</ele>
        <time>2020-08-12T22:10:19Z</time>
      </trkpt>
      <trkpt lat="46.491046" lon="-1.741539">
        <ele>23.0</ele>
        <time>2020-08-12T22:10:26Z</time>
      </trkpt>
      <trkpt lat="46.491109" lon="-1.741788">
        <ele>22.2</ele>
        <time>2020-08-12T22:10:27Z</time>
      </trkpt>
      <trkpt lat="46.491204" lon="-1.742262">
        <ele>22.2</ele>
        <time>2020-08-12T22:10:29Z</time>
      </trkpt>
      <trkpt lat="46.491256" lon="-1.742664">
        <ele>21.4</ele>
        <time>2020-08-12T22:10:31Z</time>
      </trkpt>
      <trkpt lat="46.491277" lon="-1.742951">
        <ele>21.4</ele>
        <time>2020-08-12T22:10:32Z</time>
      </trkpt>
      <trkpt lat="46.491263" lon="-1.743223">
        <ele>21.4</ele>
        <time>2020-08-12T22:10:33Z</time>
      </trkpt>
      <trkpt lat="46.491362" lon="-1.743283">
        <ele>21.4</ele>
        <time>2020-08-12T22:10:34Z</time>
      </trkpt>
      <trkpt lat="46.491404" lon="-1.743375">
        <ele>20.8</ele>
        <time>2020-08-12T22:10:34Z</time>
      </trkpt>
      <trkpt lat="46.491413" lon="-1.743465">
        <ele>20.8</ele>
        <time>2020-08-12T22:10:35Z</time>
      </trkpt>
      <trkpt lat="46.49137" lon="-1.743611">
        <ele>20.8</ele>
        <time>2020-08-12T22:10:35Z</time>
      </trkpt>
      <trkpt lat="46.491539" lon="-1.743819">
        <ele>20.8</ele>
        <time>2020-08-12T22:10:37Z</time>
      </trkpt>
      <trkpt lat="46.491617" lon="-1.743966">
        <ele>20.8</ele>
        <time>2020-08-12T22:10:37Z</time>
      </trkpt>
      <trkpt lat="46.492128" lon="-1.745602">
        <ele>15.6</ele>
        <time>2020-08-12T22:10:44Z</time>
      </trkpt>
      <trkpt lat="46.492185" lon="-1.745693">
        <ele>15.6</ele>
        <time>2020-08-12T22:10:45Z</time>
      </trkpt>
      <trkpt lat="46.492305" lon="-1.745805">
        <ele>15.6</ele>
        <time>2020-08-12T22:10:46Z</time>
      </trkpt>
      <trkpt lat="46.492348" lon="-1.745747">
        <ele>15.6</ele>
        <time>2020-08-12T22:10:46Z</time>
      </trkpt>
      <trkpt lat="46.492398" lon="-1.745718">
        <ele>15.6</ele>
        <time>2020-08-12T22:10:47Z</time>
      </trkpt>
      <trkpt lat="46.492453" lon="-1.745715">
        <ele>15.6</ele>
        <time>2020-08-12T22:10:47Z</time>
      </trkpt>
      <trkpt lat="46.49251" lon="-1.745743">
        <ele>13.8</ele>
        <time>2020-08-12T22:10:48Z</time>
      </trkpt>
      <trkpt lat="46.492576" lon="-1.745846">
        <ele>14.4</ele>
        <time>2020-08-12T22:10:49Z</time>
      </trkpt>
      <trkpt lat="46.492589" lon="-1.74598">
        <ele>14.4</ele>
        <time>2020-08-12T22:10:50Z</time>
      </trkpt>
      <trkpt lat="46.492568" lon="-1.746062">
        <ele>14.4</ele>
        <time>2020-08-12T22:10:50Z</time>
      </trkpt>
      <trkpt lat="46.492517" lon="-1.746137">
        <ele>14.4</ele>
        <time>2020-08-12T22:10:51Z</time>
      </trkpt>
      <trkpt lat="46.492718" lon="-1.74669">
        <ele>15.2</ele>
        <time>2020-08-12T22:10:55Z</time>
      </trkpt>
      <trkpt lat="46.492818" lon="-1.747026">
        <ele>15.2</ele>
        <time>2020-08-12T22:10:57Z</time>
      </trkpt>
      <trkpt lat="46.49289" lon="-1.747403">
        <ele>15.2</ele>
        <time>2020-08-12T22:11:00Z</time>
      </trkpt>
      <trkpt lat="46.492928" lon="-1.747402">
        <ele>15.2</ele>
        <time>2020-08-12T22:11:00Z</time>
      </trkpt>
      <trkpt lat="46.492987" lon="-1.747454">
        <ele>15.2</ele>
        <time>2020-08-12T22:11:01Z</time>
      </trkpt>
      <trkpt lat="46.493006" lon="-1.74752">
        <ele>15.8</ele>
        <time>2020-08-12T22:11:02Z</time>
      </trkpt>
      <trkpt lat="46.493003" lon="-1.747577">
        <ele>15.8</ele>
        <time>2020-08-12T22:11:02Z</time>
      </trkpt>
      <trkpt lat="46.492958" lon="-1.747661">
        <ele>15.8</ele>
        <time>2020-08-12T22:11:03Z</time>
      </trkpt>
      <trkpt lat="46.492921" lon="-1.747678">
        <ele>15.8</ele>
        <time>2020-08-12T22:11:03Z</time>
      </trkpt>
      <trkpt lat="46.492869" lon="-1.747665">
        <ele>15.8</ele>
        <time>2020-08-12T22:11:04Z</time>
      </trkpt>
      <trkpt lat="46.492831" lon="-1.747615">
        <ele>15.8</ele>
        <time>2020-08-12T22:11:05Z</time>
      </trkpt>
      <trkpt lat="46.492701" lon="-1.747852">
        <ele>15.8</ele>
        <time>2020-08-12T22:11:07Z</time>
      </trkpt>
      <trkpt lat="46.492562" lon="-1.748382">
        <ele>17.2</ele>
        <time>2020-08-12T22:11:12Z</time>
      </trkpt>
      <trkpt lat="46.49245" lon="-1.748973">
        <ele>16.2</ele>
        <time>2020-08-12T22:11:16Z</time>
      </trkpt>
      <trkpt lat="46.492428" lon="-1.749184">
        <ele>17.6</ele>
        <time>2020-08-12T22:11:18Z</time>
      </trkpt>
      <trkpt lat="46.492487" lon="-1.749456">
        <ele>17.6</ele>
        <time>2020-08-12T22:11:20Z</time>
      </trkpt>
      <trkpt lat="46.492551" lon="-1.749614">
        <ele>18.6</ele>
        <time>2020-08-12T22:11:22Z</time>
      </trkpt>
      <trkpt lat="46.49261" lon="-1.749651">
        <ele>18.6</ele>
        <time>2020-08-12T22:11:22Z</time>
      </trkpt>
      <trkpt lat="46.492659" lon="-1.74971">
        <ele>18.6</ele>
        <time>2020-08-12T22:11:22Z</time>
      </trkpt>
      <trkpt lat="46.492713" lon="-1.749868">
        <ele>18.6</ele>
        <time>2020-08-12T22:11:23Z</time>
      </trkpt>
      <trkpt lat="46.492815" lon="-1.749967">
        <ele>18.6</ele>
        <time>2020-08-12T22:11:24Z</time>
      </trkpt>
      <trkpt lat="46.493018" lon="-1.750108">
        <ele>19.6</ele>
        <time>2020-08-12T22:11:25Z</time>
      </trkpt>
      <trkpt lat="46.493518" lon="-1.750377">
        <ele>19.6</ele>
        <time>2020-08-12T22:11:27Z</time>
      </trkpt>
      <trkpt lat="46.493904" lon="-1.750656">
        <ele>19.6</ele>
        <time>2020-08-12T22:11:29Z</time>
      </trkpt>
      <trkpt lat="46.494287" lon="-1.751019">
        <ele>20.6</ele>
        <time>2020-08-12T22:11:31Z</time>
      </trkpt>
      <trkpt lat="46.495108" lon="-1.751868">
        <ele>21.6</ele>
        <time>2020-08-12T22:11:36Z</time>
      </trkpt>
      <trkpt lat="46.495243" lon="-1.75203">
        <ele>21.6</ele>
        <time>2020-08-12T22:11:37Z</time>
      </trkpt>
      <trkpt lat="46.495271" lon="-1.75201">
        <ele>21.6</ele>
        <time>2020-08-12T22:11:37Z</time>
      </trkpt>
      <trkpt lat="46.495384" lon="-1.752014">
        <ele>21.6</ele>
        <time>2020-08-12T22:11:38Z</time>
      </trkpt>
      <trkpt lat="46.495445" lon="-1.752054">
        <ele>21.6</ele>
        <time>2020-08-12T22:11:39Z</time>
      </trkpt>
      <trkpt lat="46.495475" lon="-1.752141">
        <ele>21.6</ele>
        <time>2020-08-12T22:11:39Z</time>
      </trkpt>
      <trkpt lat="46.495474" lon="-1.752204">
        <ele>21.6</ele>
        <time>2020-08-12T22:11:40Z</time>
      </trkpt>
      <trkpt lat="46.495442" lon="-1.752266">
        <ele>21.6</ele>
        <time>2020-08-12T22:11:40Z</time>
      </trkpt>
      <trkpt lat="46.495399" lon="-1.752288">
        <ele>21.6</ele>
        <time>2020-08-12T22:11:41Z</time>
      </trkpt>
      <trkpt lat="46.495484" lon="-1.752457">
        <ele>21.6</ele>
        <time>2020-08-12T22:11:42Z</time>
      </trkpt>
      <trkpt lat="46.495671" lon="-1.752627">
        <ele>21.4</ele>
        <time>2020-08-12T22:11:44Z</time>
      </trkpt>
      <trkpt lat="46.496182" lon="-1.752992">
        <ele>21.4</ele>
        <time>2020-08-12T22:11:50Z</time>
      </trkpt>
      <trkpt lat="46.497523" lon="-1.754418">
        <ele>20.2</ele>
        <time>2020-08-12T22:12:07Z</time>
      </trkpt>
      <trkpt lat="46.498234" lon="-1.755147">
        <ele>19.8</ele>
        <time>2020-08-12T22:12:15Z</time>
      </trkpt>
      <trkpt lat="46.498407" lon="-1.755261">
        <ele>18.6</ele>
        <time>2020-08-12T22:12:17Z</time>
      </trkpt>
      <trkpt lat="46.498846" lon="-1.755447">
        <ele>18.6</ele>
        <time>2020-08-12T22:12:22Z</time>
      </trkpt>
      <trkpt lat="46.498952" lon="-1.755512">
        <ele>18.6</ele>
        <time>2020-08-12T22:12:23Z</time>
      </trkpt>
      <trkpt lat="46.499112" lon="-1.755649">
        <ele>18.6</ele>
        <time>2020-08-12T22:12:25Z</time>
      </trkpt>
      <trkpt lat="46.499255" lon="-1.755848">
        <ele>17.8</ele>
        <time>2020-08-12T22:12:27Z</time>
      </trkpt>
      <trkpt lat="46.499417" lon="-1.756172">
        <ele>17.8</ele>
        <time>2020-08-12T22:12:29Z</time>
      </trkpt>
      <trkpt lat="46.499594" lon="-1.756471">
        <ele>17.8</ele>
        <time>2020-08-12T22:12:32Z</time>
      </trkpt>
      <trkpt lat="46.499683" lon="-1.756508">
        <ele>17.8</ele>
        <time>2020-08-12T22:12:33Z</time>
      </trkpt>
      <trkpt lat="46.499721" lon="-1.75656">
        <ele>17.8</ele>
        <time>2020-08-12T22:12:34Z</time>
      </trkpt>
      <trkpt lat="46.499744" lon="-1.756621">
        <ele>17.8</ele>
        <time>2020-08-12T22:12:34Z</time>
      </trkpt>
      <trkpt lat="46.499749" lon="-1.756741">
        <ele>16.8</ele>
        <time>2020-08-12T22:12:35Z</time>
      </trkpt>
      <trkpt lat="46.499698" lon="-1.756864">
        <ele>16.8</ele>
        <time>2020-08-12T22:12:36Z</time>
      </trkpt>
      <trkpt lat="46.499618" lon="-1.756915">
        <ele>16.8</ele>
        <time>2020-08-12T22:12:37Z</time>
      </trkpt>
      <trkpt lat="46.499528" lon="-1.757158">
        <ele>16.8</ele>
        <time>2020-08-12T22:12:39Z</time>
      </trkpt>
      <trkpt lat="46.498901" lon="-1.759407">
        <ele>16.2</ele>
        <time>2020-08-12T22:12:56Z</time>
      </trkpt>
      <trkpt lat="46.498685" lon="-1.760232">
        <ele>16.0</ele>
        <time>2020-08-12T22:13:02Z</time>
      </trkpt>
      <trkpt lat="46.498176" lon="-1.761953">
        <ele>16.2</ele>
        <time>2020-08-12T22:13:15Z</time>
      </trkpt>
      <trkpt lat="46.498102" lon="-1.762298">
        <ele>16.2</ele>
        <time>2020-08-12T22:13:18Z</time>
      </trkpt>
      <trkpt lat="46.497611" lon="-1.763983">
        <ele>14.6</ele>
        <time>2020-08-12T22:13:31Z</time>
      </trkpt>
      <trkpt lat="46.49694" lon="-1.76642">
        <ele>13.6</ele>
        <time>2020-08-12T22:13:49Z</time>
      </trkpt>
      <trkpt lat="46.496487" lon="-1.768002">
        <ele>11.2</ele>
        <time>2020-08-12T22:14:01Z</time>
      </trkpt>
      <trkpt lat="46.496338" lon="-1.768647">
        <ele>10.8</ele>
        <time>2020-08-12T22:14:06Z</time>
      </trkpt>
      <trkpt lat="46.49623" lon="-1.769294">
        <ele>10.0</ele>
        <time>2020-08-12T22:14:11Z</time>
      </trkpt>
      <trkpt lat="46.496166" lon="-1.769826">
        <ele>10.0</ele>
        <time>2020-08-12T22:14:15Z</time>
      </trkpt>
      <trkpt lat="46.496135" lon="-1.770448">
        <ele>10.2</ele>
        <time>2020-08-12T22:14:19Z</time>
      </trkpt>
      <trkpt lat="46.496064" lon="-1.770715">
        <ele>10.2</ele>
        <time>2020-08-12T22:14:21Z</time>
      </trkpt>
      <trkpt lat="46.496076" lon="-1.770738">
        <ele>10.2</ele>
        <time>2020-08-12T22:14:21Z</time>
      </trkpt>
      <trkpt lat="46.496077" lon="-1.770824">
        <ele>10.2</ele>
        <time>2020-08-12T22:14:22Z</time>
      </trkpt>
      <trkpt lat="46.49603" lon="-1.770873">
        <ele>10.2</ele>
        <time>2020-08-12T22:14:23Z</time>
      </trkpt>
      <trkpt lat="46.49609" lon="-1.77147">
        <ele>10.2</ele>
        <time>2020-08-12T22:14:28Z</time>
      </trkpt>
      <trkpt lat="46.496062" lon="-1.773119">
        <ele>9.4</ele>
        <time>2020-08-12T22:14:44Z</time>
      </trkpt>
      <trkpt lat="46.495999" lon="-1.775006">
        <ele>9.2</ele>
        <time>2020-08-12T22:15:01Z</time>
      </trkpt>
      <trkpt lat="46.495981" lon="-1.776202">
        <ele>9.8</ele>
        <time>2020-08-12T22:15:12Z</time>
      </trkpt>
      <trkpt lat="46.495926" lon="-1.778064">
        <ele>10.0</ele>
        <time>2020-08-12T22:15:29Z</time>
      </trkpt>
      <trkpt lat="46.496056" lon="-1.778085">
        <ele>10.0</ele>
        <time>2020-08-12T22:15:31Z</time>
      </trkpt>
      <trkpt lat="46.496185" lon="-1.778233">
        <ele>10.0</ele>
        <time>2020-08-12T22:15:34Z</time>
      </trkpt>
      <trkpt lat="46.496275" lon="-1.778632">
        <ele>9.7</ele>
        <time>2020-08-12T22:15:38Z</time>
      </trkpt>
      <trkpt lat="46.496275" lon="-1.778632">
        <ele>9.7</ele>
        <time>2020-08-12T22:15:38Z</time>
      </trkpt>
      <trkpt lat="46.496351" lon="-1.779002">
        <ele>9.4</ele>
        <time>2020-08-12T22:15:42Z</time>
      </trkpt>
      <trkpt lat="46.496336" lon="-1.779072">
        <ele>9.4</ele>
        <time>2020-08-12T22:15:43Z</time>
      </trkpt>
      <trkpt lat="46.496322" lon="-1.779689">
        <ele>9.2</ele>
        <time>2020-08-12T22:15:51Z</time>
      </trkpt>
      <trkpt lat="46.496334" lon="-1.779888">
        <ele>9.2</ele>
        <time>2020-08-12T22:15:53Z</time>
      </trkpt>
      <trkpt lat="46.496436" lon="-1.780621">
        <ele>9.8</ele>
        <time>2020-08-12T22:16:03Z</time>
      </trkpt>
      <trkpt lat="46.496383" lon="-1.780858">
        <ele>10.2</ele>
        <time>2020-08-12T22:16:06Z</time>
      </trkpt>
      <trkpt lat="46.496273" lon="-1.781119">
        <ele>10.2</ele>
        <time>2020-08-12T22:16:10Z</time>
      </trkpt>
      <trkpt lat="46.496223" lon="-1.781312">
        <ele>10.2</ele>
        <time>2020-08-12T22:16:13Z</time>
      </trkpt>
      <trkpt lat="46.496174" lon="-1.78178">
        <ele>10.8</ele>
        <time>2020-08-12T22:16:19Z</time>
      </trkpt>
      <trkpt lat="46.496259" lon="-1.782335">
        <ele>10.8</ele>
        <time>2020-08-12T22:16:26Z</time>
      </trkpt>
      <trkpt lat="46.496923" lon="-1.782346">
        <ele>6.6</ele>
        <time>2020-08-12T22:16:36Z</time>
      </trkpt>
      <trkpt lat="46.49708" lon="-1.782238">
        <ele>6.6</ele>
        <time>2020-08-12T22:16:39Z</time>
      </trkpt>
      <trkpt lat="46.49712" lon="-1.782167">
        <ele>6.6</ele>
        <time>2020-08-12T22:16:40Z</time>
      </trkpt>
      <trkpt lat="46.497171" lon="-1.782098">
        <ele>6.6</ele>
        <time>2020-08-12T22:16:41Z</time>
      </trkpt>
      <trkpt lat="46.497637" lon="-1.782267">
        <ele>4.2</ele>
        <time>2020-08-12T22:16:49Z</time>
      </trkpt>
      <trkpt lat="46.497749" lon="-1.782213">
        <ele>4.2</ele>
        <time>2020-08-12T22:16:51Z</time>
      </trkpt>
      <trkpt lat="46.497876" lon="-1.782069">
        <ele>4.2</ele>
        <time>2020-08-12T22:16:53Z</time>
      </trkpt>
      <trkpt lat="46.497908" lon="-1.781993">
        <ele>4.2</ele>
        <time>2020-08-12T22:16:54Z</time>
      </trkpt>
      <trkpt lat="46.49799" lon="-1.781903">
        <ele>4.2</ele>
        <time>2020-08-12T22:16:56Z</time>
      </trkpt>
      <trkpt lat="46.498036" lon="-1.781854">
        <ele>4.2</ele>
        <time>2020-08-12T22:16:57Z</time>
      </trkpt>
      <trkpt lat="46.498079" lon="-1.781886">
        <ele>4.2</ele>
        <time>2020-08-12T22:16:57Z</time>
      </trkpt>
      <trkpt lat="46.498096" lon="-1.781975">
        <ele>4.2</ele>
        <time>2020-08-12T22:16:58Z</time>
      </trkpt>
      <trkpt lat="46.498705" lon="-1.783075">
        <ele>4.6</ele>
        <time>2020-08-12T22:17:10Z</time>
      </trkpt>
      <trkpt lat="46.498758" lon="-1.783089">
        <ele>4.6</ele>
        <time>2020-08-12T22:17:10Z</time>
      </trkpt>
      <trkpt lat="46.498771" lon="-1.78311">
        <ele>4.6</ele>
        <time>2020-08-12T22:17:10Z</time>
      </trkpt>
      <trkpt lat="46.498772" lon="-1.78319">
        <ele>4.6</ele>
        <time>2020-08-12T22:17:11Z</time>
      </trkpt>
      <trkpt lat="46.49929" lon="-1.784161">
        <ele>5.4</ele>
        <time>2020-08-12T22:17:17Z</time>
      </trkpt>
      <trkpt lat="46.499343" lon="-1.784231">
        <ele>5.0</ele>
        <time>2020-08-12T22:17:17Z</time>
      </trkpt>
      <trkpt lat="46.499345" lon="-1.784258">
        <ele>5.0</ele>
        <time>2020-08-12T22:17:18Z</time>
      </trkpt>
      <trkpt lat="46.49983" lon="-1.785162">
        <ele>5.2</ele>
        <time>2020-08-12T22:17:27Z</time>
      </trkpt>
      <trkpt lat="46.499966" lon="-1.785311">
        <ele>5.2</ele>
        <time>2020-08-12T22:17:29Z</time>
      </trkpt>
      <trkpt lat="46.500248" lon="-1.785425">
        <ele>4.4</ele>
        <time>2020-08-12T22:17:32Z</time>
      </trkpt>
      <trkpt lat="46.500821" lon="-1.785646">
        <ele>4.4</ele>
        <time>2020-08-12T22:17:39Z</time>
      </trkpt>
      <trkpt lat="46.50105" lon="-1.785288">
        <ele>4.2</ele>
        <time>2020-08-12T22:17:41Z</time>
      </trkpt>
      <trkpt lat="46.501212" lon="-1.78514">
        <ele>4.2</ele>
        <time>2020-08-12T22:17:43Z</time>
      </trkpt>
      <trkpt lat="46.501547" lon="-1.784923">
        <ele>4.2</ele>
        <time>2020-08-12T22:17:45Z</time>
      </trkpt>
      <trkpt lat="46.501628" lon="-1.784804">
        <ele>4.2</ele>
        <time>2020-08-12T22:17:46Z</time>
      </trkpt>
      <trkpt lat="46.50165" lon="-1.784737">
        <ele>4.2</ele>
        <time>2020-08-12T22:17:46Z</time>
      </trkpt>
      <trkpt lat="46.501653" lon="-1.78469">
        <ele>4.2</ele>
        <time>2020-08-12T22:17:47Z</time>
      </trkpt>
      <trkpt lat="46.501696" lon="-1.78462">
        <ele>3.2</ele>
        <time>2020-08-12T22:17:47Z</time>
      </trkpt>
      <trkpt lat="46.501748" lon="-1.784614">
        <ele>3.2</ele>
        <time>2020-08-12T22:17:47Z</time>
      </trkpt>
      <trkpt lat="46.501798" lon="-1.784678">
        <ele>3.2</ele>
        <time>2020-08-12T22:17:48Z</time>
      </trkpt>
      <trkpt lat="46.501804" lon="-1.784734">
        <ele>3.2</ele>
        <time>2020-08-12T22:17:48Z</time>
      </trkpt>
      <trkpt lat="46.501858" lon="-1.78483">
        <ele>3.2</ele>
        <time>2020-08-12T22:17:48Z</time>
      </trkpt>
      <trkpt lat="46.50195" lon="-1.784885">
        <ele>3.2</ele>
        <time>2020-08-12T22:17:49Z</time>
      </trkpt>
      <trkpt lat="46.502058" lon="-1.784803">
        <ele>3.2</ele>
        <time>2020-08-12T22:17:50Z</time>
      </trkpt>
      <trkpt lat="46.502186" lon="-1.784772">
        <ele>3.2</ele>
        <time>2020-08-12T22:17:51Z</time>
      </trkpt>
      <trkpt lat="46.503366" lon="-1.784676">
        <ele>3.0</ele>
        <time>2020-08-12T22:17:58Z</time>
      </trkpt>
      <trkpt lat="46.503961" lon="-1.784599">
        <ele>3.0</ele>
        <time>2020-08-12T22:18:02Z</time>
      </trkpt>
      <trkpt lat="46.504134" lon="-1.784619">
        <ele>3.0</ele>
        <time>2020-08-12T22:18:03Z</time>
      </trkpt>
      <trkpt lat="46.504571" lon="-1.784863">
        <ele>3.8</ele>
        <time>2020-08-12T22:18:06Z</time>
      </trkpt>
      <trkpt lat="46.506619" lon="-1.785602">
        <ele>3.2</ele>
        <time>2020-08-12T22:18:19Z</time>
      </trkpt>
      <trkpt lat="46.506962" lon="-1.78571">
        <ele>3.4</ele>
        <time>2020-08-12T22:18:21Z</time>
      </trkpt>
      <trkpt lat="46.507391" lon="-1.785771">
        <ele>3.4</ele>
        <time>2020-08-12T22:18:24Z</time>
      </trkpt>
      <trkpt lat="46.507797" lon="-1.785779">
        <ele>3.2</ele>
        <time>2020-08-12T22:18:27Z</time>
      </trkpt>
      <trkpt lat="46.508638" lon="-1.785624">
        <ele>3.0</ele>
        <time>2020-08-12T22:18:32Z</time>
      </trkpt>
      <trkpt lat="46.508876" lon="-1.785654">
        <ele>3.0</ele>
        <time>2020-08-12T22:18:33Z</time>
      </trkpt>
      <trkpt lat="46.509338" lon="-1.785837">
        <ele>3.6</ele>
        <time>2020-08-12T22:18:36Z</time>
      </trkpt>
      <trkpt lat="46.509707" lon="-1.78574">
        <ele>3.2</ele>
        <time>2020-08-12T22:18:39Z</time>
      </trkpt>
      <trkpt lat="46.509857" lon="-1.785776">
        <ele>3.2</ele>
        <time>2020-08-12T22:18:40Z</time>
      </trkpt>
      <trkpt lat="46.510006" lon="-1.785914">
        <ele>4.4</ele>
        <time>2020-08-12T22:18:41Z</time>
      </trkpt>
      <trkpt lat="46.510199" lon="-1.78618">
        <ele>4.4</ele>
        <time>2020-08-12T22:18:43Z</time>
      </trkpt>
      <trkpt lat="46.511105" lon="-1.787554">
        <ele>5.0</ele>
        <time>2020-08-12T22:18:51Z</time>
      </trkpt>
      <trkpt lat="46.511523" lon="-1.788073">
        <ele>5.0</ele>
        <time>2020-08-12T22:18:54Z</time>
      </trkpt>
      <trkpt lat="46.512322" lon="-1.789013">
        <ele>3.8</ele>
        <time>2020-08-12T22:19:01Z</time>
      </trkpt>
      <trkpt lat="46.512471" lon="-1.789134">
        <ele>3.8</ele>
        <time>2020-08-12T22:19:02Z</time>
      </trkpt>
      <trkpt lat="46.512844" lon="-1.789307">
        <ele>3.8</ele>
        <time>2020-08-12T22:19:04Z</time>
      </trkpt>
      <trkpt lat="46.513044" lon="-1.789445">
        <ele>3.8</ele>
        <time>2020-08-12T22:19:06Z</time>
      </trkpt>
      <trkpt lat="46.513698" lon="-1.790091">
        <ele>4.4</ele>
        <time>2020-08-12T22:19:11Z</time>
      </trkpt>
      <trkpt lat="46.513776" lon="-1.7901">
        <ele>4.4</ele>
        <time>2020-08-12T22:19:11Z</time>
      </trkpt>
      <trkpt lat="46.513909" lon="-1.790074">
        <ele>4.4</ele>
        <time>2020-08-12T22:19:12Z</time>
      </trkpt>
      <trkpt lat="46.514159" lon="-1.789713">
        <ele>4.0</ele>
        <time>2020-08-12T22:19:16Z</time>
      </trkpt>
      <trkpt lat="46.514217" lon="-1.789686">
        <ele>4.8</ele>
        <time>2020-08-12T22:19:17Z</time>
      </trkpt>
      <trkpt lat="46.514288" lon="-1.789688">
        <ele>4.8</ele>
        <time>2020-08-12T22:19:18Z</time>
      </trkpt>
      <trkpt lat="46.51436" lon="-1.789746">
        <ele>4.8</ele>
        <time>2020-08-12T22:19:19Z</time>
      </trkpt>
      <trkpt lat="46.514392" lon="-1.789804">
        <ele>4.8</ele>
        <time>2020-08-12T22:19:19Z</time>
      </trkpt>
      <trkpt lat="46.514417" lon="-1.789941">
        <ele>4.8</ele>
        <time>2020-08-12T22:19:21Z</time>
      </trkpt>
      <trkpt lat="46.514375" lon="-1.790167">
        <ele>4.4</ele>
        <time>2020-08-12T22:19:23Z</time>
      </trkpt>
      <trkpt lat="46.514393" lon="-1.790278">
        <ele>4.4</ele>
        <time>2020-08-12T22:19:24Z</time>
      </trkpt>
      <trkpt lat="46.514433" lon="-1.790353">
        <ele>4.4</ele>
        <time>2020-08-12T22:19:24Z</time>
      </trkpt>
      <trkpt lat="46.514545" lon="-1.790404">
        <ele>4.4</ele>
        <time>2020-08-12T22:19:26Z</time>
      </trkpt>
      <trkpt lat="46.514695" lon="-1.790432">
        <ele>4.4</ele>
        <time>2020-08-12T22:19:28Z</time>
      </trkpt>
      <trkpt lat="46.515064" lon="-1.790589">
        <ele>4.2</ele>
        <time>2020-08-12T22:19:32Z</time>
      </trkpt>
      <trkpt lat="46.515266" lon="-1.790655">
        <ele>4.2</ele>
        <time>2020-08-12T22:19:35Z</time>
      </trkpt>
      <trkpt lat="46.515554" lon="-1.790709">
        <ele>4.2</ele>
        <time>2020-08-12T22:19:38Z</time>
      </trkpt>
      <trkpt lat="46.515939" lon="-1.790724">
        <ele>3.8</ele>
        <time>2020-08-12T22:19:43Z</time>
      </trkpt>
      <trkpt lat="46.516688" lon="-1.790648">
        <ele>3.2</ele>
        <time>2020-08-12T22:19:52Z</time>
      </trkpt>
      <trkpt lat="46.516897" lon="-1.790667">
        <ele>3.2</ele>
        <time>2020-08-12T22:19:54Z</time>
      </trkpt>
      <trkpt lat="46.517645" lon="-1.79097">
        <ele>3.2</ele>
        <time>2020-08-12T22:20:04Z</time>
      </trkpt>
      <trkpt lat="46.517865" lon="-1.791073">
        <ele>3.2</ele>
        <time>2020-08-12T22:20:06Z</time>
      </trkpt>
      <trkpt lat="46.518077" lon="-1.791213">
        <ele>3.2</ele>
        <time>2020-08-12T22:20:09Z</time>
      </trkpt>
      <trkpt lat="46.518303" lon="-1.791312">
        <ele>3.2</ele>
        <time>2020-08-12T22:20:12Z</time>
      </trkpt>
      <trkpt lat="46.518507" lon="-1.791341">
        <ele>4.6</ele>
        <time>2020-08-12T22:20:14Z</time>
      </trkpt>
      <trkpt lat="46.519134" lon="-1.79133">
        <ele>4.6</ele>
        <time>2020-08-12T22:20:22Z</time>
      </trkpt>
      <trkpt lat="46.519253" lon="-1.791353">
        <ele>6.0</ele>
        <time>2020-08-12T22:20:23Z</time>
      </trkpt>
      <trkpt lat="46.519472" lon="-1.791443">
        <ele>6.0</ele>
        <time>2020-08-12T22:20:26Z</time>
      </trkpt>
      <trkpt lat="46.519613" lon="-1.791555">
        <ele>6.0</ele>
        <time>2020-08-12T22:20:28Z</time>
      </trkpt>
      <trkpt lat="46.520476" lon="-1.792445">
        <ele>6.2</ele>
        <time>2020-08-12T22:20:41Z</time>
      </trkpt>
      <trkpt lat="46.52064" lon="-1.792562">
        <ele>5.4</ele>
        <time>2020-08-12T22:20:43Z</time>
      </trkpt>
      <trkpt lat="46.520656" lon="-1.792526">
        <ele>5.4</ele>
        <time>2020-08-12T22:20:43Z</time>
      </trkpt>
      <trkpt lat="46.52071" lon="-1.792504">
        <ele>5.4</ele>
        <time>2020-08-12T22:20:44Z</time>
      </trkpt>
      <trkpt lat="46.520743" lon="-1.792532">
        <ele>5.4</ele>
        <time>2020-08-12T22:20:44Z</time>
      </trkpt>
      <trkpt lat="46.520757" lon="-1.792609">
        <ele>5.4</ele>
        <time>2020-08-12T22:20:44Z</time>
      </trkpt>
      <trkpt lat="46.52074" lon="-1.792654">
        <ele>5.4</ele>
        <time>2020-08-12T22:20:45Z</time>
      </trkpt>
      <trkpt lat="46.520693" lon="-1.792679">
        <ele>5.4</ele>
        <time>2020-08-12T22:20:45Z</time>
      </trkpt>
      <trkpt lat="46.52067" lon="-1.79267">
        <ele>5.4</ele>
        <time>2020-08-12T22:20:45Z</time>
      </trkpt>
      <trkpt lat="46.520658" lon="-1.792694">
        <ele>5.4</ele>
        <time>2020-08-12T22:20:45Z</time>
      </trkpt>
      <trkpt lat="46.520397" lon="-1.793914">
        <ele>4.4</ele>
        <time>2020-08-12T22:20:53Z</time>
      </trkpt>
      <trkpt lat="46.520283" lon="-1.794576">
        <ele>4.0</ele>
        <time>2020-08-12T22:20:57Z</time>
      </trkpt>
      <trkpt lat="46.520155" lon="-1.794996">
        <ele>4.0</ele>
        <time>2020-08-12T22:20:59Z</time>
      </trkpt>
      <trkpt lat="46.520139" lon="-1.795277">
        <ele>2.6</ele>
        <time>2020-08-12T22:21:01Z</time>
      </trkpt>
      <trkpt lat="46.520514" lon="-1.797865">
        <ele>2.6</ele>
        <time>2020-08-12T22:21:16Z</time>
      </trkpt>
      <trkpt lat="46.520779" lon="-1.799006">
        <ele>2.6</ele>
        <time>2020-08-12T22:21:23Z</time>
      </trkpt>
      <trkpt lat="46.520899" lon="-1.799913">
        <ele>4.2</ele>
        <time>2020-08-12T22:21:28Z</time>
      </trkpt>
      <trkpt lat="46.521153" lon="-1.800558">
        <ele>3.8</ele>
        <time>2020-08-12T22:21:32Z</time>
      </trkpt>
      <trkpt lat="46.521496" lon="-1.801155">
        <ele>3.2</ele>
        <time>2020-08-12T22:21:37Z</time>
      </trkpt>
      <trkpt lat="46.521646" lon="-1.801219">
        <ele>3.2</ele>
        <time>2020-08-12T22:21:38Z</time>
      </trkpt>
      <trkpt lat="46.521705" lon="-1.80127">
        <ele>3.6</ele>
        <time>2020-08-12T22:21:39Z</time>
      </trkpt>
      <trkpt lat="46.521759" lon="-1.801388">
        <ele>3.6</ele>
        <time>2020-08-12T22:21:39Z</time>
      </trkpt>
      <trkpt lat="46.521918" lon="-1.802041">
        <ele>3.6</ele>
        <time>2020-08-12T22:21:43Z</time>
      </trkpt>
      <trkpt lat="46.52204" lon="-1.802583">
        <ele>3.2</ele>
        <time>2020-08-12T22:21:47Z</time>
      </trkpt>
      <trkpt lat="46.522074" lon="-1.802962">
        <ele>3.2</ele>
        <time>2020-08-12T22:21:49Z</time>
      </trkpt>
      <trkpt lat="46.52208" lon="-1.803193">
        <ele>3.2</ele>
        <time>2020-08-12T22:21:50Z</time>
      </trkpt>
      <trkpt lat="46.522043" lon="-1.803874">
        <ele>3.0</ele>
        <time>2020-08-12T22:21:54Z</time>
      </trkpt>
      <trkpt lat="46.522049" lon="-1.80409">
        <ele>3.0</ele>
        <time>2020-08-12T22:21:55Z</time>
      </trkpt>
      <trkpt lat="46.522091" lon="-1.804327">
        <ele>2.4</ele>
        <time>2020-08-12T22:21:57Z</time>
      </trkpt>
      <trkpt lat="46.522174" lon="-1.804537">
        <ele>2.4</ele>
        <time>2020-08-12T22:21:58Z</time>
      </trkpt>
      <trkpt lat="46.522208" lon="-1.804687">
        <ele>2.4</ele>
        <time>2020-08-12T22:21:59Z</time>
      </trkpt>
      <trkpt lat="46.522194" lon="-1.80535">
        <ele>0.8</ele>
        <time>2020-08-12T22:22:03Z</time>
      </trkpt>
      <trkpt lat="46.522237" lon="-1.805477">
        <ele>0.8</ele>
        <time>2020-08-12T22:22:03Z</time>
      </trkpt>
      <trkpt lat="46.522295" lon="-1.805571">
        <ele>0.8</ele>
        <time>2020-08-12T22:22:04Z</time>
      </trkpt>
      <trkpt lat="46.522544" lon="-1.805834">
        <ele>-0.4</ele>
        <time>2020-08-12T22:22:07Z</time>
      </trkpt>
      <trkpt lat="46.522837" lon="-1.806087">
        <ele>-0.4</ele>
        <time>2020-08-12T22:22:10Z</time>
      </trkpt>
      <trkpt lat="46.523444" lon="-1.806441">
        <ele>1.6</ele>
        <time>2020-08-12T22:22:15Z</time>
      </trkpt>
      <trkpt lat="46.523529" lon="-1.806508">
        <ele>1.6</ele>
        <time>2020-08-12T22:22:16Z</time>
      </trkpt>
      <trkpt lat="46.524244" lon="-1.80733">
        <ele>1.2</ele>
        <time>2020-08-12T22:22:23Z</time>
      </trkpt>
      <trkpt lat="46.524366" lon="-1.80755">
        <ele>1.4</ele>
        <time>2020-08-12T22:22:25Z</time>
      </trkpt>
      <trkpt lat="46.524379" lon="-1.807611">
        <ele>1.4</ele>
        <time>2020-08-12T22:22:25Z</time>
      </trkpt>
      <trkpt lat="46.524382" lon="-1.807781">
        <ele>1.4</ele>
        <time>2020-08-12T22:22:26Z</time>
      </trkpt>
      <trkpt lat="46.524223" lon="-1.810012">
        <ele>7.8</ele>
        <time>2020-08-12T22:22:39Z</time>
      </trkpt>
      <trkpt lat="46.52444" lon="-1.81025">
        <ele>7.8</ele>
        <time>2020-08-12T22:22:41Z</time>
      </trkpt>
      <trkpt lat="46.524593" lon="-1.810355">
        <ele>7.8</ele>
        <time>2020-08-12T22:22:42Z</time>
      </trkpt>
      <trkpt lat="46.52474" lon="-1.81041">
        <ele>7.8</ele>
        <time>2020-08-12T22:22:43Z</time>
      </trkpt>
      <trkpt lat="46.524896" lon="-1.81044">
        <ele>7.8</ele>
        <time>2020-08-12T22:22:45Z</time>
      </trkpt>
      <trkpt lat="46.525573" lon="-1.81049">
        <ele>5.8</ele>
        <time>2020-08-12T22:22:49Z</time>
      </trkpt>
      <trkpt lat="46.526267" lon="-1.81062">
        <ele>5.6</ele>
        <time>2020-08-12T22:22:54Z</time>
      </trkpt>
      <trkpt lat="46.527707" lon="-1.810553">
        <ele>9.2</ele>
        <time>2020-08-12T22:23:04Z</time>
      </trkpt>
      <trkpt lat="46.527913" lon="-1.810585">
        <ele>9.2</ele>
        <time>2020-08-12T22:23:06Z</time>
      </trkpt>
      <trkpt lat="46.528187" lon="-1.810687">
        <ele>9.2</ele>
        <time>2020-08-12T22:23:08Z</time>
      </trkpt>
      <trkpt lat="46.528579" lon="-1.810956">
        <ele>11.0</ele>
        <time>2020-08-12T22:23:11Z</time>
      </trkpt>
      <trkpt lat="46.529069" lon="-1.811472">
        <ele>11.0</ele>
        <time>2020-08-12T22:23:15Z</time>
      </trkpt>
      <trkpt lat="46.529382" lon="-1.811859">
        <ele>12.0</ele>
        <time>2020-08-12T22:23:18Z</time>
      </trkpt>
      <trkpt lat="46.529581" lon="-1.812019">
        <ele>12.0</ele>
        <time>2020-08-12T22:23:20Z</time>
      </trkpt>
      <trkpt lat="46.52983" lon="-1.812114">
        <ele>12.0</ele>
        <time>2020-08-12T22:23:22Z</time>
      </trkpt>
      <trkpt lat="46.530698" lon="-1.812094">
        <ele>11.2</ele>
        <time>2020-08-12T22:23:28Z</time>
      </trkpt>
      <trkpt lat="46.531624" lon="-1.812136">
        <ele>11.6</ele>
        <time>2020-08-12T22:23:34Z</time>
      </trkpt>
      <trkpt lat="46.531861" lon="-1.812193">
        <ele>11.8</ele>
        <time>2020-08-12T22:23:36Z</time>
      </trkpt>
      <trkpt lat="46.532437" lon="-1.812451">
        <ele>11.8</ele>
        <time>2020-08-12T22:23:40Z</time>
      </trkpt>
      <trkpt lat="46.532664" lon="-1.812533">
        <ele>14.0</ele>
        <time>2020-08-12T22:23:42Z</time>
      </trkpt>
      <trkpt lat="46.533083" lon="-1.812592">
        <ele>14.0</ele>
        <time>2020-08-12T22:23:45Z</time>
      </trkpt>
      <trkpt lat="46.533453" lon="-1.812518">
        <ele>12.8</ele>
        <time>2020-08-12T22:23:47Z</time>
      </trkpt>
      <trkpt lat="46.533562" lon="-1.812537">
        <ele>12.8</ele>
        <time>2020-08-12T22:23:48Z</time>
      </trkpt>
      <trkpt lat="46.533664" lon="-1.812582">
        <ele>12.8</ele>
        <time>2020-08-12T22:23:49Z</time>
      </trkpt>
      <trkpt lat="46.533759" lon="-1.812652">
        <ele>12.8</ele>
        <time>2020-08-12T22:23:50Z</time>
      </trkpt>
      <trkpt lat="46.533831" lon="-1.812746">
        <ele>12.8</ele>
        <time>2020-08-12T22:23:50Z</time>
      </trkpt>
      <trkpt lat="46.53394" lon="-1.812977">
        <ele>12.8</ele>
        <time>2020-08-12T22:23:52Z</time>
      </trkpt>
      <trkpt lat="46.534039" lon="-1.813099">
        <ele>12.8</ele>
        <time>2020-08-12T22:23:53Z</time>
      </trkpt>
      <trkpt lat="46.534136" lon="-1.813172">
        <ele>12.8</ele>
        <time>2020-08-12T22:23:53Z</time>
      </trkpt>
      <trkpt lat="46.534271" lon="-1.81323">
        <ele>10.8</ele>
        <time>2020-08-12T22:23:54Z</time>
      </trkpt>
      <trkpt lat="46.53446" lon="-1.813249">
        <ele>10.8</ele>
        <time>2020-08-12T22:23:56Z</time>
      </trkpt>
      <trkpt lat="46.534644" lon="-1.813231">
        <ele>10.8</ele>
        <time>2020-08-12T22:23:57Z</time>
      </trkpt>
      <trkpt lat="46.534763" lon="-1.813198">
        <ele>10.8</ele>
        <time>2020-08-12T22:23:58Z</time>
      </trkpt>
      <trkpt lat="46.534865" lon="-1.81314">
        <ele>10.8</ele>
        <time>2020-08-12T22:23:59Z</time>
      </trkpt>
      <trkpt lat="46.535177" lon="-1.81288">
        <ele>9.4</ele>
        <time>2020-08-12T22:24:01Z</time>
      </trkpt>
      <trkpt lat="46.535318" lon="-1.812808">
        <ele>9.4</ele>
        <time>2020-08-12T22:24:02Z</time>
      </trkpt>
      <trkpt lat="46.535565" lon="-1.812726">
        <ele>9.4</ele>
        <time>2020-08-12T22:24:04Z</time>
      </trkpt>
      <trkpt lat="46.535981" lon="-1.812641">
        <ele>10.4</ele>
        <time>2020-08-12T22:24:07Z</time>
      </trkpt>
      <trkpt lat="46.536274" lon="-1.812648">
        <ele>10.4</ele>
        <time>2020-08-12T22:24:09Z</time>
      </trkpt>
      <trkpt lat="46.53694" lon="-1.812864">
        <ele>11.6</ele>
        <time>2020-08-12T22:24:14Z</time>
      </trkpt>
      <trkpt lat="46.537187" lon="-1.812903">
        <ele>11.6</ele>
        <time>2020-08-12T22:24:16Z</time>
      </trkpt>
      <trkpt lat="46.537718" lon="-1.812897">
        <ele>12.0</ele>
        <time>2020-08-12T22:24:19Z</time>
      </trkpt>
      <trkpt lat="46.537968" lon="-1.812755">
        <ele>12.0</ele>
        <time>2020-08-12T22:24:21Z</time>
      </trkpt>
      <trkpt lat="46.538312" lon="-1.812453">
        <ele>6.8</ele>
        <time>2020-08-12T22:24:24Z</time>
      </trkpt>
      <trkpt lat="46.538521" lon="-1.812307">
        <ele>7.4</ele>
        <time>2020-08-12T22:24:26Z</time>
      </trkpt>
      <trkpt lat="46.538734" lon="-1.81223">
        <ele>7.4</ele>
        <time>2020-08-12T22:24:27Z</time>
      </trkpt>
      <trkpt lat="46.538926" lon="-1.812195">
        <ele>7.4</ele>
        <time>2020-08-12T22:24:29Z</time>
      </trkpt>
      <trkpt lat="46.539183" lon="-1.812183">
        <ele>8.8</ele>
        <time>2020-08-12T22:24:30Z</time>
      </trkpt>
      <trkpt lat="46.539467" lon="-1.812276">
        <ele>8.8</ele>
        <time>2020-08-12T22:24:32Z</time>
      </trkpt>
      <trkpt lat="46.540534" lon="-1.812706">
        <ele>14.6</ele>
        <time>2020-08-12T22:24:40Z</time>
      </trkpt>
      <trkpt lat="46.540799" lon="-1.812762">
        <ele>14.6</ele>
        <time>2020-08-12T22:24:42Z</time>
      </trkpt>
      <trkpt lat="46.541031" lon="-1.812709">
        <ele>14.2</ele>
        <time>2020-08-12T22:24:44Z</time>
      </trkpt>
      <trkpt lat="46.541959" lon="-1.812371">
        <ele>9.4</ele>
        <time>2020-08-12T22:24:51Z</time>
      </trkpt>
      <trkpt lat="46.542199" lon="-1.812314">
        <ele>9.4</ele>
        <time>2020-08-12T22:24:52Z</time>
      </trkpt>
      <trkpt lat="46.542446" lon="-1.812316">
        <ele>9.4</ele>
        <time>2020-08-12T22:24:54Z</time>
      </trkpt>
      <trkpt lat="46.542767" lon="-1.812427">
        <ele>12.4</ele>
        <time>2020-08-12T22:24:56Z</time>
      </trkpt>
      <trkpt lat="46.542879" lon="-1.812424">
        <ele>12.4</ele>
        <time>2020-08-12T22:24:57Z</time>
      </trkpt>
      <trkpt lat="46.543052" lon="-1.812316">
        <ele>12.4</ele>
        <time>2020-08-12T22:24:58Z</time>
      </trkpt>
      <trkpt lat="46.54322" lon="-1.812119">
        <ele>12.4</ele>
        <time>2020-08-12T22:25:00Z</time>
      </trkpt>
      <trkpt lat="46.543411" lon="-1.811818">
        <ele>16.0</ele>
        <time>2020-08-12T22:25:02Z</time>
      </trkpt>
      <trkpt lat="46.543706" lon="-1.811072">
        <ele>11.2</ele>
        <time>2020-08-12T22:25:06Z</time>
      </trkpt>
      <trkpt lat="46.543816" lon="-1.810868">
        <ele>11.2</ele>
        <time>2020-08-12T22:25:07Z</time>
      </trkpt>
      <trkpt lat="46.544189" lon="-1.810358">
        <ele>10.2</ele>
        <time>2020-08-12T22:25:11Z</time>
      </trkpt>
      <trkpt lat="46.544452" lon="-1.810203">
        <ele>10.2</ele>
        <time>2020-08-12T22:25:13Z</time>
      </trkpt>
      <trkpt lat="46.544672" lon="-1.810156">
        <ele>10.2</ele>
        <time>2020-08-12T22:25:15Z</time>
      </trkpt>
      <trkpt lat="46.544918" lon="-1.810172">
        <ele>10.2</ele>
        <time>2020-08-12T22:25:16Z</time>
      </trkpt>
      <trkpt lat="46.545095" lon="-1.810215">
        <ele>12.4</ele>
        <time>2020-08-12T22:25:18Z</time>
      </trkpt>
      <trkpt lat="46.545209" lon="-1.810206">
        <ele>12.4</ele>
        <time>2020-08-12T22:25:18Z</time>
      </trkpt>
      <trkpt lat="46.545302" lon="-1.810151">
        <ele>12.4</ele>
        <time>2020-08-12T22:25:19Z</time>
      </trkpt>
      <trkpt lat="46.545375" lon="-1.810028">
        <ele>12.4</ele>
        <time>2020-08-12T22:25:20Z</time>
      </trkpt>
      <trkpt lat="46.545412" lon="-1.809924">
        <ele>7.0</ele>
        <time>2020-08-12T22:25:20Z</time>
      </trkpt>
      <trkpt lat="46.545442" lon="-1.809754">
        <ele>7.0</ele>
        <time>2020-08-12T22:25:21Z</time>
      </trkpt>
      <trkpt lat="46.545768" lon="-1.807605">
        <ele>2.8</ele>
        <time>2020-08-12T22:25:32Z</time>
      </trkpt>
      <trkpt lat="46.545874" lon="-1.807116">
        <ele>3.8</ele>
        <time>2020-08-12T22:25:34Z</time>
      </trkpt>
      <trkpt lat="46.545952" lon="-1.80683">
        <ele>3.8</ele>
        <time>2020-08-12T22:25:36Z</time>
      </trkpt>
      <trkpt lat="46.546039" lon="-1.80658">
        <ele>3.4</ele>
        <time>2020-08-12T22:25:37Z</time>
      </trkpt>
      <trkpt lat="46.54675" lon="-1.804643">
        <ele>5.6</ele>
        <time>2020-08-12T22:25:48Z</time>
      </trkpt>
      <trkpt lat="46.546755" lon="-1.80459">
        <ele>5.6</ele>
        <time>2020-08-12T22:25:49Z</time>
      </trkpt>
      <trkpt lat="46.546712" lon="-1.804557">
        <ele>5.6</ele>
        <time>2020-08-12T22:25:49Z</time>
      </trkpt>
      <trkpt lat="46.546687" lon="-1.804496">
        <ele>5.6</ele>
        <time>2020-08-12T22:25:50Z</time>
      </trkpt>
      <trkpt lat="46.5467" lon="-1.804394">
        <ele>5.6</ele>
        <time>2020-08-12T22:25:51Z</time>
      </trkpt>
      <trkpt lat="46.546742" lon="-1.804348">
        <ele>5.6</ele>
        <time>2020-08-12T22:25:51Z</time>
      </trkpt>
      <trkpt lat="46.546822" lon="-1.804364">
        <ele>5.6</ele>
        <time>2020-08-12T22:25:52Z</time>
      </trkpt>
      <trkpt lat="46.546854" lon="-1.80443">
        <ele>5.6</ele>
        <time>2020-08-12T22:25:53Z</time>
      </trkpt>
      <trkpt lat="46.546852" lon="-1.80451">
        <ele>5.6</ele>
        <time>2020-08-12T22:25:54Z</time>
      </trkpt>
      <trkpt lat="46.547011" lon="-1.804568">
        <ele>5.6</ele>
        <time>2020-08-12T22:25:56Z</time>
      </trkpt>
      <trkpt lat="46.547153" lon="-1.804658">
        <ele>5.6</ele>
        <time>2020-08-12T22:25:58Z</time>
      </trkpt>
      <trkpt lat="46.548993" lon="-1.806113">
        <ele>5.0</ele>
        <time>2020-08-12T22:26:25Z</time>
      </trkpt>
      <trkpt lat="46.549201" lon="-1.806258">
        <ele>5.6</ele>
        <time>2020-08-12T22:26:28Z</time>
      </trkpt>
      <trkpt lat="46.549439" lon="-1.806385">
        <ele>5.6</ele>
        <time>2020-08-12T22:26:31Z</time>
      </trkpt>
      <trkpt lat="46.549666" lon="-1.806467">
        <ele>5.6</ele>
        <time>2020-08-12T22:26:34Z</time>
      </trkpt>
      <trkpt lat="46.549894" lon="-1.806512">
        <ele>5.5</ele>
        <time>2020-08-12T22:26:37Z</time>
      </trkpt>
      <trkpt lat="46.549894" lon="-1.806512">
        <ele>5.5</ele>
        <time>2020-08-12T22:26:37Z</time>
      </trkpt>
      <trkpt lat="46.550126" lon="-1.806558">
        <ele>5.4</ele>
        <time>2020-08-12T22:26:39Z</time>
      </trkpt>
      <trkpt lat="46.550547" lon="-1.806527">
        <ele>5.4</ele>
        <time>2020-08-12T22:26:43Z</time>
      </trkpt>
      <trkpt lat="46.551084" lon="-1.806435">
        <ele>5.2</ele>
        <time>2020-08-12T22:26:47Z</time>
      </trkpt>
      <trkpt lat="46.551279" lon="-1.806433">
        <ele>5.2</ele>
        <time>2020-08-12T22:26:49Z</time>
      </trkpt>
      <trkpt lat="46.551455" lon="-1.80645">
        <ele>5.2</ele>
        <time>2020-08-12T22:26:50Z</time>
      </trkpt>
      <trkpt lat="46.551783" lon="-1.806542">
        <ele>4.6</ele>
        <time>2020-08-12T22:26:53Z</time>
      </trkpt>
      <trkpt lat="46.552089" lon="-1.806702">
        <ele>4.4</ele>
        <time>2020-08-12T22:26:56Z</time>
      </trkpt>
      <trkpt lat="46.552517" lon="-1.807065">
        <ele>4.4</ele>
        <time>2020-08-12T22:27:00Z</time>
      </trkpt>
      <trkpt lat="46.553063" lon="-1.807579">
        <ele>4.8</ele>
        <time>2020-08-12T22:27:05Z</time>
      </trkpt>
      <trkpt lat="46.553375" lon="-1.807923">
        <ele>4.6</ele>
        <time>2020-08-12T22:27:09Z</time>
      </trkpt>
      <trkpt lat="46.553555" lon="-1.808165">
        <ele>4.6</ele>
        <time>2020-08-12T22:27:11Z</time>
      </trkpt>
      <trkpt lat="46.553721" lon="-1.808443">
        <ele>4.4</ele>
        <time>2020-08-12T22:27:13Z</time>
      </trkpt>
      <trkpt lat="46.553954" lon="-1.808955">
        <ele>4.4</ele>
        <time>2020-08-12T22:27:16Z</time>
      </trkpt>
      <trkpt lat="46.554246" lon="-1.80983">
        <ele>5.2</ele>
        <time>2020-08-12T22:27:22Z</time>
      </trkpt>
      <trkpt lat="46.554395" lon="-1.81011">
        <ele>5.2</ele>
        <time>2020-08-12T22:27:24Z</time>
      </trkpt>
      <trkpt lat="46.554637" lon="-1.810371">
        <ele>5.2</ele>
        <time>2020-08-12T22:27:27Z</time>
      </trkpt>
      <trkpt lat="46.554967" lon="-1.810541">
        <ele>5.2</ele>
        <time>2020-08-12T22:27:30Z</time>
      </trkpt>
      <trkpt lat="46.555913" lon="-1.810955">
        <ele>6.8</ele>
        <time>2020-08-12T22:27:38Z</time>
      </trkpt>
      <trkpt lat="46.555993" lon="-1.810965">
        <ele>6.8</ele>
        <time>2020-08-12T22:27:39Z</time>
      </trkpt>
      <trkpt lat="46.556366" lon="-1.811117">
        <ele>6.8</ele>
        <time>2020-08-12T22:27:42Z</time>
      </trkpt>
      <trkpt lat="46.556774" lon="-1.81131">
        <ele>10.0</ele>
        <time>2020-08-12T22:27:45Z</time>
      </trkpt>
      <trkpt lat="46.556862" lon="-1.811394">
        <ele>10.0</ele>
        <time>2020-08-12T22:27:46Z</time>
      </trkpt>
      <trkpt lat="46.557263" lon="-1.811556">
        <ele>10.0</ele>
        <time>2020-08-12T22:27:50Z</time>
      </trkpt>
      <trkpt lat="46.557331" lon="-1.811568">
        <ele>10.0</ele>
        <time>2020-08-12T22:27:50Z</time>
      </trkpt>
      <trkpt lat="46.557461" lon="-1.811537">
        <ele>10.0</ele>
        <time>2020-08-12T22:27:51Z</time>
      </trkpt>
      <trkpt lat="46.557613" lon="-1.811414">
        <ele>13.4</ele>
        <time>2020-08-12T22:27:53Z</time>
      </trkpt>
      <trkpt lat="46.558408" lon="-1.810169">
        <ele>14.4</ele>
        <time>2020-08-12T22:28:03Z</time>
      </trkpt>
      <trkpt lat="46.558526" lon="-1.810051">
        <ele>14.4</ele>
        <time>2020-08-12T22:28:04Z</time>
      </trkpt>
      <trkpt lat="46.558649" lon="-1.809989">
        <ele>10.4</ele>
        <time>2020-08-12T22:28:05Z</time>
      </trkpt>
      <trkpt lat="46.558755" lon="-1.809965">
        <ele>10.4</ele>
        <time>2020-08-12T22:28:06Z</time>
      </trkpt>
      <trkpt lat="46.558888" lon="-1.809989">
        <ele>10.4</ele>
        <time>2020-08-12T22:28:07Z</time>
      </trkpt>
      <trkpt lat="46.559" lon="-1.810053">
        <ele>14.4</ele>
        <time>2020-08-12T22:28:08Z</time>
      </trkpt>
      <trkpt lat="46.559167" lon="-1.81021">
        <ele>14.8</ele>
        <time>2020-08-12T22:28:10Z</time>
      </trkpt>
      <trkpt lat="46.560525" lon="-1.811682">
        <ele>18.4</ele>
        <time>2020-08-12T22:28:24Z</time>
      </trkpt>
      <trkpt lat="46.560925" lon="-1.812158">
        <ele>17.4</ele>
        <time>2020-08-12T22:28:28Z</time>
      </trkpt>
      <trkpt lat="46.56242" lon="-1.814262">
        <ele>20.2</ele>
        <time>2020-08-12T22:28:46Z</time>
      </trkpt>
      <trkpt lat="46.563008" lon="-1.814901">
        <ele>18.4</ele>
        <time>2020-08-12T22:28:52Z</time>
      </trkpt>
      <trkpt lat="46.564084" lon="-1.816018">
        <ele>16.0</ele>
        <time>2020-08-12T22:29:03Z</time>
      </trkpt>
      <trkpt lat="46.56497" lon="-1.816907">
        <ele>17.2</ele>
        <time>2020-08-12T22:29:12Z</time>
      </trkpt>
      <trkpt lat="46.566169" lon="-1.818205">
        <ele>18.0</ele>
        <time>2020-08-12T22:29:25Z</time>
      </trkpt>
      <trkpt lat="46.56809" lon="-1.81998">
        <ele>12.0</ele>
        <time>2020-08-12T22:29:44Z</time>
      </trkpt>
      <trkpt lat="46.568439" lon="-1.820223">
        <ele>18.0</ele>
        <time>2020-08-12T22:29:47Z</time>
      </trkpt>
      <trkpt lat="46.569148" lon="-1.820639">
        <ele>18.0</ele>
        <time>2020-08-12T22:29:54Z</time>
      </trkpt>
      <trkpt lat="46.569965" lon="-1.821243">
        <ele>22.0</ele>
        <time>2020-08-12T22:30:01Z</time>
      </trkpt>
      <trkpt lat="46.571498" lon="-1.822515">
        <ele>9.8</ele>
        <time>2020-08-12T22:30:16Z</time>
      </trkpt>
      <trkpt lat="46.571843" lon="-1.822775">
        <ele>9.8</ele>
        <time>2020-08-12T22:30:20Z</time>
      </trkpt>
      <trkpt lat="46.572393" lon="-1.823128">
        <ele>9.8</ele>
        <time>2020-08-12T22:30:25Z</time>
      </trkpt>
      <trkpt lat="46.572594" lon="-1.823228">
        <ele>11.4</ele>
        <time>2020-08-12T22:30:26Z</time>
      </trkpt>
      <trkpt lat="46.572844" lon="-1.823322">
        <ele>11.4</ele>
        <time>2020-08-12T22:30:29Z</time>
      </trkpt>
      <trkpt lat="46.573121" lon="-1.823369">
        <ele>10.0</ele>
        <time>2020-08-12T22:30:31Z</time>
      </trkpt>
      <trkpt lat="46.573462" lon="-1.823365">
        <ele>10.2</ele>
        <time>2020-08-12T22:30:34Z</time>
      </trkpt>
      <trkpt lat="46.577315" lon="-1.822908">
        <ele>12.6</ele>
        <time>2020-08-12T22:31:06Z</time>
      </trkpt>
      <trkpt lat="46.577996" lon="-1.8229">
        <ele>12.0</ele>
        <time>2020-08-12T22:31:12Z</time>
      </trkpt>
      <trkpt lat="46.578279" lon="-1.82294">
        <ele>12.0</ele>
        <time>2020-08-12T22:31:14Z</time>
      </trkpt>
      <trkpt lat="46.57911" lon="-1.823143">
        <ele>12.0</ele>
        <time>2020-08-12T22:31:21Z</time>
      </trkpt>
      <trkpt lat="46.580018" lon="-1.823431">
        <ele>10.8</ele>
        <time>2020-08-12T22:31:29Z</time>
      </trkpt>
      <trkpt lat="46.581438" lon="-1.823924">
        <ele>11.0</ele>
        <time>2020-08-12T22:31:42Z</time>
      </trkpt>
      <trkpt lat="46.581714" lon="-1.82407">
        <ele>11.2</ele>
        <time>2020-08-12T22:31:44Z</time>
      </trkpt>
      <trkpt lat="46.581931" lon="-1.824261">
        <ele>12.2</ele>
        <time>2020-08-12T22:31:46Z</time>
      </trkpt>
      <trkpt lat="46.582134" lon="-1.824478">
        <ele>12.2</ele>
        <time>2020-08-12T22:31:48Z</time>
      </trkpt>
      <trkpt lat="46.583999" lon="-1.826684">
        <ele>11.6</ele>
        <time>2020-08-12T22:32:08Z</time>
      </trkpt>
      <trkpt lat="46.584728" lon="-1.827249">
        <ele>8.4</ele>
        <time>2020-08-12T22:32:15Z</time>
      </trkpt>
      <trkpt lat="46.58584" lon="-1.827951">
        <ele>11.0</ele>
        <time>2020-08-12T22:32:26Z</time>
      </trkpt>
      <trkpt lat="46.586718" lon="-1.828394">
        <ele>12.0</ele>
        <time>2020-08-12T22:32:33Z</time>
      </trkpt>
      <trkpt lat="46.586917" lon="-1.828465">
        <ele>12.0</ele>
        <time>2020-08-12T22:32:35Z</time>
      </trkpt>
      <trkpt lat="46.587033" lon="-1.828578">
        <ele>12.0</ele>
        <time>2020-08-12T22:32:37Z</time>
      </trkpt>
      <trkpt lat="46.587088" lon="-1.828704">
        <ele>12.0</ele>
        <time>2020-08-12T22:32:38Z</time>
      </trkpt>
      <trkpt lat="46.587107" lon="-1.8289">
        <ele>12.0</ele>
        <time>2020-08-12T22:32:39Z</time>
      </trkpt>
      <trkpt lat="46.587081" lon="-1.829023">
        <ele>12.0</ele>
        <time>2020-08-12T22:32:40Z</time>
      </trkpt>
      <trkpt lat="46.587045" lon="-1.829097">
        <ele>12.0</ele>
        <time>2020-08-12T22:32:41Z</time>
      </trkpt>
      <trkpt lat="46.586978" lon="-1.829268">
        <ele>14.2</ele>
        <time>2020-08-12T22:32:42Z</time>
      </trkpt>
      <trkpt lat="46.586969" lon="-1.829361">
        <ele>14.2</ele>
        <time>2020-08-12T22:32:42Z</time>
      </trkpt>
      <trkpt lat="46.587" lon="-1.829505">
        <ele>14.2</ele>
        <time>2020-08-12T22:32:43Z</time>
      </trkpt>
      <trkpt lat="46.587312" lon="-1.830032">
        <ele>13.4</ele>
        <time>2020-08-12T22:32:47Z</time>
      </trkpt>
      <trkpt lat="46.58814" lon="-1.831715">
        <ele>12.2</ele>
        <time>2020-08-12T22:32:58Z</time>
      </trkpt>
      <trkpt lat="46.588316" lon="-1.83191">
        <ele>12.2</ele>
        <time>2020-08-12T22:32:59Z</time>
      </trkpt>
      <trkpt lat="46.588494" lon="-1.832025">
        <ele>11.2</ele>
        <time>2020-08-12T22:33:01Z</time>
      </trkpt>
      <trkpt lat="46.588715" lon="-1.832125">
        <ele>11.2</ele>
        <time>2020-08-12T22:33:03Z</time>
      </trkpt>
      <trkpt lat="46.591568" lon="-1.833093">
        <ele>5.8</ele>
        <time>2020-08-12T22:33:25Z</time>
      </trkpt>
      <trkpt lat="46.59209" lon="-1.833247">
        <ele>3.6</ele>
        <time>2020-08-12T22:33:29Z</time>
      </trkpt>
      <trkpt lat="46.592265" lon="-1.833255">
        <ele>3.6</ele>
        <time>2020-08-12T22:33:31Z</time>
      </trkpt>
      <trkpt lat="46.592554" lon="-1.833211">
        <ele>2.2</ele>
        <time>2020-08-12T22:33:33Z</time>
      </trkpt>
      <trkpt lat="46.59264" lon="-1.83324">
        <ele>2.2</ele>
        <time>2020-08-12T22:33:34Z</time>
      </trkpt>
      <trkpt lat="46.592678" lon="-1.833277">
        <ele>2.2</ele>
        <time>2020-08-12T22:33:34Z</time>
      </trkpt>
      <trkpt lat="46.592729" lon="-1.833217">
        <ele>2.2</ele>
        <time>2020-08-12T22:33:35Z</time>
      </trkpt>
      <trkpt lat="46.592817" lon="-1.833207">
        <ele>2.2</ele>
        <time>2020-08-12T22:33:35Z</time>
      </trkpt>
      <trkpt lat="46.593294" lon="-1.833327">
        <ele>2.2</ele>
        <time>2020-08-12T22:33:40Z</time>
      </trkpt>
      <trkpt lat="46.593516" lon="-1.833414">
        <ele>2.0</ele>
        <time>2020-08-12T22:33:43Z</time>
      </trkpt>
      <trkpt lat="46.594199" lon="-1.833759">
        <ele>1.8</ele>
        <time>2020-08-12T22:33:50Z</time>
      </trkpt>
      <trkpt lat="46.5943" lon="-1.833772">
        <ele>1.8</ele>
        <time>2020-08-12T22:33:51Z</time>
      </trkpt>
      <trkpt lat="46.594392" lon="-1.833751">
        <ele>1.8</ele>
        <time>2020-08-12T22:33:52Z</time>
      </trkpt>
      <trkpt lat="46.597223" lon="-1.831932">
        <ele>4.0</ele>
        <time>2020-08-12T22:34:24Z</time>
      </trkpt>
      <trkpt lat="46.597683" lon="-1.831703">
        <ele>4.2</ele>
        <time>2020-08-12T22:34:29Z</time>
      </trkpt>
      <trkpt lat="46.598245" lon="-1.831379">
        <ele>4.6</ele>
        <time>2020-08-12T22:34:35Z</time>
      </trkpt>
      <trkpt lat="46.59855" lon="-1.83124">
        <ele>5.8</ele>
        <time>2020-08-12T22:34:38Z</time>
      </trkpt>
      <trkpt lat="46.599204" lon="-1.830986">
        <ele>7.6</ele>
        <time>2020-08-12T22:34:45Z</time>
      </trkpt>
      <trkpt lat="46.59952" lon="-1.83091">
        <ele>7.6</ele>
        <time>2020-08-12T22:34:48Z</time>
      </trkpt>
      <trkpt lat="46.599745" lon="-1.83089">
        <ele>7.6</ele>
        <time>2020-08-12T22:34:51Z</time>
      </trkpt>
      <trkpt lat="46.60076" lon="-1.830974">
        <ele>9.6</ele>
        <time>2020-08-12T22:35:01Z</time>
      </trkpt>
      <trkpt lat="46.600945" lon="-1.830966">
        <ele>12.2</ele>
        <time>2020-08-12T22:35:03Z</time>
      </trkpt>
      <trkpt lat="46.601164" lon="-1.830918">
        <ele>12.2</ele>
        <time>2020-08-12T22:35:05Z</time>
      </trkpt>
      <trkpt lat="46.601371" lon="-1.830839">
        <ele>12.2</ele>
        <time>2020-08-12T22:35:08Z</time>
      </trkpt>
      <trkpt lat="46.601566" lon="-1.830736">
        <ele>13.4</ele>
        <time>2020-08-12T22:35:10Z</time>
      </trkpt>
      <trkpt lat="46.602347" lon="-1.830184">
        <ele>15.6</ele>
        <time>2020-08-12T22:35:19Z</time>
      </trkpt>
      <trkpt lat="46.602666" lon="-1.83004">
        <ele>16.6</ele>
        <time>2020-08-12T22:35:22Z</time>
      </trkpt>
      <trkpt lat="46.603121" lon="-1.829962">
        <ele>17.4</ele>
        <time>2020-08-12T22:35:27Z</time>
      </trkpt>
      <trkpt lat="46.603433" lon="-1.829962">
        <ele>18.4</ele>
        <time>2020-08-12T22:35:30Z</time>
      </trkpt>
      <trkpt lat="46.603485" lon="-1.82994">
        <ele>18.4</ele>
        <time>2020-08-12T22:35:30Z</time>
      </trkpt>
      <trkpt lat="46.603496" lon="-1.829866">
        <ele>18.4</ele>
        <time>2020-08-12T22:35:31Z</time>
      </trkpt>
      <trkpt lat="46.60356" lon="-1.82981">
        <ele>18.4</ele>
        <time>2020-08-12T22:35:32Z</time>
      </trkpt>
      <trkpt lat="46.603586" lon="-1.829814">
        <ele>18.4</ele>
        <time>2020-08-12T22:35:32Z</time>
      </trkpt>
      <trkpt lat="46.60364" lon="-1.829889">
        <ele>18.4</ele>
        <time>2020-08-12T22:35:33Z</time>
      </trkpt>
      <trkpt lat="46.603644" lon="-1.829926">
        <ele>18.4</ele>
        <time>2020-08-12T22:35:33Z</time>
      </trkpt>
      <trkpt lat="46.603782" lon="-1.830053">
        <ele>17.2</ele>
        <time>2020-08-12T22:35:35Z</time>
      </trkpt>
      <trkpt lat="46.604243" lon="-1.830221">
        <ele>18.6</ele>
        <time>2020-08-12T22:35:41Z</time>
      </trkpt>
      <trkpt lat="46.604642" lon="-1.830332">
        <ele>18.6</ele>
        <time>2020-08-12T22:35:47Z</time>
      </trkpt>
      <trkpt lat="46.604725" lon="-1.830338">
        <ele>18.6</ele>
        <time>2020-08-12T22:35:48Z</time>
      </trkpt>
      <trkpt lat="46.605091" lon="-1.830277">
        <ele>22.2</ele>
        <time>2020-08-12T22:35:53Z</time>
      </trkpt>
      <trkpt lat="46.605242" lon="-1.830279">
        <ele>22.2</ele>
        <time>2020-08-12T22:35:55Z</time>
      </trkpt>
      <trkpt lat="46.60532" lon="-1.830294">
        <ele>22.2</ele>
        <time>2020-08-12T22:35:56Z</time>
      </trkpt>
      <trkpt lat="46.605409" lon="-1.830347">
        <ele>22.2</ele>
        <time>2020-08-12T22:35:57Z</time>
      </trkpt>
      <trkpt lat="46.605458" lon="-1.83041">
        <ele>22.2</ele>
        <time>2020-08-12T22:35:58Z</time>
      </trkpt>
      <trkpt lat="46.605532" lon="-1.830671">
        <ele>22.2</ele>
        <time>2020-08-12T22:36:01Z</time>
      </trkpt>
      <trkpt lat="46.605595" lon="-1.830974">
        <ele>20.0</ele>
        <time>2020-08-12T22:36:03Z</time>
      </trkpt>
      <trkpt lat="46.605614" lon="-1.831156">
        <ele>20.0</ele>
        <time>2020-08-12T22:36:05Z</time>
      </trkpt>
      <trkpt lat="46.605566" lon="-1.832531">
        <ele>17.0</ele>
        <time>2020-08-12T22:36:17Z</time>
      </trkpt>
      <trkpt lat="46.605612" lon="-1.832559">
        <ele>17.0</ele>
        <time>2020-08-12T22:36:18Z</time>
      </trkpt>
      <trkpt lat="46.606452" lon="-1.833732">
        <ele>20.0</ele>
        <time>2020-08-12T22:36:36Z</time>
      </trkpt>
      <trkpt lat="46.606089" lon="-1.835221">
        <ele>17.2</ele>
        <time>2020-08-12T22:36:53Z</time>
      </trkpt>
      <trkpt lat="46.606122" lon="-1.835261">
        <ele>17.2</ele>
        <time>2020-08-12T22:36:53Z</time>
      </trkpt>
      <trkpt lat="46.606146" lon="-1.835373">
        <ele>17.2</ele>
        <time>2020-08-12T22:36:54Z</time>
      </trkpt>
      <trkpt lat="46.606132" lon="-1.835441">
        <ele>17.2</ele>
        <time>2020-08-12T22:36:55Z</time>
      </trkpt>
      <trkpt lat="46.606093" lon="-1.835498">
        <ele>17.2</ele>
        <time>2020-08-12T22:36:56Z</time>
      </trkpt>
      <trkpt lat="46.606071" lon="-1.835741">
        <ele>17.2</ele>
        <time>2020-08-12T22:36:58Z</time>
      </trkpt>
      <trkpt lat="46.606106" lon="-1.835918">
        <ele>15.2</ele>
        <time>2020-08-12T22:37:00Z</time>
      </trkpt>
      <trkpt lat="46.606742" lon="-1.838386">
        <ele>15.2</ele>
        <time>2020-08-12T22:37:23Z</time>
      </trkpt>
      <trkpt lat="46.607038" lon="-1.839674">
        <ele>7.2</ele>
        <time>2020-08-12T22:37:35Z</time>
      </trkpt>
      <trkpt lat="46.607295" lon="-1.840681">
        <ele>-4.2</ele>
        <time>2020-08-12T22:37:44Z</time>
      </trkpt>
      <trkpt lat="46.607624" lon="-1.841868">
        <ele>3.4</ele>
        <time>2020-08-12T22:37:56Z</time>
      </trkpt>
      <trkpt lat="46.608113" lon="-1.8438">
        <ele>7.8</ele>
        <time>2020-08-12T22:38:14Z</time>
      </trkpt>
      <trkpt lat="46.608307" lon="-1.844342">
        <ele>9.4</ele>
        <time>2020-08-12T22:38:19Z</time>
      </trkpt>
      <trkpt lat="46.60861" lon="-1.844876">
        <ele>11.6</ele>
        <time>2020-08-12T22:38:25Z</time>
      </trkpt>
      <trkpt lat="46.6088" lon="-1.845155">
        <ele>14.2</ele>
        <time>2020-08-12T22:38:29Z</time>
      </trkpt>
      <trkpt lat="46.608977" lon="-1.845378">
        <ele>14.2</ele>
        <time>2020-08-12T22:38:32Z</time>
      </trkpt>
      <trkpt lat="46.609228" lon="-1.845638">
        <ele>16.0</ele>
        <time>2020-08-12T22:38:36Z</time>
      </trkpt>
      <trkpt lat="46.610505" lon="-1.846708">
        <ele>21.8</ele>
        <time>2020-08-12T22:38:55Z</time>
      </trkpt>
      <trkpt lat="46.610811" lon="-1.846987">
        <ele>21.8</ele>
        <time>2020-08-12T22:38:59Z</time>
      </trkpt>
      <trkpt lat="46.611008" lon="-1.84729">
        <ele>20.4</ele>
        <time>2020-08-12T22:39:03Z</time>
      </trkpt>
      <trkpt lat="46.611168" lon="-1.847453">
        <ele>20.4</ele>
        <time>2020-08-12T22:39:06Z</time>
      </trkpt>
      <trkpt lat="46.611244" lon="-1.847425">
        <ele>20.4</ele>
        <time>2020-08-12T22:39:06Z</time>
      </trkpt>
      <trkpt lat="46.611321" lon="-1.847437">
        <ele>20.4</ele>
        <time>2020-08-12T22:39:07Z</time>
      </trkpt>
      <trkpt lat="46.611389" lon="-1.847487">
        <ele>20.4</ele>
        <time>2020-08-12T22:39:08Z</time>
      </trkpt>
      <trkpt lat="46.611454" lon="-1.847601">
        <ele>22.2</ele>
        <time>2020-08-12T22:39:08Z</time>
      </trkpt>
      <trkpt lat="46.611562" lon="-1.847647">
        <ele>22.2</ele>
        <time>2020-08-12T22:39:09Z</time>
      </trkpt>
      <trkpt lat="46.612065" lon="-1.847754">
        <ele>20.2</ele>
        <time>2020-08-12T22:39:14Z</time>
      </trkpt>
      <trkpt lat="46.614595" lon="-1.848165">
        <ele>19.4</ele>
        <time>2020-08-12T22:39:34Z</time>
      </trkpt>
      <trkpt lat="46.616025" lon="-1.847961">
        <ele>17.4</ele>
        <time>2020-08-12T22:39:46Z</time>
      </trkpt>
      <trkpt lat="46.616445" lon="-1.847929">
        <ele>17.4</ele>
        <time>2020-08-12T22:39:49Z</time>
      </trkpt>
      <trkpt lat="46.616784" lon="-1.847982">
        <ele>16.8</ele>
        <time>2020-08-12T22:39:52Z</time>
      </trkpt>
      <trkpt lat="46.617086" lon="-1.84809">
        <ele>16.8</ele>
        <time>2020-08-12T22:39:55Z</time>
      </trkpt>
      <trkpt lat="46.617403" lon="-1.84824">
        <ele>16.8</ele>
        <time>2020-08-12T22:39:57Z</time>
      </trkpt>
      <trkpt lat="46.619742" lon="-1.849817">
        <ele>14.8</ele>
        <time>2020-08-12T22:40:18Z</time>
      </trkpt>
      <trkpt lat="46.620415" lon="-1.850166">
        <ele>14.2</ele>
        <time>2020-08-12T22:40:24Z</time>
      </trkpt>
      <trkpt lat="46.621802" lon="-1.850793">
        <ele>17.2</ele>
        <time>2020-08-12T22:40:36Z</time>
      </trkpt>
      <trkpt lat="46.622047" lon="-1.850924">
        <ele>16.2</ele>
        <time>2020-08-12T22:40:38Z</time>
      </trkpt>
      <trkpt lat="46.622406" lon="-1.851207">
        <ele>16.2</ele>
        <time>2020-08-12T22:40:42Z</time>
      </trkpt>
      <trkpt lat="46.62266" lon="-1.851451">
        <ele>18.4</ele>
        <time>2020-08-12T22:40:44Z</time>
      </trkpt>
      <trkpt lat="46.622868" lon="-1.851559">
        <ele>18.4</ele>
        <time>2020-08-12T22:40:46Z</time>
      </trkpt>
      <trkpt lat="46.622937" lon="-1.851579">
        <ele>18.4</ele>
        <time>2020-08-12T22:40:47Z</time>
      </trkpt>
      <trkpt lat="46.622978" lon="-1.851702">
        <ele>18.0</ele>
        <time>2020-08-12T22:40:48Z</time>
      </trkpt>
      <trkpt lat="46.623145" lon="-1.851904">
        <ele>18.0</ele>
        <time>2020-08-12T22:40:50Z</time>
      </trkpt>
      <trkpt lat="46.623167" lon="-1.85196">
        <ele>18.0</ele>
        <time>2020-08-12T22:40:50Z</time>
      </trkpt>
      <trkpt lat="46.624028" lon="-1.852801">
        <ele>17.3</ele>
        <time>2020-08-12T22:41:04Z</time>
      </trkpt>
      <trkpt lat="46.624028" lon="-1.852801">
        <ele>17.3</ele>
        <time>2020-08-12T22:41:04Z</time>
      </trkpt>
      <trkpt lat="46.624506" lon="-1.853256">
        <ele>17.0</ele>
        <time>2020-08-12T22:41:11Z</time>
      </trkpt>
      <trkpt lat="46.624733" lon="-1.853392">
        <ele>15.8</ele>
        <time>2020-08-12T22:41:14Z</time>
      </trkpt>
      <trkpt lat="46.624759" lon="-1.853379">
        <ele>15.8</ele>
        <time>2020-08-12T22:41:14Z</time>
      </trkpt>
      <trkpt lat="46.62499" lon="-1.853429">
        <ele>15.8</ele>
        <time>2020-08-12T22:41:17Z</time>
      </trkpt>
      <trkpt lat="46.625471" lon="-1.853597">
        <ele>14.0</ele>
        <time>2020-08-12T22:41:22Z</time>
      </trkpt>
      <trkpt lat="46.625997" lon="-1.853745">
        <ele>12.6</ele>
        <time>2020-08-12T22:41:27Z</time>
      </trkpt>
      <trkpt lat="46.626428" lon="-1.853856">
        <ele>12.6</ele>
        <time>2020-08-12T22:41:32Z</time>
      </trkpt>
      <trkpt lat="46.626677" lon="-1.853895">
        <ele>12.0</ele>
        <time>2020-08-12T22:41:34Z</time>
      </trkpt>
      <trkpt lat="46.626849" lon="-1.853905">
        <ele>12.0</ele>
        <time>2020-08-12T22:41:36Z</time>
      </trkpt>
      <trkpt lat="46.627025" lon="-1.853881">
        <ele>12.0</ele>
        <time>2020-08-12T22:41:38Z</time>
      </trkpt>
      <trkpt lat="46.62742" lon="-1.853749">
        <ele>12.0</ele>
        <time>2020-08-12T22:41:42Z</time>
      </trkpt>
      <trkpt lat="46.627525" lon="-1.853732">
        <ele>14.0</ele>
        <time>2020-08-12T22:41:43Z</time>
      </trkpt>
      <trkpt lat="46.627515" lon="-1.85381">
        <ele>14.0</ele>
        <time>2020-08-12T22:41:44Z</time>
      </trkpt>
      <trkpt lat="46.627572" lon="-1.854099">
        <ele>14.0</ele>
        <time>2020-08-12T22:41:46Z</time>
      </trkpt>
      <trkpt lat="46.627637" lon="-1.854258">
        <ele>13.8</ele>
        <time>2020-08-12T22:41:47Z</time>
      </trkpt>
      <trkpt lat="46.627742" lon="-1.855">
        <ele>14.0</ele>
        <time>2020-08-12T22:41:52Z</time>
      </trkpt>
      <trkpt lat="46.627755" lon="-1.855207">
        <ele>14.0</ele>
        <time>2020-08-12T22:41:54Z</time>
      </trkpt>
      <trkpt lat="46.627732" lon="-1.855424">
        <ele>14.0</ele>
        <time>2020-08-12T22:41:55Z</time>
      </trkpt>
      <trkpt lat="46.627676" lon="-1.855741">
        <ele>14.0</ele>
        <time>2020-08-12T22:41:58Z</time>
      </trkpt>
      <trkpt lat="46.627672" lon="-1.85588">
        <ele>14.2</ele>
        <time>2020-08-12T22:41:59Z</time>
      </trkpt>
      <trkpt lat="46.627689" lon="-1.856114">
        <ele>14.2</ele>
        <time>2020-08-12T22:42:00Z</time>
      </trkpt>
      <trkpt lat="46.62778" lon="-1.856652">
        <ele>14.2</ele>
        <time>2020-08-12T22:42:04Z</time>
      </trkpt>
      <trkpt lat="46.627813" lon="-1.856778">
        <ele>14.4</ele>
        <time>2020-08-12T22:42:05Z</time>
      </trkpt>
      <trkpt lat="46.627871" lon="-1.856857">
        <ele>14.4</ele>
        <time>2020-08-12T22:42:06Z</time>
      </trkpt>
      <trkpt lat="46.62788" lon="-1.856956">
        <ele>14.4</ele>
        <time>2020-08-12T22:42:07Z</time>
      </trkpt>
      <trkpt lat="46.62799" lon="-1.857076">
        <ele>14.4</ele>
        <time>2020-08-12T22:42:09Z</time>
      </trkpt>
      <trkpt lat="46.62809" lon="-1.857244">
        <ele>14.4</ele>
        <time>2020-08-12T22:42:11Z</time>
      </trkpt>
      <trkpt lat="46.62884" lon="-1.857987">
        <ele>14.8</ele>
        <time>2020-08-12T22:42:22Z</time>
      </trkpt>
      <trkpt lat="46.628993" lon="-1.858168">
        <ele>14.8</ele>
        <time>2020-08-12T22:42:25Z</time>
      </trkpt>
      <trkpt lat="46.629066" lon="-1.858284">
        <ele>14.8</ele>
        <time>2020-08-12T22:42:26Z</time>
      </trkpt>
      <trkpt lat="46.629251" lon="-1.858397">
        <ele>13.0</ele>
        <time>2020-08-12T22:42:29Z</time>
      </trkpt>
      <trkpt lat="46.630022" lon="-1.859151">
        <ele>13.0</ele>
        <time>2020-08-12T22:42:41Z</time>
      </trkpt>
      <trkpt lat="46.630555" lon="-1.859609">
        <ele>12.4</ele>
        <time>2020-08-12T22:42:49Z</time>
      </trkpt>
      <trkpt lat="46.630845" lon="-1.859776">
        <ele>14.8</ele>
        <time>2020-08-12T22:42:53Z</time>
      </trkpt>
      <trkpt lat="46.631635" lon="-1.859993">
        <ele>14.8</ele>
        <time>2020-08-12T22:43:03Z</time>
      </trkpt>
      <trkpt lat="46.631908" lon="-1.860096">
        <ele>16.8</ele>
        <time>2020-08-12T22:43:07Z</time>
      </trkpt>
      <trkpt lat="46.632113" lon="-1.860406">
        <ele>16.8</ele>
        <time>2020-08-12T22:43:11Z</time>
      </trkpt>
      <trkpt lat="46.632384" lon="-1.860728">
        <ele>16.8</ele>
        <time>2020-08-12T22:43:15Z</time>
      </trkpt>
      <trkpt lat="46.632493" lon="-1.860908">
        <ele>16.2</ele>
        <time>2020-08-12T22:43:17Z</time>
      </trkpt>
      <trkpt lat="46.632725" lon="-1.861421">
        <ele>15.8</ele>
        <time>2020-08-12T22:43:23Z</time>
      </trkpt>
      <trkpt lat="46.632793" lon="-1.861697">
        <ele>14.8</ele>
        <time>2020-08-12T22:43:25Z</time>
      </trkpt>
      <trkpt lat="46.632961" lon="-1.861953">
        <ele>14.8</ele>
        <time>2020-08-12T22:43:28Z</time>
      </trkpt>
      <trkpt lat="46.633033" lon="-1.86202">
        <ele>14.8</ele>
        <time>2020-08-12T22:43:29Z</time>
      </trkpt>
      <trkpt lat="46.633047" lon="-1.862143">
        <ele>14.8</ele>
        <time>2020-08-12T22:43:30Z</time>
      </trkpt>
      <trkpt lat="46.633106" lon="-1.862324">
        <ele>14.8</ele>
        <time>2020-08-12T22:43:32Z</time>
      </trkpt>
      <trkpt lat="46.63318" lon="-1.862445">
        <ele>14.8</ele>
        <time>2020-08-12T22:43:33Z</time>
      </trkpt>
      <trkpt lat="46.633558" lon="-1.862794">
        <ele>12.4</ele>
        <time>2020-08-12T22:43:38Z</time>
      </trkpt>
      <trkpt lat="46.634101" lon="-1.863419">
        <ele>11.8</ele>
        <time>2020-08-12T22:43:45Z</time>
      </trkpt>
      <trkpt lat="46.634187" lon="-1.863556">
        <ele>12.4</ele>
        <time>2020-08-12T22:43:46Z</time>
      </trkpt>
      <trkpt lat="46.634261" lon="-1.863722">
        <ele>12.4</ele>
        <time>2020-08-12T22:43:48Z</time>
      </trkpt>
      <trkpt lat="46.634493" lon="-1.864545">
        <ele>12.4</ele>
        <time>2020-08-12T22:43:54Z</time>
      </trkpt>
      <trkpt lat="46.634566" lon="-1.864747">
        <ele>12.4</ele>
        <time>2020-08-12T22:43:56Z</time>
      </trkpt>
      <trkpt lat="46.634638" lon="-1.864902">
        <ele>12.4</ele>
        <time>2020-08-12T22:43:57Z</time>
      </trkpt>
      <trkpt lat="46.634744" lon="-1.865047">
        <ele>12.0</ele>
        <time>2020-08-12T22:43:59Z</time>
      </trkpt>
      <trkpt lat="46.634867" lon="-1.865165">
        <ele>12.0</ele>
        <time>2020-08-12T22:44:00Z</time>
      </trkpt>
      <trkpt lat="46.63502" lon="-1.865248">
        <ele>14.6</ele>
        <time>2020-08-12T22:44:02Z</time>
      </trkpt>
      <trkpt lat="46.635659" lon="-1.865505">
        <ele>14.6</ele>
        <time>2020-08-12T22:44:09Z</time>
      </trkpt>
      <trkpt lat="46.635933" lon="-1.865693">
        <ele>16.0</ele>
        <time>2020-08-12T22:44:12Z</time>
      </trkpt>
      <trkpt lat="46.636265" lon="-1.866018">
        <ele>15.6</ele>
        <time>2020-08-12T22:44:16Z</time>
      </trkpt>
      <trkpt lat="46.636952" lon="-1.866608">
        <ele>15.4</ele>
        <time>2020-08-12T22:44:25Z</time>
      </trkpt>
      <trkpt lat="46.637117" lon="-1.86666">
        <ele>15.4</ele>
        <time>2020-08-12T22:44:26Z</time>
      </trkpt>
      <trkpt lat="46.637147" lon="-1.86657">
        <ele>15.4</ele>
        <time>2020-08-12T22:44:28Z</time>
      </trkpt>
      <trkpt lat="46.637208" lon="-1.866526">
        <ele>15.4</ele>
        <time>2020-08-12T22:44:29Z</time>
      </trkpt>
      <trkpt lat="46.637276" lon="-1.866546">
        <ele>15.4</ele>
        <time>2020-08-12T22:44:30Z</time>
      </trkpt>
      <trkpt lat="46.637321" lon="-1.866624">
        <ele>15.4</ele>
        <time>2020-08-12T22:44:31Z</time>
      </trkpt>
      <trkpt lat="46.637328" lon="-1.866675">
        <ele>15.8</ele>
        <time>2020-08-12T22:44:32Z</time>
      </trkpt>
      <trkpt lat="46.637417" lon="-1.86667">
        <ele>15.8</ele>
        <time>2020-08-12T22:44:33Z</time>
      </trkpt>
      <trkpt lat="46.637804" lon="-1.866561">
        <ele>15.4</ele>
        <time>2020-08-12T22:44:40Z</time>
      </trkpt>
      <trkpt lat="46.637867" lon="-1.866563">
        <ele>15.4</ele>
        <time>2020-08-12T22:44:41Z</time>
      </trkpt>
      <trkpt lat="46.637891" lon="-1.866615">
        <ele>15.4</ele>
        <time>2020-08-12T22:44:42Z</time>
      </trkpt>
      <trkpt lat="46.637989" lon="-1.867428">
        <ele>15.8</ele>
        <time>2020-08-12T22:44:52Z</time>
      </trkpt>
      <trkpt lat="46.638037" lon="-1.867577">
        <ele>16.4</ele>
        <time>2020-08-12T22:44:54Z</time>
      </trkpt>
      <trkpt lat="46.638102" lon="-1.867672">
        <ele>16.4</ele>
        <time>2020-08-12T22:44:56Z</time>
      </trkpt>
      <trkpt lat="46.639084" lon="-1.867954">
        <ele>16.4</ele>
        <time>2020-08-12T22:45:13Z</time>
      </trkpt>
      <trkpt lat="46.639248" lon="-1.868053">
        <ele>16.6</ele>
        <time>2020-08-12T22:45:16Z</time>
      </trkpt>
      <trkpt lat="46.639335" lon="-1.868163">
        <ele>16.6</ele>
        <time>2020-08-12T22:45:19Z</time>
      </trkpt>
      <trkpt lat="46.639586" lon="-1.868254">
        <ele>16.6</ele>
        <time>2020-08-12T22:45:21Z</time>
      </trkpt>
      <trkpt lat="46.639849" lon="-1.868421">
        <ele>17.6</ele>
        <time>2020-08-12T22:45:23Z</time>
      </trkpt>
      <trkpt lat="46.640429" lon="-1.869016">
        <ele>18.6</ele>
        <time>2020-08-12T22:45:29Z</time>
      </trkpt>
      <trkpt lat="46.640653" lon="-1.869105">
        <ele>18.6</ele>
        <time>2020-08-12T22:45:31Z</time>
      </trkpt>
      <trkpt lat="46.641284" lon="-1.869138">
        <ele>19.2</ele>
        <time>2020-08-12T22:45:37Z</time>
      </trkpt>
      <trkpt lat="46.64175" lon="-1.869333">
        <ele>19.4</ele>
        <time>2020-08-12T22:45:41Z</time>
      </trkpt>
      <trkpt lat="46.641905" lon="-1.869355">
        <ele>19.4</ele>
        <time>2020-08-12T22:45:43Z</time>
      </trkpt>
      <trkpt lat="46.64241" lon="-1.869497">
        <ele>19.4</ele>
        <time>2020-08-12T22:45:47Z</time>
      </trkpt>
      <trkpt lat="46.643558" lon="-1.870567">
        <ele>19.4</ele>
        <time>2020-08-12T22:45:59Z</time>
      </trkpt>
      <trkpt lat="46.644011" lon="-1.871193">
        <ele>19.2</ele>
        <time>2020-08-12T22:46:04Z</time>
      </trkpt>
      <trkpt lat="46.644929" lon="-1.872223">
        <ele>18.2</ele>
        <time>2020-08-12T22:46:14Z</time>
      </trkpt>
      <trkpt lat="46.645233" lon="-1.8725">
        <ele>17.6</ele>
        <time>2020-08-12T22:46:18Z</time>
      </trkpt>
      <trkpt lat="46.645569" lon="-1.872756">
        <ele>18.2</ele>
        <time>2020-08-12T22:46:21Z</time>
      </trkpt>
      <trkpt lat="46.645789" lon="-1.872996">
        <ele>18.2</ele>
        <time>2020-08-12T22:46:23Z</time>
      </trkpt>
      <trkpt lat="46.646045" lon="-1.873359">
        <ele>16.4</ele>
        <time>2020-08-12T22:46:26Z</time>
      </trkpt>
      <trkpt lat="46.646681" lon="-1.874466">
        <ele>15.8</ele>
        <time>2020-08-12T22:46:35Z</time>
      </trkpt>
      <trkpt lat="46.647399" lon="-1.875829">
        <ele>15.6</ele>
        <time>2020-08-12T22:46:45Z</time>
      </trkpt>
      <trkpt lat="46.647656" lon="-1.876552">
        <ele>14.6</ele>
        <time>2020-08-12T22:46:50Z</time>
      </trkpt>
      <trkpt lat="46.647779" lon="-1.876855">
        <ele>15.0</ele>
        <time>2020-08-12T22:46:52Z</time>
      </trkpt>
      <trkpt lat="46.647905" lon="-1.877045">
        <ele>15.0</ele>
        <time>2020-08-12T22:46:54Z</time>
      </trkpt>
      <trkpt lat="46.648449" lon="-1.877708">
        <ele>14.2</ele>
        <time>2020-08-12T22:47:00Z</time>
      </trkpt>
      <trkpt lat="46.648657" lon="-1.878045">
        <ele>14.2</ele>
        <time>2020-08-12T22:47:03Z</time>
      </trkpt>
      <trkpt lat="46.648918" lon="-1.878578">
        <ele>14.0</ele>
        <time>2020-08-12T22:47:07Z</time>
      </trkpt>
      <trkpt lat="46.649232" lon="-1.879358">
        <ele>12.4</ele>
        <time>2020-08-12T22:47:12Z</time>
      </trkpt>
      <trkpt lat="46.649307" lon="-1.879441">
        <ele>12.4</ele>
        <time>2020-08-12T22:47:13Z</time>
      </trkpt>
      <trkpt lat="46.649371" lon="-1.879468">
        <ele>12.4</ele>
        <time>2020-08-12T22:47:14Z</time>
      </trkpt>
      <trkpt lat="46.649454" lon="-1.879444">
        <ele>12.4</ele>
        <time>2020-08-12T22:47:14Z</time>
      </trkpt>
      <trkpt lat="46.650289" lon="-1.878655">
        <ele>12.6</ele>
        <time>2020-08-12T22:47:23Z</time>
      </trkpt>
      <trkpt lat="46.650364" lon="-1.878548">
        <ele>12.6</ele>
        <time>2020-08-12T22:47:24Z</time>
      </trkpt>
      <trkpt lat="46.650487" lon="-1.878251">
        <ele>12.6</ele>
        <time>2020-08-12T22:47:26Z</time>
      </trkpt>
      <trkpt lat="46.650545" lon="-1.878165">
        <ele>12.6</ele>
        <time>2020-08-12T22:47:27Z</time>
      </trkpt>
      <trkpt lat="46.650973" lon="-1.877867">
        <ele>10.6</ele>
        <time>2020-08-12T22:47:31Z</time>
      </trkpt>
      <trkpt lat="46.651009" lon="-1.878273">
        <ele>10.6</ele>
        <time>2020-08-12T22:47:33Z</time>
      </trkpt>
      <trkpt lat="46.651074" lon="-1.878715">
        <ele>11.8</ele>
        <time>2020-08-12T22:47:35Z</time>
      </trkpt>
      <trkpt lat="46.651328" lon="-1.87974">
        <ele>12.0</ele>
        <time>2020-08-12T22:47:40Z</time>
      </trkpt>
      <trkpt lat="46.651852" lon="-1.881698">
        <ele>8.4</ele>
        <time>2020-08-12T22:47:49Z</time>
      </trkpt>
      <trkpt lat="46.651981" lon="-1.882285">
        <ele>8.4</ele>
        <time>2020-08-12T22:47:52Z</time>
      </trkpt>
      <trkpt lat="46.652066" lon="-1.882781">
        <ele>7.0</ele>
        <time>2020-08-12T22:47:54Z</time>
      </trkpt>
      <trkpt lat="46.652543" lon="-1.887438">
        <ele>7.6</ele>
        <time>2020-08-12T22:48:15Z</time>
      </trkpt>
      <trkpt lat="46.652828" lon="-1.889415">
        <ele>9.4</ele>
        <time>2020-08-12T22:48:25Z</time>
      </trkpt>
      <trkpt lat="46.653688" lon="-1.894937">
        <ele>6.2</ele>
        <time>2020-08-12T22:48:50Z</time>
      </trkpt>
      <trkpt lat="46.653682" lon="-1.895026">
        <ele>7.4</ele>
        <time>2020-08-12T22:48:51Z</time>
      </trkpt>
      <trkpt lat="46.654611" lon="-1.895851">
        <ele>7.8</ele>
        <time>2020-08-12T22:48:59Z</time>
      </trkpt>
      <trkpt lat="46.655559" lon="-1.896532">
        <ele>7.0</ele>
        <time>2020-08-12T22:49:07Z</time>
      </trkpt>
      <trkpt lat="46.661863" lon="-1.900554">
        <ele>5.2</ele>
        <time>2020-08-12T22:50:01Z</time>
      </trkpt>
      <trkpt lat="46.662457" lon="-1.900886">
        <ele>5.4</ele>
        <time>2020-08-12T22:50:06Z</time>
      </trkpt>
      <trkpt lat="46.662811" lon="-1.900998">
        <ele>2.0</ele>
        <time>2020-08-12T22:50:09Z</time>
      </trkpt>
      <trkpt lat="46.663281" lon="-1.901114">
        <ele>2.0</ele>
        <time>2020-08-12T22:50:13Z</time>
      </trkpt>
      <trkpt lat="46.668287" lon="-1.902305">
        <ele>4.2</ele>
        <time>2020-08-12T22:50:53Z</time>
      </trkpt>
      <trkpt lat="46.668759" lon="-1.902496">
        <ele>4.6</ele>
        <time>2020-08-12T22:50:56Z</time>
      </trkpt>
      <trkpt lat="46.669028" lon="-1.902659">
        <ele>2.0</ele>
        <time>2020-08-12T22:50:59Z</time>
      </trkpt>
      <trkpt lat="46.669425" lon="-1.902985">
        <ele>3.8</ele>
        <time>2020-08-12T22:51:02Z</time>
      </trkpt>
      <trkpt lat="46.669461" lon="-1.902985">
        <ele>3.8</ele>
        <time>2020-08-12T22:51:02Z</time>
      </trkpt>
      <trkpt lat="46.669552" lon="-1.903042">
        <ele>3.8</ele>
        <time>2020-08-12T22:51:03Z</time>
      </trkpt>
      <trkpt lat="46.669732" lon="-1.90309">
        <ele>3.8</ele>
        <time>2020-08-12T22:51:05Z</time>
      </trkpt>
      <trkpt lat="46.669833" lon="-1.903037">
        <ele>3.8</ele>
        <time>2020-08-12T22:51:06Z</time>
      </trkpt>
      <trkpt lat="46.669914" lon="-1.903057">
        <ele>3.8</ele>
        <time>2020-08-12T22:51:08Z</time>
      </trkpt>
      <trkpt lat="46.669951" lon="-1.903086">
        <ele>3.8</ele>
        <time>2020-08-12T22:51:08Z</time>
      </trkpt>
      <trkpt lat="46.670007" lon="-1.903174">
        <ele>5.6</ele>
        <time>2020-08-12T22:51:09Z</time>
      </trkpt>
      <trkpt lat="46.670244" lon="-1.903349">
        <ele>4.4</ele>
        <time>2020-08-12T22:51:13Z</time>
      </trkpt>
      <trkpt lat="46.670854" lon="-1.903908">
        <ele>6.0</ele>
        <time>2020-08-12T22:51:24Z</time>
      </trkpt>
      <trkpt lat="46.670872" lon="-1.90388">
        <ele>6.0</ele>
        <time>2020-08-12T22:51:25Z</time>
      </trkpt>
      <trkpt lat="46.670993" lon="-1.904013">
        <ele>6.0</ele>
        <time>2020-08-12T22:51:29Z</time>
      </trkpt>
      <trkpt lat="46.671021" lon="-1.904096">
        <ele>6.0</ele>
        <time>2020-08-12T22:51:31Z</time>
      </trkpt>
      <trkpt lat="46.671102" lon="-1.904167">
        <ele>6.0</ele>
        <time>2020-08-12T22:51:33Z</time>
      </trkpt>
      <trkpt lat="46.671156" lon="-1.904347">
        <ele>5.0</ele>
        <time>2020-08-12T22:51:37Z</time>
      </trkpt>
      <trkpt lat="46.671179" lon="-1.904374">
        <ele>5.0</ele>
        <time>2020-08-12T22:51:37Z</time>
      </trkpt>
      <trkpt lat="46.671322" lon="-1.904381">
        <ele>5.0</ele>
        <time>2020-08-12T22:51:40Z</time>
      </trkpt>
      <trkpt lat="46.671852" lon="-1.904266">
        <ele>5.4</ele>
        <time>2020-08-12T22:51:53Z</time>
      </trkpt>
      <trkpt lat="46.672678" lon="-1.904175">
        <ele>4.2</ele>
        <time>2020-08-12T22:52:12Z</time>
      </trkpt>
      <trkpt lat="46.672857" lon="-1.904202">
        <ele>4.2</ele>
        <time>2020-08-12T22:52:16Z</time>
      </trkpt>
      <trkpt lat="46.672833" lon="-1.904798">
        <ele>4.2</ele>
        <time>2020-08-12T22:52:25Z</time>
      </trkpt>
      <trkpt lat="46.672833" lon="-1.904798">
        <ele>4.2</ele>
        <time>2020-08-12T22:52:25Z</time>
      </trkpt>
      <trkpt lat="46.672857" lon="-1.904202">
        <ele>4.2</ele>
        <time>2020-08-12T22:52:35Z</time>
      </trkpt>
      <trkpt lat="46.672678" lon="-1.904175">
        <ele>4.2</ele>
        <time>2020-08-12T22:52:39Z</time>
      </trkpt>
      <trkpt lat="46.671852" lon="-1.904266">
        <ele>5.4</ele>
        <time>2020-08-12T22:52:59Z</time>
      </trkpt>
      <trkpt lat="46.671322" lon="-1.904381">
        <ele>5.0</ele>
        <time>2020-08-12T22:53:12Z</time>
      </trkpt>
      <trkpt lat="46.671179" lon="-1.904374">
        <ele>5.0</ele>
        <time>2020-08-12T22:53:15Z</time>
      </trkpt>
      <trkpt lat="46.671156" lon="-1.904347">
        <ele>5.0</ele>
        <time>2020-08-12T22:53:16Z</time>
      </trkpt>
      <trkpt lat="46.671102" lon="-1.904167">
        <ele>6.0</ele>
        <time>2020-08-12T22:53:19Z</time>
      </trkpt>
      <trkpt lat="46.670891" lon="-1.903996">
        <ele>6.0</ele>
        <time>2020-08-12T22:53:25Z</time>
      </trkpt>
      <trkpt lat="46.670841" lon="-1.903933">
        <ele>6.0</ele>
        <time>2020-08-12T22:53:26Z</time>
      </trkpt>
      <trkpt lat="46.670854" lon="-1.903908">
        <ele>6.0</ele>
        <time>2020-08-12T22:53:27Z</time>
      </trkpt>
      <trkpt lat="46.670244" lon="-1.903349">
        <ele>4.4</ele>
        <time>2020-08-12T22:53:38Z</time>
      </trkpt>
      <trkpt lat="46.670176" lon="-1.903343">
        <ele>4.4</ele>
        <time>2020-08-12T22:53:39Z</time>
      </trkpt>
      <trkpt lat="46.670023" lon="-1.903396">
        <ele>4.4</ele>
        <time>2020-08-12T22:53:41Z</time>
      </trkpt>
      <trkpt lat="46.669981" lon="-1.9035">
        <ele>2.2</ele>
        <time>2020-08-12T22:53:42Z</time>
      </trkpt>
      <trkpt lat="46.670007" lon="-1.903644">
        <ele>4.4</ele>
        <time>2020-08-12T22:53:42Z</time>
      </trkpt>
      <trkpt lat="46.670045" lon="-1.90377">
        <ele>4.4</ele>
        <time>2020-08-12T22:53:43Z</time>
      </trkpt>
      <trkpt lat="46.670119" lon="-1.903907">
        <ele>4.4</ele>
        <time>2020-08-12T22:53:44Z</time>
      </trkpt>
      <trkpt lat="46.670585" lon="-1.904491">
        <ele>3.0</ele>
        <time>2020-08-12T22:53:47Z</time>
      </trkpt>
      <trkpt lat="46.670898" lon="-1.904982">
        <ele>5.0</ele>
        <time>2020-08-12T22:53:50Z</time>
      </trkpt>
      <trkpt lat="46.671163" lon="-1.905334">
        <ele>3.8</ele>
        <time>2020-08-12T22:53:52Z</time>
      </trkpt>
      <trkpt lat="46.672928" lon="-1.90783">
        <ele>2.0</ele>
        <time>2020-08-12T22:54:09Z</time>
      </trkpt>
      <trkpt lat="46.673427" lon="-1.908499">
        <ele>2.4</ele>
        <time>2020-08-12T22:54:14Z</time>
      </trkpt>
      <trkpt lat="46.673549" lon="-1.908635">
        <ele>2.4</ele>
        <time>2020-08-12T22:54:15Z</time>
      </trkpt>
      <trkpt lat="46.673993" lon="-1.909005">
        <ele>2.4</ele>
        <time>2020-08-12T22:54:19Z</time>
      </trkpt>
      <trkpt lat="46.674212" lon="-1.909115">
        <ele>3.0</ele>
        <time>2020-08-12T22:54:20Z</time>
      </trkpt>
      <trkpt lat="46.674291" lon="-1.90912">
        <ele>3.0</ele>
        <time>2020-08-12T22:54:21Z</time>
      </trkpt>
      <trkpt lat="46.674362" lon="-1.909091">
        <ele>3.0</ele>
        <time>2020-08-12T22:54:22Z</time>
      </trkpt>
      <trkpt lat="46.674436" lon="-1.909098">
        <ele>3.0</ele>
        <time>2020-08-12T22:54:23Z</time>
      </trkpt>
      <trkpt lat="46.674504" lon="-1.90914">
        <ele>3.0</ele>
        <time>2020-08-12T22:54:23Z</time>
      </trkpt>
      <trkpt lat="46.674559" lon="-1.909212">
        <ele>3.4</ele>
        <time>2020-08-12T22:54:24Z</time>
      </trkpt>
      <trkpt lat="46.674595" lon="-1.909306">
        <ele>3.4</ele>
        <time>2020-08-12T22:54:25Z</time>
      </trkpt>
      <trkpt lat="46.674671" lon="-1.909386">
        <ele>3.4</ele>
        <time>2020-08-12T22:54:26Z</time>
      </trkpt>
      <trkpt lat="46.674936" lon="-1.909587">
        <ele>3.4</ele>
        <time>2020-08-12T22:54:29Z</time>
      </trkpt>
      <trkpt lat="46.675555" lon="-1.909799">
        <ele>4.4</ele>
        <time>2020-08-12T22:54:34Z</time>
      </trkpt>
      <trkpt lat="46.675985" lon="-1.909854">
        <ele>4.6</ele>
        <time>2020-08-12T22:54:38Z</time>
      </trkpt>
      <trkpt lat="46.680856" lon="-1.909902">
        <ele>14.6</ele>
        <time>2020-08-12T22:55:19Z</time>
      </trkpt>
      <trkpt lat="46.683076" lon="-1.909904">
        <ele>18.8</ele>
        <time>2020-08-12T22:55:38Z</time>
      </trkpt>
      <trkpt lat="46.683894" lon="-1.909979">
        <ele>19.8</ele>
        <time>2020-08-12T22:55:45Z</time>
      </trkpt>
      <trkpt lat="46.684338" lon="-1.910054">
        <ele>20.2</ele>
        <time>2020-08-12T22:55:49Z</time>
      </trkpt>
      <trkpt lat="46.684969" lon="-1.910212">
        <ele>20.2</ele>
        <time>2020-08-12T22:55:54Z</time>
      </trkpt>
      <trkpt lat="46.685737" lon="-1.910475">
        <ele>20.2</ele>
        <time>2020-08-12T22:56:01Z</time>
      </trkpt>
      <trkpt lat="46.68583" lon="-1.91049">
        <ele>20.2</ele>
        <time>2020-08-12T22:56:02Z</time>
      </trkpt>
      <trkpt lat="46.686042" lon="-1.910478">
        <ele>20.0</ele>
        <time>2020-08-12T22:56:04Z</time>
      </trkpt>
      <trkpt lat="46.686105" lon="-1.910433">
        <ele>20.0</ele>
        <time>2020-08-12T22:56:05Z</time>
      </trkpt>
      <trkpt lat="46.686143" lon="-1.910428">
        <ele>20.0</ele>
        <time>2020-08-12T22:56:05Z</time>
      </trkpt>
      <trkpt lat="46.686216" lon="-1.910463">
        <ele>20.0</ele>
        <time>2020-08-12T22:56:06Z</time>
      </trkpt>
      <trkpt lat="46.686268" lon="-1.910549">
        <ele>20.0</ele>
        <time>2020-08-12T22:56:07Z</time>
      </trkpt>
      <trkpt lat="46.686538" lon="-1.910846">
        <ele>19.4</ele>
        <time>2020-08-12T22:56:11Z</time>
      </trkpt>
      <trkpt lat="46.690377" lon="-1.91284">
        <ele>18.2</ele>
        <time>2020-08-12T22:56:56Z</time>
      </trkpt>
      <trkpt lat="46.691743" lon="-1.913447">
        <ele>16.8</ele>
        <time>2020-08-12T22:57:12Z</time>
      </trkpt>
      <trkpt lat="46.692391" lon="-1.91367">
        <ele>16.8</ele>
        <time>2020-08-12T22:57:20Z</time>
      </trkpt>
      <trkpt lat="46.692631" lon="-1.913694">
        <ele>16.4</ele>
        <time>2020-08-12T22:57:23Z</time>
      </trkpt>
      <trkpt lat="46.692663" lon="-1.91366">
        <ele>16.4</ele>
        <time>2020-08-12T22:57:23Z</time>
      </trkpt>
      <trkpt lat="46.692735" lon="-1.913644">
        <ele>16.4</ele>
        <time>2020-08-12T22:57:24Z</time>
      </trkpt>
      <trkpt lat="46.692799" lon="-1.913695">
        <ele>16.4</ele>
        <time>2020-08-12T22:57:25Z</time>
      </trkpt>
      <trkpt lat="46.692819" lon="-1.91374">
        <ele>16.4</ele>
        <time>2020-08-12T22:57:25Z</time>
      </trkpt>
      <trkpt lat="46.693774" lon="-1.913916">
        <ele>16.6</ele>
        <time>2020-08-12T22:57:35Z</time>
      </trkpt>
      <trkpt lat="46.694187" lon="-1.914072">
        <ele>15.8</ele>
        <time>2020-08-12T22:57:40Z</time>
      </trkpt>
      <trkpt lat="46.694269" lon="-1.914066">
        <ele>15.8</ele>
        <time>2020-08-12T22:57:41Z</time>
      </trkpt>
      <trkpt lat="46.694402" lon="-1.914">
        <ele>15.8</ele>
        <time>2020-08-12T22:57:42Z</time>
      </trkpt>
      <trkpt lat="46.694452" lon="-1.913888">
        <ele>15.8</ele>
        <time>2020-08-12T22:57:43Z</time>
      </trkpt>
      <trkpt lat="46.694522" lon="-1.913802">
        <ele>15.8</ele>
        <time>2020-08-12T22:57:44Z</time>
      </trkpt>
      <trkpt lat="46.694583" lon="-1.913759">
        <ele>15.8</ele>
        <time>2020-08-12T22:57:45Z</time>
      </trkpt>
      <trkpt lat="46.694732" lon="-1.913739">
        <ele>15.8</ele>
        <time>2020-08-12T22:57:47Z</time>
      </trkpt>
      <trkpt lat="46.694813" lon="-1.913773">
        <ele>15.8</ele>
        <time>2020-08-12T22:57:48Z</time>
      </trkpt>
      <trkpt lat="46.694884" lon="-1.913836">
        <ele>15.8</ele>
        <time>2020-08-12T22:57:49Z</time>
      </trkpt>
      <trkpt lat="46.694939" lon="-1.91392">
        <ele>15.8</ele>
        <time>2020-08-12T22:57:50Z</time>
      </trkpt>
      <trkpt lat="46.694977" lon="-1.914022">
        <ele>15.8</ele>
        <time>2020-08-12T22:57:51Z</time>
      </trkpt>
      <trkpt lat="46.694998" lon="-1.914224">
        <ele>16.8</ele>
        <time>2020-08-12T22:57:53Z</time>
      </trkpt>
      <trkpt lat="46.695163" lon="-1.914427">
        <ele>14.4</ele>
        <time>2020-08-12T22:57:56Z</time>
      </trkpt>
      <trkpt lat="46.695533" lon="-1.914686">
        <ele>14.4</ele>
        <time>2020-08-12T22:58:01Z</time>
      </trkpt>
      <trkpt lat="46.695791" lon="-1.914914">
        <ele>14.4</ele>
        <time>2020-08-12T22:58:05Z</time>
      </trkpt>
      <trkpt lat="46.696046" lon="-1.915196">
        <ele>12.2</ele>
        <time>2020-08-12T22:58:09Z</time>
      </trkpt>
      <trkpt lat="46.696347" lon="-1.915571">
        <ele>12.2</ele>
        <time>2020-08-12T22:58:14Z</time>
      </trkpt>
      <trkpt lat="46.696413" lon="-1.915617">
        <ele>12.2</ele>
        <time>2020-08-12T22:58:15Z</time>
      </trkpt>
      <trkpt lat="46.696489" lon="-1.915637">
        <ele>12.2</ele>
        <time>2020-08-12T22:58:16Z</time>
      </trkpt>
      <trkpt lat="46.696555" lon="-1.915631">
        <ele>12.2</ele>
        <time>2020-08-12T22:58:17Z</time>
      </trkpt>
      <trkpt lat="46.696614" lon="-1.915694">
        <ele>12.2</ele>
        <time>2020-08-12T22:58:18Z</time>
      </trkpt>
      <trkpt lat="46.696625" lon="-1.915817">
        <ele>12.2</ele>
        <time>2020-08-12T22:58:19Z</time>
      </trkpt>
      <trkpt lat="46.69665" lon="-1.915899">
        <ele>12.0</ele>
        <time>2020-08-12T22:58:20Z</time>
      </trkpt>
      <trkpt lat="46.69676" lon="-1.916176">
        <ele>8.0</ele>
        <time>2020-08-12T22:58:22Z</time>
      </trkpt>
      <trkpt lat="46.696971" lon="-1.916535">
        <ele>8.0</ele>
        <time>2020-08-12T22:58:26Z</time>
      </trkpt>
      <trkpt lat="46.697229" lon="-1.917045">
        <ele>8.2</ele>
        <time>2020-08-12T22:58:30Z</time>
      </trkpt>
      <trkpt lat="46.697478" lon="-1.917659">
        <ele>8.4</ele>
        <time>2020-08-12T22:58:36Z</time>
      </trkpt>
      <trkpt lat="46.697621" lon="-1.918075">
        <ele>7.6</ele>
        <time>2020-08-12T22:58:39Z</time>
      </trkpt>
      <trkpt lat="46.697761" lon="-1.918619">
        <ele>6.8</ele>
        <time>2020-08-12T22:58:44Z</time>
      </trkpt>
      <trkpt lat="46.698579" lon="-1.92227">
        <ele>8.0</ele>
        <time>2020-08-12T22:59:13Z</time>
      </trkpt>
      <trkpt lat="46.698631" lon="-1.92239">
        <ele>8.0</ele>
        <time>2020-08-12T22:59:14Z</time>
      </trkpt>
      <trkpt lat="46.69888" lon="-1.923253">
        <ele>7.8</ele>
        <time>2020-08-12T22:59:19Z</time>
      </trkpt>
      <trkpt lat="46.699084" lon="-1.923883">
        <ele>8.8</ele>
        <time>2020-08-12T22:59:22Z</time>
      </trkpt>
      <trkpt lat="46.699193" lon="-1.92409">
        <ele>7.8</ele>
        <time>2020-08-12T22:59:24Z</time>
      </trkpt>
      <trkpt lat="46.699331" lon="-1.924244">
        <ele>7.0</ele>
        <time>2020-08-12T22:59:25Z</time>
      </trkpt>
      <trkpt lat="46.699396" lon="-1.924291">
        <ele>7.0</ele>
        <time>2020-08-12T22:59:26Z</time>
      </trkpt>
      <trkpt lat="46.699491" lon="-1.924291">
        <ele>7.0</ele>
        <time>2020-08-12T22:59:26Z</time>
      </trkpt>
      <trkpt lat="46.699554" lon="-1.92421">
        <ele>7.0</ele>
        <time>2020-08-12T22:59:27Z</time>
      </trkpt>
      <trkpt lat="46.699632" lon="-1.9242">
        <ele>7.0</ele>
        <time>2020-08-12T22:59:28Z</time>
      </trkpt>
      <trkpt lat="46.699702" lon="-1.92426">
        <ele>7.0</ele>
        <time>2020-08-12T22:59:29Z</time>
      </trkpt>
      <trkpt lat="46.699732" lon="-1.924347">
        <ele>7.0</ele>
        <time>2020-08-12T22:59:30Z</time>
      </trkpt>
      <trkpt lat="46.699729" lon="-1.92444">
        <ele>7.0</ele>
        <time>2020-08-12T22:59:30Z</time>
      </trkpt>
      <trkpt lat="46.699697" lon="-1.924517">
        <ele>7.0</ele>
        <time>2020-08-12T22:59:31Z</time>
      </trkpt>
      <trkpt lat="46.699617" lon="-1.924574">
        <ele>7.0</ele>
        <time>2020-08-12T22:59:32Z</time>
      </trkpt>
      <trkpt lat="46.699501" lon="-1.924939">
        <ele>7.0</ele>
        <time>2020-08-12T22:59:35Z</time>
      </trkpt>
      <trkpt lat="46.699452" lon="-1.925164">
        <ele>6.2</ele>
        <time>2020-08-12T22:59:36Z</time>
      </trkpt>
      <trkpt lat="46.699431" lon="-1.925376">
        <ele>6.2</ele>
        <time>2020-08-12T22:59:38Z</time>
      </trkpt>
      <trkpt lat="46.699439" lon="-1.925614">
        <ele>6.2</ele>
        <time>2020-08-12T22:59:40Z</time>
      </trkpt>
      <trkpt lat="46.699641" lon="-1.926867">
        <ele>6.4</ele>
        <time>2020-08-12T22:59:49Z</time>
      </trkpt>
      <trkpt lat="46.699987" lon="-1.92846">
        <ele>6.8</ele>
        <time>2020-08-12T23:00:00Z</time>
      </trkpt>
      <trkpt lat="46.700815" lon="-1.932081">
        <ele>4.6</ele>
        <time>2020-08-12T23:00:27Z</time>
      </trkpt>
      <trkpt lat="46.700892" lon="-1.93239">
        <ele>2.6</ele>
        <time>2020-08-12T23:00:30Z</time>
      </trkpt>
      <trkpt lat="46.700995" lon="-1.932654">
        <ele>2.2</ele>
        <time>2020-08-12T23:00:32Z</time>
      </trkpt>
      <trkpt lat="46.70134" lon="-1.933699">
        <ele>2.0</ele>
        <time>2020-08-12T23:00:40Z</time>
      </trkpt>
      <trkpt lat="46.701389" lon="-1.933757">
        <ele>2.0</ele>
        <time>2020-08-12T23:00:41Z</time>
      </trkpt>
      <trkpt lat="46.701413" lon="-1.933824">
        <ele>2.0</ele>
        <time>2020-08-12T23:00:41Z</time>
      </trkpt>
      <trkpt lat="46.701415" lon="-1.933935">
        <ele>2.0</ele>
        <time>2020-08-12T23:00:41Z</time>
      </trkpt>
      <trkpt lat="46.701376" lon="-1.934033">
        <ele>2.0</ele>
        <time>2020-08-12T23:00:42Z</time>
      </trkpt>
      <trkpt lat="46.701378" lon="-1.934206">
        <ele>3.4</ele>
        <time>2020-08-12T23:00:43Z</time>
      </trkpt>
      <trkpt lat="46.701409" lon="-1.934417">
        <ele>3.4</ele>
        <time>2020-08-12T23:00:43Z</time>
      </trkpt>
      <trkpt lat="46.701968" lon="-1.936837">
        <ele>2.8</ele>
        <time>2020-08-12T23:00:54Z</time>
      </trkpt>
      <trkpt lat="46.702341" lon="-1.93821">
        <ele>2.8</ele>
        <time>2020-08-12T23:01:00Z</time>
      </trkpt>
      <trkpt lat="46.702503" lon="-1.938675">
        <ele>3.0</ele>
        <time>2020-08-12T23:01:02Z</time>
      </trkpt>
      <trkpt lat="46.702558" lon="-1.938782">
        <ele>3.0</ele>
        <time>2020-08-12T23:01:03Z</time>
      </trkpt>
      <trkpt lat="46.702613" lon="-1.938835">
        <ele>3.0</ele>
        <time>2020-08-12T23:01:03Z</time>
      </trkpt>
      <trkpt lat="46.702645" lon="-1.938846">
        <ele>3.0</ele>
        <time>2020-08-12T23:01:03Z</time>
      </trkpt>
      <trkpt lat="46.702724" lon="-1.938931">
        <ele>3.0</ele>
        <time>2020-08-12T23:01:04Z</time>
      </trkpt>
      <trkpt lat="46.702752" lon="-1.939018">
        <ele>3.0</ele>
        <time>2020-08-12T23:01:04Z</time>
      </trkpt>
      <trkpt lat="46.702754" lon="-1.939121">
        <ele>3.0</ele>
        <time>2020-08-12T23:01:05Z</time>
      </trkpt>
      <trkpt lat="46.702781" lon="-1.939214">
        <ele>2.6</ele>
        <time>2020-08-12T23:01:05Z</time>
      </trkpt>
      <trkpt lat="46.702892" lon="-1.93948">
        <ele>2.6</ele>
        <time>2020-08-12T23:01:07Z</time>
      </trkpt>
      <trkpt lat="46.703098" lon="-1.939855">
        <ele>2.6</ele>
        <time>2020-08-12T23:01:09Z</time>
      </trkpt>
      <trkpt lat="46.703651" lon="-1.940691">
        <ele>3.4</ele>
        <time>2020-08-12T23:01:14Z</time>
      </trkpt>
      <trkpt lat="46.703921" lon="-1.940984">
        <ele>4.6</ele>
        <time>2020-08-12T23:01:16Z</time>
      </trkpt>
      <trkpt lat="46.704376" lon="-1.941359">
        <ele>4.2</ele>
        <time>2020-08-12T23:01:20Z</time>
      </trkpt>
      <trkpt lat="46.704692" lon="-1.941561">
        <ele>4.2</ele>
        <time>2020-08-12T23:01:22Z</time>
      </trkpt>
      <trkpt lat="46.705041" lon="-1.941741">
        <ele>4.0</ele>
        <time>2020-08-12T23:01:25Z</time>
      </trkpt>
      <trkpt lat="46.705341" lon="-1.94186">
        <ele>4.0</ele>
        <time>2020-08-12T23:01:27Z</time>
      </trkpt>
      <trkpt lat="46.705756" lon="-1.941991">
        <ele>4.0</ele>
        <time>2020-08-12T23:01:30Z</time>
      </trkpt>
      <trkpt lat="46.706613" lon="-1.942152">
        <ele>4.8</ele>
        <time>2020-08-12T23:01:35Z</time>
      </trkpt>
      <trkpt lat="46.706665" lon="-1.942128">
        <ele>4.8</ele>
        <time>2020-08-12T23:01:36Z</time>
      </trkpt>
      <trkpt lat="46.706822" lon="-1.942121">
        <ele>5.4</ele>
        <time>2020-08-12T23:01:37Z</time>
      </trkpt>
      <trkpt lat="46.706883" lon="-1.942089">
        <ele>5.4</ele>
        <time>2020-08-12T23:01:37Z</time>
      </trkpt>
      <trkpt lat="46.706932" lon="-1.942056">
        <ele>5.4</ele>
        <time>2020-08-12T23:01:38Z</time>
      </trkpt>
      <trkpt lat="46.706991" lon="-1.942058">
        <ele>5.4</ele>
        <time>2020-08-12T23:01:38Z</time>
      </trkpt>
      <trkpt lat="46.70706" lon="-1.942135">
        <ele>5.4</ele>
        <time>2020-08-12T23:01:39Z</time>
      </trkpt>
      <trkpt lat="46.707292" lon="-1.942199">
        <ele>5.4</ele>
        <time>2020-08-12T23:01:41Z</time>
      </trkpt>
      <trkpt lat="46.707594" lon="-1.942197">
        <ele>6.0</ele>
        <time>2020-08-12T23:01:43Z</time>
      </trkpt>
      <trkpt lat="46.7083" lon="-1.942137">
        <ele>6.0</ele>
        <time>2020-08-12T23:01:48Z</time>
      </trkpt>
      <trkpt lat="46.709308" lon="-1.941975">
        <ele>4.2</ele>
        <time>2020-08-12T23:01:56Z</time>
      </trkpt>
      <trkpt lat="46.716447" lon="-1.940346">
        <ele>4.4</ele>
        <time>2020-08-12T23:02:50Z</time>
      </trkpt>
      <trkpt lat="46.717552" lon="-1.94007">
        <ele>3.4</ele>
        <time>2020-08-12T23:02:59Z</time>
      </trkpt>
      <trkpt lat="46.717823" lon="-1.939945">
        <ele>2.2</ele>
        <time>2020-08-12T23:03:01Z</time>
      </trkpt>
      <trkpt lat="46.717967" lon="-1.939843">
        <ele>2.2</ele>
        <time>2020-08-12T23:03:02Z</time>
      </trkpt>
      <trkpt lat="46.718037" lon="-1.939738">
        <ele>2.2</ele>
        <time>2020-08-12T23:03:03Z</time>
      </trkpt>
      <trkpt lat="46.718138" lon="-1.939715">
        <ele>2.2</ele>
        <time>2020-08-12T23:03:04Z</time>
      </trkpt>
      <trkpt lat="46.718279" lon="-1.939823">
        <ele>2.2</ele>
        <time>2020-08-12T23:03:06Z</time>
      </trkpt>
      <trkpt lat="46.718652" lon="-1.939829">
        <ele>1.4</ele>
        <time>2020-08-12T23:03:10Z</time>
      </trkpt>
      <trkpt lat="46.720163" lon="-1.939515">
        <ele>1.8</ele>
        <time>2020-08-12T23:03:25Z</time>
      </trkpt>
      <trkpt lat="46.72071" lon="-1.939524">
        <ele>1.8</ele>
        <time>2020-08-12T23:03:31Z</time>
      </trkpt>
      <trkpt lat="46.721264" lon="-1.93961">
        <ele>2.2</ele>
        <time>2020-08-12T23:03:36Z</time>
      </trkpt>
      <trkpt lat="46.721618" lon="-1.939728">
        <ele>2.2</ele>
        <time>2020-08-12T23:03:40Z</time>
      </trkpt>
      <trkpt lat="46.72222" lon="-1.940047">
        <ele>3.2</ele>
        <time>2020-08-12T23:03:47Z</time>
      </trkpt>
      <trkpt lat="46.722697" lon="-1.940409">
        <ele>3.2</ele>
        <time>2020-08-12T23:03:52Z</time>
      </trkpt>
      <trkpt lat="46.722894" lon="-1.940587">
        <ele>3.2</ele>
        <time>2020-08-12T23:03:55Z</time>
      </trkpt>
      <trkpt lat="46.723052" lon="-1.940746">
        <ele>3.2</ele>
        <time>2020-08-12T23:03:57Z</time>
      </trkpt>
      <trkpt lat="46.723498" lon="-1.941283">
        <ele>4.2</ele>
        <time>2020-08-12T23:04:02Z</time>
      </trkpt>
      <trkpt lat="46.723891" lon="-1.941846">
        <ele>5.0</ele>
        <time>2020-08-12T23:04:08Z</time>
      </trkpt>
      <trkpt lat="46.724985" lon="-1.943751">
        <ele>5.2</ele>
        <time>2020-08-12T23:04:26Z</time>
      </trkpt>
      <trkpt lat="46.725221" lon="-1.944203">
        <ele>5.2</ele>
        <time>2020-08-12T23:04:30Z</time>
      </trkpt>
      <trkpt lat="46.725403" lon="-1.944608">
        <ele>5.2</ele>
        <time>2020-08-12T23:04:33Z</time>
      </trkpt>
      <trkpt lat="46.725747" lon="-1.945192">
        <ele>5.6</ele>
        <time>2020-08-12T23:04:38Z</time>
      </trkpt>
      <trkpt lat="46.726253" lon="-1.946113">
        <ele>4.4</ele>
        <time>2020-08-12T23:04:47Z</time>
      </trkpt>
      <trkpt lat="46.727495" lon="-1.9483">
        <ele>4.2</ele>
        <time>2020-08-12T23:05:07Z</time>
      </trkpt>
      <trkpt lat="46.727713" lon="-1.948605">
        <ele>4.4</ele>
        <time>2020-08-12T23:05:10Z</time>
      </trkpt>
      <trkpt lat="46.727874" lon="-1.94874">
        <ele>4.4</ele>
        <time>2020-08-12T23:05:12Z</time>
      </trkpt>
      <trkpt lat="46.727996" lon="-1.948815">
        <ele>4.4</ele>
        <time>2020-08-12T23:05:12Z</time>
      </trkpt>
      <trkpt lat="46.728048" lon="-1.948881">
        <ele>4.4</ele>
        <time>2020-08-12T23:05:13Z</time>
      </trkpt>
      <trkpt lat="46.728115" lon="-1.949041">
        <ele>4.4</ele>
        <time>2020-08-12T23:05:14Z</time>
      </trkpt>
      <trkpt lat="46.728132" lon="-1.949146">
        <ele>4.4</ele>
        <time>2020-08-12T23:05:14Z</time>
      </trkpt>
      <trkpt lat="46.728116" lon="-1.949359">
        <ele>4.6</ele>
        <time>2020-08-12T23:05:15Z</time>
      </trkpt>
      <trkpt lat="46.728037" lon="-1.949539">
        <ele>4.6</ele>
        <time>2020-08-12T23:05:16Z</time>
      </trkpt>
      <trkpt lat="46.72803" lon="-1.949608">
        <ele>4.6</ele>
        <time>2020-08-12T23:05:17Z</time>
      </trkpt>
      <trkpt lat="46.72804" lon="-1.949785">
        <ele>4.6</ele>
        <time>2020-08-12T23:05:17Z</time>
      </trkpt>
      <trkpt lat="46.728078" lon="-1.949889">
        <ele>4.6</ele>
        <time>2020-08-12T23:05:18Z</time>
      </trkpt>
      <trkpt lat="46.728278" lon="-1.950256">
        <ele>4.8</ele>
        <time>2020-08-12T23:05:20Z</time>
      </trkpt>
      <trkpt lat="46.728726" lon="-1.950891">
        <ele>5.6</ele>
        <time>2020-08-12T23:05:24Z</time>
      </trkpt>
      <trkpt lat="46.729788" lon="-1.95265">
        <ele>2.2</ele>
        <time>2020-08-12T23:05:35Z</time>
      </trkpt>
      <trkpt lat="46.730427" lon="-1.953674">
        <ele>2.0</ele>
        <time>2020-08-12T23:05:42Z</time>
      </trkpt>
      <trkpt lat="46.731" lon="-1.954504">
        <ele>1.8</ele>
        <time>2020-08-12T23:05:48Z</time>
      </trkpt>
      <trkpt lat="46.7318" lon="-1.955546">
        <ele>0.6</ele>
        <time>2020-08-12T23:05:55Z</time>
      </trkpt>
      <trkpt lat="46.732152" lon="-1.955965">
        <ele>-0.2</ele>
        <time>2020-08-12T23:05:58Z</time>
      </trkpt>
      <trkpt lat="46.732942" lon="-1.956807">
        <ele>0.0</ele>
        <time>2020-08-12T23:06:05Z</time>
      </trkpt>
      <trkpt lat="46.733637" lon="-1.957464">
        <ele>0.0</ele>
        <time>2020-08-12T23:06:10Z</time>
      </trkpt>
      <trkpt lat="46.734342" lon="-1.958068">
        <ele>0.4</ele>
        <time>2020-08-12T23:06:16Z</time>
      </trkpt>
      <trkpt lat="46.734646" lon="-1.958295">
        <ele>0.4</ele>
        <time>2020-08-12T23:06:18Z</time>
      </trkpt>
      <trkpt lat="46.735254" lon="-1.958733">
        <ele>0.4</ele>
        <time>2020-08-12T23:06:23Z</time>
      </trkpt>
      <trkpt lat="46.736031" lon="-1.959205">
        <ele>1.0</ele>
        <time>2020-08-12T23:06:29Z</time>
      </trkpt>
      <trkpt lat="46.736527" lon="-1.959482">
        <ele>1.0</ele>
        <time>2020-08-12T23:06:32Z</time>
      </trkpt>
      <trkpt lat="46.737096" lon="-1.95975">
        <ele>0.4</ele>
        <time>2020-08-12T23:06:36Z</time>
      </trkpt>
      <trkpt lat="46.737947" lon="-1.960103">
        <ele>-0.2</ele>
        <time>2020-08-12T23:06:42Z</time>
      </trkpt>
      <trkpt lat="46.738374" lon="-1.960253">
        <ele>0.2</ele>
        <time>2020-08-12T23:06:45Z</time>
      </trkpt>
      <trkpt lat="46.739158" lon="-1.960484">
        <ele>0.2</ele>
        <time>2020-08-12T23:06:51Z</time>
      </trkpt>
      <trkpt lat="46.739759" lon="-1.960619">
        <ele>0.8</ele>
        <time>2020-08-12T23:06:55Z</time>
      </trkpt>
      <trkpt lat="46.740793" lon="-1.960797">
        <ele>-0.4</ele>
        <time>2020-08-12T23:07:02Z</time>
      </trkpt>
      <trkpt lat="46.743764" lon="-1.961211">
        <ele>-0.2</ele>
        <time>2020-08-12T23:07:23Z</time>
      </trkpt>
      <trkpt lat="46.744219" lon="-1.961163">
        <ele>-0.2</ele>
        <time>2020-08-12T23:07:26Z</time>
      </trkpt>
      <trkpt lat="46.744402" lon="-1.961075">
        <ele>-0.2</ele>
        <time>2020-08-12T23:07:27Z</time>
      </trkpt>
      <trkpt lat="46.744502" lon="-1.96094">
        <ele>-0.2</ele>
        <time>2020-08-12T23:07:28Z</time>
      </trkpt>
      <trkpt lat="46.744567" lon="-1.960898">
        <ele>-0.2</ele>
        <time>2020-08-12T23:07:29Z</time>
      </trkpt>
      <trkpt lat="46.744672" lon="-1.960886">
        <ele>-0.2</ele>
        <time>2020-08-12T23:07:30Z</time>
      </trkpt>
      <trkpt lat="46.744779" lon="-1.960915">
        <ele>-0.2</ele>
        <time>2020-08-12T23:07:31Z</time>
      </trkpt>
      <trkpt lat="46.744842" lon="-1.960968">
        <ele>-0.2</ele>
        <time>2020-08-12T23:07:32Z</time>
      </trkpt>
      <trkpt lat="46.744891" lon="-1.961034">
        <ele>-0.2</ele>
        <time>2020-08-12T23:07:32Z</time>
      </trkpt>
      <trkpt lat="46.744955" lon="-1.961204">
        <ele>-0.2</ele>
        <time>2020-08-12T23:07:34Z</time>
      </trkpt>
      <trkpt lat="46.744966" lon="-1.9613">
        <ele>-0.2</ele>
        <time>2020-08-12T23:07:34Z</time>
      </trkpt>
      <trkpt lat="46.744947" lon="-1.961492">
        <ele>-0.2</ele>
        <time>2020-08-12T23:07:35Z</time>
      </trkpt>
      <trkpt lat="46.744875" lon="-1.961654">
        <ele>-0.2</ele>
        <time>2020-08-12T23:07:37Z</time>
      </trkpt>
      <trkpt lat="46.744875" lon="-1.961906">
        <ele>0.0</ele>
        <time>2020-08-12T23:07:38Z</time>
      </trkpt>
      <trkpt lat="46.745078" lon="-1.962605">
        <ele>0.4</ele>
        <time>2020-08-12T23:07:43Z</time>
      </trkpt>
      <trkpt lat="46.745217" lon="-1.964105">
        <ele>0.4</ele>
        <time>2020-08-12T23:07:53Z</time>
      </trkpt>
      <trkpt lat="46.745298" lon="-1.96472">
        <ele>0.4</ele>
        <time>2020-08-12T23:07:57Z</time>
      </trkpt>
      <trkpt lat="46.745493" lon="-1.965933">
        <ele>0.2</ele>
        <time>2020-08-12T23:08:05Z</time>
      </trkpt>
      <trkpt lat="46.745623" lon="-1.966675">
        <ele>0.2</ele>
        <time>2020-08-12T23:08:10Z</time>
      </trkpt>
      <trkpt lat="46.745712" lon="-1.967091">
        <ele>0.2</ele>
        <time>2020-08-12T23:08:13Z</time>
      </trkpt>
      <trkpt lat="46.7461" lon="-1.968417">
        <ele>0.6</ele>
        <time>2020-08-12T23:08:22Z</time>
      </trkpt>
      <trkpt lat="46.746152" lon="-1.968639">
        <ele>0.6</ele>
        <time>2020-08-12T23:08:24Z</time>
      </trkpt>
      <trkpt lat="46.746218" lon="-1.969045">
        <ele>0.6</ele>
        <time>2020-08-12T23:08:26Z</time>
      </trkpt>
      <trkpt lat="46.746585" lon="-1.975555">
        <ele>0.4</ele>
        <time>2020-08-12T23:09:08Z</time>
      </trkpt>
      <trkpt lat="46.746707" lon="-1.976123">
        <ele>0.4</ele>
        <time>2020-08-12T23:09:12Z</time>
      </trkpt>
      <trkpt lat="46.746996" lon="-1.976964">
        <ele>0.6</ele>
        <time>2020-08-12T23:09:18Z</time>
      </trkpt>
      <trkpt lat="46.747088" lon="-1.977364">
        <ele>0.6</ele>
        <time>2020-08-12T23:09:21Z</time>
      </trkpt>
      <trkpt lat="46.747612" lon="-1.981188">
        <ele>2.0</ele>
        <time>2020-08-12T23:09:46Z</time>
      </trkpt>
      <trkpt lat="46.747675" lon="-1.981482">
        <ele>2.0</ele>
        <time>2020-08-12T23:09:48Z</time>
      </trkpt>
      <trkpt lat="46.747756" lon="-1.981727">
        <ele>1.6</ele>
        <time>2020-08-12T23:09:50Z</time>
      </trkpt>
      <trkpt lat="46.748565" lon="-1.983455">
        <ele>0.6</ele>
        <time>2020-08-12T23:10:03Z</time>
      </trkpt>
      <trkpt lat="46.748637" lon="-1.983568">
        <ele>0.6</ele>
        <time>2020-08-12T23:10:04Z</time>
      </trkpt>
      <trkpt lat="46.748795" lon="-1.983721">
        <ele>0.6</ele>
        <time>2020-08-12T23:10:06Z</time>
      </trkpt>
      <trkpt lat="46.749031" lon="-1.983793">
        <ele>0.6</ele>
        <time>2020-08-12T23:10:08Z</time>
      </trkpt>
      <trkpt lat="46.751304" lon="-1.983836">
        <ele>1.6</ele>
        <time>2020-08-12T23:10:30Z</time>
      </trkpt>
      <trkpt lat="46.75142" lon="-1.983857">
        <ele>1.6</ele>
        <time>2020-08-12T23:10:31Z</time>
      </trkpt>
      <trkpt lat="46.751589" lon="-1.983937">
        <ele>1.6</ele>
        <time>2020-08-12T23:10:32Z</time>
      </trkpt>
      <trkpt lat="46.751758" lon="-1.984094">
        <ele>2.6</ele>
        <time>2020-08-12T23:10:34Z</time>
      </trkpt>
      <trkpt lat="46.751827" lon="-1.984185">
        <ele>2.6</ele>
        <time>2020-08-12T23:10:35Z</time>
      </trkpt>
      <trkpt lat="46.752214" lon="-1.984994">
        <ele>2.6</ele>
        <time>2020-08-12T23:10:41Z</time>
      </trkpt>
      <trkpt lat="46.752394" lon="-1.985321">
        <ele>2.2</ele>
        <time>2020-08-12T23:10:44Z</time>
      </trkpt>
      <trkpt lat="46.752741" lon="-1.985783">
        <ele>2.6</ele>
        <time>2020-08-12T23:10:48Z</time>
      </trkpt>
      <trkpt lat="46.753061" lon="-1.986122">
        <ele>1.6</ele>
        <time>2020-08-12T23:10:52Z</time>
      </trkpt>
      <trkpt lat="46.753331" lon="-1.986345">
        <ele>1.6</ele>
        <time>2020-08-12T23:10:55Z</time>
      </trkpt>
      <trkpt lat="46.753875" lon="-1.986728">
        <ele>0.6</ele>
        <time>2020-08-12T23:11:01Z</time>
      </trkpt>
      <trkpt lat="46.756787" lon="-1.988687">
        <ele>1.6</ele>
        <time>2020-08-12T23:11:31Z</time>
      </trkpt>
      <trkpt lat="46.758009" lon="-1.989716">
        <ele>1.4</ele>
        <time>2020-08-12T23:11:44Z</time>
      </trkpt>
      <trkpt lat="46.75865" lon="-1.990344">
        <ele>1.0</ele>
        <time>2020-08-12T23:11:51Z</time>
      </trkpt>
      <trkpt lat="46.7591" lon="-1.990826">
        <ele>1.0</ele>
        <time>2020-08-12T23:11:57Z</time>
      </trkpt>
      <trkpt lat="46.760107" lon="-1.992058">
        <ele>2.4</ele>
        <time>2020-08-12T23:12:09Z</time>
      </trkpt>
      <trkpt lat="46.760632" lon="-1.992735">
        <ele>2.0</ele>
        <time>2020-08-12T23:12:16Z</time>
      </trkpt>
      <trkpt lat="46.762867" lon="-1.996128">
        <ele>1.6</ele>
        <time>2020-08-12T23:12:46Z</time>
      </trkpt>
      <trkpt lat="46.765439" lon="-2.000095">
        <ele>2.2</ele>
        <time>2020-08-12T23:13:21Z</time>
      </trkpt>
      <trkpt lat="46.765643" lon="-2.000242">
        <ele>2.2</ele>
        <time>2020-08-12T23:13:23Z</time>
      </trkpt>
      <trkpt lat="46.772892" lon="-2.00821">
        <ele>1.6</ele>
        <time>2020-08-12T23:14:48Z</time>
      </trkpt>
      <trkpt lat="46.773137" lon="-2.00844">
        <ele>4.2</ele>
        <time>2020-08-12T23:14:51Z</time>
      </trkpt>
      <trkpt lat="46.773686" lon="-2.008823">
        <ele>4.2</ele>
        <time>2020-08-12T23:14:57Z</time>
      </trkpt>
      <trkpt lat="46.778222" lon="-2.011057">
        <ele>7.0</ele>
        <time>2020-08-12T23:15:42Z</time>
      </trkpt>
      <trkpt lat="46.778669" lon="-2.011307">
        <ele>5.2</ele>
        <time>2020-08-12T23:15:46Z</time>
      </trkpt>
      <trkpt lat="46.778941" lon="-2.011506">
        <ele>5.2</ele>
        <time>2020-08-12T23:15:49Z</time>
      </trkpt>
      <trkpt lat="46.779201" lon="-2.011741">
        <ele>5.0</ele>
        <time>2020-08-12T23:15:52Z</time>
      </trkpt>
      <trkpt lat="46.779536" lon="-2.012112">
        <ele>5.0</ele>
        <time>2020-08-12T23:15:56Z</time>
      </trkpt>
      <trkpt lat="46.779787" lon="-2.012466">
        <ele>5.0</ele>
        <time>2020-08-12T23:15:59Z</time>
      </trkpt>
      <trkpt lat="46.780013" lon="-2.012904">
        <ele>3.6</ele>
        <time>2020-08-12T23:16:03Z</time>
      </trkpt>
      <trkpt lat="46.780167" lon="-2.013299">
        <ele>3.6</ele>
        <time>2020-08-12T23:16:06Z</time>
      </trkpt>
      <trkpt lat="46.78209" lon="-2.018602">
        <ele>5.2</ele>
        <time>2020-08-12T23:16:44Z</time>
      </trkpt>
      <trkpt lat="46.782324" lon="-2.01915">
        <ele>5.2</ele>
        <time>2020-08-12T23:16:48Z</time>
      </trkpt>
      <trkpt lat="46.783343" lon="-2.021278">
        <ele>5.0</ele>
        <time>2020-08-12T23:17:05Z</time>
      </trkpt>
      <trkpt lat="46.783891" lon="-2.022365">
        <ele>5.6</ele>
        <time>2020-08-12T23:17:14Z</time>
      </trkpt>
      <trkpt lat="46.784917" lon="-2.024477">
        <ele>5.2</ele>
        <time>2020-08-12T23:17:30Z</time>
      </trkpt>
      <trkpt lat="46.785453" lon="-2.025732">
        <ele>5.2</ele>
        <time>2020-08-12T23:17:40Z</time>
      </trkpt>
      <trkpt lat="46.785614" lon="-2.025931">
        <ele>4.4</ele>
        <time>2020-08-12T23:17:42Z</time>
      </trkpt>
      <trkpt lat="46.785785" lon="-2.026063">
        <ele>4.4</ele>
        <time>2020-08-12T23:17:44Z</time>
      </trkpt>
      <trkpt lat="46.785928" lon="-2.026078">
        <ele>4.6</ele>
        <time>2020-08-12T23:17:45Z</time>
      </trkpt>
      <trkpt lat="46.786048" lon="-2.026">
        <ele>4.6</ele>
        <time>2020-08-12T23:17:46Z</time>
      </trkpt>
      <trkpt lat="46.786152" lon="-2.025991">
        <ele>4.6</ele>
        <time>2020-08-12T23:17:47Z</time>
      </trkpt>
      <trkpt lat="46.786303" lon="-2.025933">
        <ele>4.6</ele>
        <time>2020-08-12T23:17:48Z</time>
      </trkpt>
      <trkpt lat="46.786475" lon="-2.025799">
        <ele>5.0</ele>
        <time>2020-08-12T23:17:49Z</time>
      </trkpt>
      <trkpt lat="46.787013" lon="-2.024798">
        <ele>3.6</ele>
        <time>2020-08-12T23:17:54Z</time>
      </trkpt>
      <trkpt lat="46.787213" lon="-2.024502">
        <ele>3.6</ele>
        <time>2020-08-12T23:17:56Z</time>
      </trkpt>
      <trkpt lat="46.787744" lon="-2.0239">
        <ele>0.8</ele>
        <time>2020-08-12T23:18:00Z</time>
      </trkpt>
      <trkpt lat="46.787823" lon="-2.023755">
        <ele>0.8</ele>
        <time>2020-08-12T23:18:01Z</time>
      </trkpt>
      <trkpt lat="46.787879" lon="-2.023577">
        <ele>0.8</ele>
        <time>2020-08-12T23:18:02Z</time>
      </trkpt>
      <trkpt lat="46.787878" lon="-2.023485">
        <ele>0.8</ele>
        <time>2020-08-12T23:18:02Z</time>
      </trkpt>
      <trkpt lat="46.787896" lon="-2.023398">
        <ele>0.8</ele>
        <time>2020-08-12T23:18:03Z</time>
      </trkpt>
      <trkpt lat="46.787933" lon="-2.023324">
        <ele>0.8</ele>
        <time>2020-08-12T23:18:03Z</time>
      </trkpt>
      <trkpt lat="46.787984" lon="-2.02327">
        <ele>0.8</ele>
        <time>2020-08-12T23:18:03Z</time>
      </trkpt>
      <trkpt lat="46.788043" lon="-2.023242">
        <ele>0.8</ele>
        <time>2020-08-12T23:18:04Z</time>
      </trkpt>
      <trkpt lat="46.788106" lon="-2.023242">
        <ele>0.8</ele>
        <time>2020-08-12T23:18:04Z</time>
      </trkpt>
      <trkpt lat="46.788165" lon="-2.023272">
        <ele>0.8</ele>
        <time>2020-08-12T23:18:04Z</time>
      </trkpt>
      <trkpt lat="46.788215" lon="-2.023327">
        <ele>0.8</ele>
        <time>2020-08-12T23:18:05Z</time>
      </trkpt>
      <trkpt lat="46.788247" lon="-2.02339">
        <ele>0.8</ele>
        <time>2020-08-12T23:18:05Z</time>
      </trkpt>
      <trkpt lat="46.78827" lon="-2.023541">
        <ele>0.8</ele>
        <time>2020-08-12T23:18:05Z</time>
      </trkpt>
      <trkpt lat="46.78826" lon="-2.023618">
        <ele>0.8</ele>
        <time>2020-08-12T23:18:06Z</time>
      </trkpt>
      <trkpt lat="46.788287" lon="-2.023772">
        <ele>0.8</ele>
        <time>2020-08-12T23:18:06Z</time>
      </trkpt>
      <trkpt lat="46.788347" lon="-2.023908">
        <ele>0.8</ele>
        <time>2020-08-12T23:18:07Z</time>
      </trkpt>
      <trkpt lat="46.788743" lon="-2.024492">
        <ele>1.0</ele>
        <time>2020-08-12T23:18:10Z</time>
      </trkpt>
      <trkpt lat="46.789019" lon="-2.025101">
        <ele>1.0</ele>
        <time>2020-08-12T23:18:13Z</time>
      </trkpt>
      <trkpt lat="46.789293" lon="-2.025599">
        <ele>0.8</ele>
        <time>2020-08-12T23:18:15Z</time>
      </trkpt>
      <trkpt lat="46.789606" lon="-2.026093">
        <ele>0.6</ele>
        <time>2020-08-12T23:18:17Z</time>
      </trkpt>
      <trkpt lat="46.789908" lon="-2.026494">
        <ele>0.6</ele>
        <time>2020-08-12T23:18:20Z</time>
      </trkpt>
      <trkpt lat="46.792627" lon="-2.029524">
        <ele>0.4</ele>
        <time>2020-08-12T23:18:38Z</time>
      </trkpt>
      <trkpt lat="46.793032" lon="-2.029995">
        <ele>0.4</ele>
        <time>2020-08-12T23:18:41Z</time>
      </trkpt>
      <trkpt lat="46.793318" lon="-2.030172">
        <ele>0.6</ele>
        <time>2020-08-12T23:18:42Z</time>
      </trkpt>
      <trkpt lat="46.793394" lon="-2.030163">
        <ele>0.2</ele>
        <time>2020-08-12T23:18:43Z</time>
      </trkpt>
      <trkpt lat="46.793463" lon="-2.03006">
        <ele>0.2</ele>
        <time>2020-08-12T23:18:44Z</time>
      </trkpt>
      <trkpt lat="46.793549" lon="-2.02999">
        <ele>-0.2</ele>
        <time>2020-08-12T23:18:45Z</time>
      </trkpt>
      <trkpt lat="46.793637" lon="-2.029959">
        <ele>-0.2</ele>
        <time>2020-08-12T23:18:45Z</time>
      </trkpt>
      <trkpt lat="46.793727" lon="-2.029962">
        <ele>-0.2</ele>
        <time>2020-08-12T23:18:46Z</time>
      </trkpt>
      <trkpt lat="46.793814" lon="-2.029998">
        <ele>-0.2</ele>
        <time>2020-08-12T23:18:47Z</time>
      </trkpt>
      <trkpt lat="46.793913" lon="-2.030093">
        <ele>0.2</ele>
        <time>2020-08-12T23:18:48Z</time>
      </trkpt>
      <trkpt lat="46.793984" lon="-2.030232">
        <ele>0.2</ele>
        <time>2020-08-12T23:18:49Z</time>
      </trkpt>
      <trkpt lat="46.79402" lon="-2.030405">
        <ele>0.2</ele>
        <time>2020-08-12T23:18:50Z</time>
      </trkpt>
      <trkpt lat="46.794015" lon="-2.030566">
        <ele>0.2</ele>
        <time>2020-08-12T23:18:51Z</time>
      </trkpt>
      <trkpt lat="46.793977" lon="-2.030716">
        <ele>0.2</ele>
        <time>2020-08-12T23:18:51Z</time>
      </trkpt>
      <trkpt lat="46.793888" lon="-2.030865">
        <ele>1.0</ele>
        <time>2020-08-12T23:18:53Z</time>
      </trkpt>
      <trkpt lat="46.793868" lon="-2.030959">
        <ele>1.0</ele>
        <time>2020-08-12T23:18:53Z</time>
      </trkpt>
      <trkpt lat="46.793853" lon="-2.031055">
        <ele>1.0</ele>
        <time>2020-08-12T23:18:54Z</time>
      </trkpt>
      <trkpt lat="46.793855" lon="-2.031181">
        <ele>1.0</ele>
        <time>2020-08-12T23:18:54Z</time>
      </trkpt>
      <trkpt lat="46.79388" lon="-2.031309">
        <ele>1.0</ele>
        <time>2020-08-12T23:18:55Z</time>
      </trkpt>
      <trkpt lat="46.793939" lon="-2.031533">
        <ele>1.0</ele>
        <time>2020-08-12T23:18:56Z</time>
      </trkpt>
      <trkpt lat="46.794133" lon="-2.031941">
        <ele>1.2</ele>
        <time>2020-08-12T23:18:59Z</time>
      </trkpt>
      <trkpt lat="46.794352" lon="-2.032501">
        <ele>1.0</ele>
        <time>2020-08-12T23:19:03Z</time>
      </trkpt>
      <trkpt lat="46.794511" lon="-2.032984">
        <ele>1.0</ele>
        <time>2020-08-12T23:19:06Z</time>
      </trkpt>
      <trkpt lat="46.794723" lon="-2.033875">
        <ele>0.8</ele>
        <time>2020-08-12T23:19:11Z</time>
      </trkpt>
      <trkpt lat="46.794834" lon="-2.034536">
        <ele>1.4</ele>
        <time>2020-08-12T23:19:15Z</time>
      </trkpt>
      <trkpt lat="46.794907" lon="-2.035132">
        <ele>0.8</ele>
        <time>2020-08-12T23:19:18Z</time>
      </trkpt>
      <trkpt lat="46.795047" lon="-2.036849">
        <ele>1.0</ele>
        <time>2020-08-12T23:19:28Z</time>
      </trkpt>
      <trkpt lat="46.795182" lon="-2.038003">
        <ele>0.6</ele>
        <time>2020-08-12T23:19:34Z</time>
      </trkpt>
      <trkpt lat="46.795305" lon="-2.038785">
        <ele>0.8</ele>
        <time>2020-08-12T23:19:39Z</time>
      </trkpt>
      <trkpt lat="46.79594" lon="-2.042318">
        <ele>1.0</ele>
        <time>2020-08-12T23:19:59Z</time>
      </trkpt>
      <trkpt lat="46.796047" lon="-2.043094">
        <ele>1.0</ele>
        <time>2020-08-12T23:20:04Z</time>
      </trkpt>
      <trkpt lat="46.796085" lon="-2.043812">
        <ele>1.4</ele>
        <time>2020-08-12T23:20:08Z</time>
      </trkpt>
      <trkpt lat="46.796071" lon="-2.045309">
        <ele>1.8</ele>
        <time>2020-08-12T23:20:16Z</time>
      </trkpt>
      <trkpt lat="46.796094" lon="-2.045542">
        <ele>1.8</ele>
        <time>2020-08-12T23:20:17Z</time>
      </trkpt>
      <trkpt lat="46.796131" lon="-2.045728">
        <ele>1.8</ele>
        <time>2020-08-12T23:20:18Z</time>
      </trkpt>
      <trkpt lat="46.796219" lon="-2.045926">
        <ele>2.0</ele>
        <time>2020-08-12T23:20:20Z</time>
      </trkpt>
      <trkpt lat="46.796489" lon="-2.046076">
        <ele>2.0</ele>
        <time>2020-08-12T23:20:22Z</time>
      </trkpt>
      <trkpt lat="46.796559" lon="-2.046025">
        <ele>2.0</ele>
        <time>2020-08-12T23:20:22Z</time>
      </trkpt>
      <trkpt lat="46.796636" lon="-2.045998">
        <ele>2.0</ele>
        <time>2020-08-12T23:20:23Z</time>
      </trkpt>
      <trkpt lat="46.796715" lon="-2.045999">
        <ele>2.4</ele>
        <time>2020-08-12T23:20:23Z</time>
      </trkpt>
      <trkpt lat="46.796822" lon="-2.046047">
        <ele>2.4</ele>
        <time>2020-08-12T23:20:24Z</time>
      </trkpt>
      <trkpt lat="46.796912" lon="-2.046143">
        <ele>2.4</ele>
        <time>2020-08-12T23:20:24Z</time>
      </trkpt>
      <trkpt lat="46.796969" lon="-2.046259">
        <ele>2.4</ele>
        <time>2020-08-12T23:20:25Z</time>
      </trkpt>
      <trkpt lat="46.797001" lon="-2.046394">
        <ele>2.4</ele>
        <time>2020-08-12T23:20:26Z</time>
      </trkpt>
      <trkpt lat="46.797004" lon="-2.046537">
        <ele>2.4</ele>
        <time>2020-08-12T23:20:26Z</time>
      </trkpt>
      <trkpt lat="46.796979" lon="-2.046675">
        <ele>1.8</ele>
        <time>2020-08-12T23:20:27Z</time>
      </trkpt>
      <trkpt lat="46.797025" lon="-2.04691">
        <ele>1.8</ele>
        <time>2020-08-12T23:20:28Z</time>
      </trkpt>
      <trkpt lat="46.797175" lon="-2.047388">
        <ele>1.8</ele>
        <time>2020-08-12T23:20:29Z</time>
      </trkpt>
      <trkpt lat="46.79721" lon="-2.047752">
        <ele>2.0</ele>
        <time>2020-08-12T23:20:31Z</time>
      </trkpt>
      <trkpt lat="46.797202" lon="-2.048184">
        <ele>2.0</ele>
        <time>2020-08-12T23:20:32Z</time>
      </trkpt>
      <trkpt lat="46.797127" lon="-2.049122">
        <ele>2.0</ele>
        <time>2020-08-12T23:20:36Z</time>
      </trkpt>
      <trkpt lat="46.797136" lon="-2.049939">
        <ele>2.0</ele>
        <time>2020-08-12T23:20:39Z</time>
      </trkpt>
      <trkpt lat="46.797232" lon="-2.050735">
        <ele>1.8</ele>
        <time>2020-08-12T23:20:42Z</time>
      </trkpt>
      <trkpt lat="46.797337" lon="-2.051243">
        <ele>1.4</ele>
        <time>2020-08-12T23:20:44Z</time>
      </trkpt>
      <trkpt lat="46.798098" lon="-2.054128">
        <ele>1.8</ele>
        <time>2020-08-12T23:20:56Z</time>
      </trkpt>
      <trkpt lat="46.798309" lon="-2.054622">
        <ele>1.8</ele>
        <time>2020-08-12T23:20:58Z</time>
      </trkpt>
      <trkpt lat="46.798377" lon="-2.05467">
        <ele>0.6</ele>
        <time>2020-08-12T23:20:58Z</time>
      </trkpt>
      <trkpt lat="46.798436" lon="-2.054696">
        <ele>0.6</ele>
        <time>2020-08-12T23:20:59Z</time>
      </trkpt>
      <trkpt lat="46.798496" lon="-2.054755">
        <ele>0.6</ele>
        <time>2020-08-12T23:20:59Z</time>
      </trkpt>
      <trkpt lat="46.798549" lon="-2.054862">
        <ele>0.6</ele>
        <time>2020-08-12T23:21:00Z</time>
      </trkpt>
      <trkpt lat="46.798565" lon="-2.054938">
        <ele>0.6</ele>
        <time>2020-08-12T23:21:00Z</time>
      </trkpt>
      <trkpt lat="46.798566" lon="-2.055054">
        <ele>0.6</ele>
        <time>2020-08-12T23:21:01Z</time>
      </trkpt>
      <trkpt lat="46.798547" lon="-2.055144">
        <ele>0.6</ele>
        <time>2020-08-12T23:21:01Z</time>
      </trkpt>
      <trkpt lat="46.798504" lon="-2.055234">
        <ele>0.6</ele>
        <time>2020-08-12T23:21:01Z</time>
      </trkpt>
      <trkpt lat="46.798557" lon="-2.05573">
        <ele>0.6</ele>
        <time>2020-08-12T23:21:04Z</time>
      </trkpt>
      <trkpt lat="46.79863" lon="-2.056108">
        <ele>1.2</ele>
        <time>2020-08-12T23:21:05Z</time>
      </trkpt>
      <trkpt lat="46.799886" lon="-2.06074">
        <ele>1.6</ele>
        <time>2020-08-12T23:21:27Z</time>
      </trkpt>
      <trkpt lat="46.800789" lon="-2.063999">
        <ele>0.6</ele>
        <time>2020-08-12T23:21:42Z</time>
      </trkpt>
      <trkpt lat="46.801149" lon="-2.065096">
        <ele>0.6</ele>
        <time>2020-08-12T23:21:47Z</time>
      </trkpt>
      <trkpt lat="46.801273" lon="-2.065519">
        <ele>0.6</ele>
        <time>2020-08-12T23:21:49Z</time>
      </trkpt>
      <trkpt lat="46.801375" lon="-2.065954">
        <ele>1.0</ele>
        <time>2020-08-12T23:21:51Z</time>
      </trkpt>
      <trkpt lat="46.801408" lon="-2.066214">
        <ele>1.0</ele>
        <time>2020-08-12T23:21:52Z</time>
      </trkpt>
      <trkpt lat="46.801401" lon="-2.066466">
        <ele>1.0</ele>
        <time>2020-08-12T23:21:53Z</time>
      </trkpt>
      <trkpt lat="46.801364" lon="-2.066686">
        <ele>0.8</ele>
        <time>2020-08-12T23:21:54Z</time>
      </trkpt>
      <trkpt lat="46.801327" lon="-2.066807">
        <ele>0.8</ele>
        <time>2020-08-12T23:21:55Z</time>
      </trkpt>
      <trkpt lat="46.801199" lon="-2.067078">
        <ele>0.8</ele>
        <time>2020-08-12T23:21:56Z</time>
      </trkpt>
      <trkpt lat="46.800991" lon="-2.067317">
        <ele>0.8</ele>
        <time>2020-08-12T23:21:58Z</time>
      </trkpt>
      <trkpt lat="46.800861" lon="-2.067397">
        <ele>0.8</ele>
        <time>2020-08-12T23:21:59Z</time>
      </trkpt>
      <trkpt lat="46.800183" lon="-2.067645">
        <ele>0.2</ele>
        <time>2020-08-12T23:22:03Z</time>
      </trkpt>
      <trkpt lat="46.800101" lon="-2.067738">
        <ele>0.2</ele>
        <time>2020-08-12T23:22:04Z</time>
      </trkpt>
      <trkpt lat="46.800096" lon="-2.067784">
        <ele>0.2</ele>
        <time>2020-08-12T23:22:04Z</time>
      </trkpt>
      <trkpt lat="46.800059" lon="-2.067857">
        <ele>0.2</ele>
        <time>2020-08-12T23:22:05Z</time>
      </trkpt>
      <trkpt lat="46.800031" lon="-2.067878">
        <ele>0.2</ele>
        <time>2020-08-12T23:22:05Z</time>
      </trkpt>
      <trkpt lat="46.799971" lon="-2.067881">
        <ele>0.2</ele>
        <time>2020-08-12T23:22:06Z</time>
      </trkpt>
      <trkpt lat="46.799921" lon="-2.067837">
        <ele>0.2</ele>
        <time>2020-08-12T23:22:06Z</time>
      </trkpt>
      <trkpt lat="46.799808" lon="-2.067842">
        <ele>0.2</ele>
        <time>2020-08-12T23:22:07Z</time>
      </trkpt>
      <trkpt lat="46.797064" lon="-2.069425">
        <ele>4.2</ele>
        <time>2020-08-12T23:22:38Z</time>
      </trkpt>
      <trkpt lat="46.796726" lon="-2.069682">
        <ele>4.2</ele>
        <time>2020-08-12T23:22:41Z</time>
      </trkpt>
      <trkpt lat="46.796723" lon="-2.069727">
        <ele>4.2</ele>
        <time>2020-08-12T23:22:42Z</time>
      </trkpt>
      <trkpt lat="46.79667" lon="-2.069834">
        <ele>4.2</ele>
        <time>2020-08-12T23:22:43Z</time>
      </trkpt>
      <trkpt lat="46.796667" lon="-2.0699">
        <ele>4.2</ele>
        <time>2020-08-12T23:22:43Z</time>
      </trkpt>
      <trkpt lat="46.796688" lon="-2.070035">
        <ele>4.4</ele>
        <time>2020-08-12T23:22:44Z</time>
      </trkpt>
      <trkpt lat="46.796765" lon="-2.070198">
        <ele>4.4</ele>
        <time>2020-08-12T23:22:46Z</time>
      </trkpt>
      <trkpt lat="46.798256" lon="-2.072423">
        <ele>4.0</ele>
        <time>2020-08-12T23:23:08Z</time>
      </trkpt>
      <trkpt lat="46.798625" lon="-2.073081">
        <ele>2.2</ele>
        <time>2020-08-12T23:23:14Z</time>
      </trkpt>
      <trkpt lat="46.79876" lon="-2.073418">
        <ele>4.0</ele>
        <time>2020-08-12T23:23:17Z</time>
      </trkpt>
      <trkpt lat="46.798961" lon="-2.074014">
        <ele>4.0</ele>
        <time>2020-08-12T23:23:21Z</time>
      </trkpt>
      <trkpt lat="46.802564" lon="-2.086154">
        <ele>3.2</ele>
        <time>2020-08-12T23:24:56Z</time>
      </trkpt>
      <trkpt lat="46.806211" lon="-2.098257">
        <ele>2.4</ele>
        <time>2020-08-12T23:26:30Z</time>
      </trkpt>
      <trkpt lat="46.806819" lon="-2.100321">
        <ele>1.4</ele>
        <time>2020-08-12T23:26:46Z</time>
      </trkpt>
      <trkpt lat="46.810354" lon="-2.111984">
        <ele>3.0</ele>
        <time>2020-08-12T23:28:16Z</time>
      </trkpt>
      <trkpt lat="46.81161" lon="-2.116172">
        <ele>4.0</ele>
        <time>2020-08-12T23:28:49Z</time>
      </trkpt>
      <trkpt lat="46.811673" lon="-2.116348">
        <ele>2.2</ele>
        <time>2020-08-12T23:28:51Z</time>
      </trkpt>
      <trkpt lat="46.811707" lon="-2.116329">
        <ele>2.2</ele>
        <time>2020-08-12T23:28:51Z</time>
      </trkpt>
      <trkpt lat="46.811777" lon="-2.116343">
        <ele>2.2</ele>
        <time>2020-08-12T23:28:52Z</time>
      </trkpt>
      <trkpt lat="46.811805" lon="-2.116375">
        <ele>2.2</ele>
        <time>2020-08-12T23:28:52Z</time>
      </trkpt>
      <trkpt lat="46.811823" lon="-2.116415">
        <ele>2.2</ele>
        <time>2020-08-12T23:28:52Z</time>
      </trkpt>
      <trkpt lat="46.811831" lon="-2.116507">
        <ele>2.2</ele>
        <time>2020-08-12T23:28:53Z</time>
      </trkpt>
      <trkpt lat="46.8118" lon="-2.116589">
        <ele>2.2</ele>
        <time>2020-08-12T23:28:54Z</time>
      </trkpt>
      <trkpt lat="46.811774" lon="-2.116615">
        <ele>2.2</ele>
        <time>2020-08-12T23:28:54Z</time>
      </trkpt>
      <trkpt lat="46.811831" lon="-2.116711">
        <ele>4.2</ele>
        <time>2020-08-12T23:28:55Z</time>
      </trkpt>
      <trkpt lat="46.812023" lon="-2.117135">
        <ele>4.2</ele>
        <time>2020-08-12T23:28:58Z</time>
      </trkpt>
      <trkpt lat="46.812462" lon="-2.118016">
        <ele>6.4</ele>
        <time>2020-08-12T23:29:06Z</time>
      </trkpt>
      <trkpt lat="46.814194" lon="-2.121308">
        <ele>2.2</ele>
        <time>2020-08-12T23:29:35Z</time>
      </trkpt>
      <trkpt lat="46.814831" lon="-2.120576">
        <ele>2.0</ele>
        <time>2020-08-12T23:29:50Z</time>
      </trkpt>
      <trkpt lat="46.815457" lon="-2.120173">
        <ele>1.6</ele>
        <time>2020-08-12T23:30:03Z</time>
      </trkpt>
      <trkpt lat="46.815457" lon="-2.120173">
        <ele>1.6</ele>
        <time>2020-08-12T23:30:03Z</time>
      </trkpt>
      <trkpt lat="46.814831" lon="-2.120576">
        <ele>2.0</ele>
        <time>2020-08-12T23:30:15Z</time>
      </trkpt>
      <trkpt lat="46.814194" lon="-2.121308">
        <ele>2.2</ele>
        <time>2020-08-12T23:30:30Z</time>
      </trkpt>
      <trkpt lat="46.815042" lon="-2.122894">
        <ele>2.2</ele>
        <time>2020-08-12T23:30:41Z</time>
      </trkpt>
      <trkpt lat="46.815649" lon="-2.123908">
        <ele>4.8</ele>
        <time>2020-08-12T23:30:48Z</time>
      </trkpt>
      <trkpt lat="46.816062" lon="-2.12442">
        <ele>4.2</ele>
        <time>2020-08-12T23:30:52Z</time>
      </trkpt>
      <trkpt lat="46.817105" lon="-2.125788">
        <ele>3.2</ele>
        <time>2020-08-12T23:31:02Z</time>
      </trkpt>
      <trkpt lat="46.818819" lon="-2.127922">
        <ele>2.4</ele>
        <time>2020-08-12T23:31:19Z</time>
      </trkpt>
      <trkpt lat="46.819492" lon="-2.12884">
        <ele>2.0</ele>
        <time>2020-08-12T23:31:26Z</time>
      </trkpt>
      <trkpt lat="46.820702" lon="-2.130348">
        <ele>5.2</ele>
        <time>2020-08-12T23:31:38Z</time>
      </trkpt>
      <trkpt lat="46.82076" lon="-2.130355">
        <ele>5.2</ele>
        <time>2020-08-12T23:31:39Z</time>
      </trkpt>
      <trkpt lat="46.820789" lon="-2.130389">
        <ele>5.2</ele>
        <time>2020-08-12T23:31:39Z</time>
      </trkpt>
      <trkpt lat="46.820803" lon="-2.130492">
        <ele>5.2</ele>
        <time>2020-08-12T23:31:40Z</time>
      </trkpt>
      <trkpt lat="46.820927" lon="-2.130653">
        <ele>4.6</ele>
        <time>2020-08-12T23:31:41Z</time>
      </trkpt>
      <trkpt lat="46.821139" lon="-2.130798">
        <ele>4.6</ele>
        <time>2020-08-12T23:31:44Z</time>
      </trkpt>
      <trkpt lat="46.821314" lon="-2.130885">
        <ele>5.6</ele>
        <time>2020-08-12T23:31:47Z</time>
      </trkpt>
      <trkpt lat="46.823471" lon="-2.131641">
        <ele>5.4</ele>
        <time>2020-08-12T23:32:16Z</time>
      </trkpt>
      <trkpt lat="46.823981" lon="-2.13179">
        <ele>6.4</ele>
        <time>2020-08-12T23:32:23Z</time>
      </trkpt>
      <trkpt lat="46.824207" lon="-2.131819">
        <ele>6.0</ele>
        <time>2020-08-12T23:32:26Z</time>
      </trkpt>
      <trkpt lat="46.824552" lon="-2.131834">
        <ele>6.0</ele>
        <time>2020-08-12T23:32:30Z</time>
      </trkpt>
      <trkpt lat="46.824714" lon="-2.131764">
        <ele>6.0</ele>
        <time>2020-08-12T23:32:33Z</time>
      </trkpt>
      <trkpt lat="46.824724" lon="-2.13166">
        <ele>4.8</ele>
        <time>2020-08-12T23:32:34Z</time>
      </trkpt>
      <trkpt lat="46.824786" lon="-2.131607">
        <ele>4.8</ele>
        <time>2020-08-12T23:32:34Z</time>
      </trkpt>
      <trkpt lat="46.824853" lon="-2.131646">
        <ele>4.8</ele>
        <time>2020-08-12T23:32:35Z</time>
      </trkpt>
      <trkpt lat="46.824874" lon="-2.13171">
        <ele>6.0</ele>
        <time>2020-08-12T23:32:36Z</time>
      </trkpt>
      <trkpt lat="46.824867" lon="-2.13178">
        <ele>6.0</ele>
        <time>2020-08-12T23:32:37Z</time>
      </trkpt>
      <trkpt lat="46.824953" lon="-2.131835">
        <ele>6.0</ele>
        <time>2020-08-12T23:32:38Z</time>
      </trkpt>
      <trkpt lat="46.825053" lon="-2.131851">
        <ele>5.8</ele>
        <time>2020-08-12T23:32:39Z</time>
      </trkpt>
      <trkpt lat="46.828986" lon="-2.131886">
        <ele>6.0</ele>
        <time>2020-08-12T23:33:30Z</time>
      </trkpt>
      <trkpt lat="46.829736" lon="-2.131874">
        <ele>6.2</ele>
        <time>2020-08-12T23:33:40Z</time>
      </trkpt>
      <trkpt lat="46.829975" lon="-2.131777">
        <ele>6.2</ele>
        <time>2020-08-12T23:33:43Z</time>
      </trkpt>
      <trkpt lat="46.829962" lon="-2.131737">
        <ele>6.2</ele>
        <time>2020-08-12T23:33:44Z</time>
      </trkpt>
      <trkpt lat="46.829965" lon="-2.13165">
        <ele>5.2</ele>
        <time>2020-08-12T23:33:45Z</time>
      </trkpt>
      <trkpt lat="46.829981" lon="-2.131611">
        <ele>5.2</ele>
        <time>2020-08-12T23:33:45Z</time>
      </trkpt>
      <trkpt lat="46.830054" lon="-2.131564">
        <ele>5.4</ele>
        <time>2020-08-12T23:33:46Z</time>
      </trkpt>
      <trkpt lat="46.830122" lon="-2.131612">
        <ele>5.4</ele>
        <time>2020-08-12T23:33:47Z</time>
      </trkpt>
      <trkpt lat="46.83017" lon="-2.131537">
        <ele>5.4</ele>
        <time>2020-08-12T23:33:48Z</time>
      </trkpt>
      <trkpt lat="46.830323" lon="-2.131235">
        <ele>5.4</ele>
        <time>2020-08-12T23:33:51Z</time>
      </trkpt>
      <trkpt lat="46.830559" lon="-2.130711">
        <ele>4.2</ele>
        <time>2020-08-12T23:33:57Z</time>
      </trkpt>
      <trkpt lat="46.830535" lon="-2.130672">
        <ele>4.2</ele>
        <time>2020-08-12T23:33:57Z</time>
      </trkpt>
      <trkpt lat="46.830516" lon="-2.130571">
        <ele>4.2</ele>
        <time>2020-08-12T23:33:58Z</time>
      </trkpt>
      <trkpt lat="46.830542" lon="-2.130474">
        <ele>4.2</ele>
        <time>2020-08-12T23:33:59Z</time>
      </trkpt>
      <trkpt lat="46.830569" lon="-2.130439">
        <ele>4.2</ele>
        <time>2020-08-12T23:34:00Z</time>
      </trkpt>
      <trkpt lat="46.830644" lon="-2.130414">
        <ele>4.2</ele>
        <time>2020-08-12T23:34:01Z</time>
      </trkpt>
      <trkpt lat="46.830712" lon="-2.130462">
        <ele>4.2</ele>
        <time>2020-08-12T23:34:02Z</time>
      </trkpt>
      <trkpt lat="46.830735" lon="-2.130508">
        <ele>4.2</ele>
        <time>2020-08-12T23:34:02Z</time>
      </trkpt>
      <trkpt lat="46.831156" lon="-2.130218">
        <ele>4.8</ele>
        <time>2020-08-12T23:34:08Z</time>
      </trkpt>
      <trkpt lat="46.831468" lon="-2.13004">
        <ele>4.8</ele>
        <time>2020-08-12T23:34:13Z</time>
      </trkpt>
      <trkpt lat="46.831765" lon="-2.129902">
        <ele>3.8</ele>
        <time>2020-08-12T23:34:17Z</time>
      </trkpt>
      <trkpt lat="46.831985" lon="-2.129834">
        <ele>3.8</ele>
        <time>2020-08-12T23:34:20Z</time>
      </trkpt>
      <trkpt lat="46.832105" lon="-2.129733">
        <ele>3.8</ele>
        <time>2020-08-12T23:34:22Z</time>
      </trkpt>
      <trkpt lat="46.832099" lon="-2.129668">
        <ele>3.8</ele>
        <time>2020-08-12T23:34:22Z</time>
      </trkpt>
      <trkpt lat="46.832125" lon="-2.129593">
        <ele>3.8</ele>
        <time>2020-08-12T23:34:23Z</time>
      </trkpt>
      <trkpt lat="46.832156" lon="-2.129564">
        <ele>3.8</ele>
        <time>2020-08-12T23:34:23Z</time>
      </trkpt>
      <trkpt lat="46.832186" lon="-2.129556">
        <ele>3.8</ele>
        <time>2020-08-12T23:34:23Z</time>
      </trkpt>
      <trkpt lat="46.83224" lon="-2.129582">
        <ele>3.8</ele>
        <time>2020-08-12T23:34:24Z</time>
      </trkpt>
      <trkpt lat="46.832275" lon="-2.129671">
        <ele>3.8</ele>
        <time>2020-08-12T23:34:25Z</time>
      </trkpt>
      <trkpt lat="46.832351" lon="-2.129678">
        <ele>3.8</ele>
        <time>2020-08-12T23:34:26Z</time>
      </trkpt>
      <trkpt lat="46.83457" lon="-2.128327">
        <ele>3.2</ele>
        <time>2020-08-12T23:34:50Z</time>
      </trkpt>
      <trkpt lat="46.836065" lon="-2.127383">
        <ele>2.6</ele>
        <time>2020-08-12T23:35:06Z</time>
      </trkpt>
      <trkpt lat="46.837171" lon="-2.126706">
        <ele>3.4</ele>
        <time>2020-08-12T23:35:18Z</time>
      </trkpt>
      <trkpt lat="46.837434" lon="-2.126565">
        <ele>1.6</ele>
        <time>2020-08-12T23:35:21Z</time>
      </trkpt>
      <trkpt lat="46.837628" lon="-2.126424">
        <ele>2.2</ele>
        <time>2020-08-12T23:35:23Z</time>
      </trkpt>
      <trkpt lat="46.839133" lon="-2.125511">
        <ele>2.2</ele>
        <time>2020-08-12T23:35:39Z</time>
      </trkpt>
      <trkpt lat="46.839594" lon="-2.125254">
        <ele>1.8</ele>
        <time>2020-08-12T23:35:44Z</time>
      </trkpt>
      <trkpt lat="46.839882" lon="-2.125145">
        <ele>1.8</ele>
        <time>2020-08-12T23:35:47Z</time>
      </trkpt>
      <trkpt lat="46.840274" lon="-2.12506">
        <ele>2.0</ele>
        <time>2020-08-12T23:35:51Z</time>
      </trkpt>
      <trkpt lat="46.845796" lon="-2.124218">
        <ele>3.2</ele>
        <time>2020-08-12T23:36:46Z</time>
      </trkpt>
      <trkpt lat="46.846609" lon="-2.124004">
        <ele>3.8</ele>
        <time>2020-08-12T23:36:55Z</time>
      </trkpt>
      <trkpt lat="46.846843" lon="-2.12389">
        <ele>3.6</ele>
        <time>2020-08-12T23:36:57Z</time>
      </trkpt>
      <trkpt lat="46.847554" lon="-2.123375">
        <ele>3.0</ele>
        <time>2020-08-12T23:37:05Z</time>
      </trkpt>
      <trkpt lat="46.848494" lon="-2.122655">
        <ele>2.6</ele>
        <time>2020-08-12T23:37:16Z</time>
      </trkpt>
      <trkpt lat="46.854443" lon="-2.118069">
        <ele>0.4</ele>
        <time>2020-08-12T23:38:23Z</time>
      </trkpt>
      <trkpt lat="46.855141" lon="-2.117591">
        <ele>1.6</ele>
        <time>2020-08-12T23:38:30Z</time>
      </trkpt>
      <trkpt lat="46.856315" lon="-2.116916">
        <ele>1.8</ele>
        <time>2020-08-12T23:38:43Z</time>
      </trkpt>
      <trkpt lat="46.857172" lon="-2.116469">
        <ele>1.2</ele>
        <time>2020-08-12T23:38:52Z</time>
      </trkpt>
      <trkpt lat="46.85998" lon="-2.115149">
        <ele>1.6</ele>
        <time>2020-08-12T23:39:22Z</time>
      </trkpt>
      <trkpt lat="46.860502" lon="-2.114951">
        <ele>0.6</ele>
        <time>2020-08-12T23:39:27Z</time>
      </trkpt>
      <trkpt lat="46.860892" lon="-2.114862">
        <ele>0.4</ele>
        <time>2020-08-12T23:39:31Z</time>
      </trkpt>
      <trkpt lat="46.861529" lon="-2.114838">
        <ele>0.4</ele>
        <time>2020-08-12T23:39:37Z</time>
      </trkpt>
      <trkpt lat="46.861731" lon="-2.114859">
        <ele>0.0</ele>
        <time>2020-08-12T23:39:39Z</time>
      </trkpt>
      <trkpt lat="46.862187" lon="-2.114949">
        <ele>0.0</ele>
        <time>2020-08-12T23:39:44Z</time>
      </trkpt>
      <trkpt lat="46.862503" lon="-2.115067">
        <ele>0.2</ele>
        <time>2020-08-12T23:39:47Z</time>
      </trkpt>
      <trkpt lat="46.874916" lon="-2.120372">
        <ele>0.8</ele>
        <time>2020-08-12T23:41:56Z</time>
      </trkpt>
      <trkpt lat="46.875367" lon="-2.120533">
        <ele>1.0</ele>
        <time>2020-08-12T23:42:01Z</time>
      </trkpt>
      <trkpt lat="46.875654" lon="-2.120593">
        <ele>1.0</ele>
        <time>2020-08-12T23:42:04Z</time>
      </trkpt>
      <trkpt lat="46.875921" lon="-2.120622">
        <ele>0.8</ele>
        <time>2020-08-12T23:42:07Z</time>
      </trkpt>
      <trkpt lat="46.876344" lon="-2.120613">
        <ele>0.8</ele>
        <time>2020-08-12T23:42:11Z</time>
      </trkpt>
      <trkpt lat="46.876561" lon="-2.120579">
        <ele>0.8</ele>
        <time>2020-08-12T23:42:13Z</time>
      </trkpt>
      <trkpt lat="46.876936" lon="-2.120477">
        <ele>1.0</ele>
        <time>2020-08-12T23:42:17Z</time>
      </trkpt>
      <trkpt lat="46.878174" lon="-2.120023">
        <ele>1.2</ele>
        <time>2020-08-12T23:42:29Z</time>
      </trkpt>
      <trkpt lat="46.878306" lon="-2.119935">
        <ele>1.0</ele>
        <time>2020-08-12T23:42:31Z</time>
      </trkpt>
      <trkpt lat="46.878658" lon="-2.119867">
        <ele>1.6</ele>
        <time>2020-08-12T23:42:35Z</time>
      </trkpt>
      <trkpt lat="46.878709" lon="-2.119801">
        <ele>1.6</ele>
        <time>2020-08-12T23:42:35Z</time>
      </trkpt>
      <trkpt lat="46.878773" lon="-2.119766">
        <ele>1.6</ele>
        <time>2020-08-12T23:42:36Z</time>
      </trkpt>
      <trkpt lat="46.878841" lon="-2.119767">
        <ele>1.6</ele>
        <time>2020-08-12T23:42:37Z</time>
      </trkpt>
      <trkpt lat="46.878905" lon="-2.119804">
        <ele>1.6</ele>
        <time>2020-08-12T23:42:37Z</time>
      </trkpt>
      <trkpt lat="46.878958" lon="-2.119876">
        <ele>1.6</ele>
        <time>2020-08-12T23:42:38Z</time>
      </trkpt>
      <trkpt lat="46.878988" lon="-2.119971">
        <ele>1.6</ele>
        <time>2020-08-12T23:42:39Z</time>
      </trkpt>
      <trkpt lat="46.878993" lon="-2.120061">
        <ele>2.2</ele>
        <time>2020-08-12T23:42:39Z</time>
      </trkpt>
      <trkpt lat="46.878977" lon="-2.120148">
        <ele>2.2</ele>
        <time>2020-08-12T23:42:40Z</time>
      </trkpt>
      <trkpt lat="46.879035" lon="-2.120327">
        <ele>2.2</ele>
        <time>2020-08-12T23:42:41Z</time>
      </trkpt>
      <trkpt lat="46.879108" lon="-2.120423">
        <ele>2.2</ele>
        <time>2020-08-12T23:42:42Z</time>
      </trkpt>
      <trkpt lat="46.879291" lon="-2.120544">
        <ele>2.4</ele>
        <time>2020-08-12T23:42:45Z</time>
      </trkpt>
      <trkpt lat="46.880515" lon="-2.120771">
        <ele>2.4</ele>
        <time>2020-08-12T23:42:57Z</time>
      </trkpt>
      <trkpt lat="46.881059" lon="-2.120939">
        <ele>2.0</ele>
        <time>2020-08-12T23:43:03Z</time>
      </trkpt>
      <trkpt lat="46.881651" lon="-2.121229">
        <ele>2.0</ele>
        <time>2020-08-12T23:43:09Z</time>
      </trkpt>
      <trkpt lat="46.881915" lon="-2.121381">
        <ele>2.0</ele>
        <time>2020-08-12T23:43:12Z</time>
      </trkpt>
      <trkpt lat="46.882334" lon="-2.121674">
        <ele>2.2</ele>
        <time>2020-08-12T23:43:17Z</time>
      </trkpt>
      <trkpt lat="46.882637" lon="-2.121921">
        <ele>2.0</ele>
        <time>2020-08-12T23:43:20Z</time>
      </trkpt>
      <trkpt lat="46.883164" lon="-2.122428">
        <ele>2.0</ele>
        <time>2020-08-12T23:43:27Z</time>
      </trkpt>
      <trkpt lat="46.883391" lon="-2.122714">
        <ele>2.8</ele>
        <time>2020-08-12T23:43:30Z</time>
      </trkpt>
      <trkpt lat="46.883682" lon="-2.123133">
        <ele>2.8</ele>
        <time>2020-08-12T23:43:34Z</time>
      </trkpt>
      <trkpt lat="46.884347" lon="-2.124202">
        <ele>5.8</ele>
        <time>2020-08-12T23:43:44Z</time>
      </trkpt>
      <trkpt lat="46.884456" lon="-2.124313">
        <ele>5.8</ele>
        <time>2020-08-12T23:43:46Z</time>
      </trkpt>
      <trkpt lat="46.884561" lon="-2.12429">
        <ele>5.8</ele>
        <time>2020-08-12T23:43:47Z</time>
      </trkpt>
      <trkpt lat="46.884632" lon="-2.124325">
        <ele>5.8</ele>
        <time>2020-08-12T23:43:47Z</time>
      </trkpt>
      <trkpt lat="46.884688" lon="-2.124441">
        <ele>5.8</ele>
        <time>2020-08-12T23:43:48Z</time>
      </trkpt>
      <trkpt lat="46.884699" lon="-2.124524">
        <ele>5.8</ele>
        <time>2020-08-12T23:43:49Z</time>
      </trkpt>
      <trkpt lat="46.884692" lon="-2.124608">
        <ele>5.8</ele>
        <time>2020-08-12T23:43:49Z</time>
      </trkpt>
      <trkpt lat="46.884664" lon="-2.124683">
        <ele>5.8</ele>
        <time>2020-08-12T23:43:50Z</time>
      </trkpt>
      <trkpt lat="46.88468" lon="-2.124869">
        <ele>5.8</ele>
        <time>2020-08-12T23:43:51Z</time>
      </trkpt>
      <trkpt lat="46.884739" lon="-2.125119">
        <ele>10.4</ele>
        <time>2020-08-12T23:43:53Z</time>
      </trkpt>
      <trkpt lat="46.884865" lon="-2.125514">
        <ele>10.4</ele>
        <time>2020-08-12T23:43:56Z</time>
      </trkpt>
      <trkpt lat="46.884904" lon="-2.12572">
        <ele>10.4</ele>
        <time>2020-08-12T23:43:57Z</time>
      </trkpt>
      <trkpt lat="46.885128" lon="-2.126609">
        <ele>13.0</ele>
        <time>2020-08-12T23:44:03Z</time>
      </trkpt>
      <trkpt lat="46.885273" lon="-2.127348">
        <ele>14.8</ele>
        <time>2020-08-12T23:44:08Z</time>
      </trkpt>
      <trkpt lat="46.885353" lon="-2.127968">
        <ele>14.6</ele>
        <time>2020-08-12T23:44:12Z</time>
      </trkpt>
      <trkpt lat="46.885403" lon="-2.128577">
        <ele>13.0</ele>
        <time>2020-08-12T23:44:16Z</time>
      </trkpt>
      <trkpt lat="46.885408" lon="-2.129198">
        <ele>11.6</ele>
        <time>2020-08-12T23:44:20Z</time>
      </trkpt>
      <trkpt lat="46.885382" lon="-2.129843">
        <ele>11.6</ele>
        <time>2020-08-12T23:44:25Z</time>
      </trkpt>
      <trkpt lat="46.885316" lon="-2.130647">
        <ele>10.4</ele>
        <time>2020-08-12T23:44:30Z</time>
      </trkpt>
      <trkpt lat="46.884258" lon="-2.136377">
        <ele>6.6</ele>
        <time>2020-08-12T23:45:08Z</time>
      </trkpt>
      <trkpt lat="46.88417" lon="-2.137299">
        <ele>6.6</ele>
        <time>2020-08-12T23:45:14Z</time>
      </trkpt>
      <trkpt lat="46.884155" lon="-2.137797">
        <ele>7.4</ele>
        <time>2020-08-12T23:45:18Z</time>
      </trkpt>
      <trkpt lat="46.884189" lon="-2.138721">
        <ele>9.0</ele>
        <time>2020-08-12T23:45:24Z</time>
      </trkpt>
      <trkpt lat="46.884276" lon="-2.139858">
        <ele>9.2</ele>
        <time>2020-08-12T23:45:31Z</time>
      </trkpt>
      <trkpt lat="46.884336" lon="-2.140963">
        <ele>7.2</ele>
        <time>2020-08-12T23:45:38Z</time>
      </trkpt>
      <trkpt lat="46.884332" lon="-2.141821">
        <ele>6.0</ele>
        <time>2020-08-12T23:45:44Z</time>
      </trkpt>
      <trkpt lat="46.884303" lon="-2.142203">
        <ele>6.0</ele>
        <time>2020-08-12T23:45:46Z</time>
      </trkpt>
      <trkpt lat="46.88413" lon="-2.143718">
        <ele>6.6</ele>
        <time>2020-08-12T23:45:56Z</time>
      </trkpt>
      <trkpt lat="46.884083" lon="-2.144725">
        <ele>6.2</ele>
        <time>2020-08-12T23:46:03Z</time>
      </trkpt>
      <trkpt lat="46.884069" lon="-2.146733">
        <ele>6.2</ele>
        <time>2020-08-12T23:46:16Z</time>
      </trkpt>
      <trkpt lat="46.884126" lon="-2.147427">
        <ele>6.2</ele>
        <time>2020-08-12T23:46:21Z</time>
      </trkpt>
      <trkpt lat="46.884206" lon="-2.14787">
        <ele>7.4</ele>
        <time>2020-08-12T23:46:24Z</time>
      </trkpt>
      <trkpt lat="46.884358" lon="-2.148402">
        <ele>7.4</ele>
        <time>2020-08-12T23:46:27Z</time>
      </trkpt>
      <trkpt lat="46.884487" lon="-2.14873">
        <ele>7.4</ele>
        <time>2020-08-12T23:46:30Z</time>
      </trkpt>
      <trkpt lat="46.884616" lon="-2.14901">
        <ele>7.4</ele>
        <time>2020-08-12T23:46:32Z</time>
      </trkpt>
      <trkpt lat="46.88482" lon="-2.149387">
        <ele>7.4</ele>
        <time>2020-08-12T23:46:35Z</time>
      </trkpt>
      <trkpt lat="46.885174" lon="-2.149861">
        <ele>6.8</ele>
        <time>2020-08-12T23:46:40Z</time>
      </trkpt>
      <trkpt lat="46.885449" lon="-2.150161">
        <ele>6.2</ele>
        <time>2020-08-12T23:46:43Z</time>
      </trkpt>
      <trkpt lat="46.885977" lon="-2.150519">
        <ele>5.2</ele>
        <time>2020-08-12T23:46:48Z</time>
      </trkpt>
      <trkpt lat="46.886227" lon="-2.150631">
        <ele>5.2</ele>
        <time>2020-08-12T23:46:51Z</time>
      </trkpt>
      <trkpt lat="46.886735" lon="-2.150751">
        <ele>5.2</ele>
        <time>2020-08-12T23:46:56Z</time>
      </trkpt>
      <trkpt lat="46.887012" lon="-2.150757">
        <ele>5.2</ele>
        <time>2020-08-12T23:46:58Z</time>
      </trkpt>
      <trkpt lat="46.887326" lon="-2.150735">
        <ele>5.2</ele>
        <time>2020-08-12T23:47:01Z</time>
      </trkpt>
      <trkpt lat="46.894629" lon="-2.149079">
        <ele>5.0</ele>
        <time>2020-08-12T23:48:12Z</time>
      </trkpt>
      <trkpt lat="46.894883" lon="-2.149044">
        <ele>5.0</ele>
        <time>2020-08-12T23:48:14Z</time>
      </trkpt>
      <trkpt lat="46.895384" lon="-2.149042">
        <ele>6.6</ele>
        <time>2020-08-12T23:48:19Z</time>
      </trkpt>
      <trkpt lat="46.896079" lon="-2.149114">
        <ele>6.6</ele>
        <time>2020-08-12T23:48:26Z</time>
      </trkpt>
      <trkpt lat="46.89628" lon="-2.149167">
        <ele>6.6</ele>
        <time>2020-08-12T23:48:28Z</time>
      </trkpt>
      <trkpt lat="46.896623" lon="-2.149306">
        <ele>6.6</ele>
        <time>2020-08-12T23:48:31Z</time>
      </trkpt>
      <trkpt lat="46.899911" lon="-2.150971">
        <ele>6.2</ele>
        <time>2020-08-12T23:49:04Z</time>
      </trkpt>
      <trkpt lat="46.900192" lon="-2.151034">
        <ele>6.2</ele>
        <time>2020-08-12T23:49:07Z</time>
      </trkpt>
      <trkpt lat="46.900287" lon="-2.15094">
        <ele>6.2</ele>
        <time>2020-08-12T23:49:07Z</time>
      </trkpt>
      <trkpt lat="46.900387" lon="-2.150936">
        <ele>6.2</ele>
        <time>2020-08-12T23:49:08Z</time>
      </trkpt>
      <trkpt lat="46.900433" lon="-2.150961">
        <ele>6.2</ele>
        <time>2020-08-12T23:49:08Z</time>
      </trkpt>
      <trkpt lat="46.900504" lon="-2.151057">
        <ele>6.2</ele>
        <time>2020-08-12T23:49:08Z</time>
      </trkpt>
      <trkpt lat="46.900535" lon="-2.151191">
        <ele>6.2</ele>
        <time>2020-08-12T23:49:09Z</time>
      </trkpt>
      <trkpt lat="46.900656" lon="-2.151292">
        <ele>6.2</ele>
        <time>2020-08-12T23:49:10Z</time>
      </trkpt>
      <trkpt lat="46.903984" lon="-2.152928">
        <ele>1.0</ele>
        <time>2020-08-12T23:49:26Z</time>
      </trkpt>
      <trkpt lat="46.907823" lon="-2.154854">
        <ele>0.8</ele>
        <time>2020-08-12T23:49:46Z</time>
      </trkpt>
      <trkpt lat="46.91267" lon="-2.157252">
        <ele>0.4</ele>
        <time>2020-08-12T23:50:10Z</time>
      </trkpt>
      <trkpt lat="46.913052" lon="-2.157394">
        <ele>0.4</ele>
        <time>2020-08-12T23:50:12Z</time>
      </trkpt>
      <trkpt lat="46.91334" lon="-2.157471">
        <ele>0.6</ele>
        <time>2020-08-12T23:50:14Z</time>
      </trkpt>
      <trkpt lat="46.91364" lon="-2.157513">
        <ele>1.2</ele>
        <time>2020-08-12T23:50:15Z</time>
      </trkpt>
      <trkpt lat="46.914004" lon="-2.157539">
        <ele>1.2</ele>
        <time>2020-08-12T23:50:17Z</time>
      </trkpt>
      <trkpt lat="46.914295" lon="-2.157525">
        <ele>1.4</ele>
        <time>2020-08-12T23:50:18Z</time>
      </trkpt>
      <trkpt lat="46.914806" lon="-2.157449">
        <ele>1.0</ele>
        <time>2020-08-12T23:50:21Z</time>
      </trkpt>
      <trkpt lat="46.915983" lon="-2.157212">
        <ele>0.4</ele>
        <time>2020-08-12T23:50:26Z</time>
      </trkpt>
      <trkpt lat="46.916839" lon="-2.157087">
        <ele>1.0</ele>
        <time>2020-08-12T23:50:30Z</time>
      </trkpt>
      <trkpt lat="46.917029" lon="-2.156994">
        <ele>1.0</ele>
        <time>2020-08-12T23:50:31Z</time>
      </trkpt>
      <trkpt lat="46.917072" lon="-2.156911">
        <ele>1.0</ele>
        <time>2020-08-12T23:50:32Z</time>
      </trkpt>
      <trkpt lat="46.917173" lon="-2.156863">
        <ele>1.0</ele>
        <time>2020-08-12T23:50:32Z</time>
      </trkpt>
      <trkpt lat="46.917265" lon="-2.156917">
        <ele>1.0</ele>
        <time>2020-08-12T23:50:33Z</time>
      </trkpt>
      <trkpt lat="46.917288" lon="-2.156954">
        <ele>1.0</ele>
        <time>2020-08-12T23:50:33Z</time>
      </trkpt>
      <trkpt lat="46.917438" lon="-2.156969">
        <ele>1.0</ele>
        <time>2020-08-12T23:50:33Z</time>
      </trkpt>
      <trkpt lat="46.918343" lon="-2.15687">
        <ele>1.0</ele>
        <time>2020-08-12T23:50:38Z</time>
      </trkpt>
      <trkpt lat="46.918678" lon="-2.156856">
        <ele>1.0</ele>
        <time>2020-08-12T23:50:39Z</time>
      </trkpt>
      <trkpt lat="46.91969" lon="-2.156858">
        <ele>1.4</ele>
        <time>2020-08-12T23:50:44Z</time>
      </trkpt>
      <trkpt lat="46.920928" lon="-2.156968">
        <ele>0.8</ele>
        <time>2020-08-12T23:50:50Z</time>
      </trkpt>
      <trkpt lat="46.921536" lon="-2.15707">
        <ele>0.8</ele>
        <time>2020-08-12T23:50:53Z</time>
      </trkpt>
      <trkpt lat="46.92261" lon="-2.157327">
        <ele>0.0</ele>
        <time>2020-08-12T23:50:58Z</time>
      </trkpt>
      <trkpt lat="46.923398" lon="-2.157582">
        <ele>0.2</ele>
        <time>2020-08-12T23:51:02Z</time>
      </trkpt>
      <trkpt lat="46.924578" lon="-2.158065">
        <ele>0.6</ele>
        <time>2020-08-12T23:51:07Z</time>
      </trkpt>
      <trkpt lat="46.925122" lon="-2.158329">
        <ele>0.8</ele>
        <time>2020-08-12T23:51:10Z</time>
      </trkpt>
      <trkpt lat="46.926012" lon="-2.158816">
        <ele>1.0</ele>
        <time>2020-08-12T23:51:15Z</time>
      </trkpt>
      <trkpt lat="46.926789" lon="-2.159314">
        <ele>0.6</ele>
        <time>2020-08-12T23:51:19Z</time>
      </trkpt>
      <trkpt lat="46.927989" lon="-2.1602">
        <ele>1.0</ele>
        <time>2020-08-12T23:51:25Z</time>
      </trkpt>
      <trkpt lat="46.934353" lon="-2.16504">
        <ele>2.0</ele>
        <time>2020-08-12T23:51:59Z</time>
      </trkpt>
      <trkpt lat="46.935673" lon="-2.16595">
        <ele>2.4</ele>
        <time>2020-08-12T23:52:05Z</time>
      </trkpt>
      <trkpt lat="46.935791" lon="-2.165995">
        <ele>2.4</ele>
        <time>2020-08-12T23:52:06Z</time>
      </trkpt>
      <trkpt lat="46.935915" lon="-2.165959">
        <ele>2.0</ele>
        <time>2020-08-12T23:52:07Z</time>
      </trkpt>
      <trkpt lat="46.936008" lon="-2.166004">
        <ele>2.0</ele>
        <time>2020-08-12T23:52:07Z</time>
      </trkpt>
      <trkpt lat="46.936075" lon="-2.166094">
        <ele>2.0</ele>
        <time>2020-08-12T23:52:08Z</time>
      </trkpt>
      <trkpt lat="46.936117" lon="-2.166266">
        <ele>2.0</ele>
        <time>2020-08-12T23:52:08Z</time>
      </trkpt>
      <trkpt lat="46.93617" lon="-2.166376">
        <ele>2.0</ele>
        <time>2020-08-12T23:52:09Z</time>
      </trkpt>
      <trkpt lat="46.936222" lon="-2.166455">
        <ele>2.0</ele>
        <time>2020-08-12T23:52:09Z</time>
      </trkpt>
      <trkpt lat="46.936285" lon="-2.166508">
        <ele>2.0</ele>
        <time>2020-08-12T23:52:09Z</time>
      </trkpt>
      <trkpt lat="46.936794" lon="-2.166867">
        <ele>1.4</ele>
        <time>2020-08-12T23:52:12Z</time>
      </trkpt>
      <trkpt lat="46.939072" lon="-2.168628">
        <ele>2.4</ele>
        <time>2020-08-12T23:52:24Z</time>
      </trkpt>
      <trkpt lat="46.940533" lon="-2.169678">
        <ele>1.0</ele>
        <time>2020-08-12T23:52:32Z</time>
      </trkpt>
      <trkpt lat="46.941344" lon="-2.170207">
        <ele>1.2</ele>
        <time>2020-08-12T23:52:36Z</time>
      </trkpt>
      <trkpt lat="46.947032" lon="-2.173616">
        <ele>1.6</ele>
        <time>2020-08-12T23:53:04Z</time>
      </trkpt>
      <trkpt lat="46.947805" lon="-2.174091">
        <ele>2.2</ele>
        <time>2020-08-12T23:53:08Z</time>
      </trkpt>
      <trkpt lat="46.948343" lon="-2.174448">
        <ele>1.0</ele>
        <time>2020-08-12T23:53:11Z</time>
      </trkpt>
      <trkpt lat="46.948888" lon="-2.174864">
        <ele>1.0</ele>
        <time>2020-08-12T23:53:14Z</time>
      </trkpt>
      <trkpt lat="46.94933" lon="-2.175232">
        <ele>0.6</ele>
        <time>2020-08-12T23:53:16Z</time>
      </trkpt>
      <trkpt lat="46.94995" lon="-2.175802">
        <ele>0.6</ele>
        <time>2020-08-12T23:53:20Z</time>
      </trkpt>
      <trkpt lat="46.950441" lon="-2.176297">
        <ele>0.8</ele>
        <time>2020-08-12T23:53:23Z</time>
      </trkpt>
      <trkpt lat="46.951187" lon="-2.177149">
        <ele>0.8</ele>
        <time>2020-08-12T23:53:27Z</time>
      </trkpt>
      <trkpt lat="46.952003" lon="-2.178253">
        <ele>0.8</ele>
        <time>2020-08-12T23:53:32Z</time>
      </trkpt>
      <trkpt lat="46.952481" lon="-2.178983">
        <ele>1.0</ele>
        <time>2020-08-12T23:53:35Z</time>
      </trkpt>
      <trkpt lat="46.952763" lon="-2.179446">
        <ele>1.2</ele>
        <time>2020-08-12T23:53:37Z</time>
      </trkpt>
      <trkpt lat="46.953276" lon="-2.180393">
        <ele>1.6</ele>
        <time>2020-08-12T23:53:41Z</time>
      </trkpt>
      <trkpt lat="46.953571" lon="-2.181004">
        <ele>2.0</ele>
        <time>2020-08-12T23:53:44Z</time>
      </trkpt>
      <trkpt lat="46.953876" lon="-2.181678">
        <ele>2.4</ele>
        <time>2020-08-12T23:53:46Z</time>
      </trkpt>
      <trkpt lat="46.954309" lon="-2.182739">
        <ele>1.8</ele>
        <time>2020-08-12T23:53:50Z</time>
      </trkpt>
      <trkpt lat="46.954507" lon="-2.18329">
        <ele>1.8</ele>
        <time>2020-08-12T23:53:52Z</time>
      </trkpt>
      <trkpt lat="46.954835" lon="-2.18432">
        <ele>2.2</ele>
        <time>2020-08-12T23:53:56Z</time>
      </trkpt>
      <trkpt lat="46.955247" lon="-2.185847">
        <ele>1.0</ele>
        <time>2020-08-12T23:54:01Z</time>
      </trkpt>
      <trkpt lat="46.955801" lon="-2.188328">
        <ele>2.6</ele>
        <time>2020-08-12T23:54:09Z</time>
      </trkpt>
      <trkpt lat="46.955972" lon="-2.18927">
        <ele>0.2</ele>
        <time>2020-08-12T23:54:12Z</time>
      </trkpt>
      <trkpt lat="46.956018" lon="-2.189424">
        <ele>0.2</ele>
        <time>2020-08-12T23:54:13Z</time>
      </trkpt>
      <trkpt lat="46.956078" lon="-2.18946">
        <ele>0.2</ele>
        <time>2020-08-12T23:54:13Z</time>
      </trkpt>
      <trkpt lat="46.956126" lon="-2.18952">
        <ele>0.2</ele>
        <time>2020-08-12T23:54:14Z</time>
      </trkpt>
      <trkpt lat="46.956158" lon="-2.1896">
        <ele>0.2</ele>
        <time>2020-08-12T23:54:14Z</time>
      </trkpt>
      <trkpt lat="46.956172" lon="-2.189691">
        <ele>0.2</ele>
        <time>2020-08-12T23:54:14Z</time>
      </trkpt>
      <trkpt lat="46.956165" lon="-2.189783">
        <ele>0.2</ele>
        <time>2020-08-12T23:54:15Z</time>
      </trkpt>
      <trkpt lat="46.956139" lon="-2.189868">
        <ele>0.2</ele>
        <time>2020-08-12T23:54:15Z</time>
      </trkpt>
      <trkpt lat="46.956165" lon="-2.190045">
        <ele>0.4</ele>
        <time>2020-08-12T23:54:16Z</time>
      </trkpt>
      <trkpt lat="46.956499" lon="-2.191569">
        <ele>1.4</ele>
        <time>2020-08-12T23:54:21Z</time>
      </trkpt>
      <trkpt lat="46.956678" lon="-2.192246">
        <ele>-0.4</ele>
        <time>2020-08-12T23:54:24Z</time>
      </trkpt>
      <trkpt lat="46.957249" lon="-2.193933">
        <ele>2.4</ele>
        <time>2020-08-12T23:54:31Z</time>
      </trkpt>
      <trkpt lat="46.957443" lon="-2.194453">
        <ele>3.2</ele>
        <time>2020-08-12T23:54:33Z</time>
      </trkpt>
      <trkpt lat="46.959582" lon="-2.199349">
        <ele>1.8</ele>
        <time>2020-08-12T23:54:54Z</time>
      </trkpt>
      <trkpt lat="46.96083" lon="-2.201938">
        <ele>3.8</ele>
        <time>2020-08-12T23:55:05Z</time>
      </trkpt>
      <trkpt lat="46.961277" lon="-2.202902">
        <ele>2.8</ele>
        <time>2020-08-12T23:55:10Z</time>
      </trkpt>
      <trkpt lat="46.961543" lon="-2.203598">
        <ele>3.6</ele>
        <time>2020-08-12T23:55:13Z</time>
      </trkpt>
      <trkpt lat="46.96164" lon="-2.203791">
        <ele>3.6</ele>
        <time>2020-08-12T23:55:13Z</time>
      </trkpt>
      <trkpt lat="46.961684" lon="-2.203799">
        <ele>2.0</ele>
        <time>2020-08-12T23:55:14Z</time>
      </trkpt>
      <trkpt lat="46.961756" lon="-2.203867">
        <ele>2.0</ele>
        <time>2020-08-12T23:55:14Z</time>
      </trkpt>
      <trkpt lat="46.961791" lon="-2.203992">
        <ele>2.0</ele>
        <time>2020-08-12T23:55:15Z</time>
      </trkpt>
      <trkpt lat="46.961786" lon="-2.204064">
        <ele>2.0</ele>
        <time>2020-08-12T23:55:15Z</time>
      </trkpt>
      <trkpt lat="46.961867" lon="-2.204287">
        <ele>4.0</ele>
        <time>2020-08-12T23:55:16Z</time>
      </trkpt>
      <trkpt lat="46.964933" lon="-2.211262">
        <ele>3.4</ele>
        <time>2020-08-12T23:55:46Z</time>
      </trkpt>
      <trkpt lat="46.966662" lon="-2.215175">
        <ele>3.4</ele>
        <time>2020-08-12T23:56:02Z</time>
      </trkpt>
      <trkpt lat="46.966742" lon="-2.215301">
        <ele>1.8</ele>
        <time>2020-08-12T23:56:03Z</time>
      </trkpt>
      <trkpt lat="46.966827" lon="-2.215365">
        <ele>1.8</ele>
        <time>2020-08-12T23:56:03Z</time>
      </trkpt>
      <trkpt lat="46.966905" lon="-2.215329">
        <ele>1.8</ele>
        <time>2020-08-12T23:56:04Z</time>
      </trkpt>
      <trkpt lat="46.967068" lon="-2.215329">
        <ele>1.8</ele>
        <time>2020-08-12T23:56:05Z</time>
      </trkpt>
      <trkpt lat="46.967217" lon="-2.215424">
        <ele>1.8</ele>
        <time>2020-08-12T23:56:06Z</time>
      </trkpt>
      <trkpt lat="46.967323" lon="-2.215589">
        <ele>1.8</ele>
        <time>2020-08-12T23:56:07Z</time>
      </trkpt>
      <trkpt lat="46.967378" lon="-2.215788">
        <ele>1.8</ele>
        <time>2020-08-12T23:56:07Z</time>
      </trkpt>
      <trkpt lat="46.967386" lon="-2.21592">
        <ele>2.4</ele>
        <time>2020-08-12T23:56:08Z</time>
      </trkpt>
      <trkpt lat="46.967373" lon="-2.21605">
        <ele>2.4</ele>
        <time>2020-08-12T23:56:09Z</time>
      </trkpt>
      <trkpt lat="46.967341" lon="-2.216173">
        <ele>2.4</ele>
        <time>2020-08-12T23:56:09Z</time>
      </trkpt>
      <trkpt lat="46.967361" lon="-2.216365">
        <ele>2.4</ele>
        <time>2020-08-12T23:56:10Z</time>
      </trkpt>
      <trkpt lat="46.967401" lon="-2.21651">
        <ele>2.4</ele>
        <time>2020-08-12T23:56:10Z</time>
      </trkpt>
      <trkpt lat="46.967494" lon="-2.216692">
        <ele>3.0</ele>
        <time>2020-08-12T23:56:11Z</time>
      </trkpt>
      <trkpt lat="46.968031" lon="-2.217539">
        <ele>2.2</ele>
        <time>2020-08-12T23:56:16Z</time>
      </trkpt>
      <trkpt lat="46.968402" lon="-2.21824">
        <ele>0.2</ele>
        <time>2020-08-12T23:56:19Z</time>
      </trkpt>
      <trkpt lat="46.968658" lon="-2.218814">
        <ele>0.4</ele>
        <time>2020-08-12T23:56:22Z</time>
      </trkpt>
      <trkpt lat="46.96885" lon="-2.219365">
        <ele>0.2</ele>
        <time>2020-08-12T23:56:24Z</time>
      </trkpt>
      <trkpt lat="46.969002" lon="-2.219887">
        <ele>0.2</ele>
        <time>2020-08-12T23:56:27Z</time>
      </trkpt>
      <trkpt lat="46.969137" lon="-2.220452">
        <ele>0.6</ele>
        <time>2020-08-12T23:56:29Z</time>
      </trkpt>
      <trkpt lat="46.96983" lon="-2.223812">
        <ele>0.0</ele>
        <time>2020-08-12T23:56:43Z</time>
      </trkpt>
      <trkpt lat="46.969961" lon="-2.224808">
        <ele>0.4</ele>
        <time>2020-08-12T23:56:47Z</time>
      </trkpt>
      <trkpt lat="46.970023" lon="-2.225087">
        <ele>1.2</ele>
        <time>2020-08-12T23:56:48Z</time>
      </trkpt>
      <trkpt lat="46.97005" lon="-2.22515">
        <ele>1.2</ele>
        <time>2020-08-12T23:56:48Z</time>
      </trkpt>
      <trkpt lat="46.970095" lon="-2.225189">
        <ele>1.2</ele>
        <time>2020-08-12T23:56:49Z</time>
      </trkpt>
      <trkpt lat="46.970151" lon="-2.225315">
        <ele>1.2</ele>
        <time>2020-08-12T23:56:49Z</time>
      </trkpt>
      <trkpt lat="46.970157" lon="-2.22539">
        <ele>1.2</ele>
        <time>2020-08-12T23:56:49Z</time>
      </trkpt>
      <trkpt lat="46.970132" lon="-2.225513">
        <ele>1.2</ele>
        <time>2020-08-12T23:56:50Z</time>
      </trkpt>
      <trkpt lat="46.970104" lon="-2.225563">
        <ele>1.2</ele>
        <time>2020-08-12T23:56:50Z</time>
      </trkpt>
      <trkpt lat="46.970076" lon="-2.225777">
        <ele>1.2</ele>
        <time>2020-08-12T23:56:51Z</time>
      </trkpt>
      <trkpt lat="46.970139" lon="-2.226735">
        <ele>2.8</ele>
        <time>2020-08-12T23:56:54Z</time>
      </trkpt>
      <trkpt lat="46.970155" lon="-2.227254">
        <ele>2.8</ele>
        <time>2020-08-12T23:56:56Z</time>
      </trkpt>
      <trkpt lat="46.97016" lon="-2.228178">
        <ele>2.6</ele>
        <time>2020-08-12T23:56:59Z</time>
      </trkpt>
      <trkpt lat="46.970135" lon="-2.229009">
        <ele>2.2</ele>
        <time>2020-08-12T23:57:02Z</time>
      </trkpt>
      <trkpt lat="46.969606" lon="-2.236478">
        <ele>1.8</ele>
        <time>2020-08-12T23:57:28Z</time>
      </trkpt>
      <trkpt lat="46.969594" lon="-2.236913">
        <ele>1.8</ele>
        <time>2020-08-12T23:57:30Z</time>
      </trkpt>
      <trkpt lat="46.969626" lon="-2.237204">
        <ele>1.8</ele>
        <time>2020-08-12T23:57:31Z</time>
      </trkpt>
      <trkpt lat="46.969664" lon="-2.237389">
        <ele>1.8</ele>
        <time>2020-08-12T23:57:32Z</time>
      </trkpt>
      <trkpt lat="46.969725" lon="-2.237582">
        <ele>2.2</ele>
        <time>2020-08-12T23:57:32Z</time>
      </trkpt>
      <trkpt lat="46.969806" lon="-2.237776">
        <ele>2.2</ele>
        <time>2020-08-12T23:57:33Z</time>
      </trkpt>
      <trkpt lat="46.970011" lon="-2.238146">
        <ele>2.0</ele>
        <time>2020-08-12T23:57:35Z</time>
      </trkpt>
      <trkpt lat="46.97008" lon="-2.238191">
        <ele>2.0</ele>
        <time>2020-08-12T23:57:35Z</time>
      </trkpt>
      <trkpt lat="46.970194" lon="-2.238336">
        <ele>2.6</ele>
        <time>2020-08-12T23:57:36Z</time>
      </trkpt>
      <trkpt lat="46.970234" lon="-2.238431">
        <ele>2.6</ele>
        <time>2020-08-12T23:57:37Z</time>
      </trkpt>
      <trkpt lat="46.970395" lon="-2.238604">
        <ele>2.6</ele>
        <time>2020-08-12T23:57:38Z</time>
      </trkpt>
      <trkpt lat="46.970706" lon="-2.238755">
        <ele>2.6</ele>
        <time>2020-08-12T23:57:40Z</time>
      </trkpt>
      <trkpt lat="46.971343" lon="-2.238873">
        <ele>1.8</ele>
        <time>2020-08-12T23:57:45Z</time>
      </trkpt>
      <trkpt lat="46.972573" lon="-2.239191">
        <ele>2.0</ele>
        <time>2020-08-12T23:57:53Z</time>
      </trkpt>
      <trkpt lat="46.972934" lon="-2.239322">
        <ele>2.0</ele>
        <time>2020-08-12T23:57:56Z</time>
      </trkpt>
      <trkpt lat="46.973244" lon="-2.239504">
        <ele>2.0</ele>
        <time>2020-08-12T23:57:58Z</time>
      </trkpt>
      <trkpt lat="46.974785" lon="-2.24052">
        <ele>2.6</ele>
        <time>2020-08-12T23:58:09Z</time>
      </trkpt>
      <trkpt lat="46.974906" lon="-2.240577">
        <ele>2.6</ele>
        <time>2020-08-12T23:58:10Z</time>
      </trkpt>
      <trkpt lat="46.974973" lon="-2.240622">
        <ele>2.6</ele>
        <time>2020-08-12T23:58:11Z</time>
      </trkpt>
      <trkpt lat="46.975183" lon="-2.240839">
        <ele>1.8</ele>
        <time>2020-08-12T23:58:13Z</time>
      </trkpt>
      <trkpt lat="46.975234" lon="-2.240856">
        <ele>1.8</ele>
        <time>2020-08-12T23:58:13Z</time>
      </trkpt>
      <trkpt lat="46.975286" lon="-2.240848">
        <ele>1.8</ele>
        <time>2020-08-12T23:58:13Z</time>
      </trkpt>
      <trkpt lat="46.975337" lon="-2.240867">
        <ele>1.8</ele>
        <time>2020-08-12T23:58:14Z</time>
      </trkpt>
      <trkpt lat="46.97538" lon="-2.24091">
        <ele>1.8</ele>
        <time>2020-08-12T23:58:14Z</time>
      </trkpt>
      <trkpt lat="46.975411" lon="-2.240972">
        <ele>1.8</ele>
        <time>2020-08-12T23:58:15Z</time>
      </trkpt>
      <trkpt lat="46.975492" lon="-2.241051">
        <ele>1.8</ele>
        <time>2020-08-12T23:58:16Z</time>
      </trkpt>
      <trkpt lat="46.975799" lon="-2.24115">
        <ele>1.8</ele>
        <time>2020-08-12T23:58:18Z</time>
      </trkpt>
      <trkpt lat="46.976392" lon="-2.241538">
        <ele>1.4</ele>
        <time>2020-08-12T23:58:24Z</time>
      </trkpt>
      <trkpt lat="46.976628" lon="-2.241718">
        <ele>1.2</ele>
        <time>2020-08-12T23:58:26Z</time>
      </trkpt>
      <trkpt lat="46.979014" lon="-2.24328">
        <ele>1.8</ele>
        <time>2020-08-12T23:58:48Z</time>
      </trkpt>
      <trkpt lat="46.979161" lon="-2.243397">
        <ele>1.6</ele>
        <time>2020-08-12T23:58:50Z</time>
      </trkpt>
      <trkpt lat="46.979398" lon="-2.243643">
        <ele>1.4</ele>
        <time>2020-08-12T23:58:52Z</time>
      </trkpt>
      <trkpt lat="46.979519" lon="-2.243811">
        <ele>1.4</ele>
        <time>2020-08-12T23:58:54Z</time>
      </trkpt>
      <trkpt lat="46.981042" lon="-2.246299">
        <ele>0.8</ele>
        <time>2020-08-12T23:59:13Z</time>
      </trkpt>
      <trkpt lat="46.981227" lon="-2.246543">
        <ele>0.8</ele>
        <time>2020-08-12T23:59:15Z</time>
      </trkpt>
      <trkpt lat="46.981337" lon="-2.246629">
        <ele>0.8</ele>
        <time>2020-08-12T23:59:16Z</time>
      </trkpt>
      <trkpt lat="46.981525" lon="-2.246686">
        <ele>0.4</ele>
        <time>2020-08-12T23:59:18Z</time>
      </trkpt>
      <trkpt lat="46.981641" lon="-2.246684">
        <ele>0.4</ele>
        <time>2020-08-12T23:59:19Z</time>
      </trkpt>
      <trkpt lat="46.981799" lon="-2.246602">
        <ele>0.8</ele>
        <time>2020-08-12T23:59:20Z</time>
      </trkpt>
      <trkpt lat="46.981939" lon="-2.246473">
        <ele>0.8</ele>
        <time>2020-08-12T23:59:22Z</time>
      </trkpt>
      <trkpt lat="46.982248" lon="-2.246112">
        <ele>0.8</ele>
        <time>2020-08-12T23:59:25Z</time>
      </trkpt>
      <trkpt lat="46.982496" lon="-2.245906">
        <ele>0.8</ele>
        <time>2020-08-12T23:59:27Z</time>
      </trkpt>
      <trkpt lat="46.982592" lon="-2.245862">
        <ele>0.8</ele>
        <time>2020-08-12T23:59:28Z</time>
      </trkpt>
      <trkpt lat="46.982758" lon="-2.245827">
        <ele>0.8</ele>
        <time>2020-08-12T23:59:30Z</time>
      </trkpt>
      <trkpt lat="46.98294" lon="-2.245837">
        <ele>0.8</ele>
        <time>2020-08-12T23:59:31Z</time>
      </trkpt>
      <trkpt lat="46.983026" lon="-2.24587">
        <ele>0.8</ele>
        <time>2020-08-12T23:59:32Z</time>
      </trkpt>
      <trkpt lat="46.984336" lon="-2.246806">
        <ele>0.4</ele>
        <time>2020-08-12T23:59:44Z</time>
      </trkpt>
      <trkpt lat="46.984529" lon="-2.247002">
        <ele>0.4</ele>
        <time>2020-08-12T23:59:46Z</time>
      </trkpt>
      <trkpt lat="46.985478" lon="-2.248331">
        <ele>0.0</ele>
        <time>2020-08-12T23:59:58Z</time>
      </trkpt>
      <trkpt lat="46.985812" lon="-2.248779">
        <ele>0.8</ele>
        <time>2020-08-13T00:00:01Z</time>
      </trkpt>
      <trkpt lat="46.985967" lon="-2.248957">
        <ele>2.0</ele>
        <time>2020-08-13T00:00:03Z</time>
      </trkpt>
      <trkpt lat="46.986128" lon="-2.24911">
        <ele>2.0</ele>
        <time>2020-08-13T00:00:05Z</time>
      </trkpt>
      <trkpt lat="46.986364" lon="-2.249295">
        <ele>1.6</ele>
        <time>2020-08-13T00:00:07Z</time>
      </trkpt>
      <trkpt lat="46.986571" lon="-2.249414">
        <ele>1.6</ele>
        <time>2020-08-13T00:00:09Z</time>
      </trkpt>
      <trkpt lat="46.986854" lon="-2.249535">
        <ele>1.4</ele>
        <time>2020-08-13T00:00:11Z</time>
      </trkpt>
      <trkpt lat="46.987229" lon="-2.249624">
        <ele>1.4</ele>
        <time>2020-08-13T00:00:15Z</time>
      </trkpt>
      <trkpt lat="46.987419" lon="-2.249633">
        <ele>1.4</ele>
        <time>2020-08-13T00:00:16Z</time>
      </trkpt>
      <trkpt lat="46.987865" lon="-2.249549">
        <ele>0.4</ele>
        <time>2020-08-13T00:00:20Z</time>
      </trkpt>
      <trkpt lat="46.988193" lon="-2.249401">
        <ele>0.4</ele>
        <time>2020-08-13T00:00:23Z</time>
      </trkpt>
      <trkpt lat="46.988544" lon="-2.249149">
        <ele>0.8</ele>
        <time>2020-08-13T00:00:26Z</time>
      </trkpt>
      <trkpt lat="46.988935" lon="-2.248788">
        <ele>0.8</ele>
        <time>2020-08-13T00:00:30Z</time>
      </trkpt>
      <trkpt lat="46.989236" lon="-2.248482">
        <ele>1.0</ele>
        <time>2020-08-13T00:00:33Z</time>
      </trkpt>
      <trkpt lat="46.990411" lon="-2.247198">
        <ele>1.6</ele>
        <time>2020-08-13T00:00:46Z</time>
      </trkpt>
      <trkpt lat="46.990632" lon="-2.247008">
        <ele>1.6</ele>
        <time>2020-08-13T00:00:48Z</time>
      </trkpt>
      <trkpt lat="46.990866" lon="-2.246868">
        <ele>1.8</ele>
        <time>2020-08-13T00:00:50Z</time>
      </trkpt>
      <trkpt lat="46.991222" lon="-2.246746">
        <ele>1.8</ele>
        <time>2020-08-13T00:00:53Z</time>
      </trkpt>
      <trkpt lat="46.991552" lon="-2.246722">
        <ele>1.8</ele>
        <time>2020-08-13T00:00:56Z</time>
      </trkpt>
      <trkpt lat="46.992077" lon="-2.246791">
        <ele>2.2</ele>
        <time>2020-08-13T00:01:01Z</time>
      </trkpt>
      <trkpt lat="46.992882" lon="-2.246958">
        <ele>1.2</ele>
        <time>2020-08-13T00:01:07Z</time>
      </trkpt>
      <trkpt lat="46.99394" lon="-2.247165">
        <ele>1.2</ele>
        <time>2020-08-13T00:01:14Z</time>
      </trkpt>
      <trkpt lat="46.994332" lon="-2.247222">
        <ele>1.0</ele>
        <time>2020-08-13T00:01:16Z</time>
      </trkpt>
      <trkpt lat="46.997424" lon="-2.247887">
        <ele>1.4</ele>
        <time>2020-08-13T00:01:35Z</time>
      </trkpt>
      <trkpt lat="46.997655" lon="-2.247891">
        <ele>2.0</ele>
        <time>2020-08-13T00:01:37Z</time>
      </trkpt>
      <trkpt lat="46.997688" lon="-2.24783">
        <ele>2.0</ele>
        <time>2020-08-13T00:01:37Z</time>
      </trkpt>
      <trkpt lat="46.997782" lon="-2.247766">
        <ele>2.0</ele>
        <time>2020-08-13T00:01:38Z</time>
      </trkpt>
      <trkpt lat="46.997835" lon="-2.247769">
        <ele>2.0</ele>
        <time>2020-08-13T00:01:38Z</time>
      </trkpt>
      <trkpt lat="46.997873" lon="-2.247787">
        <ele>2.0</ele>
        <time>2020-08-13T00:01:38Z</time>
      </trkpt>
      <trkpt lat="46.997937" lon="-2.247859">
        <ele>2.0</ele>
        <time>2020-08-13T00:01:39Z</time>
      </trkpt>
      <trkpt lat="46.997958" lon="-2.247909">
        <ele>2.0</ele>
        <time>2020-08-13T00:01:39Z</time>
      </trkpt>
      <trkpt lat="46.997973" lon="-2.24799">
        <ele>2.0</ele>
        <time>2020-08-13T00:01:39Z</time>
      </trkpt>
      <trkpt lat="46.997969" lon="-2.248073">
        <ele>2.0</ele>
        <time>2020-08-13T00:01:39Z</time>
      </trkpt>
      <trkpt lat="46.997946" lon="-2.248149">
        <ele>2.0</ele>
        <time>2020-08-13T00:01:40Z</time>
      </trkpt>
      <trkpt lat="46.997905" lon="-2.248214">
        <ele>2.0</ele>
        <time>2020-08-13T00:01:40Z</time>
      </trkpt>
      <trkpt lat="46.997875" lon="-2.24842">
        <ele>2.0</ele>
        <time>2020-08-13T00:01:41Z</time>
      </trkpt>
      <trkpt lat="46.997883" lon="-2.248528">
        <ele>2.0</ele>
        <time>2020-08-13T00:01:41Z</time>
      </trkpt>
      <trkpt lat="46.997919" lon="-2.24868">
        <ele>2.0</ele>
        <time>2020-08-13T00:01:42Z</time>
      </trkpt>
      <trkpt lat="46.998933" lon="-2.251111">
        <ele>1.0</ele>
        <time>2020-08-13T00:01:53Z</time>
      </trkpt>
      <trkpt lat="46.999001" lon="-2.251214">
        <ele>1.0</ele>
        <time>2020-08-13T00:01:54Z</time>
      </trkpt>
      <trkpt lat="46.999079" lon="-2.251276">
        <ele>1.0</ele>
        <time>2020-08-13T00:01:54Z</time>
      </trkpt>
      <trkpt lat="46.999277" lon="-2.251304">
        <ele>1.4</ele>
        <time>2020-08-13T00:01:56Z</time>
      </trkpt>
      <trkpt lat="47.000693" lon="-2.250967">
        <ele>1.2</ele>
        <time>2020-08-13T00:02:04Z</time>
      </trkpt>
      <trkpt lat="47.000773" lon="-2.250915">
        <ele>1.2</ele>
        <time>2020-08-13T00:02:04Z</time>
      </trkpt>
      <trkpt lat="47.000988" lon="-2.250871">
        <ele>1.6</ele>
        <time>2020-08-13T00:02:06Z</time>
      </trkpt>
      <trkpt lat="47.001096" lon="-2.250823">
        <ele>2.6</ele>
        <time>2020-08-13T00:02:06Z</time>
      </trkpt>
      <trkpt lat="47.001189" lon="-2.250743">
        <ele>2.6</ele>
        <time>2020-08-13T00:02:07Z</time>
      </trkpt>
      <trkpt lat="47.001242" lon="-2.250662">
        <ele>2.6</ele>
        <time>2020-08-13T00:02:08Z</time>
      </trkpt>
      <trkpt lat="47.001283" lon="-2.250641">
        <ele>2.6</ele>
        <time>2020-08-13T00:02:08Z</time>
      </trkpt>
      <trkpt lat="47.001358" lon="-2.250653">
        <ele>2.6</ele>
        <time>2020-08-13T00:02:09Z</time>
      </trkpt>
      <trkpt lat="47.00141" lon="-2.250711">
        <ele>2.6</ele>
        <time>2020-08-13T00:02:10Z</time>
      </trkpt>
      <trkpt lat="47.001438" lon="-2.250849">
        <ele>1.6</ele>
        <time>2020-08-13T00:02:11Z</time>
      </trkpt>
      <trkpt lat="47.001474" lon="-2.250943">
        <ele>1.6</ele>
        <time>2020-08-13T00:02:11Z</time>
      </trkpt>
      <trkpt lat="47.001922" lon="-2.251872">
        <ele>2.6</ele>
        <time>2020-08-13T00:02:19Z</time>
      </trkpt>
      <trkpt lat="47.002758" lon="-2.253412">
        <ele>2.4</ele>
        <time>2020-08-13T00:02:33Z</time>
      </trkpt>
      <trkpt lat="47.003164" lon="-2.254097">
        <ele>2.4</ele>
        <time>2020-08-13T00:02:39Z</time>
      </trkpt>
      <trkpt lat="47.003263" lon="-2.254293">
        <ele>2.4</ele>
        <time>2020-08-13T00:02:41Z</time>
      </trkpt>
      <trkpt lat="47.003384" lon="-2.254465">
        <ele>1.6</ele>
        <time>2020-08-13T00:02:43Z</time>
      </trkpt>
      <trkpt lat="47.003409" lon="-2.254507">
        <ele>1.6</ele>
        <time>2020-08-13T00:02:43Z</time>
      </trkpt>
      <trkpt lat="47.003409" lon="-2.254563">
        <ele>1.6</ele>
        <time>2020-08-13T00:02:44Z</time>
      </trkpt>
      <trkpt lat="47.003811" lon="-2.254833">
        <ele>1.6</ele>
        <time>2020-08-13T00:02:48Z</time>
      </trkpt>
      <trkpt lat="47.004051" lon="-2.254952">
        <ele>1.6</ele>
        <time>2020-08-13T00:02:51Z</time>
      </trkpt>
      <trkpt lat="47.004713" lon="-2.255104">
        <ele>2.0</ele>
        <time>2020-08-13T00:02:58Z</time>
      </trkpt>
      <trkpt lat="47.00504" lon="-2.255152">
        <ele>3.0</ele>
        <time>2020-08-13T00:03:01Z</time>
      </trkpt>
      <trkpt lat="47.005365" lon="-2.255137">
        <ele>3.0</ele>
        <time>2020-08-13T00:03:04Z</time>
      </trkpt>
      <trkpt lat="47.00562" lon="-2.255085">
        <ele>3.0</ele>
        <time>2020-08-13T00:03:07Z</time>
      </trkpt>
      <trkpt lat="47.006007" lon="-2.254938">
        <ele>3.0</ele>
        <time>2020-08-13T00:03:11Z</time>
      </trkpt>
      <trkpt lat="47.006001" lon="-2.254895">
        <ele>3.0</ele>
        <time>2020-08-13T00:03:11Z</time>
      </trkpt>
      <trkpt lat="47.006025" lon="-2.254818">
        <ele>3.0</ele>
        <time>2020-08-13T00:03:12Z</time>
      </trkpt>
      <trkpt lat="47.006049" lon="-2.254795">
        <ele>3.0</ele>
        <time>2020-08-13T00:03:12Z</time>
      </trkpt>
      <trkpt lat="47.006098" lon="-2.254791">
        <ele>3.0</ele>
        <time>2020-08-13T00:03:13Z</time>
      </trkpt>
      <trkpt lat="47.006144" lon="-2.254845">
        <ele>3.0</ele>
        <time>2020-08-13T00:03:13Z</time>
      </trkpt>
      <trkpt lat="47.006142" lon="-2.254957">
        <ele>3.0</ele>
        <time>2020-08-13T00:03:14Z</time>
      </trkpt>
      <trkpt lat="47.006207" lon="-2.255043">
        <ele>2.6</ele>
        <time>2020-08-13T00:03:15Z</time>
      </trkpt>
      <trkpt lat="47.006273" lon="-2.255174">
        <ele>2.6</ele>
        <time>2020-08-13T00:03:16Z</time>
      </trkpt>
      <trkpt lat="47.007721" lon="-2.258409">
        <ele>1.2</ele>
        <time>2020-08-13T00:03:43Z</time>
      </trkpt>
      <trkpt lat="47.008353" lon="-2.259658">
        <ele>1.2</ele>
        <time>2020-08-13T00:03:54Z</time>
      </trkpt>
      <trkpt lat="47.008444" lon="-2.25999">
        <ele>1.2</ele>
        <time>2020-08-13T00:03:57Z</time>
      </trkpt>
      <trkpt lat="47.008522" lon="-2.260007">
        <ele>1.2</ele>
        <time>2020-08-13T00:03:57Z</time>
      </trkpt>
      <trkpt lat="47.008571" lon="-2.260099">
        <ele>1.2</ele>
        <time>2020-08-13T00:03:58Z</time>
      </trkpt>
      <trkpt lat="47.008561" lon="-2.260214">
        <ele>1.2</ele>
        <time>2020-08-13T00:03:59Z</time>
      </trkpt>
      <trkpt lat="47.008516" lon="-2.260278">
        <ele>1.2</ele>
        <time>2020-08-13T00:04:00Z</time>
      </trkpt>
      <trkpt lat="47.008554" lon="-2.26043">
        <ele>1.2</ele>
        <time>2020-08-13T00:04:01Z</time>
      </trkpt>
      <trkpt lat="47.008846" lon="-2.261137">
        <ele>1.4</ele>
        <time>2020-08-13T00:04:06Z</time>
      </trkpt>
      <trkpt lat="47.008978" lon="-2.261508">
        <ele>1.4</ele>
        <time>2020-08-13T00:04:09Z</time>
      </trkpt>
      <trkpt lat="47.00954" lon="-2.263637">
        <ele>3.8</ele>
        <time>2020-08-13T00:04:23Z</time>
      </trkpt>
      <trkpt lat="47.009607" lon="-2.264033">
        <ele>3.8</ele>
        <time>2020-08-13T00:04:26Z</time>
      </trkpt>
      <trkpt lat="47.009792" lon="-2.26617">
        <ele>4.2</ele>
        <time>2020-08-13T00:04:40Z</time>
      </trkpt>
      <trkpt lat="47.00984" lon="-2.26665">
        <ele>4.2</ele>
        <time>2020-08-13T00:04:43Z</time>
      </trkpt>
      <trkpt lat="47.009914" lon="-2.267175">
        <ele>3.0</ele>
        <time>2020-08-13T00:04:47Z</time>
      </trkpt>
      <trkpt lat="47.010117" lon="-2.268015">
        <ele>2.4</ele>
        <time>2020-08-13T00:04:52Z</time>
      </trkpt>
      <trkpt lat="47.010419" lon="-2.269145">
        <ele>1.6</ele>
        <time>2020-08-13T00:05:00Z</time>
      </trkpt>
      <trkpt lat="47.010602" lon="-2.269956">
        <ele>1.2</ele>
        <time>2020-08-13T00:05:06Z</time>
      </trkpt>
      <trkpt lat="47.010836" lon="-2.271189">
        <ele>2.8</ele>
        <time>2020-08-13T00:05:14Z</time>
      </trkpt>
      <trkpt lat="47.010859" lon="-2.271454">
        <ele>2.8</ele>
        <time>2020-08-13T00:05:16Z</time>
      </trkpt>
      <trkpt lat="47.010875" lon="-2.272005">
        <ele>3.2</ele>
        <time>2020-08-13T00:05:19Z</time>
      </trkpt>
      <trkpt lat="47.010941" lon="-2.272419">
        <ele>3.2</ele>
        <time>2020-08-13T00:05:22Z</time>
      </trkpt>
      <trkpt lat="47.011208" lon="-2.273463">
        <ele>3.0</ele>
        <time>2020-08-13T00:05:29Z</time>
      </trkpt>
      <trkpt lat="47.011603" lon="-2.274973">
        <ele>2.6</ele>
        <time>2020-08-13T00:05:40Z</time>
      </trkpt>
      <trkpt lat="47.011714" lon="-2.275298">
        <ele>4.6</ele>
        <time>2020-08-13T00:05:42Z</time>
      </trkpt>
      <trkpt lat="47.011972" lon="-2.275881">
        <ele>5.0</ele>
        <time>2020-08-13T00:05:47Z</time>
      </trkpt>
      <trkpt lat="47.012229" lon="-2.276878">
        <ele>4.0</ele>
        <time>2020-08-13T00:05:53Z</time>
      </trkpt>
      <trkpt lat="47.012359" lon="-2.277303">
        <ele>4.0</ele>
        <time>2020-08-13T00:05:56Z</time>
      </trkpt>
      <trkpt lat="47.012557" lon="-2.277695">
        <ele>4.8</ele>
        <time>2020-08-13T00:06:00Z</time>
      </trkpt>
      <trkpt lat="47.012803" lon="-2.278112">
        <ele>4.8</ele>
        <time>2020-08-13T00:06:03Z</time>
      </trkpt>
      <trkpt lat="47.012965" lon="-2.278425">
        <ele>4.2</ele>
        <time>2020-08-13T00:06:06Z</time>
      </trkpt>
      <trkpt lat="47.014026" lon="-2.281221">
        <ele>4.6</ele>
        <time>2020-08-13T00:06:26Z</time>
      </trkpt>
      <trkpt lat="47.014261" lon="-2.281882">
        <ele>4.6</ele>
        <time>2020-08-13T00:06:31Z</time>
      </trkpt>
      <trkpt lat="47.01453" lon="-2.282724">
        <ele>3.8</ele>
        <time>2020-08-13T00:06:37Z</time>
      </trkpt>
      <trkpt lat="47.014888" lon="-2.283955">
        <ele>3.6</ele>
        <time>2020-08-13T00:06:46Z</time>
      </trkpt>
      <trkpt lat="47.015702" lon="-2.286898">
        <ele>6.8</ele>
        <time>2020-08-13T00:07:06Z</time>
      </trkpt>
      <trkpt lat="47.015747" lon="-2.287283">
        <ele>6.8</ele>
        <time>2020-08-13T00:07:09Z</time>
      </trkpt>
      <trkpt lat="47.015783" lon="-2.288144">
        <ele>7.6</ele>
        <time>2020-08-13T00:07:15Z</time>
      </trkpt>
      <trkpt lat="47.015824" lon="-2.288513">
        <ele>8.6</ele>
        <time>2020-08-13T00:07:17Z</time>
      </trkpt>
      <trkpt lat="47.015884" lon="-2.288855">
        <ele>7.4</ele>
        <time>2020-08-13T00:07:19Z</time>
      </trkpt>
      <trkpt lat="47.016454" lon="-2.29134">
        <ele>10.0</ele>
        <time>2020-08-13T00:07:36Z</time>
      </trkpt>
      <trkpt lat="47.016614" lon="-2.291246">
        <ele>10.0</ele>
        <time>2020-08-13T00:07:39Z</time>
      </trkpt>
      <trkpt lat="47.016952" lon="-2.29074">
        <ele>8.0</ele>
        <time>2020-08-13T00:07:48Z</time>
      </trkpt>
      <trkpt lat="47.016981" lon="-2.290721">
        <ele>8.0</ele>
        <time>2020-08-13T00:07:49Z</time>
      </trkpt>
      <trkpt lat="47.017022" lon="-2.290762">
        <ele>8.0</ele>
        <time>2020-08-13T00:07:50Z</time>
      </trkpt>
      <trkpt lat="47.017143" lon="-2.291096">
        <ele>8.6</ele>
        <time>2020-08-13T00:07:55Z</time>
      </trkpt>
      <trkpt lat="47.017143" lon="-2.291096">
        <ele>8.6</ele>
        <time>2020-08-13T00:07:55Z</time>
      </trkpt>
      <trkpt lat="47.017022" lon="-2.290762">
        <ele>8.0</ele>
        <time>2020-08-13T00:07:59Z</time>
      </trkpt>
      <trkpt lat="47.016981" lon="-2.290721">
        <ele>8.0</ele>
        <time>2020-08-13T00:08:00Z</time>
      </trkpt>
      <trkpt lat="47.016952" lon="-2.29074">
        <ele>8.0</ele>
        <time>2020-08-13T00:08:01Z</time>
      </trkpt>
      <trkpt lat="47.016614" lon="-2.291246">
        <ele>10.0</ele>
        <time>2020-08-13T00:08:10Z</time>
      </trkpt>
      <trkpt lat="47.016454" lon="-2.29134">
        <ele>10.0</ele>
        <time>2020-08-13T00:08:13Z</time>
      </trkpt>
      <trkpt lat="47.015884" lon="-2.288855">
        <ele>7.4</ele>
        <time>2020-08-13T00:08:30Z</time>
      </trkpt>
      <trkpt lat="47.015824" lon="-2.288513">
        <ele>8.6</ele>
        <time>2020-08-13T00:08:32Z</time>
      </trkpt>
      <trkpt lat="47.015783" lon="-2.288144">
        <ele>7.6</ele>
        <time>2020-08-13T00:08:35Z</time>
      </trkpt>
      <trkpt lat="47.015747" lon="-2.287283">
        <ele>6.8</ele>
        <time>2020-08-13T00:08:40Z</time>
      </trkpt>
      <trkpt lat="47.015702" lon="-2.286898">
        <ele>6.8</ele>
        <time>2020-08-13T00:08:43Z</time>
      </trkpt>
      <trkpt lat="47.014888" lon="-2.283955">
        <ele>3.6</ele>
        <time>2020-08-13T00:09:03Z</time>
      </trkpt>
      <trkpt lat="47.01453" lon="-2.282724">
        <ele>3.8</ele>
        <time>2020-08-13T00:09:12Z</time>
      </trkpt>
      <trkpt lat="47.014261" lon="-2.281882">
        <ele>4.6</ele>
        <time>2020-08-13T00:09:18Z</time>
      </trkpt>
      <trkpt lat="47.014026" lon="-2.281221">
        <ele>4.6</ele>
        <time>2020-08-13T00:09:23Z</time>
      </trkpt>
      <trkpt lat="47.012965" lon="-2.278425">
        <ele>4.2</ele>
        <time>2020-08-13T00:09:43Z</time>
      </trkpt>
      <trkpt lat="47.012803" lon="-2.278112">
        <ele>4.8</ele>
        <time>2020-08-13T00:09:46Z</time>
      </trkpt>
      <trkpt lat="47.012557" lon="-2.277695">
        <ele>4.8</ele>
        <time>2020-08-13T00:09:49Z</time>
      </trkpt>
      <trkpt lat="47.012359" lon="-2.277303">
        <ele>4.0</ele>
        <time>2020-08-13T00:09:53Z</time>
      </trkpt>
      <trkpt lat="47.012229" lon="-2.276878">
        <ele>4.0</ele>
        <time>2020-08-13T00:09:56Z</time>
      </trkpt>
      <trkpt lat="47.011972" lon="-2.275881">
        <ele>5.0</ele>
        <time>2020-08-13T00:10:02Z</time>
      </trkpt>
      <trkpt lat="47.011714" lon="-2.275298">
        <ele>4.6</ele>
        <time>2020-08-13T00:10:07Z</time>
      </trkpt>
      <trkpt lat="47.011603" lon="-2.274973">
        <ele>2.6</ele>
        <time>2020-08-13T00:10:09Z</time>
      </trkpt>
      <trkpt lat="47.011208" lon="-2.273463">
        <ele>3.0</ele>
        <time>2020-08-13T00:10:20Z</time>
      </trkpt>
      <trkpt lat="47.010941" lon="-2.272419">
        <ele>3.2</ele>
        <time>2020-08-13T00:10:27Z</time>
      </trkpt>
      <trkpt lat="47.010875" lon="-2.272005">
        <ele>3.2</ele>
        <time>2020-08-13T00:10:30Z</time>
      </trkpt>
      <trkpt lat="47.010859" lon="-2.271454">
        <ele>2.8</ele>
        <time>2020-08-13T00:10:33Z</time>
      </trkpt>
      <trkpt lat="47.010836" lon="-2.271189">
        <ele>2.8</ele>
        <time>2020-08-13T00:10:35Z</time>
      </trkpt>
      <trkpt lat="47.010602" lon="-2.269956">
        <ele>1.2</ele>
        <time>2020-08-13T00:10:43Z</time>
      </trkpt>
      <trkpt lat="47.010419" lon="-2.269145">
        <ele>1.6</ele>
        <time>2020-08-13T00:10:49Z</time>
      </trkpt>
      <trkpt lat="47.010117" lon="-2.268015">
        <ele>2.4</ele>
        <time>2020-08-13T00:10:57Z</time>
      </trkpt>
      <trkpt lat="47.009914" lon="-2.267175">
        <ele>3.0</ele>
        <time>2020-08-13T00:11:02Z</time>
      </trkpt>
      <trkpt lat="47.00984" lon="-2.26665">
        <ele>4.2</ele>
        <time>2020-08-13T00:11:06Z</time>
      </trkpt>
      <trkpt lat="47.009792" lon="-2.26617">
        <ele>4.2</ele>
        <time>2020-08-13T00:11:09Z</time>
      </trkpt>
      <trkpt lat="47.009607" lon="-2.264033">
        <ele>3.8</ele>
        <time>2020-08-13T00:11:23Z</time>
      </trkpt>
      <trkpt lat="47.00954" lon="-2.263637">
        <ele>3.8</ele>
        <time>2020-08-13T00:11:26Z</time>
      </trkpt>
      <trkpt lat="47.008978" lon="-2.261508">
        <ele>1.4</ele>
        <time>2020-08-13T00:11:40Z</time>
      </trkpt>
      <trkpt lat="47.008846" lon="-2.261137">
        <ele>1.4</ele>
        <time>2020-08-13T00:11:43Z</time>
      </trkpt>
      <trkpt lat="47.008554" lon="-2.26043">
        <ele>1.2</ele>
        <time>2020-08-13T00:11:48Z</time>
      </trkpt>
      <trkpt lat="47.008516" lon="-2.260278">
        <ele>1.2</ele>
        <time>2020-08-13T00:11:49Z</time>
      </trkpt>
      <trkpt lat="47.008473" lon="-2.260294">
        <ele>1.2</ele>
        <time>2020-08-13T00:11:50Z</time>
      </trkpt>
      <trkpt lat="47.00843" lon="-2.260283">
        <ele>1.2</ele>
        <time>2020-08-13T00:11:50Z</time>
      </trkpt>
      <trkpt lat="47.008394" lon="-2.260247">
        <ele>1.2</ele>
        <time>2020-08-13T00:11:51Z</time>
      </trkpt>
      <trkpt lat="47.00837" lon="-2.260193">
        <ele>1.2</ele>
        <time>2020-08-13T00:11:51Z</time>
      </trkpt>
      <trkpt lat="47.008376" lon="-2.260067">
        <ele>1.2</ele>
        <time>2020-08-13T00:11:52Z</time>
      </trkpt>
      <trkpt lat="47.008405" lon="-2.260018">
        <ele>1.2</ele>
        <time>2020-08-13T00:11:53Z</time>
      </trkpt>
      <trkpt lat="47.008444" lon="-2.25999">
        <ele>1.2</ele>
        <time>2020-08-13T00:11:53Z</time>
      </trkpt>
      <trkpt lat="47.008353" lon="-2.259658">
        <ele>1.2</ele>
        <time>2020-08-13T00:11:55Z</time>
      </trkpt>
      <trkpt lat="47.007721" lon="-2.258409">
        <ele>1.2</ele>
        <time>2020-08-13T00:12:06Z</time>
      </trkpt>
      <trkpt lat="47.006273" lon="-2.255174">
        <ele>2.6</ele>
        <time>2020-08-13T00:12:33Z</time>
      </trkpt>
      <trkpt lat="47.006207" lon="-2.255043">
        <ele>2.6</ele>
        <time>2020-08-13T00:12:34Z</time>
      </trkpt>
      <trkpt lat="47.006142" lon="-2.254957">
        <ele>3.0</ele>
        <time>2020-08-13T00:12:35Z</time>
      </trkpt>
      <trkpt lat="47.006118" lon="-2.254991">
        <ele>3.0</ele>
        <time>2020-08-13T00:12:36Z</time>
      </trkpt>
      <trkpt lat="47.006054" lon="-2.255003">
        <ele>2.6</ele>
        <time>2020-08-13T00:12:36Z</time>
      </trkpt>
      <trkpt lat="47.006007" lon="-2.254938">
        <ele>3.0</ele>
        <time>2020-08-13T00:12:37Z</time>
      </trkpt>
      <trkpt lat="47.00562" lon="-2.255085">
        <ele>3.0</ele>
        <time>2020-08-13T00:12:41Z</time>
      </trkpt>
      <trkpt lat="47.00545" lon="-2.255123">
        <ele>3.0</ele>
        <time>2020-08-13T00:12:43Z</time>
      </trkpt>
      <trkpt lat="47.005198" lon="-2.255152">
        <ele>3.0</ele>
        <time>2020-08-13T00:12:45Z</time>
      </trkpt>
      <trkpt lat="47.005006" lon="-2.25515">
        <ele>3.0</ele>
        <time>2020-08-13T00:12:47Z</time>
      </trkpt>
      <trkpt lat="47.004441" lon="-2.255052">
        <ele>2.0</ele>
        <time>2020-08-13T00:12:53Z</time>
      </trkpt>
      <trkpt lat="47.004051" lon="-2.254952">
        <ele>1.6</ele>
        <time>2020-08-13T00:12:57Z</time>
      </trkpt>
      <trkpt lat="47.003811" lon="-2.254833">
        <ele>1.6</ele>
        <time>2020-08-13T00:13:00Z</time>
      </trkpt>
      <trkpt lat="47.003409" lon="-2.254563">
        <ele>1.6</ele>
        <time>2020-08-13T00:13:04Z</time>
      </trkpt>
      <trkpt lat="47.003356" lon="-2.254614">
        <ele>1.6</ele>
        <time>2020-08-13T00:13:05Z</time>
      </trkpt>
      <trkpt lat="47.003323" lon="-2.254595">
        <ele>2.4</ele>
        <time>2020-08-13T00:13:05Z</time>
      </trkpt>
      <trkpt lat="47.003263" lon="-2.254429">
        <ele>2.4</ele>
        <time>2020-08-13T00:13:07Z</time>
      </trkpt>
      <trkpt lat="47.00301" lon="-2.253969">
        <ele>2.4</ele>
        <time>2020-08-13T00:13:11Z</time>
      </trkpt>
      <trkpt lat="47.002758" lon="-2.253412">
        <ele>2.4</ele>
        <time>2020-08-13T00:13:16Z</time>
      </trkpt>
      <trkpt lat="47.001922" lon="-2.251872">
        <ele>2.6</ele>
        <time>2020-08-13T00:13:29Z</time>
      </trkpt>
      <trkpt lat="47.001575" lon="-2.25115">
        <ele>1.6</ele>
        <time>2020-08-13T00:13:35Z</time>
      </trkpt>
      <trkpt lat="47.001376" lon="-2.250995">
        <ele>1.6</ele>
        <time>2020-08-13T00:13:38Z</time>
      </trkpt>
      <trkpt lat="47.001282" lon="-2.251021">
        <ele>1.6</ele>
        <time>2020-08-13T00:13:38Z</time>
      </trkpt>
      <trkpt lat="47.001201" lon="-2.250948">
        <ele>1.6</ele>
        <time>2020-08-13T00:13:39Z</time>
      </trkpt>
      <trkpt lat="47.0011" lon="-2.250946">
        <ele>1.6</ele>
        <time>2020-08-13T00:13:40Z</time>
      </trkpt>
      <trkpt lat="47.000779" lon="-2.250999">
        <ele>1.2</ele>
        <time>2020-08-13T00:13:42Z</time>
      </trkpt>
      <trkpt lat="47.000693" lon="-2.250967">
        <ele>1.2</ele>
        <time>2020-08-13T00:13:42Z</time>
      </trkpt>
      <trkpt lat="46.999277" lon="-2.251304">
        <ele>1.4</ele>
        <time>2020-08-13T00:13:51Z</time>
      </trkpt>
      <trkpt lat="46.999079" lon="-2.251276">
        <ele>1.0</ele>
        <time>2020-08-13T00:13:52Z</time>
      </trkpt>
      <trkpt lat="46.999001" lon="-2.251214">
        <ele>1.0</ele>
        <time>2020-08-13T00:13:53Z</time>
      </trkpt>
      <trkpt lat="46.998933" lon="-2.251111">
        <ele>1.0</ele>
        <time>2020-08-13T00:13:53Z</time>
      </trkpt>
      <trkpt lat="46.997919" lon="-2.24868">
        <ele>2.0</ele>
        <time>2020-08-13T00:14:05Z</time>
      </trkpt>
      <trkpt lat="46.997814" lon="-2.248475">
        <ele>2.0</ele>
        <time>2020-08-13T00:14:06Z</time>
      </trkpt>
      <trkpt lat="46.997711" lon="-2.248224">
        <ele>2.0</ele>
        <time>2020-08-13T00:14:07Z</time>
      </trkpt>
      <trkpt lat="46.99765" lon="-2.248123">
        <ele>2.0</ele>
        <time>2020-08-13T00:14:08Z</time>
      </trkpt>
      <trkpt lat="46.997478" lon="-2.248009">
        <ele>1.4</ele>
        <time>2020-08-13T00:14:09Z</time>
      </trkpt>
      <trkpt lat="46.99419" lon="-2.247315">
        <ele>1.0</ele>
        <time>2020-08-13T00:14:30Z</time>
      </trkpt>
      <trkpt lat="46.993917" lon="-2.247278">
        <ele>1.2</ele>
        <time>2020-08-13T00:14:32Z</time>
      </trkpt>
      <trkpt lat="46.993828" lon="-2.247299">
        <ele>1.2</ele>
        <time>2020-08-13T00:14:32Z</time>
      </trkpt>
      <trkpt lat="46.993724" lon="-2.24735">
        <ele>1.2</ele>
        <time>2020-08-13T00:14:33Z</time>
      </trkpt>
      <trkpt lat="46.993667" lon="-2.247406">
        <ele>1.2</ele>
        <time>2020-08-13T00:14:33Z</time>
      </trkpt>
      <trkpt lat="46.993611" lon="-2.247498">
        <ele>1.2</ele>
        <time>2020-08-13T00:14:34Z</time>
      </trkpt>
      <trkpt lat="46.993564" lon="-2.247637">
        <ele>1.2</ele>
        <time>2020-08-13T00:14:35Z</time>
      </trkpt>
      <trkpt lat="46.993423" lon="-2.249021">
        <ele>1.2</ele>
        <time>2020-08-13T00:14:41Z</time>
      </trkpt>
      <trkpt lat="46.993359" lon="-2.249276">
        <ele>0.8</ele>
        <time>2020-08-13T00:14:42Z</time>
      </trkpt>
      <trkpt lat="46.993178" lon="-2.24961">
        <ele>1.4</ele>
        <time>2020-08-13T00:14:44Z</time>
      </trkpt>
      <trkpt lat="46.993022" lon="-2.249767">
        <ele>1.4</ele>
        <time>2020-08-13T00:14:45Z</time>
      </trkpt>
      <trkpt lat="46.992823" lon="-2.249874">
        <ele>1.4</ele>
        <time>2020-08-13T00:14:46Z</time>
      </trkpt>
      <trkpt lat="46.991968" lon="-2.250073">
        <ele>0.6</ele>
        <time>2020-08-13T00:14:52Z</time>
      </trkpt>
      <trkpt lat="46.991762" lon="-2.250138">
        <ele>0.6</ele>
        <time>2020-08-13T00:14:53Z</time>
      </trkpt>
      <trkpt lat="46.991606" lon="-2.250249">
        <ele>0.2</ele>
        <time>2020-08-13T00:14:54Z</time>
      </trkpt>
      <trkpt lat="46.990946" lon="-2.250912">
        <ele>-0.6</ele>
        <time>2020-08-13T00:14:59Z</time>
      </trkpt>
      <trkpt lat="46.990825" lon="-2.250988">
        <ele>-0.6</ele>
        <time>2020-08-13T00:15:00Z</time>
      </trkpt>
      <trkpt lat="46.990671" lon="-2.250998">
        <ele>-0.6</ele>
        <time>2020-08-13T00:15:01Z</time>
      </trkpt>
      <trkpt lat="46.99055" lon="-2.250937">
        <ele>-0.6</ele>
        <time>2020-08-13T00:15:02Z</time>
      </trkpt>
      <trkpt lat="46.990429" lon="-2.250803">
        <ele>-0.4</ele>
        <time>2020-08-13T00:15:03Z</time>
      </trkpt>
      <trkpt lat="46.989537" lon="-2.249063">
        <ele>1.0</ele>
        <time>2020-08-13T00:15:12Z</time>
      </trkpt>
      <trkpt lat="46.989375" lon="-2.248828">
        <ele>1.0</ele>
        <time>2020-08-13T00:15:14Z</time>
      </trkpt>
      <trkpt lat="46.989278" lon="-2.248759">
        <ele>1.0</ele>
        <time>2020-08-13T00:15:15Z</time>
      </trkpt>
      <trkpt lat="46.989204" lon="-2.248731">
        <ele>1.0</ele>
        <time>2020-08-13T00:15:15Z</time>
      </trkpt>
      <trkpt lat="46.989046" lon="-2.248744">
        <ele>0.8</ele>
        <time>2020-08-13T00:15:17Z</time>
      </trkpt>
      <trkpt lat="46.988935" lon="-2.248788">
        <ele>0.8</ele>
        <time>2020-08-13T00:15:18Z</time>
      </trkpt>
      <trkpt lat="46.988544" lon="-2.249149">
        <ele>0.8</ele>
        <time>2020-08-13T00:15:21Z</time>
      </trkpt>
      <trkpt lat="46.988193" lon="-2.249401">
        <ele>0.4</ele>
        <time>2020-08-13T00:15:25Z</time>
      </trkpt>
      <trkpt lat="46.987865" lon="-2.249549">
        <ele>0.4</ele>
        <time>2020-08-13T00:15:27Z</time>
      </trkpt>
      <trkpt lat="46.987568" lon="-2.249617">
        <ele>0.4</ele>
        <time>2020-08-13T00:15:30Z</time>
      </trkpt>
      <trkpt lat="46.987229" lon="-2.249624">
        <ele>1.4</ele>
        <time>2020-08-13T00:15:33Z</time>
      </trkpt>
      <trkpt lat="46.986854" lon="-2.249535">
        <ele>1.4</ele>
        <time>2020-08-13T00:15:36Z</time>
      </trkpt>
      <trkpt lat="46.986571" lon="-2.249414">
        <ele>1.6</ele>
        <time>2020-08-13T00:15:38Z</time>
      </trkpt>
      <trkpt lat="46.986364" lon="-2.249295">
        <ele>1.6</ele>
        <time>2020-08-13T00:15:40Z</time>
      </trkpt>
      <trkpt lat="46.986128" lon="-2.24911">
        <ele>2.0</ele>
        <time>2020-08-13T00:15:42Z</time>
      </trkpt>
      <trkpt lat="46.985812" lon="-2.248779">
        <ele>0.8</ele>
        <time>2020-08-13T00:15:45Z</time>
      </trkpt>
      <trkpt lat="46.984529" lon="-2.247002">
        <ele>0.4</ele>
        <time>2020-08-13T00:16:00Z</time>
      </trkpt>
      <trkpt lat="46.984336" lon="-2.246806">
        <ele>0.4</ele>
        <time>2020-08-13T00:16:02Z</time>
      </trkpt>
      <trkpt lat="46.983109" lon="-2.245916">
        <ele>0.8</ele>
        <time>2020-08-13T00:16:13Z</time>
      </trkpt>
      <trkpt lat="46.98294" lon="-2.245837">
        <ele>0.8</ele>
        <time>2020-08-13T00:16:14Z</time>
      </trkpt>
      <trkpt lat="46.982758" lon="-2.245827">
        <ele>0.8</ele>
        <time>2020-08-13T00:16:16Z</time>
      </trkpt>
      <trkpt lat="46.982592" lon="-2.245862">
        <ele>0.8</ele>
        <time>2020-08-13T00:16:17Z</time>
      </trkpt>
      <trkpt lat="46.982496" lon="-2.245906">
        <ele>0.8</ele>
        <time>2020-08-13T00:16:18Z</time>
      </trkpt>
      <trkpt lat="46.982248" lon="-2.246112">
        <ele>0.8</ele>
        <time>2020-08-13T00:16:20Z</time>
      </trkpt>
      <trkpt lat="46.981939" lon="-2.246473">
        <ele>0.8</ele>
        <time>2020-08-13T00:16:23Z</time>
      </trkpt>
      <trkpt lat="46.981799" lon="-2.246602">
        <ele>0.8</ele>
        <time>2020-08-13T00:16:25Z</time>
      </trkpt>
      <trkpt lat="46.981721" lon="-2.246648">
        <ele>0.8</ele>
        <time>2020-08-13T00:16:25Z</time>
      </trkpt>
      <trkpt lat="46.981641" lon="-2.246684">
        <ele>0.4</ele>
        <time>2020-08-13T00:16:26Z</time>
      </trkpt>
      <trkpt lat="46.981525" lon="-2.246686">
        <ele>0.4</ele>
        <time>2020-08-13T00:16:27Z</time>
      </trkpt>
      <trkpt lat="46.981337" lon="-2.246629">
        <ele>0.8</ele>
        <time>2020-08-13T00:16:29Z</time>
      </trkpt>
      <trkpt lat="46.981227" lon="-2.246543">
        <ele>0.8</ele>
        <time>2020-08-13T00:16:30Z</time>
      </trkpt>
      <trkpt lat="46.981042" lon="-2.246299">
        <ele>0.8</ele>
        <time>2020-08-13T00:16:32Z</time>
      </trkpt>
      <trkpt lat="46.979519" lon="-2.243811">
        <ele>1.4</ele>
        <time>2020-08-13T00:16:50Z</time>
      </trkpt>
      <trkpt lat="46.979398" lon="-2.243643">
        <ele>1.4</ele>
        <time>2020-08-13T00:16:52Z</time>
      </trkpt>
      <trkpt lat="46.979161" lon="-2.243397">
        <ele>1.6</ele>
        <time>2020-08-13T00:16:54Z</time>
      </trkpt>
      <trkpt lat="46.979014" lon="-2.24328">
        <ele>1.8</ele>
        <time>2020-08-13T00:16:55Z</time>
      </trkpt>
      <trkpt lat="46.976628" lon="-2.241718">
        <ele>1.2</ele>
        <time>2020-08-13T00:17:17Z</time>
      </trkpt>
      <trkpt lat="46.976375" lon="-2.241593">
        <ele>1.4</ele>
        <time>2020-08-13T00:17:19Z</time>
      </trkpt>
      <trkpt lat="46.97579" lon="-2.241233">
        <ele>1.8</ele>
        <time>2020-08-13T00:17:24Z</time>
      </trkpt>
      <trkpt lat="46.975621" lon="-2.241174">
        <ele>1.8</ele>
        <time>2020-08-13T00:17:26Z</time>
      </trkpt>
      <trkpt lat="46.975401" lon="-2.241191">
        <ele>1.8</ele>
        <time>2020-08-13T00:17:27Z</time>
      </trkpt>
      <trkpt lat="46.975327" lon="-2.241277">
        <ele>1.8</ele>
        <time>2020-08-13T00:17:28Z</time>
      </trkpt>
      <trkpt lat="46.975233" lon="-2.241283">
        <ele>1.8</ele>
        <time>2020-08-13T00:17:29Z</time>
      </trkpt>
      <trkpt lat="46.97519" lon="-2.241253">
        <ele>1.8</ele>
        <time>2020-08-13T00:17:29Z</time>
      </trkpt>
      <trkpt lat="46.975132" lon="-2.241144">
        <ele>1.8</ele>
        <time>2020-08-13T00:17:30Z</time>
      </trkpt>
      <trkpt lat="46.97513" lon="-2.241006">
        <ele>1.8</ele>
        <time>2020-08-13T00:17:30Z</time>
      </trkpt>
      <trkpt lat="46.975107" lon="-2.240921">
        <ele>1.8</ele>
        <time>2020-08-13T00:17:31Z</time>
      </trkpt>
      <trkpt lat="46.975014" lon="-2.240758">
        <ele>2.0</ele>
        <time>2020-08-13T00:17:32Z</time>
      </trkpt>
      <trkpt lat="46.974785" lon="-2.24052">
        <ele>2.6</ele>
        <time>2020-08-13T00:17:34Z</time>
      </trkpt>
      <trkpt lat="46.973244" lon="-2.239504">
        <ele>2.0</ele>
        <time>2020-08-13T00:17:45Z</time>
      </trkpt>
      <trkpt lat="46.972934" lon="-2.239322">
        <ele>2.0</ele>
        <time>2020-08-13T00:17:47Z</time>
      </trkpt>
      <trkpt lat="46.972573" lon="-2.239191">
        <ele>2.0</ele>
        <time>2020-08-13T00:17:50Z</time>
      </trkpt>
      <trkpt lat="46.971343" lon="-2.238873">
        <ele>1.8</ele>
        <time>2020-08-13T00:17:58Z</time>
      </trkpt>
      <trkpt lat="46.970706" lon="-2.238755">
        <ele>2.6</ele>
        <time>2020-08-13T00:18:03Z</time>
      </trkpt>
      <trkpt lat="46.970521" lon="-2.238759">
        <ele>2.6</ele>
        <time>2020-08-13T00:18:04Z</time>
      </trkpt>
      <trkpt lat="46.970306" lon="-2.238872">
        <ele>2.6</ele>
        <time>2020-08-13T00:18:05Z</time>
      </trkpt>
      <trkpt lat="46.970221" lon="-2.238959">
        <ele>2.6</ele>
        <time>2020-08-13T00:18:06Z</time>
      </trkpt>
      <trkpt lat="46.970118" lon="-2.239126">
        <ele>2.6</ele>
        <time>2020-08-13T00:18:07Z</time>
      </trkpt>
      <trkpt lat="46.969978" lon="-2.23922">
        <ele>3.0</ele>
        <time>2020-08-13T00:18:08Z</time>
      </trkpt>
      <trkpt lat="46.969829" lon="-2.239227">
        <ele>3.0</ele>
        <time>2020-08-13T00:18:08Z</time>
      </trkpt>
      <trkpt lat="46.969693" lon="-2.239152">
        <ele>2.4</ele>
        <time>2020-08-13T00:18:09Z</time>
      </trkpt>
      <trkpt lat="46.969635" lon="-2.239088">
        <ele>2.4</ele>
        <time>2020-08-13T00:18:10Z</time>
      </trkpt>
      <trkpt lat="46.969563" lon="-2.238958">
        <ele>2.4</ele>
        <time>2020-08-13T00:18:10Z</time>
      </trkpt>
      <trkpt lat="46.969516" lon="-2.238764">
        <ele>2.4</ele>
        <time>2020-08-13T00:18:11Z</time>
      </trkpt>
      <trkpt lat="46.969528" lon="-2.238512">
        <ele>2.4</ele>
        <time>2020-08-13T00:18:12Z</time>
      </trkpt>
      <trkpt lat="46.969584" lon="-2.238347">
        <ele>2.4</ele>
        <time>2020-08-13T00:18:12Z</time>
      </trkpt>
      <trkpt lat="46.969629" lon="-2.238272">
        <ele>2.2</ele>
        <time>2020-08-13T00:18:13Z</time>
      </trkpt>
      <trkpt lat="46.969644" lon="-2.237891">
        <ele>2.2</ele>
        <time>2020-08-13T00:18:14Z</time>
      </trkpt>
      <trkpt lat="46.969529" lon="-2.237377">
        <ele>1.8</ele>
        <time>2020-08-13T00:18:16Z</time>
      </trkpt>
      <trkpt lat="46.969493" lon="-2.237029">
        <ele>1.8</ele>
        <time>2020-08-13T00:18:17Z</time>
      </trkpt>
      <trkpt lat="46.9695" lon="-2.2367">
        <ele>1.8</ele>
        <time>2020-08-13T00:18:18Z</time>
      </trkpt>
      <trkpt lat="46.970043" lon="-2.229054">
        <ele>2.2</ele>
        <time>2020-08-13T00:18:45Z</time>
      </trkpt>
      <trkpt lat="46.97007" lon="-2.228115">
        <ele>2.6</ele>
        <time>2020-08-13T00:18:48Z</time>
      </trkpt>
      <trkpt lat="46.970045" lon="-2.227148">
        <ele>2.8</ele>
        <time>2020-08-13T00:18:52Z</time>
      </trkpt>
      <trkpt lat="46.970001" lon="-2.226004">
        <ele>2.4</ele>
        <time>2020-08-13T00:18:56Z</time>
      </trkpt>
      <trkpt lat="46.969934" lon="-2.225618">
        <ele>1.6</ele>
        <time>2020-08-13T00:18:57Z</time>
      </trkpt>
      <trkpt lat="46.969883" lon="-2.225577">
        <ele>1.6</ele>
        <time>2020-08-13T00:18:58Z</time>
      </trkpt>
      <trkpt lat="46.969844" lon="-2.225513">
        <ele>1.6</ele>
        <time>2020-08-13T00:18:58Z</time>
      </trkpt>
      <trkpt lat="46.969822" lon="-2.225434">
        <ele>1.6</ele>
        <time>2020-08-13T00:18:58Z</time>
      </trkpt>
      <trkpt lat="46.969831" lon="-2.225284">
        <ele>1.6</ele>
        <time>2020-08-13T00:18:59Z</time>
      </trkpt>
      <trkpt lat="46.969888" lon="-2.22518">
        <ele>1.6</ele>
        <time>2020-08-13T00:18:59Z</time>
      </trkpt>
      <trkpt lat="46.969897" lon="-2.225046">
        <ele>1.6</ele>
        <time>2020-08-13T00:19:00Z</time>
      </trkpt>
      <trkpt lat="46.969831" lon="-2.224503">
        <ele>0.4</ele>
        <time>2020-08-13T00:19:02Z</time>
      </trkpt>
      <trkpt lat="46.969732" lon="-2.223922">
        <ele>0.0</ele>
        <time>2020-08-13T00:19:04Z</time>
      </trkpt>
      <trkpt lat="46.969093" lon="-2.2207">
        <ele>0.6</ele>
        <time>2020-08-13T00:19:15Z</time>
      </trkpt>
      <trkpt lat="46.968937" lon="-2.220006">
        <ele>0.6</ele>
        <time>2020-08-13T00:19:18Z</time>
      </trkpt>
      <trkpt lat="46.968776" lon="-2.219457">
        <ele>0.2</ele>
        <time>2020-08-13T00:19:20Z</time>
      </trkpt>
      <trkpt lat="46.96857" lon="-2.218884">
        <ele>0.4</ele>
        <time>2020-08-13T00:19:22Z</time>
      </trkpt>
      <trkpt lat="46.968281" lon="-2.218227">
        <ele>2.2</ele>
        <time>2020-08-13T00:19:25Z</time>
      </trkpt>
      <trkpt lat="46.96802" lon="-2.217722">
        <ele>2.2</ele>
        <time>2020-08-13T00:19:27Z</time>
      </trkpt>
      <trkpt lat="46.967386" lon="-2.216689">
        <ele>3.0</ele>
        <time>2020-08-13T00:19:32Z</time>
      </trkpt>
      <trkpt lat="46.967247" lon="-2.216509">
        <ele>2.4</ele>
        <time>2020-08-13T00:19:33Z</time>
      </trkpt>
      <trkpt lat="46.96713" lon="-2.21645">
        <ele>2.4</ele>
        <time>2020-08-13T00:19:34Z</time>
      </trkpt>
      <trkpt lat="46.967051" lon="-2.216481">
        <ele>2.4</ele>
        <time>2020-08-13T00:19:34Z</time>
      </trkpt>
      <trkpt lat="46.966891" lon="-2.216472">
        <ele>2.4</ele>
        <time>2020-08-13T00:19:36Z</time>
      </trkpt>
      <trkpt lat="46.966741" lon="-2.216366">
        <ele>2.4</ele>
        <time>2020-08-13T00:19:38Z</time>
      </trkpt>
      <trkpt lat="46.966677" lon="-2.216275">
        <ele>2.4</ele>
        <time>2020-08-13T00:19:39Z</time>
      </trkpt>
      <trkpt lat="46.966629" lon="-2.216166">
        <ele>3.4</ele>
        <time>2020-08-13T00:19:40Z</time>
      </trkpt>
      <trkpt lat="46.966598" lon="-2.216044">
        <ele>3.4</ele>
        <time>2020-08-13T00:19:41Z</time>
      </trkpt>
      <trkpt lat="46.966586" lon="-2.215916">
        <ele>3.4</ele>
        <time>2020-08-13T00:19:41Z</time>
      </trkpt>
      <trkpt lat="46.966594" lon="-2.215786">
        <ele>3.4</ele>
        <time>2020-08-13T00:19:42Z</time>
      </trkpt>
      <trkpt lat="46.966621" lon="-2.215662">
        <ele>3.4</ele>
        <time>2020-08-13T00:19:43Z</time>
      </trkpt>
      <trkpt lat="46.966585" lon="-2.215494">
        <ele>3.4</ele>
        <time>2020-08-13T00:19:44Z</time>
      </trkpt>
      <trkpt lat="46.966487" lon="-2.215212">
        <ele>3.4</ele>
        <time>2020-08-13T00:19:47Z</time>
      </trkpt>
      <trkpt lat="46.965748" lon="-2.213447">
        <ele>2.6</ele>
        <time>2020-08-13T00:20:01Z</time>
      </trkpt>
      <trkpt lat="46.964174" lon="-2.209853">
        <ele>2.0</ele>
        <time>2020-08-13T00:20:31Z</time>
      </trkpt>
      <trkpt lat="46.962329" lon="-2.205724">
        <ele>5.8</ele>
        <time>2020-08-13T00:21:05Z</time>
      </trkpt>
      <trkpt lat="46.96175" lon="-2.204326">
        <ele>4.0</ele>
        <time>2020-08-13T00:21:17Z</time>
      </trkpt>
      <trkpt lat="46.961685" lon="-2.204216">
        <ele>4.0</ele>
        <time>2020-08-13T00:21:18Z</time>
      </trkpt>
      <trkpt lat="46.961608" lon="-2.204218">
        <ele>5.4</ele>
        <time>2020-08-13T00:21:18Z</time>
      </trkpt>
      <trkpt lat="46.961543" lon="-2.204166">
        <ele>3.6</ele>
        <time>2020-08-13T00:21:19Z</time>
      </trkpt>
      <trkpt lat="46.961503" lon="-2.204076">
        <ele>3.6</ele>
        <time>2020-08-13T00:21:19Z</time>
      </trkpt>
      <trkpt lat="46.961496" lon="-2.203987">
        <ele>3.6</ele>
        <time>2020-08-13T00:21:19Z</time>
      </trkpt>
      <trkpt lat="46.961516" lon="-2.203898">
        <ele>3.6</ele>
        <time>2020-08-13T00:21:20Z</time>
      </trkpt>
      <trkpt lat="46.961464" lon="-2.203652">
        <ele>3.6</ele>
        <time>2020-08-13T00:21:21Z</time>
      </trkpt>
      <trkpt lat="46.960927" lon="-2.202409">
        <ele>1.6</ele>
        <time>2020-08-13T00:21:26Z</time>
      </trkpt>
      <trkpt lat="46.960571" lon="-2.20164">
        <ele>3.4</ele>
        <time>2020-08-13T00:21:29Z</time>
      </trkpt>
      <trkpt lat="46.959497" lon="-2.199433">
        <ele>1.8</ele>
        <time>2020-08-13T00:21:39Z</time>
      </trkpt>
      <trkpt lat="46.957447" lon="-2.19474">
        <ele>3.2</ele>
        <time>2020-08-13T00:21:59Z</time>
      </trkpt>
      <trkpt lat="46.957159" lon="-2.194028">
        <ele>2.4</ele>
        <time>2020-08-13T00:22:02Z</time>
      </trkpt>
      <trkpt lat="46.956715" lon="-2.192792">
        <ele>0.8</ele>
        <time>2020-08-13T00:22:07Z</time>
      </trkpt>
      <trkpt lat="46.956509" lon="-2.192171">
        <ele>2.0</ele>
        <time>2020-08-13T00:22:10Z</time>
      </trkpt>
      <trkpt lat="46.956354" lon="-2.191497">
        <ele>1.4</ele>
        <time>2020-08-13T00:22:12Z</time>
      </trkpt>
      <trkpt lat="46.956104" lon="-2.190219">
        <ele>0.4</ele>
        <time>2020-08-13T00:22:17Z</time>
      </trkpt>
      <trkpt lat="46.955971" lon="-2.19">
        <ele>0.2</ele>
        <time>2020-08-13T00:22:18Z</time>
      </trkpt>
      <trkpt lat="46.955859" lon="-2.189948">
        <ele>0.2</ele>
        <time>2020-08-13T00:22:19Z</time>
      </trkpt>
      <trkpt lat="46.955821" lon="-2.189896">
        <ele>1.4</ele>
        <time>2020-08-13T00:22:19Z</time>
      </trkpt>
      <trkpt lat="46.955777" lon="-2.189759">
        <ele>1.4</ele>
        <time>2020-08-13T00:22:20Z</time>
      </trkpt>
      <trkpt lat="46.955784" lon="-2.189617">
        <ele>1.4</ele>
        <time>2020-08-13T00:22:20Z</time>
      </trkpt>
      <trkpt lat="46.955831" lon="-2.189503">
        <ele>1.4</ele>
        <time>2020-08-13T00:22:21Z</time>
      </trkpt>
      <trkpt lat="46.955866" lon="-2.189462">
        <ele>0.2</ele>
        <time>2020-08-13T00:22:21Z</time>
      </trkpt>
      <trkpt lat="46.955879" lon="-2.189387">
        <ele>0.2</ele>
        <time>2020-08-13T00:22:21Z</time>
      </trkpt>
      <trkpt lat="46.955888" lon="-2.189286">
        <ele>0.2</ele>
        <time>2020-08-13T00:22:22Z</time>
      </trkpt>
      <trkpt lat="46.95586" lon="-2.1891">
        <ele>1.0</ele>
        <time>2020-08-13T00:22:23Z</time>
      </trkpt>
      <trkpt lat="46.95517" lon="-2.185982">
        <ele>1.0</ele>
        <time>2020-08-13T00:22:36Z</time>
      </trkpt>
      <trkpt lat="46.955002" lon="-2.185289">
        <ele>1.0</ele>
        <time>2020-08-13T00:22:39Z</time>
      </trkpt>
      <trkpt lat="46.954702" lon="-2.184227">
        <ele>2.2</ele>
        <time>2020-08-13T00:22:43Z</time>
      </trkpt>
      <trkpt lat="46.954474" lon="-2.183526">
        <ele>2.0</ele>
        <time>2020-08-13T00:22:47Z</time>
      </trkpt>
      <trkpt lat="46.954133" lon="-2.182575">
        <ele>2.8</ele>
        <time>2020-08-13T00:22:51Z</time>
      </trkpt>
      <trkpt lat="46.953959" lon="-2.182142">
        <ele>2.4</ele>
        <time>2020-08-13T00:22:53Z</time>
      </trkpt>
      <trkpt lat="46.953586" lon="-2.181283">
        <ele>2.0</ele>
        <time>2020-08-13T00:22:57Z</time>
      </trkpt>
      <trkpt lat="46.95307" lon="-2.180228">
        <ele>1.6</ele>
        <time>2020-08-13T00:23:02Z</time>
      </trkpt>
      <trkpt lat="46.952761" lon="-2.17966">
        <ele>1.2</ele>
        <time>2020-08-13T00:23:05Z</time>
      </trkpt>
      <trkpt lat="46.952258" lon="-2.178836">
        <ele>1.0</ele>
        <time>2020-08-13T00:23:10Z</time>
      </trkpt>
      <trkpt lat="46.95163" lon="-2.177921">
        <ele>0.8</ele>
        <time>2020-08-13T00:23:15Z</time>
      </trkpt>
      <trkpt lat="46.951069" lon="-2.177198">
        <ele>0.8</ele>
        <time>2020-08-13T00:23:19Z</time>
      </trkpt>
      <trkpt lat="46.950598" lon="-2.176638">
        <ele>0.8</ele>
        <time>2020-08-13T00:23:23Z</time>
      </trkpt>
      <trkpt lat="46.949819" lon="-2.175832">
        <ele>0.6</ele>
        <time>2020-08-13T00:23:29Z</time>
      </trkpt>
      <trkpt lat="46.949114" lon="-2.17521">
        <ele>1.0</ele>
        <time>2020-08-13T00:23:33Z</time>
      </trkpt>
      <trkpt lat="46.948729" lon="-2.174889">
        <ele>1.0</ele>
        <time>2020-08-13T00:23:36Z</time>
      </trkpt>
      <trkpt lat="46.948342" lon="-2.174601">
        <ele>1.0</ele>
        <time>2020-08-13T00:23:39Z</time>
      </trkpt>
      <trkpt lat="46.947731" lon="-2.174187">
        <ele>1.6</ele>
        <time>2020-08-13T00:23:43Z</time>
      </trkpt>
      <trkpt lat="46.941717" lon="-2.170591">
        <ele>1.2</ele>
        <time>2020-08-13T00:24:21Z</time>
      </trkpt>
      <trkpt lat="46.9405" lon="-2.169815">
        <ele>1.0</ele>
        <time>2020-08-13T00:24:29Z</time>
      </trkpt>
      <trkpt lat="46.939854" lon="-2.16936">
        <ele>1.6</ele>
        <time>2020-08-13T00:24:33Z</time>
      </trkpt>
      <trkpt lat="46.937222" lon="-2.167419">
        <ele>1.4</ele>
        <time>2020-08-13T00:24:51Z</time>
      </trkpt>
      <trkpt lat="46.936235" lon="-2.166661">
        <ele>2.0</ele>
        <time>2020-08-13T00:24:57Z</time>
      </trkpt>
      <trkpt lat="46.936077" lon="-2.166578">
        <ele>2.0</ele>
        <time>2020-08-13T00:24:58Z</time>
      </trkpt>
      <trkpt lat="46.936011" lon="-2.166562">
        <ele>2.0</ele>
        <time>2020-08-13T00:24:59Z</time>
      </trkpt>
      <trkpt lat="46.935912" lon="-2.16661">
        <ele>2.0</ele>
        <time>2020-08-13T00:24:59Z</time>
      </trkpt>
      <trkpt lat="46.93581" lon="-2.166588">
        <ele>2.4</ele>
        <time>2020-08-13T00:25:00Z</time>
      </trkpt>
      <trkpt lat="46.935729" lon="-2.166505">
        <ele>2.4</ele>
        <time>2020-08-13T00:25:01Z</time>
      </trkpt>
      <trkpt lat="46.935682" lon="-2.166385">
        <ele>2.4</ele>
        <time>2020-08-13T00:25:01Z</time>
      </trkpt>
      <trkpt lat="46.935672" lon="-2.166317">
        <ele>2.4</ele>
        <time>2020-08-13T00:25:01Z</time>
      </trkpt>
      <trkpt lat="46.935675" lon="-2.16622">
        <ele>2.4</ele>
        <time>2020-08-13T00:25:02Z</time>
      </trkpt>
      <trkpt lat="46.935698" lon="-2.166129">
        <ele>2.4</ele>
        <time>2020-08-13T00:25:02Z</time>
      </trkpt>
      <trkpt lat="46.935738" lon="-2.166051">
        <ele>2.4</ele>
        <time>2020-08-13T00:25:03Z</time>
      </trkpt>
      <trkpt lat="46.935791" lon="-2.165995">
        <ele>2.4</ele>
        <time>2020-08-13T00:25:03Z</time>
      </trkpt>
      <trkpt lat="46.935866" lon="-2.165961">
        <ele>2.0</ele>
        <time>2020-08-13T00:25:03Z</time>
      </trkpt>
      <trkpt lat="46.935915" lon="-2.165821">
        <ele>2.6</ele>
        <time>2020-08-13T00:25:04Z</time>
      </trkpt>
      <trkpt lat="46.935934" lon="-2.165653">
        <ele>2.6</ele>
        <time>2020-08-13T00:25:05Z</time>
      </trkpt>
      <trkpt lat="46.935914" lon="-2.165483">
        <ele>2.6</ele>
        <time>2020-08-13T00:25:05Z</time>
      </trkpt>
      <trkpt lat="46.932444" lon="-2.155361">
        <ele>1.0</ele>
        <time>2020-08-13T00:26:11Z</time>
      </trkpt>
      <trkpt lat="46.932208" lon="-2.15462">
        <ele>1.2</ele>
        <time>2020-08-13T00:26:16Z</time>
      </trkpt>
      <trkpt lat="46.932174" lon="-2.154349">
        <ele>1.2</ele>
        <time>2020-08-13T00:26:17Z</time>
      </trkpt>
      <trkpt lat="46.932159" lon="-2.153229">
        <ele>2.6</ele>
        <time>2020-08-13T00:26:24Z</time>
      </trkpt>
      <trkpt lat="46.932182" lon="-2.152985">
        <ele>2.6</ele>
        <time>2020-08-13T00:26:25Z</time>
      </trkpt>
      <trkpt lat="46.932386" lon="-2.152345">
        <ele>2.25</ele>
        <time>2020-08-13T00:26:29Z</time>
      </trkpt>
      <trkpt lat="46.932521" lon="-2.152025">
        <ele>1.4</ele>
        <time>2020-08-13T00:26:31Z</time>
      </trkpt>
      <trkpt lat="46.932634" lon="-2.151584">
        <ele>1.5</ele>
        <time>2020-08-13T00:26:34Z</time>
      </trkpt>
      <trkpt lat="46.933773" lon="-2.147953">
        <ele>2.0</ele>
        <time>2020-08-13T00:26:57Z</time>
      </trkpt>
      <trkpt lat="46.93382" lon="-2.147867">
        <ele>2.0</ele>
        <time>2020-08-13T00:26:58Z</time>
      </trkpt>
      <trkpt lat="46.93388" lon="-2.147634">
        <ele>2.0</ele>
        <time>2020-08-13T00:26:59Z</time>
      </trkpt>
      <trkpt lat="46.933893" lon="-2.147476">
        <ele>0.0</ele>
        <time>2020-08-13T00:27:00Z</time>
      </trkpt>
      <trkpt lat="46.933886" lon="-2.136215">
        <ele>0.0</ele>
        <time>2020-08-13T00:28:06Z</time>
      </trkpt>
      <trkpt lat="46.933869" lon="-2.134767">
        <ele>0.0</ele>
        <time>2020-08-13T00:28:14Z</time>
      </trkpt>
      <trkpt lat="46.933783" lon="-2.134403">
        <ele>0.0</ele>
        <time>2020-08-13T00:28:16Z</time>
      </trkpt>
      <trkpt lat="46.927634" lon="-2.114226">
        <ele>0.0</ele>
        <time>2020-08-13T00:30:24Z</time>
      </trkpt>
      <trkpt lat="46.924072" lon="-2.108831">
        <ele>0.0</ele>
        <time>2020-08-13T00:31:08Z</time>
      </trkpt>
      <trkpt lat="46.923154" lon="-2.10758">
        <ele>0.0</ele>
        <time>2020-08-13T00:31:18Z</time>
      </trkpt>
      <trkpt lat="46.922551" lon="-2.106615">
        <ele>0.0</ele>
        <time>2020-08-13T00:31:26Z</time>
      </trkpt>
      <trkpt lat="46.921103" lon="-2.103844">
        <ele>1.0</ele>
        <time>2020-08-13T00:31:46Z</time>
      </trkpt>
      <trkpt lat="46.920109" lon="-2.102024">
        <ele>1.0</ele>
        <time>2020-08-13T00:31:59Z</time>
      </trkpt>
      <trkpt lat="46.919895" lon="-2.101596">
        <ele>1.0</ele>
        <time>2020-08-13T00:32:03Z</time>
      </trkpt>
      <trkpt lat="46.919788" lon="-2.101277">
        <ele>1.0</ele>
        <time>2020-08-13T00:32:05Z</time>
      </trkpt>
      <trkpt lat="46.919739" lon="-2.100941">
        <ele>1.0</ele>
        <time>2020-08-13T00:32:07Z</time>
      </trkpt>
      <trkpt lat="46.919737" lon="-2.100679">
        <ele>1.4</ele>
        <time>2020-08-13T00:32:08Z</time>
      </trkpt>
      <trkpt lat="46.919774" lon="-2.100392">
        <ele>1.4</ele>
        <time>2020-08-13T00:32:10Z</time>
      </trkpt>
      <trkpt lat="46.919839" lon="-2.100078">
        <ele>1.4</ele>
        <time>2020-08-13T00:32:12Z</time>
      </trkpt>
      <trkpt lat="46.921008" lon="-2.094674">
        <ele>1.0</ele>
        <time>2020-08-13T00:32:45Z</time>
      </trkpt>
      <trkpt lat="46.92108" lon="-2.094382">
        <ele>1.0</ele>
        <time>2020-08-13T00:32:46Z</time>
      </trkpt>
      <trkpt lat="46.921498" lon="-2.093147">
        <ele>1.8</ele>
        <time>2020-08-13T00:32:54Z</time>
      </trkpt>
      <trkpt lat="46.921588" lon="-2.092735">
        <ele>1.8</ele>
        <time>2020-08-13T00:32:57Z</time>
      </trkpt>
      <trkpt lat="46.921591" lon="-2.092524">
        <ele>1.8</ele>
        <time>2020-08-13T00:32:58Z</time>
      </trkpt>
      <trkpt lat="46.920746" lon="-2.086436">
        <ele>1.4</ele>
        <time>2020-08-13T00:33:34Z</time>
      </trkpt>
      <trkpt lat="46.920628" lon="-2.085688">
        <ele>1.4</ele>
        <time>2020-08-13T00:33:38Z</time>
      </trkpt>
      <trkpt lat="46.919835" lon="-2.08311">
        <ele>2.0</ele>
        <time>2020-08-13T00:33:55Z</time>
      </trkpt>
      <trkpt lat="46.919723" lon="-2.082819">
        <ele>2.0</ele>
        <time>2020-08-13T00:33:57Z</time>
      </trkpt>
      <trkpt lat="46.919588" lon="-2.082567">
        <ele>2.0</ele>
        <time>2020-08-13T00:33:59Z</time>
      </trkpt>
      <trkpt lat="46.919244" lon="-2.082136">
        <ele>1.4</ele>
        <time>2020-08-13T00:34:02Z</time>
      </trkpt>
      <trkpt lat="46.918493" lon="-2.081446">
        <ele>0.8</ele>
        <time>2020-08-13T00:34:10Z</time>
      </trkpt>
      <trkpt lat="46.91829" lon="-2.081202">
        <ele>0.6</ele>
        <time>2020-08-13T00:34:12Z</time>
      </trkpt>
      <trkpt lat="46.918114" lon="-2.080938">
        <ele>0.6</ele>
        <time>2020-08-13T00:34:14Z</time>
      </trkpt>
      <trkpt lat="46.917957" lon="-2.080624">
        <ele>0.2</ele>
        <time>2020-08-13T00:34:17Z</time>
      </trkpt>
      <trkpt lat="46.917819" lon="-2.080183">
        <ele>0.2</ele>
        <time>2020-08-13T00:34:19Z</time>
      </trkpt>
      <trkpt lat="46.917473" lon="-2.078949">
        <ele>1.4</ele>
        <time>2020-08-13T00:34:27Z</time>
      </trkpt>
      <trkpt lat="46.916711" lon="-2.076717">
        <ele>2.0</ele>
        <time>2020-08-13T00:34:42Z</time>
      </trkpt>
      <trkpt lat="46.91667" lon="-2.076475">
        <ele>1.8</ele>
        <time>2020-08-13T00:34:43Z</time>
      </trkpt>
      <trkpt lat="46.916673" lon="-2.076023">
        <ele>1.8</ele>
        <time>2020-08-13T00:34:46Z</time>
      </trkpt>
      <trkpt lat="46.916784" lon="-2.074228">
        <ele>1.4</ele>
        <time>2020-08-13T00:34:56Z</time>
      </trkpt>
      <trkpt lat="46.91678" lon="-2.073892">
        <ele>2.0</ele>
        <time>2020-08-13T00:34:58Z</time>
      </trkpt>
      <trkpt lat="46.916718" lon="-2.073372">
        <ele>2.0</ele>
        <time>2020-08-13T00:35:01Z</time>
      </trkpt>
      <trkpt lat="46.916637" lon="-2.072929">
        <ele>1.2</ele>
        <time>2020-08-13T00:35:04Z</time>
      </trkpt>
      <trkpt lat="46.916507" lon="-2.072418">
        <ele>1.0</ele>
        <time>2020-08-13T00:35:07Z</time>
      </trkpt>
      <trkpt lat="46.91616" lon="-2.071511">
        <ele>1.2</ele>
        <time>2020-08-13T00:35:13Z</time>
      </trkpt>
      <trkpt lat="46.916082" lon="-2.071266">
        <ele>1.2</ele>
        <time>2020-08-13T00:35:14Z</time>
      </trkpt>
      <trkpt lat="46.916051" lon="-2.071088">
        <ele>1.2</ele>
        <time>2020-08-13T00:35:16Z</time>
      </trkpt>
      <trkpt lat="46.916022" lon="-2.070657">
        <ele>1.8</ele>
        <time>2020-08-13T00:35:18Z</time>
      </trkpt>
      <trkpt lat="46.916058" lon="-2.070274">
        <ele>1.8</ele>
        <time>2020-08-13T00:35:20Z</time>
      </trkpt>
      <trkpt lat="46.916367" lon="-2.067928">
        <ele>1.8</ele>
        <time>2020-08-13T00:35:34Z</time>
      </trkpt>
      <trkpt lat="46.916388" lon="-2.067665">
        <ele>1.8</ele>
        <time>2020-08-13T00:35:36Z</time>
      </trkpt>
      <trkpt lat="46.916385" lon="-2.067523">
        <ele>1.8</ele>
        <time>2020-08-13T00:35:36Z</time>
      </trkpt>
      <trkpt lat="46.916329" lon="-2.067194">
        <ele>1.6</ele>
        <time>2020-08-13T00:35:38Z</time>
      </trkpt>
      <trkpt lat="46.916253" lon="-2.066994">
        <ele>1.6</ele>
        <time>2020-08-13T00:35:40Z</time>
      </trkpt>
      <trkpt lat="46.915866" lon="-2.066223">
        <ele>1.2</ele>
        <time>2020-08-13T00:35:45Z</time>
      </trkpt>
      <trkpt lat="46.915771" lon="-2.065941">
        <ele>1.4</ele>
        <time>2020-08-13T00:35:47Z</time>
      </trkpt>
      <trkpt lat="46.91524" lon="-2.06415">
        <ele>1.2</ele>
        <time>2020-08-13T00:35:58Z</time>
      </trkpt>
      <trkpt lat="46.915185" lon="-2.06389">
        <ele>1.2</ele>
        <time>2020-08-13T00:36:00Z</time>
      </trkpt>
      <trkpt lat="46.915157" lon="-2.063668">
        <ele>1.2</ele>
        <time>2020-08-13T00:36:01Z</time>
      </trkpt>
      <trkpt lat="46.915159" lon="-2.063094">
        <ele>1.0</ele>
        <time>2020-08-13T00:36:05Z</time>
      </trkpt>
      <trkpt lat="46.915182" lon="-2.062822">
        <ele>1.0</ele>
        <time>2020-08-13T00:36:06Z</time>
      </trkpt>
      <trkpt lat="46.915408" lon="-2.061491">
        <ele>1.0</ele>
        <time>2020-08-13T00:36:14Z</time>
      </trkpt>
      <trkpt lat="46.915474" lon="-2.06092">
        <ele>1.0</ele>
        <time>2020-08-13T00:36:18Z</time>
      </trkpt>
      <trkpt lat="46.91552" lon="-2.059221">
        <ele>1.0</ele>
        <time>2020-08-13T00:36:27Z</time>
      </trkpt>
      <trkpt lat="46.915811" lon="-2.054844">
        <ele>1.8</ele>
        <time>2020-08-13T00:36:53Z</time>
      </trkpt>
      <trkpt lat="46.915805" lon="-2.054702">
        <ele>1.8</ele>
        <time>2020-08-13T00:36:54Z</time>
      </trkpt>
      <trkpt lat="46.915741" lon="-2.054425">
        <ele>1.8</ele>
        <time>2020-08-13T00:36:55Z</time>
      </trkpt>
      <trkpt lat="46.915422" lon="-2.05369">
        <ele>1.6</ele>
        <time>2020-08-13T00:37:00Z</time>
      </trkpt>
      <trkpt lat="46.91517" lon="-2.053049">
        <ele>1.2</ele>
        <time>2020-08-13T00:37:05Z</time>
      </trkpt>
      <trkpt lat="46.915123" lon="-2.052841">
        <ele>1.2</ele>
        <time>2020-08-13T00:37:06Z</time>
      </trkpt>
      <trkpt lat="46.915073" lon="-2.052452">
        <ele>0.8</ele>
        <time>2020-08-13T00:37:08Z</time>
      </trkpt>
      <trkpt lat="46.915065" lon="-2.052066">
        <ele>0.8</ele>
        <time>2020-08-13T00:37:10Z</time>
      </trkpt>
      <trkpt lat="46.915083" lon="-2.051818">
        <ele>0.8</ele>
        <time>2020-08-13T00:37:12Z</time>
      </trkpt>
      <trkpt lat="46.915693" lon="-2.047704">
        <ele>3.0</ele>
        <time>2020-08-13T00:37:36Z</time>
      </trkpt>
      <trkpt lat="46.915697" lon="-2.047555">
        <ele>3.0</ele>
        <time>2020-08-13T00:37:37Z</time>
      </trkpt>
      <trkpt lat="46.915679" lon="-2.047424">
        <ele>3.4</ele>
        <time>2020-08-13T00:37:38Z</time>
      </trkpt>
      <trkpt lat="46.915487" lon="-2.046769">
        <ele>3.4</ele>
        <time>2020-08-13T00:37:42Z</time>
      </trkpt>
      <trkpt lat="46.915417" lon="-2.04662">
        <ele>4.0</ele>
        <time>2020-08-13T00:37:43Z</time>
      </trkpt>
      <trkpt lat="46.915401" lon="-2.046552">
        <ele>4.0</ele>
        <time>2020-08-13T00:37:44Z</time>
      </trkpt>
      <trkpt lat="46.915406" lon="-2.046515">
        <ele>4.0</ele>
        <time>2020-08-13T00:37:44Z</time>
      </trkpt>
      <trkpt lat="46.915444" lon="-2.046461">
        <ele>4.0</ele>
        <time>2020-08-13T00:37:45Z</time>
      </trkpt>
      <trkpt lat="46.915504" lon="-2.046276">
        <ele>4.0</ele>
        <time>2020-08-13T00:37:46Z</time>
      </trkpt>
      <trkpt lat="46.915573" lon="-2.045918">
        <ele>4.0</ele>
        <time>2020-08-13T00:37:49Z</time>
      </trkpt>
      <trkpt lat="46.915743" lon="-2.045194">
        <ele>4.6</ele>
        <time>2020-08-13T00:37:54Z</time>
      </trkpt>
      <trkpt lat="46.915766" lon="-2.044951">
        <ele>6.0</ele>
        <time>2020-08-13T00:37:56Z</time>
      </trkpt>
      <trkpt lat="46.915789" lon="-2.044159">
        <ele>6.8</ele>
        <time>2020-08-13T00:38:01Z</time>
      </trkpt>
      <trkpt lat="46.915672" lon="-2.04386">
        <ele>6.8</ele>
        <time>2020-08-13T00:38:04Z</time>
      </trkpt>
      <trkpt lat="46.915683" lon="-2.043768">
        <ele>6.8</ele>
        <time>2020-08-13T00:38:04Z</time>
      </trkpt>
      <trkpt lat="46.915904" lon="-2.043438">
        <ele>6.6</ele>
        <time>2020-08-13T00:38:07Z</time>
      </trkpt>
      <trkpt lat="46.915898" lon="-2.043369">
        <ele>6.6</ele>
        <time>2020-08-13T00:38:08Z</time>
      </trkpt>
      <trkpt lat="46.915636" lon="-2.042845">
        <ele>7.2</ele>
        <time>2020-08-13T00:38:13Z</time>
      </trkpt>
      <trkpt lat="46.915752" lon="-2.042723">
        <ele>7.2</ele>
        <time>2020-08-13T00:38:15Z</time>
      </trkpt>
      <trkpt lat="46.915821" lon="-2.042677">
        <ele>7.2</ele>
        <time>2020-08-13T00:38:17Z</time>
      </trkpt>
      <trkpt lat="46.915896" lon="-2.042693">
        <ele>6.8</ele>
        <time>2020-08-13T00:38:18Z</time>
      </trkpt>
      <trkpt lat="46.916327" lon="-2.04258">
        <ele>6.8</ele>
        <time>2020-08-13T00:38:26Z</time>
      </trkpt>
      <trkpt lat="46.916374" lon="-2.042541">
        <ele>6.8</ele>
        <time>2020-08-13T00:38:27Z</time>
      </trkpt>
      <trkpt lat="46.916439" lon="-2.042314">
        <ele>6.6</ele>
        <time>2020-08-13T00:38:30Z</time>
      </trkpt>
      <trkpt lat="46.916642" lon="-2.04243">
        <ele>6.6</ele>
        <time>2020-08-13T00:38:32Z</time>
      </trkpt>
      <trkpt lat="46.916836" lon="-2.042578">
        <ele>5.2</ele>
        <time>2020-08-13T00:38:35Z</time>
      </trkpt>
      <trkpt lat="46.917267" lon="-2.043183">
        <ele>5.2</ele>
        <time>2020-08-13T00:38:41Z</time>
      </trkpt>
      <trkpt lat="46.917403" lon="-2.043359">
        <ele>5.2</ele>
        <time>2020-08-13T00:38:43Z</time>
      </trkpt>
      <trkpt lat="46.917581" lon="-2.043539">
        <ele>4.2</ele>
        <time>2020-08-13T00:38:45Z</time>
      </trkpt>
      <trkpt lat="46.918" lon="-2.043845">
        <ele>4.2</ele>
        <time>2020-08-13T00:38:50Z</time>
      </trkpt>
      <trkpt lat="46.918445" lon="-2.044089">
        <ele>3.8</ele>
        <time>2020-08-13T00:38:54Z</time>
      </trkpt>
      <trkpt lat="46.91849" lon="-2.044037">
        <ele>3.8</ele>
        <time>2020-08-13T00:38:55Z</time>
      </trkpt>
      <trkpt lat="46.918547" lon="-2.044047">
        <ele>3.8</ele>
        <time>2020-08-13T00:38:55Z</time>
      </trkpt>
      <trkpt lat="46.918569" lon="-2.044075">
        <ele>3.8</ele>
        <time>2020-08-13T00:38:55Z</time>
      </trkpt>
      <trkpt lat="46.918736" lon="-2.043867">
        <ele>3.8</ele>
        <time>2020-08-13T00:38:57Z</time>
      </trkpt>
      <trkpt lat="46.91897" lon="-2.043619">
        <ele>3.8</ele>
        <time>2020-08-13T00:38:58Z</time>
      </trkpt>
      <trkpt lat="46.919979" lon="-2.042829">
        <ele>3.8</ele>
        <time>2020-08-13T00:39:05Z</time>
      </trkpt>
      <trkpt lat="46.920438" lon="-2.042546">
        <ele>4.0</ele>
        <time>2020-08-13T00:39:09Z</time>
      </trkpt>
      <trkpt lat="46.922548" lon="-2.041569">
        <ele>3.2</ele>
        <time>2020-08-13T00:39:22Z</time>
      </trkpt>
      <trkpt lat="46.924799" lon="-2.040562">
        <ele>2.4</ele>
        <time>2020-08-13T00:39:37Z</time>
      </trkpt>
      <trkpt lat="46.925072" lon="-2.040508">
        <ele>2.6</ele>
        <time>2020-08-13T00:39:38Z</time>
      </trkpt>
      <trkpt lat="46.925337" lon="-2.040531">
        <ele>2.6</ele>
        <time>2020-08-13T00:39:40Z</time>
      </trkpt>
      <trkpt lat="46.92657" lon="-2.040846">
        <ele>2.0</ele>
        <time>2020-08-13T00:39:48Z</time>
      </trkpt>
      <trkpt lat="46.926737" lon="-2.04087">
        <ele>1.4</ele>
        <time>2020-08-13T00:39:49Z</time>
      </trkpt>
      <trkpt lat="46.92689" lon="-2.040862">
        <ele>1.4</ele>
        <time>2020-08-13T00:39:50Z</time>
      </trkpt>
      <trkpt lat="46.927042" lon="-2.04082">
        <ele>1.6</ele>
        <time>2020-08-13T00:39:51Z</time>
      </trkpt>
      <trkpt lat="46.927342" lon="-2.040636">
        <ele>1.6</ele>
        <time>2020-08-13T00:39:53Z</time>
      </trkpt>
      <trkpt lat="46.934973" lon="-2.034669">
        <ele>1.6</ele>
        <time>2020-08-13T00:40:46Z</time>
      </trkpt>
      <trkpt lat="46.950494" lon="-2.022476">
        <ele>1.2</ele>
        <time>2020-08-13T00:42:34Z</time>
      </trkpt>
      <trkpt lat="46.950696" lon="-2.02226">
        <ele>1.2</ele>
        <time>2020-08-13T00:42:35Z</time>
      </trkpt>
      <trkpt lat="46.950905" lon="-2.022">
        <ele>0.8</ele>
        <time>2020-08-13T00:42:37Z</time>
      </trkpt>
      <trkpt lat="46.951152" lon="-2.021621">
        <ele>1.4</ele>
        <time>2020-08-13T00:42:39Z</time>
      </trkpt>
      <trkpt lat="46.952913" lon="-2.018017">
        <ele>1.2</ele>
        <time>2020-08-13T00:42:58Z</time>
      </trkpt>
      <trkpt lat="46.953574" lon="-2.016697">
        <ele>1.0</ele>
        <time>2020-08-13T00:43:05Z</time>
      </trkpt>
      <trkpt lat="46.953756" lon="-2.016433">
        <ele>1.2</ele>
        <time>2020-08-13T00:43:06Z</time>
      </trkpt>
      <trkpt lat="46.953955" lon="-2.016199">
        <ele>1.2</ele>
        <time>2020-08-13T00:43:08Z</time>
      </trkpt>
      <trkpt lat="46.954334" lon="-2.015893">
        <ele>1.0</ele>
        <time>2020-08-13T00:43:10Z</time>
      </trkpt>
      <trkpt lat="46.955256" lon="-2.015498">
        <ele>1.8</ele>
        <time>2020-08-13T00:43:16Z</time>
      </trkpt>
      <trkpt lat="46.957078" lon="-2.014757">
        <ele>2.2</ele>
        <time>2020-08-13T00:43:28Z</time>
      </trkpt>
      <trkpt lat="46.957245" lon="-2.014652">
        <ele>2.2</ele>
        <time>2020-08-13T00:43:29Z</time>
      </trkpt>
      <trkpt lat="46.957371" lon="-2.014526">
        <ele>2.2</ele>
        <time>2020-08-13T00:43:30Z</time>
      </trkpt>
      <trkpt lat="46.957493" lon="-2.014335">
        <ele>2.2</ele>
        <time>2020-08-13T00:43:31Z</time>
      </trkpt>
      <trkpt lat="46.957586" lon="-2.014123">
        <ele>1.6</ele>
        <time>2020-08-13T00:43:32Z</time>
      </trkpt>
      <trkpt lat="46.958059" lon="-2.012653">
        <ele>1.4</ele>
        <time>2020-08-13T00:43:39Z</time>
      </trkpt>
      <trkpt lat="46.959167" lon="-2.009323">
        <ele>1.0</ele>
        <time>2020-08-13T00:43:55Z</time>
      </trkpt>
      <trkpt lat="46.959287" lon="-2.009078">
        <ele>0.6</ele>
        <time>2020-08-13T00:43:56Z</time>
      </trkpt>
      <trkpt lat="46.9596" lon="-2.008543">
        <ele>0.6</ele>
        <time>2020-08-13T00:43:59Z</time>
      </trkpt>
      <trkpt lat="46.960125" lon="-2.007867">
        <ele>0.4</ele>
        <time>2020-08-13T00:44:03Z</time>
      </trkpt>
      <trkpt lat="46.960329" lon="-2.007666">
        <ele>0.4</ele>
        <time>2020-08-13T00:44:05Z</time>
      </trkpt>
      <trkpt lat="46.961018" lon="-2.007086">
        <ele>0.2</ele>
        <time>2020-08-13T00:44:09Z</time>
      </trkpt>
      <trkpt lat="46.963565" lon="-2.004957">
        <ele>0.4</ele>
        <time>2020-08-13T00:44:27Z</time>
      </trkpt>
      <trkpt lat="46.96376" lon="-2.004824">
        <ele>0.4</ele>
        <time>2020-08-13T00:44:29Z</time>
      </trkpt>
      <trkpt lat="46.963965" lon="-2.004723">
        <ele>0.4</ele>
        <time>2020-08-13T00:44:30Z</time>
      </trkpt>
      <trkpt lat="46.96419" lon="-2.004673">
        <ele>0.4</ele>
        <time>2020-08-13T00:44:32Z</time>
      </trkpt>
      <trkpt lat="46.965412" lon="-2.004648">
        <ele>1.0</ele>
        <time>2020-08-13T00:44:39Z</time>
      </trkpt>
      <trkpt lat="46.965693" lon="-2.004576">
        <ele>1.0</ele>
        <time>2020-08-13T00:44:41Z</time>
      </trkpt>
      <trkpt lat="46.966131" lon="-2.004317">
        <ele>1.6</ele>
        <time>2020-08-13T00:44:44Z</time>
      </trkpt>
      <trkpt lat="46.968765" lon="-2.002498">
        <ele>1.0</ele>
        <time>2020-08-13T00:45:02Z</time>
      </trkpt>
      <trkpt lat="46.970014" lon="-2.001623">
        <ele>2.4</ele>
        <time>2020-08-13T00:45:10Z</time>
      </trkpt>
      <trkpt lat="46.970142" lon="-2.001466">
        <ele>2.4</ele>
        <time>2020-08-13T00:45:11Z</time>
      </trkpt>
      <trkpt lat="46.970339" lon="-2.001162">
        <ele>2.4</ele>
        <time>2020-08-13T00:45:13Z</time>
      </trkpt>
      <trkpt lat="46.970704" lon="-2.000478">
        <ele>1.4</ele>
        <time>2020-08-13T00:45:16Z</time>
      </trkpt>
      <trkpt lat="46.972117" lon="-1.997733">
        <ele>2.0</ele>
        <time>2020-08-13T00:45:31Z</time>
      </trkpt>
      <trkpt lat="46.97279" lon="-1.996924">
        <ele>2.8</ele>
        <time>2020-08-13T00:45:36Z</time>
      </trkpt>
      <trkpt lat="46.972999" lon="-1.996706">
        <ele>2.8</ele>
        <time>2020-08-13T00:45:38Z</time>
      </trkpt>
      <trkpt lat="46.973443" lon="-1.996141">
        <ele>3.8</ele>
        <time>2020-08-13T00:45:41Z</time>
      </trkpt>
      <trkpt lat="46.97373" lon="-1.995825">
        <ele>3.2</ele>
        <time>2020-08-13T00:45:44Z</time>
      </trkpt>
      <trkpt lat="46.974751" lon="-1.994053">
        <ele>3.6</ele>
        <time>2020-08-13T00:45:53Z</time>
      </trkpt>
      <trkpt lat="46.974945" lon="-1.993759">
        <ele>3.6</ele>
        <time>2020-08-13T00:45:55Z</time>
      </trkpt>
      <trkpt lat="46.97526" lon="-1.993207">
        <ele>2.8</ele>
        <time>2020-08-13T00:45:58Z</time>
      </trkpt>
      <trkpt lat="46.976371" lon="-1.990867">
        <ele>2.0</ele>
        <time>2020-08-13T00:46:10Z</time>
      </trkpt>
      <trkpt lat="46.976517" lon="-1.990644">
        <ele>2.2</ele>
        <time>2020-08-13T00:46:11Z</time>
      </trkpt>
      <trkpt lat="46.976516" lon="-1.990551">
        <ele>2.2</ele>
        <time>2020-08-13T00:46:12Z</time>
      </trkpt>
      <trkpt lat="46.976578" lon="-1.990536">
        <ele>2.2</ele>
        <time>2020-08-13T00:46:13Z</time>
      </trkpt>
      <trkpt lat="46.976624" lon="-1.990376">
        <ele>2.2</ele>
        <time>2020-08-13T00:46:14Z</time>
      </trkpt>
      <trkpt lat="46.976876" lon="-1.989859">
        <ele>1.4</ele>
        <time>2020-08-13T00:46:18Z</time>
      </trkpt>
      <trkpt lat="46.977092" lon="-1.989447">
        <ele>1.4</ele>
        <time>2020-08-13T00:46:22Z</time>
      </trkpt>
      <trkpt lat="46.977297" lon="-1.989105">
        <ele>1.4</ele>
        <time>2020-08-13T00:46:25Z</time>
      </trkpt>
      <trkpt lat="46.977297" lon="-1.989068">
        <ele>1.4</ele>
        <time>2020-08-13T00:46:25Z</time>
      </trkpt>
      <trkpt lat="46.977336" lon="-1.988993">
        <ele>1.4</ele>
        <time>2020-08-13T00:46:26Z</time>
      </trkpt>
      <trkpt lat="46.97736" lon="-1.98889">
        <ele>1.4</ele>
        <time>2020-08-13T00:46:27Z</time>
      </trkpt>
      <trkpt lat="46.977367" lon="-1.988736">
        <ele>1.4</ele>
        <time>2020-08-13T00:46:28Z</time>
      </trkpt>
      <trkpt lat="46.977386" lon="-1.988607">
        <ele>1.4</ele>
        <time>2020-08-13T00:46:29Z</time>
      </trkpt>
      <trkpt lat="46.977423" lon="-1.988536">
        <ele>1.4</ele>
        <time>2020-08-13T00:46:30Z</time>
      </trkpt>
      <trkpt lat="46.977529" lon="-1.988474">
        <ele>1.4</ele>
        <time>2020-08-13T00:46:31Z</time>
      </trkpt>
      <trkpt lat="46.977594" lon="-1.988489">
        <ele>1.4</ele>
        <time>2020-08-13T00:46:31Z</time>
      </trkpt>
      <trkpt lat="46.97769" lon="-1.988473">
        <ele>1.4</ele>
        <time>2020-08-13T00:46:32Z</time>
      </trkpt>
      <trkpt lat="46.97782" lon="-1.98839">
        <ele>1.4</ele>
        <time>2020-08-13T00:46:34Z</time>
      </trkpt>
      <trkpt lat="46.980571" lon="-1.984691">
        <ele>1.4</ele>
        <time>2020-08-13T00:46:54Z</time>
      </trkpt>
      <trkpt lat="46.980794" lon="-1.98447">
        <ele>1.4</ele>
        <time>2020-08-13T00:46:56Z</time>
      </trkpt>
      <trkpt lat="46.980938" lon="-1.984349">
        <ele>1.6</ele>
        <time>2020-08-13T00:46:56Z</time>
      </trkpt>
      <trkpt lat="46.981241" lon="-1.984195">
        <ele>1.6</ele>
        <time>2020-08-13T00:46:58Z</time>
      </trkpt>
      <trkpt lat="46.984354" lon="-1.982812">
        <ele>0.6</ele>
        <time>2020-08-13T00:47:16Z</time>
      </trkpt>
      <trkpt lat="46.984594" lon="-1.982679">
        <ele>0.6</ele>
        <time>2020-08-13T00:47:17Z</time>
      </trkpt>
      <trkpt lat="46.984832" lon="-1.982502">
        <ele>0.6</ele>
        <time>2020-08-13T00:47:19Z</time>
      </trkpt>
      <trkpt lat="46.985223" lon="-1.982098">
        <ele>1.6</ele>
        <time>2020-08-13T00:47:21Z</time>
      </trkpt>
      <trkpt lat="46.985867" lon="-1.981236">
        <ele>1.0</ele>
        <time>2020-08-13T00:47:26Z</time>
      </trkpt>
      <trkpt lat="46.990724" lon="-1.974547">
        <ele>0.6</ele>
        <time>2020-08-13T00:48:02Z</time>
      </trkpt>
      <trkpt lat="46.991768" lon="-1.973083">
        <ele>0.6</ele>
        <time>2020-08-13T00:48:10Z</time>
      </trkpt>
      <trkpt lat="46.991933" lon="-1.972804">
        <ele>0.6</ele>
        <time>2020-08-13T00:48:11Z</time>
      </trkpt>
      <trkpt lat="46.992073" lon="-1.972516">
        <ele>0.6</ele>
        <time>2020-08-13T00:48:12Z</time>
      </trkpt>
      <trkpt lat="46.993379" lon="-1.96914">
        <ele>1.6</ele>
        <time>2020-08-13T00:48:27Z</time>
      </trkpt>
      <trkpt lat="46.993498" lon="-1.968907">
        <ele>1.6</ele>
        <time>2020-08-13T00:48:28Z</time>
      </trkpt>
      <trkpt lat="46.99363" lon="-1.968742">
        <ele>1.6</ele>
        <time>2020-08-13T00:48:29Z</time>
      </trkpt>
      <trkpt lat="46.993783" lon="-1.968619">
        <ele>1.6</ele>
        <time>2020-08-13T00:48:30Z</time>
      </trkpt>
      <trkpt lat="46.998534" lon="-1.966156">
        <ele>0.4</ele>
        <time>2020-08-13T00:48:57Z</time>
      </trkpt>
      <trkpt lat="46.998938" lon="-1.965835">
        <ele>0.4</ele>
        <time>2020-08-13T00:48:59Z</time>
      </trkpt>
      <trkpt lat="47.000715" lon="-1.964231">
        <ele>1.0</ele>
        <time>2020-08-13T00:49:11Z</time>
      </trkpt>
      <trkpt lat="47.000988" lon="-1.964037">
        <ele>0.6</ele>
        <time>2020-08-13T00:49:12Z</time>
      </trkpt>
      <trkpt lat="47.001262" lon="-1.963922">
        <ele>0.6</ele>
        <time>2020-08-13T00:49:14Z</time>
      </trkpt>
      <trkpt lat="47.00379" lon="-1.963097">
        <ele>0.4</ele>
        <time>2020-08-13T00:49:28Z</time>
      </trkpt>
      <trkpt lat="47.00415" lon="-1.962997">
        <ele>0.4</ele>
        <time>2020-08-13T00:49:30Z</time>
      </trkpt>
      <trkpt lat="47.006216" lon="-1.962562">
        <ele>-0.2</ele>
        <time>2020-08-13T00:49:41Z</time>
      </trkpt>
      <trkpt lat="47.012277" lon="-1.96083">
        <ele>0.2</ele>
        <time>2020-08-13T00:50:14Z</time>
      </trkpt>
      <trkpt lat="47.012533" lon="-1.960713">
        <ele>-0.2</ele>
        <time>2020-08-13T00:50:16Z</time>
      </trkpt>
      <trkpt lat="47.012766" lon="-1.960547">
        <ele>-0.2</ele>
        <time>2020-08-13T00:50:17Z</time>
      </trkpt>
      <trkpt lat="47.012943" lon="-1.960359">
        <ele>-0.2</ele>
        <time>2020-08-13T00:50:18Z</time>
      </trkpt>
      <trkpt lat="47.013083" lon="-1.960166">
        <ele>-0.2</ele>
        <time>2020-08-13T00:50:19Z</time>
      </trkpt>
      <trkpt lat="47.013214" lon="-1.95992">
        <ele>0.0</ele>
        <time>2020-08-13T00:50:21Z</time>
      </trkpt>
      <trkpt lat="47.01401" lon="-1.958297">
        <ele>-0.2</ele>
        <time>2020-08-13T00:50:28Z</time>
      </trkpt>
      <trkpt lat="47.014229" lon="-1.958009">
        <ele>0.2</ele>
        <time>2020-08-13T00:50:30Z</time>
      </trkpt>
      <trkpt lat="47.014479" lon="-1.957843">
        <ele>0.2</ele>
        <time>2020-08-13T00:50:31Z</time>
      </trkpt>
      <trkpt lat="47.014674" lon="-1.95779">
        <ele>0.2</ele>
        <time>2020-08-13T00:50:32Z</time>
      </trkpt>
      <trkpt lat="47.014759" lon="-1.957789">
        <ele>0.2</ele>
        <time>2020-08-13T00:50:33Z</time>
      </trkpt>
      <trkpt lat="47.01502" lon="-1.957856">
        <ele>0.4</ele>
        <time>2020-08-13T00:50:34Z</time>
      </trkpt>
      <trkpt lat="47.029368" lon="-1.963255">
        <ele>1.8</ele>
        <time>2020-08-13T00:51:54Z</time>
      </trkpt>
      <trkpt lat="47.030019" lon="-1.96345">
        <ele>1.4</ele>
        <time>2020-08-13T00:51:58Z</time>
      </trkpt>
      <trkpt lat="47.030557" lon="-1.963539">
        <ele>1.4</ele>
        <time>2020-08-13T00:52:01Z</time>
      </trkpt>
      <trkpt lat="47.031265" lon="-1.963552">
        <ele>1.0</ele>
        <time>2020-08-13T00:52:04Z</time>
      </trkpt>
      <trkpt lat="47.031856" lon="-1.963489">
        <ele>0.4</ele>
        <time>2020-08-13T00:52:08Z</time>
      </trkpt>
      <trkpt lat="47.032295" lon="-1.963374">
        <ele>0.4</ele>
        <time>2020-08-13T00:52:10Z</time>
      </trkpt>
      <trkpt lat="47.032802" lon="-1.963206">
        <ele>0.2</ele>
        <time>2020-08-13T00:52:13Z</time>
      </trkpt>
      <trkpt lat="47.033263" lon="-1.962994">
        <ele>0.2</ele>
        <time>2020-08-13T00:52:15Z</time>
      </trkpt>
      <trkpt lat="47.036072" lon="-1.961458">
        <ele>0.6</ele>
        <time>2020-08-13T00:52:32Z</time>
      </trkpt>
      <trkpt lat="47.03684" lon="-1.960992">
        <ele>0.2</ele>
        <time>2020-08-13T00:52:36Z</time>
      </trkpt>
      <trkpt lat="47.03703" lon="-1.96085">
        <ele>0.2</ele>
        <time>2020-08-13T00:52:37Z</time>
      </trkpt>
      <trkpt lat="47.037468" lon="-1.960475">
        <ele>1.0</ele>
        <time>2020-08-13T00:52:40Z</time>
      </trkpt>
      <trkpt lat="47.038055" lon="-1.959862">
        <ele>0.6</ele>
        <time>2020-08-13T00:52:44Z</time>
      </trkpt>
      <trkpt lat="47.038315" lon="-1.959553">
        <ele>0.6</ele>
        <time>2020-08-13T00:52:46Z</time>
      </trkpt>
      <trkpt lat="47.039387" lon="-1.958161">
        <ele>0.2</ele>
        <time>2020-08-13T00:52:53Z</time>
      </trkpt>
      <trkpt lat="47.039522" lon="-1.957914">
        <ele>0.2</ele>
        <time>2020-08-13T00:52:55Z</time>
      </trkpt>
      <trkpt lat="47.039547" lon="-1.957675">
        <ele>0.2</ele>
        <time>2020-08-13T00:52:56Z</time>
      </trkpt>
      <trkpt lat="47.039521" lon="-1.957534">
        <ele>0.2</ele>
        <time>2020-08-13T00:52:56Z</time>
      </trkpt>
      <trkpt lat="47.03952" lon="-1.957387">
        <ele>-0.2</ele>
        <time>2020-08-13T00:52:57Z</time>
      </trkpt>
      <trkpt lat="47.039545" lon="-1.957245">
        <ele>-0.2</ele>
        <time>2020-08-13T00:52:57Z</time>
      </trkpt>
      <trkpt lat="47.039594" lon="-1.957117">
        <ele>-0.2</ele>
        <time>2020-08-13T00:52:58Z</time>
      </trkpt>
      <trkpt lat="47.039663" lon="-1.957012">
        <ele>-0.2</ele>
        <time>2020-08-13T00:52:59Z</time>
      </trkpt>
      <trkpt lat="47.039748" lon="-1.956936">
        <ele>-0.2</ele>
        <time>2020-08-13T00:52:59Z</time>
      </trkpt>
      <trkpt lat="47.039844" lon="-1.956895">
        <ele>-0.2</ele>
        <time>2020-08-13T00:53:00Z</time>
      </trkpt>
      <trkpt lat="47.039933" lon="-1.95689">
        <ele>-0.2</ele>
        <time>2020-08-13T00:53:01Z</time>
      </trkpt>
      <trkpt lat="47.040019" lon="-1.956915">
        <ele>0.8</ele>
        <time>2020-08-13T00:53:01Z</time>
      </trkpt>
      <trkpt lat="47.0401" lon="-1.956967">
        <ele>0.8</ele>
        <time>2020-08-13T00:53:02Z</time>
      </trkpt>
      <trkpt lat="47.040181" lon="-1.95706">
        <ele>0.8</ele>
        <time>2020-08-13T00:53:02Z</time>
      </trkpt>
      <trkpt lat="47.040242" lon="-1.957181">
        <ele>0.8</ele>
        <time>2020-08-13T00:53:03Z</time>
      </trkpt>
      <trkpt lat="47.040272" lon="-1.957282">
        <ele>0.8</ele>
        <time>2020-08-13T00:53:03Z</time>
      </trkpt>
      <trkpt lat="47.040469" lon="-1.957342">
        <ele>0.8</ele>
        <time>2020-08-13T00:53:05Z</time>
      </trkpt>
      <trkpt lat="47.040745" lon="-1.95729">
        <ele>0.8</ele>
        <time>2020-08-13T00:53:07Z</time>
      </trkpt>
      <trkpt lat="47.041983" lon="-1.956854">
        <ele>1.4</ele>
        <time>2020-08-13T00:53:15Z</time>
      </trkpt>
      <trkpt lat="47.042729" lon="-1.956684">
        <ele>1.6</ele>
        <time>2020-08-13T00:53:19Z</time>
      </trkpt>
      <trkpt lat="47.043402" lon="-1.956622">
        <ele>3.4</ele>
        <time>2020-08-13T00:53:24Z</time>
      </trkpt>
      <trkpt lat="47.043843" lon="-1.956627">
        <ele>3.4</ele>
        <time>2020-08-13T00:53:27Z</time>
      </trkpt>
      <trkpt lat="47.044242" lon="-1.956667">
        <ele>3.0</ele>
        <time>2020-08-13T00:53:29Z</time>
      </trkpt>
      <trkpt lat="47.044918" lon="-1.956802">
        <ele>3.0</ele>
        <time>2020-08-13T00:53:33Z</time>
      </trkpt>
      <trkpt lat="47.045588" lon="-1.95703">
        <ele>3.4</ele>
        <time>2020-08-13T00:53:38Z</time>
      </trkpt>
      <trkpt lat="47.046306" lon="-1.957383">
        <ele>4.6</ele>
        <time>2020-08-13T00:53:43Z</time>
      </trkpt>
      <trkpt lat="47.04684" lon="-1.957712">
        <ele>6.0</ele>
        <time>2020-08-13T00:53:46Z</time>
      </trkpt>
      <trkpt lat="47.047395" lon="-1.958117">
        <ele>6.0</ele>
        <time>2020-08-13T00:53:50Z</time>
      </trkpt>
      <trkpt lat="47.047684" lon="-1.958399">
        <ele>8.4</ele>
        <time>2020-08-13T00:53:53Z</time>
      </trkpt>
      <trkpt lat="47.047784" lon="-1.958359">
        <ele>8.4</ele>
        <time>2020-08-13T00:53:54Z</time>
      </trkpt>
      <trkpt lat="47.047882" lon="-1.958406">
        <ele>8.4</ele>
        <time>2020-08-13T00:53:55Z</time>
      </trkpt>
      <trkpt lat="47.047913" lon="-1.958447">
        <ele>8.4</ele>
        <time>2020-08-13T00:53:55Z</time>
      </trkpt>
      <trkpt lat="47.047952" lon="-1.958554">
        <ele>8.4</ele>
        <time>2020-08-13T00:53:56Z</time>
      </trkpt>
      <trkpt lat="47.047957" lon="-1.958615">
        <ele>8.4</ele>
        <time>2020-08-13T00:53:56Z</time>
      </trkpt>
      <trkpt lat="47.048064" lon="-1.958746">
        <ele>8.4</ele>
        <time>2020-08-13T00:53:58Z</time>
      </trkpt>
      <trkpt lat="47.048291" lon="-1.958959">
        <ele>8.4</ele>
        <time>2020-08-13T00:54:01Z</time>
      </trkpt>
      <trkpt lat="47.048893" lon="-1.959816">
        <ele>10.8</ele>
        <time>2020-08-13T00:54:09Z</time>
      </trkpt>
      <trkpt lat="47.049165" lon="-1.960219">
        <ele>8.8</ele>
        <time>2020-08-13T00:54:13Z</time>
      </trkpt>
      <trkpt lat="47.050997" lon="-1.963266">
        <ele>9.8</ele>
        <time>2020-08-13T00:54:41Z</time>
      </trkpt>
      <trkpt lat="47.051033" lon="-1.963224">
        <ele>9.8</ele>
        <time>2020-08-13T00:54:42Z</time>
      </trkpt>
      <trkpt lat="47.051122" lon="-1.963191">
        <ele>9.8</ele>
        <time>2020-08-13T00:54:42Z</time>
      </trkpt>
      <trkpt lat="47.051214" lon="-1.963239">
        <ele>9.8</ele>
        <time>2020-08-13T00:54:43Z</time>
      </trkpt>
      <trkpt lat="47.051273" lon="-1.963365">
        <ele>9.0</ele>
        <time>2020-08-13T00:54:44Z</time>
      </trkpt>
      <trkpt lat="47.051279" lon="-1.963441">
        <ele>9.0</ele>
        <time>2020-08-13T00:54:44Z</time>
      </trkpt>
      <trkpt lat="47.051267" lon="-1.963524">
        <ele>9.0</ele>
        <time>2020-08-13T00:54:44Z</time>
      </trkpt>
      <trkpt lat="47.051235" lon="-1.963595">
        <ele>9.0</ele>
        <time>2020-08-13T00:54:45Z</time>
      </trkpt>
      <trkpt lat="47.051477" lon="-1.964278">
        <ele>7.8</ele>
        <time>2020-08-13T00:54:48Z</time>
      </trkpt>
      <trkpt lat="47.051642" lon="-1.964546">
        <ele>7.8</ele>
        <time>2020-08-13T00:54:49Z</time>
      </trkpt>
      <trkpt lat="47.052286" lon="-1.965443">
        <ele>6.8</ele>
        <time>2020-08-13T00:54:55Z</time>
      </trkpt>
      <trkpt lat="47.059085" lon="-1.97683">
        <ele>2.2</ele>
        <time>2020-08-13T00:55:59Z</time>
      </trkpt>
      <trkpt lat="47.059353" lon="-1.977256">
        <ele>3.2</ele>
        <time>2020-08-13T00:56:01Z</time>
      </trkpt>
      <trkpt lat="47.060169" lon="-1.978387">
        <ele>3.4</ele>
        <time>2020-08-13T00:56:08Z</time>
      </trkpt>
      <trkpt lat="47.06518" lon="-1.984361">
        <ele>14.0</ele>
        <time>2020-08-13T00:56:48Z</time>
      </trkpt>
      <trkpt lat="47.066616" lon="-1.986009">
        <ele>15.4</ele>
        <time>2020-08-13T00:57:00Z</time>
      </trkpt>
      <trkpt lat="47.068952" lon="-1.988779">
        <ele>23.0</ele>
        <time>2020-08-13T00:57:18Z</time>
      </trkpt>
      <trkpt lat="47.069455" lon="-1.989404">
        <ele>24.2</ele>
        <time>2020-08-13T00:57:22Z</time>
      </trkpt>
      <trkpt lat="47.069803" lon="-1.989918">
        <ele>24.2</ele>
        <time>2020-08-13T00:57:25Z</time>
      </trkpt>
      <trkpt lat="47.070076" lon="-1.990408">
        <ele>24.6</ele>
        <time>2020-08-13T00:57:28Z</time>
      </trkpt>
      <trkpt lat="47.070328" lon="-1.990915">
        <ele>25.0</ele>
        <time>2020-08-13T00:57:31Z</time>
      </trkpt>
      <trkpt lat="47.075354" lon="-2.001752">
        <ele>23.6</ele>
        <time>2020-08-13T00:58:26Z</time>
      </trkpt>
      <trkpt lat="47.075541" lon="-2.002198">
        <ele>23.6</ele>
        <time>2020-08-13T00:58:28Z</time>
      </trkpt>
      <trkpt lat="47.075673" lon="-2.002564">
        <ele>25.4</ele>
        <time>2020-08-13T00:58:30Z</time>
      </trkpt>
      <trkpt lat="47.075795" lon="-2.002982">
        <ele>25.4</ele>
        <time>2020-08-13T00:58:32Z</time>
      </trkpt>
      <trkpt lat="47.075898" lon="-2.003465">
        <ele>30.0</ele>
        <time>2020-08-13T00:58:34Z</time>
      </trkpt>
      <trkpt lat="47.0767" lon="-2.007765">
        <ele>34.0</ele>
        <time>2020-08-13T00:58:53Z</time>
      </trkpt>
      <trkpt lat="47.076796" lon="-2.008209">
        <ele>34.0</ele>
        <time>2020-08-13T00:58:55Z</time>
      </trkpt>
      <trkpt lat="47.076918" lon="-2.008676">
        <ele>32.6</ele>
        <time>2020-08-13T00:58:57Z</time>
      </trkpt>
      <trkpt lat="47.07715" lon="-2.009322">
        <ele>30.6</ele>
        <time>2020-08-13T00:59:00Z</time>
      </trkpt>
      <trkpt lat="47.078868" lon="-2.013518">
        <ele>25.0</ele>
        <time>2020-08-13T00:59:21Z</time>
      </trkpt>
      <trkpt lat="47.079381" lon="-2.014606">
        <ele>24.2</ele>
        <time>2020-08-13T00:59:26Z</time>
      </trkpt>
      <trkpt lat="47.079952" lon="-2.015629">
        <ele>23.8</ele>
        <time>2020-08-13T00:59:32Z</time>
      </trkpt>
      <trkpt lat="47.082953" lon="-2.020863">
        <ele>25.4</ele>
        <time>2020-08-13T01:00:01Z</time>
      </trkpt>
      <trkpt lat="47.083613" lon="-2.021969">
        <ele>29.0</ele>
        <time>2020-08-13T01:00:07Z</time>
      </trkpt>
      <trkpt lat="47.085575" lon="-2.02511">
        <ele>32.6</ele>
        <time>2020-08-13T01:00:25Z</time>
      </trkpt>
      <trkpt lat="47.08618" lon="-2.026111">
        <ele>32.2</ele>
        <time>2020-08-13T01:00:31Z</time>
      </trkpt>
      <trkpt lat="47.087147" lon="-2.027617">
        <ele>33.2</ele>
        <time>2020-08-13T01:00:40Z</time>
      </trkpt>
      <trkpt lat="47.0882" lon="-2.029351">
        <ele>35.0</ele>
        <time>2020-08-13T01:00:49Z</time>
      </trkpt>
      <trkpt lat="47.089272" lon="-2.031008">
        <ele>40.6</ele>
        <time>2020-08-13T01:00:59Z</time>
      </trkpt>
      <trkpt lat="47.089813" lon="-2.031799">
        <ele>40.6</ele>
        <time>2020-08-13T01:01:04Z</time>
      </trkpt>
      <trkpt lat="47.090252" lon="-2.032379">
        <ele>41.2</ele>
        <time>2020-08-13T01:01:07Z</time>
      </trkpt>
      <trkpt lat="47.09052" lon="-2.032692">
        <ele>41.6</ele>
        <time>2020-08-13T01:01:10Z</time>
      </trkpt>
      <trkpt lat="47.09099" lon="-2.033188">
        <ele>42.4</ele>
        <time>2020-08-13T01:01:13Z</time>
      </trkpt>
      <trkpt lat="47.091712" lon="-2.033847">
        <ele>41.6</ele>
        <time>2020-08-13T01:01:18Z</time>
      </trkpt>
      <trkpt lat="47.092085" lon="-2.034143">
        <ele>41.6</ele>
        <time>2020-08-13T01:01:21Z</time>
      </trkpt>
      <trkpt lat="47.092744" lon="-2.034582">
        <ele>39.6</ele>
        <time>2020-08-13T01:01:26Z</time>
      </trkpt>
      <trkpt lat="47.094689" lon="-2.035563">
        <ele>37.4</ele>
        <time>2020-08-13T01:01:38Z</time>
      </trkpt>
      <trkpt lat="47.097625" lon="-2.037003">
        <ele>32.0</ele>
        <time>2020-08-13T01:01:58Z</time>
      </trkpt>
      <trkpt lat="47.09841" lon="-2.037409">
        <ele>30.0</ele>
        <time>2020-08-13T01:02:03Z</time>
      </trkpt>
      <trkpt lat="47.098951" lon="-2.03774">
        <ele>30.0</ele>
        <time>2020-08-13T01:02:06Z</time>
      </trkpt>
      <trkpt lat="47.099279" lon="-2.037976">
        <ele>29.2</ele>
        <time>2020-08-13T01:02:09Z</time>
      </trkpt>
      <trkpt lat="47.099768" lon="-2.038369">
        <ele>29.8</ele>
        <time>2020-08-13T01:02:12Z</time>
      </trkpt>
      <trkpt lat="47.100609" lon="-2.039197">
        <ele>29.2</ele>
        <time>2020-08-13T01:02:18Z</time>
      </trkpt>
      <trkpt lat="47.101178" lon="-2.039879">
        <ele>28.6</ele>
        <time>2020-08-13T01:02:23Z</time>
      </trkpt>
      <trkpt lat="47.101606" lon="-2.040481">
        <ele>30.0</ele>
        <time>2020-08-13T01:02:27Z</time>
      </trkpt>
      <trkpt lat="47.102036" lon="-2.041181">
        <ele>31.8</ele>
        <time>2020-08-13T01:02:31Z</time>
      </trkpt>
      <trkpt lat="47.10242" lon="-2.041881">
        <ele>33.4</ele>
        <time>2020-08-13T01:02:34Z</time>
      </trkpt>
      <trkpt lat="47.102687" lon="-2.042433">
        <ele>31.0</ele>
        <time>2020-08-13T01:02:37Z</time>
      </trkpt>
      <trkpt lat="47.102912" lon="-2.042963">
        <ele>31.6</ele>
        <time>2020-08-13T01:02:40Z</time>
      </trkpt>
      <trkpt lat="47.103118" lon="-2.043499">
        <ele>32.8</ele>
        <time>2020-08-13T01:02:42Z</time>
      </trkpt>
      <trkpt lat="47.103374" lon="-2.04428">
        <ele>32.6</ele>
        <time>2020-08-13T01:02:46Z</time>
      </trkpt>
      <trkpt lat="47.103629" lon="-2.045185">
        <ele>33.8</ele>
        <time>2020-08-13T01:02:50Z</time>
      </trkpt>
      <trkpt lat="47.104243" lon="-2.047689">
        <ele>34.4</ele>
        <time>2020-08-13T01:03:01Z</time>
      </trkpt>
      <trkpt lat="47.104666" lon="-2.049494">
        <ele>29.8</ele>
        <time>2020-08-13T01:03:10Z</time>
      </trkpt>
      <trkpt lat="47.10487" lon="-2.050289">
        <ele>27.6</ele>
        <time>2020-08-13T01:03:13Z</time>
      </trkpt>
      <trkpt lat="47.109774" lon="-2.071001">
        <ele>30.0</ele>
        <time>2020-08-13T01:04:46Z</time>
      </trkpt>
      <trkpt lat="47.109988" lon="-2.07169">
        <ele>28.4</ele>
        <time>2020-08-13T01:04:49Z</time>
      </trkpt>
      <trkpt lat="47.110353" lon="-2.072761">
        <ele>26.0</ele>
        <time>2020-08-13T01:04:54Z</time>
      </trkpt>
      <trkpt lat="47.110786" lon="-2.073931">
        <ele>24.4</ele>
        <time>2020-08-13T01:05:00Z</time>
      </trkpt>
      <trkpt lat="47.111304" lon="-2.075051">
        <ele>22.2</ele>
        <time>2020-08-13T01:05:05Z</time>
      </trkpt>
      <trkpt lat="47.112055" lon="-2.076346">
        <ele>18.2</ele>
        <time>2020-08-13T01:05:13Z</time>
      </trkpt>
      <trkpt lat="47.11305" lon="-2.077737">
        <ele>17.0</ele>
        <time>2020-08-13T01:05:21Z</time>
      </trkpt>
      <trkpt lat="47.114797" lon="-2.080108">
        <ele>21.0</ele>
        <time>2020-08-13T01:05:36Z</time>
      </trkpt>
      <trkpt lat="47.115033" lon="-2.080468">
        <ele>19.2</ele>
        <time>2020-08-13T01:05:38Z</time>
      </trkpt>
      <trkpt lat="47.115574" lon="-2.081464">
        <ele>21.0</ele>
        <time>2020-08-13T01:05:43Z</time>
      </trkpt>
      <trkpt lat="47.116049" lon="-2.0824">
        <ele>17.6</ele>
        <time>2020-08-13T01:05:48Z</time>
      </trkpt>
      <trkpt lat="47.116361" lon="-2.08314">
        <ele>17.8</ele>
        <time>2020-08-13T01:05:52Z</time>
      </trkpt>
      <trkpt lat="47.116703" lon="-2.084047">
        <ele>10.6</ele>
        <time>2020-08-13T01:05:56Z</time>
      </trkpt>
      <trkpt lat="47.117008" lon="-2.084906">
        <ele>8.2</ele>
        <time>2020-08-13T01:06:00Z</time>
      </trkpt>
      <trkpt lat="47.117502" lon="-2.086401">
        <ele>3.6</ele>
        <time>2020-08-13T01:06:07Z</time>
      </trkpt>
      <trkpt lat="47.118322" lon="-2.088792">
        <ele>3.8</ele>
        <time>2020-08-13T01:06:19Z</time>
      </trkpt>
      <trkpt lat="47.119149" lon="-2.091099">
        <ele>10.0</ele>
        <time>2020-08-13T01:06:30Z</time>
      </trkpt>
      <trkpt lat="47.119633" lon="-2.092203">
        <ele>14.2</ele>
        <time>2020-08-13T01:06:35Z</time>
      </trkpt>
      <trkpt lat="47.120123" lon="-2.093186">
        <ele>18.2</ele>
        <time>2020-08-13T01:06:40Z</time>
      </trkpt>
      <trkpt lat="47.122121" lon="-2.097031">
        <ele>28.2</ele>
        <time>2020-08-13T01:07:01Z</time>
      </trkpt>
      <trkpt lat="47.122389" lon="-2.09759">
        <ele>27.4</ele>
        <time>2020-08-13T01:07:04Z</time>
      </trkpt>
      <trkpt lat="47.122814" lon="-2.098564">
        <ele>28.2</ele>
        <time>2020-08-13T01:07:09Z</time>
      </trkpt>
      <trkpt lat="47.123259" lon="-2.099809">
        <ele>30.4</ele>
        <time>2020-08-13T01:07:15Z</time>
      </trkpt>
      <trkpt lat="47.123495" lon="-2.10053">
        <ele>33.4</ele>
        <time>2020-08-13T01:07:18Z</time>
      </trkpt>
      <trkpt lat="47.123815" lon="-2.101707">
        <ele>35.8</ele>
        <time>2020-08-13T01:07:23Z</time>
      </trkpt>
      <trkpt lat="47.126314" lon="-2.111705">
        <ele>36.8</ele>
        <time>2020-08-13T01:08:08Z</time>
      </trkpt>
      <trkpt lat="47.127015" lon="-2.114435">
        <ele>37.6</ele>
        <time>2020-08-13T01:08:21Z</time>
      </trkpt>
      <trkpt lat="47.127159" lon="-2.114918">
        <ele>37.6</ele>
        <time>2020-08-13T01:08:23Z</time>
      </trkpt>
      <trkpt lat="47.127471" lon="-2.115691">
        <ele>36.8</ele>
        <time>2020-08-13T01:08:27Z</time>
      </trkpt>
      <trkpt lat="47.127805" lon="-2.116332">
        <ele>35.4</ele>
        <time>2020-08-13T01:08:30Z</time>
      </trkpt>
      <trkpt lat="47.128168" lon="-2.116888">
        <ele>36.2</ele>
        <time>2020-08-13T01:08:33Z</time>
      </trkpt>
      <trkpt lat="47.128443" lon="-2.117213">
        <ele>36.4</ele>
        <time>2020-08-13T01:08:35Z</time>
      </trkpt>
      <trkpt lat="47.128979" lon="-2.117753">
        <ele>37.2</ele>
        <time>2020-08-13T01:08:39Z</time>
      </trkpt>
      <trkpt lat="47.137634" lon="-2.12617">
        <ele>37.0</ele>
        <time>2020-08-13T01:09:44Z</time>
      </trkpt>
      <trkpt lat="47.142249" lon="-2.130697">
        <ele>34.8</ele>
        <time>2020-08-13T01:10:18Z</time>
      </trkpt>
      <trkpt lat="47.143014" lon="-2.131554">
        <ele>35.2</ele>
        <time>2020-08-13T01:10:24Z</time>
      </trkpt>
      <trkpt lat="47.144341" lon="-2.133105">
        <ele>31.2</ele>
        <time>2020-08-13T01:10:35Z</time>
      </trkpt>
      <trkpt lat="47.145574" lon="-2.134606">
        <ele>28.4</ele>
        <time>2020-08-13T01:10:45Z</time>
      </trkpt>
      <trkpt lat="47.146088" lon="-2.135162">
        <ele>28.2</ele>
        <time>2020-08-13T01:10:49Z</time>
      </trkpt>
      <trkpt lat="47.146608" lon="-2.135626">
        <ele>28.2</ele>
        <time>2020-08-13T01:10:52Z</time>
      </trkpt>
      <trkpt lat="47.147046" lon="-2.135939">
        <ele>28.6</ele>
        <time>2020-08-13T01:10:55Z</time>
      </trkpt>
      <trkpt lat="47.147489" lon="-2.136183">
        <ele>28.6</ele>
        <time>2020-08-13T01:10:58Z</time>
      </trkpt>
      <trkpt lat="47.147896" lon="-2.136363">
        <ele>29.4</ele>
        <time>2020-08-13T01:11:01Z</time>
      </trkpt>
      <trkpt lat="47.149869" lon="-2.137077">
        <ele>27.2</ele>
        <time>2020-08-13T01:11:14Z</time>
      </trkpt>
      <trkpt lat="47.150248" lon="-2.137232">
        <ele>26.4</ele>
        <time>2020-08-13T01:11:16Z</time>
      </trkpt>
      <trkpt lat="47.150964" lon="-2.137598">
        <ele>25.0</ele>
        <time>2020-08-13T01:11:21Z</time>
      </trkpt>
      <trkpt lat="47.151456" lon="-2.137952">
        <ele>25.0</ele>
        <time>2020-08-13T01:11:24Z</time>
      </trkpt>
      <trkpt lat="47.152186" lon="-2.13864">
        <ele>23.2</ele>
        <time>2020-08-13T01:11:30Z</time>
      </trkpt>
      <trkpt lat="47.15388" lon="-2.140462">
        <ele>22.0</ele>
        <time>2020-08-13T01:11:43Z</time>
      </trkpt>
      <trkpt lat="47.154245" lon="-2.140834">
        <ele>23.4</ele>
        <time>2020-08-13T01:11:45Z</time>
      </trkpt>
      <trkpt lat="47.15455" lon="-2.141094">
        <ele>23.4</ele>
        <time>2020-08-13T01:11:48Z</time>
      </trkpt>
      <trkpt lat="47.154845" lon="-2.141307">
        <ele>23.4</ele>
        <time>2020-08-13T01:11:50Z</time>
      </trkpt>
      <trkpt lat="47.155505" lon="-2.141728">
        <ele>25.6</ele>
        <time>2020-08-13T01:11:54Z</time>
      </trkpt>
      <trkpt lat="47.158791" lon="-2.14356">
        <ele>25.0</ele>
        <time>2020-08-13T01:12:16Z</time>
      </trkpt>
      <trkpt lat="47.159324" lon="-2.143778">
        <ele>22.4</ele>
        <time>2020-08-13T01:12:19Z</time>
      </trkpt>
      <trkpt lat="47.159852" lon="-2.143957">
        <ele>22.4</ele>
        <time>2020-08-13T01:12:23Z</time>
      </trkpt>
      <trkpt lat="47.160307" lon="-2.144047">
        <ele>20.2</ele>
        <time>2020-08-13T01:12:25Z</time>
      </trkpt>
      <trkpt lat="47.160846" lon="-2.144091">
        <ele>19.8</ele>
        <time>2020-08-13T01:12:29Z</time>
      </trkpt>
      <trkpt lat="47.161153" lon="-2.144092">
        <ele>19.8</ele>
        <time>2020-08-13T01:12:31Z</time>
      </trkpt>
      <trkpt lat="47.161812" lon="-2.144028">
        <ele>19.4</ele>
        <time>2020-08-13T01:12:35Z</time>
      </trkpt>
      <trkpt lat="47.164266" lon="-2.143477">
        <ele>9.8</ele>
        <time>2020-08-13T01:12:50Z</time>
      </trkpt>
      <trkpt lat="47.164916" lon="-2.143347">
        <ele>9.8</ele>
        <time>2020-08-13T01:12:54Z</time>
      </trkpt>
      <trkpt lat="47.165384" lon="-2.143277">
        <ele>7.4</ele>
        <time>2020-08-13T01:12:57Z</time>
      </trkpt>
      <trkpt lat="47.166243" lon="-2.143229">
        <ele>7.2</ele>
        <time>2020-08-13T01:13:03Z</time>
      </trkpt>
      <trkpt lat="47.166759" lon="-2.143248">
        <ele>9.6</ele>
        <time>2020-08-13T01:13:06Z</time>
      </trkpt>
      <trkpt lat="47.16725" lon="-2.143299">
        <ele>9.6</ele>
        <time>2020-08-13T01:13:09Z</time>
      </trkpt>
      <trkpt lat="47.171918" lon="-2.144068">
        <ele>22.2</ele>
        <time>2020-08-13T01:13:38Z</time>
      </trkpt>
      <trkpt lat="47.175837" lon="-2.145043">
        <ele>20.8</ele>
        <time>2020-08-13T01:14:03Z</time>
      </trkpt>
      <trkpt lat="47.177176" lon="-2.145219">
        <ele>18.0</ele>
        <time>2020-08-13T01:14:11Z</time>
      </trkpt>
      <trkpt lat="47.177692" lon="-2.145227">
        <ele>15.8</ele>
        <time>2020-08-13T01:14:14Z</time>
      </trkpt>
      <trkpt lat="47.180971" lon="-2.144956">
        <ele>23.4</ele>
        <time>2020-08-13T01:14:35Z</time>
      </trkpt>
      <trkpt lat="47.181661" lon="-2.145031">
        <ele>24.8</ele>
        <time>2020-08-13T01:14:39Z</time>
      </trkpt>
      <trkpt lat="47.182006" lon="-2.145134">
        <ele>28.4</ele>
        <time>2020-08-13T01:14:41Z</time>
      </trkpt>
      <trkpt lat="47.182346" lon="-2.145268">
        <ele>28.4</ele>
        <time>2020-08-13T01:14:43Z</time>
      </trkpt>
      <trkpt lat="47.182693" lon="-2.145444">
        <ele>31.6</ele>
        <time>2020-08-13T01:14:45Z</time>
      </trkpt>
      <trkpt lat="47.184307" lon="-2.146426">
        <ele>32.2</ele>
        <time>2020-08-13T01:14:56Z</time>
      </trkpt>
      <trkpt lat="47.184943" lon="-2.146735">
        <ele>31.2</ele>
        <time>2020-08-13T01:15:00Z</time>
      </trkpt>
      <trkpt lat="47.1854" lon="-2.146867">
        <ele>31.4</ele>
        <time>2020-08-13T01:15:03Z</time>
      </trkpt>
      <trkpt lat="47.185843" lon="-2.146947">
        <ele>31.0</ele>
        <time>2020-08-13T01:15:06Z</time>
      </trkpt>
      <trkpt lat="47.186276" lon="-2.146965">
        <ele>31.0</ele>
        <time>2020-08-13T01:15:09Z</time>
      </trkpt>
      <trkpt lat="47.192131" lon="-2.146273">
        <ele>25.6</ele>
        <time>2020-08-13T01:15:45Z</time>
      </trkpt>
      <trkpt lat="47.194112" lon="-2.146208">
        <ele>30.4</ele>
        <time>2020-08-13T01:15:58Z</time>
      </trkpt>
      <trkpt lat="47.19502" lon="-2.146214">
        <ele>29.2</ele>
        <time>2020-08-13T01:16:03Z</time>
      </trkpt>
      <trkpt lat="47.195312" lon="-2.146257">
        <ele>29.2</ele>
        <time>2020-08-13T01:16:05Z</time>
      </trkpt>
      <trkpt lat="47.199667" lon="-2.147475">
        <ele>20.6</ele>
        <time>2020-08-13T01:16:33Z</time>
      </trkpt>
      <trkpt lat="47.203186" lon="-2.148499">
        <ele>20.4</ele>
        <time>2020-08-13T01:16:55Z</time>
      </trkpt>
      <trkpt lat="47.204665" lon="-2.148908">
        <ele>16.2</ele>
        <time>2020-08-13T01:17:04Z</time>
      </trkpt>
      <trkpt lat="47.205422" lon="-2.149135">
        <ele>13.8</ele>
        <time>2020-08-13T01:17:09Z</time>
      </trkpt>
      <trkpt lat="47.206666" lon="-2.149559">
        <ele>13.0</ele>
        <time>2020-08-13T01:17:17Z</time>
      </trkpt>
      <trkpt lat="47.20781" lon="-2.149911">
        <ele>12.6</ele>
        <time>2020-08-13T01:17:24Z</time>
      </trkpt>
      <trkpt lat="47.20938" lon="-2.150334">
        <ele>4.2</ele>
        <time>2020-08-13T01:17:34Z</time>
      </trkpt>
      <trkpt lat="47.211648" lon="-2.150857">
        <ele>2.2</ele>
        <time>2020-08-13T01:17:48Z</time>
      </trkpt>
      <trkpt lat="47.212001" lon="-2.150898">
        <ele>1.8</ele>
        <time>2020-08-13T01:17:50Z</time>
      </trkpt>
      <trkpt lat="47.213567" lon="-2.150991">
        <ele>2.0</ele>
        <time>2020-08-13T01:18:00Z</time>
      </trkpt>
      <trkpt lat="47.215805" lon="-2.150908">
        <ele>6.6</ele>
        <time>2020-08-13T01:18:14Z</time>
      </trkpt>
      <trkpt lat="47.216388" lon="-2.150935">
        <ele>9.8</ele>
        <time>2020-08-13T01:18:18Z</time>
      </trkpt>
      <trkpt lat="47.216966" lon="-2.150994">
        <ele>11.8</ele>
        <time>2020-08-13T01:18:21Z</time>
      </trkpt>
      <trkpt lat="47.223643" lon="-2.152463">
        <ele>4.6</ele>
        <time>2020-08-13T01:19:03Z</time>
      </trkpt>
      <trkpt lat="47.224592" lon="-2.152688">
        <ele>9.2</ele>
        <time>2020-08-13T01:19:09Z</time>
      </trkpt>
      <trkpt lat="47.225539" lon="-2.152958">
        <ele>10.8</ele>
        <time>2020-08-13T01:19:15Z</time>
      </trkpt>
      <trkpt lat="47.225907" lon="-2.153104">
        <ele>9.6</ele>
        <time>2020-08-13T01:19:17Z</time>
      </trkpt>
      <trkpt lat="47.22981" lon="-2.154882">
        <ele>13.4</ele>
        <time>2020-08-13T01:19:43Z</time>
      </trkpt>
      <trkpt lat="47.234842" lon="-2.157293">
        <ele>7.2</ele>
        <time>2020-08-13T01:20:16Z</time>
      </trkpt>
      <trkpt lat="47.235246" lon="-2.157452">
        <ele>5.8</ele>
        <time>2020-08-13T01:20:18Z</time>
      </trkpt>
      <trkpt lat="47.235442" lon="-2.157509">
        <ele>5.4</ele>
        <time>2020-08-13T01:20:19Z</time>
      </trkpt>
      <trkpt lat="47.235964" lon="-2.157593">
        <ele>4.6</ele>
        <time>2020-08-13T01:20:23Z</time>
      </trkpt>
      <trkpt lat="47.236463" lon="-2.157592">
        <ele>4.6</ele>
        <time>2020-08-13T01:20:26Z</time>
      </trkpt>
      <trkpt lat="47.237523" lon="-2.157469">
        <ele>6.6</ele>
        <time>2020-08-13T01:20:32Z</time>
      </trkpt>
      <trkpt lat="47.23855" lon="-2.157429">
        <ele>7.8</ele>
        <time>2020-08-13T01:20:39Z</time>
      </trkpt>
      <trkpt lat="47.238796" lon="-2.157447">
        <ele>7.8</ele>
        <time>2020-08-13T01:20:40Z</time>
      </trkpt>
      <trkpt lat="47.239346" lon="-2.157594">
        <ele>6.8</ele>
        <time>2020-08-13T01:20:44Z</time>
      </trkpt>
      <trkpt lat="47.239997" lon="-2.157909">
        <ele>6.8</ele>
        <time>2020-08-13T01:20:48Z</time>
      </trkpt>
      <trkpt lat="47.240354" lon="-2.158176">
        <ele>8.0</ele>
        <time>2020-08-13T01:20:51Z</time>
      </trkpt>
      <trkpt lat="47.241596" lon="-2.159311">
        <ele>7.0</ele>
        <time>2020-08-13T01:21:00Z</time>
      </trkpt>
      <trkpt lat="47.241858" lon="-2.159517">
        <ele>8.8</ele>
        <time>2020-08-13T01:21:01Z</time>
      </trkpt>
      <trkpt lat="47.242149" lon="-2.159712">
        <ele>8.8</ele>
        <time>2020-08-13T01:21:03Z</time>
      </trkpt>
      <trkpt lat="47.242431" lon="-2.159855">
        <ele>8.8</ele>
        <time>2020-08-13T01:21:05Z</time>
      </trkpt>
      <trkpt lat="47.242746" lon="-2.15997">
        <ele>10.0</ele>
        <time>2020-08-13T01:21:07Z</time>
      </trkpt>
      <trkpt lat="47.2433" lon="-2.160081">
        <ele>7.6</ele>
        <time>2020-08-13T01:21:11Z</time>
      </trkpt>
      <trkpt lat="47.243883" lon="-2.160045">
        <ele>8.2</ele>
        <time>2020-08-13T01:21:14Z</time>
      </trkpt>
      <trkpt lat="47.250141" lon="-2.159167">
        <ele>6.4</ele>
        <time>2020-08-13T01:21:53Z</time>
      </trkpt>
      <trkpt lat="47.255787" lon="-2.158414">
        <ele>6.4</ele>
        <time>2020-08-13T01:22:29Z</time>
      </trkpt>
      <trkpt lat="47.256882" lon="-2.158394">
        <ele>6.4</ele>
        <time>2020-08-13T01:22:35Z</time>
      </trkpt>
      <trkpt lat="47.257913" lon="-2.15854">
        <ele>7.2</ele>
        <time>2020-08-13T01:22:42Z</time>
      </trkpt>
      <trkpt lat="47.264824" lon="-2.160687">
        <ele>4.2</ele>
        <time>2020-08-13T01:23:26Z</time>
      </trkpt>
      <trkpt lat="47.267221" lon="-2.161398">
        <ele>4.8</ele>
        <time>2020-08-13T01:23:41Z</time>
      </trkpt>
      <trkpt lat="47.268918" lon="-2.161997">
        <ele>3.0</ele>
        <time>2020-08-13T01:23:52Z</time>
      </trkpt>
      <trkpt lat="47.274159" lon="-2.163625">
        <ele>0.0</ele>
        <time>2020-08-13T01:24:25Z</time>
      </trkpt>
      <trkpt lat="47.275075" lon="-2.163945">
        <ele>0.0</ele>
        <time>2020-08-13T01:24:31Z</time>
      </trkpt>
      <trkpt lat="47.276376" lon="-2.164488">
        <ele>0.0</ele>
        <time>2020-08-13T01:24:39Z</time>
      </trkpt>
      <trkpt lat="47.277258" lon="-2.164912">
        <ele>0.0</ele>
        <time>2020-08-13T01:24:45Z</time>
      </trkpt>
      <trkpt lat="47.278099" lon="-2.165359">
        <ele>0.0</ele>
        <time>2020-08-13T01:24:50Z</time>
      </trkpt>
      <trkpt lat="47.279358" lon="-2.166092">
        <ele>0.0</ele>
        <time>2020-08-13T01:24:59Z</time>
      </trkpt>
      <trkpt lat="47.280166" lon="-2.166636">
        <ele>0.0</ele>
        <time>2020-08-13T01:25:04Z</time>
      </trkpt>
      <trkpt lat="47.281413" lon="-2.167532">
        <ele>0.0</ele>
        <time>2020-08-13T01:25:13Z</time>
      </trkpt>
      <trkpt lat="47.282246" lon="-2.168216">
        <ele>0.0</ele>
        <time>2020-08-13T01:25:19Z</time>
      </trkpt>
      <trkpt lat="47.283547" lon="-2.169233">
        <ele>0.0</ele>
        <time>2020-08-13T01:25:28Z</time>
      </trkpt>
      <trkpt lat="47.286651" lon="-2.171842">
        <ele>0.0</ele>
        <time>2020-08-13T01:25:50Z</time>
      </trkpt>
      <trkpt lat="47.28788" lon="-2.172955">
        <ele>0.0</ele>
        <time>2020-08-13T01:25:59Z</time>
      </trkpt>
      <trkpt lat="47.288338" lon="-2.173327">
        <ele>0.0</ele>
        <time>2020-08-13T01:26:02Z</time>
      </trkpt>
      <trkpt lat="47.288742" lon="-2.17365">
        <ele>0.0</ele>
        <time>2020-08-13T01:26:05Z</time>
      </trkpt>
      <trkpt lat="47.289487" lon="-2.174192">
        <ele>0.0</ele>
        <time>2020-08-13T01:26:10Z</time>
      </trkpt>
      <trkpt lat="47.290743" lon="-2.175065">
        <ele>0.0</ele>
        <time>2020-08-13T01:26:19Z</time>
      </trkpt>
      <trkpt lat="47.292385" lon="-2.17604">
        <ele>0.0</ele>
        <time>2020-08-13T01:26:30Z</time>
      </trkpt>
      <trkpt lat="47.293844" lon="-2.176748">
        <ele>0.0</ele>
        <time>2020-08-13T01:26:39Z</time>
      </trkpt>
      <trkpt lat="47.294592" lon="-2.177071">
        <ele>0.0</ele>
        <time>2020-08-13T01:26:44Z</time>
      </trkpt>
      <trkpt lat="47.297734" lon="-2.178357">
        <ele>2.33</ele>
        <time>2020-08-13T01:27:05Z</time>
      </trkpt>
      <trkpt lat="47.299267" lon="-2.178921">
        <ele>4.6</ele>
        <time>2020-08-13T01:27:13Z</time>
      </trkpt>
      <trkpt lat="47.30125" lon="-2.179745">
        <ele>3.6</ele>
        <time>2020-08-13T01:27:24Z</time>
      </trkpt>
      <trkpt lat="47.301762" lon="-2.179985">
        <ele>3.0</ele>
        <time>2020-08-13T01:27:27Z</time>
      </trkpt>
      <trkpt lat="47.302427" lon="-2.18037">
        <ele>2.2</ele>
        <time>2020-08-13T01:27:31Z</time>
      </trkpt>
      <trkpt lat="47.303209" lon="-2.180929">
        <ele>0.6</ele>
        <time>2020-08-13T01:27:35Z</time>
      </trkpt>
      <trkpt lat="47.303895" lon="-2.181582">
        <ele>1.2</ele>
        <time>2020-08-13T01:27:40Z</time>
      </trkpt>
      <trkpt lat="47.304377" lon="-2.182112">
        <ele>3.2</ele>
        <time>2020-08-13T01:27:43Z</time>
      </trkpt>
      <trkpt lat="47.30483" lon="-2.182687">
        <ele>2.8</ele>
        <time>2020-08-13T01:27:46Z</time>
      </trkpt>
      <trkpt lat="47.30524" lon="-2.183278">
        <ele>3.8</ele>
        <time>2020-08-13T01:27:49Z</time>
      </trkpt>
      <trkpt lat="47.305573" lon="-2.183806">
        <ele>4.0</ele>
        <time>2020-08-13T01:27:52Z</time>
      </trkpt>
      <trkpt lat="47.305866" lon="-2.184334">
        <ele>4.2</ele>
        <time>2020-08-13T01:27:54Z</time>
      </trkpt>
      <trkpt lat="47.306293" lon="-2.185191">
        <ele>3.2</ele>
        <time>2020-08-13T01:27:58Z</time>
      </trkpt>
      <trkpt lat="47.306663" lon="-2.186117">
        <ele>2.8</ele>
        <time>2020-08-13T01:28:02Z</time>
      </trkpt>
      <trkpt lat="47.306983" lon="-2.187048">
        <ele>1.0</ele>
        <time>2020-08-13T01:28:05Z</time>
      </trkpt>
      <trkpt lat="47.307172" lon="-2.187711">
        <ele>0.6</ele>
        <time>2020-08-13T01:28:08Z</time>
      </trkpt>
      <trkpt lat="47.307338" lon="-2.188386">
        <ele>0.2</ele>
        <time>2020-08-13T01:28:11Z</time>
      </trkpt>
      <trkpt lat="47.307483" lon="-2.189123">
        <ele>0.2</ele>
        <time>2020-08-13T01:28:13Z</time>
      </trkpt>
      <trkpt lat="47.307596" lon="-2.189861">
        <ele>1.2</ele>
        <time>2020-08-13T01:28:16Z</time>
      </trkpt>
      <trkpt lat="47.307718" lon="-2.190964">
        <ele>0.6</ele>
        <time>2020-08-13T01:28:20Z</time>
      </trkpt>
      <trkpt lat="47.307768" lon="-2.191834">
        <ele>0.6</ele>
        <time>2020-08-13T01:28:23Z</time>
      </trkpt>
      <trkpt lat="47.307786" lon="-2.192724">
        <ele>0.4</ele>
        <time>2020-08-13T01:28:26Z</time>
      </trkpt>
      <trkpt lat="47.307755" lon="-2.193573">
        <ele>0.8</ele>
        <time>2020-08-13T01:28:30Z</time>
      </trkpt>
      <trkpt lat="47.307688" lon="-2.194422">
        <ele>1.0</ele>
        <time>2020-08-13T01:28:33Z</time>
      </trkpt>
      <trkpt lat="47.307457" lon="-2.196294">
        <ele>2.2</ele>
        <time>2020-08-13T01:28:39Z</time>
      </trkpt>
      <trkpt lat="47.306091" lon="-2.20549">
        <ele>2.6</ele>
        <time>2020-08-13T01:29:13Z</time>
      </trkpt>
      <trkpt lat="47.305748" lon="-2.207402">
        <ele>1.4</ele>
        <time>2020-08-13T01:29:20Z</time>
      </trkpt>
      <trkpt lat="47.30541" lon="-2.208712">
        <ele>1.2</ele>
        <time>2020-08-13T01:29:25Z</time>
      </trkpt>
      <trkpt lat="47.305128" lon="-2.209577">
        <ele>1.0</ele>
        <time>2020-08-13T01:29:29Z</time>
      </trkpt>
      <trkpt lat="47.304814" lon="-2.210376">
        <ele>1.6</ele>
        <time>2020-08-13T01:29:32Z</time>
      </trkpt>
      <trkpt lat="47.304009" lon="-2.212013">
        <ele>1.6</ele>
        <time>2020-08-13T01:29:40Z</time>
      </trkpt>
      <trkpt lat="47.303646" lon="-2.212583">
        <ele>0.8</ele>
        <time>2020-08-13T01:29:42Z</time>
      </trkpt>
      <trkpt lat="47.303221" lon="-2.213168">
        <ele>1.8</ele>
        <time>2020-08-13T01:29:45Z</time>
      </trkpt>
      <trkpt lat="47.30259" lon="-2.213935">
        <ele>1.0</ele>
        <time>2020-08-13T01:29:50Z</time>
      </trkpt>
      <trkpt lat="47.302221" lon="-2.21432">
        <ele>0.6</ele>
        <time>2020-08-13T01:29:52Z</time>
      </trkpt>
      <trkpt lat="47.301775" lon="-2.21474">
        <ele>0.6</ele>
        <time>2020-08-13T01:29:55Z</time>
      </trkpt>
      <trkpt lat="47.300976" lon="-2.215364">
        <ele>0.8</ele>
        <time>2020-08-13T01:30:00Z</time>
      </trkpt>
      <trkpt lat="47.299203" lon="-2.216489">
        <ele>-0.6</ele>
        <time>2020-08-13T01:30:10Z</time>
      </trkpt>
      <trkpt lat="47.29854" lon="-2.216939">
        <ele>0.4</ele>
        <time>2020-08-13T01:30:14Z</time>
      </trkpt>
      <trkpt lat="47.298021" lon="-2.217351">
        <ele>2.2</ele>
        <time>2020-08-13T01:30:17Z</time>
      </trkpt>
      <trkpt lat="47.297459" lon="-2.217864">
        <ele>1.4</ele>
        <time>2020-08-13T01:30:21Z</time>
      </trkpt>
      <trkpt lat="47.296879" lon="-2.218471">
        <ele>0.6</ele>
        <time>2020-08-13T01:30:24Z</time>
      </trkpt>
      <trkpt lat="47.296476" lon="-2.218942">
        <ele>1.2</ele>
        <time>2020-08-13T01:30:27Z</time>
      </trkpt>
      <trkpt lat="47.296094" lon="-2.219459">
        <ele>2.0</ele>
        <time>2020-08-13T01:30:30Z</time>
      </trkpt>
      <trkpt lat="47.295467" lon="-2.220366">
        <ele>2.2</ele>
        <time>2020-08-13T01:30:34Z</time>
      </trkpt>
      <trkpt lat="47.294898" lon="-2.221349">
        <ele>1.0</ele>
        <time>2020-08-13T01:30:39Z</time>
      </trkpt>
      <trkpt lat="47.294509" lon="-2.222148">
        <ele>0.8</ele>
        <time>2020-08-13T01:30:43Z</time>
      </trkpt>
      <trkpt lat="47.294105" lon="-2.223079">
        <ele>0.4</ele>
        <time>2020-08-13T01:30:47Z</time>
      </trkpt>
      <trkpt lat="47.293721" lon="-2.224136">
        <ele>0.6</ele>
        <time>2020-08-13T01:30:51Z</time>
      </trkpt>
      <trkpt lat="47.293377" lon="-2.225271">
        <ele>1.8</ele>
        <time>2020-08-13T01:30:55Z</time>
      </trkpt>
      <trkpt lat="47.291609" lon="-2.231838">
        <ele>6.6</ele>
        <time>2020-08-13T01:31:21Z</time>
      </trkpt>
      <trkpt lat="47.290613" lon="-2.235593">
        <ele>11.2</ele>
        <time>2020-08-13T01:31:35Z</time>
      </trkpt>
      <trkpt lat="47.28917" lon="-2.241189">
        <ele>10.2</ele>
        <time>2020-08-13T01:31:57Z</time>
      </trkpt>
      <trkpt lat="47.288516" lon="-2.243778">
        <ele>10.8</ele>
        <time>2020-08-13T01:32:07Z</time>
      </trkpt>
      <trkpt lat="47.288014" lon="-2.245414">
        <ele>9.0</ele>
        <time>2020-08-13T01:32:13Z</time>
      </trkpt>
      <trkpt lat="47.287777" lon="-2.246127">
        <ele>10.4</ele>
        <time>2020-08-13T01:32:16Z</time>
      </trkpt>
      <trkpt lat="47.287339" lon="-2.247211">
        <ele>10.2</ele>
        <time>2020-08-13T01:32:21Z</time>
      </trkpt>
      <trkpt lat="47.286793" lon="-2.248423">
        <ele>14.4</ele>
        <time>2020-08-13T01:32:26Z</time>
      </trkpt>
      <trkpt lat="47.286602" lon="-2.248953">
        <ele>11.8</ele>
        <time>2020-08-13T01:32:28Z</time>
      </trkpt>
      <trkpt lat="47.286458" lon="-2.249461">
        <ele>16.2</ele>
        <time>2020-08-13T01:32:30Z</time>
      </trkpt>
      <trkpt lat="47.286326" lon="-2.250003">
        <ele>19.8</ele>
        <time>2020-08-13T01:32:32Z</time>
      </trkpt>
      <trkpt lat="47.28622" lon="-2.250596">
        <ele>19.8</ele>
        <time>2020-08-13T01:32:34Z</time>
      </trkpt>
      <trkpt lat="47.286152" lon="-2.251196">
        <ele>21.6</ele>
        <time>2020-08-13T01:32:37Z</time>
      </trkpt>
      <trkpt lat="47.286014" lon="-2.255675">
        <ele>24.2</ele>
        <time>2020-08-13T01:32:53Z</time>
      </trkpt>
      <trkpt lat="47.285904" lon="-2.258285">
        <ele>23.4</ele>
        <time>2020-08-13T01:33:02Z</time>
      </trkpt>
      <trkpt lat="47.285874" lon="-2.25952">
        <ele>23.0</ele>
        <time>2020-08-13T01:33:07Z</time>
      </trkpt>
      <trkpt lat="47.285752" lon="-2.262092">
        <ele>25.0</ele>
        <time>2020-08-13T01:33:16Z</time>
      </trkpt>
      <trkpt lat="47.285679" lon="-2.263259">
        <ele>26.2</ele>
        <time>2020-08-13T01:33:20Z</time>
      </trkpt>
      <trkpt lat="47.285416" lon="-2.26558">
        <ele>27.0</ele>
        <time>2020-08-13T01:33:29Z</time>
      </trkpt>
      <trkpt lat="47.285164" lon="-2.267264">
        <ele>25.2</ele>
        <time>2020-08-13T01:33:35Z</time>
      </trkpt>
      <trkpt lat="47.284396" lon="-2.271731">
        <ele>27.6</ele>
        <time>2020-08-13T01:33:51Z</time>
      </trkpt>
      <trkpt lat="47.283982" lon="-2.274289">
        <ele>30.8</ele>
        <time>2020-08-13T01:34:01Z</time>
      </trkpt>
      <trkpt lat="47.283737" lon="-2.276253">
        <ele>27.2</ele>
        <time>2020-08-13T01:34:08Z</time>
      </trkpt>
      <trkpt lat="47.283558" lon="-2.278302">
        <ele>27.6</ele>
        <time>2020-08-13T01:34:15Z</time>
      </trkpt>
      <trkpt lat="47.283482" lon="-2.280468">
        <ele>26.2</ele>
        <time>2020-08-13T01:34:23Z</time>
      </trkpt>
      <trkpt lat="47.283493" lon="-2.282391">
        <ele>26.2</ele>
        <time>2020-08-13T01:34:30Z</time>
      </trkpt>
      <trkpt lat="47.28358" lon="-2.285163">
        <ele>28.0</ele>
        <time>2020-08-13T01:34:40Z</time>
      </trkpt>
      <trkpt lat="47.28379" lon="-2.290562">
        <ele>27.4</ele>
        <time>2020-08-13T01:35:00Z</time>
      </trkpt>
      <trkpt lat="47.283938" lon="-2.29339">
        <ele>25.6</ele>
        <time>2020-08-13T01:35:10Z</time>
      </trkpt>
      <trkpt lat="47.284274" lon="-2.298365">
        <ele>21.4</ele>
        <time>2020-08-13T01:35:28Z</time>
      </trkpt>
      <trkpt lat="47.28453" lon="-2.300856">
        <ele>21.4</ele>
        <time>2020-08-13T01:35:37Z</time>
      </trkpt>
      <trkpt lat="47.28475" lon="-2.302744">
        <ele>20.2</ele>
        <time>2020-08-13T01:35:44Z</time>
      </trkpt>
      <trkpt lat="47.285434" lon="-2.307594">
        <ele>17.2</ele>
        <time>2020-08-13T01:36:02Z</time>
      </trkpt>
      <trkpt lat="47.286762" lon="-2.316612">
        <ele>24.6</ele>
        <time>2020-08-13T01:36:35Z</time>
      </trkpt>
      <trkpt lat="47.287694" lon="-2.322714">
        <ele>26.6</ele>
        <time>2020-08-13T01:36:57Z</time>
      </trkpt>
      <trkpt lat="47.288085" lon="-2.324758">
        <ele>29.4</ele>
        <time>2020-08-13T01:37:05Z</time>
      </trkpt>
      <trkpt lat="47.288326" lon="-2.325822">
        <ele>27.0</ele>
        <time>2020-08-13T01:37:09Z</time>
      </trkpt>
      <trkpt lat="47.288594" lon="-2.326869">
        <ele>23.2</ele>
        <time>2020-08-13T01:37:13Z</time>
      </trkpt>
      <trkpt lat="47.28902" lon="-2.328267">
        <ele>21.6</ele>
        <time>2020-08-13T01:37:19Z</time>
      </trkpt>
      <trkpt lat="47.289473" lon="-2.329641">
        <ele>22.0</ele>
        <time>2020-08-13T01:37:24Z</time>
      </trkpt>
      <trkpt lat="47.291813" lon="-2.335752">
        <ele>26.4</ele>
        <time>2020-08-13T01:37:49Z</time>
      </trkpt>
      <trkpt lat="47.2923" lon="-2.337065">
        <ele>26.0</ele>
        <time>2020-08-13T01:37:55Z</time>
      </trkpt>
      <trkpt lat="47.29273" lon="-2.338353">
        <ele>25.0</ele>
        <time>2020-08-13T01:38:00Z</time>
      </trkpt>
      <trkpt lat="47.292999" lon="-2.339251">
        <ele>25.8</ele>
        <time>2020-08-13T01:38:03Z</time>
      </trkpt>
      <trkpt lat="47.293246" lon="-2.340149">
        <ele>26.0</ele>
        <time>2020-08-13T01:38:07Z</time>
      </trkpt>
      <trkpt lat="47.293559" lon="-2.341426">
        <ele>24.0</ele>
        <time>2020-08-13T01:38:12Z</time>
      </trkpt>
      <trkpt lat="47.293846" lon="-2.342705">
        <ele>25.2</ele>
        <time>2020-08-13T01:38:17Z</time>
      </trkpt>
      <trkpt lat="47.294521" lon="-2.3459">
        <ele>29.2</ele>
        <time>2020-08-13T01:38:29Z</time>
      </trkpt>
      <trkpt lat="47.295312" lon="-2.349459">
        <ele>33.4</ele>
        <time>2020-08-13T01:38:42Z</time>
      </trkpt>
      <trkpt lat="47.29574" lon="-2.351187">
        <ele>34.4</ele>
        <time>2020-08-13T01:38:49Z</time>
      </trkpt>
      <trkpt lat="47.296262" lon="-2.353035">
        <ele>33.0</ele>
        <time>2020-08-13T01:38:56Z</time>
      </trkpt>
      <trkpt lat="47.296599" lon="-2.354174">
        <ele>32.4</ele>
        <time>2020-08-13T01:39:00Z</time>
      </trkpt>
      <trkpt lat="47.296984" lon="-2.35537">
        <ele>33.0</ele>
        <time>2020-08-13T01:39:05Z</time>
      </trkpt>
      <trkpt lat="47.297831" lon="-2.357739">
        <ele>35.2</ele>
        <time>2020-08-13T01:39:15Z</time>
      </trkpt>
      <trkpt lat="47.302028" lon="-2.368573">
        <ele>46.4</ele>
        <time>2020-08-13T01:40:00Z</time>
      </trkpt>
      <trkpt lat="47.302688" lon="-2.370329">
        <ele>52.2</ele>
        <time>2020-08-13T01:40:07Z</time>
      </trkpt>
      <trkpt lat="47.303156" lon="-2.371674">
        <ele>49.8</ele>
        <time>2020-08-13T01:40:12Z</time>
      </trkpt>
      <trkpt lat="47.303566" lon="-2.372961">
        <ele>48.0</ele>
        <time>2020-08-13T01:40:17Z</time>
      </trkpt>
      <trkpt lat="47.303973" lon="-2.374332">
        <ele>44.6</ele>
        <time>2020-08-13T01:40:23Z</time>
      </trkpt>
      <trkpt lat="47.304331" lon="-2.375623">
        <ele>42.2</ele>
        <time>2020-08-13T01:40:28Z</time>
      </trkpt>
      <trkpt lat="47.306986" lon="-2.385577">
        <ele>47.2</ele>
        <time>2020-08-13T01:41:06Z</time>
      </trkpt>
      <trkpt lat="47.307641" lon="-2.387786">
        <ele>44.0</ele>
        <time>2020-08-13T01:41:15Z</time>
      </trkpt>
      <trkpt lat="47.30829" lon="-2.389624">
        <ele>40.6</ele>
        <time>2020-08-13T01:41:23Z</time>
      </trkpt>
      <trkpt lat="47.314815" lon="-2.407572">
        <ele>43.4</ele>
        <time>2020-08-13T01:42:36Z</time>
      </trkpt>
      <trkpt lat="47.315153" lon="-2.408433">
        <ele>46.4</ele>
        <time>2020-08-13T01:42:39Z</time>
      </trkpt>
      <trkpt lat="47.315457" lon="-2.409117">
        <ele>46.4</ele>
        <time>2020-08-13T01:42:42Z</time>
      </trkpt>
      <trkpt lat="47.315797" lon="-2.409796">
        <ele>45.4</ele>
        <time>2020-08-13T01:42:45Z</time>
      </trkpt>
      <trkpt lat="47.316212" lon="-2.4105">
        <ele>43.9</ele>
        <time>2020-08-13T01:42:49Z</time>
      </trkpt>
      <trkpt lat="47.316212" lon="-2.4105">
        <ele>43.9</ele>
        <time>2020-08-13T01:42:49Z</time>
      </trkpt>
      <trkpt lat="47.316477" lon="-2.410919">
        <ele>43.4</ele>
        <time>2020-08-13T01:42:51Z</time>
      </trkpt>
      <trkpt lat="47.317113" lon="-2.411781">
        <ele>45.0</ele>
        <time>2020-08-13T01:42:57Z</time>
      </trkpt>
      <trkpt lat="47.317858" lon="-2.412562">
        <ele>44.4</ele>
        <time>2020-08-13T01:43:03Z</time>
      </trkpt>
      <trkpt lat="47.318609" lon="-2.413231">
        <ele>44.8</ele>
        <time>2020-08-13T01:43:09Z</time>
      </trkpt>
      <trkpt lat="47.319767" lon="-2.414049">
        <ele>43.6</ele>
        <time>2020-08-13T01:43:17Z</time>
      </trkpt>
      <trkpt lat="47.31985" lon="-2.414032">
        <ele>43.6</ele>
        <time>2020-08-13T01:43:18Z</time>
      </trkpt>
      <trkpt lat="47.319932" lon="-2.41405">
        <ele>43.6</ele>
        <time>2020-08-13T01:43:18Z</time>
      </trkpt>
      <trkpt lat="47.320042" lon="-2.414142">
        <ele>45.6</ele>
        <time>2020-08-13T01:43:19Z</time>
      </trkpt>
      <trkpt lat="47.320092" lon="-2.41423">
        <ele>45.0</ele>
        <time>2020-08-13T01:43:20Z</time>
      </trkpt>
      <trkpt lat="47.320316" lon="-2.414326">
        <ele>45.0</ele>
        <time>2020-08-13T01:43:22Z</time>
      </trkpt>
      <trkpt lat="47.320825" lon="-2.414399">
        <ele>45.0</ele>
        <time>2020-08-13T01:43:26Z</time>
      </trkpt>
      <trkpt lat="47.321828" lon="-2.414626">
        <ele>51.0</ele>
        <time>2020-08-13T01:43:33Z</time>
      </trkpt>
      <trkpt lat="47.324526" lon="-2.41518">
        <ele>51.4</ele>
        <time>2020-08-13T01:43:53Z</time>
      </trkpt>
      <trkpt lat="47.325719" lon="-2.415369">
        <ele>52.4</ele>
        <time>2020-08-13T01:44:02Z</time>
      </trkpt>
      <trkpt lat="47.326195" lon="-2.415525">
        <ele>50.6</ele>
        <time>2020-08-13T01:44:06Z</time>
      </trkpt>
      <trkpt lat="47.327159" lon="-2.415669">
        <ele>48.6</ele>
        <time>2020-08-13T01:44:13Z</time>
      </trkpt>
      <trkpt lat="47.327261" lon="-2.415518">
        <ele>48.6</ele>
        <time>2020-08-13T01:44:15Z</time>
      </trkpt>
      <trkpt lat="47.327351" lon="-2.415484">
        <ele>48.6</ele>
        <time>2020-08-13T01:44:16Z</time>
      </trkpt>
      <trkpt lat="47.327475" lon="-2.41551">
        <ele>48.6</ele>
        <time>2020-08-13T01:44:17Z</time>
      </trkpt>
      <trkpt lat="47.327653" lon="-2.415741">
        <ele>45.8</ele>
        <time>2020-08-13T01:44:19Z</time>
      </trkpt>
      <trkpt lat="47.327706" lon="-2.41579">
        <ele>45.8</ele>
        <time>2020-08-13T01:44:20Z</time>
      </trkpt>
      <trkpt lat="47.327786" lon="-2.415823">
        <ele>45.8</ele>
        <time>2020-08-13T01:44:20Z</time>
      </trkpt>
      <trkpt lat="47.329245" lon="-2.416108">
        <ele>42.0</ele>
        <time>2020-08-13T01:44:35Z</time>
      </trkpt>
      <trkpt lat="47.329298" lon="-2.41602">
        <ele>42.0</ele>
        <time>2020-08-13T01:44:35Z</time>
      </trkpt>
      <trkpt lat="47.329376" lon="-2.415991">
        <ele>42.0</ele>
        <time>2020-08-13T01:44:36Z</time>
      </trkpt>
      <trkpt lat="47.329415" lon="-2.416002">
        <ele>42.0</ele>
        <time>2020-08-13T01:44:36Z</time>
      </trkpt>
      <trkpt lat="47.329453" lon="-2.416032">
        <ele>42.0</ele>
        <time>2020-08-13T01:44:36Z</time>
      </trkpt>
      <trkpt lat="47.329502" lon="-2.416136">
        <ele>42.0</ele>
        <time>2020-08-13T01:44:37Z</time>
      </trkpt>
      <trkpt lat="47.329508" lon="-2.4162">
        <ele>42.0</ele>
        <time>2020-08-13T01:44:37Z</time>
      </trkpt>
      <trkpt lat="47.330127" lon="-2.416438">
        <ele>40.4</ele>
        <time>2020-08-13T01:44:41Z</time>
      </trkpt>
      <trkpt lat="47.331076" lon="-2.417011">
        <ele>42.0</ele>
        <time>2020-08-13T01:44:47Z</time>
      </trkpt>
      <trkpt lat="47.331612" lon="-2.41742">
        <ele>42.0</ele>
        <time>2020-08-13T01:44:51Z</time>
      </trkpt>
      <trkpt lat="47.332" lon="-2.417751">
        <ele>42.2</ele>
        <time>2020-08-13T01:44:54Z</time>
      </trkpt>
      <trkpt lat="47.333235" lon="-2.419036">
        <ele>43.4</ele>
        <time>2020-08-13T01:45:03Z</time>
      </trkpt>
      <trkpt lat="47.333317" lon="-2.419083">
        <ele>43.4</ele>
        <time>2020-08-13T01:45:03Z</time>
      </trkpt>
      <trkpt lat="47.33335" lon="-2.419061">
        <ele>43.8</ele>
        <time>2020-08-13T01:45:04Z</time>
      </trkpt>
      <trkpt lat="47.333475" lon="-2.419065">
        <ele>43.8</ele>
        <time>2020-08-13T01:45:05Z</time>
      </trkpt>
      <trkpt lat="47.33353" lon="-2.419102">
        <ele>43.8</ele>
        <time>2020-08-13T01:45:05Z</time>
      </trkpt>
      <trkpt lat="47.33359" lon="-2.419181">
        <ele>45.2</ele>
        <time>2020-08-13T01:45:06Z</time>
      </trkpt>
      <trkpt lat="47.333627" lon="-2.419297">
        <ele>45.2</ele>
        <time>2020-08-13T01:45:07Z</time>
      </trkpt>
      <trkpt lat="47.33364" lon="-2.419394">
        <ele>45.2</ele>
        <time>2020-08-13T01:45:07Z</time>
      </trkpt>
      <trkpt lat="47.33363" lon="-2.41945">
        <ele>45.2</ele>
        <time>2020-08-13T01:45:07Z</time>
      </trkpt>
      <trkpt lat="47.333698" lon="-2.419592">
        <ele>45.2</ele>
        <time>2020-08-13T01:45:08Z</time>
      </trkpt>
      <trkpt lat="47.333767" lon="-2.419685">
        <ele>45.2</ele>
        <time>2020-08-13T01:45:09Z</time>
      </trkpt>
      <trkpt lat="47.33567" lon="-2.421733">
        <ele>44.6</ele>
        <time>2020-08-13T01:45:29Z</time>
      </trkpt>
      <trkpt lat="47.335924" lon="-2.422058">
        <ele>42.8</ele>
        <time>2020-08-13T01:45:32Z</time>
      </trkpt>
      <trkpt lat="47.336313" lon="-2.422469">
        <ele>42.8</ele>
        <time>2020-08-13T01:45:36Z</time>
      </trkpt>
      <trkpt lat="47.337266" lon="-2.423571">
        <ele>41.4</ele>
        <time>2020-08-13T01:45:46Z</time>
      </trkpt>
      <trkpt lat="47.339477" lon="-2.426034">
        <ele>39.8</ele>
        <time>2020-08-13T01:46:09Z</time>
      </trkpt>
      <trkpt lat="47.339651" lon="-2.426197">
        <ele>39.8</ele>
        <time>2020-08-13T01:46:11Z</time>
      </trkpt>
      <trkpt lat="47.339795" lon="-2.426298">
        <ele>39.8</ele>
        <time>2020-08-13T01:46:12Z</time>
      </trkpt>
      <trkpt lat="47.34026" lon="-2.426486">
        <ele>39.4</ele>
        <time>2020-08-13T01:46:16Z</time>
      </trkpt>
      <trkpt lat="47.340542" lon="-2.42653">
        <ele>39.4</ele>
        <time>2020-08-13T01:46:18Z</time>
      </trkpt>
      <trkpt lat="47.340897" lon="-2.426655">
        <ele>39.6</ele>
        <time>2020-08-13T01:46:21Z</time>
      </trkpt>
      <trkpt lat="47.341052" lon="-2.426765">
        <ele>39.6</ele>
        <time>2020-08-13T01:46:23Z</time>
      </trkpt>
      <trkpt lat="47.341183" lon="-2.426905">
        <ele>39.6</ele>
        <time>2020-08-13T01:46:24Z</time>
      </trkpt>
      <trkpt lat="47.341328" lon="-2.427178">
        <ele>39.6</ele>
        <time>2020-08-13T01:46:26Z</time>
      </trkpt>
      <trkpt lat="47.341397" lon="-2.427264">
        <ele>39.6</ele>
        <time>2020-08-13T01:46:27Z</time>
      </trkpt>
      <trkpt lat="47.341469" lon="-2.427269">
        <ele>39.6</ele>
        <time>2020-08-13T01:46:28Z</time>
      </trkpt>
      <trkpt lat="47.341556" lon="-2.427319">
        <ele>39.6</ele>
        <time>2020-08-13T01:46:30Z</time>
      </trkpt>
      <trkpt lat="47.341642" lon="-2.427445">
        <ele>39.6</ele>
        <time>2020-08-13T01:46:32Z</time>
      </trkpt>
      <trkpt lat="47.341675" lon="-2.427567">
        <ele>40.8</ele>
        <time>2020-08-13T01:46:33Z</time>
      </trkpt>
      <trkpt lat="47.341682" lon="-2.427646">
        <ele>40.8</ele>
        <time>2020-08-13T01:46:34Z</time>
      </trkpt>
      <trkpt lat="47.34166" lon="-2.427805">
        <ele>38.8</ele>
        <time>2020-08-13T01:46:36Z</time>
      </trkpt>
      <trkpt lat="47.341623" lon="-2.427893">
        <ele>38.8</ele>
        <time>2020-08-13T01:46:37Z</time>
      </trkpt>
      <trkpt lat="47.341705" lon="-2.428064">
        <ele>40.8</ele>
        <time>2020-08-13T01:46:39Z</time>
      </trkpt>
      <trkpt lat="47.341787" lon="-2.428174">
        <ele>40.8</ele>
        <time>2020-08-13T01:46:41Z</time>
      </trkpt>
      <trkpt lat="47.34189" lon="-2.42826">
        <ele>40.8</ele>
        <time>2020-08-13T01:46:43Z</time>
      </trkpt>
      <trkpt lat="47.342008" lon="-2.428328">
        <ele>40.8</ele>
        <time>2020-08-13T01:46:45Z</time>
      </trkpt>
      <trkpt lat="47.342139" lon="-2.428338">
        <ele>41.2</ele>
        <time>2020-08-13T01:46:46Z</time>
      </trkpt>
      <trkpt lat="47.34231" lon="-2.428297">
        <ele>40.8</ele>
        <time>2020-08-13T01:46:48Z</time>
      </trkpt>
      <trkpt lat="47.342643" lon="-2.428138">
        <ele>42.4</ele>
        <time>2020-08-13T01:46:51Z</time>
      </trkpt>
      <trkpt lat="47.343033" lon="-2.428027">
        <ele>42.4</ele>
        <time>2020-08-13T01:46:54Z</time>
      </trkpt>
      <trkpt lat="47.343532" lon="-2.428052">
        <ele>42.2</ele>
        <time>2020-08-13T01:46:58Z</time>
      </trkpt>
      <trkpt lat="47.343768" lon="-2.428129">
        <ele>42.2</ele>
        <time>2020-08-13T01:47:00Z</time>
      </trkpt>
      <trkpt lat="47.34407" lon="-2.428278">
        <ele>42.2</ele>
        <time>2020-08-13T01:47:03Z</time>
      </trkpt>
      <trkpt lat="47.344327" lon="-2.428477">
        <ele>39.4</ele>
        <time>2020-08-13T01:47:05Z</time>
      </trkpt>
      <trkpt lat="47.344626" lon="-2.428764">
        <ele>39.4</ele>
        <time>2020-08-13T01:47:08Z</time>
      </trkpt>
      <trkpt lat="47.34514" lon="-2.429369">
        <ele>35.6</ele>
        <time>2020-08-13T01:47:14Z</time>
      </trkpt>
      <trkpt lat="47.345427" lon="-2.429661">
        <ele>35.6</ele>
        <time>2020-08-13T01:47:17Z</time>
      </trkpt>
      <trkpt lat="47.345835" lon="-2.429955">
        <ele>34.0</ele>
        <time>2020-08-13T01:47:21Z</time>
      </trkpt>
      <trkpt lat="47.346297" lon="-2.430212">
        <ele>32.8</ele>
        <time>2020-08-13T01:47:25Z</time>
      </trkpt>
      <trkpt lat="47.347473" lon="-2.430945">
        <ele>30.2</ele>
        <time>2020-08-13T01:47:35Z</time>
      </trkpt>
      <trkpt lat="47.347753" lon="-2.431079">
        <ele>29.2</ele>
        <time>2020-08-13T01:47:38Z</time>
      </trkpt>
      <trkpt lat="47.35125" lon="-2.43223">
        <ele>29.8</ele>
        <time>2020-08-13T01:48:08Z</time>
      </trkpt>
      <trkpt lat="47.3519" lon="-2.4324">
        <ele>29.2</ele>
        <time>2020-08-13T01:48:13Z</time>
      </trkpt>
      <trkpt lat="47.35379" lon="-2.43278">
        <ele>30.2</ele>
        <time>2020-08-13T01:48:29Z</time>
      </trkpt>
      <trkpt lat="47.354466" lon="-2.432874">
        <ele>30.0</ele>
        <time>2020-08-13T01:48:35Z</time>
      </trkpt>
      <trkpt lat="47.355355" lon="-2.43294">
        <ele>30.6</ele>
        <time>2020-08-13T01:48:42Z</time>
      </trkpt>
      <trkpt lat="47.3558" lon="-2.43291">
        <ele>30.6</ele>
        <time>2020-08-13T01:48:46Z</time>
      </trkpt>
      <trkpt lat="47.356056" lon="-2.43283">
        <ele>30.4</ele>
        <time>2020-08-13T01:48:48Z</time>
      </trkpt>
      <trkpt lat="47.35706" lon="-2.43233">
        <ele>28.8</ele>
        <time>2020-08-13T01:48:57Z</time>
      </trkpt>
      <trkpt lat="47.35757" lon="-2.43215">
        <ele>28.4</ele>
        <time>2020-08-13T01:49:02Z</time>
      </trkpt>
      <trkpt lat="47.3603" lon="-2.43142">
        <ele>23.0</ele>
        <time>2020-08-13T01:49:25Z</time>
      </trkpt>
      <trkpt lat="47.361575" lon="-2.431049">
        <ele>22.0</ele>
        <time>2020-08-13T01:49:36Z</time>
      </trkpt>
      <trkpt lat="47.362519" lon="-2.430819">
        <ele>20.0</ele>
        <time>2020-08-13T01:49:44Z</time>
      </trkpt>
      <trkpt lat="47.362759" lon="-2.430795">
        <ele>20.0</ele>
        <time>2020-08-13T01:49:46Z</time>
      </trkpt>
      <trkpt lat="47.366872" lon="-2.431304">
        <ele>14.0</ele>
        <time>2020-08-13T01:50:20Z</time>
      </trkpt>
      <trkpt lat="47.367534" lon="-2.43144">
        <ele>12.8</ele>
        <time>2020-08-13T01:50:26Z</time>
      </trkpt>
      <trkpt lat="47.368158" lon="-2.431648">
        <ele>12.8</ele>
        <time>2020-08-13T01:50:31Z</time>
      </trkpt>
      <trkpt lat="47.368368" lon="-2.431778">
        <ele>10.8</ele>
        <time>2020-08-13T01:50:33Z</time>
      </trkpt>
      <trkpt lat="47.368664" lon="-2.432036">
        <ele>10.8</ele>
        <time>2020-08-13T01:50:36Z</time>
      </trkpt>
      <trkpt lat="47.369437" lon="-2.432825">
        <ele>12.6</ele>
        <time>2020-08-13T01:50:44Z</time>
      </trkpt>
      <trkpt lat="47.369661" lon="-2.432975">
        <ele>12.6</ele>
        <time>2020-08-13T01:50:46Z</time>
      </trkpt>
      <trkpt lat="47.370049" lon="-2.433133">
        <ele>17.8</ele>
        <time>2020-08-13T01:50:49Z</time>
      </trkpt>
      <trkpt lat="47.370983" lon="-2.433451">
        <ele>23.6</ele>
        <time>2020-08-13T01:50:57Z</time>
      </trkpt>
      <trkpt lat="47.371334" lon="-2.433473">
        <ele>23.6</ele>
        <time>2020-08-13T01:51:00Z</time>
      </trkpt>
      <trkpt lat="47.37147" lon="-2.433453">
        <ele>23.6</ele>
        <time>2020-08-13T01:51:01Z</time>
      </trkpt>
      <trkpt lat="47.371787" lon="-2.433346">
        <ele>23.6</ele>
        <time>2020-08-13T01:51:04Z</time>
      </trkpt>
      <trkpt lat="47.372092" lon="-2.433186">
        <ele>24.4</ele>
        <time>2020-08-13T01:51:07Z</time>
      </trkpt>
      <trkpt lat="47.372451" lon="-2.433114">
        <ele>24.4</ele>
        <time>2020-08-13T01:51:10Z</time>
      </trkpt>
      <trkpt lat="47.382205" lon="-2.431509">
        <ele>15.8</ele>
        <time>2020-08-13T01:52:32Z</time>
      </trkpt>
      <trkpt lat="47.38271" lon="-2.431352">
        <ele>11.6</ele>
        <time>2020-08-13T01:52:36Z</time>
      </trkpt>
      <trkpt lat="47.382974" lon="-2.431235">
        <ele>11.6</ele>
        <time>2020-08-13T01:52:39Z</time>
      </trkpt>
      <trkpt lat="47.383204" lon="-2.431105">
        <ele>11.6</ele>
        <time>2020-08-13T01:52:41Z</time>
      </trkpt>
      <trkpt lat="47.383887" lon="-2.430624">
        <ele>10.0</ele>
        <time>2020-08-13T01:52:47Z</time>
      </trkpt>
      <trkpt lat="47.384006" lon="-2.430509">
        <ele>10.0</ele>
        <time>2020-08-13T01:52:48Z</time>
      </trkpt>
      <trkpt lat="47.383999" lon="-2.430456">
        <ele>10.0</ele>
        <time>2020-08-13T01:52:49Z</time>
      </trkpt>
      <trkpt lat="47.384016" lon="-2.430407">
        <ele>10.0</ele>
        <time>2020-08-13T01:52:49Z</time>
      </trkpt>
      <trkpt lat="47.384068" lon="-2.430386">
        <ele>10.0</ele>
        <time>2020-08-13T01:52:49Z</time>
      </trkpt>
      <trkpt lat="47.384113" lon="-2.430466">
        <ele>10.0</ele>
        <time>2020-08-13T01:52:50Z</time>
      </trkpt>
      <trkpt lat="47.384184" lon="-2.430432">
        <ele>9.2</ele>
        <time>2020-08-13T01:52:50Z</time>
      </trkpt>
      <trkpt lat="47.384184" lon="-2.430402">
        <ele>9.2</ele>
        <time>2020-08-13T01:52:51Z</time>
      </trkpt>
      <trkpt lat="47.384218" lon="-2.430335">
        <ele>9.2</ele>
        <time>2020-08-13T01:52:51Z</time>
      </trkpt>
      <trkpt lat="47.384276" lon="-2.43034">
        <ele>9.2</ele>
        <time>2020-08-13T01:52:52Z</time>
      </trkpt>
      <trkpt lat="47.384291" lon="-2.43036">
        <ele>9.2</ele>
        <time>2020-08-13T01:52:52Z</time>
      </trkpt>
      <trkpt lat="47.385468" lon="-2.429473">
        <ele>7.2</ele>
        <time>2020-08-13T01:53:03Z</time>
      </trkpt>
      <trkpt lat="47.386715" lon="-2.428579">
        <ele>9.8</ele>
        <time>2020-08-13T01:53:15Z</time>
      </trkpt>
      <trkpt lat="47.387582" lon="-2.427877">
        <ele>13.2</ele>
        <time>2020-08-13T01:53:23Z</time>
      </trkpt>
      <trkpt lat="47.388147" lon="-2.427379">
        <ele>10.2</ele>
        <time>2020-08-13T01:53:29Z</time>
      </trkpt>
      <trkpt lat="47.389066" lon="-2.426401">
        <ele>14.0</ele>
        <time>2020-08-13T01:53:39Z</time>
      </trkpt>
      <trkpt lat="47.389365" lon="-2.426048">
        <ele>17.0</ele>
        <time>2020-08-13T01:53:42Z</time>
      </trkpt>
      <trkpt lat="47.389777" lon="-2.425669">
        <ele>16.0</ele>
        <time>2020-08-13T01:53:46Z</time>
      </trkpt>
      <trkpt lat="47.390433" lon="-2.425225">
        <ele>16.4</ele>
        <time>2020-08-13T01:53:53Z</time>
      </trkpt>
      <trkpt lat="47.390562" lon="-2.425191">
        <ele>16.4</ele>
        <time>2020-08-13T01:53:54Z</time>
      </trkpt>
      <trkpt lat="47.390717" lon="-2.425247">
        <ele>16.4</ele>
        <time>2020-08-13T01:53:55Z</time>
      </trkpt>
      <trkpt lat="47.390762" lon="-2.425323">
        <ele>16.4</ele>
        <time>2020-08-13T01:53:56Z</time>
      </trkpt>
      <trkpt lat="47.390792" lon="-2.425448">
        <ele>16.4</ele>
        <time>2020-08-13T01:53:56Z</time>
      </trkpt>
      <trkpt lat="47.391111" lon="-2.425246">
        <ele>15.4</ele>
        <time>2020-08-13T01:54:00Z</time>
      </trkpt>
      <trkpt lat="47.391375" lon="-2.424824">
        <ele>15.0</ele>
        <time>2020-08-13T01:54:04Z</time>
      </trkpt>
      <trkpt lat="47.392057" lon="-2.424195">
        <ele>14.0</ele>
        <time>2020-08-13T01:54:12Z</time>
      </trkpt>
      <trkpt lat="47.392204" lon="-2.423966">
        <ele>13.8</ele>
        <time>2020-08-13T01:54:14Z</time>
      </trkpt>
      <trkpt lat="47.392518" lon="-2.423358">
        <ele>12.6</ele>
        <time>2020-08-13T01:54:20Z</time>
      </trkpt>
      <trkpt lat="47.392726" lon="-2.423101">
        <ele>12.2</ele>
        <time>2020-08-13T01:54:22Z</time>
      </trkpt>
      <trkpt lat="47.393093" lon="-2.422782">
        <ele>12.2</ele>
        <time>2020-08-13T01:54:27Z</time>
      </trkpt>
      <trkpt lat="47.393806" lon="-2.42235">
        <ele>9.8</ele>
        <time>2020-08-13T01:54:35Z</time>
      </trkpt>
      <trkpt lat="47.394081" lon="-2.422164">
        <ele>9.8</ele>
        <time>2020-08-13T01:54:38Z</time>
      </trkpt>
      <trkpt lat="47.39434" lon="-2.421942">
        <ele>8.8</ele>
        <time>2020-08-13T01:54:41Z</time>
      </trkpt>
      <trkpt lat="47.394892" lon="-2.421288">
        <ele>8.0</ele>
        <time>2020-08-13T01:54:48Z</time>
      </trkpt>
      <trkpt lat="47.39499" lon="-2.421067">
        <ele>8.0</ele>
        <time>2020-08-13T01:54:50Z</time>
      </trkpt>
      <trkpt lat="47.394967" lon="-2.421036">
        <ele>8.0</ele>
        <time>2020-08-13T01:54:50Z</time>
      </trkpt>
      <trkpt lat="47.394951" lon="-2.420932">
        <ele>8.0</ele>
        <time>2020-08-13T01:54:51Z</time>
      </trkpt>
      <trkpt lat="47.394976" lon="-2.420864">
        <ele>8.0</ele>
        <time>2020-08-13T01:54:51Z</time>
      </trkpt>
      <trkpt lat="47.395035" lon="-2.420826">
        <ele>7.8</ele>
        <time>2020-08-13T01:54:51Z</time>
      </trkpt>
      <trkpt lat="47.395068" lon="-2.420833">
        <ele>7.8</ele>
        <time>2020-08-13T01:54:51Z</time>
      </trkpt>
      <trkpt lat="47.395121" lon="-2.420906">
        <ele>7.6</ele>
        <time>2020-08-13T01:54:52Z</time>
      </trkpt>
      <trkpt lat="47.395255" lon="-2.42077">
        <ele>7.8</ele>
        <time>2020-08-13T01:54:53Z</time>
      </trkpt>
      <trkpt lat="47.395406" lon="-2.420491">
        <ele>7.8</ele>
        <time>2020-08-13T01:54:54Z</time>
      </trkpt>
      <trkpt lat="47.39595" lon="-2.419597">
        <ele>10.2</ele>
        <time>2020-08-13T01:54:59Z</time>
      </trkpt>
      <trkpt lat="47.396401" lon="-2.419089">
        <ele>11.4</ele>
        <time>2020-08-13T01:55:03Z</time>
      </trkpt>
      <trkpt lat="47.397002" lon="-2.418022">
        <ele>13.4</ele>
        <time>2020-08-13T01:55:08Z</time>
      </trkpt>
      <trkpt lat="47.397601" lon="-2.41703">
        <ele>12.6</ele>
        <time>2020-08-13T01:55:14Z</time>
      </trkpt>
      <trkpt lat="47.397993" lon="-2.416486">
        <ele>12.2</ele>
        <time>2020-08-13T01:55:17Z</time>
      </trkpt>
      <trkpt lat="47.398174" lon="-2.41615">
        <ele>12.2</ele>
        <time>2020-08-13T01:55:19Z</time>
      </trkpt>
      <trkpt lat="47.398331" lon="-2.415771">
        <ele>11.8</ele>
        <time>2020-08-13T01:55:20Z</time>
      </trkpt>
      <trkpt lat="47.398519" lon="-2.41518">
        <ele>11.4</ele>
        <time>2020-08-13T01:55:23Z</time>
      </trkpt>
      <trkpt lat="47.399298" lon="-2.412471">
        <ele>8.0</ele>
        <time>2020-08-13T01:55:35Z</time>
      </trkpt>
      <trkpt lat="47.401439" lon="-2.405666">
        <ele>6.0</ele>
        <time>2020-08-13T01:56:05Z</time>
      </trkpt>
      <trkpt lat="47.401717" lon="-2.405017">
        <ele>5.0</ele>
        <time>2020-08-13T01:56:08Z</time>
      </trkpt>
      <trkpt lat="47.40208" lon="-2.404408">
        <ele>5.8</ele>
        <time>2020-08-13T01:56:12Z</time>
      </trkpt>
      <trkpt lat="47.403142" lon="-2.402962">
        <ele>5.2</ele>
        <time>2020-08-13T01:56:20Z</time>
      </trkpt>
      <trkpt lat="47.404077" lon="-2.401274">
        <ele>4.6</ele>
        <time>2020-08-13T01:56:29Z</time>
      </trkpt>
      <trkpt lat="47.404383" lon="-2.400792">
        <ele>2.2</ele>
        <time>2020-08-13T01:56:32Z</time>
      </trkpt>
      <trkpt lat="47.405026" lon="-2.400188">
        <ele>0.6</ele>
        <time>2020-08-13T01:56:36Z</time>
      </trkpt>
      <trkpt lat="47.405773" lon="-2.39961">
        <ele>1.2</ele>
        <time>2020-08-13T01:56:41Z</time>
      </trkpt>
      <trkpt lat="47.406337" lon="-2.399346">
        <ele>0.8</ele>
        <time>2020-08-13T01:56:45Z</time>
      </trkpt>
      <trkpt lat="47.407243" lon="-2.398987">
        <ele>0.4</ele>
        <time>2020-08-13T01:56:51Z</time>
      </trkpt>
      <trkpt lat="47.408286" lon="-2.398668">
        <ele>0.4</ele>
        <time>2020-08-13T01:56:57Z</time>
      </trkpt>
      <trkpt lat="47.408884" lon="-2.398567">
        <ele>0.4</ele>
        <time>2020-08-13T01:57:01Z</time>
      </trkpt>
      <trkpt lat="47.40925" lon="-2.398533">
        <ele>0.0</ele>
        <time>2020-08-13T01:57:03Z</time>
      </trkpt>
      <trkpt lat="47.410013" lon="-2.398576">
        <ele>0.0</ele>
        <time>2020-08-13T01:57:07Z</time>
      </trkpt>
      <trkpt lat="47.410588" lon="-2.398533">
        <ele>0.0</ele>
        <time>2020-08-13T01:57:11Z</time>
      </trkpt>
      <trkpt lat="47.411679" lon="-2.39834">
        <ele>1.8</ele>
        <time>2020-08-13T01:57:17Z</time>
      </trkpt>
      <trkpt lat="47.412085" lon="-2.398323">
        <ele>2.6</ele>
        <time>2020-08-13T01:57:20Z</time>
      </trkpt>
      <trkpt lat="47.412605" lon="-2.398425">
        <ele>7.4</ele>
        <time>2020-08-13T01:57:23Z</time>
      </trkpt>
      <trkpt lat="47.413193" lon="-2.398753">
        <ele>7.4</ele>
        <time>2020-08-13T01:57:27Z</time>
      </trkpt>
      <trkpt lat="47.414801" lon="-2.399967">
        <ele>12.0</ele>
        <time>2020-08-13T01:57:38Z</time>
      </trkpt>
      <trkpt lat="47.415199" lon="-2.400238">
        <ele>11.2</ele>
        <time>2020-08-13T01:57:40Z</time>
      </trkpt>
      <trkpt lat="47.415488" lon="-2.400395">
        <ele>11.2</ele>
        <time>2020-08-13T01:57:42Z</time>
      </trkpt>
      <trkpt lat="47.415713" lon="-2.400466">
        <ele>11.2</ele>
        <time>2020-08-13T01:57:43Z</time>
      </trkpt>
      <trkpt lat="47.415806" lon="-2.40047">
        <ele>11.2</ele>
        <time>2020-08-13T01:57:44Z</time>
      </trkpt>
      <trkpt lat="47.416152" lon="-2.400373">
        <ele>11.2</ele>
        <time>2020-08-13T01:57:46Z</time>
      </trkpt>
      <trkpt lat="47.419574" lon="-2.398844">
        <ele>5.6</ele>
        <time>2020-08-13T01:58:07Z</time>
      </trkpt>
      <trkpt lat="47.419763" lon="-2.398649">
        <ele>5.6</ele>
        <time>2020-08-13T01:58:09Z</time>
      </trkpt>
      <trkpt lat="47.419837" lon="-2.398496">
        <ele>5.6</ele>
        <time>2020-08-13T01:58:10Z</time>
      </trkpt>
      <trkpt lat="47.419904" lon="-2.398169">
        <ele>4.6</ele>
        <time>2020-08-13T01:58:11Z</time>
      </trkpt>
      <trkpt lat="47.42011" lon="-2.396709">
        <ele>7.2</ele>
        <time>2020-08-13T01:58:17Z</time>
      </trkpt>
      <trkpt lat="47.420174" lon="-2.396528">
        <ele>6.8</ele>
        <time>2020-08-13T01:58:18Z</time>
      </trkpt>
      <trkpt lat="47.420257" lon="-2.396388">
        <ele>6.8</ele>
        <time>2020-08-13T01:58:19Z</time>
      </trkpt>
      <trkpt lat="47.420372" lon="-2.396285">
        <ele>6.8</ele>
        <time>2020-08-13T01:58:19Z</time>
      </trkpt>
      <trkpt lat="47.420563" lon="-2.396197">
        <ele>6.8</ele>
        <time>2020-08-13T01:58:21Z</time>
      </trkpt>
      <trkpt lat="47.421778" lon="-2.396239">
        <ele>9.4</ele>
        <time>2020-08-13T01:58:28Z</time>
      </trkpt>
      <trkpt lat="47.422148" lon="-2.396165">
        <ele>9.4</ele>
        <time>2020-08-13T01:58:30Z</time>
      </trkpt>
      <trkpt lat="47.423196" lon="-2.395807">
        <ele>6.4</ele>
        <time>2020-08-13T01:58:37Z</time>
      </trkpt>
      <trkpt lat="47.423822" lon="-2.395358">
        <ele>5.2</ele>
        <time>2020-08-13T01:58:41Z</time>
      </trkpt>
      <trkpt lat="47.425779" lon="-2.393837">
        <ele>8.2</ele>
        <time>2020-08-13T01:58:54Z</time>
      </trkpt>
      <trkpt lat="47.426266" lon="-2.393496">
        <ele>10.4</ele>
        <time>2020-08-13T01:58:57Z</time>
      </trkpt>
      <trkpt lat="47.426977" lon="-2.393173">
        <ele>10.8</ele>
        <time>2020-08-13T01:59:02Z</time>
      </trkpt>
      <trkpt lat="47.427277" lon="-2.392999">
        <ele>10.8</ele>
        <time>2020-08-13T01:59:04Z</time>
      </trkpt>
      <trkpt lat="47.42753" lon="-2.3927">
        <ele>9.2</ele>
        <time>2020-08-13T01:59:05Z</time>
      </trkpt>
      <trkpt lat="47.427919" lon="-2.392142">
        <ele>8.0</ele>
        <time>2020-08-13T01:59:09Z</time>
      </trkpt>
      <trkpt lat="47.428808" lon="-2.391008">
        <ele>9.4</ele>
        <time>2020-08-13T01:59:16Z</time>
      </trkpt>
      <trkpt lat="47.428817" lon="-2.390915">
        <ele>9.4</ele>
        <time>2020-08-13T01:59:16Z</time>
      </trkpt>
      <trkpt lat="47.428985" lon="-2.390329">
        <ele>11.6</ele>
        <time>2020-08-13T01:59:19Z</time>
      </trkpt>
      <trkpt lat="47.429101" lon="-2.390297">
        <ele>11.6</ele>
        <time>2020-08-13T01:59:20Z</time>
      </trkpt>
      <trkpt lat="47.429255" lon="-2.390695">
        <ele>13.8</ele>
        <time>2020-08-13T01:59:24Z</time>
      </trkpt>
      <trkpt lat="47.429281" lon="-2.390947">
        <ele>11.6</ele>
        <time>2020-08-13T01:59:27Z</time>
      </trkpt>
      <trkpt lat="47.429259" lon="-2.391026">
        <ele>11.6</ele>
        <time>2020-08-13T01:59:27Z</time>
      </trkpt>
      <trkpt lat="47.42931" lon="-2.391151">
        <ele>11.6</ele>
        <time>2020-08-13T01:59:29Z</time>
      </trkpt>
      <trkpt lat="47.430994" lon="-2.392422">
        <ele>8.8</ele>
        <time>2020-08-13T01:59:44Z</time>
      </trkpt>
      <trkpt lat="47.431243" lon="-2.392641">
        <ele>8.0</ele>
        <time>2020-08-13T01:59:46Z</time>
      </trkpt>
      <trkpt lat="47.431342" lon="-2.392756">
        <ele>8.0</ele>
        <time>2020-08-13T01:59:47Z</time>
      </trkpt>
      <trkpt lat="47.431601" lon="-2.393614">
        <ele>8.6</ele>
        <time>2020-08-13T01:59:52Z</time>
      </trkpt>
      <trkpt lat="47.431815" lon="-2.39403">
        <ele>9.2</ele>
        <time>2020-08-13T01:59:55Z</time>
      </trkpt>
      <trkpt lat="47.433216" lon="-2.396145">
        <ele>7.8</ele>
        <time>2020-08-13T02:00:11Z</time>
      </trkpt>
      <trkpt lat="47.433463" lon="-2.396597">
        <ele>9.0</ele>
        <time>2020-08-13T02:00:14Z</time>
      </trkpt>
      <trkpt lat="47.433897" lon="-2.39761">
        <ele>11.0</ele>
        <time>2020-08-13T02:00:21Z</time>
      </trkpt>
      <trkpt lat="47.434005" lon="-2.397732">
        <ele>11.0</ele>
        <time>2020-08-13T02:00:22Z</time>
      </trkpt>
      <trkpt lat="47.434172" lon="-2.397825">
        <ele>13.4</ele>
        <time>2020-08-13T02:00:23Z</time>
      </trkpt>
      <trkpt lat="47.434935" lon="-2.397858">
        <ele>13.4</ele>
        <time>2020-08-13T02:00:29Z</time>
      </trkpt>
      <trkpt lat="47.435413" lon="-2.397941">
        <ele>15.0</ele>
        <time>2020-08-13T02:00:33Z</time>
      </trkpt>
      <trkpt lat="47.436196" lon="-2.398142">
        <ele>18.2</ele>
        <time>2020-08-13T02:00:39Z</time>
      </trkpt>
      <trkpt lat="47.43649" lon="-2.398293">
        <ele>18.2</ele>
        <time>2020-08-13T02:00:42Z</time>
      </trkpt>
      <trkpt lat="47.437955" lon="-2.399364">
        <ele>24.2</ele>
        <time>2020-08-13T02:00:55Z</time>
      </trkpt>
      <trkpt lat="47.439074" lon="-2.400304">
        <ele>25.4</ele>
        <time>2020-08-13T02:01:05Z</time>
      </trkpt>
      <trkpt lat="47.440185" lon="-2.401374">
        <ele>27.4</ele>
        <time>2020-08-13T02:01:16Z</time>
      </trkpt>
      <trkpt lat="47.441127" lon="-2.40215">
        <ele>27.2</ele>
        <time>2020-08-13T02:01:25Z</time>
      </trkpt>
      <trkpt lat="47.441469" lon="-2.402504">
        <ele>24.2</ele>
        <time>2020-08-13T02:01:28Z</time>
      </trkpt>
      <trkpt lat="47.441852" lon="-2.403106">
        <ele>27.6</ele>
        <time>2020-08-13T02:01:32Z</time>
      </trkpt>
      <trkpt lat="47.442539" lon="-2.404391">
        <ele>29.6</ele>
        <time>2020-08-13T02:01:41Z</time>
      </trkpt>
      <trkpt lat="47.443152" lon="-2.405432">
        <ele>28.0</ele>
        <time>2020-08-13T02:01:49Z</time>
      </trkpt>
      <trkpt lat="47.44379" lon="-2.406342">
        <ele>31.4</ele>
        <time>2020-08-13T02:01:56Z</time>
      </trkpt>
      <trkpt lat="47.443904" lon="-2.406251">
        <ele>31.4</ele>
        <time>2020-08-13T02:01:57Z</time>
      </trkpt>
      <trkpt lat="47.447647" lon="-2.403869">
        <ele>50.4</ele>
        <time>2020-08-13T02:02:44Z</time>
      </trkpt>
      <trkpt lat="47.447908" lon="-2.403772">
        <ele>50.4</ele>
        <time>2020-08-13T02:02:47Z</time>
      </trkpt>
      <trkpt lat="47.451282" lon="-2.403751">
        <ele>46.4</ele>
        <time>2020-08-13T02:03:26Z</time>
      </trkpt>
      <trkpt lat="47.452748" lon="-2.403676">
        <ele>40.8</ele>
        <time>2020-08-13T02:03:43Z</time>
      </trkpt>
      <trkpt lat="47.456814" lon="-2.403399">
        <ele>27.8</ele>
        <time>2020-08-13T02:04:30Z</time>
      </trkpt>
      <trkpt lat="47.456972" lon="-2.403351">
        <ele>27.8</ele>
        <time>2020-08-13T02:04:32Z</time>
      </trkpt>
      <trkpt lat="47.457355" lon="-2.403159">
        <ele>26.8</ele>
        <time>2020-08-13T02:04:36Z</time>
      </trkpt>
      <trkpt lat="47.45824" lon="-2.402569">
        <ele>23.6</ele>
        <time>2020-08-13T02:04:48Z</time>
      </trkpt>
      <trkpt lat="47.45907" lon="-2.401889">
        <ele>21.8</ele>
        <time>2020-08-13T02:04:59Z</time>
      </trkpt>
      <trkpt lat="47.460234" lon="-2.400802">
        <ele>19.6</ele>
        <time>2020-08-13T02:05:14Z</time>
      </trkpt>
      <trkpt lat="47.460446" lon="-2.400705">
        <ele>19.6</ele>
        <time>2020-08-13T02:05:17Z</time>
      </trkpt>
      <trkpt lat="47.460725" lon="-2.400736">
        <ele>19.6</ele>
        <time>2020-08-13T02:05:20Z</time>
      </trkpt>
      <trkpt lat="47.461609" lon="-2.401113">
        <ele>19.2</ele>
        <time>2020-08-13T02:05:31Z</time>
      </trkpt>
      <trkpt lat="47.461768" lon="-2.401154">
        <ele>23.6</ele>
        <time>2020-08-13T02:05:33Z</time>
      </trkpt>
      <trkpt lat="47.461939" lon="-2.401154">
        <ele>23.6</ele>
        <time>2020-08-13T02:05:35Z</time>
      </trkpt>
      <trkpt lat="47.465457" lon="-2.400175">
        <ele>34.6</ele>
        <time>2020-08-13T02:06:16Z</time>
      </trkpt>
      <trkpt lat="47.465703" lon="-2.400092">
        <ele>34.6</ele>
        <time>2020-08-13T02:06:19Z</time>
      </trkpt>
      <trkpt lat="47.469336" lon="-2.399326">
        <ele>39.4</ele>
        <time>2020-08-13T02:07:01Z</time>
      </trkpt>
      <trkpt lat="47.469539" lon="-2.399258">
        <ele>39.4</ele>
        <time>2020-08-13T02:07:03Z</time>
      </trkpt>
      <trkpt lat="47.469659" lon="-2.399165">
        <ele>37.4</ele>
        <time>2020-08-13T02:07:05Z</time>
      </trkpt>
      <trkpt lat="47.469774" lon="-2.398979">
        <ele>37.4</ele>
        <time>2020-08-13T02:07:07Z</time>
      </trkpt>
      <trkpt lat="47.469849" lon="-2.398711">
        <ele>37.4</ele>
        <time>2020-08-13T02:07:09Z</time>
      </trkpt>
      <trkpt lat="47.469997" lon="-2.396723">
        <ele>36.2</ele>
        <time>2020-08-13T02:07:25Z</time>
      </trkpt>
      <trkpt lat="47.470055" lon="-2.396369">
        <ele>36.4</ele>
        <time>2020-08-13T02:07:28Z</time>
      </trkpt>
      <trkpt lat="47.470171" lon="-2.396084">
        <ele>36.4</ele>
        <time>2020-08-13T02:07:30Z</time>
      </trkpt>
      <trkpt lat="47.470277" lon="-2.395945">
        <ele>36.4</ele>
        <time>2020-08-13T02:07:32Z</time>
      </trkpt>
      <trkpt lat="47.470437" lon="-2.395807">
        <ele>37.6</ele>
        <time>2020-08-13T02:07:35Z</time>
      </trkpt>
      <trkpt lat="47.470615" lon="-2.395761">
        <ele>37.6</ele>
        <time>2020-08-13T02:07:38Z</time>
      </trkpt>
      <trkpt lat="47.472895" lon="-2.395921">
        <ele>33.0</ele>
        <time>2020-08-13T02:08:10Z</time>
      </trkpt>
      <trkpt lat="47.475617" lon="-2.396069">
        <ele>29.6</ele>
        <time>2020-08-13T02:08:49Z</time>
      </trkpt>
      <trkpt lat="47.476915" lon="-2.396283">
        <ele>26.2</ele>
        <time>2020-08-13T02:09:08Z</time>
      </trkpt>
      <trkpt lat="47.47735" lon="-2.396337">
        <ele>26.2</ele>
        <time>2020-08-13T02:09:14Z</time>
      </trkpt>
      <trkpt lat="47.48017" lon="-2.396835">
        <ele>24.8</ele>
        <time>2020-08-13T02:09:55Z</time>
      </trkpt>
      <trkpt lat="47.480491" lon="-2.396959">
        <ele>24.8</ele>
        <time>2020-08-13T02:10:00Z</time>
      </trkpt>
      <trkpt lat="47.480756" lon="-2.39697">
        <ele>24.8</ele>
        <time>2020-08-13T02:10:04Z</time>
      </trkpt>
      <trkpt lat="47.481235" lon="-2.396904">
        <ele>27.2</ele>
        <time>2020-08-13T02:10:11Z</time>
      </trkpt>
      <trkpt lat="47.48136" lon="-2.396555">
        <ele>28.8</ele>
        <time>2020-08-13T02:10:13Z</time>
      </trkpt>
      <trkpt lat="47.48152" lon="-2.395842">
        <ele>28.8</ele>
        <time>2020-08-13T02:10:18Z</time>
      </trkpt>
      <trkpt lat="47.481649" lon="-2.395443">
        <ele>30.4</ele>
        <time>2020-08-13T02:10:21Z</time>
      </trkpt>
      <trkpt lat="47.48174" lon="-2.39507">
        <ele>29.6</ele>
        <time>2020-08-13T02:10:24Z</time>
      </trkpt>
      <trkpt lat="47.481983" lon="-2.392784">
        <ele>34.2</ele>
        <time>2020-08-13T02:10:39Z</time>
      </trkpt>
      <trkpt lat="47.48212" lon="-2.392108">
        <ele>34.8</ele>
        <time>2020-08-13T02:10:44Z</time>
      </trkpt>
      <trkpt lat="47.482452" lon="-2.390809">
        <ele>34.4</ele>
        <time>2020-08-13T02:10:53Z</time>
      </trkpt>
      <trkpt lat="47.482761" lon="-2.389352">
        <ele>33.0</ele>
        <time>2020-08-13T02:11:03Z</time>
      </trkpt>
      <trkpt lat="47.48292" lon="-2.388464">
        <ele>33.2</ele>
        <time>2020-08-13T02:11:09Z</time>
      </trkpt>
      <trkpt lat="47.482982" lon="-2.387553">
        <ele>33.0</ele>
        <time>2020-08-13T02:11:15Z</time>
      </trkpt>
      <trkpt lat="47.48299" lon="-2.386481">
        <ele>33.2</ele>
        <time>2020-08-13T02:11:22Z</time>
      </trkpt>
      <trkpt lat="47.48297" lon="-2.385983">
        <ele>33.2</ele>
        <time>2020-08-13T02:11:26Z</time>
      </trkpt>
      <trkpt lat="47.482925" lon="-2.385912">
        <ele>33.2</ele>
        <time>2020-08-13T02:11:26Z</time>
      </trkpt>
      <trkpt lat="47.482894" lon="-2.385825">
        <ele>35.0</ele>
        <time>2020-08-13T02:11:27Z</time>
      </trkpt>
      <trkpt lat="47.482881" lon="-2.385729">
        <ele>35.0</ele>
        <time>2020-08-13T02:11:28Z</time>
      </trkpt>
      <trkpt lat="47.48289" lon="-2.385613">
        <ele>35.0</ele>
        <time>2020-08-13T02:11:28Z</time>
      </trkpt>
      <trkpt lat="47.482925" lon="-2.385509">
        <ele>35.0</ele>
        <time>2020-08-13T02:11:29Z</time>
      </trkpt>
      <trkpt lat="47.482991" lon="-2.385416">
        <ele>35.0</ele>
        <time>2020-08-13T02:11:30Z</time>
      </trkpt>
      <trkpt lat="47.483065" lon="-2.385371">
        <ele>35.0</ele>
        <time>2020-08-13T02:11:31Z</time>
      </trkpt>
      <trkpt lat="47.483145" lon="-2.385366">
        <ele>35.0</ele>
        <time>2020-08-13T02:11:32Z</time>
      </trkpt>
      <trkpt lat="47.483259" lon="-2.385435">
        <ele>35.0</ele>
        <time>2020-08-13T02:11:33Z</time>
      </trkpt>
      <trkpt lat="47.483303" lon="-2.3855">
        <ele>35.0</ele>
        <time>2020-08-13T02:11:33Z</time>
      </trkpt>
      <trkpt lat="47.483541" lon="-2.385571">
        <ele>33.2</ele>
        <time>2020-08-13T02:11:36Z</time>
      </trkpt>
      <trkpt lat="47.484055" lon="-2.385922">
        <ele>32.4</ele>
        <time>2020-08-13T02:11:41Z</time>
      </trkpt>
      <trkpt lat="47.484572" lon="-2.386184">
        <ele>33.2</ele>
        <time>2020-08-13T02:11:47Z</time>
      </trkpt>
      <trkpt lat="47.48892" lon="-2.387793">
        <ele>27.0</ele>
        <time>2020-08-13T02:12:31Z</time>
      </trkpt>
      <trkpt lat="47.49005" lon="-2.38817">
        <ele>23.6</ele>
        <time>2020-08-13T02:12:42Z</time>
      </trkpt>
      <trkpt lat="47.490347" lon="-2.38824">
        <ele>23.6</ele>
        <time>2020-08-13T02:12:45Z</time>
      </trkpt>
      <trkpt lat="47.490892" lon="-2.388307">
        <ele>24.2</ele>
        <time>2020-08-13T02:12:50Z</time>
      </trkpt>
      <trkpt lat="47.491298" lon="-2.388326">
        <ele>24.2</ele>
        <time>2020-08-13T02:12:54Z</time>
      </trkpt>
      <trkpt lat="47.491988" lon="-2.388263">
        <ele>23.6</ele>
        <time>2020-08-13T02:13:01Z</time>
      </trkpt>
      <trkpt lat="47.492336" lon="-2.388165">
        <ele>23.6</ele>
        <time>2020-08-13T02:13:05Z</time>
      </trkpt>
      <trkpt lat="47.493126" lon="-2.3879">
        <ele>21.0</ele>
        <time>2020-08-13T02:13:13Z</time>
      </trkpt>
      <trkpt lat="47.4947" lon="-2.387299">
        <ele>14.8</ele>
        <time>2020-08-13T02:13:29Z</time>
      </trkpt>
      <trkpt lat="47.49556" lon="-2.386997">
        <ele>14.6</ele>
        <time>2020-08-13T02:13:37Z</time>
      </trkpt>
      <trkpt lat="47.495824" lon="-2.386845">
        <ele>14.6</ele>
        <time>2020-08-13T02:13:40Z</time>
      </trkpt>
      <trkpt lat="47.496328" lon="-2.386491">
        <ele>15.0</ele>
        <time>2020-08-13T02:13:46Z</time>
      </trkpt>
      <trkpt lat="47.496537" lon="-2.386285">
        <ele>15.0</ele>
        <time>2020-08-13T02:13:48Z</time>
      </trkpt>
      <trkpt lat="47.496854" lon="-2.385929">
        <ele>12.6</ele>
        <time>2020-08-13T02:13:52Z</time>
      </trkpt>
      <trkpt lat="47.499965" lon="-2.38177">
        <ele>0.0</ele>
        <time>2020-08-13T02:14:33Z</time>
      </trkpt>
      <trkpt lat="47.500419" lon="-2.381213">
        <ele>1.8</ele>
        <time>2020-08-13T02:14:39Z</time>
      </trkpt>
      <trkpt lat="47.501053" lon="-2.380326">
        <ele>5.4</ele>
        <time>2020-08-13T02:14:47Z</time>
      </trkpt>
      <trkpt lat="47.501375" lon="-2.379907">
        <ele>6.6</ele>
        <time>2020-08-13T02:14:52Z</time>
      </trkpt>
      <trkpt lat="47.501533" lon="-2.379784">
        <ele>6.6</ele>
        <time>2020-08-13T02:14:53Z</time>
      </trkpt>
      <trkpt lat="47.501631" lon="-2.37973">
        <ele>6.6</ele>
        <time>2020-08-13T02:14:54Z</time>
      </trkpt>
      <trkpt lat="47.501755" lon="-2.379696">
        <ele>7.8</ele>
        <time>2020-08-13T02:14:56Z</time>
      </trkpt>
      <trkpt lat="47.501741" lon="-2.379618">
        <ele>7.8</ele>
        <time>2020-08-13T02:14:56Z</time>
      </trkpt>
      <trkpt lat="47.501764" lon="-2.379464">
        <ele>7.8</ele>
        <time>2020-08-13T02:14:57Z</time>
      </trkpt>
      <trkpt lat="47.501797" lon="-2.379402">
        <ele>7.8</ele>
        <time>2020-08-13T02:14:58Z</time>
      </trkpt>
      <trkpt lat="47.501897" lon="-2.379334">
        <ele>7.8</ele>
        <time>2020-08-13T02:14:59Z</time>
      </trkpt>
      <trkpt lat="47.502004" lon="-2.379365">
        <ele>7.8</ele>
        <time>2020-08-13T02:15:00Z</time>
      </trkpt>
      <trkpt lat="47.502048" lon="-2.379416">
        <ele>7.8</ele>
        <time>2020-08-13T02:15:01Z</time>
      </trkpt>
      <trkpt lat="47.502257" lon="-2.37907">
        <ele>8.4</ele>
        <time>2020-08-13T02:15:04Z</time>
      </trkpt>
      <trkpt lat="47.50242" lon="-2.378899">
        <ele>8.4</ele>
        <time>2020-08-13T02:15:06Z</time>
      </trkpt>
      <trkpt lat="47.50285" lon="-2.378613">
        <ele>8.2</ele>
        <time>2020-08-13T02:15:11Z</time>
      </trkpt>
      <trkpt lat="47.503182" lon="-2.378447">
        <ele>8.2</ele>
        <time>2020-08-13T02:15:15Z</time>
      </trkpt>
      <trkpt lat="47.5035" lon="-2.378309">
        <ele>8.6</ele>
        <time>2020-08-13T02:15:19Z</time>
      </trkpt>
      <trkpt lat="47.503871" lon="-2.378184">
        <ele>8.6</ele>
        <time>2020-08-13T02:15:23Z</time>
      </trkpt>
      <trkpt lat="47.504468" lon="-2.378069">
        <ele>11.4</ele>
        <time>2020-08-13T02:15:29Z</time>
      </trkpt>
      <trkpt lat="47.50546" lon="-2.378018">
        <ele>17.0</ele>
        <time>2020-08-13T02:15:40Z</time>
      </trkpt>
      <trkpt lat="47.507801" lon="-2.377854">
        <ele>29.2</ele>
        <time>2020-08-13T02:16:04Z</time>
      </trkpt>
      <trkpt lat="47.508249" lon="-2.377797">
        <ele>29.2</ele>
        <time>2020-08-13T02:16:09Z</time>
      </trkpt>
      <trkpt lat="47.508762" lon="-2.377676">
        <ele>32.6</ele>
        <time>2020-08-13T02:16:15Z</time>
      </trkpt>
      <trkpt lat="47.509068" lon="-2.377555">
        <ele>32.6</ele>
        <time>2020-08-13T02:16:18Z</time>
      </trkpt>
      <trkpt lat="47.509387" lon="-2.377388">
        <ele>34.8</ele>
        <time>2020-08-13T02:16:22Z</time>
      </trkpt>
      <trkpt lat="47.510087" lon="-2.376947">
        <ele>37.4</ele>
        <time>2020-08-13T02:16:30Z</time>
      </trkpt>
      <trkpt lat="47.510684" lon="-2.376404">
        <ele>37.4</ele>
        <time>2020-08-13T02:16:37Z</time>
      </trkpt>
      <trkpt lat="47.510919" lon="-2.37615">
        <ele>37.4</ele>
        <time>2020-08-13T02:16:40Z</time>
      </trkpt>
      <trkpt lat="47.511153" lon="-2.375859">
        <ele>37.4</ele>
        <time>2020-08-13T02:16:43Z</time>
      </trkpt>
      <trkpt lat="47.513159" lon="-2.373154">
        <ele>34.4</ele>
        <time>2020-08-13T02:17:12Z</time>
      </trkpt>
      <trkpt lat="47.513438" lon="-2.372827">
        <ele>35.8</ele>
        <time>2020-08-13T02:17:16Z</time>
      </trkpt>
      <trkpt lat="47.51391" lon="-2.372335">
        <ele>34.6</ele>
        <time>2020-08-13T02:17:22Z</time>
      </trkpt>
      <trkpt lat="47.514291" lon="-2.372031">
        <ele>36.4</ele>
        <time>2020-08-13T02:17:27Z</time>
      </trkpt>
      <trkpt lat="47.514777" lon="-2.371735">
        <ele>36.4</ele>
        <time>2020-08-13T02:17:32Z</time>
      </trkpt>
      <trkpt lat="47.515018" lon="-2.371622">
        <ele>38.2</ele>
        <time>2020-08-13T02:17:35Z</time>
      </trkpt>
      <trkpt lat="47.51532" lon="-2.371498">
        <ele>38.2</ele>
        <time>2020-08-13T02:17:38Z</time>
      </trkpt>
      <trkpt lat="47.515925" lon="-2.371335">
        <ele>41.0</ele>
        <time>2020-08-13T02:17:45Z</time>
      </trkpt>
      <trkpt lat="47.51657" lon="-2.371279">
        <ele>41.0</ele>
        <time>2020-08-13T02:17:52Z</time>
      </trkpt>
      <trkpt lat="47.516959" lon="-2.371318">
        <ele>43.0</ele>
        <time>2020-08-13T02:17:56Z</time>
      </trkpt>
      <trkpt lat="47.51718" lon="-2.37138">
        <ele>43.0</ele>
        <time>2020-08-13T02:17:58Z</time>
      </trkpt>
      <trkpt lat="47.517343" lon="-2.371374">
        <ele>43.0</ele>
        <time>2020-08-13T02:18:00Z</time>
      </trkpt>
      <trkpt lat="47.517384" lon="-2.371324">
        <ele>43.0</ele>
        <time>2020-08-13T02:18:00Z</time>
      </trkpt>
      <trkpt lat="47.517436" lon="-2.371316">
        <ele>43.0</ele>
        <time>2020-08-13T02:18:01Z</time>
      </trkpt>
      <trkpt lat="47.517483" lon="-2.371353">
        <ele>43.0</ele>
        <time>2020-08-13T02:18:01Z</time>
      </trkpt>
      <trkpt lat="47.517509" lon="-2.371422">
        <ele>45.2</ele>
        <time>2020-08-13T02:18:01Z</time>
      </trkpt>
      <trkpt lat="47.517756" lon="-2.371565">
        <ele>45.2</ele>
        <time>2020-08-13T02:18:03Z</time>
      </trkpt>
      <trkpt lat="47.518024" lon="-2.371662">
        <ele>45.2</ele>
        <time>2020-08-13T02:18:05Z</time>
      </trkpt>
      <trkpt lat="47.518475" lon="-2.371924">
        <ele>47.2</ele>
        <time>2020-08-13T02:18:08Z</time>
      </trkpt>
      <trkpt lat="47.518942" lon="-2.372256">
        <ele>47.2</ele>
        <time>2020-08-13T02:18:12Z</time>
      </trkpt>
      <trkpt lat="47.519408" lon="-2.372699">
        <ele>47.8</ele>
        <time>2020-08-13T02:18:15Z</time>
      </trkpt>
      <trkpt lat="47.519707" lon="-2.373032">
        <ele>47.8</ele>
        <time>2020-08-13T02:18:18Z</time>
      </trkpt>
      <trkpt lat="47.525553" lon="-2.380209">
        <ele>42.6</ele>
        <time>2020-08-13T02:19:08Z</time>
      </trkpt>
      <trkpt lat="47.526003" lon="-2.380809">
        <ele>44.4</ele>
        <time>2020-08-13T02:19:12Z</time>
      </trkpt>
      <trkpt lat="47.526593" lon="-2.381709">
        <ele>45.2</ele>
        <time>2020-08-13T02:19:18Z</time>
      </trkpt>
      <trkpt lat="47.531935" lon="-2.3918">
        <ele>54.0</ele>
        <time>2020-08-13T02:20:16Z</time>
      </trkpt>
      <trkpt lat="47.53256" lon="-2.392931">
        <ele>51.4</ele>
        <time>2020-08-13T02:20:22Z</time>
      </trkpt>
      <trkpt lat="47.532891" lon="-2.393398">
        <ele>51.8</ele>
        <time>2020-08-13T02:20:25Z</time>
      </trkpt>
      <trkpt lat="47.533456" lon="-2.394117">
        <ele>50.4</ele>
        <time>2020-08-13T02:20:30Z</time>
      </trkpt>
      <trkpt lat="47.533983" lon="-2.394746">
        <ele>51.0</ele>
        <time>2020-08-13T02:20:35Z</time>
      </trkpt>
      <trkpt lat="47.53433" lon="-2.395139">
        <ele>51.4</ele>
        <time>2020-08-13T02:20:37Z</time>
      </trkpt>
      <trkpt lat="47.534578" lon="-2.39533">
        <ele>51.4</ele>
        <time>2020-08-13T02:20:39Z</time>
      </trkpt>
      <trkpt lat="47.534922" lon="-2.395724">
        <ele>51.4</ele>
        <time>2020-08-13T02:20:42Z</time>
      </trkpt>
      <trkpt lat="47.535039" lon="-2.395692">
        <ele>51.8</ele>
        <time>2020-08-13T02:20:43Z</time>
      </trkpt>
      <trkpt lat="47.53512" lon="-2.395715">
        <ele>51.8</ele>
        <time>2020-08-13T02:20:43Z</time>
      </trkpt>
      <trkpt lat="47.535191" lon="-2.395773">
        <ele>51.8</ele>
        <time>2020-08-13T02:20:44Z</time>
      </trkpt>
      <trkpt lat="47.535248" lon="-2.395861">
        <ele>52.2</ele>
        <time>2020-08-13T02:20:44Z</time>
      </trkpt>
      <trkpt lat="47.535277" lon="-2.395942">
        <ele>52.2</ele>
        <time>2020-08-13T02:20:44Z</time>
      </trkpt>
      <trkpt lat="47.53539" lon="-2.396011">
        <ele>52.2</ele>
        <time>2020-08-13T02:20:45Z</time>
      </trkpt>
      <trkpt lat="47.535616" lon="-2.396064">
        <ele>52.2</ele>
        <time>2020-08-13T02:20:46Z</time>
      </trkpt>
      <trkpt lat="47.535768" lon="-2.396138">
        <ele>52.2</ele>
        <time>2020-08-13T02:20:47Z</time>
      </trkpt>
      <trkpt lat="47.536136" lon="-2.396393">
        <ele>53.2</ele>
        <time>2020-08-13T02:20:49Z</time>
      </trkpt>
      <trkpt lat="47.536451" lon="-2.39658">
        <ele>53.2</ele>
        <time>2020-08-13T02:20:51Z</time>
      </trkpt>
      <trkpt lat="47.538187" lon="-2.397538">
        <ele>50.2</ele>
        <time>2020-08-13T02:21:00Z</time>
      </trkpt>
      <trkpt lat="47.538826" lon="-2.397853">
        <ele>48.8</ele>
        <time>2020-08-13T02:21:04Z</time>
      </trkpt>
      <trkpt lat="47.53896" lon="-2.397866">
        <ele>48.8</ele>
        <time>2020-08-13T02:21:05Z</time>
      </trkpt>
      <trkpt lat="47.539045" lon="-2.397764">
        <ele>48.8</ele>
        <time>2020-08-13T02:21:06Z</time>
      </trkpt>
      <trkpt lat="47.539065" lon="-2.397682">
        <ele>48.8</ele>
        <time>2020-08-13T02:21:06Z</time>
      </trkpt>
      <trkpt lat="47.539071" lon="-2.397499">
        <ele>49.2</ele>
        <time>2020-08-13T02:21:07Z</time>
      </trkpt>
      <trkpt lat="47.539009" lon="-2.397332">
        <ele>49.2</ele>
        <time>2020-08-13T02:21:08Z</time>
      </trkpt>
      <trkpt lat="47.538907" lon="-2.397247">
        <ele>49.2</ele>
        <time>2020-08-13T02:21:09Z</time>
      </trkpt>
      <trkpt lat="47.538582" lon="-2.397114">
        <ele>49.2</ele>
        <time>2020-08-13T02:21:12Z</time>
      </trkpt>
      <trkpt lat="47.538416" lon="-2.396986">
        <ele>49.2</ele>
        <time>2020-08-13T02:21:14Z</time>
      </trkpt>
      <trkpt lat="47.538278" lon="-2.396819">
        <ele>51.6</ele>
        <time>2020-08-13T02:21:16Z</time>
      </trkpt>
      <trkpt lat="47.537723" lon="-2.395543">
        <ele>52.0</ele>
        <time>2020-08-13T02:21:25Z</time>
      </trkpt>
      <trkpt lat="47.537595" lon="-2.395349">
        <ele>52.0</ele>
        <time>2020-08-13T02:21:27Z</time>
      </trkpt>
      <trkpt lat="47.537501" lon="-2.395251">
        <ele>52.0</ele>
        <time>2020-08-13T02:21:28Z</time>
      </trkpt>
      <trkpt lat="47.537373" lon="-2.395195">
        <ele>52.6</ele>
        <time>2020-08-13T02:21:29Z</time>
      </trkpt>
      <trkpt lat="47.537224" lon="-2.395223">
        <ele>52.6</ele>
        <time>2020-08-13T02:21:30Z</time>
      </trkpt>
      <trkpt lat="47.537093" lon="-2.395322">
        <ele>52.6</ele>
        <time>2020-08-13T02:21:32Z</time>
      </trkpt>
      <trkpt lat="47.537022" lon="-2.395405">
        <ele>52.6</ele>
        <time>2020-08-13T02:21:33Z</time>
      </trkpt>
      <trkpt lat="47.536942" lon="-2.3956">
        <ele>52.6</ele>
        <time>2020-08-13T02:21:34Z</time>
      </trkpt>
      <trkpt lat="47.536916" lon="-2.3957">
        <ele>52.6</ele>
        <time>2020-08-13T02:21:35Z</time>
      </trkpt>
      <trkpt lat="47.536892" lon="-2.39583">
        <ele>52.6</ele>
        <time>2020-08-13T02:21:35Z</time>
      </trkpt>
      <trkpt lat="47.536864" lon="-2.39623">
        <ele>53.2</ele>
        <time>2020-08-13T02:21:38Z</time>
      </trkpt>
      <trkpt lat="47.536815" lon="-2.396282">
        <ele>53.2</ele>
        <time>2020-08-13T02:21:38Z</time>
      </trkpt>
      <trkpt lat="47.536385" lon="-2.402001">
        <ele>50.2</ele>
        <time>2020-08-13T02:21:56Z</time>
      </trkpt>
      <trkpt lat="47.536305" lon="-2.403238">
        <ele>50.0</ele>
        <time>2020-08-13T02:22:00Z</time>
      </trkpt>
      <trkpt lat="47.536278" lon="-2.404261">
        <ele>50.6</ele>
        <time>2020-08-13T02:22:03Z</time>
      </trkpt>
      <trkpt lat="47.536295" lon="-2.405277">
        <ele>51.8</ele>
        <time>2020-08-13T02:22:07Z</time>
      </trkpt>
      <trkpt lat="47.536344" lon="-2.406137">
        <ele>52.8</ele>
        <time>2020-08-13T02:22:09Z</time>
      </trkpt>
      <trkpt lat="47.536445" lon="-2.407168">
        <ele>53.6</ele>
        <time>2020-08-13T02:22:12Z</time>
      </trkpt>
      <trkpt lat="47.536565" lon="-2.408018">
        <ele>53.0</ele>
        <time>2020-08-13T02:22:15Z</time>
      </trkpt>
      <trkpt lat="47.536681" lon="-2.408701">
        <ele>51.2</ele>
        <time>2020-08-13T02:22:17Z</time>
      </trkpt>
      <trkpt lat="47.536889" lon="-2.40968">
        <ele>51.0</ele>
        <time>2020-08-13T02:22:21Z</time>
      </trkpt>
      <trkpt lat="47.537192" lon="-2.410831">
        <ele>51.0</ele>
        <time>2020-08-13T02:22:24Z</time>
      </trkpt>
      <trkpt lat="47.537689" lon="-2.412578">
        <ele>48.2</ele>
        <time>2020-08-13T02:22:30Z</time>
      </trkpt>
      <trkpt lat="47.538804" lon="-2.416404">
        <ele>47.8</ele>
        <time>2020-08-13T02:22:43Z</time>
      </trkpt>
      <trkpt lat="47.542066" lon="-2.427728">
        <ele>42.0</ele>
        <time>2020-08-13T02:23:22Z</time>
      </trkpt>
      <trkpt lat="47.542399" lon="-2.428863">
        <ele>40.6</ele>
        <time>2020-08-13T02:23:25Z</time>
      </trkpt>
      <trkpt lat="47.542877" lon="-2.430408">
        <ele>36.8</ele>
        <time>2020-08-13T02:23:31Z</time>
      </trkpt>
      <trkpt lat="47.543392" lon="-2.431951">
        <ele>35.4</ele>
        <time>2020-08-13T02:23:36Z</time>
      </trkpt>
      <trkpt lat="47.544222" lon="-2.43427">
        <ele>36.6</ele>
        <time>2020-08-13T02:23:44Z</time>
      </trkpt>
      <trkpt lat="47.546964" lon="-2.441312">
        <ele>25.2</ele>
        <time>2020-08-13T02:24:09Z</time>
      </trkpt>
      <trkpt lat="47.547349" lon="-2.442406">
        <ele>24.0</ele>
        <time>2020-08-13T02:24:13Z</time>
      </trkpt>
      <trkpt lat="47.547776" lon="-2.443806">
        <ele>16.6</ele>
        <time>2020-08-13T02:24:18Z</time>
      </trkpt>
      <trkpt lat="47.548154" lon="-2.445273">
        <ele>18.2</ele>
        <time>2020-08-13T02:24:23Z</time>
      </trkpt>
      <trkpt lat="47.5485" lon="-2.446921">
        <ele>18.2</ele>
        <time>2020-08-13T02:24:28Z</time>
      </trkpt>
      <trkpt lat="47.548703" lon="-2.448114">
        <ele>22.0</ele>
        <time>2020-08-13T02:24:32Z</time>
      </trkpt>
      <trkpt lat="47.548867" lon="-2.449297">
        <ele>28.6</ele>
        <time>2020-08-13T02:24:36Z</time>
      </trkpt>
      <trkpt lat="47.549026" lon="-2.450834">
        <ele>31.8</ele>
        <time>2020-08-13T02:24:41Z</time>
      </trkpt>
      <trkpt lat="47.549085" lon="-2.451714">
        <ele>29.4</ele>
        <time>2020-08-13T02:24:43Z</time>
      </trkpt>
      <trkpt lat="47.549202" lon="-2.455178">
        <ele>35.8</ele>
        <time>2020-08-13T02:24:54Z</time>
      </trkpt>
      <trkpt lat="47.549446" lon="-2.464682">
        <ele>19.6</ele>
        <time>2020-08-13T02:25:24Z</time>
      </trkpt>
      <trkpt lat="47.54955" lon="-2.469369">
        <ele>7.4</ele>
        <time>2020-08-13T02:25:38Z</time>
      </trkpt>
      <trkpt lat="47.549553" lon="-2.470218">
        <ele>7.0</ele>
        <time>2020-08-13T02:25:41Z</time>
      </trkpt>
      <trkpt lat="47.549515" lon="-2.471845">
        <ele>9.8</ele>
        <time>2020-08-13T02:25:46Z</time>
      </trkpt>
      <trkpt lat="47.549474" lon="-2.473121">
        <ele>11.2</ele>
        <time>2020-08-13T02:25:50Z</time>
      </trkpt>
      <trkpt lat="47.549325" lon="-2.476394">
        <ele>15.4</ele>
        <time>2020-08-13T02:26:00Z</time>
      </trkpt>
      <trkpt lat="47.549314" lon="-2.477448">
        <ele>15.2</ele>
        <time>2020-08-13T02:26:04Z</time>
      </trkpt>
      <trkpt lat="47.549339" lon="-2.478137">
        <ele>14.6</ele>
        <time>2020-08-13T02:26:06Z</time>
      </trkpt>
      <trkpt lat="47.549394" lon="-2.478842">
        <ele>13.0</ele>
        <time>2020-08-13T02:26:08Z</time>
      </trkpt>
      <trkpt lat="47.549525" lon="-2.479851">
        <ele>9.0</ele>
        <time>2020-08-13T02:26:11Z</time>
      </trkpt>
      <trkpt lat="47.549655" lon="-2.480578">
        <ele>6.0</ele>
        <time>2020-08-13T02:26:13Z</time>
      </trkpt>
      <trkpt lat="47.549923" lon="-2.481677">
        <ele>3.0</ele>
        <time>2020-08-13T02:26:17Z</time>
      </trkpt>
      <trkpt lat="47.550254" lon="-2.482778">
        <ele>6.6</ele>
        <time>2020-08-13T02:26:21Z</time>
      </trkpt>
      <trkpt lat="47.551854" lon="-2.487796">
        <ele>5.2</ele>
        <time>2020-08-13T02:26:38Z</time>
      </trkpt>
      <trkpt lat="47.552274" lon="-2.489042">
        <ele>4.0</ele>
        <time>2020-08-13T02:26:42Z</time>
      </trkpt>
      <trkpt lat="47.552718" lon="-2.49025">
        <ele>4.6</ele>
        <time>2020-08-13T02:26:47Z</time>
      </trkpt>
      <trkpt lat="47.553145" lon="-2.491293">
        <ele>3.2</ele>
        <time>2020-08-13T02:26:50Z</time>
      </trkpt>
      <trkpt lat="47.553399" lon="-2.491867">
        <ele>7.0</ele>
        <time>2020-08-13T02:26:53Z</time>
      </trkpt>
      <trkpt lat="47.553938" lon="-2.492995">
        <ele>6.4</ele>
        <time>2020-08-13T02:26:57Z</time>
      </trkpt>
      <trkpt lat="47.554646" lon="-2.494297">
        <ele>12.6</ele>
        <time>2020-08-13T02:27:02Z</time>
      </trkpt>
      <trkpt lat="47.554981" lon="-2.494858">
        <ele>12.6</ele>
        <time>2020-08-13T02:27:04Z</time>
      </trkpt>
      <trkpt lat="47.555399" lon="-2.495515">
        <ele>20.8</ele>
        <time>2020-08-13T02:27:07Z</time>
      </trkpt>
      <trkpt lat="47.556483" lon="-2.497109">
        <ele>28.8</ele>
        <time>2020-08-13T02:27:14Z</time>
      </trkpt>
      <trkpt lat="47.556537" lon="-2.497075">
        <ele>28.8</ele>
        <time>2020-08-13T02:27:15Z</time>
      </trkpt>
      <trkpt lat="47.557481" lon="-2.498233">
        <ele>30.4</ele>
        <time>2020-08-13T02:27:23Z</time>
      </trkpt>
      <trkpt lat="47.557924" lon="-2.498732">
        <ele>27.4</ele>
        <time>2020-08-13T02:27:27Z</time>
      </trkpt>
      <trkpt lat="47.558145" lon="-2.49886">
        <ele>27.4</ele>
        <time>2020-08-13T02:27:29Z</time>
      </trkpt>
      <trkpt lat="47.558256" lon="-2.498891">
        <ele>27.4</ele>
        <time>2020-08-13T02:27:30Z</time>
      </trkpt>
      <trkpt lat="47.558424" lon="-2.498904">
        <ele>23.0</ele>
        <time>2020-08-13T02:27:31Z</time>
      </trkpt>
      <trkpt lat="47.558644" lon="-2.498841">
        <ele>23.0</ele>
        <time>2020-08-13T02:27:33Z</time>
      </trkpt>
      <trkpt lat="47.558709" lon="-2.498789">
        <ele>23.0</ele>
        <time>2020-08-13T02:27:33Z</time>
      </trkpt>
      <trkpt lat="47.558793" lon="-2.498652">
        <ele>23.0</ele>
        <time>2020-08-13T02:27:34Z</time>
      </trkpt>
      <trkpt lat="47.558833" lon="-2.498546">
        <ele>23.0</ele>
        <time>2020-08-13T02:27:35Z</time>
      </trkpt>
      <trkpt lat="47.558832" lon="-2.498438">
        <ele>23.0</ele>
        <time>2020-08-13T02:27:35Z</time>
      </trkpt>
      <trkpt lat="47.558872" lon="-2.498257">
        <ele>20.4</ele>
        <time>2020-08-13T02:27:36Z</time>
      </trkpt>
      <trkpt lat="47.558946" lon="-2.498129">
        <ele>20.4</ele>
        <time>2020-08-13T02:27:37Z</time>
      </trkpt>
      <trkpt lat="47.559047" lon="-2.498051">
        <ele>20.4</ele>
        <time>2020-08-13T02:27:37Z</time>
      </trkpt>
      <trkpt lat="47.559102" lon="-2.498034">
        <ele>20.4</ele>
        <time>2020-08-13T02:27:38Z</time>
      </trkpt>
      <trkpt lat="47.559168" lon="-2.498034">
        <ele>16.4</ele>
        <time>2020-08-13T02:27:38Z</time>
      </trkpt>
      <trkpt lat="47.559288" lon="-2.498091">
        <ele>16.4</ele>
        <time>2020-08-13T02:27:39Z</time>
      </trkpt>
      <trkpt lat="47.55938" lon="-2.498211">
        <ele>16.4</ele>
        <time>2020-08-13T02:27:40Z</time>
      </trkpt>
      <trkpt lat="47.559433" lon="-2.498374">
        <ele>18.4</ele>
        <time>2020-08-13T02:27:41Z</time>
      </trkpt>
      <trkpt lat="47.559442" lon="-2.498464">
        <ele>18.4</ele>
        <time>2020-08-13T02:27:41Z</time>
      </trkpt>
      <trkpt lat="47.559431" lon="-2.498605">
        <ele>18.4</ele>
        <time>2020-08-13T02:27:42Z</time>
      </trkpt>
      <trkpt lat="47.55937" lon="-2.498839">
        <ele>18.4</ele>
        <time>2020-08-13T02:27:43Z</time>
      </trkpt>
      <trkpt lat="47.559367" lon="-2.498994">
        <ele>18.4</ele>
        <time>2020-08-13T02:27:43Z</time>
      </trkpt>
      <trkpt lat="47.559434" lon="-2.499408">
        <ele>20.8</ele>
        <time>2020-08-13T02:27:45Z</time>
      </trkpt>
      <trkpt lat="47.559437" lon="-2.499511">
        <ele>20.8</ele>
        <time>2020-08-13T02:27:46Z</time>
      </trkpt>
      <trkpt lat="47.559414" lon="-2.499921">
        <ele>20.8</ele>
        <time>2020-08-13T02:27:47Z</time>
      </trkpt>
      <trkpt lat="47.559305" lon="-2.500862">
        <ele>21.0</ele>
        <time>2020-08-13T02:27:52Z</time>
      </trkpt>
      <trkpt lat="47.559264" lon="-2.501351">
        <ele>21.0</ele>
        <time>2020-08-13T02:27:54Z</time>
      </trkpt>
      <trkpt lat="47.559233" lon="-2.502604">
        <ele>19.2</ele>
        <time>2020-08-13T02:27:59Z</time>
      </trkpt>
      <trkpt lat="47.559115" lon="-2.505006">
        <ele>23.2</ele>
        <time>2020-08-13T02:28:09Z</time>
      </trkpt>
      <trkpt lat="47.559023" lon="-2.506035">
        <ele>22.8</ele>
        <time>2020-08-13T02:28:14Z</time>
      </trkpt>
      <trkpt lat="47.559043" lon="-2.506188">
        <ele>22.8</ele>
        <time>2020-08-13T02:28:15Z</time>
      </trkpt>
      <trkpt lat="47.559149" lon="-2.506312">
        <ele>22.8</ele>
        <time>2020-08-13T02:28:15Z</time>
      </trkpt>
      <trkpt lat="47.559201" lon="-2.506497">
        <ele>21.8</ele>
        <time>2020-08-13T02:28:16Z</time>
      </trkpt>
      <trkpt lat="47.559202" lon="-2.506598">
        <ele>21.8</ele>
        <time>2020-08-13T02:28:16Z</time>
      </trkpt>
      <trkpt lat="47.559184" lon="-2.506702">
        <ele>21.0</ele>
        <time>2020-08-13T02:28:17Z</time>
      </trkpt>
      <trkpt lat="47.559149" lon="-2.506795">
        <ele>22.4</ele>
        <time>2020-08-13T02:28:17Z</time>
      </trkpt>
      <trkpt lat="47.559097" lon="-2.506871">
        <ele>22.4</ele>
        <time>2020-08-13T02:28:17Z</time>
      </trkpt>
      <trkpt lat="47.559034" lon="-2.506924">
        <ele>22.4</ele>
        <time>2020-08-13T02:28:18Z</time>
      </trkpt>
      <trkpt lat="47.558957" lon="-2.507163">
        <ele>22.4</ele>
        <time>2020-08-13T02:28:19Z</time>
      </trkpt>
      <trkpt lat="47.558925" lon="-2.507465">
        <ele>22.4</ele>
        <time>2020-08-13T02:28:20Z</time>
      </trkpt>
      <trkpt lat="47.558881" lon="-2.507674">
        <ele>21.6</ele>
        <time>2020-08-13T02:28:21Z</time>
      </trkpt>
      <trkpt lat="47.558706" lon="-2.508349">
        <ele>21.2</ele>
        <time>2020-08-13T02:28:23Z</time>
      </trkpt>
      <trkpt lat="47.558497" lon="-2.509704">
        <ele>21.6</ele>
        <time>2020-08-13T02:28:28Z</time>
      </trkpt>
      <trkpt lat="47.558333" lon="-2.510364">
        <ele>21.4</ele>
        <time>2020-08-13T02:28:30Z</time>
      </trkpt>
      <trkpt lat="47.558307" lon="-2.510677">
        <ele>20.0</ele>
        <time>2020-08-13T02:28:31Z</time>
      </trkpt>
      <trkpt lat="47.558352" lon="-2.510793">
        <ele>21.4</ele>
        <time>2020-08-13T02:28:32Z</time>
      </trkpt>
      <trkpt lat="47.558363" lon="-2.510896">
        <ele>20.4</ele>
        <time>2020-08-13T02:28:32Z</time>
      </trkpt>
      <trkpt lat="47.558352" lon="-2.511005">
        <ele>20.4</ele>
        <time>2020-08-13T02:28:33Z</time>
      </trkpt>
      <trkpt lat="47.558318" lon="-2.511103">
        <ele>19.4</ele>
        <time>2020-08-13T02:28:33Z</time>
      </trkpt>
      <trkpt lat="47.558232" lon="-2.511205">
        <ele>19.4</ele>
        <time>2020-08-13T02:28:34Z</time>
      </trkpt>
      <trkpt lat="47.558181" lon="-2.51138">
        <ele>19.4</ele>
        <time>2020-08-13T02:28:34Z</time>
      </trkpt>
      <trkpt lat="47.558145" lon="-2.511871">
        <ele>18.6</ele>
        <time>2020-08-13T02:28:36Z</time>
      </trkpt>
      <trkpt lat="47.55804" lon="-2.512484">
        <ele>18.6</ele>
        <time>2020-08-13T02:28:38Z</time>
      </trkpt>
      <trkpt lat="47.557928" lon="-2.512951">
        <ele>18.0</ele>
        <time>2020-08-13T02:28:40Z</time>
      </trkpt>
      <trkpt lat="47.55654" lon="-2.522272">
        <ele>15.4</ele>
        <time>2020-08-13T02:29:15Z</time>
      </trkpt>
      <trkpt lat="47.554619" lon="-2.53497">
        <ele>14.4</ele>
        <time>2020-08-13T02:30:02Z</time>
      </trkpt>
      <trkpt lat="47.554534" lon="-2.535998">
        <ele>13.4</ele>
        <time>2020-08-13T02:30:06Z</time>
      </trkpt>
      <trkpt lat="47.554387" lon="-2.540559">
        <ele>8.2</ele>
        <time>2020-08-13T02:30:23Z</time>
      </trkpt>
      <trkpt lat="47.55409" lon="-2.551631">
        <ele>17.8</ele>
        <time>2020-08-13T02:31:03Z</time>
      </trkpt>
      <trkpt lat="47.554108" lon="-2.55164">
        <ele>17.8</ele>
        <time>2020-08-13T02:31:03Z</time>
      </trkpt>
      <trkpt lat="47.55414" lon="-2.551735">
        <ele>18.4</ele>
        <time>2020-08-13T02:31:04Z</time>
      </trkpt>
      <trkpt lat="47.55409" lon="-2.55181">
        <ele>18.4</ele>
        <time>2020-08-13T02:31:04Z</time>
      </trkpt>
      <trkpt lat="47.553988" lon="-2.55419">
        <ele>15.4</ele>
        <time>2020-08-13T02:31:21Z</time>
      </trkpt>
      <trkpt lat="47.553969" lon="-2.555034">
        <ele>13.4</ele>
        <time>2020-08-13T02:31:27Z</time>
      </trkpt>
      <trkpt lat="47.554005" lon="-2.555675">
        <ele>13.4</ele>
        <time>2020-08-13T02:31:31Z</time>
      </trkpt>
      <trkpt lat="47.554109" lon="-2.556474">
        <ele>12.4</ele>
        <time>2020-08-13T02:31:37Z</time>
      </trkpt>
      <trkpt lat="47.554186" lon="-2.556485">
        <ele>16.2</ele>
        <time>2020-08-13T02:31:38Z</time>
      </trkpt>
      <trkpt lat="47.554222" lon="-2.556547">
        <ele>16.2</ele>
        <time>2020-08-13T02:31:38Z</time>
      </trkpt>
      <trkpt lat="47.554225" lon="-2.556633">
        <ele>16.2</ele>
        <time>2020-08-13T02:31:39Z</time>
      </trkpt>
      <trkpt lat="47.554192" lon="-2.556703">
        <ele>16.6</ele>
        <time>2020-08-13T02:31:40Z</time>
      </trkpt>
      <trkpt lat="47.554166" lon="-2.556722">
        <ele>12.4</ele>
        <time>2020-08-13T02:31:40Z</time>
      </trkpt>
      <trkpt lat="47.554456" lon="-2.557897">
        <ele>16.6</ele>
        <time>2020-08-13T02:31:49Z</time>
      </trkpt>
      <trkpt lat="47.554522" lon="-2.558111">
        <ele>16.6</ele>
        <time>2020-08-13T02:31:50Z</time>
      </trkpt>
      <trkpt lat="47.554603" lon="-2.558303">
        <ele>16.6</ele>
        <time>2020-08-13T02:31:52Z</time>
      </trkpt>
      <trkpt lat="47.554819" lon="-2.558692">
        <ele>15.4</ele>
        <time>2020-08-13T02:31:55Z</time>
      </trkpt>
      <trkpt lat="47.554982" lon="-2.559214">
        <ele>13.2</ele>
        <time>2020-08-13T02:31:59Z</time>
      </trkpt>
      <trkpt lat="47.555027" lon="-2.559307">
        <ele>16.0</ele>
        <time>2020-08-13T02:32:00Z</time>
      </trkpt>
      <trkpt lat="47.555522" lon="-2.559694">
        <ele>16.0</ele>
        <time>2020-08-13T02:32:06Z</time>
      </trkpt>
      <trkpt lat="47.555585" lon="-2.559803">
        <ele>16.0</ele>
        <time>2020-08-13T02:32:07Z</time>
      </trkpt>
      <trkpt lat="47.556537" lon="-2.562557">
        <ele>13.0</ele>
        <time>2020-08-13T02:32:28Z</time>
      </trkpt>
      <trkpt lat="47.556635" lon="-2.562736">
        <ele>13.0</ele>
        <time>2020-08-13T02:32:30Z</time>
      </trkpt>
      <trkpt lat="47.55678" lon="-2.562923">
        <ele>13.8</ele>
        <time>2020-08-13T02:32:32Z</time>
      </trkpt>
      <trkpt lat="47.556817" lon="-2.56295">
        <ele>13.8</ele>
        <time>2020-08-13T02:32:33Z</time>
      </trkpt>
      <trkpt lat="47.556868" lon="-2.563045">
        <ele>13.8</ele>
        <time>2020-08-13T02:32:33Z</time>
      </trkpt>
      <trkpt lat="47.556877" lon="-2.563145">
        <ele>13.8</ele>
        <time>2020-08-13T02:32:34Z</time>
      </trkpt>
      <trkpt lat="47.556863" lon="-2.563321">
        <ele>13.8</ele>
        <time>2020-08-13T02:32:35Z</time>
      </trkpt>
      <trkpt lat="47.556911" lon="-2.563598">
        <ele>14.2</ele>
        <time>2020-08-13T02:32:37Z</time>
      </trkpt>
      <trkpt lat="47.557372" lon="-2.564882">
        <ele>14.0</ele>
        <time>2020-08-13T02:32:43Z</time>
      </trkpt>
      <trkpt lat="47.558713" lon="-2.566698">
        <ele>13.8</ele>
        <time>2020-08-13T02:32:53Z</time>
      </trkpt>
      <trkpt lat="47.559029" lon="-2.567216">
        <ele>13.8</ele>
        <time>2020-08-13T02:32:55Z</time>
      </trkpt>
      <trkpt lat="47.559829" lon="-2.569016">
        <ele>14.6</ele>
        <time>2020-08-13T02:33:03Z</time>
      </trkpt>
      <trkpt lat="47.561292" lon="-2.572439">
        <ele>8.4</ele>
        <time>2020-08-13T02:33:18Z</time>
      </trkpt>
      <trkpt lat="47.5619" lon="-2.573799">
        <ele>5.2</ele>
        <time>2020-08-13T02:33:24Z</time>
      </trkpt>
      <trkpt lat="47.562435" lon="-2.574606">
        <ele>4.0</ele>
        <time>2020-08-13T02:33:28Z</time>
      </trkpt>
      <trkpt lat="47.564157" lon="-2.577086">
        <ele>3.2</ele>
        <time>2020-08-13T02:33:41Z</time>
      </trkpt>
      <trkpt lat="47.564433" lon="-2.57751">
        <ele>5.8</ele>
        <time>2020-08-13T02:33:43Z</time>
      </trkpt>
      <trkpt lat="47.564617" lon="-2.577842">
        <ele>5.8</ele>
        <time>2020-08-13T02:33:45Z</time>
      </trkpt>
      <trkpt lat="47.564791" lon="-2.578218">
        <ele>5.8</ele>
        <time>2020-08-13T02:33:47Z</time>
      </trkpt>
      <trkpt lat="47.564903" lon="-2.578568">
        <ele>4.6</ele>
        <time>2020-08-13T02:33:48Z</time>
      </trkpt>
      <trkpt lat="47.565154" lon="-2.580622">
        <ele>6.6</ele>
        <time>2020-08-13T02:33:56Z</time>
      </trkpt>
      <trkpt lat="47.565468" lon="-2.582166">
        <ele>4.8</ele>
        <time>2020-08-13T02:34:02Z</time>
      </trkpt>
      <trkpt lat="47.565762" lon="-2.583132">
        <ele>5.4</ele>
        <time>2020-08-13T02:34:05Z</time>
      </trkpt>
      <trkpt lat="47.566225" lon="-2.584056">
        <ele>7.0</ele>
        <time>2020-08-13T02:34:10Z</time>
      </trkpt>
      <trkpt lat="47.566328" lon="-2.584345">
        <ele>7.2</ele>
        <time>2020-08-13T02:34:11Z</time>
      </trkpt>
      <trkpt lat="47.576499" lon="-2.621438">
        <ele>17.4</ele>
        <time>2020-08-13T02:36:38Z</time>
      </trkpt>
      <trkpt lat="47.576638" lon="-2.622116">
        <ele>16.2</ele>
        <time>2020-08-13T02:36:40Z</time>
      </trkpt>
      <trkpt lat="47.576699" lon="-2.622681">
        <ele>15.0</ele>
        <time>2020-08-13T02:36:43Z</time>
      </trkpt>
      <trkpt lat="47.576715" lon="-2.623062">
        <ele>15.0</ele>
        <time>2020-08-13T02:36:44Z</time>
      </trkpt>
      <trkpt lat="47.576705" lon="-2.62349">
        <ele>13.2</ele>
        <time>2020-08-13T02:36:45Z</time>
      </trkpt>
      <trkpt lat="47.576668" lon="-2.623894">
        <ele>13.2</ele>
        <time>2020-08-13T02:36:47Z</time>
      </trkpt>
      <trkpt lat="47.576602" lon="-2.62433">
        <ele>11.6</ele>
        <time>2020-08-13T02:36:49Z</time>
      </trkpt>
      <trkpt lat="47.575972" lon="-2.627282">
        <ele>18.0</ele>
        <time>2020-08-13T02:37:00Z</time>
      </trkpt>
      <trkpt lat="47.575984" lon="-2.627587">
        <ele>19.8</ele>
        <time>2020-08-13T02:37:01Z</time>
      </trkpt>
      <trkpt lat="47.576024" lon="-2.627694">
        <ele>19.8</ele>
        <time>2020-08-13T02:37:02Z</time>
      </trkpt>
      <trkpt lat="47.576017" lon="-2.62781">
        <ele>19.8</ele>
        <time>2020-08-13T02:37:02Z</time>
      </trkpt>
      <trkpt lat="47.575998" lon="-2.627872">
        <ele>19.8</ele>
        <time>2020-08-13T02:37:03Z</time>
      </trkpt>
      <trkpt lat="47.575914" lon="-2.627946">
        <ele>19.8</ele>
        <time>2020-08-13T02:37:03Z</time>
      </trkpt>
      <trkpt lat="47.575788" lon="-2.628162">
        <ele>18.2</ele>
        <time>2020-08-13T02:37:05Z</time>
      </trkpt>
      <trkpt lat="47.575482" lon="-2.629631">
        <ele>18.2</ele>
        <time>2020-08-13T02:37:12Z</time>
      </trkpt>
      <trkpt lat="47.574628" lon="-2.634531">
        <ele>25.6</ele>
        <time>2020-08-13T02:37:37Z</time>
      </trkpt>
      <trkpt lat="47.57438" lon="-2.635879">
        <ele>26.8</ele>
        <time>2020-08-13T02:37:43Z</time>
      </trkpt>
      <trkpt lat="47.574254" lon="-2.636499">
        <ele>26.8</ele>
        <time>2020-08-13T02:37:46Z</time>
      </trkpt>
      <trkpt lat="47.574088" lon="-2.637034">
        <ele>24.0</ele>
        <time>2020-08-13T02:37:49Z</time>
      </trkpt>
      <trkpt lat="47.573798" lon="-2.637712">
        <ele>23.8</ele>
        <time>2020-08-13T02:37:53Z</time>
      </trkpt>
      <trkpt lat="47.573605" lon="-2.638074">
        <ele>23.8</ele>
        <time>2020-08-13T02:37:55Z</time>
      </trkpt>
      <trkpt lat="47.571724" lon="-2.641381">
        <ele>26.4</ele>
        <time>2020-08-13T02:38:16Z</time>
      </trkpt>
      <trkpt lat="47.571533" lon="-2.641737">
        <ele>25.8</ele>
        <time>2020-08-13T02:38:18Z</time>
      </trkpt>
      <trkpt lat="47.571316" lon="-2.642195">
        <ele>25.8</ele>
        <time>2020-08-13T02:38:21Z</time>
      </trkpt>
      <trkpt lat="47.571032" lon="-2.642854">
        <ele>25.6</ele>
        <time>2020-08-13T02:38:25Z</time>
      </trkpt>
      <trkpt lat="47.570673" lon="-2.643852">
        <ele>25.8</ele>
        <time>2020-08-13T02:38:30Z</time>
      </trkpt>
      <trkpt lat="47.570439" lon="-2.64459">
        <ele>26.4</ele>
        <time>2020-08-13T02:38:34Z</time>
      </trkpt>
      <trkpt lat="47.570346" lon="-2.644939">
        <ele>26.4</ele>
        <time>2020-08-13T02:38:36Z</time>
      </trkpt>
      <trkpt lat="47.570199" lon="-2.645734">
        <ele>26.6</ele>
        <time>2020-08-13T02:38:40Z</time>
      </trkpt>
      <trkpt lat="47.569998" lon="-2.647106">
        <ele>26.0</ele>
        <time>2020-08-13T02:38:47Z</time>
      </trkpt>
      <trkpt lat="47.569571" lon="-2.650241">
        <ele>22.8</ele>
        <time>2020-08-13T02:39:02Z</time>
      </trkpt>
      <trkpt lat="47.569257" lon="-2.65235">
        <ele>19.4</ele>
        <time>2020-08-13T02:39:13Z</time>
      </trkpt>
      <trkpt lat="47.565275" lon="-2.680411">
        <ele>4.6</ele>
        <time>2020-08-13T02:41:31Z</time>
      </trkpt>
      <trkpt lat="47.565181" lon="-2.680932">
        <ele>4.0</ele>
        <time>2020-08-13T02:41:33Z</time>
      </trkpt>
      <trkpt lat="47.565011" lon="-2.681623">
        <ele>4.0</ele>
        <time>2020-08-13T02:41:37Z</time>
      </trkpt>
      <trkpt lat="47.564905" lon="-2.681943">
        <ele>5.4</ele>
        <time>2020-08-13T02:41:38Z</time>
      </trkpt>
      <trkpt lat="47.564697" lon="-2.682447">
        <ele>5.4</ele>
        <time>2020-08-13T02:41:41Z</time>
      </trkpt>
      <trkpt lat="47.564434" lon="-2.682951">
        <ele>7.2</ele>
        <time>2020-08-13T02:41:44Z</time>
      </trkpt>
      <trkpt lat="47.564244" lon="-2.683223">
        <ele>7.2</ele>
        <time>2020-08-13T02:41:46Z</time>
      </trkpt>
      <trkpt lat="47.563788" lon="-2.683731">
        <ele>9.4</ele>
        <time>2020-08-13T02:41:50Z</time>
      </trkpt>
      <trkpt lat="47.56341" lon="-2.684219">
        <ele>9.4</ele>
        <time>2020-08-13T02:41:54Z</time>
      </trkpt>
      <trkpt lat="47.5627" lon="-2.685377">
        <ele>6.6</ele>
        <time>2020-08-13T02:42:01Z</time>
      </trkpt>
      <trkpt lat="47.559808" lon="-2.689529">
        <ele>9.4</ele>
        <time>2020-08-13T02:42:30Z</time>
      </trkpt>
      <trkpt lat="47.55968" lon="-2.689723">
        <ele>9.4</ele>
        <time>2020-08-13T02:42:31Z</time>
      </trkpt>
      <trkpt lat="47.559424" lon="-2.690218">
        <ele>10.0</ele>
        <time>2020-08-13T02:42:34Z</time>
      </trkpt>
      <trkpt lat="47.558642" lon="-2.692279">
        <ele>11.4</ele>
        <time>2020-08-13T02:42:46Z</time>
      </trkpt>
      <trkpt lat="47.557984" lon="-2.695485">
        <ele>11.4</ele>
        <time>2020-08-13T02:43:02Z</time>
      </trkpt>
      <trkpt lat="47.557662" lon="-2.69694">
        <ele>11.0</ele>
        <time>2020-08-13T02:43:09Z</time>
      </trkpt>
      <trkpt lat="47.557472" lon="-2.697648">
        <ele>10.0</ele>
        <time>2020-08-13T02:43:13Z</time>
      </trkpt>
      <trkpt lat="47.557196" lon="-2.698393">
        <ele>9.2</ele>
        <time>2020-08-13T02:43:17Z</time>
      </trkpt>
      <trkpt lat="47.556099" lon="-2.700816">
        <ele>7.4</ele>
        <time>2020-08-13T02:43:31Z</time>
      </trkpt>
      <trkpt lat="47.556037" lon="-2.701141">
        <ele>7.0</ele>
        <time>2020-08-13T02:43:33Z</time>
      </trkpt>
      <trkpt lat="47.556041" lon="-2.701237">
        <ele>7.0</ele>
        <time>2020-08-13T02:43:33Z</time>
      </trkpt>
      <trkpt lat="47.555995" lon="-2.701347">
        <ele>7.0</ele>
        <time>2020-08-13T02:43:34Z</time>
      </trkpt>
      <trkpt lat="47.555913" lon="-2.701385">
        <ele>7.0</ele>
        <time>2020-08-13T02:43:34Z</time>
      </trkpt>
      <trkpt lat="47.55574" lon="-2.701609">
        <ele>6.4</ele>
        <time>2020-08-13T02:43:35Z</time>
      </trkpt>
      <trkpt lat="47.554661" lon="-2.703988">
        <ele>9.4</ele>
        <time>2020-08-13T02:43:45Z</time>
      </trkpt>
      <trkpt lat="47.553588" lon="-2.706288">
        <ele>10.0</ele>
        <time>2020-08-13T02:43:55Z</time>
      </trkpt>
      <trkpt lat="47.552474" lon="-2.708734">
        <ele>12.2</ele>
        <time>2020-08-13T02:44:05Z</time>
      </trkpt>
      <trkpt lat="47.552057" lon="-2.709578">
        <ele>13.0</ele>
        <time>2020-08-13T02:44:09Z</time>
      </trkpt>
      <trkpt lat="47.551955" lon="-2.709892">
        <ele>13.0</ele>
        <time>2020-08-13T02:44:10Z</time>
      </trkpt>
      <trkpt lat="47.551772" lon="-2.710602">
        <ele>12.8</ele>
        <time>2020-08-13T02:44:12Z</time>
      </trkpt>
      <trkpt lat="47.551693" lon="-2.711095">
        <ele>12.2</ele>
        <time>2020-08-13T02:44:14Z</time>
      </trkpt>
      <trkpt lat="47.551648" lon="-2.711684">
        <ele>10.8</ele>
        <time>2020-08-13T02:44:16Z</time>
      </trkpt>
      <trkpt lat="47.551656" lon="-2.713437">
        <ele>10.4</ele>
        <time>2020-08-13T02:44:22Z</time>
      </trkpt>
      <trkpt lat="47.551637" lon="-2.713993">
        <ele>10.4</ele>
        <time>2020-08-13T02:44:24Z</time>
      </trkpt>
      <trkpt lat="47.551598" lon="-2.714456">
        <ele>10.0</ele>
        <time>2020-08-13T02:44:26Z</time>
      </trkpt>
      <trkpt lat="47.551325" lon="-2.716462">
        <ele>8.8</ele>
        <time>2020-08-13T02:44:33Z</time>
      </trkpt>
      <trkpt lat="47.551324" lon="-2.716697">
        <ele>8.6</ele>
        <time>2020-08-13T02:44:34Z</time>
      </trkpt>
      <trkpt lat="47.551351" lon="-2.716898">
        <ele>8.6</ele>
        <time>2020-08-13T02:44:34Z</time>
      </trkpt>
      <trkpt lat="47.551383" lon="-2.716954">
        <ele>8.6</ele>
        <time>2020-08-13T02:44:35Z</time>
      </trkpt>
      <trkpt lat="47.551411" lon="-2.717063">
        <ele>8.6</ele>
        <time>2020-08-13T02:44:35Z</time>
      </trkpt>
      <trkpt lat="47.551406" lon="-2.717179">
        <ele>8.6</ele>
        <time>2020-08-13T02:44:36Z</time>
      </trkpt>
      <trkpt lat="47.55138" lon="-2.717263">
        <ele>8.6</ele>
        <time>2020-08-13T02:44:36Z</time>
      </trkpt>
      <trkpt lat="47.551338" lon="-2.717329">
        <ele>8.6</ele>
        <time>2020-08-13T02:44:37Z</time>
      </trkpt>
      <trkpt lat="47.551283" lon="-2.717372">
        <ele>8.6</ele>
        <time>2020-08-13T02:44:37Z</time>
      </trkpt>
      <trkpt lat="47.551174" lon="-2.717377">
        <ele>8.6</ele>
        <time>2020-08-13T02:44:38Z</time>
      </trkpt>
      <trkpt lat="47.551031" lon="-2.717419">
        <ele>8.6</ele>
        <time>2020-08-13T02:44:39Z</time>
      </trkpt>
      <trkpt lat="47.55074" lon="-2.717608">
        <ele>9.8</ele>
        <time>2020-08-13T02:44:42Z</time>
      </trkpt>
      <trkpt lat="47.549958" lon="-2.718049">
        <ele>11.4</ele>
        <time>2020-08-13T02:44:48Z</time>
      </trkpt>
      <trkpt lat="47.548298" lon="-2.718907">
        <ele>13.4</ele>
        <time>2020-08-13T02:45:01Z</time>
      </trkpt>
      <trkpt lat="47.547397" lon="-2.719456">
        <ele>14.0</ele>
        <time>2020-08-13T02:45:08Z</time>
      </trkpt>
      <trkpt lat="47.547081" lon="-2.719684">
        <ele>14.0</ele>
        <time>2020-08-13T02:45:11Z</time>
      </trkpt>
      <trkpt lat="47.546464" lon="-2.72018">
        <ele>14.6</ele>
        <time>2020-08-13T02:45:16Z</time>
      </trkpt>
      <trkpt lat="47.545768" lon="-2.720936">
        <ele>14.8</ele>
        <time>2020-08-13T02:45:23Z</time>
      </trkpt>
      <trkpt lat="47.545216" lon="-2.721617">
        <ele>14.8</ele>
        <time>2020-08-13T02:45:28Z</time>
      </trkpt>
      <trkpt lat="47.54458" lon="-2.722623">
        <ele>15.0</ele>
        <time>2020-08-13T02:45:35Z</time>
      </trkpt>
      <trkpt lat="47.544061" lon="-2.723678">
        <ele>14.4</ele>
        <time>2020-08-13T02:45:41Z</time>
      </trkpt>
      <trkpt lat="47.543405" lon="-2.725333">
        <ele>13.4</ele>
        <time>2020-08-13T02:45:51Z</time>
      </trkpt>
      <trkpt lat="47.542305" lon="-2.728885">
        <ele>12.2</ele>
        <time>2020-08-13T02:46:11Z</time>
      </trkpt>
      <trkpt lat="47.540988" lon="-2.733367">
        <ele>2.5</ele>
        <time>2020-08-13T02:46:35Z</time>
      </trkpt>
      <trkpt lat="47.540391" lon="-2.735281">
        <ele>3.0</ele>
        <time>2020-08-13T02:46:46Z</time>
      </trkpt>
      <trkpt lat="47.540178" lon="-2.735811">
        <ele>3.0</ele>
        <time>2020-08-13T02:46:49Z</time>
      </trkpt>
      <trkpt lat="47.539836" lon="-2.736523">
        <ele>7.0</ele>
        <time>2020-08-13T02:46:53Z</time>
      </trkpt>
      <trkpt lat="47.539426" lon="-2.737217">
        <ele>9.0</ele>
        <time>2020-08-13T02:46:58Z</time>
      </trkpt>
      <trkpt lat="47.539003" lon="-2.737879">
        <ele>12.0</ele>
        <time>2020-08-13T02:47:03Z</time>
      </trkpt>
      <trkpt lat="47.536894" lon="-2.740887">
        <ele>9.4</ele>
        <time>2020-08-13T02:47:24Z</time>
      </trkpt>
      <trkpt lat="47.534003" lon="-2.744886">
        <ele>13.0</ele>
        <time>2020-08-13T02:47:54Z</time>
      </trkpt>
      <trkpt lat="47.532022" lon="-2.747689">
        <ele>21.2</ele>
        <time>2020-08-13T02:48:14Z</time>
      </trkpt>
      <trkpt lat="47.527577" lon="-2.754126">
        <ele>24.8</ele>
        <time>2020-08-13T02:49:01Z</time>
      </trkpt>
      <trkpt lat="47.525975" lon="-2.756345">
        <ele>25.8</ele>
        <time>2020-08-13T02:49:17Z</time>
      </trkpt>
      <trkpt lat="47.525597" lon="-2.756931">
        <ele>22.0</ele>
        <time>2020-08-13T02:49:21Z</time>
      </trkpt>
      <trkpt lat="47.524869" lon="-2.758162">
        <ele>18.2</ele>
        <time>2020-08-13T02:49:29Z</time>
      </trkpt>
      <trkpt lat="47.524339" lon="-2.759253">
        <ele>18.8</ele>
        <time>2020-08-13T02:49:36Z</time>
      </trkpt>
      <trkpt lat="47.523804" lon="-2.760489">
        <ele>15.0</ele>
        <time>2020-08-13T02:49:43Z</time>
      </trkpt>
      <trkpt lat="47.523457" lon="-2.761443">
        <ele>14.8</ele>
        <time>2020-08-13T02:49:49Z</time>
      </trkpt>
      <trkpt lat="47.523193" lon="-2.762269">
        <ele>12.8</ele>
        <time>2020-08-13T02:49:54Z</time>
      </trkpt>
      <trkpt lat="47.52295" lon="-2.763132">
        <ele>13.8</ele>
        <time>2020-08-13T02:49:58Z</time>
      </trkpt>
      <trkpt lat="47.522732" lon="-2.764011">
        <ele>15.6</ele>
        <time>2020-08-13T02:50:03Z</time>
      </trkpt>
      <trkpt lat="47.522597" lon="-2.764628">
        <ele>16.4</ele>
        <time>2020-08-13T02:50:06Z</time>
      </trkpt>
      <trkpt lat="47.522426" lon="-2.765598">
        <ele>15.0</ele>
        <time>2020-08-13T02:50:11Z</time>
      </trkpt>
      <trkpt lat="47.522311" lon="-2.766381">
        <ele>15.6</ele>
        <time>2020-08-13T02:50:15Z</time>
      </trkpt>
      <trkpt lat="47.522268" lon="-2.766808">
        <ele>15.6</ele>
        <time>2020-08-13T02:50:17Z</time>
      </trkpt>
      <trkpt lat="47.522285" lon="-2.76726">
        <ele>15.6</ele>
        <time>2020-08-13T02:50:20Z</time>
      </trkpt>
      <trkpt lat="47.522329" lon="-2.767322">
        <ele>15.6</ele>
        <time>2020-08-13T02:50:20Z</time>
      </trkpt>
      <trkpt lat="47.522362" lon="-2.767412">
        <ele>15.6</ele>
        <time>2020-08-13T02:50:21Z</time>
      </trkpt>
      <trkpt lat="47.522388" lon="-2.767567">
        <ele>16.2</ele>
        <time>2020-08-13T02:50:22Z</time>
      </trkpt>
      <trkpt lat="47.522372" lon="-2.767716">
        <ele>16.2</ele>
        <time>2020-08-13T02:50:23Z</time>
      </trkpt>
      <trkpt lat="47.522283" lon="-2.767891">
        <ele>16.2</ele>
        <time>2020-08-13T02:50:24Z</time>
      </trkpt>
      <trkpt lat="47.522214" lon="-2.767956">
        <ele>16.2</ele>
        <time>2020-08-13T02:50:25Z</time>
      </trkpt>
      <trkpt lat="47.522128" lon="-2.768241">
        <ele>16.2</ele>
        <time>2020-08-13T02:50:27Z</time>
      </trkpt>
      <trkpt lat="47.522041" lon="-2.768928">
        <ele>16.6</ele>
        <time>2020-08-13T02:50:31Z</time>
      </trkpt>
      <trkpt lat="47.521719" lon="-2.775037">
        <ele>24.0</ele>
        <time>2020-08-13T02:51:09Z</time>
      </trkpt>
      <trkpt lat="47.521744" lon="-2.775621">
        <ele>24.0</ele>
        <time>2020-08-13T02:51:13Z</time>
      </trkpt>
      <trkpt lat="47.521662" lon="-2.776926">
        <ele>26.2</ele>
        <time>2020-08-13T02:51:21Z</time>
      </trkpt>
      <trkpt lat="47.52169" lon="-2.777142">
        <ele>27.0</ele>
        <time>2020-08-13T02:51:22Z</time>
      </trkpt>
      <trkpt lat="47.521769" lon="-2.777219">
        <ele>27.0</ele>
        <time>2020-08-13T02:51:23Z</time>
      </trkpt>
      <trkpt lat="47.521819" lon="-2.777311">
        <ele>27.0</ele>
        <time>2020-08-13T02:51:24Z</time>
      </trkpt>
      <trkpt lat="47.521851" lon="-2.777444">
        <ele>27.0</ele>
        <time>2020-08-13T02:51:25Z</time>
      </trkpt>
      <trkpt lat="47.521857" lon="-2.777567">
        <ele>27.0</ele>
        <time>2020-08-13T02:51:26Z</time>
      </trkpt>
      <trkpt lat="47.521819" lon="-2.777716">
        <ele>27.0</ele>
        <time>2020-08-13T02:51:27Z</time>
      </trkpt>
      <trkpt lat="47.521716" lon="-2.777866">
        <ele>27.0</ele>
        <time>2020-08-13T02:51:28Z</time>
      </trkpt>
      <trkpt lat="47.52165" lon="-2.778091">
        <ele>26.0</ele>
        <time>2020-08-13T02:51:30Z</time>
      </trkpt>
      <trkpt lat="47.521672" lon="-2.778852">
        <ele>27.0</ele>
        <time>2020-08-13T02:51:35Z</time>
      </trkpt>
      <trkpt lat="47.521817" lon="-2.780422">
        <ele>27.8</ele>
        <time>2020-08-13T02:51:42Z</time>
      </trkpt>
      <trkpt lat="47.52206" lon="-2.782039">
        <ele>28.6</ele>
        <time>2020-08-13T02:51:50Z</time>
      </trkpt>
      <trkpt lat="47.522284" lon="-2.782958">
        <ele>28.2</ele>
        <time>2020-08-13T02:51:54Z</time>
      </trkpt>
      <trkpt lat="47.522446" lon="-2.783397">
        <ele>28.6</ele>
        <time>2020-08-13T02:51:56Z</time>
      </trkpt>
      <trkpt lat="47.522574" lon="-2.783862">
        <ele>30.4</ele>
        <time>2020-08-13T02:51:58Z</time>
      </trkpt>
      <trkpt lat="47.523144" lon="-2.785377">
        <ele>30.2</ele>
        <time>2020-08-13T02:52:06Z</time>
      </trkpt>
      <trkpt lat="47.523474" lon="-2.786166">
        <ele>32.0</ele>
        <time>2020-08-13T02:52:10Z</time>
      </trkpt>
      <trkpt lat="47.523761" lon="-2.78693">
        <ele>32.4</ele>
        <time>2020-08-13T02:52:14Z</time>
      </trkpt>
      <trkpt lat="47.524199" lon="-2.788013">
        <ele>33.4</ele>
        <time>2020-08-13T02:52:20Z</time>
      </trkpt>
      <trkpt lat="47.524376" lon="-2.788387">
        <ele>33.2</ele>
        <time>2020-08-13T02:52:22Z</time>
      </trkpt>
      <trkpt lat="47.526471" lon="-2.793841">
        <ele>30.0</ele>
        <time>2020-08-13T02:52:49Z</time>
      </trkpt>
      <trkpt lat="47.526539" lon="-2.793977">
        <ele>30.0</ele>
        <time>2020-08-13T02:52:50Z</time>
      </trkpt>
      <trkpt lat="47.526629" lon="-2.793931">
        <ele>30.0</ele>
        <time>2020-08-13T02:52:51Z</time>
      </trkpt>
      <trkpt lat="47.526689" lon="-2.793938">
        <ele>27.2</ele>
        <time>2020-08-13T02:52:51Z</time>
      </trkpt>
      <trkpt lat="47.526782" lon="-2.794019">
        <ele>27.2</ele>
        <time>2020-08-13T02:52:52Z</time>
      </trkpt>
      <trkpt lat="47.526827" lon="-2.794138">
        <ele>27.2</ele>
        <time>2020-08-13T02:52:52Z</time>
      </trkpt>
      <trkpt lat="47.526827" lon="-2.794283">
        <ele>27.6</ele>
        <time>2020-08-13T02:52:53Z</time>
      </trkpt>
      <trkpt lat="47.526776" lon="-2.794412">
        <ele>27.6</ele>
        <time>2020-08-13T02:52:53Z</time>
      </trkpt>
      <trkpt lat="47.526738" lon="-2.794455">
        <ele>27.6</ele>
        <time>2020-08-13T02:52:53Z</time>
      </trkpt>
      <trkpt lat="47.528148" lon="-2.798003">
        <ele>25.8</ele>
        <time>2020-08-13T02:53:08Z</time>
      </trkpt>
      <trkpt lat="47.528424" lon="-2.798872">
        <ele>21.6</ele>
        <time>2020-08-13T02:53:11Z</time>
      </trkpt>
      <trkpt lat="47.528663" lon="-2.800246">
        <ele>17.4</ele>
        <time>2020-08-13T02:53:16Z</time>
      </trkpt>
      <trkpt lat="47.52932" lon="-2.805284">
        <ele>13.0</ele>
        <time>2020-08-13T02:53:34Z</time>
      </trkpt>
      <trkpt lat="47.52936" lon="-2.805786">
        <ele>13.0</ele>
        <time>2020-08-13T02:53:36Z</time>
      </trkpt>
      <trkpt lat="47.529364" lon="-2.806242">
        <ele>13.2</ele>
        <time>2020-08-13T02:53:38Z</time>
      </trkpt>
      <trkpt lat="47.529349" lon="-2.806663">
        <ele>13.2</ele>
        <time>2020-08-13T02:53:39Z</time>
      </trkpt>
      <trkpt lat="47.529289" lon="-2.807159">
        <ele>12.6</ele>
        <time>2020-08-13T02:53:41Z</time>
      </trkpt>
      <trkpt lat="47.529215" lon="-2.807548">
        <ele>11.6</ele>
        <time>2020-08-13T02:53:42Z</time>
      </trkpt>
      <trkpt lat="47.529038" lon="-2.808233">
        <ele>15.6</ele>
        <time>2020-08-13T02:53:45Z</time>
      </trkpt>
      <trkpt lat="47.528529" lon="-2.809662">
        <ele>13.0</ele>
        <time>2020-08-13T02:53:50Z</time>
      </trkpt>
      <trkpt lat="47.528351" lon="-2.81026">
        <ele>13.0</ele>
        <time>2020-08-13T02:53:53Z</time>
      </trkpt>
      <trkpt lat="47.52821" lon="-2.810834">
        <ele>15.4</ele>
        <time>2020-08-13T02:53:55Z</time>
      </trkpt>
      <trkpt lat="47.528084" lon="-2.811571">
        <ele>15.4</ele>
        <time>2020-08-13T02:53:58Z</time>
      </trkpt>
      <trkpt lat="47.527647" lon="-2.814747">
        <ele>16.0</ele>
        <time>2020-08-13T02:54:09Z</time>
      </trkpt>
      <trkpt lat="47.527594" lon="-2.815372">
        <ele>15.4</ele>
        <time>2020-08-13T02:54:11Z</time>
      </trkpt>
      <trkpt lat="47.527585" lon="-2.815753">
        <ele>15.4</ele>
        <time>2020-08-13T02:54:12Z</time>
      </trkpt>
      <trkpt lat="47.52762" lon="-2.816528">
        <ele>15.4</ele>
        <time>2020-08-13T02:54:15Z</time>
      </trkpt>
      <trkpt lat="47.527717" lon="-2.81802">
        <ele>14.6</ele>
        <time>2020-08-13T02:54:20Z</time>
      </trkpt>
      <trkpt lat="47.527824" lon="-2.818961">
        <ele>14.2</ele>
        <time>2020-08-13T02:54:24Z</time>
      </trkpt>
      <trkpt lat="47.527927" lon="-2.819427">
        <ele>13.8</ele>
        <time>2020-08-13T02:54:26Z</time>
      </trkpt>
      <trkpt lat="47.528045" lon="-2.819851">
        <ele>13.8</ele>
        <time>2020-08-13T02:54:27Z</time>
      </trkpt>
      <trkpt lat="47.528194" lon="-2.820283">
        <ele>12.8</ele>
        <time>2020-08-13T02:54:29Z</time>
      </trkpt>
      <trkpt lat="47.528915" lon="-2.822005">
        <ele>9.4</ele>
        <time>2020-08-13T02:54:36Z</time>
      </trkpt>
      <trkpt lat="47.529083" lon="-2.822488">
        <ele>9.4</ele>
        <time>2020-08-13T02:54:38Z</time>
      </trkpt>
      <trkpt lat="47.52924" lon="-2.823022">
        <ele>7.6</ele>
        <time>2020-08-13T02:54:40Z</time>
      </trkpt>
      <trkpt lat="47.52986" lon="-2.825637">
        <ele>10.6</ele>
        <time>2020-08-13T02:54:50Z</time>
      </trkpt>
      <trkpt lat="47.53009" lon="-2.826675">
        <ele>10.6</ele>
        <time>2020-08-13T02:54:54Z</time>
      </trkpt>
      <trkpt lat="47.530476" lon="-2.828687">
        <ele>12.6</ele>
        <time>2020-08-13T02:55:01Z</time>
      </trkpt>
      <trkpt lat="47.530606" lon="-2.82952">
        <ele>12.6</ele>
        <time>2020-08-13T02:55:04Z</time>
      </trkpt>
      <trkpt lat="47.530936" lon="-2.831882">
        <ele>12.6</ele>
        <time>2020-08-13T02:55:12Z</time>
      </trkpt>
      <trkpt lat="47.531532" lon="-2.835787">
        <ele>16.8</ele>
        <time>2020-08-13T02:55:26Z</time>
      </trkpt>
      <trkpt lat="47.53172" lon="-2.837269">
        <ele>17.2</ele>
        <time>2020-08-13T02:55:32Z</time>
      </trkpt>
      <trkpt lat="47.531943" lon="-2.84277">
        <ele>11.6</ele>
        <time>2020-08-13T02:55:51Z</time>
      </trkpt>
      <trkpt lat="47.531958" lon="-2.843485">
        <ele>12.6</ele>
        <time>2020-08-13T02:55:54Z</time>
      </trkpt>
      <trkpt lat="47.532015" lon="-2.844055">
        <ele>12.6</ele>
        <time>2020-08-13T02:55:56Z</time>
      </trkpt>
      <trkpt lat="47.53205" lon="-2.844179">
        <ele>13.0</ele>
        <time>2020-08-13T02:55:56Z</time>
      </trkpt>
      <trkpt lat="47.532103" lon="-2.844288">
        <ele>13.0</ele>
        <time>2020-08-13T02:55:57Z</time>
      </trkpt>
      <trkpt lat="47.532154" lon="-2.844327">
        <ele>13.0</ele>
        <time>2020-08-13T02:55:57Z</time>
      </trkpt>
      <trkpt lat="47.532235" lon="-2.844447">
        <ele>13.0</ele>
        <time>2020-08-13T02:55:58Z</time>
      </trkpt>
      <trkpt lat="47.532277" lon="-2.844604">
        <ele>13.0</ele>
        <time>2020-08-13T02:55:58Z</time>
      </trkpt>
      <trkpt lat="47.53228" lon="-2.84469">
        <ele>13.0</ele>
        <time>2020-08-13T02:55:58Z</time>
      </trkpt>
      <trkpt lat="47.532264" lon="-2.844813">
        <ele>13.0</ele>
        <time>2020-08-13T02:55:59Z</time>
      </trkpt>
      <trkpt lat="47.532222" lon="-2.844923">
        <ele>13.0</ele>
        <time>2020-08-13T02:55:59Z</time>
      </trkpt>
      <trkpt lat="47.53212" lon="-2.845044">
        <ele>13.0</ele>
        <time>2020-08-13T02:56:00Z</time>
      </trkpt>
      <trkpt lat="47.532093" lon="-2.845141">
        <ele>13.0</ele>
        <time>2020-08-13T02:56:00Z</time>
      </trkpt>
      <trkpt lat="47.53209" lon="-2.845754">
        <ele>13.0</ele>
        <time>2020-08-13T02:56:03Z</time>
      </trkpt>
      <trkpt lat="47.532168" lon="-2.846519">
        <ele>12.6</ele>
        <time>2020-08-13T02:56:05Z</time>
      </trkpt>
      <trkpt lat="47.532273" lon="-2.847333">
        <ele>12.6</ele>
        <time>2020-08-13T02:56:08Z</time>
      </trkpt>
      <trkpt lat="47.532619" lon="-2.849458">
        <ele>9.8</ele>
        <time>2020-08-13T02:56:16Z</time>
      </trkpt>
      <trkpt lat="47.532763" lon="-2.850204">
        <ele>6.0</ele>
        <time>2020-08-13T02:56:19Z</time>
      </trkpt>
      <trkpt lat="47.533129" lon="-2.851781">
        <ele>3.4</ele>
        <time>2020-08-13T02:56:25Z</time>
      </trkpt>
      <trkpt lat="47.533511" lon="-2.853151">
        <ele>3.6</ele>
        <time>2020-08-13T02:56:30Z</time>
      </trkpt>
      <trkpt lat="47.535953" lon="-2.861177">
        <ele>7.8</ele>
        <time>2020-08-13T02:57:02Z</time>
      </trkpt>
      <trkpt lat="47.537982" lon="-2.868059">
        <ele>15.8</ele>
        <time>2020-08-13T02:57:28Z</time>
      </trkpt>
      <trkpt lat="47.538272" lon="-2.869218">
        <ele>15.0</ele>
        <time>2020-08-13T02:57:33Z</time>
      </trkpt>
      <trkpt lat="47.539608" lon="-2.87509">
        <ele>13.8</ele>
        <time>2020-08-13T02:57:55Z</time>
      </trkpt>
      <trkpt lat="47.539742" lon="-2.875632">
        <ele>13.8</ele>
        <time>2020-08-13T02:57:57Z</time>
      </trkpt>
      <trkpt lat="47.539904" lon="-2.87619">
        <ele>14.6</ele>
        <time>2020-08-13T02:57:59Z</time>
      </trkpt>
      <trkpt lat="47.540136" lon="-2.876883">
        <ele>15.6</ele>
        <time>2020-08-13T02:58:02Z</time>
      </trkpt>
      <trkpt lat="47.540406" lon="-2.877563">
        <ele>15.8</ele>
        <time>2020-08-13T02:58:05Z</time>
      </trkpt>
      <trkpt lat="47.540614" lon="-2.877932">
        <ele>15.8</ele>
        <time>2020-08-13T02:58:07Z</time>
      </trkpt>
      <trkpt lat="47.541015" lon="-2.878519">
        <ele>17.0</ele>
        <time>2020-08-13T02:58:10Z</time>
      </trkpt>
      <trkpt lat="47.541109" lon="-2.878516">
        <ele>17.0</ele>
        <time>2020-08-13T02:58:11Z</time>
      </trkpt>
      <trkpt lat="47.541184" lon="-2.87855">
        <ele>17.0</ele>
        <time>2020-08-13T02:58:12Z</time>
      </trkpt>
      <trkpt lat="47.541261" lon="-2.878631">
        <ele>17.0</ele>
        <time>2020-08-13T02:58:13Z</time>
      </trkpt>
      <trkpt lat="47.541309" lon="-2.878728">
        <ele>17.0</ele>
        <time>2020-08-13T02:58:14Z</time>
      </trkpt>
      <trkpt lat="47.541338" lon="-2.878888">
        <ele>17.0</ele>
        <time>2020-08-13T02:58:15Z</time>
      </trkpt>
      <trkpt lat="47.541327" lon="-2.879026">
        <ele>17.0</ele>
        <time>2020-08-13T02:58:17Z</time>
      </trkpt>
      <trkpt lat="47.541299" lon="-2.87912">
        <ele>17.0</ele>
        <time>2020-08-13T02:58:18Z</time>
      </trkpt>
      <trkpt lat="47.541353" lon="-2.879378">
        <ele>17.8</ele>
        <time>2020-08-13T02:58:20Z</time>
      </trkpt>
      <trkpt lat="47.541474" lon="-2.879734">
        <ele>17.8</ele>
        <time>2020-08-13T02:58:23Z</time>
      </trkpt>
      <trkpt lat="47.54154" lon="-2.87984">
        <ele>17.8</ele>
        <time>2020-08-13T02:58:24Z</time>
      </trkpt>
      <trkpt lat="47.542028" lon="-2.880823">
        <ele>17.6</ele>
        <time>2020-08-13T02:58:35Z</time>
      </trkpt>
      <trkpt lat="47.543106" lon="-2.882914">
        <ele>18.0</ele>
        <time>2020-08-13T02:58:57Z</time>
      </trkpt>
      <trkpt lat="47.544204" lon="-2.885168">
        <ele>14.8</ele>
        <time>2020-08-13T02:59:21Z</time>
      </trkpt>
      <trkpt lat="47.545163" lon="-2.887182">
        <ele>11.8</ele>
        <time>2020-08-13T02:59:42Z</time>
      </trkpt>
      <trkpt lat="47.545538" lon="-2.888008">
        <ele>11.2</ele>
        <time>2020-08-13T02:59:51Z</time>
      </trkpt>
      <trkpt lat="47.545736" lon="-2.888542">
        <ele>8.8</ele>
        <time>2020-08-13T02:59:56Z</time>
      </trkpt>
      <trkpt lat="47.54588" lon="-2.889007">
        <ele>7.6</ele>
        <time>2020-08-13T03:00:00Z</time>
      </trkpt>
      <trkpt lat="47.546048" lon="-2.889459">
        <ele>5.6</ele>
        <time>2020-08-13T03:00:05Z</time>
      </trkpt>
      <trkpt lat="47.546146" lon="-2.889581">
        <ele>5.6</ele>
        <time>2020-08-13T03:00:06Z</time>
      </trkpt>
      <trkpt lat="47.546251" lon="-2.889607">
        <ele>5.6</ele>
        <time>2020-08-13T03:00:08Z</time>
      </trkpt>
      <trkpt lat="47.546349" lon="-2.889694">
        <ele>5.6</ele>
        <time>2020-08-13T03:00:09Z</time>
      </trkpt>
      <trkpt lat="47.546415" lon="-2.889811">
        <ele>5.6</ele>
        <time>2020-08-13T03:00:10Z</time>
      </trkpt>
      <trkpt lat="47.546453" lon="-2.889944">
        <ele>5.6</ele>
        <time>2020-08-13T03:00:11Z</time>
      </trkpt>
      <trkpt lat="47.546453" lon="-2.890083">
        <ele>4.6</ele>
        <time>2020-08-13T03:00:12Z</time>
      </trkpt>
      <trkpt lat="47.546421" lon="-2.890247">
        <ele>4.6</ele>
        <time>2020-08-13T03:00:14Z</time>
      </trkpt>
      <trkpt lat="47.546349" lon="-2.890372">
        <ele>4.6</ele>
        <time>2020-08-13T03:00:15Z</time>
      </trkpt>
      <trkpt lat="47.546259" lon="-2.890462">
        <ele>4.6</ele>
        <time>2020-08-13T03:00:16Z</time>
      </trkpt>
      <trkpt lat="47.546214" lon="-2.890544">
        <ele>4.6</ele>
        <time>2020-08-13T03:00:17Z</time>
      </trkpt>
      <trkpt lat="47.546187" lon="-2.89067">
        <ele>4.6</ele>
        <time>2020-08-13T03:00:18Z</time>
      </trkpt>
      <trkpt lat="47.546188" lon="-2.890855">
        <ele>4.4</ele>
        <time>2020-08-13T03:00:19Z</time>
      </trkpt>
      <trkpt lat="47.546258" lon="-2.891623">
        <ele>4.4</ele>
        <time>2020-08-13T03:00:25Z</time>
      </trkpt>
      <trkpt lat="47.546284" lon="-2.892217">
        <ele>4.2</ele>
        <time>2020-08-13T03:00:30Z</time>
      </trkpt>
      <trkpt lat="47.546328" lon="-2.892304">
        <ele>4.2</ele>
        <time>2020-08-13T03:00:31Z</time>
      </trkpt>
      <trkpt lat="47.546294" lon="-2.892408">
        <ele>4.2</ele>
        <time>2020-08-13T03:00:32Z</time>
      </trkpt>
      <trkpt lat="47.546536" lon="-2.896292">
        <ele>4.8</ele>
        <time>2020-08-13T03:01:17Z</time>
      </trkpt>
      <trkpt lat="47.546255" lon="-2.896589">
        <ele>4.8</ele>
        <time>2020-08-13T03:01:23Z</time>
      </trkpt>
      <trkpt lat="47.545894" lon="-2.896855">
        <ele>5.2</ele>
        <time>2020-08-13T03:01:31Z</time>
      </trkpt>
      <trkpt lat="47.545361" lon="-2.897035">
        <ele>5.4</ele>
        <time>2020-08-13T03:01:41Z</time>
      </trkpt>
      <trkpt lat="47.544666" lon="-2.897327">
        <ele>4.4</ele>
        <time>2020-08-13T03:01:54Z</time>
      </trkpt>
      <trkpt lat="47.544547" lon="-2.897338">
        <ele>4.4</ele>
        <time>2020-08-13T03:01:56Z</time>
      </trkpt>
      <trkpt lat="47.544551" lon="-2.897418">
        <ele>4.4</ele>
        <time>2020-08-13T03:01:57Z</time>
      </trkpt>
      <trkpt lat="47.544506" lon="-2.897496">
        <ele>4.4</ele>
        <time>2020-08-13T03:01:58Z</time>
      </trkpt>
      <trkpt lat="47.544463" lon="-2.897504">
        <ele>6.4</ele>
        <time>2020-08-13T03:01:59Z</time>
      </trkpt>
      <trkpt lat="47.544397" lon="-2.897416">
        <ele>4.4</ele>
        <time>2020-08-13T03:02:01Z</time>
      </trkpt>
      <trkpt lat="47.544043" lon="-2.89762">
        <ele>5.4</ele>
        <time>2020-08-13T03:02:08Z</time>
      </trkpt>
      <trkpt lat="47.543789" lon="-2.897804">
        <ele>5.4</ele>
        <time>2020-08-13T03:02:13Z</time>
      </trkpt>
      <trkpt lat="47.54347" lon="-2.898106">
        <ele>5.4</ele>
        <time>2020-08-13T03:02:20Z</time>
      </trkpt>
      <trkpt lat="47.54292" lon="-2.898706">
        <ele>4.0</ele>
        <time>2020-08-13T03:02:33Z</time>
      </trkpt>
      <trkpt lat="47.542877" lon="-2.898757">
        <ele>4.0</ele>
        <time>2020-08-13T03:02:34Z</time>
      </trkpt>
      <trkpt lat="47.542834" lon="-2.898913">
        <ele>4.0</ele>
        <time>2020-08-13T03:02:36Z</time>
      </trkpt>
      <trkpt lat="47.542839" lon="-2.898969">
        <ele>4.0</ele>
        <time>2020-08-13T03:02:36Z</time>
      </trkpt>
      <trkpt lat="47.542913" lon="-2.899197">
        <ele>4.1</ele>
        <time>2020-08-13T03:02:40Z</time>
      </trkpt>
      <trkpt lat="47.542913" lon="-2.899197">
        <ele>4.1</ele>
        <time>2020-08-13T03:02:40Z</time>
      </trkpt>
      <trkpt lat="47.542839" lon="-2.898969">
        <ele>4.0</ele>
        <time>2020-08-13T03:02:43Z</time>
      </trkpt>
      <trkpt lat="47.542834" lon="-2.898913">
        <ele>4.0</ele>
        <time>2020-08-13T03:02:44Z</time>
      </trkpt>
      <trkpt lat="47.542877" lon="-2.898757">
        <ele>4.0</ele>
        <time>2020-08-13T03:02:46Z</time>
      </trkpt>
      <trkpt lat="47.54347" lon="-2.898106">
        <ele>5.4</ele>
        <time>2020-08-13T03:03:00Z</time>
      </trkpt>
      <trkpt lat="47.543737" lon="-2.897849">
        <ele>5.4</ele>
        <time>2020-08-13T03:03:05Z</time>
      </trkpt>
      <trkpt lat="47.544043" lon="-2.89762">
        <ele>5.4</ele>
        <time>2020-08-13T03:03:12Z</time>
      </trkpt>
      <trkpt lat="47.544397" lon="-2.897416">
        <ele>4.4</ele>
        <time>2020-08-13T03:03:19Z</time>
      </trkpt>
      <trkpt lat="47.544397" lon="-2.897359">
        <ele>4.4</ele>
        <time>2020-08-13T03:03:19Z</time>
      </trkpt>
      <trkpt lat="47.544448" lon="-2.897276">
        <ele>4.4</ele>
        <time>2020-08-13T03:03:21Z</time>
      </trkpt>
      <trkpt lat="47.544475" lon="-2.897269">
        <ele>4.4</ele>
        <time>2020-08-13T03:03:21Z</time>
      </trkpt>
      <trkpt lat="47.54453" lon="-2.897303">
        <ele>4.4</ele>
        <time>2020-08-13T03:03:22Z</time>
      </trkpt>
      <trkpt lat="47.544547" lon="-2.897338">
        <ele>4.4</ele>
        <time>2020-08-13T03:03:23Z</time>
      </trkpt>
      <trkpt lat="47.544666" lon="-2.897327">
        <ele>4.4</ele>
        <time>2020-08-13T03:03:25Z</time>
      </trkpt>
      <trkpt lat="47.545361" lon="-2.897035">
        <ele>5.4</ele>
        <time>2020-08-13T03:03:39Z</time>
      </trkpt>
      <trkpt lat="47.545894" lon="-2.896855">
        <ele>5.2</ele>
        <time>2020-08-13T03:03:49Z</time>
      </trkpt>
      <trkpt lat="47.546142" lon="-2.896666">
        <ele>4.8</ele>
        <time>2020-08-13T03:03:54Z</time>
      </trkpt>
      <trkpt lat="47.546469" lon="-2.896243">
        <ele>4.8</ele>
        <time>2020-08-13T03:04:02Z</time>
      </trkpt>
      <trkpt lat="47.546232" lon="-2.892419">
        <ele>4.2</ele>
        <time>2020-08-13T03:04:47Z</time>
      </trkpt>
      <trkpt lat="47.546185" lon="-2.892342">
        <ele>4.2</ele>
        <time>2020-08-13T03:04:48Z</time>
      </trkpt>
      <trkpt lat="47.546203" lon="-2.892242">
        <ele>4.2</ele>
        <time>2020-08-13T03:04:49Z</time>
      </trkpt>
      <trkpt lat="47.546222" lon="-2.892221">
        <ele>4.2</ele>
        <time>2020-08-13T03:04:49Z</time>
      </trkpt>
      <trkpt lat="47.54618" lon="-2.89164">
        <ele>4.4</ele>
        <time>2020-08-13T03:04:53Z</time>
      </trkpt>
      <trkpt lat="47.546151" lon="-2.890863">
        <ele>4.4</ele>
        <time>2020-08-13T03:04:58Z</time>
      </trkpt>
      <trkpt lat="47.546108" lon="-2.890598">
        <ele>4.6</ele>
        <time>2020-08-13T03:05:00Z</time>
      </trkpt>
      <trkpt lat="47.546052" lon="-2.890469">
        <ele>4.6</ele>
        <time>2020-08-13T03:05:01Z</time>
      </trkpt>
      <trkpt lat="47.545938" lon="-2.890377">
        <ele>4.6</ele>
        <time>2020-08-13T03:05:03Z</time>
      </trkpt>
      <trkpt lat="47.545864" lon="-2.890211">
        <ele>4.6</ele>
        <time>2020-08-13T03:05:05Z</time>
      </trkpt>
      <trkpt lat="47.545846" lon="-2.890119">
        <ele>4.6</ele>
        <time>2020-08-13T03:05:05Z</time>
      </trkpt>
      <trkpt lat="47.545859" lon="-2.889883">
        <ele>5.6</ele>
        <time>2020-08-13T03:05:07Z</time>
      </trkpt>
      <trkpt lat="47.545936" lon="-2.889708">
        <ele>5.6</ele>
        <time>2020-08-13T03:05:09Z</time>
      </trkpt>
      <trkpt lat="47.545961" lon="-2.889591">
        <ele>5.6</ele>
        <time>2020-08-13T03:05:10Z</time>
      </trkpt>
      <trkpt lat="47.545962" lon="-2.88948">
        <ele>5.6</ele>
        <time>2020-08-13T03:05:11Z</time>
      </trkpt>
      <trkpt lat="47.54588" lon="-2.889007">
        <ele>7.6</ele>
        <time>2020-08-13T03:05:16Z</time>
      </trkpt>
      <trkpt lat="47.545736" lon="-2.888542">
        <ele>8.8</ele>
        <time>2020-08-13T03:05:20Z</time>
      </trkpt>
      <trkpt lat="47.545538" lon="-2.888008">
        <ele>11.2</ele>
        <time>2020-08-13T03:05:25Z</time>
      </trkpt>
      <trkpt lat="47.545163" lon="-2.887182">
        <ele>11.8</ele>
        <time>2020-08-13T03:05:34Z</time>
      </trkpt>
      <trkpt lat="47.544204" lon="-2.885168">
        <ele>14.8</ele>
        <time>2020-08-13T03:05:55Z</time>
      </trkpt>
      <trkpt lat="47.543106" lon="-2.882914">
        <ele>18.0</ele>
        <time>2020-08-13T03:06:19Z</time>
      </trkpt>
      <trkpt lat="47.542028" lon="-2.880823">
        <ele>17.6</ele>
        <time>2020-08-13T03:06:42Z</time>
      </trkpt>
      <trkpt lat="47.54154" lon="-2.87984">
        <ele>17.8</ele>
        <time>2020-08-13T03:06:53Z</time>
      </trkpt>
      <trkpt lat="47.541167" lon="-2.879285">
        <ele>17.8</ele>
        <time>2020-08-13T03:07:00Z</time>
      </trkpt>
      <trkpt lat="47.541048" lon="-2.879312">
        <ele>17.8</ele>
        <time>2020-08-13T03:07:00Z</time>
      </trkpt>
      <trkpt lat="47.540915" lon="-2.879242">
        <ele>17.8</ele>
        <time>2020-08-13T03:07:01Z</time>
      </trkpt>
      <trkpt lat="47.540841" lon="-2.87913">
        <ele>17.0</ele>
        <time>2020-08-13T03:07:02Z</time>
      </trkpt>
      <trkpt lat="47.54082" lon="-2.879067">
        <ele>16.8</ele>
        <time>2020-08-13T03:07:02Z</time>
      </trkpt>
      <trkpt lat="47.540801" lon="-2.878913">
        <ele>16.8</ele>
        <time>2020-08-13T03:07:03Z</time>
      </trkpt>
      <trkpt lat="47.540805" lon="-2.878818">
        <ele>16.8</ele>
        <time>2020-08-13T03:07:03Z</time>
      </trkpt>
      <trkpt lat="47.540843" lon="-2.878688">
        <ele>17.0</ele>
        <time>2020-08-13T03:07:03Z</time>
      </trkpt>
      <trkpt lat="47.540782" lon="-2.878456">
        <ele>16.8</ele>
        <time>2020-08-13T03:07:04Z</time>
      </trkpt>
      <trkpt lat="47.540136" lon="-2.876883">
        <ele>15.6</ele>
        <time>2020-08-13T03:07:11Z</time>
      </trkpt>
      <trkpt lat="47.539904" lon="-2.87619">
        <ele>14.6</ele>
        <time>2020-08-13T03:07:14Z</time>
      </trkpt>
      <trkpt lat="47.539742" lon="-2.875632">
        <ele>13.8</ele>
        <time>2020-08-13T03:07:16Z</time>
      </trkpt>
      <trkpt lat="47.539608" lon="-2.87509">
        <ele>13.8</ele>
        <time>2020-08-13T03:07:18Z</time>
      </trkpt>
      <trkpt lat="47.538272" lon="-2.869218">
        <ele>15.0</ele>
        <time>2020-08-13T03:07:41Z</time>
      </trkpt>
      <trkpt lat="47.537982" lon="-2.868059">
        <ele>15.8</ele>
        <time>2020-08-13T03:07:46Z</time>
      </trkpt>
      <trkpt lat="47.535953" lon="-2.861177">
        <ele>7.8</ele>
        <time>2020-08-13T03:08:13Z</time>
      </trkpt>
      <trkpt lat="47.533344" lon="-2.852579">
        <ele>3.6</ele>
        <time>2020-08-13T03:08:48Z</time>
      </trkpt>
      <trkpt lat="47.533129" lon="-2.851781">
        <ele>3.4</ele>
        <time>2020-08-13T03:08:51Z</time>
      </trkpt>
      <trkpt lat="47.532763" lon="-2.850204">
        <ele>6.0</ele>
        <time>2020-08-13T03:08:57Z</time>
      </trkpt>
      <trkpt lat="47.532619" lon="-2.849458">
        <ele>9.8</ele>
        <time>2020-08-13T03:09:00Z</time>
      </trkpt>
      <trkpt lat="47.532273" lon="-2.847333">
        <ele>12.6</ele>
        <time>2020-08-13T03:09:08Z</time>
      </trkpt>
      <trkpt lat="47.532168" lon="-2.846519">
        <ele>12.6</ele>
        <time>2020-08-13T03:09:11Z</time>
      </trkpt>
      <trkpt lat="47.532055" lon="-2.845421">
        <ele>13.0</ele>
        <time>2020-08-13T03:09:15Z</time>
      </trkpt>
      <trkpt lat="47.532004" lon="-2.845219">
        <ele>13.0</ele>
        <time>2020-08-13T03:09:16Z</time>
      </trkpt>
      <trkpt lat="47.531908" lon="-2.845056">
        <ele>13.0</ele>
        <time>2020-08-13T03:09:17Z</time>
      </trkpt>
      <trkpt lat="47.53184" lon="-2.845002">
        <ele>13.0</ele>
        <time>2020-08-13T03:09:17Z</time>
      </trkpt>
      <trkpt lat="47.531787" lon="-2.844927">
        <ele>13.0</ele>
        <time>2020-08-13T03:09:17Z</time>
      </trkpt>
      <trkpt lat="47.531749" lon="-2.844833">
        <ele>13.0</ele>
        <time>2020-08-13T03:09:18Z</time>
      </trkpt>
      <trkpt lat="47.531727" lon="-2.844677">
        <ele>13.0</ele>
        <time>2020-08-13T03:09:18Z</time>
      </trkpt>
      <trkpt lat="47.531731" lon="-2.844596">
        <ele>13.0</ele>
        <time>2020-08-13T03:09:19Z</time>
      </trkpt>
      <trkpt lat="47.531772" lon="-2.844446">
        <ele>13.0</ele>
        <time>2020-08-13T03:09:19Z</time>
      </trkpt>
      <trkpt lat="47.531854" lon="-2.844326">
        <ele>13.0</ele>
        <time>2020-08-13T03:09:20Z</time>
      </trkpt>
      <trkpt lat="47.53192" lon="-2.844179">
        <ele>13.0</ele>
        <time>2020-08-13T03:09:20Z</time>
      </trkpt>
      <trkpt lat="47.531947" lon="-2.844041">
        <ele>12.6</ele>
        <time>2020-08-13T03:09:21Z</time>
      </trkpt>
      <trkpt lat="47.531958" lon="-2.843485">
        <ele>12.6</ele>
        <time>2020-08-13T03:09:23Z</time>
      </trkpt>
      <trkpt lat="47.531943" lon="-2.84277">
        <ele>11.6</ele>
        <time>2020-08-13T03:09:25Z</time>
      </trkpt>
      <trkpt lat="47.53172" lon="-2.837269">
        <ele>17.2</ele>
        <time>2020-08-13T03:09:44Z</time>
      </trkpt>
      <trkpt lat="47.531532" lon="-2.835787">
        <ele>16.8</ele>
        <time>2020-08-13T03:09:49Z</time>
      </trkpt>
      <trkpt lat="47.530936" lon="-2.831882">
        <ele>12.6</ele>
        <time>2020-08-13T03:10:03Z</time>
      </trkpt>
      <trkpt lat="47.530606" lon="-2.82952">
        <ele>12.6</ele>
        <time>2020-08-13T03:10:12Z</time>
      </trkpt>
      <trkpt lat="47.530476" lon="-2.828687">
        <ele>12.6</ele>
        <time>2020-08-13T03:10:14Z</time>
      </trkpt>
      <trkpt lat="47.53009" lon="-2.826675">
        <ele>10.6</ele>
        <time>2020-08-13T03:10:22Z</time>
      </trkpt>
      <trkpt lat="47.52986" lon="-2.825637">
        <ele>10.6</ele>
        <time>2020-08-13T03:10:25Z</time>
      </trkpt>
      <trkpt lat="47.52924" lon="-2.823022">
        <ele>7.6</ele>
        <time>2020-08-13T03:10:35Z</time>
      </trkpt>
      <trkpt lat="47.529083" lon="-2.822488">
        <ele>9.4</ele>
        <time>2020-08-13T03:10:37Z</time>
      </trkpt>
      <trkpt lat="47.528915" lon="-2.822005">
        <ele>9.4</ele>
        <time>2020-08-13T03:10:39Z</time>
      </trkpt>
      <trkpt lat="47.528194" lon="-2.820283">
        <ele>12.8</ele>
        <time>2020-08-13T03:10:46Z</time>
      </trkpt>
      <trkpt lat="47.528045" lon="-2.819851">
        <ele>13.8</ele>
        <time>2020-08-13T03:10:48Z</time>
      </trkpt>
      <trkpt lat="47.527927" lon="-2.819427">
        <ele>13.8</ele>
        <time>2020-08-13T03:10:49Z</time>
      </trkpt>
      <trkpt lat="47.527824" lon="-2.818961">
        <ele>14.2</ele>
        <time>2020-08-13T03:10:51Z</time>
      </trkpt>
      <trkpt lat="47.527717" lon="-2.81802">
        <ele>14.6</ele>
        <time>2020-08-13T03:10:54Z</time>
      </trkpt>
      <trkpt lat="47.527663" lon="-2.817244">
        <ele>15.2</ele>
        <time>2020-08-13T03:10:57Z</time>
      </trkpt>
      <trkpt lat="47.527585" lon="-2.815753">
        <ele>15.4</ele>
        <time>2020-08-13T03:11:02Z</time>
      </trkpt>
      <trkpt lat="47.527594" lon="-2.815372">
        <ele>15.4</ele>
        <time>2020-08-13T03:11:03Z</time>
      </trkpt>
      <trkpt lat="47.527647" lon="-2.814747">
        <ele>16.0</ele>
        <time>2020-08-13T03:11:06Z</time>
      </trkpt>
      <trkpt lat="47.527761" lon="-2.813863">
        <ele>16.2</ele>
        <time>2020-08-13T03:11:09Z</time>
      </trkpt>
      <trkpt lat="47.528084" lon="-2.811571">
        <ele>15.4</ele>
        <time>2020-08-13T03:11:17Z</time>
      </trkpt>
      <trkpt lat="47.52821" lon="-2.810834">
        <ele>15.4</ele>
        <time>2020-08-13T03:11:19Z</time>
      </trkpt>
      <trkpt lat="47.528351" lon="-2.81026">
        <ele>13.0</ele>
        <time>2020-08-13T03:11:21Z</time>
      </trkpt>
      <trkpt lat="47.528529" lon="-2.809662">
        <ele>13.0</ele>
        <time>2020-08-13T03:11:24Z</time>
      </trkpt>
      <trkpt lat="47.529038" lon="-2.808233">
        <ele>15.6</ele>
        <time>2020-08-13T03:11:29Z</time>
      </trkpt>
      <trkpt lat="47.529215" lon="-2.807548">
        <ele>11.6</ele>
        <time>2020-08-13T03:11:32Z</time>
      </trkpt>
      <trkpt lat="47.529289" lon="-2.807159">
        <ele>12.6</ele>
        <time>2020-08-13T03:11:33Z</time>
      </trkpt>
      <trkpt lat="47.529349" lon="-2.806663">
        <ele>13.2</ele>
        <time>2020-08-13T03:11:35Z</time>
      </trkpt>
      <trkpt lat="47.529364" lon="-2.806242">
        <ele>13.2</ele>
        <time>2020-08-13T03:11:36Z</time>
      </trkpt>
      <trkpt lat="47.52936" lon="-2.805786">
        <ele>13.0</ele>
        <time>2020-08-13T03:11:38Z</time>
      </trkpt>
      <trkpt lat="47.52932" lon="-2.805284">
        <ele>13.0</ele>
        <time>2020-08-13T03:11:40Z</time>
      </trkpt>
      <trkpt lat="47.528663" lon="-2.800246">
        <ele>17.4</ele>
        <time>2020-08-13T03:11:57Z</time>
      </trkpt>
      <trkpt lat="47.528424" lon="-2.798872">
        <ele>21.6</ele>
        <time>2020-08-13T03:12:02Z</time>
      </trkpt>
      <trkpt lat="47.528148" lon="-2.798003">
        <ele>25.8</ele>
        <time>2020-08-13T03:12:06Z</time>
      </trkpt>
      <trkpt lat="47.526738" lon="-2.794455">
        <ele>27.6</ele>
        <time>2020-08-13T03:12:20Z</time>
      </trkpt>
      <trkpt lat="47.526631" lon="-2.794491">
        <ele>29.4</ele>
        <time>2020-08-13T03:12:21Z</time>
      </trkpt>
      <trkpt lat="47.526573" lon="-2.794472">
        <ele>29.4</ele>
        <time>2020-08-13T03:12:21Z</time>
      </trkpt>
      <trkpt lat="47.526479" lon="-2.794351">
        <ele>29.4</ele>
        <time>2020-08-13T03:12:22Z</time>
      </trkpt>
      <trkpt lat="47.526454" lon="-2.794214">
        <ele>29.4</ele>
        <time>2020-08-13T03:12:23Z</time>
      </trkpt>
      <trkpt lat="47.526486" lon="-2.794056">
        <ele>30.0</ele>
        <time>2020-08-13T03:12:23Z</time>
      </trkpt>
      <trkpt lat="47.526539" lon="-2.793977">
        <ele>30.0</ele>
        <time>2020-08-13T03:12:24Z</time>
      </trkpt>
      <trkpt lat="47.526471" lon="-2.793841">
        <ele>30.0</ele>
        <time>2020-08-13T03:12:25Z</time>
      </trkpt>
      <trkpt lat="47.524376" lon="-2.788387">
        <ele>33.2</ele>
        <time>2020-08-13T03:12:54Z</time>
      </trkpt>
      <trkpt lat="47.524199" lon="-2.788013">
        <ele>33.4</ele>
        <time>2020-08-13T03:12:56Z</time>
      </trkpt>
      <trkpt lat="47.523761" lon="-2.78693">
        <ele>32.4</ele>
        <time>2020-08-13T03:13:02Z</time>
      </trkpt>
      <trkpt lat="47.523474" lon="-2.786166">
        <ele>32.0</ele>
        <time>2020-08-13T03:13:06Z</time>
      </trkpt>
      <trkpt lat="47.523144" lon="-2.785377">
        <ele>30.2</ele>
        <time>2020-08-13T03:13:10Z</time>
      </trkpt>
      <trkpt lat="47.522574" lon="-2.783862">
        <ele>30.4</ele>
        <time>2020-08-13T03:13:18Z</time>
      </trkpt>
      <trkpt lat="47.522446" lon="-2.783397">
        <ele>28.6</ele>
        <time>2020-08-13T03:13:21Z</time>
      </trkpt>
      <trkpt lat="47.522284" lon="-2.782958">
        <ele>28.2</ele>
        <time>2020-08-13T03:13:23Z</time>
      </trkpt>
      <trkpt lat="47.52206" lon="-2.782039">
        <ele>28.6</ele>
        <time>2020-08-13T03:13:28Z</time>
      </trkpt>
      <trkpt lat="47.521893" lon="-2.780972">
        <ele>28.4</ele>
        <time>2020-08-13T03:13:33Z</time>
      </trkpt>
      <trkpt lat="47.521817" lon="-2.780422">
        <ele>27.8</ele>
        <time>2020-08-13T03:13:35Z</time>
      </trkpt>
      <trkpt lat="47.521672" lon="-2.778852">
        <ele>27.0</ele>
        <time>2020-08-13T03:13:43Z</time>
      </trkpt>
      <trkpt lat="47.521585" lon="-2.778123">
        <ele>26.0</ele>
        <time>2020-08-13T03:13:46Z</time>
      </trkpt>
      <trkpt lat="47.521543" lon="-2.777913">
        <ele>26.0</ele>
        <time>2020-08-13T03:13:47Z</time>
      </trkpt>
      <trkpt lat="47.521461" lon="-2.777876">
        <ele>26.0</ele>
        <time>2020-08-13T03:13:48Z</time>
      </trkpt>
      <trkpt lat="47.521385" lon="-2.777793">
        <ele>26.0</ele>
        <time>2020-08-13T03:13:49Z</time>
      </trkpt>
      <trkpt lat="47.521313" lon="-2.777599">
        <ele>26.0</ele>
        <time>2020-08-13T03:13:51Z</time>
      </trkpt>
      <trkpt lat="47.521309" lon="-2.777525">
        <ele>26.0</ele>
        <time>2020-08-13T03:13:51Z</time>
      </trkpt>
      <trkpt lat="47.521316" lon="-2.777421">
        <ele>26.2</ele>
        <time>2020-08-13T03:13:52Z</time>
      </trkpt>
      <trkpt lat="47.521354" lon="-2.777292">
        <ele>26.2</ele>
        <time>2020-08-13T03:13:53Z</time>
      </trkpt>
      <trkpt lat="47.521419" lon="-2.77719">
        <ele>26.2</ele>
        <time>2020-08-13T03:13:54Z</time>
      </trkpt>
      <trkpt lat="47.521485" lon="-2.777135">
        <ele>26.2</ele>
        <time>2020-08-13T03:13:55Z</time>
      </trkpt>
      <trkpt lat="47.521541" lon="-2.776857">
        <ele>26.2</ele>
        <time>2020-08-13T03:13:57Z</time>
      </trkpt>
      <trkpt lat="47.521577" lon="-2.776449">
        <ele>25.8</ele>
        <time>2020-08-13T03:13:59Z</time>
      </trkpt>
      <trkpt lat="47.521628" lon="-2.775505">
        <ele>24.8</ele>
        <time>2020-08-13T03:14:06Z</time>
      </trkpt>
      <trkpt lat="47.521719" lon="-2.775037">
        <ele>24.0</ele>
        <time>2020-08-13T03:14:09Z</time>
      </trkpt>
      <trkpt lat="47.522041" lon="-2.768928">
        <ele>16.6</ele>
        <time>2020-08-13T03:14:51Z</time>
      </trkpt>
      <trkpt lat="47.522005" lon="-2.768198">
        <ele>16.2</ele>
        <time>2020-08-13T03:14:56Z</time>
      </trkpt>
      <trkpt lat="47.521939" lon="-2.767862">
        <ele>16.2</ele>
        <time>2020-08-13T03:14:59Z</time>
      </trkpt>
      <trkpt lat="47.521881" lon="-2.767699">
        <ele>16.2</ele>
        <time>2020-08-13T03:15:00Z</time>
      </trkpt>
      <trkpt lat="47.52187" lon="-2.767555">
        <ele>16.2</ele>
        <time>2020-08-13T03:15:00Z</time>
      </trkpt>
      <trkpt lat="47.521901" lon="-2.767402">
        <ele>15.6</ele>
        <time>2020-08-13T03:15:01Z</time>
      </trkpt>
      <trkpt lat="47.521944" lon="-2.767316">
        <ele>15.6</ele>
        <time>2020-08-13T03:15:02Z</time>
      </trkpt>
      <trkpt lat="47.522095" lon="-2.767128">
        <ele>15.6</ele>
        <time>2020-08-13T03:15:03Z</time>
      </trkpt>
      <trkpt lat="47.522127" lon="-2.767058">
        <ele>15.6</ele>
        <time>2020-08-13T03:15:04Z</time>
      </trkpt>
      <trkpt lat="47.522534" lon="-2.764625">
        <ele>16.4</ele>
        <time>2020-08-13T03:15:16Z</time>
      </trkpt>
      <trkpt lat="47.52288" lon="-2.763182">
        <ele>13.8</ele>
        <time>2020-08-13T03:15:24Z</time>
      </trkpt>
      <trkpt lat="47.523106" lon="-2.762318">
        <ele>12.8</ele>
        <time>2020-08-13T03:15:28Z</time>
      </trkpt>
      <trkpt lat="47.52336" lon="-2.761522">
        <ele>14.8</ele>
        <time>2020-08-13T03:15:33Z</time>
      </trkpt>
      <trkpt lat="47.523638" lon="-2.760736">
        <ele>15.0</ele>
        <time>2020-08-13T03:15:37Z</time>
      </trkpt>
      <trkpt lat="47.524014" lon="-2.759767">
        <ele>15.4</ele>
        <time>2020-08-13T03:15:43Z</time>
      </trkpt>
      <trkpt lat="47.524726" lon="-2.758233">
        <ele>18.2</ele>
        <time>2020-08-13T03:15:52Z</time>
      </trkpt>
      <trkpt lat="47.525249" lon="-2.757284">
        <ele>22.0</ele>
        <time>2020-08-13T03:15:58Z</time>
      </trkpt>
      <trkpt lat="47.525698" lon="-2.756563">
        <ele>22.0</ele>
        <time>2020-08-13T03:16:03Z</time>
      </trkpt>
      <trkpt lat="47.526242" lon="-2.755742">
        <ele>24.8</ele>
        <time>2020-08-13T03:16:09Z</time>
      </trkpt>
      <trkpt lat="47.52845" lon="-2.752604">
        <ele>22.6</ele>
        <time>2020-08-13T03:16:32Z</time>
      </trkpt>
      <trkpt lat="47.528812" lon="-2.752029">
        <ele>20.6</ele>
        <time>2020-08-13T03:16:35Z</time>
      </trkpt>
      <trkpt lat="47.529479" lon="-2.751173">
        <ele>20.0</ele>
        <time>2020-08-13T03:16:42Z</time>
      </trkpt>
      <trkpt lat="47.530067" lon="-2.750374">
        <ele>22.8</ele>
        <time>2020-08-13T03:16:48Z</time>
      </trkpt>
      <trkpt lat="47.532061" lon="-2.747499">
        <ele>18.4</ele>
        <time>2020-08-13T03:17:08Z</time>
      </trkpt>
      <trkpt lat="47.535603" lon="-2.742462">
        <ele>9.2</ele>
        <time>2020-08-13T03:17:45Z</time>
      </trkpt>
      <trkpt lat="47.537127" lon="-2.740372">
        <ele>9.0</ele>
        <time>2020-08-13T03:18:00Z</time>
      </trkpt>
      <trkpt lat="47.539092" lon="-2.737584">
        <ele>12.0</ele>
        <time>2020-08-13T03:18:20Z</time>
      </trkpt>
      <trkpt lat="47.539549" lon="-2.736867">
        <ele>9.0</ele>
        <time>2020-08-13T03:18:25Z</time>
      </trkpt>
      <trkpt lat="47.539846" lon="-2.736321">
        <ele>7.0</ele>
        <time>2020-08-13T03:18:29Z</time>
      </trkpt>
      <trkpt lat="47.540159" lon="-2.73563">
        <ele>3.0</ele>
        <time>2020-08-13T03:18:33Z</time>
      </trkpt>
      <trkpt lat="47.540352" lon="-2.73511">
        <ele>3.0</ele>
        <time>2020-08-13T03:18:36Z</time>
      </trkpt>
      <trkpt lat="47.540726" lon="-2.733919">
        <ele>6.6</ele>
        <time>2020-08-13T03:18:42Z</time>
      </trkpt>
      <trkpt lat="47.542229" lon="-2.728832">
        <ele>12.2</ele>
        <time>2020-08-13T03:19:10Z</time>
      </trkpt>
      <trkpt lat="47.542684" lon="-2.727402">
        <ele>12.2</ele>
        <time>2020-08-13T03:19:18Z</time>
      </trkpt>
      <trkpt lat="47.543413" lon="-2.725">
        <ele>13.4</ele>
        <time>2020-08-13T03:19:31Z</time>
      </trkpt>
      <trkpt lat="47.543714" lon="-2.724248">
        <ele>14.2</ele>
        <time>2020-08-13T03:19:35Z</time>
      </trkpt>
      <trkpt lat="47.54431" lon="-2.722917">
        <ele>15.0</ele>
        <time>2020-08-13T03:19:43Z</time>
      </trkpt>
      <trkpt lat="47.544445" lon="-2.722668">
        <ele>15.0</ele>
        <time>2020-08-13T03:19:45Z</time>
      </trkpt>
      <trkpt lat="47.545144" lon="-2.721549">
        <ele>14.8</ele>
        <time>2020-08-13T03:19:53Z</time>
      </trkpt>
      <trkpt lat="47.545426" lon="-2.721188">
        <ele>14.8</ele>
        <time>2020-08-13T03:19:55Z</time>
      </trkpt>
      <trkpt lat="47.546102" lon="-2.720402">
        <ele>14.6</ele>
        <time>2020-08-13T03:20:02Z</time>
      </trkpt>
      <trkpt lat="47.546308" lon="-2.720189">
        <ele>14.6</ele>
        <time>2020-08-13T03:20:04Z</time>
      </trkpt>
      <trkpt lat="47.546624" lon="-2.719907">
        <ele>14.4</ele>
        <time>2020-08-13T03:20:06Z</time>
      </trkpt>
      <trkpt lat="47.547338" lon="-2.719342">
        <ele>14.0</ele>
        <time>2020-08-13T03:20:12Z</time>
      </trkpt>
      <trkpt lat="47.54821" lon="-2.71883">
        <ele>13.4</ele>
        <time>2020-08-13T03:20:19Z</time>
      </trkpt>
      <trkpt lat="47.549937" lon="-2.717952">
        <ele>11.4</ele>
        <time>2020-08-13T03:20:33Z</time>
      </trkpt>
      <trkpt lat="47.550334" lon="-2.717729">
        <ele>9.8</ele>
        <time>2020-08-13T03:20:36Z</time>
      </trkpt>
      <trkpt lat="47.550842" lon="-2.717399">
        <ele>8.6</ele>
        <time>2020-08-13T03:20:40Z</time>
      </trkpt>
      <trkpt lat="47.550941" lon="-2.717286">
        <ele>8.6</ele>
        <time>2020-08-13T03:20:41Z</time>
      </trkpt>
      <trkpt lat="47.551034" lon="-2.717118">
        <ele>8.6</ele>
        <time>2020-08-13T03:20:42Z</time>
      </trkpt>
      <trkpt lat="47.551041" lon="-2.717023">
        <ele>8.6</ele>
        <time>2020-08-13T03:20:42Z</time>
      </trkpt>
      <trkpt lat="47.551081" lon="-2.716918">
        <ele>8.6</ele>
        <time>2020-08-13T03:20:43Z</time>
      </trkpt>
      <trkpt lat="47.551132" lon="-2.716858">
        <ele>8.6</ele>
        <time>2020-08-13T03:20:43Z</time>
      </trkpt>
      <trkpt lat="47.551194" lon="-2.716827">
        <ele>8.6</ele>
        <time>2020-08-13T03:20:43Z</time>
      </trkpt>
      <trkpt lat="47.551278" lon="-2.716836">
        <ele>8.6</ele>
        <time>2020-08-13T03:20:44Z</time>
      </trkpt>
      <trkpt lat="47.551351" lon="-2.716898">
        <ele>8.6</ele>
        <time>2020-08-13T03:20:44Z</time>
      </trkpt>
      <trkpt lat="47.551383" lon="-2.716954">
        <ele>8.6</ele>
        <time>2020-08-13T03:20:45Z</time>
      </trkpt>
      <trkpt lat="47.551486" lon="-2.716976">
        <ele>8.6</ele>
        <time>2020-08-13T03:20:45Z</time>
      </trkpt>
      <trkpt lat="47.551698" lon="-2.716954">
        <ele>9.0</ele>
        <time>2020-08-13T03:20:46Z</time>
      </trkpt>
      <trkpt lat="47.55201" lon="-2.716841">
        <ele>9.0</ele>
        <time>2020-08-13T03:20:48Z</time>
      </trkpt>
      <trkpt lat="47.552181" lon="-2.716802">
        <ele>9.0</ele>
        <time>2020-08-13T03:20:49Z</time>
      </trkpt>
      <trkpt lat="47.553972" lon="-2.71574">
        <ele>10.4</ele>
        <time>2020-08-13T03:20:59Z</time>
      </trkpt>
      <trkpt lat="47.558579" lon="-2.712942">
        <ele>13.2</ele>
        <time>2020-08-13T03:21:24Z</time>
      </trkpt>
      <trkpt lat="47.565046" lon="-2.709053">
        <ele>6.8</ele>
        <time>2020-08-13T03:22:00Z</time>
      </trkpt>
      <trkpt lat="47.566018" lon="-2.708353">
        <ele>7.0</ele>
        <time>2020-08-13T03:22:05Z</time>
      </trkpt>
      <trkpt lat="47.566174" lon="-2.708204">
        <ele>8.2</ele>
        <time>2020-08-13T03:22:06Z</time>
      </trkpt>
      <trkpt lat="47.5665" lon="-2.707855">
        <ele>8.2</ele>
        <time>2020-08-13T03:22:08Z</time>
      </trkpt>
      <trkpt lat="47.567121" lon="-2.707104">
        <ele>8.6</ele>
        <time>2020-08-13T03:22:12Z</time>
      </trkpt>
      <trkpt lat="47.567279" lon="-2.706841">
        <ele>8.6</ele>
        <time>2020-08-13T03:22:14Z</time>
      </trkpt>
      <trkpt lat="47.567283" lon="-2.706666">
        <ele>10.0</ele>
        <time>2020-08-13T03:22:14Z</time>
      </trkpt>
      <trkpt lat="47.567322" lon="-2.706571">
        <ele>10.0</ele>
        <time>2020-08-13T03:22:15Z</time>
      </trkpt>
      <trkpt lat="47.567423" lon="-2.70649">
        <ele>10.0</ele>
        <time>2020-08-13T03:22:16Z</time>
      </trkpt>
      <trkpt lat="47.567471" lon="-2.706485">
        <ele>10.0</ele>
        <time>2020-08-13T03:22:16Z</time>
      </trkpt>
      <trkpt lat="47.567553" lon="-2.706523">
        <ele>10.6</ele>
        <time>2020-08-13T03:22:17Z</time>
      </trkpt>
      <trkpt lat="47.567608" lon="-2.706598">
        <ele>10.6</ele>
        <time>2020-08-13T03:22:17Z</time>
      </trkpt>
      <trkpt lat="47.56774" lon="-2.70667">
        <ele>9.0</ele>
        <time>2020-08-13T03:22:18Z</time>
      </trkpt>
      <trkpt lat="47.568269" lon="-2.706624">
        <ele>10.6</ele>
        <time>2020-08-13T03:22:21Z</time>
      </trkpt>
      <trkpt lat="47.568834" lon="-2.706529">
        <ele>12.0</ele>
        <time>2020-08-13T03:22:25Z</time>
      </trkpt>
      <trkpt lat="47.569137" lon="-2.706448">
        <ele>12.0</ele>
        <time>2020-08-13T03:22:27Z</time>
      </trkpt>
      <trkpt lat="47.569434" lon="-2.706336">
        <ele>11.4</ele>
        <time>2020-08-13T03:22:29Z</time>
      </trkpt>
      <trkpt lat="47.571268" lon="-2.705267">
        <ele>11.8</ele>
        <time>2020-08-13T03:22:42Z</time>
      </trkpt>
      <trkpt lat="47.572471" lon="-2.704366">
        <ele>11.0</ele>
        <time>2020-08-13T03:22:51Z</time>
      </trkpt>
      <trkpt lat="47.573445" lon="-2.703459">
        <ele>11.4</ele>
        <time>2020-08-13T03:22:58Z</time>
      </trkpt>
      <trkpt lat="47.574688" lon="-2.70203">
        <ele>14.2</ele>
        <time>2020-08-13T03:23:09Z</time>
      </trkpt>
      <trkpt lat="47.575113" lon="-2.701477">
        <ele>15.6</ele>
        <time>2020-08-13T03:23:12Z</time>
      </trkpt>
      <trkpt lat="47.578855" lon="-2.696434">
        <ele>8.8</ele>
        <time>2020-08-13T03:23:45Z</time>
      </trkpt>
      <trkpt lat="47.579642" lon="-2.695491">
        <ele>6.2</ele>
        <time>2020-08-13T03:23:52Z</time>
      </trkpt>
      <trkpt lat="47.580867" lon="-2.694206">
        <ele>4.4</ele>
        <time>2020-08-13T03:24:02Z</time>
      </trkpt>
      <trkpt lat="47.581455" lon="-2.693628">
        <ele>4.4</ele>
        <time>2020-08-13T03:24:06Z</time>
      </trkpt>
      <trkpt lat="47.581739" lon="-2.693262">
        <ele>4.4</ele>
        <time>2020-08-13T03:24:09Z</time>
      </trkpt>
      <trkpt lat="47.581984" lon="-2.69286">
        <ele>4.4</ele>
        <time>2020-08-13T03:24:11Z</time>
      </trkpt>
      <trkpt lat="47.582269" lon="-2.692271">
        <ele>5.4</ele>
        <time>2020-08-13T03:24:14Z</time>
      </trkpt>
      <trkpt lat="47.582227" lon="-2.692196">
        <ele>5.4</ele>
        <time>2020-08-13T03:24:15Z</time>
      </trkpt>
      <trkpt lat="47.582201" lon="-2.692082">
        <ele>5.4</ele>
        <time>2020-08-13T03:24:15Z</time>
      </trkpt>
      <trkpt lat="47.58221" lon="-2.69196">
        <ele>5.4</ele>
        <time>2020-08-13T03:24:16Z</time>
      </trkpt>
      <trkpt lat="47.582258" lon="-2.691845">
        <ele>5.4</ele>
        <time>2020-08-13T03:24:17Z</time>
      </trkpt>
      <trkpt lat="47.582309" lon="-2.691792">
        <ele>5.4</ele>
        <time>2020-08-13T03:24:17Z</time>
      </trkpt>
      <trkpt lat="47.582421" lon="-2.691765">
        <ele>5.4</ele>
        <time>2020-08-13T03:24:18Z</time>
      </trkpt>
      <trkpt lat="47.582521" lon="-2.691834">
        <ele>4.6</ele>
        <time>2020-08-13T03:24:19Z</time>
      </trkpt>
      <trkpt lat="47.58263" lon="-2.691862">
        <ele>4.6</ele>
        <time>2020-08-13T03:24:19Z</time>
      </trkpt>
      <trkpt lat="47.582782" lon="-2.691825">
        <ele>4.6</ele>
        <time>2020-08-13T03:24:20Z</time>
      </trkpt>
      <trkpt lat="47.583172" lon="-2.69165">
        <ele>4.6</ele>
        <time>2020-08-13T03:24:23Z</time>
      </trkpt>
      <trkpt lat="47.5835" lon="-2.691441">
        <ele>5.4</ele>
        <time>2020-08-13T03:24:25Z</time>
      </trkpt>
      <trkpt lat="47.584116" lon="-2.69096">
        <ele>5.4</ele>
        <time>2020-08-13T03:24:30Z</time>
      </trkpt>
      <trkpt lat="47.585338" lon="-2.689797">
        <ele>6.8</ele>
        <time>2020-08-13T03:24:40Z</time>
      </trkpt>
      <trkpt lat="47.585998" lon="-2.689196">
        <ele>6.2</ele>
        <time>2020-08-13T03:24:45Z</time>
      </trkpt>
      <trkpt lat="47.591108" lon="-2.68479">
        <ele>12.6</ele>
        <time>2020-08-13T03:25:25Z</time>
      </trkpt>
      <trkpt lat="47.592698" lon="-2.683453">
        <ele>16.6</ele>
        <time>2020-08-13T03:25:37Z</time>
      </trkpt>
      <trkpt lat="47.593205" lon="-2.683087">
        <ele>15.2</ele>
        <time>2020-08-13T03:25:41Z</time>
      </trkpt>
      <trkpt lat="47.593693" lon="-2.682767">
        <ele>14.8</ele>
        <time>2020-08-13T03:25:44Z</time>
      </trkpt>
      <trkpt lat="47.594203" lon="-2.682468">
        <ele>13.4</ele>
        <time>2020-08-13T03:25:48Z</time>
      </trkpt>
      <trkpt lat="47.594915" lon="-2.682123">
        <ele>13.4</ele>
        <time>2020-08-13T03:25:53Z</time>
      </trkpt>
      <trkpt lat="47.595428" lon="-2.681919">
        <ele>13.6</ele>
        <time>2020-08-13T03:25:56Z</time>
      </trkpt>
      <trkpt lat="47.595944" lon="-2.681757">
        <ele>14.4</ele>
        <time>2020-08-13T03:26:00Z</time>
      </trkpt>
      <trkpt lat="47.596943" lon="-2.68151">
        <ele>14.8</ele>
        <time>2020-08-13T03:26:07Z</time>
      </trkpt>
      <trkpt lat="47.599888" lon="-2.680982">
        <ele>15.6</ele>
        <time>2020-08-13T03:26:26Z</time>
      </trkpt>
      <trkpt lat="47.599905" lon="-2.680857">
        <ele>15.6</ele>
        <time>2020-08-13T03:26:27Z</time>
      </trkpt>
      <trkpt lat="47.59997" lon="-2.680774">
        <ele>15.2</ele>
        <time>2020-08-13T03:26:28Z</time>
      </trkpt>
      <trkpt lat="47.600012" lon="-2.68076">
        <ele>14.8</ele>
        <time>2020-08-13T03:26:28Z</time>
      </trkpt>
      <trkpt lat="47.600095" lon="-2.68079">
        <ele>14.8</ele>
        <time>2020-08-13T03:26:29Z</time>
      </trkpt>
      <trkpt lat="47.600147" lon="-2.680893">
        <ele>15.0</ele>
        <time>2020-08-13T03:26:29Z</time>
      </trkpt>
      <trkpt lat="47.600154" lon="-2.680957">
        <ele>15.0</ele>
        <time>2020-08-13T03:26:30Z</time>
      </trkpt>
      <trkpt lat="47.601285" lon="-2.680778">
        <ele>13.0</ele>
        <time>2020-08-13T03:26:38Z</time>
      </trkpt>
      <trkpt lat="47.601924" lon="-2.680711">
        <ele>10.6</ele>
        <time>2020-08-13T03:26:42Z</time>
      </trkpt>
      <trkpt lat="47.602319" lon="-2.680711">
        <ele>10.6</ele>
        <time>2020-08-13T03:26:45Z</time>
      </trkpt>
      <trkpt lat="47.60309" lon="-2.680819">
        <ele>7.8</ele>
        <time>2020-08-13T03:26:51Z</time>
      </trkpt>
      <trkpt lat="47.603693" lon="-2.681009">
        <ele>4.8</ele>
        <time>2020-08-13T03:26:55Z</time>
      </trkpt>
      <trkpt lat="47.604278" lon="-2.681287">
        <ele>4.2</ele>
        <time>2020-08-13T03:27:00Z</time>
      </trkpt>
      <trkpt lat="47.604893" lon="-2.681674">
        <ele>3.0</ele>
        <time>2020-08-13T03:27:04Z</time>
      </trkpt>
      <trkpt lat="47.605151" lon="-2.681879">
        <ele>2.4</ele>
        <time>2020-08-13T03:27:06Z</time>
      </trkpt>
      <trkpt lat="47.605646" lon="-2.682344">
        <ele>2.4</ele>
        <time>2020-08-13T03:27:11Z</time>
      </trkpt>
      <trkpt lat="47.605878" lon="-2.682581">
        <ele>2.4</ele>
        <time>2020-08-13T03:27:13Z</time>
      </trkpt>
      <trkpt lat="47.607092" lon="-2.683992">
        <ele>1.0</ele>
        <time>2020-08-13T03:27:24Z</time>
      </trkpt>
      <trkpt lat="47.607541" lon="-2.684478">
        <ele>0.0</ele>
        <time>2020-08-13T03:27:28Z</time>
      </trkpt>
      <trkpt lat="47.608089" lon="-2.684966">
        <ele>0.0</ele>
        <time>2020-08-13T03:27:32Z</time>
      </trkpt>
      <trkpt lat="47.608542" lon="-2.685285">
        <ele>0.2</ele>
        <time>2020-08-13T03:27:36Z</time>
      </trkpt>
      <trkpt lat="47.608867" lon="-2.685468">
        <ele>0.2</ele>
        <time>2020-08-13T03:27:38Z</time>
      </trkpt>
      <trkpt lat="47.609303" lon="-2.685681">
        <ele>2.2</ele>
        <time>2020-08-13T03:27:42Z</time>
      </trkpt>
      <trkpt lat="47.610001" lon="-2.685912">
        <ele>1.8</ele>
        <time>2020-08-13T03:27:47Z</time>
      </trkpt>
      <trkpt lat="47.61047" lon="-2.685998">
        <ele>1.8</ele>
        <time>2020-08-13T03:27:50Z</time>
      </trkpt>
      <trkpt lat="47.610894" lon="-2.686037">
        <ele>2.2</ele>
        <time>2020-08-13T03:27:53Z</time>
      </trkpt>
      <trkpt lat="47.611479" lon="-2.686012">
        <ele>2.2</ele>
        <time>2020-08-13T03:27:57Z</time>
      </trkpt>
      <trkpt lat="47.615709" lon="-2.685586">
        <ele>1.0</ele>
        <time>2020-08-13T03:28:28Z</time>
      </trkpt>
      <trkpt lat="47.618164" lon="-2.685372">
        <ele>3.2</ele>
        <time>2020-08-13T03:28:45Z</time>
      </trkpt>
      <trkpt lat="47.618725" lon="-2.685407">
        <ele>4.8</ele>
        <time>2020-08-13T03:28:50Z</time>
      </trkpt>
      <trkpt lat="47.619309" lon="-2.685504">
        <ele>5.0</ele>
        <time>2020-08-13T03:28:54Z</time>
      </trkpt>
      <trkpt lat="47.621802" lon="-2.686272">
        <ele>4.2</ele>
        <time>2020-08-13T03:29:12Z</time>
      </trkpt>
      <trkpt lat="47.622701" lon="-2.686459">
        <ele>4.0</ele>
        <time>2020-08-13T03:29:19Z</time>
      </trkpt>
      <trkpt lat="47.623619" lon="-2.686603">
        <ele>4.2</ele>
        <time>2020-08-13T03:29:25Z</time>
      </trkpt>
      <trkpt lat="47.624342" lon="-2.686652">
        <ele>5.2</ele>
        <time>2020-08-13T03:29:30Z</time>
      </trkpt>
      <trkpt lat="47.625026" lon="-2.686654">
        <ele>6.4</ele>
        <time>2020-08-13T03:29:35Z</time>
      </trkpt>
      <trkpt lat="47.625528" lon="-2.686609">
        <ele>6.4</ele>
        <time>2020-08-13T03:29:39Z</time>
      </trkpt>
      <trkpt lat="47.62589" lon="-2.68655">
        <ele>7.6</ele>
        <time>2020-08-13T03:29:42Z</time>
      </trkpt>
      <trkpt lat="47.625899" lon="-2.686437">
        <ele>7.6</ele>
        <time>2020-08-13T03:29:42Z</time>
      </trkpt>
      <trkpt lat="47.625956" lon="-2.686335">
        <ele>7.6</ele>
        <time>2020-08-13T03:29:43Z</time>
      </trkpt>
      <trkpt lat="47.62603" lon="-2.686302">
        <ele>7.6</ele>
        <time>2020-08-13T03:29:43Z</time>
      </trkpt>
      <trkpt lat="47.626089" lon="-2.686319">
        <ele>7.6</ele>
        <time>2020-08-13T03:29:44Z</time>
      </trkpt>
      <trkpt lat="47.626148" lon="-2.686387">
        <ele>7.6</ele>
        <time>2020-08-13T03:29:44Z</time>
      </trkpt>
      <trkpt lat="47.626177" lon="-2.686492">
        <ele>7.6</ele>
        <time>2020-08-13T03:29:45Z</time>
      </trkpt>
      <trkpt lat="47.627181" lon="-2.686148">
        <ele>8.4</ele>
        <time>2020-08-13T03:29:53Z</time>
      </trkpt>
      <trkpt lat="47.627813" lon="-2.685837">
        <ele>8.2</ele>
        <time>2020-08-13T03:29:58Z</time>
      </trkpt>
      <trkpt lat="47.629255" lon="-2.685015">
        <ele>3.6</ele>
        <time>2020-08-13T03:30:09Z</time>
      </trkpt>
      <trkpt lat="47.632324" lon="-2.68321">
        <ele>7.0</ele>
        <time>2020-08-13T03:30:34Z</time>
      </trkpt>
      <trkpt lat="47.632809" lon="-2.682984">
        <ele>8.6</ele>
        <time>2020-08-13T03:30:38Z</time>
      </trkpt>
      <trkpt lat="47.632946" lon="-2.682883">
        <ele>8.6</ele>
        <time>2020-08-13T03:30:39Z</time>
      </trkpt>
      <trkpt lat="47.633434" lon="-2.682731">
        <ele>10.6</ele>
        <time>2020-08-13T03:30:43Z</time>
      </trkpt>
      <trkpt lat="47.633908" lon="-2.682623">
        <ele>10.6</ele>
        <time>2020-08-13T03:30:47Z</time>
      </trkpt>
      <trkpt lat="47.634642" lon="-2.682575">
        <ele>11.4</ele>
        <time>2020-08-13T03:30:52Z</time>
      </trkpt>
      <trkpt lat="47.636492" lon="-2.682775">
        <ele>6.8</ele>
        <time>2020-08-13T03:31:06Z</time>
      </trkpt>
      <trkpt lat="47.636713" lon="-2.682772">
        <ele>6.0</ele>
        <time>2020-08-13T03:31:08Z</time>
      </trkpt>
      <trkpt lat="47.636903" lon="-2.682744">
        <ele>6.0</ele>
        <time>2020-08-13T03:31:09Z</time>
      </trkpt>
      <trkpt lat="47.636979" lon="-2.682629">
        <ele>6.0</ele>
        <time>2020-08-13T03:31:10Z</time>
      </trkpt>
      <trkpt lat="47.637087" lon="-2.682567">
        <ele>6.0</ele>
        <time>2020-08-13T03:31:10Z</time>
      </trkpt>
      <trkpt lat="47.637177" lon="-2.68257">
        <ele>6.0</ele>
        <time>2020-08-13T03:31:11Z</time>
      </trkpt>
      <trkpt lat="47.637273" lon="-2.68263">
        <ele>6.0</ele>
        <time>2020-08-13T03:31:11Z</time>
      </trkpt>
      <trkpt lat="47.63734" lon="-2.682725">
        <ele>6.0</ele>
        <time>2020-08-13T03:31:12Z</time>
      </trkpt>
      <trkpt lat="47.637528" lon="-2.682795">
        <ele>6.4</ele>
        <time>2020-08-13T03:31:13Z</time>
      </trkpt>
      <trkpt lat="47.637932" lon="-2.682769">
        <ele>6.4</ele>
        <time>2020-08-13T03:31:15Z</time>
      </trkpt>
      <trkpt lat="47.639201" lon="-2.682591">
        <ele>13.4</ele>
        <time>2020-08-13T03:31:22Z</time>
      </trkpt>
      <trkpt lat="47.641238" lon="-2.682424">
        <ele>12.8</ele>
        <time>2020-08-13T03:31:32Z</time>
      </trkpt>
      <trkpt lat="47.641567" lon="-2.682458">
        <ele>12.8</ele>
        <time>2020-08-13T03:31:34Z</time>
      </trkpt>
      <trkpt lat="47.64175" lon="-2.682534">
        <ele>14.0</ele>
        <time>2020-08-13T03:31:35Z</time>
      </trkpt>
      <trkpt lat="47.641892" lon="-2.682632">
        <ele>14.0</ele>
        <time>2020-08-13T03:31:36Z</time>
      </trkpt>
      <trkpt lat="47.642063" lon="-2.682825">
        <ele>14.0</ele>
        <time>2020-08-13T03:31:37Z</time>
      </trkpt>
      <trkpt lat="47.642155" lon="-2.682985">
        <ele>14.0</ele>
        <time>2020-08-13T03:31:38Z</time>
      </trkpt>
      <trkpt lat="47.642232" lon="-2.683174">
        <ele>14.0</ele>
        <time>2020-08-13T03:31:38Z</time>
      </trkpt>
      <trkpt lat="47.642289" lon="-2.683408">
        <ele>15.0</ele>
        <time>2020-08-13T03:31:39Z</time>
      </trkpt>
      <trkpt lat="47.642323" lon="-2.683768">
        <ele>15.0</ele>
        <time>2020-08-13T03:31:41Z</time>
      </trkpt>
      <trkpt lat="47.642313" lon="-2.684047">
        <ele>15.0</ele>
        <time>2020-08-13T03:31:42Z</time>
      </trkpt>
      <trkpt lat="47.64225" lon="-2.684457">
        <ele>16.4</ele>
        <time>2020-08-13T03:31:43Z</time>
      </trkpt>
      <trkpt lat="47.642022" lon="-2.685469">
        <ele>16.2</ele>
        <time>2020-08-13T03:31:47Z</time>
      </trkpt>
      <trkpt lat="47.641922" lon="-2.685994">
        <ele>16.2</ele>
        <time>2020-08-13T03:31:49Z</time>
      </trkpt>
      <trkpt lat="47.641878" lon="-2.686413">
        <ele>16.2</ele>
        <time>2020-08-13T03:31:50Z</time>
      </trkpt>
      <trkpt lat="47.64189" lon="-2.686861">
        <ele>17.0</ele>
        <time>2020-08-13T03:31:52Z</time>
      </trkpt>
      <trkpt lat="47.641967" lon="-2.687377">
        <ele>17.0</ele>
        <time>2020-08-13T03:31:54Z</time>
      </trkpt>
      <trkpt lat="47.642631" lon="-2.689948">
        <ele>22.4</ele>
        <time>2020-08-13T03:32:03Z</time>
      </trkpt>
      <trkpt lat="47.64303" lon="-2.69161">
        <ele>19.2</ele>
        <time>2020-08-13T03:32:10Z</time>
      </trkpt>
      <trkpt lat="47.643064" lon="-2.691942">
        <ele>18.2</ele>
        <time>2020-08-13T03:32:11Z</time>
      </trkpt>
      <trkpt lat="47.643596" lon="-2.693797">
        <ele>13.2</ele>
        <time>2020-08-13T03:32:18Z</time>
      </trkpt>
      <trkpt lat="47.64429" lon="-2.696036">
        <ele>11.0</ele>
        <time>2020-08-13T03:32:27Z</time>
      </trkpt>
      <trkpt lat="47.644964" lon="-2.698023">
        <ele>14.6</ele>
        <time>2020-08-13T03:32:35Z</time>
      </trkpt>
      <trkpt lat="47.645332" lon="-2.698989">
        <ele>14.4</ele>
        <time>2020-08-13T03:32:38Z</time>
      </trkpt>
      <trkpt lat="47.645626" lon="-2.699665">
        <ele>15.8</ele>
        <time>2020-08-13T03:32:41Z</time>
      </trkpt>
      <trkpt lat="47.64604" lon="-2.700493">
        <ele>14.0</ele>
        <time>2020-08-13T03:32:45Z</time>
      </trkpt>
      <trkpt lat="47.646432" lon="-2.70114">
        <ele>14.2</ele>
        <time>2020-08-13T03:32:48Z</time>
      </trkpt>
      <trkpt lat="47.646933" lon="-2.701832">
        <ele>16.0</ele>
        <time>2020-08-13T03:32:52Z</time>
      </trkpt>
      <trkpt lat="47.647415" lon="-2.702386">
        <ele>16.0</ele>
        <time>2020-08-13T03:32:55Z</time>
      </trkpt>
      <trkpt lat="47.647798" lon="-2.702751">
        <ele>15.4</ele>
        <time>2020-08-13T03:32:57Z</time>
      </trkpt>
      <trkpt lat="47.648298" lon="-2.703162">
        <ele>15.4</ele>
        <time>2020-08-13T03:33:00Z</time>
      </trkpt>
      <trkpt lat="47.64856" lon="-2.703349">
        <ele>14.4</ele>
        <time>2020-08-13T03:33:02Z</time>
      </trkpt>
      <trkpt lat="47.648977" lon="-2.703598">
        <ele>14.4</ele>
        <time>2020-08-13T03:33:04Z</time>
      </trkpt>
      <trkpt lat="47.649387" lon="-2.703802">
        <ele>12.2</ele>
        <time>2020-08-13T03:33:06Z</time>
      </trkpt>
      <trkpt lat="47.649801" lon="-2.703963">
        <ele>12.2</ele>
        <time>2020-08-13T03:33:09Z</time>
      </trkpt>
      <trkpt lat="47.650045" lon="-2.704036">
        <ele>9.8</ele>
        <time>2020-08-13T03:33:10Z</time>
      </trkpt>
      <trkpt lat="47.650859" lon="-2.704186">
        <ele>6.4</ele>
        <time>2020-08-13T03:33:14Z</time>
      </trkpt>
      <trkpt lat="47.651285" lon="-2.704221">
        <ele>6.4</ele>
        <time>2020-08-13T03:33:16Z</time>
      </trkpt>
      <trkpt lat="47.651983" lon="-2.704232">
        <ele>5.0</ele>
        <time>2020-08-13T03:33:20Z</time>
      </trkpt>
      <trkpt lat="47.65434" lon="-2.704165">
        <ele>6.4</ele>
        <time>2020-08-13T03:33:32Z</time>
      </trkpt>
      <trkpt lat="47.655084" lon="-2.704191">
        <ele>7.6</ele>
        <time>2020-08-13T03:33:36Z</time>
      </trkpt>
      <trkpt lat="47.655922" lon="-2.704293">
        <ele>9.4</ele>
        <time>2020-08-13T03:33:41Z</time>
      </trkpt>
      <trkpt lat="47.656475" lon="-2.704426">
        <ele>9.4</ele>
        <time>2020-08-13T03:33:44Z</time>
      </trkpt>
      <trkpt lat="47.65711" lon="-2.704654">
        <ele>12.8</ele>
        <time>2020-08-13T03:33:47Z</time>
      </trkpt>
      <trkpt lat="47.657608" lon="-2.704907">
        <ele>16.2</ele>
        <time>2020-08-13T03:33:50Z</time>
      </trkpt>
      <trkpt lat="47.658091" lon="-2.705207">
        <ele>17.4</ele>
        <time>2020-08-13T03:33:53Z</time>
      </trkpt>
      <trkpt lat="47.65852" lon="-2.705533">
        <ele>20.6</ele>
        <time>2020-08-13T03:33:55Z</time>
      </trkpt>
      <trkpt lat="47.65914" lon="-2.706093">
        <ele>20.4</ele>
        <time>2020-08-13T03:33:59Z</time>
      </trkpt>
      <trkpt lat="47.659601" lon="-2.706603">
        <ele>21.6</ele>
        <time>2020-08-13T03:34:02Z</time>
      </trkpt>
      <trkpt lat="47.659874" lon="-2.706937">
        <ele>22.0</ele>
        <time>2020-08-13T03:34:04Z</time>
      </trkpt>
      <trkpt lat="47.660212" lon="-2.707406">
        <ele>22.0</ele>
        <time>2020-08-13T03:34:06Z</time>
      </trkpt>
      <trkpt lat="47.660706" lon="-2.708236">
        <ele>22.4</ele>
        <time>2020-08-13T03:34:10Z</time>
      </trkpt>
      <trkpt lat="47.660966" lon="-2.708743">
        <ele>20.2</ele>
        <time>2020-08-13T03:34:12Z</time>
      </trkpt>
      <trkpt lat="47.661243" lon="-2.70935">
        <ele>20.0</ele>
        <time>2020-08-13T03:34:15Z</time>
      </trkpt>
      <trkpt lat="47.661535" lon="-2.710055">
        <ele>20.2</ele>
        <time>2020-08-13T03:34:18Z</time>
      </trkpt>
      <trkpt lat="47.661973" lon="-2.711282">
        <ele>18.8</ele>
        <time>2020-08-13T03:34:23Z</time>
      </trkpt>
      <trkpt lat="47.662433" lon="-2.712774">
        <ele>19.6</ele>
        <time>2020-08-13T03:34:28Z</time>
      </trkpt>
      <trkpt lat="47.665167" lon="-2.722836">
        <ele>12.8</ele>
        <time>2020-08-13T03:35:07Z</time>
      </trkpt>
      <trkpt lat="47.667414" lon="-2.731179">
        <ele>13.4</ele>
        <time>2020-08-13T03:35:38Z</time>
      </trkpt>
      <trkpt lat="47.668184" lon="-2.734238">
        <ele>16.0</ele>
        <time>2020-08-13T03:35:50Z</time>
      </trkpt>
      <trkpt lat="47.668832" lon="-2.737176">
        <ele>19.4</ele>
        <time>2020-08-13T03:36:01Z</time>
      </trkpt>
      <trkpt lat="47.669072" lon="-2.738339">
        <ele>20.0</ele>
        <time>2020-08-13T03:36:05Z</time>
      </trkpt>
      <trkpt lat="47.669431" lon="-2.740215">
        <ele>20.2</ele>
        <time>2020-08-13T03:36:12Z</time>
      </trkpt>
      <trkpt lat="47.670267" lon="-2.74485">
        <ele>21.8</ele>
        <time>2020-08-13T03:36:29Z</time>
      </trkpt>
      <trkpt lat="47.670401" lon="-2.745721">
        <ele>23.2</ele>
        <time>2020-08-13T03:36:32Z</time>
      </trkpt>
      <trkpt lat="47.670565" lon="-2.747201">
        <ele>28.8</ele>
        <time>2020-08-13T03:36:37Z</time>
      </trkpt>
      <trkpt lat="47.670652" lon="-2.748611">
        <ele>32.4</ele>
        <time>2020-08-13T03:36:42Z</time>
      </trkpt>
      <trkpt lat="47.67067" lon="-2.749685">
        <ele>32.6</ele>
        <time>2020-08-13T03:36:46Z</time>
      </trkpt>
      <trkpt lat="47.670659" lon="-2.750543">
        <ele>32.4</ele>
        <time>2020-08-13T03:36:49Z</time>
      </trkpt>
      <trkpt lat="47.670632" lon="-2.751263">
        <ele>32.4</ele>
        <time>2020-08-13T03:36:52Z</time>
      </trkpt>
      <trkpt lat="47.670546" lon="-2.752466">
        <ele>32.6</ele>
        <time>2020-08-13T03:36:56Z</time>
      </trkpt>
      <trkpt lat="47.670379" lon="-2.753991">
        <ele>34.6</ele>
        <time>2020-08-13T03:37:01Z</time>
      </trkpt>
      <trkpt lat="47.669985" lon="-2.756962">
        <ele>35.8</ele>
        <time>2020-08-13T03:37:12Z</time>
      </trkpt>
      <trkpt lat="47.669778" lon="-2.758781">
        <ele>33.6</ele>
        <time>2020-08-13T03:37:19Z</time>
      </trkpt>
      <trkpt lat="47.669303" lon="-2.763834">
        <ele>28.8</ele>
        <time>2020-08-13T03:37:37Z</time>
      </trkpt>
      <trkpt lat="47.668485" lon="-2.773189">
        <ele>23.2</ele>
        <time>2020-08-13T03:38:10Z</time>
      </trkpt>
      <trkpt lat="47.668225" lon="-2.775351">
        <ele>29.6</ele>
        <time>2020-08-13T03:38:18Z</time>
      </trkpt>
      <trkpt lat="47.66813" lon="-2.775961">
        <ele>29.4</ele>
        <time>2020-08-13T03:38:20Z</time>
      </trkpt>
      <trkpt lat="47.667852" lon="-2.777356">
        <ele>29.6</ele>
        <time>2020-08-13T03:38:25Z</time>
      </trkpt>
      <trkpt lat="47.667603" lon="-2.778367">
        <ele>28.6</ele>
        <time>2020-08-13T03:38:29Z</time>
      </trkpt>
      <trkpt lat="47.66738" lon="-2.779153">
        <ele>28.0</ele>
        <time>2020-08-13T03:38:32Z</time>
      </trkpt>
      <trkpt lat="47.667196" lon="-2.779738">
        <ele>28.0</ele>
        <time>2020-08-13T03:38:34Z</time>
      </trkpt>
      <trkpt lat="47.666866" lon="-2.780678">
        <ele>29.6</ele>
        <time>2020-08-13T03:38:38Z</time>
      </trkpt>
      <trkpt lat="47.666563" lon="-2.781449">
        <ele>29.0</ele>
        <time>2020-08-13T03:38:41Z</time>
      </trkpt>
      <trkpt lat="47.666134" lon="-2.782472">
        <ele>29.4</ele>
        <time>2020-08-13T03:38:45Z</time>
      </trkpt>
      <trkpt lat="47.663768" lon="-2.787804">
        <ele>30.0</ele>
        <time>2020-08-13T03:39:08Z</time>
      </trkpt>
      <trkpt lat="47.663256" lon="-2.78903">
        <ele>30.8</ele>
        <time>2020-08-13T03:39:13Z</time>
      </trkpt>
      <trkpt lat="47.662809" lon="-2.790242">
        <ele>34.0</ele>
        <time>2020-08-13T03:39:18Z</time>
      </trkpt>
      <trkpt lat="47.662537" lon="-2.791049">
        <ele>36.4</ele>
        <time>2020-08-13T03:39:21Z</time>
      </trkpt>
      <trkpt lat="47.662279" lon="-2.791886">
        <ele>37.8</ele>
        <time>2020-08-13T03:39:24Z</time>
      </trkpt>
      <trkpt lat="47.661917" lon="-2.793222">
        <ele>38.6</ele>
        <time>2020-08-13T03:39:29Z</time>
      </trkpt>
      <trkpt lat="47.661571" lon="-2.794728">
        <ele>36.4</ele>
        <time>2020-08-13T03:39:35Z</time>
      </trkpt>
      <trkpt lat="47.661357" lon="-2.795868">
        <ele>33.4</ele>
        <time>2020-08-13T03:39:39Z</time>
      </trkpt>
      <trkpt lat="47.661205" lon="-2.796797">
        <ele>33.0</ele>
        <time>2020-08-13T03:39:42Z</time>
      </trkpt>
      <trkpt lat="47.661031" lon="-2.798142">
        <ele>32.8</ele>
        <time>2020-08-13T03:39:47Z</time>
      </trkpt>
      <trkpt lat="47.660942" lon="-2.799077">
        <ele>31.8</ele>
        <time>2020-08-13T03:39:50Z</time>
      </trkpt>
      <trkpt lat="47.66083" lon="-2.800814">
        <ele>30.2</ele>
        <time>2020-08-13T03:39:57Z</time>
      </trkpt>
      <trkpt lat="47.660791" lon="-2.801898">
        <ele>29.6</ele>
        <time>2020-08-13T03:40:00Z</time>
      </trkpt>
      <trkpt lat="47.660764" lon="-2.803371">
        <ele>31.4</ele>
        <time>2020-08-13T03:40:06Z</time>
      </trkpt>
      <trkpt lat="47.660668" lon="-2.814347">
        <ele>17.4</ele>
        <time>2020-08-13T03:40:44Z</time>
      </trkpt>
      <trkpt lat="47.660668" lon="-2.816725">
        <ele>29.4</ele>
        <time>2020-08-13T03:40:53Z</time>
      </trkpt>
      <trkpt lat="47.660738" lon="-2.819168">
        <ele>27.8</ele>
        <time>2020-08-13T03:41:01Z</time>
      </trkpt>
      <trkpt lat="47.660811" lon="-2.820765">
        <ele>26.0</ele>
        <time>2020-08-13T03:41:07Z</time>
      </trkpt>
      <trkpt lat="47.661165" lon="-2.825771">
        <ele>34.2</ele>
        <time>2020-08-13T03:41:25Z</time>
      </trkpt>
      <trkpt lat="47.661222" lon="-2.826786">
        <ele>34.0</ele>
        <time>2020-08-13T03:41:28Z</time>
      </trkpt>
      <trkpt lat="47.661288" lon="-2.828408">
        <ele>29.4</ele>
        <time>2020-08-13T03:41:34Z</time>
      </trkpt>
      <trkpt lat="47.661324" lon="-2.830017">
        <ele>32.4</ele>
        <time>2020-08-13T03:41:40Z</time>
      </trkpt>
      <trkpt lat="47.661337" lon="-2.831305">
        <ele>34.4</ele>
        <time>2020-08-13T03:41:44Z</time>
      </trkpt>
      <trkpt lat="47.661316" lon="-2.833334">
        <ele>37.0</ele>
        <time>2020-08-13T03:41:51Z</time>
      </trkpt>
      <trkpt lat="47.66121" lon="-2.839545">
        <ele>39.0</ele>
        <time>2020-08-13T03:42:13Z</time>
      </trkpt>
      <trkpt lat="47.660648" lon="-2.86462">
        <ele>51.2</ele>
        <time>2020-08-13T03:43:42Z</time>
      </trkpt>
      <trkpt lat="47.660651" lon="-2.865964">
        <ele>51.8</ele>
        <time>2020-08-13T03:43:47Z</time>
      </trkpt>
      <trkpt lat="47.660681" lon="-2.866701">
        <ele>52.2</ele>
        <time>2020-08-13T03:43:49Z</time>
      </trkpt>
      <trkpt lat="47.660725" lon="-2.867239">
        <ele>52.2</ele>
        <time>2020-08-13T03:43:51Z</time>
      </trkpt>
      <trkpt lat="47.66093" lon="-2.868971">
        <ele>52.6</ele>
        <time>2020-08-13T03:43:57Z</time>
      </trkpt>
      <trkpt lat="47.664567" lon="-2.896383">
        <ele>53.8</ele>
        <time>2020-08-13T03:45:36Z</time>
      </trkpt>
      <trkpt lat="47.665948" lon="-2.906557">
        <ele>43.6</ele>
        <time>2020-08-13T03:46:12Z</time>
      </trkpt>
      <trkpt lat="47.66607" lon="-2.907612">
        <ele>40.4</ele>
        <time>2020-08-13T03:46:16Z</time>
      </trkpt>
      <trkpt lat="47.666102" lon="-2.908065">
        <ele>40.4</ele>
        <time>2020-08-13T03:46:18Z</time>
      </trkpt>
      <trkpt lat="47.666129" lon="-2.908977">
        <ele>39.6</ele>
        <time>2020-08-13T03:46:21Z</time>
      </trkpt>
      <trkpt lat="47.666119" lon="-2.909602">
        <ele>41.0</ele>
        <time>2020-08-13T03:46:23Z</time>
      </trkpt>
      <trkpt lat="47.666036" lon="-2.911072">
        <ele>40.8</ele>
        <time>2020-08-13T03:46:28Z</time>
      </trkpt>
      <trkpt lat="47.666015" lon="-2.911721">
        <ele>40.6</ele>
        <time>2020-08-13T03:46:31Z</time>
      </trkpt>
      <trkpt lat="47.666037" lon="-2.912374">
        <ele>40.6</ele>
        <time>2020-08-13T03:46:33Z</time>
      </trkpt>
      <trkpt lat="47.666081" lon="-2.913049">
        <ele>40.6</ele>
        <time>2020-08-13T03:46:35Z</time>
      </trkpt>
      <trkpt lat="47.666172" lon="-2.913903">
        <ele>38.6</ele>
        <time>2020-08-13T03:46:38Z</time>
      </trkpt>
      <trkpt lat="47.666287" lon="-2.91462">
        <ele>37.4</ele>
        <time>2020-08-13T03:46:41Z</time>
      </trkpt>
      <trkpt lat="47.66639" lon="-2.915097">
        <ele>36.2</ele>
        <time>2020-08-13T03:46:43Z</time>
      </trkpt>
      <trkpt lat="47.666562" lon="-2.915745">
        <ele>36.2</ele>
        <time>2020-08-13T03:46:45Z</time>
      </trkpt>
      <trkpt lat="47.666717" lon="-2.916239">
        <ele>31.8</ele>
        <time>2020-08-13T03:46:47Z</time>
      </trkpt>
      <trkpt lat="47.666993" lon="-2.917013">
        <ele>27.4</ele>
        <time>2020-08-13T03:46:50Z</time>
      </trkpt>
      <trkpt lat="47.667293" lon="-2.91771">
        <ele>21.8</ele>
        <time>2020-08-13T03:46:53Z</time>
      </trkpt>
      <trkpt lat="47.670283" lon="-2.923571">
        <ele>24.4</ele>
        <time>2020-08-13T03:47:19Z</time>
      </trkpt>
      <trkpt lat="47.670555" lon="-2.924156">
        <ele>24.4</ele>
        <time>2020-08-13T03:47:22Z</time>
      </trkpt>
      <trkpt lat="47.671443" lon="-2.926204">
        <ele>36.0</ele>
        <time>2020-08-13T03:47:30Z</time>
      </trkpt>
      <trkpt lat="47.671672" lon="-2.926831">
        <ele>37.2</ele>
        <time>2020-08-13T03:47:33Z</time>
      </trkpt>
      <trkpt lat="47.671822" lon="-2.927314">
        <ele>37.2</ele>
        <time>2020-08-13T03:47:35Z</time>
      </trkpt>
      <trkpt lat="47.672065" lon="-2.928286">
        <ele>35.4</ele>
        <time>2020-08-13T03:47:38Z</time>
      </trkpt>
      <trkpt lat="47.672245" lon="-2.929317">
        <ele>31.2</ele>
        <time>2020-08-13T03:47:42Z</time>
      </trkpt>
      <trkpt lat="47.672338" lon="-2.930238">
        <ele>29.0</ele>
        <time>2020-08-13T03:47:45Z</time>
      </trkpt>
      <trkpt lat="47.67237" lon="-2.930807">
        <ele>29.0</ele>
        <time>2020-08-13T03:47:47Z</time>
      </trkpt>
      <trkpt lat="47.672356" lon="-2.933297">
        <ele>30.4</ele>
        <time>2020-08-13T03:47:56Z</time>
      </trkpt>
      <trkpt lat="47.672323" lon="-2.93451">
        <ele>32.8</ele>
        <time>2020-08-13T03:48:00Z</time>
      </trkpt>
      <trkpt lat="47.672285" lon="-2.935081">
        <ele>33.8</ele>
        <time>2020-08-13T03:48:03Z</time>
      </trkpt>
      <trkpt lat="47.672214" lon="-2.935817">
        <ele>33.8</ele>
        <time>2020-08-13T03:48:05Z</time>
      </trkpt>
      <trkpt lat="47.67213" lon="-2.936411">
        <ele>34.0</ele>
        <time>2020-08-13T03:48:07Z</time>
      </trkpt>
      <trkpt lat="47.672013" lon="-2.937086">
        <ele>33.8</ele>
        <time>2020-08-13T03:48:10Z</time>
      </trkpt>
      <trkpt lat="47.671905" lon="-2.937617">
        <ele>33.4</ele>
        <time>2020-08-13T03:48:12Z</time>
      </trkpt>
      <trkpt lat="47.670239" lon="-2.944679">
        <ele>23.6</ele>
        <time>2020-08-13T03:48:38Z</time>
      </trkpt>
      <trkpt lat="47.669561" lon="-2.94747">
        <ele>22.2</ele>
        <time>2020-08-13T03:48:49Z</time>
      </trkpt>
      <trkpt lat="47.669166" lon="-2.948949">
        <ele>18.6</ele>
        <time>2020-08-13T03:48:54Z</time>
      </trkpt>
      <trkpt lat="47.66874" lon="-2.950328">
        <ele>20.8</ele>
        <time>2020-08-13T03:48:59Z</time>
      </trkpt>
      <trkpt lat="47.668488" lon="-2.951041">
        <ele>22.4</ele>
        <time>2020-08-13T03:49:02Z</time>
      </trkpt>
      <trkpt lat="47.667941" lon="-2.95246">
        <ele>22.8</ele>
        <time>2020-08-13T03:49:08Z</time>
      </trkpt>
      <trkpt lat="47.667636" lon="-2.953185">
        <ele>24.6</ele>
        <time>2020-08-13T03:49:11Z</time>
      </trkpt>
      <trkpt lat="47.667307" lon="-2.953904">
        <ele>25.6</ele>
        <time>2020-08-13T03:49:14Z</time>
      </trkpt>
      <trkpt lat="47.66669" lon="-2.955156">
        <ele>29.2</ele>
        <time>2020-08-13T03:49:20Z</time>
      </trkpt>
      <trkpt lat="47.662483" lon="-2.963376">
        <ele>32.2</ele>
        <time>2020-08-13T03:49:56Z</time>
      </trkpt>
      <trkpt lat="47.661969" lon="-2.964473">
        <ele>31.2</ele>
        <time>2020-08-13T03:50:01Z</time>
      </trkpt>
      <trkpt lat="47.661564" lon="-2.965503">
        <ele>31.4</ele>
        <time>2020-08-13T03:50:05Z</time>
      </trkpt>
      <trkpt lat="47.661283" lon="-2.96634">
        <ele>30.0</ele>
        <time>2020-08-13T03:50:08Z</time>
      </trkpt>
      <trkpt lat="47.661027" lon="-2.967214">
        <ele>29.4</ele>
        <time>2020-08-13T03:50:12Z</time>
      </trkpt>
      <trkpt lat="47.660861" lon="-2.967898">
        <ele>28.6</ele>
        <time>2020-08-13T03:50:14Z</time>
      </trkpt>
      <trkpt lat="47.66065" lon="-2.968923">
        <ele>27.8</ele>
        <time>2020-08-13T03:50:18Z</time>
      </trkpt>
      <trkpt lat="47.660534" lon="-2.969653">
        <ele>27.4</ele>
        <time>2020-08-13T03:50:21Z</time>
      </trkpt>
      <trkpt lat="47.66039" lon="-2.970789">
        <ele>27.4</ele>
        <time>2020-08-13T03:50:25Z</time>
      </trkpt>
      <trkpt lat="47.659614" lon="-2.97875">
        <ele>19.8</ele>
        <time>2020-08-13T03:50:53Z</time>
      </trkpt>
      <trkpt lat="47.659475" lon="-2.979941">
        <ele>22.0</ele>
        <time>2020-08-13T03:50:57Z</time>
      </trkpt>
      <trkpt lat="47.659316" lon="-2.980864">
        <ele>20.4</ele>
        <time>2020-08-13T03:51:01Z</time>
      </trkpt>
      <trkpt lat="47.659107" lon="-2.981793">
        <ele>11.4</ele>
        <time>2020-08-13T03:51:04Z</time>
      </trkpt>
      <trkpt lat="47.658964" lon="-2.982327">
        <ele>11.4</ele>
        <time>2020-08-13T03:51:06Z</time>
      </trkpt>
      <trkpt lat="47.658783" lon="-2.982925">
        <ele>6.0</ele>
        <time>2020-08-13T03:51:09Z</time>
      </trkpt>
      <trkpt lat="47.658045" lon="-2.985132">
        <ele>7.2</ele>
        <time>2020-08-13T03:51:17Z</time>
      </trkpt>
      <trkpt lat="47.657842" lon="-2.985771">
        <ele>7.2</ele>
        <time>2020-08-13T03:51:20Z</time>
      </trkpt>
      <trkpt lat="47.657581" lon="-2.986688">
        <ele>10.6</ele>
        <time>2020-08-13T03:51:23Z</time>
      </trkpt>
      <trkpt lat="47.657356" lon="-2.987646">
        <ele>14.0</ele>
        <time>2020-08-13T03:51:27Z</time>
      </trkpt>
      <trkpt lat="47.6572" lon="-2.988445">
        <ele>15.2</ele>
        <time>2020-08-13T03:51:30Z</time>
      </trkpt>
      <trkpt lat="47.657076" lon="-2.989285">
        <ele>17.2</ele>
        <time>2020-08-13T03:51:33Z</time>
      </trkpt>
      <trkpt lat="47.656969" lon="-2.990165">
        <ele>21.0</ele>
        <time>2020-08-13T03:51:36Z</time>
      </trkpt>
      <trkpt lat="47.656899" lon="-2.991216">
        <ele>24.4</ele>
        <time>2020-08-13T03:51:40Z</time>
      </trkpt>
      <trkpt lat="47.65687" lon="-2.992186">
        <ele>28.6</ele>
        <time>2020-08-13T03:51:43Z</time>
      </trkpt>
      <trkpt lat="47.656875" lon="-2.992915">
        <ele>30.4</ele>
        <time>2020-08-13T03:51:46Z</time>
      </trkpt>
      <trkpt lat="47.656944" lon="-2.994263">
        <ele>32.4</ele>
        <time>2020-08-13T03:51:50Z</time>
      </trkpt>
      <trkpt lat="47.657018" lon="-2.995019">
        <ele>32.6</ele>
        <time>2020-08-13T03:51:53Z</time>
      </trkpt>
      <trkpt lat="47.657184" lon="-2.99621">
        <ele>32.2</ele>
        <time>2020-08-13T03:51:57Z</time>
      </trkpt>
      <trkpt lat="47.657393" lon="-2.997303">
        <ele>31.2</ele>
        <time>2020-08-13T03:52:01Z</time>
      </trkpt>
      <trkpt lat="47.658366" lon="-3.001595">
        <ele>36.8</ele>
        <time>2020-08-13T03:52:17Z</time>
      </trkpt>
      <trkpt lat="47.658697" lon="-3.002871">
        <ele>35.6</ele>
        <time>2020-08-13T03:52:22Z</time>
      </trkpt>
      <trkpt lat="47.659063" lon="-3.003976">
        <ele>33.8</ele>
        <time>2020-08-13T03:52:27Z</time>
      </trkpt>
      <trkpt lat="47.659362" lon="-3.004735">
        <ele>35.2</ele>
        <time>2020-08-13T03:52:30Z</time>
      </trkpt>
      <trkpt lat="47.65966" lon="-3.005386">
        <ele>35.4</ele>
        <time>2020-08-13T03:52:32Z</time>
      </trkpt>
      <trkpt lat="47.660037" lon="-3.006107">
        <ele>36.0</ele>
        <time>2020-08-13T03:52:36Z</time>
      </trkpt>
      <trkpt lat="47.660585" lon="-3.007027">
        <ele>35.0</ele>
        <time>2020-08-13T03:52:40Z</time>
      </trkpt>
      <trkpt lat="47.660785" lon="-3.007326">
        <ele>35.0</ele>
        <time>2020-08-13T03:52:41Z</time>
      </trkpt>
      <trkpt lat="47.661202" lon="-3.007887">
        <ele>33.6</ele>
        <time>2020-08-13T03:52:45Z</time>
      </trkpt>
      <trkpt lat="47.661316" lon="-3.007929">
        <ele>33.6</ele>
        <time>2020-08-13T03:52:46Z</time>
      </trkpt>
      <trkpt lat="47.661577" lon="-3.008187">
        <ele>33.6</ele>
        <time>2020-08-13T03:52:48Z</time>
      </trkpt>
      <trkpt lat="47.661891" lon="-3.008429">
        <ele>31.0</ele>
        <time>2020-08-13T03:52:50Z</time>
      </trkpt>
      <trkpt lat="47.662182" lon="-3.008571">
        <ele>31.0</ele>
        <time>2020-08-13T03:52:53Z</time>
      </trkpt>
      <trkpt lat="47.662817" lon="-3.008756">
        <ele>28.6</ele>
        <time>2020-08-13T03:52:57Z</time>
      </trkpt>
      <trkpt lat="47.663061" lon="-3.008934">
        <ele>28.6</ele>
        <time>2020-08-13T03:52:59Z</time>
      </trkpt>
      <trkpt lat="47.663125" lon="-3.009006">
        <ele>28.6</ele>
        <time>2020-08-13T03:53:00Z</time>
      </trkpt>
      <trkpt lat="47.663297" lon="-3.009267">
        <ele>28.0</ele>
        <time>2020-08-13T03:53:02Z</time>
      </trkpt>
      <trkpt lat="47.663451" lon="-3.009606">
        <ele>26.6</ele>
        <time>2020-08-13T03:53:05Z</time>
      </trkpt>
      <trkpt lat="47.663605" lon="-3.009762">
        <ele>26.6</ele>
        <time>2020-08-13T03:53:06Z</time>
      </trkpt>
      <trkpt lat="47.663687" lon="-3.009715">
        <ele>26.6</ele>
        <time>2020-08-13T03:53:07Z</time>
      </trkpt>
      <trkpt lat="47.663773" lon="-3.009697">
        <ele>26.6</ele>
        <time>2020-08-13T03:53:08Z</time>
      </trkpt>
      <trkpt lat="47.663861" lon="-3.009708">
        <ele>26.6</ele>
        <time>2020-08-13T03:53:08Z</time>
      </trkpt>
      <trkpt lat="47.664005" lon="-3.009801">
        <ele>26.6</ele>
        <time>2020-08-13T03:53:10Z</time>
      </trkpt>
      <trkpt lat="47.664065" lon="-3.009878">
        <ele>26.6</ele>
        <time>2020-08-13T03:53:10Z</time>
      </trkpt>
      <trkpt lat="47.664133" lon="-3.010025">
        <ele>26.2</ele>
        <time>2020-08-13T03:53:11Z</time>
      </trkpt>
      <trkpt lat="47.66416" lon="-3.010142">
        <ele>26.2</ele>
        <time>2020-08-13T03:53:12Z</time>
      </trkpt>
      <trkpt lat="47.664162" lon="-3.010388">
        <ele>26.2</ele>
        <time>2020-08-13T03:53:13Z</time>
      </trkpt>
      <trkpt lat="47.664095" lon="-3.010612">
        <ele>26.2</ele>
        <time>2020-08-13T03:53:14Z</time>
      </trkpt>
      <trkpt lat="47.663988" lon="-3.01076">
        <ele>26.2</ele>
        <time>2020-08-13T03:53:16Z</time>
      </trkpt>
      <trkpt lat="47.663842" lon="-3.01084">
        <ele>25.6</ele>
        <time>2020-08-13T03:53:17Z</time>
      </trkpt>
      <trkpt lat="47.663758" lon="-3.010846">
        <ele>25.6</ele>
        <time>2020-08-13T03:53:17Z</time>
      </trkpt>
      <trkpt lat="47.66363" lon="-3.010957">
        <ele>25.6</ele>
        <time>2020-08-13T03:53:19Z</time>
      </trkpt>
      <trkpt lat="47.663569" lon="-3.01105">
        <ele>25.6</ele>
        <time>2020-08-13T03:53:19Z</time>
      </trkpt>
      <trkpt lat="47.663345" lon="-3.011549">
        <ele>25.6</ele>
        <time>2020-08-13T03:53:22Z</time>
      </trkpt>
      <trkpt lat="47.663075" lon="-3.011918">
        <ele>25.2</ele>
        <time>2020-08-13T03:53:25Z</time>
      </trkpt>
      <trkpt lat="47.662421" lon="-3.012459">
        <ele>26.2</ele>
        <time>2020-08-13T03:53:31Z</time>
      </trkpt>
      <trkpt lat="47.661724" lon="-3.013299">
        <ele>25.0</ele>
        <time>2020-08-13T03:53:38Z</time>
      </trkpt>
      <trkpt lat="47.660607" lon="-3.015123">
        <ele>28.4</ele>
        <time>2020-08-13T03:53:51Z</time>
      </trkpt>
      <trkpt lat="47.659879" lon="-3.016481">
        <ele>30.8</ele>
        <time>2020-08-13T03:54:01Z</time>
      </trkpt>
      <trkpt lat="47.659774" lon="-3.016831">
        <ele>31.4</ele>
        <time>2020-08-13T03:54:03Z</time>
      </trkpt>
      <trkpt lat="47.659809" lon="-3.017007">
        <ele>31.4</ele>
        <time>2020-08-13T03:54:04Z</time>
      </trkpt>
      <trkpt lat="47.659803" lon="-3.017091">
        <ele>31.4</ele>
        <time>2020-08-13T03:54:05Z</time>
      </trkpt>
      <trkpt lat="47.65976" lon="-3.017224">
        <ele>31.4</ele>
        <time>2020-08-13T03:54:05Z</time>
      </trkpt>
      <trkpt lat="47.659681" lon="-3.017323">
        <ele>31.4</ele>
        <time>2020-08-13T03:54:07Z</time>
      </trkpt>
      <trkpt lat="47.65959" lon="-3.01736">
        <ele>31.4</ele>
        <time>2020-08-13T03:54:07Z</time>
      </trkpt>
      <trkpt lat="47.659486" lon="-3.017335">
        <ele>31.4</ele>
        <time>2020-08-13T03:54:08Z</time>
      </trkpt>
      <trkpt lat="47.659373" lon="-3.017419">
        <ele>31.4</ele>
        <time>2020-08-13T03:54:10Z</time>
      </trkpt>
      <trkpt lat="47.65865" lon="-3.018731">
        <ele>27.8</ele>
        <time>2020-08-13T03:54:21Z</time>
      </trkpt>
      <trkpt lat="47.658119" lon="-3.019621">
        <ele>25.4</ele>
        <time>2020-08-13T03:54:29Z</time>
      </trkpt>
      <trkpt lat="47.657532" lon="-3.020519">
        <ele>25.2</ele>
        <time>2020-08-13T03:54:37Z</time>
      </trkpt>
      <trkpt lat="47.655824" lon="-3.023472">
        <ele>22.6</ele>
        <time>2020-08-13T03:55:03Z</time>
      </trkpt>
      <trkpt lat="47.654526" lon="-3.025755">
        <ele>21.2</ele>
        <time>2020-08-13T03:55:23Z</time>
      </trkpt>
      <trkpt lat="47.654525" lon="-3.025855">
        <ele>21.4</ele>
        <time>2020-08-13T03:55:23Z</time>
      </trkpt>
      <trkpt lat="47.654477" lon="-3.025886">
        <ele>21.4</ele>
        <time>2020-08-13T03:55:24Z</time>
      </trkpt>
      <trkpt lat="47.654456" lon="-3.025867">
        <ele>21.4</ele>
        <time>2020-08-13T03:55:24Z</time>
      </trkpt>
      <trkpt lat="47.654053" lon="-3.026602">
        <ele>20.8</ele>
        <time>2020-08-13T03:55:27Z</time>
      </trkpt>
      <trkpt lat="47.650551" lon="-3.032715">
        <ele>19.2</ele>
        <time>2020-08-13T03:55:55Z</time>
      </trkpt>
      <trkpt lat="47.648359" lon="-3.036476">
        <ele>28.4</ele>
        <time>2020-08-13T03:56:12Z</time>
      </trkpt>
      <trkpt lat="47.647938" lon="-3.037022">
        <ele>33.2</ele>
        <time>2020-08-13T03:56:15Z</time>
      </trkpt>
      <trkpt lat="47.643108" lon="-3.041516">
        <ele>33.2</ele>
        <time>2020-08-13T03:56:44Z</time>
      </trkpt>
      <trkpt lat="47.642836" lon="-3.041804">
        <ele>33.6</ele>
        <time>2020-08-13T03:56:46Z</time>
      </trkpt>
      <trkpt lat="47.642421" lon="-3.042397">
        <ele>29.4</ele>
        <time>2020-08-13T03:56:49Z</time>
      </trkpt>
      <trkpt lat="47.638914" lon="-3.048067">
        <ele>19.8</ele>
        <time>2020-08-13T03:57:16Z</time>
      </trkpt>
      <trkpt lat="47.638941" lon="-3.048152">
        <ele>19.8</ele>
        <time>2020-08-13T03:57:16Z</time>
      </trkpt>
      <trkpt lat="47.638942" lon="-3.048238">
        <ele>19.8</ele>
        <time>2020-08-13T03:57:16Z</time>
      </trkpt>
      <trkpt lat="47.638892" lon="-3.048364">
        <ele>20.4</ele>
        <time>2020-08-13T03:57:17Z</time>
      </trkpt>
      <trkpt lat="47.638809" lon="-3.048413">
        <ele>20.4</ele>
        <time>2020-08-13T03:57:17Z</time>
      </trkpt>
      <trkpt lat="47.638726" lon="-3.048425">
        <ele>20.4</ele>
        <time>2020-08-13T03:57:18Z</time>
      </trkpt>
      <trkpt lat="47.634799" lon="-3.05479">
        <ele>20.2</ele>
        <time>2020-08-13T03:57:47Z</time>
      </trkpt>
      <trkpt lat="47.631283" lon="-3.060435">
        <ele>15.6</ele>
        <time>2020-08-13T03:58:14Z</time>
      </trkpt>
      <trkpt lat="47.630277" lon="-3.062118">
        <ele>15.2</ele>
        <time>2020-08-13T03:58:22Z</time>
      </trkpt>
      <trkpt lat="47.626677" lon="-3.06793">
        <ele>16.6</ele>
        <time>2020-08-13T03:58:49Z</time>
      </trkpt>
      <trkpt lat="47.626467" lon="-3.068382">
        <ele>16.6</ele>
        <time>2020-08-13T03:58:51Z</time>
      </trkpt>
      <trkpt lat="47.626495" lon="-3.068538">
        <ele>16.6</ele>
        <time>2020-08-13T03:58:51Z</time>
      </trkpt>
      <trkpt lat="47.626491" lon="-3.068679">
        <ele>16.6</ele>
        <time>2020-08-13T03:58:52Z</time>
      </trkpt>
      <trkpt lat="47.626453" lon="-3.068814">
        <ele>16.6</ele>
        <time>2020-08-13T03:58:52Z</time>
      </trkpt>
      <trkpt lat="47.626393" lon="-3.068923">
        <ele>16.6</ele>
        <time>2020-08-13T03:58:53Z</time>
      </trkpt>
      <trkpt lat="47.626327" lon="-3.068989">
        <ele>16.6</ele>
        <time>2020-08-13T03:58:53Z</time>
      </trkpt>
      <trkpt lat="47.626231" lon="-3.069035">
        <ele>16.6</ele>
        <time>2020-08-13T03:58:54Z</time>
      </trkpt>
      <trkpt lat="47.626138" lon="-3.069034">
        <ele>16.6</ele>
        <time>2020-08-13T03:58:54Z</time>
      </trkpt>
      <trkpt lat="47.626004" lon="-3.068952">
        <ele>16.6</ele>
        <time>2020-08-13T03:58:55Z</time>
      </trkpt>
      <trkpt lat="47.625855" lon="-3.069081">
        <ele>16.6</ele>
        <time>2020-08-13T03:58:56Z</time>
      </trkpt>
      <trkpt lat="47.62517" lon="-3.069908">
        <ele>15.4</ele>
        <time>2020-08-13T03:59:00Z</time>
      </trkpt>
      <trkpt lat="47.624381" lon="-3.07133">
        <ele>13.2</ele>
        <time>2020-08-13T03:59:07Z</time>
      </trkpt>
      <trkpt lat="47.623817" lon="-3.072304">
        <ele>14.2</ele>
        <time>2020-08-13T03:59:11Z</time>
      </trkpt>
      <trkpt lat="47.622341" lon="-3.074721">
        <ele>12.4</ele>
        <time>2020-08-13T03:59:22Z</time>
      </trkpt>
      <trkpt lat="47.618749" lon="-3.08035">
        <ele>13.0</ele>
        <time>2020-08-13T03:59:49Z</time>
      </trkpt>
      <trkpt lat="47.61709" lon="-3.082804">
        <ele>15.4</ele>
        <time>2020-08-13T04:00:01Z</time>
      </trkpt>
      <trkpt lat="47.615373" lon="-3.085487">
        <ele>20.2</ele>
        <time>2020-08-13T04:00:14Z</time>
      </trkpt>
      <trkpt lat="47.611485" lon="-3.091694">
        <ele>19.0</ele>
        <time>2020-08-13T04:00:43Z</time>
      </trkpt>
      <trkpt lat="47.61117" lon="-3.092118">
        <ele>19.0</ele>
        <time>2020-08-13T04:00:45Z</time>
      </trkpt>
      <trkpt lat="47.611064" lon="-3.092383">
        <ele>19.0</ele>
        <time>2020-08-13T04:00:46Z</time>
      </trkpt>
      <trkpt lat="47.61101" lon="-3.092577">
        <ele>18.4</ele>
        <time>2020-08-13T04:00:47Z</time>
      </trkpt>
      <trkpt lat="47.611039" lon="-3.092719">
        <ele>18.4</ele>
        <time>2020-08-13T04:00:48Z</time>
      </trkpt>
      <trkpt lat="47.61103" lon="-3.092818">
        <ele>18.4</ele>
        <time>2020-08-13T04:00:48Z</time>
      </trkpt>
      <trkpt lat="47.610975" lon="-3.092946">
        <ele>18.4</ele>
        <time>2020-08-13T04:00:49Z</time>
      </trkpt>
      <trkpt lat="47.610904" lon="-3.093009">
        <ele>18.4</ele>
        <time>2020-08-13T04:00:49Z</time>
      </trkpt>
      <trkpt lat="47.610782" lon="-3.093012">
        <ele>19.6</ele>
        <time>2020-08-13T04:00:50Z</time>
      </trkpt>
      <trkpt lat="47.610724" lon="-3.093038">
        <ele>19.6</ele>
        <time>2020-08-13T04:00:50Z</time>
      </trkpt>
      <trkpt lat="47.61048" lon="-3.0933">
        <ele>19.6</ele>
        <time>2020-08-13T04:00:52Z</time>
      </trkpt>
      <trkpt lat="47.607961" lon="-3.097308">
        <ele>19.8</ele>
        <time>2020-08-13T04:01:14Z</time>
      </trkpt>
      <trkpt lat="47.605836" lon="-3.100741">
        <ele>18.6</ele>
        <time>2020-08-13T04:01:33Z</time>
      </trkpt>
      <trkpt lat="47.600971" lon="-3.108394">
        <ele>22.8</ele>
        <time>2020-08-13T04:02:15Z</time>
      </trkpt>
      <trkpt lat="47.599241" lon="-3.11115">
        <ele>21.2</ele>
        <time>2020-08-13T04:02:31Z</time>
      </trkpt>
      <trkpt lat="47.599153" lon="-3.111385">
        <ele>22.6</ele>
        <time>2020-08-13T04:02:32Z</time>
      </trkpt>
      <trkpt lat="47.599138" lon="-3.111535">
        <ele>22.6</ele>
        <time>2020-08-13T04:02:32Z</time>
      </trkpt>
      <trkpt lat="47.599176" lon="-3.111658">
        <ele>21.2</ele>
        <time>2020-08-13T04:02:33Z</time>
      </trkpt>
      <trkpt lat="47.599179" lon="-3.11172">
        <ele>21.0</ele>
        <time>2020-08-13T04:02:34Z</time>
      </trkpt>
      <trkpt lat="47.599143" lon="-3.11187">
        <ele>22.4</ele>
        <time>2020-08-13T04:02:35Z</time>
      </trkpt>
      <trkpt lat="47.599076" lon="-3.111952">
        <ele>22.4</ele>
        <time>2020-08-13T04:02:36Z</time>
      </trkpt>
      <trkpt lat="47.598892" lon="-3.111987">
        <ele>22.4</ele>
        <time>2020-08-13T04:02:39Z</time>
      </trkpt>
      <trkpt lat="47.598798" lon="-3.112067">
        <ele>22.4</ele>
        <time>2020-08-13T04:02:40Z</time>
      </trkpt>
      <trkpt lat="47.598713" lon="-3.112271">
        <ele>22.4</ele>
        <time>2020-08-13T04:02:42Z</time>
      </trkpt>
      <trkpt lat="47.598598" lon="-3.112667">
        <ele>22.4</ele>
        <time>2020-08-13T04:02:46Z</time>
      </trkpt>
      <trkpt lat="47.598427" lon="-3.113804">
        <ele>21.2</ele>
        <time>2020-08-13T04:02:56Z</time>
      </trkpt>
      <trkpt lat="47.598421" lon="-3.113991">
        <ele>21.2</ele>
        <time>2020-08-13T04:02:57Z</time>
      </trkpt>
      <trkpt lat="47.598459" lon="-3.114246">
        <ele>20.4</ele>
        <time>2020-08-13T04:02:59Z</time>
      </trkpt>
      <trkpt lat="47.598526" lon="-3.114256">
        <ele>20.4</ele>
        <time>2020-08-13T04:03:00Z</time>
      </trkpt>
      <trkpt lat="47.59858" lon="-3.114319">
        <ele>20.4</ele>
        <time>2020-08-13T04:03:01Z</time>
      </trkpt>
      <trkpt lat="47.598604" lon="-3.114415">
        <ele>20.4</ele>
        <time>2020-08-13T04:03:01Z</time>
      </trkpt>
      <trkpt lat="47.598601" lon="-3.114467">
        <ele>20.4</ele>
        <time>2020-08-13T04:03:02Z</time>
      </trkpt>
      <trkpt lat="47.598589" lon="-3.114515">
        <ele>20.4</ele>
        <time>2020-08-13T04:03:02Z</time>
      </trkpt>
      <trkpt lat="47.598539" lon="-3.114587">
        <ele>20.4</ele>
        <time>2020-08-13T04:03:02Z</time>
      </trkpt>
      <trkpt lat="47.598487" lon="-3.114609">
        <ele>20.4</ele>
        <time>2020-08-13T04:03:03Z</time>
      </trkpt>
      <trkpt lat="47.598415" lon="-3.114581">
        <ele>20.4</ele>
        <time>2020-08-13T04:03:04Z</time>
      </trkpt>
      <trkpt lat="47.598332" lon="-3.11476">
        <ele>19.8</ele>
        <time>2020-08-13T04:03:05Z</time>
      </trkpt>
      <trkpt lat="47.598203" lon="-3.115309">
        <ele>17.8</ele>
        <time>2020-08-13T04:03:08Z</time>
      </trkpt>
      <trkpt lat="47.598011" lon="-3.116709">
        <ele>14.8</ele>
        <time>2020-08-13T04:03:16Z</time>
      </trkpt>
      <trkpt lat="47.597894" lon="-3.117282">
        <ele>14.8</ele>
        <time>2020-08-13T04:03:20Z</time>
      </trkpt>
      <trkpt lat="47.597754" lon="-3.117775">
        <ele>12.4</ele>
        <time>2020-08-13T04:03:23Z</time>
      </trkpt>
      <trkpt lat="47.597485" lon="-3.118327">
        <ele>12.0</ele>
        <time>2020-08-13T04:03:27Z</time>
      </trkpt>
      <trkpt lat="47.596936" lon="-3.119277">
        <ele>7.8</ele>
        <time>2020-08-13T04:03:34Z</time>
      </trkpt>
      <trkpt lat="47.596767" lon="-3.119862">
        <ele>7.8</ele>
        <time>2020-08-13T04:03:38Z</time>
      </trkpt>
      <trkpt lat="47.596659" lon="-3.120883">
        <ele>3.0</ele>
        <time>2020-08-13T04:03:44Z</time>
      </trkpt>
      <trkpt lat="47.596661" lon="-3.121577">
        <ele>3.0</ele>
        <time>2020-08-13T04:03:48Z</time>
      </trkpt>
      <trkpt lat="47.596733" lon="-3.121931">
        <ele>5.8</ele>
        <time>2020-08-13T04:03:50Z</time>
      </trkpt>
      <trkpt lat="47.596899" lon="-3.122274">
        <ele>5.8</ele>
        <time>2020-08-13T04:03:52Z</time>
      </trkpt>
      <trkpt lat="47.59893" lon="-3.12388">
        <ele>6.0</ele>
        <time>2020-08-13T04:04:12Z</time>
      </trkpt>
      <trkpt lat="47.599138" lon="-3.124198">
        <ele>4.33</ele>
        <time>2020-08-13T04:04:15Z</time>
      </trkpt>
      <trkpt lat="47.59926" lon="-3.124527">
        <ele>6.0</ele>
        <time>2020-08-13T04:04:17Z</time>
      </trkpt>
      <trkpt lat="47.599352" lon="-3.124883">
        <ele>6.0</ele>
        <time>2020-08-13T04:04:19Z</time>
      </trkpt>
      <trkpt lat="47.599399" lon="-3.125221">
        <ele>7.5</ele>
        <time>2020-08-13T04:04:21Z</time>
      </trkpt>
      <trkpt lat="47.599404" lon="-3.125571">
        <ele>7.5</ele>
        <time>2020-08-13T04:04:23Z</time>
      </trkpt>
      <trkpt lat="47.59918" lon="-3.126566">
        <ele>9.0</ele>
        <time>2020-08-13T04:04:29Z</time>
      </trkpt>
      <trkpt lat="47.59825" lon="-3.128932">
        <ele>0.0</ele>
        <time>2020-08-13T04:04:45Z</time>
      </trkpt>
      <trkpt lat="47.59813" lon="-3.129138">
        <ele>0.0</ele>
        <time>2020-08-13T04:04:47Z</time>
      </trkpt>
      <trkpt lat="47.597979" lon="-3.129286">
        <ele>2.0</ele>
        <time>2020-08-13T04:04:48Z</time>
      </trkpt>
      <trkpt lat="47.597042" lon="-3.12988">
        <ele>0.0</ele>
        <time>2020-08-13T04:04:57Z</time>
      </trkpt>
      <trkpt lat="47.596916" lon="-3.130021">
        <ele>2.5</ele>
        <time>2020-08-13T04:04:58Z</time>
      </trkpt>
      <trkpt lat="47.596287" lon="-3.131041">
        <ele>4.2</ele>
        <time>2020-08-13T04:05:06Z</time>
      </trkpt>
      <trkpt lat="47.59613" lon="-3.131213">
        <ele>4.2</ele>
        <time>2020-08-13T04:05:08Z</time>
      </trkpt>
      <trkpt lat="47.595877" lon="-3.131316">
        <ele>4.2</ele>
        <time>2020-08-13T04:05:10Z</time>
      </trkpt>
      <trkpt lat="47.594913" lon="-3.131517">
        <ele>8.2</ele>
        <time>2020-08-13T04:05:19Z</time>
      </trkpt>
      <trkpt lat="47.59478" lon="-3.131593">
        <ele>8.2</ele>
        <time>2020-08-13T04:05:20Z</time>
      </trkpt>
      <trkpt lat="47.594647" lon="-3.13174">
        <ele>10.2</ele>
        <time>2020-08-13T04:05:21Z</time>
      </trkpt>
      <trkpt lat="47.594549" lon="-3.131883">
        <ele>10.2</ele>
        <time>2020-08-13T04:05:23Z</time>
      </trkpt>
      <trkpt lat="47.594498" lon="-3.131911">
        <ele>10.2</ele>
        <time>2020-08-13T04:05:23Z</time>
      </trkpt>
      <trkpt lat="47.594394" lon="-3.13193">
        <ele>10.2</ele>
        <time>2020-08-13T04:05:24Z</time>
      </trkpt>
      <trkpt lat="47.59346" lon="-3.13196">
        <ele>10.0</ele>
        <time>2020-08-13T04:05:32Z</time>
      </trkpt>
      <trkpt lat="47.593074" lon="-3.132003">
        <ele>7.0</ele>
        <time>2020-08-13T04:05:35Z</time>
      </trkpt>
      <trkpt lat="47.586792" lon="-3.133613">
        <ele>5.0</ele>
        <time>2020-08-13T04:06:30Z</time>
      </trkpt>
      <trkpt lat="47.582374" lon="-3.134702">
        <ele>4.0</ele>
        <time>2020-08-13T04:07:08Z</time>
      </trkpt>
      <trkpt lat="47.581503" lon="-3.134811">
        <ele>3.4</ele>
        <time>2020-08-13T04:07:16Z</time>
      </trkpt>
      <trkpt lat="47.576809" lon="-3.13477">
        <ele>2.6</ele>
        <time>2020-08-13T04:07:56Z</time>
      </trkpt>
      <trkpt lat="47.576629" lon="-3.134821">
        <ele>2.4</ele>
        <time>2020-08-13T04:07:58Z</time>
      </trkpt>
      <trkpt lat="47.576572" lon="-3.134894">
        <ele>2.4</ele>
        <time>2020-08-13T04:07:58Z</time>
      </trkpt>
      <trkpt lat="47.57652" lon="-3.134893">
        <ele>2.4</ele>
        <time>2020-08-13T04:07:58Z</time>
      </trkpt>
      <trkpt lat="47.576466" lon="-3.13482">
        <ele>2.4</ele>
        <time>2020-08-13T04:07:59Z</time>
      </trkpt>
      <trkpt lat="47.57555" lon="-3.134795">
        <ele>4.4</ele>
        <time>2020-08-13T04:08:04Z</time>
      </trkpt>
      <trkpt lat="47.575481" lon="-3.134856">
        <ele>4.4</ele>
        <time>2020-08-13T04:08:04Z</time>
      </trkpt>
      <trkpt lat="47.575413" lon="-3.134832">
        <ele>4.4</ele>
        <time>2020-08-13T04:08:04Z</time>
      </trkpt>
      <trkpt lat="47.575378" lon="-3.13477">
        <ele>4.4</ele>
        <time>2020-08-13T04:08:05Z</time>
      </trkpt>
      <trkpt lat="47.574297" lon="-3.134702">
        <ele>6.4</ele>
        <time>2020-08-13T04:08:10Z</time>
      </trkpt>
      <trkpt lat="47.566336" lon="-3.134508">
        <ele>4.6</ele>
        <time>2020-08-13T04:09:05Z</time>
      </trkpt>
      <trkpt lat="47.559999" lon="-3.134405">
        <ele>7.4</ele>
        <time>2020-08-13T04:09:48Z</time>
      </trkpt>
      <trkpt lat="47.559774" lon="-3.134352">
        <ele>7.4</ele>
        <time>2020-08-13T04:09:50Z</time>
      </trkpt>
      <trkpt lat="47.559554" lon="-3.134391">
        <ele>7.4</ele>
        <time>2020-08-13T04:09:51Z</time>
      </trkpt>
      <trkpt lat="47.558992" lon="-3.134382">
        <ele>6.8</ele>
        <time>2020-08-13T04:09:55Z</time>
      </trkpt>
      <trkpt lat="47.557415" lon="-3.134326">
        <ele>6.8</ele>
        <time>2020-08-13T04:10:06Z</time>
      </trkpt>
      <trkpt lat="47.551527" lon="-3.134215">
        <ele>4.75</ele>
        <time>2020-08-13T04:10:46Z</time>
      </trkpt>
      <trkpt lat="47.546588" lon="-3.134088">
        <ele>3.4</ele>
        <time>2020-08-13T04:11:20Z</time>
      </trkpt>
      <trkpt lat="47.546266" lon="-3.134053">
        <ele>3.4</ele>
        <time>2020-08-13T04:11:23Z</time>
      </trkpt>
      <trkpt lat="47.545684" lon="-3.133744">
        <ele>3.0</ele>
        <time>2020-08-13T04:11:27Z</time>
      </trkpt>
      <trkpt lat="47.545396" lon="-3.13373">
        <ele>3.0</ele>
        <time>2020-08-13T04:11:29Z</time>
      </trkpt>
      <trkpt lat="47.544647" lon="-3.134051">
        <ele>3.0</ele>
        <time>2020-08-13T04:11:34Z</time>
      </trkpt>
      <trkpt lat="47.543231" lon="-3.13444">
        <ele>10.4</ele>
        <time>2020-08-13T04:11:44Z</time>
      </trkpt>
      <trkpt lat="47.54186" lon="-3.134918">
        <ele>10.8</ele>
        <time>2020-08-13T04:11:54Z</time>
      </trkpt>
      <trkpt lat="47.541563" lon="-3.134963">
        <ele>9.8</ele>
        <time>2020-08-13T04:11:56Z</time>
      </trkpt>
      <trkpt lat="47.540791" lon="-3.135009">
        <ele>8.0</ele>
        <time>2020-08-13T04:12:01Z</time>
      </trkpt>
      <trkpt lat="47.538142" lon="-3.135098">
        <ele>11.2</ele>
        <time>2020-08-13T04:12:19Z</time>
      </trkpt>
      <trkpt lat="47.537316" lon="-3.135088">
        <ele>11.8</ele>
        <time>2020-08-13T04:12:25Z</time>
      </trkpt>
      <trkpt lat="47.533966" lon="-3.134755">
        <ele>10.6</ele>
        <time>2020-08-13T04:12:48Z</time>
      </trkpt>
      <trkpt lat="47.533946" lon="-3.13481">
        <ele>10.6</ele>
        <time>2020-08-13T04:12:48Z</time>
      </trkpt>
      <trkpt lat="47.533912" lon="-3.134842">
        <ele>10.6</ele>
        <time>2020-08-13T04:12:49Z</time>
      </trkpt>
      <trkpt lat="47.533872" lon="-3.134848">
        <ele>10.6</ele>
        <time>2020-08-13T04:12:49Z</time>
      </trkpt>
      <trkpt lat="47.533837" lon="-3.134827">
        <ele>10.6</ele>
        <time>2020-08-13T04:12:50Z</time>
      </trkpt>
      <trkpt lat="47.533808" lon="-3.134774">
        <ele>10.6</ele>
        <time>2020-08-13T04:12:50Z</time>
      </trkpt>
      <trkpt lat="47.533802" lon="-3.13472">
        <ele>10.6</ele>
        <time>2020-08-13T04:12:50Z</time>
      </trkpt>
      <trkpt lat="47.531873" lon="-3.134545">
        <ele>13.0</ele>
        <time>2020-08-13T04:13:10Z</time>
      </trkpt>
      <trkpt lat="47.524376" lon="-3.133779">
        <ele>17.8</ele>
        <time>2020-08-13T04:14:27Z</time>
      </trkpt>
      <trkpt lat="47.523395" lon="-3.133697">
        <ele>16.4</ele>
        <time>2020-08-13T04:14:37Z</time>
      </trkpt>
      <trkpt lat="47.521738" lon="-3.133503">
        <ele>11.8</ele>
        <time>2020-08-13T04:14:54Z</time>
      </trkpt>
      <trkpt lat="47.520856" lon="-3.133455">
        <ele>11.0</ele>
        <time>2020-08-13T04:15:03Z</time>
      </trkpt>
      <trkpt lat="47.520699" lon="-3.133357">
        <ele>11.4</ele>
        <time>2020-08-13T04:15:05Z</time>
      </trkpt>
      <trkpt lat="47.520659" lon="-3.133411">
        <ele>11.4</ele>
        <time>2020-08-13T04:15:06Z</time>
      </trkpt>
      <trkpt lat="47.520604" lon="-3.133416">
        <ele>11.4</ele>
        <time>2020-08-13T04:15:06Z</time>
      </trkpt>
      <trkpt lat="47.520559" lon="-3.133369">
        <ele>11.4</ele>
        <time>2020-08-13T04:15:07Z</time>
      </trkpt>
      <trkpt lat="47.520547" lon="-3.133332">
        <ele>10.8</ele>
        <time>2020-08-13T04:15:07Z</time>
      </trkpt>
      <trkpt lat="47.520396" lon="-3.133372">
        <ele>11.4</ele>
        <time>2020-08-13T04:15:09Z</time>
      </trkpt>
      <trkpt lat="47.52039" lon="-3.133457">
        <ele>11.4</ele>
        <time>2020-08-13T04:15:09Z</time>
      </trkpt>
      <trkpt lat="47.520339" lon="-3.133497">
        <ele>11.4</ele>
        <time>2020-08-13T04:15:10Z</time>
      </trkpt>
      <trkpt lat="47.520282" lon="-3.133433">
        <ele>11.4</ele>
        <time>2020-08-13T04:15:10Z</time>
      </trkpt>
      <trkpt lat="47.520279" lon="-3.133405">
        <ele>11.4</ele>
        <time>2020-08-13T04:15:11Z</time>
      </trkpt>
      <trkpt lat="47.519371" lon="-3.133296">
        <ele>11.8</ele>
        <time>2020-08-13T04:15:20Z</time>
      </trkpt>
      <trkpt lat="47.518895" lon="-3.133158">
        <ele>12.4</ele>
        <time>2020-08-13T04:15:25Z</time>
      </trkpt>
      <trkpt lat="47.518373" lon="-3.132957">
        <ele>12.4</ele>
        <time>2020-08-13T04:15:30Z</time>
      </trkpt>
      <trkpt lat="47.517319" lon="-3.13254">
        <ele>13.2</ele>
        <time>2020-08-13T04:15:42Z</time>
      </trkpt>
      <trkpt lat="47.516389" lon="-3.132146">
        <ele>12.4</ele>
        <time>2020-08-13T04:15:51Z</time>
      </trkpt>
      <trkpt lat="47.515992" lon="-3.131954">
        <ele>12.4</ele>
        <time>2020-08-13T04:15:56Z</time>
      </trkpt>
      <trkpt lat="47.515292" lon="-3.131687">
        <ele>12.2</ele>
        <time>2020-08-13T04:16:03Z</time>
      </trkpt>
      <trkpt lat="47.514507" lon="-3.131337">
        <ele>11.0</ele>
        <time>2020-08-13T04:16:12Z</time>
      </trkpt>
      <trkpt lat="47.513075" lon="-3.130752">
        <ele>8.4</ele>
        <time>2020-08-13T04:16:27Z</time>
      </trkpt>
      <trkpt lat="47.508803" lon="-3.128946">
        <ele>10.6</ele>
        <time>2020-08-13T04:17:12Z</time>
      </trkpt>
      <trkpt lat="47.507539" lon="-3.128475">
        <ele>12.2</ele>
        <time>2020-08-13T04:17:25Z</time>
      </trkpt>
      <trkpt lat="47.506889" lon="-3.128147">
        <ele>12.0</ele>
        <time>2020-08-13T04:17:33Z</time>
      </trkpt>
      <trkpt lat="47.506841" lon="-3.128151">
        <ele>12.0</ele>
        <time>2020-08-13T04:17:33Z</time>
      </trkpt>
      <trkpt lat="47.506659" lon="-3.127987">
        <ele>11.2</ele>
        <time>2020-08-13T04:17:35Z</time>
      </trkpt>
      <trkpt lat="47.50652" lon="-3.127945">
        <ele>11.2</ele>
        <time>2020-08-13T04:17:37Z</time>
      </trkpt>
      <trkpt lat="47.506465" lon="-3.127976">
        <ele>11.2</ele>
        <time>2020-08-13T04:17:37Z</time>
      </trkpt>
      <trkpt lat="47.50638" lon="-3.127918">
        <ele>11.2</ele>
        <time>2020-08-13T04:17:38Z</time>
      </trkpt>
      <trkpt lat="47.505635" lon="-3.127654">
        <ele>9.8</ele>
        <time>2020-08-13T04:17:42Z</time>
      </trkpt>
      <trkpt lat="47.504883" lon="-3.127306">
        <ele>8.6</ele>
        <time>2020-08-13T04:17:47Z</time>
      </trkpt>
      <trkpt lat="47.501158" lon="-3.125719">
        <ele>8.4</ele>
        <time>2020-08-13T04:18:09Z</time>
      </trkpt>
      <trkpt lat="47.498311" lon="-3.124543">
        <ele>14.2</ele>
        <time>2020-08-13T04:18:27Z</time>
      </trkpt>
      <trkpt lat="47.497722" lon="-3.124328">
        <ele>14.2</ele>
        <time>2020-08-13T04:18:30Z</time>
      </trkpt>
      <trkpt lat="47.497365" lon="-3.124125">
        <ele>16.0</ele>
        <time>2020-08-13T04:18:32Z</time>
      </trkpt>
      <trkpt lat="47.496891" lon="-3.123633">
        <ele>16.0</ele>
        <time>2020-08-13T04:18:36Z</time>
      </trkpt>
      <trkpt lat="47.496792" lon="-3.12356">
        <ele>16.0</ele>
        <time>2020-08-13T04:18:37Z</time>
      </trkpt>
      <trkpt lat="47.496679" lon="-3.123507">
        <ele>16.0</ele>
        <time>2020-08-13T04:18:37Z</time>
      </trkpt>
      <trkpt lat="47.496479" lon="-3.123453">
        <ele>19.6</ele>
        <time>2020-08-13T04:18:38Z</time>
      </trkpt>
      <trkpt lat="47.495802" lon="-3.123484">
        <ele>21.6</ele>
        <time>2020-08-13T04:18:42Z</time>
      </trkpt>
      <trkpt lat="47.495728" lon="-3.12354">
        <ele>21.6</ele>
        <time>2020-08-13T04:18:42Z</time>
      </trkpt>
      <trkpt lat="47.495631" lon="-3.123529">
        <ele>21.6</ele>
        <time>2020-08-13T04:18:43Z</time>
      </trkpt>
      <trkpt lat="47.495564" lon="-3.12346">
        <ele>21.6</ele>
        <time>2020-08-13T04:18:44Z</time>
      </trkpt>
      <trkpt lat="47.49554" lon="-3.123406">
        <ele>21.6</ele>
        <time>2020-08-13T04:18:44Z</time>
      </trkpt>
      <trkpt lat="47.495474" lon="-3.123351">
        <ele>21.6</ele>
        <time>2020-08-13T04:18:44Z</time>
      </trkpt>
      <trkpt lat="47.495126" lon="-3.123223">
        <ele>19.8</ele>
        <time>2020-08-13T04:18:47Z</time>
      </trkpt>
      <trkpt lat="47.495006" lon="-3.123137">
        <ele>19.8</ele>
        <time>2020-08-13T04:18:48Z</time>
      </trkpt>
      <trkpt lat="47.493238" lon="-3.122397">
        <ele>19.0</ele>
        <time>2020-08-13T04:19:00Z</time>
      </trkpt>
      <trkpt lat="47.493154" lon="-3.122388">
        <ele>19.0</ele>
        <time>2020-08-13T04:19:00Z</time>
      </trkpt>
      <trkpt lat="47.492988" lon="-3.122445">
        <ele>19.0</ele>
        <time>2020-08-13T04:19:01Z</time>
      </trkpt>
      <trkpt lat="47.492976" lon="-3.12248">
        <ele>19.0</ele>
        <time>2020-08-13T04:19:02Z</time>
      </trkpt>
      <trkpt lat="47.492909" lon="-3.122533">
        <ele>19.6</ele>
        <time>2020-08-13T04:19:02Z</time>
      </trkpt>
      <trkpt lat="47.492859" lon="-3.12251">
        <ele>19.6</ele>
        <time>2020-08-13T04:19:03Z</time>
      </trkpt>
      <trkpt lat="47.492827" lon="-3.122446">
        <ele>19.0</ele>
        <time>2020-08-13T04:19:04Z</time>
      </trkpt>
      <trkpt lat="47.492764" lon="-3.122207">
        <ele>19.0</ele>
        <time>2020-08-13T04:19:05Z</time>
      </trkpt>
      <trkpt lat="47.492665" lon="-3.122132">
        <ele>19.0</ele>
        <time>2020-08-13T04:19:06Z</time>
      </trkpt>
      <trkpt lat="47.49047" lon="-3.121228">
        <ele>14.8</ele>
        <time>2020-08-13T04:19:30Z</time>
      </trkpt>
      <trkpt lat="47.490204" lon="-3.121178">
        <ele>14.8</ele>
        <time>2020-08-13T04:19:33Z</time>
      </trkpt>
      <trkpt lat="47.490197" lon="-3.12123">
        <ele>14.8</ele>
        <time>2020-08-13T04:19:33Z</time>
      </trkpt>
      <trkpt lat="47.490163" lon="-3.121284">
        <ele>14.8</ele>
        <time>2020-08-13T04:19:33Z</time>
      </trkpt>
      <trkpt lat="47.490127" lon="-3.121298">
        <ele>14.8</ele>
        <time>2020-08-13T04:19:34Z</time>
      </trkpt>
      <trkpt lat="47.490082" lon="-3.12128">
        <ele>14.8</ele>
        <time>2020-08-13T04:19:34Z</time>
      </trkpt>
      <trkpt lat="47.490048" lon="-3.121214">
        <ele>14.8</ele>
        <time>2020-08-13T04:19:35Z</time>
      </trkpt>
      <trkpt lat="47.49006" lon="-3.121112">
        <ele>14.8</ele>
        <time>2020-08-13T04:19:35Z</time>
      </trkpt>
      <trkpt lat="47.489914" lon="-3.121007">
        <ele>13.8</ele>
        <time>2020-08-13T04:19:37Z</time>
      </trkpt>
      <trkpt lat="47.488791" lon="-3.120503">
        <ele>13.4</ele>
        <time>2020-08-13T04:19:48Z</time>
      </trkpt>
      <trkpt lat="47.487221" lon="-3.119834">
        <ele>12.6</ele>
        <time>2020-08-13T04:20:05Z</time>
      </trkpt>
      <trkpt lat="47.486967" lon="-3.11982">
        <ele>12.6</ele>
        <time>2020-08-13T04:20:07Z</time>
      </trkpt>
      <trkpt lat="47.486879" lon="-3.119906">
        <ele>12.6</ele>
        <time>2020-08-13T04:20:09Z</time>
      </trkpt>
      <trkpt lat="47.486817" lon="-3.119915">
        <ele>12.6</ele>
        <time>2020-08-13T04:20:10Z</time>
      </trkpt>
      <trkpt lat="47.486755" lon="-3.119891">
        <ele>12.6</ele>
        <time>2020-08-13T04:20:11Z</time>
      </trkpt>
      <trkpt lat="47.486696" lon="-3.119825">
        <ele>12.6</ele>
        <time>2020-08-13T04:20:12Z</time>
      </trkpt>
      <trkpt lat="47.486658" lon="-3.119701">
        <ele>14.0</ele>
        <time>2020-08-13T04:20:14Z</time>
      </trkpt>
      <trkpt lat="47.486596" lon="-3.119624">
        <ele>14.0</ele>
        <time>2020-08-13T04:20:15Z</time>
      </trkpt>
      <trkpt lat="47.486442" lon="-3.119503">
        <ele>14.0</ele>
        <time>2020-08-13T04:20:18Z</time>
      </trkpt>
      <trkpt lat="47.485208" lon="-3.119023">
        <ele>16.0</ele>
        <time>2020-08-13T04:20:40Z</time>
      </trkpt>
      <trkpt lat="47.485082" lon="-3.119002">
        <ele>16.0</ele>
        <time>2020-08-13T04:20:42Z</time>
      </trkpt>
      <trkpt lat="47.484901" lon="-3.118929">
        <ele>18.2</ele>
        <time>2020-08-13T04:20:45Z</time>
      </trkpt>
      <trkpt lat="47.484022" lon="-3.118941">
        <ele>18.8</ele>
        <time>2020-08-13T04:21:00Z</time>
      </trkpt>
      <trkpt lat="47.484003" lon="-3.118636">
        <ele>18.8</ele>
        <time>2020-08-13T04:21:03Z</time>
      </trkpt>
      <trkpt lat="47.48395" lon="-3.118246">
        <ele>17.8</ele>
        <time>2020-08-13T04:21:08Z</time>
      </trkpt>
      <trkpt lat="47.484386" lon="-3.117934">
        <ele>17.8</ele>
        <time>2020-08-13T04:21:17Z</time>
      </trkpt>
      <trkpt lat="47.484462" lon="-3.117904">
        <ele>17.8</ele>
        <time>2020-08-13T04:21:18Z</time>
      </trkpt>
      <trkpt lat="47.484576" lon="-3.117908">
        <ele>17.8</ele>
        <time>2020-08-13T04:21:20Z</time>
      </trkpt>
      <trkpt lat="47.484642" lon="-3.118073">
        <ele>17.8</ele>
        <time>2020-08-13T04:21:22Z</time>
      </trkpt>
      <trkpt lat="47.484683" lon="-3.118314">
        <ele>17.8</ele>
        <time>2020-08-13T04:21:26Z</time>
      </trkpt>
      <trkpt lat="47.484703" lon="-3.11839">
        <ele>18.2</ele>
        <time>2020-08-13T04:21:27Z</time>
      </trkpt>
      <trkpt lat="47.484731" lon="-3.11843">
        <ele>18.2</ele>
        <time>2020-08-13T04:21:27Z</time>
      </trkpt>
      <trkpt lat="47.484976" lon="-3.118436">
        <ele>18.2</ele>
        <time>2020-08-13T04:21:32Z</time>
      </trkpt>
      <trkpt lat="47.485024" lon="-3.118457">
        <ele>16.0</ele>
        <time>2020-08-13T04:21:33Z</time>
      </trkpt>
      <trkpt lat="47.48511" lon="-3.118466">
        <ele>16.0</ele>
        <time>2020-08-13T04:21:34Z</time>
      </trkpt>
      <trkpt lat="47.485661" lon="-3.118728">
        <ele>16.0</ele>
        <time>2020-08-13T04:21:43Z</time>
      </trkpt>
      <trkpt lat="47.485661" lon="-3.118728">
        <ele>16.0</ele>
        <time>2020-08-13T04:21:43Z</time>
      </trkpt>
      <trkpt lat="47.4852" lon="-3.118509">
        <ele>16.0</ele>
        <time>2020-08-13T04:21:50Z</time>
      </trkpt>
      <trkpt lat="47.485077" lon="-3.118726">
        <ele>16.0</ele>
        <time>2020-08-13T04:21:53Z</time>
      </trkpt>
      <trkpt lat="47.485133" lon="-3.118939">
        <ele>16.0</ele>
        <time>2020-08-13T04:21:56Z</time>
      </trkpt>
      <trkpt lat="47.485208" lon="-3.119023">
        <ele>16.0</ele>
        <time>2020-08-13T04:21:58Z</time>
      </trkpt>
      <trkpt lat="47.486442" lon="-3.119503">
        <ele>14.0</ele>
        <time>2020-08-13T04:22:18Z</time>
      </trkpt>
      <trkpt lat="47.486618" lon="-3.119495">
        <ele>14.0</ele>
        <time>2020-08-13T04:22:20Z</time>
      </trkpt>
      <trkpt lat="47.486712" lon="-3.119454">
        <ele>12.6</ele>
        <time>2020-08-13T04:22:22Z</time>
      </trkpt>
      <trkpt lat="47.486805" lon="-3.119391">
        <ele>12.6</ele>
        <time>2020-08-13T04:22:23Z</time>
      </trkpt>
      <trkpt lat="47.486871" lon="-3.119395">
        <ele>12.6</ele>
        <time>2020-08-13T04:22:24Z</time>
      </trkpt>
      <trkpt lat="47.486922" lon="-3.119425">
        <ele>12.6</ele>
        <time>2020-08-13T04:22:24Z</time>
      </trkpt>
      <trkpt lat="47.486988" lon="-3.11953">
        <ele>12.6</ele>
        <time>2020-08-13T04:22:25Z</time>
      </trkpt>
      <trkpt lat="47.487005" lon="-3.119598">
        <ele>12.6</ele>
        <time>2020-08-13T04:22:26Z</time>
      </trkpt>
      <trkpt lat="47.487067" lon="-3.119707">
        <ele>12.6</ele>
        <time>2020-08-13T04:22:27Z</time>
      </trkpt>
      <trkpt lat="47.487221" lon="-3.119834">
        <ele>12.6</ele>
        <time>2020-08-13T04:22:28Z</time>
      </trkpt>
      <trkpt lat="47.488791" lon="-3.120503">
        <ele>13.4</ele>
        <time>2020-08-13T04:22:45Z</time>
      </trkpt>
      <trkpt lat="47.489914" lon="-3.121007">
        <ele>13.8</ele>
        <time>2020-08-13T04:22:57Z</time>
      </trkpt>
      <trkpt lat="47.49006" lon="-3.121112">
        <ele>14.8</ele>
        <time>2020-08-13T04:22:59Z</time>
      </trkpt>
      <trkpt lat="47.49008" lon="-3.121083">
        <ele>14.8</ele>
        <time>2020-08-13T04:22:59Z</time>
      </trkpt>
      <trkpt lat="47.490132" lon="-3.121063">
        <ele>14.8</ele>
        <time>2020-08-13T04:23:00Z</time>
      </trkpt>
      <trkpt lat="47.49018" lon="-3.121096">
        <ele>14.8</ele>
        <time>2020-08-13T04:23:00Z</time>
      </trkpt>
      <trkpt lat="47.490204" lon="-3.121178">
        <ele>14.8</ele>
        <time>2020-08-13T04:23:01Z</time>
      </trkpt>
      <trkpt lat="47.49047" lon="-3.121228">
        <ele>14.8</ele>
        <time>2020-08-13T04:23:04Z</time>
      </trkpt>
      <trkpt lat="47.492665" lon="-3.122132">
        <ele>19.0</ele>
        <time>2020-08-13T04:23:27Z</time>
      </trkpt>
      <trkpt lat="47.492889" lon="-3.122288">
        <ele>19.0</ele>
        <time>2020-08-13T04:23:29Z</time>
      </trkpt>
      <trkpt lat="47.492929" lon="-3.122289">
        <ele>19.0</ele>
        <time>2020-08-13T04:23:30Z</time>
      </trkpt>
      <trkpt lat="47.492971" lon="-3.122328">
        <ele>19.0</ele>
        <time>2020-08-13T04:23:30Z</time>
      </trkpt>
      <trkpt lat="47.493154" lon="-3.122388">
        <ele>19.0</ele>
        <time>2020-08-13T04:23:31Z</time>
      </trkpt>
      <trkpt lat="47.493238" lon="-3.122397">
        <ele>19.0</ele>
        <time>2020-08-13T04:23:32Z</time>
      </trkpt>
      <trkpt lat="47.495006" lon="-3.123137">
        <ele>19.8</ele>
        <time>2020-08-13T04:23:44Z</time>
      </trkpt>
      <trkpt lat="47.4952" lon="-3.12319">
        <ele>19.8</ele>
        <time>2020-08-13T04:23:46Z</time>
      </trkpt>
      <trkpt lat="47.495396" lon="-3.123197">
        <ele>19.8</ele>
        <time>2020-08-13T04:23:47Z</time>
      </trkpt>
      <trkpt lat="47.495499" lon="-3.123164">
        <ele>19.8</ele>
        <time>2020-08-13T04:23:48Z</time>
      </trkpt>
      <trkpt lat="47.495579" lon="-3.12311">
        <ele>19.8</ele>
        <time>2020-08-13T04:23:48Z</time>
      </trkpt>
      <trkpt lat="47.495603" lon="-3.123084">
        <ele>19.8</ele>
        <time>2020-08-13T04:23:49Z</time>
      </trkpt>
      <trkpt lat="47.495703" lon="-3.123047">
        <ele>19.8</ele>
        <time>2020-08-13T04:23:49Z</time>
      </trkpt>
      <trkpt lat="47.495788" lon="-3.123092">
        <ele>19.8</ele>
        <time>2020-08-13T04:23:50Z</time>
      </trkpt>
      <trkpt lat="47.495913" lon="-3.123281">
        <ele>17.8</ele>
        <time>2020-08-13T04:23:50Z</time>
      </trkpt>
      <trkpt lat="47.496279" lon="-3.123454">
        <ele>19.6</ele>
        <time>2020-08-13T04:23:52Z</time>
      </trkpt>
      <trkpt lat="47.496479" lon="-3.123453">
        <ele>19.6</ele>
        <time>2020-08-13T04:23:53Z</time>
      </trkpt>
      <trkpt lat="47.496602" lon="-3.123416">
        <ele>19.6</ele>
        <time>2020-08-13T04:23:54Z</time>
      </trkpt>
      <trkpt lat="47.496712" lon="-3.123409">
        <ele>16.0</ele>
        <time>2020-08-13T04:23:55Z</time>
      </trkpt>
      <trkpt lat="47.496785" lon="-3.123441">
        <ele>16.0</ele>
        <time>2020-08-13T04:23:55Z</time>
      </trkpt>
      <trkpt lat="47.496921" lon="-3.123533">
        <ele>16.0</ele>
        <time>2020-08-13T04:23:56Z</time>
      </trkpt>
      <trkpt lat="47.497323" lon="-3.12397">
        <ele>16.0</ele>
        <time>2020-08-13T04:23:58Z</time>
      </trkpt>
      <trkpt lat="47.497638" lon="-3.124202">
        <ele>14.2</ele>
        <time>2020-08-13T04:24:00Z</time>
      </trkpt>
      <trkpt lat="47.498311" lon="-3.124543">
        <ele>14.2</ele>
        <time>2020-08-13T04:24:04Z</time>
      </trkpt>
      <trkpt lat="47.501158" lon="-3.125719">
        <ele>8.4</ele>
        <time>2020-08-13T04:24:21Z</time>
      </trkpt>
      <trkpt lat="47.50508" lon="-3.127392">
        <ele>10.6</ele>
        <time>2020-08-13T04:24:46Z</time>
      </trkpt>
      <trkpt lat="47.505222" lon="-3.127421">
        <ele>10.6</ele>
        <time>2020-08-13T04:24:46Z</time>
      </trkpt>
      <trkpt lat="47.506022" lon="-3.127738">
        <ele>11.2</ele>
        <time>2020-08-13T04:24:51Z</time>
      </trkpt>
      <trkpt lat="47.506186" lon="-3.127785">
        <ele>11.2</ele>
        <time>2020-08-13T04:24:52Z</time>
      </trkpt>
      <trkpt lat="47.506386" lon="-3.127776">
        <ele>11.2</ele>
        <time>2020-08-13T04:24:54Z</time>
      </trkpt>
      <trkpt lat="47.506399" lon="-3.127747">
        <ele>11.2</ele>
        <time>2020-08-13T04:24:54Z</time>
      </trkpt>
      <trkpt lat="47.506449" lon="-3.127723">
        <ele>11.2</ele>
        <time>2020-08-13T04:24:54Z</time>
      </trkpt>
      <trkpt lat="47.506503" lon="-3.127745">
        <ele>11.2</ele>
        <time>2020-08-13T04:24:55Z</time>
      </trkpt>
      <trkpt lat="47.506535" lon="-3.127827">
        <ele>11.2</ele>
        <time>2020-08-13T04:24:56Z</time>
      </trkpt>
      <trkpt lat="47.50669" lon="-3.12793">
        <ele>12.0</ele>
        <time>2020-08-13T04:24:57Z</time>
      </trkpt>
      <trkpt lat="47.506803" lon="-3.12794">
        <ele>12.0</ele>
        <time>2020-08-13T04:24:59Z</time>
      </trkpt>
      <trkpt lat="47.506875" lon="-3.127904">
        <ele>12.0</ele>
        <time>2020-08-13T04:24:59Z</time>
      </trkpt>
      <trkpt lat="47.506908" lon="-3.127918">
        <ele>12.0</ele>
        <time>2020-08-13T04:25:00Z</time>
      </trkpt>
      <trkpt lat="47.506933" lon="-3.12795">
        <ele>12.0</ele>
        <time>2020-08-13T04:25:00Z</time>
      </trkpt>
      <trkpt lat="47.506944" lon="-3.128055">
        <ele>12.0</ele>
        <time>2020-08-13T04:25:01Z</time>
      </trkpt>
      <trkpt lat="47.50703" lon="-3.128137">
        <ele>12.0</ele>
        <time>2020-08-13T04:25:02Z</time>
      </trkpt>
      <trkpt lat="47.507242" lon="-3.128266">
        <ele>12.0</ele>
        <time>2020-08-13T04:25:04Z</time>
      </trkpt>
      <trkpt lat="47.508253" lon="-3.12868">
        <ele>12.2</ele>
        <time>2020-08-13T04:25:15Z</time>
      </trkpt>
      <trkpt lat="47.508803" lon="-3.128946">
        <ele>10.6</ele>
        <time>2020-08-13T04:25:21Z</time>
      </trkpt>
      <trkpt lat="47.511447" lon="-3.130065">
        <ele>9.6</ele>
        <time>2020-08-13T04:25:49Z</time>
      </trkpt>
      <trkpt lat="47.514507" lon="-3.131337">
        <ele>11.0</ele>
        <time>2020-08-13T04:26:21Z</time>
      </trkpt>
      <trkpt lat="47.515292" lon="-3.131687">
        <ele>12.2</ele>
        <time>2020-08-13T04:26:30Z</time>
      </trkpt>
      <trkpt lat="47.515992" lon="-3.131954">
        <ele>12.4</ele>
        <time>2020-08-13T04:26:37Z</time>
      </trkpt>
      <trkpt lat="47.516389" lon="-3.132146">
        <ele>12.4</ele>
        <time>2020-08-13T04:26:41Z</time>
      </trkpt>
      <trkpt lat="47.517319" lon="-3.13254">
        <ele>13.2</ele>
        <time>2020-08-13T04:26:51Z</time>
      </trkpt>
      <trkpt lat="47.518895" lon="-3.133158">
        <ele>12.4</ele>
        <time>2020-08-13T04:27:08Z</time>
      </trkpt>
      <trkpt lat="47.519371" lon="-3.133296">
        <ele>11.8</ele>
        <time>2020-08-13T04:27:13Z</time>
      </trkpt>
      <trkpt lat="47.520279" lon="-3.133405">
        <ele>11.4</ele>
        <time>2020-08-13T04:27:22Z</time>
      </trkpt>
      <trkpt lat="47.520293" lon="-3.133348">
        <ele>11.4</ele>
        <time>2020-08-13T04:27:23Z</time>
      </trkpt>
      <trkpt lat="47.520329" lon="-3.133317">
        <ele>10.8</ele>
        <time>2020-08-13T04:27:23Z</time>
      </trkpt>
      <trkpt lat="47.520385" lon="-3.133346">
        <ele>11.4</ele>
        <time>2020-08-13T04:27:24Z</time>
      </trkpt>
      <trkpt lat="47.520396" lon="-3.133372">
        <ele>11.4</ele>
        <time>2020-08-13T04:27:24Z</time>
      </trkpt>
      <trkpt lat="47.520547" lon="-3.133332">
        <ele>10.8</ele>
        <time>2020-08-13T04:27:26Z</time>
      </trkpt>
      <trkpt lat="47.520544" lon="-3.133294">
        <ele>10.8</ele>
        <time>2020-08-13T04:27:26Z</time>
      </trkpt>
      <trkpt lat="47.52058" lon="-3.133196">
        <ele>10.8</ele>
        <time>2020-08-13T04:27:27Z</time>
      </trkpt>
      <trkpt lat="47.520631" lon="-3.133175">
        <ele>10.8</ele>
        <time>2020-08-13T04:27:27Z</time>
      </trkpt>
      <trkpt lat="47.520658" lon="-3.133184">
        <ele>10.8</ele>
        <time>2020-08-13T04:27:28Z</time>
      </trkpt>
      <trkpt lat="47.520699" lon="-3.133238">
        <ele>10.8</ele>
        <time>2020-08-13T04:27:28Z</time>
      </trkpt>
      <trkpt lat="47.520709" lon="-3.133318">
        <ele>10.8</ele>
        <time>2020-08-13T04:27:29Z</time>
      </trkpt>
      <trkpt lat="47.520699" lon="-3.133357">
        <ele>11.4</ele>
        <time>2020-08-13T04:27:29Z</time>
      </trkpt>
      <trkpt lat="47.520856" lon="-3.133455">
        <ele>11.0</ele>
        <time>2020-08-13T04:27:31Z</time>
      </trkpt>
      <trkpt lat="47.521738" lon="-3.133503">
        <ele>11.8</ele>
        <time>2020-08-13T04:27:40Z</time>
      </trkpt>
      <trkpt lat="47.523395" lon="-3.133697">
        <ele>16.4</ele>
        <time>2020-08-13T04:27:57Z</time>
      </trkpt>
      <trkpt lat="47.524376" lon="-3.133779">
        <ele>17.8</ele>
        <time>2020-08-13T04:28:07Z</time>
      </trkpt>
      <trkpt lat="47.531873" lon="-3.134545">
        <ele>13.0</ele>
        <time>2020-08-13T04:29:24Z</time>
      </trkpt>
      <trkpt lat="47.533802" lon="-3.13472">
        <ele>10.6</ele>
        <time>2020-08-13T04:29:43Z</time>
      </trkpt>
      <trkpt lat="47.533809" lon="-3.134675">
        <ele>10.6</ele>
        <time>2020-08-13T04:29:44Z</time>
      </trkpt>
      <trkpt lat="47.533865" lon="-3.134607">
        <ele>10.6</ele>
        <time>2020-08-13T04:29:44Z</time>
      </trkpt>
      <trkpt lat="47.533907" lon="-3.134607">
        <ele>10.6</ele>
        <time>2020-08-13T04:29:44Z</time>
      </trkpt>
      <trkpt lat="47.533962" lon="-3.13468">
        <ele>10.6</ele>
        <time>2020-08-13T04:29:45Z</time>
      </trkpt>
      <trkpt lat="47.533966" lon="-3.134755">
        <ele>10.6</ele>
        <time>2020-08-13T04:29:45Z</time>
      </trkpt>
      <trkpt lat="47.534052" lon="-3.134768">
        <ele>10.6</ele>
        <time>2020-08-13T04:29:46Z</time>
      </trkpt>
      <trkpt lat="47.5343" lon="-3.134777">
        <ele>10.4</ele>
        <time>2020-08-13T04:29:48Z</time>
      </trkpt>
      <trkpt lat="47.536231" lon="-3.134993">
        <ele>12.6</ele>
        <time>2020-08-13T04:30:01Z</time>
      </trkpt>
      <trkpt lat="47.537316" lon="-3.135088">
        <ele>11.8</ele>
        <time>2020-08-13T04:30:08Z</time>
      </trkpt>
      <trkpt lat="47.538142" lon="-3.135098">
        <ele>11.2</ele>
        <time>2020-08-13T04:30:14Z</time>
      </trkpt>
      <trkpt lat="47.540791" lon="-3.135009">
        <ele>8.0</ele>
        <time>2020-08-13T04:30:32Z</time>
      </trkpt>
      <trkpt lat="47.541563" lon="-3.134963">
        <ele>9.8</ele>
        <time>2020-08-13T04:30:37Z</time>
      </trkpt>
      <trkpt lat="47.54186" lon="-3.134918">
        <ele>10.8</ele>
        <time>2020-08-13T04:30:39Z</time>
      </trkpt>
      <trkpt lat="47.543231" lon="-3.13444">
        <ele>10.4</ele>
        <time>2020-08-13T04:30:49Z</time>
      </trkpt>
      <trkpt lat="47.544647" lon="-3.134051">
        <ele>3.0</ele>
        <time>2020-08-13T04:30:59Z</time>
      </trkpt>
      <trkpt lat="47.545396" lon="-3.13373">
        <ele>3.0</ele>
        <time>2020-08-13T04:31:04Z</time>
      </trkpt>
      <trkpt lat="47.545684" lon="-3.133744">
        <ele>3.0</ele>
        <time>2020-08-13T04:31:06Z</time>
      </trkpt>
      <trkpt lat="47.546266" lon="-3.134053">
        <ele>3.4</ele>
        <time>2020-08-13T04:31:10Z</time>
      </trkpt>
      <trkpt lat="47.546588" lon="-3.134088">
        <ele>3.4</ele>
        <time>2020-08-13T04:31:13Z</time>
      </trkpt>
      <trkpt lat="47.551527" lon="-3.134215">
        <ele>4.75</ele>
        <time>2020-08-13T04:31:46Z</time>
      </trkpt>
      <trkpt lat="47.557415" lon="-3.134326">
        <ele>6.8</ele>
        <time>2020-08-13T04:32:27Z</time>
      </trkpt>
      <trkpt lat="47.558992" lon="-3.134382">
        <ele>6.8</ele>
        <time>2020-08-13T04:32:37Z</time>
      </trkpt>
      <trkpt lat="47.559554" lon="-3.134391">
        <ele>7.4</ele>
        <time>2020-08-13T04:32:41Z</time>
      </trkpt>
      <trkpt lat="47.559774" lon="-3.134352">
        <ele>7.4</ele>
        <time>2020-08-13T04:32:43Z</time>
      </trkpt>
      <trkpt lat="47.559999" lon="-3.134405">
        <ele>7.4</ele>
        <time>2020-08-13T04:32:44Z</time>
      </trkpt>
      <trkpt lat="47.566336" lon="-3.134508">
        <ele>4.6</ele>
        <time>2020-08-13T04:33:28Z</time>
      </trkpt>
      <trkpt lat="47.574297" lon="-3.134702">
        <ele>6.4</ele>
        <time>2020-08-13T04:34:22Z</time>
      </trkpt>
      <trkpt lat="47.575376" lon="-3.134657">
        <ele>4.4</ele>
        <time>2020-08-13T04:34:30Z</time>
      </trkpt>
      <trkpt lat="47.575411" lon="-3.134589">
        <ele>4.4</ele>
        <time>2020-08-13T04:34:30Z</time>
      </trkpt>
      <trkpt lat="47.575443" lon="-3.134567">
        <ele>4.4</ele>
        <time>2020-08-13T04:34:30Z</time>
      </trkpt>
      <trkpt lat="47.575495" lon="-3.134567">
        <ele>4.4</ele>
        <time>2020-08-13T04:34:30Z</time>
      </trkpt>
      <trkpt lat="47.575534" lon="-3.134598">
        <ele>4.4</ele>
        <time>2020-08-13T04:34:31Z</time>
      </trkpt>
      <trkpt lat="47.575566" lon="-3.134678">
        <ele>4.4</ele>
        <time>2020-08-13T04:34:31Z</time>
      </trkpt>
      <trkpt lat="47.576465" lon="-3.13472">
        <ele>2.4</ele>
        <time>2020-08-13T04:34:36Z</time>
      </trkpt>
      <trkpt lat="47.576494" lon="-3.134663">
        <ele>2.4</ele>
        <time>2020-08-13T04:34:36Z</time>
      </trkpt>
      <trkpt lat="47.576539" lon="-3.134636">
        <ele>2.4</ele>
        <time>2020-08-13T04:34:36Z</time>
      </trkpt>
      <trkpt lat="47.576581" lon="-3.134644">
        <ele>2.4</ele>
        <time>2020-08-13T04:34:36Z</time>
      </trkpt>
      <trkpt lat="47.576632" lon="-3.134722">
        <ele>2.4</ele>
        <time>2020-08-13T04:34:37Z</time>
      </trkpt>
      <trkpt lat="47.576809" lon="-3.13477">
        <ele>2.6</ele>
        <time>2020-08-13T04:34:38Z</time>
      </trkpt>
      <trkpt lat="47.581503" lon="-3.134811">
        <ele>3.4</ele>
        <time>2020-08-13T04:35:12Z</time>
      </trkpt>
      <trkpt lat="47.582374" lon="-3.134702">
        <ele>4.0</ele>
        <time>2020-08-13T04:35:19Z</time>
      </trkpt>
      <trkpt lat="47.586792" lon="-3.133613">
        <ele>5.0</ele>
        <time>2020-08-13T04:35:52Z</time>
      </trkpt>
      <trkpt lat="47.593074" lon="-3.132003">
        <ele>7.0</ele>
        <time>2020-08-13T04:36:39Z</time>
      </trkpt>
      <trkpt lat="47.59346" lon="-3.13196">
        <ele>10.0</ele>
        <time>2020-08-13T04:36:42Z</time>
      </trkpt>
      <trkpt lat="47.594394" lon="-3.13193">
        <ele>10.2</ele>
        <time>2020-08-13T04:36:49Z</time>
      </trkpt>
      <trkpt lat="47.594498" lon="-3.131911">
        <ele>10.2</ele>
        <time>2020-08-13T04:36:50Z</time>
      </trkpt>
      <trkpt lat="47.594549" lon="-3.131883">
        <ele>10.2</ele>
        <time>2020-08-13T04:36:50Z</time>
      </trkpt>
      <trkpt lat="47.594647" lon="-3.13174">
        <ele>10.2</ele>
        <time>2020-08-13T04:36:51Z</time>
      </trkpt>
      <trkpt lat="47.59478" lon="-3.131593">
        <ele>8.2</ele>
        <time>2020-08-13T04:36:52Z</time>
      </trkpt>
      <trkpt lat="47.594913" lon="-3.131517">
        <ele>8.2</ele>
        <time>2020-08-13T04:36:53Z</time>
      </trkpt>
      <trkpt lat="47.595877" lon="-3.131316">
        <ele>4.2</ele>
        <time>2020-08-13T04:37:01Z</time>
      </trkpt>
      <trkpt lat="47.59613" lon="-3.131213">
        <ele>4.2</ele>
        <time>2020-08-13T04:37:03Z</time>
      </trkpt>
      <trkpt lat="47.596287" lon="-3.131041">
        <ele>4.2</ele>
        <time>2020-08-13T04:37:04Z</time>
      </trkpt>
      <trkpt lat="47.596916" lon="-3.130021">
        <ele>2.5</ele>
        <time>2020-08-13T04:37:11Z</time>
      </trkpt>
      <trkpt lat="47.597042" lon="-3.12988">
        <ele>0.0</ele>
        <time>2020-08-13T04:37:12Z</time>
      </trkpt>
      <trkpt lat="47.597979" lon="-3.129286">
        <ele>2.0</ele>
        <time>2020-08-13T04:37:20Z</time>
      </trkpt>
      <trkpt lat="47.59813" lon="-3.129138">
        <ele>0.0</ele>
        <time>2020-08-13T04:37:21Z</time>
      </trkpt>
      <trkpt lat="47.59825" lon="-3.128932">
        <ele>0.0</ele>
        <time>2020-08-13T04:37:22Z</time>
      </trkpt>
      <trkpt lat="47.59918" lon="-3.126566">
        <ele>9.0</ele>
        <time>2020-08-13T04:37:36Z</time>
      </trkpt>
      <trkpt lat="47.599333" lon="-3.125918">
        <ele>9.0</ele>
        <time>2020-08-13T04:37:39Z</time>
      </trkpt>
      <trkpt lat="47.599724" lon="-3.125754">
        <ele>7.5</ele>
        <time>2020-08-13T04:37:52Z</time>
      </trkpt>
      <trkpt lat="47.599842" lon="-3.125488">
        <ele>7.5</ele>
        <time>2020-08-13T04:37:59Z</time>
      </trkpt>
      <trkpt lat="47.599991" lon="-3.125623">
        <ele>7.5</ele>
        <time>2020-08-13T04:38:04Z</time>
      </trkpt>
      <trkpt lat="47.600279" lon="-3.125475">
        <ele>9.8</ele>
        <time>2020-08-13T04:38:08Z</time>
      </trkpt>
      <trkpt lat="47.600307" lon="-3.125022">
        <ele>9.8</ele>
        <time>2020-08-13T04:38:13Z</time>
      </trkpt>
      <trkpt lat="47.600429" lon="-3.124726">
        <ele>9.4</ele>
        <time>2020-08-13T04:38:16Z</time>
      </trkpt>
      <trkpt lat="47.600925" lon="-3.124016">
        <ele>14.2</ele>
        <time>2020-08-13T04:38:26Z</time>
      </trkpt>
      <trkpt lat="47.601303" lon="-3.123679">
        <ele>14.2</ele>
        <time>2020-08-13T04:38:32Z</time>
      </trkpt>
      <trkpt lat="47.601902" lon="-3.122854">
        <ele>17.6</ele>
        <time>2020-08-13T04:38:44Z</time>
      </trkpt>
      <trkpt lat="47.601743" lon="-3.122432">
        <ele>17.6</ele>
        <time>2020-08-13T04:38:49Z</time>
      </trkpt>
      <trkpt lat="47.601601" lon="-3.122169">
        <ele>16.2</ele>
        <time>2020-08-13T04:38:53Z</time>
      </trkpt>
      <trkpt lat="47.601723" lon="-3.122113">
        <ele>17.6</ele>
        <time>2020-08-13T04:38:55Z</time>
      </trkpt>
      <trkpt lat="47.601833" lon="-3.121941">
        <ele>17.6</ele>
        <time>2020-08-13T04:38:59Z</time>
      </trkpt>
      <trkpt lat="47.60192" lon="-3.121718">
        <ele>17.6</ele>
        <time>2020-08-13T04:39:03Z</time>
      </trkpt>
      <trkpt lat="47.601978" lon="-3.121452">
        <ele>18.4</ele>
        <time>2020-08-13T04:39:07Z</time>
      </trkpt>
      <trkpt lat="47.601972" lon="-3.121108">
        <ele>18.4</ele>
        <time>2020-08-13T04:39:13Z</time>
      </trkpt>
      <trkpt lat="47.601998" lon="-3.120961">
        <ele>18.4</ele>
        <time>2020-08-13T04:39:15Z</time>
      </trkpt>
      <trkpt lat="47.602262" lon="-3.120652">
        <ele>20.8</ele>
        <time>2020-08-13T04:39:23Z</time>
      </trkpt>
      <trkpt lat="47.602334" lon="-3.120504">
        <ele>20.8</ele>
        <time>2020-08-13T04:39:26Z</time>
      </trkpt>
      <trkpt lat="47.60235" lon="-3.120359">
        <ele>20.8</ele>
        <time>2020-08-13T04:39:28Z</time>
      </trkpt>
      <trkpt lat="47.602365" lon="-3.119707">
        <ele>22.8</ele>
        <time>2020-08-13T04:39:38Z</time>
      </trkpt>
      <trkpt lat="47.602421" lon="-3.119396">
        <ele>22.8</ele>
        <time>2020-08-13T04:39:43Z</time>
      </trkpt>
      <trkpt lat="47.602469" lon="-3.119342">
        <ele>22.8</ele>
        <time>2020-08-13T04:39:45Z</time>
      </trkpt>
      <trkpt lat="47.602902" lon="-3.119317">
        <ele>20.8</ele>
        <time>2020-08-13T04:39:55Z</time>
      </trkpt>
      <trkpt lat="47.603117" lon="-3.11923">
        <ele>20.8</ele>
        <time>2020-08-13T04:40:00Z</time>
      </trkpt>
      <trkpt lat="47.603352" lon="-3.119014">
        <ele>21.4</ele>
        <time>2020-08-13T04:40:06Z</time>
      </trkpt>
      <trkpt lat="47.603563" lon="-3.118541">
        <ele>21.4</ele>
        <time>2020-08-13T04:40:15Z</time>
      </trkpt>
      <trkpt lat="47.604193" lon="-3.119122">
        <ele>20.2</ele>
        <time>2020-08-13T04:40:20Z</time>
      </trkpt>
      <trkpt lat="47.605559" lon="-3.12048">
        <ele>19.4</ele>
        <time>2020-08-13T04:40:32Z</time>
      </trkpt>
      <trkpt lat="47.606322" lon="-3.121288">
        <ele>20.4</ele>
        <time>2020-08-13T04:40:39Z</time>
      </trkpt>
      <trkpt lat="47.606401" lon="-3.121339">
        <ele>20.4</ele>
        <time>2020-08-13T04:40:40Z</time>
      </trkpt>
      <trkpt lat="47.606999" lon="-3.121956">
        <ele>20.2</ele>
        <time>2020-08-13T04:40:45Z</time>
      </trkpt>
      <trkpt lat="47.613712" lon="-3.128571">
        <ele>16.8</ele>
        <time>2020-08-13T04:41:44Z</time>
      </trkpt>
      <trkpt lat="47.613732" lon="-3.128535">
        <ele>16.8</ele>
        <time>2020-08-13T04:41:44Z</time>
      </trkpt>
      <trkpt lat="47.613821" lon="-3.128484">
        <ele>16.8</ele>
        <time>2020-08-13T04:41:45Z</time>
      </trkpt>
      <trkpt lat="47.613885" lon="-3.128511">
        <ele>16.8</ele>
        <time>2020-08-13T04:41:45Z</time>
      </trkpt>
      <trkpt lat="47.61393" lon="-3.128581">
        <ele>16.8</ele>
        <time>2020-08-13T04:41:45Z</time>
      </trkpt>
      <trkpt lat="47.613946" lon="-3.128676">
        <ele>16.8</ele>
        <time>2020-08-13T04:41:46Z</time>
      </trkpt>
      <trkpt lat="47.613925" lon="-3.128774">
        <ele>16.8</ele>
        <time>2020-08-13T04:41:46Z</time>
      </trkpt>
      <trkpt lat="47.614367" lon="-3.129221">
        <ele>16.2</ele>
        <time>2020-08-13T04:41:49Z</time>
      </trkpt>
      <trkpt lat="47.61738" lon="-3.132178">
        <ele>15.2</ele>
        <time>2020-08-13T04:42:07Z</time>
      </trkpt>
      <trkpt lat="47.619305" lon="-3.134098">
        <ele>15.0</ele>
        <time>2020-08-13T04:42:19Z</time>
      </trkpt>
      <trkpt lat="47.619702" lon="-3.134556">
        <ele>13.8</ele>
        <time>2020-08-13T04:42:22Z</time>
      </trkpt>
      <trkpt lat="47.620148" lon="-3.134926">
        <ele>14.4</ele>
        <time>2020-08-13T04:42:24Z</time>
      </trkpt>
      <trkpt lat="47.620291" lon="-3.134979">
        <ele>14.4</ele>
        <time>2020-08-13T04:42:25Z</time>
      </trkpt>
      <trkpt lat="47.620373" lon="-3.134943">
        <ele>14.4</ele>
        <time>2020-08-13T04:42:25Z</time>
      </trkpt>
      <trkpt lat="47.620437" lon="-3.134958">
        <ele>14.4</ele>
        <time>2020-08-13T04:42:26Z</time>
      </trkpt>
      <trkpt lat="47.620486" lon="-3.134996">
        <ele>14.4</ele>
        <time>2020-08-13T04:42:26Z</time>
      </trkpt>
      <trkpt lat="47.620529" lon="-3.13507">
        <ele>13.2</ele>
        <time>2020-08-13T04:42:27Z</time>
      </trkpt>
      <trkpt lat="47.620551" lon="-3.135161">
        <ele>13.2</ele>
        <time>2020-08-13T04:42:27Z</time>
      </trkpt>
      <trkpt lat="47.620548" lon="-3.135261">
        <ele>13.2</ele>
        <time>2020-08-13T04:42:27Z</time>
      </trkpt>
      <trkpt lat="47.620588" lon="-3.135339">
        <ele>13.2</ele>
        <time>2020-08-13T04:42:28Z</time>
      </trkpt>
      <trkpt lat="47.621068" lon="-3.135883">
        <ele>14.2</ele>
        <time>2020-08-13T04:42:31Z</time>
      </trkpt>
      <trkpt lat="47.623607" lon="-3.138266">
        <ele>14.4</ele>
        <time>2020-08-13T04:42:48Z</time>
      </trkpt>
      <trkpt lat="47.625106" lon="-3.139759">
        <ele>14.8</ele>
        <time>2020-08-13T04:42:58Z</time>
      </trkpt>
      <trkpt lat="47.62599" lon="-3.140609">
        <ele>14.8</ele>
        <time>2020-08-13T04:43:04Z</time>
      </trkpt>
      <trkpt lat="47.627957" lon="-3.142586">
        <ele>14.4</ele>
        <time>2020-08-13T04:43:18Z</time>
      </trkpt>
      <trkpt lat="47.628514" lon="-3.143095">
        <ele>14.6</ele>
        <time>2020-08-13T04:43:21Z</time>
      </trkpt>
      <trkpt lat="47.629436" lon="-3.144047">
        <ele>14.6</ele>
        <time>2020-08-13T04:43:28Z</time>
      </trkpt>
      <trkpt lat="47.629918" lon="-3.144454">
        <ele>15.2</ele>
        <time>2020-08-13T04:43:31Z</time>
      </trkpt>
      <trkpt lat="47.63118" lon="-3.14569">
        <ele>15.0</ele>
        <time>2020-08-13T04:43:39Z</time>
      </trkpt>
      <trkpt lat="47.631306" lon="-3.145845">
        <ele>15.4</ele>
        <time>2020-08-13T04:43:40Z</time>
      </trkpt>
      <trkpt lat="47.631977" lon="-3.14648">
        <ele>13.8</ele>
        <time>2020-08-13T04:43:45Z</time>
      </trkpt>
      <trkpt lat="47.634226" lon="-3.148762">
        <ele>16.2</ele>
        <time>2020-08-13T04:44:00Z</time>
      </trkpt>
      <trkpt lat="47.639352" lon="-3.153813">
        <ele>17.0</ele>
        <time>2020-08-13T04:44:35Z</time>
      </trkpt>
      <trkpt lat="47.639506" lon="-3.15383">
        <ele>17.0</ele>
        <time>2020-08-13T04:44:36Z</time>
      </trkpt>
      <trkpt lat="47.639556" lon="-3.153812">
        <ele>17.0</ele>
        <time>2020-08-13T04:44:36Z</time>
      </trkpt>
      <trkpt lat="47.639608" lon="-3.153835">
        <ele>17.0</ele>
        <time>2020-08-13T04:44:37Z</time>
      </trkpt>
      <trkpt lat="47.639645" lon="-3.153896">
        <ele>17.0</ele>
        <time>2020-08-13T04:44:37Z</time>
      </trkpt>
      <trkpt lat="47.639682" lon="-3.154104">
        <ele>17.0</ele>
        <time>2020-08-13T04:44:39Z</time>
      </trkpt>
      <trkpt lat="47.639726" lon="-3.154183">
        <ele>16.6</ele>
        <time>2020-08-13T04:44:39Z</time>
      </trkpt>
      <trkpt lat="47.639954" lon="-3.154427">
        <ele>16.6</ele>
        <time>2020-08-13T04:44:42Z</time>
      </trkpt>
      <trkpt lat="47.640314" lon="-3.154769">
        <ele>17.2</ele>
        <time>2020-08-13T04:44:47Z</time>
      </trkpt>
      <trkpt lat="47.640639" lon="-3.155028">
        <ele>16.2</ele>
        <time>2020-08-13T04:44:50Z</time>
      </trkpt>
      <trkpt lat="47.641008" lon="-3.15521">
        <ele>17.4</ele>
        <time>2020-08-13T04:44:54Z</time>
      </trkpt>
      <trkpt lat="47.641511" lon="-3.155344">
        <ele>17.4</ele>
        <time>2020-08-13T04:45:00Z</time>
      </trkpt>
      <trkpt lat="47.641656" lon="-3.155346">
        <ele>17.4</ele>
        <time>2020-08-13T04:45:01Z</time>
      </trkpt>
      <trkpt lat="47.64231" lon="-3.155274">
        <ele>17.8</ele>
        <time>2020-08-13T04:45:08Z</time>
      </trkpt>
      <trkpt lat="47.64253" lon="-3.155365">
        <ele>18.0</ele>
        <time>2020-08-13T04:45:10Z</time>
      </trkpt>
      <trkpt lat="47.642641" lon="-3.155447">
        <ele>18.0</ele>
        <time>2020-08-13T04:45:11Z</time>
      </trkpt>
      <trkpt lat="47.643994" lon="-3.156906">
        <ele>16.4</ele>
        <time>2020-08-13T04:45:29Z</time>
      </trkpt>
      <trkpt lat="47.645036" lon="-3.157988">
        <ele>18.2</ele>
        <time>2020-08-13T04:45:42Z</time>
      </trkpt>
      <trkpt lat="47.645189" lon="-3.158187">
        <ele>18.2</ele>
        <time>2020-08-13T04:45:44Z</time>
      </trkpt>
      <trkpt lat="47.645418" lon="-3.158431">
        <ele>17.6</ele>
        <time>2020-08-13T04:45:46Z</time>
      </trkpt>
      <trkpt lat="47.645608" lon="-3.158597">
        <ele>17.6</ele>
        <time>2020-08-13T04:45:49Z</time>
      </trkpt>
      <trkpt lat="47.645842" lon="-3.158875">
        <ele>18.4</ele>
        <time>2020-08-13T04:45:52Z</time>
      </trkpt>
      <trkpt lat="47.646309" lon="-3.159367">
        <ele>18.0</ele>
        <time>2020-08-13T04:45:58Z</time>
      </trkpt>
      <trkpt lat="47.646326" lon="-3.15934">
        <ele>18.0</ele>
        <time>2020-08-13T04:45:58Z</time>
      </trkpt>
      <trkpt lat="47.646397" lon="-3.159327">
        <ele>18.0</ele>
        <time>2020-08-13T04:45:59Z</time>
      </trkpt>
      <trkpt lat="47.646416" lon="-3.159342">
        <ele>18.0</ele>
        <time>2020-08-13T04:45:59Z</time>
      </trkpt>
      <trkpt lat="47.646433" lon="-3.159374">
        <ele>18.0</ele>
        <time>2020-08-13T04:45:59Z</time>
      </trkpt>
      <trkpt lat="47.646423" lon="-3.159505">
        <ele>18.0</ele>
        <time>2020-08-13T04:46:00Z</time>
      </trkpt>
      <trkpt lat="47.646479" lon="-3.159564">
        <ele>18.0</ele>
        <time>2020-08-13T04:46:01Z</time>
      </trkpt>
      <trkpt lat="47.646497" lon="-3.159537">
        <ele>18.0</ele>
        <time>2020-08-13T04:46:01Z</time>
      </trkpt>
      <trkpt lat="47.646567" lon="-3.159523">
        <ele>18.0</ele>
        <time>2020-08-13T04:46:02Z</time>
      </trkpt>
      <trkpt lat="47.646603" lon="-3.159571">
        <ele>18.0</ele>
        <time>2020-08-13T04:46:02Z</time>
      </trkpt>
      <trkpt lat="47.646611" lon="-3.159641">
        <ele>18.0</ele>
        <time>2020-08-13T04:46:03Z</time>
      </trkpt>
      <trkpt lat="47.6466" lon="-3.159687">
        <ele>18.0</ele>
        <time>2020-08-13T04:46:03Z</time>
      </trkpt>
      <trkpt lat="47.647418" lon="-3.16057">
        <ele>17.8</ele>
        <time>2020-08-13T04:46:14Z</time>
      </trkpt>
      <trkpt lat="47.649011" lon="-3.162222">
        <ele>15.4</ele>
        <time>2020-08-13T04:46:33Z</time>
      </trkpt>
      <trkpt lat="47.654655" lon="-3.168161">
        <ele>10.2</ele>
        <time>2020-08-13T04:47:44Z</time>
      </trkpt>
      <trkpt lat="47.655582" lon="-3.169084">
        <ele>10.6</ele>
        <time>2020-08-13T04:47:56Z</time>
      </trkpt>
      <trkpt lat="47.655821" lon="-3.169394">
        <ele>11.8</ele>
        <time>2020-08-13T04:47:59Z</time>
      </trkpt>
      <trkpt lat="47.656532" lon="-3.169977">
        <ele>9.6</ele>
        <time>2020-08-13T04:48:07Z</time>
      </trkpt>
      <trkpt lat="47.657189" lon="-3.170461">
        <ele>8.8</ele>
        <time>2020-08-13T04:48:15Z</time>
      </trkpt>
      <trkpt lat="47.660229" lon="-3.172828">
        <ele>9.8</ele>
        <time>2020-08-13T04:48:50Z</time>
      </trkpt>
      <trkpt lat="47.660607" lon="-3.173177">
        <ele>9.8</ele>
        <time>2020-08-13T04:48:54Z</time>
      </trkpt>
      <trkpt lat="47.663722" lon="-3.176603">
        <ele>11.6</ele>
        <time>2020-08-13T04:49:34Z</time>
      </trkpt>
      <trkpt lat="47.665877" lon="-3.179008">
        <ele>13.4</ele>
        <time>2020-08-13T04:50:02Z</time>
      </trkpt>
      <trkpt lat="47.666114" lon="-3.179174">
        <ele>12.6</ele>
        <time>2020-08-13T04:50:04Z</time>
      </trkpt>
      <trkpt lat="47.666146" lon="-3.179163">
        <ele>13.4</ele>
        <time>2020-08-13T04:50:05Z</time>
      </trkpt>
      <trkpt lat="47.666207" lon="-3.179191">
        <ele>12.6</ele>
        <time>2020-08-13T04:50:05Z</time>
      </trkpt>
      <trkpt lat="47.66624" lon="-3.179267">
        <ele>12.6</ele>
        <time>2020-08-13T04:50:05Z</time>
      </trkpt>
      <trkpt lat="47.666241" lon="-3.179335">
        <ele>12.6</ele>
        <time>2020-08-13T04:50:05Z</time>
      </trkpt>
      <trkpt lat="47.666479" lon="-3.179649">
        <ele>12.6</ele>
        <time>2020-08-13T04:50:07Z</time>
      </trkpt>
      <trkpt lat="47.669155" lon="-3.18264">
        <ele>11.8</ele>
        <time>2020-08-13T04:50:25Z</time>
      </trkpt>
      <trkpt lat="47.670058" lon="-3.183626">
        <ele>10.2</ele>
        <time>2020-08-13T04:50:31Z</time>
      </trkpt>
      <trkpt lat="47.67046" lon="-3.184143">
        <ele>10.2</ele>
        <time>2020-08-13T04:50:34Z</time>
      </trkpt>
      <trkpt lat="47.670752" lon="-3.184568">
        <ele>9.8</ele>
        <time>2020-08-13T04:50:36Z</time>
      </trkpt>
      <trkpt lat="47.670809" lon="-3.184592">
        <ele>9.8</ele>
        <time>2020-08-13T04:50:36Z</time>
      </trkpt>
      <trkpt lat="47.670832" lon="-3.184622">
        <ele>9.8</ele>
        <time>2020-08-13T04:50:36Z</time>
      </trkpt>
      <trkpt lat="47.670845" lon="-3.184657">
        <ele>10.0</ele>
        <time>2020-08-13T04:50:37Z</time>
      </trkpt>
      <trkpt lat="47.670842" lon="-3.184775">
        <ele>10.0</ele>
        <time>2020-08-13T04:50:37Z</time>
      </trkpt>
      <trkpt lat="47.670826" lon="-3.184808">
        <ele>9.8</ele>
        <time>2020-08-13T04:50:37Z</time>
      </trkpt>
      <trkpt lat="47.671751" lon="-3.186956">
        <ele>7.2</ele>
        <time>2020-08-13T04:50:50Z</time>
      </trkpt>
      <trkpt lat="47.672897" lon="-3.18946">
        <ele>12.4</ele>
        <time>2020-08-13T04:51:05Z</time>
      </trkpt>
      <trkpt lat="47.674025" lon="-3.192012">
        <ele>12.2</ele>
        <time>2020-08-13T04:51:19Z</time>
      </trkpt>
      <trkpt lat="47.674188" lon="-3.192423">
        <ele>12.2</ele>
        <time>2020-08-13T04:51:22Z</time>
      </trkpt>
      <trkpt lat="47.674981" lon="-3.194127">
        <ele>11.4</ele>
        <time>2020-08-13T04:51:32Z</time>
      </trkpt>
      <trkpt lat="47.67555" lon="-3.195401">
        <ele>9.4</ele>
        <time>2020-08-13T04:51:39Z</time>
      </trkpt>
      <trkpt lat="47.67564" lon="-3.195518">
        <ele>9.4</ele>
        <time>2020-08-13T04:51:40Z</time>
      </trkpt>
      <trkpt lat="47.675689" lon="-3.19555">
        <ele>9.4</ele>
        <time>2020-08-13T04:51:41Z</time>
      </trkpt>
      <trkpt lat="47.675762" lon="-3.19551">
        <ele>9.4</ele>
        <time>2020-08-13T04:51:41Z</time>
      </trkpt>
      <trkpt lat="47.675794" lon="-3.19552">
        <ele>9.4</ele>
        <time>2020-08-13T04:51:42Z</time>
      </trkpt>
      <trkpt lat="47.675822" lon="-3.195545">
        <ele>9.4</ele>
        <time>2020-08-13T04:51:42Z</time>
      </trkpt>
      <trkpt lat="47.675856" lon="-3.19562">
        <ele>7.4</ele>
        <time>2020-08-13T04:51:43Z</time>
      </trkpt>
      <trkpt lat="47.675854" lon="-3.19571">
        <ele>7.4</ele>
        <time>2020-08-13T04:51:44Z</time>
      </trkpt>
      <trkpt lat="47.67584" lon="-3.19575">
        <ele>7.4</ele>
        <time>2020-08-13T04:51:44Z</time>
      </trkpt>
      <trkpt lat="47.675791" lon="-3.195803">
        <ele>9.4</ele>
        <time>2020-08-13T04:51:45Z</time>
      </trkpt>
      <trkpt lat="47.67584" lon="-3.19607">
        <ele>6.0</ele>
        <time>2020-08-13T04:51:47Z</time>
      </trkpt>
      <trkpt lat="47.67587" lon="-3.201504">
        <ele>0.0</ele>
        <time>2020-08-13T04:52:30Z</time>
      </trkpt>
      <trkpt lat="47.6759" lon="-3.202017">
        <ele>0.0</ele>
        <time>2020-08-13T04:52:34Z</time>
      </trkpt>
      <trkpt lat="47.675956" lon="-3.202285">
        <ele>0.0</ele>
        <time>2020-08-13T04:52:36Z</time>
      </trkpt>
      <trkpt lat="47.676255" lon="-3.202763">
        <ele>0.0</ele>
        <time>2020-08-13T04:52:41Z</time>
      </trkpt>
      <trkpt lat="47.681447" lon="-3.209618">
        <ele>9.6</ele>
        <time>2020-08-13T04:54:03Z</time>
      </trkpt>
      <trkpt lat="47.68172" lon="-3.210104">
        <ele>7.0</ele>
        <time>2020-08-13T04:54:08Z</time>
      </trkpt>
      <trkpt lat="47.681785" lon="-3.210083">
        <ele>7.0</ele>
        <time>2020-08-13T04:54:08Z</time>
      </trkpt>
      <trkpt lat="47.68185" lon="-3.210108">
        <ele>7.0</ele>
        <time>2020-08-13T04:54:09Z</time>
      </trkpt>
      <trkpt lat="47.681924" lon="-3.210188">
        <ele>7.0</ele>
        <time>2020-08-13T04:54:09Z</time>
      </trkpt>
      <trkpt lat="47.68196" lon="-3.210248">
        <ele>7.0</ele>
        <time>2020-08-13T04:54:10Z</time>
      </trkpt>
      <trkpt lat="47.681963" lon="-3.210334">
        <ele>7.0</ele>
        <time>2020-08-13T04:54:10Z</time>
      </trkpt>
      <trkpt lat="47.681947" lon="-3.210376">
        <ele>7.0</ele>
        <time>2020-08-13T04:54:10Z</time>
      </trkpt>
      <trkpt lat="47.682727" lon="-3.211334">
        <ele>6.4</ele>
        <time>2020-08-13T04:54:16Z</time>
      </trkpt>
      <trkpt lat="47.683039" lon="-3.211885">
        <ele>7.8</ele>
        <time>2020-08-13T04:54:18Z</time>
      </trkpt>
      <trkpt lat="47.68339" lon="-3.212744">
        <ele>7.6</ele>
        <time>2020-08-13T04:54:22Z</time>
      </trkpt>
      <trkpt lat="47.683612" lon="-3.213143">
        <ele>7.6</ele>
        <time>2020-08-13T04:54:24Z</time>
      </trkpt>
      <trkpt lat="47.683972" lon="-3.213643">
        <ele>9.4</ele>
        <time>2020-08-13T04:54:27Z</time>
      </trkpt>
      <trkpt lat="47.684345" lon="-3.213945">
        <ele>8.4</ele>
        <time>2020-08-13T04:54:29Z</time>
      </trkpt>
      <trkpt lat="47.684412" lon="-3.213915">
        <ele>8.4</ele>
        <time>2020-08-13T04:54:30Z</time>
      </trkpt>
      <trkpt lat="47.684481" lon="-3.213913">
        <ele>8.4</ele>
        <time>2020-08-13T04:54:30Z</time>
      </trkpt>
      <trkpt lat="47.684606" lon="-3.213983">
        <ele>8.4</ele>
        <time>2020-08-13T04:54:31Z</time>
      </trkpt>
      <trkpt lat="47.68469" lon="-3.214134">
        <ele>8.4</ele>
        <time>2020-08-13T04:54:31Z</time>
      </trkpt>
      <trkpt lat="47.684713" lon="-3.214331">
        <ele>10.2</ele>
        <time>2020-08-13T04:54:32Z</time>
      </trkpt>
      <trkpt lat="47.684699" lon="-3.21443">
        <ele>10.2</ele>
        <time>2020-08-13T04:54:32Z</time>
      </trkpt>
      <trkpt lat="47.684664" lon="-3.214527">
        <ele>10.2</ele>
        <time>2020-08-13T04:54:33Z</time>
      </trkpt>
      <trkpt lat="47.684613" lon="-3.214605">
        <ele>10.2</ele>
        <time>2020-08-13T04:54:33Z</time>
      </trkpt>
      <trkpt lat="47.684549" lon="-3.214659">
        <ele>10.2</ele>
        <time>2020-08-13T04:54:33Z</time>
      </trkpt>
      <trkpt lat="47.684357" lon="-3.215106">
        <ele>11.6</ele>
        <time>2020-08-13T04:54:35Z</time>
      </trkpt>
      <trkpt lat="47.684363" lon="-3.2153">
        <ele>11.6</ele>
        <time>2020-08-13T04:54:36Z</time>
      </trkpt>
      <trkpt lat="47.684395" lon="-3.215505">
        <ele>11.6</ele>
        <time>2020-08-13T04:54:37Z</time>
      </trkpt>
      <trkpt lat="47.687042" lon="-3.222692">
        <ele>7.6</ele>
        <time>2020-08-13T04:55:16Z</time>
      </trkpt>
      <trkpt lat="47.69149" lon="-3.234918">
        <ele>6.6</ele>
        <time>2020-08-13T04:56:21Z</time>
      </trkpt>
      <trkpt lat="47.692084" lon="-3.236531">
        <ele>6.0</ele>
        <time>2020-08-13T04:56:29Z</time>
      </trkpt>
      <trkpt lat="47.692721" lon="-3.238184">
        <ele>6.8</ele>
        <time>2020-08-13T04:56:38Z</time>
      </trkpt>
      <trkpt lat="47.693109" lon="-3.239289">
        <ele>10.0</ele>
        <time>2020-08-13T04:56:44Z</time>
      </trkpt>
      <trkpt lat="47.69571" lon="-3.246351">
        <ele>13.8</ele>
        <time>2020-08-13T04:57:22Z</time>
      </trkpt>
      <trkpt lat="47.696122" lon="-3.247571">
        <ele>15.0</ele>
        <time>2020-08-13T04:57:28Z</time>
      </trkpt>
      <trkpt lat="47.696441" lon="-3.248359">
        <ele>15.4</ele>
        <time>2020-08-13T04:57:32Z</time>
      </trkpt>
      <trkpt lat="47.696568" lon="-3.248734">
        <ele>15.4</ele>
        <time>2020-08-13T04:57:34Z</time>
      </trkpt>
      <trkpt lat="47.696702" lon="-3.249377">
        <ele>16.8</ele>
        <time>2020-08-13T04:57:37Z</time>
      </trkpt>
      <trkpt lat="47.6968" lon="-3.250316">
        <ele>18.8</ele>
        <time>2020-08-13T04:57:42Z</time>
      </trkpt>
      <trkpt lat="47.69687" lon="-3.25061">
        <ele>18.8</ele>
        <time>2020-08-13T04:57:43Z</time>
      </trkpt>
      <trkpt lat="47.696986" lon="-3.250872">
        <ele>20.6</ele>
        <time>2020-08-13T04:57:45Z</time>
      </trkpt>
      <trkpt lat="47.697014" lon="-3.251009">
        <ele>20.6</ele>
        <time>2020-08-13T04:57:45Z</time>
      </trkpt>
      <trkpt lat="47.697054" lon="-3.251479">
        <ele>20.6</ele>
        <time>2020-08-13T04:57:48Z</time>
      </trkpt>
      <trkpt lat="47.69712" lon="-3.251546">
        <ele>20.6</ele>
        <time>2020-08-13T04:57:48Z</time>
      </trkpt>
      <trkpt lat="47.697443" lon="-3.251626">
        <ele>20.6</ele>
        <time>2020-08-13T04:57:50Z</time>
      </trkpt>
      <trkpt lat="47.698067" lon="-3.253262">
        <ele>20.8</ele>
        <time>2020-08-13T04:57:59Z</time>
      </trkpt>
      <trkpt lat="47.700658" lon="-3.25709">
        <ele>20.8</ele>
        <time>2020-08-13T04:58:25Z</time>
      </trkpt>
      <trkpt lat="47.700737" lon="-3.257392">
        <ele>20.8</ele>
        <time>2020-08-13T04:58:26Z</time>
      </trkpt>
      <trkpt lat="47.700798" lon="-3.257412">
        <ele>20.8</ele>
        <time>2020-08-13T04:58:26Z</time>
      </trkpt>
      <trkpt lat="47.700811" lon="-3.257497">
        <ele>20.8</ele>
        <time>2020-08-13T04:58:27Z</time>
      </trkpt>
      <trkpt lat="47.701004" lon="-3.257665">
        <ele>22.6</ele>
        <time>2020-08-13T04:58:28Z</time>
      </trkpt>
      <trkpt lat="47.701387" lon="-3.258222">
        <ele>22.6</ele>
        <time>2020-08-13T04:58:31Z</time>
      </trkpt>
      <trkpt lat="47.702149" lon="-3.259647">
        <ele>19.4</ele>
        <time>2020-08-13T04:58:38Z</time>
      </trkpt>
      <trkpt lat="47.70268" lon="-3.260431">
        <ele>18.2</ele>
        <time>2020-08-13T04:58:43Z</time>
      </trkpt>
      <trkpt lat="47.7038" lon="-3.262204">
        <ele>20.8</ele>
        <time>2020-08-13T04:58:52Z</time>
      </trkpt>
      <trkpt lat="47.70488" lon="-3.264138">
        <ele>20.8</ele>
        <time>2020-08-13T04:59:02Z</time>
      </trkpt>
      <trkpt lat="47.706216" lon="-3.266478">
        <ele>22.2</ele>
        <time>2020-08-13T04:59:14Z</time>
      </trkpt>
      <trkpt lat="47.707764" lon="-3.270508">
        <ele>23.6</ele>
        <time>2020-08-13T04:59:33Z</time>
      </trkpt>
      <trkpt lat="47.708332" lon="-3.272713">
        <ele>17.0</ele>
        <time>2020-08-13T04:59:42Z</time>
      </trkpt>
      <trkpt lat="47.708419" lon="-3.272701">
        <ele>16.4</ele>
        <time>2020-08-13T04:59:42Z</time>
      </trkpt>
      <trkpt lat="47.71027" lon="-3.27276">
        <ele>19.2</ele>
        <time>2020-08-13T04:59:55Z</time>
      </trkpt>
      <trkpt lat="47.710609" lon="-3.272853">
        <ele>19.2</ele>
        <time>2020-08-13T04:59:57Z</time>
      </trkpt>
      <trkpt lat="47.711097" lon="-3.273028">
        <ele>20.4</ele>
        <time>2020-08-13T05:00:00Z</time>
      </trkpt>
      <trkpt lat="47.711412" lon="-3.273097">
        <ele>20.4</ele>
        <time>2020-08-13T05:00:02Z</time>
      </trkpt>
      <trkpt lat="47.711882" lon="-3.272985">
        <ele>21.0</ele>
        <time>2020-08-13T05:00:05Z</time>
      </trkpt>
      <trkpt lat="47.712536" lon="-3.272713">
        <ele>21.8</ele>
        <time>2020-08-13T05:00:10Z</time>
      </trkpt>
      <trkpt lat="47.712868" lon="-3.272613">
        <ele>21.8</ele>
        <time>2020-08-13T05:00:12Z</time>
      </trkpt>
      <trkpt lat="47.713223" lon="-3.272674">
        <ele>21.8</ele>
        <time>2020-08-13T05:00:15Z</time>
      </trkpt>
      <trkpt lat="47.715968" lon="-3.273459">
        <ele>21.0</ele>
        <time>2020-08-13T05:00:33Z</time>
      </trkpt>
      <trkpt lat="47.716104" lon="-3.27352">
        <ele>21.0</ele>
        <time>2020-08-13T05:00:34Z</time>
      </trkpt>
      <trkpt lat="47.718336" lon="-3.275251">
        <ele>25.4</ele>
        <time>2020-08-13T05:00:50Z</time>
      </trkpt>
      <trkpt lat="47.720052" lon="-3.276518">
        <ele>26.8</ele>
        <time>2020-08-13T05:01:03Z</time>
      </trkpt>
      <trkpt lat="47.720366" lon="-3.276819">
        <ele>27.6</ele>
        <time>2020-08-13T05:01:05Z</time>
      </trkpt>
      <trkpt lat="47.720108" lon="-3.277432">
        <ele>27.6</ele>
        <time>2020-08-13T05:01:09Z</time>
      </trkpt>
      <trkpt lat="47.718167" lon="-3.28598">
        <ele>30.0</ele>
        <time>2020-08-13T05:01:56Z</time>
      </trkpt>
      <trkpt lat="47.717505" lon="-3.291033">
        <ele>23.8</ele>
        <time>2020-08-13T05:02:22Z</time>
      </trkpt>
      <trkpt lat="47.716452" lon="-3.300583">
        <ele>13.2</ele>
        <time>2020-08-13T05:03:12Z</time>
      </trkpt>
      <trkpt lat="47.716111" lon="-3.302056">
        <ele>11.2</ele>
        <time>2020-08-13T05:03:20Z</time>
      </trkpt>
      <trkpt lat="47.715002" lon="-3.306371">
        <ele>6.0</ele>
        <time>2020-08-13T05:03:44Z</time>
      </trkpt>
      <trkpt lat="47.714834" lon="-3.307076">
        <ele>5.6</ele>
        <time>2020-08-13T05:03:48Z</time>
      </trkpt>
      <trkpt lat="47.714795" lon="-3.307388">
        <ele>5.6</ele>
        <time>2020-08-13T05:03:50Z</time>
      </trkpt>
      <trkpt lat="47.714819" lon="-3.310396">
        <ele>8.4</ele>
        <time>2020-08-13T05:04:05Z</time>
      </trkpt>
      <trkpt lat="47.714806" lon="-3.310905">
        <ele>9.0</ele>
        <time>2020-08-13T05:04:08Z</time>
      </trkpt>
      <trkpt lat="47.714687" lon="-3.312172">
        <ele>9.2</ele>
        <time>2020-08-13T05:04:15Z</time>
      </trkpt>
      <trkpt lat="47.714495" lon="-3.313255">
        <ele>8.6</ele>
        <time>2020-08-13T05:04:20Z</time>
      </trkpt>
      <trkpt lat="47.714247" lon="-3.314396">
        <ele>8.4</ele>
        <time>2020-08-13T05:04:27Z</time>
      </trkpt>
      <trkpt lat="47.712514" lon="-3.321872">
        <ele>7.4</ele>
        <time>2020-08-13T05:05:07Z</time>
      </trkpt>
      <trkpt lat="47.712041" lon="-3.323286">
        <ele>4.6</ele>
        <time>2020-08-13T05:05:16Z</time>
      </trkpt>
      <trkpt lat="47.711919" lon="-3.323612">
        <ele>4.0</ele>
        <time>2020-08-13T05:05:17Z</time>
      </trkpt>
      <trkpt lat="47.711621" lon="-3.324569">
        <ele>3.4</ele>
        <time>2020-08-13T05:05:23Z</time>
      </trkpt>
      <trkpt lat="47.711178" lon="-3.325839">
        <ele>4.2</ele>
        <time>2020-08-13T05:05:30Z</time>
      </trkpt>
      <trkpt lat="47.710602" lon="-3.327572">
        <ele>6.6</ele>
        <time>2020-08-13T05:05:40Z</time>
      </trkpt>
      <trkpt lat="47.71025" lon="-3.328967">
        <ele>6.8</ele>
        <time>2020-08-13T05:05:48Z</time>
      </trkpt>
      <trkpt lat="47.709983" lon="-3.329514">
        <ele>7.2</ele>
        <time>2020-08-13T05:05:52Z</time>
      </trkpt>
      <trkpt lat="47.709844" lon="-3.32975">
        <ele>7.2</ele>
        <time>2020-08-13T05:05:53Z</time>
      </trkpt>
      <trkpt lat="47.709768" lon="-3.329926">
        <ele>7.2</ele>
        <time>2020-08-13T05:05:54Z</time>
      </trkpt>
      <trkpt lat="47.709736" lon="-3.330123">
        <ele>6.2</ele>
        <time>2020-08-13T05:05:55Z</time>
      </trkpt>
      <trkpt lat="47.709697" lon="-3.331424">
        <ele>5.2</ele>
        <time>2020-08-13T05:06:02Z</time>
      </trkpt>
      <trkpt lat="47.709742" lon="-3.331642">
        <ele>5.2</ele>
        <time>2020-08-13T05:06:03Z</time>
      </trkpt>
      <trkpt lat="47.709791" lon="-3.331671">
        <ele>5.2</ele>
        <time>2020-08-13T05:06:04Z</time>
      </trkpt>
      <trkpt lat="47.709802" lon="-3.331723">
        <ele>5.2</ele>
        <time>2020-08-13T05:06:04Z</time>
      </trkpt>
      <trkpt lat="47.709789" lon="-3.331774">
        <ele>5.2</ele>
        <time>2020-08-13T05:06:05Z</time>
      </trkpt>
      <trkpt lat="47.709738" lon="-3.331798">
        <ele>5.2</ele>
        <time>2020-08-13T05:06:05Z</time>
      </trkpt>
      <trkpt lat="47.709721" lon="-3.331788">
        <ele>5.2</ele>
        <time>2020-08-13T05:06:06Z</time>
      </trkpt>
      <trkpt lat="47.70971" lon="-3.331868">
        <ele>5.2</ele>
        <time>2020-08-13T05:06:06Z</time>
      </trkpt>
      <trkpt lat="47.709676" lon="-3.332254">
        <ele>5.2</ele>
        <time>2020-08-13T05:06:09Z</time>
      </trkpt>
      <trkpt lat="47.709645" lon="-3.333015">
        <ele>5.8</ele>
        <time>2020-08-13T05:06:15Z</time>
      </trkpt>
      <trkpt lat="47.709528" lon="-3.334786">
        <ele>7.2</ele>
        <time>2020-08-13T05:06:30Z</time>
      </trkpt>
      <trkpt lat="47.709482" lon="-3.335191">
        <ele>8.8</ele>
        <time>2020-08-13T05:06:33Z</time>
      </trkpt>
      <trkpt lat="47.709178" lon="-3.337125">
        <ele>9.8</ele>
        <time>2020-08-13T05:06:49Z</time>
      </trkpt>
      <trkpt lat="47.708889" lon="-3.339111">
        <ele>5.0</ele>
        <time>2020-08-13T05:07:05Z</time>
      </trkpt>
      <trkpt lat="47.708938" lon="-3.341207">
        <ele>0.0</ele>
        <time>2020-08-13T05:07:22Z</time>
      </trkpt>
      <trkpt lat="47.708843" lon="-3.341928">
        <ele>0.0</ele>
        <time>2020-08-13T05:07:27Z</time>
      </trkpt>
      <trkpt lat="47.708831" lon="-3.34221">
        <ele>0.0</ele>
        <time>2020-08-13T05:07:30Z</time>
      </trkpt>
      <trkpt lat="47.708863" lon="-3.342588">
        <ele>4.67</ele>
        <time>2020-08-13T05:07:33Z</time>
      </trkpt>
      <trkpt lat="47.708936" lon="-3.342633">
        <ele>4.66</ele>
        <time>2020-08-13T05:07:33Z</time>
      </trkpt>
      <trkpt lat="47.708948" lon="-3.34268">
        <ele>4.66</ele>
        <time>2020-08-13T05:07:34Z</time>
      </trkpt>
      <trkpt lat="47.708946" lon="-3.342754">
        <ele>4.67</ele>
        <time>2020-08-13T05:07:34Z</time>
      </trkpt>
      <trkpt lat="47.708916" lon="-3.342803">
        <ele>4.66</ele>
        <time>2020-08-13T05:07:35Z</time>
      </trkpt>
      <trkpt lat="47.708856" lon="-3.342821">
        <ele>4.66</ele>
        <time>2020-08-13T05:07:35Z</time>
      </trkpt>
      <trkpt lat="47.70881" lon="-3.342778">
        <ele>4.66</ele>
        <time>2020-08-13T05:07:35Z</time>
      </trkpt>
      <trkpt lat="47.708794" lon="-3.342692">
        <ele>4.66</ele>
        <time>2020-08-13T05:07:36Z</time>
      </trkpt>
      <trkpt lat="47.708801" lon="-3.342649">
        <ele>4.66</ele>
        <time>2020-08-13T05:07:36Z</time>
      </trkpt>
      <trkpt lat="47.708839" lon="-3.342599">
        <ele>4.67</ele>
        <time>2020-08-13T05:07:37Z</time>
      </trkpt>
      <trkpt lat="47.708839" lon="-3.342599">
        <ele>4.67</ele>
        <time>2020-08-13T05:07:37Z</time>
      </trkpt>
      <trkpt lat="47.708894" lon="-3.342594">
        <ele>4.66</ele>
        <time>2020-08-13T05:07:37Z</time>
      </trkpt>
      <trkpt lat="47.708936" lon="-3.342633">
        <ele>4.66</ele>
        <time>2020-08-13T05:07:38Z</time>
      </trkpt>
      <trkpt lat="47.708946" lon="-3.342754">
        <ele>4.67</ele>
        <time>2020-08-13T05:07:39Z</time>
      </trkpt>
      <trkpt lat="47.708916" lon="-3.342803">
        <ele>4.66</ele>
        <time>2020-08-13T05:07:39Z</time>
      </trkpt>
      <trkpt lat="47.708856" lon="-3.342821">
        <ele>4.66</ele>
        <time>2020-08-13T05:07:40Z</time>
      </trkpt>
      <trkpt lat="47.708829" lon="-3.342808">
        <ele>4.67</ele>
        <time>2020-08-13T05:07:40Z</time>
      </trkpt>
      <trkpt lat="47.708704" lon="-3.343088">
        <ele>4.66</ele>
        <time>2020-08-13T05:07:42Z</time>
      </trkpt>
      <trkpt lat="47.708638" lon="-3.343303">
        <ele>4.66</ele>
        <time>2020-08-13T05:07:44Z</time>
      </trkpt>
      <trkpt lat="47.708562" lon="-3.343785">
        <ele>4.5</ele>
        <time>2020-08-13T05:07:47Z</time>
      </trkpt>
      <trkpt lat="47.708603" lon="-3.344063">
        <ele>4.5</ele>
        <time>2020-08-13T05:07:49Z</time>
      </trkpt>
      <trkpt lat="47.708774" lon="-3.344629">
        <ele>4.4</ele>
        <time>2020-08-13T05:07:53Z</time>
      </trkpt>
      <trkpt lat="47.70946" lon="-3.345329">
        <ele>6.8</ele>
        <time>2020-08-13T05:08:02Z</time>
      </trkpt>
      <trkpt lat="47.709524" lon="-3.345414">
        <ele>6.8</ele>
        <time>2020-08-13T05:08:03Z</time>
      </trkpt>
      <trkpt lat="47.709618" lon="-3.345596">
        <ele>6.8</ele>
        <time>2020-08-13T05:08:04Z</time>
      </trkpt>
      <trkpt lat="47.709799" lon="-3.345246">
        <ele>6.8</ele>
        <time>2020-08-13T05:08:07Z</time>
      </trkpt>
      <trkpt lat="47.709978" lon="-3.34495">
        <ele>6.8</ele>
        <time>2020-08-13T05:08:10Z</time>
      </trkpt>
      <trkpt lat="47.710114" lon="-3.344763">
        <ele>9.0</ele>
        <time>2020-08-13T05:08:12Z</time>
      </trkpt>
      <trkpt lat="47.71022" lon="-3.344673">
        <ele>9.0</ele>
        <time>2020-08-13T05:08:13Z</time>
      </trkpt>
      <trkpt lat="47.711176" lon="-3.344098">
        <ele>10.8</ele>
        <time>2020-08-13T05:08:24Z</time>
      </trkpt>
      <trkpt lat="47.711678" lon="-3.343735">
        <ele>12.2</ele>
        <time>2020-08-13T05:08:30Z</time>
      </trkpt>
      <trkpt lat="47.71189" lon="-3.343603">
        <ele>12.2</ele>
        <time>2020-08-13T05:08:32Z</time>
      </trkpt>
      <trkpt lat="47.712648" lon="-3.343148">
        <ele>10.8</ele>
        <time>2020-08-13T05:08:40Z</time>
      </trkpt>
      <trkpt lat="47.713175" lon="-3.342882">
        <ele>10.8</ele>
        <time>2020-08-13T05:08:46Z</time>
      </trkpt>
      <trkpt lat="47.713593" lon="-3.342566">
        <ele>8.4</ele>
        <time>2020-08-13T05:08:51Z</time>
      </trkpt>
      <trkpt lat="47.714125" lon="-3.3421">
        <ele>9.8</ele>
        <time>2020-08-13T05:08:57Z</time>
      </trkpt>
      <trkpt lat="47.714489" lon="-3.341717">
        <ele>7.8</ele>
        <time>2020-08-13T05:09:02Z</time>
      </trkpt>
      <trkpt lat="47.714707" lon="-3.341434">
        <ele>8.4</ele>
        <time>2020-08-13T05:09:05Z</time>
      </trkpt>
      <trkpt lat="47.715291" lon="-3.340625">
        <ele>7.2</ele>
        <time>2020-08-13T05:09:13Z</time>
      </trkpt>
      <trkpt lat="47.715611" lon="-3.340051">
        <ele>7.2</ele>
        <time>2020-08-13T05:09:18Z</time>
      </trkpt>
      <trkpt lat="47.715598" lon="-3.339987">
        <ele>8.2</ele>
        <time>2020-08-13T05:09:19Z</time>
      </trkpt>
      <trkpt lat="47.715628" lon="-3.339911">
        <ele>8.2</ele>
        <time>2020-08-13T05:09:19Z</time>
      </trkpt>
      <trkpt lat="47.715667" lon="-3.339896">
        <ele>8.2</ele>
        <time>2020-08-13T05:09:20Z</time>
      </trkpt>
      <trkpt lat="47.715704" lon="-3.339918">
        <ele>8.2</ele>
        <time>2020-08-13T05:09:20Z</time>
      </trkpt>
      <trkpt lat="47.715812" lon="-3.339824">
        <ele>8.2</ele>
        <time>2020-08-13T05:09:21Z</time>
      </trkpt>
      <trkpt lat="47.716247" lon="-3.339295">
        <ele>5.6</ele>
        <time>2020-08-13T05:09:27Z</time>
      </trkpt>
      <trkpt lat="47.716985" lon="-3.338316">
        <ele>8.4</ele>
        <time>2020-08-13T05:09:37Z</time>
      </trkpt>
      <trkpt lat="47.717393" lon="-3.337695">
        <ele>8.4</ele>
        <time>2020-08-13T05:09:43Z</time>
      </trkpt>
      <trkpt lat="47.71778" lon="-3.336988">
        <ele>12.8</ele>
        <time>2020-08-13T05:09:49Z</time>
      </trkpt>
      <trkpt lat="47.717947" lon="-3.336733">
        <ele>12.8</ele>
        <time>2020-08-13T05:09:52Z</time>
      </trkpt>
      <trkpt lat="47.718223" lon="-3.336413">
        <ele>14.6</ele>
        <time>2020-08-13T05:09:55Z</time>
      </trkpt>
      <trkpt lat="47.719186" lon="-3.33571">
        <ele>14.0</ele>
        <time>2020-08-13T05:10:06Z</time>
      </trkpt>
      <trkpt lat="47.719383" lon="-3.335482">
        <ele>14.0</ele>
        <time>2020-08-13T05:10:09Z</time>
      </trkpt>
      <trkpt lat="47.719403" lon="-3.335397">
        <ele>14.0</ele>
        <time>2020-08-13T05:10:10Z</time>
      </trkpt>
      <trkpt lat="47.719439" lon="-3.335359">
        <ele>14.0</ele>
        <time>2020-08-13T05:10:10Z</time>
      </trkpt>
      <trkpt lat="47.719485" lon="-3.335352">
        <ele>14.0</ele>
        <time>2020-08-13T05:10:11Z</time>
      </trkpt>
      <trkpt lat="47.71953" lon="-3.335384">
        <ele>14.0</ele>
        <time>2020-08-13T05:10:11Z</time>
      </trkpt>
      <trkpt lat="47.719701" lon="-3.335327">
        <ele>14.0</ele>
        <time>2020-08-13T05:10:13Z</time>
      </trkpt>
      <trkpt lat="47.720432" lon="-3.334777">
        <ele>14.2</ele>
        <time>2020-08-13T05:10:21Z</time>
      </trkpt>
      <trkpt lat="47.720983" lon="-3.334293">
        <ele>15.2</ele>
        <time>2020-08-13T05:10:28Z</time>
      </trkpt>
      <trkpt lat="47.721514" lon="-3.333453">
        <ele>14.8</ele>
        <time>2020-08-13T05:10:36Z</time>
      </trkpt>
      <trkpt lat="47.721605" lon="-3.333127">
        <ele>14.6</ele>
        <time>2020-08-13T05:10:38Z</time>
      </trkpt>
      <trkpt lat="47.72163" lon="-3.333023">
        <ele>14.6</ele>
        <time>2020-08-13T05:10:39Z</time>
      </trkpt>
      <trkpt lat="47.721673" lon="-3.33297">
        <ele>15.2</ele>
        <time>2020-08-13T05:10:39Z</time>
      </trkpt>
      <trkpt lat="47.721765" lon="-3.33296">
        <ele>15.2</ele>
        <time>2020-08-13T05:10:40Z</time>
      </trkpt>
      <trkpt lat="47.72192" lon="-3.332885">
        <ele>15.2</ele>
        <time>2020-08-13T05:10:42Z</time>
      </trkpt>
      <trkpt lat="47.722837" lon="-3.331587">
        <ele>16.0</ele>
        <time>2020-08-13T05:10:55Z</time>
      </trkpt>
      <trkpt lat="47.722866" lon="-3.331522">
        <ele>16.0</ele>
        <time>2020-08-13T05:10:56Z</time>
      </trkpt>
      <trkpt lat="47.722889" lon="-3.331348">
        <ele>16.0</ele>
        <time>2020-08-13T05:10:57Z</time>
      </trkpt>
      <trkpt lat="47.722866" lon="-3.33129">
        <ele>16.0</ele>
        <time>2020-08-13T05:10:57Z</time>
      </trkpt>
      <trkpt lat="47.722863" lon="-3.331224">
        <ele>16.0</ele>
        <time>2020-08-13T05:10:58Z</time>
      </trkpt>
      <trkpt lat="47.722885" lon="-3.331142">
        <ele>16.0</ele>
        <time>2020-08-13T05:10:58Z</time>
      </trkpt>
      <trkpt lat="47.722964" lon="-3.331099">
        <ele>16.0</ele>
        <time>2020-08-13T05:10:59Z</time>
      </trkpt>
      <trkpt lat="47.723027" lon="-3.331131">
        <ele>16.0</ele>
        <time>2020-08-13T05:11:00Z</time>
      </trkpt>
      <trkpt lat="47.723132" lon="-3.331086">
        <ele>16.0</ele>
        <time>2020-08-13T05:11:01Z</time>
      </trkpt>
      <trkpt lat="47.723246" lon="-3.330995">
        <ele>16.0</ele>
        <time>2020-08-13T05:11:02Z</time>
      </trkpt>
      <trkpt lat="47.723397" lon="-3.330767">
        <ele>16.6</ele>
        <time>2020-08-13T05:11:05Z</time>
      </trkpt>
      <trkpt lat="47.723688" lon="-3.330036">
        <ele>16.6</ele>
        <time>2020-08-13T05:11:10Z</time>
      </trkpt>
      <trkpt lat="47.72384" lon="-3.329591">
        <ele>16.0</ele>
        <time>2020-08-13T05:11:14Z</time>
      </trkpt>
      <trkpt lat="47.724081" lon="-3.328746">
        <ele>16.4</ele>
        <time>2020-08-13T05:11:20Z</time>
      </trkpt>
      <trkpt lat="47.724747" lon="-3.326267">
        <ele>17.4</ele>
        <time>2020-08-13T05:11:38Z</time>
      </trkpt>
      <trkpt lat="47.725179" lon="-3.324596">
        <ele>15.6</ele>
        <time>2020-08-13T05:11:51Z</time>
      </trkpt>
      <trkpt lat="47.725246" lon="-3.323842">
        <ele>15.6</ele>
        <time>2020-08-13T05:11:56Z</time>
      </trkpt>
      <trkpt lat="47.725181" lon="-3.323728">
        <ele>15.6</ele>
        <time>2020-08-13T05:11:57Z</time>
      </trkpt>
      <trkpt lat="47.725145" lon="-3.323589">
        <ele>15.6</ele>
        <time>2020-08-13T05:11:58Z</time>
      </trkpt>
      <trkpt lat="47.725141" lon="-3.32344">
        <ele>15.6</ele>
        <time>2020-08-13T05:11:59Z</time>
      </trkpt>
      <trkpt lat="47.72518" lon="-3.323269">
        <ele>15.8</ele>
        <time>2020-08-13T05:12:00Z</time>
      </trkpt>
      <trkpt lat="47.725275" lon="-3.323118">
        <ele>15.8</ele>
        <time>2020-08-13T05:12:02Z</time>
      </trkpt>
      <trkpt lat="47.725347" lon="-3.323066">
        <ele>15.8</ele>
        <time>2020-08-13T05:12:03Z</time>
      </trkpt>
      <trkpt lat="47.725437" lon="-3.323043">
        <ele>15.8</ele>
        <time>2020-08-13T05:12:04Z</time>
      </trkpt>
      <trkpt lat="47.725527" lon="-3.323061">
        <ele>15.8</ele>
        <time>2020-08-13T05:12:04Z</time>
      </trkpt>
      <trkpt lat="47.725636" lon="-3.323145">
        <ele>15.8</ele>
        <time>2020-08-13T05:12:06Z</time>
      </trkpt>
      <trkpt lat="47.726008" lon="-3.322996">
        <ele>13.8</ele>
        <time>2020-08-13T05:12:10Z</time>
      </trkpt>
      <trkpt lat="47.726559" lon="-3.322478">
        <ele>14.6</ele>
        <time>2020-08-13T05:12:14Z</time>
      </trkpt>
      <trkpt lat="47.730008" lon="-3.319388">
        <ele>13.4</ele>
        <time>2020-08-13T05:12:41Z</time>
      </trkpt>
      <trkpt lat="47.730119" lon="-3.319214">
        <ele>13.4</ele>
        <time>2020-08-13T05:12:42Z</time>
      </trkpt>
      <trkpt lat="47.73081" lon="-3.31859">
        <ele>13.2</ele>
        <time>2020-08-13T05:12:48Z</time>
      </trkpt>
      <trkpt lat="47.731314" lon="-3.318152">
        <ele>14.8</ele>
        <time>2020-08-13T05:12:51Z</time>
      </trkpt>
      <trkpt lat="47.731443" lon="-3.318103">
        <ele>14.8</ele>
        <time>2020-08-13T05:12:52Z</time>
      </trkpt>
      <trkpt lat="47.731926" lon="-3.317581">
        <ele>15.6</ele>
        <time>2020-08-13T05:12:56Z</time>
      </trkpt>
      <trkpt lat="47.732459" lon="-3.31694">
        <ele>16.6</ele>
        <time>2020-08-13T05:13:01Z</time>
      </trkpt>
      <trkpt lat="47.73302" lon="-3.315691">
        <ele>17.4</ele>
        <time>2020-08-13T05:13:08Z</time>
      </trkpt>
      <trkpt lat="47.733428" lon="-3.314099">
        <ele>15.2</ele>
        <time>2020-08-13T05:13:15Z</time>
      </trkpt>
      <trkpt lat="47.734686" lon="-3.308741">
        <ele>8.6</ele>
        <time>2020-08-13T05:13:41Z</time>
      </trkpt>
      <trkpt lat="47.735136" lon="-3.307718">
        <ele>8.2</ele>
        <time>2020-08-13T05:13:47Z</time>
      </trkpt>
      <trkpt lat="47.7356" lon="-3.306995">
        <ele>9.0</ele>
        <time>2020-08-13T05:13:51Z</time>
      </trkpt>
      <trkpt lat="47.735916" lon="-3.306623">
        <ele>8.6</ele>
        <time>2020-08-13T05:13:54Z</time>
      </trkpt>
      <trkpt lat="47.738522" lon="-3.303945">
        <ele>14.2</ele>
        <time>2020-08-13T05:14:15Z</time>
      </trkpt>
      <trkpt lat="47.739919" lon="-3.302734">
        <ele>16.8</ele>
        <time>2020-08-13T05:14:26Z</time>
      </trkpt>
      <trkpt lat="47.739913" lon="-3.302644">
        <ele>16.8</ele>
        <time>2020-08-13T05:14:26Z</time>
      </trkpt>
      <trkpt lat="47.739946" lon="-3.302569">
        <ele>16.8</ele>
        <time>2020-08-13T05:14:27Z</time>
      </trkpt>
      <trkpt lat="47.739973" lon="-3.302547">
        <ele>16.8</ele>
        <time>2020-08-13T05:14:27Z</time>
      </trkpt>
      <trkpt lat="47.740033" lon="-3.302547">
        <ele>17.6</ele>
        <time>2020-08-13T05:14:27Z</time>
      </trkpt>
      <trkpt lat="47.740088" lon="-3.302606">
        <ele>17.6</ele>
        <time>2020-08-13T05:14:27Z</time>
      </trkpt>
      <trkpt lat="47.741688" lon="-3.3014">
        <ele>18.8</ele>
        <time>2020-08-13T05:14:38Z</time>
      </trkpt>
      <trkpt lat="47.74619" lon="-3.29777">
        <ele>25.0</ele>
        <time>2020-08-13T05:15:07Z</time>
      </trkpt>
      <trkpt lat="47.747007" lon="-3.296884">
        <ele>23.6</ele>
        <time>2020-08-13T05:15:13Z</time>
      </trkpt>
      <trkpt lat="47.747258" lon="-3.296547">
        <ele>27.2</ele>
        <time>2020-08-13T05:15:15Z</time>
      </trkpt>
      <trkpt lat="47.74792" lon="-3.295549">
        <ele>31.0</ele>
        <time>2020-08-13T05:15:20Z</time>
      </trkpt>
      <trkpt lat="47.748607" lon="-3.294445">
        <ele>34.2</ele>
        <time>2020-08-13T05:15:26Z</time>
      </trkpt>
      <trkpt lat="47.749803" lon="-3.292619">
        <ele>34.8</ele>
        <time>2020-08-13T05:15:36Z</time>
      </trkpt>
      <trkpt lat="47.751234" lon="-3.291099">
        <ele>36.8</ele>
        <time>2020-08-13T05:15:46Z</time>
      </trkpt>
      <trkpt lat="47.755901" lon="-3.286504">
        <ele>37.2</ele>
        <time>2020-08-13T05:16:18Z</time>
      </trkpt>
      <trkpt lat="47.756624" lon="-3.285811">
        <ele>37.6</ele>
        <time>2020-08-13T05:16:23Z</time>
      </trkpt>
      <trkpt lat="47.75802" lon="-3.284687">
        <ele>36.6</ele>
        <time>2020-08-13T05:16:32Z</time>
      </trkpt>
      <trkpt lat="47.75905" lon="-3.283714">
        <ele>35.6</ele>
        <time>2020-08-13T05:16:39Z</time>
      </trkpt>
      <trkpt lat="47.759228" lon="-3.283461">
        <ele>32.6</ele>
        <time>2020-08-13T05:16:41Z</time>
      </trkpt>
      <trkpt lat="47.759364" lon="-3.283101">
        <ele>33.6</ele>
        <time>2020-08-13T05:16:42Z</time>
      </trkpt>
      <trkpt lat="47.759373" lon="-3.28298">
        <ele>33.6</ele>
        <time>2020-08-13T05:16:43Z</time>
      </trkpt>
      <trkpt lat="47.759421" lon="-3.282812">
        <ele>33.6</ele>
        <time>2020-08-13T05:16:44Z</time>
      </trkpt>
      <trkpt lat="47.759502" lon="-3.282664">
        <ele>33.6</ele>
        <time>2020-08-13T05:16:44Z</time>
      </trkpt>
      <trkpt lat="47.759609" lon="-3.282554">
        <ele>33.6</ele>
        <time>2020-08-13T05:16:45Z</time>
      </trkpt>
      <trkpt lat="47.759745" lon="-3.282492">
        <ele>33.2</ele>
        <time>2020-08-13T05:16:46Z</time>
      </trkpt>
      <trkpt lat="47.75989" lon="-3.282497">
        <ele>33.2</ele>
        <time>2020-08-13T05:16:46Z</time>
      </trkpt>
      <trkpt lat="47.760035" lon="-3.282577">
        <ele>31.6</ele>
        <time>2020-08-13T05:16:47Z</time>
      </trkpt>
      <trkpt lat="47.760154" lon="-3.282729">
        <ele>31.6</ele>
        <time>2020-08-13T05:16:48Z</time>
      </trkpt>
      <trkpt lat="47.760217" lon="-3.282878">
        <ele>31.6</ele>
        <time>2020-08-13T05:16:48Z</time>
      </trkpt>
      <trkpt lat="47.760263" lon="-3.283159">
        <ele>31.6</ele>
        <time>2020-08-13T05:16:49Z</time>
      </trkpt>
      <trkpt lat="47.760221" lon="-3.283418">
        <ele>31.6</ele>
        <time>2020-08-13T05:16:50Z</time>
      </trkpt>
      <trkpt lat="47.759951" lon="-3.284028">
        <ele>32.6</ele>
        <time>2020-08-13T05:16:53Z</time>
      </trkpt>
      <trkpt lat="47.759866" lon="-3.284569">
        <ele>32.6</ele>
        <time>2020-08-13T05:16:55Z</time>
      </trkpt>
      <trkpt lat="47.759917" lon="-3.285381">
        <ele>35.2</ele>
        <time>2020-08-13T05:16:58Z</time>
      </trkpt>
      <trkpt lat="47.759958" lon="-3.285816">
        <ele>35.2</ele>
        <time>2020-08-13T05:16:59Z</time>
      </trkpt>
      <trkpt lat="47.76001" lon="-3.285823">
        <ele>34.4</ele>
        <time>2020-08-13T05:16:59Z</time>
      </trkpt>
      <trkpt lat="47.760093" lon="-3.285888">
        <ele>39.2</ele>
        <time>2020-08-13T05:17:00Z</time>
      </trkpt>
      <trkpt lat="47.760143" lon="-3.286022">
        <ele>39.2</ele>
        <time>2020-08-13T05:17:01Z</time>
      </trkpt>
      <trkpt lat="47.760142" lon="-3.286141">
        <ele>39.2</ele>
        <time>2020-08-13T05:17:01Z</time>
      </trkpt>
      <trkpt lat="47.7601" lon="-3.286253">
        <ele>39.2</ele>
        <time>2020-08-13T05:17:02Z</time>
      </trkpt>
      <trkpt lat="47.760011" lon="-3.286323">
        <ele>39.2</ele>
        <time>2020-08-13T05:17:02Z</time>
      </trkpt>
      <trkpt lat="47.760033" lon="-3.286349">
        <ele>39.2</ele>
        <time>2020-08-13T05:17:03Z</time>
      </trkpt>
      <trkpt lat="47.760074" lon="-3.28656">
        <ele>39.2</ele>
        <time>2020-08-13T05:17:04Z</time>
      </trkpt>
      <trkpt lat="47.760747" lon="-3.288769">
        <ele>43.4</ele>
        <time>2020-08-13T05:17:14Z</time>
      </trkpt>
      <trkpt lat="47.761897" lon="-3.292819">
        <ele>35.8</ele>
        <time>2020-08-13T05:17:32Z</time>
      </trkpt>
      <trkpt lat="47.763504" lon="-3.298004">
        <ele>25.4</ele>
        <time>2020-08-13T05:17:57Z</time>
      </trkpt>
      <trkpt lat="47.764069" lon="-3.299579">
        <ele>22.0</ele>
        <time>2020-08-13T05:18:04Z</time>
      </trkpt>
      <trkpt lat="47.765493" lon="-3.303332">
        <ele>5.6</ele>
        <time>2020-08-13T05:18:22Z</time>
      </trkpt>
      <trkpt lat="47.765943" lon="-3.304445">
        <ele>26.2</ele>
        <time>2020-08-13T05:18:28Z</time>
      </trkpt>
      <trkpt lat="47.766391" lon="-3.306177">
        <ele>22.0</ele>
        <time>2020-08-13T05:18:36Z</time>
      </trkpt>
      <trkpt lat="47.766533" lon="-3.306863">
        <ele>21.2</ele>
        <time>2020-08-13T05:18:39Z</time>
      </trkpt>
      <trkpt lat="47.766693" lon="-3.308026">
        <ele>25.6</ele>
        <time>2020-08-13T05:18:44Z</time>
      </trkpt>
      <trkpt lat="47.766835" lon="-3.30933">
        <ele>27.0</ele>
        <time>2020-08-13T05:18:49Z</time>
      </trkpt>
      <trkpt lat="47.766997" lon="-3.310645">
        <ele>28.4</ele>
        <time>2020-08-13T05:18:55Z</time>
      </trkpt>
      <trkpt lat="47.767167" lon="-3.311837">
        <ele>29.8</ele>
        <time>2020-08-13T05:19:00Z</time>
      </trkpt>
      <trkpt lat="47.767397" lon="-3.313099">
        <ele>29.2</ele>
        <time>2020-08-13T05:19:06Z</time>
      </trkpt>
      <trkpt lat="47.767561" lon="-3.313891">
        <ele>25.2</ele>
        <time>2020-08-13T05:19:09Z</time>
      </trkpt>
      <trkpt lat="47.767674" lon="-3.31432">
        <ele>23.0</ele>
        <time>2020-08-13T05:19:11Z</time>
      </trkpt>
      <trkpt lat="47.767772" lon="-3.314321">
        <ele>23.0</ele>
        <time>2020-08-13T05:19:12Z</time>
      </trkpt>
      <trkpt lat="47.767817" lon="-3.314355">
        <ele>23.0</ele>
        <time>2020-08-13T05:19:12Z</time>
      </trkpt>
      <trkpt lat="47.767876" lon="-3.314469">
        <ele>23.0</ele>
        <time>2020-08-13T05:19:13Z</time>
      </trkpt>
      <trkpt lat="47.767885" lon="-3.31458">
        <ele>23.0</ele>
        <time>2020-08-13T05:19:13Z</time>
      </trkpt>
      <trkpt lat="47.76786" lon="-3.314685">
        <ele>23.0</ele>
        <time>2020-08-13T05:19:13Z</time>
      </trkpt>
      <trkpt lat="47.767806" lon="-3.314762">
        <ele>23.0</ele>
        <time>2020-08-13T05:19:14Z</time>
      </trkpt>
      <trkpt lat="47.767735" lon="-3.314796">
        <ele>23.0</ele>
        <time>2020-08-13T05:19:14Z</time>
      </trkpt>
      <trkpt lat="47.767852" lon="-3.31563">
        <ele>21.6</ele>
        <time>2020-08-13T05:19:17Z</time>
      </trkpt>
      <trkpt lat="47.768017" lon="-3.316551">
        <ele>20.4</ele>
        <time>2020-08-13T05:19:21Z</time>
      </trkpt>
      <trkpt lat="47.768143" lon="-3.317444">
        <ele>20.2</ele>
        <time>2020-08-13T05:19:24Z</time>
      </trkpt>
      <trkpt lat="47.768189" lon="-3.318185">
        <ele>19.6</ele>
        <time>2020-08-13T05:19:27Z</time>
      </trkpt>
      <trkpt lat="47.76819" lon="-3.318488">
        <ele>19.0</ele>
        <time>2020-08-13T05:19:28Z</time>
      </trkpt>
      <trkpt lat="47.768158" lon="-3.319148">
        <ele>19.0</ele>
        <time>2020-08-13T05:19:30Z</time>
      </trkpt>
      <trkpt lat="47.768087" lon="-3.319816">
        <ele>17.2</ele>
        <time>2020-08-13T05:19:33Z</time>
      </trkpt>
      <trkpt lat="47.768001" lon="-3.320301">
        <ele>13.4</ele>
        <time>2020-08-13T05:19:35Z</time>
      </trkpt>
      <trkpt lat="47.767855" lon="-3.320899">
        <ele>11.0</ele>
        <time>2020-08-13T05:19:37Z</time>
      </trkpt>
      <trkpt lat="47.766262" lon="-3.326658">
        <ele>8.6</ele>
        <time>2020-08-13T05:19:59Z</time>
      </trkpt>
      <trkpt lat="47.766019" lon="-3.327764">
        <ele>10.2</ele>
        <time>2020-08-13T05:20:04Z</time>
      </trkpt>
      <trkpt lat="47.765862" lon="-3.329108">
        <ele>7.8</ele>
        <time>2020-08-13T05:20:08Z</time>
      </trkpt>
      <trkpt lat="47.765914" lon="-3.329143">
        <ele>7.8</ele>
        <time>2020-08-13T05:20:09Z</time>
      </trkpt>
      <trkpt lat="47.765952" lon="-3.329203">
        <ele>6.6</ele>
        <time>2020-08-13T05:20:09Z</time>
      </trkpt>
      <trkpt lat="47.765972" lon="-3.329281">
        <ele>6.6</ele>
        <time>2020-08-13T05:20:09Z</time>
      </trkpt>
      <trkpt lat="47.765971" lon="-3.329364">
        <ele>6.6</ele>
        <time>2020-08-13T05:20:10Z</time>
      </trkpt>
      <trkpt lat="47.765942" lon="-3.329453">
        <ele>6.6</ele>
        <time>2020-08-13T05:20:10Z</time>
      </trkpt>
      <trkpt lat="47.76589" lon="-3.329514">
        <ele>6.6</ele>
        <time>2020-08-13T05:20:11Z</time>
      </trkpt>
      <trkpt lat="47.765825" lon="-3.329533">
        <ele>8.4</ele>
        <time>2020-08-13T05:20:11Z</time>
      </trkpt>
      <trkpt lat="47.765769" lon="-3.329513">
        <ele>8.4</ele>
        <time>2020-08-13T05:20:11Z</time>
      </trkpt>
      <trkpt lat="47.765724" lon="-3.329463">
        <ele>8.4</ele>
        <time>2020-08-13T05:20:12Z</time>
      </trkpt>
      <trkpt lat="47.765694" lon="-3.329391">
        <ele>8.4</ele>
        <time>2020-08-13T05:20:12Z</time>
      </trkpt>
      <trkpt lat="47.765686" lon="-3.329307">
        <ele>8.4</ele>
        <time>2020-08-13T05:20:12Z</time>
      </trkpt>
      <trkpt lat="47.765304" lon="-3.329317">
        <ele>8.4</ele>
        <time>2020-08-13T05:20:14Z</time>
      </trkpt>
      <trkpt lat="47.764646" lon="-3.329285">
        <ele>12.8</ele>
        <time>2020-08-13T05:20:18Z</time>
      </trkpt>
      <trkpt lat="47.76434" lon="-3.329236">
        <ele>12.8</ele>
        <time>2020-08-13T05:20:20Z</time>
      </trkpt>
      <trkpt lat="47.763602" lon="-3.328988">
        <ele>13.8</ele>
        <time>2020-08-13T05:20:24Z</time>
      </trkpt>
      <trkpt lat="47.763088" lon="-3.328561">
        <ele>11.6</ele>
        <time>2020-08-13T05:20:28Z</time>
      </trkpt>
      <trkpt lat="47.763063" lon="-3.328686">
        <ele>11.6</ele>
        <time>2020-08-13T05:20:28Z</time>
      </trkpt>
      <trkpt lat="47.762984" lon="-3.328745">
        <ele>11.6</ele>
        <time>2020-08-13T05:20:29Z</time>
      </trkpt>
      <trkpt lat="47.76294" lon="-3.328736">
        <ele>11.6</ele>
        <time>2020-08-13T05:20:29Z</time>
      </trkpt>
      <trkpt lat="47.762841" lon="-3.329158">
        <ele>11.6</ele>
        <time>2020-08-13T05:20:32Z</time>
      </trkpt>
      <trkpt lat="47.762653" lon="-3.331476">
        <ele>14.8</ele>
        <time>2020-08-13T05:20:45Z</time>
      </trkpt>
      <trkpt lat="47.762622" lon="-3.331694">
        <ele>14.8</ele>
        <time>2020-08-13T05:20:46Z</time>
      </trkpt>
      <trkpt lat="47.762446" lon="-3.334104">
        <ele>18.0</ele>
        <time>2020-08-13T05:21:00Z</time>
      </trkpt>
      <trkpt lat="47.76221" lon="-3.336847">
        <ele>20.2</ele>
        <time>2020-08-13T05:21:16Z</time>
      </trkpt>
      <trkpt lat="47.762218" lon="-3.337178">
        <ele>20.2</ele>
        <time>2020-08-13T05:21:18Z</time>
      </trkpt>
      <trkpt lat="47.762208" lon="-3.337458">
        <ele>20.2</ele>
        <time>2020-08-13T05:21:19Z</time>
      </trkpt>
      <trkpt lat="47.762179" lon="-3.337755">
        <ele>20.8</ele>
        <time>2020-08-13T05:21:21Z</time>
      </trkpt>
      <trkpt lat="47.762116" lon="-3.338043">
        <ele>20.8</ele>
        <time>2020-08-13T05:21:23Z</time>
      </trkpt>
      <trkpt lat="47.761986" lon="-3.339626">
        <ele>24.0</ele>
        <time>2020-08-13T05:21:32Z</time>
      </trkpt>
      <trkpt lat="47.761958" lon="-3.340143">
        <ele>24.6</ele>
        <time>2020-08-13T05:21:35Z</time>
      </trkpt>
      <trkpt lat="47.761895" lon="-3.343109">
        <ele>18.4</ele>
        <time>2020-08-13T05:21:52Z</time>
      </trkpt>
      <trkpt lat="47.761844" lon="-3.344369">
        <ele>14.0</ele>
        <time>2020-08-13T05:21:59Z</time>
      </trkpt>
      <trkpt lat="47.761788" lon="-3.34529">
        <ele>11.6</ele>
        <time>2020-08-13T05:22:04Z</time>
      </trkpt>
      <trkpt lat="47.76181" lon="-3.345692">
        <ele>11.6</ele>
        <time>2020-08-13T05:22:06Z</time>
      </trkpt>
      <trkpt lat="47.761786" lon="-3.34608">
        <ele>9.4</ele>
        <time>2020-08-13T05:22:08Z</time>
      </trkpt>
      <trkpt lat="47.761754" lon="-3.346247">
        <ele>9.4</ele>
        <time>2020-08-13T05:22:09Z</time>
      </trkpt>
      <trkpt lat="47.761741" lon="-3.346464">
        <ele>9.4</ele>
        <time>2020-08-13T05:22:11Z</time>
      </trkpt>
      <trkpt lat="47.761754" lon="-3.34659">
        <ele>9.4</ele>
        <time>2020-08-13T05:22:11Z</time>
      </trkpt>
      <trkpt lat="47.761775" lon="-3.346638">
        <ele>9.4</ele>
        <time>2020-08-13T05:22:12Z</time>
      </trkpt>
      <trkpt lat="47.761824" lon="-3.346686">
        <ele>7.4</ele>
        <time>2020-08-13T05:22:12Z</time>
      </trkpt>
      <trkpt lat="47.761846" lon="-3.346764">
        <ele>7.4</ele>
        <time>2020-08-13T05:22:13Z</time>
      </trkpt>
      <trkpt lat="47.761836" lon="-3.346848">
        <ele>7.4</ele>
        <time>2020-08-13T05:22:14Z</time>
      </trkpt>
      <trkpt lat="47.761795" lon="-3.34691">
        <ele>7.4</ele>
        <time>2020-08-13T05:22:14Z</time>
      </trkpt>
      <trkpt lat="47.761791" lon="-3.346952">
        <ele>7.4</ele>
        <time>2020-08-13T05:22:15Z</time>
      </trkpt>
      <trkpt lat="47.761827" lon="-3.34722">
        <ele>7.4</ele>
        <time>2020-08-13T05:22:16Z</time>
      </trkpt>
      <trkpt lat="47.761948" lon="-3.347552">
        <ele>6.0</ele>
        <time>2020-08-13T05:22:19Z</time>
      </trkpt>
      <trkpt lat="47.762718" lon="-3.348595">
        <ele>4.0</ele>
        <time>2020-08-13T05:22:30Z</time>
      </trkpt>
      <trkpt lat="47.762819" lon="-3.348786">
        <ele>4.0</ele>
        <time>2020-08-13T05:22:31Z</time>
      </trkpt>
      <trkpt lat="47.762996" lon="-3.34902">
        <ele>4.0</ele>
        <time>2020-08-13T05:22:34Z</time>
      </trkpt>
      <trkpt lat="47.763131" lon="-3.349238">
        <ele>3.8</ele>
        <time>2020-08-13T05:22:36Z</time>
      </trkpt>
      <trkpt lat="47.763194" lon="-3.349393">
        <ele>3.8</ele>
        <time>2020-08-13T05:22:37Z</time>
      </trkpt>
      <trkpt lat="47.762702" lon="-3.35012">
        <ele>3.4</ele>
        <time>2020-08-13T05:22:44Z</time>
      </trkpt>
      <trkpt lat="47.762274" lon="-3.350807">
        <ele>3.8</ele>
        <time>2020-08-13T05:22:50Z</time>
      </trkpt>
      <trkpt lat="47.761032" lon="-3.352873">
        <ele>-1.0</ele>
        <time>2020-08-13T05:23:08Z</time>
      </trkpt>
      <trkpt lat="47.760895" lon="-3.353195">
        <ele>-1.0</ele>
        <time>2020-08-13T05:23:10Z</time>
      </trkpt>
      <trkpt lat="47.760844" lon="-3.353797">
        <ele>-4.0</ele>
        <time>2020-08-13T05:23:14Z</time>
      </trkpt>
      <trkpt lat="47.760843" lon="-3.353953">
        <ele>-4.0</ele>
        <time>2020-08-13T05:23:15Z</time>
      </trkpt>
      <trkpt lat="47.760993" lon="-3.354355">
        <ele>-0.2</ele>
        <time>2020-08-13T05:23:18Z</time>
      </trkpt>
      <trkpt lat="47.762558" lon="-3.356914">
        <ele>3.4</ele>
        <time>2020-08-13T05:23:39Z</time>
      </trkpt>
      <trkpt lat="47.762661" lon="-3.357115">
        <ele>3.4</ele>
        <time>2020-08-13T05:23:41Z</time>
      </trkpt>
      <trkpt lat="47.762751" lon="-3.357354">
        <ele>3.4</ele>
        <time>2020-08-13T05:23:43Z</time>
      </trkpt>
      <trkpt lat="47.762823" lon="-3.357609">
        <ele>3.0</ele>
        <time>2020-08-13T05:23:44Z</time>
      </trkpt>
      <trkpt lat="47.762878" lon="-3.357999">
        <ele>3.0</ele>
        <time>2020-08-13T05:23:47Z</time>
      </trkpt>
      <trkpt lat="47.762877" lon="-3.358431">
        <ele>2.6</ele>
        <time>2020-08-13T05:23:49Z</time>
      </trkpt>
      <trkpt lat="47.762799" lon="-3.359323">
        <ele>3.2</ele>
        <time>2020-08-13T05:23:55Z</time>
      </trkpt>
      <trkpt lat="47.762728" lon="-3.359843">
        <ele>3.2</ele>
        <time>2020-08-13T05:23:58Z</time>
      </trkpt>
      <trkpt lat="47.762607" lon="-3.360448">
        <ele>4.0</ele>
        <time>2020-08-13T05:24:02Z</time>
      </trkpt>
      <trkpt lat="47.762533" lon="-3.360613">
        <ele>4.0</ele>
        <time>2020-08-13T05:24:03Z</time>
      </trkpt>
      <trkpt lat="47.76211" lon="-3.362282">
        <ele>1.4</ele>
        <time>2020-08-13T05:24:19Z</time>
      </trkpt>
      <trkpt lat="47.761992" lon="-3.362805">
        <ele>0.0</ele>
        <time>2020-08-13T05:24:24Z</time>
      </trkpt>
      <trkpt lat="47.762001" lon="-3.363073">
        <ele>0.0</ele>
        <time>2020-08-13T05:24:26Z</time>
      </trkpt>
      <trkpt lat="47.762029" lon="-3.363171">
        <ele>0.0</ele>
        <time>2020-08-13T05:24:27Z</time>
      </trkpt>
      <trkpt lat="47.762147" lon="-3.363397">
        <ele>0.0</ele>
        <time>2020-08-13T05:24:30Z</time>
      </trkpt>
      <trkpt lat="47.762236" lon="-3.363502">
        <ele>0.0</ele>
        <time>2020-08-13T05:24:31Z</time>
      </trkpt>
      <trkpt lat="47.762392" lon="-3.363584">
        <ele>0.0</ele>
        <time>2020-08-13T05:24:33Z</time>
      </trkpt>
      <trkpt lat="47.762507" lon="-3.363575">
        <ele>0.0</ele>
        <time>2020-08-13T05:24:35Z</time>
      </trkpt>
      <trkpt lat="47.762652" lon="-3.363526">
        <ele>0.0</ele>
        <time>2020-08-13T05:24:37Z</time>
      </trkpt>
      <trkpt lat="47.762789" lon="-3.363429">
        <ele>0.0</ele>
        <time>2020-08-13T05:24:39Z</time>
      </trkpt>
      <trkpt lat="47.76298" lon="-3.363146">
        <ele>2.0</ele>
        <time>2020-08-13T05:24:42Z</time>
      </trkpt>
      <trkpt lat="47.763213" lon="-3.362583">
        <ele>2.0</ele>
        <time>2020-08-13T05:24:48Z</time>
      </trkpt>
      <trkpt lat="47.763283" lon="-3.362321">
        <ele>4.2</ele>
        <time>2020-08-13T05:24:50Z</time>
      </trkpt>
      <trkpt lat="47.763268" lon="-3.362167">
        <ele>4.2</ele>
        <time>2020-08-13T05:24:52Z</time>
      </trkpt>
      <trkpt lat="47.763236" lon="-3.36211">
        <ele>4.2</ele>
        <time>2020-08-13T05:24:52Z</time>
      </trkpt>
      <trkpt lat="47.76313" lon="-3.362007">
        <ele>4.2</ele>
        <time>2020-08-13T05:24:54Z</time>
      </trkpt>
      <trkpt lat="47.762389" lon="-3.362981">
        <ele>0.0</ele>
        <time>2020-08-13T05:25:04Z</time>
      </trkpt>
      <trkpt lat="47.760617" lon="-3.365224">
        <ele>8.8</ele>
        <time>2020-08-13T05:25:28Z</time>
      </trkpt>
      <trkpt lat="47.760521" lon="-3.365365">
        <ele>8.8</ele>
        <time>2020-08-13T05:25:29Z</time>
      </trkpt>
      <trkpt lat="47.760413" lon="-3.365463">
        <ele>8.8</ele>
        <time>2020-08-13T05:25:31Z</time>
      </trkpt>
      <trkpt lat="47.760135" lon="-3.365775">
        <ele>8.8</ele>
        <time>2020-08-13T05:25:34Z</time>
      </trkpt>
      <trkpt lat="47.760075" lon="-3.365908">
        <ele>12.6</ele>
        <time>2020-08-13T05:25:35Z</time>
      </trkpt>
      <trkpt lat="47.76007" lon="-3.365981">
        <ele>12.6</ele>
        <time>2020-08-13T05:25:36Z</time>
      </trkpt>
      <trkpt lat="47.760101" lon="-3.366065">
        <ele>12.6</ele>
        <time>2020-08-13T05:25:36Z</time>
      </trkpt>
      <trkpt lat="47.760078" lon="-3.366189">
        <ele>12.6</ele>
        <time>2020-08-13T05:25:37Z</time>
      </trkpt>
      <trkpt lat="47.760006" lon="-3.366241">
        <ele>12.6</ele>
        <time>2020-08-13T05:25:38Z</time>
      </trkpt>
      <trkpt lat="47.75994" lon="-3.366212">
        <ele>14.4</ele>
        <time>2020-08-13T05:25:39Z</time>
      </trkpt>
      <trkpt lat="47.759917" lon="-3.366174">
        <ele>14.4</ele>
        <time>2020-08-13T05:25:39Z</time>
      </trkpt>
      <trkpt lat="47.759841" lon="-3.366274">
        <ele>14.4</ele>
        <time>2020-08-13T05:25:40Z</time>
      </trkpt>
      <trkpt lat="47.759792" lon="-3.366373">
        <ele>14.4</ele>
        <time>2020-08-13T05:25:41Z</time>
      </trkpt>
      <trkpt lat="47.759066" lon="-3.368911">
        <ele>23.6</ele>
        <time>2020-08-13T05:26:00Z</time>
      </trkpt>
      <trkpt lat="47.758213" lon="-3.370915">
        <ele>29.4</ele>
        <time>2020-08-13T05:26:16Z</time>
      </trkpt>
      <trkpt lat="47.758089" lon="-3.371239">
        <ele>29.4</ele>
        <time>2020-08-13T05:26:19Z</time>
      </trkpt>
      <trkpt lat="47.757956" lon="-3.371504">
        <ele>29.4</ele>
        <time>2020-08-13T05:26:21Z</time>
      </trkpt>
      <trkpt lat="47.757908" lon="-3.371568">
        <ele>29.4</ele>
        <time>2020-08-13T05:26:22Z</time>
      </trkpt>
      <trkpt lat="47.757749" lon="-3.371702">
        <ele>30.0</ele>
        <time>2020-08-13T05:26:24Z</time>
      </trkpt>
      <trkpt lat="47.757563" lon="-3.371782">
        <ele>30.0</ele>
        <time>2020-08-13T05:26:26Z</time>
      </trkpt>
      <trkpt lat="47.757072" lon="-3.371907">
        <ele>26.6</ele>
        <time>2020-08-13T05:26:31Z</time>
      </trkpt>
      <trkpt lat="47.756893" lon="-3.371925">
        <ele>26.6</ele>
        <time>2020-08-13T05:26:33Z</time>
      </trkpt>
      <trkpt lat="47.756754" lon="-3.37193">
        <ele>26.6</ele>
        <time>2020-08-13T05:26:34Z</time>
      </trkpt>
      <trkpt lat="47.756286" lon="-3.37187">
        <ele>21.0</ele>
        <time>2020-08-13T05:26:39Z</time>
      </trkpt>
      <trkpt lat="47.753039" lon="-3.371005">
        <ele>15.6</ele>
        <time>2020-08-13T05:27:13Z</time>
      </trkpt>
      <trkpt lat="47.752639" lon="-3.370849">
        <ele>15.6</ele>
        <time>2020-08-13T05:27:17Z</time>
      </trkpt>
      <trkpt lat="47.752299" lon="-3.370886">
        <ele>16.4</ele>
        <time>2020-08-13T05:27:21Z</time>
      </trkpt>
      <trkpt lat="47.75219" lon="-3.370944">
        <ele>16.4</ele>
        <time>2020-08-13T05:27:22Z</time>
      </trkpt>
      <trkpt lat="47.75188" lon="-3.371243">
        <ele>16.4</ele>
        <time>2020-08-13T05:27:26Z</time>
      </trkpt>
      <trkpt lat="47.751723" lon="-3.371357">
        <ele>16.4</ele>
        <time>2020-08-13T05:27:27Z</time>
      </trkpt>
      <trkpt lat="47.75167" lon="-3.371371">
        <ele>16.4</ele>
        <time>2020-08-13T05:27:28Z</time>
      </trkpt>
      <trkpt lat="47.751412" lon="-3.371612">
        <ele>16.4</ele>
        <time>2020-08-13T05:27:31Z</time>
      </trkpt>
      <trkpt lat="47.751342" lon="-3.371705">
        <ele>17.8</ele>
        <time>2020-08-13T05:27:32Z</time>
      </trkpt>
      <trkpt lat="47.749223" lon="-3.373597">
        <ele>15.2</ele>
        <time>2020-08-13T05:27:57Z</time>
      </trkpt>
      <trkpt lat="47.749227" lon="-3.373663">
        <ele>15.2</ele>
        <time>2020-08-13T05:27:58Z</time>
      </trkpt>
      <trkpt lat="47.749208" lon="-3.373693">
        <ele>15.2</ele>
        <time>2020-08-13T05:27:58Z</time>
      </trkpt>
      <trkpt lat="47.749189" lon="-3.373702">
        <ele>15.2</ele>
        <time>2020-08-13T05:27:58Z</time>
      </trkpt>
      <trkpt lat="47.749148" lon="-3.373671">
        <ele>11.6</ele>
        <time>2020-08-13T05:27:59Z</time>
      </trkpt>
      <trkpt lat="47.748556" lon="-3.374191">
        <ele>11.6</ele>
        <time>2020-08-13T05:28:07Z</time>
      </trkpt>
      <trkpt lat="47.748374" lon="-3.37441">
        <ele>11.6</ele>
        <time>2020-08-13T05:28:10Z</time>
      </trkpt>
      <trkpt lat="47.748175" lon="-3.374571">
        <ele>8.8</ele>
        <time>2020-08-13T05:28:13Z</time>
      </trkpt>
      <trkpt lat="47.747667" lon="-3.37558">
        <ele>9.8</ele>
        <time>2020-08-13T05:28:22Z</time>
      </trkpt>
      <trkpt lat="47.747216" lon="-3.376504">
        <ele>11.2</ele>
        <time>2020-08-13T05:28:31Z</time>
      </trkpt>
      <trkpt lat="47.746808" lon="-3.377418">
        <ele>12.2</ele>
        <time>2020-08-13T05:28:40Z</time>
      </trkpt>
      <trkpt lat="47.746724" lon="-3.377684">
        <ele>14.2</ele>
        <time>2020-08-13T05:28:42Z</time>
      </trkpt>
      <trkpt lat="47.746645" lon="-3.377835">
        <ele>12.8</ele>
        <time>2020-08-13T05:28:44Z</time>
      </trkpt>
      <trkpt lat="47.746103" lon="-3.379518">
        <ele>13.8</ele>
        <time>2020-08-13T05:28:58Z</time>
      </trkpt>
      <trkpt lat="47.745904" lon="-3.380206">
        <ele>12.0</ele>
        <time>2020-08-13T05:29:04Z</time>
      </trkpt>
      <trkpt lat="47.745971" lon="-3.380263">
        <ele>12.0</ele>
        <time>2020-08-13T05:29:06Z</time>
      </trkpt>
      <trkpt lat="47.745987" lon="-3.380336">
        <ele>12.0</ele>
        <time>2020-08-13T05:29:07Z</time>
      </trkpt>
      <trkpt lat="47.745956" lon="-3.38044">
        <ele>12.0</ele>
        <time>2020-08-13T05:29:08Z</time>
      </trkpt>
      <trkpt lat="47.74591" lon="-3.380472">
        <ele>12.0</ele>
        <time>2020-08-13T05:29:09Z</time>
      </trkpt>
      <trkpt lat="47.745838" lon="-3.38044">
        <ele>12.0</ele>
        <time>2020-08-13T05:29:10Z</time>
      </trkpt>
      <trkpt lat="47.745741" lon="-3.380609">
        <ele>12.0</ele>
        <time>2020-08-13T05:29:12Z</time>
      </trkpt>
      <trkpt lat="47.745565" lon="-3.380855">
        <ele>11.6</ele>
        <time>2020-08-13T05:29:16Z</time>
      </trkpt>
      <trkpt lat="47.745392" lon="-3.381026">
        <ele>11.6</ele>
        <time>2020-08-13T05:29:20Z</time>
      </trkpt>
      <trkpt lat="47.745149" lon="-3.381204">
        <ele>11.6</ele>
        <time>2020-08-13T05:29:24Z</time>
      </trkpt>
      <trkpt lat="47.744884" lon="-3.381284">
        <ele>14.8</ele>
        <time>2020-08-13T05:29:28Z</time>
      </trkpt>
      <trkpt lat="47.744671" lon="-3.38129">
        <ele>14.8</ele>
        <time>2020-08-13T05:29:32Z</time>
      </trkpt>
      <trkpt lat="47.7439" lon="-3.381175">
        <ele>18.6</ele>
        <time>2020-08-13T05:29:44Z</time>
      </trkpt>
      <trkpt lat="47.743527" lon="-3.380966">
        <ele>18.6</ele>
        <time>2020-08-13T05:29:51Z</time>
      </trkpt>
      <trkpt lat="47.740007" lon="-3.379922">
        <ele>20.4</ele>
        <time>2020-08-13T05:30:49Z</time>
      </trkpt>
      <trkpt lat="47.739916" lon="-3.3799">
        <ele>18.8</ele>
        <time>2020-08-13T05:30:50Z</time>
      </trkpt>
      <trkpt lat="47.739767" lon="-3.379916">
        <ele>18.8</ele>
        <time>2020-08-13T05:30:53Z</time>
      </trkpt>
      <trkpt lat="47.739547" lon="-3.379988">
        <ele>18.8</ele>
        <time>2020-08-13T05:30:56Z</time>
      </trkpt>
      <trkpt lat="47.739477" lon="-3.380146">
        <ele>17.0</ele>
        <time>2020-08-13T05:30:58Z</time>
      </trkpt>
      <trkpt lat="47.739357" lon="-3.380212">
        <ele>17.0</ele>
        <time>2020-08-13T05:30:59Z</time>
      </trkpt>
      <trkpt lat="47.739325" lon="-3.380253">
        <ele>17.0</ele>
        <time>2020-08-13T05:31:00Z</time>
      </trkpt>
      <trkpt lat="47.738982" lon="-3.380987">
        <ele>11.6</ele>
        <time>2020-08-13T05:31:06Z</time>
      </trkpt>
      <trkpt lat="47.73881" lon="-3.381198">
        <ele>11.6</ele>
        <time>2020-08-13T05:31:09Z</time>
      </trkpt>
      <trkpt lat="47.737447" lon="-3.382285">
        <ele>6.8</ele>
        <time>2020-08-13T05:31:26Z</time>
      </trkpt>
      <trkpt lat="47.737379" lon="-3.382281">
        <ele>6.8</ele>
        <time>2020-08-13T05:31:27Z</time>
      </trkpt>
      <trkpt lat="47.737339" lon="-3.382368">
        <ele>6.8</ele>
        <time>2020-08-13T05:31:28Z</time>
      </trkpt>
      <trkpt lat="47.736545" lon="-3.383008">
        <ele>7.4</ele>
        <time>2020-08-13T05:31:37Z</time>
      </trkpt>
      <trkpt lat="47.736471" lon="-3.383026">
        <ele>7.4</ele>
        <time>2020-08-13T05:31:38Z</time>
      </trkpt>
      <trkpt lat="47.736435" lon="-3.383117">
        <ele>7.4</ele>
        <time>2020-08-13T05:31:39Z</time>
      </trkpt>
      <trkpt lat="47.735379" lon="-3.383909">
        <ele>10.0</ele>
        <time>2020-08-13T05:31:57Z</time>
      </trkpt>
      <trkpt lat="47.734174" lon="-3.384763">
        <ele>12.6</ele>
        <time>2020-08-13T05:32:17Z</time>
      </trkpt>
      <trkpt lat="47.733509" lon="-3.385295">
        <ele>13.2</ele>
        <time>2020-08-13T05:32:29Z</time>
      </trkpt>
      <trkpt lat="47.73347" lon="-3.385431">
        <ele>13.2</ele>
        <time>2020-08-13T05:32:30Z</time>
      </trkpt>
      <trkpt lat="47.733382" lon="-3.385497">
        <ele>13.2</ele>
        <time>2020-08-13T05:32:30Z</time>
      </trkpt>
      <trkpt lat="47.733331" lon="-3.385493">
        <ele>8.6</ele>
        <time>2020-08-13T05:32:31Z</time>
      </trkpt>
      <trkpt lat="47.733242" lon="-3.38541">
        <ele>8.6</ele>
        <time>2020-08-13T05:32:32Z</time>
      </trkpt>
      <trkpt lat="47.73309" lon="-3.385451">
        <ele>8.6</ele>
        <time>2020-08-13T05:32:33Z</time>
      </trkpt>
      <trkpt lat="47.732983" lon="-3.385516">
        <ele>8.6</ele>
        <time>2020-08-13T05:32:34Z</time>
      </trkpt>
      <trkpt lat="47.732525" lon="-3.386019">
        <ele>11.4</ele>
        <time>2020-08-13T05:32:38Z</time>
      </trkpt>
      <trkpt lat="47.732331" lon="-3.386143">
        <ele>7.5</ele>
        <time>2020-08-13T05:32:39Z</time>
      </trkpt>
      <trkpt lat="47.732231" lon="-3.386178">
        <ele>7.5</ele>
        <time>2020-08-13T05:32:40Z</time>
      </trkpt>
      <trkpt lat="47.731888" lon="-3.386214">
        <ele>7.5</ele>
        <time>2020-08-13T05:32:43Z</time>
      </trkpt>
      <trkpt lat="47.730984" lon="-3.386252">
        <ele>0.0</ele>
        <time>2020-08-13T05:32:49Z</time>
      </trkpt>
      <trkpt lat="47.730775" lon="-3.386243">
        <ele>9.33</ele>
        <time>2020-08-13T05:32:51Z</time>
      </trkpt>
      <trkpt lat="47.730537" lon="-3.386183">
        <ele>9.33</ele>
        <time>2020-08-13T05:32:53Z</time>
      </trkpt>
      <trkpt lat="47.730202" lon="-3.386007">
        <ele>9.33</ele>
        <time>2020-08-13T05:32:55Z</time>
      </trkpt>
      <trkpt lat="47.729853" lon="-3.385734">
        <ele>13.2</ele>
        <time>2020-08-13T05:32:58Z</time>
      </trkpt>
      <trkpt lat="47.729183" lon="-3.385081">
        <ele>13.2</ele>
        <time>2020-08-13T05:33:04Z</time>
      </trkpt>
      <trkpt lat="47.728463" lon="-3.384659">
        <ele>12.6</ele>
        <time>2020-08-13T05:33:09Z</time>
      </trkpt>
      <trkpt lat="47.727491" lon="-3.384182">
        <ele>12.0</ele>
        <time>2020-08-13T05:33:17Z</time>
      </trkpt>
      <trkpt lat="47.726921" lon="-3.383941">
        <ele>14.4</ele>
        <time>2020-08-13T05:33:22Z</time>
      </trkpt>
      <trkpt lat="47.726354" lon="-3.383664">
        <ele>14.4</ele>
        <time>2020-08-13T05:33:28Z</time>
      </trkpt>
      <trkpt lat="47.72585" lon="-3.38351">
        <ele>14.4</ele>
        <time>2020-08-13T05:33:33Z</time>
      </trkpt>
      <trkpt lat="47.724582" lon="-3.382938">
        <ele>8.4</ele>
        <time>2020-08-13T05:33:45Z</time>
      </trkpt>
      <trkpt lat="47.723364" lon="-3.382436">
        <ele>7.0</ele>
        <time>2020-08-13T05:33:57Z</time>
      </trkpt>
      <trkpt lat="47.722804" lon="-3.382329">
        <ele>9.2</ele>
        <time>2020-08-13T05:34:03Z</time>
      </trkpt>
      <trkpt lat="47.722249" lon="-3.382302">
        <ele>12.0</ele>
        <time>2020-08-13T05:34:08Z</time>
      </trkpt>
      <trkpt lat="47.72182" lon="-3.382322">
        <ele>12.0</ele>
        <time>2020-08-13T05:34:12Z</time>
      </trkpt>
      <trkpt lat="47.721379" lon="-3.382442">
        <ele>17.2</ele>
        <time>2020-08-13T05:34:16Z</time>
      </trkpt>
      <trkpt lat="47.717825" lon="-3.383914">
        <ele>23.6</ele>
        <time>2020-08-13T05:34:51Z</time>
      </trkpt>
      <trkpt lat="47.717785" lon="-3.384035">
        <ele>23.6</ele>
        <time>2020-08-13T05:34:52Z</time>
      </trkpt>
      <trkpt lat="47.717711" lon="-3.384091">
        <ele>23.6</ele>
        <time>2020-08-13T05:34:53Z</time>
      </trkpt>
      <trkpt lat="47.717636" lon="-3.384076">
        <ele>23.6</ele>
        <time>2020-08-13T05:34:54Z</time>
      </trkpt>
      <trkpt lat="47.717578" lon="-3.384003">
        <ele>23.6</ele>
        <time>2020-08-13T05:34:55Z</time>
      </trkpt>
      <trkpt lat="47.716157" lon="-3.384585">
        <ele>21.4</ele>
        <time>2020-08-13T05:35:13Z</time>
      </trkpt>
      <trkpt lat="47.715803" lon="-3.384777">
        <ele>18.0</ele>
        <time>2020-08-13T05:35:16Z</time>
      </trkpt>
      <trkpt lat="47.715488" lon="-3.384993">
        <ele>18.0</ele>
        <time>2020-08-13T05:35:18Z</time>
      </trkpt>
      <trkpt lat="47.715192" lon="-3.385271">
        <ele>19.2</ele>
        <time>2020-08-13T05:35:20Z</time>
      </trkpt>
      <trkpt lat="47.714218" lon="-3.386573">
        <ele>14.0</ele>
        <time>2020-08-13T05:35:28Z</time>
      </trkpt>
      <trkpt lat="47.714104" lon="-3.386679">
        <ele>13.6</ele>
        <time>2020-08-13T05:35:29Z</time>
      </trkpt>
      <trkpt lat="47.713997" lon="-3.386747">
        <ele>13.6</ele>
        <time>2020-08-13T05:35:29Z</time>
      </trkpt>
      <trkpt lat="47.713803" lon="-3.3868">
        <ele>13.6</ele>
        <time>2020-08-13T05:35:30Z</time>
      </trkpt>
      <trkpt lat="47.713723" lon="-3.386799">
        <ele>13.6</ele>
        <time>2020-08-13T05:35:31Z</time>
      </trkpt>
      <trkpt lat="47.713654" lon="-3.386786">
        <ele>13.6</ele>
        <time>2020-08-13T05:35:31Z</time>
      </trkpt>
      <trkpt lat="47.71344" lon="-3.386677">
        <ele>13.6</ele>
        <time>2020-08-13T05:35:33Z</time>
      </trkpt>
      <trkpt lat="47.712486" lon="-3.386092">
        <ele>16.4</ele>
        <time>2020-08-13T05:35:39Z</time>
      </trkpt>
      <trkpt lat="47.712195" lon="-3.385825">
        <ele>14.2</ele>
        <time>2020-08-13T05:35:41Z</time>
      </trkpt>
      <trkpt lat="47.712152" lon="-3.385807">
        <ele>14.2</ele>
        <time>2020-08-13T05:35:41Z</time>
      </trkpt>
      <trkpt lat="47.712093" lon="-3.385847">
        <ele>16.4</ele>
        <time>2020-08-13T05:35:42Z</time>
      </trkpt>
      <trkpt lat="47.71206" lon="-3.385842">
        <ele>16.4</ele>
        <time>2020-08-13T05:35:42Z</time>
      </trkpt>
      <trkpt lat="47.712033" lon="-3.385823">
        <ele>14.2</ele>
        <time>2020-08-13T05:35:43Z</time>
      </trkpt>
      <trkpt lat="47.711997" lon="-3.385756">
        <ele>14.2</ele>
        <time>2020-08-13T05:35:43Z</time>
      </trkpt>
      <trkpt lat="47.711888" lon="-3.385699">
        <ele>14.2</ele>
        <time>2020-08-13T05:35:44Z</time>
      </trkpt>
      <trkpt lat="47.709709" lon="-3.384618">
        <ele>16.0</ele>
        <time>2020-08-13T05:36:08Z</time>
      </trkpt>
      <trkpt lat="47.709688" lon="-3.38465">
        <ele>16.0</ele>
        <time>2020-08-13T05:36:08Z</time>
      </trkpt>
      <trkpt lat="47.709632" lon="-3.384677">
        <ele>16.0</ele>
        <time>2020-08-13T05:36:09Z</time>
      </trkpt>
      <trkpt lat="47.709603" lon="-3.384669">
        <ele>16.0</ele>
        <time>2020-08-13T05:36:09Z</time>
      </trkpt>
      <trkpt lat="47.709579" lon="-3.384649">
        <ele>16.0</ele>
        <time>2020-08-13T05:36:09Z</time>
      </trkpt>
      <trkpt lat="47.709543" lon="-3.384542">
        <ele>16.0</ele>
        <time>2020-08-13T05:36:10Z</time>
      </trkpt>
      <trkpt lat="47.70903" lon="-3.384258">
        <ele>14.6</ele>
        <time>2020-08-13T05:36:16Z</time>
      </trkpt>
      <trkpt lat="47.708951" lon="-3.384188">
        <ele>14.6</ele>
        <time>2020-08-13T05:36:17Z</time>
      </trkpt>
      <trkpt lat="47.70839" lon="-3.383989">
        <ele>14.0</ele>
        <time>2020-08-13T05:36:23Z</time>
      </trkpt>
      <trkpt lat="47.707784" lon="-3.383882">
        <ele>11.6</ele>
        <time>2020-08-13T05:36:29Z</time>
      </trkpt>
      <trkpt lat="47.707359" lon="-3.38385">
        <ele>10.8</ele>
        <time>2020-08-13T05:36:33Z</time>
      </trkpt>
      <trkpt lat="47.707285" lon="-3.383858">
        <ele>10.8</ele>
        <time>2020-08-13T05:36:34Z</time>
      </trkpt>
      <trkpt lat="47.707083" lon="-3.384003">
        <ele>10.8</ele>
        <time>2020-08-13T05:36:36Z</time>
      </trkpt>
      <trkpt lat="47.707008" lon="-3.38408">
        <ele>10.8</ele>
        <time>2020-08-13T05:36:37Z</time>
      </trkpt>
      <trkpt lat="47.706478" lon="-3.384489">
        <ele>8.8</ele>
        <time>2020-08-13T05:36:43Z</time>
      </trkpt>
      <trkpt lat="47.706386" lon="-3.384629">
        <ele>8.8</ele>
        <time>2020-08-13T05:36:45Z</time>
      </trkpt>
      <trkpt lat="47.706366" lon="-3.384695">
        <ele>8.8</ele>
        <time>2020-08-13T05:36:45Z</time>
      </trkpt>
      <trkpt lat="47.706352" lon="-3.384937">
        <ele>8.8</ele>
        <time>2020-08-13T05:36:47Z</time>
      </trkpt>
      <trkpt lat="47.70635" lon="-3.385975">
        <ele>10.8</ele>
        <time>2020-08-13T05:36:54Z</time>
      </trkpt>
      <trkpt lat="47.706337" lon="-3.386172">
        <ele>10.8</ele>
        <time>2020-08-13T05:36:55Z</time>
      </trkpt>
      <trkpt lat="47.706182" lon="-3.387538">
        <ele>12.4</ele>
        <time>2020-08-13T05:37:05Z</time>
      </trkpt>
      <trkpt lat="47.706054" lon="-3.388158">
        <ele>12.4</ele>
        <time>2020-08-13T05:37:09Z</time>
      </trkpt>
      <trkpt lat="47.70597" lon="-3.388821">
        <ele>13.0</ele>
        <time>2020-08-13T05:37:14Z</time>
      </trkpt>
      <trkpt lat="47.705931" lon="-3.389658">
        <ele>12.4</ele>
        <time>2020-08-13T05:37:20Z</time>
      </trkpt>
      <trkpt lat="47.705894" lon="-3.389951">
        <ele>12.4</ele>
        <time>2020-08-13T05:37:22Z</time>
      </trkpt>
      <trkpt lat="47.705832" lon="-3.390221">
        <ele>10.6</ele>
        <time>2020-08-13T05:37:24Z</time>
      </trkpt>
      <trkpt lat="47.705482" lon="-3.391337">
        <ele>9.4</ele>
        <time>2020-08-13T05:37:32Z</time>
      </trkpt>
      <trkpt lat="47.704966" lon="-3.392833">
        <ele>5.0</ele>
        <time>2020-08-13T05:37:44Z</time>
      </trkpt>
      <trkpt lat="47.704791" lon="-3.393239">
        <ele>5.0</ele>
        <time>2020-08-13T05:37:47Z</time>
      </trkpt>
      <trkpt lat="47.704516" lon="-3.393811">
        <ele>3.8</ele>
        <time>2020-08-13T05:37:52Z</time>
      </trkpt>
      <trkpt lat="47.704096" lon="-3.395049">
        <ele>2.75</ele>
        <time>2020-08-13T05:38:02Z</time>
      </trkpt>
      <trkpt lat="47.704049" lon="-3.395266">
        <ele>2.75</ele>
        <time>2020-08-13T05:38:03Z</time>
      </trkpt>
      <trkpt lat="47.704021" lon="-3.395688">
        <ele>2.75</ele>
        <time>2020-08-13T05:38:06Z</time>
      </trkpt>
      <trkpt lat="47.703943" lon="-3.395728">
        <ele>2.75</ele>
        <time>2020-08-13T05:38:08Z</time>
      </trkpt>
      <trkpt lat="47.703853" lon="-3.395812">
        <ele>2.75</ele>
        <time>2020-08-13T05:38:10Z</time>
      </trkpt>
      <trkpt lat="47.703868" lon="-3.396078">
        <ele>3.63</ele>
        <time>2020-08-13T05:38:13Z</time>
      </trkpt>
      <trkpt lat="47.703868" lon="-3.396078">
        <ele>3.63</ele>
        <time>2020-08-13T05:38:13Z</time>
      </trkpt>
      <trkpt lat="47.703853" lon="-3.395812">
        <ele>2.75</ele>
        <time>2020-08-13T05:38:16Z</time>
      </trkpt>
      <trkpt lat="47.703943" lon="-3.395728">
        <ele>2.75</ele>
        <time>2020-08-13T05:38:18Z</time>
      </trkpt>
      <trkpt lat="47.704021" lon="-3.395688">
        <ele>2.75</ele>
        <time>2020-08-13T05:38:20Z</time>
      </trkpt>
      <trkpt lat="47.704038" lon="-3.395912">
        <ele>3.5</ele>
        <time>2020-08-13T05:38:21Z</time>
      </trkpt>
      <trkpt lat="47.704128" lon="-3.396291">
        <ele>3.5</ele>
        <time>2020-08-13T05:38:24Z</time>
      </trkpt>
      <trkpt lat="47.70459" lon="-3.397212">
        <ele>5.6</ele>
        <time>2020-08-13T05:38:33Z</time>
      </trkpt>
      <trkpt lat="47.704819" lon="-3.397773">
        <ele>6.2</ele>
        <time>2020-08-13T05:38:38Z</time>
      </trkpt>
      <trkpt lat="47.704889" lon="-3.398051">
        <ele>6.2</ele>
        <time>2020-08-13T05:38:40Z</time>
      </trkpt>
      <trkpt lat="47.70494" lon="-3.398419">
        <ele>5.6</ele>
        <time>2020-08-13T05:38:43Z</time>
      </trkpt>
      <trkpt lat="47.704965" lon="-3.399101">
        <ele>5.6</ele>
        <time>2020-08-13T05:38:48Z</time>
      </trkpt>
      <trkpt lat="47.705022" lon="-3.399331">
        <ele>5.6</ele>
        <time>2020-08-13T05:38:50Z</time>
      </trkpt>
      <trkpt lat="47.705514" lon="-3.400902">
        <ele>3.0</ele>
        <time>2020-08-13T05:39:03Z</time>
      </trkpt>
      <trkpt lat="47.705609" lon="-3.401132">
        <ele>3.0</ele>
        <time>2020-08-13T05:39:05Z</time>
      </trkpt>
      <trkpt lat="47.705981" lon="-3.401867">
        <ele>4.0</ele>
        <time>2020-08-13T05:39:12Z</time>
      </trkpt>
      <trkpt lat="47.706066" lon="-3.401982">
        <ele>4.0</ele>
        <time>2020-08-13T05:39:13Z</time>
      </trkpt>
      <trkpt lat="47.706101" lon="-3.40215">
        <ele>4.0</ele>
        <time>2020-08-13T05:39:14Z</time>
      </trkpt>
      <trkpt lat="47.706749" lon="-3.403506">
        <ele>6.4</ele>
        <time>2020-08-13T05:39:27Z</time>
      </trkpt>
      <trkpt lat="47.707241" lon="-3.404586">
        <ele>6.4</ele>
        <time>2020-08-13T05:39:36Z</time>
      </trkpt>
      <trkpt lat="47.707312" lon="-3.404747">
        <ele>6.4</ele>
        <time>2020-08-13T05:39:38Z</time>
      </trkpt>
      <trkpt lat="47.707367" lon="-3.404951">
        <ele>6.4</ele>
        <time>2020-08-13T05:39:40Z</time>
      </trkpt>
      <trkpt lat="47.70741" lon="-3.405338">
        <ele>6.6</ele>
        <time>2020-08-13T05:39:42Z</time>
      </trkpt>
      <trkpt lat="47.707389" lon="-3.40572">
        <ele>6.6</ele>
        <time>2020-08-13T05:39:45Z</time>
      </trkpt>
      <trkpt lat="47.707133" lon="-3.408754">
        <ele>12.2</ele>
        <time>2020-08-13T05:40:08Z</time>
      </trkpt>
      <trkpt lat="47.706944" lon="-3.410477">
        <ele>13.2</ele>
        <time>2020-08-13T05:40:21Z</time>
      </trkpt>
      <trkpt lat="47.706924" lon="-3.410801">
        <ele>13.2</ele>
        <time>2020-08-13T05:40:24Z</time>
      </trkpt>
      <trkpt lat="47.707089" lon="-3.411641">
        <ele>13.8</ele>
        <time>2020-08-13T05:40:30Z</time>
      </trkpt>
      <trkpt lat="47.707172" lon="-3.412145">
        <ele>14.4</ele>
        <time>2020-08-13T05:40:34Z</time>
      </trkpt>
      <trkpt lat="47.707252" lon="-3.413694">
        <ele>14.6</ele>
        <time>2020-08-13T05:40:46Z</time>
      </trkpt>
      <trkpt lat="47.707302" lon="-3.413988">
        <ele>14.6</ele>
        <time>2020-08-13T05:40:48Z</time>
      </trkpt>
      <trkpt lat="47.707351" lon="-3.414119">
        <ele>14.6</ele>
        <time>2020-08-13T05:40:49Z</time>
      </trkpt>
      <trkpt lat="47.707422" lon="-3.414214">
        <ele>13.0</ele>
        <time>2020-08-13T05:40:50Z</time>
      </trkpt>
      <trkpt lat="47.707558" lon="-3.414297">
        <ele>13.6</ele>
        <time>2020-08-13T05:40:52Z</time>
      </trkpt>
      <trkpt lat="47.707716" lon="-3.414353">
        <ele>13.6</ele>
        <time>2020-08-13T05:40:54Z</time>
      </trkpt>
      <trkpt lat="47.707768" lon="-3.414318">
        <ele>13.6</ele>
        <time>2020-08-13T05:40:54Z</time>
      </trkpt>
      <trkpt lat="47.707849" lon="-3.41432">
        <ele>13.6</ele>
        <time>2020-08-13T05:40:54Z</time>
      </trkpt>
      <trkpt lat="47.707931" lon="-3.4144">
        <ele>13.6</ele>
        <time>2020-08-13T05:40:55Z</time>
      </trkpt>
      <trkpt lat="47.707965" lon="-3.414523">
        <ele>13.6</ele>
        <time>2020-08-13T05:40:56Z</time>
      </trkpt>
      <trkpt lat="47.707964" lon="-3.41459">
        <ele>13.6</ele>
        <time>2020-08-13T05:40:56Z</time>
      </trkpt>
      <trkpt lat="47.707929" lon="-3.4147">
        <ele>13.6</ele>
        <time>2020-08-13T05:40:57Z</time>
      </trkpt>
      <trkpt lat="47.707865" lon="-3.41477">
        <ele>13.6</ele>
        <time>2020-08-13T05:40:57Z</time>
      </trkpt>
      <trkpt lat="47.707788" lon="-3.414784">
        <ele>13.6</ele>
        <time>2020-08-13T05:40:58Z</time>
      </trkpt>
      <trkpt lat="47.707765" lon="-3.415217">
        <ele>12.0</ele>
        <time>2020-08-13T05:40:59Z</time>
      </trkpt>
      <trkpt lat="47.707754" lon="-3.415903">
        <ele>11.4</ele>
        <time>2020-08-13T05:41:02Z</time>
      </trkpt>
      <trkpt lat="47.707764" lon="-3.416538">
        <ele>11.4</ele>
        <time>2020-08-13T05:41:05Z</time>
      </trkpt>
      <trkpt lat="47.707804" lon="-3.417278">
        <ele>11.0</ele>
        <time>2020-08-13T05:41:09Z</time>
      </trkpt>
      <trkpt lat="47.707937" lon="-3.418573">
        <ele>10.0</ele>
        <time>2020-08-13T05:41:14Z</time>
      </trkpt>
      <trkpt lat="47.708088" lon="-3.419477">
        <ele>10.4</ele>
        <time>2020-08-13T05:41:18Z</time>
      </trkpt>
      <trkpt lat="47.708262" lon="-3.420357">
        <ele>11.4</ele>
        <time>2020-08-13T05:41:22Z</time>
      </trkpt>
      <trkpt lat="47.708397" lon="-3.420687">
        <ele>12.4</ele>
        <time>2020-08-13T05:41:24Z</time>
      </trkpt>
      <trkpt lat="47.708497" lon="-3.420715">
        <ele>12.4</ele>
        <time>2020-08-13T05:41:25Z</time>
      </trkpt>
      <trkpt lat="47.708572" lon="-3.420818">
        <ele>12.4</ele>
        <time>2020-08-13T05:41:25Z</time>
      </trkpt>
      <trkpt lat="47.708592" lon="-3.420888">
        <ele>11.8</ele>
        <time>2020-08-13T05:41:26Z</time>
      </trkpt>
      <trkpt lat="47.708588" lon="-3.421052">
        <ele>11.8</ele>
        <time>2020-08-13T05:41:27Z</time>
      </trkpt>
      <trkpt lat="47.708523" lon="-3.42118">
        <ele>11.8</ele>
        <time>2020-08-13T05:41:27Z</time>
      </trkpt>
      <trkpt lat="47.708597" lon="-3.421682">
        <ele>10.4</ele>
        <time>2020-08-13T05:41:30Z</time>
      </trkpt>
      <trkpt lat="47.709699" lon="-3.42619">
        <ele>7.0</ele>
        <time>2020-08-13T05:41:52Z</time>
      </trkpt>
      <trkpt lat="47.709879" lon="-3.426976">
        <ele>8.4</ele>
        <time>2020-08-13T05:41:56Z</time>
      </trkpt>
      <trkpt lat="47.710083" lon="-3.428067">
        <ele>9.4</ele>
        <time>2020-08-13T05:42:01Z</time>
      </trkpt>
      <trkpt lat="47.710207" lon="-3.429026">
        <ele>10.2</ele>
        <time>2020-08-13T05:42:05Z</time>
      </trkpt>
      <trkpt lat="47.710309" lon="-3.429982">
        <ele>10.2</ele>
        <time>2020-08-13T05:42:10Z</time>
      </trkpt>
      <trkpt lat="47.710357" lon="-3.430998">
        <ele>11.6</ele>
        <time>2020-08-13T05:42:14Z</time>
      </trkpt>
      <trkpt lat="47.710374" lon="-3.431709">
        <ele>13.0</ele>
        <time>2020-08-13T05:42:18Z</time>
      </trkpt>
      <trkpt lat="47.710362" lon="-3.432756">
        <ele>13.4</ele>
        <time>2020-08-13T05:42:22Z</time>
      </trkpt>
      <trkpt lat="47.710315" lon="-3.433674">
        <ele>13.8</ele>
        <time>2020-08-13T05:42:27Z</time>
      </trkpt>
      <trkpt lat="47.710226" lon="-3.434647">
        <ele>13.4</ele>
        <time>2020-08-13T05:42:31Z</time>
      </trkpt>
      <trkpt lat="47.709782" lon="-3.438096">
        <ele>11.8</ele>
        <time>2020-08-13T05:42:47Z</time>
      </trkpt>
      <trkpt lat="47.709779" lon="-3.43834">
        <ele>12.2</ele>
        <time>2020-08-13T05:42:48Z</time>
      </trkpt>
      <trkpt lat="47.709834" lon="-3.438379">
        <ele>12.2</ele>
        <time>2020-08-13T05:42:49Z</time>
      </trkpt>
      <trkpt lat="47.709873" lon="-3.438447">
        <ele>12.2</ele>
        <time>2020-08-13T05:42:49Z</time>
      </trkpt>
      <trkpt lat="47.709891" lon="-3.43859">
        <ele>12.2</ele>
        <time>2020-08-13T05:42:50Z</time>
      </trkpt>
      <trkpt lat="47.709859" lon="-3.438695">
        <ele>12.2</ele>
        <time>2020-08-13T05:42:51Z</time>
      </trkpt>
      <trkpt lat="47.709765" lon="-3.438861">
        <ele>12.2</ele>
        <time>2020-08-13T05:42:52Z</time>
      </trkpt>
      <trkpt lat="47.709745" lon="-3.438922">
        <ele>12.2</ele>
        <time>2020-08-13T05:42:52Z</time>
      </trkpt>
      <trkpt lat="47.709644" lon="-3.439426">
        <ele>14.0</ele>
        <time>2020-08-13T05:42:55Z</time>
      </trkpt>
      <trkpt lat="47.709132" lon="-3.443603">
        <ele>17.4</ele>
        <time>2020-08-13T05:43:15Z</time>
      </trkpt>
      <trkpt lat="47.709139" lon="-3.443768">
        <ele>17.4</ele>
        <time>2020-08-13T05:43:16Z</time>
      </trkpt>
      <trkpt lat="47.709093" lon="-3.444128">
        <ele>17.4</ele>
        <time>2020-08-13T05:43:18Z</time>
      </trkpt>
      <trkpt lat="47.709043" lon="-3.444296">
        <ele>16.6</ele>
        <time>2020-08-13T05:43:19Z</time>
      </trkpt>
      <trkpt lat="47.708564" lon="-3.44821">
        <ele>12.6</ele>
        <time>2020-08-13T05:43:38Z</time>
      </trkpt>
      <trkpt lat="47.708547" lon="-3.448623">
        <ele>14.0</ele>
        <time>2020-08-13T05:43:40Z</time>
      </trkpt>
      <trkpt lat="47.708472" lon="-3.449124">
        <ele>14.0</ele>
        <time>2020-08-13T05:43:43Z</time>
      </trkpt>
      <trkpt lat="47.70845" lon="-3.449161">
        <ele>14.0</ele>
        <time>2020-08-13T05:43:43Z</time>
      </trkpt>
      <trkpt lat="47.708423" lon="-3.449387">
        <ele>14.6</ele>
        <time>2020-08-13T05:43:44Z</time>
      </trkpt>
      <trkpt lat="47.70827" lon="-3.449367">
        <ele>15.0</ele>
        <time>2020-08-13T05:43:46Z</time>
      </trkpt>
      <trkpt lat="47.708103" lon="-3.44938">
        <ele>15.0</ele>
        <time>2020-08-13T05:43:48Z</time>
      </trkpt>
      <trkpt lat="47.707434" lon="-3.450242">
        <ele>14.2</ele>
        <time>2020-08-13T05:44:02Z</time>
      </trkpt>
      <trkpt lat="47.70726" lon="-3.450326">
        <ele>14.2</ele>
        <time>2020-08-13T05:44:04Z</time>
      </trkpt>
      <trkpt lat="47.706645" lon="-3.450285">
        <ele>14.0</ele>
        <time>2020-08-13T05:44:14Z</time>
      </trkpt>
      <trkpt lat="47.70656" lon="-3.450317">
        <ele>14.0</ele>
        <time>2020-08-13T05:44:15Z</time>
      </trkpt>
      <trkpt lat="47.706476" lon="-3.450381">
        <ele>14.0</ele>
        <time>2020-08-13T05:44:17Z</time>
      </trkpt>
      <trkpt lat="47.706372" lon="-3.450536">
        <ele>14.0</ele>
        <time>2020-08-13T05:44:19Z</time>
      </trkpt>
      <trkpt lat="47.705747" lon="-3.452366">
        <ele>14.2</ele>
        <time>2020-08-13T05:44:41Z</time>
      </trkpt>
      <trkpt lat="47.705633" lon="-3.452565">
        <ele>14.0</ele>
        <time>2020-08-13T05:44:43Z</time>
      </trkpt>
      <trkpt lat="47.705532" lon="-3.452644">
        <ele>14.0</ele>
        <time>2020-08-13T05:44:45Z</time>
      </trkpt>
      <trkpt lat="47.705116" lon="-3.452765">
        <ele>14.0</ele>
        <time>2020-08-13T05:44:52Z</time>
      </trkpt>
      <trkpt lat="47.70488" lon="-3.452877">
        <ele>14.2</ele>
        <time>2020-08-13T05:44:56Z</time>
      </trkpt>
      <trkpt lat="47.704724" lon="-3.45302">
        <ele>14.2</ele>
        <time>2020-08-13T05:44:59Z</time>
      </trkpt>
      <trkpt lat="47.704613" lon="-3.453153">
        <ele>14.2</ele>
        <time>2020-08-13T05:45:01Z</time>
      </trkpt>
      <trkpt lat="47.704499" lon="-3.453332">
        <ele>14.2</ele>
        <time>2020-08-13T05:45:03Z</time>
      </trkpt>
      <trkpt lat="47.704273" lon="-3.454482">
        <ele>15.0</ele>
        <time>2020-08-13T05:45:16Z</time>
      </trkpt>
      <trkpt lat="47.704137" lon="-3.4547">
        <ele>15.6</ele>
        <time>2020-08-13T05:45:19Z</time>
      </trkpt>
      <trkpt lat="47.703916" lon="-3.454875">
        <ele>15.6</ele>
        <time>2020-08-13T05:45:23Z</time>
      </trkpt>
      <trkpt lat="47.703859" lon="-3.454958">
        <ele>15.6</ele>
        <time>2020-08-13T05:45:24Z</time>
      </trkpt>
      <trkpt lat="47.703592" lon="-3.454972">
        <ele>15.6</ele>
        <time>2020-08-13T05:45:28Z</time>
      </trkpt>
      <trkpt lat="47.703572" lon="-3.455461">
        <ele>15.2</ele>
        <time>2020-08-13T05:45:34Z</time>
      </trkpt>
      <trkpt lat="47.703535" lon="-3.455715">
        <ele>15.2</ele>
        <time>2020-08-13T05:45:38Z</time>
      </trkpt>
      <trkpt lat="47.703555" lon="-3.455895">
        <ele>14.0</ele>
        <time>2020-08-13T05:45:40Z</time>
      </trkpt>
      <trkpt lat="47.70363" lon="-3.456132">
        <ele>14.0</ele>
        <time>2020-08-13T05:45:43Z</time>
      </trkpt>
      <trkpt lat="47.703721" lon="-3.456411">
        <ele>14.0</ele>
        <time>2020-08-13T05:45:48Z</time>
      </trkpt>
      <trkpt lat="47.7039" lon="-3.457367">
        <ele>10.8</ele>
        <time>2020-08-13T05:46:03Z</time>
      </trkpt>
      <trkpt lat="47.704157" lon="-3.458308">
        <ele>7.0</ele>
        <time>2020-08-13T05:46:15Z</time>
      </trkpt>
      <trkpt lat="47.704267" lon="-3.458642">
        <ele>7.4</ele>
        <time>2020-08-13T05:46:20Z</time>
      </trkpt>
      <trkpt lat="47.704495" lon="-3.459149">
        <ele>7.4</ele>
        <time>2020-08-13T05:46:27Z</time>
      </trkpt>
      <trkpt lat="47.707908" lon="-3.465175">
        <ele>8.4</ele>
        <time>2020-08-13T05:47:59Z</time>
      </trkpt>
      <trkpt lat="47.707972" lon="-3.465222">
        <ele>8.4</ele>
        <time>2020-08-13T05:48:00Z</time>
      </trkpt>
      <trkpt lat="47.708078" lon="-3.465237">
        <ele>8.4</ele>
        <time>2020-08-13T05:48:02Z</time>
      </trkpt>
      <trkpt lat="47.708234" lon="-3.465119">
        <ele>8.4</ele>
        <time>2020-08-13T05:48:05Z</time>
      </trkpt>
      <trkpt lat="47.708471" lon="-3.465819">
        <ele>10.6</ele>
        <time>2020-08-13T05:48:12Z</time>
      </trkpt>
      <trkpt lat="47.708544" lon="-3.465946">
        <ele>9.4</ele>
        <time>2020-08-13T05:48:13Z</time>
      </trkpt>
      <trkpt lat="47.708706" lon="-3.466413">
        <ele>9.4</ele>
        <time>2020-08-13T05:48:17Z</time>
      </trkpt>
      <trkpt lat="47.708889" lon="-3.466825">
        <ele>7.8</ele>
        <time>2020-08-13T05:48:21Z</time>
      </trkpt>
      <trkpt lat="47.709343" lon="-3.467734">
        <ele>8.8</ele>
        <time>2020-08-13T05:48:29Z</time>
      </trkpt>
      <trkpt lat="47.710749" lon="-3.470274">
        <ele>4.0</ele>
        <time>2020-08-13T05:48:55Z</time>
      </trkpt>
      <trkpt lat="47.711497" lon="-3.471713">
        <ele>0.0</ele>
        <time>2020-08-13T05:49:09Z</time>
      </trkpt>
      <trkpt lat="47.711728" lon="-3.47201">
        <ele>7.25</ele>
        <time>2020-08-13T05:49:12Z</time>
      </trkpt>
      <trkpt lat="47.7123" lon="-3.47262">
        <ele>8.4</ele>
        <time>2020-08-13T05:49:20Z</time>
      </trkpt>
      <trkpt lat="47.713481" lon="-3.473809">
        <ele>4.2</ele>
        <time>2020-08-13T05:49:37Z</time>
      </trkpt>
      <trkpt lat="47.714105" lon="-3.47447">
        <ele>1.75</ele>
        <time>2020-08-13T05:49:45Z</time>
      </trkpt>
      <trkpt lat="47.715316" lon="-3.475649">
        <ele>4.0</ele>
        <time>2020-08-13T05:50:02Z</time>
      </trkpt>
      <trkpt lat="47.715633" lon="-3.476068">
        <ele>4.5</ele>
        <time>2020-08-13T05:50:07Z</time>
      </trkpt>
      <trkpt lat="47.71715" lon="-3.478489">
        <ele>15.0</ele>
        <time>2020-08-13T05:50:32Z</time>
      </trkpt>
      <trkpt lat="47.717678" lon="-3.479192">
        <ele>14.6</ele>
        <time>2020-08-13T05:50:41Z</time>
      </trkpt>
      <trkpt lat="47.717937" lon="-3.479409">
        <ele>14.6</ele>
        <time>2020-08-13T05:50:44Z</time>
      </trkpt>
      <trkpt lat="47.71875" lon="-3.479887">
        <ele>15.4</ele>
        <time>2020-08-13T05:50:54Z</time>
      </trkpt>
      <trkpt lat="47.719862" lon="-3.480449">
        <ele>12.4</ele>
        <time>2020-08-13T05:51:07Z</time>
      </trkpt>
      <trkpt lat="47.720136" lon="-3.480684">
        <ele>13.4</ele>
        <time>2020-08-13T05:51:11Z</time>
      </trkpt>
      <trkpt lat="47.720521" lon="-3.48107">
        <ele>11.2</ele>
        <time>2020-08-13T05:51:16Z</time>
      </trkpt>
      <trkpt lat="47.720972" lon="-3.481639">
        <ele>8.8</ele>
        <time>2020-08-13T05:51:23Z</time>
      </trkpt>
      <trkpt lat="47.720972" lon="-3.481639">
        <ele>8.8</ele>
        <time>2020-08-13T05:51:23Z</time>
      </trkpt>
      <trkpt lat="47.723237" lon="-3.484489">
        <ele>6.4</ele>
        <time>2020-08-13T05:51:45Z</time>
      </trkpt>
      <trkpt lat="47.723387" lon="-3.48477">
        <ele>6.4</ele>
        <time>2020-08-13T05:51:47Z</time>
      </trkpt>
      <trkpt lat="47.723572" lon="-3.485131">
        <ele>6.0</ele>
        <time>2020-08-13T05:51:49Z</time>
      </trkpt>
      <trkpt lat="47.72371" lon="-3.485462">
        <ele>6.0</ele>
        <time>2020-08-13T05:51:51Z</time>
      </trkpt>
      <trkpt lat="47.7262" lon="-3.491637">
        <ele>6.8</ele>
        <time>2020-08-13T05:52:27Z</time>
      </trkpt>
      <trkpt lat="47.726511" lon="-3.492308">
        <ele>5.6</ele>
        <time>2020-08-13T05:52:31Z</time>
      </trkpt>
      <trkpt lat="47.72693" lon="-3.492946">
        <ele>3.8</ele>
        <time>2020-08-13T05:52:36Z</time>
      </trkpt>
      <trkpt lat="47.727199" lon="-3.493282">
        <ele>3.8</ele>
        <time>2020-08-13T05:52:38Z</time>
      </trkpt>
      <trkpt lat="47.728625" lon="-3.49462">
        <ele>2.5</ele>
        <time>2020-08-13T05:52:51Z</time>
      </trkpt>
      <trkpt lat="47.730208" lon="-3.496017">
        <ele>9.2</ele>
        <time>2020-08-13T05:53:05Z</time>
      </trkpt>
      <trkpt lat="47.730903" lon="-3.496533">
        <ele>9.2</ele>
        <time>2020-08-13T05:53:10Z</time>
      </trkpt>
      <trkpt lat="47.731258" lon="-3.496845">
        <ele>8.2</ele>
        <time>2020-08-13T05:53:13Z</time>
      </trkpt>
      <trkpt lat="47.732332" lon="-3.497652">
        <ele>7.2</ele>
        <time>2020-08-13T05:53:22Z</time>
      </trkpt>
      <trkpt lat="47.732862" lon="-3.498028">
        <ele>7.0</ele>
        <time>2020-08-13T05:53:27Z</time>
      </trkpt>
      <trkpt lat="47.73294" lon="-3.49797">
        <ele>7.0</ele>
        <time>2020-08-13T05:53:27Z</time>
      </trkpt>
      <trkpt lat="47.732953" lon="-3.497929">
        <ele>7.0</ele>
        <time>2020-08-13T05:53:28Z</time>
      </trkpt>
      <trkpt lat="47.733031" lon="-3.497861">
        <ele>7.0</ele>
        <time>2020-08-13T05:53:28Z</time>
      </trkpt>
      <trkpt lat="47.733091" lon="-3.497879">
        <ele>7.0</ele>
        <time>2020-08-13T05:53:28Z</time>
      </trkpt>
      <trkpt lat="47.733143" lon="-3.497976">
        <ele>7.0</ele>
        <time>2020-08-13T05:53:29Z</time>
      </trkpt>
      <trkpt lat="47.733129" lon="-3.498108">
        <ele>7.0</ele>
        <time>2020-08-13T05:53:29Z</time>
      </trkpt>
      <trkpt lat="47.733189" lon="-3.49825">
        <ele>7.0</ele>
        <time>2020-08-13T05:53:30Z</time>
      </trkpt>
      <trkpt lat="47.733277" lon="-3.498378">
        <ele>4.0</ele>
        <time>2020-08-13T05:53:31Z</time>
      </trkpt>
      <trkpt lat="47.733448" lon="-3.498503">
        <ele>4.5</ele>
        <time>2020-08-13T05:53:32Z</time>
      </trkpt>
      <trkpt lat="47.733657" lon="-3.49862">
        <ele>4.5</ele>
        <time>2020-08-13T05:53:33Z</time>
      </trkpt>
      <trkpt lat="47.733891" lon="-3.498792">
        <ele>4.5</ele>
        <time>2020-08-13T05:53:34Z</time>
      </trkpt>
      <trkpt lat="47.734122" lon="-3.499007">
        <ele>4.5</ele>
        <time>2020-08-13T05:53:36Z</time>
      </trkpt>
      <trkpt lat="47.735555" lon="-3.500491">
        <ele>4.67</ele>
        <time>2020-08-13T05:53:45Z</time>
      </trkpt>
      <trkpt lat="47.735889" lon="-3.500775">
        <ele>6.25</ele>
        <time>2020-08-13T05:53:48Z</time>
      </trkpt>
      <trkpt lat="47.736051" lon="-3.500878">
        <ele>0.0</ele>
        <time>2020-08-13T05:53:49Z</time>
      </trkpt>
      <trkpt lat="47.73627" lon="-3.500977">
        <ele>0.0</ele>
        <time>2020-08-13T05:53:50Z</time>
      </trkpt>
      <trkpt lat="47.737768" lon="-3.501311">
        <ele>3.5</ele>
        <time>2020-08-13T05:53:58Z</time>
      </trkpt>
      <trkpt lat="47.738116" lon="-3.501446">
        <ele>3.5</ele>
        <time>2020-08-13T05:54:00Z</time>
      </trkpt>
      <trkpt lat="47.742734" lon="-3.503459">
        <ele>0.0</ele>
        <time>2020-08-13T05:54:26Z</time>
      </trkpt>
      <trkpt lat="47.746387" lon="-3.50509">
        <ele>0.0</ele>
        <time>2020-08-13T05:54:47Z</time>
      </trkpt>
      <trkpt lat="47.746649" lon="-3.505299">
        <ele>0.0</ele>
        <time>2020-08-13T05:54:49Z</time>
      </trkpt>
      <trkpt lat="47.747162" lon="-3.505785">
        <ele>10.0</ele>
        <time>2020-08-13T05:54:52Z</time>
      </trkpt>
      <trkpt lat="47.747437" lon="-3.506138">
        <ele>0.0</ele>
        <time>2020-08-13T05:54:54Z</time>
      </trkpt>
      <trkpt lat="47.749239" lon="-3.508673">
        <ele>8.5</ele>
        <time>2020-08-13T05:55:08Z</time>
      </trkpt>
      <trkpt lat="47.749704" lon="-3.509366">
        <ele>4.66</ele>
        <time>2020-08-13T05:55:12Z</time>
      </trkpt>
      <trkpt lat="47.750203" lon="-3.509995">
        <ele>8.0</ele>
        <time>2020-08-13T05:55:15Z</time>
      </trkpt>
      <trkpt lat="47.750709" lon="-3.510452">
        <ele>0.0</ele>
        <time>2020-08-13T05:55:18Z</time>
      </trkpt>
      <trkpt lat="47.751119" lon="-3.510738">
        <ele>11.0</ele>
        <time>2020-08-13T05:55:21Z</time>
      </trkpt>
      <trkpt lat="47.752716" lon="-3.511772">
        <ele>0.67</ele>
        <time>2020-08-13T05:55:31Z</time>
      </trkpt>
      <trkpt lat="47.753216" lon="-3.512057">
        <ele>0.67</ele>
        <time>2020-08-13T05:55:33Z</time>
      </trkpt>
      <trkpt lat="47.753728" lon="-3.512412">
        <ele>0.0</ele>
        <time>2020-08-13T05:55:37Z</time>
      </trkpt>
      <trkpt lat="47.754076" lon="-3.512756">
        <ele>0.0</ele>
        <time>2020-08-13T05:55:39Z</time>
      </trkpt>
      <trkpt lat="47.754314" lon="-3.51305">
        <ele>0.0</ele>
        <time>2020-08-13T05:55:41Z</time>
      </trkpt>
      <trkpt lat="47.755736" lon="-3.515124">
        <ele>0.0</ele>
        <time>2020-08-13T05:55:51Z</time>
      </trkpt>
      <trkpt lat="47.75635" lon="-3.516105">
        <ele>1.33</ele>
        <time>2020-08-13T05:55:56Z</time>
      </trkpt>
      <trkpt lat="47.756575" lon="-3.516642">
        <ele>1.33</ele>
        <time>2020-08-13T05:55:59Z</time>
      </trkpt>
      <trkpt lat="47.756701" lon="-3.517018">
        <ele>5.8</ele>
        <time>2020-08-13T05:56:00Z</time>
      </trkpt>
      <trkpt lat="47.757068" lon="-3.518296">
        <ele>5.0</ele>
        <time>2020-08-13T05:56:05Z</time>
      </trkpt>
      <trkpt lat="47.757169" lon="-3.518567">
        <ele>2.66</ele>
        <time>2020-08-13T05:56:07Z</time>
      </trkpt>
      <trkpt lat="47.757327" lon="-3.518922">
        <ele>2.66</ele>
        <time>2020-08-13T05:56:08Z</time>
      </trkpt>
      <trkpt lat="47.757485" lon="-3.519217">
        <ele>0.0</ele>
        <time>2020-08-13T05:56:09Z</time>
      </trkpt>
      <trkpt lat="47.758077" lon="-3.520054">
        <ele>3.25</ele>
        <time>2020-08-13T05:56:14Z</time>
      </trkpt>
      <trkpt lat="47.758282" lon="-3.520306">
        <ele>3.25</ele>
        <time>2020-08-13T05:56:15Z</time>
      </trkpt>
      <trkpt lat="47.758637" lon="-3.520668">
        <ele>8.8</ele>
        <time>2020-08-13T05:56:18Z</time>
      </trkpt>
      <trkpt lat="47.758901" lon="-3.520871">
        <ele>4.0</ele>
        <time>2020-08-13T05:56:19Z</time>
      </trkpt>
      <trkpt lat="47.759245" lon="-3.521075">
        <ele>7.8</ele>
        <time>2020-08-13T05:56:21Z</time>
      </trkpt>
      <trkpt lat="47.760507" lon="-3.52163">
        <ele>8.8</ele>
        <time>2020-08-13T05:56:29Z</time>
      </trkpt>
      <trkpt lat="47.764927" lon="-3.523701">
        <ele>6.0</ele>
        <time>2020-08-13T05:56:54Z</time>
      </trkpt>
      <trkpt lat="47.765421" lon="-3.523895">
        <ele>6.75</ele>
        <time>2020-08-13T05:56:57Z</time>
      </trkpt>
      <trkpt lat="47.766961" lon="-3.524261">
        <ele>5.0</ele>
        <time>2020-08-13T05:57:06Z</time>
      </trkpt>
      <trkpt lat="47.7672" lon="-3.523681">
        <ele>7.4</ele>
        <time>2020-08-13T05:57:10Z</time>
      </trkpt>
      <trkpt lat="47.767261" lon="-3.523353">
        <ele>7.4</ele>
        <time>2020-08-13T05:57:13Z</time>
      </trkpt>
      <trkpt lat="47.767261" lon="-3.523112">
        <ele>11.4</ele>
        <time>2020-08-13T05:57:14Z</time>
      </trkpt>
      <trkpt lat="47.767172" lon="-3.522411">
        <ele>14.2</ele>
        <time>2020-08-13T05:57:19Z</time>
      </trkpt>
      <trkpt lat="47.767135" lon="-3.521969">
        <ele>14.2</ele>
        <time>2020-08-13T05:57:22Z</time>
      </trkpt>
      <trkpt lat="47.767142" lon="-3.521695">
        <ele>14.2</ele>
        <time>2020-08-13T05:57:24Z</time>
      </trkpt>
      <trkpt lat="47.76717" lon="-3.521535">
        <ele>14.6</ele>
        <time>2020-08-13T05:57:25Z</time>
      </trkpt>
      <trkpt lat="47.767782" lon="-3.520155">
        <ele>16.8</ele>
        <time>2020-08-13T05:57:36Z</time>
      </trkpt>
      <trkpt lat="47.768724" lon="-3.518122">
        <ele>20.0</ele>
        <time>2020-08-13T05:57:53Z</time>
      </trkpt>
      <trkpt lat="47.768732" lon="-3.517966">
        <ele>20.0</ele>
        <time>2020-08-13T05:57:54Z</time>
      </trkpt>
      <trkpt lat="47.768615" lon="-3.517521">
        <ele>20.0</ele>
        <time>2020-08-13T05:57:57Z</time>
      </trkpt>
      <trkpt lat="47.768438" lon="-3.51702">
        <ele>20.8</ele>
        <time>2020-08-13T05:58:01Z</time>
      </trkpt>
      <trkpt lat="47.768379" lon="-3.517012">
        <ele>20.8</ele>
        <time>2020-08-13T05:58:01Z</time>
      </trkpt>
      <trkpt lat="47.768336" lon="-3.516952">
        <ele>20.8</ele>
        <time>2020-08-13T05:58:01Z</time>
      </trkpt>
      <trkpt lat="47.768331" lon="-3.516838">
        <ele>19.2</ele>
        <time>2020-08-13T05:58:02Z</time>
      </trkpt>
      <trkpt lat="47.76841" lon="-3.516751">
        <ele>20.8</ele>
        <time>2020-08-13T05:58:03Z</time>
      </trkpt>
      <trkpt lat="47.768464" lon="-3.516772">
        <ele>20.8</ele>
        <time>2020-08-13T05:58:03Z</time>
      </trkpt>
      <trkpt lat="47.768506" lon="-3.516863">
        <ele>20.8</ele>
        <time>2020-08-13T05:58:04Z</time>
      </trkpt>
      <trkpt lat="47.768828" lon="-3.51681">
        <ele>20.8</ele>
        <time>2020-08-13T05:58:06Z</time>
      </trkpt>
      <trkpt lat="47.76914" lon="-3.516728">
        <ele>20.8</ele>
        <time>2020-08-13T05:58:09Z</time>
      </trkpt>
      <trkpt lat="47.76944" lon="-3.516862">
        <ele>23.8</ele>
        <time>2020-08-13T05:58:11Z</time>
      </trkpt>
      <trkpt lat="47.770179" lon="-3.517035">
        <ele>27.4</ele>
        <time>2020-08-13T05:58:17Z</time>
      </trkpt>
      <trkpt lat="47.770418" lon="-3.517031">
        <ele>27.4</ele>
        <time>2020-08-13T05:58:18Z</time>
      </trkpt>
      <trkpt lat="47.770934" lon="-3.517071">
        <ele>32.6</ele>
        <time>2020-08-13T05:58:22Z</time>
      </trkpt>
      <trkpt lat="47.771699" lon="-3.516975">
        <ele>37.2</ele>
        <time>2020-08-13T05:58:28Z</time>
      </trkpt>
      <trkpt lat="47.772329" lon="-3.516956">
        <ele>37.2</ele>
        <time>2020-08-13T05:58:33Z</time>
      </trkpt>
      <trkpt lat="47.772625" lon="-3.516987">
        <ele>39.8</ele>
        <time>2020-08-13T05:58:35Z</time>
      </trkpt>
      <trkpt lat="47.772772" lon="-3.516966">
        <ele>39.8</ele>
        <time>2020-08-13T05:58:36Z</time>
      </trkpt>
      <trkpt lat="47.772778" lon="-3.516904">
        <ele>39.8</ele>
        <time>2020-08-13T05:58:37Z</time>
      </trkpt>
      <trkpt lat="47.77283" lon="-3.516842">
        <ele>39.8</ele>
        <time>2020-08-13T05:58:37Z</time>
      </trkpt>
      <trkpt lat="47.772899" lon="-3.516875">
        <ele>39.8</ele>
        <time>2020-08-13T05:58:38Z</time>
      </trkpt>
      <trkpt lat="47.772916" lon="-3.516921">
        <ele>39.8</ele>
        <time>2020-08-13T05:58:38Z</time>
      </trkpt>
      <trkpt lat="47.773053" lon="-3.516841">
        <ele>39.8</ele>
        <time>2020-08-13T05:58:40Z</time>
      </trkpt>
      <trkpt lat="47.773856" lon="-3.516666">
        <ele>41.4</ele>
        <time>2020-08-13T05:58:48Z</time>
      </trkpt>
      <trkpt lat="47.774775" lon="-3.516528">
        <ele>41.2</ele>
        <time>2020-08-13T05:58:58Z</time>
      </trkpt>
      <trkpt lat="47.775425" lon="-3.516397">
        <ele>41.4</ele>
        <time>2020-08-13T05:59:04Z</time>
      </trkpt>
      <trkpt lat="47.775505" lon="-3.51642">
        <ele>41.4</ele>
        <time>2020-08-13T05:59:05Z</time>
      </trkpt>
      <trkpt lat="47.775524" lon="-3.516363">
        <ele>41.4</ele>
        <time>2020-08-13T05:59:06Z</time>
      </trkpt>
      <trkpt lat="47.775597" lon="-3.516296">
        <ele>41.4</ele>
        <time>2020-08-13T05:59:07Z</time>
      </trkpt>
      <trkpt lat="47.775641" lon="-3.516295">
        <ele>41.4</ele>
        <time>2020-08-13T05:59:07Z</time>
      </trkpt>
      <trkpt lat="47.775716" lon="-3.516359">
        <ele>41.4</ele>
        <time>2020-08-13T05:59:08Z</time>
      </trkpt>
      <trkpt lat="47.775743" lon="-3.516479">
        <ele>41.4</ele>
        <time>2020-08-13T05:59:09Z</time>
      </trkpt>
      <trkpt lat="47.775781" lon="-3.516474">
        <ele>41.4</ele>
        <time>2020-08-13T05:59:10Z</time>
      </trkpt>
      <trkpt lat="47.776205" lon="-3.516301">
        <ele>42.4</ele>
        <time>2020-08-13T05:59:16Z</time>
      </trkpt>
      <trkpt lat="47.776846" lon="-3.516137">
        <ele>42.0</ele>
        <time>2020-08-13T05:59:24Z</time>
      </trkpt>
      <trkpt lat="47.77707" lon="-3.516043">
        <ele>42.0</ele>
        <time>2020-08-13T05:59:27Z</time>
      </trkpt>
      <trkpt lat="47.777498" lon="-3.51579">
        <ele>44.0</ele>
        <time>2020-08-13T05:59:33Z</time>
      </trkpt>
      <trkpt lat="47.777663" lon="-3.51565">
        <ele>43.4</ele>
        <time>2020-08-13T05:59:35Z</time>
      </trkpt>
      <trkpt lat="47.77791" lon="-3.515374">
        <ele>43.4</ele>
        <time>2020-08-13T05:59:39Z</time>
      </trkpt>
      <trkpt lat="47.778185" lon="-3.514951">
        <ele>45.8</ele>
        <time>2020-08-13T05:59:44Z</time>
      </trkpt>
      <trkpt lat="47.778568" lon="-3.514306">
        <ele>45.0</ele>
        <time>2020-08-13T05:59:51Z</time>
      </trkpt>
      <trkpt lat="47.778728" lon="-3.51402">
        <ele>46.6</ele>
        <time>2020-08-13T05:59:55Z</time>
      </trkpt>
      <trkpt lat="47.778943" lon="-3.513533">
        <ele>46.6</ele>
        <time>2020-08-13T06:00:00Z</time>
      </trkpt>
      <trkpt lat="47.779" lon="-3.513317">
        <ele>47.2</ele>
        <time>2020-08-13T06:00:02Z</time>
      </trkpt>
      <trkpt lat="47.779057" lon="-3.512942">
        <ele>47.2</ele>
        <time>2020-08-13T06:00:05Z</time>
      </trkpt>
      <trkpt lat="47.77914" lon="-3.511412">
        <ele>44.4</ele>
        <time>2020-08-13T06:00:18Z</time>
      </trkpt>
      <trkpt lat="47.77918" lon="-3.511131">
        <ele>45.6</ele>
        <time>2020-08-13T06:00:21Z</time>
      </trkpt>
      <trkpt lat="47.779209" lon="-3.511018">
        <ele>45.6</ele>
        <time>2020-08-13T06:00:22Z</time>
      </trkpt>
      <trkpt lat="47.779259" lon="-3.510905">
        <ele>45.6</ele>
        <time>2020-08-13T06:00:23Z</time>
      </trkpt>
      <trkpt lat="47.779405" lon="-3.510661">
        <ele>43.8</ele>
        <time>2020-08-13T06:00:26Z</time>
      </trkpt>
      <trkpt lat="47.779495" lon="-3.510566">
        <ele>43.8</ele>
        <time>2020-08-13T06:00:27Z</time>
      </trkpt>
      <trkpt lat="47.780468" lon="-3.509752">
        <ele>42.0</ele>
        <time>2020-08-13T06:00:41Z</time>
      </trkpt>
      <trkpt lat="47.780597" lon="-3.509618">
        <ele>42.0</ele>
        <time>2020-08-13T06:00:43Z</time>
      </trkpt>
      <trkpt lat="47.780708" lon="-3.509448">
        <ele>42.0</ele>
        <time>2020-08-13T06:00:45Z</time>
      </trkpt>
      <trkpt lat="47.780785" lon="-3.509291">
        <ele>42.0</ele>
        <time>2020-08-13T06:00:47Z</time>
      </trkpt>
      <trkpt lat="47.780973" lon="-3.508776">
        <ele>40.6</ele>
        <time>2020-08-13T06:00:52Z</time>
      </trkpt>
      <trkpt lat="47.781505" lon="-3.508882">
        <ele>40.6</ele>
        <time>2020-08-13T06:00:58Z</time>
      </trkpt>
      <trkpt lat="47.781904" lon="-3.508901">
        <ele>38.6</ele>
        <time>2020-08-13T06:01:03Z</time>
      </trkpt>
      <trkpt lat="47.783074" lon="-3.508745">
        <ele>35.4</ele>
        <time>2020-08-13T06:01:16Z</time>
      </trkpt>
      <trkpt lat="47.784966" lon="-3.508257">
        <ele>37.2</ele>
        <time>2020-08-13T06:01:39Z</time>
      </trkpt>
      <trkpt lat="47.785152" lon="-3.508186">
        <ele>39.8</ele>
        <time>2020-08-13T06:01:41Z</time>
      </trkpt>
      <trkpt lat="47.785454" lon="-3.50803">
        <ele>39.8</ele>
        <time>2020-08-13T06:01:45Z</time>
      </trkpt>
      <trkpt lat="47.785819" lon="-3.5078">
        <ele>39.8</ele>
        <time>2020-08-13T06:01:49Z</time>
      </trkpt>
      <trkpt lat="47.785959" lon="-3.507739">
        <ele>43.8</ele>
        <time>2020-08-13T06:01:51Z</time>
      </trkpt>
      <trkpt lat="47.786119" lon="-3.507722">
        <ele>43.8</ele>
        <time>2020-08-13T06:01:53Z</time>
      </trkpt>
      <trkpt lat="47.786394" lon="-3.507744">
        <ele>43.8</ele>
        <time>2020-08-13T06:01:56Z</time>
      </trkpt>
      <trkpt lat="47.786725" lon="-3.507809">
        <ele>47.0</ele>
        <time>2020-08-13T06:02:00Z</time>
      </trkpt>
      <trkpt lat="47.789424" lon="-3.508407">
        <ele>48.6</ele>
        <time>2020-08-13T06:02:31Z</time>
      </trkpt>
      <trkpt lat="47.79019" lon="-3.508515">
        <ele>52.2</ele>
        <time>2020-08-13T06:02:40Z</time>
      </trkpt>
      <trkpt lat="47.792557" lon="-3.508771">
        <ele>53.0</ele>
        <time>2020-08-13T06:03:08Z</time>
      </trkpt>
      <trkpt lat="47.794905" lon="-3.508998">
        <ele>51.6</ele>
        <time>2020-08-13T06:03:35Z</time>
      </trkpt>
      <trkpt lat="47.79474" lon="-3.51106">
        <ele>51.4</ele>
        <time>2020-08-13T06:03:43Z</time>
      </trkpt>
      <trkpt lat="47.794699" lon="-3.512198">
        <ele>50.4</ele>
        <time>2020-08-13T06:03:47Z</time>
      </trkpt>
      <trkpt lat="47.794666" lon="-3.512642">
        <ele>49.0</ele>
        <time>2020-08-13T06:03:49Z</time>
      </trkpt>
      <trkpt lat="47.794491" lon="-3.51421">
        <ele>46.2</ele>
        <time>2020-08-13T06:03:55Z</time>
      </trkpt>
      <trkpt lat="47.794429" lon="-3.514645">
        <ele>46.2</ele>
        <time>2020-08-13T06:03:57Z</time>
      </trkpt>
      <trkpt lat="47.794362" lon="-3.514938">
        <ele>46.2</ele>
        <time>2020-08-13T06:03:58Z</time>
      </trkpt>
      <trkpt lat="47.794123" lon="-3.515603">
        <ele>41.6</ele>
        <time>2020-08-13T06:04:01Z</time>
      </trkpt>
      <trkpt lat="47.793861" lon="-3.516148">
        <ele>41.4</ele>
        <time>2020-08-13T06:04:04Z</time>
      </trkpt>
      <trkpt lat="47.792419" lon="-3.518418">
        <ele>32.2</ele>
        <time>2020-08-13T06:04:16Z</time>
      </trkpt>
      <trkpt lat="47.792336" lon="-3.518597">
        <ele>32.2</ele>
        <time>2020-08-13T06:04:16Z</time>
      </trkpt>
      <trkpt lat="47.792261" lon="-3.518813">
        <ele>32.2</ele>
        <time>2020-08-13T06:04:17Z</time>
      </trkpt>
      <trkpt lat="47.792196" lon="-3.519094">
        <ele>32.2</ele>
        <time>2020-08-13T06:04:19Z</time>
      </trkpt>
      <trkpt lat="47.792159" lon="-3.519345">
        <ele>32.6</ele>
        <time>2020-08-13T06:04:20Z</time>
      </trkpt>
      <trkpt lat="47.792123" lon="-3.519749">
        <ele>32.6</ele>
        <time>2020-08-13T06:04:21Z</time>
      </trkpt>
      <trkpt lat="47.79209" lon="-3.521456">
        <ele>30.2</ele>
        <time>2020-08-13T06:04:28Z</time>
      </trkpt>
      <trkpt lat="47.792121" lon="-3.522042">
        <ele>28.0</ele>
        <time>2020-08-13T06:04:30Z</time>
      </trkpt>
      <trkpt lat="47.792166" lon="-3.522351">
        <ele>28.0</ele>
        <time>2020-08-13T06:04:31Z</time>
      </trkpt>
      <trkpt lat="47.792248" lon="-3.5227">
        <ele>27.8</ele>
        <time>2020-08-13T06:04:33Z</time>
      </trkpt>
      <trkpt lat="47.792382" lon="-3.523078">
        <ele>27.8</ele>
        <time>2020-08-13T06:04:34Z</time>
      </trkpt>
      <trkpt lat="47.79265" lon="-3.523569">
        <ele>30.0</ele>
        <time>2020-08-13T06:04:37Z</time>
      </trkpt>
      <trkpt lat="47.792917" lon="-3.523876">
        <ele>30.0</ele>
        <time>2020-08-13T06:04:39Z</time>
      </trkpt>
      <trkpt lat="47.793091" lon="-3.524028">
        <ele>30.0</ele>
        <time>2020-08-13T06:04:40Z</time>
      </trkpt>
      <trkpt lat="47.793344" lon="-3.524182">
        <ele>20.8</ele>
        <time>2020-08-13T06:04:41Z</time>
      </trkpt>
      <trkpt lat="47.793533" lon="-3.524265">
        <ele>20.8</ele>
        <time>2020-08-13T06:04:43Z</time>
      </trkpt>
      <trkpt lat="47.793979" lon="-3.52435">
        <ele>20.8</ele>
        <time>2020-08-13T06:04:45Z</time>
      </trkpt>
      <trkpt lat="47.794161" lon="-3.52435">
        <ele>20.8</ele>
        <time>2020-08-13T06:04:46Z</time>
      </trkpt>
      <trkpt lat="47.794592" lon="-3.524276">
        <ele>18.8</ele>
        <time>2020-08-13T06:04:49Z</time>
      </trkpt>
      <trkpt lat="47.79498" lon="-3.524173">
        <ele>18.8</ele>
        <time>2020-08-13T06:04:51Z</time>
      </trkpt>
      <trkpt lat="47.795915" lon="-3.523829">
        <ele>20.25</ele>
        <time>2020-08-13T06:04:56Z</time>
      </trkpt>
      <trkpt lat="47.796255" lon="-3.523738">
        <ele>20.25</ele>
        <time>2020-08-13T06:04:58Z</time>
      </trkpt>
      <trkpt lat="47.798648" lon="-3.522877">
        <ele>11.8</ele>
        <time>2020-08-13T06:05:13Z</time>
      </trkpt>
      <trkpt lat="47.799058" lon="-3.522893">
        <ele>11.8</ele>
        <time>2020-08-13T06:05:15Z</time>
      </trkpt>
      <trkpt lat="47.799248" lon="-3.522954">
        <ele>22.4</ele>
        <time>2020-08-13T06:05:16Z</time>
      </trkpt>
      <trkpt lat="47.799445" lon="-3.523065">
        <ele>22.4</ele>
        <time>2020-08-13T06:05:17Z</time>
      </trkpt>
      <trkpt lat="47.799714" lon="-3.523255">
        <ele>22.4</ele>
        <time>2020-08-13T06:05:19Z</time>
      </trkpt>
      <trkpt lat="47.799981" lon="-3.523614">
        <ele>31.0</ele>
        <time>2020-08-13T06:05:21Z</time>
      </trkpt>
      <trkpt lat="47.800089" lon="-3.523834">
        <ele>32.0</ele>
        <time>2020-08-13T06:05:22Z</time>
      </trkpt>
      <trkpt lat="47.800214" lon="-3.524135">
        <ele>32.0</ele>
        <time>2020-08-13T06:05:24Z</time>
      </trkpt>
      <trkpt lat="47.800296" lon="-3.524446">
        <ele>35.0</ele>
        <time>2020-08-13T06:05:25Z</time>
      </trkpt>
      <trkpt lat="47.800341" lon="-3.524714">
        <ele>35.0</ele>
        <time>2020-08-13T06:05:26Z</time>
      </trkpt>
      <trkpt lat="47.800386" lon="-3.525128">
        <ele>35.8</ele>
        <time>2020-08-13T06:05:28Z</time>
      </trkpt>
      <trkpt lat="47.80043" lon="-3.527444">
        <ele>39.0</ele>
        <time>2020-08-13T06:05:37Z</time>
      </trkpt>
      <trkpt lat="47.800447" lon="-3.529722">
        <ele>42.2</ele>
        <time>2020-08-13T06:05:45Z</time>
      </trkpt>
      <trkpt lat="47.800437" lon="-3.530338">
        <ele>42.4</ele>
        <time>2020-08-13T06:05:48Z</time>
      </trkpt>
      <trkpt lat="47.800407" lon="-3.530812">
        <ele>42.4</ele>
        <time>2020-08-13T06:05:50Z</time>
      </trkpt>
      <trkpt lat="47.800365" lon="-3.531087">
        <ele>44.2</ele>
        <time>2020-08-13T06:05:51Z</time>
      </trkpt>
      <trkpt lat="47.799944" lon="-3.532755">
        <ele>49.0</ele>
        <time>2020-08-13T06:05:58Z</time>
      </trkpt>
      <trkpt lat="47.799808" lon="-3.533243">
        <ele>49.0</ele>
        <time>2020-08-13T06:06:00Z</time>
      </trkpt>
      <trkpt lat="47.798517" lon="-3.537491">
        <ele>53.2</ele>
        <time>2020-08-13T06:06:18Z</time>
      </trkpt>
      <trkpt lat="47.798322" lon="-3.538062">
        <ele>50.6</ele>
        <time>2020-08-13T06:06:20Z</time>
      </trkpt>
      <trkpt lat="47.797318" lon="-3.541258">
        <ele>48.8</ele>
        <time>2020-08-13T06:06:34Z</time>
      </trkpt>
      <trkpt lat="47.797226" lon="-3.541633">
        <ele>48.8</ele>
        <time>2020-08-13T06:06:35Z</time>
      </trkpt>
      <trkpt lat="47.797188" lon="-3.541863">
        <ele>48.6</ele>
        <time>2020-08-13T06:06:36Z</time>
      </trkpt>
      <trkpt lat="47.797125" lon="-3.54252">
        <ele>50.2</ele>
        <time>2020-08-13T06:06:39Z</time>
      </trkpt>
      <trkpt lat="47.797121" lon="-3.542926">
        <ele>50.2</ele>
        <time>2020-08-13T06:06:40Z</time>
      </trkpt>
      <trkpt lat="47.797172" lon="-3.543533">
        <ele>50.0</ele>
        <time>2020-08-13T06:06:43Z</time>
      </trkpt>
      <trkpt lat="47.797531" lon="-3.545866">
        <ele>48.0</ele>
        <time>2020-08-13T06:06:52Z</time>
      </trkpt>
      <trkpt lat="47.79766" lon="-3.546687">
        <ele>47.8</ele>
        <time>2020-08-13T06:06:55Z</time>
      </trkpt>
      <trkpt lat="47.797749" lon="-3.547148">
        <ele>47.8</ele>
        <time>2020-08-13T06:06:57Z</time>
      </trkpt>
      <trkpt lat="47.797849" lon="-3.547555">
        <ele>48.8</ele>
        <time>2020-08-13T06:06:59Z</time>
      </trkpt>
      <trkpt lat="47.79817" lon="-3.548548">
        <ele>49.6</ele>
        <time>2020-08-13T06:07:03Z</time>
      </trkpt>
      <trkpt lat="47.800323" lon="-3.55469">
        <ele>54.6</ele>
        <time>2020-08-13T06:07:30Z</time>
      </trkpt>
      <trkpt lat="47.800643" lon="-3.555209">
        <ele>54.6</ele>
        <time>2020-08-13T06:07:33Z</time>
      </trkpt>
      <trkpt lat="47.800714" lon="-3.555288">
        <ele>54.6</ele>
        <time>2020-08-13T06:07:33Z</time>
      </trkpt>
      <trkpt lat="47.800732" lon="-3.555387">
        <ele>54.6</ele>
        <time>2020-08-13T06:07:33Z</time>
      </trkpt>
      <trkpt lat="47.800721" lon="-3.555454">
        <ele>54.6</ele>
        <time>2020-08-13T06:07:34Z</time>
      </trkpt>
      <trkpt lat="47.800694" lon="-3.55551">
        <ele>54.6</ele>
        <time>2020-08-13T06:07:34Z</time>
      </trkpt>
      <trkpt lat="47.800619" lon="-3.555558">
        <ele>54.6</ele>
        <time>2020-08-13T06:07:34Z</time>
      </trkpt>
      <trkpt lat="47.800574" lon="-3.555549">
        <ele>54.6</ele>
        <time>2020-08-13T06:07:34Z</time>
      </trkpt>
      <trkpt lat="47.800506" lon="-3.555463">
        <ele>54.6</ele>
        <time>2020-08-13T06:07:35Z</time>
      </trkpt>
      <trkpt lat="47.800442" lon="-3.555512">
        <ele>54.6</ele>
        <time>2020-08-13T06:07:35Z</time>
      </trkpt>
      <trkpt lat="47.800281" lon="-3.555442">
        <ele>54.6</ele>
        <time>2020-08-13T06:07:36Z</time>
      </trkpt>
      <trkpt lat="47.800004" lon="-3.555214">
        <ele>54.6</ele>
        <time>2020-08-13T06:07:37Z</time>
      </trkpt>
      <trkpt lat="47.799793" lon="-3.555234">
        <ele>55.2</ele>
        <time>2020-08-13T06:07:38Z</time>
      </trkpt>
      <trkpt lat="47.79925" lon="-3.555129">
        <ele>55.2</ele>
        <time>2020-08-13T06:07:41Z</time>
      </trkpt>
      <trkpt lat="47.798682" lon="-3.55489">
        <ele>55.6</ele>
        <time>2020-08-13T06:07:44Z</time>
      </trkpt>
      <trkpt lat="47.798264" lon="-3.554438">
        <ele>55.4</ele>
        <time>2020-08-13T06:07:47Z</time>
      </trkpt>
      <trkpt lat="47.798103" lon="-3.554308">
        <ele>55.4</ele>
        <time>2020-08-13T06:07:47Z</time>
      </trkpt>
      <trkpt lat="47.797908" lon="-3.554187">
        <ele>55.4</ele>
        <time>2020-08-13T06:07:48Z</time>
      </trkpt>
      <trkpt lat="47.796712" lon="-3.553775">
        <ele>54.4</ele>
        <time>2020-08-13T06:07:54Z</time>
      </trkpt>
      <trkpt lat="47.796446" lon="-3.553644">
        <ele>52.4</ele>
        <time>2020-08-13T06:07:56Z</time>
      </trkpt>
      <trkpt lat="47.796134" lon="-3.553417">
        <ele>52.4</ele>
        <time>2020-08-13T06:07:58Z</time>
      </trkpt>
      <trkpt lat="47.795386" lon="-3.552791">
        <ele>48.8</ele>
        <time>2020-08-13T06:08:02Z</time>
      </trkpt>
      <trkpt lat="47.795252" lon="-3.552641">
        <ele>48.8</ele>
        <time>2020-08-13T06:08:03Z</time>
      </trkpt>
      <trkpt lat="47.794554" lon="-3.551434">
        <ele>43.6</ele>
        <time>2020-08-13T06:08:08Z</time>
      </trkpt>
      <trkpt lat="47.794444" lon="-3.551295">
        <ele>43.6</ele>
        <time>2020-08-13T06:08:09Z</time>
      </trkpt>
      <trkpt lat="47.794029" lon="-3.551057">
        <ele>40.0</ele>
        <time>2020-08-13T06:08:11Z</time>
      </trkpt>
      <trkpt lat="47.793889" lon="-3.551043">
        <ele>40.0</ele>
        <time>2020-08-13T06:08:11Z</time>
      </trkpt>
      <trkpt lat="47.793099" lon="-3.55115">
        <ele>33.8</ele>
        <time>2020-08-13T06:08:15Z</time>
      </trkpt>
      <trkpt lat="47.792819" lon="-3.551141">
        <ele>33.8</ele>
        <time>2020-08-13T06:08:17Z</time>
      </trkpt>
      <trkpt lat="47.792696" lon="-3.551099">
        <ele>33.8</ele>
        <time>2020-08-13T06:08:17Z</time>
      </trkpt>
      <trkpt lat="47.792494" lon="-3.550885">
        <ele>27.0</ele>
        <time>2020-08-13T06:08:19Z</time>
      </trkpt>
      <trkpt lat="47.792356" lon="-3.550582">
        <ele>27.6</ele>
        <time>2020-08-13T06:08:20Z</time>
      </trkpt>
      <trkpt lat="47.792211" lon="-3.549761">
        <ele>26.6</ele>
        <time>2020-08-13T06:08:23Z</time>
      </trkpt>
      <trkpt lat="47.792164" lon="-3.549576">
        <ele>26.6</ele>
        <time>2020-08-13T06:08:23Z</time>
      </trkpt>
      <trkpt lat="47.792048" lon="-3.549278">
        <ele>26.6</ele>
        <time>2020-08-13T06:08:24Z</time>
      </trkpt>
      <trkpt lat="47.791577" lon="-3.548923">
        <ele>17.2</ele>
        <time>2020-08-13T06:08:27Z</time>
      </trkpt>
      <trkpt lat="47.791161" lon="-3.548719">
        <ele>17.2</ele>
        <time>2020-08-13T06:08:29Z</time>
      </trkpt>
      <trkpt lat="47.79105" lon="-3.548714">
        <ele>17.2</ele>
        <time>2020-08-13T06:08:30Z</time>
      </trkpt>
      <trkpt lat="47.790917" lon="-3.548746">
        <ele>17.2</ele>
        <time>2020-08-13T06:08:30Z</time>
      </trkpt>
      <trkpt lat="47.790744" lon="-3.54887">
        <ele>11.6</ele>
        <time>2020-08-13T06:08:31Z</time>
      </trkpt>
      <trkpt lat="47.790576" lon="-3.549138">
        <ele>11.6</ele>
        <time>2020-08-13T06:08:32Z</time>
      </trkpt>
      <trkpt lat="47.790528" lon="-3.549355">
        <ele>11.8</ele>
        <time>2020-08-13T06:08:33Z</time>
      </trkpt>
      <trkpt lat="47.790497" lon="-3.549637">
        <ele>11.8</ele>
        <time>2020-08-13T06:08:34Z</time>
      </trkpt>
      <trkpt lat="47.790447" lon="-3.549918">
        <ele>11.8</ele>
        <time>2020-08-13T06:08:35Z</time>
      </trkpt>
      <trkpt lat="47.790394" lon="-3.550103">
        <ele>13.2</ele>
        <time>2020-08-13T06:08:36Z</time>
      </trkpt>
      <trkpt lat="47.790287" lon="-3.550295">
        <ele>13.2</ele>
        <time>2020-08-13T06:08:37Z</time>
      </trkpt>
      <trkpt lat="47.790154" lon="-3.550396">
        <ele>13.2</ele>
        <time>2020-08-13T06:08:37Z</time>
      </trkpt>
      <trkpt lat="47.790056" lon="-3.550421">
        <ele>13.2</ele>
        <time>2020-08-13T06:08:38Z</time>
      </trkpt>
      <trkpt lat="47.78991" lon="-3.55042">
        <ele>16.0</ele>
        <time>2020-08-13T06:08:39Z</time>
      </trkpt>
      <trkpt lat="47.789727" lon="-3.550359">
        <ele>16.0</ele>
        <time>2020-08-13T06:08:39Z</time>
      </trkpt>
      <trkpt lat="47.789647" lon="-3.550303">
        <ele>16.0</ele>
        <time>2020-08-13T06:08:40Z</time>
      </trkpt>
      <trkpt lat="47.789514" lon="-3.550152">
        <ele>16.0</ele>
        <time>2020-08-13T06:08:41Z</time>
      </trkpt>
      <trkpt lat="47.789363" lon="-3.549893">
        <ele>16.2</ele>
        <time>2020-08-13T06:08:42Z</time>
      </trkpt>
      <trkpt lat="47.789207" lon="-3.549701">
        <ele>16.2</ele>
        <time>2020-08-13T06:08:43Z</time>
      </trkpt>
      <trkpt lat="47.789025" lon="-3.549587">
        <ele>22.6</ele>
        <time>2020-08-13T06:08:44Z</time>
      </trkpt>
      <trkpt lat="47.788249" lon="-3.549374">
        <ele>26.8</ele>
        <time>2020-08-13T06:08:48Z</time>
      </trkpt>
      <trkpt lat="47.787879" lon="-3.549303">
        <ele>26.8</ele>
        <time>2020-08-13T06:08:50Z</time>
      </trkpt>
      <trkpt lat="47.787125" lon="-3.549108">
        <ele>30.0</ele>
        <time>2020-08-13T06:08:53Z</time>
      </trkpt>
      <trkpt lat="47.78708" lon="-3.549074">
        <ele>30.0</ele>
        <time>2020-08-13T06:08:54Z</time>
      </trkpt>
      <trkpt lat="47.786819" lon="-3.548715">
        <ele>30.0</ele>
        <time>2020-08-13T06:08:55Z</time>
      </trkpt>
      <trkpt lat="47.786178" lon="-3.547619">
        <ele>33.2</ele>
        <time>2020-08-13T06:09:00Z</time>
      </trkpt>
      <trkpt lat="47.785928" lon="-3.547256">
        <ele>33.0</ele>
        <time>2020-08-13T06:09:02Z</time>
      </trkpt>
      <trkpt lat="47.785774" lon="-3.547129">
        <ele>34.6</ele>
        <time>2020-08-13T06:09:03Z</time>
      </trkpt>
      <trkpt lat="47.785268" lon="-3.546786">
        <ele>34.6</ele>
        <time>2020-08-13T06:09:05Z</time>
      </trkpt>
      <trkpt lat="47.784812" lon="-3.546531">
        <ele>37.0</ele>
        <time>2020-08-13T06:09:08Z</time>
      </trkpt>
      <trkpt lat="47.78395" lon="-3.546237">
        <ele>37.8</ele>
        <time>2020-08-13T06:09:12Z</time>
      </trkpt>
      <trkpt lat="47.781514" lon="-3.545964">
        <ele>36.4</ele>
        <time>2020-08-13T06:09:24Z</time>
      </trkpt>
      <trkpt lat="47.781148" lon="-3.545883">
        <ele>36.4</ele>
        <time>2020-08-13T06:09:26Z</time>
      </trkpt>
      <trkpt lat="47.780901" lon="-3.545765">
        <ele>37.0</ele>
        <time>2020-08-13T06:09:27Z</time>
      </trkpt>
      <trkpt lat="47.779676" lon="-3.544884">
        <ele>32.2</ele>
        <time>2020-08-13T06:09:34Z</time>
      </trkpt>
      <trkpt lat="47.77947" lon="-3.54477">
        <ele>32.2</ele>
        <time>2020-08-13T06:09:35Z</time>
      </trkpt>
      <trkpt lat="47.778992" lon="-3.544581">
        <ele>30.8</ele>
        <time>2020-08-13T06:09:37Z</time>
      </trkpt>
      <trkpt lat="47.778146" lon="-3.544426">
        <ele>28.8</ele>
        <time>2020-08-13T06:09:41Z</time>
      </trkpt>
      <trkpt lat="47.778046" lon="-3.544381">
        <ele>28.8</ele>
        <time>2020-08-13T06:09:42Z</time>
      </trkpt>
      <trkpt lat="47.777804" lon="-3.544214">
        <ele>28.8</ele>
        <time>2020-08-13T06:09:43Z</time>
      </trkpt>
      <trkpt lat="47.777162" lon="-3.543511">
        <ele>26.4</ele>
        <time>2020-08-13T06:09:47Z</time>
      </trkpt>
      <trkpt lat="47.776965" lon="-3.543334">
        <ele>26.4</ele>
        <time>2020-08-13T06:09:48Z</time>
      </trkpt>
      <trkpt lat="47.776678" lon="-3.543122">
        <ele>24.0</ele>
        <time>2020-08-13T06:09:50Z</time>
      </trkpt>
      <trkpt lat="47.776526" lon="-3.543066">
        <ele>27.4</ele>
        <time>2020-08-13T06:09:51Z</time>
      </trkpt>
      <trkpt lat="47.776263" lon="-3.543009">
        <ele>27.4</ele>
        <time>2020-08-13T06:09:52Z</time>
      </trkpt>
      <trkpt lat="47.774514" lon="-3.542848">
        <ele>36.6</ele>
        <time>2020-08-13T06:10:01Z</time>
      </trkpt>
      <trkpt lat="47.774045" lon="-3.542786">
        <ele>39.4</ele>
        <time>2020-08-13T06:10:03Z</time>
      </trkpt>
      <trkpt lat="47.773522" lon="-3.542776">
        <ele>39.4</ele>
        <time>2020-08-13T06:10:05Z</time>
      </trkpt>
      <trkpt lat="47.77291" lon="-3.54295">
        <ele>39.2</ele>
        <time>2020-08-13T06:10:09Z</time>
      </trkpt>
      <trkpt lat="47.77292" lon="-3.543052">
        <ele>39.2</ele>
        <time>2020-08-13T06:10:09Z</time>
      </trkpt>
      <trkpt lat="47.772891" lon="-3.543106">
        <ele>39.2</ele>
        <time>2020-08-13T06:10:10Z</time>
      </trkpt>
      <trkpt lat="47.772943" lon="-3.543253">
        <ele>39.2</ele>
        <time>2020-08-13T06:10:11Z</time>
      </trkpt>
      <trkpt lat="47.7734" lon="-3.54381">
        <ele>39.8</ele>
        <time>2020-08-13T06:10:17Z</time>
      </trkpt>
      <trkpt lat="47.773949" lon="-3.544591">
        <ele>39.0</ele>
        <time>2020-08-13T06:10:25Z</time>
      </trkpt>
      <trkpt lat="47.774214" lon="-3.545146">
        <ele>36.6</ele>
        <time>2020-08-13T06:10:29Z</time>
      </trkpt>
      <trkpt lat="47.774446" lon="-3.545746">
        <ele>36.6</ele>
        <time>2020-08-13T06:10:34Z</time>
      </trkpt>
      <trkpt lat="47.774555" lon="-3.546113">
        <ele>33.6</ele>
        <time>2020-08-13T06:10:37Z</time>
      </trkpt>
      <trkpt lat="47.77466" lon="-3.54659">
        <ele>33.6</ele>
        <time>2020-08-13T06:10:40Z</time>
      </trkpt>
      <trkpt lat="47.77516" lon="-3.549129">
        <ele>30.8</ele>
        <time>2020-08-13T06:10:59Z</time>
      </trkpt>
      <trkpt lat="47.775323" lon="-3.549762">
        <ele>31.4</ele>
        <time>2020-08-13T06:11:03Z</time>
      </trkpt>
      <trkpt lat="47.775461" lon="-3.550191">
        <ele>32.5</ele>
        <time>2020-08-13T06:11:07Z</time>
      </trkpt>
      <trkpt lat="47.775461" lon="-3.550191">
        <ele>32.5</ele>
        <time>2020-08-13T06:11:07Z</time>
      </trkpt>
      <trkpt lat="47.776125" lon="-3.552091">
        <ele>36.6</ele>
        <time>2020-08-13T06:11:15Z</time>
      </trkpt>
      <trkpt lat="47.776803" lon="-3.553812">
        <ele>34.8</ele>
        <time>2020-08-13T06:11:24Z</time>
      </trkpt>
      <trkpt lat="47.77718" lon="-3.554651">
        <ele>33.0</ele>
        <time>2020-08-13T06:11:28Z</time>
      </trkpt>
      <trkpt lat="47.777629" lon="-3.555267">
        <ele>34.4</ele>
        <time>2020-08-13T06:11:31Z</time>
      </trkpt>
      <trkpt lat="47.777731" lon="-3.555428">
        <ele>34.4</ele>
        <time>2020-08-13T06:11:32Z</time>
      </trkpt>
      <trkpt lat="47.777952" lon="-3.55586">
        <ele>35.6</ele>
        <time>2020-08-13T06:11:35Z</time>
      </trkpt>
      <trkpt lat="47.779412" lon="-3.559153">
        <ele>38.0</ele>
        <time>2020-08-13T06:11:51Z</time>
      </trkpt>
      <trkpt lat="47.77953" lon="-3.559561">
        <ele>37.8</ele>
        <time>2020-08-13T06:11:53Z</time>
      </trkpt>
      <trkpt lat="47.779962" lon="-3.561326">
        <ele>38.2</ele>
        <time>2020-08-13T06:12:00Z</time>
      </trkpt>
      <trkpt lat="47.780228" lon="-3.562317">
        <ele>42.0</ele>
        <time>2020-08-13T06:12:05Z</time>
      </trkpt>
      <trkpt lat="47.780363" lon="-3.563065">
        <ele>44.2</ele>
        <time>2020-08-13T06:12:08Z</time>
      </trkpt>
      <trkpt lat="47.780609" lon="-3.564764">
        <ele>47.4</ele>
        <time>2020-08-13T06:12:15Z</time>
      </trkpt>
      <trkpt lat="47.781019" lon="-3.566737">
        <ele>51.0</ele>
        <time>2020-08-13T06:12:24Z</time>
      </trkpt>
      <trkpt lat="47.781203" lon="-3.567404">
        <ele>51.0</ele>
        <time>2020-08-13T06:12:26Z</time>
      </trkpt>
      <trkpt lat="47.781459" lon="-3.567962">
        <ele>50.8</ele>
        <time>2020-08-13T06:12:29Z</time>
      </trkpt>
      <trkpt lat="47.781835" lon="-3.568602">
        <ele>51.6</ele>
        <time>2020-08-13T06:12:33Z</time>
      </trkpt>
      <trkpt lat="47.782465" lon="-3.569621">
        <ele>50.8</ele>
        <time>2020-08-13T06:12:38Z</time>
      </trkpt>
      <trkpt lat="47.782912" lon="-3.570496">
        <ele>50.8</ele>
        <time>2020-08-13T06:12:43Z</time>
      </trkpt>
      <trkpt lat="47.782937" lon="-3.570503">
        <ele>50.8</ele>
        <time>2020-08-13T06:12:43Z</time>
      </trkpt>
      <trkpt lat="47.783013" lon="-3.570603">
        <ele>50.8</ele>
        <time>2020-08-13T06:12:44Z</time>
      </trkpt>
      <trkpt lat="47.783028" lon="-3.570752">
        <ele>50.8</ele>
        <time>2020-08-13T06:12:44Z</time>
      </trkpt>
      <trkpt lat="47.782994" lon="-3.57085">
        <ele>50.2</ele>
        <time>2020-08-13T06:12:45Z</time>
      </trkpt>
      <trkpt lat="47.783003" lon="-3.571067">
        <ele>50.2</ele>
        <time>2020-08-13T06:12:45Z</time>
      </trkpt>
      <trkpt lat="47.783129" lon="-3.572166">
        <ele>50.4</ele>
        <time>2020-08-13T06:12:49Z</time>
      </trkpt>
      <trkpt lat="47.783272" lon="-3.573017">
        <ele>50.2</ele>
        <time>2020-08-13T06:12:52Z</time>
      </trkpt>
      <trkpt lat="47.783445" lon="-3.573863">
        <ele>51.8</ele>
        <time>2020-08-13T06:12:55Z</time>
      </trkpt>
      <trkpt lat="47.784052" lon="-3.575853">
        <ele>51.2</ele>
        <time>2020-08-13T06:13:03Z</time>
      </trkpt>
      <trkpt lat="47.784641" lon="-3.577724">
        <ele>52.0</ele>
        <time>2020-08-13T06:13:10Z</time>
      </trkpt>
      <trkpt lat="47.784875" lon="-3.578404">
        <ele>53.2</ele>
        <time>2020-08-13T06:13:13Z</time>
      </trkpt>
      <trkpt lat="47.785357" lon="-3.579451">
        <ele>52.8</ele>
        <time>2020-08-13T06:13:17Z</time>
      </trkpt>
      <trkpt lat="47.78578" lon="-3.580531">
        <ele>53.8</ele>
        <time>2020-08-13T06:13:22Z</time>
      </trkpt>
      <trkpt lat="47.786092" lon="-3.581443">
        <ele>51.4</ele>
        <time>2020-08-13T06:13:25Z</time>
      </trkpt>
      <trkpt lat="47.78619" lon="-3.581656">
        <ele>51.4</ele>
        <time>2020-08-13T06:13:26Z</time>
      </trkpt>
      <trkpt lat="47.786247" lon="-3.581636">
        <ele>51.4</ele>
        <time>2020-08-13T06:13:27Z</time>
      </trkpt>
      <trkpt lat="47.786301" lon="-3.581673">
        <ele>52.0</ele>
        <time>2020-08-13T06:13:27Z</time>
      </trkpt>
      <trkpt lat="47.786329" lon="-3.58175">
        <ele>52.0</ele>
        <time>2020-08-13T06:13:28Z</time>
      </trkpt>
      <trkpt lat="47.786329" lon="-3.581795">
        <ele>52.0</ele>
        <time>2020-08-13T06:13:28Z</time>
      </trkpt>
      <trkpt lat="47.786427" lon="-3.581841">
        <ele>52.0</ele>
        <time>2020-08-13T06:13:29Z</time>
      </trkpt>
      <trkpt lat="47.786958" lon="-3.582205">
        <ele>50.0</ele>
        <time>2020-08-13T06:13:35Z</time>
      </trkpt>
      <trkpt lat="47.78714" lon="-3.58228">
        <ele>50.0</ele>
        <time>2020-08-13T06:13:37Z</time>
      </trkpt>
      <trkpt lat="47.787452" lon="-3.582305">
        <ele>50.0</ele>
        <time>2020-08-13T06:13:40Z</time>
      </trkpt>
      <trkpt lat="47.790049" lon="-3.581903">
        <ele>49.6</ele>
        <time>2020-08-13T06:14:07Z</time>
      </trkpt>
      <trkpt lat="47.790459" lon="-3.581773">
        <ele>49.6</ele>
        <time>2020-08-13T06:14:11Z</time>
      </trkpt>
      <trkpt lat="47.792124" lon="-3.581045">
        <ele>54.2</ele>
        <time>2020-08-13T06:14:29Z</time>
      </trkpt>
      <trkpt lat="47.792326" lon="-3.580975">
        <ele>54.2</ele>
        <time>2020-08-13T06:14:31Z</time>
      </trkpt>
      <trkpt lat="47.792447" lon="-3.580895">
        <ele>54.2</ele>
        <time>2020-08-13T06:14:33Z</time>
      </trkpt>
      <trkpt lat="47.792507" lon="-3.580858">
        <ele>55.2</ele>
        <time>2020-08-13T06:14:34Z</time>
      </trkpt>
      <trkpt lat="47.792545" lon="-3.580885">
        <ele>55.2</ele>
        <time>2020-08-13T06:14:35Z</time>
      </trkpt>
      <trkpt lat="47.792562" lon="-3.580925">
        <ele>55.2</ele>
        <time>2020-08-13T06:14:35Z</time>
      </trkpt>
      <trkpt lat="47.792927" lon="-3.58122">
        <ele>55.2</ele>
        <time>2020-08-13T06:14:43Z</time>
      </trkpt>
      <trkpt lat="47.793467" lon="-3.58179">
        <ele>54.8</ele>
        <time>2020-08-13T06:14:56Z</time>
      </trkpt>
      <trkpt lat="47.793787" lon="-3.582186">
        <ele>54.8</ele>
        <time>2020-08-13T06:15:04Z</time>
      </trkpt>
      <trkpt lat="47.794195" lon="-3.58279">
        <ele>56.2</ele>
        <time>2020-08-13T06:15:15Z</time>
      </trkpt>
      <trkpt lat="47.794296" lon="-3.582978">
        <ele>56.2</ele>
        <time>2020-08-13T06:15:18Z</time>
      </trkpt>
      <trkpt lat="47.79455" lon="-3.583535">
        <ele>55.2</ele>
        <time>2020-08-13T06:15:26Z</time>
      </trkpt>
      <trkpt lat="47.794909" lon="-3.584113">
        <ele>55.2</ele>
        <time>2020-08-13T06:15:36Z</time>
      </trkpt>
      <trkpt lat="47.795427" lon="-3.584893">
        <ele>57.6</ele>
        <time>2020-08-13T06:15:50Z</time>
      </trkpt>
      <trkpt lat="47.795801" lon="-3.585338">
        <ele>57.6</ele>
        <time>2020-08-13T06:15:59Z</time>
      </trkpt>
      <trkpt lat="47.796193" lon="-3.585521">
        <ele>59.4</ele>
        <time>2020-08-13T06:16:07Z</time>
      </trkpt>
      <trkpt lat="47.796417" lon="-3.585556">
        <ele>59.4</ele>
        <time>2020-08-13T06:16:12Z</time>
      </trkpt>
      <trkpt lat="47.796433" lon="-3.585499">
        <ele>59.4</ele>
        <time>2020-08-13T06:16:12Z</time>
      </trkpt>
      <trkpt lat="47.796473" lon="-3.585487">
        <ele>59.4</ele>
        <time>2020-08-13T06:16:12Z</time>
      </trkpt>
      <trkpt lat="47.796502" lon="-3.585531">
        <ele>59.4</ele>
        <time>2020-08-13T06:16:13Z</time>
      </trkpt>
      <trkpt lat="47.796494" lon="-3.585591">
        <ele>59.4</ele>
        <time>2020-08-13T06:16:13Z</time>
      </trkpt>
      <trkpt lat="47.796566" lon="-3.585654">
        <ele>59.4</ele>
        <time>2020-08-13T06:16:14Z</time>
      </trkpt>
      <trkpt lat="47.796601" lon="-3.585624">
        <ele>59.4</ele>
        <time>2020-08-13T06:16:15Z</time>
      </trkpt>
      <trkpt lat="47.796638" lon="-3.585651">
        <ele>59.4</ele>
        <time>2020-08-13T06:16:15Z</time>
      </trkpt>
      <trkpt lat="47.796644" lon="-3.585712">
        <ele>59.4</ele>
        <time>2020-08-13T06:16:15Z</time>
      </trkpt>
      <trkpt lat="47.796618" lon="-3.585749">
        <ele>59.4</ele>
        <time>2020-08-13T06:16:16Z</time>
      </trkpt>
      <trkpt lat="47.797168" lon="-3.586964">
        <ele>57.8</ele>
        <time>2020-08-13T06:16:22Z</time>
      </trkpt>
      <trkpt lat="47.797745" lon="-3.587627">
        <ele>56.4</ele>
        <time>2020-08-13T06:16:27Z</time>
      </trkpt>
      <trkpt lat="47.798023" lon="-3.58812">
        <ele>56.4</ele>
        <time>2020-08-13T06:16:30Z</time>
      </trkpt>
      <trkpt lat="47.798075" lon="-3.588262">
        <ele>56.4</ele>
        <time>2020-08-13T06:16:30Z</time>
      </trkpt>
      <trkpt lat="47.79829" lon="-3.589109">
        <ele>56.8</ele>
        <time>2020-08-13T06:16:34Z</time>
      </trkpt>
      <trkpt lat="47.798845" lon="-3.590542">
        <ele>55.4</ele>
        <time>2020-08-13T06:16:41Z</time>
      </trkpt>
      <trkpt lat="47.800359" lon="-3.594799">
        <ele>58.4</ele>
        <time>2020-08-13T06:17:02Z</time>
      </trkpt>
      <trkpt lat="47.800461" lon="-3.595149">
        <ele>57.8</ele>
        <time>2020-08-13T06:17:04Z</time>
      </trkpt>
      <trkpt lat="47.801287" lon="-3.599947">
        <ele>63.0</ele>
        <time>2020-08-13T06:17:25Z</time>
      </trkpt>
      <trkpt lat="47.801793" lon="-3.602418">
        <ele>65.0</ele>
        <time>2020-08-13T06:17:36Z</time>
      </trkpt>
      <trkpt lat="47.801877" lon="-3.603047">
        <ele>63.8</ele>
        <time>2020-08-13T06:17:39Z</time>
      </trkpt>
      <trkpt lat="47.80189" lon="-3.603609">
        <ele>61.6</ele>
        <time>2020-08-13T06:17:41Z</time>
      </trkpt>
      <trkpt lat="47.801882" lon="-3.603956">
        <ele>61.6</ele>
        <time>2020-08-13T06:17:43Z</time>
      </trkpt>
      <trkpt lat="47.801777" lon="-3.605629">
        <ele>59.4</ele>
        <time>2020-08-13T06:17:50Z</time>
      </trkpt>
      <trkpt lat="47.801732" lon="-3.606633">
        <ele>61.0</ele>
        <time>2020-08-13T06:17:54Z</time>
      </trkpt>
      <trkpt lat="47.80172" lon="-3.607265">
        <ele>61.2</ele>
        <time>2020-08-13T06:17:57Z</time>
      </trkpt>
      <trkpt lat="47.801735" lon="-3.608925">
        <ele>58.8</ele>
        <time>2020-08-13T06:18:04Z</time>
      </trkpt>
      <trkpt lat="47.801791" lon="-3.609897">
        <ele>60.2</ele>
        <time>2020-08-13T06:18:08Z</time>
      </trkpt>
      <trkpt lat="47.801771" lon="-3.610984">
        <ele>60.4</ele>
        <time>2020-08-13T06:18:13Z</time>
      </trkpt>
      <trkpt lat="47.801765" lon="-3.612552">
        <ele>58.4</ele>
        <time>2020-08-13T06:18:20Z</time>
      </trkpt>
      <trkpt lat="47.801782" lon="-3.613214">
        <ele>58.4</ele>
        <time>2020-08-13T06:18:22Z</time>
      </trkpt>
      <trkpt lat="47.801819" lon="-3.613891">
        <ele>58.6</ele>
        <time>2020-08-13T06:18:25Z</time>
      </trkpt>
      <trkpt lat="47.802111" lon="-3.616819">
        <ele>58.4</ele>
        <time>2020-08-13T06:18:38Z</time>
      </trkpt>
      <trkpt lat="47.802689" lon="-3.618625">
        <ele>56.6</ele>
        <time>2020-08-13T06:18:47Z</time>
      </trkpt>
      <trkpt lat="47.804041" lon="-3.623259">
        <ele>54.2</ele>
        <time>2020-08-13T06:19:08Z</time>
      </trkpt>
      <trkpt lat="47.804704" lon="-3.625467">
        <ele>55.0</ele>
        <time>2020-08-13T06:19:19Z</time>
      </trkpt>
      <trkpt lat="47.805077" lon="-3.626656">
        <ele>56.0</ele>
        <time>2020-08-13T06:19:24Z</time>
      </trkpt>
      <trkpt lat="47.805431" lon="-3.627415">
        <ele>55.6</ele>
        <time>2020-08-13T06:19:28Z</time>
      </trkpt>
      <trkpt lat="47.805469" lon="-3.627462">
        <ele>55.6</ele>
        <time>2020-08-13T06:19:29Z</time>
      </trkpt>
      <trkpt lat="47.805501" lon="-3.627469">
        <ele>55.6</ele>
        <time>2020-08-13T06:19:29Z</time>
      </trkpt>
      <trkpt lat="47.805554" lon="-3.627524">
        <ele>56.6</ele>
        <time>2020-08-13T06:19:30Z</time>
      </trkpt>
      <trkpt lat="47.805578" lon="-3.627621">
        <ele>56.6</ele>
        <time>2020-08-13T06:19:30Z</time>
      </trkpt>
      <trkpt lat="47.805572" lon="-3.627677">
        <ele>56.6</ele>
        <time>2020-08-13T06:19:31Z</time>
      </trkpt>
      <trkpt lat="47.805544" lon="-3.627742">
        <ele>56.6</ele>
        <time>2020-08-13T06:19:31Z</time>
      </trkpt>
      <trkpt lat="47.805511" lon="-3.627776">
        <ele>56.6</ele>
        <time>2020-08-13T06:19:32Z</time>
      </trkpt>
      <trkpt lat="47.8055" lon="-3.627836">
        <ele>56.6</ele>
        <time>2020-08-13T06:19:32Z</time>
      </trkpt>
      <trkpt lat="47.805513" lon="-3.628059">
        <ele>56.6</ele>
        <time>2020-08-13T06:19:34Z</time>
      </trkpt>
      <trkpt lat="47.805721" lon="-3.628602">
        <ele>58.8</ele>
        <time>2020-08-13T06:19:38Z</time>
      </trkpt>
      <trkpt lat="47.806003" lon="-3.629439">
        <ele>58.5</ele>
        <time>2020-08-13T06:19:44Z</time>
      </trkpt>
      <trkpt lat="47.806003" lon="-3.629439">
        <ele>58.5</ele>
        <time>2020-08-13T06:19:44Z</time>
      </trkpt>
      <trkpt lat="47.806836" lon="-3.631911">
        <ele>57.8</ele>
        <time>2020-08-13T06:20:03Z</time>
      </trkpt>
      <trkpt lat="47.807447" lon="-3.634027">
        <ele>52.2</ele>
        <time>2020-08-13T06:20:19Z</time>
      </trkpt>
      <trkpt lat="47.808175" lon="-3.63678">
        <ele>46.0</ele>
        <time>2020-08-13T06:20:40Z</time>
      </trkpt>
      <trkpt lat="47.808418" lon="-3.63743">
        <ele>44.8</ele>
        <time>2020-08-13T06:20:45Z</time>
      </trkpt>
      <trkpt lat="47.808477" lon="-3.63768">
        <ele>44.4</ele>
        <time>2020-08-13T06:20:47Z</time>
      </trkpt>
      <trkpt lat="47.808597" lon="-3.638039">
        <ele>44.4</ele>
        <time>2020-08-13T06:20:49Z</time>
      </trkpt>
      <trkpt lat="47.808658" lon="-3.63803">
        <ele>44.4</ele>
        <time>2020-08-13T06:20:50Z</time>
      </trkpt>
      <trkpt lat="47.808685" lon="-3.638054">
        <ele>44.4</ele>
        <time>2020-08-13T06:20:51Z</time>
      </trkpt>
      <trkpt lat="47.808703" lon="-3.63809">
        <ele>44.4</ele>
        <time>2020-08-13T06:20:51Z</time>
      </trkpt>
      <trkpt lat="47.808704" lon="-3.638179">
        <ele>44.4</ele>
        <time>2020-08-13T06:20:52Z</time>
      </trkpt>
      <trkpt lat="47.808661" lon="-3.638241">
        <ele>44.4</ele>
        <time>2020-08-13T06:20:52Z</time>
      </trkpt>
      <trkpt lat="47.808631" lon="-3.638249">
        <ele>44.4</ele>
        <time>2020-08-13T06:20:53Z</time>
      </trkpt>
      <trkpt lat="47.80863" lon="-3.638412">
        <ele>45.4</ele>
        <time>2020-08-13T06:20:54Z</time>
      </trkpt>
      <trkpt lat="47.808523" lon="-3.639576">
        <ele>45.6</ele>
        <time>2020-08-13T06:21:04Z</time>
      </trkpt>
      <trkpt lat="47.808526" lon="-3.643108">
        <ele>48.2</ele>
        <time>2020-08-13T06:21:35Z</time>
      </trkpt>
      <trkpt lat="47.808781" lon="-3.643046">
        <ele>48.2</ele>
        <time>2020-08-13T06:21:37Z</time>
      </trkpt>
      <trkpt lat="47.81003" lon="-3.642503">
        <ele>49.0</ele>
        <time>2020-08-13T06:21:49Z</time>
      </trkpt>
      <trkpt lat="47.810155" lon="-3.642462">
        <ele>48.4</ele>
        <time>2020-08-13T06:21:50Z</time>
      </trkpt>
      <trkpt lat="47.810391" lon="-3.642429">
        <ele>48.4</ele>
        <time>2020-08-13T06:21:52Z</time>
      </trkpt>
      <trkpt lat="47.810496" lon="-3.642444">
        <ele>48.4</ele>
        <time>2020-08-13T06:21:53Z</time>
      </trkpt>
      <trkpt lat="47.810718" lon="-3.642524">
        <ele>49.0</ele>
        <time>2020-08-13T06:21:55Z</time>
      </trkpt>
      <trkpt lat="47.810954" lon="-3.64266">
        <ele>48.6</ele>
        <time>2020-08-13T06:21:57Z</time>
      </trkpt>
      <trkpt lat="47.811745" lon="-3.643236">
        <ele>46.2</ele>
        <time>2020-08-13T06:22:05Z</time>
      </trkpt>
      <trkpt lat="47.812093" lon="-3.643376">
        <ele>45.6</ele>
        <time>2020-08-13T06:22:08Z</time>
      </trkpt>
      <trkpt lat="47.813282" lon="-3.643556">
        <ele>42.6</ele>
        <time>2020-08-13T06:22:18Z</time>
      </trkpt>
      <trkpt lat="47.813531" lon="-3.643671">
        <ele>40.4</ele>
        <time>2020-08-13T06:22:21Z</time>
      </trkpt>
      <trkpt lat="47.813664" lon="-3.643775">
        <ele>40.4</ele>
        <time>2020-08-13T06:22:22Z</time>
      </trkpt>
      <trkpt lat="47.813851" lon="-3.644122">
        <ele>40.4</ele>
        <time>2020-08-13T06:22:25Z</time>
      </trkpt>
      <trkpt lat="47.814018" lon="-3.64438">
        <ele>39.4</ele>
        <time>2020-08-13T06:22:28Z</time>
      </trkpt>
      <trkpt lat="47.814924" lon="-3.646414">
        <ele>37.8</ele>
        <time>2020-08-13T06:22:38Z</time>
      </trkpt>
      <trkpt lat="47.815534" lon="-3.647698">
        <ele>35.6</ele>
        <time>2020-08-13T06:22:45Z</time>
      </trkpt>
      <trkpt lat="47.816952" lon="-3.650762">
        <ele>33.8</ele>
        <time>2020-08-13T06:23:01Z</time>
      </trkpt>
      <trkpt lat="47.81744" lon="-3.652159">
        <ele>34.6</ele>
        <time>2020-08-13T06:23:08Z</time>
      </trkpt>
      <trkpt lat="47.817667" lon="-3.652566">
        <ele>31.8</ele>
        <time>2020-08-13T06:23:11Z</time>
      </trkpt>
      <trkpt lat="47.8178" lon="-3.652725">
        <ele>31.8</ele>
        <time>2020-08-13T06:23:12Z</time>
      </trkpt>
      <trkpt lat="47.818035" lon="-3.6529">
        <ele>31.8</ele>
        <time>2020-08-13T06:23:13Z</time>
      </trkpt>
      <trkpt lat="47.81831" lon="-3.653002">
        <ele>31.8</ele>
        <time>2020-08-13T06:23:15Z</time>
      </trkpt>
      <trkpt lat="47.818518" lon="-3.652987">
        <ele>27.2</ele>
        <time>2020-08-13T06:23:17Z</time>
      </trkpt>
      <trkpt lat="47.818783" lon="-3.652887">
        <ele>27.2</ele>
        <time>2020-08-13T06:23:18Z</time>
      </trkpt>
      <trkpt lat="47.818899" lon="-3.652812">
        <ele>27.2</ele>
        <time>2020-08-13T06:23:19Z</time>
      </trkpt>
      <trkpt lat="47.819093" lon="-3.65264">
        <ele>27.2</ele>
        <time>2020-08-13T06:23:21Z</time>
      </trkpt>
      <trkpt lat="47.819249" lon="-3.652421">
        <ele>22.6</ele>
        <time>2020-08-13T06:23:22Z</time>
      </trkpt>
      <trkpt lat="47.819714" lon="-3.651514">
        <ele>23.4</ele>
        <time>2020-08-13T06:23:27Z</time>
      </trkpt>
      <trkpt lat="47.81981" lon="-3.65137">
        <ele>23.4</ele>
        <time>2020-08-13T06:23:28Z</time>
      </trkpt>
      <trkpt lat="47.82004" lon="-3.651106">
        <ele>13.2</ele>
        <time>2020-08-13T06:23:30Z</time>
      </trkpt>
      <trkpt lat="47.820221" lon="-3.650982">
        <ele>13.2</ele>
        <time>2020-08-13T06:23:31Z</time>
      </trkpt>
      <trkpt lat="47.820442" lon="-3.650908">
        <ele>13.2</ele>
        <time>2020-08-13T06:23:33Z</time>
      </trkpt>
      <trkpt lat="47.820838" lon="-3.650907">
        <ele>5.6</ele>
        <time>2020-08-13T06:23:35Z</time>
      </trkpt>
      <trkpt lat="47.821147" lon="-3.650947">
        <ele>5.6</ele>
        <time>2020-08-13T06:23:37Z</time>
      </trkpt>
      <trkpt lat="47.821448" lon="-3.651016">
        <ele>5.6</ele>
        <time>2020-08-13T06:23:39Z</time>
      </trkpt>
      <trkpt lat="47.821705" lon="-3.651136">
        <ele>3.6</ele>
        <time>2020-08-13T06:23:41Z</time>
      </trkpt>
      <trkpt lat="47.821851" lon="-3.651291">
        <ele>3.6</ele>
        <time>2020-08-13T06:23:42Z</time>
      </trkpt>
      <trkpt lat="47.822027" lon="-3.651577">
        <ele>3.6</ele>
        <time>2020-08-13T06:23:44Z</time>
      </trkpt>
      <trkpt lat="47.823409" lon="-3.654127">
        <ele>14.0</ele>
        <time>2020-08-13T06:23:58Z</time>
      </trkpt>
      <trkpt lat="47.823738" lon="-3.654782">
        <ele>8.8</ele>
        <time>2020-08-13T06:24:01Z</time>
      </trkpt>
      <trkpt lat="47.823913" lon="-3.655241">
        <ele>6.0</ele>
        <time>2020-08-13T06:24:04Z</time>
      </trkpt>
      <trkpt lat="47.824165" lon="-3.656142">
        <ele>3.0</ele>
        <time>2020-08-13T06:24:08Z</time>
      </trkpt>
      <trkpt lat="47.824733" lon="-3.658532">
        <ele>3.4</ele>
        <time>2020-08-13T06:24:19Z</time>
      </trkpt>
      <trkpt lat="47.824844" lon="-3.659242">
        <ele>3.6</ele>
        <time>2020-08-13T06:24:22Z</time>
      </trkpt>
      <trkpt lat="47.824928" lon="-3.659993">
        <ele>3.6</ele>
        <time>2020-08-13T06:24:25Z</time>
      </trkpt>
      <trkpt lat="47.825688" lon="-3.668892">
        <ele>3.6</ele>
        <time>2020-08-13T06:25:04Z</time>
      </trkpt>
      <trkpt lat="47.825765" lon="-3.669443">
        <ele>6.4</ele>
        <time>2020-08-13T06:25:07Z</time>
      </trkpt>
      <trkpt lat="47.825935" lon="-3.670121">
        <ele>7.0</ele>
        <time>2020-08-13T06:25:10Z</time>
      </trkpt>
      <trkpt lat="47.82601" lon="-3.670345">
        <ele>7.0</ele>
        <time>2020-08-13T06:25:11Z</time>
      </trkpt>
      <trkpt lat="47.826176" lon="-3.670776">
        <ele>7.0</ele>
        <time>2020-08-13T06:25:13Z</time>
      </trkpt>
      <trkpt lat="47.826327" lon="-3.671098">
        <ele>5.6</ele>
        <time>2020-08-13T06:25:15Z</time>
      </trkpt>
      <trkpt lat="47.826497" lon="-3.671407">
        <ele>5.6</ele>
        <time>2020-08-13T06:25:17Z</time>
      </trkpt>
      <trkpt lat="47.826672" lon="-3.671671">
        <ele>9.6</ele>
        <time>2020-08-13T06:25:18Z</time>
      </trkpt>
      <trkpt lat="47.827067" lon="-3.672113">
        <ele>9.6</ele>
        <time>2020-08-13T06:25:21Z</time>
      </trkpt>
      <trkpt lat="47.827418" lon="-3.672403">
        <ele>9.6</ele>
        <time>2020-08-13T06:25:24Z</time>
      </trkpt>
      <trkpt lat="47.827874" lon="-3.672676">
        <ele>12.6</ele>
        <time>2020-08-13T06:25:27Z</time>
      </trkpt>
      <trkpt lat="47.82857" lon="-3.672972">
        <ele>12.6</ele>
        <time>2020-08-13T06:25:32Z</time>
      </trkpt>
      <trkpt lat="47.829839" lon="-3.6737">
        <ele>12.6</ele>
        <time>2020-08-13T06:25:41Z</time>
      </trkpt>
      <trkpt lat="47.830511" lon="-3.674187">
        <ele>9.8</ele>
        <time>2020-08-13T06:25:46Z</time>
      </trkpt>
      <trkpt lat="47.830737" lon="-3.674406">
        <ele>9.8</ele>
        <time>2020-08-13T06:25:47Z</time>
      </trkpt>
      <trkpt lat="47.831075" lon="-3.674853">
        <ele>10.4</ele>
        <time>2020-08-13T06:25:50Z</time>
      </trkpt>
      <trkpt lat="47.831374" lon="-3.675399">
        <ele>10.6</ele>
        <time>2020-08-13T06:25:53Z</time>
      </trkpt>
      <trkpt lat="47.83275" lon="-3.678152">
        <ele>25.6</ele>
        <time>2020-08-13T06:26:08Z</time>
      </trkpt>
      <trkpt lat="47.832885" lon="-3.678472">
        <ele>26.4</ele>
        <time>2020-08-13T06:26:10Z</time>
      </trkpt>
      <trkpt lat="47.833004" lon="-3.678812">
        <ele>26.4</ele>
        <time>2020-08-13T06:26:11Z</time>
      </trkpt>
      <trkpt lat="47.833126" lon="-3.679276">
        <ele>26.4</ele>
        <time>2020-08-13T06:26:14Z</time>
      </trkpt>
      <trkpt lat="47.833199" lon="-3.679716">
        <ele>26.4</ele>
        <time>2020-08-13T06:26:16Z</time>
      </trkpt>
      <trkpt lat="47.833245" lon="-3.680295">
        <ele>26.0</ele>
        <time>2020-08-13T06:26:18Z</time>
      </trkpt>
      <trkpt lat="47.833227" lon="-3.680834">
        <ele>27.2</ele>
        <time>2020-08-13T06:26:20Z</time>
      </trkpt>
      <trkpt lat="47.833196" lon="-3.68117">
        <ele>27.2</ele>
        <time>2020-08-13T06:26:22Z</time>
      </trkpt>
      <trkpt lat="47.833064" lon="-3.682156">
        <ele>30.4</ele>
        <time>2020-08-13T06:26:26Z</time>
      </trkpt>
      <trkpt lat="47.833036" lon="-3.68262">
        <ele>34.8</ele>
        <time>2020-08-13T06:26:28Z</time>
      </trkpt>
      <trkpt lat="47.833072" lon="-3.683279">
        <ele>34.8</ele>
        <time>2020-08-13T06:26:31Z</time>
      </trkpt>
      <trkpt lat="47.833136" lon="-3.683706">
        <ele>38.2</ele>
        <time>2020-08-13T06:26:33Z</time>
      </trkpt>
      <trkpt lat="47.833192" lon="-3.683947">
        <ele>38.2</ele>
        <time>2020-08-13T06:26:34Z</time>
      </trkpt>
      <trkpt lat="47.833338" lon="-3.684408">
        <ele>38.2</ele>
        <time>2020-08-13T06:26:36Z</time>
      </trkpt>
      <trkpt lat="47.833485" lon="-3.684753">
        <ele>38.2</ele>
        <time>2020-08-13T06:26:38Z</time>
      </trkpt>
      <trkpt lat="47.833691" lon="-3.685068">
        <ele>41.2</ele>
        <time>2020-08-13T06:26:40Z</time>
      </trkpt>
      <trkpt lat="47.833961" lon="-3.685421">
        <ele>41.2</ele>
        <time>2020-08-13T06:26:42Z</time>
      </trkpt>
      <trkpt lat="47.834162" lon="-3.685637">
        <ele>41.2</ele>
        <time>2020-08-13T06:26:44Z</time>
      </trkpt>
      <trkpt lat="47.834576" lon="-3.686027">
        <ele>38.0</ele>
        <time>2020-08-13T06:26:47Z</time>
      </trkpt>
      <trkpt lat="47.835231" lon="-3.686557">
        <ele>38.2</ele>
        <time>2020-08-13T06:26:52Z</time>
      </trkpt>
      <trkpt lat="47.835486" lon="-3.686671">
        <ele>40.4</ele>
        <time>2020-08-13T06:26:54Z</time>
      </trkpt>
      <trkpt lat="47.835475" lon="-3.686879">
        <ele>40.4</ele>
        <time>2020-08-13T06:26:56Z</time>
      </trkpt>
      <trkpt lat="47.835493" lon="-3.687047">
        <ele>40.4</ele>
        <time>2020-08-13T06:26:57Z</time>
      </trkpt>
      <trkpt lat="47.83562" lon="-3.687402">
        <ele>40.4</ele>
        <time>2020-08-13T06:27:00Z</time>
      </trkpt>
      <trkpt lat="47.835722" lon="-3.687629">
        <ele>41.8</ele>
        <time>2020-08-13T06:27:02Z</time>
      </trkpt>
      <trkpt lat="47.835873" lon="-3.688069">
        <ele>43.8</ele>
        <time>2020-08-13T06:27:05Z</time>
      </trkpt>
      <trkpt lat="47.835956" lon="-3.68823">
        <ele>43.8</ele>
        <time>2020-08-13T06:27:06Z</time>
      </trkpt>
      <trkpt lat="47.836216" lon="-3.688473">
        <ele>44.0</ele>
        <time>2020-08-13T06:27:09Z</time>
      </trkpt>
      <trkpt lat="47.837607" lon="-3.689056">
        <ele>46.8</ele>
        <time>2020-08-13T06:27:24Z</time>
      </trkpt>
      <trkpt lat="47.837713" lon="-3.689125">
        <ele>46.8</ele>
        <time>2020-08-13T06:27:25Z</time>
      </trkpt>
      <trkpt lat="47.838019" lon="-3.689436">
        <ele>47.0</ele>
        <time>2020-08-13T06:27:29Z</time>
      </trkpt>
      <trkpt lat="47.838323" lon="-3.689867">
        <ele>47.0</ele>
        <time>2020-08-13T06:27:34Z</time>
      </trkpt>
      <trkpt lat="47.838576" lon="-3.690317">
        <ele>51.4</ele>
        <time>2020-08-13T06:27:38Z</time>
      </trkpt>
      <trkpt lat="47.838709" lon="-3.690492">
        <ele>51.4</ele>
        <time>2020-08-13T06:27:39Z</time>
      </trkpt>
      <trkpt lat="47.838869" lon="-3.690647">
        <ele>51.4</ele>
        <time>2020-08-13T06:27:41Z</time>
      </trkpt>
      <trkpt lat="47.841444" lon="-3.692606">
        <ele>64.6</ele>
        <time>2020-08-13T06:28:11Z</time>
      </trkpt>
      <trkpt lat="47.842326" lon="-3.693498">
        <ele>67.0</ele>
        <time>2020-08-13T06:28:22Z</time>
      </trkpt>
      <trkpt lat="47.842587" lon="-3.693736">
        <ele>67.4</ele>
        <time>2020-08-13T06:28:25Z</time>
      </trkpt>
      <trkpt lat="47.842779" lon="-3.693849">
        <ele>67.4</ele>
        <time>2020-08-13T06:28:27Z</time>
      </trkpt>
      <trkpt lat="47.842911" lon="-3.693936">
        <ele>67.4</ele>
        <time>2020-08-13T06:28:29Z</time>
      </trkpt>
      <trkpt lat="47.843016" lon="-3.693895">
        <ele>67.4</ele>
        <time>2020-08-13T06:28:30Z</time>
      </trkpt>
      <trkpt lat="47.843082" lon="-3.693918">
        <ele>67.4</ele>
        <time>2020-08-13T06:28:31Z</time>
      </trkpt>
      <trkpt lat="47.843146" lon="-3.694008">
        <ele>67.4</ele>
        <time>2020-08-13T06:28:32Z</time>
      </trkpt>
      <trkpt lat="47.843184" lon="-3.694184">
        <ele>67.4</ele>
        <time>2020-08-13T06:28:34Z</time>
      </trkpt>
      <trkpt lat="47.843178" lon="-3.69433">
        <ele>67.4</ele>
        <time>2020-08-13T06:28:36Z</time>
      </trkpt>
      <trkpt lat="47.843157" lon="-3.69441">
        <ele>67.4</ele>
        <time>2020-08-13T06:28:37Z</time>
      </trkpt>
      <trkpt lat="47.84329" lon="-3.694411">
        <ele>67.4</ele>
        <time>2020-08-13T06:28:39Z</time>
      </trkpt>
      <trkpt lat="47.843618" lon="-3.694468">
        <ele>66.6</ele>
        <time>2020-08-13T06:28:43Z</time>
      </trkpt>
      <trkpt lat="47.844004" lon="-3.694583">
        <ele>66.6</ele>
        <time>2020-08-13T06:28:49Z</time>
      </trkpt>
      <trkpt lat="47.844575" lon="-3.694689">
        <ele>64.8</ele>
        <time>2020-08-13T06:28:58Z</time>
      </trkpt>
      <trkpt lat="47.84467" lon="-3.694762">
        <ele>64.8</ele>
        <time>2020-08-13T06:28:59Z</time>
      </trkpt>
      <trkpt lat="47.8447" lon="-3.69476">
        <ele>64.8</ele>
        <time>2020-08-13T06:29:00Z</time>
      </trkpt>
      <trkpt lat="47.844709" lon="-3.695037">
        <ele>60.6</ele>
        <time>2020-08-13T06:29:02Z</time>
      </trkpt>
      <trkpt lat="47.845236" lon="-3.69576">
        <ele>60.2</ele>
        <time>2020-08-13T06:29:08Z</time>
      </trkpt>
      <trkpt lat="47.846085" lon="-3.696419">
        <ele>54.6</ele>
        <time>2020-08-13T06:29:17Z</time>
      </trkpt>
      <trkpt lat="47.846202" lon="-3.696551">
        <ele>54.6</ele>
        <time>2020-08-13T06:29:18Z</time>
      </trkpt>
      <trkpt lat="47.846342" lon="-3.696861">
        <ele>51.2</ele>
        <time>2020-08-13T06:29:21Z</time>
      </trkpt>
      <trkpt lat="47.846386" lon="-3.697001">
        <ele>51.2</ele>
        <time>2020-08-13T06:29:21Z</time>
      </trkpt>
      <trkpt lat="47.846509" lon="-3.697603">
        <ele>47.4</ele>
        <time>2020-08-13T06:29:25Z</time>
      </trkpt>
      <trkpt lat="47.846602" lon="-3.697898">
        <ele>47.4</ele>
        <time>2020-08-13T06:29:27Z</time>
      </trkpt>
      <trkpt lat="47.846731" lon="-3.698172">
        <ele>47.8</ele>
        <time>2020-08-13T06:29:29Z</time>
      </trkpt>
      <trkpt lat="47.847957" lon="-3.700495">
        <ele>35.0</ele>
        <time>2020-08-13T06:29:48Z</time>
      </trkpt>
      <trkpt lat="47.848022" lon="-3.70066">
        <ele>35.0</ele>
        <time>2020-08-13T06:29:49Z</time>
      </trkpt>
      <trkpt lat="47.848066" lon="-3.700827">
        <ele>35.0</ele>
        <time>2020-08-13T06:29:50Z</time>
      </trkpt>
      <trkpt lat="47.848093" lon="-3.701031">
        <ele>33.6</ele>
        <time>2020-08-13T06:29:51Z</time>
      </trkpt>
      <trkpt lat="47.848091" lon="-3.701218">
        <ele>33.6</ele>
        <time>2020-08-13T06:29:52Z</time>
      </trkpt>
      <trkpt lat="47.848063" lon="-3.70148">
        <ele>33.6</ele>
        <time>2020-08-13T06:29:54Z</time>
      </trkpt>
      <trkpt lat="47.84796" lon="-3.701884">
        <ele>37.8</ele>
        <time>2020-08-13T06:29:57Z</time>
      </trkpt>
      <trkpt lat="47.847891" lon="-3.702041">
        <ele>37.8</ele>
        <time>2020-08-13T06:29:58Z</time>
      </trkpt>
      <trkpt lat="47.847233" lon="-3.702844">
        <ele>37.6</ele>
        <time>2020-08-13T06:30:06Z</time>
      </trkpt>
      <trkpt lat="47.847061" lon="-3.703084">
        <ele>37.6</ele>
        <time>2020-08-13T06:30:08Z</time>
      </trkpt>
      <trkpt lat="47.84687" lon="-3.703424">
        <ele>42.2</ele>
        <time>2020-08-13T06:30:10Z</time>
      </trkpt>
      <trkpt lat="47.846607" lon="-3.704002">
        <ele>37.6</ele>
        <time>2020-08-13T06:30:15Z</time>
      </trkpt>
      <trkpt lat="47.846486" lon="-3.704327">
        <ele>41.0</ele>
        <time>2020-08-13T06:30:17Z</time>
      </trkpt>
      <trkpt lat="47.846404" lon="-3.704633">
        <ele>41.0</ele>
        <time>2020-08-13T06:30:19Z</time>
      </trkpt>
      <trkpt lat="47.846335" lon="-3.704989">
        <ele>41.0</ele>
        <time>2020-08-13T06:30:21Z</time>
      </trkpt>
      <trkpt lat="47.846222" lon="-3.705744">
        <ele>43.6</ele>
        <time>2020-08-13T06:30:26Z</time>
      </trkpt>
      <trkpt lat="47.846153" lon="-3.707011">
        <ele>47.2</ele>
        <time>2020-08-13T06:30:34Z</time>
      </trkpt>
      <trkpt lat="47.846114" lon="-3.708017">
        <ele>49.6</ele>
        <time>2020-08-13T06:30:40Z</time>
      </trkpt>
      <trkpt lat="47.846099" lon="-3.708773">
        <ele>51.8</ele>
        <time>2020-08-13T06:30:45Z</time>
      </trkpt>
      <trkpt lat="47.846115" lon="-3.70951">
        <ele>52.8</ele>
        <time>2020-08-13T06:30:49Z</time>
      </trkpt>
      <trkpt lat="47.846182" lon="-3.710563">
        <ele>53.4</ele>
        <time>2020-08-13T06:30:56Z</time>
      </trkpt>
      <trkpt lat="47.846273" lon="-3.711613">
        <ele>53.4</ele>
        <time>2020-08-13T06:31:02Z</time>
      </trkpt>
      <trkpt lat="47.846613" lon="-3.715186">
        <ele>58.6</ele>
        <time>2020-08-13T06:31:24Z</time>
      </trkpt>
      <trkpt lat="47.846728" lon="-3.716102">
        <ele>65.2</ele>
        <time>2020-08-13T06:31:30Z</time>
      </trkpt>
      <trkpt lat="47.846849" lon="-3.716592">
        <ele>65.2</ele>
        <time>2020-08-13T06:31:33Z</time>
      </trkpt>
      <trkpt lat="47.847884" lon="-3.719346">
        <ele>68.2</ele>
        <time>2020-08-13T06:31:53Z</time>
      </trkpt>
      <trkpt lat="47.848367" lon="-3.720949">
        <ele>68.2</ele>
        <time>2020-08-13T06:32:04Z</time>
      </trkpt>
      <trkpt lat="47.848735" lon="-3.72248">
        <ele>67.6</ele>
        <time>2020-08-13T06:32:13Z</time>
      </trkpt>
      <trkpt lat="47.849148" lon="-3.723999">
        <ele>67.4</ele>
        <time>2020-08-13T06:32:24Z</time>
      </trkpt>
      <trkpt lat="47.850262" lon="-3.726978">
        <ele>67.0</ele>
        <time>2020-08-13T06:32:44Z</time>
      </trkpt>
      <trkpt lat="47.851562" lon="-3.73098">
        <ele>56.6</ele>
        <time>2020-08-13T06:33:12Z</time>
      </trkpt>
      <trkpt lat="47.85182" lon="-3.731802">
        <ele>55.0</ele>
        <time>2020-08-13T06:33:17Z</time>
      </trkpt>
      <trkpt lat="47.852327" lon="-3.733528">
        <ele>51.2</ele>
        <time>2020-08-13T06:33:29Z</time>
      </trkpt>
      <trkpt lat="47.852438" lon="-3.733992">
        <ele>51.2</ele>
        <time>2020-08-13T06:33:32Z</time>
      </trkpt>
      <trkpt lat="47.852478" lon="-3.734382">
        <ele>49.8</ele>
        <time>2020-08-13T06:33:34Z</time>
      </trkpt>
      <trkpt lat="47.852477" lon="-3.735179">
        <ele>48.6</ele>
        <time>2020-08-13T06:33:39Z</time>
      </trkpt>
      <trkpt lat="47.852544" lon="-3.736533">
        <ele>49.2</ele>
        <time>2020-08-13T06:33:48Z</time>
      </trkpt>
      <trkpt lat="47.852579" lon="-3.737049">
        <ele>47.2</ele>
        <time>2020-08-13T06:33:51Z</time>
      </trkpt>
      <trkpt lat="47.852633" lon="-3.737379">
        <ele>47.2</ele>
        <time>2020-08-13T06:33:53Z</time>
      </trkpt>
      <trkpt lat="47.852841" lon="-3.737805">
        <ele>47.0</ele>
        <time>2020-08-13T06:33:56Z</time>
      </trkpt>
      <trkpt lat="47.853049" lon="-3.738029">
        <ele>47.0</ele>
        <time>2020-08-13T06:33:58Z</time>
      </trkpt>
      <trkpt lat="47.853419" lon="-3.738133">
        <ele>44.6</ele>
        <time>2020-08-13T06:34:02Z</time>
      </trkpt>
      <trkpt lat="47.854161" lon="-3.738104">
        <ele>44.6</ele>
        <time>2020-08-13T06:34:09Z</time>
      </trkpt>
      <trkpt lat="47.854729" lon="-3.738051">
        <ele>40.8</ele>
        <time>2020-08-13T06:34:14Z</time>
      </trkpt>
      <trkpt lat="47.855039" lon="-3.738092">
        <ele>36.2</ele>
        <time>2020-08-13T06:34:17Z</time>
      </trkpt>
      <trkpt lat="47.855218" lon="-3.73819">
        <ele>36.2</ele>
        <time>2020-08-13T06:34:19Z</time>
      </trkpt>
      <trkpt lat="47.855496" lon="-3.738429">
        <ele>37.4</ele>
        <time>2020-08-13T06:34:21Z</time>
      </trkpt>
      <trkpt lat="47.855744" lon="-3.73877">
        <ele>37.4</ele>
        <time>2020-08-13T06:34:25Z</time>
      </trkpt>
      <trkpt lat="47.85591" lon="-3.739075">
        <ele>35.8</ele>
        <time>2020-08-13T06:34:27Z</time>
      </trkpt>
      <trkpt lat="47.856073" lon="-3.739498">
        <ele>35.8</ele>
        <time>2020-08-13T06:34:30Z</time>
      </trkpt>
      <trkpt lat="47.856239" lon="-3.740291">
        <ele>36.4</ele>
        <time>2020-08-13T06:34:35Z</time>
      </trkpt>
      <trkpt lat="47.85655" lon="-3.742177">
        <ele>37.4</ele>
        <time>2020-08-13T06:34:47Z</time>
      </trkpt>
      <trkpt lat="47.856653" lon="-3.742692">
        <ele>35.8</ele>
        <time>2020-08-13T06:34:50Z</time>
      </trkpt>
      <trkpt lat="47.856997" lon="-3.744019">
        <ele>23.6</ele>
        <time>2020-08-13T06:34:59Z</time>
      </trkpt>
      <trkpt lat="47.85702" lon="-3.74428">
        <ele>18.4</ele>
        <time>2020-08-13T06:35:01Z</time>
      </trkpt>
      <trkpt lat="47.856995" lon="-3.744416">
        <ele>18.4</ele>
        <time>2020-08-13T06:35:02Z</time>
      </trkpt>
      <trkpt lat="47.856495" lon="-3.745298">
        <ele>19.4</ele>
        <time>2020-08-13T06:35:13Z</time>
      </trkpt>
      <trkpt lat="47.856281" lon="-3.745844">
        <ele>13.8</ele>
        <time>2020-08-13T06:35:20Z</time>
      </trkpt>
      <trkpt lat="47.856143" lon="-3.746127">
        <ele>13.8</ele>
        <time>2020-08-13T06:35:23Z</time>
      </trkpt>
      <trkpt lat="47.856045" lon="-3.746268">
        <ele>13.8</ele>
        <time>2020-08-13T06:35:25Z</time>
      </trkpt>
      <trkpt lat="47.855656" lon="-3.746704">
        <ele>11.0</ele>
        <time>2020-08-13T06:35:32Z</time>
      </trkpt>
      <trkpt lat="47.855533" lon="-3.746911">
        <ele>11.0</ele>
        <time>2020-08-13T06:35:35Z</time>
      </trkpt>
      <trkpt lat="47.855446" lon="-3.74717">
        <ele>11.0</ele>
        <time>2020-08-13T06:35:38Z</time>
      </trkpt>
      <trkpt lat="47.85534" lon="-3.747588">
        <ele>12.8</ele>
        <time>2020-08-13T06:35:42Z</time>
      </trkpt>
      <trkpt lat="47.855367" lon="-3.747944">
        <ele>12.8</ele>
        <time>2020-08-13T06:35:46Z</time>
      </trkpt>
      <trkpt lat="47.855499" lon="-3.748274">
        <ele>12.8</ele>
        <time>2020-08-13T06:35:50Z</time>
      </trkpt>
      <trkpt lat="47.855763" lon="-3.749206">
        <ele>32.4</ele>
        <time>2020-08-13T06:36:00Z</time>
      </trkpt>
      <trkpt lat="47.855819" lon="-3.750224">
        <ele>36.8</ele>
        <time>2020-08-13T06:36:10Z</time>
      </trkpt>
      <trkpt lat="47.855884" lon="-3.750447">
        <ele>31.0</ele>
        <time>2020-08-13T06:36:13Z</time>
      </trkpt>
      <trkpt lat="47.856221" lon="-3.751277">
        <ele>32.4</ele>
        <time>2020-08-13T06:36:22Z</time>
      </trkpt>
      <trkpt lat="47.856345" lon="-3.751736">
        <ele>34.8</ele>
        <time>2020-08-13T06:36:27Z</time>
      </trkpt>
      <trkpt lat="47.856471" lon="-3.752319">
        <ele>34.8</ele>
        <time>2020-08-13T06:36:33Z</time>
      </trkpt>
      <trkpt lat="47.856554" lon="-3.752813">
        <ele>36.4</ele>
        <time>2020-08-13T06:36:38Z</time>
      </trkpt>
      <trkpt lat="47.856592" lon="-3.753194">
        <ele>36.4</ele>
        <time>2020-08-13T06:36:42Z</time>
      </trkpt>
      <trkpt lat="47.856589" lon="-3.753707">
        <ele>37.0</ele>
        <time>2020-08-13T06:36:47Z</time>
      </trkpt>
      <trkpt lat="47.85642" lon="-3.754914">
        <ele>38.6</ele>
        <time>2020-08-13T06:36:59Z</time>
      </trkpt>
      <trkpt lat="47.856359" lon="-3.755551">
        <ele>40.8</ele>
        <time>2020-08-13T06:37:06Z</time>
      </trkpt>
      <trkpt lat="47.856344" lon="-3.75708">
        <ele>43.2</ele>
        <time>2020-08-13T06:37:21Z</time>
      </trkpt>
      <trkpt lat="47.856317" lon="-3.757309">
        <ele>43.2</ele>
        <time>2020-08-13T06:37:23Z</time>
      </trkpt>
      <trkpt lat="47.856263" lon="-3.75752">
        <ele>43.8</ele>
        <time>2020-08-13T06:37:26Z</time>
      </trkpt>
      <trkpt lat="47.856288" lon="-3.757715">
        <ele>43.8</ele>
        <time>2020-08-13T06:37:28Z</time>
      </trkpt>
      <trkpt lat="47.856369" lon="-3.757764">
        <ele>43.8</ele>
        <time>2020-08-13T06:37:29Z</time>
      </trkpt>
      <trkpt lat="47.856396" lon="-3.75785">
        <ele>43.8</ele>
        <time>2020-08-13T06:37:29Z</time>
      </trkpt>
      <trkpt lat="47.856383" lon="-3.75795">
        <ele>43.8</ele>
        <time>2020-08-13T06:37:30Z</time>
      </trkpt>
      <trkpt lat="47.85633" lon="-3.758015">
        <ele>43.8</ele>
        <time>2020-08-13T06:37:30Z</time>
      </trkpt>
      <trkpt lat="47.856296" lon="-3.758025">
        <ele>43.8</ele>
        <time>2020-08-13T06:37:30Z</time>
      </trkpt>
      <trkpt lat="47.856323" lon="-3.758359">
        <ele>44.4</ele>
        <time>2020-08-13T06:37:32Z</time>
      </trkpt>
      <trkpt lat="47.856283" lon="-3.760401">
        <ele>46.6</ele>
        <time>2020-08-13T06:37:41Z</time>
      </trkpt>
      <trkpt lat="47.856056" lon="-3.762686">
        <ele>47.6</ele>
        <time>2020-08-13T06:37:51Z</time>
      </trkpt>
      <trkpt lat="47.855901" lon="-3.763925">
        <ele>46.8</ele>
        <time>2020-08-13T06:37:57Z</time>
      </trkpt>
      <trkpt lat="47.855818" lon="-3.764837">
        <ele>47.2</ele>
        <time>2020-08-13T06:38:01Z</time>
      </trkpt>
      <trkpt lat="47.855768" lon="-3.765627">
        <ele>46.2</ele>
        <time>2020-08-13T06:38:04Z</time>
      </trkpt>
      <trkpt lat="47.855741" lon="-3.766487">
        <ele>46.2</ele>
        <time>2020-08-13T06:38:08Z</time>
      </trkpt>
      <trkpt lat="47.855746" lon="-3.767275">
        <ele>47.4</ele>
        <time>2020-08-13T06:38:12Z</time>
      </trkpt>
      <trkpt lat="47.855787" lon="-3.767926">
        <ele>48.0</ele>
        <time>2020-08-13T06:38:15Z</time>
      </trkpt>
      <trkpt lat="47.85588" lon="-3.768967">
        <ele>49.8</ele>
        <time>2020-08-13T06:38:19Z</time>
      </trkpt>
      <trkpt lat="47.855933" lon="-3.769391">
        <ele>49.4</ele>
        <time>2020-08-13T06:38:21Z</time>
      </trkpt>
      <trkpt lat="47.856767" lon="-3.773925">
        <ele>52.6</ele>
        <time>2020-08-13T06:38:42Z</time>
      </trkpt>
      <trkpt lat="47.857065" lon="-3.775303">
        <ele>55.0</ele>
        <time>2020-08-13T06:38:49Z</time>
      </trkpt>
      <trkpt lat="47.857164" lon="-3.775685">
        <ele>55.0</ele>
        <time>2020-08-13T06:38:51Z</time>
      </trkpt>
      <trkpt lat="47.85725" lon="-3.775898">
        <ele>55.6</ele>
        <time>2020-08-13T06:38:52Z</time>
      </trkpt>
      <trkpt lat="47.857296" lon="-3.775958">
        <ele>55.6</ele>
        <time>2020-08-13T06:38:52Z</time>
      </trkpt>
      <trkpt lat="47.857285" lon="-3.776038">
        <ele>55.6</ele>
        <time>2020-08-13T06:38:52Z</time>
      </trkpt>
      <trkpt lat="47.85732" lon="-3.776385">
        <ele>55.6</ele>
        <time>2020-08-13T06:38:54Z</time>
      </trkpt>
      <trkpt lat="47.857614" lon="-3.777604">
        <ele>55.8</ele>
        <time>2020-08-13T06:38:59Z</time>
      </trkpt>
      <trkpt lat="47.857642" lon="-3.77807">
        <ele>55.8</ele>
        <time>2020-08-13T06:39:00Z</time>
      </trkpt>
      <trkpt lat="47.857635" lon="-3.778266">
        <ele>55.8</ele>
        <time>2020-08-13T06:39:01Z</time>
      </trkpt>
      <trkpt lat="47.857597" lon="-3.778576">
        <ele>53.6</ele>
        <time>2020-08-13T06:39:02Z</time>
      </trkpt>
      <trkpt lat="47.857516" lon="-3.778996">
        <ele>53.6</ele>
        <time>2020-08-13T06:39:04Z</time>
      </trkpt>
      <trkpt lat="47.856881" lon="-3.781794">
        <ele>53.0</ele>
        <time>2020-08-13T06:39:15Z</time>
      </trkpt>
      <trkpt lat="47.85665" lon="-3.782745">
        <ele>49.4</ele>
        <time>2020-08-13T06:39:19Z</time>
      </trkpt>
      <trkpt lat="47.856296" lon="-3.78455">
        <ele>49.0</ele>
        <time>2020-08-13T06:39:26Z</time>
      </trkpt>
      <trkpt lat="47.855774" lon="-3.787477">
        <ele>47.4</ele>
        <time>2020-08-13T06:39:38Z</time>
      </trkpt>
      <trkpt lat="47.855625" lon="-3.788119">
        <ele>45.8</ele>
        <time>2020-08-13T06:39:40Z</time>
      </trkpt>
      <trkpt lat="47.855467" lon="-3.78852">
        <ele>43.8</ele>
        <time>2020-08-13T06:39:42Z</time>
      </trkpt>
      <trkpt lat="47.855099" lon="-3.78924">
        <ele>42.2</ele>
        <time>2020-08-13T06:39:45Z</time>
      </trkpt>
      <trkpt lat="47.854905" lon="-3.789675">
        <ele>41.4</ele>
        <time>2020-08-13T06:39:47Z</time>
      </trkpt>
      <trkpt lat="47.85483" lon="-3.789886">
        <ele>41.4</ele>
        <time>2020-08-13T06:39:48Z</time>
      </trkpt>
      <trkpt lat="47.854771" lon="-3.790113">
        <ele>40.4</ele>
        <time>2020-08-13T06:39:49Z</time>
      </trkpt>
      <trkpt lat="47.854685" lon="-3.790606">
        <ele>40.4</ele>
        <time>2020-08-13T06:39:51Z</time>
      </trkpt>
      <trkpt lat="47.854518" lon="-3.79203">
        <ele>38.8</ele>
        <time>2020-08-13T06:39:57Z</time>
      </trkpt>
      <trkpt lat="47.85445" lon="-3.793161">
        <ele>38.6</ele>
        <time>2020-08-13T06:40:01Z</time>
      </trkpt>
      <trkpt lat="47.85425" lon="-3.798401">
        <ele>41.6</ele>
        <time>2020-08-13T06:40:21Z</time>
      </trkpt>
      <trkpt lat="47.854008" lon="-3.805504">
        <ele>41.6</ele>
        <time>2020-08-13T06:40:48Z</time>
      </trkpt>
      <trkpt lat="47.853787" lon="-3.811362">
        <ele>44.6</ele>
        <time>2020-08-13T06:41:10Z</time>
      </trkpt>
      <trkpt lat="47.853678" lon="-3.814842">
        <ele>48.2</ele>
        <time>2020-08-13T06:41:23Z</time>
      </trkpt>
      <trkpt lat="47.853375" lon="-3.822878">
        <ele>44.4</ele>
        <time>2020-08-13T06:41:54Z</time>
      </trkpt>
      <trkpt lat="47.853289" lon="-3.823638">
        <ele>46.4</ele>
        <time>2020-08-13T06:41:56Z</time>
      </trkpt>
      <trkpt lat="47.853007" lon="-3.825456">
        <ele>50.2</ele>
        <time>2020-08-13T06:42:04Z</time>
      </trkpt>
      <trkpt lat="47.852755" lon="-3.826918">
        <ele>52.6</ele>
        <time>2020-08-13T06:42:09Z</time>
      </trkpt>
      <trkpt lat="47.852719" lon="-3.827411">
        <ele>52.6</ele>
        <time>2020-08-13T06:42:11Z</time>
      </trkpt>
      <trkpt lat="47.852779" lon="-3.828071">
        <ele>52.6</ele>
        <time>2020-08-13T06:42:14Z</time>
      </trkpt>
      <trkpt lat="47.852883" lon="-3.828707">
        <ele>53.0</ele>
        <time>2020-08-13T06:42:16Z</time>
      </trkpt>
      <trkpt lat="47.85301" lon="-3.829195">
        <ele>52.8</ele>
        <time>2020-08-13T06:42:18Z</time>
      </trkpt>
      <trkpt lat="47.853248" lon="-3.829998">
        <ele>52.8</ele>
        <time>2020-08-13T06:42:21Z</time>
      </trkpt>
      <trkpt lat="47.853335" lon="-3.83051">
        <ele>50.2</ele>
        <time>2020-08-13T06:42:23Z</time>
      </trkpt>
      <trkpt lat="47.853387" lon="-3.831171">
        <ele>50.6</ele>
        <time>2020-08-13T06:42:26Z</time>
      </trkpt>
      <trkpt lat="47.8534" lon="-3.832257">
        <ele>50.4</ele>
        <time>2020-08-13T06:42:30Z</time>
      </trkpt>
      <trkpt lat="47.853386" lon="-3.833583">
        <ele>51.6</ele>
        <time>2020-08-13T06:42:35Z</time>
      </trkpt>
      <trkpt lat="47.8534" lon="-3.834259">
        <ele>52.8</ele>
        <time>2020-08-13T06:42:38Z</time>
      </trkpt>
      <trkpt lat="47.85344" lon="-3.834633">
        <ele>52.8</ele>
        <time>2020-08-13T06:42:39Z</time>
      </trkpt>
      <trkpt lat="47.853622" lon="-3.83534">
        <ele>53.0</ele>
        <time>2020-08-13T06:42:42Z</time>
      </trkpt>
      <trkpt lat="47.853765" lon="-3.836083">
        <ele>52.4</ele>
        <time>2020-08-13T06:42:45Z</time>
      </trkpt>
      <trkpt lat="47.854454" lon="-3.84058">
        <ele>49.8</ele>
        <time>2020-08-13T06:43:02Z</time>
      </trkpt>
      <trkpt lat="47.854625" lon="-3.842263">
        <ele>45.2</ele>
        <time>2020-08-13T06:43:09Z</time>
      </trkpt>
      <trkpt lat="47.854899" lon="-3.845274">
        <ele>39.4</ele>
        <time>2020-08-13T06:43:20Z</time>
      </trkpt>
      <trkpt lat="47.855022" lon="-3.846191">
        <ele>40.8</ele>
        <time>2020-08-13T06:43:24Z</time>
      </trkpt>
      <trkpt lat="47.855043" lon="-3.84664">
        <ele>40.8</ele>
        <time>2020-08-13T06:43:26Z</time>
      </trkpt>
      <trkpt lat="47.855026" lon="-3.847035">
        <ele>41.2</ele>
        <time>2020-08-13T06:43:27Z</time>
      </trkpt>
      <trkpt lat="47.854901" lon="-3.848267">
        <ele>38.4</ele>
        <time>2020-08-13T06:43:32Z</time>
      </trkpt>
      <trkpt lat="47.854859" lon="-3.848524">
        <ele>37.2</ele>
        <time>2020-08-13T06:43:33Z</time>
      </trkpt>
      <trkpt lat="47.854762" lon="-3.849462">
        <ele>36.2</ele>
        <time>2020-08-13T06:43:36Z</time>
      </trkpt>
      <trkpt lat="47.854961" lon="-3.850307">
        <ele>36.6</ele>
        <time>2020-08-13T06:43:40Z</time>
      </trkpt>
      <trkpt lat="47.855023" lon="-3.850687">
        <ele>40.0</ele>
        <time>2020-08-13T06:43:41Z</time>
      </trkpt>
      <trkpt lat="47.85504" lon="-3.850908">
        <ele>40.6</ele>
        <time>2020-08-13T06:43:42Z</time>
      </trkpt>
      <trkpt lat="47.85505" lon="-3.85147">
        <ele>40.6</ele>
        <time>2020-08-13T06:43:44Z</time>
      </trkpt>
      <trkpt lat="47.85514" lon="-3.851972">
        <ele>41.0</ele>
        <time>2020-08-13T06:43:46Z</time>
      </trkpt>
      <trkpt lat="47.85521" lon="-3.852063">
        <ele>41.0</ele>
        <time>2020-08-13T06:43:48Z</time>
      </trkpt>
      <trkpt lat="47.855433" lon="-3.852225">
        <ele>41.0</ele>
        <time>2020-08-13T06:43:52Z</time>
      </trkpt>
      <trkpt lat="47.855473" lon="-3.852281">
        <ele>41.0</ele>
        <time>2020-08-13T06:43:53Z</time>
      </trkpt>
      <trkpt lat="47.855494" lon="-3.852346">
        <ele>41.0</ele>
        <time>2020-08-13T06:43:54Z</time>
      </trkpt>
      <trkpt lat="47.855525" lon="-3.852793">
        <ele>39.0</ele>
        <time>2020-08-13T06:43:59Z</time>
      </trkpt>
      <trkpt lat="47.855576" lon="-3.852912">
        <ele>39.0</ele>
        <time>2020-08-13T06:44:00Z</time>
      </trkpt>
      <trkpt lat="47.855756" lon="-3.85307">
        <ele>39.0</ele>
        <time>2020-08-13T06:44:04Z</time>
      </trkpt>
      <trkpt lat="47.855465" lon="-3.854392">
        <ele>33.0</ele>
        <time>2020-08-13T06:44:21Z</time>
      </trkpt>
      <trkpt lat="47.855529" lon="-3.854608">
        <ele>33.0</ele>
        <time>2020-08-13T06:44:24Z</time>
      </trkpt>
      <trkpt lat="47.855537" lon="-3.854698">
        <ele>33.0</ele>
        <time>2020-08-13T06:44:25Z</time>
      </trkpt>
      <trkpt lat="47.855423" lon="-3.855154">
        <ele>31.2</ele>
        <time>2020-08-13T06:44:31Z</time>
      </trkpt>
      <trkpt lat="47.855327" lon="-3.855414">
        <ele>31.2</ele>
        <time>2020-08-13T06:44:35Z</time>
      </trkpt>
      <trkpt lat="47.855146" lon="-3.855577">
        <ele>31.2</ele>
        <time>2020-08-13T06:44:39Z</time>
      </trkpt>
      <trkpt lat="47.85487" lon="-3.855688">
        <ele>29.8</ele>
        <time>2020-08-13T06:44:44Z</time>
      </trkpt>
      <trkpt lat="47.854897" lon="-3.856237">
        <ele>26.8</ele>
        <time>2020-08-13T06:44:51Z</time>
      </trkpt>
      <trkpt lat="47.85489" lon="-3.856793">
        <ele>22.8</ele>
        <time>2020-08-13T06:44:58Z</time>
      </trkpt>
      <trkpt lat="47.854812" lon="-3.857187">
        <ele>22.8</ele>
        <time>2020-08-13T06:45:03Z</time>
      </trkpt>
      <trkpt lat="47.854604" lon="-3.857998">
        <ele>21.0</ele>
        <time>2020-08-13T06:45:14Z</time>
      </trkpt>
      <trkpt lat="47.854873" lon="-3.858121">
        <ele>21.0</ele>
        <time>2020-08-13T06:45:19Z</time>
      </trkpt>
      <trkpt lat="47.855101" lon="-3.858178">
        <ele>23.6</ele>
        <time>2020-08-13T06:45:23Z</time>
      </trkpt>
      <trkpt lat="47.855101" lon="-3.858178">
        <ele>23.6</ele>
        <time>2020-08-13T06:45:23Z</time>
      </trkpt>
      <trkpt lat="47.855273" lon="-3.858187">
        <ele>23.6</ele>
        <time>2020-08-13T06:45:26Z</time>
      </trkpt>
      <trkpt lat="47.855863" lon="-3.857922">
        <ele>25.8</ele>
        <time>2020-08-13T06:45:37Z</time>
      </trkpt>
      <trkpt lat="47.856055" lon="-3.857854">
        <ele>25.8</ele>
        <time>2020-08-13T06:45:41Z</time>
      </trkpt>
      <trkpt lat="47.856316" lon="-3.857797">
        <ele>25.8</ele>
        <time>2020-08-13T06:45:46Z</time>
      </trkpt>
      <trkpt lat="47.856591" lon="-3.85784">
        <ele>25.8</ele>
        <time>2020-08-13T06:45:51Z</time>
      </trkpt>
      <trkpt lat="47.856749" lon="-3.857787">
        <ele>25.2</ele>
        <time>2020-08-13T06:45:54Z</time>
      </trkpt>
      <trkpt lat="47.856777" lon="-3.857734">
        <ele>25.2</ele>
        <time>2020-08-13T06:45:54Z</time>
      </trkpt>
      <trkpt lat="47.856823" lon="-3.857695">
        <ele>25.2</ele>
        <time>2020-08-13T06:45:55Z</time>
      </trkpt>
      <trkpt lat="47.856876" lon="-3.857686">
        <ele>25.2</ele>
        <time>2020-08-13T06:45:55Z</time>
      </trkpt>
      <trkpt lat="47.856934" lon="-3.857716">
        <ele>25.2</ele>
        <time>2020-08-13T06:45:56Z</time>
      </trkpt>
      <trkpt lat="47.856973" lon="-3.857773">
        <ele>25.2</ele>
        <time>2020-08-13T06:45:57Z</time>
      </trkpt>
      <trkpt lat="47.856995" lon="-3.857898">
        <ele>25.2</ele>
        <time>2020-08-13T06:45:58Z</time>
      </trkpt>
      <trkpt lat="47.856977" lon="-3.857981">
        <ele>25.2</ele>
        <time>2020-08-13T06:45:58Z</time>
      </trkpt>
      <trkpt lat="47.856936" lon="-3.858045">
        <ele>25.2</ele>
        <time>2020-08-13T06:45:59Z</time>
      </trkpt>
      <trkpt lat="47.856921" lon="-3.858195">
        <ele>25.2</ele>
        <time>2020-08-13T06:46:00Z</time>
      </trkpt>
      <trkpt lat="47.856833" lon="-3.858506">
        <ele>23.6</ele>
        <time>2020-08-13T06:46:03Z</time>
      </trkpt>
      <trkpt lat="47.856531" lon="-3.86009">
        <ele>22.4</ele>
        <time>2020-08-13T06:46:15Z</time>
      </trkpt>
      <trkpt lat="47.856497" lon="-3.860469">
        <ele>22.4</ele>
        <time>2020-08-13T06:46:18Z</time>
      </trkpt>
      <trkpt lat="47.856469" lon="-3.86135">
        <ele>22.8</ele>
        <time>2020-08-13T06:46:25Z</time>
      </trkpt>
      <trkpt lat="47.856464" lon="-3.862631">
        <ele>19.8</ele>
        <time>2020-08-13T06:46:35Z</time>
      </trkpt>
      <trkpt lat="47.856482" lon="-3.863852">
        <ele>19.0</ele>
        <time>2020-08-13T06:46:44Z</time>
      </trkpt>
      <trkpt lat="47.856539" lon="-3.864162">
        <ele>19.0</ele>
        <time>2020-08-13T06:46:47Z</time>
      </trkpt>
      <trkpt lat="47.856557" lon="-3.86419">
        <ele>20.2</ele>
        <time>2020-08-13T06:46:47Z</time>
      </trkpt>
      <trkpt lat="47.856555" lon="-3.864325">
        <ele>20.2</ele>
        <time>2020-08-13T06:46:48Z</time>
      </trkpt>
      <trkpt lat="47.85659" lon="-3.86465">
        <ele>20.2</ele>
        <time>2020-08-13T06:46:50Z</time>
      </trkpt>
      <trkpt lat="47.856821" lon="-3.86564">
        <ele>21.2</ele>
        <time>2020-08-13T06:46:58Z</time>
      </trkpt>
      <trkpt lat="47.857015" lon="-3.866609">
        <ele>21.8</ele>
        <time>2020-08-13T06:47:05Z</time>
      </trkpt>
      <trkpt lat="47.857699" lon="-3.869544">
        <ele>17.4</ele>
        <time>2020-08-13T06:47:28Z</time>
      </trkpt>
      <trkpt lat="47.858393" lon="-3.871676">
        <ele>13.2</ele>
        <time>2020-08-13T06:47:45Z</time>
      </trkpt>
      <trkpt lat="47.858625" lon="-3.872444">
        <ele>13.2</ele>
        <time>2020-08-13T06:47:51Z</time>
      </trkpt>
      <trkpt lat="47.858716" lon="-3.872805">
        <ele>13.4</ele>
        <time>2020-08-13T06:47:54Z</time>
      </trkpt>
      <trkpt lat="47.858743" lon="-3.873048">
        <ele>13.4</ele>
        <time>2020-08-13T06:47:55Z</time>
      </trkpt>
      <trkpt lat="47.858745" lon="-3.873531">
        <ele>13.8</ele>
        <time>2020-08-13T06:47:59Z</time>
      </trkpt>
      <trkpt lat="47.858723" lon="-3.873893">
        <ele>13.8</ele>
        <time>2020-08-13T06:48:02Z</time>
      </trkpt>
      <trkpt lat="47.858287" lon="-3.876763">
        <ele>8.4</ele>
        <time>2020-08-13T06:48:23Z</time>
      </trkpt>
      <trkpt lat="47.85829" lon="-3.877057">
        <ele>8.4</ele>
        <time>2020-08-13T06:48:25Z</time>
      </trkpt>
      <trkpt lat="47.85835" lon="-3.877315">
        <ele>11.4</ele>
        <time>2020-08-13T06:48:27Z</time>
      </trkpt>
      <trkpt lat="47.858385" lon="-3.877364">
        <ele>11.4</ele>
        <time>2020-08-13T06:48:28Z</time>
      </trkpt>
      <trkpt lat="47.85842" lon="-3.877463">
        <ele>11.4</ele>
        <time>2020-08-13T06:48:28Z</time>
      </trkpt>
      <trkpt lat="47.858425" lon="-3.877598">
        <ele>10.8</ele>
        <time>2020-08-13T06:48:29Z</time>
      </trkpt>
      <trkpt lat="47.858394" lon="-3.877706">
        <ele>10.8</ele>
        <time>2020-08-13T06:48:30Z</time>
      </trkpt>
      <trkpt lat="47.858318" lon="-3.8778">
        <ele>8.0</ele>
        <time>2020-08-13T06:48:31Z</time>
      </trkpt>
      <trkpt lat="47.858241" lon="-3.877941">
        <ele>8.0</ele>
        <time>2020-08-13T06:48:32Z</time>
      </trkpt>
      <trkpt lat="47.858137" lon="-3.878382">
        <ele>8.2</ele>
        <time>2020-08-13T06:48:36Z</time>
      </trkpt>
      <trkpt lat="47.858137" lon="-3.878529">
        <ele>8.2</ele>
        <time>2020-08-13T06:48:37Z</time>
      </trkpt>
      <trkpt lat="47.858162" lon="-3.878738">
        <ele>8.2</ele>
        <time>2020-08-13T06:48:38Z</time>
      </trkpt>
      <trkpt lat="47.85822" lon="-3.878995">
        <ele>8.2</ele>
        <time>2020-08-13T06:48:40Z</time>
      </trkpt>
      <trkpt lat="47.858396" lon="-3.879357">
        <ele>8.4</ele>
        <time>2020-08-13T06:48:43Z</time>
      </trkpt>
      <trkpt lat="47.859066" lon="-3.880496">
        <ele>7.2</ele>
        <time>2020-08-13T06:48:53Z</time>
      </trkpt>
      <trkpt lat="47.85964" lon="-3.881432">
        <ele>8.0</ele>
        <time>2020-08-13T06:49:02Z</time>
      </trkpt>
      <trkpt lat="47.85998" lon="-3.882059">
        <ele>7.8</ele>
        <time>2020-08-13T06:49:08Z</time>
      </trkpt>
      <trkpt lat="47.861369" lon="-3.88557">
        <ele>14.8</ele>
        <time>2020-08-13T06:49:36Z</time>
      </trkpt>
      <trkpt lat="47.86173" lon="-3.886438">
        <ele>16.8</ele>
        <time>2020-08-13T06:49:43Z</time>
      </trkpt>
      <trkpt lat="47.861942" lon="-3.88706">
        <ele>17.0</ele>
        <time>2020-08-13T06:49:47Z</time>
      </trkpt>
      <trkpt lat="47.862099" lon="-3.887668">
        <ele>17.2</ele>
        <time>2020-08-13T06:49:52Z</time>
      </trkpt>
      <trkpt lat="47.862212" lon="-3.888283">
        <ele>17.2</ele>
        <time>2020-08-13T06:49:56Z</time>
      </trkpt>
      <trkpt lat="47.862301" lon="-3.888666">
        <ele>17.8</ele>
        <time>2020-08-13T06:49:59Z</time>
      </trkpt>
      <trkpt lat="47.862514" lon="-3.888838">
        <ele>17.0</ele>
        <time>2020-08-13T06:50:02Z</time>
      </trkpt>
      <trkpt lat="47.86265" lon="-3.888898">
        <ele>17.0</ele>
        <time>2020-08-13T06:50:03Z</time>
      </trkpt>
      <trkpt lat="47.862719" lon="-3.888997">
        <ele>17.0</ele>
        <time>2020-08-13T06:50:04Z</time>
      </trkpt>
      <trkpt lat="47.862759" lon="-3.889126">
        <ele>17.0</ele>
        <time>2020-08-13T06:50:05Z</time>
      </trkpt>
      <trkpt lat="47.862754" lon="-3.889676">
        <ele>15.6</ele>
        <time>2020-08-13T06:50:09Z</time>
      </trkpt>
      <trkpt lat="47.862818" lon="-3.889951">
        <ele>15.6</ele>
        <time>2020-08-13T06:50:11Z</time>
      </trkpt>
      <trkpt lat="47.862917" lon="-3.890148">
        <ele>15.2</ele>
        <time>2020-08-13T06:50:12Z</time>
      </trkpt>
      <trkpt lat="47.863181" lon="-3.890462">
        <ele>15.2</ele>
        <time>2020-08-13T06:50:16Z</time>
      </trkpt>
      <trkpt lat="47.86872" lon="-3.894853">
        <ele>19.8</ele>
        <time>2020-08-13T06:51:20Z</time>
      </trkpt>
      <trkpt lat="47.869292" lon="-3.895277">
        <ele>21.2</ele>
        <time>2020-08-13T06:51:27Z</time>
      </trkpt>
      <trkpt lat="47.871947" lon="-3.897373">
        <ele>13.8</ele>
        <time>2020-08-13T06:51:57Z</time>
      </trkpt>
      <trkpt lat="47.872502" lon="-3.89775">
        <ele>13.6</ele>
        <time>2020-08-13T06:52:04Z</time>
      </trkpt>
      <trkpt lat="47.872825" lon="-3.897916">
        <ele>13.6</ele>
        <time>2020-08-13T06:52:07Z</time>
      </trkpt>
      <trkpt lat="47.873207" lon="-3.898067">
        <ele>13.6</ele>
        <time>2020-08-13T06:52:11Z</time>
      </trkpt>
      <trkpt lat="47.875104" lon="-3.898571">
        <ele>14.6</ele>
        <time>2020-08-13T06:52:31Z</time>
      </trkpt>
      <trkpt lat="47.875857" lon="-3.898807">
        <ele>18.8</ele>
        <time>2020-08-13T06:52:39Z</time>
      </trkpt>
      <trkpt lat="47.876248" lon="-3.898998">
        <ele>18.8</ele>
        <time>2020-08-13T06:52:43Z</time>
      </trkpt>
      <trkpt lat="47.876673" lon="-3.899287">
        <ele>24.0</ele>
        <time>2020-08-13T06:52:48Z</time>
      </trkpt>
      <trkpt lat="47.877047" lon="-3.899668">
        <ele>24.0</ele>
        <time>2020-08-13T06:52:52Z</time>
      </trkpt>
      <trkpt lat="47.877385" lon="-3.900083">
        <ele>25.2</ele>
        <time>2020-08-13T06:52:57Z</time>
      </trkpt>
      <trkpt lat="47.877721" lon="-3.900626">
        <ele>25.6</ele>
        <time>2020-08-13T06:53:02Z</time>
      </trkpt>
      <trkpt lat="47.878027" lon="-3.901296">
        <ele>27.4</ele>
        <time>2020-08-13T06:53:07Z</time>
      </trkpt>
      <trkpt lat="47.878452" lon="-3.902423">
        <ele>25.0</ele>
        <time>2020-08-13T06:53:16Z</time>
      </trkpt>
      <trkpt lat="47.878578" lon="-3.902659">
        <ele>18.0</ele>
        <time>2020-08-13T06:53:18Z</time>
      </trkpt>
      <trkpt lat="47.878685" lon="-3.903016">
        <ele>18.0</ele>
        <time>2020-08-13T06:53:21Z</time>
      </trkpt>
      <trkpt lat="47.87965" lon="-3.905633">
        <ele>16.4</ele>
        <time>2020-08-13T06:53:42Z</time>
      </trkpt>
      <trkpt lat="47.879795" lon="-3.906139">
        <ele>20.0</ele>
        <time>2020-08-13T06:53:46Z</time>
      </trkpt>
      <trkpt lat="47.879823" lon="-3.906185">
        <ele>20.0</ele>
        <time>2020-08-13T06:53:46Z</time>
      </trkpt>
      <trkpt lat="47.879854" lon="-3.906299">
        <ele>20.0</ele>
        <time>2020-08-13T06:53:47Z</time>
      </trkpt>
      <trkpt lat="47.879856" lon="-3.906361">
        <ele>20.0</ele>
        <time>2020-08-13T06:53:47Z</time>
      </trkpt>
      <trkpt lat="47.879923" lon="-3.906542">
        <ele>20.0</ele>
        <time>2020-08-13T06:53:49Z</time>
      </trkpt>
      <trkpt lat="47.880036" lon="-3.906725">
        <ele>28.4</ele>
        <time>2020-08-13T06:53:51Z</time>
      </trkpt>
      <trkpt lat="47.880148" lon="-3.907012">
        <ele>28.4</ele>
        <time>2020-08-13T06:53:53Z</time>
      </trkpt>
      <trkpt lat="47.880499" lon="-3.908108">
        <ele>29.6</ele>
        <time>2020-08-13T06:54:02Z</time>
      </trkpt>
      <trkpt lat="47.880966" lon="-3.909222">
        <ele>35.0</ele>
        <time>2020-08-13T06:54:11Z</time>
      </trkpt>
      <trkpt lat="47.881369" lon="-3.909999">
        <ele>35.0</ele>
        <time>2020-08-13T06:54:18Z</time>
      </trkpt>
      <trkpt lat="47.88167" lon="-3.910424">
        <ele>39.8</ele>
        <time>2020-08-13T06:54:22Z</time>
      </trkpt>
      <trkpt lat="47.882045" lon="-3.910839">
        <ele>38.4</ele>
        <time>2020-08-13T06:54:27Z</time>
      </trkpt>
      <trkpt lat="47.882394" lon="-3.911131">
        <ele>38.4</ele>
        <time>2020-08-13T06:54:31Z</time>
      </trkpt>
      <trkpt lat="47.88541" lon="-3.913079">
        <ele>43.4</ele>
        <time>2020-08-13T06:55:05Z</time>
      </trkpt>
      <trkpt lat="47.885649" lon="-3.913081">
        <ele>43.4</ele>
        <time>2020-08-13T06:55:08Z</time>
      </trkpt>
      <trkpt lat="47.885708" lon="-3.91302">
        <ele>43.4</ele>
        <time>2020-08-13T06:55:09Z</time>
      </trkpt>
      <trkpt lat="47.885762" lon="-3.912998">
        <ele>43.4</ele>
        <time>2020-08-13T06:55:09Z</time>
      </trkpt>
      <trkpt lat="47.885872" lon="-3.91303">
        <ele>47.2</ele>
        <time>2020-08-13T06:55:10Z</time>
      </trkpt>
      <trkpt lat="47.885951" lon="-3.913148">
        <ele>47.2</ele>
        <time>2020-08-13T06:55:12Z</time>
      </trkpt>
      <trkpt lat="47.885972" lon="-3.913252">
        <ele>47.2</ele>
        <time>2020-08-13T06:55:12Z</time>
      </trkpt>
      <trkpt lat="47.886121" lon="-3.913541">
        <ele>49.4</ele>
        <time>2020-08-13T06:55:15Z</time>
      </trkpt>
      <trkpt lat="47.888436" lon="-3.915047">
        <ele>62.0</ele>
        <time>2020-08-13T06:55:41Z</time>
      </trkpt>
      <trkpt lat="47.889669" lon="-3.915887">
        <ele>63.2</ele>
        <time>2020-08-13T06:55:55Z</time>
      </trkpt>
      <trkpt lat="47.889972" lon="-3.915989">
        <ele>63.2</ele>
        <time>2020-08-13T06:55:58Z</time>
      </trkpt>
      <trkpt lat="47.890071" lon="-3.915959">
        <ele>63.6</ele>
        <time>2020-08-13T06:55:59Z</time>
      </trkpt>
      <trkpt lat="47.890147" lon="-3.9159">
        <ele>63.6</ele>
        <time>2020-08-13T06:56:00Z</time>
      </trkpt>
      <trkpt lat="47.890238" lon="-3.915874">
        <ele>63.6</ele>
        <time>2020-08-13T06:56:01Z</time>
      </trkpt>
      <trkpt lat="47.890332" lon="-3.91589">
        <ele>63.6</ele>
        <time>2020-08-13T06:56:02Z</time>
      </trkpt>
      <trkpt lat="47.890453" lon="-3.915988">
        <ele>63.6</ele>
        <time>2020-08-13T06:56:03Z</time>
      </trkpt>
      <trkpt lat="47.890505" lon="-3.916076">
        <ele>63.6</ele>
        <time>2020-08-13T06:56:04Z</time>
      </trkpt>
      <trkpt lat="47.890801" lon="-3.916119">
        <ele>63.6</ele>
        <time>2020-08-13T06:56:07Z</time>
      </trkpt>
      <trkpt lat="47.891471" lon="-3.915713">
        <ele>63.6</ele>
        <time>2020-08-13T06:56:14Z</time>
      </trkpt>
      <trkpt lat="47.89312" lon="-3.914797">
        <ele>62.2</ele>
        <time>2020-08-13T06:56:32Z</time>
      </trkpt>
      <trkpt lat="47.893953" lon="-3.914263">
        <ele>62.0</ele>
        <time>2020-08-13T06:56:42Z</time>
      </trkpt>
      <trkpt lat="47.894201" lon="-3.913972">
        <ele>64.6</ele>
        <time>2020-08-13T06:56:45Z</time>
      </trkpt>
      <trkpt lat="47.894259" lon="-3.913853">
        <ele>64.6</ele>
        <time>2020-08-13T06:56:46Z</time>
      </trkpt>
      <trkpt lat="47.894331" lon="-3.913791">
        <ele>64.6</ele>
        <time>2020-08-13T06:56:47Z</time>
      </trkpt>
      <trkpt lat="47.8944" lon="-3.913774">
        <ele>64.6</ele>
        <time>2020-08-13T06:56:47Z</time>
      </trkpt>
      <trkpt lat="47.894468" lon="-3.91379">
        <ele>64.6</ele>
        <time>2020-08-13T06:56:48Z</time>
      </trkpt>
      <trkpt lat="47.894539" lon="-3.91385">
        <ele>64.6</ele>
        <time>2020-08-13T06:56:49Z</time>
      </trkpt>
      <trkpt lat="47.894812" lon="-3.913799">
        <ele>64.6</ele>
        <time>2020-08-13T06:56:52Z</time>
      </trkpt>
      <trkpt lat="47.89785" lon="-3.912059">
        <ele>75.0</ele>
        <time>2020-08-13T06:57:25Z</time>
      </trkpt>
      <trkpt lat="47.89819" lon="-3.911897">
        <ele>75.0</ele>
        <time>2020-08-13T06:57:29Z</time>
      </trkpt>
      <trkpt lat="47.898657" lon="-3.911799">
        <ele>75.8</ele>
        <time>2020-08-13T06:57:33Z</time>
      </trkpt>
      <trkpt lat="47.899472" lon="-3.911821">
        <ele>74.2</ele>
        <time>2020-08-13T06:57:42Z</time>
      </trkpt>
      <trkpt lat="47.899727" lon="-3.911805">
        <ele>74.2</ele>
        <time>2020-08-13T06:57:44Z</time>
      </trkpt>
      <trkpt lat="47.899875" lon="-3.911716">
        <ele>74.2</ele>
        <time>2020-08-13T06:57:46Z</time>
      </trkpt>
      <trkpt lat="47.899944" lon="-3.911644">
        <ele>75.2</ele>
        <time>2020-08-13T06:57:47Z</time>
      </trkpt>
      <trkpt lat="47.900115" lon="-3.911389">
        <ele>73.8</ele>
        <time>2020-08-13T06:57:49Z</time>
      </trkpt>
      <trkpt lat="47.900129" lon="-3.911304">
        <ele>73.8</ele>
        <time>2020-08-13T06:57:50Z</time>
      </trkpt>
      <trkpt lat="47.900184" lon="-3.911168">
        <ele>73.8</ele>
        <time>2020-08-13T06:57:52Z</time>
      </trkpt>
      <trkpt lat="47.900307" lon="-3.911047">
        <ele>73.8</ele>
        <time>2020-08-13T06:57:54Z</time>
      </trkpt>
      <trkpt lat="47.900361" lon="-3.911029">
        <ele>73.8</ele>
        <time>2020-08-13T06:57:55Z</time>
      </trkpt>
      <trkpt lat="47.90049" lon="-3.911048">
        <ele>73.8</ele>
        <time>2020-08-13T06:57:56Z</time>
      </trkpt>
      <trkpt lat="47.900598" lon="-3.911147">
        <ele>73.8</ele>
        <time>2020-08-13T06:57:58Z</time>
      </trkpt>
      <trkpt lat="47.90065" lon="-3.911248">
        <ele>73.8</ele>
        <time>2020-08-13T06:57:59Z</time>
      </trkpt>
      <trkpt lat="47.900679" lon="-3.911379">
        <ele>73.8</ele>
        <time>2020-08-13T06:58:00Z</time>
      </trkpt>
      <trkpt lat="47.900677" lon="-3.911505">
        <ele>73.8</ele>
        <time>2020-08-13T06:58:02Z</time>
      </trkpt>
      <trkpt lat="47.900636" lon="-3.911684">
        <ele>73.6</ele>
        <time>2020-08-13T06:58:03Z</time>
      </trkpt>
      <trkpt lat="47.900756" lon="-3.912245">
        <ele>73.6</ele>
        <time>2020-08-13T06:58:09Z</time>
      </trkpt>
      <trkpt lat="47.900826" lon="-3.912356">
        <ele>73.6</ele>
        <time>2020-08-13T06:58:10Z</time>
      </trkpt>
      <trkpt lat="47.901513" lon="-3.912958">
        <ele>74.0</ele>
        <time>2020-08-13T06:58:17Z</time>
      </trkpt>
      <trkpt lat="47.90292" lon="-3.914118">
        <ele>72.8</ele>
        <time>2020-08-13T06:58:33Z</time>
      </trkpt>
      <trkpt lat="47.904399" lon="-3.915298">
        <ele>72.2</ele>
        <time>2020-08-13T06:58:48Z</time>
      </trkpt>
      <trkpt lat="47.91013" lon="-3.920037">
        <ele>77.0</ele>
        <time>2020-08-13T06:59:50Z</time>
      </trkpt>
      <trkpt lat="47.911126" lon="-3.920839">
        <ele>73.8</ele>
        <time>2020-08-13T07:00:01Z</time>
      </trkpt>
      <trkpt lat="47.911651" lon="-3.921301">
        <ele>73.8</ele>
        <time>2020-08-13T07:00:06Z</time>
      </trkpt>
      <trkpt lat="47.91271" lon="-3.922674">
        <ele>74.6</ele>
        <time>2020-08-13T07:00:20Z</time>
      </trkpt>
      <trkpt lat="47.914688" lon="-3.925185">
        <ele>78.2</ele>
        <time>2020-08-13T07:00:44Z</time>
      </trkpt>
      <trkpt lat="47.915618" lon="-3.926336">
        <ele>78.2</ele>
        <time>2020-08-13T07:00:55Z</time>
      </trkpt>
      <trkpt lat="47.91588" lon="-3.926701">
        <ele>76.6</ele>
        <time>2020-08-13T07:00:59Z</time>
      </trkpt>
      <trkpt lat="47.916153" lon="-3.927185">
        <ele>76.6</ele>
        <time>2020-08-13T07:01:03Z</time>
      </trkpt>
      <trkpt lat="47.916254" lon="-3.927387">
        <ele>76.6</ele>
        <time>2020-08-13T07:01:04Z</time>
      </trkpt>
      <trkpt lat="47.916441" lon="-3.927896">
        <ele>75.2</ele>
        <time>2020-08-13T07:01:08Z</time>
      </trkpt>
      <trkpt lat="47.917507" lon="-3.931424">
        <ele>70.8</ele>
        <time>2020-08-13T07:01:32Z</time>
      </trkpt>
      <trkpt lat="47.917774" lon="-3.932408">
        <ele>69.4</ele>
        <time>2020-08-13T07:01:39Z</time>
      </trkpt>
      <trkpt lat="47.917903" lon="-3.933178">
        <ele>68.4</ele>
        <time>2020-08-13T07:01:44Z</time>
      </trkpt>
      <trkpt lat="47.917947" lon="-3.933163">
        <ele>68.4</ele>
        <time>2020-08-13T07:01:44Z</time>
      </trkpt>
      <trkpt lat="47.917987" lon="-3.933194">
        <ele>68.4</ele>
        <time>2020-08-13T07:01:45Z</time>
      </trkpt>
      <trkpt lat="47.918004" lon="-3.933256">
        <ele>68.4</ele>
        <time>2020-08-13T07:01:45Z</time>
      </trkpt>
      <trkpt lat="47.917994" lon="-3.933315">
        <ele>68.4</ele>
        <time>2020-08-13T07:01:45Z</time>
      </trkpt>
      <trkpt lat="47.917941" lon="-3.93336">
        <ele>66.4</ele>
        <time>2020-08-13T07:01:46Z</time>
      </trkpt>
      <trkpt lat="47.917921" lon="-3.933356">
        <ele>66.4</ele>
        <time>2020-08-13T07:01:46Z</time>
      </trkpt>
      <trkpt lat="47.917663" lon="-3.934306">
        <ele>63.8</ele>
        <time>2020-08-13T07:01:51Z</time>
      </trkpt>
      <trkpt lat="47.917274" lon="-3.935429">
        <ele>64.8</ele>
        <time>2020-08-13T07:01:57Z</time>
      </trkpt>
      <trkpt lat="47.917221" lon="-3.935699">
        <ele>64.8</ele>
        <time>2020-08-13T07:01:59Z</time>
      </trkpt>
      <trkpt lat="47.917202" lon="-3.93595">
        <ele>66.8</ele>
        <time>2020-08-13T07:02:00Z</time>
      </trkpt>
      <trkpt lat="47.91722" lon="-3.936239">
        <ele>66.8</ele>
        <time>2020-08-13T07:02:01Z</time>
      </trkpt>
      <trkpt lat="47.917364" lon="-3.937146">
        <ele>69.2</ele>
        <time>2020-08-13T07:02:06Z</time>
      </trkpt>
      <trkpt lat="47.917379" lon="-3.937516">
        <ele>68.4</ele>
        <time>2020-08-13T07:02:08Z</time>
      </trkpt>
      <trkpt lat="47.917365" lon="-3.937828">
        <ele>68.4</ele>
        <time>2020-08-13T07:02:09Z</time>
      </trkpt>
      <trkpt lat="47.917304" lon="-3.938291">
        <ele>68.4</ele>
        <time>2020-08-13T07:02:12Z</time>
      </trkpt>
      <trkpt lat="47.916913" lon="-3.939889">
        <ele>56.0</ele>
        <time>2020-08-13T07:02:20Z</time>
      </trkpt>
      <trkpt lat="47.9168" lon="-3.940194">
        <ele>49.4</ele>
        <time>2020-08-13T07:02:22Z</time>
      </trkpt>
      <trkpt lat="47.916329" lon="-3.94119">
        <ele>48.8</ele>
        <time>2020-08-13T07:02:28Z</time>
      </trkpt>
      <trkpt lat="47.915883" lon="-3.942183">
        <ele>42.6</ele>
        <time>2020-08-13T07:02:34Z</time>
      </trkpt>
      <trkpt lat="47.915783" lon="-3.942488">
        <ele>48.4</ele>
        <time>2020-08-13T07:02:35Z</time>
      </trkpt>
      <trkpt lat="47.91568" lon="-3.9429">
        <ele>43.6</ele>
        <time>2020-08-13T07:02:38Z</time>
      </trkpt>
      <trkpt lat="47.915174" lon="-3.945678">
        <ele>26.2</ele>
        <time>2020-08-13T07:02:52Z</time>
      </trkpt>
      <trkpt lat="47.915022" lon="-3.946348">
        <ele>24.4</ele>
        <time>2020-08-13T07:02:55Z</time>
      </trkpt>
      <trkpt lat="47.914805" lon="-3.947119">
        <ele>27.6</ele>
        <time>2020-08-13T07:02:59Z</time>
      </trkpt>
      <trkpt lat="47.914699" lon="-3.947552">
        <ele>36.0</ele>
        <time>2020-08-13T07:03:02Z</time>
      </trkpt>
      <trkpt lat="47.914649" lon="-3.947861">
        <ele>36.0</ele>
        <time>2020-08-13T07:03:03Z</time>
      </trkpt>
      <trkpt lat="47.914609" lon="-3.948321">
        <ele>36.0</ele>
        <time>2020-08-13T07:03:06Z</time>
      </trkpt>
      <trkpt lat="47.914639" lon="-3.948836">
        <ele>44.4</ele>
        <time>2020-08-13T07:03:08Z</time>
      </trkpt>
      <trkpt lat="47.91469" lon="-3.949101">
        <ele>44.4</ele>
        <time>2020-08-13T07:03:10Z</time>
      </trkpt>
      <trkpt lat="47.914822" lon="-3.949558">
        <ele>50.2</ele>
        <time>2020-08-13T07:03:12Z</time>
      </trkpt>
      <trkpt lat="47.915214" lon="-3.950579">
        <ele>43.8</ele>
        <time>2020-08-13T07:03:18Z</time>
      </trkpt>
      <trkpt lat="47.915337" lon="-3.950998">
        <ele>46.0</ele>
        <time>2020-08-13T07:03:20Z</time>
      </trkpt>
      <trkpt lat="47.915389" lon="-3.951255">
        <ele>46.0</ele>
        <time>2020-08-13T07:03:21Z</time>
      </trkpt>
      <trkpt lat="47.915525" lon="-3.952635">
        <ele>52.2</ele>
        <time>2020-08-13T07:03:28Z</time>
      </trkpt>
      <trkpt lat="47.915634" lon="-3.953177">
        <ele>52.2</ele>
        <time>2020-08-13T07:03:31Z</time>
      </trkpt>
      <trkpt lat="47.915702" lon="-3.953389">
        <ele>55.2</ele>
        <time>2020-08-13T07:03:32Z</time>
      </trkpt>
      <trkpt lat="47.915882" lon="-3.953796">
        <ele>53.2</ele>
        <time>2020-08-13T07:03:35Z</time>
      </trkpt>
      <trkpt lat="47.91596" lon="-3.953927">
        <ele>53.2</ele>
        <time>2020-08-13T07:03:36Z</time>
      </trkpt>
      <trkpt lat="47.91632" lon="-3.954389">
        <ele>54.8</ele>
        <time>2020-08-13T07:03:39Z</time>
      </trkpt>
      <trkpt lat="47.916787" lon="-3.95492">
        <ele>54.2</ele>
        <time>2020-08-13T07:03:43Z</time>
      </trkpt>
      <trkpt lat="47.917024" lon="-3.95522">
        <ele>55.8</ele>
        <time>2020-08-13T07:03:46Z</time>
      </trkpt>
      <trkpt lat="47.917204" lon="-3.955483">
        <ele>55.8</ele>
        <time>2020-08-13T07:03:48Z</time>
      </trkpt>
      <trkpt lat="47.917371" lon="-3.955769">
        <ele>55.8</ele>
        <time>2020-08-13T07:03:49Z</time>
      </trkpt>
      <trkpt lat="47.917499" lon="-3.956048">
        <ele>57.4</ele>
        <time>2020-08-13T07:03:51Z</time>
      </trkpt>
      <trkpt lat="47.91759" lon="-3.956293">
        <ele>59.2</ele>
        <time>2020-08-13T07:03:52Z</time>
      </trkpt>
      <trkpt lat="47.91771" lon="-3.956733">
        <ele>61.8</ele>
        <time>2020-08-13T07:03:55Z</time>
      </trkpt>
      <trkpt lat="47.917769" lon="-3.957058">
        <ele>61.8</ele>
        <time>2020-08-13T07:03:56Z</time>
      </trkpt>
      <trkpt lat="47.917809" lon="-3.957448">
        <ele>61.8</ele>
        <time>2020-08-13T07:03:58Z</time>
      </trkpt>
      <trkpt lat="47.917819" lon="-3.958038">
        <ele>64.4</ele>
        <time>2020-08-13T07:04:01Z</time>
      </trkpt>
      <trkpt lat="47.917769" lon="-3.960773">
        <ele>64.2</ele>
        <time>2020-08-13T07:04:15Z</time>
      </trkpt>
      <trkpt lat="47.917814" lon="-3.96121">
        <ele>63.8</ele>
        <time>2020-08-13T07:04:17Z</time>
      </trkpt>
      <trkpt lat="47.917902" lon="-3.961632">
        <ele>63.8</ele>
        <time>2020-08-13T07:04:19Z</time>
      </trkpt>
      <trkpt lat="47.917964" lon="-3.961626">
        <ele>63.8</ele>
        <time>2020-08-13T07:04:20Z</time>
      </trkpt>
      <trkpt lat="47.918045" lon="-3.961687">
        <ele>63.4</ele>
        <time>2020-08-13T07:04:21Z</time>
      </trkpt>
      <trkpt lat="47.91807" lon="-3.961744">
        <ele>63.4</ele>
        <time>2020-08-13T07:04:21Z</time>
      </trkpt>
      <trkpt lat="47.918082" lon="-3.96181">
        <ele>63.4</ele>
        <time>2020-08-13T07:04:22Z</time>
      </trkpt>
      <trkpt lat="47.918059" lon="-3.961941">
        <ele>63.4</ele>
        <time>2020-08-13T07:04:23Z</time>
      </trkpt>
      <trkpt lat="47.917986" lon="-3.96202">
        <ele>63.4</ele>
        <time>2020-08-13T07:04:24Z</time>
      </trkpt>
      <trkpt lat="47.918075" lon="-3.9623">
        <ele>63.4</ele>
        <time>2020-08-13T07:04:26Z</time>
      </trkpt>
      <trkpt lat="47.918383" lon="-3.96284">
        <ele>59.8</ele>
        <time>2020-08-13T07:04:31Z</time>
      </trkpt>
      <trkpt lat="47.918556" lon="-3.963205">
        <ele>59.8</ele>
        <time>2020-08-13T07:04:34Z</time>
      </trkpt>
      <trkpt lat="47.918596" lon="-3.963178">
        <ele>59.8</ele>
        <time>2020-08-13T07:04:34Z</time>
      </trkpt>
      <trkpt lat="47.918682" lon="-3.963188">
        <ele>59.8</ele>
        <time>2020-08-13T07:04:35Z</time>
      </trkpt>
      <trkpt lat="47.918746" lon="-3.963277">
        <ele>59.8</ele>
        <time>2020-08-13T07:04:36Z</time>
      </trkpt>
      <trkpt lat="47.918759" lon="-3.963339">
        <ele>58.2</ele>
        <time>2020-08-13T07:04:37Z</time>
      </trkpt>
      <trkpt lat="47.918742" lon="-3.963467">
        <ele>58.2</ele>
        <time>2020-08-13T07:04:37Z</time>
      </trkpt>
      <trkpt lat="47.918683" lon="-3.963545">
        <ele>58.2</ele>
        <time>2020-08-13T07:04:38Z</time>
      </trkpt>
      <trkpt lat="47.918604" lon="-3.963559">
        <ele>58.2</ele>
        <time>2020-08-13T07:04:39Z</time>
      </trkpt>
      <trkpt lat="47.918566" lon="-3.963538">
        <ele>58.2</ele>
        <time>2020-08-13T07:04:40Z</time>
      </trkpt>
      <trkpt lat="47.918493" lon="-3.963666">
        <ele>58.2</ele>
        <time>2020-08-13T07:04:41Z</time>
      </trkpt>
      <trkpt lat="47.918194" lon="-3.964876">
        <ele>58.0</ele>
        <time>2020-08-13T07:04:50Z</time>
      </trkpt>
      <trkpt lat="47.917962" lon="-3.965614">
        <ele>55.8</ele>
        <time>2020-08-13T07:04:55Z</time>
      </trkpt>
      <trkpt lat="47.917283" lon="-3.967082">
        <ele>59.2</ele>
        <time>2020-08-13T07:05:07Z</time>
      </trkpt>
      <trkpt lat="47.917158" lon="-3.967479">
        <ele>59.2</ele>
        <time>2020-08-13T07:05:10Z</time>
      </trkpt>
      <trkpt lat="47.917069" lon="-3.967881">
        <ele>58.8</ele>
        <time>2020-08-13T07:05:13Z</time>
      </trkpt>
      <trkpt lat="47.917069" lon="-3.967881">
        <ele>58.8</ele>
        <time>2020-08-13T07:05:13Z</time>
      </trkpt>
      <trkpt lat="47.917" lon="-3.968294">
        <ele>58.8</ele>
        <time>2020-08-13T07:05:17Z</time>
      </trkpt>
      <trkpt lat="47.916943" lon="-3.96897">
        <ele>58.8</ele>
        <time>2020-08-13T07:05:23Z</time>
      </trkpt>
      <trkpt lat="47.916946" lon="-3.969352">
        <ele>57.0</ele>
        <time>2020-08-13T07:05:27Z</time>
      </trkpt>
      <trkpt lat="47.916977" lon="-3.969878">
        <ele>57.0</ele>
        <time>2020-08-13T07:05:32Z</time>
      </trkpt>
      <trkpt lat="47.917042" lon="-3.970389">
        <ele>53.8</ele>
        <time>2020-08-13T07:05:36Z</time>
      </trkpt>
      <trkpt lat="47.916988" lon="-3.970631">
        <ele>53.8</ele>
        <time>2020-08-13T07:05:39Z</time>
      </trkpt>
      <trkpt lat="47.916924" lon="-3.970804">
        <ele>53.8</ele>
        <time>2020-08-13T07:05:41Z</time>
      </trkpt>
      <trkpt lat="47.916461" lon="-3.97171">
        <ele>51.4</ele>
        <time>2020-08-13T07:05:51Z</time>
      </trkpt>
      <trkpt lat="47.915958" lon="-3.972747">
        <ele>45.0</ele>
        <time>2020-08-13T07:06:03Z</time>
      </trkpt>
      <trkpt lat="47.915111" lon="-3.974106">
        <ele>37.0</ele>
        <time>2020-08-13T07:06:19Z</time>
      </trkpt>
      <trkpt lat="47.914975" lon="-3.974232">
        <ele>24.2</ele>
        <time>2020-08-13T07:06:22Z</time>
      </trkpt>
      <trkpt lat="47.914919" lon="-3.974255">
        <ele>24.2</ele>
        <time>2020-08-13T07:06:23Z</time>
      </trkpt>
      <trkpt lat="47.914675" lon="-3.974212">
        <ele>24.2</ele>
        <time>2020-08-13T07:06:26Z</time>
      </trkpt>
      <trkpt lat="47.914492" lon="-3.97409">
        <ele>32.4</ele>
        <time>2020-08-13T07:06:29Z</time>
      </trkpt>
      <trkpt lat="47.914213" lon="-3.973805">
        <ele>32.4</ele>
        <time>2020-08-13T07:06:34Z</time>
      </trkpt>
      <trkpt lat="47.914051" lon="-3.973803">
        <ele>29.0</ele>
        <time>2020-08-13T07:06:36Z</time>
      </trkpt>
      <trkpt lat="47.912169" lon="-3.974626">
        <ele>25.6</ele>
        <time>2020-08-13T07:07:03Z</time>
      </trkpt>
      <trkpt lat="47.912086" lon="-3.974683">
        <ele>25.6</ele>
        <time>2020-08-13T07:07:04Z</time>
      </trkpt>
      <trkpt lat="47.912026" lon="-3.974771">
        <ele>25.6</ele>
        <time>2020-08-13T07:07:06Z</time>
      </trkpt>
      <trkpt lat="47.911905" lon="-3.97503">
        <ele>19.8</ele>
        <time>2020-08-13T07:07:10Z</time>
      </trkpt>
      <trkpt lat="47.911597" lon="-3.975962">
        <ele>15.8</ele>
        <time>2020-08-13T07:07:25Z</time>
      </trkpt>
      <trkpt lat="47.911511" lon="-3.976128">
        <ele>15.8</ele>
        <time>2020-08-13T07:07:28Z</time>
      </trkpt>
      <trkpt lat="47.911406" lon="-3.976262">
        <ele>15.8</ele>
        <time>2020-08-13T07:07:30Z</time>
      </trkpt>
      <trkpt lat="47.911248" lon="-3.976405">
        <ele>15.8</ele>
        <time>2020-08-13T07:07:34Z</time>
      </trkpt>
      <trkpt lat="47.91036" lon="-3.977127">
        <ele>9.4</ele>
        <time>2020-08-13T07:07:55Z</time>
      </trkpt>
      <trkpt lat="47.910144" lon="-3.977357">
        <ele>9.4</ele>
        <time>2020-08-13T07:08:00Z</time>
      </trkpt>
      <trkpt lat="47.909998" lon="-3.977567">
        <ele>9.4</ele>
        <time>2020-08-13T07:08:05Z</time>
      </trkpt>
      <trkpt lat="47.909809" lon="-3.977984">
        <ele>9.4</ele>
        <time>2020-08-13T07:08:11Z</time>
      </trkpt>
      <trkpt lat="47.909692" lon="-3.978081">
        <ele>9.4</ele>
        <time>2020-08-13T07:08:14Z</time>
      </trkpt>
      <trkpt lat="47.909697" lon="-3.978189">
        <ele>9.4</ele>
        <time>2020-08-13T07:08:15Z</time>
      </trkpt>
      <trkpt lat="47.909651" lon="-3.978275">
        <ele>9.4</ele>
        <time>2020-08-13T07:08:16Z</time>
      </trkpt>
      <trkpt lat="47.909562" lon="-3.978222">
        <ele>9.4</ele>
        <time>2020-08-13T07:08:17Z</time>
      </trkpt>
      <trkpt lat="47.909457" lon="-3.978394">
        <ele>15.0</ele>
        <time>2020-08-13T07:08:19Z</time>
      </trkpt>
      <trkpt lat="47.908477" lon="-3.978976">
        <ele>14.8</ele>
        <time>2020-08-13T07:08:31Z</time>
      </trkpt>
      <trkpt lat="47.908321" lon="-3.979085">
        <ele>13.25</ele>
        <time>2020-08-13T07:08:33Z</time>
      </trkpt>
      <trkpt lat="47.90825" lon="-3.979162">
        <ele>13.25</ele>
        <time>2020-08-13T07:08:34Z</time>
      </trkpt>
      <trkpt lat="47.908161" lon="-3.979345">
        <ele>15.6</ele>
        <time>2020-08-13T07:08:36Z</time>
      </trkpt>
      <trkpt lat="47.90805" lon="-3.979654">
        <ele>15.6</ele>
        <time>2020-08-13T07:08:38Z</time>
      </trkpt>
      <trkpt lat="47.908033" lon="-3.979767">
        <ele>15.6</ele>
        <time>2020-08-13T07:08:39Z</time>
      </trkpt>
      <trkpt lat="47.908051" lon="-3.979965">
        <ele>15.6</ele>
        <time>2020-08-13T07:08:41Z</time>
      </trkpt>
      <trkpt lat="47.908249" lon="-3.981094">
        <ele>21.4</ele>
        <time>2020-08-13T07:08:50Z</time>
      </trkpt>
      <trkpt lat="47.908255" lon="-3.981188">
        <ele>21.4</ele>
        <time>2020-08-13T07:08:51Z</time>
      </trkpt>
      <trkpt lat="47.90825" lon="-3.981281">
        <ele>21.4</ele>
        <time>2020-08-13T07:08:51Z</time>
      </trkpt>
      <trkpt lat="47.908061" lon="-3.982189">
        <ele>24.6</ele>
        <time>2020-08-13T07:08:59Z</time>
      </trkpt>
      <trkpt lat="47.908021" lon="-3.982488">
        <ele>24.6</ele>
        <time>2020-08-13T07:09:01Z</time>
      </trkpt>
      <trkpt lat="47.908059" lon="-3.9834">
        <ele>30.2</ele>
        <time>2020-08-13T07:09:08Z</time>
      </trkpt>
      <trkpt lat="47.908059" lon="-3.983765">
        <ele>30.2</ele>
        <time>2020-08-13T07:09:11Z</time>
      </trkpt>
      <trkpt lat="47.908029" lon="-3.984292">
        <ele>33.4</ele>
        <time>2020-08-13T07:09:15Z</time>
      </trkpt>
      <trkpt lat="47.907986" lon="-3.984542">
        <ele>33.4</ele>
        <time>2020-08-13T07:09:17Z</time>
      </trkpt>
      <trkpt lat="47.907921" lon="-3.98478">
        <ele>33.4</ele>
        <time>2020-08-13T07:09:19Z</time>
      </trkpt>
      <trkpt lat="47.907607" lon="-3.985641">
        <ele>36.2</ele>
        <time>2020-08-13T07:09:26Z</time>
      </trkpt>
      <trkpt lat="47.907307" lon="-3.98674">
        <ele>35.4</ele>
        <time>2020-08-13T07:09:36Z</time>
      </trkpt>
      <trkpt lat="47.906741" lon="-3.988442">
        <ele>32.2</ele>
        <time>2020-08-13T07:09:50Z</time>
      </trkpt>
      <trkpt lat="47.906644" lon="-3.988892">
        <ele>28.8</ele>
        <time>2020-08-13T07:09:54Z</time>
      </trkpt>
      <trkpt lat="47.90657" lon="-3.989509">
        <ele>27.8</ele>
        <time>2020-08-13T07:09:59Z</time>
      </trkpt>
      <trkpt lat="47.906575" lon="-3.989613">
        <ele>27.8</ele>
        <time>2020-08-13T07:10:00Z</time>
      </trkpt>
      <trkpt lat="47.906648" lon="-3.98965">
        <ele>27.8</ele>
        <time>2020-08-13T07:10:01Z</time>
      </trkpt>
      <trkpt lat="47.906694" lon="-3.989741">
        <ele>30.6</ele>
        <time>2020-08-13T07:10:01Z</time>
      </trkpt>
      <trkpt lat="47.906699" lon="-3.989855">
        <ele>30.6</ele>
        <time>2020-08-13T07:10:02Z</time>
      </trkpt>
      <trkpt lat="47.906658" lon="-3.98996">
        <ele>27.8</ele>
        <time>2020-08-13T07:10:02Z</time>
      </trkpt>
      <trkpt lat="47.906583" lon="-3.990008">
        <ele>26.6</ele>
        <time>2020-08-13T07:10:03Z</time>
      </trkpt>
      <trkpt lat="47.906542" lon="-3.990004">
        <ele>26.6</ele>
        <time>2020-08-13T07:10:03Z</time>
      </trkpt>
      <trkpt lat="47.906399" lon="-3.990691">
        <ele>26.6</ele>
        <time>2020-08-13T07:10:07Z</time>
      </trkpt>
      <trkpt lat="47.905927" lon="-3.992355">
        <ele>23.6</ele>
        <time>2020-08-13T07:10:15Z</time>
      </trkpt>
      <trkpt lat="47.905117" lon="-3.995396">
        <ele>16.4</ele>
        <time>2020-08-13T07:10:30Z</time>
      </trkpt>
      <trkpt lat="47.90497" lon="-3.996088">
        <ele>18.8</ele>
        <time>2020-08-13T07:10:34Z</time>
      </trkpt>
      <trkpt lat="47.903832" lon="-4.000714">
        <ele>21.2</ele>
        <time>2020-08-13T07:10:56Z</time>
      </trkpt>
      <trkpt lat="47.903751" lon="-4.001212">
        <ele>19.2</ele>
        <time>2020-08-13T07:10:59Z</time>
      </trkpt>
      <trkpt lat="47.903552" lon="-4.003151">
        <ele>16.0</ele>
        <time>2020-08-13T07:11:08Z</time>
      </trkpt>
      <trkpt lat="47.90351" lon="-4.003401">
        <ele>15.2</ele>
        <time>2020-08-13T07:11:09Z</time>
      </trkpt>
      <trkpt lat="47.903104" lon="-4.005232">
        <ele>13.0</ele>
        <time>2020-08-13T07:11:18Z</time>
      </trkpt>
      <trkpt lat="47.903001" lon="-4.005636">
        <ele>13.0</ele>
        <time>2020-08-13T07:11:20Z</time>
      </trkpt>
      <trkpt lat="47.902946" lon="-4.005788">
        <ele>13.0</ele>
        <time>2020-08-13T07:11:21Z</time>
      </trkpt>
      <trkpt lat="47.902755" lon="-4.006186">
        <ele>13.6</ele>
        <time>2020-08-13T07:11:23Z</time>
      </trkpt>
      <trkpt lat="47.902531" lon="-4.006506">
        <ele>13.6</ele>
        <time>2020-08-13T07:11:25Z</time>
      </trkpt>
      <trkpt lat="47.901572" lon="-4.007471">
        <ele>24.0</ele>
        <time>2020-08-13T07:11:33Z</time>
      </trkpt>
      <trkpt lat="47.901513" lon="-4.00755">
        <ele>22.2</ele>
        <time>2020-08-13T07:11:34Z</time>
      </trkpt>
      <trkpt lat="47.900855" lon="-4.008623">
        <ele>22.2</ele>
        <time>2020-08-13T07:11:41Z</time>
      </trkpt>
      <trkpt lat="47.900606" lon="-4.009081">
        <ele>27.8</ele>
        <time>2020-08-13T07:11:44Z</time>
      </trkpt>
      <trkpt lat="47.900521" lon="-4.009256">
        <ele>29.6</ele>
        <time>2020-08-13T07:11:45Z</time>
      </trkpt>
      <trkpt lat="47.900343" lon="-4.009712">
        <ele>29.6</ele>
        <time>2020-08-13T07:11:47Z</time>
      </trkpt>
      <trkpt lat="47.900283" lon="-4.009987">
        <ele>29.6</ele>
        <time>2020-08-13T07:11:48Z</time>
      </trkpt>
      <trkpt lat="47.900173" lon="-4.010825">
        <ele>33.6</ele>
        <time>2020-08-13T07:11:52Z</time>
      </trkpt>
      <trkpt lat="47.900161" lon="-4.011371">
        <ele>36.8</ele>
        <time>2020-08-13T07:11:55Z</time>
      </trkpt>
      <trkpt lat="47.900163" lon="-4.011449">
        <ele>36.8</ele>
        <time>2020-08-13T07:11:56Z</time>
      </trkpt>
      <trkpt lat="47.90012" lon="-4.011517">
        <ele>36.8</ele>
        <time>2020-08-13T07:11:56Z</time>
      </trkpt>
      <trkpt lat="47.899991" lon="-4.011946">
        <ele>43.2</ele>
        <time>2020-08-13T07:12:00Z</time>
      </trkpt>
      <trkpt lat="47.899918" lon="-4.01234">
        <ele>43.2</ele>
        <time>2020-08-13T07:12:02Z</time>
      </trkpt>
      <trkpt lat="47.899847" lon="-4.012549">
        <ele>45.2</ele>
        <time>2020-08-13T07:12:04Z</time>
      </trkpt>
      <trkpt lat="47.899731" lon="-4.012805">
        <ele>45.2</ele>
        <time>2020-08-13T07:12:06Z</time>
      </trkpt>
      <trkpt lat="47.899524" lon="-4.013162">
        <ele>45.2</ele>
        <time>2020-08-13T07:12:09Z</time>
      </trkpt>
      <trkpt lat="47.899402" lon="-4.013339">
        <ele>46.4</ele>
        <time>2020-08-13T07:12:11Z</time>
      </trkpt>
      <trkpt lat="47.899178" lon="-4.013578">
        <ele>46.4</ele>
        <time>2020-08-13T07:12:14Z</time>
      </trkpt>
      <trkpt lat="47.898633" lon="-4.014031">
        <ele>49.4</ele>
        <time>2020-08-13T07:12:20Z</time>
      </trkpt>
      <trkpt lat="47.89823" lon="-4.014321">
        <ele>55.8</ele>
        <time>2020-08-13T07:12:25Z</time>
      </trkpt>
      <trkpt lat="47.898247" lon="-4.014383">
        <ele>55.8</ele>
        <time>2020-08-13T07:12:26Z</time>
      </trkpt>
      <trkpt lat="47.898238" lon="-4.014514">
        <ele>55.8</ele>
        <time>2020-08-13T07:12:26Z</time>
      </trkpt>
      <trkpt lat="47.898214" lon="-4.014571">
        <ele>55.8</ele>
        <time>2020-08-13T07:12:27Z</time>
      </trkpt>
      <trkpt lat="47.898316" lon="-4.014836">
        <ele>55.8</ele>
        <time>2020-08-13T07:12:29Z</time>
      </trkpt>
      <trkpt lat="47.898791" lon="-4.015678">
        <ele>54.8</ele>
        <time>2020-08-13T07:12:37Z</time>
      </trkpt>
      <trkpt lat="47.89904" lon="-4.016325">
        <ele>58.4</ele>
        <time>2020-08-13T07:12:42Z</time>
      </trkpt>
      <trkpt lat="47.899663" lon="-4.018574">
        <ele>61.6</ele>
        <time>2020-08-13T07:12:58Z</time>
      </trkpt>
      <trkpt lat="47.899733" lon="-4.01893">
        <ele>61.6</ele>
        <time>2020-08-13T07:13:01Z</time>
      </trkpt>
      <trkpt lat="47.899779" lon="-4.018942">
        <ele>61.6</ele>
        <time>2020-08-13T07:13:02Z</time>
      </trkpt>
      <trkpt lat="47.899797" lon="-4.018981">
        <ele>61.6</ele>
        <time>2020-08-13T07:13:02Z</time>
      </trkpt>
      <trkpt lat="47.899796" lon="-4.019028">
        <ele>61.6</ele>
        <time>2020-08-13T07:13:02Z</time>
      </trkpt>
      <trkpt lat="47.899778" lon="-4.019063">
        <ele>61.6</ele>
        <time>2020-08-13T07:13:03Z</time>
      </trkpt>
      <trkpt lat="47.899739" lon="-4.019077">
        <ele>61.6</ele>
        <time>2020-08-13T07:13:03Z</time>
      </trkpt>
      <trkpt lat="47.899605" lon="-4.019353">
        <ele>63.0</ele>
        <time>2020-08-13T07:13:06Z</time>
      </trkpt>
      <trkpt lat="47.899598" lon="-4.019422">
        <ele>63.0</ele>
        <time>2020-08-13T07:13:07Z</time>
      </trkpt>
      <trkpt lat="47.899979" lon="-4.020189">
        <ele>66.2</ele>
        <time>2020-08-13T07:13:13Z</time>
      </trkpt>
      <trkpt lat="47.900277" lon="-4.020874">
        <ele>67.0</ele>
        <time>2020-08-13T07:13:19Z</time>
      </trkpt>
      <trkpt lat="47.900473" lon="-4.021404">
        <ele>67.0</ele>
        <time>2020-08-13T07:13:23Z</time>
      </trkpt>
      <trkpt lat="47.900522" lon="-4.021473">
        <ele>67.0</ele>
        <time>2020-08-13T07:13:24Z</time>
      </trkpt>
      <trkpt lat="47.900516" lon="-4.021574">
        <ele>67.0</ele>
        <time>2020-08-13T07:13:25Z</time>
      </trkpt>
      <trkpt lat="47.900967" lon="-4.023192">
        <ele>67.8</ele>
        <time>2020-08-13T07:13:37Z</time>
      </trkpt>
      <trkpt lat="47.901074" lon="-4.023668">
        <ele>69.8</ele>
        <time>2020-08-13T07:13:40Z</time>
      </trkpt>
      <trkpt lat="47.90208" lon="-4.027214">
        <ele>72.2</ele>
        <time>2020-08-13T07:14:06Z</time>
      </trkpt>
      <trkpt lat="47.902328" lon="-4.027987">
        <ele>73.4</ele>
        <time>2020-08-13T07:14:12Z</time>
      </trkpt>
      <trkpt lat="47.902355" lon="-4.028015">
        <ele>73.4</ele>
        <time>2020-08-13T07:14:13Z</time>
      </trkpt>
      <trkpt lat="47.902381" lon="-4.02812">
        <ele>73.4</ele>
        <time>2020-08-13T07:14:13Z</time>
      </trkpt>
      <trkpt lat="47.902369" lon="-4.028174">
        <ele>73.4</ele>
        <time>2020-08-13T07:14:14Z</time>
      </trkpt>
      <trkpt lat="47.902451" lon="-4.028703">
        <ele>73.8</ele>
        <time>2020-08-13T07:14:18Z</time>
      </trkpt>
      <trkpt lat="47.902795" lon="-4.030325">
        <ele>73.6</ele>
        <time>2020-08-13T07:14:29Z</time>
      </trkpt>
      <trkpt lat="47.90294" lon="-4.03062">
        <ele>73.6</ele>
        <time>2020-08-13T07:14:32Z</time>
      </trkpt>
      <trkpt lat="47.902973" lon="-4.030643">
        <ele>73.6</ele>
        <time>2020-08-13T07:14:32Z</time>
      </trkpt>
      <trkpt lat="47.903016" lon="-4.030726">
        <ele>73.6</ele>
        <time>2020-08-13T07:14:33Z</time>
      </trkpt>
      <trkpt lat="47.903023" lon="-4.030778">
        <ele>73.6</ele>
        <time>2020-08-13T07:14:33Z</time>
      </trkpt>
      <trkpt lat="47.903004" lon="-4.030879">
        <ele>75.2</ele>
        <time>2020-08-13T07:14:34Z</time>
      </trkpt>
      <trkpt lat="47.90322" lon="-4.031552">
        <ele>75.2</ele>
        <time>2020-08-13T07:14:39Z</time>
      </trkpt>
      <trkpt lat="47.903475" lon="-4.032218">
        <ele>75.6</ele>
        <time>2020-08-13T07:14:44Z</time>
      </trkpt>
      <trkpt lat="47.903677" lon="-4.032684">
        <ele>76.6</ele>
        <time>2020-08-13T07:14:48Z</time>
      </trkpt>
      <trkpt lat="47.905428" lon="-4.037005">
        <ele>71.8</ele>
        <time>2020-08-13T07:15:23Z</time>
      </trkpt>
      <trkpt lat="47.905597" lon="-4.037503">
        <ele>72.4</ele>
        <time>2020-08-13T07:15:27Z</time>
      </trkpt>
      <trkpt lat="47.905775" lon="-4.038395">
        <ele>72.2</ele>
        <time>2020-08-13T07:15:33Z</time>
      </trkpt>
      <trkpt lat="47.90612" lon="-4.04055">
        <ele>70.2</ele>
        <time>2020-08-13T07:15:48Z</time>
      </trkpt>
      <trkpt lat="47.906442" lon="-4.042772">
        <ele>71.0</ele>
        <time>2020-08-13T07:16:04Z</time>
      </trkpt>
      <trkpt lat="47.906473" lon="-4.042769">
        <ele>71.0</ele>
        <time>2020-08-13T07:16:04Z</time>
      </trkpt>
      <trkpt lat="47.906539" lon="-4.042814">
        <ele>71.0</ele>
        <time>2020-08-13T07:16:05Z</time>
      </trkpt>
      <trkpt lat="47.906565" lon="-4.0429">
        <ele>71.0</ele>
        <time>2020-08-13T07:16:05Z</time>
      </trkpt>
      <trkpt lat="47.906568" lon="-4.042985">
        <ele>71.0</ele>
        <time>2020-08-13T07:16:06Z</time>
      </trkpt>
      <trkpt lat="47.906537" lon="-4.043091">
        <ele>71.0</ele>
        <time>2020-08-13T07:16:07Z</time>
      </trkpt>
      <trkpt lat="47.906528" lon="-4.043227">
        <ele>71.0</ele>
        <time>2020-08-13T07:16:08Z</time>
      </trkpt>
      <trkpt lat="47.906541" lon="-4.043466">
        <ele>70.6</ele>
        <time>2020-08-13T07:16:09Z</time>
      </trkpt>
      <trkpt lat="47.90673" lon="-4.044924">
        <ele>70.8</ele>
        <time>2020-08-13T07:16:20Z</time>
      </trkpt>
      <trkpt lat="47.906807" lon="-4.045221">
        <ele>70.0</ele>
        <time>2020-08-13T07:16:22Z</time>
      </trkpt>
      <trkpt lat="47.906843" lon="-4.045253">
        <ele>70.0</ele>
        <time>2020-08-13T07:16:22Z</time>
      </trkpt>
      <trkpt lat="47.906865" lon="-4.04532">
        <ele>70.0</ele>
        <time>2020-08-13T07:16:23Z</time>
      </trkpt>
      <trkpt lat="47.906852" lon="-4.045406">
        <ele>70.0</ele>
        <time>2020-08-13T07:16:23Z</time>
      </trkpt>
      <trkpt lat="47.906828" lon="-4.045441">
        <ele>70.0</ele>
        <time>2020-08-13T07:16:24Z</time>
      </trkpt>
      <trkpt lat="47.906758" lon="-4.045455">
        <ele>70.0</ele>
        <time>2020-08-13T07:16:24Z</time>
      </trkpt>
      <trkpt lat="47.906706" lon="-4.045377">
        <ele>70.0</ele>
        <time>2020-08-13T07:16:25Z</time>
      </trkpt>
      <trkpt lat="47.906311" lon="-4.045615">
        <ele>69.0</ele>
        <time>2020-08-13T07:16:30Z</time>
      </trkpt>
      <trkpt lat="47.90598" lon="-4.045845">
        <ele>68.2</ele>
        <time>2020-08-13T07:16:33Z</time>
      </trkpt>
      <trkpt lat="47.905677" lon="-4.046089">
        <ele>66.4</ele>
        <time>2020-08-13T07:16:37Z</time>
      </trkpt>
      <trkpt lat="47.905461" lon="-4.046297">
        <ele>66.4</ele>
        <time>2020-08-13T07:16:39Z</time>
      </trkpt>
      <trkpt lat="47.905058" lon="-4.046766">
        <ele>65.8</ele>
        <time>2020-08-13T07:16:45Z</time>
      </trkpt>
      <trkpt lat="47.904875" lon="-4.047012">
        <ele>65.6</ele>
        <time>2020-08-13T07:16:47Z</time>
      </trkpt>
      <trkpt lat="47.90448" lon="-4.047659">
        <ele>63.8</ele>
        <time>2020-08-13T07:16:53Z</time>
      </trkpt>
      <trkpt lat="47.90434" lon="-4.04784">
        <ele>63.8</ele>
        <time>2020-08-13T07:16:55Z</time>
      </trkpt>
      <trkpt lat="47.903633" lon="-4.04863">
        <ele>61.4</ele>
        <time>2020-08-13T07:17:04Z</time>
      </trkpt>
      <trkpt lat="47.90307" lon="-4.049224">
        <ele>57.8</ele>
        <time>2020-08-13T07:17:11Z</time>
      </trkpt>
      <trkpt lat="47.901627" lon="-4.050453">
        <ele>56.8</ele>
        <time>2020-08-13T07:17:28Z</time>
      </trkpt>
      <trkpt lat="47.900971" lon="-4.050786">
        <ele>56.8</ele>
        <time>2020-08-13T07:17:35Z</time>
      </trkpt>
      <trkpt lat="47.900323" lon="-4.051212">
        <ele>55.6</ele>
        <time>2020-08-13T07:17:43Z</time>
      </trkpt>
      <trkpt lat="47.900168" lon="-4.051358">
        <ele>55.6</ele>
        <time>2020-08-13T07:17:44Z</time>
      </trkpt>
      <trkpt lat="47.900065" lon="-4.051516">
        <ele>55.6</ele>
        <time>2020-08-13T07:17:46Z</time>
      </trkpt>
      <trkpt lat="47.899925" lon="-4.051858">
        <ele>56.4</ele>
        <time>2020-08-13T07:17:49Z</time>
      </trkpt>
      <trkpt lat="47.899831" lon="-4.05232">
        <ele>56.4</ele>
        <time>2020-08-13T07:17:52Z</time>
      </trkpt>
      <trkpt lat="47.899787" lon="-4.052836">
        <ele>60.2</ele>
        <time>2020-08-13T07:17:56Z</time>
      </trkpt>
      <trkpt lat="47.899727" lon="-4.053921">
        <ele>60.4</ele>
        <time>2020-08-13T07:18:03Z</time>
      </trkpt>
      <trkpt lat="47.89967" lon="-4.054049">
        <ele>60.4</ele>
        <time>2020-08-13T07:18:04Z</time>
      </trkpt>
      <trkpt lat="47.899508" lon="-4.054298">
        <ele>56.6</ele>
        <time>2020-08-13T07:18:07Z</time>
      </trkpt>
      <trkpt lat="47.899429" lon="-4.054463">
        <ele>56.6</ele>
        <time>2020-08-13T07:18:08Z</time>
      </trkpt>
      <trkpt lat="47.899389" lon="-4.054592">
        <ele>56.6</ele>
        <time>2020-08-13T07:18:09Z</time>
      </trkpt>
      <trkpt lat="47.89936" lon="-4.054783">
        <ele>56.6</ele>
        <time>2020-08-13T07:18:10Z</time>
      </trkpt>
      <trkpt lat="47.899335" lon="-4.055251">
        <ele>53.2</ele>
        <time>2020-08-13T07:18:13Z</time>
      </trkpt>
      <trkpt lat="47.89934" lon="-4.055775">
        <ele>53.2</ele>
        <time>2020-08-13T07:18:17Z</time>
      </trkpt>
      <trkpt lat="47.899307" lon="-4.056364">
        <ele>50.8</ele>
        <time>2020-08-13T07:18:21Z</time>
      </trkpt>
      <trkpt lat="47.899062" lon="-4.058352">
        <ele>48.4</ele>
        <time>2020-08-13T07:18:35Z</time>
      </trkpt>
      <trkpt lat="47.898988" lon="-4.058587">
        <ele>48.4</ele>
        <time>2020-08-13T07:18:37Z</time>
      </trkpt>
      <trkpt lat="47.898795" lon="-4.058962">
        <ele>48.4</ele>
        <time>2020-08-13T07:18:40Z</time>
      </trkpt>
      <trkpt lat="47.898702" lon="-4.059486">
        <ele>48.6</ele>
        <time>2020-08-13T07:18:44Z</time>
      </trkpt>
      <trkpt lat="47.898551" lon="-4.060038">
        <ele>48.2</ele>
        <time>2020-08-13T07:18:48Z</time>
      </trkpt>
      <trkpt lat="47.898518" lon="-4.060121">
        <ele>48.2</ele>
        <time>2020-08-13T07:18:48Z</time>
      </trkpt>
      <trkpt lat="47.898456" lon="-4.060212">
        <ele>48.2</ele>
        <time>2020-08-13T07:18:49Z</time>
      </trkpt>
      <trkpt lat="47.898362" lon="-4.060307">
        <ele>48.2</ele>
        <time>2020-08-13T07:18:51Z</time>
      </trkpt>
      <trkpt lat="47.898235" lon="-4.060528">
        <ele>46.8</ele>
        <time>2020-08-13T07:18:53Z</time>
      </trkpt>
      <trkpt lat="47.898014" lon="-4.061078">
        <ele>45.4</ele>
        <time>2020-08-13T07:18:57Z</time>
      </trkpt>
      <trkpt lat="47.897877" lon="-4.061463">
        <ele>45.4</ele>
        <time>2020-08-13T07:19:00Z</time>
      </trkpt>
      <trkpt lat="47.897853" lon="-4.06164">
        <ele>45.4</ele>
        <time>2020-08-13T07:19:01Z</time>
      </trkpt>
      <trkpt lat="47.897886" lon="-4.062118">
        <ele>44.4</ele>
        <time>2020-08-13T07:19:04Z</time>
      </trkpt>
      <trkpt lat="47.897871" lon="-4.062337">
        <ele>44.4</ele>
        <time>2020-08-13T07:19:06Z</time>
      </trkpt>
      <trkpt lat="47.897819" lon="-4.062563">
        <ele>42.8</ele>
        <time>2020-08-13T07:19:08Z</time>
      </trkpt>
      <trkpt lat="47.897689" lon="-4.0629">
        <ele>42.8</ele>
        <time>2020-08-13T07:19:11Z</time>
      </trkpt>
      <trkpt lat="47.897717" lon="-4.062974">
        <ele>42.8</ele>
        <time>2020-08-13T07:19:11Z</time>
      </trkpt>
      <trkpt lat="47.897693" lon="-4.063038">
        <ele>42.8</ele>
        <time>2020-08-13T07:19:12Z</time>
      </trkpt>
      <trkpt lat="47.897661" lon="-4.06305">
        <ele>42.8</ele>
        <time>2020-08-13T07:19:12Z</time>
      </trkpt>
      <trkpt lat="47.897639" lon="-4.063304">
        <ele>42.8</ele>
        <time>2020-08-13T07:19:14Z</time>
      </trkpt>
      <trkpt lat="47.897684" lon="-4.063903">
        <ele>40.6</ele>
        <time>2020-08-13T07:19:18Z</time>
      </trkpt>
      <trkpt lat="47.897679" lon="-4.064163">
        <ele>40.6</ele>
        <time>2020-08-13T07:19:20Z</time>
      </trkpt>
      <trkpt lat="47.897598" lon="-4.064607">
        <ele>38.4</ele>
        <time>2020-08-13T07:19:23Z</time>
      </trkpt>
      <trkpt lat="47.897433" lon="-4.065059">
        <ele>34.8</ele>
        <time>2020-08-13T07:19:26Z</time>
      </trkpt>
      <trkpt lat="47.897387" lon="-4.06534">
        <ele>34.8</ele>
        <time>2020-08-13T07:19:28Z</time>
      </trkpt>
      <trkpt lat="47.897392" lon="-4.065489">
        <ele>34.8</ele>
        <time>2020-08-13T07:19:29Z</time>
      </trkpt>
      <trkpt lat="47.897458" lon="-4.066031">
        <ele>34.0</ele>
        <time>2020-08-13T07:19:33Z</time>
      </trkpt>
      <trkpt lat="47.897571" lon="-4.066578">
        <ele>37.4</ele>
        <time>2020-08-13T07:19:37Z</time>
      </trkpt>
      <trkpt lat="47.897606" lon="-4.066873">
        <ele>36.2</ele>
        <time>2020-08-13T07:19:39Z</time>
      </trkpt>
      <trkpt lat="47.897638" lon="-4.067589">
        <ele>34.8</ele>
        <time>2020-08-13T07:19:44Z</time>
      </trkpt>
      <trkpt lat="47.897628" lon="-4.067797">
        <ele>34.8</ele>
        <time>2020-08-13T07:19:45Z</time>
      </trkpt>
      <trkpt lat="47.897608" lon="-4.067858">
        <ele>34.8</ele>
        <time>2020-08-13T07:19:46Z</time>
      </trkpt>
      <trkpt lat="47.897608" lon="-4.06799">
        <ele>34.8</ele>
        <time>2020-08-13T07:19:47Z</time>
      </trkpt>
      <trkpt lat="47.897639" lon="-4.068075">
        <ele>34.8</ele>
        <time>2020-08-13T07:19:48Z</time>
      </trkpt>
      <trkpt lat="47.897638" lon="-4.068109">
        <ele>34.8</ele>
        <time>2020-08-13T07:19:48Z</time>
      </trkpt>
      <trkpt lat="47.897631" lon="-4.068144">
        <ele>34.8</ele>
        <time>2020-08-13T07:19:48Z</time>
      </trkpt>
      <trkpt lat="47.897581" lon="-4.068203">
        <ele>34.8</ele>
        <time>2020-08-13T07:19:48Z</time>
      </trkpt>
      <trkpt lat="47.897608" lon="-4.069034">
        <ele>32.6</ele>
        <time>2020-08-13T07:19:53Z</time>
      </trkpt>
      <trkpt lat="47.897627" lon="-4.069096">
        <ele>32.6</ele>
        <time>2020-08-13T07:19:53Z</time>
      </trkpt>
      <trkpt lat="47.897636" lon="-4.069292">
        <ele>30.6</ele>
        <time>2020-08-13T07:19:54Z</time>
      </trkpt>
      <trkpt lat="47.897618" lon="-4.069371">
        <ele>30.6</ele>
        <time>2020-08-13T07:19:55Z</time>
      </trkpt>
      <trkpt lat="47.897553" lon="-4.070349">
        <ele>29.6</ele>
        <time>2020-08-13T07:20:00Z</time>
      </trkpt>
      <trkpt lat="47.897519" lon="-4.070602">
        <ele>29.6</ele>
        <time>2020-08-13T07:20:01Z</time>
      </trkpt>
      <trkpt lat="47.897383" lon="-4.071116">
        <ele>28.4</ele>
        <time>2020-08-13T07:20:04Z</time>
      </trkpt>
      <trkpt lat="47.897198" lon="-4.071576">
        <ele>28.4</ele>
        <time>2020-08-13T07:20:07Z</time>
      </trkpt>
      <trkpt lat="47.897083" lon="-4.071787">
        <ele>31.2</ele>
        <time>2020-08-13T07:20:08Z</time>
      </trkpt>
      <trkpt lat="47.896692" lon="-4.072355">
        <ele>31.2</ele>
        <time>2020-08-13T07:20:13Z</time>
      </trkpt>
      <trkpt lat="47.895915" lon="-4.073564">
        <ele>31.4</ele>
        <time>2020-08-13T07:20:21Z</time>
      </trkpt>
      <trkpt lat="47.895643" lon="-4.073856">
        <ele>26.0</ele>
        <time>2020-08-13T07:20:24Z</time>
      </trkpt>
      <trkpt lat="47.895462" lon="-4.074091">
        <ele>26.0</ele>
        <time>2020-08-13T07:20:26Z</time>
      </trkpt>
      <trkpt lat="47.89529" lon="-4.074384">
        <ele>27.0</ele>
        <time>2020-08-13T07:20:28Z</time>
      </trkpt>
      <trkpt lat="47.89515" lon="-4.074712">
        <ele>27.0</ele>
        <time>2020-08-13T07:20:30Z</time>
      </trkpt>
      <trkpt lat="47.894841" lon="-4.075582">
        <ele>22.2</ele>
        <time>2020-08-13T07:20:35Z</time>
      </trkpt>
      <trkpt lat="47.894766" lon="-4.075893">
        <ele>21.2</ele>
        <time>2020-08-13T07:20:37Z</time>
      </trkpt>
      <trkpt lat="47.894718" lon="-4.076239">
        <ele>21.2</ele>
        <time>2020-08-13T07:20:39Z</time>
      </trkpt>
      <trkpt lat="47.8947" lon="-4.07668">
        <ele>20.2</ele>
        <time>2020-08-13T07:20:41Z</time>
      </trkpt>
      <trkpt lat="47.894729" lon="-4.077128">
        <ele>20.2</ele>
        <time>2020-08-13T07:20:44Z</time>
      </trkpt>
      <trkpt lat="47.894809" lon="-4.080154">
        <ele>23.8</ele>
        <time>2020-08-13T07:20:59Z</time>
      </trkpt>
      <trkpt lat="47.89481" lon="-4.08455">
        <ele>33.4</ele>
        <time>2020-08-13T07:21:23Z</time>
      </trkpt>
      <trkpt lat="47.89486" lon="-4.084955">
        <ele>33.4</ele>
        <time>2020-08-13T07:21:25Z</time>
      </trkpt>
      <trkpt lat="47.895007" lon="-4.085655">
        <ele>38.6</ele>
        <time>2020-08-13T07:21:29Z</time>
      </trkpt>
      <trkpt lat="47.895259" lon="-4.086709">
        <ele>39.8</ele>
        <time>2020-08-13T07:21:35Z</time>
      </trkpt>
      <trkpt lat="47.895378" lon="-4.087069">
        <ele>39.8</ele>
        <time>2020-08-13T07:21:37Z</time>
      </trkpt>
      <trkpt lat="47.895605" lon="-4.087559">
        <ele>38.4</ele>
        <time>2020-08-13T07:21:40Z</time>
      </trkpt>
      <trkpt lat="47.895161" lon="-4.088223">
        <ele>38.4</ele>
        <time>2020-08-13T07:21:47Z</time>
      </trkpt>
      <trkpt lat="47.894856" lon="-4.088866">
        <ele>36.4</ele>
        <time>2020-08-13T07:21:53Z</time>
      </trkpt>
      <trkpt lat="47.894518" lon="-4.089607">
        <ele>35.6</ele>
        <time>2020-08-13T07:22:00Z</time>
      </trkpt>
      <trkpt lat="47.894267" lon="-4.090235">
        <ele>34.8</ele>
        <time>2020-08-13T07:22:05Z</time>
      </trkpt>
      <trkpt lat="47.894203" lon="-4.090446">
        <ele>34.8</ele>
        <time>2020-08-13T07:22:07Z</time>
      </trkpt>
      <trkpt lat="47.894191" lon="-4.090585">
        <ele>34.8</ele>
        <time>2020-08-13T07:22:08Z</time>
      </trkpt>
      <trkpt lat="47.894206" lon="-4.090641">
        <ele>34.8</ele>
        <time>2020-08-13T07:22:08Z</time>
      </trkpt>
      <trkpt lat="47.894203" lon="-4.090721">
        <ele>34.8</ele>
        <time>2020-08-13T07:22:09Z</time>
      </trkpt>
      <trkpt lat="47.894182" lon="-4.09079">
        <ele>34.8</ele>
        <time>2020-08-13T07:22:09Z</time>
      </trkpt>
      <trkpt lat="47.894129" lon="-4.090836">
        <ele>32.8</ele>
        <time>2020-08-13T07:22:10Z</time>
      </trkpt>
      <trkpt lat="47.89408" lon="-4.090849">
        <ele>32.8</ele>
        <time>2020-08-13T07:22:10Z</time>
      </trkpt>
      <trkpt lat="47.893917" lon="-4.091139">
        <ele>32.8</ele>
        <time>2020-08-13T07:22:13Z</time>
      </trkpt>
      <trkpt lat="47.893153" lon="-4.092773">
        <ele>34.8</ele>
        <time>2020-08-13T07:22:25Z</time>
      </trkpt>
      <trkpt lat="47.892969" lon="-4.093072">
        <ele>34.8</ele>
        <time>2020-08-13T07:22:28Z</time>
      </trkpt>
      <trkpt lat="47.892035" lon="-4.094732">
        <ele>32.6</ele>
        <time>2020-08-13T07:22:41Z</time>
      </trkpt>
      <trkpt lat="47.89162" lon="-4.09537">
        <ele>31.6</ele>
        <time>2020-08-13T07:22:47Z</time>
      </trkpt>
      <trkpt lat="47.891409" lon="-4.095627">
        <ele>31.6</ele>
        <time>2020-08-13T07:22:49Z</time>
      </trkpt>
      <trkpt lat="47.890294" lon="-4.096647">
        <ele>32.2</ele>
        <time>2020-08-13T07:23:01Z</time>
      </trkpt>
      <trkpt lat="47.889186" lon="-4.097617">
        <ele>30.6</ele>
        <time>2020-08-13T07:23:13Z</time>
      </trkpt>
      <trkpt lat="47.887845" lon="-4.098945">
        <ele>26.8</ele>
        <time>2020-08-13T07:23:28Z</time>
      </trkpt>
      <trkpt lat="47.886745" lon="-4.099973">
        <ele>25.8</ele>
        <time>2020-08-13T07:23:40Z</time>
      </trkpt>
      <trkpt lat="47.885825" lon="-4.100669">
        <ele>24.0</ele>
        <time>2020-08-13T07:23:50Z</time>
      </trkpt>
      <trkpt lat="47.884935" lon="-4.101224">
        <ele>21.8</ele>
        <time>2020-08-13T07:23:59Z</time>
      </trkpt>
      <trkpt lat="47.884475" lon="-4.101566">
        <ele>21.8</ele>
        <time>2020-08-13T07:24:04Z</time>
      </trkpt>
      <trkpt lat="47.882051" lon="-4.103683">
        <ele>15.8</ele>
        <time>2020-08-13T07:24:30Z</time>
      </trkpt>
      <trkpt lat="47.881421" lon="-4.104275">
        <ele>10.6</ele>
        <time>2020-08-13T07:24:37Z</time>
      </trkpt>
      <trkpt lat="47.881318" lon="-4.104468">
        <ele>10.6</ele>
        <time>2020-08-13T07:24:39Z</time>
      </trkpt>
      <trkpt lat="47.88125" lon="-4.104653">
        <ele>10.6</ele>
        <time>2020-08-13T07:24:40Z</time>
      </trkpt>
      <trkpt lat="47.881219" lon="-4.104859">
        <ele>10.6</ele>
        <time>2020-08-13T07:24:41Z</time>
      </trkpt>
      <trkpt lat="47.88123" lon="-4.104951">
        <ele>10.6</ele>
        <time>2020-08-13T07:24:42Z</time>
      </trkpt>
      <trkpt lat="47.881298" lon="-4.105171">
        <ele>9.4</ele>
        <time>2020-08-13T07:24:43Z</time>
      </trkpt>
      <trkpt lat="47.881631" lon="-4.105724">
        <ele>9.4</ele>
        <time>2020-08-13T07:24:46Z</time>
      </trkpt>
      <trkpt lat="47.88246" lon="-4.107244">
        <ele>4.2</ele>
        <time>2020-08-13T07:24:55Z</time>
      </trkpt>
      <trkpt lat="47.88454" lon="-4.111171">
        <ele>4.8</ele>
        <time>2020-08-13T07:25:18Z</time>
      </trkpt>
      <trkpt lat="47.886492" lon="-4.114802">
        <ele>13.0</ele>
        <time>2020-08-13T07:25:39Z</time>
      </trkpt>
      <trkpt lat="47.886686" lon="-4.115231">
        <ele>19.8</ele>
        <time>2020-08-13T07:25:41Z</time>
      </trkpt>
      <trkpt lat="47.886826" lon="-4.115725">
        <ele>19.8</ele>
        <time>2020-08-13T07:25:43Z</time>
      </trkpt>
      <trkpt lat="47.886934" lon="-4.116306">
        <ele>20.6</ele>
        <time>2020-08-13T07:25:46Z</time>
      </trkpt>
      <trkpt lat="47.886986" lon="-4.116807">
        <ele>20.2</ele>
        <time>2020-08-13T07:25:48Z</time>
      </trkpt>
      <trkpt lat="47.886992" lon="-4.117313">
        <ele>20.2</ele>
        <time>2020-08-13T07:25:51Z</time>
      </trkpt>
      <trkpt lat="47.886951" lon="-4.117842">
        <ele>19.0</ele>
        <time>2020-08-13T07:25:53Z</time>
      </trkpt>
      <trkpt lat="47.886908" lon="-4.118204">
        <ele>19.0</ele>
        <time>2020-08-13T07:25:55Z</time>
      </trkpt>
      <trkpt lat="47.886808" lon="-4.118667">
        <ele>16.4</ele>
        <time>2020-08-13T07:25:57Z</time>
      </trkpt>
      <trkpt lat="47.886654" lon="-4.119088">
        <ele>8.8</ele>
        <time>2020-08-13T07:25:59Z</time>
      </trkpt>
      <trkpt lat="47.886455" lon="-4.119544">
        <ele>4.6</ele>
        <time>2020-08-13T07:26:02Z</time>
      </trkpt>
      <trkpt lat="47.88614" lon="-4.120087">
        <ele>1.6</ele>
        <time>2020-08-13T07:26:05Z</time>
      </trkpt>
      <trkpt lat="47.885246" lon="-4.12142">
        <ele>0.0</ele>
        <time>2020-08-13T07:26:13Z</time>
      </trkpt>
      <trkpt lat="47.884226" lon="-4.122898">
        <ele>3.4</ele>
        <time>2020-08-13T07:26:23Z</time>
      </trkpt>
      <trkpt lat="47.88332" lon="-4.124263">
        <ele>22.0</ele>
        <time>2020-08-13T07:26:32Z</time>
      </trkpt>
      <trkpt lat="47.882184" lon="-4.125911">
        <ele>22.2</ele>
        <time>2020-08-13T07:26:42Z</time>
      </trkpt>
      <trkpt lat="47.880189" lon="-4.128893">
        <ele>21.6</ele>
        <time>2020-08-13T07:27:01Z</time>
      </trkpt>
      <trkpt lat="47.879543" lon="-4.129816">
        <ele>21.6</ele>
        <time>2020-08-13T07:27:07Z</time>
      </trkpt>
      <trkpt lat="47.879103" lon="-4.13055">
        <ele>21.8</ele>
        <time>2020-08-13T07:27:12Z</time>
      </trkpt>
      <trkpt lat="47.878736" lon="-4.13136">
        <ele>23.8</ele>
        <time>2020-08-13T07:27:16Z</time>
      </trkpt>
      <trkpt lat="47.87846" lon="-4.132182">
        <ele>26.0</ele>
        <time>2020-08-13T07:27:20Z</time>
      </trkpt>
      <trkpt lat="47.87829" lon="-4.132949">
        <ele>25.8</ele>
        <time>2020-08-13T07:27:24Z</time>
      </trkpt>
      <trkpt lat="47.878131" lon="-4.1338">
        <ele>27.2</ele>
        <time>2020-08-13T07:27:28Z</time>
      </trkpt>
      <trkpt lat="47.878085" lon="-4.134095">
        <ele>27.2</ele>
        <time>2020-08-13T07:27:29Z</time>
      </trkpt>
      <trkpt lat="47.878098" lon="-4.134412">
        <ele>27.4</ele>
        <time>2020-08-13T07:27:31Z</time>
      </trkpt>
      <trkpt lat="47.878118" lon="-4.134469">
        <ele>27.4</ele>
        <time>2020-08-13T07:27:31Z</time>
      </trkpt>
      <trkpt lat="47.87812" lon="-4.13456">
        <ele>27.4</ele>
        <time>2020-08-13T07:27:32Z</time>
      </trkpt>
      <trkpt lat="47.878076" lon="-4.134666">
        <ele>27.4</ele>
        <time>2020-08-13T07:27:32Z</time>
      </trkpt>
      <trkpt lat="47.878038" lon="-4.134696">
        <ele>27.4</ele>
        <time>2020-08-13T07:27:32Z</time>
      </trkpt>
      <trkpt lat="47.878011" lon="-4.134875">
        <ele>27.4</ele>
        <time>2020-08-13T07:27:33Z</time>
      </trkpt>
      <trkpt lat="47.878021" lon="-4.135151">
        <ele>27.2</ele>
        <time>2020-08-13T07:27:35Z</time>
      </trkpt>
      <trkpt lat="47.878233" lon="-4.136202">
        <ele>26.4</ele>
        <time>2020-08-13T07:27:40Z</time>
      </trkpt>
      <trkpt lat="47.87861" lon="-4.137841">
        <ele>32.8</ele>
        <time>2020-08-13T07:27:49Z</time>
      </trkpt>
      <trkpt lat="47.878805" lon="-4.138859">
        <ele>33.8</ele>
        <time>2020-08-13T07:27:54Z</time>
      </trkpt>
      <trkpt lat="47.878895" lon="-4.139615">
        <ele>35.4</ele>
        <time>2020-08-13T07:27:58Z</time>
      </trkpt>
      <trkpt lat="47.878956" lon="-4.140972">
        <ele>32.2</ele>
        <time>2020-08-13T07:28:05Z</time>
      </trkpt>
      <trkpt lat="47.878935" lon="-4.141727">
        <ele>30.6</ele>
        <time>2020-08-13T07:28:09Z</time>
      </trkpt>
      <trkpt lat="47.878879" lon="-4.142721">
        <ele>29.2</ele>
        <time>2020-08-13T07:28:14Z</time>
      </trkpt>
      <trkpt lat="47.878894" lon="-4.14356">
        <ele>26.2</ele>
        <time>2020-08-13T07:28:18Z</time>
      </trkpt>
      <trkpt lat="47.878928" lon="-4.144037">
        <ele>26.2</ele>
        <time>2020-08-13T07:28:20Z</time>
      </trkpt>
      <trkpt lat="47.878993" lon="-4.144401">
        <ele>22.6</ele>
        <time>2020-08-13T07:28:22Z</time>
      </trkpt>
      <trkpt lat="47.879129" lon="-4.144861">
        <ele>22.6</ele>
        <time>2020-08-13T07:28:25Z</time>
      </trkpt>
      <trkpt lat="47.879386" lon="-4.145455">
        <ele>21.4</ele>
        <time>2020-08-13T07:28:28Z</time>
      </trkpt>
      <trkpt lat="47.879757" lon="-4.146057">
        <ele>20.2</ele>
        <time>2020-08-13T07:28:32Z</time>
      </trkpt>
      <trkpt lat="47.879934" lon="-4.146298">
        <ele>20.2</ele>
        <time>2020-08-13T07:28:34Z</time>
      </trkpt>
      <trkpt lat="47.882419" lon="-4.149284">
        <ele>29.6</ele>
        <time>2020-08-13T07:28:58Z</time>
      </trkpt>
      <trkpt lat="47.88279" lon="-4.149761">
        <ele>33.4</ele>
        <time>2020-08-13T07:29:02Z</time>
      </trkpt>
      <trkpt lat="47.883061" lon="-4.150159">
        <ele>31.0</ele>
        <time>2020-08-13T07:29:05Z</time>
      </trkpt>
      <trkpt lat="47.883331" lon="-4.15063">
        <ele>31.0</ele>
        <time>2020-08-13T07:29:08Z</time>
      </trkpt>
      <trkpt lat="47.883454" lon="-4.15091">
        <ele>31.8</ele>
        <time>2020-08-13T07:29:09Z</time>
      </trkpt>
      <trkpt lat="47.883597" lon="-4.151333">
        <ele>31.8</ele>
        <time>2020-08-13T07:29:12Z</time>
      </trkpt>
      <trkpt lat="47.88371" lon="-4.151714">
        <ele>30.2</ele>
        <time>2020-08-13T07:29:14Z</time>
      </trkpt>
      <trkpt lat="47.883799" lon="-4.15213">
        <ele>30.2</ele>
        <time>2020-08-13T07:29:16Z</time>
      </trkpt>
      <trkpt lat="47.883874" lon="-4.152575">
        <ele>29.4</ele>
        <time>2020-08-13T07:29:18Z</time>
      </trkpt>
      <trkpt lat="47.88395" lon="-4.153165">
        <ele>29.4</ele>
        <time>2020-08-13T07:29:21Z</time>
      </trkpt>
      <trkpt lat="47.884191" lon="-4.155334">
        <ele>27.6</ele>
        <time>2020-08-13T07:29:33Z</time>
      </trkpt>
      <trkpt lat="47.884298" lon="-4.155796">
        <ele>27.6</ele>
        <time>2020-08-13T07:29:35Z</time>
      </trkpt>
      <trkpt lat="47.884352" lon="-4.155937">
        <ele>27.2</ele>
        <time>2020-08-13T07:29:36Z</time>
      </trkpt>
      <trkpt lat="47.884377" lon="-4.155965">
        <ele>27.2</ele>
        <time>2020-08-13T07:29:36Z</time>
      </trkpt>
      <trkpt lat="47.884399" lon="-4.156051">
        <ele>27.2</ele>
        <time>2020-08-13T07:29:37Z</time>
      </trkpt>
      <trkpt lat="47.884393" lon="-4.156103">
        <ele>27.2</ele>
        <time>2020-08-13T07:29:37Z</time>
      </trkpt>
      <trkpt lat="47.884364" lon="-4.156159">
        <ele>27.2</ele>
        <time>2020-08-13T07:29:37Z</time>
      </trkpt>
      <trkpt lat="47.884338" lon="-4.156329">
        <ele>27.2</ele>
        <time>2020-08-13T07:29:38Z</time>
      </trkpt>
      <trkpt lat="47.884402" lon="-4.157815">
        <ele>29.4</ele>
        <time>2020-08-13T07:29:47Z</time>
      </trkpt>
      <trkpt lat="47.884365" lon="-4.158387">
        <ele>31.0</ele>
        <time>2020-08-13T07:29:50Z</time>
      </trkpt>
      <trkpt lat="47.883727" lon="-4.163437">
        <ele>27.2</ele>
        <time>2020-08-13T07:30:18Z</time>
      </trkpt>
      <trkpt lat="47.883705" lon="-4.163781">
        <ele>27.2</ele>
        <time>2020-08-13T07:30:20Z</time>
      </trkpt>
      <trkpt lat="47.883698" lon="-4.164309">
        <ele>27.0</ele>
        <time>2020-08-13T07:30:23Z</time>
      </trkpt>
      <trkpt lat="47.883769" lon="-4.165086">
        <ele>27.0</ele>
        <time>2020-08-13T07:30:27Z</time>
      </trkpt>
      <trkpt lat="47.884208" lon="-4.167883">
        <ele>26.4</ele>
        <time>2020-08-13T07:30:43Z</time>
      </trkpt>
      <trkpt lat="47.884327" lon="-4.168289">
        <ele>26.4</ele>
        <time>2020-08-13T07:30:46Z</time>
      </trkpt>
      <trkpt lat="47.884458" lon="-4.168661">
        <ele>25.2</ele>
        <time>2020-08-13T07:30:48Z</time>
      </trkpt>
      <trkpt lat="47.884507" lon="-4.168751">
        <ele>25.2</ele>
        <time>2020-08-13T07:30:49Z</time>
      </trkpt>
      <trkpt lat="47.884547" lon="-4.168899">
        <ele>25.2</ele>
        <time>2020-08-13T07:30:50Z</time>
      </trkpt>
      <trkpt lat="47.884517" lon="-4.169233">
        <ele>24.0</ele>
        <time>2020-08-13T07:30:52Z</time>
      </trkpt>
      <trkpt lat="47.884525" lon="-4.170066">
        <ele>22.6</ele>
        <time>2020-08-13T07:30:57Z</time>
      </trkpt>
      <trkpt lat="47.884908" lon="-4.173815">
        <ele>19.2</ele>
        <time>2020-08-13T07:31:20Z</time>
      </trkpt>
      <trkpt lat="47.88506" lon="-4.174853">
        <ele>17.4</ele>
        <time>2020-08-13T07:31:26Z</time>
      </trkpt>
      <trkpt lat="47.8854" lon="-4.176211">
        <ele>17.0</ele>
        <time>2020-08-13T07:31:35Z</time>
      </trkpt>
      <trkpt lat="47.885572" lon="-4.176983">
        <ele>18.4</ele>
        <time>2020-08-13T07:31:40Z</time>
      </trkpt>
      <trkpt lat="47.885612" lon="-4.177212">
        <ele>18.4</ele>
        <time>2020-08-13T07:31:41Z</time>
      </trkpt>
      <trkpt lat="47.885664" lon="-4.177733">
        <ele>19.2</ele>
        <time>2020-08-13T07:31:45Z</time>
      </trkpt>
      <trkpt lat="47.885674" lon="-4.178194">
        <ele>19.2</ele>
        <time>2020-08-13T07:31:47Z</time>
      </trkpt>
      <trkpt lat="47.885616" lon="-4.18179">
        <ele>21.8</ele>
        <time>2020-08-13T07:32:09Z</time>
      </trkpt>
      <trkpt lat="47.885591" lon="-4.182627">
        <ele>20.8</ele>
        <time>2020-08-13T07:32:14Z</time>
      </trkpt>
      <trkpt lat="47.885454" lon="-4.183712">
        <ele>19.4</ele>
        <time>2020-08-13T07:32:21Z</time>
      </trkpt>
      <trkpt lat="47.885149" lon="-4.185274">
        <ele>15.0</ele>
        <time>2020-08-13T07:32:31Z</time>
      </trkpt>
      <trkpt lat="47.885074" lon="-4.185725">
        <ele>15.0</ele>
        <time>2020-08-13T07:32:34Z</time>
      </trkpt>
      <trkpt lat="47.883999" lon="-4.19323">
        <ele>16.6</ele>
        <time>2020-08-13T07:33:20Z</time>
      </trkpt>
      <trkpt lat="47.883634" lon="-4.19622">
        <ele>13.4</ele>
        <time>2020-08-13T07:33:38Z</time>
      </trkpt>
      <trkpt lat="47.883591" lon="-4.197147">
        <ele>15.6</ele>
        <time>2020-08-13T07:33:44Z</time>
      </trkpt>
      <trkpt lat="47.883588" lon="-4.197956">
        <ele>19.0</ele>
        <time>2020-08-13T07:33:49Z</time>
      </trkpt>
      <trkpt lat="47.883788" lon="-4.202045">
        <ele>29.2</ele>
        <time>2020-08-13T07:34:14Z</time>
      </trkpt>
      <trkpt lat="47.883793" lon="-4.202642">
        <ele>29.4</ele>
        <time>2020-08-13T07:34:17Z</time>
      </trkpt>
      <trkpt lat="47.883724" lon="-4.205165">
        <ele>31.8</ele>
        <time>2020-08-13T07:34:33Z</time>
      </trkpt>
      <trkpt lat="47.88378" lon="-4.206903">
        <ele>34.6</ele>
        <time>2020-08-13T07:34:43Z</time>
      </trkpt>
      <trkpt lat="47.883784" lon="-4.207442">
        <ele>34.6</ele>
        <time>2020-08-13T07:34:47Z</time>
      </trkpt>
      <trkpt lat="47.883766" lon="-4.207766">
        <ele>34.8</ele>
        <time>2020-08-13T07:34:48Z</time>
      </trkpt>
      <trkpt lat="47.883661" lon="-4.208448">
        <ele>34.4</ele>
        <time>2020-08-13T07:34:53Z</time>
      </trkpt>
      <trkpt lat="47.883611" lon="-4.208669">
        <ele>34.4</ele>
        <time>2020-08-13T07:34:54Z</time>
      </trkpt>
      <trkpt lat="47.883482" lon="-4.209085">
        <ele>34.4</ele>
        <time>2020-08-13T07:34:57Z</time>
      </trkpt>
      <trkpt lat="47.88338" lon="-4.20934">
        <ele>34.2</ele>
        <time>2020-08-13T07:34:59Z</time>
      </trkpt>
      <trkpt lat="47.883173" lon="-4.209807">
        <ele>37.4</ele>
        <time>2020-08-13T07:35:02Z</time>
      </trkpt>
      <trkpt lat="47.881017" lon="-4.21439">
        <ele>28.2</ele>
        <time>2020-08-13T07:35:36Z</time>
      </trkpt>
      <trkpt lat="47.880851" lon="-4.214958">
        <ele>28.2</ele>
        <time>2020-08-13T07:35:40Z</time>
      </trkpt>
      <trkpt lat="47.880773" lon="-4.215352">
        <ele>24.2</ele>
        <time>2020-08-13T07:35:42Z</time>
      </trkpt>
      <trkpt lat="47.880652" lon="-4.216262">
        <ele>24.8</ele>
        <time>2020-08-13T07:35:48Z</time>
      </trkpt>
      <trkpt lat="47.880674" lon="-4.21648">
        <ele>24.8</ele>
        <time>2020-08-13T07:35:49Z</time>
      </trkpt>
      <trkpt lat="47.880764" lon="-4.216547">
        <ele>24.8</ele>
        <time>2020-08-13T07:35:50Z</time>
      </trkpt>
      <trkpt lat="47.880839" lon="-4.216649">
        <ele>26.8</ele>
        <time>2020-08-13T07:35:51Z</time>
      </trkpt>
      <trkpt lat="47.880892" lon="-4.216778">
        <ele>27.2</ele>
        <time>2020-08-13T07:35:51Z</time>
      </trkpt>
      <trkpt lat="47.880919" lon="-4.21693">
        <ele>27.2</ele>
        <time>2020-08-13T07:35:52Z</time>
      </trkpt>
      <trkpt lat="47.880916" lon="-4.217086">
        <ele>27.2</ele>
        <time>2020-08-13T07:35:53Z</time>
      </trkpt>
      <trkpt lat="47.880887" lon="-4.217222">
        <ele>27.2</ele>
        <time>2020-08-13T07:35:53Z</time>
      </trkpt>
      <trkpt lat="47.880836" lon="-4.217341">
        <ele>27.2</ele>
        <time>2020-08-13T07:35:54Z</time>
      </trkpt>
      <trkpt lat="47.880756" lon="-4.217446">
        <ele>27.6</ele>
        <time>2020-08-13T07:35:55Z</time>
      </trkpt>
      <trkpt lat="47.880659" lon="-4.217511">
        <ele>30.8</ele>
        <time>2020-08-13T07:35:55Z</time>
      </trkpt>
      <trkpt lat="47.880601" lon="-4.217668">
        <ele>30.8</ele>
        <time>2020-08-13T07:35:56Z</time>
      </trkpt>
      <trkpt lat="47.880545" lon="-4.218116">
        <ele>30.8</ele>
        <time>2020-08-13T07:35:58Z</time>
      </trkpt>
      <trkpt lat="47.88043" lon="-4.220842">
        <ele>31.2</ele>
        <time>2020-08-13T07:36:10Z</time>
      </trkpt>
      <trkpt lat="47.88023" lon="-4.223429">
        <ele>27.6</ele>
        <time>2020-08-13T07:36:21Z</time>
      </trkpt>
      <trkpt lat="47.880014" lon="-4.225005">
        <ele>18.0</ele>
        <time>2020-08-13T07:36:28Z</time>
      </trkpt>
      <trkpt lat="47.879652" lon="-4.227065">
        <ele>14.2</ele>
        <time>2020-08-13T07:36:38Z</time>
      </trkpt>
      <trkpt lat="47.87901" lon="-4.230167">
        <ele>18.0</ele>
        <time>2020-08-13T07:36:52Z</time>
      </trkpt>
      <trkpt lat="47.878535" lon="-4.232373">
        <ele>19.2</ele>
        <time>2020-08-13T07:37:02Z</time>
      </trkpt>
      <trkpt lat="47.87831" lon="-4.233313">
        <ele>23.2</ele>
        <time>2020-08-13T07:37:06Z</time>
      </trkpt>
      <trkpt lat="47.878093" lon="-4.234096">
        <ele>24.0</ele>
        <time>2020-08-13T07:37:10Z</time>
      </trkpt>
      <trkpt lat="47.877967" lon="-4.234492">
        <ele>24.2</ele>
        <time>2020-08-13T07:37:12Z</time>
      </trkpt>
      <trkpt lat="47.877725" lon="-4.235108">
        <ele>24.4</ele>
        <time>2020-08-13T07:37:15Z</time>
      </trkpt>
      <trkpt lat="47.877347" lon="-4.235854">
        <ele>25.6</ele>
        <time>2020-08-13T07:37:19Z</time>
      </trkpt>
      <trkpt lat="47.876975" lon="-4.236393">
        <ele>25.6</ele>
        <time>2020-08-13T07:37:23Z</time>
      </trkpt>
      <trkpt lat="47.876587" lon="-4.23686">
        <ele>23.8</ele>
        <time>2020-08-13T07:37:26Z</time>
      </trkpt>
      <trkpt lat="47.876229" lon="-4.237214">
        <ele>23.8</ele>
        <time>2020-08-13T07:37:29Z</time>
      </trkpt>
      <trkpt lat="47.875847" lon="-4.237518">
        <ele>23.6</ele>
        <time>2020-08-13T07:37:31Z</time>
      </trkpt>
      <trkpt lat="47.874914" lon="-4.238091">
        <ele>22.0</ele>
        <time>2020-08-13T07:37:38Z</time>
      </trkpt>
      <trkpt lat="47.873455" lon="-4.238885">
        <ele>19.6</ele>
        <time>2020-08-13T07:37:48Z</time>
      </trkpt>
      <trkpt lat="47.872892" lon="-4.239111">
        <ele>15.2</ele>
        <time>2020-08-13T07:37:52Z</time>
      </trkpt>
      <trkpt lat="47.872263" lon="-4.239197">
        <ele>12.8</ele>
        <time>2020-08-13T07:37:56Z</time>
      </trkpt>
      <trkpt lat="47.871877" lon="-4.239303">
        <ele>12.8</ele>
        <time>2020-08-13T07:37:59Z</time>
      </trkpt>
      <trkpt lat="47.871798" lon="-4.239361">
        <ele>12.8</ele>
        <time>2020-08-13T07:37:59Z</time>
      </trkpt>
      <trkpt lat="47.87174" lon="-4.239448">
        <ele>12.8</ele>
        <time>2020-08-13T07:38:00Z</time>
      </trkpt>
      <trkpt lat="47.871744" lon="-4.239578">
        <ele>12.8</ele>
        <time>2020-08-13T07:38:00Z</time>
      </trkpt>
      <trkpt lat="47.871729" lon="-4.239655">
        <ele>12.8</ele>
        <time>2020-08-13T07:38:01Z</time>
      </trkpt>
      <trkpt lat="47.871661" lon="-4.239778">
        <ele>11.6</ele>
        <time>2020-08-13T07:38:01Z</time>
      </trkpt>
      <trkpt lat="47.871604" lon="-4.239821">
        <ele>11.6</ele>
        <time>2020-08-13T07:38:02Z</time>
      </trkpt>
      <trkpt lat="47.871492" lon="-4.239827">
        <ele>11.6</ele>
        <time>2020-08-13T07:38:03Z</time>
      </trkpt>
      <trkpt lat="47.871416" lon="-4.239774">
        <ele>11.6</ele>
        <time>2020-08-13T07:38:03Z</time>
      </trkpt>
      <trkpt lat="47.871337" lon="-4.239773">
        <ele>11.6</ele>
        <time>2020-08-13T07:38:04Z</time>
      </trkpt>
      <trkpt lat="47.871212" lon="-4.239787">
        <ele>11.6</ele>
        <time>2020-08-13T07:38:05Z</time>
      </trkpt>
      <trkpt lat="47.871099" lon="-4.23983">
        <ele>11.6</ele>
        <time>2020-08-13T07:38:06Z</time>
      </trkpt>
      <trkpt lat="47.87093" lon="-4.239905">
        <ele>11.6</ele>
        <time>2020-08-13T07:38:07Z</time>
      </trkpt>
      <trkpt lat="47.870241" lon="-4.240348">
        <ele>12.0</ele>
        <time>2020-08-13T07:38:12Z</time>
      </trkpt>
      <trkpt lat="47.863681" lon="-4.244927">
        <ele>14.0</ele>
        <time>2020-08-13T07:39:03Z</time>
      </trkpt>
      <trkpt lat="47.862987" lon="-4.245444">
        <ele>12.8</ele>
        <time>2020-08-13T07:39:08Z</time>
      </trkpt>
      <trkpt lat="47.862804" lon="-4.245627">
        <ele>12.8</ele>
        <time>2020-08-13T07:39:10Z</time>
      </trkpt>
      <trkpt lat="47.862799" lon="-4.245689">
        <ele>12.8</ele>
        <time>2020-08-13T07:39:10Z</time>
      </trkpt>
      <trkpt lat="47.862757" lon="-4.245796">
        <ele>12.8</ele>
        <time>2020-08-13T07:39:10Z</time>
      </trkpt>
      <trkpt lat="47.862723" lon="-4.245833">
        <ele>12.8</ele>
        <time>2020-08-13T07:39:11Z</time>
      </trkpt>
      <trkpt lat="47.862642" lon="-4.24586">
        <ele>13.4</ele>
        <time>2020-08-13T07:39:11Z</time>
      </trkpt>
      <trkpt lat="47.862581" lon="-4.245837">
        <ele>13.4</ele>
        <time>2020-08-13T07:39:12Z</time>
      </trkpt>
      <trkpt lat="47.862531" lon="-4.245778">
        <ele>12.8</ele>
        <time>2020-08-13T07:39:12Z</time>
      </trkpt>
      <trkpt lat="47.861907" lon="-4.246115">
        <ele>12.2</ele>
        <time>2020-08-13T07:39:17Z</time>
      </trkpt>
      <trkpt lat="47.861295" lon="-4.24635">
        <ele>12.8</ele>
        <time>2020-08-13T07:39:22Z</time>
      </trkpt>
      <trkpt lat="47.860613" lon="-4.246526">
        <ele>13.2</ele>
        <time>2020-08-13T07:39:27Z</time>
      </trkpt>
      <trkpt lat="47.859996" lon="-4.24655">
        <ele>12.6</ele>
        <time>2020-08-13T07:39:32Z</time>
      </trkpt>
      <trkpt lat="47.85971" lon="-4.246539">
        <ele>12.6</ele>
        <time>2020-08-13T07:39:34Z</time>
      </trkpt>
      <trkpt lat="47.859272" lon="-4.246461">
        <ele>12.6</ele>
        <time>2020-08-13T07:39:37Z</time>
      </trkpt>
      <trkpt lat="47.85859" lon="-4.24622">
        <ele>13.6</ele>
        <time>2020-08-13T07:39:43Z</time>
      </trkpt>
      <trkpt lat="47.857935" lon="-4.245826">
        <ele>15.2</ele>
        <time>2020-08-13T07:39:48Z</time>
      </trkpt>
      <trkpt lat="47.857213" lon="-4.245189">
        <ele>15.6</ele>
        <time>2020-08-13T07:39:54Z</time>
      </trkpt>
      <trkpt lat="47.856675" lon="-4.244519">
        <ele>15.2</ele>
        <time>2020-08-13T07:39:59Z</time>
      </trkpt>
      <trkpt lat="47.856389" lon="-4.244088">
        <ele>16.4</ele>
        <time>2020-08-13T07:40:02Z</time>
      </trkpt>
      <trkpt lat="47.855937" lon="-4.243351">
        <ele>16.4</ele>
        <time>2020-08-13T07:40:07Z</time>
      </trkpt>
      <trkpt lat="47.855722" lon="-4.243057">
        <ele>19.0</ele>
        <time>2020-08-13T07:40:10Z</time>
      </trkpt>
      <trkpt lat="47.855617" lon="-4.242945">
        <ele>19.0</ele>
        <time>2020-08-13T07:40:11Z</time>
      </trkpt>
      <trkpt lat="47.855569" lon="-4.242964">
        <ele>19.0</ele>
        <time>2020-08-13T07:40:11Z</time>
      </trkpt>
      <trkpt lat="47.85547" lon="-4.242952">
        <ele>19.0</ele>
        <time>2020-08-13T07:40:12Z</time>
      </trkpt>
      <trkpt lat="47.855385" lon="-4.242876">
        <ele>19.0</ele>
        <time>2020-08-13T07:40:12Z</time>
      </trkpt>
      <trkpt lat="47.855344" lon="-4.242795">
        <ele>19.0</ele>
        <time>2020-08-13T07:40:13Z</time>
      </trkpt>
      <trkpt lat="47.855321" lon="-4.242691">
        <ele>19.0</ele>
        <time>2020-08-13T07:40:13Z</time>
      </trkpt>
      <trkpt lat="47.855326" lon="-4.242555">
        <ele>19.0</ele>
        <time>2020-08-13T07:40:14Z</time>
      </trkpt>
      <trkpt lat="47.855362" lon="-4.242445">
        <ele>21.4</ele>
        <time>2020-08-13T07:40:14Z</time>
      </trkpt>
      <trkpt lat="47.855408" lon="-4.242377">
        <ele>21.4</ele>
        <time>2020-08-13T07:40:15Z</time>
      </trkpt>
      <trkpt lat="47.855411" lon="-4.242286">
        <ele>21.4</ele>
        <time>2020-08-13T07:40:15Z</time>
      </trkpt>
      <trkpt lat="47.855301" lon="-4.241547">
        <ele>23.2</ele>
        <time>2020-08-13T07:40:18Z</time>
      </trkpt>
      <trkpt lat="47.855084" lon="-4.240711">
        <ele>23.8</ele>
        <time>2020-08-13T07:40:22Z</time>
      </trkpt>
      <trkpt lat="47.85496" lon="-4.240368">
        <ele>25.4</ele>
        <time>2020-08-13T07:40:24Z</time>
      </trkpt>
      <trkpt lat="47.854748" lon="-4.239914">
        <ele>25.0</ele>
        <time>2020-08-13T07:40:26Z</time>
      </trkpt>
      <trkpt lat="47.852705" lon="-4.236353">
        <ele>21.4</ele>
        <time>2020-08-13T07:40:47Z</time>
      </trkpt>
      <trkpt lat="47.852302" lon="-4.235468">
        <ele>19.8</ele>
        <time>2020-08-13T07:40:52Z</time>
      </trkpt>
      <trkpt lat="47.852085" lon="-4.235094">
        <ele>19.8</ele>
        <time>2020-08-13T07:40:54Z</time>
      </trkpt>
      <trkpt lat="47.85204" lon="-4.235098">
        <ele>19.8</ele>
        <time>2020-08-13T07:40:54Z</time>
      </trkpt>
      <trkpt lat="47.851955" lon="-4.23505">
        <ele>19.8</ele>
        <time>2020-08-13T07:40:54Z</time>
      </trkpt>
      <trkpt lat="47.851901" lon="-4.234943">
        <ele>19.4</ele>
        <time>2020-08-13T07:40:55Z</time>
      </trkpt>
      <trkpt lat="47.851893" lon="-4.234809">
        <ele>19.4</ele>
        <time>2020-08-13T07:40:55Z</time>
      </trkpt>
      <trkpt lat="47.851934" lon="-4.234689">
        <ele>19.4</ele>
        <time>2020-08-13T07:40:56Z</time>
      </trkpt>
      <trkpt lat="47.85197" lon="-4.234646">
        <ele>19.4</ele>
        <time>2020-08-13T07:40:56Z</time>
      </trkpt>
      <trkpt lat="47.851972" lon="-4.234396">
        <ele>19.4</ele>
        <time>2020-08-13T07:40:57Z</time>
      </trkpt>
      <trkpt lat="47.851889" lon="-4.233744">
        <ele>19.4</ele>
        <time>2020-08-13T07:40:59Z</time>
      </trkpt>
      <trkpt lat="47.851817" lon="-4.232987">
        <ele>19.0</ele>
        <time>2020-08-13T07:41:02Z</time>
      </trkpt>
      <trkpt lat="47.851808" lon="-4.232507">
        <ele>19.0</ele>
        <time>2020-08-13T07:41:03Z</time>
      </trkpt>
      <trkpt lat="47.851913" lon="-4.229051">
        <ele>17.6</ele>
        <time>2020-08-13T07:41:15Z</time>
      </trkpt>
      <trkpt lat="47.851896" lon="-4.228498">
        <ele>17.6</ele>
        <time>2020-08-13T07:41:17Z</time>
      </trkpt>
      <trkpt lat="47.851871" lon="-4.228188">
        <ele>17.2</ele>
        <time>2020-08-13T07:41:18Z</time>
      </trkpt>
      <trkpt lat="47.851822" lon="-4.227767">
        <ele>17.2</ele>
        <time>2020-08-13T07:41:20Z</time>
      </trkpt>
      <trkpt lat="47.851749" lon="-4.22734">
        <ele>16.6</ele>
        <time>2020-08-13T07:41:21Z</time>
      </trkpt>
      <trkpt lat="47.851653" lon="-4.226926">
        <ele>16.4</ele>
        <time>2020-08-13T07:41:23Z</time>
      </trkpt>
      <trkpt lat="47.851496" lon="-4.226387">
        <ele>16.6</ele>
        <time>2020-08-13T07:41:25Z</time>
      </trkpt>
      <trkpt lat="47.851378" lon="-4.226041">
        <ele>16.6</ele>
        <time>2020-08-13T07:41:26Z</time>
      </trkpt>
      <trkpt lat="47.851323" lon="-4.225931">
        <ele>16.6</ele>
        <time>2020-08-13T07:41:27Z</time>
      </trkpt>
      <trkpt lat="47.851226" lon="-4.225759">
        <ele>17.2</ele>
        <time>2020-08-13T07:41:27Z</time>
      </trkpt>
      <trkpt lat="47.851112" lon="-4.225622">
        <ele>17.2</ele>
        <time>2020-08-13T07:41:28Z</time>
      </trkpt>
      <trkpt lat="47.851063" lon="-4.225613">
        <ele>17.2</ele>
        <time>2020-08-13T07:41:28Z</time>
      </trkpt>
      <trkpt lat="47.850975" lon="-4.225547">
        <ele>17.2</ele>
        <time>2020-08-13T07:41:29Z</time>
      </trkpt>
      <trkpt lat="47.850914" lon="-4.225419">
        <ele>17.2</ele>
        <time>2020-08-13T07:41:30Z</time>
      </trkpt>
      <trkpt lat="47.850903" lon="-4.225252">
        <ele>17.2</ele>
        <time>2020-08-13T07:41:30Z</time>
      </trkpt>
      <trkpt lat="47.850944" lon="-4.225112">
        <ele>17.2</ele>
        <time>2020-08-13T07:41:31Z</time>
      </trkpt>
      <trkpt lat="47.850882" lon="-4.224804">
        <ele>18.0</ele>
        <time>2020-08-13T07:41:32Z</time>
      </trkpt>
      <trkpt lat="47.85081" lon="-4.224599">
        <ele>19.0</ele>
        <time>2020-08-13T07:41:33Z</time>
      </trkpt>
      <trkpt lat="47.850301" lon="-4.223384">
        <ele>18.6</ele>
        <time>2020-08-13T07:41:38Z</time>
      </trkpt>
      <trkpt lat="47.850144" lon="-4.222931">
        <ele>18.0</ele>
        <time>2020-08-13T07:41:40Z</time>
      </trkpt>
      <trkpt lat="47.849998" lon="-4.222466">
        <ele>18.0</ele>
        <time>2020-08-13T07:41:42Z</time>
      </trkpt>
      <trkpt lat="47.849869" lon="-4.22194">
        <ele>18.0</ele>
        <time>2020-08-13T07:41:44Z</time>
      </trkpt>
      <trkpt lat="47.849766" lon="-4.221405">
        <ele>17.8</ele>
        <time>2020-08-13T07:41:46Z</time>
      </trkpt>
      <trkpt lat="47.849701" lon="-4.220828">
        <ele>17.8</ele>
        <time>2020-08-13T07:41:48Z</time>
      </trkpt>
      <trkpt lat="47.849674" lon="-4.220212">
        <ele>17.8</ele>
        <time>2020-08-13T07:41:50Z</time>
      </trkpt>
      <trkpt lat="47.84964" lon="-4.217449">
        <ele>17.8</ele>
        <time>2020-08-13T07:42:00Z</time>
      </trkpt>
      <trkpt lat="47.849752" lon="-4.215722">
        <ele>17.6</ele>
        <time>2020-08-13T07:42:06Z</time>
      </trkpt>
      <trkpt lat="47.849657" lon="-4.215663">
        <ele>17.6</ele>
        <time>2020-08-13T07:42:07Z</time>
      </trkpt>
      <trkpt lat="47.849594" lon="-4.215543">
        <ele>17.6</ele>
        <time>2020-08-13T07:42:08Z</time>
      </trkpt>
      <trkpt lat="47.849578" lon="-4.215393">
        <ele>17.6</ele>
        <time>2020-08-13T07:42:09Z</time>
      </trkpt>
      <trkpt lat="47.8491" lon="-4.215297">
        <ele>18.6</ele>
        <time>2020-08-13T07:42:12Z</time>
      </trkpt>
      <trkpt lat="47.846258" lon="-4.21497">
        <ele>18.0</ele>
        <time>2020-08-13T07:42:35Z</time>
      </trkpt>
      <trkpt lat="47.845619" lon="-4.214759">
        <ele>17.8</ele>
        <time>2020-08-13T07:42:40Z</time>
      </trkpt>
      <trkpt lat="47.84495" lon="-4.214391">
        <ele>16.4</ele>
        <time>2020-08-13T07:42:46Z</time>
      </trkpt>
      <trkpt lat="47.844652" lon="-4.214189">
        <ele>16.4</ele>
        <time>2020-08-13T07:42:48Z</time>
      </trkpt>
      <trkpt lat="47.841544" lon="-4.211711">
        <ele>15.4</ele>
        <time>2020-08-13T07:43:16Z</time>
      </trkpt>
      <trkpt lat="47.84074" lon="-4.211176">
        <ele>14.6</ele>
        <time>2020-08-13T07:43:23Z</time>
      </trkpt>
      <trkpt lat="47.840139" lon="-4.211039">
        <ele>14.6</ele>
        <time>2020-08-13T07:43:28Z</time>
      </trkpt>
      <trkpt lat="47.839656" lon="-4.211013">
        <ele>14.0</ele>
        <time>2020-08-13T07:43:32Z</time>
      </trkpt>
      <trkpt lat="47.839057" lon="-4.210842">
        <ele>14.4</ele>
        <time>2020-08-13T07:43:36Z</time>
      </trkpt>
      <trkpt lat="47.838028" lon="-4.210319">
        <ele>13.8</ele>
        <time>2020-08-13T07:43:45Z</time>
      </trkpt>
      <trkpt lat="47.837382" lon="-4.209925">
        <ele>12.4</ele>
        <time>2020-08-13T07:43:51Z</time>
      </trkpt>
      <trkpt lat="47.835364" lon="-4.208624">
        <ele>12.8</ele>
        <time>2020-08-13T07:44:08Z</time>
      </trkpt>
      <trkpt lat="47.83481" lon="-4.207923">
        <ele>12.8</ele>
        <time>2020-08-13T07:44:14Z</time>
      </trkpt>
      <trkpt lat="47.834631" lon="-4.207859">
        <ele>12.8</ele>
        <time>2020-08-13T07:44:15Z</time>
      </trkpt>
      <trkpt lat="47.833663" lon="-4.207397">
        <ele>12.0</ele>
        <time>2020-08-13T07:44:23Z</time>
      </trkpt>
      <trkpt lat="47.833581" lon="-4.207323">
        <ele>12.0</ele>
        <time>2020-08-13T07:44:24Z</time>
      </trkpt>
      <trkpt lat="47.833111" lon="-4.207079">
        <ele>12.8</ele>
        <time>2020-08-13T07:44:28Z</time>
      </trkpt>
      <trkpt lat="47.83296" lon="-4.207059">
        <ele>12.8</ele>
        <time>2020-08-13T07:44:29Z</time>
      </trkpt>
      <trkpt lat="47.832231" lon="-4.207162">
        <ele>13.6</ele>
        <time>2020-08-13T07:44:35Z</time>
      </trkpt>
      <trkpt lat="47.831607" lon="-4.207287">
        <ele>13.6</ele>
        <time>2020-08-13T07:44:40Z</time>
      </trkpt>
      <trkpt lat="47.831014" lon="-4.207272">
        <ele>13.6</ele>
        <time>2020-08-13T07:44:44Z</time>
      </trkpt>
      <trkpt lat="47.830412" lon="-4.207219">
        <ele>13.6</ele>
        <time>2020-08-13T07:44:49Z</time>
      </trkpt>
      <trkpt lat="47.829936" lon="-4.207173">
        <ele>14.2</ele>
        <time>2020-08-13T07:44:53Z</time>
      </trkpt>
      <trkpt lat="47.82961" lon="-4.207101">
        <ele>14.2</ele>
        <time>2020-08-13T07:44:56Z</time>
      </trkpt>
      <trkpt lat="47.828904" lon="-4.206728">
        <ele>13.4</ele>
        <time>2020-08-13T07:45:01Z</time>
      </trkpt>
      <trkpt lat="47.827767" lon="-4.205851">
        <ele>11.8</ele>
        <time>2020-08-13T07:45:12Z</time>
      </trkpt>
      <trkpt lat="47.827267" lon="-4.205311">
        <ele>11.6</ele>
        <time>2020-08-13T07:45:16Z</time>
      </trkpt>
      <trkpt lat="47.826318" lon="-4.203979">
        <ele>11.4</ele>
        <time>2020-08-13T07:45:27Z</time>
      </trkpt>
      <trkpt lat="47.825931" lon="-4.203488">
        <ele>11.4</ele>
        <time>2020-08-13T07:45:31Z</time>
      </trkpt>
      <trkpt lat="47.82557" lon="-4.203102">
        <ele>11.0</ele>
        <time>2020-08-13T07:45:34Z</time>
      </trkpt>
      <trkpt lat="47.825783" lon="-4.202625">
        <ele>11.0</ele>
        <time>2020-08-13T07:45:36Z</time>
      </trkpt>
      <trkpt lat="47.826084" lon="-4.201815">
        <ele>11.6</ele>
        <time>2020-08-13T07:45:40Z</time>
      </trkpt>
      <trkpt lat="47.826216" lon="-4.20138">
        <ele>12.0</ele>
        <time>2020-08-13T07:45:41Z</time>
      </trkpt>
      <trkpt lat="47.826309" lon="-4.201009">
        <ele>12.0</ele>
        <time>2020-08-13T07:45:43Z</time>
      </trkpt>
      <trkpt lat="47.826414" lon="-4.20042">
        <ele>12.8</ele>
        <time>2020-08-13T07:45:45Z</time>
      </trkpt>
      <trkpt lat="47.826615" lon="-4.198841">
        <ele>13.2</ele>
        <time>2020-08-13T07:45:51Z</time>
      </trkpt>
      <trkpt lat="47.826689" lon="-4.198416">
        <ele>14.2</ele>
        <time>2020-08-13T07:45:52Z</time>
      </trkpt>
      <trkpt lat="47.826877" lon="-4.197663">
        <ele>13.4</ele>
        <time>2020-08-13T07:45:55Z</time>
      </trkpt>
      <trkpt lat="47.827059" lon="-4.197089">
        <ele>12.8</ele>
        <time>2020-08-13T07:45:57Z</time>
      </trkpt>
      <trkpt lat="47.827246" lon="-4.19662">
        <ele>12.2</ele>
        <time>2020-08-13T07:45:59Z</time>
      </trkpt>
      <trkpt lat="47.827926" lon="-4.195185">
        <ele>11.6</ele>
        <time>2020-08-13T07:46:06Z</time>
      </trkpt>
      <trkpt lat="47.828103" lon="-4.194748">
        <ele>11.0</ele>
        <time>2020-08-13T07:46:07Z</time>
      </trkpt>
      <trkpt lat="47.828262" lon="-4.194286">
        <ele>11.0</ele>
        <time>2020-08-13T07:46:09Z</time>
      </trkpt>
      <trkpt lat="47.828365" lon="-4.193926">
        <ele>11.0</ele>
        <time>2020-08-13T07:46:11Z</time>
      </trkpt>
      <trkpt lat="47.828512" lon="-4.193287">
        <ele>11.4</ele>
        <time>2020-08-13T07:46:13Z</time>
      </trkpt>
      <trkpt lat="47.82857" lon="-4.192957">
        <ele>11.4</ele>
        <time>2020-08-13T07:46:14Z</time>
      </trkpt>
      <trkpt lat="47.828858" lon="-4.190722">
        <ele>12.2</ele>
        <time>2020-08-13T07:46:22Z</time>
      </trkpt>
      <trkpt lat="47.828978" lon="-4.189708">
        <ele>13.2</ele>
        <time>2020-08-13T07:46:26Z</time>
      </trkpt>
      <trkpt lat="47.82898" lon="-4.189562">
        <ele>13.2</ele>
        <time>2020-08-13T07:46:26Z</time>
      </trkpt>
      <trkpt lat="47.828942" lon="-4.189525">
        <ele>13.2</ele>
        <time>2020-08-13T07:46:27Z</time>
      </trkpt>
      <trkpt lat="47.828939" lon="-4.189456">
        <ele>13.2</ele>
        <time>2020-08-13T07:46:27Z</time>
      </trkpt>
      <trkpt lat="47.828976" lon="-4.189411">
        <ele>13.2</ele>
        <time>2020-08-13T07:46:28Z</time>
      </trkpt>
      <trkpt lat="47.829" lon="-4.189413">
        <ele>13.2</ele>
        <time>2020-08-13T07:46:28Z</time>
      </trkpt>
      <trkpt lat="47.829096" lon="-4.188955">
        <ele>13.2</ele>
        <time>2020-08-13T07:46:31Z</time>
      </trkpt>
      <trkpt lat="47.829295" lon="-4.188135">
        <ele>13.0</ele>
        <time>2020-08-13T07:46:37Z</time>
      </trkpt>
      <trkpt lat="47.829482" lon="-4.187442">
        <ele>13.4</ele>
        <time>2020-08-13T07:46:43Z</time>
      </trkpt>
      <trkpt lat="47.829592" lon="-4.186946">
        <ele>13.4</ele>
        <time>2020-08-13T07:46:46Z</time>
      </trkpt>
      <trkpt lat="47.830382" lon="-4.187339">
        <ele>12.8</ele>
        <time>2020-08-13T07:47:02Z</time>
      </trkpt>
      <trkpt lat="47.830493" lon="-4.186853">
        <ele>12.8</ele>
        <time>2020-08-13T07:47:08Z</time>
      </trkpt>
      <trkpt lat="47.830719" lon="-4.186968">
        <ele>12.8</ele>
        <time>2020-08-13T07:47:12Z</time>
      </trkpt>
      <trkpt lat="47.830719" lon="-4.186968">
        <ele>12.8</ele>
        <time>2020-08-13T07:47:12Z</time>
      </trkpt>
      <trkpt lat="47.830493" lon="-4.186853">
        <ele>12.8</ele>
        <time>2020-08-13T07:47:17Z</time>
      </trkpt>
      <trkpt lat="47.830382" lon="-4.187339">
        <ele>12.8</ele>
        <time>2020-08-13T07:47:23Z</time>
      </trkpt>
      <trkpt lat="47.829592" lon="-4.186946">
        <ele>13.4</ele>
        <time>2020-08-13T07:47:38Z</time>
      </trkpt>
      <trkpt lat="47.829482" lon="-4.187442">
        <ele>13.4</ele>
        <time>2020-08-13T07:47:42Z</time>
      </trkpt>
      <trkpt lat="47.829295" lon="-4.188135">
        <ele>13.0</ele>
        <time>2020-08-13T07:47:47Z</time>
      </trkpt>
      <trkpt lat="47.829096" lon="-4.188955">
        <ele>13.2</ele>
        <time>2020-08-13T07:47:53Z</time>
      </trkpt>
      <trkpt lat="47.829" lon="-4.189413">
        <ele>13.2</ele>
        <time>2020-08-13T07:47:56Z</time>
      </trkpt>
      <trkpt lat="47.829037" lon="-4.189476">
        <ele>13.2</ele>
        <time>2020-08-13T07:47:57Z</time>
      </trkpt>
      <trkpt lat="47.829036" lon="-4.189506">
        <ele>13.2</ele>
        <time>2020-08-13T07:47:57Z</time>
      </trkpt>
      <trkpt lat="47.82898" lon="-4.189562">
        <ele>13.2</ele>
        <time>2020-08-13T07:47:57Z</time>
      </trkpt>
      <trkpt lat="47.828978" lon="-4.189708">
        <ele>13.2</ele>
        <time>2020-08-13T07:47:58Z</time>
      </trkpt>
      <trkpt lat="47.828858" lon="-4.190722">
        <ele>12.2</ele>
        <time>2020-08-13T07:48:01Z</time>
      </trkpt>
      <trkpt lat="47.82857" lon="-4.192957">
        <ele>11.4</ele>
        <time>2020-08-13T07:48:09Z</time>
      </trkpt>
      <trkpt lat="47.828512" lon="-4.193287">
        <ele>11.4</ele>
        <time>2020-08-13T07:48:10Z</time>
      </trkpt>
      <trkpt lat="47.828365" lon="-4.193926">
        <ele>11.0</ele>
        <time>2020-08-13T07:48:12Z</time>
      </trkpt>
      <trkpt lat="47.828262" lon="-4.194286">
        <ele>11.0</ele>
        <time>2020-08-13T07:48:14Z</time>
      </trkpt>
      <trkpt lat="47.828103" lon="-4.194748">
        <ele>11.0</ele>
        <time>2020-08-13T07:48:15Z</time>
      </trkpt>
      <trkpt lat="47.827926" lon="-4.195185">
        <ele>11.6</ele>
        <time>2020-08-13T07:48:17Z</time>
      </trkpt>
      <trkpt lat="47.827246" lon="-4.19662">
        <ele>12.2</ele>
        <time>2020-08-13T07:48:23Z</time>
      </trkpt>
      <trkpt lat="47.827059" lon="-4.197089">
        <ele>12.8</ele>
        <time>2020-08-13T07:48:25Z</time>
      </trkpt>
      <trkpt lat="47.826877" lon="-4.197663">
        <ele>13.4</ele>
        <time>2020-08-13T07:48:27Z</time>
      </trkpt>
      <trkpt lat="47.826689" lon="-4.198416">
        <ele>14.2</ele>
        <time>2020-08-13T07:48:30Z</time>
      </trkpt>
      <trkpt lat="47.826615" lon="-4.198841">
        <ele>13.2</ele>
        <time>2020-08-13T07:48:31Z</time>
      </trkpt>
      <trkpt lat="47.826414" lon="-4.20042">
        <ele>12.8</ele>
        <time>2020-08-13T07:48:37Z</time>
      </trkpt>
      <trkpt lat="47.826309" lon="-4.201009">
        <ele>12.0</ele>
        <time>2020-08-13T07:48:39Z</time>
      </trkpt>
      <trkpt lat="47.826216" lon="-4.20138">
        <ele>12.0</ele>
        <time>2020-08-13T07:48:40Z</time>
      </trkpt>
      <trkpt lat="47.826084" lon="-4.201815">
        <ele>11.6</ele>
        <time>2020-08-13T07:48:42Z</time>
      </trkpt>
      <trkpt lat="47.825783" lon="-4.202625">
        <ele>11.0</ele>
        <time>2020-08-13T07:48:45Z</time>
      </trkpt>
      <trkpt lat="47.825183" lon="-4.203945">
        <ele>11.6</ele>
        <time>2020-08-13T07:48:50Z</time>
      </trkpt>
      <trkpt lat="47.825025" lon="-4.204321">
        <ele>12.4</ele>
        <time>2020-08-13T07:48:52Z</time>
      </trkpt>
      <trkpt lat="47.824811" lon="-4.205057">
        <ele>12.4</ele>
        <time>2020-08-13T07:48:54Z</time>
      </trkpt>
      <trkpt lat="47.82467" lon="-4.205931">
        <ele>12.8</ele>
        <time>2020-08-13T07:48:57Z</time>
      </trkpt>
      <trkpt lat="47.824559" lon="-4.20714">
        <ele>13.6</ele>
        <time>2020-08-13T07:49:01Z</time>
      </trkpt>
      <trkpt lat="47.824404" lon="-4.209232">
        <ele>13.6</ele>
        <time>2020-08-13T07:49:09Z</time>
      </trkpt>
      <trkpt lat="47.824342" lon="-4.209909">
        <ele>13.6</ele>
        <time>2020-08-13T07:49:11Z</time>
      </trkpt>
      <trkpt lat="47.824297" lon="-4.210169">
        <ele>14.8</ele>
        <time>2020-08-13T07:49:12Z</time>
      </trkpt>
      <trkpt lat="47.824235" lon="-4.210449">
        <ele>14.8</ele>
        <time>2020-08-13T07:49:13Z</time>
      </trkpt>
      <trkpt lat="47.82398" lon="-4.211404">
        <ele>13.6</ele>
        <time>2020-08-13T07:49:16Z</time>
      </trkpt>
      <trkpt lat="47.823691" lon="-4.212409">
        <ele>13.2</ele>
        <time>2020-08-13T07:49:20Z</time>
      </trkpt>
      <trkpt lat="47.823482" lon="-4.212966">
        <ele>12.8</ele>
        <time>2020-08-13T07:49:22Z</time>
      </trkpt>
      <trkpt lat="47.823016" lon="-4.213909">
        <ele>11.4</ele>
        <time>2020-08-13T07:49:26Z</time>
      </trkpt>
      <trkpt lat="47.822845" lon="-4.214287">
        <ele>12.0</ele>
        <time>2020-08-13T07:49:28Z</time>
      </trkpt>
      <trkpt lat="47.822711" lon="-4.214628">
        <ele>12.0</ele>
        <time>2020-08-13T07:49:29Z</time>
      </trkpt>
      <trkpt lat="47.822624" lon="-4.214898">
        <ele>12.0</ele>
        <time>2020-08-13T07:49:30Z</time>
      </trkpt>
      <trkpt lat="47.822529" lon="-4.215265">
        <ele>12.6</ele>
        <time>2020-08-13T07:49:31Z</time>
      </trkpt>
      <trkpt lat="47.82244" lon="-4.215738">
        <ele>11.6</ele>
        <time>2020-08-13T07:49:33Z</time>
      </trkpt>
      <trkpt lat="47.822307" lon="-4.216776">
        <ele>12.6</ele>
        <time>2020-08-13T07:49:37Z</time>
      </trkpt>
      <trkpt lat="47.822248" lon="-4.217463">
        <ele>12.6</ele>
        <time>2020-08-13T07:49:39Z</time>
      </trkpt>
      <trkpt lat="47.82206" lon="-4.218879">
        <ele>12.0</ele>
        <time>2020-08-13T07:49:44Z</time>
      </trkpt>
      <trkpt lat="47.821858" lon="-4.219771">
        <ele>12.8</ele>
        <time>2020-08-13T07:49:47Z</time>
      </trkpt>
      <trkpt lat="47.82142" lon="-4.220982">
        <ele>13.0</ele>
        <time>2020-08-13T07:49:52Z</time>
      </trkpt>
      <trkpt lat="47.821137" lon="-4.221806">
        <ele>13.0</ele>
        <time>2020-08-13T07:49:55Z</time>
      </trkpt>
      <trkpt lat="47.821067" lon="-4.222055">
        <ele>13.0</ele>
        <time>2020-08-13T07:49:56Z</time>
      </trkpt>
      <trkpt lat="47.820955" lon="-4.222988">
        <ele>13.2</ele>
        <time>2020-08-13T07:49:59Z</time>
      </trkpt>
      <trkpt lat="47.820887" lon="-4.223247">
        <ele>13.2</ele>
        <time>2020-08-13T07:50:00Z</time>
      </trkpt>
      <trkpt lat="47.82091" lon="-4.223272">
        <ele>13.2</ele>
        <time>2020-08-13T07:50:00Z</time>
      </trkpt>
      <trkpt lat="47.820923" lon="-4.223352">
        <ele>13.8</ele>
        <time>2020-08-13T07:50:01Z</time>
      </trkpt>
      <trkpt lat="47.82089" lon="-4.223417">
        <ele>13.8</ele>
        <time>2020-08-13T07:50:01Z</time>
      </trkpt>
      <trkpt lat="47.820863" lon="-4.223427">
        <ele>13.8</ele>
        <time>2020-08-13T07:50:02Z</time>
      </trkpt>
      <trkpt lat="47.820911" lon="-4.223884">
        <ele>13.8</ele>
        <time>2020-08-13T07:50:05Z</time>
      </trkpt>
      <trkpt lat="47.820946" lon="-4.224547">
        <ele>14.2</ele>
        <time>2020-08-13T07:50:09Z</time>
      </trkpt>
      <trkpt lat="47.821017" lon="-4.224566">
        <ele>14.2</ele>
        <time>2020-08-13T07:50:10Z</time>
      </trkpt>
      <trkpt lat="47.821061" lon="-4.224652">
        <ele>14.2</ele>
        <time>2020-08-13T07:50:11Z</time>
      </trkpt>
      <trkpt lat="47.821055" lon="-4.224759">
        <ele>14.2</ele>
        <time>2020-08-13T07:50:12Z</time>
      </trkpt>
      <trkpt lat="47.821003" lon="-4.224833">
        <ele>14.2</ele>
        <time>2020-08-13T07:50:12Z</time>
      </trkpt>
      <trkpt lat="47.821184" lon="-4.225248">
        <ele>13.8</ele>
        <time>2020-08-13T07:50:16Z</time>
      </trkpt>
      <trkpt lat="47.821375" lon="-4.225605">
        <ele>13.8</ele>
        <time>2020-08-13T07:50:19Z</time>
      </trkpt>
      <trkpt lat="47.822013" lon="-4.226398">
        <ele>12.2</ele>
        <time>2020-08-13T07:50:28Z</time>
      </trkpt>
      <trkpt lat="47.822342" lon="-4.226836">
        <ele>11.4</ele>
        <time>2020-08-13T07:50:32Z</time>
      </trkpt>
      <trkpt lat="47.822543" lon="-4.227286">
        <ele>13.0</ele>
        <time>2020-08-13T07:50:36Z</time>
      </trkpt>
      <trkpt lat="47.822693" lon="-4.227838">
        <ele>13.6</ele>
        <time>2020-08-13T07:50:40Z</time>
      </trkpt>
      <trkpt lat="47.822777" lon="-4.228404">
        <ele>13.8</ele>
        <time>2020-08-13T07:50:44Z</time>
      </trkpt>
      <trkpt lat="47.822873" lon="-4.229635">
        <ele>13.6</ele>
        <time>2020-08-13T07:50:53Z</time>
      </trkpt>
      <trkpt lat="47.82247" lon="-4.230726">
        <ele>13.6</ele>
        <time>2020-08-13T07:51:02Z</time>
      </trkpt>
      <trkpt lat="47.821981" lon="-4.232137">
        <ele>13.6</ele>
        <time>2020-08-13T07:51:13Z</time>
      </trkpt>
      <trkpt lat="47.82192" lon="-4.232416">
        <ele>13.6</ele>
        <time>2020-08-13T07:51:15Z</time>
      </trkpt>
      <trkpt lat="47.821967" lon="-4.232904">
        <ele>13.2</ele>
        <time>2020-08-13T07:51:19Z</time>
      </trkpt>
      <trkpt lat="47.822485" lon="-4.234617">
        <ele>14.4</ele>
        <time>2020-08-13T07:51:32Z</time>
      </trkpt>
      <trkpt lat="47.822598" lon="-4.235214">
        <ele>14.8</ele>
        <time>2020-08-13T07:51:36Z</time>
      </trkpt>
      <trkpt lat="47.822661" lon="-4.235852">
        <ele>15.4</ele>
        <time>2020-08-13T07:51:41Z</time>
      </trkpt>
      <trkpt lat="47.822643" lon="-4.236681">
        <ele>15.6</ele>
        <time>2020-08-13T07:51:46Z</time>
      </trkpt>
      <trkpt lat="47.822116" lon="-4.241782">
        <ele>17.0</ele>
        <time>2020-08-13T07:52:23Z</time>
      </trkpt>
      <trkpt lat="47.822072" lon="-4.242708">
        <ele>17.8</ele>
        <time>2020-08-13T07:52:29Z</time>
      </trkpt>
      <trkpt lat="47.82213" lon="-4.24438">
        <ele>17.8</ele>
        <time>2020-08-13T07:52:41Z</time>
      </trkpt>
      <trkpt lat="47.82228" lon="-4.24714">
        <ele>17.6</ele>
        <time>2020-08-13T07:53:00Z</time>
      </trkpt>
      <trkpt lat="47.822295" lon="-4.247649">
        <ele>18.2</ele>
        <time>2020-08-13T07:53:04Z</time>
      </trkpt>
      <trkpt lat="47.82226" lon="-4.248303">
        <ele>18.2</ele>
        <time>2020-08-13T07:53:09Z</time>
      </trkpt>
      <trkpt lat="47.822185" lon="-4.248886">
        <ele>18.0</ele>
        <time>2020-08-13T07:53:13Z</time>
      </trkpt>
      <trkpt lat="47.822096" lon="-4.249347">
        <ele>17.6</ele>
        <time>2020-08-13T07:53:16Z</time>
      </trkpt>
      <trkpt lat="47.821906" lon="-4.250169">
        <ele>18.0</ele>
        <time>2020-08-13T07:53:22Z</time>
      </trkpt>
      <trkpt lat="47.821495" lon="-4.252162">
        <ele>21.0</ele>
        <time>2020-08-13T07:53:37Z</time>
      </trkpt>
      <trkpt lat="47.821321" lon="-4.253237">
        <ele>21.2</ele>
        <time>2020-08-13T07:53:45Z</time>
      </trkpt>
      <trkpt lat="47.821307" lon="-4.253559">
        <ele>21.0</ele>
        <time>2020-08-13T07:53:47Z</time>
      </trkpt>
      <trkpt lat="47.821304" lon="-4.253881">
        <ele>21.0</ele>
        <time>2020-08-13T07:53:49Z</time>
      </trkpt>
      <trkpt lat="47.821342" lon="-4.254911">
        <ele>21.0</ele>
        <time>2020-08-13T07:53:56Z</time>
      </trkpt>
      <trkpt lat="47.821449" lon="-4.2569">
        <ele>20.8</ele>
        <time>2020-08-13T07:54:10Z</time>
      </trkpt>
      <trkpt lat="47.821442" lon="-4.257303">
        <ele>20.8</ele>
        <time>2020-08-13T07:54:13Z</time>
      </trkpt>
      <trkpt lat="47.821151" lon="-4.261731">
        <ele>21.8</ele>
        <time>2020-08-13T07:54:44Z</time>
      </trkpt>
      <trkpt lat="47.821134" lon="-4.26241">
        <ele>21.8</ele>
        <time>2020-08-13T07:54:49Z</time>
      </trkpt>
      <trkpt lat="47.821143" lon="-4.264134">
        <ele>23.6</ele>
        <time>2020-08-13T07:55:01Z</time>
      </trkpt>
      <trkpt lat="47.821173" lon="-4.265283">
        <ele>24.2</ele>
        <time>2020-08-13T07:55:09Z</time>
      </trkpt>
      <trkpt lat="47.821211" lon="-4.272332">
        <ele>24.2</ele>
        <time>2020-08-13T07:55:59Z</time>
      </trkpt>
      <trkpt lat="47.821288" lon="-4.278821">
        <ele>22.2</ele>
        <time>2020-08-13T07:56:44Z</time>
      </trkpt>
      <trkpt lat="47.821304" lon="-4.281038">
        <ele>20.6</ele>
        <time>2020-08-13T07:57:00Z</time>
      </trkpt>
      <trkpt lat="47.821287" lon="-4.281532">
        <ele>20.6</ele>
        <time>2020-08-13T07:57:04Z</time>
      </trkpt>
      <trkpt lat="47.821265" lon="-4.281978">
        <ele>19.8</ele>
        <time>2020-08-13T07:57:07Z</time>
      </trkpt>
      <trkpt lat="47.821229" lon="-4.282305">
        <ele>19.8</ele>
        <time>2020-08-13T07:57:09Z</time>
      </trkpt>
      <trkpt lat="47.821089" lon="-4.283126">
        <ele>19.4</ele>
        <time>2020-08-13T07:57:15Z</time>
      </trkpt>
      <trkpt lat="47.820245" lon="-4.287156">
        <ele>20.0</ele>
        <time>2020-08-13T07:57:45Z</time>
      </trkpt>
      <trkpt lat="47.820248" lon="-4.287409">
        <ele>20.0</ele>
        <time>2020-08-13T07:57:46Z</time>
      </trkpt>
      <trkpt lat="47.820263" lon="-4.287491">
        <ele>20.0</ele>
        <time>2020-08-13T07:57:47Z</time>
      </trkpt>
      <trkpt lat="47.820299" lon="-4.287548">
        <ele>20.2</ele>
        <time>2020-08-13T07:57:48Z</time>
      </trkpt>
      <trkpt lat="47.820338" lon="-4.287691">
        <ele>20.2</ele>
        <time>2020-08-13T07:57:49Z</time>
      </trkpt>
      <trkpt lat="47.82033" lon="-4.287827">
        <ele>20.2</ele>
        <time>2020-08-13T07:57:50Z</time>
      </trkpt>
      <trkpt lat="47.82026" lon="-4.287978">
        <ele>20.2</ele>
        <time>2020-08-13T07:57:52Z</time>
      </trkpt>
      <trkpt lat="47.820173" lon="-4.288039">
        <ele>20.2</ele>
        <time>2020-08-13T07:57:53Z</time>
      </trkpt>
      <trkpt lat="47.820122" lon="-4.288045">
        <ele>20.2</ele>
        <time>2020-08-13T07:57:54Z</time>
      </trkpt>
      <trkpt lat="47.820005" lon="-4.288297">
        <ele>20.2</ele>
        <time>2020-08-13T07:57:56Z</time>
      </trkpt>
      <trkpt lat="47.819678" lon="-4.289899">
        <ele>21.4</ele>
        <time>2020-08-13T07:58:11Z</time>
      </trkpt>
      <trkpt lat="47.819223" lon="-4.2918">
        <ele>22.8</ele>
        <time>2020-08-13T07:58:29Z</time>
      </trkpt>
      <trkpt lat="47.819065" lon="-4.292519">
        <ele>23.2</ele>
        <time>2020-08-13T07:58:36Z</time>
      </trkpt>
      <trkpt lat="47.818971" lon="-4.293061">
        <ele>23.2</ele>
        <time>2020-08-13T07:58:40Z</time>
      </trkpt>
      <trkpt lat="47.818889" lon="-4.29366">
        <ele>23.6</ele>
        <time>2020-08-13T07:58:46Z</time>
      </trkpt>
      <trkpt lat="47.818731" lon="-4.295005">
        <ele>23.2</ele>
        <time>2020-08-13T07:58:58Z</time>
      </trkpt>
      <trkpt lat="47.818505" lon="-4.296643">
        <ele>23.2</ele>
        <time>2020-08-13T07:59:13Z</time>
      </trkpt>
      <trkpt lat="47.818442" lon="-4.297399">
        <ele>23.4</ele>
        <time>2020-08-13T07:59:19Z</time>
      </trkpt>
      <trkpt lat="47.818439" lon="-4.298214">
        <ele>23.8</ele>
        <time>2020-08-13T07:59:26Z</time>
      </trkpt>
      <trkpt lat="47.818589" lon="-4.300794">
        <ele>22.0</ele>
        <time>2020-08-13T07:59:49Z</time>
      </trkpt>
      <trkpt lat="47.818619" lon="-4.303587">
        <ele>21.2</ele>
        <time>2020-08-13T08:00:14Z</time>
      </trkpt>
      <trkpt lat="47.818565" lon="-4.304518">
        <ele>21.6</ele>
        <time>2020-08-13T08:00:22Z</time>
      </trkpt>
      <trkpt lat="47.818468" lon="-4.30556">
        <ele>21.6</ele>
        <time>2020-08-13T08:00:31Z</time>
      </trkpt>
      <trkpt lat="47.818185" lon="-4.308236">
        <ele>21.4</ele>
        <time>2020-08-13T08:00:55Z</time>
      </trkpt>
      <trkpt lat="47.818156" lon="-4.308751">
        <ele>21.2</ele>
        <time>2020-08-13T08:00:59Z</time>
      </trkpt>
      <trkpt lat="47.818144" lon="-4.309681">
        <ele>21.4</ele>
        <time>2020-08-13T08:01:08Z</time>
      </trkpt>
      <trkpt lat="47.818184" lon="-4.310383">
        <ele>20.8</ele>
        <time>2020-08-13T08:01:14Z</time>
      </trkpt>
      <trkpt lat="47.818725" lon="-4.317145">
        <ele>22.0</ele>
        <time>2020-08-13T08:02:14Z</time>
      </trkpt>
      <trkpt lat="47.81875" lon="-4.317567">
        <ele>20.0</ele>
        <time>2020-08-13T08:02:17Z</time>
      </trkpt>
      <trkpt lat="47.818757" lon="-4.318079">
        <ele>20.0</ele>
        <time>2020-08-13T08:02:22Z</time>
      </trkpt>
      <trkpt lat="47.818699" lon="-4.31887">
        <ele>18.4</ele>
        <time>2020-08-13T08:02:29Z</time>
      </trkpt>
      <trkpt lat="47.818711" lon="-4.319053">
        <ele>18.4</ele>
        <time>2020-08-13T08:02:30Z</time>
      </trkpt>
      <trkpt lat="47.818768" lon="-4.319244">
        <ele>17.0</ele>
        <time>2020-08-13T08:02:32Z</time>
      </trkpt>
      <trkpt lat="47.818828" lon="-4.319305">
        <ele>17.0</ele>
        <time>2020-08-13T08:02:33Z</time>
      </trkpt>
      <trkpt lat="47.818845" lon="-4.319395">
        <ele>17.0</ele>
        <time>2020-08-13T08:02:34Z</time>
      </trkpt>
      <trkpt lat="47.818826" lon="-4.319475">
        <ele>17.0</ele>
        <time>2020-08-13T08:02:34Z</time>
      </trkpt>
      <trkpt lat="47.818761" lon="-4.319536">
        <ele>17.0</ele>
        <time>2020-08-13T08:02:35Z</time>
      </trkpt>
      <trkpt lat="47.818629" lon="-4.319759">
        <ele>17.0</ele>
        <time>2020-08-13T08:02:37Z</time>
      </trkpt>
      <trkpt lat="47.818459" lon="-4.320274">
        <ele>15.8</ele>
        <time>2020-08-13T08:02:41Z</time>
      </trkpt>
      <trkpt lat="47.817986" lon="-4.32145">
        <ele>15.8</ele>
        <time>2020-08-13T08:02:51Z</time>
      </trkpt>
      <trkpt lat="47.816832" lon="-4.324449">
        <ele>14.0</ele>
        <time>2020-08-13T08:03:14Z</time>
      </trkpt>
      <trkpt lat="47.816288" lon="-4.32598">
        <ele>12.2</ele>
        <time>2020-08-13T08:03:26Z</time>
      </trkpt>
      <trkpt lat="47.815785" lon="-4.32766">
        <ele>9.8</ele>
        <time>2020-08-13T08:03:39Z</time>
      </trkpt>
      <trkpt lat="47.815178" lon="-4.330208">
        <ele>9.0</ele>
        <time>2020-08-13T08:03:57Z</time>
      </trkpt>
      <trkpt lat="47.814829" lon="-4.331829">
        <ele>8.4</ele>
        <time>2020-08-13T08:04:09Z</time>
      </trkpt>
      <trkpt lat="47.814803" lon="-4.332159">
        <ele>8.4</ele>
        <time>2020-08-13T08:04:11Z</time>
      </trkpt>
      <trkpt lat="47.814828" lon="-4.332257">
        <ele>8.4</ele>
        <time>2020-08-13T08:04:12Z</time>
      </trkpt>
      <trkpt lat="47.814808" lon="-4.332358">
        <ele>8.4</ele>
        <time>2020-08-13T08:04:13Z</time>
      </trkpt>
      <trkpt lat="47.81475" lon="-4.332419">
        <ele>8.4</ele>
        <time>2020-08-13T08:04:14Z</time>
      </trkpt>
      <trkpt lat="47.814714" lon="-4.332426">
        <ele>8.4</ele>
        <time>2020-08-13T08:04:14Z</time>
      </trkpt>
      <trkpt lat="47.814619" lon="-4.3327">
        <ele>9.0</ele>
        <time>2020-08-13T08:04:16Z</time>
      </trkpt>
      <trkpt lat="47.814415" lon="-4.333662">
        <ele>9.6</ele>
        <time>2020-08-13T08:04:22Z</time>
      </trkpt>
      <trkpt lat="47.814247" lon="-4.33466">
        <ele>9.4</ele>
        <time>2020-08-13T08:04:27Z</time>
      </trkpt>
      <trkpt lat="47.814147" lon="-4.335006">
        <ele>9.4</ele>
        <time>2020-08-13T08:04:29Z</time>
      </trkpt>
      <trkpt lat="47.813823" lon="-4.335826">
        <ele>9.4</ele>
        <time>2020-08-13T08:04:34Z</time>
      </trkpt>
      <trkpt lat="47.813871" lon="-4.335853">
        <ele>9.4</ele>
        <time>2020-08-13T08:04:35Z</time>
      </trkpt>
      <trkpt lat="47.813882" lon="-4.33597">
        <ele>9.4</ele>
        <time>2020-08-13T08:04:35Z</time>
      </trkpt>
      <trkpt lat="47.813863" lon="-4.336056">
        <ele>9.4</ele>
        <time>2020-08-13T08:04:36Z</time>
      </trkpt>
      <trkpt lat="47.813791" lon="-4.336137">
        <ele>9.4</ele>
        <time>2020-08-13T08:04:37Z</time>
      </trkpt>
      <trkpt lat="47.81373" lon="-4.336153">
        <ele>9.4</ele>
        <time>2020-08-13T08:04:38Z</time>
      </trkpt>
      <trkpt lat="47.813692" lon="-4.336147">
        <ele>9.4</ele>
        <time>2020-08-13T08:04:38Z</time>
      </trkpt>
      <trkpt lat="47.81367" lon="-4.336122">
        <ele>9.4</ele>
        <time>2020-08-13T08:04:38Z</time>
      </trkpt>
      <trkpt lat="47.813652" lon="-4.336037">
        <ele>9.4</ele>
        <time>2020-08-13T08:04:39Z</time>
      </trkpt>
      <trkpt lat="47.813665" lon="-4.335962">
        <ele>9.4</ele>
        <time>2020-08-13T08:04:39Z</time>
      </trkpt>
      <trkpt lat="47.813126" lon="-4.33621">
        <ele>9.8</ele>
        <time>2020-08-13T08:04:45Z</time>
      </trkpt>
      <trkpt lat="47.81306" lon="-4.336267">
        <ele>9.8</ele>
        <time>2020-08-13T08:04:46Z</time>
      </trkpt>
      <trkpt lat="47.813011" lon="-4.336349">
        <ele>9.8</ele>
        <time>2020-08-13T08:04:47Z</time>
      </trkpt>
      <trkpt lat="47.812752" lon="-4.336946">
        <ele>10.2</ele>
        <time>2020-08-13T08:04:52Z</time>
      </trkpt>
      <trkpt lat="47.812551" lon="-4.337481">
        <ele>10.2</ele>
        <time>2020-08-13T08:04:56Z</time>
      </trkpt>
      <trkpt lat="47.812449" lon="-4.337823">
        <ele>10.0</ele>
        <time>2020-08-13T08:04:58Z</time>
      </trkpt>
      <trkpt lat="47.812321" lon="-4.337997">
        <ele>10.0</ele>
        <time>2020-08-13T08:05:00Z</time>
      </trkpt>
      <trkpt lat="47.811932" lon="-4.338095">
        <ele>10.0</ele>
        <time>2020-08-13T08:05:04Z</time>
      </trkpt>
      <trkpt lat="47.811791" lon="-4.338167">
        <ele>10.0</ele>
        <time>2020-08-13T08:05:06Z</time>
      </trkpt>
      <trkpt lat="47.811382" lon="-4.339149">
        <ele>8.4</ele>
        <time>2020-08-13T08:05:16Z</time>
      </trkpt>
      <trkpt lat="47.811029" lon="-4.340099">
        <ele>7.4</ele>
        <time>2020-08-13T08:05:26Z</time>
      </trkpt>
      <trkpt lat="47.809968" lon="-4.342014">
        <ele>7.2</ele>
        <time>2020-08-13T08:05:47Z</time>
      </trkpt>
      <trkpt lat="47.808975" lon="-4.34387">
        <ele>7.4</ele>
        <time>2020-08-13T08:06:08Z</time>
      </trkpt>
      <trkpt lat="47.808621" lon="-4.344697">
        <ele>7.8</ele>
        <time>2020-08-13T08:06:17Z</time>
      </trkpt>
      <trkpt lat="47.80826" lon="-4.345625">
        <ele>7.2</ele>
        <time>2020-08-13T08:06:27Z</time>
      </trkpt>
      <trkpt lat="47.808108" lon="-4.34595">
        <ele>6.8</ele>
        <time>2020-08-13T08:06:30Z</time>
      </trkpt>
      <trkpt lat="47.80767" lon="-4.346797">
        <ele>6.0</ele>
        <time>2020-08-13T08:06:39Z</time>
      </trkpt>
      <trkpt lat="47.806587" lon="-4.3488">
        <ele>6.0</ele>
        <time>2020-08-13T08:07:02Z</time>
      </trkpt>
      <trkpt lat="47.805647" lon="-4.350739">
        <ele>5.4</ele>
        <time>2020-08-13T08:07:23Z</time>
      </trkpt>
      <trkpt lat="47.805335" lon="-4.350427">
        <ele>5.4</ele>
        <time>2020-08-13T08:07:30Z</time>
      </trkpt>
      <trkpt lat="47.805072" lon="-4.350196">
        <ele>5.4</ele>
        <time>2020-08-13T08:07:36Z</time>
      </trkpt>
      <trkpt lat="47.804689" lon="-4.349975">
        <ele>4.4</ele>
        <time>2020-08-13T08:07:43Z</time>
      </trkpt>
      <trkpt lat="47.804195" lon="-4.349598">
        <ele>4.4</ele>
        <time>2020-08-13T08:07:54Z</time>
      </trkpt>
      <trkpt lat="47.804049" lon="-4.349581">
        <ele>2.6</ele>
        <time>2020-08-13T08:07:56Z</time>
      </trkpt>
      <trkpt lat="47.803474" lon="-4.350016">
        <ele>3.4</ele>
        <time>2020-08-13T08:08:08Z</time>
      </trkpt>
      <trkpt lat="47.803063" lon="-4.35025">
        <ele>2.4</ele>
        <time>2020-08-13T08:08:16Z</time>
      </trkpt>
      <trkpt lat="47.802463" lon="-4.350636">
        <ele>2.0</ele>
        <time>2020-08-13T08:08:28Z</time>
      </trkpt>
      <trkpt lat="47.802088" lon="-4.350798">
        <ele>2.0</ele>
        <time>2020-08-13T08:08:36Z</time>
      </trkpt>
      <trkpt lat="47.801928" lon="-4.350905">
        <ele>1.8</ele>
        <time>2020-08-13T08:08:39Z</time>
      </trkpt>
      <trkpt lat="47.802047" lon="-4.351269">
        <ele>1.8</ele>
        <time>2020-08-13T08:08:43Z</time>
      </trkpt>
      <trkpt lat="47.802241" lon="-4.35176">
        <ele>2.2</ele>
        <time>2020-08-13T08:08:49Z</time>
      </trkpt>
      <trkpt lat="47.802447" lon="-4.352083">
        <ele>2.2</ele>
        <time>2020-08-13T08:08:53Z</time>
      </trkpt>
      <trkpt lat="47.802883" lon="-4.352553">
        <ele>3.4</ele>
        <time>2020-08-13T08:09:02Z</time>
      </trkpt>
      <trkpt lat="47.803364" lon="-4.352995">
        <ele>3.2</ele>
        <time>2020-08-13T08:09:10Z</time>
      </trkpt>
      <trkpt lat="47.803922" lon="-4.353362">
        <ele>3.6</ele>
        <time>2020-08-13T08:09:20Z</time>
      </trkpt>
      <trkpt lat="47.803922" lon="-4.353362">
        <ele>3.6</ele>
        <time>2020-08-13T08:09:20Z</time>
      </trkpt>
      <trkpt lat="47.804203" lon="-4.353546">
        <ele>4.0</ele>
        <time>2020-08-13T08:09:24Z</time>
      </trkpt>
      <trkpt lat="47.804374" lon="-4.353263">
        <ele>3.4</ele>
        <time>2020-08-13T08:09:28Z</time>
      </trkpt>
      <trkpt lat="47.804806" lon="-4.352371">
        <ele>3.4</ele>
        <time>2020-08-13T08:09:37Z</time>
      </trkpt>
      <trkpt lat="47.805647" lon="-4.350739">
        <ele>5.4</ele>
        <time>2020-08-13T08:09:55Z</time>
      </trkpt>
      <trkpt lat="47.806587" lon="-4.3488">
        <ele>6.0</ele>
        <time>2020-08-13T08:10:15Z</time>
      </trkpt>
      <trkpt lat="47.80767" lon="-4.346797">
        <ele>6.0</ele>
        <time>2020-08-13T08:10:37Z</time>
      </trkpt>
      <trkpt lat="47.808108" lon="-4.34595">
        <ele>6.8</ele>
        <time>2020-08-13T08:10:46Z</time>
      </trkpt>
      <trkpt lat="47.80826" lon="-4.345625">
        <ele>7.2</ele>
        <time>2020-08-13T08:10:49Z</time>
      </trkpt>
      <trkpt lat="47.808621" lon="-4.344697">
        <ele>7.8</ele>
        <time>2020-08-13T08:10:58Z</time>
      </trkpt>
      <trkpt lat="47.808975" lon="-4.34387">
        <ele>7.4</ele>
        <time>2020-08-13T08:11:07Z</time>
      </trkpt>
      <trkpt lat="47.809968" lon="-4.342014">
        <ele>7.2</ele>
        <time>2020-08-13T08:11:27Z</time>
      </trkpt>
      <trkpt lat="47.811029" lon="-4.340099">
        <ele>7.4</ele>
        <time>2020-08-13T08:11:48Z</time>
      </trkpt>
      <trkpt lat="47.811382" lon="-4.339149">
        <ele>8.4</ele>
        <time>2020-08-13T08:11:57Z</time>
      </trkpt>
      <trkpt lat="47.811791" lon="-4.338167">
        <ele>10.0</ele>
        <time>2020-08-13T08:12:07Z</time>
      </trkpt>
      <trkpt lat="47.811932" lon="-4.338095">
        <ele>10.0</ele>
        <time>2020-08-13T08:12:09Z</time>
      </trkpt>
      <trkpt lat="47.812321" lon="-4.337997">
        <ele>10.0</ele>
        <time>2020-08-13T08:12:14Z</time>
      </trkpt>
      <trkpt lat="47.812449" lon="-4.337823">
        <ele>10.0</ele>
        <time>2020-08-13T08:12:16Z</time>
      </trkpt>
      <trkpt lat="47.812551" lon="-4.337481">
        <ele>10.2</ele>
        <time>2020-08-13T08:12:19Z</time>
      </trkpt>
      <trkpt lat="47.812752" lon="-4.336946">
        <ele>10.2</ele>
        <time>2020-08-13T08:12:25Z</time>
      </trkpt>
      <trkpt lat="47.813011" lon="-4.336349">
        <ele>9.8</ele>
        <time>2020-08-13T08:12:31Z</time>
      </trkpt>
      <trkpt lat="47.81306" lon="-4.336267">
        <ele>9.8</ele>
        <time>2020-08-13T08:12:31Z</time>
      </trkpt>
      <trkpt lat="47.813126" lon="-4.33621">
        <ele>9.8</ele>
        <time>2020-08-13T08:12:32Z</time>
      </trkpt>
      <trkpt lat="47.813665" lon="-4.335962">
        <ele>9.4</ele>
        <time>2020-08-13T08:12:40Z</time>
      </trkpt>
      <trkpt lat="47.813694" lon="-4.335903">
        <ele>9.4</ele>
        <time>2020-08-13T08:12:40Z</time>
      </trkpt>
      <trkpt lat="47.813771" lon="-4.335832">
        <ele>9.4</ele>
        <time>2020-08-13T08:12:41Z</time>
      </trkpt>
      <trkpt lat="47.813823" lon="-4.335826">
        <ele>9.4</ele>
        <time>2020-08-13T08:12:41Z</time>
      </trkpt>
      <trkpt lat="47.814147" lon="-4.335006">
        <ele>9.4</ele>
        <time>2020-08-13T08:12:46Z</time>
      </trkpt>
      <trkpt lat="47.814247" lon="-4.33466">
        <ele>9.4</ele>
        <time>2020-08-13T08:12:49Z</time>
      </trkpt>
      <trkpt lat="47.814415" lon="-4.333662">
        <ele>9.6</ele>
        <time>2020-08-13T08:12:54Z</time>
      </trkpt>
      <trkpt lat="47.814619" lon="-4.3327">
        <ele>9.0</ele>
        <time>2020-08-13T08:13:00Z</time>
      </trkpt>
      <trkpt lat="47.814648" lon="-4.332387">
        <ele>8.4</ele>
        <time>2020-08-13T08:13:02Z</time>
      </trkpt>
      <trkpt lat="47.814625" lon="-4.332346">
        <ele>8.4</ele>
        <time>2020-08-13T08:13:02Z</time>
      </trkpt>
      <trkpt lat="47.81461" lon="-4.332242">
        <ele>8.4</ele>
        <time>2020-08-13T08:13:03Z</time>
      </trkpt>
      <trkpt lat="47.814621" lon="-4.33219">
        <ele>8.4</ele>
        <time>2020-08-13T08:13:03Z</time>
      </trkpt>
      <trkpt lat="47.814642" lon="-4.332146">
        <ele>8.4</ele>
        <time>2020-08-13T08:13:03Z</time>
      </trkpt>
      <trkpt lat="47.814707" lon="-4.332101">
        <ele>8.4</ele>
        <time>2020-08-13T08:13:04Z</time>
      </trkpt>
      <trkpt lat="47.814829" lon="-4.331829">
        <ele>8.4</ele>
        <time>2020-08-13T08:13:06Z</time>
      </trkpt>
      <trkpt lat="47.815178" lon="-4.330208">
        <ele>9.0</ele>
        <time>2020-08-13T08:13:18Z</time>
      </trkpt>
      <trkpt lat="47.815785" lon="-4.32766">
        <ele>9.8</ele>
        <time>2020-08-13T08:13:37Z</time>
      </trkpt>
      <trkpt lat="47.816288" lon="-4.32598">
        <ele>12.2</ele>
        <time>2020-08-13T08:13:49Z</time>
      </trkpt>
      <trkpt lat="47.816832" lon="-4.324449">
        <ele>14.0</ele>
        <time>2020-08-13T08:14:01Z</time>
      </trkpt>
      <trkpt lat="47.817986" lon="-4.32145">
        <ele>15.8</ele>
        <time>2020-08-13T08:14:25Z</time>
      </trkpt>
      <trkpt lat="47.818459" lon="-4.320274">
        <ele>15.8</ele>
        <time>2020-08-13T08:14:34Z</time>
      </trkpt>
      <trkpt lat="47.818629" lon="-4.319759">
        <ele>17.0</ele>
        <time>2020-08-13T08:14:38Z</time>
      </trkpt>
      <trkpt lat="47.818648" lon="-4.319644">
        <ele>17.0</ele>
        <time>2020-08-13T08:14:39Z</time>
      </trkpt>
      <trkpt lat="47.818653" lon="-4.319448">
        <ele>17.0</ele>
        <time>2020-08-13T08:14:41Z</time>
      </trkpt>
      <trkpt lat="47.818648" lon="-4.319353">
        <ele>17.0</ele>
        <time>2020-08-13T08:14:41Z</time>
      </trkpt>
      <trkpt lat="47.818676" lon="-4.31928">
        <ele>17.0</ele>
        <time>2020-08-13T08:14:41Z</time>
      </trkpt>
      <trkpt lat="47.818744" lon="-4.31924">
        <ele>17.0</ele>
        <time>2020-08-13T08:14:42Z</time>
      </trkpt>
      <trkpt lat="47.818806" lon="-4.319271">
        <ele>17.0</ele>
        <time>2020-08-13T08:14:43Z</time>
      </trkpt>
      <trkpt lat="47.818934" lon="-4.319251">
        <ele>17.0</ele>
        <time>2020-08-13T08:14:43Z</time>
      </trkpt>
      <trkpt lat="47.819113" lon="-4.319126">
        <ele>18.4</ele>
        <time>2020-08-13T08:14:45Z</time>
      </trkpt>
      <trkpt lat="47.819717" lon="-4.318115">
        <ele>19.2</ele>
        <time>2020-08-13T08:14:52Z</time>
      </trkpt>
      <trkpt lat="47.820008" lon="-4.317693">
        <ele>17.8</ele>
        <time>2020-08-13T08:14:55Z</time>
      </trkpt>
      <trkpt lat="47.820684" lon="-4.316842">
        <ele>18.8</ele>
        <time>2020-08-13T08:15:01Z</time>
      </trkpt>
      <trkpt lat="47.82262" lon="-4.314515">
        <ele>23.0</ele>
        <time>2020-08-13T08:15:20Z</time>
      </trkpt>
      <trkpt lat="47.823239" lon="-4.313704">
        <ele>22.8</ele>
        <time>2020-08-13T08:15:26Z</time>
      </trkpt>
      <trkpt lat="47.823726" lon="-4.312946">
        <ele>22.2</ele>
        <time>2020-08-13T08:15:32Z</time>
      </trkpt>
      <trkpt lat="47.824139" lon="-4.312218">
        <ele>22.0</ele>
        <time>2020-08-13T08:15:36Z</time>
      </trkpt>
      <trkpt lat="47.825503" lon="-4.309428">
        <ele>23.8</ele>
        <time>2020-08-13T08:15:54Z</time>
      </trkpt>
      <trkpt lat="47.825866" lon="-4.308755">
        <ele>23.2</ele>
        <time>2020-08-13T08:15:58Z</time>
      </trkpt>
      <trkpt lat="47.826181" lon="-4.308243">
        <ele>23.0</ele>
        <time>2020-08-13T08:16:02Z</time>
      </trkpt>
      <trkpt lat="47.826614" lon="-4.307611">
        <ele>23.0</ele>
        <time>2020-08-13T08:16:06Z</time>
      </trkpt>
      <trkpt lat="47.827025" lon="-4.30709">
        <ele>23.0</ele>
        <time>2020-08-13T08:16:10Z</time>
      </trkpt>
      <trkpt lat="47.828273" lon="-4.305709">
        <ele>23.8</ele>
        <time>2020-08-13T08:16:22Z</time>
      </trkpt>
      <trkpt lat="47.829842" lon="-4.304013">
        <ele>24.0</ele>
        <time>2020-08-13T08:16:36Z</time>
      </trkpt>
      <trkpt lat="47.832531" lon="-4.300735">
        <ele>25.6</ele>
        <time>2020-08-13T08:17:02Z</time>
      </trkpt>
      <trkpt lat="47.83289" lon="-4.300242">
        <ele>25.6</ele>
        <time>2020-08-13T08:17:06Z</time>
      </trkpt>
      <trkpt lat="47.833308" lon="-4.299544">
        <ele>25.6</ele>
        <time>2020-08-13T08:17:11Z</time>
      </trkpt>
      <trkpt lat="47.833869" lon="-4.29849">
        <ele>25.6</ele>
        <time>2020-08-13T08:17:18Z</time>
      </trkpt>
      <trkpt lat="47.834045" lon="-4.298093">
        <ele>25.0</ele>
        <time>2020-08-13T08:17:20Z</time>
      </trkpt>
      <trkpt lat="47.834287" lon="-4.297379">
        <ele>25.2</ele>
        <time>2020-08-13T08:17:24Z</time>
      </trkpt>
      <trkpt lat="47.834671" lon="-4.295834">
        <ele>26.2</ele>
        <time>2020-08-13T08:17:32Z</time>
      </trkpt>
      <trkpt lat="47.834867" lon="-4.295265">
        <ele>26.4</ele>
        <time>2020-08-13T08:17:36Z</time>
      </trkpt>
      <trkpt lat="47.835141" lon="-4.294651">
        <ele>28.4</ele>
        <time>2020-08-13T08:17:39Z</time>
      </trkpt>
      <trkpt lat="47.835503" lon="-4.29408">
        <ele>28.6</ele>
        <time>2020-08-13T08:17:43Z</time>
      </trkpt>
      <trkpt lat="47.837416" lon="-4.291687">
        <ele>28.4</ele>
        <time>2020-08-13T08:18:02Z</time>
      </trkpt>
      <trkpt lat="47.837828" lon="-4.291102">
        <ele>28.8</ele>
        <time>2020-08-13T08:18:06Z</time>
      </trkpt>
      <trkpt lat="47.837968" lon="-4.290777">
        <ele>28.4</ele>
        <time>2020-08-13T08:18:08Z</time>
      </trkpt>
      <trkpt lat="47.837987" lon="-4.290678">
        <ele>28.4</ele>
        <time>2020-08-13T08:18:09Z</time>
      </trkpt>
      <trkpt lat="47.838031" lon="-4.290634">
        <ele>28.4</ele>
        <time>2020-08-13T08:18:10Z</time>
      </trkpt>
      <trkpt lat="47.83822" lon="-4.290249">
        <ele>28.4</ele>
        <time>2020-08-13T08:18:13Z</time>
      </trkpt>
      <trkpt lat="47.839196" lon="-4.287749">
        <ele>28.2</ele>
        <time>2020-08-13T08:18:33Z</time>
      </trkpt>
      <trkpt lat="47.839807" lon="-4.285943">
        <ele>27.0</ele>
        <time>2020-08-13T08:18:47Z</time>
      </trkpt>
      <trkpt lat="47.839746" lon="-4.285866">
        <ele>27.0</ele>
        <time>2020-08-13T08:18:48Z</time>
      </trkpt>
      <trkpt lat="47.839741" lon="-4.285784">
        <ele>27.6</ele>
        <time>2020-08-13T08:18:49Z</time>
      </trkpt>
      <trkpt lat="47.83977" lon="-4.285714">
        <ele>27.6</ele>
        <time>2020-08-13T08:18:50Z</time>
      </trkpt>
      <trkpt lat="47.83982" lon="-4.285683">
        <ele>27.6</ele>
        <time>2020-08-13T08:18:51Z</time>
      </trkpt>
      <trkpt lat="47.839894" lon="-4.285728">
        <ele>27.6</ele>
        <time>2020-08-13T08:18:52Z</time>
      </trkpt>
      <trkpt lat="47.840103" lon="-4.285352">
        <ele>28.6</ele>
        <time>2020-08-13T08:18:58Z</time>
      </trkpt>
      <trkpt lat="47.840234" lon="-4.28521">
        <ele>28.6</ele>
        <time>2020-08-13T08:19:01Z</time>
      </trkpt>
      <trkpt lat="47.841113" lon="-4.284448">
        <ele>30.4</ele>
        <time>2020-08-13T08:19:20Z</time>
      </trkpt>
      <trkpt lat="47.841204" lon="-4.284341">
        <ele>30.4</ele>
        <time>2020-08-13T08:19:22Z</time>
      </trkpt>
      <trkpt lat="47.842298" lon="-4.282317">
        <ele>32.0</ele>
        <time>2020-08-13T08:19:54Z</time>
      </trkpt>
      <trkpt lat="47.842276" lon="-4.282274">
        <ele>32.0</ele>
        <time>2020-08-13T08:19:54Z</time>
      </trkpt>
      <trkpt lat="47.842277" lon="-4.282221">
        <ele>32.0</ele>
        <time>2020-08-13T08:19:54Z</time>
      </trkpt>
      <trkpt lat="47.842333" lon="-4.28217">
        <ele>32.0</ele>
        <time>2020-08-13T08:19:55Z</time>
      </trkpt>
      <trkpt lat="47.842364" lon="-4.282191">
        <ele>32.0</ele>
        <time>2020-08-13T08:19:55Z</time>
      </trkpt>
      <trkpt lat="47.84238" lon="-4.282235">
        <ele>32.0</ele>
        <time>2020-08-13T08:19:56Z</time>
      </trkpt>
      <trkpt lat="47.842467" lon="-4.282338">
        <ele>32.0</ele>
        <time>2020-08-13T08:19:57Z</time>
      </trkpt>
      <trkpt lat="47.843595" lon="-4.282139">
        <ele>31.4</ele>
        <time>2020-08-13T08:20:06Z</time>
      </trkpt>
      <trkpt lat="47.843843" lon="-4.282123">
        <ele>31.4</ele>
        <time>2020-08-13T08:20:08Z</time>
      </trkpt>
      <trkpt lat="47.844812" lon="-4.282099">
        <ele>31.6</ele>
        <time>2020-08-13T08:20:16Z</time>
      </trkpt>
      <trkpt lat="47.845341" lon="-4.282159">
        <ele>31.8</ele>
        <time>2020-08-13T08:20:21Z</time>
      </trkpt>
      <trkpt lat="47.845485" lon="-4.282199">
        <ele>31.8</ele>
        <time>2020-08-13T08:20:22Z</time>
      </trkpt>
      <trkpt lat="47.845784" lon="-4.282297">
        <ele>31.8</ele>
        <time>2020-08-13T08:20:25Z</time>
      </trkpt>
      <trkpt lat="47.84614" lon="-4.282459">
        <ele>32.6</ele>
        <time>2020-08-13T08:20:28Z</time>
      </trkpt>
      <trkpt lat="47.846741" lon="-4.282827">
        <ele>33.2</ele>
        <time>2020-08-13T08:20:33Z</time>
      </trkpt>
      <trkpt lat="47.846981" lon="-4.283024">
        <ele>33.2</ele>
        <time>2020-08-13T08:20:35Z</time>
      </trkpt>
      <trkpt lat="47.847815" lon="-4.283794">
        <ele>34.2</ele>
        <time>2020-08-13T08:20:44Z</time>
      </trkpt>
      <trkpt lat="47.848141" lon="-4.284051">
        <ele>34.2</ele>
        <time>2020-08-13T08:20:47Z</time>
      </trkpt>
      <trkpt lat="47.848615" lon="-4.284342">
        <ele>34.8</ele>
        <time>2020-08-13T08:20:51Z</time>
      </trkpt>
      <trkpt lat="47.848976" lon="-4.284466">
        <ele>34.8</ele>
        <time>2020-08-13T08:20:54Z</time>
      </trkpt>
      <trkpt lat="47.851442" lon="-4.285131">
        <ele>35.0</ele>
        <time>2020-08-13T08:21:15Z</time>
      </trkpt>
      <trkpt lat="47.851818" lon="-4.285201">
        <ele>34.0</ele>
        <time>2020-08-13T08:21:18Z</time>
      </trkpt>
      <trkpt lat="47.852205" lon="-4.285232">
        <ele>34.0</ele>
        <time>2020-08-13T08:21:21Z</time>
      </trkpt>
      <trkpt lat="47.852687" lon="-4.2852">
        <ele>33.2</ele>
        <time>2020-08-13T08:21:25Z</time>
      </trkpt>
      <trkpt lat="47.853173" lon="-4.285102">
        <ele>33.2</ele>
        <time>2020-08-13T08:21:29Z</time>
      </trkpt>
      <trkpt lat="47.853795" lon="-4.284839">
        <ele>31.8</ele>
        <time>2020-08-13T08:21:35Z</time>
      </trkpt>
      <trkpt lat="47.859435" lon="-4.2821">
        <ele>30.8</ele>
        <time>2020-08-13T08:22:24Z</time>
      </trkpt>
      <trkpt lat="47.859891" lon="-4.28183">
        <ele>30.8</ele>
        <time>2020-08-13T08:22:28Z</time>
      </trkpt>
      <trkpt lat="47.860011" lon="-4.281738">
        <ele>31.4</ele>
        <time>2020-08-13T08:22:29Z</time>
      </trkpt>
      <trkpt lat="47.861038" lon="-4.280806">
        <ele>29.6</ele>
        <time>2020-08-13T08:22:39Z</time>
      </trkpt>
      <trkpt lat="47.86158" lon="-4.280514">
        <ele>29.6</ele>
        <time>2020-08-13T08:22:44Z</time>
      </trkpt>
      <trkpt lat="47.86195" lon="-4.280424">
        <ele>28.4</ele>
        <time>2020-08-13T08:22:47Z</time>
      </trkpt>
      <trkpt lat="47.862041" lon="-4.280347">
        <ele>28.4</ele>
        <time>2020-08-13T08:22:48Z</time>
      </trkpt>
      <trkpt lat="47.862083" lon="-4.280261">
        <ele>28.4</ele>
        <time>2020-08-13T08:22:49Z</time>
      </trkpt>
      <trkpt lat="47.862112" lon="-4.280243">
        <ele>28.4</ele>
        <time>2020-08-13T08:22:49Z</time>
      </trkpt>
      <trkpt lat="47.862175" lon="-4.280255">
        <ele>28.4</ele>
        <time>2020-08-13T08:22:50Z</time>
      </trkpt>
      <trkpt lat="47.862219" lon="-4.280325">
        <ele>28.4</ele>
        <time>2020-08-13T08:22:51Z</time>
      </trkpt>
      <trkpt lat="47.862359" lon="-4.280407">
        <ele>28.4</ele>
        <time>2020-08-13T08:22:52Z</time>
      </trkpt>
      <trkpt lat="47.864854" lon="-4.280369">
        <ele>19.4</ele>
        <time>2020-08-13T08:23:20Z</time>
      </trkpt>
      <trkpt lat="47.865389" lon="-4.280333">
        <ele>17.4</ele>
        <time>2020-08-13T08:23:25Z</time>
      </trkpt>
      <trkpt lat="47.865586" lon="-4.280343">
        <ele>17.4</ele>
        <time>2020-08-13T08:23:27Z</time>
      </trkpt>
      <trkpt lat="47.865818" lon="-4.280416">
        <ele>17.4</ele>
        <time>2020-08-13T08:23:30Z</time>
      </trkpt>
      <trkpt lat="47.865979" lon="-4.280496">
        <ele>18.4</ele>
        <time>2020-08-13T08:23:32Z</time>
      </trkpt>
      <trkpt lat="47.866155" lon="-4.280649">
        <ele>18.4</ele>
        <time>2020-08-13T08:23:34Z</time>
      </trkpt>
      <trkpt lat="47.866364" lon="-4.28075">
        <ele>18.4</ele>
        <time>2020-08-13T08:23:36Z</time>
      </trkpt>
      <trkpt lat="47.866607" lon="-4.280777">
        <ele>18.4</ele>
        <time>2020-08-13T08:23:39Z</time>
      </trkpt>
      <trkpt lat="47.867167" lon="-4.281052">
        <ele>21.0</ele>
        <time>2020-08-13T08:23:46Z</time>
      </trkpt>
      <trkpt lat="47.868264" lon="-4.281712">
        <ele>19.8</ele>
        <time>2020-08-13T08:23:59Z</time>
      </trkpt>
      <trkpt lat="47.870506" lon="-4.282935">
        <ele>22.0</ele>
        <time>2020-08-13T08:24:15Z</time>
      </trkpt>
      <trkpt lat="47.871204" lon="-4.28336">
        <ele>25.2</ele>
        <time>2020-08-13T08:24:20Z</time>
      </trkpt>
      <trkpt lat="47.871523" lon="-4.283587">
        <ele>25.2</ele>
        <time>2020-08-13T08:24:22Z</time>
      </trkpt>
      <trkpt lat="47.871832" lon="-4.283839">
        <ele>28.6</ele>
        <time>2020-08-13T08:24:24Z</time>
      </trkpt>
      <trkpt lat="47.872738" lon="-4.28472">
        <ele>29.6</ele>
        <time>2020-08-13T08:24:32Z</time>
      </trkpt>
      <trkpt lat="47.875783" lon="-4.287927">
        <ele>31.2</ele>
        <time>2020-08-13T08:24:57Z</time>
      </trkpt>
      <trkpt lat="47.876224" lon="-4.288263">
        <ele>29.4</ele>
        <time>2020-08-13T08:25:00Z</time>
      </trkpt>
      <trkpt lat="47.876484" lon="-4.288422">
        <ele>30.0</ele>
        <time>2020-08-13T08:25:02Z</time>
      </trkpt>
      <trkpt lat="47.876933" lon="-4.288652">
        <ele>27.2</ele>
        <time>2020-08-13T08:25:05Z</time>
      </trkpt>
      <trkpt lat="47.879443" lon="-4.289593">
        <ele>26.0</ele>
        <time>2020-08-13T08:25:22Z</time>
      </trkpt>
      <trkpt lat="47.880138" lon="-4.289937">
        <ele>26.4</ele>
        <time>2020-08-13T08:25:27Z</time>
      </trkpt>
      <trkpt lat="47.880408" lon="-4.2901">
        <ele>27.2</ele>
        <time>2020-08-13T08:25:29Z</time>
      </trkpt>
      <trkpt lat="47.880719" lon="-4.29032">
        <ele>27.2</ele>
        <time>2020-08-13T08:25:32Z</time>
      </trkpt>
      <trkpt lat="47.881031" lon="-4.290558">
        <ele>27.4</ele>
        <time>2020-08-13T08:25:34Z</time>
      </trkpt>
      <trkpt lat="47.881476" lon="-4.290937">
        <ele>28.2</ele>
        <time>2020-08-13T08:25:37Z</time>
      </trkpt>
      <trkpt lat="47.881843" lon="-4.291286">
        <ele>28.8</ele>
        <time>2020-08-13T08:25:40Z</time>
      </trkpt>
      <trkpt lat="47.882619" lon="-4.292077">
        <ele>29.6</ele>
        <time>2020-08-13T08:25:47Z</time>
      </trkpt>
      <trkpt lat="47.883148" lon="-4.29255">
        <ele>29.8</ele>
        <time>2020-08-13T08:25:51Z</time>
      </trkpt>
      <trkpt lat="47.883428" lon="-4.292734">
        <ele>30.8</ele>
        <time>2020-08-13T08:25:53Z</time>
      </trkpt>
      <trkpt lat="47.883745" lon="-4.292898">
        <ele>30.8</ele>
        <time>2020-08-13T08:25:55Z</time>
      </trkpt>
      <trkpt lat="47.884027" lon="-4.293005">
        <ele>30.8</ele>
        <time>2020-08-13T08:25:57Z</time>
      </trkpt>
      <trkpt lat="47.88437" lon="-4.293084">
        <ele>31.8</ele>
        <time>2020-08-13T08:25:59Z</time>
      </trkpt>
      <trkpt lat="47.884662" lon="-4.293122">
        <ele>31.8</ele>
        <time>2020-08-13T08:26:01Z</time>
      </trkpt>
      <trkpt lat="47.884997" lon="-4.293116">
        <ele>31.8</ele>
        <time>2020-08-13T08:26:04Z</time>
      </trkpt>
      <trkpt lat="47.885372" lon="-4.293048">
        <ele>32.6</ele>
        <time>2020-08-13T08:26:06Z</time>
      </trkpt>
      <trkpt lat="47.888099" lon="-4.292117">
        <ele>37.6</ele>
        <time>2020-08-13T08:26:25Z</time>
      </trkpt>
      <trkpt lat="47.888528" lon="-4.291986">
        <ele>39.8</ele>
        <time>2020-08-13T08:26:28Z</time>
      </trkpt>
      <trkpt lat="47.888997" lon="-4.291871">
        <ele>39.8</ele>
        <time>2020-08-13T08:26:31Z</time>
      </trkpt>
      <trkpt lat="47.889304" lon="-4.291838">
        <ele>42.0</ele>
        <time>2020-08-13T08:26:33Z</time>
      </trkpt>
      <trkpt lat="47.889731" lon="-4.291855">
        <ele>42.0</ele>
        <time>2020-08-13T08:26:36Z</time>
      </trkpt>
      <trkpt lat="47.890725" lon="-4.291981">
        <ele>44.2</ele>
        <time>2020-08-13T08:26:43Z</time>
      </trkpt>
      <trkpt lat="47.891268" lon="-4.291977">
        <ele>45.8</ele>
        <time>2020-08-13T08:26:46Z</time>
      </trkpt>
      <trkpt lat="47.892916" lon="-4.291653">
        <ele>46.2</ele>
        <time>2020-08-13T08:26:57Z</time>
      </trkpt>
      <trkpt lat="47.893229" lon="-4.291621">
        <ele>46.2</ele>
        <time>2020-08-13T08:27:00Z</time>
      </trkpt>
      <trkpt lat="47.894615" lon="-4.291554">
        <ele>48.6</ele>
        <time>2020-08-13T08:27:09Z</time>
      </trkpt>
      <trkpt lat="47.894758" lon="-4.291521">
        <ele>48.6</ele>
        <time>2020-08-13T08:27:10Z</time>
      </trkpt>
      <trkpt lat="47.895374" lon="-4.291297">
        <ele>49.8</ele>
        <time>2020-08-13T08:27:14Z</time>
      </trkpt>
      <trkpt lat="47.895958" lon="-4.290917">
        <ele>50.0</ele>
        <time>2020-08-13T08:27:18Z</time>
      </trkpt>
      <trkpt lat="47.896093" lon="-4.290803">
        <ele>47.4</ele>
        <time>2020-08-13T08:27:19Z</time>
      </trkpt>
      <trkpt lat="47.896401" lon="-4.290489">
        <ele>47.4</ele>
        <time>2020-08-13T08:27:22Z</time>
      </trkpt>
      <trkpt lat="47.896749" lon="-4.290048">
        <ele>49.6</ele>
        <time>2020-08-13T08:27:25Z</time>
      </trkpt>
      <trkpt lat="47.896949" lon="-4.289733">
        <ele>47.8</ele>
        <time>2020-08-13T08:27:27Z</time>
      </trkpt>
      <trkpt lat="47.897278" lon="-4.28912">
        <ele>48.6</ele>
        <time>2020-08-13T08:27:30Z</time>
      </trkpt>
      <trkpt lat="47.898287" lon="-4.287144">
        <ele>52.8</ele>
        <time>2020-08-13T08:27:42Z</time>
      </trkpt>
      <trkpt lat="47.898566" lon="-4.286688">
        <ele>52.6</ele>
        <time>2020-08-13T08:27:44Z</time>
      </trkpt>
      <trkpt lat="47.899462" lon="-4.285448">
        <ele>52.4</ele>
        <time>2020-08-13T08:27:53Z</time>
      </trkpt>
      <trkpt lat="47.899742" lon="-4.285749">
        <ele>52.4</ele>
        <time>2020-08-13T08:27:57Z</time>
      </trkpt>
      <trkpt lat="47.90092" lon="-4.286798">
        <ele>62.8</ele>
        <time>2020-08-13T08:28:15Z</time>
      </trkpt>
      <trkpt lat="47.90146" lon="-4.28722">
        <ele>62.8</ele>
        <time>2020-08-13T08:28:23Z</time>
      </trkpt>
      <trkpt lat="47.902434" lon="-4.287895">
        <ele>66.8</ele>
        <time>2020-08-13T08:28:38Z</time>
      </trkpt>
      <trkpt lat="47.902383" lon="-4.288476">
        <ele>66.6</ele>
        <time>2020-08-13T08:28:40Z</time>
      </trkpt>
      <trkpt lat="47.902409" lon="-4.289011">
        <ele>66.6</ele>
        <time>2020-08-13T08:28:42Z</time>
      </trkpt>
      <trkpt lat="47.902499" lon="-4.289704">
        <ele>65.8</ele>
        <time>2020-08-13T08:28:45Z</time>
      </trkpt>
      <trkpt lat="47.902634" lon="-4.290416">
        <ele>63.8</ele>
        <time>2020-08-13T08:28:49Z</time>
      </trkpt>
      <trkpt lat="47.902789" lon="-4.290902">
        <ele>61.6</ele>
        <time>2020-08-13T08:28:51Z</time>
      </trkpt>
      <trkpt lat="47.905169" lon="-4.295453">
        <ele>51.4</ele>
        <time>2020-08-13T08:29:16Z</time>
      </trkpt>
      <trkpt lat="47.905564" lon="-4.296233">
        <ele>52.8</ele>
        <time>2020-08-13T08:29:20Z</time>
      </trkpt>
      <trkpt lat="47.907109" lon="-4.2994">
        <ele>51.0</ele>
        <time>2020-08-13T08:29:37Z</time>
      </trkpt>
      <trkpt lat="47.908827" lon="-4.302797">
        <ele>43.8</ele>
        <time>2020-08-13T08:29:55Z</time>
      </trkpt>
      <trkpt lat="47.908972" lon="-4.303212">
        <ele>43.8</ele>
        <time>2020-08-13T08:29:58Z</time>
      </trkpt>
      <trkpt lat="47.90907" lon="-4.30365">
        <ele>43.4</ele>
        <time>2020-08-13T08:30:00Z</time>
      </trkpt>
      <trkpt lat="47.909353" lon="-4.305227">
        <ele>37.4</ele>
        <time>2020-08-13T08:30:07Z</time>
      </trkpt>
      <trkpt lat="47.909432" lon="-4.305602">
        <ele>37.4</ele>
        <time>2020-08-13T08:30:08Z</time>
      </trkpt>
      <trkpt lat="47.909556" lon="-4.306017">
        <ele>38.4</ele>
        <time>2020-08-13T08:30:10Z</time>
      </trkpt>
      <trkpt lat="47.909729" lon="-4.306438">
        <ele>38.4</ele>
        <time>2020-08-13T08:30:12Z</time>
      </trkpt>
      <trkpt lat="47.909919" lon="-4.306806">
        <ele>39.2</ele>
        <time>2020-08-13T08:30:14Z</time>
      </trkpt>
      <trkpt lat="47.910437" lon="-4.307621">
        <ele>32.0</ele>
        <time>2020-08-13T08:30:19Z</time>
      </trkpt>
      <trkpt lat="47.910603" lon="-4.307989">
        <ele>32.0</ele>
        <time>2020-08-13T08:30:21Z</time>
      </trkpt>
      <trkpt lat="47.910691" lon="-4.308249">
        <ele>32.0</ele>
        <time>2020-08-13T08:30:22Z</time>
      </trkpt>
      <trkpt lat="47.910824" lon="-4.308764">
        <ele>29.6</ele>
        <time>2020-08-13T08:30:25Z</time>
      </trkpt>
      <trkpt lat="47.910903" lon="-4.309193">
        <ele>19.0</ele>
        <time>2020-08-13T08:30:27Z</time>
      </trkpt>
      <trkpt lat="47.911477" lon="-4.31326">
        <ele>18.4</ele>
        <time>2020-08-13T08:30:45Z</time>
      </trkpt>
      <trkpt lat="47.911644" lon="-4.314278">
        <ele>14.0</ele>
        <time>2020-08-13T08:30:49Z</time>
      </trkpt>
      <trkpt lat="47.911735" lon="-4.314671">
        <ele>13.4</ele>
        <time>2020-08-13T08:30:51Z</time>
      </trkpt>
      <trkpt lat="47.911838" lon="-4.314978">
        <ele>13.4</ele>
        <time>2020-08-13T08:30:53Z</time>
      </trkpt>
      <trkpt lat="47.911908" lon="-4.315129">
        <ele>10.2</ele>
        <time>2020-08-13T08:30:53Z</time>
      </trkpt>
      <trkpt lat="47.912055" lon="-4.315362">
        <ele>10.2</ele>
        <time>2020-08-13T08:30:55Z</time>
      </trkpt>
      <trkpt lat="47.91227" lon="-4.315584">
        <ele>10.2</ele>
        <time>2020-08-13T08:30:56Z</time>
      </trkpt>
      <trkpt lat="47.912512" lon="-4.315771">
        <ele>9.8</ele>
        <time>2020-08-13T08:30:58Z</time>
      </trkpt>
      <trkpt lat="47.913658" lon="-4.316435">
        <ele>10.0</ele>
        <time>2020-08-13T08:31:06Z</time>
      </trkpt>
      <trkpt lat="47.913904" lon="-4.316602">
        <ele>10.0</ele>
        <time>2020-08-13T08:31:08Z</time>
      </trkpt>
      <trkpt lat="47.914072" lon="-4.31679">
        <ele>9.2</ele>
        <time>2020-08-13T08:31:09Z</time>
      </trkpt>
      <trkpt lat="47.914184" lon="-4.316945">
        <ele>13.6</ele>
        <time>2020-08-13T08:31:10Z</time>
      </trkpt>
      <trkpt lat="47.914328" lon="-4.317235">
        <ele>13.6</ele>
        <time>2020-08-13T08:31:12Z</time>
      </trkpt>
      <trkpt lat="47.914436" lon="-4.31753">
        <ele>13.8</ele>
        <time>2020-08-13T08:31:13Z</time>
      </trkpt>
      <trkpt lat="47.914673" lon="-4.318332">
        <ele>13.8</ele>
        <time>2020-08-13T08:31:17Z</time>
      </trkpt>
      <trkpt lat="47.914802" lon="-4.318661">
        <ele>14.6</ele>
        <time>2020-08-13T08:31:19Z</time>
      </trkpt>
      <trkpt lat="47.915024" lon="-4.319046">
        <ele>20.4</ele>
        <time>2020-08-13T08:31:21Z</time>
      </trkpt>
      <trkpt lat="47.916761" lon="-4.321379">
        <ele>23.2</ele>
        <time>2020-08-13T08:31:36Z</time>
      </trkpt>
      <trkpt lat="47.91719" lon="-4.321808">
        <ele>24.6</ele>
        <time>2020-08-13T08:31:39Z</time>
      </trkpt>
      <trkpt lat="47.917915" lon="-4.322259">
        <ele>26.4</ele>
        <time>2020-08-13T08:31:44Z</time>
      </trkpt>
      <trkpt lat="47.918136" lon="-4.322421">
        <ele>26.4</ele>
        <time>2020-08-13T08:31:46Z</time>
      </trkpt>
      <trkpt lat="47.918881" lon="-4.323098">
        <ele>31.2</ele>
        <time>2020-08-13T08:31:52Z</time>
      </trkpt>
      <trkpt lat="47.920493" lon="-4.324647">
        <ele>40.8</ele>
        <time>2020-08-13T08:32:04Z</time>
      </trkpt>
      <trkpt lat="47.921423" lon="-4.325605">
        <ele>44.4</ele>
        <time>2020-08-13T08:32:11Z</time>
      </trkpt>
      <trkpt lat="47.921874" lon="-4.326009">
        <ele>45.2</ele>
        <time>2020-08-13T08:32:15Z</time>
      </trkpt>
      <trkpt lat="47.922237" lon="-4.326281">
        <ele>45.2</ele>
        <time>2020-08-13T08:32:17Z</time>
      </trkpt>
      <trkpt lat="47.922725" lon="-4.326508">
        <ele>46.2</ele>
        <time>2020-08-13T08:32:21Z</time>
      </trkpt>
      <trkpt lat="47.923202" lon="-4.326675">
        <ele>44.8</ele>
        <time>2020-08-13T08:32:24Z</time>
      </trkpt>
      <trkpt lat="47.923524" lon="-4.326733">
        <ele>46.4</ele>
        <time>2020-08-13T08:32:26Z</time>
      </trkpt>
      <trkpt lat="47.924171" lon="-4.326789">
        <ele>47.6</ele>
        <time>2020-08-13T08:32:30Z</time>
      </trkpt>
      <trkpt lat="47.924818" lon="-4.326676">
        <ele>47.6</ele>
        <time>2020-08-13T08:32:34Z</time>
      </trkpt>
      <trkpt lat="47.926221" lon="-4.326378">
        <ele>47.8</ele>
        <time>2020-08-13T08:32:43Z</time>
      </trkpt>
      <trkpt lat="47.926854" lon="-4.326432">
        <ele>48.2</ele>
        <time>2020-08-13T08:32:47Z</time>
      </trkpt>
      <trkpt lat="47.927328" lon="-4.326591">
        <ele>48.2</ele>
        <time>2020-08-13T08:32:51Z</time>
      </trkpt>
      <trkpt lat="47.928012" lon="-4.327047">
        <ele>47.8</ele>
        <time>2020-08-13T08:32:55Z</time>
      </trkpt>
      <trkpt lat="47.930148" lon="-4.329582">
        <ele>48.8</ele>
        <time>2020-08-13T08:33:13Z</time>
      </trkpt>
      <trkpt lat="47.931395" lon="-4.331034">
        <ele>45.2</ele>
        <time>2020-08-13T08:33:23Z</time>
      </trkpt>
      <trkpt lat="47.93185" lon="-4.331613">
        <ele>43.0</ele>
        <time>2020-08-13T08:33:27Z</time>
      </trkpt>
      <trkpt lat="47.932139" lon="-4.332047">
        <ele>40.6</ele>
        <time>2020-08-13T08:33:30Z</time>
      </trkpt>
      <trkpt lat="47.93326" lon="-4.334084">
        <ele>34.2</ele>
        <time>2020-08-13T08:33:41Z</time>
      </trkpt>
      <trkpt lat="47.93354" lon="-4.334526">
        <ele>29.8</ele>
        <time>2020-08-13T08:33:44Z</time>
      </trkpt>
      <trkpt lat="47.933907" lon="-4.334988">
        <ele>29.8</ele>
        <time>2020-08-13T08:33:47Z</time>
      </trkpt>
      <trkpt lat="47.934162" lon="-4.335247">
        <ele>30.0</ele>
        <time>2020-08-13T08:33:49Z</time>
      </trkpt>
      <trkpt lat="47.940759" lon="-4.341262">
        <ele>19.6</ele>
        <time>2020-08-13T08:34:39Z</time>
      </trkpt>
      <trkpt lat="47.941061" lon="-4.341611">
        <ele>25.4</ele>
        <time>2020-08-13T08:34:41Z</time>
      </trkpt>
      <trkpt lat="47.941361" lon="-4.342072">
        <ele>24.6</ele>
        <time>2020-08-13T08:34:44Z</time>
      </trkpt>
      <trkpt lat="47.941493" lon="-4.342331">
        <ele>24.6</ele>
        <time>2020-08-13T08:34:45Z</time>
      </trkpt>
      <trkpt lat="47.941669" lon="-4.342779">
        <ele>29.6</ele>
        <time>2020-08-13T08:34:47Z</time>
      </trkpt>
      <trkpt lat="47.941938" lon="-4.343575">
        <ele>29.6</ele>
        <time>2020-08-13T08:34:51Z</time>
      </trkpt>
      <trkpt lat="47.942267" lon="-4.344481">
        <ele>30.0</ele>
        <time>2020-08-13T08:34:56Z</time>
      </trkpt>
      <trkpt lat="47.942804" lon="-4.34564">
        <ele>33.4</ele>
        <time>2020-08-13T08:35:02Z</time>
      </trkpt>
      <trkpt lat="47.943156" lon="-4.34623">
        <ele>31.6</ele>
        <time>2020-08-13T08:35:05Z</time>
      </trkpt>
      <trkpt lat="47.944694" lon="-4.348429">
        <ele>34.8</ele>
        <time>2020-08-13T08:35:19Z</time>
      </trkpt>
      <trkpt lat="47.945334" lon="-4.34932">
        <ele>37.8</ele>
        <time>2020-08-13T08:35:25Z</time>
      </trkpt>
      <trkpt lat="47.946261" lon="-4.350285">
        <ele>41.6</ele>
        <time>2020-08-13T08:35:32Z</time>
      </trkpt>
      <trkpt lat="47.947617" lon="-4.351644">
        <ele>45.8</ele>
        <time>2020-08-13T08:35:42Z</time>
      </trkpt>
      <trkpt lat="47.949252" lon="-4.35334">
        <ele>50.8</ele>
        <time>2020-08-13T08:35:55Z</time>
      </trkpt>
      <trkpt lat="47.949549" lon="-4.353719">
        <ele>50.8</ele>
        <time>2020-08-13T08:35:58Z</time>
      </trkpt>
      <trkpt lat="47.949581" lon="-4.353678">
        <ele>50.8</ele>
        <time>2020-08-13T08:35:59Z</time>
      </trkpt>
      <trkpt lat="47.949661" lon="-4.353649">
        <ele>50.8</ele>
        <time>2020-08-13T08:35:59Z</time>
      </trkpt>
      <trkpt lat="47.949737" lon="-4.353699">
        <ele>50.8</ele>
        <time>2020-08-13T08:36:00Z</time>
      </trkpt>
      <trkpt lat="47.949763" lon="-4.353747">
        <ele>50.8</ele>
        <time>2020-08-13T08:36:00Z</time>
      </trkpt>
      <trkpt lat="47.94978" lon="-4.353834">
        <ele>50.8</ele>
        <time>2020-08-13T08:36:01Z</time>
      </trkpt>
      <trkpt lat="47.949769" lon="-4.353922">
        <ele>50.8</ele>
        <time>2020-08-13T08:36:01Z</time>
      </trkpt>
      <trkpt lat="47.949732" lon="-4.353993">
        <ele>50.8</ele>
        <time>2020-08-13T08:36:01Z</time>
      </trkpt>
      <trkpt lat="47.952969" lon="-4.35885">
        <ele>52.0</ele>
        <time>2020-08-13T08:36:36Z</time>
      </trkpt>
      <trkpt lat="47.953277" lon="-4.359158">
        <ele>52.0</ele>
        <time>2020-08-13T08:36:39Z</time>
      </trkpt>
      <trkpt lat="47.954153" lon="-4.359749">
        <ele>54.8</ele>
        <time>2020-08-13T08:36:47Z</time>
      </trkpt>
      <trkpt lat="47.954982" lon="-4.360013">
        <ele>56.2</ele>
        <time>2020-08-13T08:36:53Z</time>
      </trkpt>
      <trkpt lat="47.955266" lon="-4.360307">
        <ele>56.6</ele>
        <time>2020-08-13T08:36:56Z</time>
      </trkpt>
      <trkpt lat="47.956279" lon="-4.36155">
        <ele>55.8</ele>
        <time>2020-08-13T08:37:06Z</time>
      </trkpt>
      <trkpt lat="47.957055" lon="-4.362456">
        <ele>55.6</ele>
        <time>2020-08-13T08:37:13Z</time>
      </trkpt>
      <trkpt lat="47.957248" lon="-4.362656">
        <ele>53.8</ele>
        <time>2020-08-13T08:37:15Z</time>
      </trkpt>
      <trkpt lat="47.959006" lon="-4.364859">
        <ele>53.0</ele>
        <time>2020-08-13T08:37:32Z</time>
      </trkpt>
      <trkpt lat="47.959461" lon="-4.365451">
        <ele>50.2</ele>
        <time>2020-08-13T08:37:37Z</time>
      </trkpt>
      <trkpt lat="47.960689" lon="-4.367326">
        <ele>44.2</ele>
        <time>2020-08-13T08:37:50Z</time>
      </trkpt>
      <trkpt lat="47.961358" lon="-4.368003">
        <ele>40.4</ele>
        <time>2020-08-13T08:37:56Z</time>
      </trkpt>
      <trkpt lat="47.962355" lon="-4.368798">
        <ele>36.4</ele>
        <time>2020-08-13T08:38:05Z</time>
      </trkpt>
      <trkpt lat="47.962717" lon="-4.368989">
        <ele>40.6</ele>
        <time>2020-08-13T08:38:08Z</time>
      </trkpt>
      <trkpt lat="47.962886" lon="-4.369049">
        <ele>40.6</ele>
        <time>2020-08-13T08:38:09Z</time>
      </trkpt>
      <trkpt lat="47.963278" lon="-4.369133">
        <ele>40.6</ele>
        <time>2020-08-13T08:38:12Z</time>
      </trkpt>
      <trkpt lat="47.963416" lon="-4.369143">
        <ele>46.0</ele>
        <time>2020-08-13T08:38:13Z</time>
      </trkpt>
      <trkpt lat="47.965741" lon="-4.369175">
        <ele>47.8</ele>
        <time>2020-08-13T08:38:31Z</time>
      </trkpt>
      <trkpt lat="47.966716" lon="-4.369437">
        <ele>42.8</ele>
        <time>2020-08-13T08:38:39Z</time>
      </trkpt>
      <trkpt lat="47.967669" lon="-4.369879">
        <ele>39.8</ele>
        <time>2020-08-13T08:38:46Z</time>
      </trkpt>
      <trkpt lat="47.967879" lon="-4.369943">
        <ele>39.8</ele>
        <time>2020-08-13T08:38:48Z</time>
      </trkpt>
      <trkpt lat="47.968076" lon="-4.369981">
        <ele>39.8</ele>
        <time>2020-08-13T08:38:49Z</time>
      </trkpt>
      <trkpt lat="47.968536" lon="-4.369987">
        <ele>33.2</ele>
        <time>2020-08-13T08:38:53Z</time>
      </trkpt>
      <trkpt lat="47.968774" lon="-4.370022">
        <ele>36.2</ele>
        <time>2020-08-13T08:38:55Z</time>
      </trkpt>
      <trkpt lat="47.968941" lon="-4.370083">
        <ele>36.2</ele>
        <time>2020-08-13T08:38:56Z</time>
      </trkpt>
      <trkpt lat="47.969096" lon="-4.370216">
        <ele>36.2</ele>
        <time>2020-08-13T08:38:57Z</time>
      </trkpt>
      <trkpt lat="47.969238" lon="-4.370384">
        <ele>28.0</ele>
        <time>2020-08-13T08:38:59Z</time>
      </trkpt>
      <trkpt lat="47.969341" lon="-4.370568">
        <ele>28.0</ele>
        <time>2020-08-13T08:39:00Z</time>
      </trkpt>
      <trkpt lat="47.969463" lon="-4.370939">
        <ele>31.6</ele>
        <time>2020-08-13T08:39:02Z</time>
      </trkpt>
      <trkpt lat="47.96966" lon="-4.371744">
        <ele>35.0</ele>
        <time>2020-08-13T08:39:07Z</time>
      </trkpt>
      <trkpt lat="47.96974" lon="-4.372174">
        <ele>35.0</ele>
        <time>2020-08-13T08:39:09Z</time>
      </trkpt>
      <trkpt lat="47.970075" lon="-4.374273">
        <ele>28.0</ele>
        <time>2020-08-13T08:39:20Z</time>
      </trkpt>
      <trkpt lat="47.970108" lon="-4.374684">
        <ele>28.0</ele>
        <time>2020-08-13T08:39:22Z</time>
      </trkpt>
      <trkpt lat="47.970135" lon="-4.377072">
        <ele>30.0</ele>
        <time>2020-08-13T08:39:34Z</time>
      </trkpt>
      <trkpt lat="47.970225" lon="-4.378777">
        <ele>29.0</ele>
        <time>2020-08-13T08:39:43Z</time>
      </trkpt>
      <trkpt lat="47.970212" lon="-4.379159">
        <ele>29.0</ele>
        <time>2020-08-13T08:39:45Z</time>
      </trkpt>
      <trkpt lat="47.970123" lon="-4.380072">
        <ele>26.0</ele>
        <time>2020-08-13T08:39:49Z</time>
      </trkpt>
      <trkpt lat="47.970091" lon="-4.38081">
        <ele>26.0</ele>
        <time>2020-08-13T08:39:53Z</time>
      </trkpt>
      <trkpt lat="47.970104" lon="-4.381295">
        <ele>24.0</ele>
        <time>2020-08-13T08:39:56Z</time>
      </trkpt>
      <trkpt lat="47.97015" lon="-4.381742">
        <ele>22.8</ele>
        <time>2020-08-13T08:39:58Z</time>
      </trkpt>
      <trkpt lat="47.970215" lon="-4.382179">
        <ele>22.8</ele>
        <time>2020-08-13T08:40:00Z</time>
      </trkpt>
      <trkpt lat="47.970298" lon="-4.38264">
        <ele>21.2</ele>
        <time>2020-08-13T08:40:03Z</time>
      </trkpt>
      <trkpt lat="47.97041" lon="-4.382993">
        <ele>21.2</ele>
        <time>2020-08-13T08:40:05Z</time>
      </trkpt>
      <trkpt lat="47.970748" lon="-4.383777">
        <ele>17.8</ele>
        <time>2020-08-13T08:40:09Z</time>
      </trkpt>
      <trkpt lat="47.970876" lon="-4.384134">
        <ele>22.6</ele>
        <time>2020-08-13T08:40:12Z</time>
      </trkpt>
      <trkpt lat="47.97138" lon="-4.386143">
        <ele>26.8</ele>
        <time>2020-08-13T08:40:23Z</time>
      </trkpt>
      <trkpt lat="47.971923" lon="-4.388649">
        <ele>38.8</ele>
        <time>2020-08-13T08:40:36Z</time>
      </trkpt>
      <trkpt lat="47.972056" lon="-4.389145">
        <ele>38.8</ele>
        <time>2020-08-13T08:40:39Z</time>
      </trkpt>
      <trkpt lat="47.972294" lon="-4.389745">
        <ele>40.6</ele>
        <time>2020-08-13T08:40:42Z</time>
      </trkpt>
      <trkpt lat="47.972596" lon="-4.390299">
        <ele>46.0</ele>
        <time>2020-08-13T08:40:46Z</time>
      </trkpt>
      <trkpt lat="47.973096" lon="-4.390864">
        <ele>46.6</ele>
        <time>2020-08-13T08:40:51Z</time>
      </trkpt>
      <trkpt lat="47.974353" lon="-4.392123">
        <ele>46.8</ele>
        <time>2020-08-13T08:41:02Z</time>
      </trkpt>
      <trkpt lat="47.976842" lon="-4.394557">
        <ele>49.0</ele>
        <time>2020-08-13T08:41:25Z</time>
      </trkpt>
      <trkpt lat="47.980364" lon="-4.397962">
        <ele>53.4</ele>
        <time>2020-08-13T08:41:57Z</time>
      </trkpt>
      <trkpt lat="47.981018" lon="-4.398768">
        <ele>55.4</ele>
        <time>2020-08-13T08:42:03Z</time>
      </trkpt>
      <trkpt lat="47.982806" lon="-4.401727">
        <ele>62.4</ele>
        <time>2020-08-13T08:42:23Z</time>
      </trkpt>
      <trkpt lat="47.982961" lon="-4.402006">
        <ele>62.4</ele>
        <time>2020-08-13T08:42:25Z</time>
      </trkpt>
      <trkpt lat="47.983271" lon="-4.402629">
        <ele>63.2</ele>
        <time>2020-08-13T08:42:29Z</time>
      </trkpt>
      <trkpt lat="47.983894" lon="-4.404013">
        <ele>66.4</ele>
        <time>2020-08-13T08:42:38Z</time>
      </trkpt>
      <trkpt lat="47.985216" lon="-4.407252">
        <ele>66.0</ele>
        <time>2020-08-13T08:42:57Z</time>
      </trkpt>
      <trkpt lat="47.985373" lon="-4.407938">
        <ele>65.2</ele>
        <time>2020-08-13T08:43:01Z</time>
      </trkpt>
      <trkpt lat="47.985395" lon="-4.408446">
        <ele>65.4</ele>
        <time>2020-08-13T08:43:03Z</time>
      </trkpt>
      <trkpt lat="47.985462" lon="-4.417468">
        <ele>70.2</ele>
        <time>2020-08-13T08:43:49Z</time>
      </trkpt>
      <trkpt lat="47.985502" lon="-4.419149">
        <ele>71.4</ele>
        <time>2020-08-13T08:43:58Z</time>
      </trkpt>
      <trkpt lat="47.9855" lon="-4.419787">
        <ele>70.8</ele>
        <time>2020-08-13T08:44:01Z</time>
      </trkpt>
      <trkpt lat="47.985529" lon="-4.419966">
        <ele>70.8</ele>
        <time>2020-08-13T08:44:02Z</time>
      </trkpt>
      <trkpt lat="47.985536" lon="-4.420461">
        <ele>70.8</ele>
        <time>2020-08-13T08:44:05Z</time>
      </trkpt>
      <trkpt lat="47.985519" lon="-4.420644">
        <ele>70.8</ele>
        <time>2020-08-13T08:44:05Z</time>
      </trkpt>
      <trkpt lat="47.985542" lon="-4.421686">
        <ele>69.2</ele>
        <time>2020-08-13T08:44:11Z</time>
      </trkpt>
      <trkpt lat="47.985566" lon="-4.424922">
        <ele>65.0</ele>
        <time>2020-08-13T08:44:27Z</time>
      </trkpt>
      <trkpt lat="47.985594" lon="-4.425088">
        <ele>65.8</ele>
        <time>2020-08-13T08:44:28Z</time>
      </trkpt>
      <trkpt lat="47.98564" lon="-4.425143">
        <ele>65.8</ele>
        <time>2020-08-13T08:44:29Z</time>
      </trkpt>
      <trkpt lat="47.985432" lon="-4.426088">
        <ele>67.4</ele>
        <time>2020-08-13T08:44:33Z</time>
      </trkpt>
      <trkpt lat="47.985423" lon="-4.426266">
        <ele>67.4</ele>
        <time>2020-08-13T08:44:34Z</time>
      </trkpt>
      <trkpt lat="47.985463" lon="-4.426392">
        <ele>67.4</ele>
        <time>2020-08-13T08:44:35Z</time>
      </trkpt>
      <trkpt lat="47.985506" lon="-4.426455">
        <ele>67.4</ele>
        <time>2020-08-13T08:44:35Z</time>
      </trkpt>
      <trkpt lat="47.985818" lon="-4.42664">
        <ele>67.4</ele>
        <time>2020-08-13T08:44:38Z</time>
      </trkpt>
      <trkpt lat="47.985966" lon="-4.426751">
        <ele>70.6</ele>
        <time>2020-08-13T08:44:39Z</time>
      </trkpt>
      <trkpt lat="47.986259" lon="-4.427007">
        <ele>70.6</ele>
        <time>2020-08-13T08:44:41Z</time>
      </trkpt>
      <trkpt lat="47.986911" lon="-4.427628">
        <ele>72.8</ele>
        <time>2020-08-13T08:44:46Z</time>
      </trkpt>
      <trkpt lat="47.989509" lon="-4.430631">
        <ele>73.8</ele>
        <time>2020-08-13T08:45:09Z</time>
      </trkpt>
      <trkpt lat="47.990089" lon="-4.431495">
        <ele>74.2</ele>
        <time>2020-08-13T08:45:15Z</time>
      </trkpt>
      <trkpt lat="47.992518" lon="-4.435288">
        <ele>75.0</ele>
        <time>2020-08-13T08:45:39Z</time>
      </trkpt>
      <trkpt lat="47.992817" lon="-4.435722">
        <ele>75.0</ele>
        <time>2020-08-13T08:45:42Z</time>
      </trkpt>
      <trkpt lat="47.993075" lon="-4.435931">
        <ele>73.4</ele>
        <time>2020-08-13T08:45:44Z</time>
      </trkpt>
      <trkpt lat="47.993445" lon="-4.436106">
        <ele>75.2</ele>
        <time>2020-08-13T08:45:47Z</time>
      </trkpt>
      <trkpt lat="47.995732" lon="-4.436415">
        <ele>72.6</ele>
        <time>2020-08-13T08:46:03Z</time>
      </trkpt>
      <trkpt lat="47.996032" lon="-4.436526">
        <ele>71.2</ele>
        <time>2020-08-13T08:46:05Z</time>
      </trkpt>
      <trkpt lat="47.996405" lon="-4.436743">
        <ele>70.8</ele>
        <time>2020-08-13T08:46:07Z</time>
      </trkpt>
      <trkpt lat="47.996588" lon="-4.436891">
        <ele>70.8</ele>
        <time>2020-08-13T08:46:09Z</time>
      </trkpt>
      <trkpt lat="47.996808" lon="-4.437116">
        <ele>70.4</ele>
        <time>2020-08-13T08:46:11Z</time>
      </trkpt>
      <trkpt lat="47.996998" lon="-4.437344">
        <ele>70.4</ele>
        <time>2020-08-13T08:46:12Z</time>
      </trkpt>
      <trkpt lat="47.997179" lon="-4.437603">
        <ele>70.0</ele>
        <time>2020-08-13T08:46:14Z</time>
      </trkpt>
      <trkpt lat="47.997465" lon="-4.438135">
        <ele>70.0</ele>
        <time>2020-08-13T08:46:17Z</time>
      </trkpt>
      <trkpt lat="47.999106" lon="-4.441874">
        <ele>76.2</ele>
        <time>2020-08-13T08:46:38Z</time>
      </trkpt>
      <trkpt lat="47.999296" lon="-4.442273">
        <ele>78.0</ele>
        <time>2020-08-13T08:46:40Z</time>
      </trkpt>
      <trkpt lat="47.999948" lon="-4.443491">
        <ele>80.6</ele>
        <time>2020-08-13T08:46:48Z</time>
      </trkpt>
      <trkpt lat="48.000323" lon="-4.444079">
        <ele>82.2</ele>
        <time>2020-08-13T08:46:51Z</time>
      </trkpt>
      <trkpt lat="48.000756" lon="-4.444709">
        <ele>82.2</ele>
        <time>2020-08-13T08:46:55Z</time>
      </trkpt>
      <trkpt lat="48.000981" lon="-4.445118">
        <ele>82.2</ele>
        <time>2020-08-13T08:46:58Z</time>
      </trkpt>
      <trkpt lat="48.003848" lon="-4.451394">
        <ele>71.0</ele>
        <time>2020-08-13T08:47:33Z</time>
      </trkpt>
      <trkpt lat="48.004108" lon="-4.451816">
        <ele>70.4</ele>
        <time>2020-08-13T08:47:36Z</time>
      </trkpt>
      <trkpt lat="48.007493" lon="-4.456795">
        <ele>66.2</ele>
        <time>2020-08-13T08:48:09Z</time>
      </trkpt>
      <trkpt lat="48.007639" lon="-4.457044">
        <ele>65.4</ele>
        <time>2020-08-13T08:48:10Z</time>
      </trkpt>
      <trkpt lat="48.007842" lon="-4.457485">
        <ele>65.4</ele>
        <time>2020-08-13T08:48:13Z</time>
      </trkpt>
      <trkpt lat="48.008376" lon="-4.45893">
        <ele>65.8</ele>
        <time>2020-08-13T08:48:20Z</time>
      </trkpt>
      <trkpt lat="48.008786" lon="-4.459858">
        <ele>67.2</ele>
        <time>2020-08-13T08:48:25Z</time>
      </trkpt>
      <trkpt lat="48.008911" lon="-4.459833">
        <ele>67.2</ele>
        <time>2020-08-13T08:48:26Z</time>
      </trkpt>
      <trkpt lat="48.008976" lon="-4.459871">
        <ele>67.2</ele>
        <time>2020-08-13T08:48:26Z</time>
      </trkpt>
      <trkpt lat="48.009042" lon="-4.459952">
        <ele>67.2</ele>
        <time>2020-08-13T08:48:27Z</time>
      </trkpt>
      <trkpt lat="48.009739" lon="-4.460902">
        <ele>70.8</ele>
        <time>2020-08-13T08:48:33Z</time>
      </trkpt>
      <trkpt lat="48.009972" lon="-4.461187">
        <ele>70.8</ele>
        <time>2020-08-13T08:48:35Z</time>
      </trkpt>
      <trkpt lat="48.010188" lon="-4.461401">
        <ele>71.4</ele>
        <time>2020-08-13T08:48:37Z</time>
      </trkpt>
      <trkpt lat="48.010485" lon="-4.461634">
        <ele>71.4</ele>
        <time>2020-08-13T08:48:39Z</time>
      </trkpt>
      <trkpt lat="48.010651" lon="-4.461729">
        <ele>74.6</ele>
        <time>2020-08-13T08:48:41Z</time>
      </trkpt>
      <trkpt lat="48.01124" lon="-4.461866">
        <ele>75.4</ele>
        <time>2020-08-13T08:48:45Z</time>
      </trkpt>
      <trkpt lat="48.012215" lon="-4.462011">
        <ele>75.4</ele>
        <time>2020-08-13T08:48:51Z</time>
      </trkpt>
      <trkpt lat="48.012448" lon="-4.462122">
        <ele>75.4</ele>
        <time>2020-08-13T08:48:53Z</time>
      </trkpt>
      <trkpt lat="48.012696" lon="-4.462329">
        <ele>74.8</ele>
        <time>2020-08-13T08:48:55Z</time>
      </trkpt>
      <trkpt lat="48.012863" lon="-4.462498">
        <ele>74.8</ele>
        <time>2020-08-13T08:48:56Z</time>
      </trkpt>
      <trkpt lat="48.01303" lon="-4.462719">
        <ele>77.0</ele>
        <time>2020-08-13T08:48:58Z</time>
      </trkpt>
      <trkpt lat="48.015854" lon="-4.466984">
        <ele>83.2</ele>
        <time>2020-08-13T08:49:25Z</time>
      </trkpt>
      <trkpt lat="48.01619" lon="-4.467389">
        <ele>83.2</ele>
        <time>2020-08-13T08:49:28Z</time>
      </trkpt>
      <trkpt lat="48.017811" lon="-4.469159">
        <ele>89.8</ele>
        <time>2020-08-13T08:49:42Z</time>
      </trkpt>
      <trkpt lat="48.018038" lon="-4.46938">
        <ele>90.2</ele>
        <time>2020-08-13T08:49:44Z</time>
      </trkpt>
      <trkpt lat="48.018233" lon="-4.469536">
        <ele>90.2</ele>
        <time>2020-08-13T08:49:46Z</time>
      </trkpt>
      <trkpt lat="48.019904" lon="-4.470585">
        <ele>94.0</ele>
        <time>2020-08-13T08:49:58Z</time>
      </trkpt>
      <trkpt lat="48.021343" lon="-4.471674">
        <ele>97.6</ele>
        <time>2020-08-13T08:50:09Z</time>
      </trkpt>
      <trkpt lat="48.021565" lon="-4.471875">
        <ele>97.6</ele>
        <time>2020-08-13T08:50:11Z</time>
      </trkpt>
      <trkpt lat="48.022655" lon="-4.473029">
        <ele>91.2</ele>
        <time>2020-08-13T08:50:20Z</time>
      </trkpt>
      <trkpt lat="48.024622" lon="-4.475178">
        <ele>85.8</ele>
        <time>2020-08-13T08:50:37Z</time>
      </trkpt>
      <trkpt lat="48.025195" lon="-4.475746">
        <ele>79.0</ele>
        <time>2020-08-13T08:50:41Z</time>
      </trkpt>
      <trkpt lat="48.025648" lon="-4.476087">
        <ele>83.2</ele>
        <time>2020-08-13T08:50:45Z</time>
      </trkpt>
      <trkpt lat="48.026038" lon="-4.476299">
        <ele>76.6</ele>
        <time>2020-08-13T08:50:48Z</time>
      </trkpt>
      <trkpt lat="48.026543" lon="-4.476442">
        <ele>76.6</ele>
        <time>2020-08-13T08:50:51Z</time>
      </trkpt>
      <trkpt lat="48.027534" lon="-4.47662">
        <ele>66.4</ele>
        <time>2020-08-13T08:50:58Z</time>
      </trkpt>
      <trkpt lat="48.02789" lon="-4.476772">
        <ele>69.2</ele>
        <time>2020-08-13T08:51:01Z</time>
      </trkpt>
      <trkpt lat="48.028083" lon="-4.47691">
        <ele>69.2</ele>
        <time>2020-08-13T08:51:02Z</time>
      </trkpt>
      <trkpt lat="48.029382" lon="-4.47811">
        <ele>62.4</ele>
        <time>2020-08-13T08:51:13Z</time>
      </trkpt>
      <trkpt lat="48.02963" lon="-4.47825">
        <ele>62.4</ele>
        <time>2020-08-13T08:51:14Z</time>
      </trkpt>
      <trkpt lat="48.030296" lon="-4.47857">
        <ele>60.2</ele>
        <time>2020-08-13T08:51:19Z</time>
      </trkpt>
      <trkpt lat="48.030531" lon="-4.478668">
        <ele>60.2</ele>
        <time>2020-08-13T08:51:21Z</time>
      </trkpt>
      <trkpt lat="48.030872" lon="-4.478705">
        <ele>57.8</ele>
        <time>2020-08-13T08:51:23Z</time>
      </trkpt>
      <trkpt lat="48.031679" lon="-4.478491">
        <ele>55.8</ele>
        <time>2020-08-13T08:51:29Z</time>
      </trkpt>
      <trkpt lat="48.031834" lon="-4.478488">
        <ele>55.8</ele>
        <time>2020-08-13T08:51:30Z</time>
      </trkpt>
      <trkpt lat="48.031931" lon="-4.478515">
        <ele>55.8</ele>
        <time>2020-08-13T08:51:31Z</time>
      </trkpt>
      <trkpt lat="48.032099" lon="-4.478619">
        <ele>55.8</ele>
        <time>2020-08-13T08:51:32Z</time>
      </trkpt>
      <trkpt lat="48.032257" lon="-4.478799">
        <ele>55.8</ele>
        <time>2020-08-13T08:51:33Z</time>
      </trkpt>
      <trkpt lat="48.03241" lon="-4.479065">
        <ele>55.8</ele>
        <time>2020-08-13T08:51:35Z</time>
      </trkpt>
      <trkpt lat="48.032796" lon="-4.479984">
        <ele>54.4</ele>
        <time>2020-08-13T08:51:40Z</time>
      </trkpt>
      <trkpt lat="48.033185" lon="-4.480697">
        <ele>57.0</ele>
        <time>2020-08-13T08:51:44Z</time>
      </trkpt>
      <trkpt lat="48.033376" lon="-4.480924">
        <ele>48.0</ele>
        <time>2020-08-13T08:51:46Z</time>
      </trkpt>
      <trkpt lat="48.034014" lon="-4.481379">
        <ele>48.0</ele>
        <time>2020-08-13T08:51:51Z</time>
      </trkpt>
      <trkpt lat="48.035152" lon="-4.482003">
        <ele>32.8</ele>
        <time>2020-08-13T08:51:59Z</time>
      </trkpt>
      <trkpt lat="48.035334" lon="-4.482043">
        <ele>32.8</ele>
        <time>2020-08-13T08:52:00Z</time>
      </trkpt>
      <trkpt lat="48.035486" lon="-4.481988">
        <ele>32.8</ele>
        <time>2020-08-13T08:52:01Z</time>
      </trkpt>
      <trkpt lat="48.035728" lon="-4.481806">
        <ele>32.8</ele>
        <time>2020-08-13T08:52:03Z</time>
      </trkpt>
      <trkpt lat="48.035948" lon="-4.481551">
        <ele>25.2</ele>
        <time>2020-08-13T08:52:05Z</time>
      </trkpt>
      <trkpt lat="48.036067" lon="-4.481442">
        <ele>25.2</ele>
        <time>2020-08-13T08:52:06Z</time>
      </trkpt>
      <trkpt lat="48.036131" lon="-4.481409">
        <ele>25.2</ele>
        <time>2020-08-13T08:52:07Z</time>
      </trkpt>
      <trkpt lat="48.036231" lon="-4.4814">
        <ele>25.2</ele>
        <time>2020-08-13T08:52:07Z</time>
      </trkpt>
      <trkpt lat="48.036418" lon="-4.481471">
        <ele>25.2</ele>
        <time>2020-08-13T08:52:09Z</time>
      </trkpt>
      <trkpt lat="48.036564" lon="-4.481627">
        <ele>25.2</ele>
        <time>2020-08-13T08:52:10Z</time>
      </trkpt>
      <trkpt lat="48.036635" lon="-4.481731">
        <ele>28.6</ele>
        <time>2020-08-13T08:52:11Z</time>
      </trkpt>
      <trkpt lat="48.036701" lon="-4.481872">
        <ele>22.6</ele>
        <time>2020-08-13T08:52:11Z</time>
      </trkpt>
      <trkpt lat="48.036771" lon="-4.482104">
        <ele>22.6</ele>
        <time>2020-08-13T08:52:13Z</time>
      </trkpt>
      <trkpt lat="48.036824" lon="-4.482345">
        <ele>22.6</ele>
        <time>2020-08-13T08:52:14Z</time>
      </trkpt>
      <trkpt lat="48.036842" lon="-4.482608">
        <ele>23.6</ele>
        <time>2020-08-13T08:52:15Z</time>
      </trkpt>
      <trkpt lat="48.036805" lon="-4.483564">
        <ele>23.6</ele>
        <time>2020-08-13T08:52:19Z</time>
      </trkpt>
      <trkpt lat="48.036813" lon="-4.484259">
        <ele>23.4</ele>
        <time>2020-08-13T08:52:23Z</time>
      </trkpt>
      <trkpt lat="48.036832" lon="-4.484401">
        <ele>23.4</ele>
        <time>2020-08-13T08:52:23Z</time>
      </trkpt>
      <trkpt lat="48.037063" lon="-4.485185">
        <ele>23.6</ele>
        <time>2020-08-13T08:52:27Z</time>
      </trkpt>
      <trkpt lat="48.037219" lon="-4.485485">
        <ele>23.6</ele>
        <time>2020-08-13T08:52:29Z</time>
      </trkpt>
      <trkpt lat="48.037322" lon="-4.485573">
        <ele>23.6</ele>
        <time>2020-08-13T08:52:30Z</time>
      </trkpt>
      <trkpt lat="48.037833" lon="-4.485844">
        <ele>15.8</ele>
        <time>2020-08-13T08:52:33Z</time>
      </trkpt>
      <trkpt lat="48.037951" lon="-4.485965">
        <ele>15.8</ele>
        <time>2020-08-13T08:52:34Z</time>
      </trkpt>
      <trkpt lat="48.038079" lon="-4.486134">
        <ele>15.8</ele>
        <time>2020-08-13T08:52:36Z</time>
      </trkpt>
      <trkpt lat="48.038128" lon="-4.486284">
        <ele>15.8</ele>
        <time>2020-08-13T08:52:36Z</time>
      </trkpt>
      <trkpt lat="48.038235" lon="-4.486504">
        <ele>15.8</ele>
        <time>2020-08-13T08:52:38Z</time>
      </trkpt>
      <trkpt lat="48.038888" lon="-4.487492">
        <ele>6.6</ele>
        <time>2020-08-13T08:52:44Z</time>
      </trkpt>
      <trkpt lat="48.039021" lon="-4.487621">
        <ele>6.0</ele>
        <time>2020-08-13T08:52:45Z</time>
      </trkpt>
      <trkpt lat="48.03928" lon="-4.487697">
        <ele>8.2</ele>
        <time>2020-08-13T08:52:47Z</time>
      </trkpt>
      <trkpt lat="48.039379" lon="-4.487824">
        <ele>8.2</ele>
        <time>2020-08-13T08:52:48Z</time>
      </trkpt>
      <trkpt lat="48.040423" lon="-4.49109">
        <ele>11.2</ele>
        <time>2020-08-13T08:53:04Z</time>
      </trkpt>
      <trkpt lat="48.040426" lon="-4.491207">
        <ele>11.2</ele>
        <time>2020-08-13T08:53:05Z</time>
      </trkpt>
      <trkpt lat="48.040343" lon="-4.491601">
        <ele>11.2</ele>
        <time>2020-08-13T08:53:07Z</time>
      </trkpt>
      <trkpt lat="48.040316" lon="-4.49183">
        <ele>9.2</ele>
        <time>2020-08-13T08:53:08Z</time>
      </trkpt>
      <trkpt lat="48.040239" lon="-4.49324">
        <ele>7.0</ele>
        <time>2020-08-13T08:53:14Z</time>
      </trkpt>
      <trkpt lat="48.040254" lon="-4.49349">
        <ele>6.2</ele>
        <time>2020-08-13T08:53:16Z</time>
      </trkpt>
      <trkpt lat="48.040575" lon="-4.495185">
        <ele>7.5</ele>
        <time>2020-08-13T08:53:24Z</time>
      </trkpt>
      <trkpt lat="48.040923" lon="-4.496789">
        <ele>14.6</ele>
        <time>2020-08-13T08:53:31Z</time>
      </trkpt>
      <trkpt lat="48.040961" lon="-4.496934">
        <ele>14.6</ele>
        <time>2020-08-13T08:53:32Z</time>
      </trkpt>
      <trkpt lat="48.040995" lon="-4.496978">
        <ele>14.6</ele>
        <time>2020-08-13T08:53:32Z</time>
      </trkpt>
      <trkpt lat="48.041075" lon="-4.497045">
        <ele>14.6</ele>
        <time>2020-08-13T08:53:33Z</time>
      </trkpt>
      <trkpt lat="48.041155" lon="-4.497075">
        <ele>14.6</ele>
        <time>2020-08-13T08:53:34Z</time>
      </trkpt>
      <trkpt lat="48.041118" lon="-4.497381">
        <ele>14.6</ele>
        <time>2020-08-13T08:53:35Z</time>
      </trkpt>
      <trkpt lat="48.041133" lon="-4.497676">
        <ele>14.4</ele>
        <time>2020-08-13T08:53:36Z</time>
      </trkpt>
      <trkpt lat="48.041295" lon="-4.498501">
        <ele>14.8</ele>
        <time>2020-08-13T08:53:39Z</time>
      </trkpt>
      <trkpt lat="48.041498" lon="-4.499668">
        <ele>16.0</ele>
        <time>2020-08-13T08:53:44Z</time>
      </trkpt>
      <trkpt lat="48.041662" lon="-4.500748">
        <ele>16.4</ele>
        <time>2020-08-13T08:53:47Z</time>
      </trkpt>
      <trkpt lat="48.04182" lon="-4.501967">
        <ele>20.6</ele>
        <time>2020-08-13T08:53:52Z</time>
      </trkpt>
      <trkpt lat="48.041856" lon="-4.502665">
        <ele>21.6</ele>
        <time>2020-08-13T08:53:54Z</time>
      </trkpt>
      <trkpt lat="48.041734" lon="-4.504158">
        <ele>21.8</ele>
        <time>2020-08-13T08:53:59Z</time>
      </trkpt>
      <trkpt lat="48.04172" lon="-4.504591">
        <ele>20.2</ele>
        <time>2020-08-13T08:54:01Z</time>
      </trkpt>
      <trkpt lat="48.041735" lon="-4.505017">
        <ele>18.0</ele>
        <time>2020-08-13T08:54:02Z</time>
      </trkpt>
      <trkpt lat="48.041817" lon="-4.505794">
        <ele>18.0</ele>
        <time>2020-08-13T08:54:05Z</time>
      </trkpt>
      <trkpt lat="48.041925" lon="-4.506336">
        <ele>13.8</ele>
        <time>2020-08-13T08:54:07Z</time>
      </trkpt>
      <trkpt lat="48.042386" lon="-4.508001">
        <ele>5.2</ele>
        <time>2020-08-13T08:54:13Z</time>
      </trkpt>
      <trkpt lat="48.042433" lon="-4.508201">
        <ele>5.2</ele>
        <time>2020-08-13T08:54:14Z</time>
      </trkpt>
      <trkpt lat="48.042466" lon="-4.50854">
        <ele>2.8</ele>
        <time>2020-08-13T08:54:15Z</time>
      </trkpt>
      <trkpt lat="48.042476" lon="-4.508747">
        <ele>2.8</ele>
        <time>2020-08-13T08:54:16Z</time>
      </trkpt>
      <trkpt lat="48.042438" lon="-4.510877">
        <ele>4.8</ele>
        <time>2020-08-13T08:54:23Z</time>
      </trkpt>
      <trkpt lat="48.042401" lon="-4.511189">
        <ele>4.8</ele>
        <time>2020-08-13T08:54:24Z</time>
      </trkpt>
      <trkpt lat="48.042267" lon="-4.511616">
        <ele>4.8</ele>
        <time>2020-08-13T08:54:26Z</time>
      </trkpt>
      <trkpt lat="48.041928" lon="-4.512185">
        <ele>8.6</ele>
        <time>2020-08-13T08:54:28Z</time>
      </trkpt>
      <trkpt lat="48.041838" lon="-4.512371">
        <ele>8.6</ele>
        <time>2020-08-13T08:54:29Z</time>
      </trkpt>
      <trkpt lat="48.041809" lon="-4.512479">
        <ele>8.6</ele>
        <time>2020-08-13T08:54:30Z</time>
      </trkpt>
      <trkpt lat="48.04173" lon="-4.512916">
        <ele>12.2</ele>
        <time>2020-08-13T08:54:31Z</time>
      </trkpt>
      <trkpt lat="48.04167" lon="-4.513433">
        <ele>14.6</ele>
        <time>2020-08-13T08:54:33Z</time>
      </trkpt>
      <trkpt lat="48.041618" lon="-4.514561">
        <ele>17.0</ele>
        <time>2020-08-13T08:54:37Z</time>
      </trkpt>
      <trkpt lat="48.041618" lon="-4.514856">
        <ele>17.0</ele>
        <time>2020-08-13T08:54:38Z</time>
      </trkpt>
      <trkpt lat="48.04175" lon="-4.516139">
        <ele>13.4</ele>
        <time>2020-08-13T08:54:42Z</time>
      </trkpt>
      <trkpt lat="48.042258" lon="-4.519256">
        <ele>4.8</ele>
        <time>2020-08-13T08:54:53Z</time>
      </trkpt>
      <trkpt lat="48.042581" lon="-4.52105">
        <ele>3.8</ele>
        <time>2020-08-13T08:55:00Z</time>
      </trkpt>
      <trkpt lat="48.042624" lon="-4.521464">
        <ele>3.8</ele>
        <time>2020-08-13T08:55:01Z</time>
      </trkpt>
      <trkpt lat="48.042558" lon="-4.521766">
        <ele>4.6</ele>
        <time>2020-08-13T08:55:02Z</time>
      </trkpt>
      <trkpt lat="48.042434" lon="-4.522096">
        <ele>3.6</ele>
        <time>2020-08-13T08:55:04Z</time>
      </trkpt>
      <trkpt lat="48.041928" lon="-4.523041">
        <ele>7.4</ele>
        <time>2020-08-13T08:55:08Z</time>
      </trkpt>
      <trkpt lat="48.041345" lon="-4.524109">
        <ele>9.0</ele>
        <time>2020-08-13T08:55:12Z</time>
      </trkpt>
      <trkpt lat="48.040596" lon="-4.525218">
        <ele>13.8</ele>
        <time>2020-08-13T08:55:18Z</time>
      </trkpt>
      <trkpt lat="48.040773" lon="-4.525392">
        <ele>13.8</ele>
        <time>2020-08-13T08:55:19Z</time>
      </trkpt>
      <trkpt lat="48.040989" lon="-4.525569">
        <ele>16.8</ele>
        <time>2020-08-13T08:55:20Z</time>
      </trkpt>
      <trkpt lat="48.042106" lon="-4.526369">
        <ele>21.4</ele>
        <time>2020-08-13T08:55:27Z</time>
      </trkpt>
      <trkpt lat="48.042312" lon="-4.526577">
        <ele>21.4</ele>
        <time>2020-08-13T08:55:28Z</time>
      </trkpt>
      <trkpt lat="48.042556" lon="-4.527004">
        <ele>29.8</ele>
        <time>2020-08-13T08:55:30Z</time>
      </trkpt>
      <trkpt lat="48.042983" lon="-4.52833">
        <ele>31.4</ele>
        <time>2020-08-13T08:55:35Z</time>
      </trkpt>
      <trkpt lat="48.043137" lon="-4.528722">
        <ele>30.8</ele>
        <time>2020-08-13T08:55:37Z</time>
      </trkpt>
      <trkpt lat="48.043487" lon="-4.529235">
        <ele>37.2</ele>
        <time>2020-08-13T08:55:39Z</time>
      </trkpt>
      <trkpt lat="48.043766" lon="-4.529572">
        <ele>37.2</ele>
        <time>2020-08-13T08:55:41Z</time>
      </trkpt>
      <trkpt lat="48.045058" lon="-4.531015">
        <ele>54.6</ele>
        <time>2020-08-13T08:55:49Z</time>
      </trkpt>
      <trkpt lat="48.045262" lon="-4.531264">
        <ele>54.6</ele>
        <time>2020-08-13T08:55:51Z</time>
      </trkpt>
      <trkpt lat="48.045409" lon="-4.531502">
        <ele>54.6</ele>
        <time>2020-08-13T08:55:52Z</time>
      </trkpt>
      <trkpt lat="48.045769" lon="-4.53216">
        <ele>56.0</ele>
        <time>2020-08-13T08:55:55Z</time>
      </trkpt>
      <trkpt lat="48.046411" lon="-4.533585">
        <ele>62.8</ele>
        <time>2020-08-13T08:56:00Z</time>
      </trkpt>
      <trkpt lat="48.046812" lon="-4.534632">
        <ele>66.6</ele>
        <time>2020-08-13T08:56:05Z</time>
      </trkpt>
      <trkpt lat="48.046887" lon="-4.53479">
        <ele>66.6</ele>
        <time>2020-08-13T08:56:05Z</time>
      </trkpt>
      <trkpt lat="48.047302" lon="-4.535479">
        <ele>66.4</ele>
        <time>2020-08-13T08:56:08Z</time>
      </trkpt>
      <trkpt lat="48.047743" lon="-4.536075">
        <ele>68.6</ele>
        <time>2020-08-13T08:56:11Z</time>
      </trkpt>
      <trkpt lat="48.047962" lon="-4.536407">
        <ele>68.6</ele>
        <time>2020-08-13T08:56:13Z</time>
      </trkpt>
      <trkpt lat="48.048142" lon="-4.536784">
        <ele>68.6</ele>
        <time>2020-08-13T08:56:15Z</time>
      </trkpt>
      <trkpt lat="48.048542" lon="-4.537788">
        <ele>69.2</ele>
        <time>2020-08-13T08:56:19Z</time>
      </trkpt>
      <trkpt lat="48.04968" lon="-4.540827">
        <ele>66.6</ele>
        <time>2020-08-13T08:56:31Z</time>
      </trkpt>
      <trkpt lat="48.050152" lon="-4.541842">
        <ele>66.0</ele>
        <time>2020-08-13T08:56:35Z</time>
      </trkpt>
      <trkpt lat="48.050615" lon="-4.542909">
        <ele>65.4</ele>
        <time>2020-08-13T08:56:39Z</time>
      </trkpt>
      <trkpt lat="48.051054" lon="-4.544032">
        <ele>68.8</ele>
        <time>2020-08-13T08:56:44Z</time>
      </trkpt>
      <trkpt lat="48.051232" lon="-4.54456">
        <ele>69.8</ele>
        <time>2020-08-13T08:56:46Z</time>
      </trkpt>
      <trkpt lat="48.051389" lon="-4.545354">
        <ele>71.2</ele>
        <time>2020-08-13T08:56:48Z</time>
      </trkpt>
      <trkpt lat="48.051411" lon="-4.545943">
        <ele>71.8</ele>
        <time>2020-08-13T08:56:50Z</time>
      </trkpt>
      <trkpt lat="48.051719" lon="-4.550758">
        <ele>74.0</ele>
        <time>2020-08-13T08:57:07Z</time>
      </trkpt>
      <trkpt lat="48.051814" lon="-4.551936">
        <ele>74.2</ele>
        <time>2020-08-13T08:57:11Z</time>
      </trkpt>
      <trkpt lat="48.051797" lon="-4.5524">
        <ele>74.2</ele>
        <time>2020-08-13T08:57:13Z</time>
      </trkpt>
      <trkpt lat="48.051814" lon="-4.552884">
        <ele>74.0</ele>
        <time>2020-08-13T08:57:14Z</time>
      </trkpt>
      <trkpt lat="48.051791" lon="-4.553305">
        <ele>74.0</ele>
        <time>2020-08-13T08:57:16Z</time>
      </trkpt>
      <trkpt lat="48.051732" lon="-4.553682">
        <ele>74.4</ele>
        <time>2020-08-13T08:57:17Z</time>
      </trkpt>
      <trkpt lat="48.051687" lon="-4.553877">
        <ele>74.4</ele>
        <time>2020-08-13T08:57:18Z</time>
      </trkpt>
      <trkpt lat="48.05147" lon="-4.554538">
        <ele>71.0</ele>
        <time>2020-08-13T08:57:20Z</time>
      </trkpt>
      <trkpt lat="48.051183" lon="-4.555074">
        <ele>71.6</ele>
        <time>2020-08-13T08:57:23Z</time>
      </trkpt>
      <trkpt lat="48.050828" lon="-4.555586">
        <ele>69.8</ele>
        <time>2020-08-13T08:57:25Z</time>
      </trkpt>
      <trkpt lat="48.050511" lon="-4.555969">
        <ele>71.0</ele>
        <time>2020-08-13T08:57:28Z</time>
      </trkpt>
      <trkpt lat="48.050096" lon="-4.556353">
        <ele>71.0</ele>
        <time>2020-08-13T08:57:30Z</time>
      </trkpt>
      <trkpt lat="48.049836" lon="-4.556513">
        <ele>69.6</ele>
        <time>2020-08-13T08:57:32Z</time>
      </trkpt>
      <trkpt lat="48.04871" lon="-4.55699">
        <ele>66.8</ele>
        <time>2020-08-13T08:57:38Z</time>
      </trkpt>
      <trkpt lat="48.047936" lon="-4.557366">
        <ele>64.2</ele>
        <time>2020-08-13T08:57:43Z</time>
      </trkpt>
      <trkpt lat="48.047392" lon="-4.557686">
        <ele>65.0</ele>
        <time>2020-08-13T08:57:46Z</time>
      </trkpt>
      <trkpt lat="48.046319" lon="-4.558409">
        <ele>63.8</ele>
        <time>2020-08-13T08:57:52Z</time>
      </trkpt>
      <trkpt lat="48.04611" lon="-4.5585">
        <ele>63.8</ele>
        <time>2020-08-13T08:57:54Z</time>
      </trkpt>
      <trkpt lat="48.045902" lon="-4.558563">
        <ele>63.8</ele>
        <time>2020-08-13T08:57:55Z</time>
      </trkpt>
      <trkpt lat="48.04556" lon="-4.558621">
        <ele>61.2</ele>
        <time>2020-08-13T08:57:57Z</time>
      </trkpt>
      <trkpt lat="48.044364" lon="-4.558644">
        <ele>58.0</ele>
        <time>2020-08-13T08:58:03Z</time>
      </trkpt>
      <trkpt lat="48.043859" lon="-4.558721">
        <ele>55.6</ele>
        <time>2020-08-13T08:58:06Z</time>
      </trkpt>
      <trkpt lat="48.043616" lon="-4.558795">
        <ele>55.6</ele>
        <time>2020-08-13T08:58:07Z</time>
      </trkpt>
      <trkpt lat="48.042578" lon="-4.559223">
        <ele>57.0</ele>
        <time>2020-08-13T08:58:13Z</time>
      </trkpt>
      <trkpt lat="48.042199" lon="-4.559332">
        <ele>57.6</ele>
        <time>2020-08-13T08:58:16Z</time>
      </trkpt>
      <trkpt lat="48.041949" lon="-4.559354">
        <ele>57.6</ele>
        <time>2020-08-13T08:58:17Z</time>
      </trkpt>
      <trkpt lat="48.040863" lon="-4.559225">
        <ele>57.6</ele>
        <time>2020-08-13T08:58:23Z</time>
      </trkpt>
      <trkpt lat="48.04068" lon="-4.559237">
        <ele>57.8</ele>
        <time>2020-08-13T08:58:24Z</time>
      </trkpt>
      <trkpt lat="48.039165" lon="-4.559776">
        <ele>56.4</ele>
        <time>2020-08-13T08:58:32Z</time>
      </trkpt>
      <trkpt lat="48.038555" lon="-4.559826">
        <ele>56.4</ele>
        <time>2020-08-13T08:58:36Z</time>
      </trkpt>
      <trkpt lat="48.03798" lon="-4.559821">
        <ele>55.2</ele>
        <time>2020-08-13T08:58:39Z</time>
      </trkpt>
      <trkpt lat="48.03761" lon="-4.559861">
        <ele>55.2</ele>
        <time>2020-08-13T08:58:41Z</time>
      </trkpt>
      <trkpt lat="48.037176" lon="-4.560034">
        <ele>53.6</ele>
        <time>2020-08-13T08:58:43Z</time>
      </trkpt>
      <trkpt lat="48.035788" lon="-4.560528">
        <ele>58.2</ele>
        <time>2020-08-13T08:58:51Z</time>
      </trkpt>
      <trkpt lat="48.035296" lon="-4.560549">
        <ele>58.2</ele>
        <time>2020-08-13T08:58:54Z</time>
      </trkpt>
      <trkpt lat="48.034984" lon="-4.560524">
        <ele>62.0</ele>
        <time>2020-08-13T08:58:56Z</time>
      </trkpt>
      <trkpt lat="48.0347" lon="-4.56042">
        <ele>62.0</ele>
        <time>2020-08-13T08:58:57Z</time>
      </trkpt>
      <trkpt lat="48.034481" lon="-4.561496">
        <ele>62.8</ele>
        <time>2020-08-13T08:59:06Z</time>
      </trkpt>
      <trkpt lat="48.034372" lon="-4.56193">
        <ele>63.4</ele>
        <time>2020-08-13T08:59:10Z</time>
      </trkpt>
      <trkpt lat="48.034315" lon="-4.562096">
        <ele>63.4</ele>
        <time>2020-08-13T08:59:11Z</time>
      </trkpt>
      <trkpt lat="48.034236" lon="-4.562266">
        <ele>63.4</ele>
        <time>2020-08-13T08:59:13Z</time>
      </trkpt>
      <trkpt lat="48.033928" lon="-4.562719">
        <ele>66.6</ele>
        <time>2020-08-13T08:59:18Z</time>
      </trkpt>
      <trkpt lat="48.033741" lon="-4.563104">
        <ele>66.6</ele>
        <time>2020-08-13T08:59:21Z</time>
      </trkpt>
      <trkpt lat="48.033609" lon="-4.563329">
        <ele>66.6</ele>
        <time>2020-08-13T08:59:24Z</time>
      </trkpt>
      <trkpt lat="48.032925" lon="-4.564867">
        <ele>68.0</ele>
        <time>2020-08-13T08:59:38Z</time>
      </trkpt>
      <trkpt lat="48.032875" lon="-4.565051">
        <ele>68.0</ele>
        <time>2020-08-13T08:59:39Z</time>
      </trkpt>
      <trkpt lat="48.032736" lon="-4.56519">
        <ele>68.0</ele>
        <time>2020-08-13T08:59:42Z</time>
      </trkpt>
      <trkpt lat="48.032882" lon="-4.567005">
        <ele>67.8</ele>
        <time>2020-08-13T08:59:51Z</time>
      </trkpt>
      <trkpt lat="48.032919" lon="-4.567947">
        <ele>66.4</ele>
        <time>2020-08-13T08:59:55Z</time>
      </trkpt>
      <trkpt lat="48.032806" lon="-4.571045">
        <ele>62.6</ele>
        <time>2020-08-13T09:00:10Z</time>
      </trkpt>
      <trkpt lat="48.032727" lon="-4.572125">
        <ele>61.8</ele>
        <time>2020-08-13T09:00:15Z</time>
      </trkpt>
      <trkpt lat="48.03269" lon="-4.572374">
        <ele>61.8</ele>
        <time>2020-08-13T09:00:16Z</time>
      </trkpt>
      <trkpt lat="48.032621" lon="-4.572741">
        <ele>61.4</ele>
        <time>2020-08-13T09:00:18Z</time>
      </trkpt>
      <trkpt lat="48.032427" lon="-4.5736">
        <ele>57.2</ele>
        <time>2020-08-13T09:00:22Z</time>
      </trkpt>
      <trkpt lat="48.032273" lon="-4.574207">
        <ele>56.8</ele>
        <time>2020-08-13T09:00:25Z</time>
      </trkpt>
      <trkpt lat="48.031814" lon="-4.575821">
        <ele>55.6</ele>
        <time>2020-08-13T09:00:33Z</time>
      </trkpt>
      <trkpt lat="48.031754" lon="-4.576119">
        <ele>54.8</ele>
        <time>2020-08-13T09:00:35Z</time>
      </trkpt>
      <trkpt lat="48.031151" lon="-4.579769">
        <ele>51.2</ele>
        <time>2020-08-13T09:00:52Z</time>
      </trkpt>
      <trkpt lat="48.031058" lon="-4.580144">
        <ele>52.4</ele>
        <time>2020-08-13T09:00:54Z</time>
      </trkpt>
      <trkpt lat="48.030412" lon="-4.581804">
        <ele>53.2</ele>
        <time>2020-08-13T09:01:03Z</time>
      </trkpt>
      <trkpt lat="48.030345" lon="-4.582028">
        <ele>53.2</ele>
        <time>2020-08-13T09:01:04Z</time>
      </trkpt>
      <trkpt lat="48.02954" lon="-4.585522">
        <ele>49.0</ele>
        <time>2020-08-13T09:01:22Z</time>
      </trkpt>
      <trkpt lat="48.029397" lon="-4.586203">
        <ele>47.6</ele>
        <time>2020-08-13T09:01:25Z</time>
      </trkpt>
      <trkpt lat="48.029357" lon="-4.586622">
        <ele>47.6</ele>
        <time>2020-08-13T09:01:27Z</time>
      </trkpt>
      <trkpt lat="48.029321" lon="-4.589269">
        <ele>46.6</ele>
        <time>2020-08-13T09:01:39Z</time>
      </trkpt>
      <trkpt lat="48.029339" lon="-4.589575">
        <ele>46.6</ele>
        <time>2020-08-13T09:01:41Z</time>
      </trkpt>
      <trkpt lat="48.029407" lon="-4.590037">
        <ele>46.4</ele>
        <time>2020-08-13T09:01:43Z</time>
      </trkpt>
      <trkpt lat="48.029487" lon="-4.590358">
        <ele>46.4</ele>
        <time>2020-08-13T09:01:45Z</time>
      </trkpt>
      <trkpt lat="48.02967" lon="-4.59093">
        <ele>45.6</ele>
        <time>2020-08-13T09:01:48Z</time>
      </trkpt>
      <trkpt lat="48.03023" lon="-4.59237">
        <ele>46.0</ele>
        <time>2020-08-13T09:01:56Z</time>
      </trkpt>
      <trkpt lat="48.03072" lon="-4.593684">
        <ele>45.0</ele>
        <time>2020-08-13T09:02:03Z</time>
      </trkpt>
      <trkpt lat="48.030801" lon="-4.593953">
        <ele>45.0</ele>
        <time>2020-08-13T09:02:04Z</time>
      </trkpt>
      <trkpt lat="48.03085" lon="-4.594174">
        <ele>47.2</ele>
        <time>2020-08-13T09:02:05Z</time>
      </trkpt>
      <trkpt lat="48.030882" lon="-4.594443">
        <ele>47.2</ele>
        <time>2020-08-13T09:02:06Z</time>
      </trkpt>
      <trkpt lat="48.030876" lon="-4.594727">
        <ele>47.2</ele>
        <time>2020-08-13T09:02:08Z</time>
      </trkpt>
      <trkpt lat="48.030847" lon="-4.595014">
        <ele>48.2</ele>
        <time>2020-08-13T09:02:09Z</time>
      </trkpt>
      <trkpt lat="48.030793" lon="-4.595285">
        <ele>46.8</ele>
        <time>2020-08-13T09:02:10Z</time>
      </trkpt>
      <trkpt lat="48.02949" lon="-4.598553">
        <ele>48.8</ele>
        <time>2020-08-13T09:02:28Z</time>
      </trkpt>
      <trkpt lat="48.029298" lon="-4.599093">
        <ele>48.8</ele>
        <time>2020-08-13T09:02:31Z</time>
      </trkpt>
      <trkpt lat="48.029178" lon="-4.600662">
        <ele>49.0</ele>
        <time>2020-08-13T09:02:39Z</time>
      </trkpt>
      <trkpt lat="48.029173" lon="-4.600913">
        <ele>49.0</ele>
        <time>2020-08-13T09:02:40Z</time>
      </trkpt>
      <trkpt lat="48.02919" lon="-4.602688">
        <ele>48.8</ele>
        <time>2020-08-13T09:02:48Z</time>
      </trkpt>
      <trkpt lat="48.029225" lon="-4.603894">
        <ele>47.8</ele>
        <time>2020-08-13T09:02:54Z</time>
      </trkpt>
      <trkpt lat="48.029204" lon="-4.60415">
        <ele>47.8</ele>
        <time>2020-08-13T09:02:55Z</time>
      </trkpt>
      <trkpt lat="48.029121" lon="-4.604776">
        <ele>46.4</ele>
        <time>2020-08-13T09:02:58Z</time>
      </trkpt>
      <trkpt lat="48.029005" lon="-4.60476">
        <ele>46.4</ele>
        <time>2020-08-13T09:03:00Z</time>
      </trkpt>
      <trkpt lat="48.02871" lon="-4.604632">
        <ele>46.4</ele>
        <time>2020-08-13T09:03:04Z</time>
      </trkpt>
      <trkpt lat="48.028533" lon="-4.604512">
        <ele>46.4</ele>
        <time>2020-08-13T09:03:07Z</time>
      </trkpt>
      <trkpt lat="48.027847" lon="-4.603962">
        <ele>48.0</ele>
        <time>2020-08-13T09:03:18Z</time>
      </trkpt>
      <trkpt lat="48.027737" lon="-4.603911">
        <ele>48.0</ele>
        <time>2020-08-13T09:03:20Z</time>
      </trkpt>
      <trkpt lat="48.027374" lon="-4.60385">
        <ele>46.0</ele>
        <time>2020-08-13T09:03:25Z</time>
      </trkpt>
      <trkpt lat="48.027306" lon="-4.603874">
        <ele>46.0</ele>
        <time>2020-08-13T09:03:26Z</time>
      </trkpt>
      <trkpt lat="48.027014" lon="-4.604081">
        <ele>46.0</ele>
        <time>2020-08-13T09:03:31Z</time>
      </trkpt>
      <trkpt lat="48.026703" lon="-4.60443">
        <ele>45.8</ele>
        <time>2020-08-13T09:03:36Z</time>
      </trkpt>
      <trkpt lat="48.026591" lon="-4.604484">
        <ele>42.6</ele>
        <time>2020-08-13T09:03:38Z</time>
      </trkpt>
      <trkpt lat="48.02604" lon="-4.604363">
        <ele>42.6</ele>
        <time>2020-08-13T09:03:46Z</time>
      </trkpt>
      <trkpt lat="48.025652" lon="-4.604177">
        <ele>37.4</ele>
        <time>2020-08-13T09:03:52Z</time>
      </trkpt>
      <trkpt lat="48.02542" lon="-4.603902">
        <ele>37.7</ele>
        <time>2020-08-13T09:03:56Z</time>
      </trkpt>
      <trkpt lat="48.02542" lon="-4.603902">
        <ele>37.7</ele>
        <time>2020-08-13T09:03:56Z</time>
      </trkpt>
      <trkpt lat="48.025652" lon="-4.604177">
        <ele>37.4</ele>
        <time>2020-08-13T09:04:00Z</time>
      </trkpt>
      <trkpt lat="48.02604" lon="-4.604363">
        <ele>42.6</ele>
        <time>2020-08-13T09:04:06Z</time>
      </trkpt>
      <trkpt lat="48.026591" lon="-4.604484">
        <ele>42.6</ele>
        <time>2020-08-13T09:04:14Z</time>
      </trkpt>
      <trkpt lat="48.026703" lon="-4.60443">
        <ele>45.8</ele>
        <time>2020-08-13T09:04:16Z</time>
      </trkpt>
      <trkpt lat="48.027014" lon="-4.604081">
        <ele>46.0</ele>
        <time>2020-08-13T09:04:21Z</time>
      </trkpt>
      <trkpt lat="48.027306" lon="-4.603874">
        <ele>46.0</ele>
        <time>2020-08-13T09:04:26Z</time>
      </trkpt>
      <trkpt lat="48.027374" lon="-4.60385">
        <ele>46.0</ele>
        <time>2020-08-13T09:04:27Z</time>
      </trkpt>
      <trkpt lat="48.027737" lon="-4.603911">
        <ele>48.0</ele>
        <time>2020-08-13T09:04:32Z</time>
      </trkpt>
      <trkpt lat="48.027847" lon="-4.603962">
        <ele>48.0</ele>
        <time>2020-08-13T09:04:34Z</time>
      </trkpt>
      <trkpt lat="48.028533" lon="-4.604512">
        <ele>46.4</ele>
        <time>2020-08-13T09:04:45Z</time>
      </trkpt>
      <trkpt lat="48.02871" lon="-4.604632">
        <ele>46.4</ele>
        <time>2020-08-13T09:04:48Z</time>
      </trkpt>
      <trkpt lat="48.029005" lon="-4.60476">
        <ele>46.4</ele>
        <time>2020-08-13T09:04:52Z</time>
      </trkpt>
      <trkpt lat="48.029121" lon="-4.604776">
        <ele>46.4</ele>
        <time>2020-08-13T09:04:54Z</time>
      </trkpt>
      <trkpt lat="48.028965" lon="-4.605891">
        <ele>45.0</ele>
        <time>2020-08-13T09:05:01Z</time>
      </trkpt>
      <trkpt lat="48.028937" lon="-4.606329">
        <ele>45.0</ele>
        <time>2020-08-13T09:05:04Z</time>
      </trkpt>
      <trkpt lat="48.028868" lon="-4.6084">
        <ele>46.4</ele>
        <time>2020-08-13T09:05:17Z</time>
      </trkpt>
      <trkpt lat="48.028878" lon="-4.6089">
        <ele>46.4</ele>
        <time>2020-08-13T09:05:20Z</time>
      </trkpt>
      <trkpt lat="48.029032" lon="-4.609656">
        <ele>45.2</ele>
        <time>2020-08-13T09:05:25Z</time>
      </trkpt>
      <trkpt lat="48.029374" lon="-4.611016">
        <ele>45.8</ele>
        <time>2020-08-13T09:05:34Z</time>
      </trkpt>
      <trkpt lat="48.029851" lon="-4.612223">
        <ele>45.0</ele>
        <time>2020-08-13T09:05:43Z</time>
      </trkpt>
      <trkpt lat="48.02993" lon="-4.612495">
        <ele>45.0</ele>
        <time>2020-08-13T09:05:44Z</time>
      </trkpt>
      <trkpt lat="48.030163" lon="-4.614641">
        <ele>44.6</ele>
        <time>2020-08-13T09:05:58Z</time>
      </trkpt>
      <trkpt lat="48.030236" lon="-4.616056">
        <ele>40.4</ele>
        <time>2020-08-13T09:06:07Z</time>
      </trkpt>
      <trkpt lat="48.030238" lon="-4.616487">
        <ele>40.4</ele>
        <time>2020-08-13T09:06:10Z</time>
      </trkpt>
      <trkpt lat="48.030223" lon="-4.616843">
        <ele>38.2</ele>
        <time>2020-08-13T09:06:12Z</time>
      </trkpt>
      <trkpt lat="48.030102" lon="-4.618386">
        <ele>34.4</ele>
        <time>2020-08-13T09:06:22Z</time>
      </trkpt>
      <trkpt lat="48.029941" lon="-4.6196">
        <ele>29.2</ele>
        <time>2020-08-13T09:06:29Z</time>
      </trkpt>
      <trkpt lat="48.02963" lon="-4.621368">
        <ele>28.2</ele>
        <time>2020-08-13T09:06:41Z</time>
      </trkpt>
      <trkpt lat="48.02959" lon="-4.621781">
        <ele>27.4</ele>
        <time>2020-08-13T09:06:43Z</time>
      </trkpt>
      <trkpt lat="48.029515" lon="-4.623056">
        <ele>25.6</ele>
        <time>2020-08-13T09:06:51Z</time>
      </trkpt>
      <trkpt lat="48.029327" lon="-4.62451">
        <ele>21.2</ele>
        <time>2020-08-13T09:07:01Z</time>
      </trkpt>
      <trkpt lat="48.029253" lon="-4.624943">
        <ele>21.2</ele>
        <time>2020-08-13T09:07:03Z</time>
      </trkpt>
      <trkpt lat="48.028954" lon="-4.62636">
        <ele>13.6</ele>
        <time>2020-08-13T09:07:13Z</time>
      </trkpt>
      <trkpt lat="48.0289" lon="-4.626791">
        <ele>11.4</ele>
        <time>2020-08-13T09:07:15Z</time>
      </trkpt>
      <trkpt lat="48.028891" lon="-4.627447">
        <ele>11.4</ele>
        <time>2020-08-13T09:07:19Z</time>
      </trkpt>
      <trkpt lat="48.028962" lon="-4.628114">
        <ele>9.6</ele>
        <time>2020-08-13T09:07:24Z</time>
      </trkpt>
      <trkpt lat="48.029191" lon="-4.62945">
        <ele>7.2</ele>
        <time>2020-08-13T09:07:32Z</time>
      </trkpt>
      <trkpt lat="48.029395" lon="-4.630766">
        <ele>5.4</ele>
        <time>2020-08-13T09:07:41Z</time>
      </trkpt>
      <trkpt lat="48.029654" lon="-4.632867">
        <ele>0.0</ele>
        <time>2020-08-13T09:07:54Z</time>
      </trkpt>
      <trkpt lat="48.029693" lon="-4.633298">
        <ele>0.0</ele>
        <time>2020-08-13T09:07:57Z</time>
      </trkpt>
      <trkpt lat="48.029703" lon="-4.633696">
        <ele>5.33</ele>
        <time>2020-08-13T09:07:59Z</time>
      </trkpt>
      <trkpt lat="48.029685" lon="-4.634228">
        <ele>7.75</ele>
        <time>2020-08-13T09:08:03Z</time>
      </trkpt>
      <trkpt lat="48.029633" lon="-4.634689">
        <ele>7.75</ele>
        <time>2020-08-13T09:08:06Z</time>
      </trkpt>
      <trkpt lat="48.029408" lon="-4.636213">
        <ele>12.4</ele>
        <time>2020-08-13T09:08:15Z</time>
      </trkpt>
      <trkpt lat="48.029409" lon="-4.636667">
        <ele>16.2</ele>
        <time>2020-08-13T09:08:18Z</time>
      </trkpt>
      <trkpt lat="48.029443" lon="-4.636974">
        <ele>16.2</ele>
        <time>2020-08-13T09:08:20Z</time>
      </trkpt>
      <trkpt lat="48.029487" lon="-4.637227">
        <ele>16.2</ele>
        <time>2020-08-13T09:08:22Z</time>
      </trkpt>
      <trkpt lat="48.029582" lon="-4.637578">
        <ele>20.0</ele>
        <time>2020-08-13T09:08:24Z</time>
      </trkpt>
      <trkpt lat="48.029781" lon="-4.638204">
        <ele>20.0</ele>
        <time>2020-08-13T09:08:28Z</time>
      </trkpt>
      <trkpt lat="48.030964" lon="-4.641659">
        <ele>29.4</ele>
        <time>2020-08-13T09:08:53Z</time>
      </trkpt>
      <trkpt lat="48.031168" lon="-4.642199">
        <ele>31.0</ele>
        <time>2020-08-13T09:08:57Z</time>
      </trkpt>
      <trkpt lat="48.031789" lon="-4.643621">
        <ele>37.8</ele>
        <time>2020-08-13T09:09:07Z</time>
      </trkpt>
      <trkpt lat="48.031956" lon="-4.644109">
        <ele>37.8</ele>
        <time>2020-08-13T09:09:11Z</time>
      </trkpt>
      <trkpt lat="48.032085" lon="-4.644657">
        <ele>37.4</ele>
        <time>2020-08-13T09:09:14Z</time>
      </trkpt>
      <trkpt lat="48.032288" lon="-4.645932">
        <ele>37.6</ele>
        <time>2020-08-13T09:09:22Z</time>
      </trkpt>
      <trkpt lat="48.032372" lon="-4.646339">
        <ele>37.6</ele>
        <time>2020-08-13T09:09:25Z</time>
      </trkpt>
      <trkpt lat="48.032526" lon="-4.646894">
        <ele>41.2</ele>
        <time>2020-08-13T09:09:29Z</time>
      </trkpt>
      <trkpt lat="48.032735" lon="-4.647418">
        <ele>41.2</ele>
        <time>2020-08-13T09:09:33Z</time>
      </trkpt>
      <trkpt lat="48.033299" lon="-4.648569">
        <ele>43.0</ele>
        <time>2020-08-13T09:09:42Z</time>
      </trkpt>
      <trkpt lat="48.033723" lon="-4.649498">
        <ele>47.0</ele>
        <time>2020-08-13T09:09:49Z</time>
      </trkpt>
      <trkpt lat="48.033878" lon="-4.649961">
        <ele>47.0</ele>
        <time>2020-08-13T09:09:52Z</time>
      </trkpt>
      <trkpt lat="48.033994" lon="-4.650452">
        <ele>48.6</ele>
        <time>2020-08-13T09:09:55Z</time>
      </trkpt>
      <trkpt lat="48.034626" lon="-4.653966">
        <ele>54.6</ele>
        <time>2020-08-13T09:10:18Z</time>
      </trkpt>
      <trkpt lat="48.035619" lon="-4.660232">
        <ele>70.2</ele>
        <time>2020-08-13T09:10:58Z</time>
      </trkpt>
      <trkpt lat="48.035721" lon="-4.660788">
        <ele>70.2</ele>
        <time>2020-08-13T09:11:02Z</time>
      </trkpt>
      <trkpt lat="48.035843" lon="-4.661636">
        <ele>69.0</ele>
        <time>2020-08-13T09:11:07Z</time>
      </trkpt>
      <trkpt lat="48.035877" lon="-4.662284">
        <ele>66.8</ele>
        <time>2020-08-13T09:11:11Z</time>
      </trkpt>
      <trkpt lat="48.035885" lon="-4.6637">
        <ele>64.6</ele>
        <time>2020-08-13T09:11:20Z</time>
      </trkpt>
      <trkpt lat="48.036072" lon="-4.664896">
        <ele>64.8</ele>
        <time>2020-08-13T09:11:28Z</time>
      </trkpt>
      <trkpt lat="48.036397" lon="-4.666251">
        <ele>63.8</ele>
        <time>2020-08-13T09:11:37Z</time>
      </trkpt>
      <trkpt lat="48.036566" lon="-4.666776">
        <ele>63.2</ele>
        <time>2020-08-13T09:11:40Z</time>
      </trkpt>
      <trkpt lat="48.036781" lon="-4.667229">
        <ele>61.2</ele>
        <time>2020-08-13T09:11:44Z</time>
      </trkpt>
      <trkpt lat="48.03709" lon="-4.667786">
        <ele>62.4</ele>
        <time>2020-08-13T09:11:48Z</time>
      </trkpt>
      <trkpt lat="48.037296" lon="-4.668052">
        <ele>62.4</ele>
        <time>2020-08-13T09:11:51Z</time>
      </trkpt>
      <trkpt lat="48.037471" lon="-4.668327">
        <ele>62.4</ele>
        <time>2020-08-13T09:11:53Z</time>
      </trkpt>
      <trkpt lat="48.037529" lon="-4.668534">
        <ele>64.6</ele>
        <time>2020-08-13T09:11:55Z</time>
      </trkpt>
      <trkpt lat="48.03756" lon="-4.668714">
        <ele>64.6</ele>
        <time>2020-08-13T09:11:56Z</time>
      </trkpt>
      <trkpt lat="48.037899" lon="-4.67195">
        <ele>66.6</ele>
        <time>2020-08-13T09:12:16Z</time>
      </trkpt>
      <trkpt lat="48.037919" lon="-4.672236">
        <ele>66.6</ele>
        <time>2020-08-13T09:12:18Z</time>
      </trkpt>
      <trkpt lat="48.037919" lon="-4.672509">
        <ele>67.2</ele>
        <time>2020-08-13T09:12:20Z</time>
      </trkpt>
      <trkpt lat="48.03785" lon="-4.673181">
        <ele>67.2</ele>
        <time>2020-08-13T09:12:24Z</time>
      </trkpt>
      <trkpt lat="48.037413" lon="-4.676445">
        <ele>68.4</ele>
        <time>2020-08-13T09:12:45Z</time>
      </trkpt>
      <trkpt lat="48.037414" lon="-4.676662">
        <ele>68.4</ele>
        <time>2020-08-13T09:12:46Z</time>
      </trkpt>
      <trkpt lat="48.037473" lon="-4.677013">
        <ele>68.0</ele>
        <time>2020-08-13T09:12:48Z</time>
      </trkpt>
      <trkpt lat="48.037994" lon="-4.678998">
        <ele>66.0</ele>
        <time>2020-08-13T09:13:02Z</time>
      </trkpt>
      <trkpt lat="48.038403" lon="-4.680483">
        <ele>66.2</ele>
        <time>2020-08-13T09:13:12Z</time>
      </trkpt>
      <trkpt lat="48.038486" lon="-4.680739">
        <ele>66.2</ele>
        <time>2020-08-13T09:13:13Z</time>
      </trkpt>
      <trkpt lat="48.038649" lon="-4.681119">
        <ele>65.8</ele>
        <time>2020-08-13T09:13:16Z</time>
      </trkpt>
      <trkpt lat="48.038832" lon="-4.681476">
        <ele>65.8</ele>
        <time>2020-08-13T09:13:19Z</time>
      </trkpt>
      <trkpt lat="48.039379" lon="-4.682456">
        <ele>67.2</ele>
        <time>2020-08-13T09:13:27Z</time>
      </trkpt>
      <trkpt lat="48.039955" lon="-4.683543">
        <ele>68.2</ele>
        <time>2020-08-13T09:13:36Z</time>
      </trkpt>
      <trkpt lat="48.040234" lon="-4.684113">
        <ele>66.2</ele>
        <time>2020-08-13T09:13:40Z</time>
      </trkpt>
      <trkpt lat="48.040591" lon="-4.684964">
        <ele>67.4</ele>
        <time>2020-08-13T09:13:46Z</time>
      </trkpt>
      <trkpt lat="48.040716" lon="-4.685355">
        <ele>67.8</ele>
        <time>2020-08-13T09:13:49Z</time>
      </trkpt>
      <trkpt lat="48.040745" lon="-4.68556">
        <ele>67.8</ele>
        <time>2020-08-13T09:13:50Z</time>
      </trkpt>
      <trkpt lat="48.040769" lon="-4.686054">
        <ele>67.6</ele>
        <time>2020-08-13T09:13:53Z</time>
      </trkpt>
      <trkpt lat="48.040741" lon="-4.686597">
        <ele>67.6</ele>
        <time>2020-08-13T09:13:57Z</time>
      </trkpt>
      <trkpt lat="48.040681" lon="-4.686948">
        <ele>67.2</ele>
        <time>2020-08-13T09:13:59Z</time>
      </trkpt>
      <trkpt lat="48.04042" lon="-4.687897">
        <ele>67.0</ele>
        <time>2020-08-13T09:14:05Z</time>
      </trkpt>
      <trkpt lat="48.0401" lon="-4.688959">
        <ele>67.6</ele>
        <time>2020-08-13T09:14:13Z</time>
      </trkpt>
      <trkpt lat="48.040037" lon="-4.689231">
        <ele>67.6</ele>
        <time>2020-08-13T09:14:15Z</time>
      </trkpt>
      <trkpt lat="48.039775" lon="-4.690889">
        <ele>65.2</ele>
        <time>2020-08-13T09:14:25Z</time>
      </trkpt>
      <trkpt lat="48.039485" lon="-4.69234">
        <ele>64.2</ele>
        <time>2020-08-13T09:14:35Z</time>
      </trkpt>
      <trkpt lat="48.039391" lon="-4.69274">
        <ele>64.6</ele>
        <time>2020-08-13T09:14:37Z</time>
      </trkpt>
      <trkpt lat="48.039327" lon="-4.693169">
        <ele>64.6</ele>
        <time>2020-08-13T09:14:40Z</time>
      </trkpt>
      <trkpt lat="48.039329" lon="-4.693587">
        <ele>66.0</ele>
        <time>2020-08-13T09:14:43Z</time>
      </trkpt>
      <trkpt lat="48.039354" lon="-4.693803">
        <ele>66.0</ele>
        <time>2020-08-13T09:14:44Z</time>
      </trkpt>
      <trkpt lat="48.03957" lon="-4.695093">
        <ele>69.2</ele>
        <time>2020-08-13T09:14:52Z</time>
      </trkpt>
      <trkpt lat="48.039659" lon="-4.695732">
        <ele>69.2</ele>
        <time>2020-08-13T09:14:56Z</time>
      </trkpt>
      <trkpt lat="48.039789" lon="-4.696776">
        <ele>68.6</ele>
        <time>2020-08-13T09:15:03Z</time>
      </trkpt>
      <trkpt lat="48.039877" lon="-4.69784">
        <ele>68.8</ele>
        <time>2020-08-13T09:15:10Z</time>
      </trkpt>
      <trkpt lat="48.039854" lon="-4.699619">
        <ele>69.4</ele>
        <time>2020-08-13T09:15:21Z</time>
      </trkpt>
      <trkpt lat="48.039898" lon="-4.700862">
        <ele>69.8</ele>
        <time>2020-08-13T09:15:29Z</time>
      </trkpt>
      <trkpt lat="48.039891" lon="-4.701295">
        <ele>69.8</ele>
        <time>2020-08-13T09:15:31Z</time>
      </trkpt>
      <trkpt lat="48.03987" lon="-4.701806">
        <ele>69.2</ele>
        <time>2020-08-13T09:15:34Z</time>
      </trkpt>
      <trkpt lat="48.039751" lon="-4.70309">
        <ele>69.2</ele>
        <time>2020-08-13T09:15:43Z</time>
      </trkpt>
      <trkpt lat="48.039701" lon="-4.704478">
        <ele>68.0</ele>
        <time>2020-08-13T09:15:51Z</time>
      </trkpt>
      <trkpt lat="48.039658" lon="-4.704981">
        <ele>68.0</ele>
        <time>2020-08-13T09:15:54Z</time>
      </trkpt>
      <trkpt lat="48.039351" lon="-4.706458">
        <ele>68.8</ele>
        <time>2020-08-13T09:16:04Z</time>
      </trkpt>
      <trkpt lat="48.039306" lon="-4.706583">
        <ele>68.8</ele>
        <time>2020-08-13T09:16:05Z</time>
      </trkpt>
      <trkpt lat="48.03816" lon="-4.7086">
        <ele>63.6</ele>
        <time>2020-08-13T09:16:21Z</time>
      </trkpt>
      <trkpt lat="48.038044" lon="-4.708848">
        <ele>63.6</ele>
        <time>2020-08-13T09:16:23Z</time>
      </trkpt>
      <trkpt lat="48.038012" lon="-4.708948">
        <ele>63.6</ele>
        <time>2020-08-13T09:16:24Z</time>
      </trkpt>
      <trkpt lat="48.037508" lon="-4.711797">
        <ele>51.4</ele>
        <time>2020-08-13T09:16:42Z</time>
      </trkpt>
      <trkpt lat="48.037473" lon="-4.712132">
        <ele>46.5</ele>
        <time>2020-08-13T09:16:45Z</time>
      </trkpt>
      <trkpt lat="48.037473" lon="-4.712132">
        <ele>46.5</ele>
        <time>2020-08-13T09:16:45Z</time>
      </trkpt>
      <trkpt lat="48.037508" lon="-4.711797">
        <ele>51.4</ele>
        <time>2020-08-13T09:16:48Z</time>
      </trkpt>
      <trkpt lat="48.038012" lon="-4.708948">
        <ele>63.6</ele>
        <time>2020-08-13T09:17:11Z</time>
      </trkpt>
      <trkpt lat="48.038044" lon="-4.708848">
        <ele>63.6</ele>
        <time>2020-08-13T09:17:12Z</time>
      </trkpt>
      <trkpt lat="48.03816" lon="-4.7086">
        <ele>63.6</ele>
        <time>2020-08-13T09:17:14Z</time>
      </trkpt>
      <trkpt lat="48.039306" lon="-4.706583">
        <ele>68.8</ele>
        <time>2020-08-13T09:17:35Z</time>
      </trkpt>
      <trkpt lat="48.039351" lon="-4.706458">
        <ele>68.8</ele>
        <time>2020-08-13T09:17:36Z</time>
      </trkpt>
      <trkpt lat="48.039658" lon="-4.704981">
        <ele>68.0</ele>
        <time>2020-08-13T09:17:48Z</time>
      </trkpt>
      <trkpt lat="48.039701" lon="-4.704478">
        <ele>68.0</ele>
        <time>2020-08-13T09:17:52Z</time>
      </trkpt>
      <trkpt lat="48.039751" lon="-4.70309">
        <ele>69.2</ele>
        <time>2020-08-13T09:18:03Z</time>
      </trkpt>
      <trkpt lat="48.03987" lon="-4.701806">
        <ele>69.2</ele>
        <time>2020-08-13T09:18:14Z</time>
      </trkpt>
      <trkpt lat="48.039895" lon="-4.701091">
        <ele>69.8</ele>
        <time>2020-08-13T09:18:19Z</time>
      </trkpt>
      <trkpt lat="48.039891" lon="-4.700589">
        <ele>70.0</ele>
        <time>2020-08-13T09:18:23Z</time>
      </trkpt>
      <trkpt lat="48.039854" lon="-4.699619">
        <ele>69.4</ele>
        <time>2020-08-13T09:18:31Z</time>
      </trkpt>
      <trkpt lat="48.039877" lon="-4.69784">
        <ele>68.8</ele>
        <time>2020-08-13T09:18:45Z</time>
      </trkpt>
      <trkpt lat="48.039789" lon="-4.696776">
        <ele>68.6</ele>
        <time>2020-08-13T09:18:53Z</time>
      </trkpt>
      <trkpt lat="48.040516" lon="-4.696658">
        <ele>66.8</ele>
        <time>2020-08-13T09:18:59Z</time>
      </trkpt>
      <trkpt lat="48.040676" lon="-4.696653">
        <ele>66.8</ele>
        <time>2020-08-13T09:19:00Z</time>
      </trkpt>
      <trkpt lat="48.041027" lon="-4.696677">
        <ele>63.2</ele>
        <time>2020-08-13T09:19:03Z</time>
      </trkpt>
      <trkpt lat="48.042273" lon="-4.69699">
        <ele>58.2</ele>
        <time>2020-08-13T09:19:12Z</time>
      </trkpt>
      <trkpt lat="48.04242" lon="-4.696956">
        <ele>58.2</ele>
        <time>2020-08-13T09:19:13Z</time>
      </trkpt>
      <trkpt lat="48.042518" lon="-4.696896">
        <ele>50.8</ele>
        <time>2020-08-13T09:19:14Z</time>
      </trkpt>
      <trkpt lat="48.042585" lon="-4.696751">
        <ele>50.8</ele>
        <time>2020-08-13T09:19:15Z</time>
      </trkpt>
      <trkpt lat="48.0426" lon="-4.696671">
        <ele>50.8</ele>
        <time>2020-08-13T09:19:15Z</time>
      </trkpt>
      <trkpt lat="48.042633" lon="-4.695973">
        <ele>48.4</ele>
        <time>2020-08-13T09:19:19Z</time>
      </trkpt>
      <trkpt lat="48.042659" lon="-4.69588">
        <ele>48.4</ele>
        <time>2020-08-13T09:19:19Z</time>
      </trkpt>
      <trkpt lat="48.042715" lon="-4.6958">
        <ele>44.4</ele>
        <time>2020-08-13T09:19:20Z</time>
      </trkpt>
      <trkpt lat="48.042795" lon="-4.695798">
        <ele>44.4</ele>
        <time>2020-08-13T09:19:20Z</time>
      </trkpt>
      <trkpt lat="48.042868" lon="-4.695863">
        <ele>48.4</ele>
        <time>2020-08-13T09:19:21Z</time>
      </trkpt>
      <trkpt lat="48.042926" lon="-4.695979">
        <ele>48.4</ele>
        <time>2020-08-13T09:19:22Z</time>
      </trkpt>
      <trkpt lat="48.043181" lon="-4.696694">
        <ele>50.8</ele>
        <time>2020-08-13T09:19:26Z</time>
      </trkpt>
      <trkpt lat="48.043368" lon="-4.697357">
        <ele>36.4</ele>
        <time>2020-08-13T09:19:30Z</time>
      </trkpt>
      <trkpt lat="48.043515" lon="-4.697953">
        <ele>37.6</ele>
        <time>2020-08-13T09:19:33Z</time>
      </trkpt>
      <trkpt lat="48.043618" lon="-4.698489">
        <ele>38.6</ele>
        <time>2020-08-13T09:19:36Z</time>
      </trkpt>
      <trkpt lat="48.043986" lon="-4.700888">
        <ele>45.2</ele>
        <time>2020-08-13T09:19:48Z</time>
      </trkpt>
      <trkpt lat="48.044084" lon="-4.70143">
        <ele>45.2</ele>
        <time>2020-08-13T09:19:51Z</time>
      </trkpt>
      <trkpt lat="48.04421" lon="-4.701919">
        <ele>27.4</ele>
        <time>2020-08-13T09:19:54Z</time>
      </trkpt>
      <trkpt lat="48.044798" lon="-4.703856">
        <ele>24.2</ele>
        <time>2020-08-13T09:20:04Z</time>
      </trkpt>
      <trkpt lat="48.044934" lon="-4.704213">
        <ele>25.0</ele>
        <time>2020-08-13T09:20:06Z</time>
      </trkpt>
      <trkpt lat="48.045136" lon="-4.704524">
        <ele>11.2</ele>
        <time>2020-08-13T09:20:09Z</time>
      </trkpt>
      <trkpt lat="48.045241" lon="-4.704608">
        <ele>11.2</ele>
        <time>2020-08-13T09:20:09Z</time>
      </trkpt>
      <trkpt lat="48.045515" lon="-4.704727">
        <ele>11.2</ele>
        <time>2020-08-13T09:20:12Z</time>
      </trkpt>
      <trkpt lat="48.045673" lon="-4.70477">
        <ele>11.2</ele>
        <time>2020-08-13T09:20:13Z</time>
      </trkpt>
      <trkpt lat="48.04598" lon="-4.70481">
        <ele>6.4</ele>
        <time>2020-08-13T09:20:15Z</time>
      </trkpt>
      <trkpt lat="48.046366" lon="-4.704786">
        <ele>6.4</ele>
        <time>2020-08-13T09:20:18Z</time>
      </trkpt>
      <trkpt lat="48.047073" lon="-4.704599">
        <ele>6.2</ele>
        <time>2020-08-13T09:20:23Z</time>
      </trkpt>
      <trkpt lat="48.047206" lon="-4.704521">
        <ele>6.2</ele>
        <time>2020-08-13T09:20:24Z</time>
      </trkpt>
      <trkpt lat="48.047249" lon="-4.704463">
        <ele>6.2</ele>
        <time>2020-08-13T09:20:25Z</time>
      </trkpt>
      <trkpt lat="48.047285" lon="-4.704391">
        <ele>6.2</ele>
        <time>2020-08-13T09:20:25Z</time>
      </trkpt>
      <trkpt lat="48.047345" lon="-4.704188">
        <ele>6.2</ele>
        <time>2020-08-13T09:20:26Z</time>
      </trkpt>
      <trkpt lat="48.04742" lon="-4.703811">
        <ele>5.8</ele>
        <time>2020-08-13T09:20:28Z</time>
      </trkpt>
      <trkpt lat="48.047457" lon="-4.703412">
        <ele>5.8</ele>
        <time>2020-08-13T09:20:30Z</time>
      </trkpt>
      <trkpt lat="48.047482" lon="-4.701236">
        <ele>4.8</ele>
        <time>2020-08-13T09:20:41Z</time>
      </trkpt>
      <trkpt lat="48.0475" lon="-4.701171">
        <ele>9.2</ele>
        <time>2020-08-13T09:20:42Z</time>
      </trkpt>
      <trkpt lat="48.047602" lon="-4.70096">
        <ele>9.2</ele>
        <time>2020-08-13T09:20:43Z</time>
      </trkpt>
      <trkpt lat="48.047983" lon="-4.700306">
        <ele>8.2</ele>
        <time>2020-08-13T09:20:47Z</time>
      </trkpt>
      <trkpt lat="48.048667" lon="-4.698625">
        <ele>23.8</ele>
        <time>2020-08-13T09:20:57Z</time>
      </trkpt>
      <trkpt lat="48.048826" lon="-4.698318">
        <ele>25.8</ele>
        <time>2020-08-13T09:20:59Z</time>
      </trkpt>
      <trkpt lat="48.048943" lon="-4.698173">
        <ele>25.8</ele>
        <time>2020-08-13T09:21:00Z</time>
      </trkpt>
      <trkpt lat="48.049063" lon="-4.69807">
        <ele>25.8</ele>
        <time>2020-08-13T09:21:01Z</time>
      </trkpt>
      <trkpt lat="48.049221" lon="-4.697971">
        <ele>35.8</ele>
        <time>2020-08-13T09:21:03Z</time>
      </trkpt>
      <trkpt lat="48.049362" lon="-4.697926">
        <ele>35.8</ele>
        <time>2020-08-13T09:21:04Z</time>
      </trkpt>
      <trkpt lat="48.04954" lon="-4.697889">
        <ele>35.8</ele>
        <time>2020-08-13T09:21:05Z</time>
      </trkpt>
      <trkpt lat="48.050115" lon="-4.69789">
        <ele>39.4</ele>
        <time>2020-08-13T09:21:09Z</time>
      </trkpt>
      <trkpt lat="48.050847" lon="-4.698008">
        <ele>46.6</ele>
        <time>2020-08-13T09:21:15Z</time>
      </trkpt>
      <trkpt lat="48.051445" lon="-4.698212">
        <ele>46.6</ele>
        <time>2020-08-13T09:21:19Z</time>
      </trkpt>
      <trkpt lat="48.051748" lon="-4.69834">
        <ele>52.8</ele>
        <time>2020-08-13T09:21:22Z</time>
      </trkpt>
      <trkpt lat="48.052345" lon="-4.698682">
        <ele>52.8</ele>
        <time>2020-08-13T09:21:27Z</time>
      </trkpt>
      <trkpt lat="48.054184" lon="-4.699644">
        <ele>67.0</ele>
        <time>2020-08-13T09:21:41Z</time>
      </trkpt>
      <trkpt lat="48.05636" lon="-4.700749">
        <ele>70.0</ele>
        <time>2020-08-13T09:21:58Z</time>
      </trkpt>
      <trkpt lat="48.056956" lon="-4.701079">
        <ele>68.6</ele>
        <time>2020-08-13T09:22:03Z</time>
      </trkpt>
      <trkpt lat="48.05761" lon="-4.701405">
        <ele>69.8</ele>
        <time>2020-08-13T09:22:08Z</time>
      </trkpt>
      <trkpt lat="48.0578" lon="-4.701476">
        <ele>69.8</ele>
        <time>2020-08-13T09:22:10Z</time>
      </trkpt>
      <trkpt lat="48.057871" lon="-4.701463">
        <ele>69.8</ele>
        <time>2020-08-13T09:22:11Z</time>
      </trkpt>
      <trkpt lat="48.057527" lon="-4.699764">
        <ele>71.4</ele>
        <time>2020-08-13T09:22:18Z</time>
      </trkpt>
      <trkpt lat="48.056992" lon="-4.697008">
        <ele>72.2</ele>
        <time>2020-08-13T09:22:28Z</time>
      </trkpt>
      <trkpt lat="48.056956" lon="-4.696763">
        <ele>72.2</ele>
        <time>2020-08-13T09:22:29Z</time>
      </trkpt>
      <trkpt lat="48.056947" lon="-4.696457">
        <ele>71.8</ele>
        <time>2020-08-13T09:22:31Z</time>
      </trkpt>
      <trkpt lat="48.057037" lon="-4.695283">
        <ele>70.8</ele>
        <time>2020-08-13T09:22:35Z</time>
      </trkpt>
      <trkpt lat="48.057042" lon="-4.694986">
        <ele>70.0</ele>
        <time>2020-08-13T09:22:36Z</time>
      </trkpt>
      <trkpt lat="48.056947" lon="-4.693263">
        <ele>70.2</ele>
        <time>2020-08-13T09:22:43Z</time>
      </trkpt>
      <trkpt lat="48.056687" lon="-4.68956">
        <ele>74.0</ele>
        <time>2020-08-13T09:22:57Z</time>
      </trkpt>
      <trkpt lat="48.056613" lon="-4.688664">
        <ele>73.6</ele>
        <time>2020-08-13T09:23:00Z</time>
      </trkpt>
      <trkpt lat="48.056562" lon="-4.688219">
        <ele>73.8</ele>
        <time>2020-08-13T09:23:02Z</time>
      </trkpt>
      <trkpt lat="48.056038" lon="-4.684548">
        <ele>75.4</ele>
        <time>2020-08-13T09:23:16Z</time>
      </trkpt>
      <trkpt lat="48.055956" lon="-4.683603">
        <ele>75.8</ele>
        <time>2020-08-13T09:23:19Z</time>
      </trkpt>
      <trkpt lat="48.05595" lon="-4.683041">
        <ele>75.4</ele>
        <time>2020-08-13T09:23:21Z</time>
      </trkpt>
      <trkpt lat="48.055975" lon="-4.682724">
        <ele>75.4</ele>
        <time>2020-08-13T09:23:23Z</time>
      </trkpt>
      <trkpt lat="48.056024" lon="-4.682374">
        <ele>74.6</ele>
        <time>2020-08-13T09:23:24Z</time>
      </trkpt>
      <trkpt lat="48.056291" lon="-4.680972">
        <ele>73.8</ele>
        <time>2020-08-13T09:23:29Z</time>
      </trkpt>
      <trkpt lat="48.056378" lon="-4.680247">
        <ele>73.2</ele>
        <time>2020-08-13T09:23:32Z</time>
      </trkpt>
      <trkpt lat="48.056536" lon="-4.675529">
        <ele>73.0</ele>
        <time>2020-08-13T09:23:50Z</time>
      </trkpt>
      <trkpt lat="48.056593" lon="-4.673434">
        <ele>73.2</ele>
        <time>2020-08-13T09:23:58Z</time>
      </trkpt>
      <trkpt lat="48.056536" lon="-4.671695">
        <ele>72.8</ele>
        <time>2020-08-13T09:24:04Z</time>
      </trkpt>
      <trkpt lat="48.056553" lon="-4.671231">
        <ele>72.8</ele>
        <time>2020-08-13T09:24:06Z</time>
      </trkpt>
      <trkpt lat="48.056629" lon="-4.670835">
        <ele>72.8</ele>
        <time>2020-08-13T09:24:08Z</time>
      </trkpt>
      <trkpt lat="48.056964" lon="-4.669627">
        <ele>67.2</ele>
        <time>2020-08-13T09:24:13Z</time>
      </trkpt>
      <trkpt lat="48.057323" lon="-4.668501">
        <ele>66.8</ele>
        <time>2020-08-13T09:24:17Z</time>
      </trkpt>
      <trkpt lat="48.057865" lon="-4.666684">
        <ele>64.2</ele>
        <time>2020-08-13T09:24:25Z</time>
      </trkpt>
      <trkpt lat="48.058312" lon="-4.665046">
        <ele>66.0</ele>
        <time>2020-08-13T09:24:31Z</time>
      </trkpt>
      <trkpt lat="48.060273" lon="-4.65761">
        <ele>80.0</ele>
        <time>2020-08-13T09:25:01Z</time>
      </trkpt>
      <trkpt lat="48.060562" lon="-4.65668">
        <ele>78.2</ele>
        <time>2020-08-13T09:25:05Z</time>
      </trkpt>
      <trkpt lat="48.06117" lon="-4.654834">
        <ele>79.2</ele>
        <time>2020-08-13T09:25:13Z</time>
      </trkpt>
      <trkpt lat="48.061288" lon="-4.654436">
        <ele>79.2</ele>
        <time>2020-08-13T09:25:15Z</time>
      </trkpt>
      <trkpt lat="48.061348" lon="-4.654177">
        <ele>79.2</ele>
        <time>2020-08-13T09:25:16Z</time>
      </trkpt>
      <trkpt lat="48.061402" lon="-4.653876">
        <ele>79.6</ele>
        <time>2020-08-13T09:25:17Z</time>
      </trkpt>
      <trkpt lat="48.061828" lon="-4.649992">
        <ele>83.0</ele>
        <time>2020-08-13T09:25:32Z</time>
      </trkpt>
      <trkpt lat="48.062137" lon="-4.647371">
        <ele>82.4</ele>
        <time>2020-08-13T09:25:42Z</time>
      </trkpt>
      <trkpt lat="48.062257" lon="-4.642394">
        <ele>77.0</ele>
        <time>2020-08-13T09:26:00Z</time>
      </trkpt>
      <trkpt lat="48.062298" lon="-4.641886">
        <ele>77.0</ele>
        <time>2020-08-13T09:26:02Z</time>
      </trkpt>
      <trkpt lat="48.062465" lon="-4.640576">
        <ele>78.8</ele>
        <time>2020-08-13T09:26:07Z</time>
      </trkpt>
      <trkpt lat="48.062876" lon="-4.638407">
        <ele>79.6</ele>
        <time>2020-08-13T09:26:16Z</time>
      </trkpt>
      <trkpt lat="48.062948" lon="-4.637938">
        <ele>79.2</ele>
        <time>2020-08-13T09:26:17Z</time>
      </trkpt>
      <trkpt lat="48.063284" lon="-4.634755">
        <ele>77.6</ele>
        <time>2020-08-13T09:26:30Z</time>
      </trkpt>
      <trkpt lat="48.063294" lon="-4.63446">
        <ele>77.6</ele>
        <time>2020-08-13T09:26:31Z</time>
      </trkpt>
      <trkpt lat="48.063266" lon="-4.633847">
        <ele>77.8</ele>
        <time>2020-08-13T09:26:33Z</time>
      </trkpt>
      <trkpt lat="48.063217" lon="-4.633284">
        <ele>77.4</ele>
        <time>2020-08-13T09:26:35Z</time>
      </trkpt>
      <trkpt lat="48.062988" lon="-4.631278">
        <ele>78.0</ele>
        <time>2020-08-13T09:26:43Z</time>
      </trkpt>
      <trkpt lat="48.06297" lon="-4.631029">
        <ele>78.0</ele>
        <time>2020-08-13T09:26:44Z</time>
      </trkpt>
      <trkpt lat="48.062938" lon="-4.628907">
        <ele>82.0</ele>
        <time>2020-08-13T09:26:52Z</time>
      </trkpt>
      <trkpt lat="48.062869" lon="-4.627944">
        <ele>82.6</ele>
        <time>2020-08-13T09:26:55Z</time>
      </trkpt>
      <trkpt lat="48.062833" lon="-4.626985">
        <ele>82.4</ele>
        <time>2020-08-13T09:26:59Z</time>
      </trkpt>
      <trkpt lat="48.062768" lon="-4.625986">
        <ele>81.0</ele>
        <time>2020-08-13T09:27:03Z</time>
      </trkpt>
      <trkpt lat="48.062754" lon="-4.625539">
        <ele>79.2</ele>
        <time>2020-08-13T09:27:04Z</time>
      </trkpt>
      <trkpt lat="48.062991" lon="-4.622693">
        <ele>69.6</ele>
        <time>2020-08-13T09:27:15Z</time>
      </trkpt>
      <trkpt lat="48.063208" lon="-4.620894">
        <ele>66.6</ele>
        <time>2020-08-13T09:27:22Z</time>
      </trkpt>
      <trkpt lat="48.063378" lon="-4.618935">
        <ele>63.0</ele>
        <time>2020-08-13T09:27:29Z</time>
      </trkpt>
      <trkpt lat="48.063527" lon="-4.614502">
        <ele>67.2</ele>
        <time>2020-08-13T09:27:46Z</time>
      </trkpt>
      <trkpt lat="48.063659" lon="-4.608632">
        <ele>70.8</ele>
        <time>2020-08-13T09:28:08Z</time>
      </trkpt>
      <trkpt lat="48.063801" lon="-4.605998">
        <ele>69.8</ele>
        <time>2020-08-13T09:28:18Z</time>
      </trkpt>
      <trkpt lat="48.063854" lon="-4.602902">
        <ele>70.6</ele>
        <time>2020-08-13T09:28:30Z</time>
      </trkpt>
      <trkpt lat="48.063972" lon="-4.601052">
        <ele>70.8</ele>
        <time>2020-08-13T09:28:37Z</time>
      </trkpt>
      <trkpt lat="48.064212" lon="-4.597769">
        <ele>75.4</ele>
        <time>2020-08-13T09:28:49Z</time>
      </trkpt>
      <trkpt lat="48.064305" lon="-4.595461">
        <ele>79.8</ele>
        <time>2020-08-13T09:28:58Z</time>
      </trkpt>
      <trkpt lat="48.064442" lon="-4.593816">
        <ele>81.6</ele>
        <time>2020-08-13T09:29:04Z</time>
      </trkpt>
      <trkpt lat="48.064616" lon="-4.591989">
        <ele>83.0</ele>
        <time>2020-08-13T09:29:11Z</time>
      </trkpt>
      <trkpt lat="48.064703" lon="-4.591339">
        <ele>83.0</ele>
        <time>2020-08-13T09:29:13Z</time>
      </trkpt>
      <trkpt lat="48.065108" lon="-4.58878">
        <ele>81.6</ele>
        <time>2020-08-13T09:29:23Z</time>
      </trkpt>
      <trkpt lat="48.065268" lon="-4.587945">
        <ele>82.2</ele>
        <time>2020-08-13T09:29:27Z</time>
      </trkpt>
      <trkpt lat="48.065466" lon="-4.587032">
        <ele>83.4</ele>
        <time>2020-08-13T09:29:30Z</time>
      </trkpt>
      <trkpt lat="48.065955" lon="-4.585039">
        <ele>82.0</ele>
        <time>2020-08-13T09:29:38Z</time>
      </trkpt>
      <trkpt lat="48.066279" lon="-4.583528">
        <ele>82.8</ele>
        <time>2020-08-13T09:29:44Z</time>
      </trkpt>
      <trkpt lat="48.066724" lon="-4.5816">
        <ele>82.8</ele>
        <time>2020-08-13T09:29:52Z</time>
      </trkpt>
      <trkpt lat="48.066878" lon="-4.58086">
        <ele>82.8</ele>
        <time>2020-08-13T09:29:55Z</time>
      </trkpt>
      <trkpt lat="48.066953" lon="-4.580133">
        <ele>83.2</ele>
        <time>2020-08-13T09:29:57Z</time>
      </trkpt>
      <trkpt lat="48.066995" lon="-4.579135">
        <ele>84.8</ele>
        <time>2020-08-13T09:30:01Z</time>
      </trkpt>
      <trkpt lat="48.067238" lon="-4.572182">
        <ele>87.2</ele>
        <time>2020-08-13T09:30:27Z</time>
      </trkpt>
      <trkpt lat="48.067259" lon="-4.571233">
        <ele>87.0</ele>
        <time>2020-08-13T09:30:31Z</time>
      </trkpt>
      <trkpt lat="48.067266" lon="-4.5694">
        <ele>85.6</ele>
        <time>2020-08-13T09:30:38Z</time>
      </trkpt>
      <trkpt lat="48.067252" lon="-4.56871">
        <ele>85.8</ele>
        <time>2020-08-13T09:30:40Z</time>
      </trkpt>
      <trkpt lat="48.067177" lon="-4.567726">
        <ele>86.6</ele>
        <time>2020-08-13T09:30:44Z</time>
      </trkpt>
      <trkpt lat="48.066979" lon="-4.56454">
        <ele>90.0</ele>
        <time>2020-08-13T09:30:56Z</time>
      </trkpt>
      <trkpt lat="48.066953" lon="-4.563626">
        <ele>91.2</ele>
        <time>2020-08-13T09:31:00Z</time>
      </trkpt>
      <trkpt lat="48.066952" lon="-4.562664">
        <ele>92.0</ele>
        <time>2020-08-13T09:31:03Z</time>
      </trkpt>
      <trkpt lat="48.067063" lon="-4.560408">
        <ele>94.0</ele>
        <time>2020-08-13T09:31:12Z</time>
      </trkpt>
      <trkpt lat="48.067149" lon="-4.559479">
        <ele>94.6</ele>
        <time>2020-08-13T09:31:15Z</time>
      </trkpt>
      <trkpt lat="48.067179" lon="-4.558932">
        <ele>94.8</ele>
        <time>2020-08-13T09:31:17Z</time>
      </trkpt>
      <trkpt lat="48.06719" lon="-4.558366">
        <ele>94.8</ele>
        <time>2020-08-13T09:31:19Z</time>
      </trkpt>
      <trkpt lat="48.067175" lon="-4.557692">
        <ele>95.0</ele>
        <time>2020-08-13T09:31:22Z</time>
      </trkpt>
      <trkpt lat="48.067049" lon="-4.556746">
        <ele>95.0</ele>
        <time>2020-08-13T09:31:25Z</time>
      </trkpt>
      <trkpt lat="48.06654" lon="-4.551426">
        <ele>88.2</ele>
        <time>2020-08-13T09:31:46Z</time>
      </trkpt>
      <trkpt lat="48.066513" lon="-4.551043">
        <ele>88.2</ele>
        <time>2020-08-13T09:31:47Z</time>
      </trkpt>
      <trkpt lat="48.066507" lon="-4.550435">
        <ele>84.8</ele>
        <time>2020-08-13T09:31:49Z</time>
      </trkpt>
      <trkpt lat="48.066558" lon="-4.550037">
        <ele>84.8</ele>
        <time>2020-08-13T09:31:51Z</time>
      </trkpt>
      <trkpt lat="48.066643" lon="-4.54982">
        <ele>82.6</ele>
        <time>2020-08-13T09:31:52Z</time>
      </trkpt>
      <trkpt lat="48.066773" lon="-4.549361">
        <ele>85.2</ele>
        <time>2020-08-13T09:31:54Z</time>
      </trkpt>
      <trkpt lat="48.067079" lon="-4.548835">
        <ele>84.2</ele>
        <time>2020-08-13T09:31:56Z</time>
      </trkpt>
      <trkpt lat="48.067307" lon="-4.548556">
        <ele>84.2</ele>
        <time>2020-08-13T09:31:58Z</time>
      </trkpt>
      <trkpt lat="48.067984" lon="-4.547903">
        <ele>85.4</ele>
        <time>2020-08-13T09:32:03Z</time>
      </trkpt>
      <trkpt lat="48.068355" lon="-4.547457">
        <ele>85.2</ele>
        <time>2020-08-13T09:32:05Z</time>
      </trkpt>
      <trkpt lat="48.068632" lon="-4.547042">
        <ele>85.2</ele>
        <time>2020-08-13T09:32:07Z</time>
      </trkpt>
      <trkpt lat="48.068804" lon="-4.546732">
        <ele>85.2</ele>
        <time>2020-08-13T09:32:09Z</time>
      </trkpt>
      <trkpt lat="48.068911" lon="-4.546503">
        <ele>85.0</ele>
        <time>2020-08-13T09:32:10Z</time>
      </trkpt>
      <trkpt lat="48.069747" lon="-4.54355">
        <ele>82.0</ele>
        <time>2020-08-13T09:32:22Z</time>
      </trkpt>
      <trkpt lat="48.070104" lon="-4.542229">
        <ele>78.2</ele>
        <time>2020-08-13T09:32:27Z</time>
      </trkpt>
      <trkpt lat="48.07063" lon="-4.5405">
        <ele>78.6</ele>
        <time>2020-08-13T09:32:34Z</time>
      </trkpt>
      <trkpt lat="48.071231" lon="-4.538925">
        <ele>77.8</ele>
        <time>2020-08-13T09:32:41Z</time>
      </trkpt>
      <trkpt lat="48.071363" lon="-4.538639">
        <ele>77.8</ele>
        <time>2020-08-13T09:32:43Z</time>
      </trkpt>
      <trkpt lat="48.071681" lon="-4.537776">
        <ele>77.0</ele>
        <time>2020-08-13T09:32:46Z</time>
      </trkpt>
      <trkpt lat="48.071889" lon="-4.537318">
        <ele>76.6</ele>
        <time>2020-08-13T09:32:48Z</time>
      </trkpt>
      <trkpt lat="48.072793" lon="-4.535068">
        <ele>77.4</ele>
        <time>2020-08-13T09:32:58Z</time>
      </trkpt>
      <trkpt lat="48.072959" lon="-4.534529">
        <ele>76.8</ele>
        <time>2020-08-13T09:33:00Z</time>
      </trkpt>
      <trkpt lat="48.073996" lon="-4.530574">
        <ele>80.8</ele>
        <time>2020-08-13T09:33:16Z</time>
      </trkpt>
      <trkpt lat="48.074228" lon="-4.52959">
        <ele>83.2</ele>
        <time>2020-08-13T09:33:20Z</time>
      </trkpt>
      <trkpt lat="48.074286" lon="-4.529238">
        <ele>83.2</ele>
        <time>2020-08-13T09:33:22Z</time>
      </trkpt>
      <trkpt lat="48.074431" lon="-4.527777">
        <ele>82.8</ele>
        <time>2020-08-13T09:33:27Z</time>
      </trkpt>
      <trkpt lat="48.074702" lon="-4.525823">
        <ele>82.4</ele>
        <time>2020-08-13T09:33:35Z</time>
      </trkpt>
      <trkpt lat="48.074841" lon="-4.52467">
        <ele>82.2</ele>
        <time>2020-08-13T09:33:39Z</time>
      </trkpt>
      <trkpt lat="48.075" lon="-4.523806">
        <ele>80.4</ele>
        <time>2020-08-13T09:33:42Z</time>
      </trkpt>
      <trkpt lat="48.075465" lon="-4.521655">
        <ele>79.6</ele>
        <time>2020-08-13T09:33:51Z</time>
      </trkpt>
      <trkpt lat="48.075834" lon="-4.519506">
        <ele>77.8</ele>
        <time>2020-08-13T09:33:59Z</time>
      </trkpt>
      <trkpt lat="48.075938" lon="-4.51868">
        <ele>78.0</ele>
        <time>2020-08-13T09:34:02Z</time>
      </trkpt>
      <trkpt lat="48.075956" lon="-4.518123">
        <ele>78.0</ele>
        <time>2020-08-13T09:34:05Z</time>
      </trkpt>
      <trkpt lat="48.075921" lon="-4.517802">
        <ele>78.0</ele>
        <time>2020-08-13T09:34:06Z</time>
      </trkpt>
      <trkpt lat="48.075583" lon="-4.516123">
        <ele>80.6</ele>
        <time>2020-08-13T09:34:12Z</time>
      </trkpt>
      <trkpt lat="48.075434" lon="-4.515238">
        <ele>83.2</ele>
        <time>2020-08-13T09:34:16Z</time>
      </trkpt>
      <trkpt lat="48.075426" lon="-4.515092">
        <ele>83.2</ele>
        <time>2020-08-13T09:34:16Z</time>
      </trkpt>
      <trkpt lat="48.075331" lon="-4.514845">
        <ele>84.2</ele>
        <time>2020-08-13T09:34:18Z</time>
      </trkpt>
      <trkpt lat="48.075258" lon="-4.51479">
        <ele>84.2</ele>
        <time>2020-08-13T09:34:18Z</time>
      </trkpt>
      <trkpt lat="48.07522" lon="-4.514683">
        <ele>84.2</ele>
        <time>2020-08-13T09:34:18Z</time>
      </trkpt>
      <trkpt lat="48.075228" lon="-4.514562">
        <ele>84.2</ele>
        <time>2020-08-13T09:34:19Z</time>
      </trkpt>
      <trkpt lat="48.075281" lon="-4.51447">
        <ele>84.2</ele>
        <time>2020-08-13T09:34:19Z</time>
      </trkpt>
      <trkpt lat="48.075319" lon="-4.514445">
        <ele>84.2</ele>
        <time>2020-08-13T09:34:20Z</time>
      </trkpt>
      <trkpt lat="48.075403" lon="-4.51428">
        <ele>84.2</ele>
        <time>2020-08-13T09:34:20Z</time>
      </trkpt>
      <trkpt lat="48.075553" lon="-4.513653">
        <ele>84.0</ele>
        <time>2020-08-13T09:34:23Z</time>
      </trkpt>
      <trkpt lat="48.075564" lon="-4.513553">
        <ele>84.0</ele>
        <time>2020-08-13T09:34:23Z</time>
      </trkpt>
      <trkpt lat="48.075546" lon="-4.511513">
        <ele>88.4</ele>
        <time>2020-08-13T09:34:30Z</time>
      </trkpt>
      <trkpt lat="48.07558" lon="-4.509103">
        <ele>83.8</ele>
        <time>2020-08-13T09:34:39Z</time>
      </trkpt>
      <trkpt lat="48.075556" lon="-4.508879">
        <ele>83.8</ele>
        <time>2020-08-13T09:34:40Z</time>
      </trkpt>
      <trkpt lat="48.075061" lon="-4.506891">
        <ele>81.8</ele>
        <time>2020-08-13T09:34:47Z</time>
      </trkpt>
      <trkpt lat="48.07496" lon="-4.506235">
        <ele>78.0</ele>
        <time>2020-08-13T09:34:50Z</time>
      </trkpt>
      <trkpt lat="48.074821" lon="-4.505852">
        <ele>78.0</ele>
        <time>2020-08-13T09:34:51Z</time>
      </trkpt>
      <trkpt lat="48.074638" lon="-4.505439">
        <ele>76.8</ele>
        <time>2020-08-13T09:34:53Z</time>
      </trkpt>
      <trkpt lat="48.074487" lon="-4.50517">
        <ele>76.8</ele>
        <time>2020-08-13T09:34:54Z</time>
      </trkpt>
      <trkpt lat="48.074312" lon="-4.504919">
        <ele>76.4</ele>
        <time>2020-08-13T09:34:56Z</time>
      </trkpt>
      <trkpt lat="48.073694" lon="-4.504117">
        <ele>75.0</ele>
        <time>2020-08-13T09:35:00Z</time>
      </trkpt>
      <trkpt lat="48.073456" lon="-4.503705">
        <ele>75.0</ele>
        <time>2020-08-13T09:35:02Z</time>
      </trkpt>
      <trkpt lat="48.07329" lon="-4.503349">
        <ele>73.8</ele>
        <time>2020-08-13T09:35:04Z</time>
      </trkpt>
      <trkpt lat="48.073163" lon="-4.503021">
        <ele>72.6</ele>
        <time>2020-08-13T09:35:05Z</time>
      </trkpt>
      <trkpt lat="48.072889" lon="-4.502153">
        <ele>72.6</ele>
        <time>2020-08-13T09:35:08Z</time>
      </trkpt>
      <trkpt lat="48.071114" lon="-4.495901">
        <ele>79.4</ele>
        <time>2020-08-13T09:35:33Z</time>
      </trkpt>
      <trkpt lat="48.071018" lon="-4.495426">
        <ele>80.8</ele>
        <time>2020-08-13T09:35:35Z</time>
      </trkpt>
      <trkpt lat="48.070987" lon="-4.495132">
        <ele>80.8</ele>
        <time>2020-08-13T09:35:36Z</time>
      </trkpt>
      <trkpt lat="48.070849" lon="-4.492105">
        <ele>84.0</ele>
        <time>2020-08-13T09:35:47Z</time>
      </trkpt>
      <trkpt lat="48.070694" lon="-4.49071">
        <ele>83.2</ele>
        <time>2020-08-13T09:35:52Z</time>
      </trkpt>
      <trkpt lat="48.070658" lon="-4.490244">
        <ele>83.2</ele>
        <time>2020-08-13T09:35:53Z</time>
      </trkpt>
      <trkpt lat="48.07063" lon="-4.489626">
        <ele>82.8</ele>
        <time>2020-08-13T09:35:56Z</time>
      </trkpt>
      <trkpt lat="48.070645" lon="-4.488986">
        <ele>81.8</ele>
        <time>2020-08-13T09:35:58Z</time>
      </trkpt>
      <trkpt lat="48.070744" lon="-4.487758">
        <ele>81.2</ele>
        <time>2020-08-13T09:36:02Z</time>
      </trkpt>
      <trkpt lat="48.070935" lon="-4.485824">
        <ele>80.4</ele>
        <time>2020-08-13T09:36:09Z</time>
      </trkpt>
      <trkpt lat="48.070989" lon="-4.485378">
        <ele>80.4</ele>
        <time>2020-08-13T09:36:11Z</time>
      </trkpt>
      <trkpt lat="48.071111" lon="-4.484686">
        <ele>80.2</ele>
        <time>2020-08-13T09:36:14Z</time>
      </trkpt>
      <trkpt lat="48.073026" lon="-4.476799">
        <ele>78.6</ele>
        <time>2020-08-13T09:36:44Z</time>
      </trkpt>
      <trkpt lat="48.073126" lon="-4.476341">
        <ele>78.8</ele>
        <time>2020-08-13T09:36:45Z</time>
      </trkpt>
      <trkpt lat="48.073234" lon="-4.475694">
        <ele>78.8</ele>
        <time>2020-08-13T09:36:48Z</time>
      </trkpt>
      <trkpt lat="48.073297" lon="-4.475188">
        <ele>78.8</ele>
        <time>2020-08-13T09:36:50Z</time>
      </trkpt>
      <trkpt lat="48.073534" lon="-4.47283">
        <ele>77.6</ele>
        <time>2020-08-13T09:36:58Z</time>
      </trkpt>
      <trkpt lat="48.073663" lon="-4.4711">
        <ele>77.2</ele>
        <time>2020-08-13T09:37:04Z</time>
      </trkpt>
      <trkpt lat="48.073663" lon="-4.470726">
        <ele>77.8</ele>
        <time>2020-08-13T09:37:06Z</time>
      </trkpt>
      <trkpt lat="48.073626" lon="-4.469857">
        <ele>78.0</ele>
        <time>2020-08-13T09:37:09Z</time>
      </trkpt>
      <trkpt lat="48.073557" lon="-4.469143">
        <ele>78.6</ele>
        <time>2020-08-13T09:37:11Z</time>
      </trkpt>
      <trkpt lat="48.073471" lon="-4.46844">
        <ele>78.6</ele>
        <time>2020-08-13T09:37:14Z</time>
      </trkpt>
      <trkpt lat="48.073456" lon="-4.468107">
        <ele>79.2</ele>
        <time>2020-08-13T09:37:15Z</time>
      </trkpt>
      <trkpt lat="48.073458" lon="-4.467308">
        <ele>80.0</ele>
        <time>2020-08-13T09:37:18Z</time>
      </trkpt>
      <trkpt lat="48.073506" lon="-4.466201">
        <ele>80.0</ele>
        <time>2020-08-13T09:37:22Z</time>
      </trkpt>
      <trkpt lat="48.073559" lon="-4.465789">
        <ele>80.0</ele>
        <time>2020-08-13T09:37:24Z</time>
      </trkpt>
      <trkpt lat="48.074002" lon="-4.463243">
        <ele>79.4</ele>
        <time>2020-08-13T09:37:33Z</time>
      </trkpt>
      <trkpt lat="48.074228" lon="-4.461247">
        <ele>78.8</ele>
        <time>2020-08-13T09:37:40Z</time>
      </trkpt>
      <trkpt lat="48.074447" lon="-4.45912">
        <ele>77.6</ele>
        <time>2020-08-13T09:37:48Z</time>
      </trkpt>
      <trkpt lat="48.074542" lon="-4.458384">
        <ele>77.6</ele>
        <time>2020-08-13T09:37:51Z</time>
      </trkpt>
      <trkpt lat="48.074668" lon="-4.457705">
        <ele>75.8</ele>
        <time>2020-08-13T09:37:53Z</time>
      </trkpt>
      <trkpt lat="48.074846" lon="-4.456882">
        <ele>74.8</ele>
        <time>2020-08-13T09:37:56Z</time>
      </trkpt>
      <trkpt lat="48.075188" lon="-4.455693">
        <ele>70.8</ele>
        <time>2020-08-13T09:38:01Z</time>
      </trkpt>
      <trkpt lat="48.075318" lon="-4.455092">
        <ele>70.8</ele>
        <time>2020-08-13T09:38:03Z</time>
      </trkpt>
      <trkpt lat="48.075482" lon="-4.453871">
        <ele>68.6</ele>
        <time>2020-08-13T09:38:08Z</time>
      </trkpt>
      <trkpt lat="48.075526" lon="-4.453336">
        <ele>68.6</ele>
        <time>2020-08-13T09:38:10Z</time>
      </trkpt>
      <trkpt lat="48.075523" lon="-4.453028">
        <ele>67.2</ele>
        <time>2020-08-13T09:38:11Z</time>
      </trkpt>
      <trkpt lat="48.075427" lon="-4.451819">
        <ele>66.4</ele>
        <time>2020-08-13T09:38:15Z</time>
      </trkpt>
      <trkpt lat="48.075361" lon="-4.451239">
        <ele>66.0</ele>
        <time>2020-08-13T09:38:17Z</time>
      </trkpt>
      <trkpt lat="48.075365" lon="-4.450915">
        <ele>66.0</ele>
        <time>2020-08-13T09:38:18Z</time>
      </trkpt>
      <trkpt lat="48.075416" lon="-4.450447">
        <ele>66.2</ele>
        <time>2020-08-13T09:38:20Z</time>
      </trkpt>
      <trkpt lat="48.075554" lon="-4.44966">
        <ele>66.0</ele>
        <time>2020-08-13T09:38:23Z</time>
      </trkpt>
      <trkpt lat="48.075697" lon="-4.44916">
        <ele>66.0</ele>
        <time>2020-08-13T09:38:25Z</time>
      </trkpt>
      <trkpt lat="48.076071" lon="-4.448243">
        <ele>70.4</ele>
        <time>2020-08-13T09:38:29Z</time>
      </trkpt>
      <trkpt lat="48.076347" lon="-4.447611">
        <ele>70.4</ele>
        <time>2020-08-13T09:38:32Z</time>
      </trkpt>
      <trkpt lat="48.078085" lon="-4.443904">
        <ele>72.6</ele>
        <time>2020-08-13T09:38:48Z</time>
      </trkpt>
      <trkpt lat="48.0806" lon="-4.437192">
        <ele>79.2</ele>
        <time>2020-08-13T09:39:15Z</time>
      </trkpt>
      <trkpt lat="48.080805" lon="-4.436443">
        <ele>80.6</ele>
        <time>2020-08-13T09:39:18Z</time>
      </trkpt>
      <trkpt lat="48.081029" lon="-4.435488">
        <ele>81.2</ele>
        <time>2020-08-13T09:39:22Z</time>
      </trkpt>
      <trkpt lat="48.08132" lon="-4.43397">
        <ele>85.4</ele>
        <time>2020-08-13T09:39:28Z</time>
      </trkpt>
      <trkpt lat="48.081411" lon="-4.432989">
        <ele>85.6</ele>
        <time>2020-08-13T09:39:31Z</time>
      </trkpt>
      <trkpt lat="48.081423" lon="-4.432605">
        <ele>85.6</ele>
        <time>2020-08-13T09:39:33Z</time>
      </trkpt>
      <trkpt lat="48.081411" lon="-4.43192">
        <ele>84.8</ele>
        <time>2020-08-13T09:39:35Z</time>
      </trkpt>
      <trkpt lat="48.081362" lon="-4.431357">
        <ele>83.8</ele>
        <time>2020-08-13T09:39:37Z</time>
      </trkpt>
      <trkpt lat="48.08122" lon="-4.429118">
        <ele>84.6</ele>
        <time>2020-08-13T09:39:45Z</time>
      </trkpt>
      <trkpt lat="48.081212" lon="-4.428561">
        <ele>84.6</ele>
        <time>2020-08-13T09:39:47Z</time>
      </trkpt>
      <trkpt lat="48.081333" lon="-4.427271">
        <ele>85.2</ele>
        <time>2020-08-13T09:39:52Z</time>
      </trkpt>
      <trkpt lat="48.081355" lon="-4.42625">
        <ele>85.2</ele>
        <time>2020-08-13T09:39:56Z</time>
      </trkpt>
      <trkpt lat="48.08134" lon="-4.425658">
        <ele>85.4</ele>
        <time>2020-08-13T09:39:58Z</time>
      </trkpt>
      <trkpt lat="48.08077" lon="-4.421981">
        <ele>84.0</ele>
        <time>2020-08-13T09:40:11Z</time>
      </trkpt>
      <trkpt lat="48.08061" lon="-4.421151">
        <ele>83.6</ele>
        <time>2020-08-13T09:40:14Z</time>
      </trkpt>
      <trkpt lat="48.08053" lon="-4.420861">
        <ele>83.6</ele>
        <time>2020-08-13T09:40:15Z</time>
      </trkpt>
      <trkpt lat="48.080381" lon="-4.420469">
        <ele>83.0</ele>
        <time>2020-08-13T09:40:17Z</time>
      </trkpt>
      <trkpt lat="48.080232" lon="-4.420201">
        <ele>83.0</ele>
        <time>2020-08-13T09:40:18Z</time>
      </trkpt>
      <trkpt lat="48.079853" lon="-4.419625">
        <ele>80.2</ele>
        <time>2020-08-13T09:40:21Z</time>
      </trkpt>
      <trkpt lat="48.079674" lon="-4.419324">
        <ele>80.2</ele>
        <time>2020-08-13T09:40:23Z</time>
      </trkpt>
      <trkpt lat="48.079536" lon="-4.419015">
        <ele>80.2</ele>
        <time>2020-08-13T09:40:24Z</time>
      </trkpt>
      <trkpt lat="48.079488" lon="-4.419021">
        <ele>80.2</ele>
        <time>2020-08-13T09:40:25Z</time>
      </trkpt>
      <trkpt lat="48.079461" lon="-4.419002">
        <ele>80.2</ele>
        <time>2020-08-13T09:40:25Z</time>
      </trkpt>
      <trkpt lat="48.079433" lon="-4.418939">
        <ele>80.2</ele>
        <time>2020-08-13T09:40:25Z</time>
      </trkpt>
      <trkpt lat="48.079437" lon="-4.418863">
        <ele>80.2</ele>
        <time>2020-08-13T09:40:26Z</time>
      </trkpt>
      <trkpt lat="48.079478" lon="-4.418805">
        <ele>80.2</ele>
        <time>2020-08-13T09:40:27Z</time>
      </trkpt>
      <trkpt lat="48.079506" lon="-4.418797">
        <ele>80.2</ele>
        <time>2020-08-13T09:40:27Z</time>
      </trkpt>
      <trkpt lat="48.079712" lon="-4.417722">
        <ele>79.4</ele>
        <time>2020-08-13T09:40:34Z</time>
      </trkpt>
      <trkpt lat="48.079935" lon="-4.41719">
        <ele>77.8</ele>
        <time>2020-08-13T09:40:39Z</time>
      </trkpt>
      <trkpt lat="48.079983" lon="-4.416992">
        <ele>77.8</ele>
        <time>2020-08-13T09:40:40Z</time>
      </trkpt>
      <trkpt lat="48.080129" lon="-4.416033">
        <ele>79.2</ele>
        <time>2020-08-13T09:40:47Z</time>
      </trkpt>
      <trkpt lat="48.080319" lon="-4.41524">
        <ele>77.8</ele>
        <time>2020-08-13T09:40:53Z</time>
      </trkpt>
      <trkpt lat="48.080333" lon="-4.414759">
        <ele>77.2</ele>
        <time>2020-08-13T09:40:56Z</time>
      </trkpt>
      <trkpt lat="48.080229" lon="-4.414477">
        <ele>77.2</ele>
        <time>2020-08-13T09:40:58Z</time>
      </trkpt>
      <trkpt lat="48.080196" lon="-4.414334">
        <ele>77.2</ele>
        <time>2020-08-13T09:40:59Z</time>
      </trkpt>
      <trkpt lat="48.080228" lon="-4.414159">
        <ele>77.4</ele>
        <time>2020-08-13T09:41:00Z</time>
      </trkpt>
      <trkpt lat="48.080298" lon="-4.414003">
        <ele>77.4</ele>
        <time>2020-08-13T09:41:02Z</time>
      </trkpt>
      <trkpt lat="48.080427" lon="-4.413846">
        <ele>77.4</ele>
        <time>2020-08-13T09:41:03Z</time>
      </trkpt>
      <trkpt lat="48.080542" lon="-4.413567">
        <ele>77.4</ele>
        <time>2020-08-13T09:41:06Z</time>
      </trkpt>
      <trkpt lat="48.08056" lon="-4.413129">
        <ele>76.6</ele>
        <time>2020-08-13T09:41:09Z</time>
      </trkpt>
      <trkpt lat="48.080585" lon="-4.413035">
        <ele>76.6</ele>
        <time>2020-08-13T09:41:09Z</time>
      </trkpt>
      <trkpt lat="48.080629" lon="-4.412953">
        <ele>76.6</ele>
        <time>2020-08-13T09:41:10Z</time>
      </trkpt>
      <trkpt lat="48.081109" lon="-4.412421">
        <ele>74.8</ele>
        <time>2020-08-13T09:41:16Z</time>
      </trkpt>
      <trkpt lat="48.081408" lon="-4.412023">
        <ele>74.8</ele>
        <time>2020-08-13T09:41:20Z</time>
      </trkpt>
      <trkpt lat="48.081476" lon="-4.411903">
        <ele>74.8</ele>
        <time>2020-08-13T09:41:21Z</time>
      </trkpt>
      <trkpt lat="48.081957" lon="-4.410414">
        <ele>70.2</ele>
        <time>2020-08-13T09:41:33Z</time>
      </trkpt>
      <trkpt lat="48.081935" lon="-4.410394">
        <ele>70.2</ele>
        <time>2020-08-13T09:41:33Z</time>
      </trkpt>
      <trkpt lat="48.081912" lon="-4.410319">
        <ele>70.2</ele>
        <time>2020-08-13T09:41:34Z</time>
      </trkpt>
      <trkpt lat="48.081918" lon="-4.410261">
        <ele>70.2</ele>
        <time>2020-08-13T09:41:34Z</time>
      </trkpt>
      <trkpt lat="48.081945" lon="-4.410216">
        <ele>70.2</ele>
        <time>2020-08-13T09:41:35Z</time>
      </trkpt>
      <trkpt lat="48.082012" lon="-4.410206">
        <ele>70.2</ele>
        <time>2020-08-13T09:41:35Z</time>
      </trkpt>
      <trkpt lat="48.082517" lon="-4.408168">
        <ele>73.6</ele>
        <time>2020-08-13T09:41:50Z</time>
      </trkpt>
      <trkpt lat="48.082713" lon="-4.407594">
        <ele>73.6</ele>
        <time>2020-08-13T09:41:55Z</time>
      </trkpt>
      <trkpt lat="48.082928" lon="-4.406965">
        <ele>74.4</ele>
        <time>2020-08-13T09:41:57Z</time>
      </trkpt>
      <trkpt lat="48.083514" lon="-4.405643">
        <ele>77.2</ele>
        <time>2020-08-13T09:42:03Z</time>
      </trkpt>
      <trkpt lat="48.083757" lon="-4.404926">
        <ele>78.2</ele>
        <time>2020-08-13T09:42:05Z</time>
      </trkpt>
      <trkpt lat="48.083994" lon="-4.404039">
        <ele>79.6</ele>
        <time>2020-08-13T09:42:09Z</time>
      </trkpt>
      <trkpt lat="48.084169" lon="-4.403257">
        <ele>81.0</ele>
        <time>2020-08-13T09:42:11Z</time>
      </trkpt>
      <trkpt lat="48.084283" lon="-4.402292">
        <ele>82.2</ele>
        <time>2020-08-13T09:42:15Z</time>
      </trkpt>
      <trkpt lat="48.084308" lon="-4.401895">
        <ele>82.2</ele>
        <time>2020-08-13T09:42:16Z</time>
      </trkpt>
      <trkpt lat="48.084297" lon="-4.401029">
        <ele>83.0</ele>
        <time>2020-08-13T09:42:19Z</time>
      </trkpt>
      <trkpt lat="48.084359" lon="-4.398858">
        <ele>82.8</ele>
        <time>2020-08-13T09:42:27Z</time>
      </trkpt>
      <trkpt lat="48.084493" lon="-4.396447">
        <ele>81.8</ele>
        <time>2020-08-13T09:42:35Z</time>
      </trkpt>
      <trkpt lat="48.084525" lon="-4.396144">
        <ele>81.8</ele>
        <time>2020-08-13T09:42:36Z</time>
      </trkpt>
      <trkpt lat="48.084593" lon="-4.395761">
        <ele>83.2</ele>
        <time>2020-08-13T09:42:37Z</time>
      </trkpt>
      <trkpt lat="48.084761" lon="-4.395139">
        <ele>83.2</ele>
        <time>2020-08-13T09:42:40Z</time>
      </trkpt>
      <trkpt lat="48.084958" lon="-4.39463">
        <ele>84.2</ele>
        <time>2020-08-13T09:42:42Z</time>
      </trkpt>
      <trkpt lat="48.0854" lon="-4.393623">
        <ele>88.2</ele>
        <time>2020-08-13T09:42:46Z</time>
      </trkpt>
      <trkpt lat="48.085529" lon="-4.393285">
        <ele>88.8</ele>
        <time>2020-08-13T09:42:47Z</time>
      </trkpt>
      <trkpt lat="48.085652" lon="-4.392907">
        <ele>88.8</ele>
        <time>2020-08-13T09:42:49Z</time>
      </trkpt>
      <trkpt lat="48.085747" lon="-4.392462">
        <ele>89.2</ele>
        <time>2020-08-13T09:42:50Z</time>
      </trkpt>
      <trkpt lat="48.086022" lon="-4.390021">
        <ele>88.0</ele>
        <time>2020-08-13T09:42:59Z</time>
      </trkpt>
      <trkpt lat="48.086073" lon="-4.389018">
        <ele>85.8</ele>
        <time>2020-08-13T09:43:02Z</time>
      </trkpt>
      <trkpt lat="48.086052" lon="-4.388605">
        <ele>85.8</ele>
        <time>2020-08-13T09:43:04Z</time>
      </trkpt>
      <trkpt lat="48.08598" lon="-4.388208">
        <ele>86.4</ele>
        <time>2020-08-13T09:43:05Z</time>
      </trkpt>
      <trkpt lat="48.085752" lon="-4.387222">
        <ele>85.2</ele>
        <time>2020-08-13T09:43:09Z</time>
      </trkpt>
      <trkpt lat="48.085462" lon="-4.386034">
        <ele>85.8</ele>
        <time>2020-08-13T09:43:13Z</time>
      </trkpt>
      <trkpt lat="48.084442" lon="-4.38213">
        <ele>79.2</ele>
        <time>2020-08-13T09:43:28Z</time>
      </trkpt>
      <trkpt lat="48.084044" lon="-4.379875">
        <ele>75.4</ele>
        <time>2020-08-13T09:43:36Z</time>
      </trkpt>
      <trkpt lat="48.083991" lon="-4.379468">
        <ele>75.4</ele>
        <time>2020-08-13T09:43:37Z</time>
      </trkpt>
      <trkpt lat="48.083956" lon="-4.378932">
        <ele>75.2</ele>
        <time>2020-08-13T09:43:39Z</time>
      </trkpt>
      <trkpt lat="48.083954" lon="-4.378325">
        <ele>75.6</ele>
        <time>2020-08-13T09:43:41Z</time>
      </trkpt>
      <trkpt lat="48.083996" lon="-4.376714">
        <ele>74.8</ele>
        <time>2020-08-13T09:43:47Z</time>
      </trkpt>
      <trkpt lat="48.083989" lon="-4.375942">
        <ele>74.6</ele>
        <time>2020-08-13T09:43:49Z</time>
      </trkpt>
      <trkpt lat="48.083963" lon="-4.375584">
        <ele>75.0</ele>
        <time>2020-08-13T09:43:50Z</time>
      </trkpt>
      <trkpt lat="48.083869" lon="-4.37504">
        <ele>75.0</ele>
        <time>2020-08-13T09:43:52Z</time>
      </trkpt>
      <trkpt lat="48.083728" lon="-4.374513">
        <ele>75.0</ele>
        <time>2020-08-13T09:43:54Z</time>
      </trkpt>
      <trkpt lat="48.083014" lon="-4.372965">
        <ele>74.2</ele>
        <time>2020-08-13T09:44:01Z</time>
      </trkpt>
      <trkpt lat="48.082913" lon="-4.372682">
        <ele>74.2</ele>
        <time>2020-08-13T09:44:02Z</time>
      </trkpt>
      <trkpt lat="48.082813" lon="-4.372306">
        <ele>75.2</ele>
        <time>2020-08-13T09:44:03Z</time>
      </trkpt>
      <trkpt lat="48.082734" lon="-4.371915">
        <ele>75.2</ele>
        <time>2020-08-13T09:44:05Z</time>
      </trkpt>
      <trkpt lat="48.082678" lon="-4.371495">
        <ele>75.8</ele>
        <time>2020-08-13T09:44:06Z</time>
      </trkpt>
      <trkpt lat="48.082508" lon="-4.36912">
        <ele>77.6</ele>
        <time>2020-08-13T09:44:14Z</time>
      </trkpt>
      <trkpt lat="48.082455" lon="-4.368682">
        <ele>75.6</ele>
        <time>2020-08-13T09:44:16Z</time>
      </trkpt>
      <trkpt lat="48.082389" lon="-4.368293">
        <ele>76.4</ele>
        <time>2020-08-13T09:44:17Z</time>
      </trkpt>
      <trkpt lat="48.082258" lon="-4.367748">
        <ele>76.4</ele>
        <time>2020-08-13T09:44:19Z</time>
      </trkpt>
      <trkpt lat="48.08171" lon="-4.365868">
        <ele>76.0</ele>
        <time>2020-08-13T09:44:26Z</time>
      </trkpt>
      <trkpt lat="48.081502" lon="-4.365233">
        <ele>77.4</ele>
        <time>2020-08-13T09:44:29Z</time>
      </trkpt>
      <trkpt lat="48.081241" lon="-4.364183">
        <ele>78.8</ele>
        <time>2020-08-13T09:44:33Z</time>
      </trkpt>
      <trkpt lat="48.081148" lon="-4.36365">
        <ele>79.6</ele>
        <time>2020-08-13T09:44:35Z</time>
      </trkpt>
      <trkpt lat="48.081028" lon="-4.362822">
        <ele>79.6</ele>
        <time>2020-08-13T09:44:38Z</time>
      </trkpt>
      <trkpt lat="48.080732" lon="-4.359493">
        <ele>78.0</ele>
        <time>2020-08-13T09:44:49Z</time>
      </trkpt>
      <trkpt lat="48.080719" lon="-4.35887">
        <ele>76.6</ele>
        <time>2020-08-13T09:44:51Z</time>
      </trkpt>
      <trkpt lat="48.080734" lon="-4.358424">
        <ele>76.6</ele>
        <time>2020-08-13T09:44:53Z</time>
      </trkpt>
      <trkpt lat="48.080778" lon="-4.358083">
        <ele>76.2</ele>
        <time>2020-08-13T09:44:54Z</time>
      </trkpt>
      <trkpt lat="48.080855" lon="-4.357726">
        <ele>75.6</ele>
        <time>2020-08-13T09:44:55Z</time>
      </trkpt>
      <trkpt lat="48.080558" lon="-4.357566">
        <ele>76.2</ele>
        <time>2020-08-13T09:44:58Z</time>
      </trkpt>
      <trkpt lat="48.080498" lon="-4.35751">
        <ele>76.2</ele>
        <time>2020-08-13T09:44:59Z</time>
      </trkpt>
      <trkpt lat="48.080391" lon="-4.357331">
        <ele>76.2</ele>
        <time>2020-08-13T09:45:00Z</time>
      </trkpt>
      <trkpt lat="48.080131" lon="-4.356027">
        <ele>75.6</ele>
        <time>2020-08-13T09:45:08Z</time>
      </trkpt>
      <trkpt lat="48.079881" lon="-4.354509">
        <ele>72.2</ele>
        <time>2020-08-13T09:45:17Z</time>
      </trkpt>
      <trkpt lat="48.07953" lon="-4.352654">
        <ele>72.0</ele>
        <time>2020-08-13T09:45:29Z</time>
      </trkpt>
      <trkpt lat="48.079327" lon="-4.351939">
        <ele>72.2</ele>
        <time>2020-08-13T09:45:33Z</time>
      </trkpt>
      <trkpt lat="48.07922" lon="-4.351643">
        <ele>71.6</ele>
        <time>2020-08-13T09:45:35Z</time>
      </trkpt>
      <trkpt lat="48.079088" lon="-4.351395">
        <ele>68.6</ele>
        <time>2020-08-13T09:45:37Z</time>
      </trkpt>
      <trkpt lat="48.07891" lon="-4.351119">
        <ele>68.6</ele>
        <time>2020-08-13T09:45:39Z</time>
      </trkpt>
      <trkpt lat="48.078752" lon="-4.350767">
        <ele>67.6</ele>
        <time>2020-08-13T09:45:42Z</time>
      </trkpt>
      <trkpt lat="48.078657" lon="-4.35045">
        <ele>67.6</ele>
        <time>2020-08-13T09:45:44Z</time>
      </trkpt>
      <trkpt lat="48.078443" lon="-4.349586">
        <ele>66.6</ele>
        <time>2020-08-13T09:45:49Z</time>
      </trkpt>
      <trkpt lat="48.078344" lon="-4.348963">
        <ele>66.2</ele>
        <time>2020-08-13T09:45:53Z</time>
      </trkpt>
      <trkpt lat="48.078354" lon="-4.34838">
        <ele>66.2</ele>
        <time>2020-08-13T09:45:57Z</time>
      </trkpt>
      <trkpt lat="48.078383" lon="-4.347753">
        <ele>66.0</ele>
        <time>2020-08-13T09:46:00Z</time>
      </trkpt>
      <trkpt lat="48.078388" lon="-4.347022">
        <ele>64.0</ele>
        <time>2020-08-13T09:46:05Z</time>
      </trkpt>
      <trkpt lat="48.078294" lon="-4.34659">
        <ele>54.2</ele>
        <time>2020-08-13T09:46:07Z</time>
      </trkpt>
      <trkpt lat="48.078246" lon="-4.34629">
        <ele>54.2</ele>
        <time>2020-08-13T09:46:09Z</time>
      </trkpt>
      <trkpt lat="48.078239" lon="-4.346154">
        <ele>54.2</ele>
        <time>2020-08-13T09:46:10Z</time>
      </trkpt>
      <trkpt lat="48.078259" lon="-4.345987">
        <ele>54.2</ele>
        <time>2020-08-13T09:46:11Z</time>
      </trkpt>
      <trkpt lat="48.07829" lon="-4.345873">
        <ele>54.2</ele>
        <time>2020-08-13T09:46:12Z</time>
      </trkpt>
      <trkpt lat="48.078644" lon="-4.345032">
        <ele>57.0</ele>
        <time>2020-08-13T09:46:18Z</time>
      </trkpt>
      <trkpt lat="48.078723" lon="-4.344779">
        <ele>52.8</ele>
        <time>2020-08-13T09:46:19Z</time>
      </trkpt>
      <trkpt lat="48.078772" lon="-4.344491">
        <ele>52.8</ele>
        <time>2020-08-13T09:46:21Z</time>
      </trkpt>
      <trkpt lat="48.078802" lon="-4.344196">
        <ele>52.8</ele>
        <time>2020-08-13T09:46:23Z</time>
      </trkpt>
      <trkpt lat="48.078811" lon="-4.343827">
        <ele>48.6</ele>
        <time>2020-08-13T09:46:25Z</time>
      </trkpt>
      <trkpt lat="48.078951" lon="-4.342741">
        <ele>44.4</ele>
        <time>2020-08-13T09:46:31Z</time>
      </trkpt>
      <trkpt lat="48.079069" lon="-4.342095">
        <ele>39.6</ele>
        <time>2020-08-13T09:46:35Z</time>
      </trkpt>
      <trkpt lat="48.079149" lon="-4.341233">
        <ele>34.8</ele>
        <time>2020-08-13T09:46:41Z</time>
      </trkpt>
      <trkpt lat="48.079127" lon="-4.340368">
        <ele>30.2</ele>
        <time>2020-08-13T09:46:46Z</time>
      </trkpt>
      <trkpt lat="48.079135" lon="-4.340077">
        <ele>30.2</ele>
        <time>2020-08-13T09:46:47Z</time>
      </trkpt>
      <trkpt lat="48.079045" lon="-4.339175">
        <ele>27.8</ele>
        <time>2020-08-13T09:46:53Z</time>
      </trkpt>
      <trkpt lat="48.07903" lon="-4.338869">
        <ele>25.2</ele>
        <time>2020-08-13T09:46:55Z</time>
      </trkpt>
      <trkpt lat="48.079059" lon="-4.338286">
        <ele>19.8</ele>
        <time>2020-08-13T09:46:58Z</time>
      </trkpt>
      <trkpt lat="48.079101" lon="-4.338089">
        <ele>19.8</ele>
        <time>2020-08-13T09:46:59Z</time>
      </trkpt>
      <trkpt lat="48.07918" lon="-4.337928">
        <ele>21.4</ele>
        <time>2020-08-13T09:47:00Z</time>
      </trkpt>
      <trkpt lat="48.079357" lon="-4.337644">
        <ele>21.4</ele>
        <time>2020-08-13T09:47:03Z</time>
      </trkpt>
      <trkpt lat="48.079522" lon="-4.337424">
        <ele>13.8</ele>
        <time>2020-08-13T09:47:05Z</time>
      </trkpt>
      <trkpt lat="48.079606" lon="-4.337208">
        <ele>13.8</ele>
        <time>2020-08-13T09:47:06Z</time>
      </trkpt>
      <trkpt lat="48.079609" lon="-4.337026">
        <ele>13.8</ele>
        <time>2020-08-13T09:47:07Z</time>
      </trkpt>
      <trkpt lat="48.079116" lon="-4.335064">
        <ele>16.8</ele>
        <time>2020-08-13T09:47:20Z</time>
      </trkpt>
      <trkpt lat="48.079092" lon="-4.334715">
        <ele>20.4</ele>
        <time>2020-08-13T09:47:22Z</time>
      </trkpt>
      <trkpt lat="48.079031" lon="-4.334219">
        <ele>20.4</ele>
        <time>2020-08-13T09:47:26Z</time>
      </trkpt>
      <trkpt lat="48.079024" lon="-4.333844">
        <ele>21.6</ele>
        <time>2020-08-13T09:47:28Z</time>
      </trkpt>
      <trkpt lat="48.078981" lon="-4.333103">
        <ele>21.8</ele>
        <time>2020-08-13T09:47:33Z</time>
      </trkpt>
      <trkpt lat="48.078986" lon="-4.332883">
        <ele>21.8</ele>
        <time>2020-08-13T09:47:35Z</time>
      </trkpt>
      <trkpt lat="48.078916" lon="-4.33158">
        <ele>18.2</ele>
        <time>2020-08-13T09:47:44Z</time>
      </trkpt>
      <trkpt lat="48.07891" lon="-4.331198">
        <ele>18.2</ele>
        <time>2020-08-13T09:47:46Z</time>
      </trkpt>
      <trkpt lat="48.078918" lon="-4.331078">
        <ele>18.2</ele>
        <time>2020-08-13T09:47:47Z</time>
      </trkpt>
      <trkpt lat="48.078947" lon="-4.330972">
        <ele>18.2</ele>
        <time>2020-08-13T09:47:48Z</time>
      </trkpt>
      <trkpt lat="48.07916" lon="-4.330275">
        <ele>13.0</ele>
        <time>2020-08-13T09:47:53Z</time>
      </trkpt>
      <trkpt lat="48.079142" lon="-4.330147">
        <ele>13.0</ele>
        <time>2020-08-13T09:47:54Z</time>
      </trkpt>
      <trkpt lat="48.079156" lon="-4.330091">
        <ele>13.0</ele>
        <time>2020-08-13T09:47:55Z</time>
      </trkpt>
      <trkpt lat="48.079227" lon="-4.330011">
        <ele>6.8</ele>
        <time>2020-08-13T09:47:56Z</time>
      </trkpt>
      <trkpt lat="48.079266" lon="-4.330006">
        <ele>6.8</ele>
        <time>2020-08-13T09:47:56Z</time>
      </trkpt>
      <trkpt lat="48.079482" lon="-4.329411">
        <ele>6.0</ele>
        <time>2020-08-13T09:48:01Z</time>
      </trkpt>
      <trkpt lat="48.079488" lon="-4.329135">
        <ele>7.4</ele>
        <time>2020-08-13T09:48:03Z</time>
      </trkpt>
      <trkpt lat="48.079489" lon="-4.329032">
        <ele>7.4</ele>
        <time>2020-08-13T09:48:04Z</time>
      </trkpt>
      <trkpt lat="48.07951" lon="-4.32898">
        <ele>7.4</ele>
        <time>2020-08-13T09:48:04Z</time>
      </trkpt>
      <trkpt lat="48.07963" lon="-4.328864">
        <ele>7.4</ele>
        <time>2020-08-13T09:48:05Z</time>
      </trkpt>
      <trkpt lat="48.07973" lon="-4.328689">
        <ele>7.4</ele>
        <time>2020-08-13T09:48:07Z</time>
      </trkpt>
      <trkpt lat="48.080209" lon="-4.327382">
        <ele>11.0</ele>
        <time>2020-08-13T09:48:17Z</time>
      </trkpt>
      <trkpt lat="48.080476" lon="-4.326873">
        <ele>11.0</ele>
        <time>2020-08-13T09:48:22Z</time>
      </trkpt>
      <trkpt lat="48.080478" lon="-4.326704">
        <ele>11.0</ele>
        <time>2020-08-13T09:48:23Z</time>
      </trkpt>
      <trkpt lat="48.080547" lon="-4.326537">
        <ele>14.4</ele>
        <time>2020-08-13T09:48:25Z</time>
      </trkpt>
      <trkpt lat="48.080661" lon="-4.326043">
        <ele>14.4</ele>
        <time>2020-08-13T09:48:29Z</time>
      </trkpt>
      <trkpt lat="48.080664" lon="-4.325579">
        <ele>17.2</ele>
        <time>2020-08-13T09:48:33Z</time>
      </trkpt>
      <trkpt lat="48.080592" lon="-4.325142">
        <ele>17.2</ele>
        <time>2020-08-13T09:48:37Z</time>
      </trkpt>
      <trkpt lat="48.08053" lon="-4.324922">
        <ele>18.4</ele>
        <time>2020-08-13T09:48:39Z</time>
      </trkpt>
      <trkpt lat="48.080383" lon="-4.324615">
        <ele>18.4</ele>
        <time>2020-08-13T09:48:42Z</time>
      </trkpt>
      <trkpt lat="48.079481" lon="-4.323196">
        <ele>25.0</ele>
        <time>2020-08-13T09:48:59Z</time>
      </trkpt>
      <trkpt lat="48.078825" lon="-4.322222">
        <ele>30.2</ele>
        <time>2020-08-13T09:49:11Z</time>
      </trkpt>
      <trkpt lat="48.078894" lon="-4.322126">
        <ele>30.2</ele>
        <time>2020-08-13T09:49:12Z</time>
      </trkpt>
      <trkpt lat="48.079137" lon="-4.321918">
        <ele>30.2</ele>
        <time>2020-08-13T09:49:15Z</time>
      </trkpt>
      <trkpt lat="48.079699" lon="-4.321071">
        <ele>21.2</ele>
        <time>2020-08-13T09:49:23Z</time>
      </trkpt>
      <trkpt lat="48.080048" lon="-4.320476">
        <ele>24.2</ele>
        <time>2020-08-13T09:49:28Z</time>
      </trkpt>
      <trkpt lat="48.08009" lon="-4.320373">
        <ele>24.2</ele>
        <time>2020-08-13T09:49:29Z</time>
      </trkpt>
      <trkpt lat="48.080177" lon="-4.320017">
        <ele>24.2</ele>
        <time>2020-08-13T09:49:32Z</time>
      </trkpt>
      <trkpt lat="48.080306" lon="-4.319194">
        <ele>26.8</ele>
        <time>2020-08-13T09:49:37Z</time>
      </trkpt>
      <trkpt lat="48.080412" lon="-4.318806">
        <ele>30.0</ele>
        <time>2020-08-13T09:49:40Z</time>
      </trkpt>
      <trkpt lat="48.080539" lon="-4.318503">
        <ele>30.0</ele>
        <time>2020-08-13T09:49:43Z</time>
      </trkpt>
      <trkpt lat="48.080764" lon="-4.318145">
        <ele>34.2</ele>
        <time>2020-08-13T09:49:46Z</time>
      </trkpt>
      <trkpt lat="48.082018" lon="-4.316454">
        <ele>51.0</ele>
        <time>2020-08-13T09:50:04Z</time>
      </trkpt>
      <trkpt lat="48.082242" lon="-4.315972">
        <ele>51.0</ele>
        <time>2020-08-13T09:50:08Z</time>
      </trkpt>
      <trkpt lat="48.082285" lon="-4.3158">
        <ele>48.6</ele>
        <time>2020-08-13T09:50:09Z</time>
      </trkpt>
      <trkpt lat="48.08234" lon="-4.315722">
        <ele>48.6</ele>
        <time>2020-08-13T09:50:10Z</time>
      </trkpt>
      <trkpt lat="48.08241" lon="-4.315676">
        <ele>48.6</ele>
        <time>2020-08-13T09:50:11Z</time>
      </trkpt>
      <trkpt lat="48.082497" lon="-4.315671">
        <ele>48.6</ele>
        <time>2020-08-13T09:50:11Z</time>
      </trkpt>
      <trkpt lat="48.082874" lon="-4.315299">
        <ele>52.6</ele>
        <time>2020-08-13T09:50:16Z</time>
      </trkpt>
      <trkpt lat="48.084584" lon="-4.312942">
        <ele>57.6</ele>
        <time>2020-08-13T09:50:40Z</time>
      </trkpt>
      <trkpt lat="48.084552" lon="-4.312864">
        <ele>57.6</ele>
        <time>2020-08-13T09:50:41Z</time>
      </trkpt>
      <trkpt lat="48.084558" lon="-4.312773">
        <ele>57.6</ele>
        <time>2020-08-13T09:50:41Z</time>
      </trkpt>
      <trkpt lat="48.084574" lon="-4.312734">
        <ele>57.6</ele>
        <time>2020-08-13T09:50:42Z</time>
      </trkpt>
      <trkpt lat="48.084599" lon="-4.312704">
        <ele>57.6</ele>
        <time>2020-08-13T09:50:42Z</time>
      </trkpt>
      <trkpt lat="48.084661" lon="-4.312687">
        <ele>57.6</ele>
        <time>2020-08-13T09:50:42Z</time>
      </trkpt>
      <trkpt lat="48.084717" lon="-4.312731">
        <ele>57.6</ele>
        <time>2020-08-13T09:50:43Z</time>
      </trkpt>
      <trkpt lat="48.085838" lon="-4.311354">
        <ele>71.8</ele>
        <time>2020-08-13T09:50:58Z</time>
      </trkpt>
      <trkpt lat="48.085967" lon="-4.311133">
        <ele>71.8</ele>
        <time>2020-08-13T09:51:00Z</time>
      </trkpt>
      <trkpt lat="48.086514" lon="-4.310339">
        <ele>74.0</ele>
        <time>2020-08-13T09:51:08Z</time>
      </trkpt>
      <trkpt lat="48.086844" lon="-4.309551">
        <ele>74.8</ele>
        <time>2020-08-13T09:51:14Z</time>
      </trkpt>
      <trkpt lat="48.087082" lon="-4.308136">
        <ele>75.6</ele>
        <time>2020-08-13T09:51:24Z</time>
      </trkpt>
      <trkpt lat="48.087543" lon="-4.306896">
        <ele>70.2</ele>
        <time>2020-08-13T09:51:34Z</time>
      </trkpt>
      <trkpt lat="48.087669" lon="-4.306441">
        <ele>67.6</ele>
        <time>2020-08-13T09:51:37Z</time>
      </trkpt>
      <trkpt lat="48.087843" lon="-4.306192">
        <ele>67.6</ele>
        <time>2020-08-13T09:51:40Z</time>
      </trkpt>
      <trkpt lat="48.087806" lon="-4.305982">
        <ele>67.6</ele>
        <time>2020-08-13T09:51:41Z</time>
      </trkpt>
      <trkpt lat="48.087802" lon="-4.30575">
        <ele>64.6</ele>
        <time>2020-08-13T09:51:43Z</time>
      </trkpt>
      <trkpt lat="48.087852" lon="-4.305437">
        <ele>64.6</ele>
        <time>2020-08-13T09:51:45Z</time>
      </trkpt>
      <trkpt lat="48.087935" lon="-4.305161">
        <ele>64.6</ele>
        <time>2020-08-13T09:51:47Z</time>
      </trkpt>
      <trkpt lat="48.08811" lon="-4.304725">
        <ele>63.4</ele>
        <time>2020-08-13T09:51:51Z</time>
      </trkpt>
      <trkpt lat="48.088192" lon="-4.304591">
        <ele>63.4</ele>
        <time>2020-08-13T09:51:52Z</time>
      </trkpt>
      <trkpt lat="48.088325" lon="-4.304445">
        <ele>63.4</ele>
        <time>2020-08-13T09:51:53Z</time>
      </trkpt>
      <trkpt lat="48.088889" lon="-4.303892">
        <ele>51.0</ele>
        <time>2020-08-13T09:52:00Z</time>
      </trkpt>
      <trkpt lat="48.089112" lon="-4.303557">
        <ele>51.0</ele>
        <time>2020-08-13T09:52:04Z</time>
      </trkpt>
      <trkpt lat="48.089476" lon="-4.30284">
        <ele>43.25</ele>
        <time>2020-08-13T09:52:10Z</time>
      </trkpt>
      <trkpt lat="48.089867" lon="-4.301939">
        <ele>39.8</ele>
        <time>2020-08-13T09:52:17Z</time>
      </trkpt>
      <trkpt lat="48.089983" lon="-4.301616">
        <ele>42.4</ele>
        <time>2020-08-13T09:52:20Z</time>
      </trkpt>
      <trkpt lat="48.090067" lon="-4.3013">
        <ele>26.5</ele>
        <time>2020-08-13T09:52:23Z</time>
      </trkpt>
      <trkpt lat="48.090109" lon="-4.300971">
        <ele>26.5</ele>
        <time>2020-08-13T09:52:25Z</time>
      </trkpt>
      <trkpt lat="48.090203" lon="-4.299695">
        <ele>29.75</ele>
        <time>2020-08-13T09:52:34Z</time>
      </trkpt>
      <trkpt lat="48.090257" lon="-4.29924">
        <ele>29.75</ele>
        <time>2020-08-13T09:52:37Z</time>
      </trkpt>
      <trkpt lat="48.090333" lon="-4.298899">
        <ele>22.0</ele>
        <time>2020-08-13T09:52:39Z</time>
      </trkpt>
      <trkpt lat="48.090447" lon="-4.2986">
        <ele>22.0</ele>
        <time>2020-08-13T09:52:42Z</time>
      </trkpt>
      <trkpt lat="48.090573" lon="-4.298417">
        <ele>22.0</ele>
        <time>2020-08-13T09:52:43Z</time>
      </trkpt>
      <trkpt lat="48.091856" lon="-4.296874">
        <ele>6.0</ele>
        <time>2020-08-13T09:53:00Z</time>
      </trkpt>
      <trkpt lat="48.092025" lon="-4.296593">
        <ele>6.8</ele>
        <time>2020-08-13T09:53:03Z</time>
      </trkpt>
      <trkpt lat="48.092151" lon="-4.296277">
        <ele>6.8</ele>
        <time>2020-08-13T09:53:05Z</time>
      </trkpt>
      <trkpt lat="48.092239" lon="-4.295986">
        <ele>6.8</ele>
        <time>2020-08-13T09:53:08Z</time>
      </trkpt>
      <trkpt lat="48.09229" lon="-4.295745">
        <ele>7.4</ele>
        <time>2020-08-13T09:53:09Z</time>
      </trkpt>
      <trkpt lat="48.092327" lon="-4.295459">
        <ele>7.4</ele>
        <time>2020-08-13T09:53:11Z</time>
      </trkpt>
      <trkpt lat="48.092338" lon="-4.295014">
        <ele>7.4</ele>
        <time>2020-08-13T09:53:14Z</time>
      </trkpt>
      <trkpt lat="48.092306" lon="-4.294651">
        <ele>8.8</ele>
        <time>2020-08-13T09:53:17Z</time>
      </trkpt>
      <trkpt lat="48.092275" lon="-4.294486">
        <ele>8.8</ele>
        <time>2020-08-13T09:53:18Z</time>
      </trkpt>
      <trkpt lat="48.091822" lon="-4.292726">
        <ele>15.6</ele>
        <time>2020-08-13T09:53:31Z</time>
      </trkpt>
      <trkpt lat="48.091694" lon="-4.292001">
        <ele>18.6</ele>
        <time>2020-08-13T09:53:36Z</time>
      </trkpt>
      <trkpt lat="48.091676" lon="-4.29131">
        <ele>20.8</ele>
        <time>2020-08-13T09:53:41Z</time>
      </trkpt>
      <trkpt lat="48.091754" lon="-4.290795">
        <ele>22.8</ele>
        <time>2020-08-13T09:53:44Z</time>
      </trkpt>
      <trkpt lat="48.091886" lon="-4.29023">
        <ele>22.8</ele>
        <time>2020-08-13T09:53:49Z</time>
      </trkpt>
      <trkpt lat="48.09219" lon="-4.289389">
        <ele>24.8</ele>
        <time>2020-08-13T09:53:55Z</time>
      </trkpt>
      <trkpt lat="48.092395" lon="-4.289039">
        <ele>26.6</ele>
        <time>2020-08-13T09:53:58Z</time>
      </trkpt>
      <trkpt lat="48.092822" lon="-4.288692">
        <ele>34.2</ele>
        <time>2020-08-13T09:54:03Z</time>
      </trkpt>
      <trkpt lat="48.09319" lon="-4.28849">
        <ele>34.2</ele>
        <time>2020-08-13T09:54:07Z</time>
      </trkpt>
      <trkpt lat="48.093609" lon="-4.288228">
        <ele>39.2</ele>
        <time>2020-08-13T09:54:12Z</time>
      </trkpt>
      <trkpt lat="48.094293" lon="-4.287541">
        <ele>46.0</ele>
        <time>2020-08-13T09:54:20Z</time>
      </trkpt>
      <trkpt lat="48.094441" lon="-4.287317">
        <ele>42.8</ele>
        <time>2020-08-13T09:54:23Z</time>
      </trkpt>
      <trkpt lat="48.094562" lon="-4.28701">
        <ele>42.8</ele>
        <time>2020-08-13T09:54:25Z</time>
      </trkpt>
      <trkpt lat="48.094683" lon="-4.286629">
        <ele>43.4</ele>
        <time>2020-08-13T09:54:28Z</time>
      </trkpt>
      <trkpt lat="48.094729" lon="-4.286419">
        <ele>43.4</ele>
        <time>2020-08-13T09:54:29Z</time>
      </trkpt>
      <trkpt lat="48.094748" lon="-4.286229">
        <ele>43.4</ele>
        <time>2020-08-13T09:54:32Z</time>
      </trkpt>
      <trkpt lat="48.094869" lon="-4.286271">
        <ele>43.4</ele>
        <time>2020-08-13T09:54:33Z</time>
      </trkpt>
      <trkpt lat="48.094952" lon="-4.286358">
        <ele>43.4</ele>
        <time>2020-08-13T09:54:33Z</time>
      </trkpt>
      <trkpt lat="48.095408" lon="-4.286959">
        <ele>49.2</ele>
        <time>2020-08-13T09:54:38Z</time>
      </trkpt>
      <trkpt lat="48.095552" lon="-4.287063">
        <ele>49.2</ele>
        <time>2020-08-13T09:54:39Z</time>
      </trkpt>
      <trkpt lat="48.095667" lon="-4.287082">
        <ele>49.2</ele>
        <time>2020-08-13T09:54:40Z</time>
      </trkpt>
      <trkpt lat="48.095766" lon="-4.28707">
        <ele>49.2</ele>
        <time>2020-08-13T09:54:41Z</time>
      </trkpt>
      <trkpt lat="48.095838" lon="-4.287021">
        <ele>55.4</ele>
        <time>2020-08-13T09:54:42Z</time>
      </trkpt>
      <trkpt lat="48.096002" lon="-4.286735">
        <ele>55.4</ele>
        <time>2020-08-13T09:54:44Z</time>
      </trkpt>
      <trkpt lat="48.096273" lon="-4.285998">
        <ele>55.2</ele>
        <time>2020-08-13T09:54:48Z</time>
      </trkpt>
      <trkpt lat="48.096697" lon="-4.285003">
        <ele>60.0</ele>
        <time>2020-08-13T09:54:54Z</time>
      </trkpt>
      <trkpt lat="48.096932" lon="-4.284298">
        <ele>60.2</ele>
        <time>2020-08-13T09:54:58Z</time>
      </trkpt>
      <trkpt lat="48.097072" lon="-4.28374">
        <ele>62.0</ele>
        <time>2020-08-13T09:55:01Z</time>
      </trkpt>
      <trkpt lat="48.097189" lon="-4.283161">
        <ele>63.6</ele>
        <time>2020-08-13T09:55:04Z</time>
      </trkpt>
      <trkpt lat="48.097427" lon="-4.282574">
        <ele>63.6</ele>
        <time>2020-08-13T09:55:08Z</time>
      </trkpt>
      <trkpt lat="48.097674" lon="-4.282134">
        <ele>64.0</ele>
        <time>2020-08-13T09:55:11Z</time>
      </trkpt>
      <trkpt lat="48.098693" lon="-4.280534">
        <ele>58.6</ele>
        <time>2020-08-13T09:55:22Z</time>
      </trkpt>
      <trkpt lat="48.098939" lon="-4.280075">
        <ele>58.6</ele>
        <time>2020-08-13T09:55:25Z</time>
      </trkpt>
      <trkpt lat="48.099033" lon="-4.279854">
        <ele>56.8</ele>
        <time>2020-08-13T09:55:26Z</time>
      </trkpt>
      <trkpt lat="48.099502" lon="-4.278487">
        <ele>43.0</ele>
        <time>2020-08-13T09:55:34Z</time>
      </trkpt>
      <trkpt lat="48.099947" lon="-4.276957">
        <ele>41.6</ele>
        <time>2020-08-13T09:55:43Z</time>
      </trkpt>
      <trkpt lat="48.100417" lon="-4.275492">
        <ele>53.4</ele>
        <time>2020-08-13T09:55:51Z</time>
      </trkpt>
      <trkpt lat="48.100801" lon="-4.274543">
        <ele>57.2</ele>
        <time>2020-08-13T09:55:57Z</time>
      </trkpt>
      <trkpt lat="48.10203" lon="-4.271714">
        <ele>65.8</ele>
        <time>2020-08-13T09:56:14Z</time>
      </trkpt>
      <trkpt lat="48.102176" lon="-4.271411">
        <ele>66.8</ele>
        <time>2020-08-13T09:56:16Z</time>
      </trkpt>
      <trkpt lat="48.10233" lon="-4.27099">
        <ele>66.8</ele>
        <time>2020-08-13T09:56:19Z</time>
      </trkpt>
      <trkpt lat="48.102716" lon="-4.269541">
        <ele>66.6</ele>
        <time>2020-08-13T09:56:27Z</time>
      </trkpt>
      <trkpt lat="48.103102" lon="-4.268458">
        <ele>66.6</ele>
        <time>2020-08-13T09:56:33Z</time>
      </trkpt>
      <trkpt lat="48.103347" lon="-4.267577">
        <ele>62.6</ele>
        <time>2020-08-13T09:56:38Z</time>
      </trkpt>
      <trkpt lat="48.103699" lon="-4.266846">
        <ele>62.8</ele>
        <time>2020-08-13T09:56:42Z</time>
      </trkpt>
      <trkpt lat="48.103742" lon="-4.266728">
        <ele>62.8</ele>
        <time>2020-08-13T09:56:43Z</time>
      </trkpt>
      <trkpt lat="48.103851" lon="-4.266275">
        <ele>62.6</ele>
        <time>2020-08-13T09:56:46Z</time>
      </trkpt>
      <trkpt lat="48.10397" lon="-4.265485">
        <ele>62.2</ele>
        <time>2020-08-13T09:56:50Z</time>
      </trkpt>
      <trkpt lat="48.104258" lon="-4.264104">
        <ele>56.4</ele>
        <time>2020-08-13T09:56:57Z</time>
      </trkpt>
      <trkpt lat="48.104771" lon="-4.261877">
        <ele>59.4</ele>
        <time>2020-08-13T09:57:09Z</time>
      </trkpt>
      <trkpt lat="48.104898" lon="-4.261188">
        <ele>61.8</ele>
        <time>2020-08-13T09:57:13Z</time>
      </trkpt>
      <trkpt lat="48.105032" lon="-4.260664">
        <ele>62.4</ele>
        <time>2020-08-13T09:57:16Z</time>
      </trkpt>
      <trkpt lat="48.105256" lon="-4.260055">
        <ele>62.4</ele>
        <time>2020-08-13T09:57:19Z</time>
      </trkpt>
      <trkpt lat="48.105529" lon="-4.259451">
        <ele>62.4</ele>
        <time>2020-08-13T09:57:23Z</time>
      </trkpt>
      <trkpt lat="48.105663" lon="-4.259116">
        <ele>61.8</ele>
        <time>2020-08-13T09:57:25Z</time>
      </trkpt>
      <trkpt lat="48.105938" lon="-4.258219">
        <ele>57.8</ele>
        <time>2020-08-13T09:57:30Z</time>
      </trkpt>
      <trkpt lat="48.106058" lon="-4.257917">
        <ele>57.8</ele>
        <time>2020-08-13T09:57:32Z</time>
      </trkpt>
      <trkpt lat="48.106283" lon="-4.257464">
        <ele>55.8</ele>
        <time>2020-08-13T09:57:35Z</time>
      </trkpt>
      <trkpt lat="48.106387" lon="-4.257326">
        <ele>55.8</ele>
        <time>2020-08-13T09:57:36Z</time>
      </trkpt>
      <trkpt lat="48.106933" lon="-4.256835">
        <ele>53.2</ele>
        <time>2020-08-13T09:57:41Z</time>
      </trkpt>
      <trkpt lat="48.107159" lon="-4.256585">
        <ele>53.0</ele>
        <time>2020-08-13T09:57:43Z</time>
      </trkpt>
      <trkpt lat="48.107269" lon="-4.25643">
        <ele>53.0</ele>
        <time>2020-08-13T09:57:44Z</time>
      </trkpt>
      <trkpt lat="48.107624" lon="-4.255842">
        <ele>54.0</ele>
        <time>2020-08-13T09:57:48Z</time>
      </trkpt>
      <trkpt lat="48.108147" lon="-4.254851">
        <ele>61.4</ele>
        <time>2020-08-13T09:57:55Z</time>
      </trkpt>
      <trkpt lat="48.108531" lon="-4.25406">
        <ele>65.8</ele>
        <time>2020-08-13T09:58:00Z</time>
      </trkpt>
      <trkpt lat="48.108678" lon="-4.253715">
        <ele>65.8</ele>
        <time>2020-08-13T09:58:02Z</time>
      </trkpt>
      <trkpt lat="48.108873" lon="-4.253126">
        <ele>68.0</ele>
        <time>2020-08-13T09:58:05Z</time>
      </trkpt>
      <trkpt lat="48.110009" lon="-4.249955">
        <ele>58.6</ele>
        <time>2020-08-13T09:58:24Z</time>
      </trkpt>
      <trkpt lat="48.111672" lon="-4.245936">
        <ele>38.8</ele>
        <time>2020-08-13T09:58:48Z</time>
      </trkpt>
      <trkpt lat="48.111822" lon="-4.245493">
        <ele>38.2</ele>
        <time>2020-08-13T09:58:50Z</time>
      </trkpt>
      <trkpt lat="48.112122" lon="-4.243823">
        <ele>31.6</ele>
        <time>2020-08-13T09:58:59Z</time>
      </trkpt>
      <trkpt lat="48.112293" lon="-4.243127">
        <ele>29.2</ele>
        <time>2020-08-13T09:59:03Z</time>
      </trkpt>
      <trkpt lat="48.112683" lon="-4.241789">
        <ele>29.6</ele>
        <time>2020-08-13T09:59:11Z</time>
      </trkpt>
      <trkpt lat="48.113403" lon="-4.24011">
        <ele>38.8</ele>
        <time>2020-08-13T09:59:21Z</time>
      </trkpt>
      <trkpt lat="48.113349" lon="-4.23977">
        <ele>43.0</ele>
        <time>2020-08-13T09:59:23Z</time>
      </trkpt>
      <trkpt lat="48.113701" lon="-4.239619">
        <ele>43.0</ele>
        <time>2020-08-13T09:59:25Z</time>
      </trkpt>
      <trkpt lat="48.114078" lon="-4.239564">
        <ele>43.0</ele>
        <time>2020-08-13T09:59:27Z</time>
      </trkpt>
      <trkpt lat="48.115936" lon="-4.239518">
        <ele>60.0</ele>
        <time>2020-08-13T09:59:38Z</time>
      </trkpt>
      <trkpt lat="48.117195" lon="-4.239469">
        <ele>64.4</ele>
        <time>2020-08-13T09:59:46Z</time>
      </trkpt>
      <trkpt lat="48.117432" lon="-4.239438">
        <ele>64.4</ele>
        <time>2020-08-13T09:59:47Z</time>
      </trkpt>
      <trkpt lat="48.11764" lon="-4.239367">
        <ele>67.8</ele>
        <time>2020-08-13T09:59:49Z</time>
      </trkpt>
      <trkpt lat="48.117928" lon="-4.239171">
        <ele>67.8</ele>
        <time>2020-08-13T09:59:51Z</time>
      </trkpt>
      <trkpt lat="48.118099" lon="-4.238996">
        <ele>71.2</ele>
        <time>2020-08-13T09:59:52Z</time>
      </trkpt>
      <trkpt lat="48.118294" lon="-4.238731">
        <ele>71.2</ele>
        <time>2020-08-13T09:59:53Z</time>
      </trkpt>
      <trkpt lat="48.118442" lon="-4.238443">
        <ele>72.6</ele>
        <time>2020-08-13T09:59:55Z</time>
      </trkpt>
      <trkpt lat="48.118619" lon="-4.23796">
        <ele>74.8</ele>
        <time>2020-08-13T09:59:57Z</time>
      </trkpt>
      <trkpt lat="48.119132" lon="-4.236061">
        <ele>78.0</ele>
        <time>2020-08-13T10:00:05Z</time>
      </trkpt>
      <trkpt lat="48.119304" lon="-4.235478">
        <ele>74.4</ele>
        <time>2020-08-13T10:00:08Z</time>
      </trkpt>
      <trkpt lat="48.119411" lon="-4.235198">
        <ele>74.4</ele>
        <time>2020-08-13T10:00:09Z</time>
      </trkpt>
      <trkpt lat="48.119755" lon="-4.234525">
        <ele>78.6</ele>
        <time>2020-08-13T10:00:12Z</time>
      </trkpt>
      <trkpt lat="48.119906" lon="-4.234162">
        <ele>84.0</ele>
        <time>2020-08-13T10:00:14Z</time>
      </trkpt>
      <trkpt lat="48.120007" lon="-4.23383">
        <ele>76.0</ele>
        <time>2020-08-13T10:00:16Z</time>
      </trkpt>
      <trkpt lat="48.120063" lon="-4.233586">
        <ele>76.0</ele>
        <time>2020-08-13T10:00:17Z</time>
      </trkpt>
      <trkpt lat="48.120833" lon="-4.228622">
        <ele>81.2</ele>
        <time>2020-08-13T10:00:37Z</time>
      </trkpt>
      <trkpt lat="48.120898" lon="-4.227923">
        <ele>82.2</ele>
        <time>2020-08-13T10:00:40Z</time>
      </trkpt>
      <trkpt lat="48.120951" lon="-4.226715">
        <ele>82.2</ele>
        <time>2020-08-13T10:00:45Z</time>
      </trkpt>
      <trkpt lat="48.120999" lon="-4.226277">
        <ele>82.8</ele>
        <time>2020-08-13T10:00:46Z</time>
      </trkpt>
      <trkpt lat="48.121089" lon="-4.225827">
        <ele>82.8</ele>
        <time>2020-08-13T10:00:48Z</time>
      </trkpt>
      <trkpt lat="48.121192" lon="-4.225414">
        <ele>82.8</ele>
        <time>2020-08-13T10:00:50Z</time>
      </trkpt>
      <trkpt lat="48.121336" lon="-4.224977">
        <ele>82.6</ele>
        <time>2020-08-13T10:00:52Z</time>
      </trkpt>
      <trkpt lat="48.121506" lon="-4.224593">
        <ele>82.6</ele>
        <time>2020-08-13T10:00:54Z</time>
      </trkpt>
      <trkpt lat="48.122407" lon="-4.222868">
        <ele>84.6</ele>
        <time>2020-08-13T10:01:02Z</time>
      </trkpt>
      <trkpt lat="48.122671" lon="-4.222431">
        <ele>86.6</ele>
        <time>2020-08-13T10:01:05Z</time>
      </trkpt>
      <trkpt lat="48.123441" lon="-4.221273">
        <ele>88.8</ele>
        <time>2020-08-13T10:01:11Z</time>
      </trkpt>
      <trkpt lat="48.124317" lon="-4.219845">
        <ele>92.2</ele>
        <time>2020-08-13T10:01:19Z</time>
      </trkpt>
      <trkpt lat="48.124484" lon="-4.219517">
        <ele>92.2</ele>
        <time>2020-08-13T10:01:21Z</time>
      </trkpt>
      <trkpt lat="48.124599" lon="-4.219393">
        <ele>92.2</ele>
        <time>2020-08-13T10:01:22Z</time>
      </trkpt>
      <trkpt lat="48.124737" lon="-4.219618">
        <ele>92.2</ele>
        <time>2020-08-13T10:01:24Z</time>
      </trkpt>
      <trkpt lat="48.124998" lon="-4.219923">
        <ele>92.2</ele>
        <time>2020-08-13T10:01:27Z</time>
      </trkpt>
      <trkpt lat="48.125263" lon="-4.220175">
        <ele>91.0</ele>
        <time>2020-08-13T10:01:30Z</time>
      </trkpt>
      <trkpt lat="48.125631" lon="-4.220487">
        <ele>91.0</ele>
        <time>2020-08-13T10:01:35Z</time>
      </trkpt>
      <trkpt lat="48.125815" lon="-4.220685">
        <ele>91.0</ele>
        <time>2020-08-13T10:01:37Z</time>
      </trkpt>
      <trkpt lat="48.126576" lon="-4.221815">
        <ele>88.2</ele>
        <time>2020-08-13T10:01:48Z</time>
      </trkpt>
      <trkpt lat="48.127338" lon="-4.222681">
        <ele>87.2</ele>
        <time>2020-08-13T10:01:58Z</time>
      </trkpt>
      <trkpt lat="48.127638" lon="-4.223054">
        <ele>87.8</ele>
        <time>2020-08-13T10:02:02Z</time>
      </trkpt>
      <trkpt lat="48.127862" lon="-4.223184">
        <ele>87.8</ele>
        <time>2020-08-13T10:02:04Z</time>
      </trkpt>
      <trkpt lat="48.127931" lon="-4.223172">
        <ele>87.8</ele>
        <time>2020-08-13T10:02:05Z</time>
      </trkpt>
      <trkpt lat="48.127998" lon="-4.223215">
        <ele>87.8</ele>
        <time>2020-08-13T10:02:05Z</time>
      </trkpt>
      <trkpt lat="48.128039" lon="-4.223294">
        <ele>87.8</ele>
        <time>2020-08-13T10:02:05Z</time>
      </trkpt>
      <trkpt lat="48.128051" lon="-4.223381">
        <ele>85.4</ele>
        <time>2020-08-13T10:02:06Z</time>
      </trkpt>
      <trkpt lat="48.128195" lon="-4.223694">
        <ele>85.4</ele>
        <time>2020-08-13T10:02:07Z</time>
      </trkpt>
      <trkpt lat="48.128821" lon="-4.224428">
        <ele>84.6</ele>
        <time>2020-08-13T10:02:11Z</time>
      </trkpt>
      <trkpt lat="48.12903" lon="-4.224729">
        <ele>84.6</ele>
        <time>2020-08-13T10:02:13Z</time>
      </trkpt>
      <trkpt lat="48.129127" lon="-4.224834">
        <ele>84.6</ele>
        <time>2020-08-13T10:02:14Z</time>
      </trkpt>
      <trkpt lat="48.12926" lon="-4.224929">
        <ele>85.2</ele>
        <time>2020-08-13T10:02:14Z</time>
      </trkpt>
      <trkpt lat="48.133822" lon="-4.226863">
        <ele>82.6</ele>
        <time>2020-08-13T10:02:40Z</time>
      </trkpt>
      <trkpt lat="48.134277" lon="-4.227033">
        <ele>84.2</ele>
        <time>2020-08-13T10:02:42Z</time>
      </trkpt>
      <trkpt lat="48.134448" lon="-4.227082">
        <ele>84.2</ele>
        <time>2020-08-13T10:02:43Z</time>
      </trkpt>
      <trkpt lat="48.137244" lon="-4.227633">
        <ele>81.0</ele>
        <time>2020-08-13T10:02:59Z</time>
      </trkpt>
      <trkpt lat="48.137718" lon="-4.227753">
        <ele>78.6</ele>
        <time>2020-08-13T10:03:01Z</time>
      </trkpt>
      <trkpt lat="48.138009" lon="-4.227862">
        <ele>78.6</ele>
        <time>2020-08-13T10:03:03Z</time>
      </trkpt>
      <trkpt lat="48.138258" lon="-4.227984">
        <ele>78.6</ele>
        <time>2020-08-13T10:03:04Z</time>
      </trkpt>
      <trkpt lat="48.138583" lon="-4.228192">
        <ele>75.2</ele>
        <time>2020-08-13T10:03:06Z</time>
      </trkpt>
      <trkpt lat="48.139203" lon="-4.22868">
        <ele>71.6</ele>
        <time>2020-08-13T10:03:10Z</time>
      </trkpt>
      <trkpt lat="48.141777" lon="-4.230828">
        <ele>64.0</ele>
        <time>2020-08-13T10:03:26Z</time>
      </trkpt>
      <trkpt lat="48.142486" lon="-4.231374">
        <ele>64.8</ele>
        <time>2020-08-13T10:03:30Z</time>
      </trkpt>
      <trkpt lat="48.143233" lon="-4.231853">
        <ele>62.8</ele>
        <time>2020-08-13T10:03:34Z</time>
      </trkpt>
      <trkpt lat="48.143545" lon="-4.232075">
        <ele>59.0</ele>
        <time>2020-08-13T10:03:36Z</time>
      </trkpt>
      <trkpt lat="48.144803" lon="-4.233107">
        <ele>54.2</ele>
        <time>2020-08-13T10:03:44Z</time>
      </trkpt>
      <trkpt lat="48.145233" lon="-4.233424">
        <ele>51.6</ele>
        <time>2020-08-13T10:03:47Z</time>
      </trkpt>
      <trkpt lat="48.145731" lon="-4.233723">
        <ele>51.6</ele>
        <time>2020-08-13T10:03:49Z</time>
      </trkpt>
      <trkpt lat="48.146677" lon="-4.234246">
        <ele>43.8</ele>
        <time>2020-08-13T10:03:55Z</time>
      </trkpt>
      <trkpt lat="48.148705" lon="-4.235318">
        <ele>35.4</ele>
        <time>2020-08-13T10:04:06Z</time>
      </trkpt>
      <trkpt lat="48.149092" lon="-4.235472">
        <ele>35.4</ele>
        <time>2020-08-13T10:04:09Z</time>
      </trkpt>
      <trkpt lat="48.149658" lon="-4.235618">
        <ele>37.4</ele>
        <time>2020-08-13T10:04:12Z</time>
      </trkpt>
      <trkpt lat="48.149888" lon="-4.23565">
        <ele>37.4</ele>
        <time>2020-08-13T10:04:13Z</time>
      </trkpt>
      <trkpt lat="48.150541" lon="-4.235637">
        <ele>37.6</ele>
        <time>2020-08-13T10:04:16Z</time>
      </trkpt>
      <trkpt lat="48.152479" lon="-4.235466">
        <ele>32.6</ele>
        <time>2020-08-13T10:04:27Z</time>
      </trkpt>
      <trkpt lat="48.152762" lon="-4.235421">
        <ele>31.4</ele>
        <time>2020-08-13T10:04:28Z</time>
      </trkpt>
      <trkpt lat="48.152981" lon="-4.235358">
        <ele>31.4</ele>
        <time>2020-08-13T10:04:30Z</time>
      </trkpt>
      <trkpt lat="48.153406" lon="-4.235151">
        <ele>33.2</ele>
        <time>2020-08-13T10:04:32Z</time>
      </trkpt>
      <trkpt lat="48.153945" lon="-4.234755">
        <ele>33.6</ele>
        <time>2020-08-13T10:04:35Z</time>
      </trkpt>
      <trkpt lat="48.154844" lon="-4.233914">
        <ele>38.4</ele>
        <time>2020-08-13T10:04:41Z</time>
      </trkpt>
      <trkpt lat="48.155788" lon="-4.232824">
        <ele>46.4</ele>
        <time>2020-08-13T10:04:47Z</time>
      </trkpt>
      <trkpt lat="48.156246" lon="-4.232378">
        <ele>53.4</ele>
        <time>2020-08-13T10:04:50Z</time>
      </trkpt>
      <trkpt lat="48.157094" lon="-4.231768">
        <ele>57.0</ele>
        <time>2020-08-13T10:04:55Z</time>
      </trkpt>
      <trkpt lat="48.1575" lon="-4.231576">
        <ele>54.4</ele>
        <time>2020-08-13T10:04:58Z</time>
      </trkpt>
      <trkpt lat="48.157504" lon="-4.231531">
        <ele>54.4</ele>
        <time>2020-08-13T10:04:58Z</time>
      </trkpt>
      <trkpt lat="48.157558" lon="-4.231448">
        <ele>54.4</ele>
        <time>2020-08-13T10:04:59Z</time>
      </trkpt>
      <trkpt lat="48.157597" lon="-4.231442">
        <ele>54.4</ele>
        <time>2020-08-13T10:04:59Z</time>
      </trkpt>
      <trkpt lat="48.157665" lon="-4.231513">
        <ele>54.4</ele>
        <time>2020-08-13T10:05:00Z</time>
      </trkpt>
      <trkpt lat="48.157673" lon="-4.231561">
        <ele>54.4</ele>
        <time>2020-08-13T10:05:00Z</time>
      </trkpt>
      <trkpt lat="48.158267" lon="-4.231445">
        <ele>54.4</ele>
        <time>2020-08-13T10:05:06Z</time>
      </trkpt>
      <trkpt lat="48.158812" lon="-4.231448">
        <ele>53.2</ele>
        <time>2020-08-13T10:05:11Z</time>
      </trkpt>
      <trkpt lat="48.159282" lon="-4.231515">
        <ele>51.6</ele>
        <time>2020-08-13T10:05:16Z</time>
      </trkpt>
      <trkpt lat="48.160032" lon="-4.231685">
        <ele>49.4</ele>
        <time>2020-08-13T10:05:23Z</time>
      </trkpt>
      <trkpt lat="48.162029" lon="-4.231981">
        <ele>42.2</ele>
        <time>2020-08-13T10:05:42Z</time>
      </trkpt>
      <trkpt lat="48.169685" lon="-4.231831">
        <ele>18.6</ele>
        <time>2020-08-13T10:06:55Z</time>
      </trkpt>
      <trkpt lat="48.170394" lon="-4.231627">
        <ele>20.8</ele>
        <time>2020-08-13T10:07:02Z</time>
      </trkpt>
      <trkpt lat="48.170863" lon="-4.231317">
        <ele>23.6</ele>
        <time>2020-08-13T10:07:07Z</time>
      </trkpt>
      <trkpt lat="48.172986" lon="-4.229659">
        <ele>34.2</ele>
        <time>2020-08-13T10:07:30Z</time>
      </trkpt>
      <trkpt lat="48.174433" lon="-4.228565">
        <ele>44.0</ele>
        <time>2020-08-13T10:07:45Z</time>
      </trkpt>
      <trkpt lat="48.174802" lon="-4.228396">
        <ele>44.0</ele>
        <time>2020-08-13T10:07:49Z</time>
      </trkpt>
      <trkpt lat="48.175303" lon="-4.22822">
        <ele>49.2</ele>
        <time>2020-08-13T10:07:54Z</time>
      </trkpt>
      <trkpt lat="48.175762" lon="-4.228115">
        <ele>49.2</ele>
        <time>2020-08-13T10:07:58Z</time>
      </trkpt>
      <trkpt lat="48.176797" lon="-4.228191">
        <ele>58.4</ele>
        <time>2020-08-13T10:08:08Z</time>
      </trkpt>
      <trkpt lat="48.177067" lon="-4.228279">
        <ele>58.4</ele>
        <time>2020-08-13T10:08:11Z</time>
      </trkpt>
      <trkpt lat="48.177973" lon="-4.228793">
        <ele>66.2</ele>
        <time>2020-08-13T10:08:20Z</time>
      </trkpt>
      <trkpt lat="48.179141" lon="-4.229345">
        <ele>71.8</ele>
        <time>2020-08-13T10:08:32Z</time>
      </trkpt>
      <trkpt lat="48.17972" lon="-4.229365">
        <ele>78.8</ele>
        <time>2020-08-13T10:08:37Z</time>
      </trkpt>
      <trkpt lat="48.180391" lon="-4.229278">
        <ele>85.0</ele>
        <time>2020-08-13T10:08:44Z</time>
      </trkpt>
      <trkpt lat="48.182836" lon="-4.229531">
        <ele>98.0</ele>
        <time>2020-08-13T10:09:07Z</time>
      </trkpt>
      <trkpt lat="48.183636" lon="-4.22958">
        <ele>99.4</ele>
        <time>2020-08-13T10:09:15Z</time>
      </trkpt>
      <trkpt lat="48.184128" lon="-4.229553">
        <ele>99.4</ele>
        <time>2020-08-13T10:09:20Z</time>
      </trkpt>
      <trkpt lat="48.187027" lon="-4.228662">
        <ele>100.8</ele>
        <time>2020-08-13T10:09:48Z</time>
      </trkpt>
      <trkpt lat="48.187496" lon="-4.228488">
        <ele>100.8</ele>
        <time>2020-08-13T10:09:52Z</time>
      </trkpt>
      <trkpt lat="48.188108" lon="-4.228195">
        <ele>102.6</ele>
        <time>2020-08-13T10:09:58Z</time>
      </trkpt>
      <trkpt lat="48.191403" lon="-4.225719">
        <ele>115.6</ele>
        <time>2020-08-13T10:10:34Z</time>
      </trkpt>
      <trkpt lat="48.191743" lon="-4.22542">
        <ele>119.0</ele>
        <time>2020-08-13T10:10:37Z</time>
      </trkpt>
      <trkpt lat="48.192065" lon="-4.225007">
        <ele>119.0</ele>
        <time>2020-08-13T10:10:41Z</time>
      </trkpt>
      <trkpt lat="48.192445" lon="-4.224466">
        <ele>121.0</ele>
        <time>2020-08-13T10:10:46Z</time>
      </trkpt>
      <trkpt lat="48.19279" lon="-4.223752">
        <ele>127.0</ele>
        <time>2020-08-13T10:10:52Z</time>
      </trkpt>
      <trkpt lat="48.193319" lon="-4.222063">
        <ele>127.2</ele>
        <time>2020-08-13T10:11:04Z</time>
      </trkpt>
      <trkpt lat="48.193534" lon="-4.222146">
        <ele>134.0</ele>
        <time>2020-08-13T10:11:05Z</time>
      </trkpt>
      <trkpt lat="48.193638" lon="-4.222224">
        <ele>134.0</ele>
        <time>2020-08-13T10:11:06Z</time>
      </trkpt>
      <trkpt lat="48.193712" lon="-4.222323">
        <ele>134.0</ele>
        <time>2020-08-13T10:11:06Z</time>
      </trkpt>
      <trkpt lat="48.193779" lon="-4.222457">
        <ele>134.0</ele>
        <time>2020-08-13T10:11:07Z</time>
      </trkpt>
      <trkpt lat="48.193845" lon="-4.222661">
        <ele>138.1</ele>
        <time>2020-08-13T10:11:08Z</time>
      </trkpt>
      <trkpt lat="48.193845" lon="-4.222661">
        <ele>138.1</ele>
        <time>2020-08-13T10:11:08Z</time>
      </trkpt>
      <trkpt lat="48.194508" lon="-4.224688">
        <ele>140.8</ele>
        <time>2020-08-13T10:11:16Z</time>
      </trkpt>
      <trkpt lat="48.194721" lon="-4.225011">
        <ele>138.6</ele>
        <time>2020-08-13T10:11:17Z</time>
      </trkpt>
      <trkpt lat="48.197304" lon="-4.228069">
        <ele>160.2</ele>
        <time>2020-08-13T10:11:34Z</time>
      </trkpt>
      <trkpt lat="48.198079" lon="-4.229164">
        <ele>167.6</ele>
        <time>2020-08-13T10:11:39Z</time>
      </trkpt>
      <trkpt lat="48.198302" lon="-4.229637">
        <ele>167.4</ele>
        <time>2020-08-13T10:11:41Z</time>
      </trkpt>
      <trkpt lat="48.198702" lon="-4.230836">
        <ele>179.0</ele>
        <time>2020-08-13T10:11:46Z</time>
      </trkpt>
      <trkpt lat="48.198798" lon="-4.231002">
        <ele>179.0</ele>
        <time>2020-08-13T10:11:47Z</time>
      </trkpt>
      <trkpt lat="48.199289" lon="-4.231499">
        <ele>184.6</ele>
        <time>2020-08-13T10:11:50Z</time>
      </trkpt>
      <trkpt lat="48.200517" lon="-4.232414">
        <ele>189.4</ele>
        <time>2020-08-13T10:11:57Z</time>
      </trkpt>
      <trkpt lat="48.200737" lon="-4.232613">
        <ele>190.0</ele>
        <time>2020-08-13T10:11:58Z</time>
      </trkpt>
      <trkpt lat="48.201485" lon="-4.233362">
        <ele>192.4</ele>
        <time>2020-08-13T10:12:03Z</time>
      </trkpt>
      <trkpt lat="48.201595" lon="-4.233294">
        <ele>191.8</ele>
        <time>2020-08-13T10:12:03Z</time>
      </trkpt>
      <trkpt lat="48.201695" lon="-4.233183">
        <ele>192.2</ele>
        <time>2020-08-13T10:12:04Z</time>
      </trkpt>
      <trkpt lat="48.202158" lon="-4.234164">
        <ele>193.0</ele>
        <time>2020-08-13T10:12:12Z</time>
      </trkpt>
      <trkpt lat="48.202502" lon="-4.234805">
        <ele>192.4</ele>
        <time>2020-08-13T10:12:18Z</time>
      </trkpt>
      <trkpt lat="48.202677" lon="-4.235038">
        <ele>192.8</ele>
        <time>2020-08-13T10:12:20Z</time>
      </trkpt>
      <trkpt lat="48.203048" lon="-4.235435">
        <ele>192.8</ele>
        <time>2020-08-13T10:12:25Z</time>
      </trkpt>
      <trkpt lat="48.203269" lon="-4.235792">
        <ele>192.8</ele>
        <time>2020-08-13T10:12:28Z</time>
      </trkpt>
      <trkpt lat="48.203422" lon="-4.23611">
        <ele>193.0</ele>
        <time>2020-08-13T10:12:31Z</time>
      </trkpt>
      <trkpt lat="48.206097" lon="-4.243164">
        <ele>201.8</ele>
        <time>2020-08-13T10:13:25Z</time>
      </trkpt>
      <trkpt lat="48.206326" lon="-4.24379">
        <ele>201.2</ele>
        <time>2020-08-13T10:13:30Z</time>
      </trkpt>
      <trkpt lat="48.206432" lon="-4.244213">
        <ele>202.2</ele>
        <time>2020-08-13T10:13:33Z</time>
      </trkpt>
      <trkpt lat="48.206453" lon="-4.244403">
        <ele>202.2</ele>
        <time>2020-08-13T10:13:34Z</time>
      </trkpt>
      <trkpt lat="48.206448" lon="-4.244836">
        <ele>202.2</ele>
        <time>2020-08-13T10:13:37Z</time>
      </trkpt>
      <trkpt lat="48.206421" lon="-4.245039">
        <ele>205.0</ele>
        <time>2020-08-13T10:13:38Z</time>
      </trkpt>
      <trkpt lat="48.206297" lon="-4.245569">
        <ele>205.0</ele>
        <time>2020-08-13T10:13:42Z</time>
      </trkpt>
      <trkpt lat="48.206096" lon="-4.246211">
        <ele>208.8</ele>
        <time>2020-08-13T10:13:47Z</time>
      </trkpt>
      <trkpt lat="48.205886" lon="-4.246745">
        <ele>212.0</ele>
        <time>2020-08-13T10:13:51Z</time>
      </trkpt>
      <trkpt lat="48.205677" lon="-4.247187">
        <ele>207.6</ele>
        <time>2020-08-13T10:13:55Z</time>
      </trkpt>
      <trkpt lat="48.205046" lon="-4.248257">
        <ele>211.6</ele>
        <time>2020-08-13T10:14:04Z</time>
      </trkpt>
      <trkpt lat="48.204306" lon="-4.249623">
        <ele>211.6</ele>
        <time>2020-08-13T10:14:16Z</time>
      </trkpt>
      <trkpt lat="48.204084" lon="-4.250191">
        <ele>204.4</ele>
        <time>2020-08-13T10:14:21Z</time>
      </trkpt>
      <trkpt lat="48.203909" lon="-4.250709">
        <ele>204.4</ele>
        <time>2020-08-13T10:14:25Z</time>
      </trkpt>
      <trkpt lat="48.203798" lon="-4.251169">
        <ele>204.0</ele>
        <time>2020-08-13T10:14:28Z</time>
      </trkpt>
      <trkpt lat="48.203706" lon="-4.251641">
        <ele>204.0</ele>
        <time>2020-08-13T10:14:31Z</time>
      </trkpt>
      <trkpt lat="48.203636" lon="-4.252052">
        <ele>202.6</ele>
        <time>2020-08-13T10:14:34Z</time>
      </trkpt>
      <trkpt lat="48.203597" lon="-4.252464">
        <ele>202.6</ele>
        <time>2020-08-13T10:14:37Z</time>
      </trkpt>
      <trkpt lat="48.203584" lon="-4.253134">
        <ele>200.8</ele>
        <time>2020-08-13T10:14:41Z</time>
      </trkpt>
      <trkpt lat="48.203607" lon="-4.253386">
        <ele>198.4</ele>
        <time>2020-08-13T10:14:43Z</time>
      </trkpt>
      <trkpt lat="48.203742" lon="-4.253991">
        <ele>198.4</ele>
        <time>2020-08-13T10:14:47Z</time>
      </trkpt>
      <trkpt lat="48.203857" lon="-4.254329">
        <ele>195.8</ele>
        <time>2020-08-13T10:14:50Z</time>
      </trkpt>
      <trkpt lat="48.204088" lon="-4.254885">
        <ele>195.8</ele>
        <time>2020-08-13T10:14:54Z</time>
      </trkpt>
      <trkpt lat="48.204284" lon="-4.255258">
        <ele>197.6</ele>
        <time>2020-08-13T10:14:57Z</time>
      </trkpt>
      <trkpt lat="48.204523" lon="-4.255634">
        <ele>197.6</ele>
        <time>2020-08-13T10:15:01Z</time>
      </trkpt>
      <trkpt lat="48.205069" lon="-4.256262">
        <ele>197.0</ele>
        <time>2020-08-13T10:15:08Z</time>
      </trkpt>
      <trkpt lat="48.205654" lon="-4.256625">
        <ele>197.0</ele>
        <time>2020-08-13T10:15:14Z</time>
      </trkpt>
      <trkpt lat="48.206354" lon="-4.256767">
        <ele>196.4</ele>
        <time>2020-08-13T10:15:21Z</time>
      </trkpt>
      <trkpt lat="48.207148" lon="-4.256732">
        <ele>198.2</ele>
        <time>2020-08-13T10:15:29Z</time>
      </trkpt>
      <trkpt lat="48.208025" lon="-4.256563">
        <ele>201.6</ele>
        <time>2020-08-13T10:15:38Z</time>
      </trkpt>
      <trkpt lat="48.208209" lon="-4.256506">
        <ele>201.6</ele>
        <time>2020-08-13T10:15:40Z</time>
      </trkpt>
      <trkpt lat="48.208767" lon="-4.257771">
        <ele>190.6</ele>
        <time>2020-08-13T10:15:52Z</time>
      </trkpt>
      <trkpt lat="48.209011" lon="-4.258562">
        <ele>187.2</ele>
        <time>2020-08-13T10:15:59Z</time>
      </trkpt>
      <trkpt lat="48.209146" lon="-4.259325">
        <ele>182.8</ele>
        <time>2020-08-13T10:16:05Z</time>
      </trkpt>
      <trkpt lat="48.209424" lon="-4.261166">
        <ele>172.0</ele>
        <time>2020-08-13T10:16:20Z</time>
      </trkpt>
      <trkpt lat="48.209564" lon="-4.261651">
        <ele>172.0</ele>
        <time>2020-08-13T10:16:24Z</time>
      </trkpt>
      <trkpt lat="48.210114" lon="-4.262707">
        <ele>159.8</ele>
        <time>2020-08-13T10:16:35Z</time>
      </trkpt>
      <trkpt lat="48.210679" lon="-4.263731">
        <ele>154.4</ele>
        <time>2020-08-13T10:16:46Z</time>
      </trkpt>
      <trkpt lat="48.211024" lon="-4.264438">
        <ele>148.2</ele>
        <time>2020-08-13T10:16:53Z</time>
      </trkpt>
      <trkpt lat="48.211354" lon="-4.265153">
        <ele>141.4</ele>
        <time>2020-08-13T10:16:59Z</time>
      </trkpt>
      <trkpt lat="48.211631" lon="-4.265947">
        <ele>135.0</ele>
        <time>2020-08-13T10:17:07Z</time>
      </trkpt>
      <trkpt lat="48.212152" lon="-4.267892">
        <ele>124.4</ele>
        <time>2020-08-13T10:17:23Z</time>
      </trkpt>
      <trkpt lat="48.212806" lon="-4.27071">
        <ele>113.4</ele>
        <time>2020-08-13T10:17:47Z</time>
      </trkpt>
      <trkpt lat="48.212933" lon="-4.271339">
        <ele>109.4</ele>
        <time>2020-08-13T10:17:52Z</time>
      </trkpt>
      <trkpt lat="48.213263" lon="-4.273649">
        <ele>97.6</ele>
        <time>2020-08-13T10:18:11Z</time>
      </trkpt>
      <trkpt lat="48.213338" lon="-4.274558">
        <ele>98.6</ele>
        <time>2020-08-13T10:18:18Z</time>
      </trkpt>
      <trkpt lat="48.213286" lon="-4.276144">
        <ele>86.2</ele>
        <time>2020-08-13T10:18:31Z</time>
      </trkpt>
      <trkpt lat="48.213167" lon="-4.277235">
        <ele>81.8</ele>
        <time>2020-08-13T10:18:39Z</time>
      </trkpt>
      <trkpt lat="48.213116" lon="-4.27826">
        <ele>77.0</ele>
        <time>2020-08-13T10:18:47Z</time>
      </trkpt>
      <trkpt lat="48.212922" lon="-4.278394">
        <ele>73.2</ele>
        <time>2020-08-13T10:18:51Z</time>
      </trkpt>
      <trkpt lat="48.212774" lon="-4.278549">
        <ele>73.2</ele>
        <time>2020-08-13T10:18:54Z</time>
      </trkpt>
      <trkpt lat="48.212616" lon="-4.278783">
        <ele>73.2</ele>
        <time>2020-08-13T10:18:57Z</time>
      </trkpt>
      <trkpt lat="48.212486" lon="-4.279109">
        <ele>71.6</ele>
        <time>2020-08-13T10:19:01Z</time>
      </trkpt>
      <trkpt lat="48.212405" lon="-4.279466">
        <ele>68.4</ele>
        <time>2020-08-13T10:19:05Z</time>
      </trkpt>
      <trkpt lat="48.212227" lon="-4.280514">
        <ele>65.4</ele>
        <time>2020-08-13T10:19:16Z</time>
      </trkpt>
      <trkpt lat="48.212371" lon="-4.280584">
        <ele>65.4</ele>
        <time>2020-08-13T10:19:17Z</time>
      </trkpt>
      <trkpt lat="48.213173" lon="-4.281263">
        <ele>64.4</ele>
        <time>2020-08-13T10:19:27Z</time>
      </trkpt>
      <trkpt lat="48.213427" lon="-4.281624">
        <ele>63.2</ele>
        <time>2020-08-13T10:19:30Z</time>
      </trkpt>
      <trkpt lat="48.213942" lon="-4.283908">
        <ele>55.4</ele>
        <time>2020-08-13T10:19:47Z</time>
      </trkpt>
      <trkpt lat="48.214187" lon="-4.284756">
        <ele>50.2</ele>
        <time>2020-08-13T10:19:53Z</time>
      </trkpt>
      <trkpt lat="48.214519" lon="-4.285408">
        <ele>47.8</ele>
        <time>2020-08-13T10:19:59Z</time>
      </trkpt>
      <trkpt lat="48.214673" lon="-4.285669">
        <ele>47.8</ele>
        <time>2020-08-13T10:20:01Z</time>
      </trkpt>
      <trkpt lat="48.214656" lon="-4.286164">
        <ele>46.4</ele>
        <time>2020-08-13T10:20:04Z</time>
      </trkpt>
      <trkpt lat="48.214553" lon="-4.286685">
        <ele>45.6</ele>
        <time>2020-08-13T10:20:06Z</time>
      </trkpt>
      <trkpt lat="48.214086" lon="-4.287608">
        <ele>44.4</ele>
        <time>2020-08-13T10:20:12Z</time>
      </trkpt>
      <trkpt lat="48.213706" lon="-4.288272">
        <ele>44.4</ele>
        <time>2020-08-13T10:20:17Z</time>
      </trkpt>
      <trkpt lat="48.213625" lon="-4.288542">
        <ele>42.6</ele>
        <time>2020-08-13T10:20:18Z</time>
      </trkpt>
      <trkpt lat="48.213598" lon="-4.288793">
        <ele>42.6</ele>
        <time>2020-08-13T10:20:20Z</time>
      </trkpt>
      <trkpt lat="48.213597" lon="-4.289131">
        <ele>42.6</ele>
        <time>2020-08-13T10:20:21Z</time>
      </trkpt>
      <trkpt lat="48.213617" lon="-4.289585">
        <ele>41.0</ele>
        <time>2020-08-13T10:20:24Z</time>
      </trkpt>
      <trkpt lat="48.213666" lon="-4.289921">
        <ele>41.0</ele>
        <time>2020-08-13T10:20:26Z</time>
      </trkpt>
      <trkpt lat="48.213717" lon="-4.290128">
        <ele>42.6</ele>
        <time>2020-08-13T10:20:27Z</time>
      </trkpt>
      <trkpt lat="48.213786" lon="-4.290293">
        <ele>42.6</ele>
        <time>2020-08-13T10:20:28Z</time>
      </trkpt>
      <trkpt lat="48.213904" lon="-4.290493">
        <ele>42.6</ele>
        <time>2020-08-13T10:20:29Z</time>
      </trkpt>
      <trkpt lat="48.213966" lon="-4.29056">
        <ele>42.6</ele>
        <time>2020-08-13T10:20:30Z</time>
      </trkpt>
      <trkpt lat="48.214132" lon="-4.290699">
        <ele>42.6</ele>
        <time>2020-08-13T10:20:31Z</time>
      </trkpt>
      <trkpt lat="48.214296" lon="-4.290794">
        <ele>43.6</ele>
        <time>2020-08-13T10:20:32Z</time>
      </trkpt>
      <trkpt lat="48.21483" lon="-4.290942">
        <ele>46.6</ele>
        <time>2020-08-13T10:20:37Z</time>
      </trkpt>
      <trkpt lat="48.216695" lon="-4.29107">
        <ele>58.4</ele>
        <time>2020-08-13T10:20:51Z</time>
      </trkpt>
      <trkpt lat="48.216998" lon="-4.291159">
        <ele>58.4</ele>
        <time>2020-08-13T10:20:53Z</time>
      </trkpt>
      <trkpt lat="48.217155" lon="-4.291279">
        <ele>58.4</ele>
        <time>2020-08-13T10:20:55Z</time>
      </trkpt>
      <trkpt lat="48.21729" lon="-4.291462">
        <ele>58.4</ele>
        <time>2020-08-13T10:20:56Z</time>
      </trkpt>
      <trkpt lat="48.217399" lon="-4.291883">
        <ele>60.8</ele>
        <time>2020-08-13T10:20:58Z</time>
      </trkpt>
      <trkpt lat="48.217551" lon="-4.294193">
        <ele>72.2</ele>
        <time>2020-08-13T10:21:10Z</time>
      </trkpt>
      <trkpt lat="48.217504" lon="-4.295047">
        <ele>74.8</ele>
        <time>2020-08-13T10:21:15Z</time>
      </trkpt>
      <trkpt lat="48.21746" lon="-4.295416">
        <ele>71.8</ele>
        <time>2020-08-13T10:21:17Z</time>
      </trkpt>
      <trkpt lat="48.217449" lon="-4.295774">
        <ele>71.8</ele>
        <time>2020-08-13T10:21:18Z</time>
      </trkpt>
      <trkpt lat="48.217489" lon="-4.296045">
        <ele>73.8</ele>
        <time>2020-08-13T10:21:20Z</time>
      </trkpt>
      <trkpt lat="48.217543" lon="-4.296178">
        <ele>77.2</ele>
        <time>2020-08-13T10:21:21Z</time>
      </trkpt>
      <trkpt lat="48.217654" lon="-4.296362">
        <ele>77.2</ele>
        <time>2020-08-13T10:21:22Z</time>
      </trkpt>
      <trkpt lat="48.218217" lon="-4.296875">
        <ele>78.6</ele>
        <time>2020-08-13T10:21:27Z</time>
      </trkpt>
      <trkpt lat="48.218823" lon="-4.297338">
        <ele>82.6</ele>
        <time>2020-08-13T10:21:32Z</time>
      </trkpt>
      <trkpt lat="48.21906" lon="-4.297608">
        <ele>83.2</ele>
        <time>2020-08-13T10:21:34Z</time>
      </trkpt>
      <trkpt lat="48.219233" lon="-4.297867">
        <ele>88.2</ele>
        <time>2020-08-13T10:21:36Z</time>
      </trkpt>
      <trkpt lat="48.219972" lon="-4.299788">
        <ele>88.6</ele>
        <time>2020-08-13T10:21:48Z</time>
      </trkpt>
      <trkpt lat="48.220771" lon="-4.300846">
        <ele>91.2</ele>
        <time>2020-08-13T10:21:56Z</time>
      </trkpt>
      <trkpt lat="48.221707" lon="-4.302044">
        <ele>104.6</ele>
        <time>2020-08-13T10:22:05Z</time>
      </trkpt>
      <trkpt lat="48.223414" lon="-4.30349">
        <ele>114.6</ele>
        <time>2020-08-13T10:22:20Z</time>
      </trkpt>
      <trkpt lat="48.223885" lon="-4.303827">
        <ele>114.6</ele>
        <time>2020-08-13T10:22:24Z</time>
      </trkpt>
      <trkpt lat="48.22411" lon="-4.303946">
        <ele>114.6</ele>
        <time>2020-08-13T10:22:26Z</time>
      </trkpt>
      <trkpt lat="48.225694" lon="-4.313547">
        <ele>119.6</ele>
        <time>2020-08-13T10:23:16Z</time>
      </trkpt>
      <trkpt lat="48.227283" lon="-4.322718">
        <ele>108.2</ele>
        <time>2020-08-13T10:24:04Z</time>
      </trkpt>
      <trkpt lat="48.227745" lon="-4.325659">
        <ele>105.0</ele>
        <time>2020-08-13T10:24:20Z</time>
      </trkpt>
      <trkpt lat="48.229592" lon="-4.336508">
        <ele>107.0</ele>
        <time>2020-08-13T10:25:16Z</time>
      </trkpt>
      <trkpt lat="48.229699" lon="-4.337009">
        <ele>108.4</ele>
        <time>2020-08-13T10:25:19Z</time>
      </trkpt>
      <trkpt lat="48.230568" lon="-4.33885">
        <ele>112.0</ele>
        <time>2020-08-13T10:25:30Z</time>
      </trkpt>
      <trkpt lat="48.230656" lon="-4.339142">
        <ele>112.0</ele>
        <time>2020-08-13T10:25:32Z</time>
      </trkpt>
      <trkpt lat="48.231449" lon="-4.342779">
        <ele>107.6</ele>
        <time>2020-08-13T10:25:51Z</time>
      </trkpt>
      <trkpt lat="48.232004" lon="-4.345611">
        <ele>101.8</ele>
        <time>2020-08-13T10:26:06Z</time>
      </trkpt>
      <trkpt lat="48.232554" lon="-4.347394">
        <ele>97.4</ele>
        <time>2020-08-13T10:26:16Z</time>
      </trkpt>
      <trkpt lat="48.234943" lon="-4.353218">
        <ele>88.8</ele>
        <time>2020-08-13T10:26:51Z</time>
      </trkpt>
      <trkpt lat="48.236963" lon="-4.359153">
        <ele>67.8</ele>
        <time>2020-08-13T10:27:24Z</time>
      </trkpt>
      <trkpt lat="48.237415" lon="-4.360428">
        <ele>64.4</ele>
        <time>2020-08-13T10:27:32Z</time>
      </trkpt>
      <trkpt lat="48.238844" lon="-4.364677">
        <ele>59.0</ele>
        <time>2020-08-13T10:27:56Z</time>
      </trkpt>
      <trkpt lat="48.239225" lon="-4.366312">
        <ele>57.0</ele>
        <time>2020-08-13T10:28:05Z</time>
      </trkpt>
      <trkpt lat="48.239688" lon="-4.368167">
        <ele>53.4</ele>
        <time>2020-08-13T10:28:15Z</time>
      </trkpt>
      <trkpt lat="48.239889" lon="-4.369216">
        <ele>51.0</ele>
        <time>2020-08-13T10:28:20Z</time>
      </trkpt>
      <trkpt lat="48.240025" lon="-4.36983">
        <ele>53.0</ele>
        <time>2020-08-13T10:28:23Z</time>
      </trkpt>
      <trkpt lat="48.240128" lon="-4.370419">
        <ele>51.6</ele>
        <time>2020-08-13T10:28:26Z</time>
      </trkpt>
      <trkpt lat="48.24023" lon="-4.371195">
        <ele>51.2</ele>
        <time>2020-08-13T10:28:30Z</time>
      </trkpt>
      <trkpt lat="48.240519" lon="-4.374459">
        <ele>52.6</ele>
        <time>2020-08-13T10:28:47Z</time>
      </trkpt>
      <trkpt lat="48.240759" lon="-4.375972">
        <ele>44.4</ele>
        <time>2020-08-13T10:28:55Z</time>
      </trkpt>
      <trkpt lat="48.241848" lon="-4.381491">
        <ele>34.8</ele>
        <time>2020-08-13T10:29:24Z</time>
      </trkpt>
      <trkpt lat="48.242026" lon="-4.382264">
        <ele>30.2</ele>
        <time>2020-08-13T10:29:28Z</time>
      </trkpt>
      <trkpt lat="48.242178" lon="-4.382719">
        <ele>26.8</ele>
        <time>2020-08-13T10:29:31Z</time>
      </trkpt>
      <trkpt lat="48.242437" lon="-4.383292">
        <ele>26.8</ele>
        <time>2020-08-13T10:29:34Z</time>
      </trkpt>
      <trkpt lat="48.242559" lon="-4.383516">
        <ele>24.0</ele>
        <time>2020-08-13T10:29:36Z</time>
      </trkpt>
      <trkpt lat="48.242862" lon="-4.38399">
        <ele>24.0</ele>
        <time>2020-08-13T10:29:39Z</time>
      </trkpt>
      <trkpt lat="48.243163" lon="-4.384394">
        <ele>21.6</ele>
        <time>2020-08-13T10:29:42Z</time>
      </trkpt>
      <trkpt lat="48.243425" lon="-4.38468">
        <ele>21.0</ele>
        <time>2020-08-13T10:29:45Z</time>
      </trkpt>
      <trkpt lat="48.243719" lon="-4.384954">
        <ele>21.0</ele>
        <time>2020-08-13T10:29:47Z</time>
      </trkpt>
      <trkpt lat="48.244745" lon="-4.385692">
        <ele>17.0</ele>
        <time>2020-08-13T10:29:56Z</time>
      </trkpt>
      <trkpt lat="48.245188" lon="-4.386258">
        <ele>15.4</ele>
        <time>2020-08-13T10:30:00Z</time>
      </trkpt>
      <trkpt lat="48.245433" lon="-4.386604">
        <ele>15.4</ele>
        <time>2020-08-13T10:30:03Z</time>
      </trkpt>
      <trkpt lat="48.245663" lon="-4.387011">
        <ele>15.2</ele>
        <time>2020-08-13T10:30:06Z</time>
      </trkpt>
      <trkpt lat="48.245949" lon="-4.387638">
        <ele>19.8</ele>
        <time>2020-08-13T10:30:09Z</time>
      </trkpt>
      <trkpt lat="48.24613" lon="-4.388152">
        <ele>19.8</ele>
        <time>2020-08-13T10:30:12Z</time>
      </trkpt>
      <trkpt lat="48.246248" lon="-4.388597">
        <ele>20.8</ele>
        <time>2020-08-13T10:30:15Z</time>
      </trkpt>
      <trkpt lat="48.246449" lon="-4.389672">
        <ele>21.0</ele>
        <time>2020-08-13T10:30:20Z</time>
      </trkpt>
      <trkpt lat="48.247869" lon="-4.39824">
        <ele>48.0</ele>
        <time>2020-08-13T10:31:05Z</time>
      </trkpt>
      <trkpt lat="48.247899" lon="-4.398679">
        <ele>49.6</ele>
        <time>2020-08-13T10:31:07Z</time>
      </trkpt>
      <trkpt lat="48.247899" lon="-4.398959">
        <ele>49.6</ele>
        <time>2020-08-13T10:31:09Z</time>
      </trkpt>
      <trkpt lat="48.247605" lon="-4.403707">
        <ele>64.2</ele>
        <time>2020-08-13T10:31:33Z</time>
      </trkpt>
      <trkpt lat="48.24759" lon="-4.404252">
        <ele>66.6</ele>
        <time>2020-08-13T10:31:36Z</time>
      </trkpt>
      <trkpt lat="48.247597" lon="-4.406175">
        <ele>71.0</ele>
        <time>2020-08-13T10:31:45Z</time>
      </trkpt>
      <trkpt lat="48.248197" lon="-4.4165">
        <ele>79.2</ele>
        <time>2020-08-13T10:32:38Z</time>
      </trkpt>
      <trkpt lat="48.248212" lon="-4.417101">
        <ele>78.2</ele>
        <time>2020-08-13T10:32:41Z</time>
      </trkpt>
      <trkpt lat="48.2482" lon="-4.417299">
        <ele>78.2</ele>
        <time>2020-08-13T10:32:42Z</time>
      </trkpt>
      <trkpt lat="48.248145" lon="-4.417675">
        <ele>78.2</ele>
        <time>2020-08-13T10:32:44Z</time>
      </trkpt>
      <trkpt lat="48.248186" lon="-4.417857">
        <ele>78.2</ele>
        <time>2020-08-13T10:32:45Z</time>
      </trkpt>
      <trkpt lat="48.248284" lon="-4.418015">
        <ele>78.2</ele>
        <time>2020-08-13T10:32:46Z</time>
      </trkpt>
      <trkpt lat="48.24838" lon="-4.418069">
        <ele>82.4</ele>
        <time>2020-08-13T10:32:47Z</time>
      </trkpt>
      <trkpt lat="48.248422" lon="-4.418132">
        <ele>82.4</ele>
        <time>2020-08-13T10:32:48Z</time>
      </trkpt>
      <trkpt lat="48.248456" lon="-4.41825">
        <ele>82.4</ele>
        <time>2020-08-13T10:32:49Z</time>
      </trkpt>
      <trkpt lat="48.248455" lon="-4.418357">
        <ele>82.8</ele>
        <time>2020-08-13T10:32:50Z</time>
      </trkpt>
      <trkpt lat="48.248429" lon="-4.418456">
        <ele>82.8</ele>
        <time>2020-08-13T10:32:51Z</time>
      </trkpt>
      <trkpt lat="48.248396" lon="-4.418516">
        <ele>82.8</ele>
        <time>2020-08-13T10:32:52Z</time>
      </trkpt>
      <trkpt lat="48.248307" lon="-4.418917">
        <ele>79.0</ele>
        <time>2020-08-13T10:32:56Z</time>
      </trkpt>
      <trkpt lat="48.248238" lon="-4.419257">
        <ele>79.8</ele>
        <time>2020-08-13T10:32:57Z</time>
      </trkpt>
      <trkpt lat="48.247894" lon="-4.421326">
        <ele>83.0</ele>
        <time>2020-08-13T10:33:08Z</time>
      </trkpt>
      <trkpt lat="48.247798" lon="-4.422251">
        <ele>84.4</ele>
        <time>2020-08-13T10:33:13Z</time>
      </trkpt>
      <trkpt lat="48.247749" lon="-4.423714">
        <ele>85.0</ele>
        <time>2020-08-13T10:33:21Z</time>
      </trkpt>
      <trkpt lat="48.247703" lon="-4.426914">
        <ele>84.8</ele>
        <time>2020-08-13T10:33:37Z</time>
      </trkpt>
      <trkpt lat="48.247753" lon="-4.434062">
        <ele>78.8</ele>
        <time>2020-08-13T10:34:13Z</time>
      </trkpt>
      <trkpt lat="48.247824" lon="-4.437574">
        <ele>73.6</ele>
        <time>2020-08-13T10:34:31Z</time>
      </trkpt>
      <trkpt lat="48.248134" lon="-4.445841">
        <ele>54.4</ele>
        <time>2020-08-13T10:35:14Z</time>
      </trkpt>
      <trkpt lat="48.248158" lon="-4.446046">
        <ele>54.4</ele>
        <time>2020-08-13T10:35:15Z</time>
      </trkpt>
      <trkpt lat="48.248226" lon="-4.446367">
        <ele>54.4</ele>
        <time>2020-08-13T10:35:17Z</time>
      </trkpt>
      <trkpt lat="48.248292" lon="-4.446444">
        <ele>54.4</ele>
        <time>2020-08-13T10:35:17Z</time>
      </trkpt>
      <trkpt lat="48.248314" lon="-4.446502">
        <ele>54.4</ele>
        <time>2020-08-13T10:35:18Z</time>
      </trkpt>
      <trkpt lat="48.248322" lon="-4.446633">
        <ele>54.4</ele>
        <time>2020-08-13T10:35:18Z</time>
      </trkpt>
      <trkpt lat="48.248307" lon="-4.446696">
        <ele>52.0</ele>
        <time>2020-08-13T10:35:19Z</time>
      </trkpt>
      <trkpt lat="48.248259" lon="-4.446781">
        <ele>52.0</ele>
        <time>2020-08-13T10:35:20Z</time>
      </trkpt>
      <trkpt lat="48.248219" lon="-4.44734">
        <ele>52.0</ele>
        <time>2020-08-13T10:35:23Z</time>
      </trkpt>
      <trkpt lat="48.248222" lon="-4.447915">
        <ele>49.6</ele>
        <time>2020-08-13T10:35:26Z</time>
      </trkpt>
      <trkpt lat="48.248259" lon="-4.448601">
        <ele>47.0</ele>
        <time>2020-08-13T10:35:30Z</time>
      </trkpt>
      <trkpt lat="48.248572" lon="-4.452328">
        <ele>43.2</ele>
        <time>2020-08-13T10:35:53Z</time>
      </trkpt>
      <trkpt lat="48.248836" lon="-4.458671">
        <ele>54.4</ele>
        <time>2020-08-13T10:36:30Z</time>
      </trkpt>
      <trkpt lat="48.248771" lon="-4.46183">
        <ele>46.2</ele>
        <time>2020-08-13T10:36:49Z</time>
      </trkpt>
      <trkpt lat="48.248664" lon="-4.465497">
        <ele>34.2</ele>
        <time>2020-08-13T10:37:10Z</time>
      </trkpt>
      <trkpt lat="48.248254" lon="-4.471031">
        <ele>51.0</ele>
        <time>2020-08-13T10:37:43Z</time>
      </trkpt>
      <trkpt lat="48.248143" lon="-4.4716">
        <ele>51.0</ele>
        <time>2020-08-13T10:37:47Z</time>
      </trkpt>
      <trkpt lat="48.248192" lon="-4.471732">
        <ele>55.8</ele>
        <time>2020-08-13T10:37:49Z</time>
      </trkpt>
      <trkpt lat="48.248199" lon="-4.471812">
        <ele>55.8</ele>
        <time>2020-08-13T10:37:50Z</time>
      </trkpt>
      <trkpt lat="48.248179" lon="-4.471942">
        <ele>55.8</ele>
        <time>2020-08-13T10:37:51Z</time>
      </trkpt>
      <trkpt lat="48.248143" lon="-4.472021">
        <ele>55.8</ele>
        <time>2020-08-13T10:37:53Z</time>
      </trkpt>
      <trkpt lat="48.248092" lon="-4.47208">
        <ele>55.8</ele>
        <time>2020-08-13T10:37:54Z</time>
      </trkpt>
      <trkpt lat="48.248032" lon="-4.472112">
        <ele>55.8</ele>
        <time>2020-08-13T10:37:55Z</time>
      </trkpt>
      <trkpt lat="48.247923" lon="-4.472098">
        <ele>55.8</ele>
        <time>2020-08-13T10:37:57Z</time>
      </trkpt>
      <trkpt lat="48.247765" lon="-4.472203">
        <ele>55.8</ele>
        <time>2020-08-13T10:38:00Z</time>
      </trkpt>
      <trkpt lat="48.245904" lon="-4.474051">
        <ele>69.6</ele>
        <time>2020-08-13T10:38:39Z</time>
      </trkpt>
      <trkpt lat="48.245177" lon="-4.474837">
        <ele>77.0</ele>
        <time>2020-08-13T10:38:55Z</time>
      </trkpt>
      <trkpt lat="48.245052" lon="-4.475004">
        <ele>81.4</ele>
        <time>2020-08-13T10:38:58Z</time>
      </trkpt>
      <trkpt lat="48.244938" lon="-4.475301">
        <ele>84.8</ele>
        <time>2020-08-13T10:39:02Z</time>
      </trkpt>
      <trkpt lat="48.245066" lon="-4.475428">
        <ele>81.4</ele>
        <time>2020-08-13T10:39:05Z</time>
      </trkpt>
      <trkpt lat="48.245556" lon="-4.475732">
        <ele>81.4</ele>
        <time>2020-08-13T10:39:15Z</time>
      </trkpt>
      <trkpt lat="48.245736" lon="-4.475896">
        <ele>84.8</ele>
        <time>2020-08-13T10:39:19Z</time>
      </trkpt>
      <trkpt lat="48.245912" lon="-4.476146">
        <ele>81.8</ele>
        <time>2020-08-13T10:39:23Z</time>
      </trkpt>
      <trkpt lat="48.245802" lon="-4.476366">
        <ele>84.8</ele>
        <time>2020-08-13T10:39:27Z</time>
      </trkpt>
      <trkpt lat="48.245627" lon="-4.476862">
        <ele>85.8</ele>
        <time>2020-08-13T10:39:34Z</time>
      </trkpt>
      <trkpt lat="48.245627" lon="-4.476862">
        <ele>85.8</ele>
        <time>2020-08-13T10:39:34Z</time>
      </trkpt>
      <trkpt lat="48.245553" lon="-4.477068">
        <ele>86.8</ele>
        <time>2020-08-13T10:39:37Z</time>
      </trkpt>
      <trkpt lat="48.244966" lon="-4.479452">
        <ele>92.8</ele>
        <time>2020-08-13T10:40:08Z</time>
      </trkpt>
      <trkpt lat="48.244891" lon="-4.479969">
        <ele>92.8</ele>
        <time>2020-08-13T10:40:14Z</time>
      </trkpt>
      <trkpt lat="48.244889" lon="-4.480094">
        <ele>92.4</ele>
        <time>2020-08-13T10:40:16Z</time>
      </trkpt>
      <trkpt lat="48.245061" lon="-4.481635">
        <ele>91.8</ele>
        <time>2020-08-13T10:40:35Z</time>
      </trkpt>
      <trkpt lat="48.245036" lon="-4.48188">
        <ele>91.0</ele>
        <time>2020-08-13T10:40:38Z</time>
      </trkpt>
      <trkpt lat="48.244888" lon="-4.482383">
        <ele>91.2</ele>
        <time>2020-08-13T10:40:45Z</time>
      </trkpt>
      <trkpt lat="48.244773" lon="-4.482611">
        <ele>89.4</ele>
        <time>2020-08-13T10:40:48Z</time>
      </trkpt>
      <trkpt lat="48.24456" lon="-4.482915">
        <ele>89.4</ele>
        <time>2020-08-13T10:40:54Z</time>
      </trkpt>
      <trkpt lat="48.243068" lon="-4.484209">
        <ele>80.2</ele>
        <time>2020-08-13T10:41:25Z</time>
      </trkpt>
      <trkpt lat="48.242971" lon="-4.484252">
        <ele>80.2</ele>
        <time>2020-08-13T10:41:27Z</time>
      </trkpt>
      <trkpt lat="48.243016" lon="-4.484545">
        <ele>80.2</ele>
        <time>2020-08-13T10:41:31Z</time>
      </trkpt>
      <trkpt lat="48.242809" lon="-4.48471">
        <ele>80.2</ele>
        <time>2020-08-13T10:41:35Z</time>
      </trkpt>
      <trkpt lat="48.241976" lon="-4.485083">
        <ele>68.2</ele>
        <time>2020-08-13T10:41:51Z</time>
      </trkpt>
      <trkpt lat="48.241876" lon="-4.48525">
        <ele>68.2</ele>
        <time>2020-08-13T10:41:54Z</time>
      </trkpt>
      <trkpt lat="48.241837" lon="-4.486197">
        <ele>63.2</ele>
        <time>2020-08-13T10:42:06Z</time>
      </trkpt>
      <trkpt lat="48.241864" lon="-4.486747">
        <ele>59.0</ele>
        <time>2020-08-13T10:42:13Z</time>
      </trkpt>
      <trkpt lat="48.241777" lon="-4.487232">
        <ele>59.0</ele>
        <time>2020-08-13T10:42:19Z</time>
      </trkpt>
      <trkpt lat="48.24177" lon="-4.487365">
        <ele>59.0</ele>
        <time>2020-08-13T10:42:20Z</time>
      </trkpt>
      <trkpt lat="48.241791" lon="-4.487793">
        <ele>55.4</ele>
        <time>2020-08-13T10:42:26Z</time>
      </trkpt>
      <trkpt lat="48.241875" lon="-4.488878">
        <ele>51.6</ele>
        <time>2020-08-13T10:42:39Z</time>
      </trkpt>
      <trkpt lat="48.241995" lon="-4.489747">
        <ele>47.4</ele>
        <time>2020-08-13T10:42:50Z</time>
      </trkpt>
      <trkpt lat="48.241632" lon="-4.48978">
        <ele>40.0</ele>
        <time>2020-08-13T10:42:57Z</time>
      </trkpt>
      <trkpt lat="48.241352" lon="-4.489888">
        <ele>40.0</ele>
        <time>2020-08-13T10:43:02Z</time>
      </trkpt>
      <trkpt lat="48.241063" lon="-4.490031">
        <ele>37.2</ele>
        <time>2020-08-13T10:43:08Z</time>
      </trkpt>
      <trkpt lat="48.24004" lon="-4.490913">
        <ele>30.0</ele>
        <time>2020-08-13T10:43:30Z</time>
      </trkpt>
      <trkpt lat="48.239698" lon="-4.491155">
        <ele>27.6</ele>
        <time>2020-08-13T10:43:37Z</time>
      </trkpt>
      <trkpt lat="48.239584" lon="-4.491267">
        <ele>27.6</ele>
        <time>2020-08-13T10:43:39Z</time>
      </trkpt>
      <trkpt lat="48.239464" lon="-4.491541">
        <ele>27.6</ele>
        <time>2020-08-13T10:43:43Z</time>
      </trkpt>
      <trkpt lat="48.239363" lon="-4.491867">
        <ele>24.4</ele>
        <time>2020-08-13T10:43:46Z</time>
      </trkpt>
      <trkpt lat="48.239338" lon="-4.492055">
        <ele>24.4</ele>
        <time>2020-08-13T10:43:48Z</time>
      </trkpt>
      <trkpt lat="48.239329" lon="-4.492287">
        <ele>24.4</ele>
        <time>2020-08-13T10:43:51Z</time>
      </trkpt>
      <trkpt lat="48.239456" lon="-4.494296">
        <ele>17.6</ele>
        <time>2020-08-13T10:44:11Z</time>
      </trkpt>
      <trkpt lat="48.239441" lon="-4.49443">
        <ele>17.6</ele>
        <time>2020-08-13T10:44:13Z</time>
      </trkpt>
      <trkpt lat="48.23948" lon="-4.494438">
        <ele>17.6</ele>
        <time>2020-08-13T10:44:13Z</time>
      </trkpt>
      <trkpt lat="48.239511" lon="-4.494477">
        <ele>17.6</ele>
        <time>2020-08-13T10:44:13Z</time>
      </trkpt>
      <trkpt lat="48.239522" lon="-4.494534">
        <ele>17.6</ele>
        <time>2020-08-13T10:44:14Z</time>
      </trkpt>
      <trkpt lat="48.239515" lon="-4.49458">
        <ele>17.6</ele>
        <time>2020-08-13T10:44:14Z</time>
      </trkpt>
      <trkpt lat="48.239468" lon="-4.494638">
        <ele>17.6</ele>
        <time>2020-08-13T10:44:15Z</time>
      </trkpt>
      <trkpt lat="48.239412" lon="-4.494623">
        <ele>17.6</ele>
        <time>2020-08-13T10:44:15Z</time>
      </trkpt>
      <trkpt lat="48.239382" lon="-4.494557">
        <ele>17.6</ele>
        <time>2020-08-13T10:44:16Z</time>
      </trkpt>
      <trkpt lat="48.239339" lon="-4.494557">
        <ele>17.6</ele>
        <time>2020-08-13T10:44:16Z</time>
      </trkpt>
      <trkpt lat="48.239125" lon="-4.494684">
        <ele>16.4</ele>
        <time>2020-08-13T10:44:19Z</time>
      </trkpt>
      <trkpt lat="48.238614" lon="-4.495125">
        <ele>14.6</ele>
        <time>2020-08-13T10:44:25Z</time>
      </trkpt>
      <trkpt lat="48.237171" lon="-4.49667">
        <ele>13.0</ele>
        <time>2020-08-13T10:44:43Z</time>
      </trkpt>
      <trkpt lat="48.236975" lon="-4.496851">
        <ele>13.0</ele>
        <time>2020-08-13T10:44:45Z</time>
      </trkpt>
      <trkpt lat="48.235956" lon="-4.497519">
        <ele>14.4</ele>
        <time>2020-08-13T10:44:57Z</time>
      </trkpt>
      <trkpt lat="48.235336" lon="-4.497961">
        <ele>12.6</ele>
        <time>2020-08-13T10:45:04Z</time>
      </trkpt>
      <trkpt lat="48.235159" lon="-4.498045">
        <ele>12.6</ele>
        <time>2020-08-13T10:45:05Z</time>
      </trkpt>
      <trkpt lat="48.234914" lon="-4.498125">
        <ele>10.4</ele>
        <time>2020-08-13T10:45:08Z</time>
      </trkpt>
      <trkpt lat="48.233397" lon="-4.498402">
        <ele>12.0</ele>
        <time>2020-08-13T10:45:24Z</time>
      </trkpt>
      <trkpt lat="48.233403" lon="-4.498441">
        <ele>12.0</ele>
        <time>2020-08-13T10:45:24Z</time>
      </trkpt>
      <trkpt lat="48.233388" lon="-4.498518">
        <ele>12.0</ele>
        <time>2020-08-13T10:45:25Z</time>
      </trkpt>
      <trkpt lat="48.233368" lon="-4.498546">
        <ele>12.0</ele>
        <time>2020-08-13T10:45:25Z</time>
      </trkpt>
      <trkpt lat="48.233313" lon="-4.498564">
        <ele>9.0</ele>
        <time>2020-08-13T10:45:25Z</time>
      </trkpt>
      <trkpt lat="48.233266" lon="-4.498522">
        <ele>9.0</ele>
        <time>2020-08-13T10:45:26Z</time>
      </trkpt>
      <trkpt lat="48.233149" lon="-4.498598">
        <ele>9.0</ele>
        <time>2020-08-13T10:45:27Z</time>
      </trkpt>
      <trkpt lat="48.232914" lon="-4.498838">
        <ele>9.0</ele>
        <time>2020-08-13T10:45:30Z</time>
      </trkpt>
      <trkpt lat="48.231282" lon="-4.501332">
        <ele>17.8</ele>
        <time>2020-08-13T10:45:54Z</time>
      </trkpt>
      <trkpt lat="48.231148" lon="-4.501512">
        <ele>17.8</ele>
        <time>2020-08-13T10:45:56Z</time>
      </trkpt>
      <trkpt lat="48.23095" lon="-4.501679">
        <ele>25.0</ele>
        <time>2020-08-13T10:45:58Z</time>
      </trkpt>
      <trkpt lat="48.230479" lon="-4.502024">
        <ele>20.0</ele>
        <time>2020-08-13T10:46:04Z</time>
      </trkpt>
      <trkpt lat="48.229326" lon="-4.502726">
        <ele>20.2</ele>
        <time>2020-08-13T10:46:16Z</time>
      </trkpt>
      <trkpt lat="48.228816" lon="-4.503103">
        <ele>16.75</ele>
        <time>2020-08-13T10:46:22Z</time>
      </trkpt>
      <trkpt lat="48.228155" lon="-4.50354">
        <ele>14.0</ele>
        <time>2020-08-13T10:46:30Z</time>
      </trkpt>
      <trkpt lat="48.227718" lon="-4.50377">
        <ele>14.0</ele>
        <time>2020-08-13T10:46:34Z</time>
      </trkpt>
      <trkpt lat="48.22645" lon="-4.503954">
        <ele>7.25</ele>
        <time>2020-08-13T10:46:47Z</time>
      </trkpt>
      <trkpt lat="48.225642" lon="-4.504342">
        <ele>9.2</ele>
        <time>2020-08-13T10:46:56Z</time>
      </trkpt>
      <trkpt lat="48.225487" lon="-4.504475">
        <ele>9.2</ele>
        <time>2020-08-13T10:46:58Z</time>
      </trkpt>
      <trkpt lat="48.225571" lon="-4.504795">
        <ele>9.2</ele>
        <time>2020-08-13T10:47:03Z</time>
      </trkpt>
      <trkpt lat="48.225573" lon="-4.504927">
        <ele>9.2</ele>
        <time>2020-08-13T10:47:05Z</time>
      </trkpt>
      <trkpt lat="48.225554" lon="-4.505058">
        <ele>8.8</ele>
        <time>2020-08-13T10:47:07Z</time>
      </trkpt>
      <trkpt lat="48.225387" lon="-4.505891">
        <ele>8.2</ele>
        <time>2020-08-13T10:47:21Z</time>
      </trkpt>
      <trkpt lat="48.225168" lon="-4.506563">
        <ele>8.2</ele>
        <time>2020-08-13T10:47:32Z</time>
      </trkpt>
      <trkpt lat="48.22512" lon="-4.506781">
        <ele>8.2</ele>
        <time>2020-08-13T10:47:36Z</time>
      </trkpt>
      <trkpt lat="48.224892" lon="-4.50706">
        <ele>16.6</ele>
        <time>2020-08-13T10:47:38Z</time>
      </trkpt>
      <trkpt lat="48.224525" lon="-4.507337">
        <ele>16.6</ele>
        <time>2020-08-13T10:47:41Z</time>
      </trkpt>
      <trkpt lat="48.224342" lon="-4.507584">
        <ele>15.8</ele>
        <time>2020-08-13T10:47:42Z</time>
      </trkpt>
      <trkpt lat="48.223956" lon="-4.508888">
        <ele>24.4</ele>
        <time>2020-08-13T10:47:49Z</time>
      </trkpt>
      <trkpt lat="48.223802" lon="-4.509154">
        <ele>24.4</ele>
        <time>2020-08-13T10:47:51Z</time>
      </trkpt>
      <trkpt lat="48.223303" lon="-4.509771">
        <ele>31.8</ele>
        <time>2020-08-13T10:47:55Z</time>
      </trkpt>
      <trkpt lat="48.223129" lon="-4.509956">
        <ele>31.8</ele>
        <time>2020-08-13T10:47:57Z</time>
      </trkpt>
      <trkpt lat="48.223004" lon="-4.510042">
        <ele>30.0</ele>
        <time>2020-08-13T10:47:58Z</time>
      </trkpt>
      <trkpt lat="48.222567" lon="-4.510249">
        <ele>30.0</ele>
        <time>2020-08-13T10:48:01Z</time>
      </trkpt>
      <trkpt lat="48.222394" lon="-4.510408">
        <ele>38.6</ele>
        <time>2020-08-13T10:48:02Z</time>
      </trkpt>
      <trkpt lat="48.221875" lon="-4.511081">
        <ele>36.6</ele>
        <time>2020-08-13T10:48:07Z</time>
      </trkpt>
      <trkpt lat="48.221061" lon="-4.512186">
        <ele>42.4</ele>
        <time>2020-08-13T10:48:15Z</time>
      </trkpt>
      <trkpt lat="48.220255" lon="-4.513139">
        <ele>45.6</ele>
        <time>2020-08-13T10:48:22Z</time>
      </trkpt>
      <trkpt lat="48.219782" lon="-4.513964">
        <ele>45.2</ele>
        <time>2020-08-13T10:48:27Z</time>
      </trkpt>
      <trkpt lat="48.21944" lon="-4.514233">
        <ele>40.6</ele>
        <time>2020-08-13T10:48:30Z</time>
      </trkpt>
      <trkpt lat="48.217873" lon="-4.51536">
        <ele>45.0</ele>
        <time>2020-08-13T10:48:42Z</time>
      </trkpt>
      <trkpt lat="48.217563" lon="-4.515614">
        <ele>45.0</ele>
        <time>2020-08-13T10:48:44Z</time>
      </trkpt>
      <trkpt lat="48.217346" lon="-4.515865">
        <ele>46.2</ele>
        <time>2020-08-13T10:48:46Z</time>
      </trkpt>
      <trkpt lat="48.217186" lon="-4.516102">
        <ele>46.2</ele>
        <time>2020-08-13T10:48:48Z</time>
      </trkpt>
      <trkpt lat="48.216834" lon="-4.516934">
        <ele>43.2</ele>
        <time>2020-08-13T10:48:52Z</time>
      </trkpt>
      <trkpt lat="48.216666" lon="-4.517403">
        <ele>46.4</ele>
        <time>2020-08-13T10:48:55Z</time>
      </trkpt>
      <trkpt lat="48.216552" lon="-4.518134">
        <ele>43.0</ele>
        <time>2020-08-13T10:48:58Z</time>
      </trkpt>
      <trkpt lat="48.216427" lon="-4.519368">
        <ele>39.6</ele>
        <time>2020-08-13T10:49:04Z</time>
      </trkpt>
      <trkpt lat="48.216363" lon="-4.519696">
        <ele>39.6</ele>
        <time>2020-08-13T10:49:06Z</time>
      </trkpt>
      <trkpt lat="48.216248" lon="-4.519995">
        <ele>39.6</ele>
        <time>2020-08-13T10:49:07Z</time>
      </trkpt>
      <trkpt lat="48.216019" lon="-4.520462">
        <ele>38.0</ele>
        <time>2020-08-13T10:49:10Z</time>
      </trkpt>
      <trkpt lat="48.215722" lon="-4.52093">
        <ele>39.8</ele>
        <time>2020-08-13T10:49:13Z</time>
      </trkpt>
      <trkpt lat="48.215478" lon="-4.521359">
        <ele>39.8</ele>
        <time>2020-08-13T10:49:15Z</time>
      </trkpt>
      <trkpt lat="48.215042" lon="-4.522515">
        <ele>37.6</ele>
        <time>2020-08-13T10:49:22Z</time>
      </trkpt>
      <trkpt lat="48.214923" lon="-4.522771">
        <ele>39.8</ele>
        <time>2020-08-13T10:49:23Z</time>
      </trkpt>
      <trkpt lat="48.214781" lon="-4.523017">
        <ele>39.8</ele>
        <time>2020-08-13T10:49:25Z</time>
      </trkpt>
      <trkpt lat="48.214599" lon="-4.523235">
        <ele>39.8</ele>
        <time>2020-08-13T10:49:26Z</time>
      </trkpt>
      <trkpt lat="48.213269" lon="-4.524301">
        <ele>36.0</ele>
        <time>2020-08-13T10:49:37Z</time>
      </trkpt>
      <trkpt lat="48.213076" lon="-4.524535">
        <ele>36.0</ele>
        <time>2020-08-13T10:49:38Z</time>
      </trkpt>
      <trkpt lat="48.212931" lon="-4.524786">
        <ele>36.0</ele>
        <time>2020-08-13T10:49:40Z</time>
      </trkpt>
      <trkpt lat="48.212614" lon="-4.525417">
        <ele>34.0</ele>
        <time>2020-08-13T10:49:44Z</time>
      </trkpt>
      <trkpt lat="48.212496" lon="-4.525597">
        <ele>34.6</ele>
        <time>2020-08-13T10:49:45Z</time>
      </trkpt>
      <trkpt lat="48.212314" lon="-4.525764">
        <ele>34.6</ele>
        <time>2020-08-13T10:49:46Z</time>
      </trkpt>
      <trkpt lat="48.211774" lon="-4.526022">
        <ele>34.6</ele>
        <time>2020-08-13T10:49:50Z</time>
      </trkpt>
      <trkpt lat="48.211525" lon="-4.52619">
        <ele>38.0</ele>
        <time>2020-08-13T10:49:52Z</time>
      </trkpt>
      <trkpt lat="48.211259" lon="-4.526411">
        <ele>38.0</ele>
        <time>2020-08-13T10:49:54Z</time>
      </trkpt>
      <trkpt lat="48.210967" lon="-4.526575">
        <ele>38.0</ele>
        <time>2020-08-13T10:49:56Z</time>
      </trkpt>
      <trkpt lat="48.209017" lon="-4.527485">
        <ele>48.2</ele>
        <time>2020-08-13T10:50:11Z</time>
      </trkpt>
      <trkpt lat="48.20884" lon="-4.52754">
        <ele>47.4</ele>
        <time>2020-08-13T10:50:12Z</time>
      </trkpt>
      <trkpt lat="48.208685" lon="-4.527552">
        <ele>47.4</ele>
        <time>2020-08-13T10:50:13Z</time>
      </trkpt>
      <trkpt lat="48.208525" lon="-4.527469">
        <ele>48.2</ele>
        <time>2020-08-13T10:50:14Z</time>
      </trkpt>
      <trkpt lat="48.207151" lon="-4.526446">
        <ele>53.4</ele>
        <time>2020-08-13T10:50:25Z</time>
      </trkpt>
      <trkpt lat="48.2064" lon="-4.526207">
        <ele>55.0</ele>
        <time>2020-08-13T10:50:30Z</time>
      </trkpt>
      <trkpt lat="48.20602" lon="-4.526064">
        <ele>55.0</ele>
        <time>2020-08-13T10:50:33Z</time>
      </trkpt>
      <trkpt lat="48.205707" lon="-4.526027">
        <ele>56.8</ele>
        <time>2020-08-13T10:50:35Z</time>
      </trkpt>
      <trkpt lat="48.205646" lon="-4.526056">
        <ele>56.8</ele>
        <time>2020-08-13T10:50:36Z</time>
      </trkpt>
      <trkpt lat="48.205479" lon="-4.526221">
        <ele>56.8</ele>
        <time>2020-08-13T10:50:37Z</time>
      </trkpt>
      <trkpt lat="48.204992" lon="-4.526935">
        <ele>57.8</ele>
        <time>2020-08-13T10:50:42Z</time>
      </trkpt>
      <trkpt lat="48.203929" lon="-4.528402">
        <ele>55.4</ele>
        <time>2020-08-13T10:50:52Z</time>
      </trkpt>
      <trkpt lat="48.203787" lon="-4.528526">
        <ele>55.4</ele>
        <time>2020-08-13T10:50:53Z</time>
      </trkpt>
      <trkpt lat="48.202741" lon="-4.528911">
        <ele>60.0</ele>
        <time>2020-08-13T10:51:00Z</time>
      </trkpt>
      <trkpt lat="48.202302" lon="-4.529099">
        <ele>64.0</ele>
        <time>2020-08-13T10:51:03Z</time>
      </trkpt>
      <trkpt lat="48.201723" lon="-4.529604">
        <ele>61.4</ele>
        <time>2020-08-13T10:51:08Z</time>
      </trkpt>
      <trkpt lat="48.201529" lon="-4.529704">
        <ele>64.4</ele>
        <time>2020-08-13T10:51:10Z</time>
      </trkpt>
      <trkpt lat="48.194992" lon="-4.530881">
        <ele>93.2</ele>
        <time>2020-08-13T10:51:55Z</time>
      </trkpt>
      <trkpt lat="48.193874" lon="-4.531132">
        <ele>96.6</ele>
        <time>2020-08-13T10:52:03Z</time>
      </trkpt>
      <trkpt lat="48.191333" lon="-4.531783">
        <ele>102.6</ele>
        <time>2020-08-13T10:52:21Z</time>
      </trkpt>
      <trkpt lat="48.191202" lon="-4.531842">
        <ele>102.6</ele>
        <time>2020-08-13T10:52:22Z</time>
      </trkpt>
      <trkpt lat="48.190337" lon="-4.532351">
        <ele>102.2</ele>
        <time>2020-08-13T10:52:29Z</time>
      </trkpt>
      <trkpt lat="48.18952" lon="-4.532878">
        <ele>101.6</ele>
        <time>2020-08-13T10:52:35Z</time>
      </trkpt>
      <trkpt lat="48.18856" lon="-4.533851">
        <ele>100.6</ele>
        <time>2020-08-13T10:52:43Z</time>
      </trkpt>
      <trkpt lat="48.188302" lon="-4.534084">
        <ele>100.2</ele>
        <time>2020-08-13T10:52:45Z</time>
      </trkpt>
      <trkpt lat="48.186852" lon="-4.535507">
        <ele>99.6</ele>
        <time>2020-08-13T10:52:57Z</time>
      </trkpt>
      <trkpt lat="48.185387" lon="-4.537124">
        <ele>95.6</ele>
        <time>2020-08-13T10:53:10Z</time>
      </trkpt>
      <trkpt lat="48.18497" lon="-4.537622">
        <ele>91.0</ele>
        <time>2020-08-13T10:53:13Z</time>
      </trkpt>
      <trkpt lat="48.184544" lon="-4.538092">
        <ele>91.0</ele>
        <time>2020-08-13T10:53:17Z</time>
      </trkpt>
      <trkpt lat="48.184269" lon="-4.538335">
        <ele>96.0</ele>
        <time>2020-08-13T10:53:19Z</time>
      </trkpt>
      <trkpt lat="48.183571" lon="-4.538766">
        <ele>88.8</ele>
        <time>2020-08-13T10:53:24Z</time>
      </trkpt>
      <trkpt lat="48.183257" lon="-4.53899">
        <ele>72.6</ele>
        <time>2020-08-13T10:53:27Z</time>
      </trkpt>
      <trkpt lat="48.182936" lon="-4.539295">
        <ele>83.8</ele>
        <time>2020-08-13T10:53:30Z</time>
      </trkpt>
      <trkpt lat="48.182653" lon="-4.53971">
        <ele>83.8</ele>
        <time>2020-08-13T10:53:33Z</time>
      </trkpt>
      <trkpt lat="48.182392" lon="-4.540192">
        <ele>73.6</ele>
        <time>2020-08-13T10:53:36Z</time>
      </trkpt>
      <trkpt lat="48.181077" lon="-4.542925">
        <ele>85.6</ele>
        <time>2020-08-13T10:53:51Z</time>
      </trkpt>
      <trkpt lat="48.180627" lon="-4.543721">
        <ele>84.0</ele>
        <time>2020-08-13T10:53:56Z</time>
      </trkpt>
      <trkpt lat="48.180209" lon="-4.544177">
        <ele>87.2</ele>
        <time>2020-08-13T10:54:00Z</time>
      </trkpt>
      <trkpt lat="48.179851" lon="-4.544447">
        <ele>86.6</ele>
        <time>2020-08-13T10:54:02Z</time>
      </trkpt>
      <trkpt lat="48.179468" lon="-4.544649">
        <ele>86.6</ele>
        <time>2020-08-13T10:54:05Z</time>
      </trkpt>
      <trkpt lat="48.179018" lon="-4.544829">
        <ele>87.0</ele>
        <time>2020-08-13T10:54:08Z</time>
      </trkpt>
      <trkpt lat="48.178167" lon="-4.545284">
        <ele>88.2</ele>
        <time>2020-08-13T10:54:15Z</time>
      </trkpt>
      <trkpt lat="48.177802" lon="-4.54559">
        <ele>88.2</ele>
        <time>2020-08-13T10:54:18Z</time>
      </trkpt>
      <trkpt lat="48.177607" lon="-4.545805">
        <ele>88.2</ele>
        <time>2020-08-13T10:54:19Z</time>
      </trkpt>
      <trkpt lat="48.177383" lon="-4.546118">
        <ele>89.2</ele>
        <time>2020-08-13T10:54:21Z</time>
      </trkpt>
      <trkpt lat="48.177183" lon="-4.546464">
        <ele>89.2</ele>
        <time>2020-08-13T10:54:24Z</time>
      </trkpt>
      <trkpt lat="48.176995" lon="-4.546896">
        <ele>89.0</ele>
        <time>2020-08-13T10:54:26Z</time>
      </trkpt>
      <trkpt lat="48.176522" lon="-4.54828">
        <ele>92.2</ele>
        <time>2020-08-13T10:54:33Z</time>
      </trkpt>
      <trkpt lat="48.176293" lon="-4.548797">
        <ele>92.6</ele>
        <time>2020-08-13T10:54:36Z</time>
      </trkpt>
      <trkpt lat="48.175999" lon="-4.549221">
        <ele>92.6</ele>
        <time>2020-08-13T10:54:39Z</time>
      </trkpt>
      <trkpt lat="48.175795" lon="-4.549421">
        <ele>93.8</ele>
        <time>2020-08-13T10:54:41Z</time>
      </trkpt>
      <trkpt lat="48.175254" lon="-4.549812">
        <ele>93.8</ele>
        <time>2020-08-13T10:54:45Z</time>
      </trkpt>
      <trkpt lat="48.17406" lon="-4.55062">
        <ele>93.4</ele>
        <time>2020-08-13T10:54:54Z</time>
      </trkpt>
      <trkpt lat="48.173481" lon="-4.550927">
        <ele>92.4</ele>
        <time>2020-08-13T10:54:58Z</time>
      </trkpt>
      <trkpt lat="48.171314" lon="-4.551895">
        <ele>94.4</ele>
        <time>2020-08-13T10:55:14Z</time>
      </trkpt>
      <trkpt lat="48.171097" lon="-4.552012">
        <ele>94.4</ele>
        <time>2020-08-13T10:55:16Z</time>
      </trkpt>
      <trkpt lat="48.171097" lon="-4.552012">
        <ele>94.4</ele>
        <time>2020-08-13T10:55:16Z</time>
      </trkpt>
      <trkpt lat="48.171314" lon="-4.551895">
        <ele>94.4</ele>
        <time>2020-08-13T10:55:17Z</time>
      </trkpt>
      <trkpt lat="48.173481" lon="-4.550927">
        <ele>92.4</ele>
        <time>2020-08-13T10:55:32Z</time>
      </trkpt>
      <trkpt lat="48.17406" lon="-4.55062">
        <ele>93.4</ele>
        <time>2020-08-13T10:55:36Z</time>
      </trkpt>
      <trkpt lat="48.175254" lon="-4.549812">
        <ele>93.8</ele>
        <time>2020-08-13T10:55:44Z</time>
      </trkpt>
      <trkpt lat="48.175795" lon="-4.549421">
        <ele>93.8</ele>
        <time>2020-08-13T10:55:48Z</time>
      </trkpt>
      <trkpt lat="48.175999" lon="-4.549221">
        <ele>92.6</ele>
        <time>2020-08-13T10:55:50Z</time>
      </trkpt>
      <trkpt lat="48.176293" lon="-4.548797">
        <ele>92.6</ele>
        <time>2020-08-13T10:55:52Z</time>
      </trkpt>
      <trkpt lat="48.176522" lon="-4.54828">
        <ele>92.2</ele>
        <time>2020-08-13T10:55:55Z</time>
      </trkpt>
      <trkpt lat="48.176995" lon="-4.546896">
        <ele>89.0</ele>
        <time>2020-08-13T10:56:02Z</time>
      </trkpt>
      <trkpt lat="48.177183" lon="-4.546464">
        <ele>89.2</ele>
        <time>2020-08-13T10:56:04Z</time>
      </trkpt>
      <trkpt lat="48.177383" lon="-4.546118">
        <ele>89.2</ele>
        <time>2020-08-13T10:56:06Z</time>
      </trkpt>
      <trkpt lat="48.177607" lon="-4.545805">
        <ele>88.2</ele>
        <time>2020-08-13T10:56:08Z</time>
      </trkpt>
      <trkpt lat="48.177802" lon="-4.54559">
        <ele>88.2</ele>
        <time>2020-08-13T10:56:09Z</time>
      </trkpt>
      <trkpt lat="48.178167" lon="-4.545284">
        <ele>88.2</ele>
        <time>2020-08-13T10:56:12Z</time>
      </trkpt>
      <trkpt lat="48.179018" lon="-4.544829">
        <ele>87.0</ele>
        <time>2020-08-13T10:56:18Z</time>
      </trkpt>
      <trkpt lat="48.179468" lon="-4.544649">
        <ele>86.6</ele>
        <time>2020-08-13T10:56:21Z</time>
      </trkpt>
      <trkpt lat="48.179851" lon="-4.544447">
        <ele>86.6</ele>
        <time>2020-08-13T10:56:24Z</time>
      </trkpt>
      <trkpt lat="48.180209" lon="-4.544177">
        <ele>87.2</ele>
        <time>2020-08-13T10:56:26Z</time>
      </trkpt>
      <trkpt lat="48.180627" lon="-4.543721">
        <ele>84.0</ele>
        <time>2020-08-13T10:56:29Z</time>
      </trkpt>
      <trkpt lat="48.181077" lon="-4.542925">
        <ele>85.6</ele>
        <time>2020-08-13T10:56:34Z</time>
      </trkpt>
      <trkpt lat="48.182392" lon="-4.540192">
        <ele>73.6</ele>
        <time>2020-08-13T10:56:48Z</time>
      </trkpt>
      <trkpt lat="48.182653" lon="-4.53971">
        <ele>83.8</ele>
        <time>2020-08-13T10:56:51Z</time>
      </trkpt>
      <trkpt lat="48.182936" lon="-4.539295">
        <ele>83.8</ele>
        <time>2020-08-13T10:56:54Z</time>
      </trkpt>
      <trkpt lat="48.183257" lon="-4.53899">
        <ele>72.6</ele>
        <time>2020-08-13T10:56:56Z</time>
      </trkpt>
      <trkpt lat="48.183571" lon="-4.538766">
        <ele>88.8</ele>
        <time>2020-08-13T10:56:59Z</time>
      </trkpt>
      <trkpt lat="48.184269" lon="-4.538335">
        <ele>96.0</ele>
        <time>2020-08-13T10:57:04Z</time>
      </trkpt>
      <trkpt lat="48.184544" lon="-4.538092">
        <ele>91.0</ele>
        <time>2020-08-13T10:57:06Z</time>
      </trkpt>
      <trkpt lat="48.18497" lon="-4.537622">
        <ele>91.0</ele>
        <time>2020-08-13T10:57:09Z</time>
      </trkpt>
      <trkpt lat="48.185387" lon="-4.537124">
        <ele>95.6</ele>
        <time>2020-08-13T10:57:12Z</time>
      </trkpt>
      <trkpt lat="48.186852" lon="-4.535507">
        <ele>99.6</ele>
        <time>2020-08-13T10:57:24Z</time>
      </trkpt>
      <trkpt lat="48.188302" lon="-4.534084">
        <ele>100.2</ele>
        <time>2020-08-13T10:57:35Z</time>
      </trkpt>
      <trkpt lat="48.18856" lon="-4.533851">
        <ele>100.6</ele>
        <time>2020-08-13T10:57:37Z</time>
      </trkpt>
      <trkpt lat="48.18952" lon="-4.532878">
        <ele>101.6</ele>
        <time>2020-08-13T10:57:45Z</time>
      </trkpt>
      <trkpt lat="48.190337" lon="-4.532351">
        <ele>102.2</ele>
        <time>2020-08-13T10:57:50Z</time>
      </trkpt>
      <trkpt lat="48.191202" lon="-4.531842">
        <ele>102.6</ele>
        <time>2020-08-13T10:57:56Z</time>
      </trkpt>
      <trkpt lat="48.191333" lon="-4.531783">
        <ele>102.6</ele>
        <time>2020-08-13T10:57:57Z</time>
      </trkpt>
      <trkpt lat="48.193874" lon="-4.531132">
        <ele>96.6</ele>
        <time>2020-08-13T10:58:14Z</time>
      </trkpt>
      <trkpt lat="48.194992" lon="-4.530881">
        <ele>93.2</ele>
        <time>2020-08-13T10:58:21Z</time>
      </trkpt>
      <trkpt lat="48.201529" lon="-4.529704">
        <ele>64.4</ele>
        <time>2020-08-13T10:59:04Z</time>
      </trkpt>
      <trkpt lat="48.201723" lon="-4.529604">
        <ele>61.4</ele>
        <time>2020-08-13T10:59:05Z</time>
      </trkpt>
      <trkpt lat="48.202302" lon="-4.529099">
        <ele>64.0</ele>
        <time>2020-08-13T10:59:09Z</time>
      </trkpt>
      <trkpt lat="48.202741" lon="-4.528911">
        <ele>60.0</ele>
        <time>2020-08-13T10:59:12Z</time>
      </trkpt>
      <trkpt lat="48.203787" lon="-4.528526">
        <ele>55.4</ele>
        <time>2020-08-13T10:59:19Z</time>
      </trkpt>
      <trkpt lat="48.203929" lon="-4.528402">
        <ele>55.4</ele>
        <time>2020-08-13T10:59:20Z</time>
      </trkpt>
      <trkpt lat="48.204992" lon="-4.526935">
        <ele>57.8</ele>
        <time>2020-08-13T10:59:30Z</time>
      </trkpt>
      <trkpt lat="48.205479" lon="-4.526221">
        <ele>56.8</ele>
        <time>2020-08-13T10:59:34Z</time>
      </trkpt>
      <trkpt lat="48.205646" lon="-4.526056">
        <ele>56.8</ele>
        <time>2020-08-13T10:59:35Z</time>
      </trkpt>
      <trkpt lat="48.205707" lon="-4.526027">
        <ele>56.8</ele>
        <time>2020-08-13T10:59:36Z</time>
      </trkpt>
      <trkpt lat="48.20602" lon="-4.526064">
        <ele>55.0</ele>
        <time>2020-08-13T10:59:38Z</time>
      </trkpt>
      <trkpt lat="48.2064" lon="-4.526207">
        <ele>55.0</ele>
        <time>2020-08-13T10:59:40Z</time>
      </trkpt>
      <trkpt lat="48.207151" lon="-4.526446">
        <ele>53.4</ele>
        <time>2020-08-13T10:59:45Z</time>
      </trkpt>
      <trkpt lat="48.208525" lon="-4.527469">
        <ele>48.2</ele>
        <time>2020-08-13T10:59:55Z</time>
      </trkpt>
      <trkpt lat="48.208685" lon="-4.527552">
        <ele>47.4</ele>
        <time>2020-08-13T10:59:56Z</time>
      </trkpt>
      <trkpt lat="48.20884" lon="-4.52754">
        <ele>47.4</ele>
        <time>2020-08-13T10:59:57Z</time>
      </trkpt>
      <trkpt lat="48.209017" lon="-4.527485">
        <ele>48.2</ele>
        <time>2020-08-13T10:59:58Z</time>
      </trkpt>
      <trkpt lat="48.210967" lon="-4.526575">
        <ele>38.0</ele>
        <time>2020-08-13T11:00:11Z</time>
      </trkpt>
      <trkpt lat="48.211259" lon="-4.526411">
        <ele>38.0</ele>
        <time>2020-08-13T11:00:13Z</time>
      </trkpt>
      <trkpt lat="48.211525" lon="-4.52619">
        <ele>38.0</ele>
        <time>2020-08-13T11:00:15Z</time>
      </trkpt>
      <trkpt lat="48.211774" lon="-4.526022">
        <ele>34.6</ele>
        <time>2020-08-13T11:00:17Z</time>
      </trkpt>
      <trkpt lat="48.212314" lon="-4.525764">
        <ele>34.6</ele>
        <time>2020-08-13T11:00:21Z</time>
      </trkpt>
      <trkpt lat="48.212496" lon="-4.525597">
        <ele>34.6</ele>
        <time>2020-08-13T11:00:22Z</time>
      </trkpt>
      <trkpt lat="48.212614" lon="-4.525417">
        <ele>34.0</ele>
        <time>2020-08-13T11:00:23Z</time>
      </trkpt>
      <trkpt lat="48.212931" lon="-4.524786">
        <ele>36.0</ele>
        <time>2020-08-13T11:00:27Z</time>
      </trkpt>
      <trkpt lat="48.213076" lon="-4.524535">
        <ele>36.0</ele>
        <time>2020-08-13T11:00:28Z</time>
      </trkpt>
      <trkpt lat="48.213269" lon="-4.524301">
        <ele>36.0</ele>
        <time>2020-08-13T11:00:30Z</time>
      </trkpt>
      <trkpt lat="48.214599" lon="-4.523235">
        <ele>39.8</ele>
        <time>2020-08-13T11:00:39Z</time>
      </trkpt>
      <trkpt lat="48.214781" lon="-4.523017">
        <ele>39.8</ele>
        <time>2020-08-13T11:00:41Z</time>
      </trkpt>
      <trkpt lat="48.214923" lon="-4.522771">
        <ele>39.8</ele>
        <time>2020-08-13T11:00:42Z</time>
      </trkpt>
      <trkpt lat="48.215042" lon="-4.522515">
        <ele>37.6</ele>
        <time>2020-08-13T11:00:44Z</time>
      </trkpt>
      <trkpt lat="48.215478" lon="-4.521359">
        <ele>39.8</ele>
        <time>2020-08-13T11:00:49Z</time>
      </trkpt>
      <trkpt lat="48.215722" lon="-4.52093">
        <ele>39.8</ele>
        <time>2020-08-13T11:00:52Z</time>
      </trkpt>
      <trkpt lat="48.216019" lon="-4.520462">
        <ele>38.0</ele>
        <time>2020-08-13T11:00:54Z</time>
      </trkpt>
      <trkpt lat="48.216248" lon="-4.519995">
        <ele>39.6</ele>
        <time>2020-08-13T11:00:57Z</time>
      </trkpt>
      <trkpt lat="48.216363" lon="-4.519696">
        <ele>39.6</ele>
        <time>2020-08-13T11:00:58Z</time>
      </trkpt>
      <trkpt lat="48.216427" lon="-4.519368">
        <ele>39.6</ele>
        <time>2020-08-13T11:01:00Z</time>
      </trkpt>
      <trkpt lat="48.216501" lon="-4.518643">
        <ele>41.2</ele>
        <time>2020-08-13T11:01:03Z</time>
      </trkpt>
      <trkpt lat="48.216627" lon="-4.518766">
        <ele>41.2</ele>
        <time>2020-08-13T11:01:05Z</time>
      </trkpt>
      <trkpt lat="48.217278" lon="-4.519682">
        <ele>37.2</ele>
        <time>2020-08-13T11:01:15Z</time>
      </trkpt>
      <trkpt lat="48.218852" lon="-4.521762">
        <ele>32.4</ele>
        <time>2020-08-13T11:01:39Z</time>
      </trkpt>
      <trkpt lat="48.219214" lon="-4.522275">
        <ele>29.2</ele>
        <time>2020-08-13T11:01:45Z</time>
      </trkpt>
      <trkpt lat="48.219354" lon="-4.522373">
        <ele>29.2</ele>
        <time>2020-08-13T11:01:47Z</time>
      </trkpt>
      <trkpt lat="48.21948" lon="-4.522403">
        <ele>29.2</ele>
        <time>2020-08-13T11:01:48Z</time>
      </trkpt>
      <trkpt lat="48.220124" lon="-4.522455">
        <ele>26.4</ele>
        <time>2020-08-13T11:01:56Z</time>
      </trkpt>
      <trkpt lat="48.220468" lon="-4.522514">
        <ele>26.6</ele>
        <time>2020-08-13T11:02:00Z</time>
      </trkpt>
      <trkpt lat="48.221021" lon="-4.522733">
        <ele>26.2</ele>
        <time>2020-08-13T11:02:06Z</time>
      </trkpt>
      <trkpt lat="48.22149" lon="-4.522947">
        <ele>26.2</ele>
        <time>2020-08-13T11:02:12Z</time>
      </trkpt>
      <trkpt lat="48.221614" lon="-4.523039">
        <ele>26.2</ele>
        <time>2020-08-13T11:02:14Z</time>
      </trkpt>
      <trkpt lat="48.221627" lon="-4.52312">
        <ele>26.2</ele>
        <time>2020-08-13T11:02:14Z</time>
      </trkpt>
      <trkpt lat="48.221535" lon="-4.5237">
        <ele>27.8</ele>
        <time>2020-08-13T11:02:19Z</time>
      </trkpt>
      <trkpt lat="48.221549" lon="-4.523907">
        <ele>27.8</ele>
        <time>2020-08-13T11:02:20Z</time>
      </trkpt>
      <trkpt lat="48.221587" lon="-4.524008">
        <ele>27.8</ele>
        <time>2020-08-13T11:02:21Z</time>
      </trkpt>
      <trkpt lat="48.221676" lon="-4.524102">
        <ele>29.4</ele>
        <time>2020-08-13T11:02:23Z</time>
      </trkpt>
      <trkpt lat="48.222266" lon="-4.524477">
        <ele>31.4</ele>
        <time>2020-08-13T11:02:30Z</time>
      </trkpt>
      <trkpt lat="48.222304" lon="-4.52459">
        <ele>31.4</ele>
        <time>2020-08-13T11:02:31Z</time>
      </trkpt>
      <trkpt lat="48.222318" lon="-4.524732">
        <ele>31.4</ele>
        <time>2020-08-13T11:02:32Z</time>
      </trkpt>
      <trkpt lat="48.222309" lon="-4.524954">
        <ele>31.4</ele>
        <time>2020-08-13T11:02:34Z</time>
      </trkpt>
      <trkpt lat="48.222282" lon="-4.525154">
        <ele>33.6</ele>
        <time>2020-08-13T11:02:35Z</time>
      </trkpt>
      <trkpt lat="48.2222" lon="-4.525506">
        <ele>33.6</ele>
        <time>2020-08-13T11:02:38Z</time>
      </trkpt>
      <trkpt lat="48.222143" lon="-4.525892">
        <ele>35.4</ele>
        <time>2020-08-13T11:02:41Z</time>
      </trkpt>
      <trkpt lat="48.222158" lon="-4.526001">
        <ele>35.4</ele>
        <time>2020-08-13T11:02:42Z</time>
      </trkpt>
      <trkpt lat="48.222193" lon="-4.526108">
        <ele>35.4</ele>
        <time>2020-08-13T11:02:43Z</time>
      </trkpt>
      <trkpt lat="48.222613" lon="-4.526579">
        <ele>37.4</ele>
        <time>2020-08-13T11:02:49Z</time>
      </trkpt>
      <trkpt lat="48.222746" lon="-4.52678">
        <ele>39.6</ele>
        <time>2020-08-13T11:02:51Z</time>
      </trkpt>
      <trkpt lat="48.22302" lon="-4.527276">
        <ele>39.6</ele>
        <time>2020-08-13T11:02:56Z</time>
      </trkpt>
      <trkpt lat="48.223401" lon="-4.527859">
        <ele>44.6</ele>
        <time>2020-08-13T11:03:02Z</time>
      </trkpt>
      <trkpt lat="48.223559" lon="-4.52766">
        <ele>44.6</ele>
        <time>2020-08-13T11:03:05Z</time>
      </trkpt>
      <trkpt lat="48.223692" lon="-4.527384">
        <ele>41.2</ele>
        <time>2020-08-13T11:03:07Z</time>
      </trkpt>
      <trkpt lat="48.224047" lon="-4.52748">
        <ele>41.2</ele>
        <time>2020-08-13T11:03:12Z</time>
      </trkpt>
      <trkpt lat="48.224121" lon="-4.52748">
        <ele>41.2</ele>
        <time>2020-08-13T11:03:12Z</time>
      </trkpt>
      <trkpt lat="48.224476" lon="-4.527334">
        <ele>42.6</ele>
        <time>2020-08-13T11:03:17Z</time>
      </trkpt>
      <trkpt lat="48.22468" lon="-4.527283">
        <ele>42.6</ele>
        <time>2020-08-13T11:03:19Z</time>
      </trkpt>
      <trkpt lat="48.225662" lon="-4.527207">
        <ele>45.2</ele>
        <time>2020-08-13T11:03:30Z</time>
      </trkpt>
      <trkpt lat="48.225776" lon="-4.527223">
        <ele>45.2</ele>
        <time>2020-08-13T11:03:32Z</time>
      </trkpt>
      <trkpt lat="48.226329" lon="-4.527512">
        <ele>55.0</ele>
        <time>2020-08-13T11:03:39Z</time>
      </trkpt>
      <trkpt lat="48.227666" lon="-4.528561">
        <ele>65.4</ele>
        <time>2020-08-13T11:03:56Z</time>
      </trkpt>
      <trkpt lat="48.228057" lon="-4.528829">
        <ele>65.4</ele>
        <time>2020-08-13T11:04:01Z</time>
      </trkpt>
      <trkpt lat="48.228401" lon="-4.528994">
        <ele>66.8</ele>
        <time>2020-08-13T11:04:05Z</time>
      </trkpt>
      <trkpt lat="48.228675" lon="-4.529083">
        <ele>66.8</ele>
        <time>2020-08-13T11:04:08Z</time>
      </trkpt>
      <trkpt lat="48.230643" lon="-4.529665">
        <ele>69.6</ele>
        <time>2020-08-13T11:04:31Z</time>
      </trkpt>
      <trkpt lat="48.230945" lon="-4.5298">
        <ele>70.0</ele>
        <time>2020-08-13T11:04:35Z</time>
      </trkpt>
      <trkpt lat="48.232747" lon="-4.530872">
        <ele>66.2</ele>
        <time>2020-08-13T11:04:57Z</time>
      </trkpt>
      <trkpt lat="48.232967" lon="-4.529911">
        <ele>65.2</ele>
        <time>2020-08-13T11:05:03Z</time>
      </trkpt>
      <trkpt lat="48.23361" lon="-4.527879">
        <ele>63.6</ele>
        <time>2020-08-13T11:05:14Z</time>
      </trkpt>
      <trkpt lat="48.234167" lon="-4.526245">
        <ele>63.8</ele>
        <time>2020-08-13T11:05:24Z</time>
      </trkpt>
      <trkpt lat="48.234648" lon="-4.524757">
        <ele>63.8</ele>
        <time>2020-08-13T11:05:32Z</time>
      </trkpt>
      <trkpt lat="48.234825" lon="-4.524386">
        <ele>63.8</ele>
        <time>2020-08-13T11:05:34Z</time>
      </trkpt>
      <trkpt lat="48.235231" lon="-4.523741">
        <ele>59.4</ele>
        <time>2020-08-13T11:05:39Z</time>
      </trkpt>
      <trkpt lat="48.235908" lon="-4.522537">
        <ele>59.0</ele>
        <time>2020-08-13T11:05:47Z</time>
      </trkpt>
      <trkpt lat="48.236222" lon="-4.52206">
        <ele>59.4</ele>
        <time>2020-08-13T11:05:50Z</time>
      </trkpt>
      <trkpt lat="48.23686" lon="-4.521222">
        <ele>60.8</ele>
        <time>2020-08-13T11:05:57Z</time>
      </trkpt>
      <trkpt lat="48.23846" lon="-4.519223">
        <ele>63.0</ele>
        <time>2020-08-13T11:06:13Z</time>
      </trkpt>
      <trkpt lat="48.239565" lon="-4.51778">
        <ele>64.2</ele>
        <time>2020-08-13T11:06:24Z</time>
      </trkpt>
      <trkpt lat="48.240092" lon="-4.517038">
        <ele>64.0</ele>
        <time>2020-08-13T11:06:30Z</time>
      </trkpt>
      <trkpt lat="48.2417" lon="-4.514343">
        <ele>62.0</ele>
        <time>2020-08-13T11:06:48Z</time>
      </trkpt>
      <trkpt lat="48.242651" lon="-4.512786">
        <ele>61.0</ele>
        <time>2020-08-13T11:06:59Z</time>
      </trkpt>
      <trkpt lat="48.243174" lon="-4.51216">
        <ele>59.4</ele>
        <time>2020-08-13T11:07:04Z</time>
      </trkpt>
      <trkpt lat="48.243665" lon="-4.511766">
        <ele>59.8</ele>
        <time>2020-08-13T11:07:09Z</time>
      </trkpt>
      <trkpt lat="48.244173" lon="-4.511186">
        <ele>58.0</ele>
        <time>2020-08-13T11:07:14Z</time>
      </trkpt>
      <trkpt lat="48.24429" lon="-4.510908">
        <ele>58.0</ele>
        <time>2020-08-13T11:07:15Z</time>
      </trkpt>
      <trkpt lat="48.244396" lon="-4.511017">
        <ele>58.0</ele>
        <time>2020-08-13T11:07:17Z</time>
      </trkpt>
      <trkpt lat="48.244532" lon="-4.511087">
        <ele>58.0</ele>
        <time>2020-08-13T11:07:18Z</time>
      </trkpt>
      <trkpt lat="48.244844" lon="-4.510828">
        <ele>55.8</ele>
        <time>2020-08-13T11:07:22Z</time>
      </trkpt>
      <trkpt lat="48.245044" lon="-4.510781">
        <ele>59.8</ele>
        <time>2020-08-13T11:07:24Z</time>
      </trkpt>
      <trkpt lat="48.245483" lon="-4.510523">
        <ele>59.8</ele>
        <time>2020-08-13T11:07:29Z</time>
      </trkpt>
      <trkpt lat="48.246733" lon="-4.509557">
        <ele>63.4</ele>
        <time>2020-08-13T11:07:43Z</time>
      </trkpt>
      <trkpt lat="48.247168" lon="-4.509248">
        <ele>63.4</ele>
        <time>2020-08-13T11:07:48Z</time>
      </trkpt>
      <trkpt lat="48.248339" lon="-4.508117">
        <ele>66.4</ele>
        <time>2020-08-13T11:08:02Z</time>
      </trkpt>
      <trkpt lat="48.249098" lon="-4.50752">
        <ele>66.4</ele>
        <time>2020-08-13T11:08:11Z</time>
      </trkpt>
      <trkpt lat="48.249141" lon="-4.507462">
        <ele>68.4</ele>
        <time>2020-08-13T11:08:12Z</time>
      </trkpt>
      <trkpt lat="48.249396" lon="-4.50861">
        <ele>64.8</ele>
        <time>2020-08-13T11:08:19Z</time>
      </trkpt>
      <trkpt lat="48.249988" lon="-4.510924">
        <ele>61.2</ele>
        <time>2020-08-13T11:08:33Z</time>
      </trkpt>
      <trkpt lat="48.25048" lon="-4.51365">
        <ele>58.4</ele>
        <time>2020-08-13T11:08:49Z</time>
      </trkpt>
      <trkpt lat="48.250775" lon="-4.514821">
        <ele>57.0</ele>
        <time>2020-08-13T11:08:56Z</time>
      </trkpt>
      <trkpt lat="48.251819" lon="-4.517964">
        <ele>45.2</ele>
        <time>2020-08-13T11:09:16Z</time>
      </trkpt>
      <trkpt lat="48.252221" lon="-4.519465">
        <ele>47.0</ele>
        <time>2020-08-13T11:09:25Z</time>
      </trkpt>
      <trkpt lat="48.252377" lon="-4.519964">
        <ele>47.0</ele>
        <time>2020-08-13T11:09:29Z</time>
      </trkpt>
      <trkpt lat="48.252857" lon="-4.521386">
        <ele>44.6</ele>
        <time>2020-08-13T11:09:38Z</time>
      </trkpt>
      <trkpt lat="48.253485" lon="-4.523346">
        <ele>43.6</ele>
        <time>2020-08-13T11:09:50Z</time>
      </trkpt>
      <trkpt lat="48.254341" lon="-4.52581">
        <ele>37.6</ele>
        <time>2020-08-13T11:10:06Z</time>
      </trkpt>
      <trkpt lat="48.255543" lon="-4.529974">
        <ele>31.4</ele>
        <time>2020-08-13T11:10:32Z</time>
      </trkpt>
      <trkpt lat="48.255691" lon="-4.530642">
        <ele>29.2</ele>
        <time>2020-08-13T11:10:36Z</time>
      </trkpt>
      <trkpt lat="48.255774" lon="-4.53123">
        <ele>28.2</ele>
        <time>2020-08-13T11:10:39Z</time>
      </trkpt>
      <trkpt lat="48.255802" lon="-4.531718">
        <ele>28.0</ele>
        <time>2020-08-13T11:10:42Z</time>
      </trkpt>
      <trkpt lat="48.255802" lon="-4.532225">
        <ele>28.0</ele>
        <time>2020-08-13T11:10:45Z</time>
      </trkpt>
      <trkpt lat="48.255781" lon="-4.532875">
        <ele>28.6</ele>
        <time>2020-08-13T11:10:49Z</time>
      </trkpt>
      <trkpt lat="48.255805" lon="-4.533799">
        <ele>29.6</ele>
        <time>2020-08-13T11:10:54Z</time>
      </trkpt>
      <trkpt lat="48.255884" lon="-4.534298">
        <ele>37.2</ele>
        <time>2020-08-13T11:10:57Z</time>
      </trkpt>
      <trkpt lat="48.256019" lon="-4.534825">
        <ele>37.2</ele>
        <time>2020-08-13T11:11:00Z</time>
      </trkpt>
      <trkpt lat="48.256219" lon="-4.535487">
        <ele>37.5</ele>
        <time>2020-08-13T11:11:04Z</time>
      </trkpt>
      <trkpt lat="48.256219" lon="-4.535487">
        <ele>37.5</ele>
        <time>2020-08-13T11:11:04Z</time>
      </trkpt>
      <trkpt lat="48.256568" lon="-4.536648">
        <ele>37.8</ele>
        <time>2020-08-13T11:11:11Z</time>
      </trkpt>
      <trkpt lat="48.257567" lon="-4.53969">
        <ele>46.0</ele>
        <time>2020-08-13T11:11:28Z</time>
      </trkpt>
      <trkpt lat="48.25806" lon="-4.541301">
        <ele>46.0</ele>
        <time>2020-08-13T11:11:38Z</time>
      </trkpt>
      <trkpt lat="48.25871" lon="-4.543888">
        <ele>47.0</ele>
        <time>2020-08-13T11:11:52Z</time>
      </trkpt>
      <trkpt lat="48.25881" lon="-4.544391">
        <ele>47.4</ele>
        <time>2020-08-13T11:11:55Z</time>
      </trkpt>
      <trkpt lat="48.259094" lon="-4.5466">
        <ele>47.0</ele>
        <time>2020-08-13T11:12:06Z</time>
      </trkpt>
      <trkpt lat="48.259127" lon="-4.54705">
        <ele>46.6</ele>
        <time>2020-08-13T11:12:09Z</time>
      </trkpt>
      <trkpt lat="48.259118" lon="-4.547317">
        <ele>46.6</ele>
        <time>2020-08-13T11:12:10Z</time>
      </trkpt>
      <trkpt lat="48.259097" lon="-4.547726">
        <ele>45.2</ele>
        <time>2020-08-13T11:12:12Z</time>
      </trkpt>
      <trkpt lat="48.258969" lon="-4.549083">
        <ele>43.2</ele>
        <time>2020-08-13T11:12:19Z</time>
      </trkpt>
      <trkpt lat="48.258894" lon="-4.550248">
        <ele>38.0</ele>
        <time>2020-08-13T11:12:25Z</time>
      </trkpt>
      <trkpt lat="48.258746" lon="-4.55098">
        <ele>34.6</ele>
        <time>2020-08-13T11:12:29Z</time>
      </trkpt>
      <trkpt lat="48.258691" lon="-4.551392">
        <ele>34.6</ele>
        <time>2020-08-13T11:12:31Z</time>
      </trkpt>
      <trkpt lat="48.258668" lon="-4.551955">
        <ele>31.4</ele>
        <time>2020-08-13T11:12:34Z</time>
      </trkpt>
      <trkpt lat="48.258666" lon="-4.552854">
        <ele>26.4</ele>
        <time>2020-08-13T11:12:39Z</time>
      </trkpt>
      <trkpt lat="48.258628" lon="-4.553335">
        <ele>20.0</ele>
        <time>2020-08-13T11:12:41Z</time>
      </trkpt>
      <trkpt lat="48.258414" lon="-4.554858">
        <ele>12.4</ele>
        <time>2020-08-13T11:12:49Z</time>
      </trkpt>
      <trkpt lat="48.258393" lon="-4.555232">
        <ele>6.25</ele>
        <time>2020-08-13T11:12:51Z</time>
      </trkpt>
      <trkpt lat="48.258421" lon="-4.555604">
        <ele>6.25</ele>
        <time>2020-08-13T11:12:53Z</time>
      </trkpt>
      <trkpt lat="48.258482" lon="-4.555849">
        <ele>2.75</ele>
        <time>2020-08-13T11:12:55Z</time>
      </trkpt>
      <trkpt lat="48.259019" lon="-4.55733">
        <ele>2.0</ele>
        <time>2020-08-13T11:13:03Z</time>
      </trkpt>
      <trkpt lat="48.259132" lon="-4.557715">
        <ele>1.75</ele>
        <time>2020-08-13T11:13:06Z</time>
      </trkpt>
      <trkpt lat="48.259306" lon="-4.558657">
        <ele>3.8</ele>
        <time>2020-08-13T11:13:11Z</time>
      </trkpt>
      <trkpt lat="48.259392" lon="-4.559348">
        <ele>4.8</ele>
        <time>2020-08-13T11:13:14Z</time>
      </trkpt>
      <trkpt lat="48.259409" lon="-4.559774">
        <ele>4.8</ele>
        <time>2020-08-13T11:13:16Z</time>
      </trkpt>
      <trkpt lat="48.259392" lon="-4.560821">
        <ele>6.2</ele>
        <time>2020-08-13T11:13:22Z</time>
      </trkpt>
      <trkpt lat="48.259407" lon="-4.561162">
        <ele>9.8</ele>
        <time>2020-08-13T11:13:24Z</time>
      </trkpt>
      <trkpt lat="48.259485" lon="-4.561687">
        <ele>14.2</ele>
        <time>2020-08-13T11:13:26Z</time>
      </trkpt>
      <trkpt lat="48.259585" lon="-4.562011">
        <ele>14.2</ele>
        <time>2020-08-13T11:13:28Z</time>
      </trkpt>
      <trkpt lat="48.260947" lon="-4.565597">
        <ele>24.8</ele>
        <time>2020-08-13T11:13:50Z</time>
      </trkpt>
      <trkpt lat="48.261092" lon="-4.566038">
        <ele>27.0</ele>
        <time>2020-08-13T11:13:52Z</time>
      </trkpt>
      <trkpt lat="48.261437" lon="-4.567422">
        <ele>26.6</ele>
        <time>2020-08-13T11:14:00Z</time>
      </trkpt>
      <trkpt lat="48.26159" lon="-4.568302">
        <ele>25.8</ele>
        <time>2020-08-13T11:14:04Z</time>
      </trkpt>
      <trkpt lat="48.261668" lon="-4.568893">
        <ele>17.8</ele>
        <time>2020-08-13T11:14:08Z</time>
      </trkpt>
      <trkpt lat="48.262378" lon="-4.574889">
        <ele>18.2</ele>
        <time>2020-08-13T11:14:39Z</time>
      </trkpt>
      <trkpt lat="48.262447" lon="-4.575268">
        <ele>18.8</ele>
        <time>2020-08-13T11:14:41Z</time>
      </trkpt>
      <trkpt lat="48.262537" lon="-4.575584">
        <ele>18.0</ele>
        <time>2020-08-13T11:14:43Z</time>
      </trkpt>
      <trkpt lat="48.262646" lon="-4.575853">
        <ele>19.2</ele>
        <time>2020-08-13T11:14:44Z</time>
      </trkpt>
      <trkpt lat="48.263158" lon="-4.576856">
        <ele>20.2</ele>
        <time>2020-08-13T11:14:51Z</time>
      </trkpt>
      <trkpt lat="48.263313" lon="-4.577086">
        <ele>20.2</ele>
        <time>2020-08-13T11:14:53Z</time>
      </trkpt>
      <trkpt lat="48.26349" lon="-4.577289">
        <ele>23.0</ele>
        <time>2020-08-13T11:14:54Z</time>
      </trkpt>
      <trkpt lat="48.263654" lon="-4.57743">
        <ele>23.0</ele>
        <time>2020-08-13T11:14:56Z</time>
      </trkpt>
      <trkpt lat="48.263816" lon="-4.57752">
        <ele>22.0</ele>
        <time>2020-08-13T11:14:57Z</time>
      </trkpt>
      <trkpt lat="48.263986" lon="-4.577592">
        <ele>22.0</ele>
        <time>2020-08-13T11:14:59Z</time>
      </trkpt>
      <trkpt lat="48.264162" lon="-4.577622">
        <ele>22.0</ele>
        <time>2020-08-13T11:15:00Z</time>
      </trkpt>
      <trkpt lat="48.264325" lon="-4.577629">
        <ele>27.6</ele>
        <time>2020-08-13T11:15:01Z</time>
      </trkpt>
      <trkpt lat="48.264626" lon="-4.577568">
        <ele>27.6</ele>
        <time>2020-08-13T11:15:04Z</time>
      </trkpt>
      <trkpt lat="48.264845" lon="-4.577446">
        <ele>28.8</ele>
        <time>2020-08-13T11:15:05Z</time>
      </trkpt>
      <trkpt lat="48.265053" lon="-4.57728">
        <ele>35.8</ele>
        <time>2020-08-13T11:15:07Z</time>
      </trkpt>
      <trkpt lat="48.26561" lon="-4.57663">
        <ele>37.4</ele>
        <time>2020-08-13T11:15:13Z</time>
      </trkpt>
      <trkpt lat="48.265762" lon="-4.576541">
        <ele>37.4</ele>
        <time>2020-08-13T11:15:14Z</time>
      </trkpt>
      <trkpt lat="48.26595" lon="-4.576481">
        <ele>42.2</ele>
        <time>2020-08-13T11:15:16Z</time>
      </trkpt>
      <trkpt lat="48.266131" lon="-4.576478">
        <ele>42.2</ele>
        <time>2020-08-13T11:15:17Z</time>
      </trkpt>
      <trkpt lat="48.266359" lon="-4.576509">
        <ele>42.2</ele>
        <time>2020-08-13T11:15:19Z</time>
      </trkpt>
      <trkpt lat="48.266956" lon="-4.576684">
        <ele>43.2</ele>
        <time>2020-08-13T11:15:24Z</time>
      </trkpt>
      <trkpt lat="48.267632" lon="-4.576941">
        <ele>43.8</ele>
        <time>2020-08-13T11:15:29Z</time>
      </trkpt>
      <trkpt lat="48.267936" lon="-4.577126">
        <ele>43.8</ele>
        <time>2020-08-13T11:15:31Z</time>
      </trkpt>
      <trkpt lat="48.268749" lon="-4.577979">
        <ele>43.4</ele>
        <time>2020-08-13T11:15:39Z</time>
      </trkpt>
      <trkpt lat="48.269546" lon="-4.578882">
        <ele>44.2</ele>
        <time>2020-08-13T11:15:47Z</time>
      </trkpt>
      <trkpt lat="48.269824" lon="-4.579311">
        <ele>44.2</ele>
        <time>2020-08-13T11:15:50Z</time>
      </trkpt>
      <trkpt lat="48.269999" lon="-4.579713">
        <ele>44.2</ele>
        <time>2020-08-13T11:15:52Z</time>
      </trkpt>
      <trkpt lat="48.270087" lon="-4.579966">
        <ele>45.6</ele>
        <time>2020-08-13T11:15:54Z</time>
      </trkpt>
      <trkpt lat="48.270174" lon="-4.580365">
        <ele>45.8</ele>
        <time>2020-08-13T11:15:56Z</time>
      </trkpt>
      <trkpt lat="48.270211" lon="-4.580932">
        <ele>46.0</ele>
        <time>2020-08-13T11:15:59Z</time>
      </trkpt>
      <trkpt lat="48.270109" lon="-4.583785">
        <ele>48.6</ele>
        <time>2020-08-13T11:16:14Z</time>
      </trkpt>
      <trkpt lat="48.270114" lon="-4.584053">
        <ele>48.6</ele>
        <time>2020-08-13T11:16:15Z</time>
      </trkpt>
      <trkpt lat="48.270143" lon="-4.584316">
        <ele>48.2</ele>
        <time>2020-08-13T11:16:17Z</time>
      </trkpt>
      <trkpt lat="48.270221" lon="-4.584607">
        <ele>48.2</ele>
        <time>2020-08-13T11:16:18Z</time>
      </trkpt>
      <trkpt lat="48.270355" lon="-4.584953">
        <ele>48.2</ele>
        <time>2020-08-13T11:16:20Z</time>
      </trkpt>
      <trkpt lat="48.271459" lon="-4.586961">
        <ele>49.0</ele>
        <time>2020-08-13T11:16:34Z</time>
      </trkpt>
      <trkpt lat="48.271653" lon="-4.587126">
        <ele>49.0</ele>
        <time>2020-08-13T11:16:36Z</time>
      </trkpt>
      <trkpt lat="48.271713" lon="-4.587124">
        <ele>49.6</ele>
        <time>2020-08-13T11:16:36Z</time>
      </trkpt>
      <trkpt lat="48.271754" lon="-4.587154">
        <ele>49.6</ele>
        <time>2020-08-13T11:16:37Z</time>
      </trkpt>
      <trkpt lat="48.271784" lon="-4.587205">
        <ele>49.6</ele>
        <time>2020-08-13T11:16:38Z</time>
      </trkpt>
      <trkpt lat="48.271798" lon="-4.58727">
        <ele>49.6</ele>
        <time>2020-08-13T11:16:38Z</time>
      </trkpt>
      <trkpt lat="48.271773" lon="-4.587396">
        <ele>49.6</ele>
        <time>2020-08-13T11:16:39Z</time>
      </trkpt>
      <trkpt lat="48.271851" lon="-4.587783">
        <ele>48.8</ele>
        <time>2020-08-13T11:16:43Z</time>
      </trkpt>
      <trkpt lat="48.271943" lon="-4.588666">
        <ele>46.2</ele>
        <time>2020-08-13T11:16:51Z</time>
      </trkpt>
      <trkpt lat="48.272042" lon="-4.590489">
        <ele>37.8</ele>
        <time>2020-08-13T11:17:07Z</time>
      </trkpt>
      <trkpt lat="48.272121" lon="-4.590833">
        <ele>33.8</ele>
        <time>2020-08-13T11:17:10Z</time>
      </trkpt>
      <trkpt lat="48.272143" lon="-4.59086">
        <ele>33.8</ele>
        <time>2020-08-13T11:17:10Z</time>
      </trkpt>
      <trkpt lat="48.272162" lon="-4.590939">
        <ele>33.8</ele>
        <time>2020-08-13T11:17:11Z</time>
      </trkpt>
      <trkpt lat="48.272146" lon="-4.591009">
        <ele>33.8</ele>
        <time>2020-08-13T11:17:12Z</time>
      </trkpt>
      <trkpt lat="48.27209" lon="-4.591054">
        <ele>33.8</ele>
        <time>2020-08-13T11:17:13Z</time>
      </trkpt>
      <trkpt lat="48.272122" lon="-4.5918">
        <ele>29.4</ele>
        <time>2020-08-13T11:17:19Z</time>
      </trkpt>
      <trkpt lat="48.272257" lon="-4.593878">
        <ele>22.2</ele>
        <time>2020-08-13T11:17:38Z</time>
      </trkpt>
      <trkpt lat="48.272339" lon="-4.595655">
        <ele>15.2</ele>
        <time>2020-08-13T11:17:53Z</time>
      </trkpt>
      <trkpt lat="48.272394" lon="-4.595689">
        <ele>15.2</ele>
        <time>2020-08-13T11:17:54Z</time>
      </trkpt>
      <trkpt lat="48.272421" lon="-4.595768">
        <ele>15.2</ele>
        <time>2020-08-13T11:17:54Z</time>
      </trkpt>
      <trkpt lat="48.272419" lon="-4.595812">
        <ele>15.2</ele>
        <time>2020-08-13T11:17:55Z</time>
      </trkpt>
      <trkpt lat="48.272387" lon="-4.595883">
        <ele>12.0</ele>
        <time>2020-08-13T11:17:55Z</time>
      </trkpt>
      <trkpt lat="48.272362" lon="-4.595904">
        <ele>12.0</ele>
        <time>2020-08-13T11:17:56Z</time>
      </trkpt>
      <trkpt lat="48.272461" lon="-4.596526">
        <ele>12.0</ele>
        <time>2020-08-13T11:18:00Z</time>
      </trkpt>
      <trkpt lat="48.272522" lon="-4.596718">
        <ele>8.8</ele>
        <time>2020-08-13T11:18:02Z</time>
      </trkpt>
      <trkpt lat="48.272571" lon="-4.596723">
        <ele>8.8</ele>
        <time>2020-08-13T11:18:02Z</time>
      </trkpt>
      <trkpt lat="48.272594" lon="-4.596789">
        <ele>8.8</ele>
        <time>2020-08-13T11:18:03Z</time>
      </trkpt>
      <trkpt lat="48.272576" lon="-4.596845">
        <ele>8.8</ele>
        <time>2020-08-13T11:18:03Z</time>
      </trkpt>
      <trkpt lat="48.272533" lon="-4.596861">
        <ele>8.8</ele>
        <time>2020-08-13T11:18:04Z</time>
      </trkpt>
      <trkpt lat="48.272668" lon="-4.598792">
        <ele>12.0</ele>
        <time>2020-08-13T11:18:17Z</time>
      </trkpt>
      <trkpt lat="48.272761" lon="-4.599548">
        <ele>16.4</ele>
        <time>2020-08-13T11:18:22Z</time>
      </trkpt>
      <trkpt lat="48.272805" lon="-4.599535">
        <ele>16.4</ele>
        <time>2020-08-13T11:18:23Z</time>
      </trkpt>
      <trkpt lat="48.272847" lon="-4.599554">
        <ele>16.4</ele>
        <time>2020-08-13T11:18:23Z</time>
      </trkpt>
      <trkpt lat="48.272889" lon="-4.599633">
        <ele>16.4</ele>
        <time>2020-08-13T11:18:24Z</time>
      </trkpt>
      <trkpt lat="48.272889" lon="-4.599711">
        <ele>16.4</ele>
        <time>2020-08-13T11:18:24Z</time>
      </trkpt>
      <trkpt lat="48.272836" lon="-4.599801">
        <ele>16.4</ele>
        <time>2020-08-13T11:18:25Z</time>
      </trkpt>
      <trkpt lat="48.272776" lon="-4.599807">
        <ele>16.4</ele>
        <time>2020-08-13T11:18:26Z</time>
      </trkpt>
      <trkpt lat="48.272796" lon="-4.600487">
        <ele>20.8</ele>
        <time>2020-08-13T11:18:31Z</time>
      </trkpt>
      <trkpt lat="48.272789" lon="-4.600861">
        <ele>24.0</ele>
        <time>2020-08-13T11:18:34Z</time>
      </trkpt>
      <trkpt lat="48.272727" lon="-4.601442">
        <ele>24.0</ele>
        <time>2020-08-13T11:18:38Z</time>
      </trkpt>
      <trkpt lat="48.272625" lon="-4.601979">
        <ele>27.0</ele>
        <time>2020-08-13T11:18:42Z</time>
      </trkpt>
      <trkpt lat="48.272291" lon="-4.603456">
        <ele>37.6</ele>
        <time>2020-08-13T11:18:53Z</time>
      </trkpt>
      <trkpt lat="48.272205" lon="-4.603984">
        <ele>37.6</ele>
        <time>2020-08-13T11:18:57Z</time>
      </trkpt>
      <trkpt lat="48.272143" lon="-4.604573">
        <ele>40.2</ele>
        <time>2020-08-13T11:19:02Z</time>
      </trkpt>
      <trkpt lat="48.272101" lon="-4.605258">
        <ele>42.2</ele>
        <time>2020-08-13T11:19:07Z</time>
      </trkpt>
      <trkpt lat="48.27197" lon="-4.61018">
        <ele>49.4</ele>
        <time>2020-08-13T11:19:43Z</time>
      </trkpt>
      <trkpt lat="48.271985" lon="-4.610392">
        <ele>49.4</ele>
        <time>2020-08-13T11:19:44Z</time>
      </trkpt>
      <trkpt lat="48.272226" lon="-4.611134">
        <ele>51.6</ele>
        <time>2020-08-13T11:19:50Z</time>
      </trkpt>
      <trkpt lat="48.272283" lon="-4.611204">
        <ele>51.6</ele>
        <time>2020-08-13T11:19:51Z</time>
      </trkpt>
      <trkpt lat="48.272361" lon="-4.611275">
        <ele>51.6</ele>
        <time>2020-08-13T11:19:52Z</time>
      </trkpt>
      <trkpt lat="48.272499" lon="-4.611343">
        <ele>51.6</ele>
        <time>2020-08-13T11:19:54Z</time>
      </trkpt>
      <trkpt lat="48.272646" lon="-4.611343">
        <ele>53.6</ele>
        <time>2020-08-13T11:19:55Z</time>
      </trkpt>
      <trkpt lat="48.272807" lon="-4.611283">
        <ele>53.6</ele>
        <time>2020-08-13T11:19:57Z</time>
      </trkpt>
      <trkpt lat="48.272911" lon="-4.61121">
        <ele>53.1</ele>
        <time>2020-08-13T11:19:59Z</time>
      </trkpt>
      <trkpt lat="48.272911" lon="-4.61121">
        <ele>53.1</ele>
        <time>2020-08-13T11:19:59Z</time>
      </trkpt>
      <trkpt lat="48.272807" lon="-4.611283">
        <ele>53.6</ele>
        <time>2020-08-13T11:20:00Z</time>
      </trkpt>
      <trkpt lat="48.272646" lon="-4.611343">
        <ele>53.6</ele>
        <time>2020-08-13T11:20:02Z</time>
      </trkpt>
      <trkpt lat="48.272499" lon="-4.611343">
        <ele>51.6</ele>
        <time>2020-08-13T11:20:03Z</time>
      </trkpt>
      <trkpt lat="48.272361" lon="-4.611275">
        <ele>51.6</ele>
        <time>2020-08-13T11:20:05Z</time>
      </trkpt>
      <trkpt lat="48.272283" lon="-4.611204">
        <ele>51.6</ele>
        <time>2020-08-13T11:20:06Z</time>
      </trkpt>
      <trkpt lat="48.272226" lon="-4.611134">
        <ele>51.6</ele>
        <time>2020-08-13T11:20:07Z</time>
      </trkpt>
      <trkpt lat="48.271985" lon="-4.610392">
        <ele>49.4</ele>
        <time>2020-08-13T11:20:13Z</time>
      </trkpt>
      <trkpt lat="48.27197" lon="-4.61018">
        <ele>49.4</ele>
        <time>2020-08-13T11:20:14Z</time>
      </trkpt>
      <trkpt lat="48.272101" lon="-4.605258">
        <ele>42.2</ele>
        <time>2020-08-13T11:20:51Z</time>
      </trkpt>
      <trkpt lat="48.272143" lon="-4.604573">
        <ele>40.2</ele>
        <time>2020-08-13T11:20:56Z</time>
      </trkpt>
      <trkpt lat="48.272205" lon="-4.603984">
        <ele>37.6</ele>
        <time>2020-08-13T11:21:00Z</time>
      </trkpt>
      <trkpt lat="48.272291" lon="-4.603456">
        <ele>37.6</ele>
        <time>2020-08-13T11:21:04Z</time>
      </trkpt>
      <trkpt lat="48.272625" lon="-4.601979">
        <ele>27.0</ele>
        <time>2020-08-13T11:21:15Z</time>
      </trkpt>
      <trkpt lat="48.272727" lon="-4.601442">
        <ele>24.0</ele>
        <time>2020-08-13T11:21:19Z</time>
      </trkpt>
      <trkpt lat="48.272789" lon="-4.600861">
        <ele>24.0</ele>
        <time>2020-08-13T11:21:24Z</time>
      </trkpt>
      <trkpt lat="48.272796" lon="-4.600487">
        <ele>20.8</ele>
        <time>2020-08-13T11:21:27Z</time>
      </trkpt>
      <trkpt lat="48.272776" lon="-4.599807">
        <ele>16.4</ele>
        <time>2020-08-13T11:21:32Z</time>
      </trkpt>
      <trkpt lat="48.272727" lon="-4.599759">
        <ele>16.4</ele>
        <time>2020-08-13T11:21:32Z</time>
      </trkpt>
      <trkpt lat="48.27271" lon="-4.599703">
        <ele>16.4</ele>
        <time>2020-08-13T11:21:33Z</time>
      </trkpt>
      <trkpt lat="48.27271" lon="-4.599641">
        <ele>16.4</ele>
        <time>2020-08-13T11:21:33Z</time>
      </trkpt>
      <trkpt lat="48.272729" lon="-4.599586">
        <ele>16.4</ele>
        <time>2020-08-13T11:21:34Z</time>
      </trkpt>
      <trkpt lat="48.272761" lon="-4.599548">
        <ele>16.4</ele>
        <time>2020-08-13T11:21:34Z</time>
      </trkpt>
      <trkpt lat="48.272668" lon="-4.598792">
        <ele>12.0</ele>
        <time>2020-08-13T11:21:39Z</time>
      </trkpt>
      <trkpt lat="48.272533" lon="-4.596861">
        <ele>8.8</ele>
        <time>2020-08-13T11:21:52Z</time>
      </trkpt>
      <trkpt lat="48.272493" lon="-4.596795">
        <ele>9.2</ele>
        <time>2020-08-13T11:21:53Z</time>
      </trkpt>
      <trkpt lat="48.272522" lon="-4.596718">
        <ele>8.8</ele>
        <time>2020-08-13T11:21:54Z</time>
      </trkpt>
      <trkpt lat="48.272461" lon="-4.596526">
        <ele>12.0</ele>
        <time>2020-08-13T11:21:55Z</time>
      </trkpt>
      <trkpt lat="48.272362" lon="-4.595904">
        <ele>12.0</ele>
        <time>2020-08-13T11:22:00Z</time>
      </trkpt>
      <trkpt lat="48.272288" lon="-4.595886">
        <ele>12.0</ele>
        <time>2020-08-13T11:22:00Z</time>
      </trkpt>
      <trkpt lat="48.272252" lon="-4.595789">
        <ele>15.2</ele>
        <time>2020-08-13T11:22:02Z</time>
      </trkpt>
      <trkpt lat="48.272257" lon="-4.595737">
        <ele>15.2</ele>
        <time>2020-08-13T11:22:02Z</time>
      </trkpt>
      <trkpt lat="48.272305" lon="-4.595665">
        <ele>15.2</ele>
        <time>2020-08-13T11:22:03Z</time>
      </trkpt>
      <trkpt lat="48.272339" lon="-4.595655">
        <ele>15.2</ele>
        <time>2020-08-13T11:22:03Z</time>
      </trkpt>
      <trkpt lat="48.272295" lon="-4.594557">
        <ele>19.0</ele>
        <time>2020-08-13T11:22:13Z</time>
      </trkpt>
      <trkpt lat="48.272122" lon="-4.5918">
        <ele>29.4</ele>
        <time>2020-08-13T11:22:37Z</time>
      </trkpt>
      <trkpt lat="48.27209" lon="-4.591054">
        <ele>33.8</ele>
        <time>2020-08-13T11:22:43Z</time>
      </trkpt>
      <trkpt lat="48.272023" lon="-4.591011">
        <ele>33.8</ele>
        <time>2020-08-13T11:22:44Z</time>
      </trkpt>
      <trkpt lat="48.272006" lon="-4.590936">
        <ele>33.8</ele>
        <time>2020-08-13T11:22:45Z</time>
      </trkpt>
      <trkpt lat="48.272024" lon="-4.590862">
        <ele>33.8</ele>
        <time>2020-08-13T11:22:46Z</time>
      </trkpt>
      <trkpt lat="48.272042" lon="-4.590489">
        <ele>37.8</ele>
        <time>2020-08-13T11:22:49Z</time>
      </trkpt>
      <trkpt lat="48.271943" lon="-4.588666">
        <ele>46.2</ele>
        <time>2020-08-13T11:23:05Z</time>
      </trkpt>
      <trkpt lat="48.2719" lon="-4.588216">
        <ele>48.8</ele>
        <time>2020-08-13T11:23:09Z</time>
      </trkpt>
      <trkpt lat="48.271879" lon="-4.588055">
        <ele>48.8</ele>
        <time>2020-08-13T11:23:10Z</time>
      </trkpt>
      <trkpt lat="48.271736" lon="-4.587564">
        <ele>48.8</ele>
        <time>2020-08-13T11:23:15Z</time>
      </trkpt>
      <trkpt lat="48.271685" lon="-4.587459">
        <ele>49.6</ele>
        <time>2020-08-13T11:23:16Z</time>
      </trkpt>
      <trkpt lat="48.271611" lon="-4.587416">
        <ele>49.0</ele>
        <time>2020-08-13T11:23:17Z</time>
      </trkpt>
      <trkpt lat="48.271573" lon="-4.587297">
        <ele>49.0</ele>
        <time>2020-08-13T11:23:17Z</time>
      </trkpt>
      <trkpt lat="48.271577" lon="-4.587242">
        <ele>49.0</ele>
        <time>2020-08-13T11:23:18Z</time>
      </trkpt>
      <trkpt lat="48.27162" lon="-4.587151">
        <ele>49.0</ele>
        <time>2020-08-13T11:23:18Z</time>
      </trkpt>
      <trkpt lat="48.271653" lon="-4.587126">
        <ele>49.0</ele>
        <time>2020-08-13T11:23:19Z</time>
      </trkpt>
      <trkpt lat="48.271954" lon="-4.587116">
        <ele>49.6</ele>
        <time>2020-08-13T11:23:21Z</time>
      </trkpt>
      <trkpt lat="48.272559" lon="-4.587022">
        <ele>49.4</ele>
        <time>2020-08-13T11:23:25Z</time>
      </trkpt>
      <trkpt lat="48.27273" lon="-4.586946">
        <ele>49.4</ele>
        <time>2020-08-13T11:23:27Z</time>
      </trkpt>
      <trkpt lat="48.27294" lon="-4.586683">
        <ele>49.4</ele>
        <time>2020-08-13T11:23:29Z</time>
      </trkpt>
      <trkpt lat="48.273168" lon="-4.586134">
        <ele>50.4</ele>
        <time>2020-08-13T11:23:32Z</time>
      </trkpt>
      <trkpt lat="48.27382" lon="-4.584798">
        <ele>50.8</ele>
        <time>2020-08-13T11:23:40Z</time>
      </trkpt>
      <trkpt lat="48.274573" lon="-4.583411">
        <ele>48.0</ele>
        <time>2020-08-13T11:23:49Z</time>
      </trkpt>
      <trkpt lat="48.274816" lon="-4.583038">
        <ele>47.0</ele>
        <time>2020-08-13T11:23:52Z</time>
      </trkpt>
      <trkpt lat="48.275511" lon="-4.582198">
        <ele>39.8</ele>
        <time>2020-08-13T11:23:58Z</time>
      </trkpt>
      <trkpt lat="48.275761" lon="-4.58172">
        <ele>39.8</ele>
        <time>2020-08-13T11:24:01Z</time>
      </trkpt>
      <trkpt lat="48.275858" lon="-4.581444">
        <ele>27.2</ele>
        <time>2020-08-13T11:24:03Z</time>
      </trkpt>
      <trkpt lat="48.27596" lon="-4.580934">
        <ele>27.2</ele>
        <time>2020-08-13T11:24:06Z</time>
      </trkpt>
      <trkpt lat="48.275988" lon="-4.580593">
        <ele>27.2</ele>
        <time>2020-08-13T11:24:07Z</time>
      </trkpt>
      <trkpt lat="48.275989" lon="-4.58011">
        <ele>27.2</ele>
        <time>2020-08-13T11:24:10Z</time>
      </trkpt>
      <trkpt lat="48.275969" lon="-4.579928">
        <ele>25.0</ele>
        <time>2020-08-13T11:24:11Z</time>
      </trkpt>
      <trkpt lat="48.275897" lon="-4.579714">
        <ele>25.0</ele>
        <time>2020-08-13T11:24:12Z</time>
      </trkpt>
      <trkpt lat="48.275788" lon="-4.57955">
        <ele>34.0</ele>
        <time>2020-08-13T11:24:13Z</time>
      </trkpt>
      <trkpt lat="48.275291" lon="-4.579201">
        <ele>34.0</ele>
        <time>2020-08-13T11:24:17Z</time>
      </trkpt>
      <trkpt lat="48.275259" lon="-4.579115">
        <ele>31.2</ele>
        <time>2020-08-13T11:24:18Z</time>
      </trkpt>
      <trkpt lat="48.275248" lon="-4.579008">
        <ele>31.2</ele>
        <time>2020-08-13T11:24:18Z</time>
      </trkpt>
      <trkpt lat="48.275265" lon="-4.578905">
        <ele>31.2</ele>
        <time>2020-08-13T11:24:19Z</time>
      </trkpt>
      <trkpt lat="48.275306" lon="-4.578786">
        <ele>31.2</ele>
        <time>2020-08-13T11:24:20Z</time>
      </trkpt>
      <trkpt lat="48.275437" lon="-4.578637">
        <ele>31.2</ele>
        <time>2020-08-13T11:24:21Z</time>
      </trkpt>
      <trkpt lat="48.27553" lon="-4.578578">
        <ele>31.2</ele>
        <time>2020-08-13T11:24:22Z</time>
      </trkpt>
      <trkpt lat="48.276112" lon="-4.578352">
        <ele>23.4</ele>
        <time>2020-08-13T11:24:26Z</time>
      </trkpt>
      <trkpt lat="48.276417" lon="-4.57815">
        <ele>26.6</ele>
        <time>2020-08-13T11:24:29Z</time>
      </trkpt>
      <trkpt lat="48.276963" lon="-4.578102">
        <ele>20.2</ele>
        <time>2020-08-13T11:24:33Z</time>
      </trkpt>
      <trkpt lat="48.277277" lon="-4.578013">
        <ele>20.2</ele>
        <time>2020-08-13T11:24:35Z</time>
      </trkpt>
      <trkpt lat="48.277492" lon="-4.577906">
        <ele>20.2</ele>
        <time>2020-08-13T11:24:37Z</time>
      </trkpt>
      <trkpt lat="48.277702" lon="-4.577693">
        <ele>15.0</ele>
        <time>2020-08-13T11:24:39Z</time>
      </trkpt>
      <trkpt lat="48.277853" lon="-4.577442">
        <ele>19.0</ele>
        <time>2020-08-13T11:24:40Z</time>
      </trkpt>
      <trkpt lat="48.277923" lon="-4.577248">
        <ele>19.0</ele>
        <time>2020-08-13T11:24:42Z</time>
      </trkpt>
      <trkpt lat="48.278478" lon="-4.575239">
        <ele>17.8</ele>
        <time>2020-08-13T11:24:52Z</time>
      </trkpt>
      <trkpt lat="48.278647" lon="-4.574757">
        <ele>20.4</ele>
        <time>2020-08-13T11:24:55Z</time>
      </trkpt>
      <trkpt lat="48.278835" lon="-4.574385">
        <ele>20.4</ele>
        <time>2020-08-13T11:24:57Z</time>
      </trkpt>
      <trkpt lat="48.279711" lon="-4.572903">
        <ele>16.8</ele>
        <time>2020-08-13T11:25:07Z</time>
      </trkpt>
      <trkpt lat="48.281437" lon="-4.569851">
        <ele>9.4</ele>
        <time>2020-08-13T11:25:27Z</time>
      </trkpt>
      <trkpt lat="48.282666" lon="-4.567755">
        <ele>15.4</ele>
        <time>2020-08-13T11:25:41Z</time>
      </trkpt>
      <trkpt lat="48.28281" lon="-4.567581">
        <ele>15.4</ele>
        <time>2020-08-13T11:25:42Z</time>
      </trkpt>
      <trkpt lat="48.28381" lon="-4.566604">
        <ele>22.4</ele>
        <time>2020-08-13T11:25:51Z</time>
      </trkpt>
      <trkpt lat="48.284571" lon="-4.565902">
        <ele>19.8</ele>
        <time>2020-08-13T11:25:58Z</time>
      </trkpt>
      <trkpt lat="48.285059" lon="-4.565465">
        <ele>15.0</ele>
        <time>2020-08-13T11:26:02Z</time>
      </trkpt>
      <trkpt lat="48.285148" lon="-4.565396">
        <ele>15.0</ele>
        <time>2020-08-13T11:26:03Z</time>
      </trkpt>
      <trkpt lat="48.285328" lon="-4.565315">
        <ele>15.0</ele>
        <time>2020-08-13T11:26:04Z</time>
      </trkpt>
      <trkpt lat="48.28555" lon="-4.565315">
        <ele>15.0</ele>
        <time>2020-08-13T11:26:06Z</time>
      </trkpt>
      <trkpt lat="48.287261" lon="-4.565486">
        <ele>9.2</ele>
        <time>2020-08-13T11:26:19Z</time>
      </trkpt>
      <trkpt lat="48.288532" lon="-4.565695">
        <ele>7.4</ele>
        <time>2020-08-13T11:26:28Z</time>
      </trkpt>
      <trkpt lat="48.289176" lon="-4.565868">
        <ele>5.8</ele>
        <time>2020-08-13T11:26:33Z</time>
      </trkpt>
      <trkpt lat="48.289352" lon="-4.565884">
        <ele>5.8</ele>
        <time>2020-08-13T11:26:34Z</time>
      </trkpt>
      <trkpt lat="48.289459" lon="-4.565871">
        <ele>5.8</ele>
        <time>2020-08-13T11:26:35Z</time>
      </trkpt>
      <trkpt lat="48.289771" lon="-4.565799">
        <ele>9.4</ele>
        <time>2020-08-13T11:26:38Z</time>
      </trkpt>
      <trkpt lat="48.290581" lon="-4.565518">
        <ele>11.6</ele>
        <time>2020-08-13T11:26:44Z</time>
      </trkpt>
      <trkpt lat="48.291201" lon="-4.565193">
        <ele>14.2</ele>
        <time>2020-08-13T11:26:49Z</time>
      </trkpt>
      <trkpt lat="48.292463" lon="-4.564285">
        <ele>22.2</ele>
        <time>2020-08-13T11:26:59Z</time>
      </trkpt>
      <trkpt lat="48.292893" lon="-4.56385">
        <ele>28.0</ele>
        <time>2020-08-13T11:27:03Z</time>
      </trkpt>
      <trkpt lat="48.292989" lon="-4.563775">
        <ele>28.0</ele>
        <time>2020-08-13T11:27:04Z</time>
      </trkpt>
      <trkpt lat="48.293224" lon="-4.563654">
        <ele>28.0</ele>
        <time>2020-08-13T11:27:06Z</time>
      </trkpt>
      <trkpt lat="48.293446" lon="-4.563586">
        <ele>36.4</ele>
        <time>2020-08-13T11:27:08Z</time>
      </trkpt>
      <trkpt lat="48.29359" lon="-4.563575">
        <ele>36.4</ele>
        <time>2020-08-13T11:27:09Z</time>
      </trkpt>
      <trkpt lat="48.295018" lon="-4.563614">
        <ele>46.6</ele>
        <time>2020-08-13T11:27:19Z</time>
      </trkpt>
      <trkpt lat="48.29515" lon="-4.563582">
        <ele>46.6</ele>
        <time>2020-08-13T11:27:20Z</time>
      </trkpt>
      <trkpt lat="48.295487" lon="-4.563398">
        <ele>46.6</ele>
        <time>2020-08-13T11:27:23Z</time>
      </trkpt>
      <trkpt lat="48.295556" lon="-4.563397">
        <ele>46.6</ele>
        <time>2020-08-13T11:27:23Z</time>
      </trkpt>
      <trkpt lat="48.295632" lon="-4.563438">
        <ele>46.6</ele>
        <time>2020-08-13T11:27:24Z</time>
      </trkpt>
      <trkpt lat="48.295883" lon="-4.563696">
        <ele>51.2</ele>
        <time>2020-08-13T11:27:26Z</time>
      </trkpt>
      <trkpt lat="48.295985" lon="-4.563772">
        <ele>51.2</ele>
        <time>2020-08-13T11:27:27Z</time>
      </trkpt>
      <trkpt lat="48.296045" lon="-4.56376">
        <ele>51.2</ele>
        <time>2020-08-13T11:27:28Z</time>
      </trkpt>
      <trkpt lat="48.296221" lon="-4.563651">
        <ele>51.2</ele>
        <time>2020-08-13T11:27:29Z</time>
      </trkpt>
      <trkpt lat="48.296579" lon="-4.563359">
        <ele>51.2</ele>
        <time>2020-08-13T11:27:32Z</time>
      </trkpt>
      <trkpt lat="48.296712" lon="-4.563225">
        <ele>52.4</ele>
        <time>2020-08-13T11:27:33Z</time>
      </trkpt>
      <trkpt lat="48.29681" lon="-4.563059">
        <ele>52.4</ele>
        <time>2020-08-13T11:27:34Z</time>
      </trkpt>
      <trkpt lat="48.297238" lon="-4.561469">
        <ele>47.4</ele>
        <time>2020-08-13T11:27:43Z</time>
      </trkpt>
      <trkpt lat="48.29733" lon="-4.56134">
        <ele>47.4</ele>
        <time>2020-08-13T11:27:44Z</time>
      </trkpt>
      <trkpt lat="48.297445" lon="-4.561272">
        <ele>47.4</ele>
        <time>2020-08-13T11:27:45Z</time>
      </trkpt>
      <trkpt lat="48.297617" lon="-4.561267">
        <ele>52.4</ele>
        <time>2020-08-13T11:27:46Z</time>
      </trkpt>
      <trkpt lat="48.297717" lon="-4.561315">
        <ele>52.4</ele>
        <time>2020-08-13T11:27:47Z</time>
      </trkpt>
      <trkpt lat="48.297983" lon="-4.561551">
        <ele>52.4</ele>
        <time>2020-08-13T11:27:49Z</time>
      </trkpt>
      <trkpt lat="48.298418" lon="-4.562053">
        <ele>56.4</ele>
        <time>2020-08-13T11:27:53Z</time>
      </trkpt>
      <trkpt lat="48.298521" lon="-4.562138">
        <ele>56.4</ele>
        <time>2020-08-13T11:27:54Z</time>
      </trkpt>
      <trkpt lat="48.298589" lon="-4.562167">
        <ele>56.4</ele>
        <time>2020-08-13T11:27:55Z</time>
      </trkpt>
      <trkpt lat="48.298686" lon="-4.562163">
        <ele>56.4</ele>
        <time>2020-08-13T11:27:55Z</time>
      </trkpt>
      <trkpt lat="48.299587" lon="-4.561787">
        <ele>57.6</ele>
        <time>2020-08-13T11:28:02Z</time>
      </trkpt>
      <trkpt lat="48.299723" lon="-4.561785">
        <ele>57.6</ele>
        <time>2020-08-13T11:28:03Z</time>
      </trkpt>
      <trkpt lat="48.299791" lon="-4.561815">
        <ele>57.6</ele>
        <time>2020-08-13T11:28:04Z</time>
      </trkpt>
      <trkpt lat="48.300029" lon="-4.562027">
        <ele>59.6</ele>
        <time>2020-08-13T11:28:06Z</time>
      </trkpt>
      <trkpt lat="48.301087" lon="-4.563228">
        <ele>60.0</ele>
        <time>2020-08-13T11:28:16Z</time>
      </trkpt>
      <trkpt lat="48.30113" lon="-4.563347">
        <ele>60.4</ele>
        <time>2020-08-13T11:28:17Z</time>
      </trkpt>
      <trkpt lat="48.301152" lon="-4.563532">
        <ele>60.4</ele>
        <time>2020-08-13T11:28:18Z</time>
      </trkpt>
      <trkpt lat="48.301118" lon="-4.564492">
        <ele>60.8</ele>
        <time>2020-08-13T11:28:22Z</time>
      </trkpt>
      <trkpt lat="48.301137" lon="-4.564622">
        <ele>60.8</ele>
        <time>2020-08-13T11:28:23Z</time>
      </trkpt>
      <trkpt lat="48.301186" lon="-4.564731">
        <ele>60.8</ele>
        <time>2020-08-13T11:28:24Z</time>
      </trkpt>
      <trkpt lat="48.301242" lon="-4.564806">
        <ele>60.8</ele>
        <time>2020-08-13T11:28:24Z</time>
      </trkpt>
      <trkpt lat="48.30142" lon="-4.564956">
        <ele>60.8</ele>
        <time>2020-08-13T11:28:26Z</time>
      </trkpt>
      <trkpt lat="48.302153" lon="-4.565456">
        <ele>59.0</ele>
        <time>2020-08-13T11:28:32Z</time>
      </trkpt>
      <trkpt lat="48.302555" lon="-4.565771">
        <ele>54.6</ele>
        <time>2020-08-13T11:28:35Z</time>
      </trkpt>
      <trkpt lat="48.304294" lon="-4.567462">
        <ele>47.0</ele>
        <time>2020-08-13T11:28:51Z</time>
      </trkpt>
      <trkpt lat="48.304779" lon="-4.567983">
        <ele>49.6</ele>
        <time>2020-08-13T11:28:55Z</time>
      </trkpt>
      <trkpt lat="48.306312" lon="-4.569818">
        <ele>27.8</ele>
        <time>2020-08-13T11:29:10Z</time>
      </trkpt>
      <trkpt lat="48.306809" lon="-4.570366">
        <ele>20.8</ele>
        <time>2020-08-13T11:29:14Z</time>
      </trkpt>
      <trkpt lat="48.306977" lon="-4.570452">
        <ele>20.8</ele>
        <time>2020-08-13T11:29:16Z</time>
      </trkpt>
      <trkpt lat="48.307076" lon="-4.570448">
        <ele>20.8</ele>
        <time>2020-08-13T11:29:16Z</time>
      </trkpt>
      <trkpt lat="48.307299" lon="-4.570358">
        <ele>20.8</ele>
        <time>2020-08-13T11:29:18Z</time>
      </trkpt>
      <trkpt lat="48.30777" lon="-4.569994">
        <ele>26.4</ele>
        <time>2020-08-13T11:29:22Z</time>
      </trkpt>
      <trkpt lat="48.309729" lon="-4.568976">
        <ele>30.2</ele>
        <time>2020-08-13T11:29:38Z</time>
      </trkpt>
      <trkpt lat="48.309913" lon="-4.568958">
        <ele>30.2</ele>
        <time>2020-08-13T11:29:39Z</time>
      </trkpt>
      <trkpt lat="48.310042" lon="-4.569028">
        <ele>33.2</ele>
        <time>2020-08-13T11:29:40Z</time>
      </trkpt>
      <trkpt lat="48.310127" lon="-4.569139">
        <ele>33.2</ele>
        <time>2020-08-13T11:29:41Z</time>
      </trkpt>
      <trkpt lat="48.310171" lon="-4.569313">
        <ele>34.4</ele>
        <time>2020-08-13T11:29:42Z</time>
      </trkpt>
      <trkpt lat="48.31016" lon="-4.569495">
        <ele>34.4</ele>
        <time>2020-08-13T11:29:43Z</time>
      </trkpt>
      <trkpt lat="48.310093" lon="-4.569894">
        <ele>34.4</ele>
        <time>2020-08-13T11:29:45Z</time>
      </trkpt>
      <trkpt lat="48.310088" lon="-4.569995">
        <ele>34.4</ele>
        <time>2020-08-13T11:29:45Z</time>
      </trkpt>
      <trkpt lat="48.310115" lon="-4.570185">
        <ele>37.8</ele>
        <time>2020-08-13T11:29:46Z</time>
      </trkpt>
      <trkpt lat="48.310188" lon="-4.57038">
        <ele>37.8</ele>
        <time>2020-08-13T11:29:47Z</time>
      </trkpt>
      <trkpt lat="48.310241" lon="-4.570468">
        <ele>37.8</ele>
        <time>2020-08-13T11:29:48Z</time>
      </trkpt>
      <trkpt lat="48.310342" lon="-4.57059">
        <ele>37.8</ele>
        <time>2020-08-13T11:29:49Z</time>
      </trkpt>
      <trkpt lat="48.31044" lon="-4.570673">
        <ele>37.8</ele>
        <time>2020-08-13T11:29:50Z</time>
      </trkpt>
      <trkpt lat="48.310555" lon="-4.570703">
        <ele>37.8</ele>
        <time>2020-08-13T11:29:51Z</time>
      </trkpt>
      <trkpt lat="48.31067" lon="-4.570681">
        <ele>37.8</ele>
        <time>2020-08-13T11:29:51Z</time>
      </trkpt>
      <trkpt lat="48.311183" lon="-4.570306">
        <ele>47.6</ele>
        <time>2020-08-13T11:29:56Z</time>
      </trkpt>
      <trkpt lat="48.311562" lon="-4.570213">
        <ele>47.6</ele>
        <time>2020-08-13T11:29:59Z</time>
      </trkpt>
      <trkpt lat="48.311736" lon="-4.570252">
        <ele>56.0</ele>
        <time>2020-08-13T11:30:00Z</time>
      </trkpt>
      <trkpt lat="48.312253" lon="-4.570606">
        <ele>56.0</ele>
        <time>2020-08-13T11:30:04Z</time>
      </trkpt>
      <trkpt lat="48.313392" lon="-4.571156">
        <ele>61.8</ele>
        <time>2020-08-13T11:30:13Z</time>
      </trkpt>
      <trkpt lat="48.314558" lon="-4.571519">
        <ele>62.2</ele>
        <time>2020-08-13T11:30:22Z</time>
      </trkpt>
      <trkpt lat="48.315832" lon="-4.571855">
        <ele>63.2</ele>
        <time>2020-08-13T11:30:32Z</time>
      </trkpt>
      <trkpt lat="48.315938" lon="-4.571915">
        <ele>64.8</ele>
        <time>2020-08-13T11:30:33Z</time>
      </trkpt>
      <trkpt lat="48.316064" lon="-4.572079">
        <ele>64.8</ele>
        <time>2020-08-13T11:30:34Z</time>
      </trkpt>
      <trkpt lat="48.316158" lon="-4.572274">
        <ele>64.8</ele>
        <time>2020-08-13T11:30:35Z</time>
      </trkpt>
      <trkpt lat="48.3171" lon="-4.574543">
        <ele>60.2</ele>
        <time>2020-08-13T11:30:48Z</time>
      </trkpt>
      <trkpt lat="48.317217" lon="-4.574784">
        <ele>60.2</ele>
        <time>2020-08-13T11:30:50Z</time>
      </trkpt>
      <trkpt lat="48.317344" lon="-4.574897">
        <ele>60.2</ele>
        <time>2020-08-13T11:30:51Z</time>
      </trkpt>
      <trkpt lat="48.318525" lon="-4.575297">
        <ele>65.2</ele>
        <time>2020-08-13T11:31:00Z</time>
      </trkpt>
      <trkpt lat="48.31991" lon="-4.575563">
        <ele>68.2</ele>
        <time>2020-08-13T11:31:10Z</time>
      </trkpt>
      <trkpt lat="48.321769" lon="-4.5758">
        <ele>67.2</ele>
        <time>2020-08-13T11:31:24Z</time>
      </trkpt>
      <trkpt lat="48.322013" lon="-4.57582">
        <ele>67.2</ele>
        <time>2020-08-13T11:31:26Z</time>
      </trkpt>
      <trkpt lat="48.322262" lon="-4.575715">
        <ele>67.2</ele>
        <time>2020-08-13T11:31:28Z</time>
      </trkpt>
      <trkpt lat="48.322608" lon="-4.575451">
        <ele>65.2</ele>
        <time>2020-08-13T11:31:31Z</time>
      </trkpt>
      <trkpt lat="48.324369" lon="-4.574094">
        <ele>63.4</ele>
        <time>2020-08-13T11:31:46Z</time>
      </trkpt>
      <trkpt lat="48.324542" lon="-4.573889">
        <ele>63.4</ele>
        <time>2020-08-13T11:31:47Z</time>
      </trkpt>
      <trkpt lat="48.324639" lon="-4.573656">
        <ele>63.4</ele>
        <time>2020-08-13T11:31:49Z</time>
      </trkpt>
      <trkpt lat="48.32468" lon="-4.573402">
        <ele>63.4</ele>
        <time>2020-08-13T11:31:50Z</time>
      </trkpt>
      <trkpt lat="48.324673" lon="-4.573176">
        <ele>62.0</ele>
        <time>2020-08-13T11:31:51Z</time>
      </trkpt>
      <trkpt lat="48.324624" lon="-4.572748">
        <ele>62.0</ele>
        <time>2020-08-13T11:31:53Z</time>
      </trkpt>
      <trkpt lat="48.324481" lon="-4.571914">
        <ele>61.4</ele>
        <time>2020-08-13T11:31:57Z</time>
      </trkpt>
      <trkpt lat="48.324487" lon="-4.571699">
        <ele>61.4</ele>
        <time>2020-08-13T11:31:59Z</time>
      </trkpt>
      <trkpt lat="48.324524" lon="-4.571522">
        <ele>60.8</ele>
        <time>2020-08-13T11:31:59Z</time>
      </trkpt>
      <trkpt lat="48.324587" lon="-4.571371">
        <ele>60.8</ele>
        <time>2020-08-13T11:32:00Z</time>
      </trkpt>
      <trkpt lat="48.324769" lon="-4.57103">
        <ele>60.8</ele>
        <time>2020-08-13T11:32:03Z</time>
      </trkpt>
      <trkpt lat="48.325067" lon="-4.57056">
        <ele>56.6</ele>
        <time>2020-08-13T11:32:06Z</time>
      </trkpt>
      <trkpt lat="48.325266" lon="-4.570287">
        <ele>56.6</ele>
        <time>2020-08-13T11:32:08Z</time>
      </trkpt>
      <trkpt lat="48.326708" lon="-4.56918">
        <ele>48.0</ele>
        <time>2020-08-13T11:32:20Z</time>
      </trkpt>
      <trkpt lat="48.326888" lon="-4.569088">
        <ele>55.0</ele>
        <time>2020-08-13T11:32:21Z</time>
      </trkpt>
      <trkpt lat="48.327107" lon="-4.56903">
        <ele>55.0</ele>
        <time>2020-08-13T11:32:23Z</time>
      </trkpt>
      <trkpt lat="48.32822" lon="-4.568833">
        <ele>55.8</ele>
        <time>2020-08-13T11:32:31Z</time>
      </trkpt>
      <trkpt lat="48.328415" lon="-4.568774">
        <ele>59.6</ele>
        <time>2020-08-13T11:32:33Z</time>
      </trkpt>
      <trkpt lat="48.328496" lon="-4.568729">
        <ele>59.6</ele>
        <time>2020-08-13T11:32:34Z</time>
      </trkpt>
      <trkpt lat="48.328635" lon="-4.568609">
        <ele>59.6</ele>
        <time>2020-08-13T11:32:35Z</time>
      </trkpt>
      <trkpt lat="48.328721" lon="-4.56849">
        <ele>59.6</ele>
        <time>2020-08-13T11:32:36Z</time>
      </trkpt>
      <trkpt lat="48.329655" lon="-4.566417">
        <ele>62.6</ele>
        <time>2020-08-13T11:32:48Z</time>
      </trkpt>
      <trkpt lat="48.329755" lon="-4.566113">
        <ele>62.6</ele>
        <time>2020-08-13T11:32:50Z</time>
      </trkpt>
      <trkpt lat="48.329806" lon="-4.565828">
        <ele>61.8</ele>
        <time>2020-08-13T11:32:51Z</time>
      </trkpt>
      <trkpt lat="48.329932" lon="-4.564385">
        <ele>60.2</ele>
        <time>2020-08-13T11:32:58Z</time>
      </trkpt>
      <trkpt lat="48.329955" lon="-4.564258">
        <ele>60.2</ele>
        <time>2020-08-13T11:32:59Z</time>
      </trkpt>
      <trkpt lat="48.330181" lon="-4.563669">
        <ele>58.4</ele>
        <time>2020-08-13T11:33:02Z</time>
      </trkpt>
      <trkpt lat="48.330474" lon="-4.562962">
        <ele>59.4</ele>
        <time>2020-08-13T11:33:07Z</time>
      </trkpt>
      <trkpt lat="48.330645" lon="-4.562703">
        <ele>59.4</ele>
        <time>2020-08-13T11:33:08Z</time>
      </trkpt>
      <trkpt lat="48.33089" lon="-4.562501">
        <ele>49.6</ele>
        <time>2020-08-13T11:33:11Z</time>
      </trkpt>
      <trkpt lat="48.331373" lon="-4.562165">
        <ele>54.6</ele>
        <time>2020-08-13T11:33:15Z</time>
      </trkpt>
      <trkpt lat="48.33154" lon="-4.562027">
        <ele>54.6</ele>
        <time>2020-08-13T11:33:16Z</time>
      </trkpt>
      <trkpt lat="48.331981" lon="-4.561453">
        <ele>50.4</ele>
        <time>2020-08-13T11:33:20Z</time>
      </trkpt>
      <trkpt lat="48.33262" lon="-4.560238">
        <ele>49.6</ele>
        <time>2020-08-13T11:33:28Z</time>
      </trkpt>
      <trkpt lat="48.332688" lon="-4.560031">
        <ele>49.6</ele>
        <time>2020-08-13T11:33:29Z</time>
      </trkpt>
      <trkpt lat="48.332869" lon="-4.559026">
        <ele>60.2</ele>
        <time>2020-08-13T11:33:34Z</time>
      </trkpt>
      <trkpt lat="48.333292" lon="-4.557752">
        <ele>60.4</ele>
        <time>2020-08-13T11:33:41Z</time>
      </trkpt>
      <trkpt lat="48.333375" lon="-4.557564">
        <ele>61.6</ele>
        <time>2020-08-13T11:33:43Z</time>
      </trkpt>
      <trkpt lat="48.333523" lon="-4.557383">
        <ele>61.4</ele>
        <time>2020-08-13T11:33:44Z</time>
      </trkpt>
      <trkpt lat="48.333851" lon="-4.5571">
        <ele>61.4</ele>
        <time>2020-08-13T11:33:47Z</time>
      </trkpt>
      <trkpt lat="48.334105" lon="-4.556822">
        <ele>61.4</ele>
        <time>2020-08-13T11:33:49Z</time>
      </trkpt>
      <trkpt lat="48.334873" lon="-4.555689">
        <ele>59.6</ele>
        <time>2020-08-13T11:33:57Z</time>
      </trkpt>
      <trkpt lat="48.335025" lon="-4.555531">
        <ele>56.8</ele>
        <time>2020-08-13T11:33:59Z</time>
      </trkpt>
      <trkpt lat="48.335654" lon="-4.555153">
        <ele>56.8</ele>
        <time>2020-08-13T11:34:04Z</time>
      </trkpt>
      <trkpt lat="48.335845" lon="-4.555008">
        <ele>46.0</ele>
        <time>2020-08-13T11:34:05Z</time>
      </trkpt>
      <trkpt lat="48.336177" lon="-4.554675">
        <ele>61.2</ele>
        <time>2020-08-13T11:34:08Z</time>
      </trkpt>
      <trkpt lat="48.336263" lon="-4.554542">
        <ele>61.2</ele>
        <time>2020-08-13T11:34:09Z</time>
      </trkpt>
      <trkpt lat="48.336534" lon="-4.55365">
        <ele>66.2</ele>
        <time>2020-08-13T11:34:14Z</time>
      </trkpt>
      <trkpt lat="48.336679" lon="-4.553315">
        <ele>66.6</ele>
        <time>2020-08-13T11:34:16Z</time>
      </trkpt>
      <trkpt lat="48.337067" lon="-4.552585">
        <ele>66.6</ele>
        <time>2020-08-13T11:34:21Z</time>
      </trkpt>
      <trkpt lat="48.337135" lon="-4.552376">
        <ele>66.8</ele>
        <time>2020-08-13T11:34:22Z</time>
      </trkpt>
      <trkpt lat="48.337148" lon="-4.552245">
        <ele>66.8</ele>
        <time>2020-08-13T11:34:23Z</time>
      </trkpt>
      <trkpt lat="48.337144" lon="-4.551958">
        <ele>66.8</ele>
        <time>2020-08-13T11:34:24Z</time>
      </trkpt>
      <trkpt lat="48.337116" lon="-4.551835">
        <ele>66.8</ele>
        <time>2020-08-13T11:34:25Z</time>
      </trkpt>
      <trkpt lat="48.337059" lon="-4.551761">
        <ele>66.8</ele>
        <time>2020-08-13T11:34:25Z</time>
      </trkpt>
      <trkpt lat="48.336921" lon="-4.551637">
        <ele>65.6</ele>
        <time>2020-08-13T11:34:27Z</time>
      </trkpt>
      <trkpt lat="48.336312" lon="-4.551192">
        <ele>64.2</ele>
        <time>2020-08-13T11:34:32Z</time>
      </trkpt>
      <trkpt lat="48.336116" lon="-4.551005">
        <ele>64.2</ele>
        <time>2020-08-13T11:34:33Z</time>
      </trkpt>
      <trkpt lat="48.336054" lon="-4.550903">
        <ele>64.2</ele>
        <time>2020-08-13T11:34:34Z</time>
      </trkpt>
      <trkpt lat="48.335974" lon="-4.550677">
        <ele>63.4</ele>
        <time>2020-08-13T11:34:35Z</time>
      </trkpt>
      <trkpt lat="48.335852" lon="-4.550195">
        <ele>63.4</ele>
        <time>2020-08-13T11:34:38Z</time>
      </trkpt>
      <trkpt lat="48.335725" lon="-4.549482">
        <ele>60.0</ele>
        <time>2020-08-13T11:34:42Z</time>
      </trkpt>
      <trkpt lat="48.335674" lon="-4.54903">
        <ele>59.4</ele>
        <time>2020-08-13T11:34:44Z</time>
      </trkpt>
      <trkpt lat="48.3356" lon="-4.547905">
        <ele>58.6</ele>
        <time>2020-08-13T11:34:49Z</time>
      </trkpt>
      <trkpt lat="48.33559" lon="-4.547558">
        <ele>58.6</ele>
        <time>2020-08-13T11:34:51Z</time>
      </trkpt>
      <trkpt lat="48.335605" lon="-4.547227">
        <ele>58.8</ele>
        <time>2020-08-13T11:34:53Z</time>
      </trkpt>
      <trkpt lat="48.335786" lon="-4.545467">
        <ele>62.4</ele>
        <time>2020-08-13T11:35:02Z</time>
      </trkpt>
      <trkpt lat="48.335844" lon="-4.545185">
        <ele>58.6</ele>
        <time>2020-08-13T11:35:03Z</time>
      </trkpt>
      <trkpt lat="48.335906" lon="-4.545041">
        <ele>58.6</ele>
        <time>2020-08-13T11:35:04Z</time>
      </trkpt>
      <trkpt lat="48.336076" lon="-4.54482">
        <ele>62.0</ele>
        <time>2020-08-13T11:35:06Z</time>
      </trkpt>
      <trkpt lat="48.336821" lon="-4.543971">
        <ele>61.6</ele>
        <time>2020-08-13T11:35:13Z</time>
      </trkpt>
      <trkpt lat="48.337468" lon="-4.54281">
        <ele>67.2</ele>
        <time>2020-08-13T11:35:20Z</time>
      </trkpt>
      <trkpt lat="48.338314" lon="-4.541567">
        <ele>73.4</ele>
        <time>2020-08-13T11:35:29Z</time>
      </trkpt>
      <trkpt lat="48.338576" lon="-4.541111">
        <ele>72.6</ele>
        <time>2020-08-13T11:35:32Z</time>
      </trkpt>
      <trkpt lat="48.338674" lon="-4.540901">
        <ele>72.6</ele>
        <time>2020-08-13T11:35:33Z</time>
      </trkpt>
      <trkpt lat="48.340239" lon="-4.536066">
        <ele>63.8</ele>
        <time>2020-08-13T11:36:00Z</time>
      </trkpt>
      <trkpt lat="48.340269" lon="-4.535879">
        <ele>63.8</ele>
        <time>2020-08-13T11:36:01Z</time>
      </trkpt>
      <trkpt lat="48.340255" lon="-4.535277">
        <ele>66.2</ele>
        <time>2020-08-13T11:36:04Z</time>
      </trkpt>
      <trkpt lat="48.340209" lon="-4.535126">
        <ele>66.2</ele>
        <time>2020-08-13T11:36:05Z</time>
      </trkpt>
      <trkpt lat="48.340162" lon="-4.535069">
        <ele>66.2</ele>
        <time>2020-08-13T11:36:05Z</time>
      </trkpt>
      <trkpt lat="48.340094" lon="-4.535044">
        <ele>66.2</ele>
        <time>2020-08-13T11:36:06Z</time>
      </trkpt>
      <trkpt lat="48.340057" lon="-4.535051">
        <ele>66.2</ele>
        <time>2020-08-13T11:36:06Z</time>
      </trkpt>
      <trkpt lat="48.339729" lon="-4.535261">
        <ele>70.8</ele>
        <time>2020-08-13T11:36:09Z</time>
      </trkpt>
      <trkpt lat="48.339581" lon="-4.535301">
        <ele>69.1</ele>
        <time>2020-08-13T11:36:12Z</time>
      </trkpt>
      <trkpt lat="48.339581" lon="-4.535301">
        <ele>69.1</ele>
        <time>2020-08-13T11:36:12Z</time>
      </trkpt>
      <trkpt lat="48.338721" lon="-4.535332">
        <ele>67.4</ele>
        <time>2020-08-13T11:36:19Z</time>
      </trkpt>
      <trkpt lat="48.338551" lon="-4.535373">
        <ele>67.4</ele>
        <time>2020-08-13T11:36:21Z</time>
      </trkpt>
      <trkpt lat="48.338111" lon="-4.535603">
        <ele>56.4</ele>
        <time>2020-08-13T11:36:24Z</time>
      </trkpt>
      <trkpt lat="48.337154" lon="-4.536224">
        <ele>55.2</ele>
        <time>2020-08-13T11:36:33Z</time>
      </trkpt>
      <trkpt lat="48.336657" lon="-4.53647">
        <ele>44.2</ele>
        <time>2020-08-13T11:36:37Z</time>
      </trkpt>
      <trkpt lat="48.336462" lon="-4.536591">
        <ele>44.2</ele>
        <time>2020-08-13T11:36:39Z</time>
      </trkpt>
      <trkpt lat="48.334869" lon="-4.537665">
        <ele>44.2</ele>
        <time>2020-08-13T11:36:53Z</time>
      </trkpt>
      <trkpt lat="48.334511" lon="-4.537987">
        <ele>44.2</ele>
        <time>2020-08-13T11:36:57Z</time>
      </trkpt>
      <trkpt lat="48.334286" lon="-4.53823">
        <ele>44.2</ele>
        <time>2020-08-13T11:36:59Z</time>
      </trkpt>
      <trkpt lat="48.333201" lon="-4.539047">
        <ele>38.8</ele>
        <time>2020-08-13T11:37:09Z</time>
      </trkpt>
      <trkpt lat="48.332987" lon="-4.539171">
        <ele>48.8</ele>
        <time>2020-08-13T11:37:11Z</time>
      </trkpt>
      <trkpt lat="48.33276" lon="-4.539265">
        <ele>48.8</ele>
        <time>2020-08-13T11:37:13Z</time>
      </trkpt>
      <trkpt lat="48.332393" lon="-4.53936">
        <ele>36.4</ele>
        <time>2020-08-13T11:37:16Z</time>
      </trkpt>
      <trkpt lat="48.332289" lon="-4.539411">
        <ele>36.4</ele>
        <time>2020-08-13T11:37:17Z</time>
      </trkpt>
      <trkpt lat="48.332041" lon="-4.539652">
        <ele>36.4</ele>
        <time>2020-08-13T11:37:19Z</time>
      </trkpt>
      <trkpt lat="48.331278" lon="-4.540482">
        <ele>34.8</ele>
        <time>2020-08-13T11:37:27Z</time>
      </trkpt>
      <trkpt lat="48.330593" lon="-4.541104">
        <ele>33.0</ele>
        <time>2020-08-13T11:37:34Z</time>
      </trkpt>
      <trkpt lat="48.32906" lon="-4.54282">
        <ele>33.4</ele>
        <time>2020-08-13T11:37:49Z</time>
      </trkpt>
      <trkpt lat="48.328818" lon="-4.543055">
        <ele>33.4</ele>
        <time>2020-08-13T11:37:52Z</time>
      </trkpt>
      <trkpt lat="48.328163" lon="-4.543593">
        <ele>30.4</ele>
        <time>2020-08-13T11:37:58Z</time>
      </trkpt>
      <trkpt lat="48.327933" lon="-4.543742">
        <ele>30.4</ele>
        <time>2020-08-13T11:38:00Z</time>
      </trkpt>
      <trkpt lat="48.327625" lon="-4.543903">
        <ele>30.4</ele>
        <time>2020-08-13T11:38:03Z</time>
      </trkpt>
      <trkpt lat="48.327535" lon="-4.543995">
        <ele>30.4</ele>
        <time>2020-08-13T11:38:03Z</time>
      </trkpt>
      <trkpt lat="48.327475" lon="-4.544099">
        <ele>25.33</ele>
        <time>2020-08-13T11:38:04Z</time>
      </trkpt>
      <trkpt lat="48.327316" lon="-4.544489">
        <ele>25.4</ele>
        <time>2020-08-13T11:38:07Z</time>
      </trkpt>
      <trkpt lat="48.326994" lon="-4.545115">
        <ele>32.6</ele>
        <time>2020-08-13T11:38:11Z</time>
      </trkpt>
      <trkpt lat="48.326287" lon="-4.546002">
        <ele>31.0</ele>
        <time>2020-08-13T11:38:19Z</time>
      </trkpt>
      <trkpt lat="48.326102" lon="-4.546188">
        <ele>31.0</ele>
        <time>2020-08-13T11:38:20Z</time>
      </trkpt>
      <trkpt lat="48.325163" lon="-4.546866">
        <ele>35.4</ele>
        <time>2020-08-13T11:38:29Z</time>
      </trkpt>
      <trkpt lat="48.325038" lon="-4.546919">
        <ele>35.4</ele>
        <time>2020-08-13T11:38:30Z</time>
      </trkpt>
      <trkpt lat="48.324903" lon="-4.546931">
        <ele>35.4</ele>
        <time>2020-08-13T11:38:31Z</time>
      </trkpt>
      <trkpt lat="48.324838" lon="-4.546926">
        <ele>35.4</ele>
        <time>2020-08-13T11:38:32Z</time>
      </trkpt>
      <trkpt lat="48.324622" lon="-4.546835">
        <ele>35.4</ele>
        <time>2020-08-13T11:38:33Z</time>
      </trkpt>
      <trkpt lat="48.324447" lon="-4.546714">
        <ele>35.4</ele>
        <time>2020-08-13T11:38:35Z</time>
      </trkpt>
      <trkpt lat="48.324044" lon="-4.546171">
        <ele>26.4</ele>
        <time>2020-08-13T11:38:40Z</time>
      </trkpt>
      <trkpt lat="48.323881" lon="-4.546001">
        <ele>26.4</ele>
        <time>2020-08-13T11:38:41Z</time>
      </trkpt>
      <trkpt lat="48.323637" lon="-4.54589">
        <ele>26.4</ele>
        <time>2020-08-13T11:38:43Z</time>
      </trkpt>
      <trkpt lat="48.322468" lon="-4.545453">
        <ele>22.6</ele>
        <time>2020-08-13T11:38:53Z</time>
      </trkpt>
      <trkpt lat="48.32234" lon="-4.545387">
        <ele>22.6</ele>
        <time>2020-08-13T11:38:54Z</time>
      </trkpt>
      <trkpt lat="48.321999" lon="-4.545144">
        <ele>22.6</ele>
        <time>2020-08-13T11:38:57Z</time>
      </trkpt>
      <trkpt lat="48.321822" lon="-4.54496">
        <ele>19.0</ele>
        <time>2020-08-13T11:38:59Z</time>
      </trkpt>
      <trkpt lat="48.321508" lon="-4.54458">
        <ele>18.6</ele>
        <time>2020-08-13T11:39:02Z</time>
      </trkpt>
      <trkpt lat="48.321354" lon="-4.544484">
        <ele>18.6</ele>
        <time>2020-08-13T11:39:04Z</time>
      </trkpt>
      <trkpt lat="48.321222" lon="-4.54444">
        <ele>18.6</ele>
        <time>2020-08-13T11:39:05Z</time>
      </trkpt>
      <trkpt lat="48.321045" lon="-4.544415">
        <ele>18.6</ele>
        <time>2020-08-13T11:39:06Z</time>
      </trkpt>
      <trkpt lat="48.320825" lon="-4.544459">
        <ele>17.2</ele>
        <time>2020-08-13T11:39:08Z</time>
      </trkpt>
      <trkpt lat="48.320687" lon="-4.544531">
        <ele>17.2</ele>
        <time>2020-08-13T11:39:09Z</time>
      </trkpt>
      <trkpt lat="48.320427" lon="-4.544751">
        <ele>17.2</ele>
        <time>2020-08-13T11:39:12Z</time>
      </trkpt>
      <trkpt lat="48.320345" lon="-4.544786">
        <ele>17.2</ele>
        <time>2020-08-13T11:39:12Z</time>
      </trkpt>
      <trkpt lat="48.320257" lon="-4.544789">
        <ele>17.2</ele>
        <time>2020-08-13T11:39:13Z</time>
      </trkpt>
      <trkpt lat="48.320119" lon="-4.544734">
        <ele>17.2</ele>
        <time>2020-08-13T11:39:14Z</time>
      </trkpt>
      <trkpt lat="48.32002" lon="-4.544654">
        <ele>17.2</ele>
        <time>2020-08-13T11:39:15Z</time>
      </trkpt>
      <trkpt lat="48.319644" lon="-4.544191">
        <ele>13.4</ele>
        <time>2020-08-13T11:39:19Z</time>
      </trkpt>
      <trkpt lat="48.319516" lon="-4.544086">
        <ele>12.75</ele>
        <time>2020-08-13T11:39:20Z</time>
      </trkpt>
      <trkpt lat="48.319323" lon="-4.544036">
        <ele>12.75</ele>
        <time>2020-08-13T11:39:22Z</time>
      </trkpt>
      <trkpt lat="48.319144" lon="-4.54405">
        <ele>8.0</ele>
        <time>2020-08-13T11:39:24Z</time>
      </trkpt>
      <trkpt lat="48.31891" lon="-4.54415">
        <ele>8.0</ele>
        <time>2020-08-13T11:39:26Z</time>
      </trkpt>
      <trkpt lat="48.318621" lon="-4.544373">
        <ele>9.0</ele>
        <time>2020-08-13T11:39:28Z</time>
      </trkpt>
      <trkpt lat="48.31848" lon="-4.544541">
        <ele>9.0</ele>
        <time>2020-08-13T11:39:30Z</time>
      </trkpt>
      <trkpt lat="48.318326" lon="-4.544786">
        <ele>0.0</ele>
        <time>2020-08-13T11:39:32Z</time>
      </trkpt>
      <trkpt lat="48.318288" lon="-4.544907">
        <ele>0.0</ele>
        <time>2020-08-13T11:39:32Z</time>
      </trkpt>
      <trkpt lat="48.318292" lon="-4.544995">
        <ele>0.0</ele>
        <time>2020-08-13T11:39:33Z</time>
      </trkpt>
      <trkpt lat="48.318424" lon="-4.545289">
        <ele>10.0</ele>
        <time>2020-08-13T11:39:35Z</time>
      </trkpt>
      <trkpt lat="48.318443" lon="-4.545424">
        <ele>10.0</ele>
        <time>2020-08-13T11:39:36Z</time>
      </trkpt>
      <trkpt lat="48.318415" lon="-4.545597">
        <ele>10.0</ele>
        <time>2020-08-13T11:39:37Z</time>
      </trkpt>
      <trkpt lat="48.318358" lon="-4.545731">
        <ele>10.0</ele>
        <time>2020-08-13T11:39:38Z</time>
      </trkpt>
      <trkpt lat="48.318309" lon="-4.545804">
        <ele>9.67</ele>
        <time>2020-08-13T11:39:38Z</time>
      </trkpt>
      <trkpt lat="48.318116" lon="-4.545999">
        <ele>13.6</ele>
        <time>2020-08-13T11:39:40Z</time>
      </trkpt>
      <trkpt lat="48.317376" lon="-4.546413">
        <ele>15.5</ele>
        <time>2020-08-13T11:39:46Z</time>
      </trkpt>
      <trkpt lat="48.317198" lon="-4.546484">
        <ele>15.5</ele>
        <time>2020-08-13T11:39:48Z</time>
      </trkpt>
      <trkpt lat="48.31662" lon="-4.546509">
        <ele>14.6</ele>
        <time>2020-08-13T11:39:53Z</time>
      </trkpt>
      <trkpt lat="48.316427" lon="-4.546482">
        <ele>14.6</ele>
        <time>2020-08-13T11:39:54Z</time>
      </trkpt>
      <trkpt lat="48.316195" lon="-4.54641">
        <ele>14.6</ele>
        <time>2020-08-13T11:39:56Z</time>
      </trkpt>
      <trkpt lat="48.315414" lon="-4.546">
        <ele>13.0</ele>
        <time>2020-08-13T11:40:03Z</time>
      </trkpt>
      <trkpt lat="48.315333" lon="-4.545974">
        <ele>13.0</ele>
        <time>2020-08-13T11:40:04Z</time>
      </trkpt>
      <trkpt lat="48.315154" lon="-4.545969">
        <ele>13.0</ele>
        <time>2020-08-13T11:40:05Z</time>
      </trkpt>
      <trkpt lat="48.314903" lon="-4.546024">
        <ele>8.4</ele>
        <time>2020-08-13T11:40:07Z</time>
      </trkpt>
      <trkpt lat="48.314814" lon="-4.546072">
        <ele>8.4</ele>
        <time>2020-08-13T11:40:08Z</time>
      </trkpt>
      <trkpt lat="48.314651" lon="-4.546205">
        <ele>8.4</ele>
        <time>2020-08-13T11:40:10Z</time>
      </trkpt>
      <trkpt lat="48.31453" lon="-4.546478">
        <ele>8.4</ele>
        <time>2020-08-13T11:40:11Z</time>
      </trkpt>
      <trkpt lat="48.314514" lon="-4.546687">
        <ele>13.2</ele>
        <time>2020-08-13T11:40:13Z</time>
      </trkpt>
      <trkpt lat="48.314523" lon="-4.546826">
        <ele>13.2</ele>
        <time>2020-08-13T11:40:13Z</time>
      </trkpt>
      <trkpt lat="48.314662" lon="-4.547483">
        <ele>13.2</ele>
        <time>2020-08-13T11:40:17Z</time>
      </trkpt>
      <trkpt lat="48.315029" lon="-4.548508">
        <ele>17.0</ele>
        <time>2020-08-13T11:40:23Z</time>
      </trkpt>
      <trkpt lat="48.315091" lon="-4.548825">
        <ele>17.0</ele>
        <time>2020-08-13T11:40:27Z</time>
      </trkpt>
      <trkpt lat="48.314997" lon="-4.548923">
        <ele>19.8</ele>
        <time>2020-08-13T11:40:28Z</time>
      </trkpt>
      <trkpt lat="48.314301" lon="-4.549389">
        <ele>23.4</ele>
        <time>2020-08-13T11:40:36Z</time>
      </trkpt>
      <trkpt lat="48.314086" lon="-4.549565">
        <ele>28.4</ele>
        <time>2020-08-13T11:40:39Z</time>
      </trkpt>
      <trkpt lat="48.313662" lon="-4.549987">
        <ele>28.4</ele>
        <time>2020-08-13T11:40:44Z</time>
      </trkpt>
      <trkpt lat="48.313468" lon="-4.550156">
        <ele>32.2</ele>
        <time>2020-08-13T11:40:46Z</time>
      </trkpt>
      <trkpt lat="48.313253" lon="-4.550294">
        <ele>35.2</ele>
        <time>2020-08-13T11:40:49Z</time>
      </trkpt>
      <trkpt lat="48.313055" lon="-4.550378">
        <ele>35.2</ele>
        <time>2020-08-13T11:40:51Z</time>
      </trkpt>
      <trkpt lat="48.312506" lon="-4.550474">
        <ele>35.2</ele>
        <time>2020-08-13T11:40:57Z</time>
      </trkpt>
      <trkpt lat="48.31236" lon="-4.550457">
        <ele>35.8</ele>
        <time>2020-08-13T11:40:58Z</time>
      </trkpt>
      <trkpt lat="48.312092" lon="-4.550345">
        <ele>35.8</ele>
        <time>2020-08-13T11:41:01Z</time>
      </trkpt>
      <trkpt lat="48.311747" lon="-4.550235">
        <ele>35.8</ele>
        <time>2020-08-13T11:41:05Z</time>
      </trkpt>
      <trkpt lat="48.311458" lon="-4.550224">
        <ele>35.0</ele>
        <time>2020-08-13T11:41:08Z</time>
      </trkpt>
      <trkpt lat="48.311116" lon="-4.550263">
        <ele>35.0</ele>
        <time>2020-08-13T11:41:11Z</time>
      </trkpt>
      <trkpt lat="48.310902" lon="-4.55034">
        <ele>35.0</ele>
        <time>2020-08-13T11:41:14Z</time>
      </trkpt>
      <trkpt lat="48.310608" lon="-4.550487">
        <ele>32.0</ele>
        <time>2020-08-13T11:41:17Z</time>
      </trkpt>
      <trkpt lat="48.308149" lon="-4.551792">
        <ele>27.2</ele>
        <time>2020-08-13T11:41:44Z</time>
      </trkpt>
      <trkpt lat="48.307845" lon="-4.551934">
        <ele>27.2</ele>
        <time>2020-08-13T11:41:47Z</time>
      </trkpt>
      <trkpt lat="48.306536" lon="-4.552378">
        <ele>12.0</ele>
        <time>2020-08-13T11:42:01Z</time>
      </trkpt>
      <trkpt lat="48.306347" lon="-4.552502">
        <ele>14.75</ele>
        <time>2020-08-13T11:42:03Z</time>
      </trkpt>
      <trkpt lat="48.306095" lon="-4.552817">
        <ele>14.75</ele>
        <time>2020-08-13T11:42:07Z</time>
      </trkpt>
      <trkpt lat="48.305941" lon="-4.553078">
        <ele>14.75</ele>
        <time>2020-08-13T11:42:09Z</time>
      </trkpt>
      <trkpt lat="48.305193" lon="-4.554816">
        <ele>5.66</ele>
        <time>2020-08-13T11:42:24Z</time>
      </trkpt>
      <trkpt lat="48.304987" lon="-4.555179">
        <ele>2.0</ele>
        <time>2020-08-13T11:42:27Z</time>
      </trkpt>
      <trkpt lat="48.304913" lon="-4.555278">
        <ele>2.0</ele>
        <time>2020-08-13T11:42:28Z</time>
      </trkpt>
      <trkpt lat="48.304658" lon="-4.555537">
        <ele>2.0</ele>
        <time>2020-08-13T11:42:31Z</time>
      </trkpt>
      <trkpt lat="48.303937" lon="-4.55617">
        <ele>8.0</ele>
        <time>2020-08-13T11:42:40Z</time>
      </trkpt>
      <trkpt lat="48.303759" lon="-4.556279">
        <ele>8.0</ele>
        <time>2020-08-13T11:42:42Z</time>
      </trkpt>
      <trkpt lat="48.303629" lon="-4.556327">
        <ele>8.0</ele>
        <time>2020-08-13T11:42:43Z</time>
      </trkpt>
      <trkpt lat="48.303341" lon="-4.556329">
        <ele>8.0</ele>
        <time>2020-08-13T11:42:46Z</time>
      </trkpt>
      <trkpt lat="48.301901" lon="-4.556062">
        <ele>16.0</ele>
        <time>2020-08-13T11:43:01Z</time>
      </trkpt>
      <trkpt lat="48.30164" lon="-4.55611">
        <ele>19.0</ele>
        <time>2020-08-13T11:43:04Z</time>
      </trkpt>
      <trkpt lat="48.301415" lon="-4.556184">
        <ele>19.0</ele>
        <time>2020-08-13T11:43:06Z</time>
      </trkpt>
      <trkpt lat="48.301161" lon="-4.556362">
        <ele>19.0</ele>
        <time>2020-08-13T11:43:09Z</time>
      </trkpt>
      <trkpt lat="48.300771" lon="-4.556691">
        <ele>30.0</ele>
        <time>2020-08-13T11:43:14Z</time>
      </trkpt>
      <trkpt lat="48.300568" lon="-4.55677">
        <ele>30.0</ele>
        <time>2020-08-13T11:43:16Z</time>
      </trkpt>
      <trkpt lat="48.300359" lon="-4.556806">
        <ele>30.0</ele>
        <time>2020-08-13T11:43:18Z</time>
      </trkpt>
      <trkpt lat="48.29999" lon="-4.556811">
        <ele>30.2</ele>
        <time>2020-08-13T11:43:22Z</time>
      </trkpt>
      <trkpt lat="48.29972" lon="-4.556727">
        <ele>30.2</ele>
        <time>2020-08-13T11:43:25Z</time>
      </trkpt>
      <trkpt lat="48.298955" lon="-4.556399">
        <ele>26.2</ele>
        <time>2020-08-13T11:43:33Z</time>
      </trkpt>
      <trkpt lat="48.298576" lon="-4.556139">
        <ele>26.2</ele>
        <time>2020-08-13T11:43:38Z</time>
      </trkpt>
      <trkpt lat="48.298128" lon="-4.555772">
        <ele>22.4</ele>
        <time>2020-08-13T11:43:43Z</time>
      </trkpt>
      <trkpt lat="48.298002" lon="-4.555661">
        <ele>22.4</ele>
        <time>2020-08-13T11:43:44Z</time>
      </trkpt>
      <trkpt lat="48.297779" lon="-4.55542">
        <ele>22.4</ele>
        <time>2020-08-13T11:43:47Z</time>
      </trkpt>
      <trkpt lat="48.297637" lon="-4.555305">
        <ele>22.4</ele>
        <time>2020-08-13T11:43:49Z</time>
      </trkpt>
      <trkpt lat="48.297458" lon="-4.555228">
        <ele>21.0</ele>
        <time>2020-08-13T11:43:51Z</time>
      </trkpt>
      <trkpt lat="48.296826" lon="-4.555055">
        <ele>21.0</ele>
        <time>2020-08-13T11:43:58Z</time>
      </trkpt>
      <trkpt lat="48.29667" lon="-4.554965">
        <ele>12.0</ele>
        <time>2020-08-13T11:44:00Z</time>
      </trkpt>
      <trkpt lat="48.296541" lon="-4.554831">
        <ele>7.8</ele>
        <time>2020-08-13T11:44:01Z</time>
      </trkpt>
      <trkpt lat="48.296489" lon="-4.55475">
        <ele>7.8</ele>
        <time>2020-08-13T11:44:02Z</time>
      </trkpt>
      <trkpt lat="48.296326" lon="-4.554379">
        <ele>7.8</ele>
        <time>2020-08-13T11:44:05Z</time>
      </trkpt>
      <trkpt lat="48.295837" lon="-4.553038">
        <ele>0.0</ele>
        <time>2020-08-13T11:44:16Z</time>
      </trkpt>
      <trkpt lat="48.295758" lon="-4.552957">
        <ele>2.0</ele>
        <time>2020-08-13T11:44:17Z</time>
      </trkpt>
      <trkpt lat="48.295668" lon="-4.552934">
        <ele>2.0</ele>
        <time>2020-08-13T11:44:18Z</time>
      </trkpt>
      <trkpt lat="48.295565" lon="-4.552985">
        <ele>2.0</ele>
        <time>2020-08-13T11:44:19Z</time>
      </trkpt>
      <trkpt lat="48.295279" lon="-4.553413">
        <ele>3.4</ele>
        <time>2020-08-13T11:44:23Z</time>
      </trkpt>
      <trkpt lat="48.295166" lon="-4.55355">
        <ele>3.4</ele>
        <time>2020-08-13T11:44:24Z</time>
      </trkpt>
      <trkpt lat="48.295111" lon="-4.553574">
        <ele>3.4</ele>
        <time>2020-08-13T11:44:25Z</time>
      </trkpt>
      <trkpt lat="48.295073" lon="-4.553565">
        <ele>3.4</ele>
        <time>2020-08-13T11:44:25Z</time>
      </trkpt>
      <trkpt lat="48.294846" lon="-4.553395">
        <ele>4.0</ele>
        <time>2020-08-13T11:44:28Z</time>
      </trkpt>
      <trkpt lat="48.29451" lon="-4.553004">
        <ele>3.2</ele>
        <time>2020-08-13T11:44:32Z</time>
      </trkpt>
      <trkpt lat="48.294283" lon="-4.552681">
        <ele>3.2</ele>
        <time>2020-08-13T11:44:36Z</time>
      </trkpt>
      <trkpt lat="48.293821" lon="-4.551897">
        <ele>6.4</ele>
        <time>2020-08-13T11:44:43Z</time>
      </trkpt>
      <trkpt lat="48.293241" lon="-4.550967">
        <ele>9.8</ele>
        <time>2020-08-13T11:44:52Z</time>
      </trkpt>
      <trkpt lat="48.292911" lon="-4.550652">
        <ele>8.2</ele>
        <time>2020-08-13T11:44:56Z</time>
      </trkpt>
      <trkpt lat="48.291637" lon="-4.549619">
        <ele>16.6</ele>
        <time>2020-08-13T11:45:11Z</time>
      </trkpt>
      <trkpt lat="48.291256" lon="-4.549227">
        <ele>16.6</ele>
        <time>2020-08-13T11:45:16Z</time>
      </trkpt>
      <trkpt lat="48.290952" lon="-4.548778">
        <ele>16.0</ele>
        <time>2020-08-13T11:45:20Z</time>
      </trkpt>
      <trkpt lat="48.289898" lon="-4.546703">
        <ele>25.0</ele>
        <time>2020-08-13T11:45:38Z</time>
      </trkpt>
      <trkpt lat="48.289704" lon="-4.546371">
        <ele>21.8</ele>
        <time>2020-08-13T11:45:41Z</time>
      </trkpt>
      <trkpt lat="48.281967" lon="-4.534912">
        <ele>19.2</ele>
        <time>2020-08-13T11:47:34Z</time>
      </trkpt>
      <trkpt lat="48.281717" lon="-4.53447">
        <ele>19.2</ele>
        <time>2020-08-13T11:47:38Z</time>
      </trkpt>
      <trkpt lat="48.281398" lon="-4.533771">
        <ele>25.0</ele>
        <time>2020-08-13T11:47:44Z</time>
      </trkpt>
      <trkpt lat="48.281248" lon="-4.533331">
        <ele>23.0</ele>
        <time>2020-08-13T11:47:47Z</time>
      </trkpt>
      <trkpt lat="48.28084" lon="-4.531846">
        <ele>22.8</ele>
        <time>2020-08-13T11:47:58Z</time>
      </trkpt>
      <trkpt lat="48.280677" lon="-4.531379">
        <ele>27.4</ele>
        <time>2020-08-13T11:48:02Z</time>
      </trkpt>
      <trkpt lat="48.280087" lon="-4.53002">
        <ele>29.8</ele>
        <time>2020-08-13T11:48:13Z</time>
      </trkpt>
      <trkpt lat="48.279633" lon="-4.529186">
        <ele>36.6</ele>
        <time>2020-08-13T11:48:23Z</time>
      </trkpt>
      <trkpt lat="48.279575" lon="-4.529155">
        <ele>38.6</ele>
        <time>2020-08-13T11:48:23Z</time>
      </trkpt>
      <trkpt lat="48.279541" lon="-4.52911">
        <ele>38.6</ele>
        <time>2020-08-13T11:48:24Z</time>
      </trkpt>
      <trkpt lat="48.279515" lon="-4.529028">
        <ele>38.6</ele>
        <time>2020-08-13T11:48:24Z</time>
      </trkpt>
      <trkpt lat="48.279514" lon="-4.528938">
        <ele>38.6</ele>
        <time>2020-08-13T11:48:24Z</time>
      </trkpt>
      <trkpt lat="48.279566" lon="-4.528815">
        <ele>38.6</ele>
        <time>2020-08-13T11:48:25Z</time>
      </trkpt>
      <trkpt lat="48.27962" lon="-4.528778">
        <ele>38.6</ele>
        <time>2020-08-13T11:48:25Z</time>
      </trkpt>
      <trkpt lat="48.279717" lon="-4.528475">
        <ele>38.6</ele>
        <time>2020-08-13T11:48:26Z</time>
      </trkpt>
      <trkpt lat="48.279777" lon="-4.528227">
        <ele>39.6</ele>
        <time>2020-08-13T11:48:27Z</time>
      </trkpt>
      <trkpt lat="48.280396" lon="-4.524708">
        <ele>43.8</ele>
        <time>2020-08-13T11:48:38Z</time>
      </trkpt>
      <trkpt lat="48.280513" lon="-4.524215">
        <ele>43.8</ele>
        <time>2020-08-13T11:48:39Z</time>
      </trkpt>
      <trkpt lat="48.280657" lon="-4.523843">
        <ele>43.8</ele>
        <time>2020-08-13T11:48:41Z</time>
      </trkpt>
      <trkpt lat="48.28075" lon="-4.523655">
        <ele>43.8</ele>
        <time>2020-08-13T11:48:41Z</time>
      </trkpt>
      <trkpt lat="48.281053" lon="-4.523215">
        <ele>47.8</ele>
        <time>2020-08-13T11:48:43Z</time>
      </trkpt>
      <trkpt lat="48.28138" lon="-4.522917">
        <ele>47.8</ele>
        <time>2020-08-13T11:48:45Z</time>
      </trkpt>
      <trkpt lat="48.281607" lon="-4.522781">
        <ele>47.8</ele>
        <time>2020-08-13T11:48:46Z</time>
      </trkpt>
      <trkpt lat="48.281845" lon="-4.52269">
        <ele>48.8</ele>
        <time>2020-08-13T11:48:47Z</time>
      </trkpt>
      <trkpt lat="48.283273" lon="-4.522327">
        <ele>48.4</ele>
        <time>2020-08-13T11:48:54Z</time>
      </trkpt>
      <trkpt lat="48.283276" lon="-4.51977">
        <ele>52.6</ele>
        <time>2020-08-13T11:49:09Z</time>
      </trkpt>
      <trkpt lat="48.283293" lon="-4.519518">
        <ele>52.6</ele>
        <time>2020-08-13T11:49:11Z</time>
      </trkpt>
      <trkpt lat="48.28335" lon="-4.51918">
        <ele>50.8</ele>
        <time>2020-08-13T11:49:13Z</time>
      </trkpt>
      <trkpt lat="48.283986" lon="-4.517547">
        <ele>50.8</ele>
        <time>2020-08-13T11:49:24Z</time>
      </trkpt>
      <trkpt lat="48.284635" lon="-4.516294">
        <ele>44.8</ele>
        <time>2020-08-13T11:49:33Z</time>
      </trkpt>
      <trkpt lat="48.284838" lon="-4.515836">
        <ele>44.8</ele>
        <time>2020-08-13T11:49:36Z</time>
      </trkpt>
      <trkpt lat="48.285065" lon="-4.514835">
        <ele>35.8</ele>
        <time>2020-08-13T11:49:43Z</time>
      </trkpt>
      <trkpt lat="48.28514" lon="-4.51363">
        <ele>31.8</ele>
        <time>2020-08-13T11:49:50Z</time>
      </trkpt>
      <trkpt lat="48.285195" lon="-4.511825">
        <ele>21.6</ele>
        <time>2020-08-13T11:50:00Z</time>
      </trkpt>
      <trkpt lat="48.28514" lon="-4.511531">
        <ele>17.4</ele>
        <time>2020-08-13T11:50:02Z</time>
      </trkpt>
      <trkpt lat="48.28491" lon="-4.510669">
        <ele>11.2</ele>
        <time>2020-08-13T11:50:08Z</time>
      </trkpt>
      <trkpt lat="48.284866" lon="-4.510378">
        <ele>11.2</ele>
        <time>2020-08-13T11:50:09Z</time>
      </trkpt>
      <trkpt lat="48.284844" lon="-4.509641">
        <ele>7.5</ele>
        <time>2020-08-13T11:50:14Z</time>
      </trkpt>
      <trkpt lat="48.2848" lon="-4.509635">
        <ele>7.5</ele>
        <time>2020-08-13T11:50:14Z</time>
      </trkpt>
      <trkpt lat="48.284765" lon="-4.509591">
        <ele>7.5</ele>
        <time>2020-08-13T11:50:15Z</time>
      </trkpt>
      <trkpt lat="48.284755" lon="-4.509525">
        <ele>7.5</ele>
        <time>2020-08-13T11:50:15Z</time>
      </trkpt>
      <trkpt lat="48.284773" lon="-4.509463">
        <ele>7.5</ele>
        <time>2020-08-13T11:50:15Z</time>
      </trkpt>
      <trkpt lat="48.284702" lon="-4.509385">
        <ele>7.5</ele>
        <time>2020-08-13T11:50:16Z</time>
      </trkpt>
      <trkpt lat="48.283884" lon="-4.508765">
        <ele>0.0</ele>
        <time>2020-08-13T11:50:23Z</time>
      </trkpt>
      <trkpt lat="48.283694" lon="-4.508561">
        <ele>0.0</ele>
        <time>2020-08-13T11:50:25Z</time>
      </trkpt>
      <trkpt lat="48.283291" lon="-4.507987">
        <ele>0.0</ele>
        <time>2020-08-13T11:50:30Z</time>
      </trkpt>
      <trkpt lat="48.282122" lon="-4.506098">
        <ele>0.0</ele>
        <time>2020-08-13T11:50:43Z</time>
      </trkpt>
      <trkpt lat="48.281837" lon="-4.505562">
        <ele>0.0</ele>
        <time>2020-08-13T11:50:47Z</time>
      </trkpt>
      <trkpt lat="48.281494" lon="-4.504801">
        <ele>6.25</ele>
        <time>2020-08-13T11:50:52Z</time>
      </trkpt>
      <trkpt lat="48.281168" lon="-4.503959">
        <ele>7.25</ele>
        <time>2020-08-13T11:50:57Z</time>
      </trkpt>
      <trkpt lat="48.280793" lon="-4.502733">
        <ele>11.8</ele>
        <time>2020-08-13T11:51:04Z</time>
      </trkpt>
      <trkpt lat="48.280714" lon="-4.502558">
        <ele>11.8</ele>
        <time>2020-08-13T11:51:05Z</time>
      </trkpt>
      <trkpt lat="48.280613" lon="-4.502395">
        <ele>14.0</ele>
        <time>2020-08-13T11:51:06Z</time>
      </trkpt>
      <trkpt lat="48.280455" lon="-4.502302">
        <ele>14.0</ele>
        <time>2020-08-13T11:51:08Z</time>
      </trkpt>
      <trkpt lat="48.280364" lon="-4.50228">
        <ele>14.0</ele>
        <time>2020-08-13T11:51:08Z</time>
      </trkpt>
      <trkpt lat="48.279884" lon="-4.502357">
        <ele>19.8</ele>
        <time>2020-08-13T11:51:12Z</time>
      </trkpt>
      <trkpt lat="48.279678" lon="-4.502358">
        <ele>19.8</ele>
        <time>2020-08-13T11:51:14Z</time>
      </trkpt>
      <trkpt lat="48.279507" lon="-4.502287">
        <ele>19.8</ele>
        <time>2020-08-13T11:51:15Z</time>
      </trkpt>
      <trkpt lat="48.279354" lon="-4.502145">
        <ele>19.8</ele>
        <time>2020-08-13T11:51:17Z</time>
      </trkpt>
      <trkpt lat="48.279305" lon="-4.502076">
        <ele>19.8</ele>
        <time>2020-08-13T11:51:17Z</time>
      </trkpt>
      <trkpt lat="48.279203" lon="-4.501852">
        <ele>19.8</ele>
        <time>2020-08-13T11:51:19Z</time>
      </trkpt>
      <trkpt lat="48.279162" lon="-4.501672">
        <ele>27.8</ele>
        <time>2020-08-13T11:51:20Z</time>
      </trkpt>
      <trkpt lat="48.279127" lon="-4.501284">
        <ele>32.4</ele>
        <time>2020-08-13T11:51:22Z</time>
      </trkpt>
      <trkpt lat="48.27909" lon="-4.500573">
        <ele>35.6</ele>
        <time>2020-08-13T11:51:26Z</time>
      </trkpt>
      <trkpt lat="48.279053" lon="-4.50026">
        <ele>35.6</ele>
        <time>2020-08-13T11:51:27Z</time>
      </trkpt>
      <trkpt lat="48.279004" lon="-4.49996">
        <ele>38.4</ele>
        <time>2020-08-13T11:51:29Z</time>
      </trkpt>
      <trkpt lat="48.2789" lon="-4.49953">
        <ele>38.4</ele>
        <time>2020-08-13T11:51:32Z</time>
      </trkpt>
      <trkpt lat="48.277557" lon="-4.49565">
        <ele>55.4</ele>
        <time>2020-08-13T11:51:55Z</time>
      </trkpt>
      <trkpt lat="48.277388" lon="-4.495259">
        <ele>59.2</ele>
        <time>2020-08-13T11:51:57Z</time>
      </trkpt>
      <trkpt lat="48.277223" lon="-4.495005">
        <ele>59.2</ele>
        <time>2020-08-13T11:51:59Z</time>
      </trkpt>
      <trkpt lat="48.276745" lon="-4.494486">
        <ele>61.0</ele>
        <time>2020-08-13T11:52:04Z</time>
      </trkpt>
      <trkpt lat="48.27666" lon="-4.494503">
        <ele>62.8</ele>
        <time>2020-08-13T11:52:05Z</time>
      </trkpt>
      <trkpt lat="48.276577" lon="-4.494432">
        <ele>62.8</ele>
        <time>2020-08-13T11:52:05Z</time>
      </trkpt>
      <trkpt lat="48.276545" lon="-4.494321">
        <ele>62.8</ele>
        <time>2020-08-13T11:52:06Z</time>
      </trkpt>
      <trkpt lat="48.27656" lon="-4.494202">
        <ele>62.8</ele>
        <time>2020-08-13T11:52:06Z</time>
      </trkpt>
      <trkpt lat="48.276595" lon="-4.494135">
        <ele>64.0</ele>
        <time>2020-08-13T11:52:07Z</time>
      </trkpt>
      <trkpt lat="48.276646" lon="-4.494095">
        <ele>64.0</ele>
        <time>2020-08-13T11:52:07Z</time>
      </trkpt>
      <trkpt lat="48.276784" lon="-4.493831">
        <ele>62.0</ele>
        <time>2020-08-13T11:52:09Z</time>
      </trkpt>
      <trkpt lat="48.276864" lon="-4.493581">
        <ele>62.0</ele>
        <time>2020-08-13T11:52:10Z</time>
      </trkpt>
      <trkpt lat="48.277169" lon="-4.491723">
        <ele>63.0</ele>
        <time>2020-08-13T11:52:19Z</time>
      </trkpt>
      <trkpt lat="48.27737" lon="-4.490973">
        <ele>63.2</ele>
        <time>2020-08-13T11:52:22Z</time>
      </trkpt>
      <trkpt lat="48.278125" lon="-4.488418">
        <ele>63.4</ele>
        <time>2020-08-13T11:52:35Z</time>
      </trkpt>
      <trkpt lat="48.278686" lon="-4.486908">
        <ele>62.8</ele>
        <time>2020-08-13T11:52:43Z</time>
      </trkpt>
      <trkpt lat="48.278906" lon="-4.486165">
        <ele>62.8</ele>
        <time>2020-08-13T11:52:46Z</time>
      </trkpt>
      <trkpt lat="48.27903" lon="-4.485544">
        <ele>63.0</ele>
        <time>2020-08-13T11:52:49Z</time>
      </trkpt>
      <trkpt lat="48.279146" lon="-4.484632">
        <ele>63.8</ele>
        <time>2020-08-13T11:52:53Z</time>
      </trkpt>
      <trkpt lat="48.27922" lon="-4.484163">
        <ele>62.8</ele>
        <time>2020-08-13T11:52:56Z</time>
      </trkpt>
      <trkpt lat="48.279302" lon="-4.483752">
        <ele>62.8</ele>
        <time>2020-08-13T11:52:58Z</time>
      </trkpt>
      <trkpt lat="48.279416" lon="-4.483349">
        <ele>62.8</ele>
        <time>2020-08-13T11:53:00Z</time>
      </trkpt>
      <trkpt lat="48.27957" lon="-4.482929">
        <ele>63.0</ele>
        <time>2020-08-13T11:53:02Z</time>
      </trkpt>
      <trkpt lat="48.280826" lon="-4.47963">
        <ele>63.8</ele>
        <time>2020-08-13T11:53:19Z</time>
      </trkpt>
      <trkpt lat="48.282118" lon="-4.475928">
        <ele>64.4</ele>
        <time>2020-08-13T11:53:38Z</time>
      </trkpt>
      <trkpt lat="48.282359" lon="-4.475079">
        <ele>66.8</ele>
        <time>2020-08-13T11:53:42Z</time>
      </trkpt>
      <trkpt lat="48.282511" lon="-4.474417">
        <ele>66.4</ele>
        <time>2020-08-13T11:53:45Z</time>
      </trkpt>
      <trkpt lat="48.283012" lon="-4.471727">
        <ele>70.0</ele>
        <time>2020-08-13T11:53:58Z</time>
      </trkpt>
      <trkpt lat="48.283152" lon="-4.471189">
        <ele>71.2</ele>
        <time>2020-08-13T11:54:00Z</time>
      </trkpt>
      <trkpt lat="48.283361" lon="-4.470497">
        <ele>71.2</ele>
        <time>2020-08-13T11:54:04Z</time>
      </trkpt>
      <trkpt lat="48.283409" lon="-4.470275">
        <ele>71.2</ele>
        <time>2020-08-13T11:54:05Z</time>
      </trkpt>
      <trkpt lat="48.283467" lon="-4.470156">
        <ele>71.2</ele>
        <time>2020-08-13T11:54:05Z</time>
      </trkpt>
      <trkpt lat="48.283853" lon="-4.468959">
        <ele>72.4</ele>
        <time>2020-08-13T11:54:11Z</time>
      </trkpt>
      <trkpt lat="48.284098" lon="-4.466708">
        <ele>72.6</ele>
        <time>2020-08-13T11:54:22Z</time>
      </trkpt>
      <trkpt lat="48.284156" lon="-4.46581">
        <ele>72.0</ele>
        <time>2020-08-13T11:54:26Z</time>
      </trkpt>
      <trkpt lat="48.284181" lon="-4.465653">
        <ele>71.6</ele>
        <time>2020-08-13T11:54:27Z</time>
      </trkpt>
      <trkpt lat="48.284132" lon="-4.465403">
        <ele>72.0</ele>
        <time>2020-08-13T11:54:28Z</time>
      </trkpt>
      <trkpt lat="48.284117" lon="-4.464953">
        <ele>71.8</ele>
        <time>2020-08-13T11:54:30Z</time>
      </trkpt>
      <trkpt lat="48.284079" lon="-4.464546">
        <ele>71.8</ele>
        <time>2020-08-13T11:54:32Z</time>
      </trkpt>
      <trkpt lat="48.283694" lon="-4.46097">
        <ele>71.8</ele>
        <time>2020-08-13T11:54:48Z</time>
      </trkpt>
      <trkpt lat="48.283428" lon="-4.459166">
        <ele>73.6</ele>
        <time>2020-08-13T11:54:56Z</time>
      </trkpt>
      <trkpt lat="48.283392" lon="-4.459173">
        <ele>72.6</ele>
        <time>2020-08-13T11:54:56Z</time>
      </trkpt>
      <trkpt lat="48.283325" lon="-4.45914">
        <ele>70.0</ele>
        <time>2020-08-13T11:54:57Z</time>
      </trkpt>
      <trkpt lat="48.283282" lon="-4.459054">
        <ele>70.0</ele>
        <time>2020-08-13T11:54:57Z</time>
      </trkpt>
      <trkpt lat="48.28328" lon="-4.458945">
        <ele>70.0</ele>
        <time>2020-08-13T11:54:58Z</time>
      </trkpt>
      <trkpt lat="48.283295" lon="-4.458894">
        <ele>70.0</ele>
        <time>2020-08-13T11:54:58Z</time>
      </trkpt>
      <trkpt lat="48.283353" lon="-4.458826">
        <ele>73.6</ele>
        <time>2020-08-13T11:54:58Z</time>
      </trkpt>
      <trkpt lat="48.283352" lon="-4.458731">
        <ele>73.6</ele>
        <time>2020-08-13T11:54:58Z</time>
      </trkpt>
      <trkpt lat="48.283328" lon="-4.458626">
        <ele>70.0</ele>
        <time>2020-08-13T11:54:59Z</time>
      </trkpt>
      <trkpt lat="48.282026" lon="-4.456141">
        <ele>71.0</ele>
        <time>2020-08-13T11:55:09Z</time>
      </trkpt>
      <trkpt lat="48.280756" lon="-4.454142">
        <ele>79.8</ele>
        <time>2020-08-13T11:55:17Z</time>
      </trkpt>
      <trkpt lat="48.279021" lon="-4.45176">
        <ele>77.4</ele>
        <time>2020-08-13T11:55:28Z</time>
      </trkpt>
      <trkpt lat="48.278705" lon="-4.451386">
        <ele>79.8</ele>
        <time>2020-08-13T11:55:30Z</time>
      </trkpt>
      <trkpt lat="48.278137" lon="-4.450832">
        <ele>79.8</ele>
        <time>2020-08-13T11:55:34Z</time>
      </trkpt>
      <trkpt lat="48.277643" lon="-4.450499">
        <ele>79.8</ele>
        <time>2020-08-13T11:55:36Z</time>
      </trkpt>
      <trkpt lat="48.277031" lon="-4.450239">
        <ele>77.6</ele>
        <time>2020-08-13T11:55:39Z</time>
      </trkpt>
      <trkpt lat="48.276729" lon="-4.450158">
        <ele>77.6</ele>
        <time>2020-08-13T11:55:41Z</time>
      </trkpt>
      <trkpt lat="48.276422" lon="-4.450116">
        <ele>74.6</ele>
        <time>2020-08-13T11:55:42Z</time>
      </trkpt>
      <trkpt lat="48.275574" lon="-4.450085">
        <ele>70.6</ele>
        <time>2020-08-13T11:55:46Z</time>
      </trkpt>
      <trkpt lat="48.275248" lon="-4.450042">
        <ele>70.6</ele>
        <time>2020-08-13T11:55:48Z</time>
      </trkpt>
      <trkpt lat="48.27506" lon="-4.449978">
        <ele>70.6</ele>
        <time>2020-08-13T11:55:48Z</time>
      </trkpt>
      <trkpt lat="48.27475" lon="-4.449833">
        <ele>65.4</ele>
        <time>2020-08-13T11:55:50Z</time>
      </trkpt>
      <trkpt lat="48.274159" lon="-4.449367">
        <ele>61.2</ele>
        <time>2020-08-13T11:55:53Z</time>
      </trkpt>
      <trkpt lat="48.273199" lon="-4.448162">
        <ele>55.0</ele>
        <time>2020-08-13T11:55:59Z</time>
      </trkpt>
      <trkpt lat="48.272316" lon="-4.447215">
        <ele>49.6</ele>
        <time>2020-08-13T11:56:04Z</time>
      </trkpt>
      <trkpt lat="48.269821" lon="-4.444874">
        <ele>53.0</ele>
        <time>2020-08-13T11:56:18Z</time>
      </trkpt>
      <trkpt lat="48.269298" lon="-4.444414">
        <ele>53.0</ele>
        <time>2020-08-13T11:56:21Z</time>
      </trkpt>
      <trkpt lat="48.268248" lon="-4.443679">
        <ele>58.8</ele>
        <time>2020-08-13T11:56:26Z</time>
      </trkpt>
      <trkpt lat="48.267914" lon="-4.443392">
        <ele>58.8</ele>
        <time>2020-08-13T11:56:28Z</time>
      </trkpt>
      <trkpt lat="48.267723" lon="-4.443169">
        <ele>58.0</ele>
        <time>2020-08-13T11:56:29Z</time>
      </trkpt>
      <trkpt lat="48.267491" lon="-4.442816">
        <ele>55.8</ele>
        <time>2020-08-13T11:56:31Z</time>
      </trkpt>
      <trkpt lat="48.267351" lon="-4.44256">
        <ele>55.8</ele>
        <time>2020-08-13T11:56:32Z</time>
      </trkpt>
      <trkpt lat="48.267096" lon="-4.441985">
        <ele>55.8</ele>
        <time>2020-08-13T11:56:34Z</time>
      </trkpt>
      <trkpt lat="48.266771" lon="-4.441129">
        <ele>56.2</ele>
        <time>2020-08-13T11:56:37Z</time>
      </trkpt>
      <trkpt lat="48.266197" lon="-4.440004">
        <ele>52.6</ele>
        <time>2020-08-13T11:56:42Z</time>
      </trkpt>
      <trkpt lat="48.265165" lon="-4.438068">
        <ele>49.4</ele>
        <time>2020-08-13T11:56:49Z</time>
      </trkpt>
      <trkpt lat="48.264728" lon="-4.437307">
        <ele>47.2</ele>
        <time>2020-08-13T11:56:53Z</time>
      </trkpt>
      <trkpt lat="48.264459" lon="-4.436917">
        <ele>47.2</ele>
        <time>2020-08-13T11:56:54Z</time>
      </trkpt>
      <trkpt lat="48.264123" lon="-4.436528">
        <ele>44.4</ele>
        <time>2020-08-13T11:56:56Z</time>
      </trkpt>
      <trkpt lat="48.263776" lon="-4.436211">
        <ele>44.4</ele>
        <time>2020-08-13T11:56:58Z</time>
      </trkpt>
      <trkpt lat="48.263457" lon="-4.435974">
        <ele>44.4</ele>
        <time>2020-08-13T11:57:00Z</time>
      </trkpt>
      <trkpt lat="48.263135" lon="-4.435792">
        <ele>42.0</ele>
        <time>2020-08-13T11:57:02Z</time>
      </trkpt>
      <trkpt lat="48.261872" lon="-4.435201">
        <ele>37.8</ele>
        <time>2020-08-13T11:57:08Z</time>
      </trkpt>
      <trkpt lat="48.261233" lon="-4.434831">
        <ele>33.0</ele>
        <time>2020-08-13T11:57:11Z</time>
      </trkpt>
      <trkpt lat="48.260793" lon="-4.434531">
        <ele>30.0</ele>
        <time>2020-08-13T11:57:13Z</time>
      </trkpt>
      <trkpt lat="48.259067" lon="-4.43318">
        <ele>31.0</ele>
        <time>2020-08-13T11:57:23Z</time>
      </trkpt>
      <trkpt lat="48.256128" lon="-4.430948">
        <ele>44.2</ele>
        <time>2020-08-13T11:57:38Z</time>
      </trkpt>
      <trkpt lat="48.255861" lon="-4.430663">
        <ele>47.4</ele>
        <time>2020-08-13T11:57:40Z</time>
      </trkpt>
      <trkpt lat="48.255618" lon="-4.43035">
        <ele>49.6</ele>
        <time>2020-08-13T11:57:41Z</time>
      </trkpt>
      <trkpt lat="48.255384" lon="-4.429961">
        <ele>51.8</ele>
        <time>2020-08-13T11:57:43Z</time>
      </trkpt>
      <trkpt lat="48.255204" lon="-4.42956">
        <ele>51.8</ele>
        <time>2020-08-13T11:57:44Z</time>
      </trkpt>
      <trkpt lat="48.254993" lon="-4.428955">
        <ele>52.6</ele>
        <time>2020-08-13T11:57:46Z</time>
      </trkpt>
      <trkpt lat="48.254235" lon="-4.426332">
        <ele>57.8</ele>
        <time>2020-08-13T11:57:55Z</time>
      </trkpt>
      <trkpt lat="48.254053" lon="-4.425852">
        <ele>57.0</ele>
        <time>2020-08-13T11:57:57Z</time>
      </trkpt>
      <trkpt lat="48.253821" lon="-4.425379">
        <ele>59.8</ele>
        <time>2020-08-13T11:57:59Z</time>
      </trkpt>
      <trkpt lat="48.253588" lon="-4.424968">
        <ele>62.2</ele>
        <time>2020-08-13T11:58:01Z</time>
      </trkpt>
      <trkpt lat="48.25317" lon="-4.424354">
        <ele>65.8</ele>
        <time>2020-08-13T11:58:03Z</time>
      </trkpt>
      <trkpt lat="48.248669" lon="-4.418534">
        <ele>82.8</ele>
        <time>2020-08-13T11:58:31Z</time>
      </trkpt>
      <trkpt lat="48.248555" lon="-4.418451">
        <ele>82.8</ele>
        <time>2020-08-13T11:58:32Z</time>
      </trkpt>
      <trkpt lat="48.248429" lon="-4.418456">
        <ele>82.8</ele>
        <time>2020-08-13T11:58:33Z</time>
      </trkpt>
      <trkpt lat="48.248396" lon="-4.418516">
        <ele>82.8</ele>
        <time>2020-08-13T11:58:33Z</time>
      </trkpt>
      <trkpt lat="48.248323" lon="-4.418578">
        <ele>79.0</ele>
        <time>2020-08-13T11:58:34Z</time>
      </trkpt>
      <trkpt lat="48.248209" lon="-4.418578">
        <ele>79.0</ele>
        <time>2020-08-13T11:58:35Z</time>
      </trkpt>
      <trkpt lat="48.248147" lon="-4.418529">
        <ele>79.0</ele>
        <time>2020-08-13T11:58:35Z</time>
      </trkpt>
      <trkpt lat="48.248101" lon="-4.41845">
        <ele>79.0</ele>
        <time>2020-08-13T11:58:36Z</time>
      </trkpt>
      <trkpt lat="48.248078" lon="-4.418356">
        <ele>79.0</ele>
        <time>2020-08-13T11:58:36Z</time>
      </trkpt>
      <trkpt lat="48.248079" lon="-4.418239">
        <ele>78.2</ele>
        <time>2020-08-13T11:58:37Z</time>
      </trkpt>
      <trkpt lat="48.248106" lon="-4.418144">
        <ele>78.2</ele>
        <time>2020-08-13T11:58:37Z</time>
      </trkpt>
      <trkpt lat="48.248154" lon="-4.418069">
        <ele>78.2</ele>
        <time>2020-08-13T11:58:38Z</time>
      </trkpt>
      <trkpt lat="48.248216" lon="-4.418024">
        <ele>78.2</ele>
        <time>2020-08-13T11:58:38Z</time>
      </trkpt>
      <trkpt lat="48.248327" lon="-4.418028">
        <ele>78.2</ele>
        <time>2020-08-13T11:58:39Z</time>
      </trkpt>
      <trkpt lat="48.248455" lon="-4.417907">
        <ele>82.4</ele>
        <time>2020-08-13T11:58:40Z</time>
      </trkpt>
      <trkpt lat="48.248524" lon="-4.41778">
        <ele>82.4</ele>
        <time>2020-08-13T11:58:41Z</time>
      </trkpt>
      <trkpt lat="48.248935" lon="-4.416016">
        <ele>82.8</ele>
        <time>2020-08-13T11:58:49Z</time>
      </trkpt>
      <trkpt lat="48.24905" lon="-4.415348">
        <ele>83.4</ele>
        <time>2020-08-13T11:58:52Z</time>
      </trkpt>
      <trkpt lat="48.249106" lon="-4.414155">
        <ele>83.4</ele>
        <time>2020-08-13T11:58:58Z</time>
      </trkpt>
      <trkpt lat="48.249137" lon="-4.411359">
        <ele>83.6</ele>
        <time>2020-08-13T11:59:11Z</time>
      </trkpt>
      <trkpt lat="48.249164" lon="-4.410717">
        <ele>83.8</ele>
        <time>2020-08-13T11:59:14Z</time>
      </trkpt>
      <trkpt lat="48.249499" lon="-4.408123">
        <ele>84.4</ele>
        <time>2020-08-13T11:59:26Z</time>
      </trkpt>
      <trkpt lat="48.250322" lon="-4.402159">
        <ele>84.0</ele>
        <time>2020-08-13T11:59:54Z</time>
      </trkpt>
      <trkpt lat="48.250437" lon="-4.401255">
        <ele>84.2</ele>
        <time>2020-08-13T11:59:58Z</time>
      </trkpt>
      <trkpt lat="48.250632" lon="-4.399326">
        <ele>82.6</ele>
        <time>2020-08-13T12:00:07Z</time>
      </trkpt>
      <trkpt lat="48.250775" lon="-4.398398">
        <ele>81.8</ele>
        <time>2020-08-13T12:00:12Z</time>
      </trkpt>
      <trkpt lat="48.251125" lon="-4.396726">
        <ele>83.4</ele>
        <time>2020-08-13T12:00:20Z</time>
      </trkpt>
      <trkpt lat="48.25218" lon="-4.391975">
        <ele>84.2</ele>
        <time>2020-08-13T12:00:43Z</time>
      </trkpt>
      <trkpt lat="48.252892" lon="-4.388847">
        <ele>86.6</ele>
        <time>2020-08-13T12:00:58Z</time>
      </trkpt>
      <trkpt lat="48.253096" lon="-4.388058">
        <ele>87.2</ele>
        <time>2020-08-13T12:01:02Z</time>
      </trkpt>
      <trkpt lat="48.253342" lon="-4.387274">
        <ele>88.0</ele>
        <time>2020-08-13T12:01:06Z</time>
      </trkpt>
      <trkpt lat="48.253887" lon="-4.385641">
        <ele>87.2</ele>
        <time>2020-08-13T12:01:15Z</time>
      </trkpt>
      <trkpt lat="48.254078" lon="-4.384838">
        <ele>86.6</ele>
        <time>2020-08-13T12:01:19Z</time>
      </trkpt>
      <trkpt lat="48.254256" lon="-4.383846">
        <ele>87.4</ele>
        <time>2020-08-13T12:01:23Z</time>
      </trkpt>
      <trkpt lat="48.254341" lon="-4.383219">
        <ele>87.6</ele>
        <time>2020-08-13T12:01:26Z</time>
      </trkpt>
      <trkpt lat="48.254375" lon="-4.382601">
        <ele>87.6</ele>
        <time>2020-08-13T12:01:29Z</time>
      </trkpt>
      <trkpt lat="48.254397" lon="-4.381546">
        <ele>87.4</ele>
        <time>2020-08-13T12:01:34Z</time>
      </trkpt>
      <trkpt lat="48.254426" lon="-4.381219">
        <ele>87.4</ele>
        <time>2020-08-13T12:01:36Z</time>
      </trkpt>
      <trkpt lat="48.254589" lon="-4.38029">
        <ele>86.8</ele>
        <time>2020-08-13T12:01:40Z</time>
      </trkpt>
      <trkpt lat="48.254722" lon="-4.379399">
        <ele>86.2</ele>
        <time>2020-08-13T12:01:44Z</time>
      </trkpt>
      <trkpt lat="48.25492" lon="-4.376718">
        <ele>85.8</ele>
        <time>2020-08-13T12:01:57Z</time>
      </trkpt>
      <trkpt lat="48.254991" lon="-4.375477">
        <ele>83.6</ele>
        <time>2020-08-13T12:02:02Z</time>
      </trkpt>
      <trkpt lat="48.25528" lon="-4.37333">
        <ele>82.2</ele>
        <time>2020-08-13T12:02:13Z</time>
      </trkpt>
      <trkpt lat="48.255498" lon="-4.371974">
        <ele>80.4</ele>
        <time>2020-08-13T12:02:19Z</time>
      </trkpt>
      <trkpt lat="48.256886" lon="-4.367644">
        <ele>82.0</ele>
        <time>2020-08-13T12:02:41Z</time>
      </trkpt>
      <trkpt lat="48.257364" lon="-4.366278">
        <ele>79.6</ele>
        <time>2020-08-13T12:02:48Z</time>
      </trkpt>
      <trkpt lat="48.258721" lon="-4.362239">
        <ele>79.2</ele>
        <time>2020-08-13T12:03:09Z</time>
      </trkpt>
      <trkpt lat="48.259166" lon="-4.360976">
        <ele>78.4</ele>
        <time>2020-08-13T12:03:16Z</time>
      </trkpt>
      <trkpt lat="48.259334" lon="-4.360365">
        <ele>80.4</ele>
        <time>2020-08-13T12:03:19Z</time>
      </trkpt>
      <trkpt lat="48.259487" lon="-4.359689">
        <ele>81.0</ele>
        <time>2020-08-13T12:03:22Z</time>
      </trkpt>
      <trkpt lat="48.259983" lon="-4.356213">
        <ele>82.6</ele>
        <time>2020-08-13T12:03:39Z</time>
      </trkpt>
      <trkpt lat="48.26048" lon="-4.352561">
        <ele>83.2</ele>
        <time>2020-08-13T12:03:56Z</time>
      </trkpt>
      <trkpt lat="48.261028" lon="-4.348764">
        <ele>86.0</ele>
        <time>2020-08-13T12:04:14Z</time>
      </trkpt>
      <trkpt lat="48.26119" lon="-4.347961">
        <ele>86.6</ele>
        <time>2020-08-13T12:04:18Z</time>
      </trkpt>
      <trkpt lat="48.261518" lon="-4.346644">
        <ele>85.6</ele>
        <time>2020-08-13T12:04:24Z</time>
      </trkpt>
      <trkpt lat="48.261713" lon="-4.345798">
        <ele>87.4</ele>
        <time>2020-08-13T12:04:28Z</time>
      </trkpt>
      <trkpt lat="48.261848" lon="-4.345105">
        <ele>87.4</ele>
        <time>2020-08-13T12:04:32Z</time>
      </trkpt>
      <trkpt lat="48.261929" lon="-4.343873">
        <ele>87.8</ele>
        <time>2020-08-13T12:04:37Z</time>
      </trkpt>
      <trkpt lat="48.26204" lon="-4.342918">
        <ele>88.4</ele>
        <time>2020-08-13T12:04:42Z</time>
      </trkpt>
      <trkpt lat="48.26256" lon="-4.339725">
        <ele>91.2</ele>
        <time>2020-08-13T12:04:57Z</time>
      </trkpt>
      <trkpt lat="48.262607" lon="-4.339182">
        <ele>91.2</ele>
        <time>2020-08-13T12:04:59Z</time>
      </trkpt>
      <trkpt lat="48.26262" lon="-4.338668">
        <ele>92.2</ele>
        <time>2020-08-13T12:05:02Z</time>
      </trkpt>
      <trkpt lat="48.262547" lon="-4.337775">
        <ele>93.6</ele>
        <time>2020-08-13T12:05:06Z</time>
      </trkpt>
      <trkpt lat="48.262441" lon="-4.336915">
        <ele>95.0</ele>
        <time>2020-08-13T12:05:10Z</time>
      </trkpt>
      <trkpt lat="48.262016" lon="-4.333825">
        <ele>100.8</ele>
        <time>2020-08-13T12:05:25Z</time>
      </trkpt>
      <trkpt lat="48.261935" lon="-4.333331">
        <ele>101.2</ele>
        <time>2020-08-13T12:05:27Z</time>
      </trkpt>
      <trkpt lat="48.261863" lon="-4.332244">
        <ele>102.4</ele>
        <time>2020-08-13T12:05:32Z</time>
      </trkpt>
      <trkpt lat="48.261812" lon="-4.331106">
        <ele>102.4</ele>
        <time>2020-08-13T12:05:37Z</time>
      </trkpt>
      <trkpt lat="48.261544" lon="-4.323299">
        <ele>106.0</ele>
        <time>2020-08-13T12:06:13Z</time>
      </trkpt>
      <trkpt lat="48.261417" lon="-4.321208">
        <ele>107.4</ele>
        <time>2020-08-13T12:06:23Z</time>
      </trkpt>
      <trkpt lat="48.260991" lon="-4.317162">
        <ele>107.4</ele>
        <time>2020-08-13T12:06:42Z</time>
      </trkpt>
      <trkpt lat="48.261036" lon="-4.316334">
        <ele>107.2</ele>
        <time>2020-08-13T12:06:46Z</time>
      </trkpt>
      <trkpt lat="48.26112" lon="-4.315722">
        <ele>106.8</ele>
        <time>2020-08-13T12:06:49Z</time>
      </trkpt>
      <trkpt lat="48.261276" lon="-4.315105">
        <ele>106.8</ele>
        <time>2020-08-13T12:06:52Z</time>
      </trkpt>
      <trkpt lat="48.261497" lon="-4.314537">
        <ele>106.8</ele>
        <time>2020-08-13T12:06:55Z</time>
      </trkpt>
      <trkpt lat="48.261969" lon="-4.312514">
        <ele>105.2</ele>
        <time>2020-08-13T12:07:05Z</time>
      </trkpt>
      <trkpt lat="48.262285" lon="-4.311042">
        <ele>105.8</ele>
        <time>2020-08-13T12:07:12Z</time>
      </trkpt>
      <trkpt lat="48.262979" lon="-4.307537">
        <ele>105.4</ele>
        <time>2020-08-13T12:07:29Z</time>
      </trkpt>
      <trkpt lat="48.263104" lon="-4.306825">
        <ele>106.4</ele>
        <time>2020-08-13T12:07:32Z</time>
      </trkpt>
      <trkpt lat="48.263195" lon="-4.306484">
        <ele>107.2</ele>
        <time>2020-08-13T12:07:34Z</time>
      </trkpt>
      <trkpt lat="48.263373" lon="-4.306015">
        <ele>103.2</ele>
        <time>2020-08-13T12:07:36Z</time>
      </trkpt>
      <trkpt lat="48.26372" lon="-4.305392">
        <ele>104.2</ele>
        <time>2020-08-13T12:07:40Z</time>
      </trkpt>
      <trkpt lat="48.264019" lon="-4.304949">
        <ele>105.4</ele>
        <time>2020-08-13T12:07:43Z</time>
      </trkpt>
      <trkpt lat="48.264305" lon="-4.304668">
        <ele>102.2</ele>
        <time>2020-08-13T12:07:45Z</time>
      </trkpt>
      <trkpt lat="48.264663" lon="-4.304243">
        <ele>102.2</ele>
        <time>2020-08-13T12:07:49Z</time>
      </trkpt>
      <trkpt lat="48.265148" lon="-4.303543">
        <ele>100.8</ele>
        <time>2020-08-13T12:07:53Z</time>
      </trkpt>
      <trkpt lat="48.265394" lon="-4.302896">
        <ele>102.4</ele>
        <time>2020-08-13T12:07:57Z</time>
      </trkpt>
      <trkpt lat="48.265771" lon="-4.301697">
        <ele>103.6</ele>
        <time>2020-08-13T12:08:03Z</time>
      </trkpt>
      <trkpt lat="48.266038" lon="-4.300662">
        <ele>102.8</ele>
        <time>2020-08-13T12:08:08Z</time>
      </trkpt>
      <trkpt lat="48.266319" lon="-4.299005">
        <ele>104.6</ele>
        <time>2020-08-13T12:08:16Z</time>
      </trkpt>
      <trkpt lat="48.266882" lon="-4.295628">
        <ele>103.4</ele>
        <time>2020-08-13T12:08:32Z</time>
      </trkpt>
      <trkpt lat="48.267142" lon="-4.293534">
        <ele>103.6</ele>
        <time>2020-08-13T12:08:42Z</time>
      </trkpt>
      <trkpt lat="48.267139" lon="-4.290838">
        <ele>99.6</ele>
        <time>2020-08-13T12:08:54Z</time>
      </trkpt>
      <trkpt lat="48.267081" lon="-4.286468">
        <ele>94.4</ele>
        <time>2020-08-13T12:09:14Z</time>
      </trkpt>
      <trkpt lat="48.267102" lon="-4.285448">
        <ele>94.8</ele>
        <time>2020-08-13T12:09:19Z</time>
      </trkpt>
      <trkpt lat="48.26745" lon="-4.280031">
        <ele>82.2</ele>
        <time>2020-08-13T12:09:44Z</time>
      </trkpt>
      <trkpt lat="48.267565" lon="-4.279314">
        <ele>84.6</ele>
        <time>2020-08-13T12:09:48Z</time>
      </trkpt>
      <trkpt lat="48.267636" lon="-4.279087">
        <ele>85.2</ele>
        <time>2020-08-13T12:09:49Z</time>
      </trkpt>
      <trkpt lat="48.267908" lon="-4.278301">
        <ele>86.0</ele>
        <time>2020-08-13T12:09:53Z</time>
      </trkpt>
      <trkpt lat="48.268221" lon="-4.277626">
        <ele>86.0</ele>
        <time>2020-08-13T12:09:57Z</time>
      </trkpt>
      <trkpt lat="48.268483" lon="-4.276924">
        <ele>85.4</ele>
        <time>2020-08-13T12:10:00Z</time>
      </trkpt>
      <trkpt lat="48.268522" lon="-4.276785">
        <ele>85.4</ele>
        <time>2020-08-13T12:10:01Z</time>
      </trkpt>
      <trkpt lat="48.268548" lon="-4.276612">
        <ele>86.4</ele>
        <time>2020-08-13T12:10:02Z</time>
      </trkpt>
      <trkpt lat="48.268597" lon="-4.275993">
        <ele>86.4</ele>
        <time>2020-08-13T12:10:05Z</time>
      </trkpt>
      <trkpt lat="48.268578" lon="-4.275562">
        <ele>87.0</ele>
        <time>2020-08-13T12:10:07Z</time>
      </trkpt>
      <trkpt lat="48.268524" lon="-4.2752">
        <ele>87.0</ele>
        <time>2020-08-13T12:10:08Z</time>
      </trkpt>
      <trkpt lat="48.267677" lon="-4.272299">
        <ele>76.2</ele>
        <time>2020-08-13T12:10:23Z</time>
      </trkpt>
      <trkpt lat="48.267483" lon="-4.271471">
        <ele>79.4</ele>
        <time>2020-08-13T12:10:27Z</time>
      </trkpt>
      <trkpt lat="48.267261" lon="-4.270385">
        <ele>75.8</ele>
        <time>2020-08-13T12:10:32Z</time>
      </trkpt>
      <trkpt lat="48.267208" lon="-4.269753">
        <ele>73.2</ele>
        <time>2020-08-13T12:10:35Z</time>
      </trkpt>
      <trkpt lat="48.267188" lon="-4.269303">
        <ele>73.2</ele>
        <time>2020-08-13T12:10:37Z</time>
      </trkpt>
      <trkpt lat="48.267215" lon="-4.268331">
        <ele>72.0</ele>
        <time>2020-08-13T12:10:42Z</time>
      </trkpt>
      <trkpt lat="48.267207" lon="-4.267657">
        <ele>72.0</ele>
        <time>2020-08-13T12:10:45Z</time>
      </trkpt>
      <trkpt lat="48.267152" lon="-4.266718">
        <ele>69.8</ele>
        <time>2020-08-13T12:10:49Z</time>
      </trkpt>
      <trkpt lat="48.267181" lon="-4.266209">
        <ele>66.6</ele>
        <time>2020-08-13T12:10:52Z</time>
      </trkpt>
      <trkpt lat="48.267222" lon="-4.265925">
        <ele>66.6</ele>
        <time>2020-08-13T12:10:53Z</time>
      </trkpt>
      <trkpt lat="48.267357" lon="-4.265425">
        <ele>64.0</ele>
        <time>2020-08-13T12:10:56Z</time>
      </trkpt>
      <trkpt lat="48.267456" lon="-4.265173">
        <ele>64.0</ele>
        <time>2020-08-13T12:10:57Z</time>
      </trkpt>
      <trkpt lat="48.267565" lon="-4.26496">
        <ele>38.75</ele>
        <time>2020-08-13T12:10:59Z</time>
      </trkpt>
      <trkpt lat="48.267855" lon="-4.264513">
        <ele>38.75</ele>
        <time>2020-08-13T12:11:02Z</time>
      </trkpt>
      <trkpt lat="48.268316" lon="-4.264034">
        <ele>34.5</ele>
        <time>2020-08-13T12:11:06Z</time>
      </trkpt>
      <trkpt lat="48.268595" lon="-4.263788">
        <ele>0.0</ele>
        <time>2020-08-13T12:11:09Z</time>
      </trkpt>
      <trkpt lat="48.269167" lon="-4.263341">
        <ele>0.0</ele>
        <time>2020-08-13T12:11:13Z</time>
      </trkpt>
      <trkpt lat="48.269465" lon="-4.263139">
        <ele>0.0</ele>
        <time>2020-08-13T12:11:16Z</time>
      </trkpt>
      <trkpt lat="48.269858" lon="-4.26291">
        <ele>0.0</ele>
        <time>2020-08-13T12:11:18Z</time>
      </trkpt>
      <trkpt lat="48.270507" lon="-4.262623">
        <ele>0.0</ele>
        <time>2020-08-13T12:11:23Z</time>
      </trkpt>
      <trkpt lat="48.270796" lon="-4.262569">
        <ele>0.0</ele>
        <time>2020-08-13T12:11:25Z</time>
      </trkpt>
      <trkpt lat="48.270967" lon="-4.262562">
        <ele>24.0</ele>
        <time>2020-08-13T12:11:27Z</time>
      </trkpt>
      <trkpt lat="48.271185" lon="-4.262592">
        <ele>24.0</ele>
        <time>2020-08-13T12:11:29Z</time>
      </trkpt>
      <trkpt lat="48.271559" lon="-4.262743">
        <ele>24.0</ele>
        <time>2020-08-13T12:11:31Z</time>
      </trkpt>
      <trkpt lat="48.271934" lon="-4.262993">
        <ele>35.0</ele>
        <time>2020-08-13T12:11:34Z</time>
      </trkpt>
      <trkpt lat="48.272229" lon="-4.263262">
        <ele>35.0</ele>
        <time>2020-08-13T12:11:37Z</time>
      </trkpt>
      <trkpt lat="48.272709" lon="-4.263881">
        <ele>43.6</ele>
        <time>2020-08-13T12:11:41Z</time>
      </trkpt>
      <trkpt lat="48.273036" lon="-4.264367">
        <ele>30.4</ele>
        <time>2020-08-13T12:11:44Z</time>
      </trkpt>
      <trkpt lat="48.273615" lon="-4.265427">
        <ele>45.4</ele>
        <time>2020-08-13T12:11:51Z</time>
      </trkpt>
      <trkpt lat="48.273773" lon="-4.265823">
        <ele>45.4</ele>
        <time>2020-08-13T12:11:53Z</time>
      </trkpt>
      <trkpt lat="48.274055" lon="-4.266451">
        <ele>40.5</ele>
        <time>2020-08-13T12:11:57Z</time>
      </trkpt>
      <trkpt lat="48.274137" lon="-4.266329">
        <ele>40.5</ele>
        <time>2020-08-13T12:11:58Z</time>
      </trkpt>
      <trkpt lat="48.274183" lon="-4.266169">
        <ele>59.4</ele>
        <time>2020-08-13T12:11:59Z</time>
      </trkpt>
      <trkpt lat="48.27418" lon="-4.266052">
        <ele>59.4</ele>
        <time>2020-08-13T12:11:59Z</time>
      </trkpt>
      <trkpt lat="48.274118" lon="-4.265824">
        <ele>45.4</ele>
        <time>2020-08-13T12:12:01Z</time>
      </trkpt>
      <trkpt lat="48.273541" lon="-4.26405">
        <ele>63.0</ele>
        <time>2020-08-13T12:12:09Z</time>
      </trkpt>
      <trkpt lat="48.27336" lon="-4.263535">
        <ele>63.0</ele>
        <time>2020-08-13T12:12:12Z</time>
      </trkpt>
      <trkpt lat="48.273045" lon="-4.262746">
        <ele>54.0</ele>
        <time>2020-08-13T12:12:16Z</time>
      </trkpt>
      <trkpt lat="48.271765" lon="-4.260138">
        <ele>74.2</ele>
        <time>2020-08-13T12:12:30Z</time>
      </trkpt>
      <trkpt lat="48.271633" lon="-4.259813">
        <ele>61.8</ele>
        <time>2020-08-13T12:12:31Z</time>
      </trkpt>
      <trkpt lat="48.271484" lon="-4.259356">
        <ele>61.8</ele>
        <time>2020-08-13T12:12:34Z</time>
      </trkpt>
      <trkpt lat="48.271405" lon="-4.259033">
        <ele>69.2</ele>
        <time>2020-08-13T12:12:35Z</time>
      </trkpt>
      <trkpt lat="48.270877" lon="-4.256303">
        <ele>93.0</ele>
        <time>2020-08-13T12:12:47Z</time>
      </trkpt>
      <trkpt lat="48.270747" lon="-4.255417">
        <ele>73.8</ele>
        <time>2020-08-13T12:12:51Z</time>
      </trkpt>
      <trkpt lat="48.270728" lon="-4.255039">
        <ele>73.8</ele>
        <time>2020-08-13T12:12:53Z</time>
      </trkpt>
      <trkpt lat="48.270775" lon="-4.254472">
        <ele>83.0</ele>
        <time>2020-08-13T12:12:56Z</time>
      </trkpt>
      <trkpt lat="48.271361" lon="-4.250076">
        <ele>111.0</ele>
        <time>2020-08-13T12:13:15Z</time>
      </trkpt>
      <trkpt lat="48.271616" lon="-4.247992">
        <ele>106.6</ele>
        <time>2020-08-13T12:13:24Z</time>
      </trkpt>
      <trkpt lat="48.271622" lon="-4.247212">
        <ele>105.4</ele>
        <time>2020-08-13T12:13:27Z</time>
      </trkpt>
      <trkpt lat="48.271587" lon="-4.246845">
        <ele>105.4</ele>
        <time>2020-08-13T12:13:29Z</time>
      </trkpt>
      <trkpt lat="48.271511" lon="-4.246381">
        <ele>104.0</ele>
        <time>2020-08-13T12:13:31Z</time>
      </trkpt>
      <trkpt lat="48.271449" lon="-4.246104">
        <ele>104.0</ele>
        <time>2020-08-13T12:13:32Z</time>
      </trkpt>
      <trkpt lat="48.271363" lon="-4.245824">
        <ele>103.0</ele>
        <time>2020-08-13T12:13:34Z</time>
      </trkpt>
      <trkpt lat="48.270796" lon="-4.244211">
        <ele>102.2</ele>
        <time>2020-08-13T12:13:41Z</time>
      </trkpt>
      <trkpt lat="48.270193" lon="-4.242569">
        <ele>103.0</ele>
        <time>2020-08-13T12:13:49Z</time>
      </trkpt>
      <trkpt lat="48.270042" lon="-4.242234">
        <ele>101.8</ele>
        <time>2020-08-13T12:13:51Z</time>
      </trkpt>
      <trkpt lat="48.269579" lon="-4.241298">
        <ele>103.6</ele>
        <time>2020-08-13T12:13:56Z</time>
      </trkpt>
      <trkpt lat="48.268746" lon="-4.239658">
        <ele>104.6</ele>
        <time>2020-08-13T12:14:05Z</time>
      </trkpt>
      <trkpt lat="48.268492" lon="-4.239027">
        <ele>105.6</ele>
        <time>2020-08-13T12:14:08Z</time>
      </trkpt>
      <trkpt lat="48.268418" lon="-4.238789">
        <ele>105.6</ele>
        <time>2020-08-13T12:14:09Z</time>
      </trkpt>
      <trkpt lat="48.268133" lon="-4.237521">
        <ele>106.8</ele>
        <time>2020-08-13T12:14:15Z</time>
      </trkpt>
      <trkpt lat="48.267591" lon="-4.234863">
        <ele>109.0</ele>
        <time>2020-08-13T12:14:27Z</time>
      </trkpt>
      <trkpt lat="48.267511" lon="-4.234581">
        <ele>109.0</ele>
        <time>2020-08-13T12:14:28Z</time>
      </trkpt>
      <trkpt lat="48.266954" lon="-4.23289">
        <ele>113.0</ele>
        <time>2020-08-13T12:14:36Z</time>
      </trkpt>
      <trkpt lat="48.266229" lon="-4.230574">
        <ele>117.4</ele>
        <time>2020-08-13T12:14:47Z</time>
      </trkpt>
      <trkpt lat="48.265865" lon="-4.229471">
        <ele>118.8</ele>
        <time>2020-08-13T12:14:53Z</time>
      </trkpt>
      <trkpt lat="48.265586" lon="-4.228493">
        <ele>118.2</ele>
        <time>2020-08-13T12:14:57Z</time>
      </trkpt>
      <trkpt lat="48.265468" lon="-4.228036">
        <ele>120.2</ele>
        <time>2020-08-13T12:14:59Z</time>
      </trkpt>
      <trkpt lat="48.265413" lon="-4.227734">
        <ele>120.2</ele>
        <time>2020-08-13T12:15:01Z</time>
      </trkpt>
      <trkpt lat="48.265328" lon="-4.227093">
        <ele>122.2</ele>
        <time>2020-08-13T12:15:03Z</time>
      </trkpt>
      <trkpt lat="48.265288" lon="-4.226566">
        <ele>124.0</ele>
        <time>2020-08-13T12:15:06Z</time>
      </trkpt>
      <trkpt lat="48.265333" lon="-4.225544">
        <ele>126.2</ele>
        <time>2020-08-13T12:15:10Z</time>
      </trkpt>
      <trkpt lat="48.265384" lon="-4.225164">
        <ele>126.2</ele>
        <time>2020-08-13T12:15:12Z</time>
      </trkpt>
      <trkpt lat="48.265663" lon="-4.223772">
        <ele>130.2</ele>
        <time>2020-08-13T12:15:18Z</time>
      </trkpt>
      <trkpt lat="48.266152" lon="-4.221513">
        <ele>139.6</ele>
        <time>2020-08-13T12:15:28Z</time>
      </trkpt>
      <trkpt lat="48.266266" lon="-4.220906">
        <ele>139.6</ele>
        <time>2020-08-13T12:15:31Z</time>
      </trkpt>
      <trkpt lat="48.266297" lon="-4.220661">
        <ele>141.0</ele>
        <time>2020-08-13T12:15:32Z</time>
      </trkpt>
      <trkpt lat="48.266328" lon="-4.220211">
        <ele>141.0</ele>
        <time>2020-08-13T12:15:34Z</time>
      </trkpt>
      <trkpt lat="48.266331" lon="-4.219787">
        <ele>142.4</ele>
        <time>2020-08-13T12:15:36Z</time>
      </trkpt>
      <trkpt lat="48.266255" lon="-4.21908">
        <ele>143.8</ele>
        <time>2020-08-13T12:15:39Z</time>
      </trkpt>
      <trkpt lat="48.265682" lon="-4.215235">
        <ele>148.6</ele>
        <time>2020-08-13T12:15:56Z</time>
      </trkpt>
      <trkpt lat="48.265661" lon="-4.214842">
        <ele>148.8</ele>
        <time>2020-08-13T12:15:57Z</time>
      </trkpt>
      <trkpt lat="48.26566" lon="-4.214328">
        <ele>148.8</ele>
        <time>2020-08-13T12:16:00Z</time>
      </trkpt>
      <trkpt lat="48.26572" lon="-4.212174">
        <ele>146.8</ele>
        <time>2020-08-13T12:16:09Z</time>
      </trkpt>
      <trkpt lat="48.265718" lon="-4.211848">
        <ele>146.8</ele>
        <time>2020-08-13T12:16:10Z</time>
      </trkpt>
      <trkpt lat="48.265681" lon="-4.21128">
        <ele>144.0</ele>
        <time>2020-08-13T12:16:13Z</time>
      </trkpt>
      <trkpt lat="48.265605" lon="-4.210812">
        <ele>142.2</ele>
        <time>2020-08-13T12:16:15Z</time>
      </trkpt>
      <trkpt lat="48.26544" lon="-4.210216">
        <ele>142.2</ele>
        <time>2020-08-13T12:16:18Z</time>
      </trkpt>
      <trkpt lat="48.264051" lon="-4.206257">
        <ele>135.4</ele>
        <time>2020-08-13T12:16:37Z</time>
      </trkpt>
      <trkpt lat="48.263921" lon="-4.205684">
        <ele>134.4</ele>
        <time>2020-08-13T12:16:39Z</time>
      </trkpt>
      <trkpt lat="48.263848" lon="-4.205151">
        <ele>134.4</ele>
        <time>2020-08-13T12:16:42Z</time>
      </trkpt>
      <trkpt lat="48.263794" lon="-4.201414">
        <ele>135.2</ele>
        <time>2020-08-13T12:16:58Z</time>
      </trkpt>
      <trkpt lat="48.263527" lon="-4.199383">
        <ele>136.8</ele>
        <time>2020-08-13T12:17:07Z</time>
      </trkpt>
      <trkpt lat="48.263469" lon="-4.198845">
        <ele>138.2</ele>
        <time>2020-08-13T12:17:09Z</time>
      </trkpt>
      <trkpt lat="48.263444" lon="-4.198351">
        <ele>138.2</ele>
        <time>2020-08-13T12:17:11Z</time>
      </trkpt>
      <trkpt lat="48.26347" lon="-4.197959">
        <ele>140.4</ele>
        <time>2020-08-13T12:17:13Z</time>
      </trkpt>
      <trkpt lat="48.263801" lon="-4.196216">
        <ele>144.8</ele>
        <time>2020-08-13T12:17:22Z</time>
      </trkpt>
      <trkpt lat="48.264637" lon="-4.196368">
        <ele>144.0</ele>
        <time>2020-08-13T12:17:30Z</time>
      </trkpt>
      <trkpt lat="48.264711" lon="-4.194624">
        <ele>145.6</ele>
        <time>2020-08-13T12:17:48Z</time>
      </trkpt>
      <trkpt lat="48.26476" lon="-4.194251">
        <ele>145.6</ele>
        <time>2020-08-13T12:17:52Z</time>
      </trkpt>
      <trkpt lat="48.266198" lon="-4.193433">
        <ele>133.6</ele>
        <time>2020-08-13T12:18:00Z</time>
      </trkpt>
      <trkpt lat="48.266304" lon="-4.19334">
        <ele>133.6</ele>
        <time>2020-08-13T12:18:01Z</time>
      </trkpt>
      <trkpt lat="48.266671" lon="-4.192879">
        <ele>122.2</ele>
        <time>2020-08-13T12:18:03Z</time>
      </trkpt>
      <trkpt lat="48.267039" lon="-4.19235">
        <ele>120.8</ele>
        <time>2020-08-13T12:18:06Z</time>
      </trkpt>
      <trkpt lat="48.267253" lon="-4.19213">
        <ele>120.8</ele>
        <time>2020-08-13T12:18:07Z</time>
      </trkpt>
      <trkpt lat="48.267493" lon="-4.191961">
        <ele>120.8</ele>
        <time>2020-08-13T12:18:08Z</time>
      </trkpt>
      <trkpt lat="48.267802" lon="-4.191834">
        <ele>112.6</ele>
        <time>2020-08-13T12:18:10Z</time>
      </trkpt>
      <trkpt lat="48.269479" lon="-4.191459">
        <ele>100.4</ele>
        <time>2020-08-13T12:18:18Z</time>
      </trkpt>
      <trkpt lat="48.269654" lon="-4.191376">
        <ele>100.4</ele>
        <time>2020-08-13T12:18:19Z</time>
      </trkpt>
      <trkpt lat="48.269923" lon="-4.191165">
        <ele>100.4</ele>
        <time>2020-08-13T12:18:21Z</time>
      </trkpt>
      <trkpt lat="48.270806" lon="-4.19015">
        <ele>99.6</ele>
        <time>2020-08-13T12:18:26Z</time>
      </trkpt>
      <trkpt lat="48.271015" lon="-4.189862">
        <ele>102.6</ele>
        <time>2020-08-13T12:18:28Z</time>
      </trkpt>
      <trkpt lat="48.272019" lon="-4.188194">
        <ele>104.2</ele>
        <time>2020-08-13T12:18:35Z</time>
      </trkpt>
      <trkpt lat="48.272317" lon="-4.187813">
        <ele>104.2</ele>
        <time>2020-08-13T12:18:37Z</time>
      </trkpt>
      <trkpt lat="48.272472" lon="-4.187653">
        <ele>104.2</ele>
        <time>2020-08-13T12:18:38Z</time>
      </trkpt>
      <trkpt lat="48.272536" lon="-4.187614">
        <ele>99.0</ele>
        <time>2020-08-13T12:18:38Z</time>
      </trkpt>
      <trkpt lat="48.27265" lon="-4.187562">
        <ele>99.0</ele>
        <time>2020-08-13T12:18:39Z</time>
      </trkpt>
      <trkpt lat="48.272866" lon="-4.187522">
        <ele>99.0</ele>
        <time>2020-08-13T12:18:40Z</time>
      </trkpt>
      <trkpt lat="48.273165" lon="-4.187591">
        <ele>99.0</ele>
        <time>2020-08-13T12:18:42Z</time>
      </trkpt>
      <trkpt lat="48.273473" lon="-4.187761">
        <ele>93.0</ele>
        <time>2020-08-13T12:18:43Z</time>
      </trkpt>
      <trkpt lat="48.27404" lon="-4.188198">
        <ele>93.0</ele>
        <time>2020-08-13T12:18:47Z</time>
      </trkpt>
      <trkpt lat="48.274287" lon="-4.188341">
        <ele>88.2</ele>
        <time>2020-08-13T12:18:48Z</time>
      </trkpt>
      <trkpt lat="48.274769" lon="-4.188402">
        <ele>88.2</ele>
        <time>2020-08-13T12:18:50Z</time>
      </trkpt>
      <trkpt lat="48.274916" lon="-4.188345">
        <ele>88.2</ele>
        <time>2020-08-13T12:18:51Z</time>
      </trkpt>
      <trkpt lat="48.275039" lon="-4.188266">
        <ele>84.6</ele>
        <time>2020-08-13T12:18:52Z</time>
      </trkpt>
      <trkpt lat="48.275245" lon="-4.188055">
        <ele>84.6</ele>
        <time>2020-08-13T12:18:53Z</time>
      </trkpt>
      <trkpt lat="48.275412" lon="-4.187825">
        <ele>84.6</ele>
        <time>2020-08-13T12:18:54Z</time>
      </trkpt>
      <trkpt lat="48.276698" lon="-4.185858">
        <ele>83.2</ele>
        <time>2020-08-13T12:19:03Z</time>
      </trkpt>
      <trkpt lat="48.277571" lon="-4.184625">
        <ele>80.2</ele>
        <time>2020-08-13T12:19:09Z</time>
      </trkpt>
      <trkpt lat="48.27837" lon="-4.183181">
        <ele>77.4</ele>
        <time>2020-08-13T12:19:16Z</time>
      </trkpt>
      <trkpt lat="48.278584" lon="-4.182583">
        <ele>77.4</ele>
        <time>2020-08-13T12:19:18Z</time>
      </trkpt>
      <trkpt lat="48.278663" lon="-4.182443">
        <ele>69.6</ele>
        <time>2020-08-13T12:19:18Z</time>
      </trkpt>
      <trkpt lat="48.278962" lon="-4.182094">
        <ele>69.6</ele>
        <time>2020-08-13T12:19:20Z</time>
      </trkpt>
      <trkpt lat="48.279588" lon="-4.181697">
        <ele>75.8</ele>
        <time>2020-08-13T12:19:24Z</time>
      </trkpt>
      <trkpt lat="48.279834" lon="-4.181576">
        <ele>63.8</ele>
        <time>2020-08-13T12:19:25Z</time>
      </trkpt>
      <trkpt lat="48.280709" lon="-4.181433">
        <ele>67.6</ele>
        <time>2020-08-13T12:19:30Z</time>
      </trkpt>
      <trkpt lat="48.280837" lon="-4.181431">
        <ele>65.8</ele>
        <time>2020-08-13T12:19:30Z</time>
      </trkpt>
      <trkpt lat="48.28104" lon="-4.181506">
        <ele>65.8</ele>
        <time>2020-08-13T12:19:31Z</time>
      </trkpt>
      <trkpt lat="48.281848" lon="-4.182076">
        <ele>72.0</ele>
        <time>2020-08-13T12:19:36Z</time>
      </trkpt>
      <trkpt lat="48.281969" lon="-4.182136">
        <ele>72.0</ele>
        <time>2020-08-13T12:19:36Z</time>
      </trkpt>
      <trkpt lat="48.282068" lon="-4.18216">
        <ele>72.0</ele>
        <time>2020-08-13T12:19:37Z</time>
      </trkpt>
      <trkpt lat="48.282162" lon="-4.182152">
        <ele>72.0</ele>
        <time>2020-08-13T12:19:37Z</time>
      </trkpt>
      <trkpt lat="48.28227" lon="-4.182105">
        <ele>72.0</ele>
        <time>2020-08-13T12:19:38Z</time>
      </trkpt>
      <trkpt lat="48.282387" lon="-4.181996">
        <ele>72.0</ele>
        <time>2020-08-13T12:19:39Z</time>
      </trkpt>
      <trkpt lat="48.282451" lon="-4.181906">
        <ele>72.0</ele>
        <time>2020-08-13T12:19:39Z</time>
      </trkpt>
      <trkpt lat="48.282733" lon="-4.181155">
        <ele>50.2</ele>
        <time>2020-08-13T12:19:42Z</time>
      </trkpt>
      <trkpt lat="48.282805" lon="-4.181031">
        <ele>50.2</ele>
        <time>2020-08-13T12:19:43Z</time>
      </trkpt>
      <trkpt lat="48.282956" lon="-4.180926">
        <ele>50.2</ele>
        <time>2020-08-13T12:19:43Z</time>
      </trkpt>
      <trkpt lat="48.283807" lon="-4.180826">
        <ele>41.8</ele>
        <time>2020-08-13T12:19:48Z</time>
      </trkpt>
      <trkpt lat="48.283956" lon="-4.18086">
        <ele>46.6</ele>
        <time>2020-08-13T12:19:49Z</time>
      </trkpt>
      <trkpt lat="48.284052" lon="-4.180911">
        <ele>46.6</ele>
        <time>2020-08-13T12:19:49Z</time>
      </trkpt>
      <trkpt lat="48.284189" lon="-4.181035">
        <ele>41.0</ele>
        <time>2020-08-13T12:19:50Z</time>
      </trkpt>
      <trkpt lat="48.28469" lon="-4.181591">
        <ele>41.0</ele>
        <time>2020-08-13T12:19:53Z</time>
      </trkpt>
      <trkpt lat="48.285004" lon="-4.181976">
        <ele>35.8</ele>
        <time>2020-08-13T12:19:55Z</time>
      </trkpt>
      <trkpt lat="48.28544" lon="-4.182624">
        <ele>37.8</ele>
        <time>2020-08-13T12:19:58Z</time>
      </trkpt>
      <trkpt lat="48.285554" lon="-4.182738">
        <ele>37.8</ele>
        <time>2020-08-13T12:19:59Z</time>
      </trkpt>
      <trkpt lat="48.285685" lon="-4.182823">
        <ele>37.8</ele>
        <time>2020-08-13T12:19:59Z</time>
      </trkpt>
      <trkpt lat="48.285804" lon="-4.182876">
        <ele>37.8</ele>
        <time>2020-08-13T12:20:00Z</time>
      </trkpt>
      <trkpt lat="48.285933" lon="-4.182892">
        <ele>31.4</ele>
        <time>2020-08-13T12:20:01Z</time>
      </trkpt>
      <trkpt lat="48.287217" lon="-4.182995">
        <ele>27.8</ele>
        <time>2020-08-13T12:20:07Z</time>
      </trkpt>
      <trkpt lat="48.2874" lon="-4.183029">
        <ele>27.8</ele>
        <time>2020-08-13T12:20:08Z</time>
      </trkpt>
      <trkpt lat="48.288064" lon="-4.182753">
        <ele>25.2</ele>
        <time>2020-08-13T12:20:12Z</time>
      </trkpt>
      <trkpt lat="48.289024" lon="-4.18216">
        <ele>24.4</ele>
        <time>2020-08-13T12:20:17Z</time>
      </trkpt>
      <trkpt lat="48.289781" lon="-4.181823">
        <ele>23.2</ele>
        <time>2020-08-13T12:20:21Z</time>
      </trkpt>
      <trkpt lat="48.290075" lon="-4.181668">
        <ele>22.4</ele>
        <time>2020-08-13T12:20:22Z</time>
      </trkpt>
      <trkpt lat="48.290977" lon="-4.181084">
        <ele>22.4</ele>
        <time>2020-08-13T12:20:27Z</time>
      </trkpt>
      <trkpt lat="48.291078" lon="-4.181053">
        <ele>22.4</ele>
        <time>2020-08-13T12:20:28Z</time>
      </trkpt>
      <trkpt lat="48.291099" lon="-4.18103">
        <ele>22.4</ele>
        <time>2020-08-13T12:20:28Z</time>
      </trkpt>
      <trkpt lat="48.29194" lon="-4.180921">
        <ele>19.2</ele>
        <time>2020-08-13T12:20:32Z</time>
      </trkpt>
      <trkpt lat="48.292119" lon="-4.180868">
        <ele>19.2</ele>
        <time>2020-08-13T12:20:33Z</time>
      </trkpt>
      <trkpt lat="48.29229" lon="-4.180765">
        <ele>19.6</ele>
        <time>2020-08-13T12:20:34Z</time>
      </trkpt>
      <trkpt lat="48.292477" lon="-4.180576">
        <ele>19.6</ele>
        <time>2020-08-13T12:20:35Z</time>
      </trkpt>
      <trkpt lat="48.292734" lon="-4.180193">
        <ele>16.4</ele>
        <time>2020-08-13T12:20:37Z</time>
      </trkpt>
      <trkpt lat="48.292838" lon="-4.179993">
        <ele>16.4</ele>
        <time>2020-08-13T12:20:38Z</time>
      </trkpt>
      <trkpt lat="48.293046" lon="-4.180103">
        <ele>16.4</ele>
        <time>2020-08-13T12:20:43Z</time>
      </trkpt>
      <trkpt lat="48.293374" lon="-4.178953">
        <ele>13.8</ele>
        <time>2020-08-13T12:20:54Z</time>
      </trkpt>
      <trkpt lat="48.293689" lon="-4.178105">
        <ele>12.8</ele>
        <time>2020-08-13T12:21:03Z</time>
      </trkpt>
      <trkpt lat="48.293748" lon="-4.177993">
        <ele>12.8</ele>
        <time>2020-08-13T12:21:04Z</time>
      </trkpt>
      <trkpt lat="48.293783" lon="-4.17776">
        <ele>12.8</ele>
        <time>2020-08-13T12:21:06Z</time>
      </trkpt>
      <trkpt lat="48.293685" lon="-4.177555">
        <ele>12.8</ele>
        <time>2020-08-13T12:21:08Z</time>
      </trkpt>
      <trkpt lat="48.293702" lon="-4.177377">
        <ele>11.8</ele>
        <time>2020-08-13T12:21:10Z</time>
      </trkpt>
      <trkpt lat="48.29375" lon="-4.17729">
        <ele>11.8</ele>
        <time>2020-08-13T12:21:11Z</time>
      </trkpt>
      <trkpt lat="48.293844" lon="-4.17723">
        <ele>11.8</ele>
        <time>2020-08-13T12:21:12Z</time>
      </trkpt>
      <trkpt lat="48.293885" lon="-4.177225">
        <ele>11.8</ele>
        <time>2020-08-13T12:21:13Z</time>
      </trkpt>
      <trkpt lat="48.29397" lon="-4.176935">
        <ele>11.8</ele>
        <time>2020-08-13T12:21:14Z</time>
      </trkpt>
      <trkpt lat="48.294099" lon="-4.176366">
        <ele>12.2</ele>
        <time>2020-08-13T12:21:18Z</time>
      </trkpt>
      <trkpt lat="48.294441" lon="-4.175269">
        <ele>11.8</ele>
        <time>2020-08-13T12:21:25Z</time>
      </trkpt>
      <trkpt lat="48.294661" lon="-4.174667">
        <ele>14.8</ele>
        <time>2020-08-13T12:21:29Z</time>
      </trkpt>
      <trkpt lat="48.295106" lon="-4.173642">
        <ele>13.8</ele>
        <time>2020-08-13T12:21:36Z</time>
      </trkpt>
      <trkpt lat="48.295629" lon="-4.172657">
        <ele>16.6</ele>
        <time>2020-08-13T12:21:43Z</time>
      </trkpt>
      <trkpt lat="48.29679" lon="-4.170784">
        <ele>11.8</ele>
        <time>2020-08-13T12:21:57Z</time>
      </trkpt>
      <trkpt lat="48.297184" lon="-4.170187">
        <ele>11.8</ele>
        <time>2020-08-13T12:22:02Z</time>
      </trkpt>
      <trkpt lat="48.297614" lon="-4.169318">
        <ele>12.8</ele>
        <time>2020-08-13T12:22:06Z</time>
      </trkpt>
      <trkpt lat="48.297643" lon="-4.169215">
        <ele>12.8</ele>
        <time>2020-08-13T12:22:06Z</time>
      </trkpt>
      <trkpt lat="48.297636" lon="-4.168968">
        <ele>12.6</ele>
        <time>2020-08-13T12:22:07Z</time>
      </trkpt>
      <trkpt lat="48.297604" lon="-4.168868">
        <ele>12.6</ele>
        <time>2020-08-13T12:22:07Z</time>
      </trkpt>
      <trkpt lat="48.297533" lon="-4.168742">
        <ele>12.6</ele>
        <time>2020-08-13T12:22:08Z</time>
      </trkpt>
      <trkpt lat="48.297439" lon="-4.168663">
        <ele>14.0</ele>
        <time>2020-08-13T12:22:08Z</time>
      </trkpt>
      <trkpt lat="48.29685" lon="-4.168526">
        <ele>14.0</ele>
        <time>2020-08-13T12:22:11Z</time>
      </trkpt>
      <trkpt lat="48.296645" lon="-4.168492">
        <ele>18.0</ele>
        <time>2020-08-13T12:22:12Z</time>
      </trkpt>
      <trkpt lat="48.296534" lon="-4.168504">
        <ele>18.0</ele>
        <time>2020-08-13T12:22:13Z</time>
      </trkpt>
      <trkpt lat="48.296446" lon="-4.168543">
        <ele>18.0</ele>
        <time>2020-08-13T12:22:13Z</time>
      </trkpt>
      <trkpt lat="48.29637" lon="-4.168609">
        <ele>18.0</ele>
        <time>2020-08-13T12:22:14Z</time>
      </trkpt>
      <trkpt lat="48.296313" lon="-4.1687">
        <ele>18.0</ele>
        <time>2020-08-13T12:22:14Z</time>
      </trkpt>
      <trkpt lat="48.296251" lon="-4.168879">
        <ele>18.0</ele>
        <time>2020-08-13T12:22:15Z</time>
      </trkpt>
      <trkpt lat="48.296234" lon="-4.169109">
        <ele>18.0</ele>
        <time>2020-08-13T12:22:15Z</time>
      </trkpt>
      <trkpt lat="48.29628" lon="-4.169332">
        <ele>17.4</ele>
        <time>2020-08-13T12:22:16Z</time>
      </trkpt>
      <trkpt lat="48.296343" lon="-4.169473">
        <ele>17.4</ele>
        <time>2020-08-13T12:22:17Z</time>
      </trkpt>
      <trkpt lat="48.296737" lon="-4.170094">
        <ele>11.8</ele>
        <time>2020-08-13T12:22:20Z</time>
      </trkpt>
      <trkpt lat="48.296924" lon="-4.170442">
        <ele>11.8</ele>
        <time>2020-08-13T12:22:21Z</time>
      </trkpt>
      <trkpt lat="48.29749" lon="-4.171266">
        <ele>10.4</ele>
        <time>2020-08-13T12:22:25Z</time>
      </trkpt>
      <trkpt lat="48.298932" lon="-4.173727">
        <ele>12.8</ele>
        <time>2020-08-13T12:22:35Z</time>
      </trkpt>
      <trkpt lat="48.299438" lon="-4.17465">
        <ele>14.4</ele>
        <time>2020-08-13T12:22:39Z</time>
      </trkpt>
      <trkpt lat="48.300682" lon="-4.177214">
        <ele>22.4</ele>
        <time>2020-08-13T12:22:50Z</time>
      </trkpt>
      <trkpt lat="48.30132" lon="-4.178739">
        <ele>19.8</ele>
        <time>2020-08-13T12:22:55Z</time>
      </trkpt>
      <trkpt lat="48.301929" lon="-4.180253">
        <ele>21.6</ele>
        <time>2020-08-13T12:23:01Z</time>
      </trkpt>
      <trkpt lat="48.302986" lon="-4.183296">
        <ele>26.8</ele>
        <time>2020-08-13T12:23:12Z</time>
      </trkpt>
      <trkpt lat="48.30335" lon="-4.184452">
        <ele>28.8</ele>
        <time>2020-08-13T12:23:16Z</time>
      </trkpt>
      <trkpt lat="48.303734" lon="-4.185567">
        <ele>32.8</ele>
        <time>2020-08-13T12:23:20Z</time>
      </trkpt>
      <trkpt lat="48.304178" lon="-4.186696">
        <ele>43.6</ele>
        <time>2020-08-13T12:23:25Z</time>
      </trkpt>
      <trkpt lat="48.305381" lon="-4.189529">
        <ele>47.8</ele>
        <time>2020-08-13T12:23:35Z</time>
      </trkpt>
      <trkpt lat="48.305862" lon="-4.190519">
        <ele>52.6</ele>
        <time>2020-08-13T12:23:39Z</time>
      </trkpt>
      <trkpt lat="48.307046" lon="-4.192675">
        <ele>53.6</ele>
        <time>2020-08-13T12:23:48Z</time>
      </trkpt>
      <trkpt lat="48.307893" lon="-4.19401">
        <ele>56.8</ele>
        <time>2020-08-13T12:23:54Z</time>
      </trkpt>
      <trkpt lat="48.309111" lon="-4.195777">
        <ele>61.6</ele>
        <time>2020-08-13T12:24:03Z</time>
      </trkpt>
      <trkpt lat="48.309623" lon="-4.196624">
        <ele>60.6</ele>
        <time>2020-08-13T12:24:06Z</time>
      </trkpt>
      <trkpt lat="48.310092" lon="-4.197472">
        <ele>55.0</ele>
        <time>2020-08-13T12:24:10Z</time>
      </trkpt>
      <trkpt lat="48.310505" lon="-4.198395">
        <ele>64.0</ele>
        <time>2020-08-13T12:24:13Z</time>
      </trkpt>
      <trkpt lat="48.310872" lon="-4.199369">
        <ele>53.0</ele>
        <time>2020-08-13T12:24:17Z</time>
      </trkpt>
      <trkpt lat="48.311126" lon="-4.200114">
        <ele>52.4</ele>
        <time>2020-08-13T12:24:20Z</time>
      </trkpt>
      <trkpt lat="48.311773" lon="-4.202309">
        <ele>39.6</ele>
        <time>2020-08-13T12:24:28Z</time>
      </trkpt>
      <trkpt lat="48.312723" lon="-4.205409">
        <ele>29.8</ele>
        <time>2020-08-13T12:24:39Z</time>
      </trkpt>
      <trkpt lat="48.314546" lon="-4.211571">
        <ele>18.8</ele>
        <time>2020-08-13T12:25:00Z</time>
      </trkpt>
      <trkpt lat="48.315116" lon="-4.213318">
        <ele>25.4</ele>
        <time>2020-08-13T12:25:07Z</time>
      </trkpt>
      <trkpt lat="48.31541" lon="-4.21417">
        <ele>28.4</ele>
        <time>2020-08-13T12:25:10Z</time>
      </trkpt>
      <trkpt lat="48.31574" lon="-4.215011">
        <ele>29.0</ele>
        <time>2020-08-13T12:25:13Z</time>
      </trkpt>
      <trkpt lat="48.316179" lon="-4.216031">
        <ele>39.4</ele>
        <time>2020-08-13T12:25:17Z</time>
      </trkpt>
      <trkpt lat="48.316496" lon="-4.21664">
        <ele>39.4</ele>
        <time>2020-08-13T12:25:19Z</time>
      </trkpt>
      <trkpt lat="48.317008" lon="-4.217564">
        <ele>52.8</ele>
        <time>2020-08-13T12:25:23Z</time>
      </trkpt>
      <trkpt lat="48.317659" lon="-4.218567">
        <ele>50.4</ele>
        <time>2020-08-13T12:25:28Z</time>
      </trkpt>
      <trkpt lat="48.318025" lon="-4.219066">
        <ele>50.4</ele>
        <time>2020-08-13T12:25:30Z</time>
      </trkpt>
      <trkpt lat="48.318834" lon="-4.220029">
        <ele>40.0</ele>
        <time>2020-08-13T12:25:35Z</time>
      </trkpt>
      <trkpt lat="48.319258" lon="-4.220506">
        <ele>45.8</ele>
        <time>2020-08-13T12:25:38Z</time>
      </trkpt>
      <trkpt lat="48.319739" lon="-4.220962">
        <ele>46.2</ele>
        <time>2020-08-13T12:25:41Z</time>
      </trkpt>
      <trkpt lat="48.320689" lon="-4.22165">
        <ele>48.0</ele>
        <time>2020-08-13T12:25:46Z</time>
      </trkpt>
      <trkpt lat="48.323842" lon="-4.223754">
        <ele>26.2</ele>
        <time>2020-08-13T12:26:02Z</time>
      </trkpt>
      <trkpt lat="48.326643" lon="-4.22551">
        <ele>37.2</ele>
        <time>2020-08-13T12:26:17Z</time>
      </trkpt>
      <trkpt lat="48.328603" lon="-4.226827">
        <ele>53.4</ele>
        <time>2020-08-13T12:26:28Z</time>
      </trkpt>
      <trkpt lat="48.330103" lon="-4.227706">
        <ele>55.4</ele>
        <time>2020-08-13T12:26:35Z</time>
      </trkpt>
      <trkpt lat="48.330969" lon="-4.228132">
        <ele>51.8</ele>
        <time>2020-08-13T12:26:40Z</time>
      </trkpt>
      <trkpt lat="48.331748" lon="-4.228459">
        <ele>42.0</ele>
        <time>2020-08-13T12:26:44Z</time>
      </trkpt>
      <trkpt lat="48.332624" lon="-4.228731">
        <ele>40.4</ele>
        <time>2020-08-13T12:26:48Z</time>
      </trkpt>
      <trkpt lat="48.333706" lon="-4.228995">
        <ele>35.6</ele>
        <time>2020-08-13T12:26:53Z</time>
      </trkpt>
      <trkpt lat="48.334691" lon="-4.229168">
        <ele>31.8</ele>
        <time>2020-08-13T12:26:58Z</time>
      </trkpt>
      <trkpt lat="48.338643" lon="-4.229764">
        <ele>33.0</ele>
        <time>2020-08-13T12:27:18Z</time>
      </trkpt>
      <trkpt lat="48.341441" lon="-4.230214">
        <ele>26.2</ele>
        <time>2020-08-13T12:27:31Z</time>
      </trkpt>
      <trkpt lat="48.342216" lon="-4.230392">
        <ele>31.4</ele>
        <time>2020-08-13T12:27:35Z</time>
      </trkpt>
      <trkpt lat="48.343114" lon="-4.230642">
        <ele>36.2</ele>
        <time>2020-08-13T12:27:39Z</time>
      </trkpt>
      <trkpt lat="48.34412" lon="-4.23102">
        <ele>50.0</ele>
        <time>2020-08-13T12:27:45Z</time>
      </trkpt>
      <trkpt lat="48.345049" lon="-4.231443">
        <ele>51.6</ele>
        <time>2020-08-13T12:27:49Z</time>
      </trkpt>
      <trkpt lat="48.346012" lon="-4.231991">
        <ele>56.8</ele>
        <time>2020-08-13T12:27:54Z</time>
      </trkpt>
      <trkpt lat="48.34696" lon="-4.232591">
        <ele>58.4</ele>
        <time>2020-08-13T12:27:59Z</time>
      </trkpt>
      <trkpt lat="48.347593" lon="-4.233069">
        <ele>57.8</ele>
        <time>2020-08-13T12:28:03Z</time>
      </trkpt>
      <trkpt lat="48.348207" lon="-4.233566">
        <ele>60.2</ele>
        <time>2020-08-13T12:28:06Z</time>
      </trkpt>
      <trkpt lat="48.348907" lon="-4.234197">
        <ele>65.6</ele>
        <time>2020-08-13T12:28:10Z</time>
      </trkpt>
      <trkpt lat="48.34957" lon="-4.234874">
        <ele>69.4</ele>
        <time>2020-08-13T12:28:14Z</time>
      </trkpt>
      <trkpt lat="48.350595" lon="-4.236038">
        <ele>78.0</ele>
        <time>2020-08-13T12:28:20Z</time>
      </trkpt>
      <trkpt lat="48.351186" lon="-4.236786">
        <ele>80.4</ele>
        <time>2020-08-13T12:28:24Z</time>
      </trkpt>
      <trkpt lat="48.351635" lon="-4.237397">
        <ele>80.4</ele>
        <time>2020-08-13T12:28:27Z</time>
      </trkpt>
      <trkpt lat="48.352282" lon="-4.238351">
        <ele>76.8</ele>
        <time>2020-08-13T12:28:31Z</time>
      </trkpt>
      <trkpt lat="48.353396" lon="-4.240147">
        <ele>66.2</ele>
        <time>2020-08-13T12:28:39Z</time>
      </trkpt>
      <trkpt lat="48.353988" lon="-4.24117">
        <ele>64.8</ele>
        <time>2020-08-13T12:28:44Z</time>
      </trkpt>
      <trkpt lat="48.357407" lon="-4.247459">
        <ele>31.0</ele>
        <time>2020-08-13T12:29:10Z</time>
      </trkpt>
      <trkpt lat="48.358813" lon="-4.250014">
        <ele>25.8</ele>
        <time>2020-08-13T12:29:20Z</time>
      </trkpt>
      <trkpt lat="48.359312" lon="-4.250827">
        <ele>29.4</ele>
        <time>2020-08-13T12:29:24Z</time>
      </trkpt>
      <trkpt lat="48.359696" lon="-4.251343">
        <ele>27.8</ele>
        <time>2020-08-13T12:29:27Z</time>
      </trkpt>
      <trkpt lat="48.360136" lon="-4.251863">
        <ele>31.6</ele>
        <time>2020-08-13T12:29:29Z</time>
      </trkpt>
      <trkpt lat="48.360461" lon="-4.252187">
        <ele>31.6</ele>
        <time>2020-08-13T12:29:31Z</time>
      </trkpt>
      <trkpt lat="48.360719" lon="-4.252425">
        <ele>31.6</ele>
        <time>2020-08-13T12:29:33Z</time>
      </trkpt>
      <trkpt lat="48.361355" lon="-4.252919">
        <ele>32.4</ele>
        <time>2020-08-13T12:29:36Z</time>
      </trkpt>
      <trkpt lat="48.361733" lon="-4.253156">
        <ele>36.0</ele>
        <time>2020-08-13T12:29:38Z</time>
      </trkpt>
      <trkpt lat="48.363884" lon="-4.254394">
        <ele>25.6</ele>
        <time>2020-08-13T12:29:49Z</time>
      </trkpt>
      <trkpt lat="48.364235" lon="-4.254614">
        <ele>18.2</ele>
        <time>2020-08-13T12:29:51Z</time>
      </trkpt>
      <trkpt lat="48.364558" lon="-4.254844">
        <ele>18.2</ele>
        <time>2020-08-13T12:29:53Z</time>
      </trkpt>
      <trkpt lat="48.365125" lon="-4.255293">
        <ele>9.8</ele>
        <time>2020-08-13T12:29:56Z</time>
      </trkpt>
      <trkpt lat="48.365364" lon="-4.255515">
        <ele>9.8</ele>
        <time>2020-08-13T12:29:57Z</time>
      </trkpt>
      <trkpt lat="48.366109" lon="-4.256312">
        <ele>9.2</ele>
        <time>2020-08-13T12:30:02Z</time>
      </trkpt>
      <trkpt lat="48.366827" lon="-4.257271">
        <ele>12.4</ele>
        <time>2020-08-13T12:30:06Z</time>
      </trkpt>
      <trkpt lat="48.367531" lon="-4.258414">
        <ele>19.2</ele>
        <time>2020-08-13T12:30:11Z</time>
      </trkpt>
      <trkpt lat="48.367724" lon="-4.258786">
        <ele>19.2</ele>
        <time>2020-08-13T12:30:13Z</time>
      </trkpt>
      <trkpt lat="48.368103" lon="-4.259608">
        <ele>24.0</ele>
        <time>2020-08-13T12:30:16Z</time>
      </trkpt>
      <trkpt lat="48.368492" lon="-4.26056">
        <ele>20.8</ele>
        <time>2020-08-13T12:30:20Z</time>
      </trkpt>
      <trkpt lat="48.369465" lon="-4.263099">
        <ele>27.2</ele>
        <time>2020-08-13T12:30:29Z</time>
      </trkpt>
      <trkpt lat="48.369869" lon="-4.264064">
        <ele>33.2</ele>
        <time>2020-08-13T12:30:33Z</time>
      </trkpt>
      <trkpt lat="48.370026" lon="-4.264382">
        <ele>39.6</ele>
        <time>2020-08-13T12:30:34Z</time>
      </trkpt>
      <trkpt lat="48.37025" lon="-4.264757">
        <ele>39.6</ele>
        <time>2020-08-13T12:30:36Z</time>
      </trkpt>
      <trkpt lat="48.370508" lon="-4.265126">
        <ele>46.6</ele>
        <time>2020-08-13T12:30:38Z</time>
      </trkpt>
      <trkpt lat="48.370757" lon="-4.265426">
        <ele>46.6</ele>
        <time>2020-08-13T12:30:39Z</time>
      </trkpt>
      <trkpt lat="48.37204" lon="-4.26651">
        <ele>51.8</ele>
        <time>2020-08-13T12:30:46Z</time>
      </trkpt>
      <trkpt lat="48.372257" lon="-4.266733">
        <ele>58.6</ele>
        <time>2020-08-13T12:30:48Z</time>
      </trkpt>
      <trkpt lat="48.372431" lon="-4.266955">
        <ele>58.6</ele>
        <time>2020-08-13T12:30:49Z</time>
      </trkpt>
      <trkpt lat="48.372675" lon="-4.267338">
        <ele>58.6</ele>
        <time>2020-08-13T12:30:50Z</time>
      </trkpt>
      <trkpt lat="48.372827" lon="-4.267627">
        <ele>64.0</ele>
        <time>2020-08-13T12:30:52Z</time>
      </trkpt>
      <trkpt lat="48.373521" lon="-4.269531">
        <ele>70.0</ele>
        <time>2020-08-13T12:30:59Z</time>
      </trkpt>
      <trkpt lat="48.373748" lon="-4.269993">
        <ele>70.0</ele>
        <time>2020-08-13T12:31:01Z</time>
      </trkpt>
      <trkpt lat="48.37388" lon="-4.270211">
        <ele>75.6</ele>
        <time>2020-08-13T12:31:02Z</time>
      </trkpt>
      <trkpt lat="48.374056" lon="-4.270452">
        <ele>75.6</ele>
        <time>2020-08-13T12:31:03Z</time>
      </trkpt>
      <trkpt lat="48.374668" lon="-4.271143">
        <ele>77.8</ele>
        <time>2020-08-13T12:31:06Z</time>
      </trkpt>
      <trkpt lat="48.375115" lon="-4.271705">
        <ele>78.6</ele>
        <time>2020-08-13T12:31:09Z</time>
      </trkpt>
      <trkpt lat="48.375318" lon="-4.272009">
        <ele>78.6</ele>
        <time>2020-08-13T12:31:11Z</time>
      </trkpt>
      <trkpt lat="48.375668" lon="-4.272746">
        <ele>81.2</ele>
        <time>2020-08-13T12:31:14Z</time>
      </trkpt>
      <trkpt lat="48.376046" lon="-4.273977">
        <ele>79.2</ele>
        <time>2020-08-13T12:31:18Z</time>
      </trkpt>
      <trkpt lat="48.377072" lon="-4.279024">
        <ele>68.8</ele>
        <time>2020-08-13T12:31:35Z</time>
      </trkpt>
      <trkpt lat="48.378553" lon="-4.286601">
        <ele>56.4</ele>
        <time>2020-08-13T12:32:00Z</time>
      </trkpt>
      <trkpt lat="48.379277" lon="-4.290119">
        <ele>46.4</ele>
        <time>2020-08-13T12:32:12Z</time>
      </trkpt>
      <trkpt lat="48.37972" lon="-4.292568">
        <ele>45.6</ele>
        <time>2020-08-13T12:32:20Z</time>
      </trkpt>
      <trkpt lat="48.380166" lon="-4.295259">
        <ele>52.0</ele>
        <time>2020-08-13T12:32:29Z</time>
      </trkpt>
      <trkpt lat="48.380507" lon="-4.297217">
        <ele>55.2</ele>
        <time>2020-08-13T12:32:36Z</time>
      </trkpt>
      <trkpt lat="48.380715" lon="-4.298322">
        <ele>57.2</ele>
        <time>2020-08-13T12:32:40Z</time>
      </trkpt>
      <trkpt lat="48.38097" lon="-4.299565">
        <ele>52.8</ele>
        <time>2020-08-13T12:32:44Z</time>
      </trkpt>
      <trkpt lat="48.381118" lon="-4.300208">
        <ele>53.6</ele>
        <time>2020-08-13T12:32:46Z</time>
      </trkpt>
      <trkpt lat="48.382129" lon="-4.30439">
        <ele>64.2</ele>
        <time>2020-08-13T12:33:00Z</time>
      </trkpt>
      <trkpt lat="48.382548" lon="-4.30622">
        <ele>68.4</ele>
        <time>2020-08-13T12:33:07Z</time>
      </trkpt>
      <trkpt lat="48.383803" lon="-4.312364">
        <ele>65.6</ele>
        <time>2020-08-13T12:33:27Z</time>
      </trkpt>
      <trkpt lat="48.383977" lon="-4.313631">
        <ele>61.8</ele>
        <time>2020-08-13T12:33:31Z</time>
      </trkpt>
      <trkpt lat="48.384075" lon="-4.314515">
        <ele>60.0</ele>
        <time>2020-08-13T12:33:34Z</time>
      </trkpt>
      <trkpt lat="48.384118" lon="-4.315275">
        <ele>57.2</ele>
        <time>2020-08-13T12:33:37Z</time>
      </trkpt>
      <trkpt lat="48.384131" lon="-4.315891">
        <ele>56.0</ele>
        <time>2020-08-13T12:33:39Z</time>
      </trkpt>
      <trkpt lat="48.384132" lon="-4.316536">
        <ele>56.0</ele>
        <time>2020-08-13T12:33:41Z</time>
      </trkpt>
      <trkpt lat="48.384114" lon="-4.317134">
        <ele>57.8</ele>
        <time>2020-08-13T12:33:43Z</time>
      </trkpt>
      <trkpt lat="48.384055" lon="-4.317909">
        <ele>60.4</ele>
        <time>2020-08-13T12:33:45Z</time>
      </trkpt>
      <trkpt lat="48.383593" lon="-4.322056">
        <ele>68.8</ele>
        <time>2020-08-13T12:33:59Z</time>
      </trkpt>
      <trkpt lat="48.383475" lon="-4.323257">
        <ele>67.6</ele>
        <time>2020-08-13T12:34:03Z</time>
      </trkpt>
      <trkpt lat="48.383303" lon="-4.325613">
        <ele>61.4</ele>
        <time>2020-08-13T12:34:10Z</time>
      </trkpt>
      <trkpt lat="48.383063" lon="-4.330266">
        <ele>78.4</ele>
        <time>2020-08-13T12:34:26Z</time>
      </trkpt>
      <trkpt lat="48.383032" lon="-4.331382">
        <ele>76.4</ele>
        <time>2020-08-13T12:34:29Z</time>
      </trkpt>
      <trkpt lat="48.382772" lon="-4.336436">
        <ele>72.2</ele>
        <time>2020-08-13T12:34:45Z</time>
      </trkpt>
      <trkpt lat="48.382699" lon="-4.338616">
        <ele>80.0</ele>
        <time>2020-08-13T12:34:53Z</time>
      </trkpt>
      <trkpt lat="48.382657" lon="-4.33946">
        <ele>83.6</ele>
        <time>2020-08-13T12:34:55Z</time>
      </trkpt>
      <trkpt lat="48.382642" lon="-4.340275">
        <ele>87.0</ele>
        <time>2020-08-13T12:34:58Z</time>
      </trkpt>
      <trkpt lat="48.382643" lon="-4.342723">
        <ele>96.4</ele>
        <time>2020-08-13T12:35:06Z</time>
      </trkpt>
      <trkpt lat="48.382673" lon="-4.34418">
        <ele>100.0</ele>
        <time>2020-08-13T12:35:11Z</time>
      </trkpt>
      <trkpt lat="48.382886" lon="-4.347765">
        <ele>106.2</ele>
        <time>2020-08-13T12:35:28Z</time>
      </trkpt>
      <trkpt lat="48.383056" lon="-4.348419">
        <ele>106.0</ele>
        <time>2020-08-13T12:35:31Z</time>
      </trkpt>
      <trkpt lat="48.383343" lon="-4.348802">
        <ele>104.2</ele>
        <time>2020-08-13T12:35:34Z</time>
      </trkpt>
      <trkpt lat="48.383572" lon="-4.348969">
        <ele>104.2</ele>
        <time>2020-08-13T12:35:36Z</time>
      </trkpt>
      <trkpt lat="48.383946" lon="-4.349112">
        <ele>104.2</ele>
        <time>2020-08-13T12:35:38Z</time>
      </trkpt>
      <trkpt lat="48.384069" lon="-4.349091">
        <ele>104.2</ele>
        <time>2020-08-13T12:35:39Z</time>
      </trkpt>
      <trkpt lat="48.384155" lon="-4.349023">
        <ele>104.2</ele>
        <time>2020-08-13T12:35:40Z</time>
      </trkpt>
      <trkpt lat="48.38422" lon="-4.348891">
        <ele>103.8</ele>
        <time>2020-08-13T12:35:41Z</time>
      </trkpt>
      <trkpt lat="48.384337" lon="-4.348834">
        <ele>103.8</ele>
        <time>2020-08-13T12:35:43Z</time>
      </trkpt>
      <trkpt lat="48.384435" lon="-4.348869">
        <ele>103.8</ele>
        <time>2020-08-13T12:35:44Z</time>
      </trkpt>
      <trkpt lat="48.384524" lon="-4.349">
        <ele>103.8</ele>
        <time>2020-08-13T12:35:46Z</time>
      </trkpt>
      <trkpt lat="48.384545" lon="-4.349211">
        <ele>103.4</ele>
        <time>2020-08-13T12:35:48Z</time>
      </trkpt>
      <trkpt lat="48.384483" lon="-4.34938">
        <ele>103.4</ele>
        <time>2020-08-13T12:35:49Z</time>
      </trkpt>
      <trkpt lat="48.384337" lon="-4.349465">
        <ele>103.4</ele>
        <time>2020-08-13T12:35:51Z</time>
      </trkpt>
      <trkpt lat="48.384218" lon="-4.349406">
        <ele>103.4</ele>
        <time>2020-08-13T12:35:53Z</time>
      </trkpt>
      <trkpt lat="48.384152" lon="-4.349294">
        <ele>103.8</ele>
        <time>2020-08-13T12:35:54Z</time>
      </trkpt>
      <trkpt lat="48.384136" lon="-4.349204">
        <ele>103.8</ele>
        <time>2020-08-13T12:35:55Z</time>
      </trkpt>
      <trkpt lat="48.383762" lon="-4.349222">
        <ele>103.8</ele>
        <time>2020-08-13T12:36:00Z</time>
      </trkpt>
      <trkpt lat="48.382157" lon="-4.348711">
        <ele>107.2</ele>
        <time>2020-08-13T12:36:21Z</time>
      </trkpt>
      <trkpt lat="48.382126" lon="-4.348811">
        <ele>107.2</ele>
        <time>2020-08-13T12:36:22Z</time>
      </trkpt>
      <trkpt lat="48.38206" lon="-4.348899">
        <ele>107.2</ele>
        <time>2020-08-13T12:36:23Z</time>
      </trkpt>
      <trkpt lat="48.381999" lon="-4.348943">
        <ele>107.2</ele>
        <time>2020-08-13T12:36:24Z</time>
      </trkpt>
      <trkpt lat="48.381865" lon="-4.348941">
        <ele>107.2</ele>
        <time>2020-08-13T12:36:25Z</time>
      </trkpt>
      <trkpt lat="48.381859" lon="-4.349178">
        <ele>107.0</ele>
        <time>2020-08-13T12:36:28Z</time>
      </trkpt>
      <trkpt lat="48.381948" lon="-4.350133">
        <ele>107.6</ele>
        <time>2020-08-13T12:36:36Z</time>
      </trkpt>
      <trkpt lat="48.382017" lon="-4.351085">
        <ele>107.8</ele>
        <time>2020-08-13T12:36:44Z</time>
      </trkpt>
      <trkpt lat="48.381847" lon="-4.355743">
        <ele>112.8</ele>
        <time>2020-08-13T12:37:25Z</time>
      </trkpt>
      <trkpt lat="48.381843" lon="-4.35693">
        <ele>114.6</ele>
        <time>2020-08-13T12:37:35Z</time>
      </trkpt>
      <trkpt lat="48.381779" lon="-4.357054">
        <ele>114.6</ele>
        <time>2020-08-13T12:37:37Z</time>
      </trkpt>
      <trkpt lat="48.38168" lon="-4.357188">
        <ele>114.6</ele>
        <time>2020-08-13T12:37:39Z</time>
      </trkpt>
      <trkpt lat="48.381616" lon="-4.357344">
        <ele>113.6</ele>
        <time>2020-08-13T12:37:40Z</time>
      </trkpt>
      <trkpt lat="48.381332" lon="-4.358213">
        <ele>115.2</ele>
        <time>2020-08-13T12:37:49Z</time>
      </trkpt>
      <trkpt lat="48.381214" lon="-4.358486">
        <ele>115.8</ele>
        <time>2020-08-13T12:37:51Z</time>
      </trkpt>
      <trkpt lat="48.380683" lon="-4.359386">
        <ele>115.0</ele>
        <time>2020-08-13T12:38:02Z</time>
      </trkpt>
      <trkpt lat="48.380541" lon="-4.35934">
        <ele>115.0</ele>
        <time>2020-08-13T12:38:05Z</time>
      </trkpt>
      <trkpt lat="48.379982" lon="-4.358957">
        <ele>109.6</ele>
        <time>2020-08-13T12:38:20Z</time>
      </trkpt>
      <trkpt lat="48.37944" lon="-4.358436">
        <ele>109.6</ele>
        <time>2020-08-13T12:38:34Z</time>
      </trkpt>
      <trkpt lat="48.379163" lon="-4.357796">
        <ele>106.3</ele>
        <time>2020-08-13T12:38:46Z</time>
      </trkpt>
      <trkpt lat="48.379163" lon="-4.357796">
        <ele>106.3</ele>
        <time>2020-08-13T12:38:46Z</time>
      </trkpt>
      <trkpt lat="48.37944" lon="-4.358436">
        <ele>109.6</ele>
        <time>2020-08-13T12:38:58Z</time>
      </trkpt>
      <trkpt lat="48.379982" lon="-4.358957">
        <ele>109.6</ele>
        <time>2020-08-13T12:39:13Z</time>
      </trkpt>
      <trkpt lat="48.380541" lon="-4.35934">
        <ele>115.0</ele>
        <time>2020-08-13T12:39:27Z</time>
      </trkpt>
      <trkpt lat="48.380683" lon="-4.359386">
        <ele>115.0</ele>
        <time>2020-08-13T12:39:30Z</time>
      </trkpt>
      <trkpt lat="48.381214" lon="-4.358486">
        <ele>115.8</ele>
        <time>2020-08-13T12:39:41Z</time>
      </trkpt>
      <trkpt lat="48.381332" lon="-4.358213">
        <ele>115.2</ele>
        <time>2020-08-13T12:39:43Z</time>
      </trkpt>
      <trkpt lat="48.381616" lon="-4.357344">
        <ele>113.6</ele>
        <time>2020-08-13T12:39:52Z</time>
      </trkpt>
      <trkpt lat="48.38168" lon="-4.357188">
        <ele>114.6</ele>
        <time>2020-08-13T12:39:53Z</time>
      </trkpt>
      <trkpt lat="48.381779" lon="-4.357054">
        <ele>114.6</ele>
        <time>2020-08-13T12:39:55Z</time>
      </trkpt>
      <trkpt lat="48.381843" lon="-4.35693">
        <ele>114.6</ele>
        <time>2020-08-13T12:39:57Z</time>
      </trkpt>
      <trkpt lat="48.381847" lon="-4.355743">
        <ele>112.8</ele>
        <time>2020-08-13T12:40:07Z</time>
      </trkpt>
      <trkpt lat="48.382017" lon="-4.351085">
        <ele>107.8</ele>
        <time>2020-08-13T12:40:48Z</time>
      </trkpt>
      <trkpt lat="48.381948" lon="-4.350133">
        <ele>107.6</ele>
        <time>2020-08-13T12:40:56Z</time>
      </trkpt>
      <trkpt lat="48.381859" lon="-4.349178">
        <ele>107.0</ele>
        <time>2020-08-13T12:41:05Z</time>
      </trkpt>
      <trkpt lat="48.381865" lon="-4.348941">
        <ele>107.2</ele>
        <time>2020-08-13T12:41:07Z</time>
      </trkpt>
      <trkpt lat="48.381799" lon="-4.348892">
        <ele>107.2</ele>
        <time>2020-08-13T12:41:08Z</time>
      </trkpt>
      <trkpt lat="48.381732" lon="-4.348778">
        <ele>107.2</ele>
        <time>2020-08-13T12:41:09Z</time>
      </trkpt>
      <trkpt lat="48.381703" lon="-4.34861">
        <ele>107.2</ele>
        <time>2020-08-13T12:41:10Z</time>
      </trkpt>
      <trkpt lat="48.381707" lon="-4.348541">
        <ele>107.2</ele>
        <time>2020-08-13T12:41:11Z</time>
      </trkpt>
      <trkpt lat="48.381759" lon="-4.348383">
        <ele>107.2</ele>
        <time>2020-08-13T12:41:13Z</time>
      </trkpt>
      <trkpt lat="48.381806" lon="-4.348321">
        <ele>106.6</ele>
        <time>2020-08-13T12:41:13Z</time>
      </trkpt>
      <trkpt lat="48.381894" lon="-4.348268">
        <ele>106.6</ele>
        <time>2020-08-13T12:41:15Z</time>
      </trkpt>
      <trkpt lat="48.381958" lon="-4.348264">
        <ele>106.6</ele>
        <time>2020-08-13T12:41:15Z</time>
      </trkpt>
      <trkpt lat="48.382078" lon="-4.348338">
        <ele>107.2</ele>
        <time>2020-08-13T12:41:17Z</time>
      </trkpt>
      <trkpt lat="48.382117" lon="-4.348394">
        <ele>107.2</ele>
        <time>2020-08-13T12:41:18Z</time>
      </trkpt>
      <trkpt lat="48.382162" lon="-4.348549">
        <ele>107.2</ele>
        <time>2020-08-13T12:41:19Z</time>
      </trkpt>
      <trkpt lat="48.382157" lon="-4.348711">
        <ele>107.2</ele>
        <time>2020-08-13T12:41:21Z</time>
      </trkpt>
      <trkpt lat="48.383762" lon="-4.349222">
        <ele>103.8</ele>
        <time>2020-08-13T12:41:42Z</time>
      </trkpt>
      <trkpt lat="48.384136" lon="-4.349204">
        <ele>103.8</ele>
        <time>2020-08-13T12:41:47Z</time>
      </trkpt>
      <trkpt lat="48.384155" lon="-4.349023">
        <ele>104.2</ele>
        <time>2020-08-13T12:41:48Z</time>
      </trkpt>
      <trkpt lat="48.38422" lon="-4.348891">
        <ele>103.8</ele>
        <time>2020-08-13T12:41:49Z</time>
      </trkpt>
      <trkpt lat="48.384337" lon="-4.348834">
        <ele>103.8</ele>
        <time>2020-08-13T12:41:50Z</time>
      </trkpt>
      <trkpt lat="48.384435" lon="-4.348869">
        <ele>103.8</ele>
        <time>2020-08-13T12:41:51Z</time>
      </trkpt>
      <trkpt lat="48.384524" lon="-4.349">
        <ele>103.8</ele>
        <time>2020-08-13T12:41:51Z</time>
      </trkpt>
      <trkpt lat="48.384545" lon="-4.349211">
        <ele>103.4</ele>
        <time>2020-08-13T12:41:52Z</time>
      </trkpt>
      <trkpt lat="48.384789" lon="-4.349301">
        <ele>103.4</ele>
        <time>2020-08-13T12:41:54Z</time>
      </trkpt>
      <trkpt lat="48.385001" lon="-4.349316">
        <ele>104.8</ele>
        <time>2020-08-13T12:41:56Z</time>
      </trkpt>
      <trkpt lat="48.386945" lon="-4.34929">
        <ele>107.4</ele>
        <time>2020-08-13T12:42:10Z</time>
      </trkpt>
      <trkpt lat="48.387133" lon="-4.349252">
        <ele>107.4</ele>
        <time>2020-08-13T12:42:11Z</time>
      </trkpt>
      <trkpt lat="48.387382" lon="-4.349238">
        <ele>107.4</ele>
        <time>2020-08-13T12:42:13Z</time>
      </trkpt>
      <trkpt lat="48.387505" lon="-4.34915">
        <ele>107.6</ele>
        <time>2020-08-13T12:42:14Z</time>
      </trkpt>
      <trkpt lat="48.38759" lon="-4.349043">
        <ele>107.6</ele>
        <time>2020-08-13T12:42:15Z</time>
      </trkpt>
      <trkpt lat="48.387673" lon="-4.348887">
        <ele>107.6</ele>
        <time>2020-08-13T12:42:16Z</time>
      </trkpt>
      <trkpt lat="48.387828" lon="-4.348437">
        <ele>107.6</ele>
        <time>2020-08-13T12:42:18Z</time>
      </trkpt>
      <trkpt lat="48.388639" lon="-4.346269">
        <ele>111.0</ele>
        <time>2020-08-13T12:42:30Z</time>
      </trkpt>
      <trkpt lat="48.389902" lon="-4.343715">
        <ele>116.4</ele>
        <time>2020-08-13T12:42:45Z</time>
      </trkpt>
      <trkpt lat="48.3908" lon="-4.341942">
        <ele>120.2</ele>
        <time>2020-08-13T12:42:56Z</time>
      </trkpt>
      <trkpt lat="48.391007" lon="-4.341445">
        <ele>126.4</ele>
        <time>2020-08-13T12:42:59Z</time>
      </trkpt>
      <trkpt lat="48.391218" lon="-4.340825">
        <ele>128.0</ele>
        <time>2020-08-13T12:43:02Z</time>
      </trkpt>
      <trkpt lat="48.391568" lon="-4.339598">
        <ele>129.4</ele>
        <time>2020-08-13T12:43:08Z</time>
      </trkpt>
      <trkpt lat="48.391802" lon="-4.338871">
        <ele>134.2</ele>
        <time>2020-08-13T12:43:12Z</time>
      </trkpt>
      <trkpt lat="48.392018" lon="-4.338336">
        <ele>134.2</ele>
        <time>2020-08-13T12:43:15Z</time>
      </trkpt>
      <trkpt lat="48.392274" lon="-4.337842">
        <ele>135.0</ele>
        <time>2020-08-13T12:43:18Z</time>
      </trkpt>
      <trkpt lat="48.393162" lon="-4.336349">
        <ele>140.2</ele>
        <time>2020-08-13T12:43:28Z</time>
      </trkpt>
      <trkpt lat="48.393359" lon="-4.335962">
        <ele>145.0</ele>
        <time>2020-08-13T12:43:30Z</time>
      </trkpt>
      <trkpt lat="48.393529" lon="-4.335556">
        <ele>144.6</ele>
        <time>2020-08-13T12:43:32Z</time>
      </trkpt>
      <trkpt lat="48.394601" lon="-4.332212">
        <ele>151.4</ele>
        <time>2020-08-13T12:43:50Z</time>
      </trkpt>
      <trkpt lat="48.394808" lon="-4.331651">
        <ele>151.6</ele>
        <time>2020-08-13T12:43:53Z</time>
      </trkpt>
      <trkpt lat="48.395128" lon="-4.33092">
        <ele>153.0</ele>
        <time>2020-08-13T12:43:57Z</time>
      </trkpt>
      <trkpt lat="48.396657" lon="-4.328176">
        <ele>150.2</ele>
        <time>2020-08-13T12:44:14Z</time>
      </trkpt>
      <trkpt lat="48.397134" lon="-4.327386">
        <ele>152.6</ele>
        <time>2020-08-13T12:44:19Z</time>
      </trkpt>
      <trkpt lat="48.397484" lon="-4.326983">
        <ele>152.6</ele>
        <time>2020-08-13T12:44:23Z</time>
      </trkpt>
      <trkpt lat="48.397623" lon="-4.326861">
        <ele>151.8</ele>
        <time>2020-08-13T12:44:24Z</time>
      </trkpt>
      <trkpt lat="48.398895" lon="-4.325885">
        <ele>149.4</ele>
        <time>2020-08-13T12:44:34Z</time>
      </trkpt>
      <trkpt lat="48.399072" lon="-4.325729">
        <ele>150.8</ele>
        <time>2020-08-13T12:44:36Z</time>
      </trkpt>
      <trkpt lat="48.399473" lon="-4.325288">
        <ele>146.4</ele>
        <time>2020-08-13T12:44:39Z</time>
      </trkpt>
      <trkpt lat="48.399823" lon="-4.324808">
        <ele>148.0</ele>
        <time>2020-08-13T12:44:43Z</time>
      </trkpt>
      <trkpt lat="48.400056" lon="-4.32442">
        <ele>143.4</ele>
        <time>2020-08-13T12:44:45Z</time>
      </trkpt>
      <trkpt lat="48.400287" lon="-4.323963">
        <ele>146.2</ele>
        <time>2020-08-13T12:44:48Z</time>
      </trkpt>
      <trkpt lat="48.400561" lon="-4.323291">
        <ele>149.4</ele>
        <time>2020-08-13T12:44:52Z</time>
      </trkpt>
      <trkpt lat="48.401426" lon="-4.320931">
        <ele>150.6</ele>
        <time>2020-08-13T12:45:04Z</time>
      </trkpt>
      <trkpt lat="48.402691" lon="-4.317951">
        <ele>153.6</ele>
        <time>2020-08-13T12:45:21Z</time>
      </trkpt>
      <trkpt lat="48.40282" lon="-4.3177">
        <ele>153.6</ele>
        <time>2020-08-13T12:45:23Z</time>
      </trkpt>
      <trkpt lat="48.403974" lon="-4.314625">
        <ele>158.6</ele>
        <time>2020-08-13T12:45:40Z</time>
      </trkpt>
      <trkpt lat="48.404547" lon="-4.312821">
        <ele>154.8</ele>
        <time>2020-08-13T12:45:49Z</time>
      </trkpt>
      <trkpt lat="48.404686" lon="-4.312422">
        <ele>153.8</ele>
        <time>2020-08-13T12:45:51Z</time>
      </trkpt>
      <trkpt lat="48.404832" lon="-4.312083">
        <ele>153.8</ele>
        <time>2020-08-13T12:45:53Z</time>
      </trkpt>
      <trkpt lat="48.404983" lon="-4.311812">
        <ele>153.8</ele>
        <time>2020-08-13T12:45:55Z</time>
      </trkpt>
      <trkpt lat="48.405259" lon="-4.311394">
        <ele>148.0</ele>
        <time>2020-08-13T12:45:58Z</time>
      </trkpt>
      <trkpt lat="48.405409" lon="-4.311206">
        <ele>148.0</ele>
        <time>2020-08-13T12:45:59Z</time>
      </trkpt>
      <trkpt lat="48.406615" lon="-4.310001">
        <ele>144.0</ele>
        <time>2020-08-13T12:46:10Z</time>
      </trkpt>
      <trkpt lat="48.406786" lon="-4.309807">
        <ele>141.8</ele>
        <time>2020-08-13T12:46:11Z</time>
      </trkpt>
      <trkpt lat="48.407022" lon="-4.309445">
        <ele>141.8</ele>
        <time>2020-08-13T12:46:14Z</time>
      </trkpt>
      <trkpt lat="48.407186" lon="-4.309139">
        <ele>144.4</ele>
        <time>2020-08-13T12:46:15Z</time>
      </trkpt>
      <trkpt lat="48.408435" lon="-4.306087">
        <ele>140.0</ele>
        <time>2020-08-13T12:46:33Z</time>
      </trkpt>
      <trkpt lat="48.40869" lon="-4.305526">
        <ele>143.0</ele>
        <time>2020-08-13T12:46:36Z</time>
      </trkpt>
      <trkpt lat="48.408895" lon="-4.305155">
        <ele>143.0</ele>
        <time>2020-08-13T12:46:38Z</time>
      </trkpt>
      <trkpt lat="48.409188" lon="-4.304752">
        <ele>143.4</ele>
        <time>2020-08-13T12:46:41Z</time>
      </trkpt>
      <trkpt lat="48.409424" lon="-4.304504">
        <ele>143.4</ele>
        <time>2020-08-13T12:46:43Z</time>
      </trkpt>
      <trkpt lat="48.409586" lon="-4.304362">
        <ele>143.4</ele>
        <time>2020-08-13T12:46:44Z</time>
      </trkpt>
      <trkpt lat="48.40981" lon="-4.304199">
        <ele>143.4</ele>
        <time>2020-08-13T12:46:46Z</time>
      </trkpt>
      <trkpt lat="48.410025" lon="-4.304074">
        <ele>144.0</ele>
        <time>2020-08-13T12:46:48Z</time>
      </trkpt>
      <trkpt lat="48.410694" lon="-4.30379">
        <ele>144.0</ele>
        <time>2020-08-13T12:46:53Z</time>
      </trkpt>
      <trkpt lat="48.411018" lon="-4.30358">
        <ele>135.4</ele>
        <time>2020-08-13T12:46:55Z</time>
      </trkpt>
      <trkpt lat="48.411193" lon="-4.303442">
        <ele>135.4</ele>
        <time>2020-08-13T12:46:57Z</time>
      </trkpt>
      <trkpt lat="48.411452" lon="-4.303132">
        <ele>143.0</ele>
        <time>2020-08-13T12:46:59Z</time>
      </trkpt>
      <trkpt lat="48.411591" lon="-4.302918">
        <ele>143.0</ele>
        <time>2020-08-13T12:47:01Z</time>
      </trkpt>
      <trkpt lat="48.411967" lon="-4.302217">
        <ele>136.0</ele>
        <time>2020-08-13T12:47:05Z</time>
      </trkpt>
      <trkpt lat="48.412277" lon="-4.301562">
        <ele>141.2</ele>
        <time>2020-08-13T12:47:09Z</time>
      </trkpt>
      <trkpt lat="48.412523" lon="-4.300989">
        <ele>121.0</ele>
        <time>2020-08-13T12:47:12Z</time>
      </trkpt>
      <trkpt lat="48.412852" lon="-4.300347">
        <ele>124.0</ele>
        <time>2020-08-13T12:47:16Z</time>
      </trkpt>
      <trkpt lat="48.413083" lon="-4.299953">
        <ele>126.0</ele>
        <time>2020-08-13T12:47:19Z</time>
      </trkpt>
      <trkpt lat="48.413471" lon="-4.299524">
        <ele>112.8</ele>
        <time>2020-08-13T12:47:22Z</time>
      </trkpt>
      <trkpt lat="48.414128" lon="-4.298959">
        <ele>116.6</ele>
        <time>2020-08-13T12:47:28Z</time>
      </trkpt>
      <trkpt lat="48.414668" lon="-4.298394">
        <ele>109.0</ele>
        <time>2020-08-13T12:47:32Z</time>
      </trkpt>
      <trkpt lat="48.415966" lon="-4.296867">
        <ele>95.0</ele>
        <time>2020-08-13T12:47:44Z</time>
      </trkpt>
      <trkpt lat="48.416384" lon="-4.296528">
        <ele>98.2</ele>
        <time>2020-08-13T12:47:48Z</time>
      </trkpt>
      <trkpt lat="48.416686" lon="-4.296359">
        <ele>92.0</ele>
        <time>2020-08-13T12:47:50Z</time>
      </trkpt>
      <trkpt lat="48.416929" lon="-4.296279">
        <ele>92.0</ele>
        <time>2020-08-13T12:47:52Z</time>
      </trkpt>
      <trkpt lat="48.417263" lon="-4.296206">
        <ele>92.0</ele>
        <time>2020-08-13T12:47:54Z</time>
      </trkpt>
      <trkpt lat="48.41841" lon="-4.295996">
        <ele>80.0</ele>
        <time>2020-08-13T12:48:03Z</time>
      </trkpt>
      <trkpt lat="48.418863" lon="-4.295855">
        <ele>80.0</ele>
        <time>2020-08-13T12:48:06Z</time>
      </trkpt>
      <trkpt lat="48.419727" lon="-4.295453">
        <ele>77.4</ele>
        <time>2020-08-13T12:48:12Z</time>
      </trkpt>
      <trkpt lat="48.420392" lon="-4.29511">
        <ele>73.2</ele>
        <time>2020-08-13T12:48:17Z</time>
      </trkpt>
      <trkpt lat="48.42121" lon="-4.294569">
        <ele>70.2</ele>
        <time>2020-08-13T12:48:24Z</time>
      </trkpt>
      <trkpt lat="48.42146" lon="-4.294373">
        <ele>70.2</ele>
        <time>2020-08-13T12:48:26Z</time>
      </trkpt>
      <trkpt lat="48.421798" lon="-4.29407">
        <ele>66.6</ele>
        <time>2020-08-13T12:48:29Z</time>
      </trkpt>
      <trkpt lat="48.422579" lon="-4.293287">
        <ele>66.2</ele>
        <time>2020-08-13T12:48:36Z</time>
      </trkpt>
      <trkpt lat="48.422991" lon="-4.292746">
        <ele>66.2</ele>
        <time>2020-08-13T12:48:39Z</time>
      </trkpt>
      <trkpt lat="48.423115" lon="-4.29255">
        <ele>66.2</ele>
        <time>2020-08-13T12:48:41Z</time>
      </trkpt>
      <trkpt lat="48.423308" lon="-4.292185">
        <ele>75.2</ele>
        <time>2020-08-13T12:48:43Z</time>
      </trkpt>
      <trkpt lat="48.425065" lon="-4.288087">
        <ele>51.8</ele>
        <time>2020-08-13T12:49:06Z</time>
      </trkpt>
      <trkpt lat="48.425326" lon="-4.287544">
        <ele>51.8</ele>
        <time>2020-08-13T12:49:10Z</time>
      </trkpt>
      <trkpt lat="48.425758" lon="-4.286781">
        <ele>53.2</ele>
        <time>2020-08-13T12:49:14Z</time>
      </trkpt>
      <trkpt lat="48.426013" lon="-4.286384">
        <ele>43.4</ele>
        <time>2020-08-13T12:49:17Z</time>
      </trkpt>
      <trkpt lat="48.426455" lon="-4.285777">
        <ele>48.2</ele>
        <time>2020-08-13T12:49:21Z</time>
      </trkpt>
      <trkpt lat="48.427093" lon="-4.285023">
        <ele>39.8</ele>
        <time>2020-08-13T12:49:27Z</time>
      </trkpt>
      <trkpt lat="48.427351" lon="-4.284778">
        <ele>43.4</ele>
        <time>2020-08-13T12:49:29Z</time>
      </trkpt>
      <trkpt lat="48.427759" lon="-4.284461">
        <ele>37.0</ele>
        <time>2020-08-13T12:49:33Z</time>
      </trkpt>
      <trkpt lat="48.429353" lon="-4.283474">
        <ele>24.6</ele>
        <time>2020-08-13T12:49:45Z</time>
      </trkpt>
      <trkpt lat="48.429729" lon="-4.283175">
        <ele>21.2</ele>
        <time>2020-08-13T12:49:48Z</time>
      </trkpt>
      <trkpt lat="48.430035" lon="-4.282892">
        <ele>15.6</ele>
        <time>2020-08-13T12:49:51Z</time>
      </trkpt>
      <trkpt lat="48.430516" lon="-4.28234">
        <ele>11.2</ele>
        <time>2020-08-13T12:49:55Z</time>
      </trkpt>
      <trkpt lat="48.430692" lon="-4.282115">
        <ele>11.2</ele>
        <time>2020-08-13T12:49:57Z</time>
      </trkpt>
      <trkpt lat="48.431033" lon="-4.281605">
        <ele>8.2</ele>
        <time>2020-08-13T12:50:00Z</time>
      </trkpt>
      <trkpt lat="48.431352" lon="-4.281002">
        <ele>8.2</ele>
        <time>2020-08-13T12:50:04Z</time>
      </trkpt>
      <trkpt lat="48.431508" lon="-4.280668">
        <ele>13.2</ele>
        <time>2020-08-13T12:50:06Z</time>
      </trkpt>
      <trkpt lat="48.432867" lon="-4.277053">
        <ele>33.2</ele>
        <time>2020-08-13T12:50:26Z</time>
      </trkpt>
      <trkpt lat="48.433081" lon="-4.276593">
        <ele>35.2</ele>
        <time>2020-08-13T12:50:28Z</time>
      </trkpt>
      <trkpt lat="48.433228" lon="-4.276319">
        <ele>35.2</ele>
        <time>2020-08-13T12:50:30Z</time>
      </trkpt>
      <trkpt lat="48.433636" lon="-4.275684">
        <ele>31.2</ele>
        <time>2020-08-13T12:50:34Z</time>
      </trkpt>
      <trkpt lat="48.435946" lon="-4.272411">
        <ele>28.8</ele>
        <time>2020-08-13T12:50:57Z</time>
      </trkpt>
      <trkpt lat="48.436499" lon="-4.271659">
        <ele>31.8</ele>
        <time>2020-08-13T12:51:02Z</time>
      </trkpt>
      <trkpt lat="48.436945" lon="-4.271005">
        <ele>26.4</ele>
        <time>2020-08-13T12:51:07Z</time>
      </trkpt>
      <trkpt lat="48.437447" lon="-4.27025">
        <ele>28.6</ele>
        <time>2020-08-13T12:51:12Z</time>
      </trkpt>
      <trkpt lat="48.438494" lon="-4.268432">
        <ele>19.8</ele>
        <time>2020-08-13T12:51:25Z</time>
      </trkpt>
      <trkpt lat="48.438476" lon="-4.2684">
        <ele>19.8</ele>
        <time>2020-08-13T12:51:25Z</time>
      </trkpt>
      <trkpt lat="48.43849" lon="-4.268323">
        <ele>19.0</ele>
        <time>2020-08-13T12:51:26Z</time>
      </trkpt>
      <trkpt lat="48.438545" lon="-4.268316">
        <ele>19.0</ele>
        <time>2020-08-13T12:51:26Z</time>
      </trkpt>
      <trkpt lat="48.438559" lon="-4.268336">
        <ele>19.8</ele>
        <time>2020-08-13T12:51:27Z</time>
      </trkpt>
      <trkpt lat="48.438613" lon="-4.268269">
        <ele>19.0</ele>
        <time>2020-08-13T12:51:27Z</time>
      </trkpt>
      <trkpt lat="48.438986" lon="-4.267708">
        <ele>19.0</ele>
        <time>2020-08-13T12:51:33Z</time>
      </trkpt>
      <trkpt lat="48.439543" lon="-4.266711">
        <ele>21.6</ele>
        <time>2020-08-13T12:51:43Z</time>
      </trkpt>
      <trkpt lat="48.439784" lon="-4.266311">
        <ele>28.0</ele>
        <time>2020-08-13T12:51:47Z</time>
      </trkpt>
      <trkpt lat="48.439814" lon="-4.266228">
        <ele>28.0</ele>
        <time>2020-08-13T12:51:48Z</time>
      </trkpt>
      <trkpt lat="48.439826" lon="-4.266115">
        <ele>28.0</ele>
        <time>2020-08-13T12:51:49Z</time>
      </trkpt>
      <trkpt lat="48.439862" lon="-4.266014">
        <ele>28.0</ele>
        <time>2020-08-13T12:51:49Z</time>
      </trkpt>
      <trkpt lat="48.439953" lon="-4.265909">
        <ele>28.0</ele>
        <time>2020-08-13T12:51:50Z</time>
      </trkpt>
      <trkpt lat="48.440065" lon="-4.265883">
        <ele>24.0</ele>
        <time>2020-08-13T12:51:51Z</time>
      </trkpt>
      <trkpt lat="48.440144" lon="-4.265913">
        <ele>24.0</ele>
        <time>2020-08-13T12:51:52Z</time>
      </trkpt>
      <trkpt lat="48.440226" lon="-4.266016">
        <ele>24.0</ele>
        <time>2020-08-13T12:51:53Z</time>
      </trkpt>
      <trkpt lat="48.440271" lon="-4.266169">
        <ele>24.0</ele>
        <time>2020-08-13T12:51:54Z</time>
      </trkpt>
      <trkpt lat="48.440306" lon="-4.266238">
        <ele>24.0</ele>
        <time>2020-08-13T12:51:55Z</time>
      </trkpt>
      <trkpt lat="48.440539" lon="-4.266533">
        <ele>24.0</ele>
        <time>2020-08-13T12:51:57Z</time>
      </trkpt>
      <trkpt lat="48.442082" lon="-4.267893">
        <ele>8.6</ele>
        <time>2020-08-13T12:52:14Z</time>
      </trkpt>
      <trkpt lat="48.442586" lon="-4.268314">
        <ele>6.0</ele>
        <time>2020-08-13T12:52:19Z</time>
      </trkpt>
      <trkpt lat="48.442921" lon="-4.268551">
        <ele>6.0</ele>
        <time>2020-08-13T12:52:23Z</time>
      </trkpt>
      <trkpt lat="48.444673" lon="-4.26945">
        <ele>0.6</ele>
        <time>2020-08-13T12:52:40Z</time>
      </trkpt>
      <trkpt lat="48.445264" lon="-4.269733">
        <ele>0.2</ele>
        <time>2020-08-13T12:52:45Z</time>
      </trkpt>
      <trkpt lat="48.445434" lon="-4.269721">
        <ele>0.2</ele>
        <time>2020-08-13T12:52:47Z</time>
      </trkpt>
      <trkpt lat="48.445527" lon="-4.269679">
        <ele>0.2</ele>
        <time>2020-08-13T12:52:48Z</time>
      </trkpt>
      <trkpt lat="48.445595" lon="-4.269644">
        <ele>0.2</ele>
        <time>2020-08-13T12:52:48Z</time>
      </trkpt>
      <trkpt lat="48.445667" lon="-4.269645">
        <ele>0.2</ele>
        <time>2020-08-13T12:52:49Z</time>
      </trkpt>
      <trkpt lat="48.445734" lon="-4.26968">
        <ele>0.2</ele>
        <time>2020-08-13T12:52:50Z</time>
      </trkpt>
      <trkpt lat="48.445815" lon="-4.269799">
        <ele>0.2</ele>
        <time>2020-08-13T12:52:51Z</time>
      </trkpt>
      <trkpt lat="48.445844" lon="-4.269987">
        <ele>4.4</ele>
        <time>2020-08-13T12:52:52Z</time>
      </trkpt>
      <trkpt lat="48.445823" lon="-4.270098">
        <ele>1.0</ele>
        <time>2020-08-13T12:52:53Z</time>
      </trkpt>
      <trkpt lat="48.445747" lon="-4.270229">
        <ele>1.0</ele>
        <time>2020-08-13T12:52:54Z</time>
      </trkpt>
      <trkpt lat="48.445689" lon="-4.270442">
        <ele>1.0</ele>
        <time>2020-08-13T12:52:55Z</time>
      </trkpt>
      <trkpt lat="48.445683" lon="-4.270576">
        <ele>1.0</ele>
        <time>2020-08-13T12:52:56Z</time>
      </trkpt>
      <trkpt lat="48.445724" lon="-4.271474">
        <ele>4.2</ele>
        <time>2020-08-13T12:53:02Z</time>
      </trkpt>
      <trkpt lat="48.445725" lon="-4.271709">
        <ele>7.8</ele>
        <time>2020-08-13T12:53:04Z</time>
      </trkpt>
      <trkpt lat="48.445697" lon="-4.271924">
        <ele>7.8</ele>
        <time>2020-08-13T12:53:05Z</time>
      </trkpt>
      <trkpt lat="48.445612" lon="-4.272233">
        <ele>7.8</ele>
        <time>2020-08-13T12:53:08Z</time>
      </trkpt>
      <trkpt lat="48.445508" lon="-4.272492">
        <ele>7.8</ele>
        <time>2020-08-13T12:53:10Z</time>
      </trkpt>
      <trkpt lat="48.445244" lon="-4.273661">
        <ele>14.6</ele>
        <time>2020-08-13T12:53:14Z</time>
      </trkpt>
      <trkpt lat="48.445168" lon="-4.27387">
        <ele>14.6</ele>
        <time>2020-08-13T12:53:15Z</time>
      </trkpt>
      <trkpt lat="48.445048" lon="-4.274117">
        <ele>14.6</ele>
        <time>2020-08-13T12:53:16Z</time>
      </trkpt>
      <trkpt lat="48.44488" lon="-4.274383">
        <ele>10.4</ele>
        <time>2020-08-13T12:53:17Z</time>
      </trkpt>
      <trkpt lat="48.443975" lon="-4.275658">
        <ele>6.6</ele>
        <time>2020-08-13T12:53:24Z</time>
      </trkpt>
      <trkpt lat="48.443769" lon="-4.276004">
        <ele>11.8</ele>
        <time>2020-08-13T12:53:26Z</time>
      </trkpt>
      <trkpt lat="48.443499" lon="-4.276321">
        <ele>11.8</ele>
        <time>2020-08-13T12:53:28Z</time>
      </trkpt>
      <trkpt lat="48.441547" lon="-4.279073">
        <ele>5.0</ele>
        <time>2020-08-13T12:53:42Z</time>
      </trkpt>
      <trkpt lat="48.441434" lon="-4.279289">
        <ele>6.2</ele>
        <time>2020-08-13T12:53:43Z</time>
      </trkpt>
      <trkpt lat="48.441365" lon="-4.279474">
        <ele>6.2</ele>
        <time>2020-08-13T12:53:44Z</time>
      </trkpt>
      <trkpt lat="48.44132" lon="-4.279698">
        <ele>6.2</ele>
        <time>2020-08-13T12:53:45Z</time>
      </trkpt>
      <trkpt lat="48.441298" lon="-4.279899">
        <ele>6.2</ele>
        <time>2020-08-13T12:53:46Z</time>
      </trkpt>
      <trkpt lat="48.441299" lon="-4.280136">
        <ele>7.2</ele>
        <time>2020-08-13T12:53:46Z</time>
      </trkpt>
      <trkpt lat="48.441378" lon="-4.280719">
        <ele>7.2</ele>
        <time>2020-08-13T12:53:49Z</time>
      </trkpt>
      <trkpt lat="48.441483" lon="-4.281166">
        <ele>9.8</ele>
        <time>2020-08-13T12:53:50Z</time>
      </trkpt>
      <trkpt lat="48.441547" lon="-4.281351">
        <ele>9.8</ele>
        <time>2020-08-13T12:53:51Z</time>
      </trkpt>
      <trkpt lat="48.441724" lon="-4.281715">
        <ele>13.0</ele>
        <time>2020-08-13T12:53:53Z</time>
      </trkpt>
      <trkpt lat="48.441997" lon="-4.282142">
        <ele>13.0</ele>
        <time>2020-08-13T12:53:55Z</time>
      </trkpt>
      <trkpt lat="48.442797" lon="-4.28327">
        <ele>18.2</ele>
        <time>2020-08-13T12:54:01Z</time>
      </trkpt>
      <trkpt lat="48.443796" lon="-4.284597">
        <ele>29.4</ele>
        <time>2020-08-13T12:54:08Z</time>
      </trkpt>
      <trkpt lat="48.444029" lon="-4.284944">
        <ele>29.4</ele>
        <time>2020-08-13T12:54:10Z</time>
      </trkpt>
      <trkpt lat="48.444976" lon="-4.286764">
        <ele>34.2</ele>
        <time>2020-08-13T12:54:18Z</time>
      </trkpt>
      <trkpt lat="48.445289" lon="-4.287458">
        <ele>22.6</ele>
        <time>2020-08-13T12:54:21Z</time>
      </trkpt>
      <trkpt lat="48.445414" lon="-4.287947">
        <ele>25.8</ele>
        <time>2020-08-13T12:54:23Z</time>
      </trkpt>
      <trkpt lat="48.445499" lon="-4.28866">
        <ele>30.2</ele>
        <time>2020-08-13T12:54:26Z</time>
      </trkpt>
      <trkpt lat="48.445515" lon="-4.290384">
        <ele>36.6</ele>
        <time>2020-08-13T12:54:32Z</time>
      </trkpt>
      <trkpt lat="48.445462" lon="-4.292559">
        <ele>37.4</ele>
        <time>2020-08-13T12:54:40Z</time>
      </trkpt>
      <trkpt lat="48.445379" lon="-4.293307">
        <ele>37.4</ele>
        <time>2020-08-13T12:54:43Z</time>
      </trkpt>
      <trkpt lat="48.445305" lon="-4.293743">
        <ele>38.2</ele>
        <time>2020-08-13T12:54:44Z</time>
      </trkpt>
      <trkpt lat="48.444812" lon="-4.296065">
        <ele>47.4</ele>
        <time>2020-08-13T12:54:53Z</time>
      </trkpt>
      <trkpt lat="48.443012" lon="-4.304214">
        <ele>75.4</ele>
        <time>2020-08-13T12:55:24Z</time>
      </trkpt>
      <trkpt lat="48.439402" lon="-4.320389">
        <ele>99.2</ele>
        <time>2020-08-13T12:56:26Z</time>
      </trkpt>
      <trkpt lat="48.439093" lon="-4.321829">
        <ele>105.4</ele>
        <time>2020-08-13T12:56:31Z</time>
      </trkpt>
      <trkpt lat="48.439043" lon="-4.322362">
        <ele>105.4</ele>
        <time>2020-08-13T12:56:33Z</time>
      </trkpt>
      <trkpt lat="48.439087" lon="-4.322474">
        <ele>105.4</ele>
        <time>2020-08-13T12:56:34Z</time>
      </trkpt>
      <trkpt lat="48.439079" lon="-4.322614">
        <ele>107.8</ele>
        <time>2020-08-13T12:56:34Z</time>
      </trkpt>
      <trkpt lat="48.438993" lon="-4.322733">
        <ele>107.8</ele>
        <time>2020-08-13T12:56:35Z</time>
      </trkpt>
      <trkpt lat="48.438962" lon="-4.322746">
        <ele>107.8</ele>
        <time>2020-08-13T12:56:35Z</time>
      </trkpt>
      <trkpt lat="48.438823" lon="-4.323069">
        <ele>107.8</ele>
        <time>2020-08-13T12:56:36Z</time>
      </trkpt>
      <trkpt lat="48.436768" lon="-4.332727">
        <ele>90.0</ele>
        <time>2020-08-13T12:57:07Z</time>
      </trkpt>
      <trkpt lat="48.436079" lon="-4.335698">
        <ele>83.6</ele>
        <time>2020-08-13T12:57:17Z</time>
      </trkpt>
      <trkpt lat="48.435682" lon="-4.337561">
        <ele>74.8</ele>
        <time>2020-08-13T12:57:23Z</time>
      </trkpt>
      <trkpt lat="48.435404" lon="-4.338935">
        <ele>71.6</ele>
        <time>2020-08-13T12:57:27Z</time>
      </trkpt>
      <trkpt lat="48.434769" lon="-4.342467">
        <ele>63.8</ele>
        <time>2020-08-13T12:57:38Z</time>
      </trkpt>
      <trkpt lat="48.433937" lon="-4.34654">
        <ele>78.0</ele>
        <time>2020-08-13T12:57:51Z</time>
      </trkpt>
      <trkpt lat="48.433906" lon="-4.346894">
        <ele>82.2</ele>
        <time>2020-08-13T12:57:52Z</time>
      </trkpt>
      <trkpt lat="48.433964" lon="-4.348295">
        <ele>85.2</ele>
        <time>2020-08-13T12:57:57Z</time>
      </trkpt>
      <trkpt lat="48.434397" lon="-4.356217">
        <ele>80.0</ele>
        <time>2020-08-13T12:58:21Z</time>
      </trkpt>
      <trkpt lat="48.434526" lon="-4.359347">
        <ele>79.6</ele>
        <time>2020-08-13T12:58:30Z</time>
      </trkpt>
      <trkpt lat="48.434727" lon="-4.363485">
        <ele>76.8</ele>
        <time>2020-08-13T12:58:43Z</time>
      </trkpt>
      <trkpt lat="48.434937" lon="-4.365861">
        <ele>70.8</ele>
        <time>2020-08-13T12:58:51Z</time>
      </trkpt>
      <trkpt lat="48.434397" lon="-4.365744">
        <ele>72.2</ele>
        <time>2020-08-13T12:58:54Z</time>
      </trkpt>
      <trkpt lat="48.434022" lon="-4.365732">
        <ele>71.4</ele>
        <time>2020-08-13T12:58:57Z</time>
      </trkpt>
      <trkpt lat="48.433015" lon="-4.366315">
        <ele>78.2</ele>
        <time>2020-08-13T12:59:04Z</time>
      </trkpt>
      <trkpt lat="48.432634" lon="-4.366413">
        <ele>78.2</ele>
        <time>2020-08-13T12:59:06Z</time>
      </trkpt>
      <trkpt lat="48.43188" lon="-4.366406">
        <ele>86.8</ele>
        <time>2020-08-13T12:59:11Z</time>
      </trkpt>
      <trkpt lat="48.431736" lon="-4.36637">
        <ele>86.8</ele>
        <time>2020-08-13T12:59:12Z</time>
      </trkpt>
      <trkpt lat="48.431087" lon="-4.365919">
        <ele>92.0</ele>
        <time>2020-08-13T12:59:17Z</time>
      </trkpt>
      <trkpt lat="48.430941" lon="-4.365837">
        <ele>92.0</ele>
        <time>2020-08-13T12:59:18Z</time>
      </trkpt>
      <trkpt lat="48.430715" lon="-4.365783">
        <ele>91.6</ele>
        <time>2020-08-13T12:59:19Z</time>
      </trkpt>
      <trkpt lat="48.430546" lon="-4.365701">
        <ele>91.6</ele>
        <time>2020-08-13T12:59:21Z</time>
      </trkpt>
      <trkpt lat="48.430207" lon="-4.365292">
        <ele>91.6</ele>
        <time>2020-08-13T12:59:23Z</time>
      </trkpt>
      <trkpt lat="48.430049" lon="-4.365189">
        <ele>91.6</ele>
        <time>2020-08-13T12:59:25Z</time>
      </trkpt>
      <trkpt lat="48.429714" lon="-4.365082">
        <ele>93.4</ele>
        <time>2020-08-13T12:59:27Z</time>
      </trkpt>
      <trkpt lat="48.42904" lon="-4.365011">
        <ele>96.8</ele>
        <time>2020-08-13T12:59:31Z</time>
      </trkpt>
      <trkpt lat="48.428925" lon="-4.365034">
        <ele>96.8</ele>
        <time>2020-08-13T12:59:32Z</time>
      </trkpt>
      <trkpt lat="48.428809" lon="-4.365099">
        <ele>96.8</ele>
        <time>2020-08-13T12:59:33Z</time>
      </trkpt>
      <trkpt lat="48.428582" lon="-4.365365">
        <ele>96.8</ele>
        <time>2020-08-13T12:59:35Z</time>
      </trkpt>
      <trkpt lat="48.428374" lon="-4.365738">
        <ele>96.8</ele>
        <time>2020-08-13T12:59:37Z</time>
      </trkpt>
      <trkpt lat="48.428037" lon="-4.366546">
        <ele>99.0</ele>
        <time>2020-08-13T12:59:41Z</time>
      </trkpt>
      <trkpt lat="48.427891" lon="-4.367055">
        <ele>96.6</ele>
        <time>2020-08-13T12:59:43Z</time>
      </trkpt>
      <trkpt lat="48.427864" lon="-4.367221">
        <ele>96.6</ele>
        <time>2020-08-13T12:59:44Z</time>
      </trkpt>
      <trkpt lat="48.427844" lon="-4.367619">
        <ele>93.8</ele>
        <time>2020-08-13T12:59:46Z</time>
      </trkpt>
      <trkpt lat="48.42786" lon="-4.368852">
        <ele>90.2</ele>
        <time>2020-08-13T12:59:51Z</time>
      </trkpt>
      <trkpt lat="48.427818" lon="-4.369917">
        <ele>86.4</ele>
        <time>2020-08-13T12:59:56Z</time>
      </trkpt>
      <trkpt lat="48.427778" lon="-4.37024">
        <ele>82.6</ele>
        <time>2020-08-13T12:59:57Z</time>
      </trkpt>
      <trkpt lat="48.427697" lon="-4.370667">
        <ele>82.6</ele>
        <time>2020-08-13T12:59:59Z</time>
      </trkpt>
      <trkpt lat="48.427261" lon="-4.372639">
        <ele>72.0</ele>
        <time>2020-08-13T13:00:09Z</time>
      </trkpt>
      <trkpt lat="48.427128" lon="-4.373322">
        <ele>72.0</ele>
        <time>2020-08-13T13:00:12Z</time>
      </trkpt>
      <trkpt lat="48.427078" lon="-4.373656">
        <ele>68.0</ele>
        <time>2020-08-13T13:00:13Z</time>
      </trkpt>
      <trkpt lat="48.42706" lon="-4.373962">
        <ele>68.0</ele>
        <time>2020-08-13T13:00:14Z</time>
      </trkpt>
      <trkpt lat="48.427061" lon="-4.375624">
        <ele>61.6</ele>
        <time>2020-08-13T13:00:22Z</time>
      </trkpt>
      <trkpt lat="48.427072" lon="-4.376007">
        <ele>57.4</ele>
        <time>2020-08-13T13:00:23Z</time>
      </trkpt>
      <trkpt lat="48.427103" lon="-4.376307">
        <ele>57.4</ele>
        <time>2020-08-13T13:00:25Z</time>
      </trkpt>
      <trkpt lat="48.427169" lon="-4.376605">
        <ele>57.4</ele>
        <time>2020-08-13T13:00:26Z</time>
      </trkpt>
      <trkpt lat="48.427501" lon="-4.377632">
        <ele>48.6</ele>
        <time>2020-08-13T13:00:31Z</time>
      </trkpt>
      <trkpt lat="48.42758" lon="-4.377937">
        <ele>48.6</ele>
        <time>2020-08-13T13:00:33Z</time>
      </trkpt>
      <trkpt lat="48.427672" lon="-4.378397">
        <ele>43.8</ele>
        <time>2020-08-13T13:00:35Z</time>
      </trkpt>
      <trkpt lat="48.428079" lon="-4.380731">
        <ele>37.8</ele>
        <time>2020-08-13T13:00:45Z</time>
      </trkpt>
      <trkpt lat="48.428097" lon="-4.380993">
        <ele>40.0</ele>
        <time>2020-08-13T13:00:46Z</time>
      </trkpt>
      <trkpt lat="48.428072" lon="-4.381303">
        <ele>40.0</ele>
        <time>2020-08-13T13:00:48Z</time>
      </trkpt>
      <trkpt lat="48.428141" lon="-4.381533">
        <ele>40.0</ele>
        <time>2020-08-13T13:00:49Z</time>
      </trkpt>
      <trkpt lat="48.428204" lon="-4.381891">
        <ele>41.2</ele>
        <time>2020-08-13T13:00:51Z</time>
      </trkpt>
      <trkpt lat="48.428241" lon="-4.382622">
        <ele>38.8</ele>
        <time>2020-08-13T13:00:54Z</time>
      </trkpt>
      <trkpt lat="48.428184" lon="-4.383195">
        <ele>38.8</ele>
        <time>2020-08-13T13:00:56Z</time>
      </trkpt>
      <trkpt lat="48.428124" lon="-4.383414">
        <ele>36.4</ele>
        <time>2020-08-13T13:00:57Z</time>
      </trkpt>
      <trkpt lat="48.428014" lon="-4.383588">
        <ele>36.4</ele>
        <time>2020-08-13T13:00:58Z</time>
      </trkpt>
      <trkpt lat="48.427758" lon="-4.383884">
        <ele>36.4</ele>
        <time>2020-08-13T13:01:01Z</time>
      </trkpt>
      <trkpt lat="48.427581" lon="-4.38419">
        <ele>35.8</ele>
        <time>2020-08-13T13:01:02Z</time>
      </trkpt>
      <trkpt lat="48.427164" lon="-4.385458">
        <ele>46.2</ele>
        <time>2020-08-13T13:01:08Z</time>
      </trkpt>
      <trkpt lat="48.427033" lon="-4.385733">
        <ele>46.2</ele>
        <time>2020-08-13T13:01:10Z</time>
      </trkpt>
      <trkpt lat="48.426955" lon="-4.385857">
        <ele>43.4</ele>
        <time>2020-08-13T13:01:11Z</time>
      </trkpt>
      <trkpt lat="48.426676" lon="-4.386201">
        <ele>43.4</ele>
        <time>2020-08-13T13:01:13Z</time>
      </trkpt>
      <trkpt lat="48.426551" lon="-4.386473">
        <ele>45.6</ele>
        <time>2020-08-13T13:01:15Z</time>
      </trkpt>
      <trkpt lat="48.42622" lon="-4.387516">
        <ele>37.6</ele>
        <time>2020-08-13T13:01:20Z</time>
      </trkpt>
      <trkpt lat="48.425898" lon="-4.387997">
        <ele>37.6</ele>
        <time>2020-08-13T13:01:23Z</time>
      </trkpt>
      <trkpt lat="48.425768" lon="-4.388316">
        <ele>37.4</ele>
        <time>2020-08-13T13:01:24Z</time>
      </trkpt>
      <trkpt lat="48.425682" lon="-4.388874">
        <ele>34.8</ele>
        <time>2020-08-13T13:01:27Z</time>
      </trkpt>
      <trkpt lat="48.425611" lon="-4.389592">
        <ele>32.6</ele>
        <time>2020-08-13T13:01:30Z</time>
      </trkpt>
      <trkpt lat="48.425522" lon="-4.390174">
        <ele>28.8</ele>
        <time>2020-08-13T13:01:33Z</time>
      </trkpt>
      <trkpt lat="48.425293" lon="-4.391062">
        <ele>23.4</ele>
        <time>2020-08-13T13:01:37Z</time>
      </trkpt>
      <trkpt lat="48.425154" lon="-4.391746">
        <ele>21.8</ele>
        <time>2020-08-13T13:01:40Z</time>
      </trkpt>
      <trkpt lat="48.424887" lon="-4.392211">
        <ele>24.6</ele>
        <time>2020-08-13T13:01:42Z</time>
      </trkpt>
      <trkpt lat="48.424703" lon="-4.392647">
        <ele>30.4</ele>
        <time>2020-08-13T13:01:45Z</time>
      </trkpt>
      <trkpt lat="48.424187" lon="-4.392499">
        <ele>24.6</ele>
        <time>2020-08-13T13:01:50Z</time>
      </trkpt>
      <trkpt lat="48.42351" lon="-4.392337">
        <ele>30.2</ele>
        <time>2020-08-13T13:01:56Z</time>
      </trkpt>
      <trkpt lat="48.423303" lon="-4.392239">
        <ele>37.6</ele>
        <time>2020-08-13T13:01:58Z</time>
      </trkpt>
      <trkpt lat="48.423118" lon="-4.392066">
        <ele>37.6</ele>
        <time>2020-08-13T13:02:00Z</time>
      </trkpt>
      <trkpt lat="48.422653" lon="-4.391455">
        <ele>27.6</ele>
        <time>2020-08-13T13:02:06Z</time>
      </trkpt>
      <trkpt lat="48.422441" lon="-4.391223">
        <ele>32.4</ele>
        <time>2020-08-13T13:02:08Z</time>
      </trkpt>
      <trkpt lat="48.4222" lon="-4.391049">
        <ele>32.4</ele>
        <time>2020-08-13T13:02:10Z</time>
      </trkpt>
      <trkpt lat="48.421924" lon="-4.390935">
        <ele>32.4</ele>
        <time>2020-08-13T13:02:13Z</time>
      </trkpt>
      <trkpt lat="48.42166" lon="-4.390883">
        <ele>39.8</ele>
        <time>2020-08-13T13:02:15Z</time>
      </trkpt>
      <trkpt lat="48.421191" lon="-4.390893">
        <ele>39.8</ele>
        <time>2020-08-13T13:02:20Z</time>
      </trkpt>
      <trkpt lat="48.420952" lon="-4.390837">
        <ele>39.8</ele>
        <time>2020-08-13T13:02:22Z</time>
      </trkpt>
      <trkpt lat="48.420399" lon="-4.390649">
        <ele>29.4</ele>
        <time>2020-08-13T13:02:27Z</time>
      </trkpt>
      <trkpt lat="48.420062" lon="-4.390578">
        <ele>29.4</ele>
        <time>2020-08-13T13:02:30Z</time>
      </trkpt>
      <trkpt lat="48.419397" lon="-4.39051">
        <ele>31.0</ele>
        <time>2020-08-13T13:02:36Z</time>
      </trkpt>
      <trkpt lat="48.419232" lon="-4.390444">
        <ele>31.0</ele>
        <time>2020-08-13T13:02:38Z</time>
      </trkpt>
      <trkpt lat="48.41907" lon="-4.390321">
        <ele>42.8</ele>
        <time>2020-08-13T13:02:40Z</time>
      </trkpt>
      <trkpt lat="48.418936" lon="-4.39014">
        <ele>42.8</ele>
        <time>2020-08-13T13:02:41Z</time>
      </trkpt>
      <trkpt lat="48.418542" lon="-4.389431">
        <ele>32.4</ele>
        <time>2020-08-13T13:02:47Z</time>
      </trkpt>
      <trkpt lat="48.418286" lon="-4.389118">
        <ele>33.8</ele>
        <time>2020-08-13T13:02:50Z</time>
      </trkpt>
      <trkpt lat="48.418158" lon="-4.38901">
        <ele>33.8</ele>
        <time>2020-08-13T13:02:51Z</time>
      </trkpt>
      <trkpt lat="48.417873" lon="-4.388877">
        <ele>33.8</ele>
        <time>2020-08-13T13:02:54Z</time>
      </trkpt>
      <trkpt lat="48.41736" lon="-4.388789">
        <ele>43.2</ele>
        <time>2020-08-13T13:02:59Z</time>
      </trkpt>
      <trkpt lat="48.417209" lon="-4.388742">
        <ele>43.2</ele>
        <time>2020-08-13T13:03:00Z</time>
      </trkpt>
      <trkpt lat="48.416611" lon="-4.388217">
        <ele>24.8</ele>
        <time>2020-08-13T13:03:07Z</time>
      </trkpt>
      <trkpt lat="48.416333" lon="-4.388044">
        <ele>24.8</ele>
        <time>2020-08-13T13:03:09Z</time>
      </trkpt>
      <trkpt lat="48.415985" lon="-4.387936">
        <ele>24.8</ele>
        <time>2020-08-13T13:03:13Z</time>
      </trkpt>
      <trkpt lat="48.415263" lon="-4.387919">
        <ele>24.4</ele>
        <time>2020-08-13T13:03:19Z</time>
      </trkpt>
      <trkpt lat="48.414556" lon="-4.38779">
        <ele>37.6</ele>
        <time>2020-08-13T13:03:26Z</time>
      </trkpt>
      <trkpt lat="48.414281" lon="-4.387716">
        <ele>37.6</ele>
        <time>2020-08-13T13:03:28Z</time>
      </trkpt>
      <trkpt lat="48.413972" lon="-4.387548">
        <ele>54.4</ele>
        <time>2020-08-13T13:03:32Z</time>
      </trkpt>
      <trkpt lat="48.413453" lon="-4.387085">
        <ele>36.6</ele>
        <time>2020-08-13T13:03:37Z</time>
      </trkpt>
      <trkpt lat="48.413211" lon="-4.386897">
        <ele>48.2</ele>
        <time>2020-08-13T13:03:40Z</time>
      </trkpt>
      <trkpt lat="48.412721" lon="-4.386611">
        <ele>27.6</ele>
        <time>2020-08-13T13:03:45Z</time>
      </trkpt>
      <trkpt lat="48.412362" lon="-4.386477">
        <ele>31.6</ele>
        <time>2020-08-13T13:03:48Z</time>
      </trkpt>
      <trkpt lat="48.412034" lon="-4.386409">
        <ele>31.6</ele>
        <time>2020-08-13T13:03:51Z</time>
      </trkpt>
      <trkpt lat="48.411701" lon="-4.386412">
        <ele>31.6</ele>
        <time>2020-08-13T13:03:54Z</time>
      </trkpt>
      <trkpt lat="48.410975" lon="-4.386688">
        <ele>44.0</ele>
        <time>2020-08-13T13:04:01Z</time>
      </trkpt>
      <trkpt lat="48.410708" lon="-4.386694">
        <ele>37.0</ele>
        <time>2020-08-13T13:04:04Z</time>
      </trkpt>
      <trkpt lat="48.409742" lon="-4.386517">
        <ele>21.8</ele>
        <time>2020-08-13T13:04:13Z</time>
      </trkpt>
      <trkpt lat="48.409434" lon="-4.386484">
        <ele>21.8</ele>
        <time>2020-08-13T13:04:15Z</time>
      </trkpt>
      <trkpt lat="48.409289" lon="-4.386529">
        <ele>21.8</ele>
        <time>2020-08-13T13:04:17Z</time>
      </trkpt>
      <trkpt lat="48.409111" lon="-4.386674">
        <ele>19.2</ele>
        <time>2020-08-13T13:04:19Z</time>
      </trkpt>
      <trkpt lat="48.408777" lon="-4.387182">
        <ele>19.2</ele>
        <time>2020-08-13T13:04:23Z</time>
      </trkpt>
      <trkpt lat="48.40747" lon="-4.38888">
        <ele>21.4</ele>
        <time>2020-08-13T13:04:39Z</time>
      </trkpt>
      <trkpt lat="48.407376" lon="-4.388956">
        <ele>21.4</ele>
        <time>2020-08-13T13:04:40Z</time>
      </trkpt>
      <trkpt lat="48.407291" lon="-4.388996">
        <ele>21.4</ele>
        <time>2020-08-13T13:04:40Z</time>
      </trkpt>
      <trkpt lat="48.407159" lon="-4.389008">
        <ele>21.4</ele>
        <time>2020-08-13T13:04:42Z</time>
      </trkpt>
      <trkpt lat="48.406805" lon="-4.388866">
        <ele>21.4</ele>
        <time>2020-08-13T13:04:46Z</time>
      </trkpt>
      <trkpt lat="48.406643" lon="-4.389646">
        <ele>26.4</ele>
        <time>2020-08-13T13:04:53Z</time>
      </trkpt>
      <trkpt lat="48.406516" lon="-4.3901">
        <ele>29.8</ele>
        <time>2020-08-13T13:04:58Z</time>
      </trkpt>
      <trkpt lat="48.40635" lon="-4.39057">
        <ele>29.8</ele>
        <time>2020-08-13T13:05:02Z</time>
      </trkpt>
      <trkpt lat="48.406095" lon="-4.391081">
        <ele>32.6</ele>
        <time>2020-08-13T13:05:08Z</time>
      </trkpt>
      <trkpt lat="48.406072" lon="-4.39119">
        <ele>32.6</ele>
        <time>2020-08-13T13:05:09Z</time>
      </trkpt>
      <trkpt lat="48.405877" lon="-4.391269">
        <ele>32.6</ele>
        <time>2020-08-13T13:05:12Z</time>
      </trkpt>
      <trkpt lat="48.405559" lon="-4.391244">
        <ele>32.2</ele>
        <time>2020-08-13T13:05:16Z</time>
      </trkpt>
      <trkpt lat="48.404721" lon="-4.392896">
        <ele>31.0</ele>
        <time>2020-08-13T13:05:34Z</time>
      </trkpt>
      <trkpt lat="48.404314" lon="-4.392751">
        <ele>31.0</ele>
        <time>2020-08-13T13:05:39Z</time>
      </trkpt>
      <trkpt lat="48.404001" lon="-4.393786">
        <ele>28.2</ele>
        <time>2020-08-13T13:05:50Z</time>
      </trkpt>
      <trkpt lat="48.403916" lon="-4.394249">
        <ele>27.2</ele>
        <time>2020-08-13T13:05:55Z</time>
      </trkpt>
      <trkpt lat="48.403776" lon="-4.394807">
        <ele>27.2</ele>
        <time>2020-08-13T13:06:01Z</time>
      </trkpt>
      <trkpt lat="48.403694" lon="-4.395001">
        <ele>26.0</ele>
        <time>2020-08-13T13:06:03Z</time>
      </trkpt>
      <trkpt lat="48.403253" lon="-4.395704">
        <ele>22.2</ele>
        <time>2020-08-13T13:06:12Z</time>
      </trkpt>
      <trkpt lat="48.403128" lon="-4.395975">
        <ele>19.4</ele>
        <time>2020-08-13T13:06:15Z</time>
      </trkpt>
      <trkpt lat="48.403082" lon="-4.396196">
        <ele>19.4</ele>
        <time>2020-08-13T13:06:18Z</time>
      </trkpt>
      <trkpt lat="48.40286" lon="-4.39819">
        <ele>15.8</ele>
        <time>2020-08-13T13:06:37Z</time>
      </trkpt>
      <trkpt lat="48.402835" lon="-4.398505">
        <ele>18.0</ele>
        <time>2020-08-13T13:06:40Z</time>
      </trkpt>
      <trkpt lat="48.402835" lon="-4.399098">
        <ele>18.0</ele>
        <time>2020-08-13T13:06:46Z</time>
      </trkpt>
      <trkpt lat="48.40278" lon="-4.399815">
        <ele>20.6</ele>
        <time>2020-08-13T13:06:53Z</time>
      </trkpt>
      <trkpt lat="48.402664" lon="-4.40035">
        <ele>23.0</ele>
        <time>2020-08-13T13:06:58Z</time>
      </trkpt>
      <trkpt lat="48.401314" lon="-4.404626">
        <ele>23.2</ele>
        <time>2020-08-13T13:07:43Z</time>
      </trkpt>
      <trkpt lat="48.40095" lon="-4.405618">
        <ele>23.6</ele>
        <time>2020-08-13T13:07:54Z</time>
      </trkpt>
      <trkpt lat="48.400023" lon="-4.40742">
        <ele>22.6</ele>
        <time>2020-08-13T13:08:16Z</time>
      </trkpt>
      <trkpt lat="48.39929" lon="-4.408765">
        <ele>25.2</ele>
        <time>2020-08-13T13:08:33Z</time>
      </trkpt>
      <trkpt lat="48.3991" lon="-4.409368">
        <ele>27.8</ele>
        <time>2020-08-13T13:08:39Z</time>
      </trkpt>
      <trkpt lat="48.399055" lon="-4.409589">
        <ele>27.8</ele>
        <time>2020-08-13T13:08:41Z</time>
      </trkpt>
      <trkpt lat="48.399118" lon="-4.409685">
        <ele>27.8</ele>
        <time>2020-08-13T13:08:42Z</time>
      </trkpt>
      <trkpt lat="48.399162" lon="-4.409804">
        <ele>27.8</ele>
        <time>2020-08-13T13:08:43Z</time>
      </trkpt>
      <trkpt lat="48.399183" lon="-4.409936">
        <ele>26.4</ele>
        <time>2020-08-13T13:08:43Z</time>
      </trkpt>
      <trkpt lat="48.399178" lon="-4.410082">
        <ele>27.8</ele>
        <time>2020-08-13T13:08:44Z</time>
      </trkpt>
      <trkpt lat="48.399146" lon="-4.410221">
        <ele>28.6</ele>
        <time>2020-08-13T13:08:45Z</time>
      </trkpt>
      <trkpt lat="48.399055" lon="-4.410385">
        <ele>28.6</ele>
        <time>2020-08-13T13:08:46Z</time>
      </trkpt>
      <trkpt lat="48.399068" lon="-4.411193">
        <ele>28.8</ele>
        <time>2020-08-13T13:08:49Z</time>
      </trkpt>
      <trkpt lat="48.399057" lon="-4.411312">
        <ele>28.8</ele>
        <time>2020-08-13T13:08:50Z</time>
      </trkpt>
      <trkpt lat="48.398975" lon="-4.411721">
        <ele>28.8</ele>
        <time>2020-08-13T13:08:52Z</time>
      </trkpt>
      <trkpt lat="48.398615" lon="-4.412964">
        <ele>29.0</ele>
        <time>2020-08-13T13:08:58Z</time>
      </trkpt>
      <trkpt lat="48.398518" lon="-4.413467">
        <ele>28.2</ele>
        <time>2020-08-13T13:09:00Z</time>
      </trkpt>
      <trkpt lat="48.398355" lon="-4.414643">
        <ele>26.6</ele>
        <time>2020-08-13T13:09:05Z</time>
      </trkpt>
      <trkpt lat="48.398308" lon="-4.415146">
        <ele>22.6</ele>
        <time>2020-08-13T13:09:08Z</time>
      </trkpt>
      <trkpt lat="48.398258" lon="-4.416249">
        <ele>20.2</ele>
        <time>2020-08-13T13:09:13Z</time>
      </trkpt>
      <trkpt lat="48.398259" lon="-4.416823">
        <ele>17.0</ele>
        <time>2020-08-13T13:09:15Z</time>
      </trkpt>
      <trkpt lat="48.39831" lon="-4.419226">
        <ele>8.4</ele>
        <time>2020-08-13T13:09:26Z</time>
      </trkpt>
      <trkpt lat="48.398361" lon="-4.420552">
        <ele>10.2</ele>
        <time>2020-08-13T13:09:32Z</time>
      </trkpt>
      <trkpt lat="48.398497" lon="-4.422159">
        <ele>10.2</ele>
        <time>2020-08-13T13:09:42Z</time>
      </trkpt>
      <trkpt lat="48.398529" lon="-4.423401">
        <ele>11.25</ele>
        <time>2020-08-13T13:09:50Z</time>
      </trkpt>
      <trkpt lat="48.398524" lon="-4.423854">
        <ele>11.25</ele>
        <time>2020-08-13T13:09:52Z</time>
      </trkpt>
      <trkpt lat="48.398576" lon="-4.42396">
        <ele>11.25</ele>
        <time>2020-08-13T13:09:53Z</time>
      </trkpt>
      <trkpt lat="48.398611" lon="-4.424165">
        <ele>11.25</ele>
        <time>2020-08-13T13:09:55Z</time>
      </trkpt>
      <trkpt lat="48.398797" lon="-4.424353">
        <ele>12.25</ele>
        <time>2020-08-13T13:09:58Z</time>
      </trkpt>
      <trkpt lat="48.39906" lon="-4.424487">
        <ele>12.25</ele>
        <time>2020-08-13T13:10:02Z</time>
      </trkpt>
      <trkpt lat="48.39914" lon="-4.424587">
        <ele>12.25</ele>
        <time>2020-08-13T13:10:03Z</time>
      </trkpt>
      <trkpt lat="48.399201" lon="-4.424708">
        <ele>14.0</ele>
        <time>2020-08-13T13:10:05Z</time>
      </trkpt>
      <trkpt lat="48.399229" lon="-4.424856">
        <ele>14.0</ele>
        <time>2020-08-13T13:10:06Z</time>
      </trkpt>
      <trkpt lat="48.399221" lon="-4.425084">
        <ele>17.0</ele>
        <time>2020-08-13T13:10:08Z</time>
      </trkpt>
      <trkpt lat="48.398645" lon="-4.428876">
        <ele>24.5</ele>
        <time>2020-08-13T13:10:42Z</time>
      </trkpt>
      <trkpt lat="48.398156" lon="-4.431441">
        <ele>17.5</ele>
        <time>2020-08-13T13:11:05Z</time>
      </trkpt>
      <trkpt lat="48.398182" lon="-4.431447">
        <ele>17.5</ele>
        <time>2020-08-13T13:11:06Z</time>
      </trkpt>
      <trkpt lat="48.398217" lon="-4.431503">
        <ele>17.5</ele>
        <time>2020-08-13T13:11:06Z</time>
      </trkpt>
      <trkpt lat="48.398218" lon="-4.431542">
        <ele>17.5</ele>
        <time>2020-08-13T13:11:06Z</time>
      </trkpt>
      <trkpt lat="48.398206" lon="-4.431583">
        <ele>17.5</ele>
        <time>2020-08-13T13:11:07Z</time>
      </trkpt>
      <trkpt lat="48.398158" lon="-4.431615">
        <ele>17.5</ele>
        <time>2020-08-13T13:11:07Z</time>
      </trkpt>
      <trkpt lat="48.39813" lon="-4.431602">
        <ele>17.5</ele>
        <time>2020-08-13T13:11:08Z</time>
      </trkpt>
      <trkpt lat="48.39728" lon="-4.434227">
        <ele>14.6</ele>
        <time>2020-08-13T13:11:28Z</time>
      </trkpt>
      <trkpt lat="48.397145" lon="-4.43476">
        <ele>14.6</ele>
        <time>2020-08-13T13:11:32Z</time>
      </trkpt>
      <trkpt lat="48.397138" lon="-4.434954">
        <ele>14.6</ele>
        <time>2020-08-13T13:11:33Z</time>
      </trkpt>
      <trkpt lat="48.397172" lon="-4.435177">
        <ele>18.4</ele>
        <time>2020-08-13T13:11:35Z</time>
      </trkpt>
      <trkpt lat="48.39725" lon="-4.435232">
        <ele>18.4</ele>
        <time>2020-08-13T13:11:36Z</time>
      </trkpt>
      <trkpt lat="48.397296" lon="-4.435314">
        <ele>18.4</ele>
        <time>2020-08-13T13:11:37Z</time>
      </trkpt>
      <trkpt lat="48.397331" lon="-4.435424">
        <ele>18.4</ele>
        <time>2020-08-13T13:11:38Z</time>
      </trkpt>
      <trkpt lat="48.397339" lon="-4.435569">
        <ele>18.4</ele>
        <time>2020-08-13T13:11:40Z</time>
      </trkpt>
      <trkpt lat="48.397286" lon="-4.435761">
        <ele>18.4</ele>
        <time>2020-08-13T13:11:41Z</time>
      </trkpt>
      <trkpt lat="48.397218" lon="-4.435851">
        <ele>23.4</ele>
        <time>2020-08-13T13:11:43Z</time>
      </trkpt>
      <trkpt lat="48.397141" lon="-4.435889">
        <ele>23.4</ele>
        <time>2020-08-13T13:11:44Z</time>
      </trkpt>
      <trkpt lat="48.397061" lon="-4.435894">
        <ele>23.4</ele>
        <time>2020-08-13T13:11:45Z</time>
      </trkpt>
      <trkpt lat="48.397003" lon="-4.435867">
        <ele>23.4</ele>
        <time>2020-08-13T13:11:46Z</time>
      </trkpt>
      <trkpt lat="48.396928" lon="-4.435793">
        <ele>18.4</ele>
        <time>2020-08-13T13:11:47Z</time>
      </trkpt>
      <trkpt lat="48.396874" lon="-4.435679">
        <ele>18.4</ele>
        <time>2020-08-13T13:11:48Z</time>
      </trkpt>
      <trkpt lat="48.396854" lon="-4.435494">
        <ele>18.4</ele>
        <time>2020-08-13T13:11:50Z</time>
      </trkpt>
      <trkpt lat="48.396813" lon="-4.43537">
        <ele>18.4</ele>
        <time>2020-08-13T13:11:51Z</time>
      </trkpt>
      <trkpt lat="48.396761" lon="-4.435293">
        <ele>18.4</ele>
        <time>2020-08-13T13:11:52Z</time>
      </trkpt>
      <trkpt lat="48.396059" lon="-4.43491">
        <ele>11.8</ele>
        <time>2020-08-13T13:12:04Z</time>
      </trkpt>
      <trkpt lat="48.395958" lon="-4.434829">
        <ele>11.8</ele>
        <time>2020-08-13T13:12:06Z</time>
      </trkpt>
      <trkpt lat="48.395397" lon="-4.436393">
        <ele>17.2</ele>
        <time>2020-08-13T13:12:22Z</time>
      </trkpt>
      <trkpt lat="48.395322" lon="-4.436488">
        <ele>17.2</ele>
        <time>2020-08-13T13:12:23Z</time>
      </trkpt>
      <trkpt lat="48.395335" lon="-4.436529">
        <ele>17.2</ele>
        <time>2020-08-13T13:12:24Z</time>
      </trkpt>
      <trkpt lat="48.395327" lon="-4.43663">
        <ele>17.2</ele>
        <time>2020-08-13T13:12:25Z</time>
      </trkpt>
      <trkpt lat="48.395307" lon="-4.436667">
        <ele>21.6</ele>
        <time>2020-08-13T13:12:26Z</time>
      </trkpt>
      <trkpt lat="48.395246" lon="-4.436699">
        <ele>21.6</ele>
        <time>2020-08-13T13:12:27Z</time>
      </trkpt>
      <trkpt lat="48.395216" lon="-4.43669">
        <ele>21.6</ele>
        <time>2020-08-13T13:12:28Z</time>
      </trkpt>
      <trkpt lat="48.395164" lon="-4.436605">
        <ele>17.2</ele>
        <time>2020-08-13T13:12:29Z</time>
      </trkpt>
      <trkpt lat="48.395039" lon="-4.436695">
        <ele>21.6</ele>
        <time>2020-08-13T13:12:32Z</time>
      </trkpt>
      <trkpt lat="48.395015" lon="-4.436756">
        <ele>21.6</ele>
        <time>2020-08-13T13:12:33Z</time>
      </trkpt>
      <trkpt lat="48.394998" lon="-4.436963">
        <ele>21.2</ele>
        <time>2020-08-13T13:12:35Z</time>
      </trkpt>
      <trkpt lat="48.394971" lon="-4.437056">
        <ele>21.2</ele>
        <time>2020-08-13T13:12:36Z</time>
      </trkpt>
      <trkpt lat="48.39457" lon="-4.438192">
        <ele>23.4</ele>
        <time>2020-08-13T13:12:52Z</time>
      </trkpt>
      <trkpt lat="48.394521" lon="-4.438396">
        <ele>26.0</ele>
        <time>2020-08-13T13:12:55Z</time>
      </trkpt>
      <trkpt lat="48.394299" lon="-4.438983">
        <ele>26.0</ele>
        <time>2020-08-13T13:13:03Z</time>
      </trkpt>
      <trkpt lat="48.394251" lon="-4.439193">
        <ele>26.7</ele>
        <time>2020-08-13T13:13:06Z</time>
      </trkpt>
      <trkpt lat="48.394251" lon="-4.439193">
        <ele>26.7</ele>
        <time>2020-08-13T13:13:06Z</time>
      </trkpt>
      <trkpt lat="48.394209" lon="-4.43965">
        <ele>27.4</ele>
        <time>2020-08-13T13:13:11Z</time>
      </trkpt>
      <trkpt lat="48.394034" lon="-4.440378">
        <ele>24.6</ele>
        <time>2020-08-13T13:13:19Z</time>
      </trkpt>
      <trkpt lat="48.393939" lon="-4.440661">
        <ele>24.6</ele>
        <time>2020-08-13T13:13:23Z</time>
      </trkpt>
      <trkpt lat="48.393481" lon="-4.441659">
        <ele>23.2</ele>
        <time>2020-08-13T13:13:35Z</time>
      </trkpt>
      <trkpt lat="48.393358" lon="-4.442055">
        <ele>22.4</ele>
        <time>2020-08-13T13:13:40Z</time>
      </trkpt>
      <trkpt lat="48.393255" lon="-4.442483">
        <ele>20.0</ele>
        <time>2020-08-13T13:13:45Z</time>
      </trkpt>
      <trkpt lat="48.393215" lon="-4.443146">
        <ele>18.4</ele>
        <time>2020-08-13T13:13:52Z</time>
      </trkpt>
      <trkpt lat="48.393376" lon="-4.445855">
        <ele>20.4</ele>
        <time>2020-08-13T13:14:21Z</time>
      </trkpt>
      <trkpt lat="48.393288" lon="-4.445869">
        <ele>11.6</ele>
        <time>2020-08-13T13:14:22Z</time>
      </trkpt>
      <trkpt lat="48.392984" lon="-4.445786">
        <ele>13.2</ele>
        <time>2020-08-13T13:14:26Z</time>
      </trkpt>
      <trkpt lat="48.392603" lon="-4.445805">
        <ele>13.2</ele>
        <time>2020-08-13T13:14:31Z</time>
      </trkpt>
      <trkpt lat="48.392531" lon="-4.445744">
        <ele>13.2</ele>
        <time>2020-08-13T13:14:32Z</time>
      </trkpt>
      <trkpt lat="48.392493" lon="-4.445676">
        <ele>7.4</ele>
        <time>2020-08-13T13:14:33Z</time>
      </trkpt>
      <trkpt lat="48.392435" lon="-4.445454">
        <ele>7.4</ele>
        <time>2020-08-13T13:14:35Z</time>
      </trkpt>
      <trkpt lat="48.392375" lon="-4.445405">
        <ele>7.4</ele>
        <time>2020-08-13T13:14:36Z</time>
      </trkpt>
      <trkpt lat="48.392316" lon="-4.445399">
        <ele>7.4</ele>
        <time>2020-08-13T13:14:37Z</time>
      </trkpt>
      <trkpt lat="48.392269" lon="-4.445425">
        <ele>7.4</ele>
        <time>2020-08-13T13:14:38Z</time>
      </trkpt>
      <trkpt lat="48.391749" lon="-4.446061">
        <ele>6.6</ele>
        <time>2020-08-13T13:14:47Z</time>
      </trkpt>
      <trkpt lat="48.391851" lon="-4.446168">
        <ele>6.6</ele>
        <time>2020-08-13T13:14:48Z</time>
      </trkpt>
      <trkpt lat="48.39201" lon="-4.446392">
        <ele>6.6</ele>
        <time>2020-08-13T13:14:51Z</time>
      </trkpt>
      <trkpt lat="48.392082" lon="-4.446529">
        <ele>6.6</ele>
        <time>2020-08-13T13:14:53Z</time>
      </trkpt>
      <trkpt lat="48.39175" lon="-4.446166">
        <ele>6.6</ele>
        <time>2020-08-13T13:14:58Z</time>
      </trkpt>
      <trkpt lat="48.391584" lon="-4.446085">
        <ele>5.2</ele>
        <time>2020-08-13T13:15:00Z</time>
      </trkpt>
      <trkpt lat="48.391573" lon="-4.446094">
        <ele>5.2</ele>
        <time>2020-08-13T13:15:00Z</time>
      </trkpt>
      <trkpt lat="48.391548" lon="-4.446419">
        <ele>5.2</ele>
        <time>2020-08-13T13:15:03Z</time>
      </trkpt>
      <trkpt lat="48.39161" lon="-4.446752">
        <ele>5.0</ele>
        <time>2020-08-13T13:15:06Z</time>
      </trkpt>
      <trkpt lat="48.391636" lon="-4.446992">
        <ele>5.0</ele>
        <time>2020-08-13T13:15:08Z</time>
      </trkpt>
      <trkpt lat="48.391645" lon="-4.447269">
        <ele>5.0</ele>
        <time>2020-08-13T13:15:11Z</time>
      </trkpt>
      <trkpt lat="48.391638" lon="-4.447573">
        <ele>5.0</ele>
        <time>2020-08-13T13:15:14Z</time>
      </trkpt>
      <trkpt lat="48.391572" lon="-4.448091">
        <ele>5.0</ele>
        <time>2020-08-13T13:15:18Z</time>
      </trkpt>
      <trkpt lat="48.391462" lon="-4.448518">
        <ele>5.6</ele>
        <time>2020-08-13T13:15:22Z</time>
      </trkpt>
      <trkpt lat="48.391145" lon="-4.449609">
        <ele>5.8</ele>
        <time>2020-08-13T13:15:33Z</time>
      </trkpt>
      <trkpt lat="48.388917" lon="-4.457175">
        <ele>4.4</ele>
        <time>2020-08-13T13:16:45Z</time>
      </trkpt>
      <trkpt lat="48.388903" lon="-4.457238">
        <ele>4.4</ele>
        <time>2020-08-13T13:16:45Z</time>
      </trkpt>
      <trkpt lat="48.388911" lon="-4.457507">
        <ele>5.2</ele>
        <time>2020-08-13T13:16:48Z</time>
      </trkpt>
      <trkpt lat="48.388957" lon="-4.457689">
        <ele>5.2</ele>
        <time>2020-08-13T13:16:50Z</time>
      </trkpt>
      <trkpt lat="48.389011" lon="-4.457706">
        <ele>5.2</ele>
        <time>2020-08-13T13:16:50Z</time>
      </trkpt>
      <trkpt lat="48.3891" lon="-4.457804">
        <ele>5.2</ele>
        <time>2020-08-13T13:16:52Z</time>
      </trkpt>
      <trkpt lat="48.389143" lon="-4.457956">
        <ele>5.2</ele>
        <time>2020-08-13T13:16:53Z</time>
      </trkpt>
      <trkpt lat="48.389142" lon="-4.45804">
        <ele>5.2</ele>
        <time>2020-08-13T13:16:54Z</time>
      </trkpt>
      <trkpt lat="48.389294" lon="-4.458233">
        <ele>7.8</ele>
        <time>2020-08-13T13:16:57Z</time>
      </trkpt>
      <trkpt lat="48.389617" lon="-4.45841">
        <ele>9.2</ele>
        <time>2020-08-13T13:17:01Z</time>
      </trkpt>
      <trkpt lat="48.389699" lon="-4.458349">
        <ele>9.2</ele>
        <time>2020-08-13T13:17:02Z</time>
      </trkpt>
      <trkpt lat="48.389789" lon="-4.458337">
        <ele>9.2</ele>
        <time>2020-08-13T13:17:04Z</time>
      </trkpt>
      <trkpt lat="48.389877" lon="-4.458375">
        <ele>9.2</ele>
        <time>2020-08-13T13:17:05Z</time>
      </trkpt>
      <trkpt lat="48.389949" lon="-4.458459">
        <ele>9.2</ele>
        <time>2020-08-13T13:17:06Z</time>
      </trkpt>
      <trkpt lat="48.389992" lon="-4.458561">
        <ele>9.2</ele>
        <time>2020-08-13T13:17:07Z</time>
      </trkpt>
      <trkpt lat="48.39001" lon="-4.458678">
        <ele>22.2</ele>
        <time>2020-08-13T13:17:09Z</time>
      </trkpt>
      <trkpt lat="48.390004" lon="-4.45879">
        <ele>22.2</ele>
        <time>2020-08-13T13:17:10Z</time>
      </trkpt>
      <trkpt lat="48.389976" lon="-4.458895">
        <ele>9.2</ele>
        <time>2020-08-13T13:17:12Z</time>
      </trkpt>
      <trkpt lat="48.389928" lon="-4.458981">
        <ele>9.2</ele>
        <time>2020-08-13T13:17:13Z</time>
      </trkpt>
      <trkpt lat="48.389865" lon="-4.459042">
        <ele>9.2</ele>
        <time>2020-08-13T13:17:14Z</time>
      </trkpt>
      <trkpt lat="48.389793" lon="-4.459071">
        <ele>9.2</ele>
        <time>2020-08-13T13:17:15Z</time>
      </trkpt>
      <trkpt lat="48.389653" lon="-4.459707">
        <ele>12.4</ele>
        <time>2020-08-13T13:17:20Z</time>
      </trkpt>
      <trkpt lat="48.389496" lon="-4.460157">
        <ele>18.6</ele>
        <time>2020-08-13T13:17:25Z</time>
      </trkpt>
      <trkpt lat="48.388733" lon="-4.461655">
        <ele>11.6</ele>
        <time>2020-08-13T13:17:41Z</time>
      </trkpt>
      <trkpt lat="48.388406" lon="-4.46239">
        <ele>18.8</ele>
        <time>2020-08-13T13:17:49Z</time>
      </trkpt>
      <trkpt lat="48.388115" lon="-4.463179">
        <ele>10.4</ele>
        <time>2020-08-13T13:17:57Z</time>
      </trkpt>
      <trkpt lat="48.387845" lon="-4.46404">
        <ele>13.8</ele>
        <time>2020-08-13T13:18:06Z</time>
      </trkpt>
      <trkpt lat="48.387594" lon="-4.465006">
        <ele>14.0</ele>
        <time>2020-08-13T13:18:15Z</time>
      </trkpt>
      <trkpt lat="48.387418" lon="-4.465928">
        <ele>6.6</ele>
        <time>2020-08-13T13:18:23Z</time>
      </trkpt>
      <trkpt lat="48.387259" lon="-4.466902">
        <ele>6.8</ele>
        <time>2020-08-13T13:18:32Z</time>
      </trkpt>
      <trkpt lat="48.386841" lon="-4.469781">
        <ele>7.6</ele>
        <time>2020-08-13T13:18:58Z</time>
      </trkpt>
      <trkpt lat="48.38682" lon="-4.470271">
        <ele>7.0</ele>
        <time>2020-08-13T13:19:02Z</time>
      </trkpt>
      <trkpt lat="48.386825" lon="-4.470622">
        <ele>7.0</ele>
        <time>2020-08-13T13:19:05Z</time>
      </trkpt>
      <trkpt lat="48.386867" lon="-4.47085">
        <ele>6.4</ele>
        <time>2020-08-13T13:19:07Z</time>
      </trkpt>
      <trkpt lat="48.386917" lon="-4.470906">
        <ele>6.4</ele>
        <time>2020-08-13T13:19:08Z</time>
      </trkpt>
      <trkpt lat="48.386954" lon="-4.47098">
        <ele>6.4</ele>
        <time>2020-08-13T13:19:09Z</time>
      </trkpt>
      <trkpt lat="48.386975" lon="-4.471068">
        <ele>6.4</ele>
        <time>2020-08-13T13:19:10Z</time>
      </trkpt>
      <trkpt lat="48.386978" lon="-4.471161">
        <ele>6.4</ele>
        <time>2020-08-13T13:19:10Z</time>
      </trkpt>
      <trkpt lat="48.386962" lon="-4.471251">
        <ele>6.4</ele>
        <time>2020-08-13T13:19:11Z</time>
      </trkpt>
      <trkpt lat="48.386918" lon="-4.471349">
        <ele>6.4</ele>
        <time>2020-08-13T13:19:12Z</time>
      </trkpt>
      <trkpt lat="48.386816" lon="-4.471434">
        <ele>6.4</ele>
        <time>2020-08-13T13:19:14Z</time>
      </trkpt>
      <trkpt lat="48.386757" lon="-4.471441">
        <ele>6.4</ele>
        <time>2020-08-13T13:19:15Z</time>
      </trkpt>
      <trkpt lat="48.386783" lon="-4.471909">
        <ele>8.2</ele>
        <time>2020-08-13T13:19:19Z</time>
      </trkpt>
      <trkpt lat="48.386829" lon="-4.47218">
        <ele>8.2</ele>
        <time>2020-08-13T13:19:21Z</time>
      </trkpt>
      <trkpt lat="48.387127" lon="-4.473412">
        <ele>7.8</ele>
        <time>2020-08-13T13:19:33Z</time>
      </trkpt>
      <trkpt lat="48.387198" lon="-4.473851">
        <ele>7.8</ele>
        <time>2020-08-13T13:19:36Z</time>
      </trkpt>
      <trkpt lat="48.387217" lon="-4.474071">
        <ele>7.8</ele>
        <time>2020-08-13T13:19:38Z</time>
      </trkpt>
      <trkpt lat="48.387346" lon="-4.474592">
        <ele>6.2</ele>
        <time>2020-08-13T13:19:46Z</time>
      </trkpt>
      <trkpt lat="48.387456" lon="-4.475344">
        <ele>6.2</ele>
        <time>2020-08-13T13:19:56Z</time>
      </trkpt>
      <trkpt lat="48.387584" lon="-4.476378">
        <ele>20.4</ele>
        <time>2020-08-13T13:20:11Z</time>
      </trkpt>
      <trkpt lat="48.387528" lon="-4.476719">
        <ele>26.6</ele>
        <time>2020-08-13T13:20:16Z</time>
      </trkpt>
      <trkpt lat="48.387176" lon="-4.478274">
        <ele>15.8</ele>
        <time>2020-08-13T13:20:38Z</time>
      </trkpt>
      <trkpt lat="48.386913" lon="-4.479683">
        <ele>23.0</ele>
        <time>2020-08-13T13:20:58Z</time>
      </trkpt>
      <trkpt lat="48.386369" lon="-4.481665">
        <ele>27.8</ele>
        <time>2020-08-13T13:21:27Z</time>
      </trkpt>
      <trkpt lat="48.386355" lon="-4.481744">
        <ele>36.8</ele>
        <time>2020-08-13T13:21:29Z</time>
      </trkpt>
      <trkpt lat="48.386353" lon="-4.481978">
        <ele>36.8</ele>
        <time>2020-08-13T13:21:32Z</time>
      </trkpt>
      <trkpt lat="48.386399" lon="-4.482348">
        <ele>36.8</ele>
        <time>2020-08-13T13:21:37Z</time>
      </trkpt>
      <trkpt lat="48.386812" lon="-4.482154">
        <ele>45.2</ele>
        <time>2020-08-13T13:21:43Z</time>
      </trkpt>
      <trkpt lat="48.386928" lon="-4.482139">
        <ele>45.2</ele>
        <time>2020-08-13T13:21:45Z</time>
      </trkpt>
      <trkpt lat="48.387071" lon="-4.482168">
        <ele>45.2</ele>
        <time>2020-08-13T13:21:47Z</time>
      </trkpt>
      <trkpt lat="48.387144" lon="-4.482147">
        <ele>45.2</ele>
        <time>2020-08-13T13:21:48Z</time>
      </trkpt>
      <trkpt lat="48.387215" lon="-4.482065">
        <ele>45.2</ele>
        <time>2020-08-13T13:21:49Z</time>
      </trkpt>
      <trkpt lat="48.387271" lon="-4.482048">
        <ele>45.2</ele>
        <time>2020-08-13T13:21:50Z</time>
      </trkpt>
      <trkpt lat="48.387712" lon="-4.482245">
        <ele>50.2</ele>
        <time>2020-08-13T13:21:56Z</time>
      </trkpt>
      <trkpt lat="48.387771" lon="-4.482344">
        <ele>50.2</ele>
        <time>2020-08-13T13:21:57Z</time>
      </trkpt>
      <trkpt lat="48.387786" lon="-4.48243">
        <ele>50.2</ele>
        <time>2020-08-13T13:21:58Z</time>
      </trkpt>
      <trkpt lat="48.387777" lon="-4.482541">
        <ele>51.8</ele>
        <time>2020-08-13T13:21:59Z</time>
      </trkpt>
      <trkpt lat="48.387815" lon="-4.482631">
        <ele>51.8</ele>
        <time>2020-08-13T13:22:00Z</time>
      </trkpt>
      <trkpt lat="48.387901" lon="-4.482767">
        <ele>51.8</ele>
        <time>2020-08-13T13:22:01Z</time>
      </trkpt>
      <trkpt lat="48.388041" lon="-4.482937">
        <ele>51.8</ele>
        <time>2020-08-13T13:22:04Z</time>
      </trkpt>
      <trkpt lat="48.388072" lon="-4.48292">
        <ele>51.8</ele>
        <time>2020-08-13T13:22:04Z</time>
      </trkpt>
      <trkpt lat="48.388116" lon="-4.482929">
        <ele>51.8</ele>
        <time>2020-08-13T13:22:05Z</time>
      </trkpt>
      <trkpt lat="48.388151" lon="-4.482972">
        <ele>51.8</ele>
        <time>2020-08-13T13:22:06Z</time>
      </trkpt>
      <trkpt lat="48.388165" lon="-4.48303">
        <ele>51.8</ele>
        <time>2020-08-13T13:22:06Z</time>
      </trkpt>
      <trkpt lat="48.388158" lon="-4.483091">
        <ele>51.8</ele>
        <time>2020-08-13T13:22:07Z</time>
      </trkpt>
      <trkpt lat="48.38822" lon="-4.483171">
        <ele>51.8</ele>
        <time>2020-08-13T13:22:08Z</time>
      </trkpt>
      <trkpt lat="48.388709" lon="-4.483729">
        <ele>56.0</ele>
        <time>2020-08-13T13:22:15Z</time>
      </trkpt>
      <trkpt lat="48.388843" lon="-4.483857">
        <ele>56.0</ele>
        <time>2020-08-13T13:22:17Z</time>
      </trkpt>
      <trkpt lat="48.388894" lon="-4.483892">
        <ele>56.0</ele>
        <time>2020-08-13T13:22:18Z</time>
      </trkpt>
      <trkpt lat="48.388958" lon="-4.484014">
        <ele>56.0</ele>
        <time>2020-08-13T13:22:20Z</time>
      </trkpt>
      <trkpt lat="48.389288" lon="-4.48444">
        <ele>56.4</ele>
        <time>2020-08-13T13:22:27Z</time>
      </trkpt>
      <trkpt lat="48.390532" lon="-4.486702">
        <ele>49.6</ele>
        <time>2020-08-13T13:22:57Z</time>
      </trkpt>
      <trkpt lat="48.390721" lon="-4.486965">
        <ele>49.6</ele>
        <time>2020-08-13T13:23:01Z</time>
      </trkpt>
      <trkpt lat="48.391402" lon="-4.488145">
        <ele>51.6</ele>
        <time>2020-08-13T13:23:18Z</time>
      </trkpt>
      <trkpt lat="48.391475" lon="-4.488167">
        <ele>51.6</ele>
        <time>2020-08-13T13:23:19Z</time>
      </trkpt>
      <trkpt lat="48.391508" lon="-4.488213">
        <ele>51.6</ele>
        <time>2020-08-13T13:23:20Z</time>
      </trkpt>
      <trkpt lat="48.391526" lon="-4.488275">
        <ele>51.6</ele>
        <time>2020-08-13T13:23:20Z</time>
      </trkpt>
      <trkpt lat="48.39152" lon="-4.488374">
        <ele>48.6</ele>
        <time>2020-08-13T13:23:21Z</time>
      </trkpt>
      <trkpt lat="48.391536" lon="-4.488433">
        <ele>48.6</ele>
        <time>2020-08-13T13:23:22Z</time>
      </trkpt>
      <trkpt lat="48.391697" lon="-4.488807">
        <ele>49.8</ele>
        <time>2020-08-13T13:23:26Z</time>
      </trkpt>
      <trkpt lat="48.391741" lon="-4.488952">
        <ele>49.8</ele>
        <time>2020-08-13T13:23:28Z</time>
      </trkpt>
      <trkpt lat="48.392045" lon="-4.48956">
        <ele>46.6</ele>
        <time>2020-08-13T13:23:35Z</time>
      </trkpt>
      <trkpt lat="48.393861" lon="-4.492974">
        <ele>39.6</ele>
        <time>2020-08-13T13:24:19Z</time>
      </trkpt>
      <trkpt lat="48.394063" lon="-4.493348">
        <ele>38.0</ele>
        <time>2020-08-13T13:24:23Z</time>
      </trkpt>
      <trkpt lat="48.394164" lon="-4.493586">
        <ele>38.0</ele>
        <time>2020-08-13T13:24:25Z</time>
      </trkpt>
      <trkpt lat="48.394086" lon="-4.493748">
        <ele>38.0</ele>
        <time>2020-08-13T13:24:27Z</time>
      </trkpt>
      <trkpt lat="48.393852" lon="-4.494756">
        <ele>35.2</ele>
        <time>2020-08-13T13:24:36Z</time>
      </trkpt>
      <trkpt lat="48.392755" lon="-4.499981">
        <ele>4.2</ele>
        <time>2020-08-13T13:25:24Z</time>
      </trkpt>
      <trkpt lat="48.391996" lon="-4.503769">
        <ele>50.8</ele>
        <time>2020-08-13T13:26:00Z</time>
      </trkpt>
      <trkpt lat="48.392032" lon="-4.503849">
        <ele>50.8</ele>
        <time>2020-08-13T13:26:01Z</time>
      </trkpt>
      <trkpt lat="48.392039" lon="-4.503991">
        <ele>50.8</ele>
        <time>2020-08-13T13:26:03Z</time>
      </trkpt>
      <trkpt lat="48.391988" lon="-4.504111">
        <ele>50.8</ele>
        <time>2020-08-13T13:26:05Z</time>
      </trkpt>
      <trkpt lat="48.391946" lon="-4.504146">
        <ele>50.8</ele>
        <time>2020-08-13T13:26:06Z</time>
      </trkpt>
      <trkpt lat="48.391916" lon="-4.504212">
        <ele>57.0</ele>
        <time>2020-08-13T13:26:07Z</time>
      </trkpt>
      <trkpt lat="48.391743" lon="-4.504846">
        <ele>57.0</ele>
        <time>2020-08-13T13:26:17Z</time>
      </trkpt>
      <trkpt lat="48.391623" lon="-4.505207">
        <ele>55.4</ele>
        <time>2020-08-13T13:26:22Z</time>
      </trkpt>
      <trkpt lat="48.391568" lon="-4.505301">
        <ele>55.4</ele>
        <time>2020-08-13T13:26:24Z</time>
      </trkpt>
      <trkpt lat="48.391418" lon="-4.505661">
        <ele>55.4</ele>
        <time>2020-08-13T13:26:28Z</time>
      </trkpt>
      <trkpt lat="48.391273" lon="-4.505921">
        <ele>54.8</ele>
        <time>2020-08-13T13:26:32Z</time>
      </trkpt>
      <trkpt lat="48.391146" lon="-4.506095">
        <ele>54.8</ele>
        <time>2020-08-13T13:26:35Z</time>
      </trkpt>
      <trkpt lat="48.390917" lon="-4.506355">
        <ele>54.8</ele>
        <time>2020-08-13T13:26:39Z</time>
      </trkpt>
      <trkpt lat="48.390852" lon="-4.506396">
        <ele>54.8</ele>
        <time>2020-08-13T13:26:40Z</time>
      </trkpt>
      <trkpt lat="48.390111" lon="-4.507235">
        <ele>52.2</ele>
        <time>2020-08-13T13:26:55Z</time>
      </trkpt>
      <trkpt lat="48.38984" lon="-4.507632">
        <ele>55.6</ele>
        <time>2020-08-13T13:27:01Z</time>
      </trkpt>
      <trkpt lat="48.389377" lon="-4.508418">
        <ele>58.6</ele>
        <time>2020-08-13T13:27:13Z</time>
      </trkpt>
      <trkpt lat="48.389056" lon="-4.509214">
        <ele>63.4</ele>
        <time>2020-08-13T13:27:23Z</time>
      </trkpt>
      <trkpt lat="48.389079" lon="-4.509241">
        <ele>63.4</ele>
        <time>2020-08-13T13:27:23Z</time>
      </trkpt>
      <trkpt lat="48.389099" lon="-4.509316">
        <ele>63.4</ele>
        <time>2020-08-13T13:27:24Z</time>
      </trkpt>
      <trkpt lat="48.389066" lon="-4.509415">
        <ele>63.4</ele>
        <time>2020-08-13T13:27:25Z</time>
      </trkpt>
      <trkpt lat="48.389009" lon="-4.509435">
        <ele>63.4</ele>
        <time>2020-08-13T13:27:25Z</time>
      </trkpt>
      <trkpt lat="48.388977" lon="-4.509416">
        <ele>63.4</ele>
        <time>2020-08-13T13:27:26Z</time>
      </trkpt>
      <trkpt lat="48.387996" lon="-4.512317">
        <ele>72.2</ele>
        <time>2020-08-13T13:27:56Z</time>
      </trkpt>
      <trkpt lat="48.387722" lon="-4.51291">
        <ele>75.4</ele>
        <time>2020-08-13T13:28:02Z</time>
      </trkpt>
      <trkpt lat="48.386617" lon="-4.515027">
        <ele>82.4</ele>
        <time>2020-08-13T13:28:27Z</time>
      </trkpt>
      <trkpt lat="48.386592" lon="-4.515127">
        <ele>82.4</ele>
        <time>2020-08-13T13:28:28Z</time>
      </trkpt>
      <trkpt lat="48.386585" lon="-4.515269">
        <ele>82.4</ele>
        <time>2020-08-13T13:28:29Z</time>
      </trkpt>
      <trkpt lat="48.386612" lon="-4.515326">
        <ele>82.4</ele>
        <time>2020-08-13T13:28:30Z</time>
      </trkpt>
      <trkpt lat="48.386629" lon="-4.51546">
        <ele>82.4</ele>
        <time>2020-08-13T13:28:31Z</time>
      </trkpt>
      <trkpt lat="48.3866" lon="-4.515587">
        <ele>82.4</ele>
        <time>2020-08-13T13:28:32Z</time>
      </trkpt>
      <trkpt lat="48.386545" lon="-4.515663">
        <ele>82.4</ele>
        <time>2020-08-13T13:28:33Z</time>
      </trkpt>
      <trkpt lat="48.386437" lon="-4.515694">
        <ele>82.4</ele>
        <time>2020-08-13T13:28:35Z</time>
      </trkpt>
      <trkpt lat="48.38636" lon="-4.515647">
        <ele>82.4</ele>
        <time>2020-08-13T13:28:36Z</time>
      </trkpt>
      <trkpt lat="48.386329" lon="-4.515603">
        <ele>82.4</ele>
        <time>2020-08-13T13:28:37Z</time>
      </trkpt>
      <trkpt lat="48.38623" lon="-4.515573">
        <ele>82.4</ele>
        <time>2020-08-13T13:28:38Z</time>
      </trkpt>
      <trkpt lat="48.386143" lon="-4.515604">
        <ele>82.4</ele>
        <time>2020-08-13T13:28:39Z</time>
      </trkpt>
      <trkpt lat="48.385462" lon="-4.516635">
        <ele>85.6</ele>
        <time>2020-08-13T13:28:53Z</time>
      </trkpt>
      <trkpt lat="48.385081" lon="-4.516795">
        <ele>88.2</ele>
        <time>2020-08-13T13:28:59Z</time>
      </trkpt>
      <trkpt lat="48.385381" lon="-4.517903">
        <ele>89.6</ele>
        <time>2020-08-13T13:29:09Z</time>
      </trkpt>
      <trkpt lat="48.384481" lon="-4.518046">
        <ele>89.0</ele>
        <time>2020-08-13T13:29:21Z</time>
      </trkpt>
      <trkpt lat="48.38456" lon="-4.518912">
        <ele>89.4</ele>
        <time>2020-08-13T13:29:29Z</time>
      </trkpt>
      <trkpt lat="48.384188" lon="-4.518984">
        <ele>89.4</ele>
        <time>2020-08-13T13:29:34Z</time>
      </trkpt>
      <trkpt lat="48.384081" lon="-4.519583">
        <ele>89.0</ele>
        <time>2020-08-13T13:29:39Z</time>
      </trkpt>
      <trkpt lat="48.382996" lon="-4.519579">
        <ele>84.8</ele>
        <time>2020-08-13T13:29:53Z</time>
      </trkpt>
      <trkpt lat="48.382977" lon="-4.519998">
        <ele>84.8</ele>
        <time>2020-08-13T13:29:57Z</time>
      </trkpt>
      <trkpt lat="48.38267" lon="-4.521409">
        <ele>88.8</ele>
        <time>2020-08-13T13:30:10Z</time>
      </trkpt>
      <trkpt lat="48.382346" lon="-4.522751">
        <ele>84.2</ele>
        <time>2020-08-13T13:30:23Z</time>
      </trkpt>
      <trkpt lat="48.38216" lon="-4.523635">
        <ele>87.4</ele>
        <time>2020-08-13T13:30:31Z</time>
      </trkpt>
      <trkpt lat="48.381906" lon="-4.525284">
        <ele>92.8</ele>
        <time>2020-08-13T13:30:45Z</time>
      </trkpt>
      <trkpt lat="48.381589" lon="-4.527197">
        <ele>95.0</ele>
        <time>2020-08-13T13:31:03Z</time>
      </trkpt>
      <trkpt lat="48.381609" lon="-4.527205">
        <ele>95.0</ele>
        <time>2020-08-13T13:31:03Z</time>
      </trkpt>
      <trkpt lat="48.381645" lon="-4.527277">
        <ele>95.0</ele>
        <time>2020-08-13T13:31:04Z</time>
      </trkpt>
      <trkpt lat="48.381645" lon="-4.527309">
        <ele>95.0</ele>
        <time>2020-08-13T13:31:04Z</time>
      </trkpt>
      <trkpt lat="48.381638" lon="-4.52734">
        <ele>95.0</ele>
        <time>2020-08-13T13:31:05Z</time>
      </trkpt>
      <trkpt lat="48.381586" lon="-4.52739">
        <ele>95.0</ele>
        <time>2020-08-13T13:31:05Z</time>
      </trkpt>
      <trkpt lat="48.381564" lon="-4.527387">
        <ele>95.0</ele>
        <time>2020-08-13T13:31:06Z</time>
      </trkpt>
      <trkpt lat="48.381062" lon="-4.530717">
        <ele>96.4</ele>
        <time>2020-08-13T13:31:38Z</time>
      </trkpt>
      <trkpt lat="48.380976" lon="-4.531107">
        <ele>94.2</ele>
        <time>2020-08-13T13:31:42Z</time>
      </trkpt>
      <trkpt lat="48.380656" lon="-4.532113">
        <ele>91.4</ele>
        <time>2020-08-13T13:31:53Z</time>
      </trkpt>
      <trkpt lat="48.381011" lon="-4.53234">
        <ele>92.4</ele>
        <time>2020-08-13T13:31:58Z</time>
      </trkpt>
      <trkpt lat="48.38076" lon="-4.533604">
        <ele>88.6</ele>
        <time>2020-08-13T13:32:09Z</time>
      </trkpt>
      <trkpt lat="48.380271" lon="-4.535911">
        <ele>93.2</ele>
        <time>2020-08-13T13:32:30Z</time>
      </trkpt>
      <trkpt lat="48.379921" lon="-4.535899">
        <ele>91.8</ele>
        <time>2020-08-13T13:32:35Z</time>
      </trkpt>
      <trkpt lat="48.379735" lon="-4.535941">
        <ele>91.8</ele>
        <time>2020-08-13T13:32:38Z</time>
      </trkpt>
      <trkpt lat="48.379701" lon="-4.535978">
        <ele>91.8</ele>
        <time>2020-08-13T13:32:38Z</time>
      </trkpt>
      <trkpt lat="48.379613" lon="-4.536426">
        <ele>91.8</ele>
        <time>2020-08-13T13:32:43Z</time>
      </trkpt>
      <trkpt lat="48.3797" lon="-4.538236">
        <ele>92.8</ele>
        <time>2020-08-13T13:33:02Z</time>
      </trkpt>
      <trkpt lat="48.379781" lon="-4.539491">
        <ele>93.2</ele>
        <time>2020-08-13T13:33:15Z</time>
      </trkpt>
      <trkpt lat="48.379734" lon="-4.541228">
        <ele>93.0</ele>
        <time>2020-08-13T13:33:34Z</time>
      </trkpt>
      <trkpt lat="48.379691" lon="-4.541633">
        <ele>93.0</ele>
        <time>2020-08-13T13:33:38Z</time>
      </trkpt>
      <trkpt lat="48.379608" lon="-4.541915">
        <ele>92.8</ele>
        <time>2020-08-13T13:33:41Z</time>
      </trkpt>
      <trkpt lat="48.379322" lon="-4.542691">
        <ele>92.2</ele>
        <time>2020-08-13T13:33:51Z</time>
      </trkpt>
      <trkpt lat="48.379302" lon="-4.54281">
        <ele>92.2</ele>
        <time>2020-08-13T13:33:52Z</time>
      </trkpt>
      <trkpt lat="48.379253" lon="-4.542962">
        <ele>92.2</ele>
        <time>2020-08-13T13:33:54Z</time>
      </trkpt>
      <trkpt lat="48.379345" lon="-4.543267">
        <ele>92.2</ele>
        <time>2020-08-13T13:33:57Z</time>
      </trkpt>
      <trkpt lat="48.379363" lon="-4.54341">
        <ele>91.2</ele>
        <time>2020-08-13T13:33:59Z</time>
      </trkpt>
      <trkpt lat="48.379354" lon="-4.543462">
        <ele>91.2</ele>
        <time>2020-08-13T13:33:59Z</time>
      </trkpt>
      <trkpt lat="48.379084" lon="-4.543698">
        <ele>90.0</ele>
        <time>2020-08-13T13:34:04Z</time>
      </trkpt>
      <trkpt lat="48.378882" lon="-4.543924">
        <ele>90.0</ele>
        <time>2020-08-13T13:34:08Z</time>
      </trkpt>
      <trkpt lat="48.378341" lon="-4.54464">
        <ele>89.2</ele>
        <time>2020-08-13T13:34:20Z</time>
      </trkpt>
      <trkpt lat="48.378058" lon="-4.545319">
        <ele>86.6</ele>
        <time>2020-08-13T13:34:28Z</time>
      </trkpt>
      <trkpt lat="48.377889" lon="-4.545567">
        <ele>86.6</ele>
        <time>2020-08-13T13:34:32Z</time>
      </trkpt>
      <trkpt lat="48.377459" lon="-4.54659">
        <ele>80.6</ele>
        <time>2020-08-13T13:34:45Z</time>
      </trkpt>
      <trkpt lat="48.377263" lon="-4.547105">
        <ele>80.0</ele>
        <time>2020-08-13T13:34:51Z</time>
      </trkpt>
      <trkpt lat="48.377144" lon="-4.547478">
        <ele>80.0</ele>
        <time>2020-08-13T13:34:55Z</time>
      </trkpt>
      <trkpt lat="48.377039" lon="-4.54791">
        <ele>80.8</ele>
        <time>2020-08-13T13:35:00Z</time>
      </trkpt>
      <trkpt lat="48.376958" lon="-4.548424">
        <ele>82.4</ele>
        <time>2020-08-13T13:35:06Z</time>
      </trkpt>
      <trkpt lat="48.376918" lon="-4.548963">
        <ele>82.4</ele>
        <time>2020-08-13T13:35:11Z</time>
      </trkpt>
      <trkpt lat="48.376883" lon="-4.551487">
        <ele>84.0</ele>
        <time>2020-08-13T13:35:38Z</time>
      </trkpt>
      <trkpt lat="48.376828" lon="-4.551858">
        <ele>84.4</ele>
        <time>2020-08-13T13:35:42Z</time>
      </trkpt>
      <trkpt lat="48.376685" lon="-4.552547">
        <ele>85.2</ele>
        <time>2020-08-13T13:35:49Z</time>
      </trkpt>
      <trkpt lat="48.376558" lon="-4.552998">
        <ele>86.0</ele>
        <time>2020-08-13T13:35:55Z</time>
      </trkpt>
      <trkpt lat="48.376396" lon="-4.553436">
        <ele>87.4</ele>
        <time>2020-08-13T13:36:00Z</time>
      </trkpt>
      <trkpt lat="48.376112" lon="-4.554166">
        <ele>87.4</ele>
        <time>2020-08-13T13:36:09Z</time>
      </trkpt>
      <trkpt lat="48.37594" lon="-4.554517">
        <ele>88.0</ele>
        <time>2020-08-13T13:36:13Z</time>
      </trkpt>
      <trkpt lat="48.374917" lon="-4.557066">
        <ele>90.4</ele>
        <time>2020-08-13T13:36:45Z</time>
      </trkpt>
      <trkpt lat="48.374788" lon="-4.557427">
        <ele>90.4</ele>
        <time>2020-08-13T13:36:49Z</time>
      </trkpt>
      <trkpt lat="48.37474" lon="-4.55762">
        <ele>90.2</ele>
        <time>2020-08-13T13:36:51Z</time>
      </trkpt>
      <trkpt lat="48.374748" lon="-4.557686">
        <ele>90.2</ele>
        <time>2020-08-13T13:36:52Z</time>
      </trkpt>
      <trkpt lat="48.374736" lon="-4.557768">
        <ele>90.2</ele>
        <time>2020-08-13T13:36:53Z</time>
      </trkpt>
      <trkpt lat="48.37471" lon="-4.557822">
        <ele>90.2</ele>
        <time>2020-08-13T13:36:53Z</time>
      </trkpt>
      <trkpt lat="48.374643" lon="-4.557874">
        <ele>90.2</ele>
        <time>2020-08-13T13:36:54Z</time>
      </trkpt>
      <trkpt lat="48.374584" lon="-4.557987">
        <ele>90.2</ele>
        <time>2020-08-13T13:36:56Z</time>
      </trkpt>
      <trkpt lat="48.373812" lon="-4.560152">
        <ele>87.6</ele>
        <time>2020-08-13T13:37:18Z</time>
      </trkpt>
      <trkpt lat="48.373658" lon="-4.560625">
        <ele>87.6</ele>
        <time>2020-08-13T13:37:23Z</time>
      </trkpt>
      <trkpt lat="48.373545" lon="-4.561183">
        <ele>86.2</ele>
        <time>2020-08-13T13:37:29Z</time>
      </trkpt>
      <trkpt lat="48.373585" lon="-4.561292">
        <ele>86.2</ele>
        <time>2020-08-13T13:37:29Z</time>
      </trkpt>
      <trkpt lat="48.373605" lon="-4.561413">
        <ele>86.2</ele>
        <time>2020-08-13T13:37:30Z</time>
      </trkpt>
      <trkpt lat="48.373604" lon="-4.561538">
        <ele>86.2</ele>
        <time>2020-08-13T13:37:31Z</time>
      </trkpt>
      <trkpt lat="48.373562" lon="-4.561714">
        <ele>84.8</ele>
        <time>2020-08-13T13:37:32Z</time>
      </trkpt>
      <trkpt lat="48.373514" lon="-4.561807">
        <ele>84.8</ele>
        <time>2020-08-13T13:37:32Z</time>
      </trkpt>
      <trkpt lat="48.373424" lon="-4.561903">
        <ele>84.8</ele>
        <time>2020-08-13T13:37:33Z</time>
      </trkpt>
      <trkpt lat="48.373282" lon="-4.561949">
        <ele>83.4</ele>
        <time>2020-08-13T13:37:34Z</time>
      </trkpt>
      <trkpt lat="48.373249" lon="-4.561989">
        <ele>83.4</ele>
        <time>2020-08-13T13:37:35Z</time>
      </trkpt>
      <trkpt lat="48.373152" lon="-4.562145">
        <ele>83.4</ele>
        <time>2020-08-13T13:37:36Z</time>
      </trkpt>
      <trkpt lat="48.372915" lon="-4.562702">
        <ele>80.8</ele>
        <time>2020-08-13T13:37:39Z</time>
      </trkpt>
      <trkpt lat="48.372483" lon="-4.563914">
        <ele>76.0</ele>
        <time>2020-08-13T13:37:46Z</time>
      </trkpt>
      <trkpt lat="48.372026" lon="-4.565277">
        <ele>72.4</ele>
        <time>2020-08-13T13:37:54Z</time>
      </trkpt>
      <trkpt lat="48.371093" lon="-4.568274">
        <ele>70.4</ele>
        <time>2020-08-13T13:38:12Z</time>
      </trkpt>
      <trkpt lat="48.370382" lon="-4.570452">
        <ele>69.6</ele>
        <time>2020-08-13T13:38:24Z</time>
      </trkpt>
      <trkpt lat="48.369956" lon="-4.571652">
        <ele>63.2</ele>
        <time>2020-08-13T13:38:32Z</time>
      </trkpt>
      <trkpt lat="48.369642" lon="-4.57248">
        <ele>60.6</ele>
        <time>2020-08-13T13:38:37Z</time>
      </trkpt>
      <trkpt lat="48.368426" lon="-4.575523">
        <ele>60.0</ele>
        <time>2020-08-13T13:38:55Z</time>
      </trkpt>
      <trkpt lat="48.367945" lon="-4.576774">
        <ele>56.2</ele>
        <time>2020-08-13T13:39:03Z</time>
      </trkpt>
      <trkpt lat="48.367664" lon="-4.577558">
        <ele>61.1</ele>
        <time>2020-08-13T13:39:08Z</time>
      </trkpt>
      <trkpt lat="48.367664" lon="-4.577558">
        <ele>61.1</ele>
        <time>2020-08-13T13:39:08Z</time>
      </trkpt>
      <trkpt lat="48.365717" lon="-4.582977">
        <ele>79.8</ele>
        <time>2020-08-13T13:39:35Z</time>
      </trkpt>
      <trkpt lat="48.365247" lon="-4.584426">
        <ele>85.8</ele>
        <time>2020-08-13T13:39:42Z</time>
      </trkpt>
      <trkpt lat="48.365055" lon="-4.585109">
        <ele>88.0</ele>
        <time>2020-08-13T13:39:45Z</time>
      </trkpt>
      <trkpt lat="48.364879" lon="-4.585811">
        <ele>89.4</ele>
        <time>2020-08-13T13:39:48Z</time>
      </trkpt>
      <trkpt lat="48.364682" lon="-4.58676">
        <ele>90.4</ele>
        <time>2020-08-13T13:39:52Z</time>
      </trkpt>
      <trkpt lat="48.364537" lon="-4.587568">
        <ele>90.0</ele>
        <time>2020-08-13T13:39:56Z</time>
      </trkpt>
      <trkpt lat="48.36433" lon="-4.588928">
        <ele>89.8</ele>
        <time>2020-08-13T13:40:02Z</time>
      </trkpt>
      <trkpt lat="48.363338" lon="-4.596406">
        <ele>85.6</ele>
        <time>2020-08-13T13:40:36Z</time>
      </trkpt>
      <trkpt lat="48.363052" lon="-4.598959">
        <ele>87.4</ele>
        <time>2020-08-13T13:40:47Z</time>
      </trkpt>
      <trkpt lat="48.362916" lon="-4.599821">
        <ele>87.0</ele>
        <time>2020-08-13T13:40:51Z</time>
      </trkpt>
      <trkpt lat="48.362894" lon="-4.600258">
        <ele>86.6</ele>
        <time>2020-08-13T13:40:53Z</time>
      </trkpt>
      <trkpt lat="48.362932" lon="-4.600322">
        <ele>86.6</ele>
        <time>2020-08-13T13:40:53Z</time>
      </trkpt>
      <trkpt lat="48.362949" lon="-4.600404">
        <ele>86.6</ele>
        <time>2020-08-13T13:40:54Z</time>
      </trkpt>
      <trkpt lat="48.362941" lon="-4.600488">
        <ele>86.6</ele>
        <time>2020-08-13T13:40:54Z</time>
      </trkpt>
      <trkpt lat="48.362907" lon="-4.600568">
        <ele>86.6</ele>
        <time>2020-08-13T13:40:54Z</time>
      </trkpt>
      <trkpt lat="48.362852" lon="-4.600615">
        <ele>86.6</ele>
        <time>2020-08-13T13:40:55Z</time>
      </trkpt>
      <trkpt lat="48.362773" lon="-4.601043">
        <ele>86.0</ele>
        <time>2020-08-13T13:40:57Z</time>
      </trkpt>
      <trkpt lat="48.362458" lon="-4.603435">
        <ele>87.8</ele>
        <time>2020-08-13T13:41:10Z</time>
      </trkpt>
      <trkpt lat="48.362039" lon="-4.606355">
        <ele>87.6</ele>
        <time>2020-08-13T13:41:26Z</time>
      </trkpt>
      <trkpt lat="48.361903" lon="-4.607531">
        <ele>87.6</ele>
        <time>2020-08-13T13:41:32Z</time>
      </trkpt>
      <trkpt lat="48.3618" lon="-4.609269">
        <ele>88.0</ele>
        <time>2020-08-13T13:41:41Z</time>
      </trkpt>
      <trkpt lat="48.361758" lon="-4.610284">
        <ele>88.6</ele>
        <time>2020-08-13T13:41:46Z</time>
      </trkpt>
      <trkpt lat="48.361594" lon="-4.612782">
        <ele>90.6</ele>
        <time>2020-08-13T13:41:59Z</time>
      </trkpt>
      <trkpt lat="48.361635" lon="-4.613661">
        <ele>91.2</ele>
        <time>2020-08-13T13:42:04Z</time>
      </trkpt>
      <trkpt lat="48.361785" lon="-4.615744">
        <ele>91.0</ele>
        <time>2020-08-13T13:42:15Z</time>
      </trkpt>
      <trkpt lat="48.361893" lon="-4.617872">
        <ele>89.0</ele>
        <time>2020-08-13T13:42:26Z</time>
      </trkpt>
      <trkpt lat="48.36191" lon="-4.618337">
        <ele>88.0</ele>
        <time>2020-08-13T13:42:28Z</time>
      </trkpt>
      <trkpt lat="48.361875" lon="-4.618895">
        <ele>88.0</ele>
        <time>2020-08-13T13:42:31Z</time>
      </trkpt>
      <trkpt lat="48.361802" lon="-4.619319">
        <ele>87.0</ele>
        <time>2020-08-13T13:42:34Z</time>
      </trkpt>
      <trkpt lat="48.361715" lon="-4.619595">
        <ele>87.0</ele>
        <time>2020-08-13T13:42:35Z</time>
      </trkpt>
      <trkpt lat="48.361293" lon="-4.620531">
        <ele>87.2</ele>
        <time>2020-08-13T13:42:41Z</time>
      </trkpt>
      <trkpt lat="48.361175" lon="-4.620707">
        <ele>87.2</ele>
        <time>2020-08-13T13:42:42Z</time>
      </trkpt>
      <trkpt lat="48.360509" lon="-4.62151">
        <ele>86.8</ele>
        <time>2020-08-13T13:42:49Z</time>
      </trkpt>
      <trkpt lat="48.36024" lon="-4.621894">
        <ele>86.4</ele>
        <time>2020-08-13T13:42:52Z</time>
      </trkpt>
      <trkpt lat="48.360125" lon="-4.622083">
        <ele>86.4</ele>
        <time>2020-08-13T13:42:53Z</time>
      </trkpt>
      <trkpt lat="48.359887" lon="-4.62255">
        <ele>84.8</ele>
        <time>2020-08-13T13:42:56Z</time>
      </trkpt>
      <trkpt lat="48.359709" lon="-4.622944">
        <ele>84.8</ele>
        <time>2020-08-13T13:42:59Z</time>
      </trkpt>
      <trkpt lat="48.359555" lon="-4.623387">
        <ele>83.8</ele>
        <time>2020-08-13T13:43:01Z</time>
      </trkpt>
      <trkpt lat="48.35943" lon="-4.623861">
        <ele>83.8</ele>
        <time>2020-08-13T13:43:04Z</time>
      </trkpt>
      <trkpt lat="48.35907" lon="-4.625326">
        <ele>81.2</ele>
        <time>2020-08-13T13:43:12Z</time>
      </trkpt>
      <trkpt lat="48.359013" lon="-4.625666">
        <ele>81.2</ele>
        <time>2020-08-13T13:43:14Z</time>
      </trkpt>
      <trkpt lat="48.358955" lon="-4.62634">
        <ele>80.0</ele>
        <time>2020-08-13T13:43:18Z</time>
      </trkpt>
      <trkpt lat="48.358733" lon="-4.630499">
        <ele>77.4</ele>
        <time>2020-08-13T13:43:39Z</time>
      </trkpt>
      <trkpt lat="48.358719" lon="-4.631266">
        <ele>77.6</ele>
        <time>2020-08-13T13:43:43Z</time>
      </trkpt>
      <trkpt lat="48.358807" lon="-4.637011">
        <ele>73.0</ele>
        <time>2020-08-13T13:44:13Z</time>
      </trkpt>
      <trkpt lat="48.358832" lon="-4.638127">
        <ele>73.8</ele>
        <time>2020-08-13T13:44:19Z</time>
      </trkpt>
      <trkpt lat="48.358859" lon="-4.63866">
        <ele>74.4</ele>
        <time>2020-08-13T13:44:22Z</time>
      </trkpt>
      <trkpt lat="48.358927" lon="-4.639374">
        <ele>75.0</ele>
        <time>2020-08-13T13:44:26Z</time>
      </trkpt>
      <trkpt lat="48.359532" lon="-4.643462">
        <ele>78.0</ele>
        <time>2020-08-13T13:44:47Z</time>
      </trkpt>
      <trkpt lat="48.359667" lon="-4.644238">
        <ele>80.8</ele>
        <time>2020-08-13T13:44:52Z</time>
      </trkpt>
      <trkpt lat="48.359904" lon="-4.645215">
        <ele>83.0</ele>
        <time>2020-08-13T13:44:57Z</time>
      </trkpt>
      <trkpt lat="48.36027" lon="-4.646611">
        <ele>83.6</ele>
        <time>2020-08-13T13:45:05Z</time>
      </trkpt>
      <trkpt lat="48.360452" lon="-4.647193">
        <ele>83.2</ele>
        <time>2020-08-13T13:45:08Z</time>
      </trkpt>
      <trkpt lat="48.361692" lon="-4.650641">
        <ele>77.2</ele>
        <time>2020-08-13T13:45:29Z</time>
      </trkpt>
      <trkpt lat="48.362504" lon="-4.652757">
        <ele>75.4</ele>
        <time>2020-08-13T13:45:41Z</time>
      </trkpt>
      <trkpt lat="48.362892" lon="-4.653857">
        <ele>74.6</ele>
        <time>2020-08-13T13:45:48Z</time>
      </trkpt>
      <trkpt lat="48.36321" lon="-4.65468">
        <ele>74.6</ele>
        <time>2020-08-13T13:45:53Z</time>
      </trkpt>
      <trkpt lat="48.363402" lon="-4.655413">
        <ele>75.2</ele>
        <time>2020-08-13T13:45:57Z</time>
      </trkpt>
      <trkpt lat="48.363434" lon="-4.655663">
        <ele>75.2</ele>
        <time>2020-08-13T13:45:58Z</time>
      </trkpt>
      <trkpt lat="48.36348" lon="-4.656379">
        <ele>74.6</ele>
        <time>2020-08-13T13:46:02Z</time>
      </trkpt>
      <trkpt lat="48.363481" lon="-4.656684">
        <ele>74.0</ele>
        <time>2020-08-13T13:46:04Z</time>
      </trkpt>
      <trkpt lat="48.363309" lon="-4.659581">
        <ele>68.6</ele>
        <time>2020-08-13T13:46:19Z</time>
      </trkpt>
      <trkpt lat="48.363315" lon="-4.65993">
        <ele>68.6</ele>
        <time>2020-08-13T13:46:21Z</time>
      </trkpt>
      <trkpt lat="48.363343" lon="-4.660342">
        <ele>66.6</ele>
        <time>2020-08-13T13:46:23Z</time>
      </trkpt>
      <trkpt lat="48.363402" lon="-4.660689">
        <ele>66.6</ele>
        <time>2020-08-13T13:46:25Z</time>
      </trkpt>
      <trkpt lat="48.36348" lon="-4.660986">
        <ele>64.0</ele>
        <time>2020-08-13T13:46:26Z</time>
      </trkpt>
      <trkpt lat="48.363769" lon="-4.6619">
        <ele>62.8</ele>
        <time>2020-08-13T13:46:32Z</time>
      </trkpt>
      <trkpt lat="48.363961" lon="-4.662405">
        <ele>62.8</ele>
        <time>2020-08-13T13:46:35Z</time>
      </trkpt>
      <trkpt lat="48.364083" lon="-4.662906">
        <ele>62.0</ele>
        <time>2020-08-13T13:46:37Z</time>
      </trkpt>
      <trkpt lat="48.36415" lon="-4.663265">
        <ele>62.0</ele>
        <time>2020-08-13T13:46:39Z</time>
      </trkpt>
      <trkpt lat="48.364175" lon="-4.663648">
        <ele>64.2</ele>
        <time>2020-08-13T13:46:41Z</time>
      </trkpt>
      <trkpt lat="48.364184" lon="-4.663951">
        <ele>64.2</ele>
        <time>2020-08-13T13:46:43Z</time>
      </trkpt>
      <trkpt lat="48.364115" lon="-4.66709">
        <ele>57.8</ele>
        <time>2020-08-13T13:46:59Z</time>
      </trkpt>
      <trkpt lat="48.364082" lon="-4.667802">
        <ele>57.4</ele>
        <time>2020-08-13T13:47:03Z</time>
      </trkpt>
      <trkpt lat="48.364042" lon="-4.66832">
        <ele>57.4</ele>
        <time>2020-08-13T13:47:06Z</time>
      </trkpt>
      <trkpt lat="48.36399" lon="-4.668463">
        <ele>56.6</ele>
        <time>2020-08-13T13:47:07Z</time>
      </trkpt>
      <trkpt lat="48.363957" lon="-4.668686">
        <ele>56.6</ele>
        <time>2020-08-13T13:47:09Z</time>
      </trkpt>
      <trkpt lat="48.364001" lon="-4.668689">
        <ele>56.6</ele>
        <time>2020-08-13T13:47:09Z</time>
      </trkpt>
      <trkpt lat="48.363912" lon="-4.669253">
        <ele>55.8</ele>
        <time>2020-08-13T13:47:14Z</time>
      </trkpt>
      <trkpt lat="48.363833" lon="-4.669985">
        <ele>55.8</ele>
        <time>2020-08-13T13:47:21Z</time>
      </trkpt>
      <trkpt lat="48.363799" lon="-4.670093">
        <ele>55.6</ele>
        <time>2020-08-13T13:47:21Z</time>
      </trkpt>
      <trkpt lat="48.363759" lon="-4.670877">
        <ele>56.2</ele>
        <time>2020-08-13T13:47:27Z</time>
      </trkpt>
      <trkpt lat="48.363798" lon="-4.670887">
        <ele>56.2</ele>
        <time>2020-08-13T13:47:27Z</time>
      </trkpt>
      <trkpt lat="48.363733" lon="-4.673384">
        <ele>53.0</ele>
        <time>2020-08-13T13:47:41Z</time>
      </trkpt>
      <trkpt lat="48.363692" lon="-4.677578">
        <ele>25.2</ele>
        <time>2020-08-13T13:48:05Z</time>
      </trkpt>
      <trkpt lat="48.36381" lon="-4.679291">
        <ele>20.0</ele>
        <time>2020-08-13T13:48:14Z</time>
      </trkpt>
      <trkpt lat="48.363843" lon="-4.680597">
        <ele>24.4</ele>
        <time>2020-08-13T13:48:21Z</time>
      </trkpt>
      <trkpt lat="48.363791" lon="-4.681571">
        <ele>29.2</ele>
        <time>2020-08-13T13:48:27Z</time>
      </trkpt>
      <trkpt lat="48.363677" lon="-4.682816">
        <ele>34.0</ele>
        <time>2020-08-13T13:48:34Z</time>
      </trkpt>
      <trkpt lat="48.363378" lon="-4.68494">
        <ele>36.2</ele>
        <time>2020-08-13T13:48:46Z</time>
      </trkpt>
      <trkpt lat="48.363061" lon="-4.687451">
        <ele>49.0</ele>
        <time>2020-08-13T13:49:00Z</time>
      </trkpt>
      <trkpt lat="48.363009" lon="-4.688174">
        <ele>49.4</ele>
        <time>2020-08-13T13:49:04Z</time>
      </trkpt>
      <trkpt lat="48.363016" lon="-4.688712">
        <ele>49.8</ele>
        <time>2020-08-13T13:49:07Z</time>
      </trkpt>
      <trkpt lat="48.363035" lon="-4.689047">
        <ele>49.8</ele>
        <time>2020-08-13T13:49:09Z</time>
      </trkpt>
      <trkpt lat="48.363085" lon="-4.689389">
        <ele>50.2</ele>
        <time>2020-08-13T13:49:11Z</time>
      </trkpt>
      <trkpt lat="48.363202" lon="-4.689907">
        <ele>50.2</ele>
        <time>2020-08-13T13:49:14Z</time>
      </trkpt>
      <trkpt lat="48.363591" lon="-4.69089">
        <ele>53.6</ele>
        <time>2020-08-13T13:49:20Z</time>
      </trkpt>
      <trkpt lat="48.364343" lon="-4.692537">
        <ele>57.8</ele>
        <time>2020-08-13T13:49:31Z</time>
      </trkpt>
      <trkpt lat="48.364471" lon="-4.692907">
        <ele>57.8</ele>
        <time>2020-08-13T13:49:34Z</time>
      </trkpt>
      <trkpt lat="48.364574" lon="-4.69328">
        <ele>57.8</ele>
        <time>2020-08-13T13:49:36Z</time>
      </trkpt>
      <trkpt lat="48.364712" lon="-4.694049">
        <ele>58.2</ele>
        <time>2020-08-13T13:49:40Z</time>
      </trkpt>
      <trkpt lat="48.364755" lon="-4.694443">
        <ele>58.4</ele>
        <time>2020-08-13T13:49:43Z</time>
      </trkpt>
      <trkpt lat="48.364763" lon="-4.694893">
        <ele>58.4</ele>
        <time>2020-08-13T13:49:45Z</time>
      </trkpt>
      <trkpt lat="48.364747" lon="-4.69525">
        <ele>58.2</ele>
        <time>2020-08-13T13:49:47Z</time>
      </trkpt>
      <trkpt lat="48.364719" lon="-4.695527">
        <ele>58.2</ele>
        <time>2020-08-13T13:49:49Z</time>
      </trkpt>
      <trkpt lat="48.364627" lon="-4.696098">
        <ele>57.8</ele>
        <time>2020-08-13T13:49:52Z</time>
      </trkpt>
      <trkpt lat="48.364446" lon="-4.696757">
        <ele>57.0</ele>
        <time>2020-08-13T13:49:56Z</time>
      </trkpt>
      <trkpt lat="48.364242" lon="-4.697234">
        <ele>57.0</ele>
        <time>2020-08-13T13:49:59Z</time>
      </trkpt>
      <trkpt lat="48.363953" lon="-4.697776">
        <ele>54.6</ele>
        <time>2020-08-13T13:50:03Z</time>
      </trkpt>
      <trkpt lat="48.361913" lon="-4.701799">
        <ele>53.4</ele>
        <time>2020-08-13T13:50:31Z</time>
      </trkpt>
      <trkpt lat="48.361302" lon="-4.703408">
        <ele>51.0</ele>
        <time>2020-08-13T13:50:41Z</time>
      </trkpt>
      <trkpt lat="48.361235" lon="-4.703654">
        <ele>51.0</ele>
        <time>2020-08-13T13:50:43Z</time>
      </trkpt>
      <trkpt lat="48.361289" lon="-4.703722">
        <ele>51.0</ele>
        <time>2020-08-13T13:50:43Z</time>
      </trkpt>
      <trkpt lat="48.361318" lon="-4.703819">
        <ele>51.0</ele>
        <time>2020-08-13T13:50:44Z</time>
      </trkpt>
      <trkpt lat="48.361317" lon="-4.703907">
        <ele>51.0</ele>
        <time>2020-08-13T13:50:44Z</time>
      </trkpt>
      <trkpt lat="48.361287" lon="-4.704004">
        <ele>51.0</ele>
        <time>2020-08-13T13:50:45Z</time>
      </trkpt>
      <trkpt lat="48.361241" lon="-4.704063">
        <ele>51.0</ele>
        <time>2020-08-13T13:50:46Z</time>
      </trkpt>
      <trkpt lat="48.361184" lon="-4.70409">
        <ele>51.0</ele>
        <time>2020-08-13T13:50:46Z</time>
      </trkpt>
      <trkpt lat="48.361124" lon="-4.704082">
        <ele>51.0</ele>
        <time>2020-08-13T13:50:46Z</time>
      </trkpt>
      <trkpt lat="48.361071" lon="-4.704041">
        <ele>51.0</ele>
        <time>2020-08-13T13:50:47Z</time>
      </trkpt>
      <trkpt lat="48.360886" lon="-4.704416">
        <ele>50.6</ele>
        <time>2020-08-13T13:50:50Z</time>
      </trkpt>
      <trkpt lat="48.360397" lon="-4.705199">
        <ele>50.0</ele>
        <time>2020-08-13T13:50:55Z</time>
      </trkpt>
      <trkpt lat="48.359166" lon="-4.706513">
        <ele>50.8</ele>
        <time>2020-08-13T13:51:08Z</time>
      </trkpt>
      <trkpt lat="48.358248" lon="-4.707774">
        <ele>49.4</ele>
        <time>2020-08-13T13:51:18Z</time>
      </trkpt>
      <trkpt lat="48.357283" lon="-4.7094">
        <ele>49.6</ele>
        <time>2020-08-13T13:51:30Z</time>
      </trkpt>
      <trkpt lat="48.35648" lon="-4.710659">
        <ele>50.2</ele>
        <time>2020-08-13T13:51:39Z</time>
      </trkpt>
      <trkpt lat="48.355555" lon="-4.712253">
        <ele>50.2</ele>
        <time>2020-08-13T13:51:50Z</time>
      </trkpt>
      <trkpt lat="48.354857" lon="-4.713378">
        <ele>50.4</ele>
        <time>2020-08-13T13:51:59Z</time>
      </trkpt>
      <trkpt lat="48.354549" lon="-4.714011">
        <ele>50.4</ele>
        <time>2020-08-13T13:52:03Z</time>
      </trkpt>
      <trkpt lat="48.354037" lon="-4.715322">
        <ele>50.8</ele>
        <time>2020-08-13T13:52:11Z</time>
      </trkpt>
      <trkpt lat="48.353466" lon="-4.716902">
        <ele>49.6</ele>
        <time>2020-08-13T13:52:21Z</time>
      </trkpt>
      <trkpt lat="48.353395" lon="-4.717166">
        <ele>49.6</ele>
        <time>2020-08-13T13:52:23Z</time>
      </trkpt>
      <trkpt lat="48.3533" lon="-4.717632">
        <ele>49.0</ele>
        <time>2020-08-13T13:52:25Z</time>
      </trkpt>
      <trkpt lat="48.3533" lon="-4.71812">
        <ele>49.0</ele>
        <time>2020-08-13T13:52:28Z</time>
      </trkpt>
      <trkpt lat="48.353334" lon="-4.718196">
        <ele>48.8</ele>
        <time>2020-08-13T13:52:28Z</time>
      </trkpt>
      <trkpt lat="48.353511" lon="-4.71836">
        <ele>47.0</ele>
        <time>2020-08-13T13:52:30Z</time>
      </trkpt>
      <trkpt lat="48.35331" lon="-4.718423">
        <ele>48.4</ele>
        <time>2020-08-13T13:52:32Z</time>
      </trkpt>
      <trkpt lat="48.353261" lon="-4.718482">
        <ele>48.4</ele>
        <time>2020-08-13T13:52:32Z</time>
      </trkpt>
      <trkpt lat="48.353182" lon="-4.719102">
        <ele>48.4</ele>
        <time>2020-08-13T13:52:35Z</time>
      </trkpt>
      <trkpt lat="48.353717" lon="-4.722587">
        <ele>36.8</ele>
        <time>2020-08-13T13:52:52Z</time>
      </trkpt>
      <trkpt lat="48.353855" lon="-4.725878">
        <ele>31.8</ele>
        <time>2020-08-13T13:53:08Z</time>
      </trkpt>
      <trkpt lat="48.354014" lon="-4.729164">
        <ele>31.0</ele>
        <time>2020-08-13T13:53:24Z</time>
      </trkpt>
      <trkpt lat="48.35421" lon="-4.732411">
        <ele>22.8</ele>
        <time>2020-08-13T13:53:39Z</time>
      </trkpt>
      <trkpt lat="48.354148" lon="-4.735554">
        <ele>20.4</ele>
        <time>2020-08-13T13:53:54Z</time>
      </trkpt>
      <trkpt lat="48.353799" lon="-4.738785">
        <ele>15.4</ele>
        <time>2020-08-13T13:54:09Z</time>
      </trkpt>
      <trkpt lat="48.353799" lon="-4.739453">
        <ele>15.0</ele>
        <time>2020-08-13T13:54:13Z</time>
      </trkpt>
      <trkpt lat="48.353855" lon="-4.739917">
        <ele>15.0</ele>
        <time>2020-08-13T13:54:15Z</time>
      </trkpt>
      <trkpt lat="48.354137" lon="-4.741655">
        <ele>12.8</ele>
        <time>2020-08-13T13:54:23Z</time>
      </trkpt>
      <trkpt lat="48.354434" lon="-4.743309">
        <ele>15.0</ele>
        <time>2020-08-13T13:54:31Z</time>
      </trkpt>
      <trkpt lat="48.354674" lon="-4.74399">
        <ele>17.8</ele>
        <time>2020-08-13T13:54:35Z</time>
      </trkpt>
      <trkpt lat="48.354963" lon="-4.744434">
        <ele>22.6</ele>
        <time>2020-08-13T13:54:38Z</time>
      </trkpt>
      <trkpt lat="48.355137" lon="-4.744629">
        <ele>20.8</ele>
        <time>2020-08-13T13:54:40Z</time>
      </trkpt>
      <trkpt lat="48.355274" lon="-4.744753">
        <ele>20.8</ele>
        <time>2020-08-13T13:54:41Z</time>
      </trkpt>
      <trkpt lat="48.355505" lon="-4.744921">
        <ele>20.8</ele>
        <time>2020-08-13T13:54:43Z</time>
      </trkpt>
      <trkpt lat="48.356095" lon="-4.74525">
        <ele>22.0</ele>
        <time>2020-08-13T13:54:47Z</time>
      </trkpt>
      <trkpt lat="48.356379" lon="-4.745431">
        <ele>22.0</ele>
        <time>2020-08-13T13:54:49Z</time>
      </trkpt>
      <trkpt lat="48.356562" lon="-4.745581">
        <ele>22.0</ele>
        <time>2020-08-13T13:54:51Z</time>
      </trkpt>
      <trkpt lat="48.357425" lon="-4.746564">
        <ele>19.4</ele>
        <time>2020-08-13T13:54:58Z</time>
      </trkpt>
      <trkpt lat="48.357768" lon="-4.747089">
        <ele>15.4</ele>
        <time>2020-08-13T13:55:02Z</time>
      </trkpt>
      <trkpt lat="48.358268" lon="-4.748061">
        <ele>18.8</ele>
        <time>2020-08-13T13:55:08Z</time>
      </trkpt>
      <trkpt lat="48.358962" lon="-4.749329">
        <ele>22.2</ele>
        <time>2020-08-13T13:55:16Z</time>
      </trkpt>
      <trkpt lat="48.359098" lon="-4.749615">
        <ele>22.2</ele>
        <time>2020-08-13T13:55:17Z</time>
      </trkpt>
      <trkpt lat="48.359211" lon="-4.749891">
        <ele>14.6</ele>
        <time>2020-08-13T13:55:19Z</time>
      </trkpt>
      <trkpt lat="48.359363" lon="-4.750362">
        <ele>17.0</ele>
        <time>2020-08-13T13:55:21Z</time>
      </trkpt>
      <trkpt lat="48.359514" lon="-4.750977">
        <ele>16.8</ele>
        <time>2020-08-13T13:55:25Z</time>
      </trkpt>
      <trkpt lat="48.359839" lon="-4.750862">
        <ele>16.8</ele>
        <time>2020-08-13T13:55:27Z</time>
      </trkpt>
      <trkpt lat="48.360353" lon="-4.750332">
        <ele>7.6</ele>
        <time>2020-08-13T13:55:31Z</time>
      </trkpt>
      <trkpt lat="48.360766" lon="-4.749941">
        <ele>8.4</ele>
        <time>2020-08-13T13:55:34Z</time>
      </trkpt>
      <trkpt lat="48.360856" lon="-4.749877">
        <ele>11.4</ele>
        <time>2020-08-13T13:55:35Z</time>
      </trkpt>
      <trkpt lat="48.360977" lon="-4.749749">
        <ele>11.4</ele>
        <time>2020-08-13T13:55:36Z</time>
      </trkpt>
      <trkpt lat="48.36102" lon="-4.749642">
        <ele>11.4</ele>
        <time>2020-08-13T13:55:37Z</time>
      </trkpt>
      <trkpt lat="48.361045" lon="-4.749545">
        <ele>11.4</ele>
        <time>2020-08-13T13:55:37Z</time>
      </trkpt>
      <trkpt lat="48.361057" lon="-4.749409">
        <ele>11.4</ele>
        <time>2020-08-13T13:55:38Z</time>
      </trkpt>
      <trkpt lat="48.361043" lon="-4.749251">
        <ele>11.4</ele>
        <time>2020-08-13T13:55:38Z</time>
      </trkpt>
      <trkpt lat="48.360987" lon="-4.749102">
        <ele>16.0</ele>
        <time>2020-08-13T13:55:39Z</time>
      </trkpt>
      <trkpt lat="48.360874" lon="-4.74894">
        <ele>16.0</ele>
        <time>2020-08-13T13:55:40Z</time>
      </trkpt>
      <trkpt lat="48.360573" lon="-4.748808">
        <ele>9.4</ele>
        <time>2020-08-13T13:55:42Z</time>
      </trkpt>
      <trkpt lat="48.360477" lon="-4.748688">
        <ele>9.4</ele>
        <time>2020-08-13T13:55:43Z</time>
      </trkpt>
      <trkpt lat="48.360427" lon="-4.748572">
        <ele>9.4</ele>
        <time>2020-08-13T13:55:44Z</time>
      </trkpt>
      <trkpt lat="48.360393" lon="-4.74843">
        <ele>9.4</ele>
        <time>2020-08-13T13:55:45Z</time>
      </trkpt>
      <trkpt lat="48.360409" lon="-4.748144">
        <ele>15.0</ele>
        <time>2020-08-13T13:55:46Z</time>
      </trkpt>
      <trkpt lat="48.360439" lon="-4.748033">
        <ele>15.0</ele>
        <time>2020-08-13T13:55:46Z</time>
      </trkpt>
      <trkpt lat="48.360495" lon="-4.747915">
        <ele>15.0</ele>
        <time>2020-08-13T13:55:47Z</time>
      </trkpt>
      <trkpt lat="48.360598" lon="-4.747795">
        <ele>15.0</ele>
        <time>2020-08-13T13:55:48Z</time>
      </trkpt>
      <trkpt lat="48.3608" lon="-4.747742">
        <ele>15.0</ele>
        <time>2020-08-13T13:55:49Z</time>
      </trkpt>
      <trkpt lat="48.361291" lon="-4.747811">
        <ele>21.2</ele>
        <time>2020-08-13T13:55:53Z</time>
      </trkpt>
      <trkpt lat="48.361676" lon="-4.747825">
        <ele>28.2</ele>
        <time>2020-08-13T13:55:55Z</time>
      </trkpt>
      <trkpt lat="48.36221" lon="-4.747803">
        <ele>28.2</ele>
        <time>2020-08-13T13:55:59Z</time>
      </trkpt>
      <trkpt lat="48.363414" lon="-4.747624">
        <ele>30.0</ele>
        <time>2020-08-13T13:56:07Z</time>
      </trkpt>
      <trkpt lat="48.363633" lon="-4.747545">
        <ele>30.0</ele>
        <time>2020-08-13T13:56:09Z</time>
      </trkpt>
      <trkpt lat="48.363714" lon="-4.747491">
        <ele>29.4</ele>
        <time>2020-08-13T13:56:09Z</time>
      </trkpt>
      <trkpt lat="48.363859" lon="-4.747321">
        <ele>29.4</ele>
        <time>2020-08-13T13:56:11Z</time>
      </trkpt>
      <trkpt lat="48.363923" lon="-4.747375">
        <ele>29.4</ele>
        <time>2020-08-13T13:56:11Z</time>
      </trkpt>
      <trkpt lat="48.364004" lon="-4.747401">
        <ele>29.4</ele>
        <time>2020-08-13T13:56:12Z</time>
      </trkpt>
      <trkpt lat="48.36414" lon="-4.74738">
        <ele>29.4</ele>
        <time>2020-08-13T13:56:12Z</time>
      </trkpt>
      <trkpt lat="48.364355" lon="-4.747207">
        <ele>26.8</ele>
        <time>2020-08-13T13:56:14Z</time>
      </trkpt>
      <trkpt lat="48.36474" lon="-4.746802">
        <ele>26.8</ele>
        <time>2020-08-13T13:56:16Z</time>
      </trkpt>
      <trkpt lat="48.364865" lon="-4.746643">
        <ele>27.0</ele>
        <time>2020-08-13T13:56:17Z</time>
      </trkpt>
      <trkpt lat="48.364949" lon="-4.746498">
        <ele>27.0</ele>
        <time>2020-08-13T13:56:18Z</time>
      </trkpt>
      <trkpt lat="48.365173" lon="-4.745993">
        <ele>22.8</ele>
        <time>2020-08-13T13:56:20Z</time>
      </trkpt>
      <trkpt lat="48.365275" lon="-4.745809">
        <ele>24.0</ele>
        <time>2020-08-13T13:56:21Z</time>
      </trkpt>
      <trkpt lat="48.365352" lon="-4.745695">
        <ele>24.0</ele>
        <time>2020-08-13T13:56:21Z</time>
      </trkpt>
      <trkpt lat="48.365499" lon="-4.745579">
        <ele>24.0</ele>
        <time>2020-08-13T13:56:22Z</time>
      </trkpt>
      <trkpt lat="48.36559" lon="-4.745576">
        <ele>24.0</ele>
        <time>2020-08-13T13:56:23Z</time>
      </trkpt>
      <trkpt lat="48.365764" lon="-4.745627">
        <ele>24.0</ele>
        <time>2020-08-13T13:56:24Z</time>
      </trkpt>
      <trkpt lat="48.365998" lon="-4.745803">
        <ele>18.0</ele>
        <time>2020-08-13T13:56:25Z</time>
      </trkpt>
      <trkpt lat="48.366131" lon="-4.745879">
        <ele>14.2</ele>
        <time>2020-08-13T13:56:26Z</time>
      </trkpt>
      <trkpt lat="48.366315" lon="-4.74595">
        <ele>14.2</ele>
        <time>2020-08-13T13:56:27Z</time>
      </trkpt>
      <trkpt lat="48.366766" lon="-4.746058">
        <ele>13.0</ele>
        <time>2020-08-13T13:56:30Z</time>
      </trkpt>
      <trkpt lat="48.366946" lon="-4.746151">
        <ele>13.0</ele>
        <time>2020-08-13T13:56:31Z</time>
      </trkpt>
      <trkpt lat="48.367033" lon="-4.746265">
        <ele>13.0</ele>
        <time>2020-08-13T13:56:31Z</time>
      </trkpt>
      <trkpt lat="48.367071" lon="-4.746352">
        <ele>13.0</ele>
        <time>2020-08-13T13:56:32Z</time>
      </trkpt>
      <trkpt lat="48.367217" lon="-4.7469">
        <ele>16.4</ele>
        <time>2020-08-13T13:56:34Z</time>
      </trkpt>
      <trkpt lat="48.367319" lon="-4.746994">
        <ele>16.4</ele>
        <time>2020-08-13T13:56:34Z</time>
      </trkpt>
      <trkpt lat="48.367783" lon="-4.747189">
        <ele>23.4</ele>
        <time>2020-08-13T13:56:37Z</time>
      </trkpt>
      <trkpt lat="48.368057" lon="-4.747275">
        <ele>23.4</ele>
        <time>2020-08-13T13:56:38Z</time>
      </trkpt>
      <trkpt lat="48.368235" lon="-4.747271">
        <ele>23.4</ele>
        <time>2020-08-13T13:56:39Z</time>
      </trkpt>
      <trkpt lat="48.368798" lon="-4.747033">
        <ele>27.8</ele>
        <time>2020-08-13T13:56:43Z</time>
      </trkpt>
      <trkpt lat="48.369048" lon="-4.74689">
        <ele>27.8</ele>
        <time>2020-08-13T13:56:44Z</time>
      </trkpt>
      <trkpt lat="48.369465" lon="-4.746533">
        <ele>23.8</ele>
        <time>2020-08-13T13:56:47Z</time>
      </trkpt>
      <trkpt lat="48.369674" lon="-4.746281">
        <ele>23.8</ele>
        <time>2020-08-13T13:56:48Z</time>
      </trkpt>
      <trkpt lat="48.369915" lon="-4.74595">
        <ele>23.8</ele>
        <time>2020-08-13T13:56:50Z</time>
      </trkpt>
      <trkpt lat="48.370117" lon="-4.745714">
        <ele>27.8</ele>
        <time>2020-08-13T13:56:51Z</time>
      </trkpt>
      <trkpt lat="48.37025" lon="-4.745596">
        <ele>27.8</ele>
        <time>2020-08-13T13:56:52Z</time>
      </trkpt>
      <trkpt lat="48.370344" lon="-4.745546">
        <ele>27.8</ele>
        <time>2020-08-13T13:56:53Z</time>
      </trkpt>
      <trkpt lat="48.370421" lon="-4.745534">
        <ele>27.8</ele>
        <time>2020-08-13T13:56:53Z</time>
      </trkpt>
      <trkpt lat="48.371097" lon="-4.745653">
        <ele>38.2</ele>
        <time>2020-08-13T13:56:57Z</time>
      </trkpt>
      <trkpt lat="48.371236" lon="-4.745685">
        <ele>38.2</ele>
        <time>2020-08-13T13:56:58Z</time>
      </trkpt>
      <trkpt lat="48.371425" lon="-4.745765">
        <ele>38.2</ele>
        <time>2020-08-13T13:56:59Z</time>
      </trkpt>
      <trkpt lat="48.372582" lon="-4.746685">
        <ele>37.4</ele>
        <time>2020-08-13T13:57:06Z</time>
      </trkpt>
      <trkpt lat="48.373051" lon="-4.746988">
        <ele>37.4</ele>
        <time>2020-08-13T13:57:08Z</time>
      </trkpt>
      <trkpt lat="48.373703" lon="-4.747238">
        <ele>35.2</ele>
        <time>2020-08-13T13:57:12Z</time>
      </trkpt>
      <trkpt lat="48.374328" lon="-4.747533">
        <ele>37.0</ele>
        <time>2020-08-13T13:57:16Z</time>
      </trkpt>
      <trkpt lat="48.375644" lon="-4.747898">
        <ele>37.4</ele>
        <time>2020-08-13T13:57:23Z</time>
      </trkpt>
      <trkpt lat="48.376041" lon="-4.747958">
        <ele>37.8</ele>
        <time>2020-08-13T13:57:25Z</time>
      </trkpt>
      <trkpt lat="48.376205" lon="-4.747903">
        <ele>37.8</ele>
        <time>2020-08-13T13:57:26Z</time>
      </trkpt>
      <trkpt lat="48.376416" lon="-4.747792">
        <ele>37.8</ele>
        <time>2020-08-13T13:57:27Z</time>
      </trkpt>
      <trkpt lat="48.376571" lon="-4.747661">
        <ele>37.8</ele>
        <time>2020-08-13T13:57:28Z</time>
      </trkpt>
      <trkpt lat="48.378645" lon="-4.745753">
        <ele>37.4</ele>
        <time>2020-08-13T13:57:41Z</time>
      </trkpt>
      <trkpt lat="48.379057" lon="-4.745425">
        <ele>37.4</ele>
        <time>2020-08-13T13:57:44Z</time>
      </trkpt>
      <trkpt lat="48.379272" lon="-4.745262">
        <ele>37.2</ele>
        <time>2020-08-13T13:57:45Z</time>
      </trkpt>
      <trkpt lat="48.379406" lon="-4.745195">
        <ele>37.2</ele>
        <time>2020-08-13T13:57:46Z</time>
      </trkpt>
      <trkpt lat="48.379911" lon="-4.745033">
        <ele>37.2</ele>
        <time>2020-08-13T13:57:49Z</time>
      </trkpt>
      <trkpt lat="48.380007" lon="-4.744966">
        <ele>36.2</ele>
        <time>2020-08-13T13:57:49Z</time>
      </trkpt>
      <trkpt lat="48.380157" lon="-4.744821">
        <ele>36.2</ele>
        <time>2020-08-13T13:57:50Z</time>
      </trkpt>
      <trkpt lat="48.380575" lon="-4.744218">
        <ele>36.2</ele>
        <time>2020-08-13T13:57:53Z</time>
      </trkpt>
      <trkpt lat="48.380649" lon="-4.744052">
        <ele>35.0</ele>
        <time>2020-08-13T13:57:54Z</time>
      </trkpt>
      <trkpt lat="48.380855" lon="-4.743392">
        <ele>38.8</ele>
        <time>2020-08-13T13:57:57Z</time>
      </trkpt>
      <trkpt lat="48.380978" lon="-4.743134">
        <ele>38.2</ele>
        <time>2020-08-13T13:57:58Z</time>
      </trkpt>
      <trkpt lat="48.381123" lon="-4.742978">
        <ele>38.2</ele>
        <time>2020-08-13T13:57:59Z</time>
      </trkpt>
      <trkpt lat="48.382488" lon="-4.741704">
        <ele>42.8</ele>
        <time>2020-08-13T13:58:07Z</time>
      </trkpt>
      <trkpt lat="48.38268" lon="-4.741498">
        <ele>46.4</ele>
        <time>2020-08-13T13:58:09Z</time>
      </trkpt>
      <trkpt lat="48.383318" lon="-4.740673">
        <ele>47.2</ele>
        <time>2020-08-13T13:58:13Z</time>
      </trkpt>
      <trkpt lat="48.38351" lon="-4.740469">
        <ele>48.8</ele>
        <time>2020-08-13T13:58:15Z</time>
      </trkpt>
      <trkpt lat="48.383693" lon="-4.740309">
        <ele>48.8</ele>
        <time>2020-08-13T13:58:16Z</time>
      </trkpt>
      <trkpt lat="48.384604" lon="-4.739846">
        <ele>49.2</ele>
        <time>2020-08-13T13:58:21Z</time>
      </trkpt>
      <trkpt lat="48.385572" lon="-4.73952">
        <ele>49.8</ele>
        <time>2020-08-13T13:58:26Z</time>
      </trkpt>
      <trkpt lat="48.385853" lon="-4.739402">
        <ele>50.6</ele>
        <time>2020-08-13T13:58:28Z</time>
      </trkpt>
      <trkpt lat="48.385982" lon="-4.739293">
        <ele>50.6</ele>
        <time>2020-08-13T13:58:29Z</time>
      </trkpt>
      <trkpt lat="48.386228" lon="-4.738898">
        <ele>51.6</ele>
        <time>2020-08-13T13:58:31Z</time>
      </trkpt>
      <trkpt lat="48.386384" lon="-4.738729">
        <ele>51.6</ele>
        <time>2020-08-13T13:58:32Z</time>
      </trkpt>
      <trkpt lat="48.387036" lon="-4.73842">
        <ele>51.0</ele>
        <time>2020-08-13T13:58:36Z</time>
      </trkpt>
      <trkpt lat="48.386891" lon="-4.737982">
        <ele>51.2</ele>
        <time>2020-08-13T13:58:39Z</time>
      </trkpt>
      <trkpt lat="48.386874" lon="-4.73787">
        <ele>51.2</ele>
        <time>2020-08-13T13:58:40Z</time>
      </trkpt>
      <trkpt lat="48.38689" lon="-4.737336">
        <ele>51.0</ele>
        <time>2020-08-13T13:58:44Z</time>
      </trkpt>
      <trkpt lat="48.38689" lon="-4.737336">
        <ele>51.0</ele>
        <time>2020-08-13T13:58:44Z</time>
      </trkpt>
      <trkpt lat="48.386874" lon="-4.73787">
        <ele>51.2</ele>
        <time>2020-08-13T13:58:48Z</time>
      </trkpt>
      <trkpt lat="48.386891" lon="-4.737982">
        <ele>51.2</ele>
        <time>2020-08-13T13:58:49Z</time>
      </trkpt>
      <trkpt lat="48.387036" lon="-4.73842">
        <ele>51.0</ele>
        <time>2020-08-13T13:58:53Z</time>
      </trkpt>
      <trkpt lat="48.387213" lon="-4.738334">
        <ele>51.0</ele>
        <time>2020-08-13T13:58:54Z</time>
      </trkpt>
      <trkpt lat="48.388074" lon="-4.73772">
        <ele>48.2</ele>
        <time>2020-08-13T13:59:00Z</time>
      </trkpt>
      <trkpt lat="48.389893" lon="-4.736981">
        <ele>46.6</ele>
        <time>2020-08-13T13:59:11Z</time>
      </trkpt>
      <trkpt lat="48.390564" lon="-4.736682">
        <ele>43.8</ele>
        <time>2020-08-13T13:59:16Z</time>
      </trkpt>
      <trkpt lat="48.39066" lon="-4.736617">
        <ele>45.6</ele>
        <time>2020-08-13T13:59:16Z</time>
      </trkpt>
      <trkpt lat="48.3913" lon="-4.736036">
        <ele>42.2</ele>
        <time>2020-08-13T13:59:21Z</time>
      </trkpt>
      <trkpt lat="48.392194" lon="-4.735554">
        <ele>43.0</ele>
        <time>2020-08-13T13:59:27Z</time>
      </trkpt>
      <trkpt lat="48.392394" lon="-4.735402">
        <ele>43.0</ele>
        <time>2020-08-13T13:59:28Z</time>
      </trkpt>
      <trkpt lat="48.392786" lon="-4.735025">
        <ele>43.4</ele>
        <time>2020-08-13T13:59:31Z</time>
      </trkpt>
      <trkpt lat="48.393017" lon="-4.734722">
        <ele>43.8</ele>
        <time>2020-08-13T13:59:33Z</time>
      </trkpt>
      <trkpt lat="48.393215" lon="-4.734273">
        <ele>43.8</ele>
        <time>2020-08-13T13:59:35Z</time>
      </trkpt>
      <trkpt lat="48.393508" lon="-4.733417">
        <ele>45.6</ele>
        <time>2020-08-13T13:59:39Z</time>
      </trkpt>
      <trkpt lat="48.393629" lon="-4.73303">
        <ele>46.0</ele>
        <time>2020-08-13T13:59:40Z</time>
      </trkpt>
      <trkpt lat="48.393756" lon="-4.732515">
        <ele>46.0</ele>
        <time>2020-08-13T13:59:43Z</time>
      </trkpt>
      <trkpt lat="48.393919" lon="-4.732017">
        <ele>46.2</ele>
        <time>2020-08-13T13:59:45Z</time>
      </trkpt>
      <trkpt lat="48.394255" lon="-4.731199">
        <ele>46.0</ele>
        <time>2020-08-13T13:59:49Z</time>
      </trkpt>
      <trkpt lat="48.394366" lon="-4.731003">
        <ele>46.0</ele>
        <time>2020-08-13T13:59:50Z</time>
      </trkpt>
      <trkpt lat="48.394453" lon="-4.730887">
        <ele>46.0</ele>
        <time>2020-08-13T13:59:50Z</time>
      </trkpt>
      <trkpt lat="48.394558" lon="-4.730807">
        <ele>46.6</ele>
        <time>2020-08-13T13:59:51Z</time>
      </trkpt>
      <trkpt lat="48.394658" lon="-4.730776">
        <ele>46.6</ele>
        <time>2020-08-13T13:59:52Z</time>
      </trkpt>
      <trkpt lat="48.395671" lon="-4.730621">
        <ele>46.2</ele>
        <time>2020-08-13T13:59:58Z</time>
      </trkpt>
      <trkpt lat="48.396825" lon="-4.730302">
        <ele>50.2</ele>
        <time>2020-08-13T14:00:05Z</time>
      </trkpt>
      <trkpt lat="48.398577" lon="-4.729185">
        <ele>51.6</ele>
        <time>2020-08-13T14:00:17Z</time>
      </trkpt>
      <trkpt lat="48.399161" lon="-4.728735">
        <ele>52.0</ele>
        <time>2020-08-13T14:00:21Z</time>
      </trkpt>
      <trkpt lat="48.399511" lon="-4.728431">
        <ele>53.0</ele>
        <time>2020-08-13T14:00:23Z</time>
      </trkpt>
      <trkpt lat="48.39997" lon="-4.728124">
        <ele>53.2</ele>
        <time>2020-08-13T14:00:26Z</time>
      </trkpt>
      <trkpt lat="48.400336" lon="-4.727912">
        <ele>55.2</ele>
        <time>2020-08-13T14:00:29Z</time>
      </trkpt>
      <trkpt lat="48.400431" lon="-4.72786">
        <ele>55.2</ele>
        <time>2020-08-13T14:00:29Z</time>
      </trkpt>
      <trkpt lat="48.400873" lon="-4.72771">
        <ele>58.0</ele>
        <time>2020-08-13T14:00:32Z</time>
      </trkpt>
      <trkpt lat="48.401731" lon="-4.727477">
        <ele>66.0</ele>
        <time>2020-08-13T14:00:37Z</time>
      </trkpt>
      <trkpt lat="48.401914" lon="-4.727385">
        <ele>66.0</ele>
        <time>2020-08-13T14:00:38Z</time>
      </trkpt>
      <trkpt lat="48.402028" lon="-4.727269">
        <ele>66.0</ele>
        <time>2020-08-13T14:00:39Z</time>
      </trkpt>
      <trkpt lat="48.402113" lon="-4.727047">
        <ele>66.0</ele>
        <time>2020-08-13T14:00:40Z</time>
      </trkpt>
      <trkpt lat="48.402165" lon="-4.726725">
        <ele>66.0</ele>
        <time>2020-08-13T14:00:42Z</time>
      </trkpt>
      <trkpt lat="48.402157" lon="-4.726504">
        <ele>71.0</ele>
        <time>2020-08-13T14:00:43Z</time>
      </trkpt>
      <trkpt lat="48.402125" lon="-4.726376">
        <ele>71.0</ele>
        <time>2020-08-13T14:00:43Z</time>
      </trkpt>
      <trkpt lat="48.401824" lon="-4.725525">
        <ele>74.2</ele>
        <time>2020-08-13T14:00:47Z</time>
      </trkpt>
      <trkpt lat="48.401675" lon="-4.72505">
        <ele>74.2</ele>
        <time>2020-08-13T14:00:49Z</time>
      </trkpt>
      <trkpt lat="48.401598" lon="-4.724618">
        <ele>75.0</ele>
        <time>2020-08-13T14:00:51Z</time>
      </trkpt>
      <trkpt lat="48.401607" lon="-4.724515">
        <ele>75.0</ele>
        <time>2020-08-13T14:00:51Z</time>
      </trkpt>
      <trkpt lat="48.401625" lon="-4.724404">
        <ele>75.0</ele>
        <time>2020-08-13T14:00:52Z</time>
      </trkpt>
      <trkpt lat="48.401768" lon="-4.724061">
        <ele>79.8</ele>
        <time>2020-08-13T14:00:53Z</time>
      </trkpt>
      <trkpt lat="48.402192" lon="-4.72327">
        <ele>80.8</ele>
        <time>2020-08-13T14:00:57Z</time>
      </trkpt>
      <trkpt lat="48.402448" lon="-4.722877">
        <ele>80.8</ele>
        <time>2020-08-13T14:01:00Z</time>
      </trkpt>
      <trkpt lat="48.402594" lon="-4.722953">
        <ele>82.8</ele>
        <time>2020-08-13T14:01:01Z</time>
      </trkpt>
      <trkpt lat="48.403207" lon="-4.723054">
        <ele>82.8</ele>
        <time>2020-08-13T14:01:08Z</time>
      </trkpt>
      <trkpt lat="48.403356" lon="-4.723123">
        <ele>83.0</ele>
        <time>2020-08-13T14:01:09Z</time>
      </trkpt>
      <trkpt lat="48.403402" lon="-4.72306">
        <ele>83.0</ele>
        <time>2020-08-13T14:01:10Z</time>
      </trkpt>
      <trkpt lat="48.403464" lon="-4.723068">
        <ele>83.0</ele>
        <time>2020-08-13T14:01:10Z</time>
      </trkpt>
      <trkpt lat="48.403499" lon="-4.723124">
        <ele>83.0</ele>
        <time>2020-08-13T14:01:10Z</time>
      </trkpt>
      <trkpt lat="48.403495" lon="-4.723232">
        <ele>83.0</ele>
        <time>2020-08-13T14:01:11Z</time>
      </trkpt>
      <trkpt lat="48.404117" lon="-4.723938">
        <ele>81.0</ele>
        <time>2020-08-13T14:01:15Z</time>
      </trkpt>
      <trkpt lat="48.405037" lon="-4.725035">
        <ele>80.2</ele>
        <time>2020-08-13T14:01:20Z</time>
      </trkpt>
      <trkpt lat="48.405343" lon="-4.725361">
        <ele>80.2</ele>
        <time>2020-08-13T14:01:22Z</time>
      </trkpt>
      <trkpt lat="48.406132" lon="-4.725906">
        <ele>80.4</ele>
        <time>2020-08-13T14:01:27Z</time>
      </trkpt>
      <trkpt lat="48.406495" lon="-4.726121">
        <ele>80.4</ele>
        <time>2020-08-13T14:01:29Z</time>
      </trkpt>
      <trkpt lat="48.407271" lon="-4.726528">
        <ele>80.8</ele>
        <time>2020-08-13T14:01:33Z</time>
      </trkpt>
      <trkpt lat="48.407399" lon="-4.726553">
        <ele>80.8</ele>
        <time>2020-08-13T14:01:33Z</time>
      </trkpt>
      <trkpt lat="48.408339" lon="-4.726517">
        <ele>83.4</ele>
        <time>2020-08-13T14:01:38Z</time>
      </trkpt>
      <trkpt lat="48.409889" lon="-4.727162">
        <ele>83.0</ele>
        <time>2020-08-13T14:01:46Z</time>
      </trkpt>
      <trkpt lat="48.411134" lon="-4.727786">
        <ele>81.6</ele>
        <time>2020-08-13T14:01:53Z</time>
      </trkpt>
      <trkpt lat="48.411997" lon="-4.728174">
        <ele>79.8</ele>
        <time>2020-08-13T14:01:57Z</time>
      </trkpt>
      <trkpt lat="48.413467" lon="-4.728768">
        <ele>74.2</ele>
        <time>2020-08-13T14:02:05Z</time>
      </trkpt>
      <trkpt lat="48.413863" lon="-4.728844">
        <ele>74.2</ele>
        <time>2020-08-13T14:02:07Z</time>
      </trkpt>
      <trkpt lat="48.414053" lon="-4.72886">
        <ele>74.2</ele>
        <time>2020-08-13T14:02:08Z</time>
      </trkpt>
      <trkpt lat="48.415237" lon="-4.728854">
        <ele>76.2</ele>
        <time>2020-08-13T14:02:14Z</time>
      </trkpt>
      <trkpt lat="48.41561" lon="-4.728925">
        <ele>76.2</ele>
        <time>2020-08-13T14:02:16Z</time>
      </trkpt>
      <trkpt lat="48.417162" lon="-4.729602">
        <ele>82.4</ele>
        <time>2020-08-13T14:02:24Z</time>
      </trkpt>
      <trkpt lat="48.41739" lon="-4.72972">
        <ele>82.4</ele>
        <time>2020-08-13T14:02:25Z</time>
      </trkpt>
      <trkpt lat="48.417982" lon="-4.730159">
        <ele>81.8</ele>
        <time>2020-08-13T14:02:28Z</time>
      </trkpt>
      <trkpt lat="48.418175" lon="-4.730313">
        <ele>81.8</ele>
        <time>2020-08-13T14:02:30Z</time>
      </trkpt>
      <trkpt lat="48.418435" lon="-4.730561">
        <ele>80.0</ele>
        <time>2020-08-13T14:02:31Z</time>
      </trkpt>
      <trkpt lat="48.418866" lon="-4.730879">
        <ele>79.6</ele>
        <time>2020-08-13T14:02:33Z</time>
      </trkpt>
      <trkpt lat="48.419465" lon="-4.731189">
        <ele>77.0</ele>
        <time>2020-08-13T14:02:37Z</time>
      </trkpt>
      <trkpt lat="48.421129" lon="-4.731831">
        <ele>76.2</ele>
        <time>2020-08-13T14:02:45Z</time>
      </trkpt>
      <trkpt lat="48.421367" lon="-4.731855">
        <ele>76.2</ele>
        <time>2020-08-13T14:02:46Z</time>
      </trkpt>
      <trkpt lat="48.422043" lon="-4.731804">
        <ele>77.0</ele>
        <time>2020-08-13T14:02:50Z</time>
      </trkpt>
      <trkpt lat="48.422518" lon="-4.731694">
        <ele>77.4</ele>
        <time>2020-08-13T14:02:52Z</time>
      </trkpt>
      <trkpt lat="48.422916" lon="-4.731508">
        <ele>79.0</ele>
        <time>2020-08-13T14:02:54Z</time>
      </trkpt>
      <trkpt lat="48.423268" lon="-4.731398">
        <ele>79.0</ele>
        <time>2020-08-13T14:02:56Z</time>
      </trkpt>
      <trkpt lat="48.423812" lon="-4.731312">
        <ele>80.6</ele>
        <time>2020-08-13T14:02:59Z</time>
      </trkpt>
      <trkpt lat="48.426253" lon="-4.731242">
        <ele>84.6</ele>
        <time>2020-08-13T14:03:11Z</time>
      </trkpt>
      <trkpt lat="48.426597" lon="-4.731178">
        <ele>84.6</ele>
        <time>2020-08-13T14:03:13Z</time>
      </trkpt>
      <trkpt lat="48.426836" lon="-4.731201">
        <ele>83.4</ele>
        <time>2020-08-13T14:03:14Z</time>
      </trkpt>
      <trkpt lat="48.427194" lon="-4.731292">
        <ele>83.4</ele>
        <time>2020-08-13T14:03:16Z</time>
      </trkpt>
      <trkpt lat="48.427624" lon="-4.731521">
        <ele>81.0</ele>
        <time>2020-08-13T14:03:18Z</time>
      </trkpt>
      <trkpt lat="48.428033" lon="-4.731828">
        <ele>80.6</ele>
        <time>2020-08-13T14:03:21Z</time>
      </trkpt>
      <trkpt lat="48.429277" lon="-4.73292">
        <ele>75.2</ele>
        <time>2020-08-13T14:03:28Z</time>
      </trkpt>
      <trkpt lat="48.429945" lon="-4.733433">
        <ele>75.6</ele>
        <time>2020-08-13T14:03:32Z</time>
      </trkpt>
      <trkpt lat="48.430765" lon="-4.733956">
        <ele>73.6</ele>
        <time>2020-08-13T14:03:36Z</time>
      </trkpt>
      <trkpt lat="48.430833" lon="-4.733897">
        <ele>73.6</ele>
        <time>2020-08-13T14:03:37Z</time>
      </trkpt>
      <trkpt lat="48.430904" lon="-4.733948">
        <ele>72.0</ele>
        <time>2020-08-13T14:03:38Z</time>
      </trkpt>
      <trkpt lat="48.430978" lon="-4.733851">
        <ele>72.0</ele>
        <time>2020-08-13T14:03:39Z</time>
      </trkpt>
      <trkpt lat="48.431538" lon="-4.733383">
        <ele>72.0</ele>
        <time>2020-08-13T14:03:45Z</time>
      </trkpt>
      <trkpt lat="48.431472" lon="-4.733182">
        <ele>72.4</ele>
        <time>2020-08-13T14:03:47Z</time>
      </trkpt>
      <trkpt lat="48.431442" lon="-4.732908">
        <ele>72.4</ele>
        <time>2020-08-13T14:03:49Z</time>
      </trkpt>
      <trkpt lat="48.431451" lon="-4.73269">
        <ele>72.4</ele>
        <time>2020-08-13T14:03:50Z</time>
      </trkpt>
      <trkpt lat="48.431507" lon="-4.732332">
        <ele>72.0</ele>
        <time>2020-08-13T14:03:53Z</time>
      </trkpt>
      <trkpt lat="48.431564" lon="-4.732163">
        <ele>72.0</ele>
        <time>2020-08-13T14:03:54Z</time>
      </trkpt>
      <trkpt lat="48.431986" lon="-4.731396">
        <ele>71.0</ele>
        <time>2020-08-13T14:04:01Z</time>
      </trkpt>
      <trkpt lat="48.432092" lon="-4.731101">
        <ele>71.0</ele>
        <time>2020-08-13T14:04:03Z</time>
      </trkpt>
      <trkpt lat="48.432092" lon="-4.731101">
        <ele>71.0</ele>
        <time>2020-08-13T14:04:03Z</time>
      </trkpt>
      <trkpt lat="48.43216" lon="-4.730842">
        <ele>71.0</ele>
        <time>2020-08-13T14:04:05Z</time>
      </trkpt>
      <trkpt lat="48.432255" lon="-4.730364">
        <ele>71.0</ele>
        <time>2020-08-13T14:04:08Z</time>
      </trkpt>
      <trkpt lat="48.433288" lon="-4.730887">
        <ele>72.4</ele>
        <time>2020-08-13T14:04:28Z</time>
      </trkpt>
      <trkpt lat="48.433387" lon="-4.730852">
        <ele>74.0</ele>
        <time>2020-08-13T14:04:30Z</time>
      </trkpt>
      <trkpt lat="48.433548" lon="-4.73085">
        <ele>74.0</ele>
        <time>2020-08-13T14:04:33Z</time>
      </trkpt>
      <trkpt lat="48.433809" lon="-4.730716">
        <ele>73.4</ele>
        <time>2020-08-13T14:04:38Z</time>
      </trkpt>
      <trkpt lat="48.433852" lon="-4.730909">
        <ele>74.0</ele>
        <time>2020-08-13T14:04:40Z</time>
      </trkpt>
      <trkpt lat="48.43387" lon="-4.730937">
        <ele>74.0</ele>
        <time>2020-08-13T14:04:40Z</time>
      </trkpt>
      <trkpt lat="48.434136" lon="-4.731011">
        <ele>74.0</ele>
        <time>2020-08-13T14:04:47Z</time>
      </trkpt>
      <trkpt lat="48.434201" lon="-4.731417">
        <ele>73.2</ele>
        <time>2020-08-13T14:04:53Z</time>
      </trkpt>
      <trkpt lat="48.434501" lon="-4.731345">
        <ele>73.2</ele>
        <time>2020-08-13T14:04:56Z</time>
      </trkpt>
      <trkpt lat="48.434686" lon="-4.731192">
        <ele>73.2</ele>
        <time>2020-08-13T14:04:57Z</time>
      </trkpt>
      <trkpt lat="48.434913" lon="-4.730955">
        <ele>73.2</ele>
        <time>2020-08-13T14:05:00Z</time>
      </trkpt>
      <trkpt lat="48.435073" lon="-4.730848">
        <ele>69.8</ele>
        <time>2020-08-13T14:05:01Z</time>
      </trkpt>
      <trkpt lat="48.436105" lon="-4.73118">
        <ele>64.6</ele>
        <time>2020-08-13T14:05:10Z</time>
      </trkpt>
      <trkpt lat="48.437991" lon="-4.731889">
        <ele>55.4</ele>
        <time>2020-08-13T14:05:26Z</time>
      </trkpt>
      <trkpt lat="48.438302" lon="-4.731972">
        <ele>55.4</ele>
        <time>2020-08-13T14:05:28Z</time>
      </trkpt>
      <trkpt lat="48.43861" lon="-4.731994">
        <ele>54.6</ele>
        <time>2020-08-13T14:05:31Z</time>
      </trkpt>
      <trkpt lat="48.439" lon="-4.731934">
        <ele>54.6</ele>
        <time>2020-08-13T14:05:34Z</time>
      </trkpt>
      <trkpt lat="48.43936" lon="-4.731779">
        <ele>56.0</ele>
        <time>2020-08-13T14:05:37Z</time>
      </trkpt>
      <trkpt lat="48.440816" lon="-4.730203">
        <ele>59.6</ele>
        <time>2020-08-13T14:05:52Z</time>
      </trkpt>
      <trkpt lat="48.441604" lon="-4.729274">
        <ele>61.0</ele>
        <time>2020-08-13T14:06:00Z</time>
      </trkpt>
      <trkpt lat="48.44241" lon="-4.72837">
        <ele>63.6</ele>
        <time>2020-08-13T14:06:08Z</time>
      </trkpt>
      <trkpt lat="48.443464" lon="-4.726914">
        <ele>65.0</ele>
        <time>2020-08-13T14:06:20Z</time>
      </trkpt>
      <trkpt lat="48.444025" lon="-4.72621">
        <ele>67.2</ele>
        <time>2020-08-13T14:06:26Z</time>
      </trkpt>
      <trkpt lat="48.444866" lon="-4.725059">
        <ele>68.8</ele>
        <time>2020-08-13T14:06:36Z</time>
      </trkpt>
      <trkpt lat="48.445489" lon="-4.724378">
        <ele>69.6</ele>
        <time>2020-08-13T14:06:42Z</time>
      </trkpt>
      <trkpt lat="48.446034" lon="-4.723862">
        <ele>68.6</ele>
        <time>2020-08-13T14:06:47Z</time>
      </trkpt>
      <trkpt lat="48.446595" lon="-4.723415">
        <ele>68.6</ele>
        <time>2020-08-13T14:06:52Z</time>
      </trkpt>
      <trkpt lat="48.447171" lon="-4.722922">
        <ele>67.0</ele>
        <time>2020-08-13T14:06:58Z</time>
      </trkpt>
      <trkpt lat="48.447498" lon="-4.722547">
        <ele>67.0</ele>
        <time>2020-08-13T14:07:01Z</time>
      </trkpt>
      <trkpt lat="48.447981" lon="-4.721701">
        <ele>65.4</ele>
        <time>2020-08-13T14:07:07Z</time>
      </trkpt>
      <trkpt lat="48.448292" lon="-4.720903">
        <ele>67.4</ele>
        <time>2020-08-13T14:07:12Z</time>
      </trkpt>
      <trkpt lat="48.448542" lon="-4.720386">
        <ele>67.2</ele>
        <time>2020-08-13T14:07:16Z</time>
      </trkpt>
      <trkpt lat="48.449024" lon="-4.72001">
        <ele>67.2</ele>
        <time>2020-08-13T14:07:20Z</time>
      </trkpt>
      <trkpt lat="48.44955" lon="-4.719895">
        <ele>65.2</ele>
        <time>2020-08-13T14:07:25Z</time>
      </trkpt>
      <trkpt lat="48.450759" lon="-4.720063">
        <ele>61.6</ele>
        <time>2020-08-13T14:07:35Z</time>
      </trkpt>
      <trkpt lat="48.451049" lon="-4.72008">
        <ele>59.4</ele>
        <time>2020-08-13T14:07:37Z</time>
      </trkpt>
      <trkpt lat="48.451226" lon="-4.72006">
        <ele>59.4</ele>
        <time>2020-08-13T14:07:39Z</time>
      </trkpt>
      <trkpt lat="48.451615" lon="-4.719902">
        <ele>60.0</ele>
        <time>2020-08-13T14:07:42Z</time>
      </trkpt>
      <trkpt lat="48.451755" lon="-4.719984">
        <ele>58.2</ele>
        <time>2020-08-13T14:07:44Z</time>
      </trkpt>
      <trkpt lat="48.451961" lon="-4.720063">
        <ele>58.0</ele>
        <time>2020-08-13T14:07:46Z</time>
      </trkpt>
      <trkpt lat="48.453976" lon="-4.720757">
        <ele>52.4</ele>
        <time>2020-08-13T14:08:10Z</time>
      </trkpt>
      <trkpt lat="48.454131" lon="-4.720805">
        <ele>52.4</ele>
        <time>2020-08-13T14:08:12Z</time>
      </trkpt>
      <trkpt lat="48.454344" lon="-4.720821">
        <ele>51.0</ele>
        <time>2020-08-13T14:08:14Z</time>
      </trkpt>
      <trkpt lat="48.454447" lon="-4.720775">
        <ele>51.0</ele>
        <time>2020-08-13T14:08:16Z</time>
      </trkpt>
      <trkpt lat="48.454694" lon="-4.720598">
        <ele>51.0</ele>
        <time>2020-08-13T14:08:19Z</time>
      </trkpt>
      <trkpt lat="48.456513" lon="-4.718954">
        <ele>44.6</ele>
        <time>2020-08-13T14:08:43Z</time>
      </trkpt>
      <trkpt lat="48.456866" lon="-4.718682">
        <ele>41.6</ele>
        <time>2020-08-13T14:08:48Z</time>
      </trkpt>
      <trkpt lat="48.457101" lon="-4.71858">
        <ele>41.6</ele>
        <time>2020-08-13T14:08:51Z</time>
      </trkpt>
      <trkpt lat="48.458538" lon="-4.718117">
        <ele>35.6</ele>
        <time>2020-08-13T14:09:07Z</time>
      </trkpt>
      <trkpt lat="48.462011" lon="-4.716895">
        <ele>31.2</ele>
        <time>2020-08-13T14:09:49Z</time>
      </trkpt>
      <trkpt lat="48.462188" lon="-4.716881">
        <ele>31.2</ele>
        <time>2020-08-13T14:09:51Z</time>
      </trkpt>
      <trkpt lat="48.464371" lon="-4.717118">
        <ele>25.6</ele>
        <time>2020-08-13T14:10:16Z</time>
      </trkpt>
      <trkpt lat="48.464783" lon="-4.717118">
        <ele>25.6</ele>
        <time>2020-08-13T14:10:20Z</time>
      </trkpt>
      <trkpt lat="48.465945" lon="-4.717031">
        <ele>17.6</ele>
        <time>2020-08-13T14:10:34Z</time>
      </trkpt>
      <trkpt lat="48.466952" lon="-4.717031">
        <ele>12.8</ele>
        <time>2020-08-13T14:10:45Z</time>
      </trkpt>
      <trkpt lat="48.467661" lon="-4.716998">
        <ele>9.6</ele>
        <time>2020-08-13T14:10:54Z</time>
      </trkpt>
      <trkpt lat="48.46793" lon="-4.717046">
        <ele>9.6</ele>
        <time>2020-08-13T14:10:57Z</time>
      </trkpt>
      <trkpt lat="48.46824" lon="-4.717227">
        <ele>9.6</ele>
        <time>2020-08-13T14:11:01Z</time>
      </trkpt>
      <trkpt lat="48.468288" lon="-4.717012">
        <ele>9.6</ele>
        <time>2020-08-13T14:11:02Z</time>
      </trkpt>
      <trkpt lat="48.46835" lon="-4.716886">
        <ele>8.6</ele>
        <time>2020-08-13T14:11:03Z</time>
      </trkpt>
      <trkpt lat="48.468458" lon="-4.716757">
        <ele>8.6</ele>
        <time>2020-08-13T14:11:04Z</time>
      </trkpt>
      <trkpt lat="48.468551" lon="-4.716708">
        <ele>8.6</ele>
        <time>2020-08-13T14:11:04Z</time>
      </trkpt>
      <trkpt lat="48.4689" lon="-4.716694">
        <ele>8.6</ele>
        <time>2020-08-13T14:11:07Z</time>
      </trkpt>
      <trkpt lat="48.469251" lon="-4.71673">
        <ele>7.6</ele>
        <time>2020-08-13T14:11:10Z</time>
      </trkpt>
      <trkpt lat="48.469426" lon="-4.716684">
        <ele>7.6</ele>
        <time>2020-08-13T14:11:11Z</time>
      </trkpt>
      <trkpt lat="48.469875" lon="-4.716477">
        <ele>6.8</ele>
        <time>2020-08-13T14:11:15Z</time>
      </trkpt>
      <trkpt lat="48.470053" lon="-4.716439">
        <ele>9.8</ele>
        <time>2020-08-13T14:11:16Z</time>
      </trkpt>
      <trkpt lat="48.470686" lon="-4.716409">
        <ele>9.8</ele>
        <time>2020-08-13T14:11:21Z</time>
      </trkpt>
      <trkpt lat="48.47087" lon="-4.716362">
        <ele>11.4</ele>
        <time>2020-08-13T14:11:22Z</time>
      </trkpt>
      <trkpt lat="48.471019" lon="-4.716277">
        <ele>11.4</ele>
        <time>2020-08-13T14:11:24Z</time>
      </trkpt>
      <trkpt lat="48.471143" lon="-4.716155">
        <ele>11.4</ele>
        <time>2020-08-13T14:11:25Z</time>
      </trkpt>
      <trkpt lat="48.471416" lon="-4.715804">
        <ele>15.6</ele>
        <time>2020-08-13T14:11:28Z</time>
      </trkpt>
      <trkpt lat="48.471709" lon="-4.715383">
        <ele>14.4</ele>
        <time>2020-08-13T14:11:31Z</time>
      </trkpt>
      <trkpt lat="48.471867" lon="-4.715032">
        <ele>14.4</ele>
        <time>2020-08-13T14:11:33Z</time>
      </trkpt>
      <trkpt lat="48.471954" lon="-4.714751">
        <ele>17.8</ele>
        <time>2020-08-13T14:11:34Z</time>
      </trkpt>
      <trkpt lat="48.472358" lon="-4.712928">
        <ele>24.4</ele>
        <time>2020-08-13T14:11:44Z</time>
      </trkpt>
      <trkpt lat="48.472512" lon="-4.71236">
        <ele>20.8</ele>
        <time>2020-08-13T14:11:47Z</time>
      </trkpt>
      <trkpt lat="48.472711" lon="-4.712586">
        <ele>19.2</ele>
        <time>2020-08-13T14:11:49Z</time>
      </trkpt>
      <trkpt lat="48.472788" lon="-4.712716">
        <ele>19.2</ele>
        <time>2020-08-13T14:11:49Z</time>
      </trkpt>
      <trkpt lat="48.472884" lon="-4.713011">
        <ele>19.2</ele>
        <time>2020-08-13T14:11:50Z</time>
      </trkpt>
      <trkpt lat="48.472974" lon="-4.713392">
        <ele>17.6</ele>
        <time>2020-08-13T14:11:51Z</time>
      </trkpt>
      <trkpt lat="48.473067" lon="-4.713688">
        <ele>17.6</ele>
        <time>2020-08-13T14:11:52Z</time>
      </trkpt>
      <trkpt lat="48.473176" lon="-4.713929">
        <ele>17.6</ele>
        <time>2020-08-13T14:11:53Z</time>
      </trkpt>
      <trkpt lat="48.473366" lon="-4.714193">
        <ele>19.6</ele>
        <time>2020-08-13T14:11:54Z</time>
      </trkpt>
      <trkpt lat="48.473488" lon="-4.714306">
        <ele>19.6</ele>
        <time>2020-08-13T14:11:55Z</time>
      </trkpt>
      <trkpt lat="48.474266" lon="-4.714816">
        <ele>25.0</ele>
        <time>2020-08-13T14:11:59Z</time>
      </trkpt>
      <trkpt lat="48.474838" lon="-4.715199">
        <ele>22.4</ele>
        <time>2020-08-13T14:12:02Z</time>
      </trkpt>
      <trkpt lat="48.476224" lon="-4.716553">
        <ele>23.4</ele>
        <time>2020-08-13T14:12:10Z</time>
      </trkpt>
      <trkpt lat="48.476692" lon="-4.717114">
        <ele>23.0</ele>
        <time>2020-08-13T14:12:12Z</time>
      </trkpt>
      <trkpt lat="48.476951" lon="-4.717461">
        <ele>23.0</ele>
        <time>2020-08-13T14:12:14Z</time>
      </trkpt>
      <trkpt lat="48.477117" lon="-4.7178">
        <ele>20.8</ele>
        <time>2020-08-13T14:12:15Z</time>
      </trkpt>
      <trkpt lat="48.477283" lon="-4.718229">
        <ele>20.8</ele>
        <time>2020-08-13T14:12:17Z</time>
      </trkpt>
      <trkpt lat="48.477274" lon="-4.718589">
        <ele>19.8</ele>
        <time>2020-08-13T14:12:18Z</time>
      </trkpt>
      <trkpt lat="48.477109" lon="-4.720418">
        <ele>18.8</ele>
        <time>2020-08-13T14:12:24Z</time>
      </trkpt>
      <trkpt lat="48.477014" lon="-4.721081">
        <ele>17.2</ele>
        <time>2020-08-13T14:12:27Z</time>
      </trkpt>
      <trkpt lat="48.477015" lon="-4.721221">
        <ele>17.2</ele>
        <time>2020-08-13T14:12:27Z</time>
      </trkpt>
      <trkpt lat="48.477128" lon="-4.722754">
        <ele>14.8</ele>
        <time>2020-08-13T14:12:33Z</time>
      </trkpt>
      <trkpt lat="48.477137" lon="-4.723122">
        <ele>14.8</ele>
        <time>2020-08-13T14:12:34Z</time>
      </trkpt>
      <trkpt lat="48.477126" lon="-4.723752">
        <ele>12.6</ele>
        <time>2020-08-13T14:12:36Z</time>
      </trkpt>
      <trkpt lat="48.477161" lon="-4.724019">
        <ele>12.6</ele>
        <time>2020-08-13T14:12:37Z</time>
      </trkpt>
      <trkpt lat="48.47728" lon="-4.724512">
        <ele>13.0</ele>
        <time>2020-08-13T14:12:39Z</time>
      </trkpt>
      <trkpt lat="48.477325" lon="-4.724806">
        <ele>13.0</ele>
        <time>2020-08-13T14:12:40Z</time>
      </trkpt>
      <trkpt lat="48.477347" lon="-4.725036">
        <ele>15.8</ele>
        <time>2020-08-13T14:12:41Z</time>
      </trkpt>
      <trkpt lat="48.477346" lon="-4.725188">
        <ele>15.8</ele>
        <time>2020-08-13T14:12:41Z</time>
      </trkpt>
      <trkpt lat="48.477042" lon="-4.726805">
        <ele>19.0</ele>
        <time>2020-08-13T14:12:47Z</time>
      </trkpt>
      <trkpt lat="48.477032" lon="-4.727939">
        <ele>18.4</ele>
        <time>2020-08-13T14:12:51Z</time>
      </trkpt>
      <trkpt lat="48.477086" lon="-4.729845">
        <ele>18.0</ele>
        <time>2020-08-13T14:12:58Z</time>
      </trkpt>
      <trkpt lat="48.477073" lon="-4.730255">
        <ele>18.8</ele>
        <time>2020-08-13T14:13:00Z</time>
      </trkpt>
      <trkpt lat="48.477024" lon="-4.730798">
        <ele>18.8</ele>
        <time>2020-08-13T14:13:01Z</time>
      </trkpt>
      <trkpt lat="48.476956" lon="-4.731222">
        <ele>20.2</ele>
        <time>2020-08-13T14:13:03Z</time>
      </trkpt>
      <trkpt lat="48.47667" lon="-4.732663">
        <ele>22.0</ele>
        <time>2020-08-13T14:13:08Z</time>
      </trkpt>
      <trkpt lat="48.476626" lon="-4.733038">
        <ele>15.8</ele>
        <time>2020-08-13T14:13:10Z</time>
      </trkpt>
      <trkpt lat="48.476523" lon="-4.73456">
        <ele>16.2</ele>
        <time>2020-08-13T14:13:15Z</time>
      </trkpt>
      <trkpt lat="48.476526" lon="-4.735342">
        <ele>15.6</ele>
        <time>2020-08-13T14:13:18Z</time>
      </trkpt>
      <trkpt lat="48.476552" lon="-4.735508">
        <ele>15.6</ele>
        <time>2020-08-13T14:13:18Z</time>
      </trkpt>
      <trkpt lat="48.476736" lon="-4.736058">
        <ele>18.8</ele>
        <time>2020-08-13T14:13:21Z</time>
      </trkpt>
      <trkpt lat="48.476886" lon="-4.736417">
        <ele>18.8</ele>
        <time>2020-08-13T14:13:22Z</time>
      </trkpt>
      <trkpt lat="48.476987" lon="-4.736707">
        <ele>19.8</ele>
        <time>2020-08-13T14:13:23Z</time>
      </trkpt>
      <trkpt lat="48.477005" lon="-4.736893">
        <ele>19.8</ele>
        <time>2020-08-13T14:13:24Z</time>
      </trkpt>
      <trkpt lat="48.476994" lon="-4.737127">
        <ele>19.8</ele>
        <time>2020-08-13T14:13:25Z</time>
      </trkpt>
      <trkpt lat="48.476702" lon="-4.738047">
        <ele>20.8</ele>
        <time>2020-08-13T14:13:28Z</time>
      </trkpt>
      <trkpt lat="48.476561" lon="-4.738344">
        <ele>17.4</ele>
        <time>2020-08-13T14:13:30Z</time>
      </trkpt>
      <trkpt lat="48.476436" lon="-4.738493">
        <ele>17.4</ele>
        <time>2020-08-13T14:13:30Z</time>
      </trkpt>
      <trkpt lat="48.475969" lon="-4.738965">
        <ele>17.4</ele>
        <time>2020-08-13T14:13:33Z</time>
      </trkpt>
      <trkpt lat="48.475847" lon="-4.739132">
        <ele>17.4</ele>
        <time>2020-08-13T14:13:34Z</time>
      </trkpt>
      <trkpt lat="48.47575" lon="-4.739418">
        <ele>14.4</ele>
        <time>2020-08-13T14:13:35Z</time>
      </trkpt>
      <trkpt lat="48.475583" lon="-4.740201">
        <ele>17.2</ele>
        <time>2020-08-13T14:13:38Z</time>
      </trkpt>
      <trkpt lat="48.475535" lon="-4.740491">
        <ele>17.2</ele>
        <time>2020-08-13T14:13:39Z</time>
      </trkpt>
      <trkpt lat="48.475465" lon="-4.741557">
        <ele>19.8</ele>
        <time>2020-08-13T14:13:43Z</time>
      </trkpt>
      <trkpt lat="48.475392" lon="-4.741763">
        <ele>21.0</ele>
        <time>2020-08-13T14:13:44Z</time>
      </trkpt>
      <trkpt lat="48.4749" lon="-4.74274">
        <ele>18.0</ele>
        <time>2020-08-13T14:13:48Z</time>
      </trkpt>
      <trkpt lat="48.474856" lon="-4.742911">
        <ele>18.0</ele>
        <time>2020-08-13T14:13:49Z</time>
      </trkpt>
      <trkpt lat="48.474801" lon="-4.743737">
        <ele>16.8</ele>
        <time>2020-08-13T14:13:52Z</time>
      </trkpt>
      <trkpt lat="48.474759" lon="-4.744056">
        <ele>16.8</ele>
        <time>2020-08-13T14:13:53Z</time>
      </trkpt>
      <trkpt lat="48.474516" lon="-4.745095">
        <ele>19.0</ele>
        <time>2020-08-13T14:13:57Z</time>
      </trkpt>
      <trkpt lat="48.474436" lon="-4.745281">
        <ele>19.0</ele>
        <time>2020-08-13T14:13:58Z</time>
      </trkpt>
      <trkpt lat="48.474319" lon="-4.745426">
        <ele>19.0</ele>
        <time>2020-08-13T14:13:58Z</time>
      </trkpt>
      <trkpt lat="48.473843" lon="-4.745735">
        <ele>14.6</ele>
        <time>2020-08-13T14:14:01Z</time>
      </trkpt>
      <trkpt lat="48.473546" lon="-4.745955">
        <ele>16.0</ele>
        <time>2020-08-13T14:14:03Z</time>
      </trkpt>
      <trkpt lat="48.473458" lon="-4.746042">
        <ele>16.0</ele>
        <time>2020-08-13T14:14:03Z</time>
      </trkpt>
      <trkpt lat="48.473375" lon="-4.746185">
        <ele>16.0</ele>
        <time>2020-08-13T14:14:04Z</time>
      </trkpt>
      <trkpt lat="48.473122" lon="-4.746917">
        <ele>10.0</ele>
        <time>2020-08-13T14:14:07Z</time>
      </trkpt>
      <trkpt lat="48.473053" lon="-4.747323">
        <ele>10.0</ele>
        <time>2020-08-13T14:14:08Z</time>
      </trkpt>
      <trkpt lat="48.473042" lon="-4.747522">
        <ele>8.25</ele>
        <time>2020-08-13T14:14:09Z</time>
      </trkpt>
      <trkpt lat="48.47305" lon="-4.748045">
        <ele>8.25</ele>
        <time>2020-08-13T14:14:11Z</time>
      </trkpt>
      <trkpt lat="48.473088" lon="-4.748404">
        <ele>7.66</ele>
        <time>2020-08-13T14:14:12Z</time>
      </trkpt>
      <trkpt lat="48.473184" lon="-4.748809">
        <ele>7.66</ele>
        <time>2020-08-13T14:14:14Z</time>
      </trkpt>
      <trkpt lat="48.473234" lon="-4.748945">
        <ele>7.66</ele>
        <time>2020-08-13T14:14:14Z</time>
      </trkpt>
      <trkpt lat="48.473315" lon="-4.749115">
        <ele>7.66</ele>
        <time>2020-08-13T14:14:15Z</time>
      </trkpt>
      <trkpt lat="48.473492" lon="-4.749379">
        <ele>6.75</ele>
        <time>2020-08-13T14:14:16Z</time>
      </trkpt>
      <trkpt lat="48.474263" lon="-4.750094">
        <ele>6.8</ele>
        <time>2020-08-13T14:14:21Z</time>
      </trkpt>
      <trkpt lat="48.474316" lon="-4.750191">
        <ele>6.8</ele>
        <time>2020-08-13T14:14:22Z</time>
      </trkpt>
      <trkpt lat="48.474349" lon="-4.750321">
        <ele>6.8</ele>
        <time>2020-08-13T14:14:22Z</time>
      </trkpt>
      <trkpt lat="48.474378" lon="-4.750602">
        <ele>6.8</ele>
        <time>2020-08-13T14:14:23Z</time>
      </trkpt>
      <trkpt lat="48.474343" lon="-4.750891">
        <ele>8.2</ele>
        <time>2020-08-13T14:14:24Z</time>
      </trkpt>
      <trkpt lat="48.474278" lon="-4.751068">
        <ele>8.2</ele>
        <time>2020-08-13T14:14:25Z</time>
      </trkpt>
      <trkpt lat="48.473614" lon="-4.751934">
        <ele>7.5</ele>
        <time>2020-08-13T14:14:30Z</time>
      </trkpt>
      <trkpt lat="48.473557" lon="-4.752072">
        <ele>7.5</ele>
        <time>2020-08-13T14:14:30Z</time>
      </trkpt>
      <trkpt lat="48.473364" lon="-4.753011">
        <ele>7.6</ele>
        <time>2020-08-13T14:14:34Z</time>
      </trkpt>
      <trkpt lat="48.473328" lon="-4.753597">
        <ele>4.5</ele>
        <time>2020-08-13T14:14:36Z</time>
      </trkpt>
      <trkpt lat="48.473226" lon="-4.754109">
        <ele>4.5</ele>
        <time>2020-08-13T14:14:38Z</time>
      </trkpt>
      <trkpt lat="48.473207" lon="-4.754385">
        <ele>6.75</ele>
        <time>2020-08-13T14:14:38Z</time>
      </trkpt>
      <trkpt lat="48.473233" lon="-4.754632">
        <ele>6.75</ele>
        <time>2020-08-13T14:14:39Z</time>
      </trkpt>
      <trkpt lat="48.473269" lon="-4.754756">
        <ele>6.75</ele>
        <time>2020-08-13T14:14:40Z</time>
      </trkpt>
      <trkpt lat="48.473334" lon="-4.754903">
        <ele>11.2</ele>
        <time>2020-08-13T14:14:40Z</time>
      </trkpt>
      <trkpt lat="48.473463" lon="-4.75513">
        <ele>12.6</ele>
        <time>2020-08-13T14:14:42Z</time>
      </trkpt>
      <trkpt lat="48.47632" lon="-4.75901">
        <ele>19.8</ele>
        <time>2020-08-13T14:15:02Z</time>
      </trkpt>
      <trkpt lat="48.476952" lon="-4.759905">
        <ele>22.0</ele>
        <time>2020-08-13T14:15:07Z</time>
      </trkpt>
      <trkpt lat="48.47729" lon="-4.760484">
        <ele>21.0</ele>
        <time>2020-08-13T14:15:09Z</time>
      </trkpt>
      <trkpt lat="48.477216" lon="-4.760679">
        <ele>21.0</ele>
        <time>2020-08-13T14:15:11Z</time>
      </trkpt>
      <trkpt lat="48.477191" lon="-4.761181">
        <ele>20.0</ele>
        <time>2020-08-13T14:15:15Z</time>
      </trkpt>
      <trkpt lat="48.477179" lon="-4.761277">
        <ele>20.0</ele>
        <time>2020-08-13T14:15:16Z</time>
      </trkpt>
      <trkpt lat="48.477144" lon="-4.761375">
        <ele>20.0</ele>
        <time>2020-08-13T14:15:17Z</time>
      </trkpt>
      <trkpt lat="48.477085" lon="-4.761466">
        <ele>20.0</ele>
        <time>2020-08-13T14:15:18Z</time>
      </trkpt>
      <trkpt lat="48.476877" lon="-4.761666">
        <ele>20.0</ele>
        <time>2020-08-13T14:15:20Z</time>
      </trkpt>
      <trkpt lat="48.476564" lon="-4.761891">
        <ele>17.1</ele>
        <time>2020-08-13T14:15:24Z</time>
      </trkpt>
      <trkpt lat="48.476564" lon="-4.761891">
        <ele>17.1</ele>
        <time>2020-08-13T14:15:24Z</time>
      </trkpt>
      <trkpt lat="48.476877" lon="-4.761666">
        <ele>20.0</ele>
        <time>2020-08-13T14:15:28Z</time>
      </trkpt>
      <trkpt lat="48.477085" lon="-4.761466">
        <ele>20.0</ele>
        <time>2020-08-13T14:15:31Z</time>
      </trkpt>
      <trkpt lat="48.477144" lon="-4.761375">
        <ele>20.0</ele>
        <time>2020-08-13T14:15:32Z</time>
      </trkpt>
      <trkpt lat="48.477179" lon="-4.761277">
        <ele>20.0</ele>
        <time>2020-08-13T14:15:33Z</time>
      </trkpt>
      <trkpt lat="48.477191" lon="-4.761181">
        <ele>20.0</ele>
        <time>2020-08-13T14:15:34Z</time>
      </trkpt>
      <trkpt lat="48.477216" lon="-4.760679">
        <ele>21.0</ele>
        <time>2020-08-13T14:15:38Z</time>
      </trkpt>
      <trkpt lat="48.47729" lon="-4.760484">
        <ele>21.0</ele>
        <time>2020-08-13T14:15:39Z</time>
      </trkpt>
      <trkpt lat="48.477552" lon="-4.761053">
        <ele>21.6</ele>
        <time>2020-08-13T14:15:43Z</time>
      </trkpt>
      <trkpt lat="48.477656" lon="-4.761341">
        <ele>21.6</ele>
        <time>2020-08-13T14:15:44Z</time>
      </trkpt>
      <trkpt lat="48.477975" lon="-4.763269">
        <ele>18.0</ele>
        <time>2020-08-13T14:15:54Z</time>
      </trkpt>
      <trkpt lat="48.47804" lon="-4.76356">
        <ele>15.8</ele>
        <time>2020-08-13T14:15:55Z</time>
      </trkpt>
      <trkpt lat="48.478126" lon="-4.763851">
        <ele>15.8</ele>
        <time>2020-08-13T14:15:57Z</time>
      </trkpt>
      <trkpt lat="48.478226" lon="-4.764134">
        <ele>15.8</ele>
        <time>2020-08-13T14:15:58Z</time>
      </trkpt>
      <trkpt lat="48.478686" lon="-4.76517">
        <ele>13.2</ele>
        <time>2020-08-13T14:16:04Z</time>
      </trkpt>
      <trkpt lat="48.478992" lon="-4.765711">
        <ele>13.2</ele>
        <time>2020-08-13T14:16:08Z</time>
      </trkpt>
      <trkpt lat="48.479165" lon="-4.765949">
        <ele>10.6</ele>
        <time>2020-08-13T14:16:10Z</time>
      </trkpt>
      <trkpt lat="48.479375" lon="-4.766159">
        <ele>10.8</ele>
        <time>2020-08-13T14:16:11Z</time>
      </trkpt>
      <trkpt lat="48.479736" lon="-4.766382">
        <ele>10.8</ele>
        <time>2020-08-13T14:16:14Z</time>
      </trkpt>
      <trkpt lat="48.48002" lon="-4.766489">
        <ele>9.2</ele>
        <time>2020-08-13T14:16:16Z</time>
      </trkpt>
      <trkpt lat="48.480207" lon="-4.766535">
        <ele>9.2</ele>
        <time>2020-08-13T14:16:18Z</time>
      </trkpt>
      <trkpt lat="48.480602" lon="-4.766569">
        <ele>9.2</ele>
        <time>2020-08-13T14:16:21Z</time>
      </trkpt>
      <trkpt lat="48.480797" lon="-4.766613">
        <ele>9.2</ele>
        <time>2020-08-13T14:16:22Z</time>
      </trkpt>
      <trkpt lat="48.480978" lon="-4.766719">
        <ele>6.0</ele>
        <time>2020-08-13T14:16:23Z</time>
      </trkpt>
      <trkpt lat="48.481105" lon="-4.766839">
        <ele>6.0</ele>
        <time>2020-08-13T14:16:25Z</time>
      </trkpt>
      <trkpt lat="48.481517" lon="-4.767398">
        <ele>6.0</ele>
        <time>2020-08-13T14:16:29Z</time>
      </trkpt>
      <trkpt lat="48.481714" lon="-4.767637">
        <ele>5.33</ele>
        <time>2020-08-13T14:16:30Z</time>
      </trkpt>
      <trkpt lat="48.482549" lon="-4.768314">
        <ele>6.6</ele>
        <time>2020-08-13T14:16:37Z</time>
      </trkpt>
      <trkpt lat="48.482646" lon="-4.76843">
        <ele>5.25</ele>
        <time>2020-08-13T14:16:38Z</time>
      </trkpt>
      <trkpt lat="48.482799" lon="-4.768684">
        <ele>5.25</ele>
        <time>2020-08-13T14:16:40Z</time>
      </trkpt>
      <trkpt lat="48.482873" lon="-4.768897">
        <ele>5.25</ele>
        <time>2020-08-13T14:16:41Z</time>
      </trkpt>
      <trkpt lat="48.482908" lon="-4.769072">
        <ele>5.25</ele>
        <time>2020-08-13T14:16:42Z</time>
      </trkpt>
      <trkpt lat="48.482977" lon="-4.769817">
        <ele>4.0</ele>
        <time>2020-08-13T14:16:45Z</time>
      </trkpt>
      <trkpt lat="48.483049" lon="-4.770044">
        <ele>2.2</ele>
        <time>2020-08-13T14:16:47Z</time>
      </trkpt>
      <trkpt lat="48.483134" lon="-4.77025">
        <ele>2.2</ele>
        <time>2020-08-13T14:16:48Z</time>
      </trkpt>
      <trkpt lat="48.48327" lon="-4.770457">
        <ele>2.2</ele>
        <time>2020-08-13T14:16:49Z</time>
      </trkpt>
      <trkpt lat="48.483396" lon="-4.770574">
        <ele>5.0</ele>
        <time>2020-08-13T14:16:50Z</time>
      </trkpt>
      <trkpt lat="48.483629" lon="-4.770726">
        <ele>5.0</ele>
        <time>2020-08-13T14:16:52Z</time>
      </trkpt>
      <trkpt lat="48.483863" lon="-4.770843">
        <ele>2.4</ele>
        <time>2020-08-13T14:16:54Z</time>
      </trkpt>
      <trkpt lat="48.484617" lon="-4.771094">
        <ele>3.2</ele>
        <time>2020-08-13T14:17:00Z</time>
      </trkpt>
      <trkpt lat="48.485565" lon="-4.77118">
        <ele>2.5</ele>
        <time>2020-08-13T14:17:06Z</time>
      </trkpt>
      <trkpt lat="48.486037" lon="-4.77119">
        <ele>2.75</ele>
        <time>2020-08-13T14:17:10Z</time>
      </trkpt>
      <trkpt lat="48.486731" lon="-4.771244">
        <ele>4.5</ele>
        <time>2020-08-13T14:17:15Z</time>
      </trkpt>
      <trkpt lat="48.487112" lon="-4.771128">
        <ele>4.5</ele>
        <time>2020-08-13T14:17:18Z</time>
      </trkpt>
      <trkpt lat="48.487267" lon="-4.771039">
        <ele>4.5</ele>
        <time>2020-08-13T14:17:19Z</time>
      </trkpt>
      <trkpt lat="48.487574" lon="-4.770806">
        <ele>8.2</ele>
        <time>2020-08-13T14:17:21Z</time>
      </trkpt>
      <trkpt lat="48.487795" lon="-4.770702">
        <ele>8.2</ele>
        <time>2020-08-13T14:17:23Z</time>
      </trkpt>
      <trkpt lat="48.487948" lon="-4.770588">
        <ele>8.2</ele>
        <time>2020-08-13T14:17:24Z</time>
      </trkpt>
      <trkpt lat="48.48809" lon="-4.770451">
        <ele>8.2</ele>
        <time>2020-08-13T14:17:26Z</time>
      </trkpt>
      <trkpt lat="48.488201" lon="-4.770298">
        <ele>8.2</ele>
        <time>2020-08-13T14:17:27Z</time>
      </trkpt>
      <trkpt lat="48.488417" lon="-4.769841">
        <ele>12.4</ele>
        <time>2020-08-13T14:17:29Z</time>
      </trkpt>
      <trkpt lat="48.488584" lon="-4.769585">
        <ele>12.4</ele>
        <time>2020-08-13T14:17:31Z</time>
      </trkpt>
      <trkpt lat="48.488991" lon="-4.769065">
        <ele>12.8</ele>
        <time>2020-08-13T14:17:35Z</time>
      </trkpt>
      <trkpt lat="48.490009" lon="-4.767555">
        <ele>17.2</ele>
        <time>2020-08-13T14:17:45Z</time>
      </trkpt>
      <trkpt lat="48.490306" lon="-4.767223">
        <ele>17.4</ele>
        <time>2020-08-13T14:17:48Z</time>
      </trkpt>
      <trkpt lat="48.49099" lon="-4.766567">
        <ele>20.0</ele>
        <time>2020-08-13T14:17:54Z</time>
      </trkpt>
      <trkpt lat="48.491338" lon="-4.766291">
        <ele>20.0</ele>
        <time>2020-08-13T14:17:57Z</time>
      </trkpt>
      <trkpt lat="48.4917" lon="-4.766075">
        <ele>23.2</ele>
        <time>2020-08-13T14:18:00Z</time>
      </trkpt>
      <trkpt lat="48.491926" lon="-4.765866">
        <ele>23.2</ele>
        <time>2020-08-13T14:18:02Z</time>
      </trkpt>
      <trkpt lat="48.492168" lon="-4.765575">
        <ele>23.2</ele>
        <time>2020-08-13T14:18:04Z</time>
      </trkpt>
      <trkpt lat="48.492616" lon="-4.764907">
        <ele>24.8</ele>
        <time>2020-08-13T14:18:08Z</time>
      </trkpt>
      <trkpt lat="48.492788" lon="-4.764701">
        <ele>24.8</ele>
        <time>2020-08-13T14:18:10Z</time>
      </trkpt>
      <trkpt lat="48.492936" lon="-4.764586">
        <ele>24.8</ele>
        <time>2020-08-13T14:18:11Z</time>
      </trkpt>
      <trkpt lat="48.493188" lon="-4.764515">
        <ele>24.8</ele>
        <time>2020-08-13T14:18:13Z</time>
      </trkpt>
      <trkpt lat="48.493307" lon="-4.764491">
        <ele>24.8</ele>
        <time>2020-08-13T14:18:14Z</time>
      </trkpt>
      <trkpt lat="48.4937" lon="-4.764517">
        <ele>25.4</ele>
        <time>2020-08-13T14:18:17Z</time>
      </trkpt>
      <trkpt lat="48.494252" lon="-4.764648">
        <ele>25.6</ele>
        <time>2020-08-13T14:18:21Z</time>
      </trkpt>
      <trkpt lat="48.495726" lon="-4.76531">
        <ele>24.8</ele>
        <time>2020-08-13T14:18:32Z</time>
      </trkpt>
      <trkpt lat="48.49586" lon="-4.765362">
        <ele>25.4</ele>
        <time>2020-08-13T14:18:33Z</time>
      </trkpt>
      <trkpt lat="48.496152" lon="-4.765414">
        <ele>25.4</ele>
        <time>2020-08-13T14:18:35Z</time>
      </trkpt>
      <trkpt lat="48.49645" lon="-4.765373">
        <ele>25.4</ele>
        <time>2020-08-13T14:18:37Z</time>
      </trkpt>
      <trkpt lat="48.496737" lon="-4.76525">
        <ele>28.0</ele>
        <time>2020-08-13T14:18:39Z</time>
      </trkpt>
      <trkpt lat="48.49694" lon="-4.765124">
        <ele>28.0</ele>
        <time>2020-08-13T14:18:41Z</time>
      </trkpt>
      <trkpt lat="48.497618" lon="-4.76464">
        <ele>30.6</ele>
        <time>2020-08-13T14:18:46Z</time>
      </trkpt>
      <trkpt lat="48.497855" lon="-4.764551">
        <ele>30.6</ele>
        <time>2020-08-13T14:18:48Z</time>
      </trkpt>
      <trkpt lat="48.499336" lon="-4.764158">
        <ele>35.4</ele>
        <time>2020-08-13T14:18:59Z</time>
      </trkpt>
      <trkpt lat="48.499618" lon="-4.764139">
        <ele>35.4</ele>
        <time>2020-08-13T14:19:01Z</time>
      </trkpt>
      <trkpt lat="48.500009" lon="-4.764172">
        <ele>34.0</ele>
        <time>2020-08-13T14:19:04Z</time>
      </trkpt>
      <trkpt lat="48.500997" lon="-4.764395">
        <ele>33.6</ele>
        <time>2020-08-13T14:19:11Z</time>
      </trkpt>
      <trkpt lat="48.501581" lon="-4.764513">
        <ele>33.6</ele>
        <time>2020-08-13T14:19:15Z</time>
      </trkpt>
      <trkpt lat="48.502265" lon="-4.764612">
        <ele>33.2</ele>
        <time>2020-08-13T14:19:20Z</time>
      </trkpt>
      <trkpt lat="48.502439" lon="-4.764667">
        <ele>33.2</ele>
        <time>2020-08-13T14:19:22Z</time>
      </trkpt>
      <trkpt lat="48.502664" lon="-4.764802">
        <ele>33.2</ele>
        <time>2020-08-13T14:19:24Z</time>
      </trkpt>
      <trkpt lat="48.503709" lon="-4.765589">
        <ele>32.4</ele>
        <time>2020-08-13T14:19:32Z</time>
      </trkpt>
      <trkpt lat="48.504277" lon="-4.766059">
        <ele>31.4</ele>
        <time>2020-08-13T14:19:37Z</time>
      </trkpt>
      <trkpt lat="48.504557" lon="-4.766232">
        <ele>31.4</ele>
        <time>2020-08-13T14:19:39Z</time>
      </trkpt>
      <trkpt lat="48.504688" lon="-4.766289">
        <ele>31.4</ele>
        <time>2020-08-13T14:19:40Z</time>
      </trkpt>
      <trkpt lat="48.50481" lon="-4.766313">
        <ele>31.4</ele>
        <time>2020-08-13T14:19:41Z</time>
      </trkpt>
      <trkpt lat="48.505041" lon="-4.766317">
        <ele>31.4</ele>
        <time>2020-08-13T14:19:42Z</time>
      </trkpt>
      <trkpt lat="48.505272" lon="-4.766289">
        <ele>31.4</ele>
        <time>2020-08-13T14:19:44Z</time>
      </trkpt>
      <trkpt lat="48.505708" lon="-4.766218">
        <ele>31.4</ele>
        <time>2020-08-13T14:19:47Z</time>
      </trkpt>
      <trkpt lat="48.506212" lon="-4.766091">
        <ele>30.6</ele>
        <time>2020-08-13T14:19:51Z</time>
      </trkpt>
      <trkpt lat="48.507167" lon="-4.765819">
        <ele>29.4</ele>
        <time>2020-08-13T14:19:58Z</time>
      </trkpt>
      <trkpt lat="48.509092" lon="-4.765225">
        <ele>22.8</ele>
        <time>2020-08-13T14:20:12Z</time>
      </trkpt>
      <trkpt lat="48.509555" lon="-4.765048">
        <ele>18.4</ele>
        <time>2020-08-13T14:20:16Z</time>
      </trkpt>
      <trkpt lat="48.509561" lon="-4.764986">
        <ele>21.0</ele>
        <time>2020-08-13T14:20:17Z</time>
      </trkpt>
      <trkpt lat="48.509597" lon="-4.764953">
        <ele>21.0</ele>
        <time>2020-08-13T14:20:18Z</time>
      </trkpt>
      <trkpt lat="48.509614" lon="-4.764954">
        <ele>21.0</ele>
        <time>2020-08-13T14:20:19Z</time>
      </trkpt>
      <trkpt lat="48.509654" lon="-4.765017">
        <ele>18.4</ele>
        <time>2020-08-13T14:20:20Z</time>
      </trkpt>
      <trkpt lat="48.510775" lon="-4.764827">
        <ele>19.0</ele>
        <time>2020-08-13T14:20:47Z</time>
      </trkpt>
      <trkpt lat="48.510803" lon="-4.76475">
        <ele>19.0</ele>
        <time>2020-08-13T14:20:47Z</time>
      </trkpt>
      <trkpt lat="48.510834" lon="-4.764748">
        <ele>13.8</ele>
        <time>2020-08-13T14:20:48Z</time>
      </trkpt>
      <trkpt lat="48.510865" lon="-4.764798">
        <ele>13.8</ele>
        <time>2020-08-13T14:20:49Z</time>
      </trkpt>
      <trkpt lat="48.511137" lon="-4.764762">
        <ele>13.8</ele>
        <time>2020-08-13T14:20:53Z</time>
      </trkpt>
      <trkpt lat="48.512174" lon="-4.764566">
        <ele>11.0</ele>
        <time>2020-08-13T14:21:08Z</time>
      </trkpt>
      <trkpt lat="48.51229" lon="-4.76463">
        <ele>11.0</ele>
        <time>2020-08-13T14:21:10Z</time>
      </trkpt>
      <trkpt lat="48.512409" lon="-4.764653">
        <ele>11.0</ele>
        <time>2020-08-13T14:21:12Z</time>
      </trkpt>
      <trkpt lat="48.513076" lon="-4.764297">
        <ele>9.4</ele>
        <time>2020-08-13T14:21:18Z</time>
      </trkpt>
      <trkpt lat="48.513459" lon="-4.764146">
        <ele>10.8</ele>
        <time>2020-08-13T14:21:22Z</time>
      </trkpt>
      <trkpt lat="48.513815" lon="-4.763971">
        <ele>10.8</ele>
        <time>2020-08-13T14:21:25Z</time>
      </trkpt>
      <trkpt lat="48.514014" lon="-4.763907">
        <ele>10.8</ele>
        <time>2020-08-13T14:21:27Z</time>
      </trkpt>
      <trkpt lat="48.514377" lon="-4.76387">
        <ele>10.8</ele>
        <time>2020-08-13T14:21:30Z</time>
      </trkpt>
      <trkpt lat="48.515268" lon="-4.763593">
        <ele>10.0</ele>
        <time>2020-08-13T14:21:37Z</time>
      </trkpt>
      <trkpt lat="48.515577" lon="-4.763438">
        <ele>10.0</ele>
        <time>2020-08-13T14:21:40Z</time>
      </trkpt>
      <trkpt lat="48.516815" lon="-4.7627">
        <ele>8.0</ele>
        <time>2020-08-13T14:21:51Z</time>
      </trkpt>
      <trkpt lat="48.516954" lon="-4.762602">
        <ele>8.0</ele>
        <time>2020-08-13T14:21:53Z</time>
      </trkpt>
      <trkpt lat="48.517434" lon="-4.762162">
        <ele>8.4</ele>
        <time>2020-08-13T14:21:57Z</time>
      </trkpt>
      <trkpt lat="48.517938" lon="-4.761876">
        <ele>8.0</ele>
        <time>2020-08-13T14:22:02Z</time>
      </trkpt>
      <trkpt lat="48.518127" lon="-4.761804">
        <ele>8.0</ele>
        <time>2020-08-13T14:22:03Z</time>
      </trkpt>
      <trkpt lat="48.518243" lon="-4.761712">
        <ele>8.0</ele>
        <time>2020-08-13T14:22:05Z</time>
      </trkpt>
      <trkpt lat="48.518693" lon="-4.761132">
        <ele>9.6</ele>
        <time>2020-08-13T14:22:10Z</time>
      </trkpt>
      <trkpt lat="48.518798" lon="-4.76092">
        <ele>9.6</ele>
        <time>2020-08-13T14:22:11Z</time>
      </trkpt>
      <trkpt lat="48.518936" lon="-4.7604">
        <ele>10.6</ele>
        <time>2020-08-13T14:22:14Z</time>
      </trkpt>
      <trkpt lat="48.519036" lon="-4.76016">
        <ele>10.6</ele>
        <time>2020-08-13T14:22:16Z</time>
      </trkpt>
      <trkpt lat="48.519824" lon="-4.75913">
        <ele>11.4</ele>
        <time>2020-08-13T14:22:25Z</time>
      </trkpt>
      <trkpt lat="48.519883" lon="-4.759334">
        <ele>10.8</ele>
        <time>2020-08-13T14:22:27Z</time>
      </trkpt>
      <trkpt lat="48.519926" lon="-4.759623">
        <ele>10.8</ele>
        <time>2020-08-13T14:22:31Z</time>
      </trkpt>
      <trkpt lat="48.519921" lon="-4.75979">
        <ele>10.8</ele>
        <time>2020-08-13T14:22:33Z</time>
      </trkpt>
      <trkpt lat="48.519876" lon="-4.760104">
        <ele>9.2</ele>
        <time>2020-08-13T14:22:37Z</time>
      </trkpt>
      <trkpt lat="48.520106" lon="-4.760203">
        <ele>7.0</ele>
        <time>2020-08-13T14:22:41Z</time>
      </trkpt>
      <trkpt lat="48.520309" lon="-4.760219">
        <ele>7.0</ele>
        <time>2020-08-13T14:22:45Z</time>
      </trkpt>
      <trkpt lat="48.520309" lon="-4.760219">
        <ele>7.0</ele>
        <time>2020-08-13T14:22:45Z</time>
      </trkpt>
      <trkpt lat="48.520106" lon="-4.760203">
        <ele>7.0</ele>
        <time>2020-08-13T14:22:49Z</time>
      </trkpt>
      <trkpt lat="48.519876" lon="-4.760104">
        <ele>9.2</ele>
        <time>2020-08-13T14:22:53Z</time>
      </trkpt>
      <trkpt lat="48.519921" lon="-4.75979">
        <ele>10.8</ele>
        <time>2020-08-13T14:22:57Z</time>
      </trkpt>
      <trkpt lat="48.519926" lon="-4.759623">
        <ele>10.8</ele>
        <time>2020-08-13T14:22:59Z</time>
      </trkpt>
      <trkpt lat="48.519883" lon="-4.759334">
        <ele>10.8</ele>
        <time>2020-08-13T14:23:03Z</time>
      </trkpt>
      <trkpt lat="48.519824" lon="-4.75913">
        <ele>11.4</ele>
        <time>2020-08-13T14:23:06Z</time>
      </trkpt>
      <trkpt lat="48.520721" lon="-4.758002">
        <ele>9.0</ele>
        <time>2020-08-13T14:23:18Z</time>
      </trkpt>
      <trkpt lat="48.520829" lon="-4.757776">
        <ele>9.0</ele>
        <time>2020-08-13T14:23:19Z</time>
      </trkpt>
      <trkpt lat="48.521098" lon="-4.75768">
        <ele>6.0</ele>
        <time>2020-08-13T14:23:22Z</time>
      </trkpt>
      <trkpt lat="48.521253" lon="-4.757721">
        <ele>6.0</ele>
        <time>2020-08-13T14:23:23Z</time>
      </trkpt>
      <trkpt lat="48.52166" lon="-4.757959">
        <ele>6.0</ele>
        <time>2020-08-13T14:23:27Z</time>
      </trkpt>
      <trkpt lat="48.522337" lon="-4.758279">
        <ele>5.25</ele>
        <time>2020-08-13T14:23:32Z</time>
      </trkpt>
      <trkpt lat="48.522905" lon="-4.758522">
        <ele>3.66</ele>
        <time>2020-08-13T14:23:37Z</time>
      </trkpt>
      <trkpt lat="48.523242" lon="-4.758641">
        <ele>3.67</ele>
        <time>2020-08-13T14:23:40Z</time>
      </trkpt>
      <trkpt lat="48.52339" lon="-4.758652">
        <ele>5.0</ele>
        <time>2020-08-13T14:23:41Z</time>
      </trkpt>
      <trkpt lat="48.52371" lon="-4.758586">
        <ele>5.0</ele>
        <time>2020-08-13T14:23:43Z</time>
      </trkpt>
      <trkpt lat="48.52381" lon="-4.758585">
        <ele>5.0</ele>
        <time>2020-08-13T14:23:44Z</time>
      </trkpt>
      <trkpt lat="48.523908" lon="-4.758601">
        <ele>5.0</ele>
        <time>2020-08-13T14:23:45Z</time>
      </trkpt>
      <trkpt lat="48.524047" lon="-4.75866">
        <ele>5.0</ele>
        <time>2020-08-13T14:23:46Z</time>
      </trkpt>
      <trkpt lat="48.524162" lon="-4.75862">
        <ele>5.0</ele>
        <time>2020-08-13T14:23:47Z</time>
      </trkpt>
      <trkpt lat="48.52429" lon="-4.758532">
        <ele>8.6</ele>
        <time>2020-08-13T14:23:48Z</time>
      </trkpt>
      <trkpt lat="48.524507" lon="-4.758152">
        <ele>9.8</ele>
        <time>2020-08-13T14:23:51Z</time>
      </trkpt>
      <trkpt lat="48.52482" lon="-4.757847">
        <ele>9.8</ele>
        <time>2020-08-13T14:23:54Z</time>
      </trkpt>
      <trkpt lat="48.525392" lon="-4.757124">
        <ele>11.2</ele>
        <time>2020-08-13T14:24:00Z</time>
      </trkpt>
      <trkpt lat="48.525749" lon="-4.756568">
        <ele>11.8</ele>
        <time>2020-08-13T14:24:04Z</time>
      </trkpt>
      <trkpt lat="48.525916" lon="-4.75621">
        <ele>12.6</ele>
        <time>2020-08-13T14:24:06Z</time>
      </trkpt>
      <trkpt lat="48.526046" lon="-4.755833">
        <ele>12.6</ele>
        <time>2020-08-13T14:24:08Z</time>
      </trkpt>
      <trkpt lat="48.52639" lon="-4.754708">
        <ele>11.8</ele>
        <time>2020-08-13T14:24:14Z</time>
      </trkpt>
      <trkpt lat="48.526519" lon="-4.754203">
        <ele>11.8</ele>
        <time>2020-08-13T14:24:17Z</time>
      </trkpt>
      <trkpt lat="48.526607" lon="-4.753524">
        <ele>10.8</ele>
        <time>2020-08-13T14:24:21Z</time>
      </trkpt>
      <trkpt lat="48.526636" lon="-4.752399">
        <ele>11.8</ele>
        <time>2020-08-13T14:24:27Z</time>
      </trkpt>
      <trkpt lat="48.526672" lon="-4.75188">
        <ele>12.0</ele>
        <time>2020-08-13T14:24:29Z</time>
      </trkpt>
      <trkpt lat="48.526698" lon="-4.751626">
        <ele>13.8</ele>
        <time>2020-08-13T14:24:31Z</time>
      </trkpt>
      <trkpt lat="48.526731" lon="-4.75145">
        <ele>13.8</ele>
        <time>2020-08-13T14:24:32Z</time>
      </trkpt>
      <trkpt lat="48.526842" lon="-4.75101">
        <ele>13.8</ele>
        <time>2020-08-13T14:24:34Z</time>
      </trkpt>
      <trkpt lat="48.52748" lon="-4.748976">
        <ele>15.0</ele>
        <time>2020-08-13T14:24:46Z</time>
      </trkpt>
      <trkpt lat="48.527719" lon="-4.748334">
        <ele>12.2</ele>
        <time>2020-08-13T14:24:50Z</time>
      </trkpt>
      <trkpt lat="48.528094" lon="-4.747581">
        <ele>13.0</ele>
        <time>2020-08-13T14:24:54Z</time>
      </trkpt>
      <trkpt lat="48.52848" lon="-4.74672">
        <ele>11.4</ele>
        <time>2020-08-13T14:25:00Z</time>
      </trkpt>
      <trkpt lat="48.528829" lon="-4.745667">
        <ele>12.6</ele>
        <time>2020-08-13T14:25:06Z</time>
      </trkpt>
      <trkpt lat="48.52949" lon="-4.743535">
        <ele>14.4</ele>
        <time>2020-08-13T14:25:18Z</time>
      </trkpt>
      <trkpt lat="48.529686" lon="-4.742812">
        <ele>17.8</ele>
        <time>2020-08-13T14:25:22Z</time>
      </trkpt>
      <trkpt lat="48.529835" lon="-4.742097">
        <ele>20.4</ele>
        <time>2020-08-13T14:25:26Z</time>
      </trkpt>
      <trkpt lat="48.529988" lon="-4.74099">
        <ele>21.6</ele>
        <time>2020-08-13T14:25:32Z</time>
      </trkpt>
      <trkpt lat="48.530024" lon="-4.740002">
        <ele>19.4</ele>
        <time>2020-08-13T14:25:37Z</time>
      </trkpt>
      <trkpt lat="48.530054" lon="-4.737686">
        <ele>25.6</ele>
        <time>2020-08-13T14:25:49Z</time>
      </trkpt>
      <trkpt lat="48.530089" lon="-4.737302">
        <ele>26.8</ele>
        <time>2020-08-13T14:25:51Z</time>
      </trkpt>
      <trkpt lat="48.530178" lon="-4.736814">
        <ele>26.8</ele>
        <time>2020-08-13T14:25:54Z</time>
      </trkpt>
      <trkpt lat="48.530387" lon="-4.736077">
        <ele>27.0</ele>
        <time>2020-08-13T14:25:58Z</time>
      </trkpt>
      <trkpt lat="48.530821" lon="-4.735234">
        <ele>26.2</ele>
        <time>2020-08-13T14:26:03Z</time>
      </trkpt>
      <trkpt lat="48.531074" lon="-4.734792">
        <ele>24.4</ele>
        <time>2020-08-13T14:26:06Z</time>
      </trkpt>
      <trkpt lat="48.533431" lon="-4.730438">
        <ele>23.2</ele>
        <time>2020-08-13T14:26:36Z</time>
      </trkpt>
      <trkpt lat="48.534597" lon="-4.727666">
        <ele>24.8</ele>
        <time>2020-08-13T14:26:53Z</time>
      </trkpt>
      <trkpt lat="48.535017" lon="-4.726876">
        <ele>25.6</ele>
        <time>2020-08-13T14:26:58Z</time>
      </trkpt>
      <trkpt lat="48.535198" lon="-4.726648">
        <ele>25.2</ele>
        <time>2020-08-13T14:27:00Z</time>
      </trkpt>
      <trkpt lat="48.535415" lon="-4.726425">
        <ele>25.2</ele>
        <time>2020-08-13T14:27:02Z</time>
      </trkpt>
      <trkpt lat="48.535722" lon="-4.72618">
        <ele>25.2</ele>
        <time>2020-08-13T14:27:04Z</time>
      </trkpt>
      <trkpt lat="48.536538" lon="-4.725704">
        <ele>25.8</ele>
        <time>2020-08-13T14:27:11Z</time>
      </trkpt>
      <trkpt lat="48.538791" lon="-4.724513">
        <ele>28.4</ele>
        <time>2020-08-13T14:27:30Z</time>
      </trkpt>
      <trkpt lat="48.539069" lon="-4.724334">
        <ele>28.4</ele>
        <time>2020-08-13T14:27:32Z</time>
      </trkpt>
      <trkpt lat="48.539212" lon="-4.724194">
        <ele>28.2</ele>
        <time>2020-08-13T14:27:34Z</time>
      </trkpt>
      <trkpt lat="48.539349" lon="-4.724024">
        <ele>28.6</ele>
        <time>2020-08-13T14:27:35Z</time>
      </trkpt>
      <trkpt lat="48.539472" lon="-4.723832">
        <ele>28.6</ele>
        <time>2020-08-13T14:27:36Z</time>
      </trkpt>
      <trkpt lat="48.539582" lon="-4.72364">
        <ele>28.6</ele>
        <time>2020-08-13T14:27:38Z</time>
      </trkpt>
      <trkpt lat="48.539748" lon="-4.723271">
        <ele>29.0</ele>
        <time>2020-08-13T14:27:40Z</time>
      </trkpt>
      <trkpt lat="48.540745" lon="-4.720747">
        <ele>29.2</ele>
        <time>2020-08-13T14:27:55Z</time>
      </trkpt>
      <trkpt lat="48.541315" lon="-4.719365">
        <ele>28.6</ele>
        <time>2020-08-13T14:28:04Z</time>
      </trkpt>
      <trkpt lat="48.541843" lon="-4.717949">
        <ele>26.8</ele>
        <time>2020-08-13T14:28:12Z</time>
      </trkpt>
      <trkpt lat="48.542078" lon="-4.717434">
        <ele>27.4</ele>
        <time>2020-08-13T14:28:15Z</time>
      </trkpt>
      <trkpt lat="48.542725" lon="-4.716143">
        <ele>27.2</ele>
        <time>2020-08-13T14:28:24Z</time>
      </trkpt>
      <trkpt lat="48.543224" lon="-4.714918">
        <ele>27.2</ele>
        <time>2020-08-13T14:28:31Z</time>
      </trkpt>
      <trkpt lat="48.543417" lon="-4.714487">
        <ele>26.8</ele>
        <time>2020-08-13T14:28:34Z</time>
      </trkpt>
      <trkpt lat="48.54411" lon="-4.713208">
        <ele>26.8</ele>
        <time>2020-08-13T14:28:42Z</time>
      </trkpt>
      <trkpt lat="48.544444" lon="-4.712455">
        <ele>26.6</ele>
        <time>2020-08-13T14:28:47Z</time>
      </trkpt>
      <trkpt lat="48.544769" lon="-4.711611">
        <ele>26.8</ele>
        <time>2020-08-13T14:28:52Z</time>
      </trkpt>
      <trkpt lat="48.545045" lon="-4.710943">
        <ele>27.2</ele>
        <time>2020-08-13T14:28:56Z</time>
      </trkpt>
      <trkpt lat="48.545708" lon="-4.709677">
        <ele>27.2</ele>
        <time>2020-08-13T14:29:05Z</time>
      </trkpt>
      <trkpt lat="48.546123" lon="-4.708942">
        <ele>25.8</ele>
        <time>2020-08-13T14:29:10Z</time>
      </trkpt>
      <trkpt lat="48.54625" lon="-4.708769">
        <ele>25.8</ele>
        <time>2020-08-13T14:29:11Z</time>
      </trkpt>
      <trkpt lat="48.546369" lon="-4.708653">
        <ele>25.8</ele>
        <time>2020-08-13T14:29:12Z</time>
      </trkpt>
      <trkpt lat="48.546611" lon="-4.708489">
        <ele>25.8</ele>
        <time>2020-08-13T14:29:14Z</time>
      </trkpt>
      <trkpt lat="48.547199" lon="-4.708192">
        <ele>25.4</ele>
        <time>2020-08-13T14:29:19Z</time>
      </trkpt>
      <trkpt lat="48.547414" lon="-4.708046">
        <ele>25.4</ele>
        <time>2020-08-13T14:29:21Z</time>
      </trkpt>
      <trkpt lat="48.547745" lon="-4.70772">
        <ele>24.8</ele>
        <time>2020-08-13T14:29:24Z</time>
      </trkpt>
      <trkpt lat="48.548609" lon="-4.706938">
        <ele>25.2</ele>
        <time>2020-08-13T14:29:32Z</time>
      </trkpt>
      <trkpt lat="48.548784" lon="-4.706856">
        <ele>25.2</ele>
        <time>2020-08-13T14:29:33Z</time>
      </trkpt>
      <trkpt lat="48.549136" lon="-4.70675">
        <ele>25.2</ele>
        <time>2020-08-13T14:29:36Z</time>
      </trkpt>
      <trkpt lat="48.549352" lon="-4.706497">
        <ele>26.2</ele>
        <time>2020-08-13T14:29:38Z</time>
      </trkpt>
      <trkpt lat="48.549452" lon="-4.706265">
        <ele>26.2</ele>
        <time>2020-08-13T14:29:40Z</time>
      </trkpt>
      <trkpt lat="48.5495" lon="-4.706064">
        <ele>26.2</ele>
        <time>2020-08-13T14:29:42Z</time>
      </trkpt>
      <trkpt lat="48.549734" lon="-4.705574">
        <ele>24.6</ele>
        <time>2020-08-13T14:29:47Z</time>
      </trkpt>
      <trkpt lat="48.549756" lon="-4.705457">
        <ele>24.6</ele>
        <time>2020-08-13T14:29:48Z</time>
      </trkpt>
      <trkpt lat="48.549752" lon="-4.705306">
        <ele>24.6</ele>
        <time>2020-08-13T14:29:49Z</time>
      </trkpt>
      <trkpt lat="48.549704" lon="-4.70515">
        <ele>24.6</ele>
        <time>2020-08-13T14:29:50Z</time>
      </trkpt>
      <trkpt lat="48.549514" lon="-4.704926">
        <ele>19.8</ele>
        <time>2020-08-13T14:29:53Z</time>
      </trkpt>
      <trkpt lat="48.549257" lon="-4.704674">
        <ele>19.8</ele>
        <time>2020-08-13T14:29:56Z</time>
      </trkpt>
      <trkpt lat="48.549177" lon="-4.704546">
        <ele>19.8</ele>
        <time>2020-08-13T14:29:58Z</time>
      </trkpt>
      <trkpt lat="48.549138" lon="-4.704407">
        <ele>22.4</ele>
        <time>2020-08-13T14:29:59Z</time>
      </trkpt>
      <trkpt lat="48.549131" lon="-4.704328">
        <ele>22.4</ele>
        <time>2020-08-13T14:29:59Z</time>
      </trkpt>
      <trkpt lat="48.549151" lon="-4.704093">
        <ele>17.8</ele>
        <time>2020-08-13T14:30:01Z</time>
      </trkpt>
      <trkpt lat="48.549225" lon="-4.703841">
        <ele>15.2</ele>
        <time>2020-08-13T14:30:03Z</time>
      </trkpt>
      <trkpt lat="48.549339" lon="-4.703708">
        <ele>15.2</ele>
        <time>2020-08-13T14:30:05Z</time>
      </trkpt>
      <trkpt lat="48.54944" lon="-4.70366">
        <ele>15.2</ele>
        <time>2020-08-13T14:30:06Z</time>
      </trkpt>
      <trkpt lat="48.549549" lon="-4.703662">
        <ele>15.2</ele>
        <time>2020-08-13T14:30:07Z</time>
      </trkpt>
      <trkpt lat="48.550258" lon="-4.703797">
        <ele>11.8</ele>
        <time>2020-08-13T14:30:16Z</time>
      </trkpt>
      <trkpt lat="48.550513" lon="-4.703782">
        <ele>11.8</ele>
        <time>2020-08-13T14:30:19Z</time>
      </trkpt>
      <trkpt lat="48.55051" lon="-4.703643">
        <ele>11.8</ele>
        <time>2020-08-13T14:30:20Z</time>
      </trkpt>
      <trkpt lat="48.550556" lon="-4.70353">
        <ele>11.8</ele>
        <time>2020-08-13T14:30:21Z</time>
      </trkpt>
      <trkpt lat="48.550599" lon="-4.70331">
        <ele>14.4</ele>
        <time>2020-08-13T14:30:23Z</time>
      </trkpt>
      <trkpt lat="48.550594" lon="-4.703248">
        <ele>14.4</ele>
        <time>2020-08-13T14:30:24Z</time>
      </trkpt>
      <trkpt lat="48.550496" lon="-4.702929">
        <ele>14.4</ele>
        <time>2020-08-13T14:30:27Z</time>
      </trkpt>
      <trkpt lat="48.550478" lon="-4.702832">
        <ele>14.4</ele>
        <time>2020-08-13T14:30:28Z</time>
      </trkpt>
      <trkpt lat="48.550482" lon="-4.702697">
        <ele>14.4</ele>
        <time>2020-08-13T14:30:29Z</time>
      </trkpt>
      <trkpt lat="48.550556" lon="-4.702594">
        <ele>14.4</ele>
        <time>2020-08-13T14:30:30Z</time>
      </trkpt>
      <trkpt lat="48.550677" lon="-4.702565">
        <ele>14.4</ele>
        <time>2020-08-13T14:30:32Z</time>
      </trkpt>
      <trkpt lat="48.550893" lon="-4.702565">
        <ele>12.4</ele>
        <time>2020-08-13T14:30:35Z</time>
      </trkpt>
      <trkpt lat="48.551118" lon="-4.702377">
        <ele>18.0</ele>
        <time>2020-08-13T14:30:38Z</time>
      </trkpt>
      <trkpt lat="48.551109" lon="-4.702245">
        <ele>18.0</ele>
        <time>2020-08-13T14:30:39Z</time>
      </trkpt>
      <trkpt lat="48.55107" lon="-4.702118">
        <ele>18.0</ele>
        <time>2020-08-13T14:30:41Z</time>
      </trkpt>
      <trkpt lat="48.550861" lon="-4.701765">
        <ele>18.0</ele>
        <time>2020-08-13T14:30:45Z</time>
      </trkpt>
      <trkpt lat="48.550751" lon="-4.701647">
        <ele>20.0</ele>
        <time>2020-08-13T14:30:47Z</time>
      </trkpt>
      <trkpt lat="48.550751" lon="-4.701647">
        <ele>20.0</ele>
        <time>2020-08-13T14:30:47Z</time>
      </trkpt>
      <trkpt lat="48.549785" lon="-4.700614">
        <ele>22.0</ele>
        <time>2020-08-13T14:31:02Z</time>
      </trkpt>
      <trkpt lat="48.549721" lon="-4.700505">
        <ele>22.0</ele>
        <time>2020-08-13T14:31:03Z</time>
      </trkpt>
      <trkpt lat="48.549837" lon="-4.700412">
        <ele>22.0</ele>
        <time>2020-08-13T14:31:05Z</time>
      </trkpt>
      <trkpt lat="48.550164" lon="-4.700064">
        <ele>22.0</ele>
        <time>2020-08-13T14:31:10Z</time>
      </trkpt>
      <trkpt lat="48.550425" lon="-4.699838">
        <ele>23.0</ele>
        <time>2020-08-13T14:31:14Z</time>
      </trkpt>
      <trkpt lat="48.55047" lon="-4.699773">
        <ele>23.0</ele>
        <time>2020-08-13T14:31:15Z</time>
      </trkpt>
      <trkpt lat="48.550548" lon="-4.699509">
        <ele>23.0</ele>
        <time>2020-08-13T14:31:18Z</time>
      </trkpt>
      <trkpt lat="48.550644" lon="-4.699336">
        <ele>23.0</ele>
        <time>2020-08-13T14:31:20Z</time>
      </trkpt>
      <trkpt lat="48.550738" lon="-4.699253">
        <ele>23.0</ele>
        <time>2020-08-13T14:31:21Z</time>
      </trkpt>
      <trkpt lat="48.551061" lon="-4.69904">
        <ele>23.6</ele>
        <time>2020-08-13T14:31:26Z</time>
      </trkpt>
      <trkpt lat="48.55118" lon="-4.698873">
        <ele>23.6</ele>
        <time>2020-08-13T14:31:28Z</time>
      </trkpt>
      <trkpt lat="48.55141" lon="-4.698752">
        <ele>23.6</ele>
        <time>2020-08-13T14:31:31Z</time>
      </trkpt>
      <trkpt lat="48.551543" lon="-4.698636">
        <ele>23.6</ele>
        <time>2020-08-13T14:31:33Z</time>
      </trkpt>
      <trkpt lat="48.5519" lon="-4.698175">
        <ele>24.2</ele>
        <time>2020-08-13T14:31:39Z</time>
      </trkpt>
      <trkpt lat="48.552425" lon="-4.697105">
        <ele>25.0</ele>
        <time>2020-08-13T14:31:51Z</time>
      </trkpt>
      <trkpt lat="48.552536" lon="-4.696787">
        <ele>24.8</ele>
        <time>2020-08-13T14:31:54Z</time>
      </trkpt>
      <trkpt lat="48.553502" lon="-4.691814">
        <ele>24.2</ele>
        <time>2020-08-13T14:32:39Z</time>
      </trkpt>
      <trkpt lat="48.553635" lon="-4.691047">
        <ele>24.6</ele>
        <time>2020-08-13T14:32:46Z</time>
      </trkpt>
      <trkpt lat="48.553738" lon="-4.690106">
        <ele>25.0</ele>
        <time>2020-08-13T14:32:54Z</time>
      </trkpt>
      <trkpt lat="48.554089" lon="-4.686436">
        <ele>26.6</ele>
        <time>2020-08-13T14:33:27Z</time>
      </trkpt>
      <trkpt lat="48.554045" lon="-4.686359">
        <ele>26.6</ele>
        <time>2020-08-13T14:33:27Z</time>
      </trkpt>
      <trkpt lat="48.554046" lon="-4.686264">
        <ele>26.6</ele>
        <time>2020-08-13T14:33:28Z</time>
      </trkpt>
      <trkpt lat="48.554058" lon="-4.68622">
        <ele>26.6</ele>
        <time>2020-08-13T14:33:28Z</time>
      </trkpt>
      <trkpt lat="48.554112" lon="-4.686178">
        <ele>26.6</ele>
        <time>2020-08-13T14:33:28Z</time>
      </trkpt>
      <trkpt lat="48.554591" lon="-4.681242">
        <ele>26.4</ele>
        <time>2020-08-13T14:33:54Z</time>
      </trkpt>
      <trkpt lat="48.554671" lon="-4.679992">
        <ele>26.4</ele>
        <time>2020-08-13T14:34:01Z</time>
      </trkpt>
      <trkpt lat="48.554635" lon="-4.677872">
        <ele>26.6</ele>
        <time>2020-08-13T14:34:12Z</time>
      </trkpt>
      <trkpt lat="48.554717" lon="-4.677127">
        <ele>26.8</ele>
        <time>2020-08-13T14:34:16Z</time>
      </trkpt>
      <trkpt lat="48.554758" lon="-4.676938">
        <ele>26.8</ele>
        <time>2020-08-13T14:34:17Z</time>
      </trkpt>
      <trkpt lat="48.554056" lon="-4.676463">
        <ele>26.8</ele>
        <time>2020-08-13T14:34:22Z</time>
      </trkpt>
      <trkpt lat="48.552667" lon="-4.675453">
        <ele>26.6</ele>
        <time>2020-08-13T14:34:32Z</time>
      </trkpt>
      <trkpt lat="48.551775" lon="-4.67487">
        <ele>27.0</ele>
        <time>2020-08-13T14:34:38Z</time>
      </trkpt>
      <trkpt lat="48.55148" lon="-4.674778">
        <ele>28.0</ele>
        <time>2020-08-13T14:34:40Z</time>
      </trkpt>
      <trkpt lat="48.550676" lon="-4.674629">
        <ele>29.4</ele>
        <time>2020-08-13T14:34:45Z</time>
      </trkpt>
      <trkpt lat="48.550211" lon="-4.67449">
        <ele>29.4</ele>
        <time>2020-08-13T14:34:48Z</time>
      </trkpt>
      <trkpt lat="48.549884" lon="-4.674317">
        <ele>31.8</ele>
        <time>2020-08-13T14:34:50Z</time>
      </trkpt>
      <trkpt lat="48.549754" lon="-4.674218">
        <ele>31.8</ele>
        <time>2020-08-13T14:34:51Z</time>
      </trkpt>
      <trkpt lat="48.549634" lon="-4.67411">
        <ele>31.6</ele>
        <time>2020-08-13T14:34:52Z</time>
      </trkpt>
      <trkpt lat="48.549324" lon="-4.673732">
        <ele>31.6</ele>
        <time>2020-08-13T14:34:55Z</time>
      </trkpt>
      <trkpt lat="48.549215" lon="-4.673543">
        <ele>31.6</ele>
        <time>2020-08-13T14:34:56Z</time>
      </trkpt>
      <trkpt lat="48.54907" lon="-4.673236">
        <ele>33.6</ele>
        <time>2020-08-13T14:34:58Z</time>
      </trkpt>
      <trkpt lat="48.548985" lon="-4.672996">
        <ele>33.6</ele>
        <time>2020-08-13T14:34:59Z</time>
      </trkpt>
      <trkpt lat="48.54887" lon="-4.672497">
        <ele>35.0</ele>
        <time>2020-08-13T14:35:01Z</time>
      </trkpt>
      <trkpt lat="48.548778" lon="-4.671816">
        <ele>35.0</ele>
        <time>2020-08-13T14:35:04Z</time>
      </trkpt>
      <trkpt lat="48.548485" lon="-4.668487">
        <ele>39.0</ele>
        <time>2020-08-13T14:35:18Z</time>
      </trkpt>
      <trkpt lat="48.548405" lon="-4.667816">
        <ele>39.2</ele>
        <time>2020-08-13T14:35:21Z</time>
      </trkpt>
      <trkpt lat="48.548335" lon="-4.667472">
        <ele>39.2</ele>
        <time>2020-08-13T14:35:23Z</time>
      </trkpt>
      <trkpt lat="48.548233" lon="-4.667117">
        <ele>38.8</ele>
        <time>2020-08-13T14:35:24Z</time>
      </trkpt>
      <trkpt lat="48.548146" lon="-4.666885">
        <ele>38.8</ele>
        <time>2020-08-13T14:35:26Z</time>
      </trkpt>
      <trkpt lat="48.547724" lon="-4.665957">
        <ele>39.4</ele>
        <time>2020-08-13T14:35:30Z</time>
      </trkpt>
      <trkpt lat="48.547323" lon="-4.665153">
        <ele>40.8</ele>
        <time>2020-08-13T14:35:35Z</time>
      </trkpt>
      <trkpt lat="48.547142" lon="-4.664843">
        <ele>42.4</ele>
        <time>2020-08-13T14:35:36Z</time>
      </trkpt>
      <trkpt lat="48.546701" lon="-4.6643">
        <ele>42.4</ele>
        <time>2020-08-13T14:35:40Z</time>
      </trkpt>
      <trkpt lat="48.54551" lon="-4.66302">
        <ele>48.2</ele>
        <time>2020-08-13T14:35:50Z</time>
      </trkpt>
      <trkpt lat="48.545296" lon="-4.662842">
        <ele>48.2</ele>
        <time>2020-08-13T14:35:51Z</time>
      </trkpt>
      <trkpt lat="48.544445" lon="-4.662448">
        <ele>51.2</ele>
        <time>2020-08-13T14:35:57Z</time>
      </trkpt>
      <trkpt lat="48.544284" lon="-4.662353">
        <ele>51.2</ele>
        <time>2020-08-13T14:35:58Z</time>
      </trkpt>
      <trkpt lat="48.544083" lon="-4.66211">
        <ele>53.2</ele>
        <time>2020-08-13T14:36:00Z</time>
      </trkpt>
      <trkpt lat="48.543782" lon="-4.661563">
        <ele>53.0</ele>
        <time>2020-08-13T14:36:03Z</time>
      </trkpt>
      <trkpt lat="48.543644" lon="-4.661427">
        <ele>53.0</ele>
        <time>2020-08-13T14:36:04Z</time>
      </trkpt>
      <trkpt lat="48.54361" lon="-4.661367">
        <ele>53.0</ele>
        <time>2020-08-13T14:36:05Z</time>
      </trkpt>
      <trkpt lat="48.543605" lon="-4.661297">
        <ele>53.0</ele>
        <time>2020-08-13T14:36:05Z</time>
      </trkpt>
      <trkpt lat="48.543643" lon="-4.661213">
        <ele>53.0</ele>
        <time>2020-08-13T14:36:06Z</time>
      </trkpt>
      <trkpt lat="48.543694" lon="-4.660924">
        <ele>53.0</ele>
        <time>2020-08-13T14:36:09Z</time>
      </trkpt>
      <trkpt lat="48.543718" lon="-4.660674">
        <ele>52.4</ele>
        <time>2020-08-13T14:36:12Z</time>
      </trkpt>
      <trkpt lat="48.543621" lon="-4.659443">
        <ele>52.2</ele>
        <time>2020-08-13T14:36:27Z</time>
      </trkpt>
      <trkpt lat="48.543596" lon="-4.659288">
        <ele>52.2</ele>
        <time>2020-08-13T14:36:29Z</time>
      </trkpt>
      <trkpt lat="48.543511" lon="-4.659069">
        <ele>52.2</ele>
        <time>2020-08-13T14:36:33Z</time>
      </trkpt>
      <trkpt lat="48.543503" lon="-4.65899">
        <ele>52.2</ele>
        <time>2020-08-13T14:36:34Z</time>
      </trkpt>
      <trkpt lat="48.543535" lon="-4.658731">
        <ele>52.2</ele>
        <time>2020-08-13T14:36:37Z</time>
      </trkpt>
      <trkpt lat="48.543472" lon="-4.658015">
        <ele>52.4</ele>
        <time>2020-08-13T14:36:46Z</time>
      </trkpt>
      <trkpt lat="48.543404" lon="-4.657735">
        <ele>52.4</ele>
        <time>2020-08-13T14:36:49Z</time>
      </trkpt>
      <trkpt lat="48.543184" lon="-4.6571">
        <ele>55.6</ele>
        <time>2020-08-13T14:36:58Z</time>
      </trkpt>
      <trkpt lat="48.542873" lon="-4.656331">
        <ele>55.0</ele>
        <time>2020-08-13T14:37:09Z</time>
      </trkpt>
      <trkpt lat="48.542964" lon="-4.656205">
        <ele>55.0</ele>
        <time>2020-08-13T14:37:10Z</time>
      </trkpt>
      <trkpt lat="48.543202" lon="-4.655769">
        <ele>53.2</ele>
        <time>2020-08-13T14:37:12Z</time>
      </trkpt>
      <trkpt lat="48.543421" lon="-4.65543">
        <ele>50.2</ele>
        <time>2020-08-13T14:37:13Z</time>
      </trkpt>
      <trkpt lat="48.543527" lon="-4.655312">
        <ele>50.2</ele>
        <time>2020-08-13T14:37:14Z</time>
      </trkpt>
      <trkpt lat="48.543838" lon="-4.655101">
        <ele>50.2</ele>
        <time>2020-08-13T14:37:16Z</time>
      </trkpt>
      <trkpt lat="48.544003" lon="-4.654963">
        <ele>49.0</ele>
        <time>2020-08-13T14:37:16Z</time>
      </trkpt>
      <trkpt lat="48.544341" lon="-4.654568">
        <ele>45.8</ele>
        <time>2020-08-13T14:37:19Z</time>
      </trkpt>
      <trkpt lat="48.54442" lon="-4.654423">
        <ele>45.8</ele>
        <time>2020-08-13T14:37:19Z</time>
      </trkpt>
      <trkpt lat="48.544569" lon="-4.654002">
        <ele>46.4</ele>
        <time>2020-08-13T14:37:21Z</time>
      </trkpt>
      <trkpt lat="48.544691" lon="-4.653487">
        <ele>46.4</ele>
        <time>2020-08-13T14:37:23Z</time>
      </trkpt>
      <trkpt lat="48.544781" lon="-4.652798">
        <ele>47.0</ele>
        <time>2020-08-13T14:37:25Z</time>
      </trkpt>
      <trkpt lat="48.544797" lon="-4.652455">
        <ele>47.0</ele>
        <time>2020-08-13T14:37:26Z</time>
      </trkpt>
      <trkpt lat="48.544742" lon="-4.651837">
        <ele>47.0</ele>
        <time>2020-08-13T14:37:28Z</time>
      </trkpt>
      <trkpt lat="48.544532" lon="-4.650466">
        <ele>46.0</ele>
        <time>2020-08-13T14:37:33Z</time>
      </trkpt>
      <trkpt lat="48.544505" lon="-4.650101">
        <ele>46.0</ele>
        <time>2020-08-13T14:37:34Z</time>
      </trkpt>
      <trkpt lat="48.544629" lon="-4.648813">
        <ele>48.8</ele>
        <time>2020-08-13T14:37:39Z</time>
      </trkpt>
      <trkpt lat="48.544773" lon="-4.647646">
        <ele>50.4</ele>
        <time>2020-08-13T14:37:43Z</time>
      </trkpt>
      <trkpt lat="48.545009" lon="-4.646664">
        <ele>52.8</ele>
        <time>2020-08-13T14:37:46Z</time>
      </trkpt>
      <trkpt lat="48.545034" lon="-4.646473">
        <ele>52.8</ele>
        <time>2020-08-13T14:37:47Z</time>
      </trkpt>
      <trkpt lat="48.545146" lon="-4.644641">
        <ele>52.4</ele>
        <time>2020-08-13T14:37:53Z</time>
      </trkpt>
      <trkpt lat="48.545272" lon="-4.641921">
        <ele>54.0</ele>
        <time>2020-08-13T14:38:02Z</time>
      </trkpt>
      <trkpt lat="48.545313" lon="-4.641465">
        <ele>54.4</ele>
        <time>2020-08-13T14:38:04Z</time>
      </trkpt>
      <trkpt lat="48.545375" lon="-4.641089">
        <ele>54.4</ele>
        <time>2020-08-13T14:38:05Z</time>
      </trkpt>
      <trkpt lat="48.546453" lon="-4.636414">
        <ele>50.2</ele>
        <time>2020-08-13T14:38:21Z</time>
      </trkpt>
      <trkpt lat="48.546767" lon="-4.635227">
        <ele>48.8</ele>
        <time>2020-08-13T14:38:26Z</time>
      </trkpt>
      <trkpt lat="48.547158" lon="-4.633372">
        <ele>51.6</ele>
        <time>2020-08-13T14:38:32Z</time>
      </trkpt>
      <trkpt lat="48.548022" lon="-4.629508">
        <ele>49.0</ele>
        <time>2020-08-13T14:38:46Z</time>
      </trkpt>
      <trkpt lat="48.548542" lon="-4.627055">
        <ele>51.4</ele>
        <time>2020-08-13T14:38:54Z</time>
      </trkpt>
      <trkpt lat="48.550532" lon="-4.618109">
        <ele>53.2</ele>
        <time>2020-08-13T14:39:26Z</time>
      </trkpt>
      <trkpt lat="48.55051" lon="-4.618036">
        <ele>53.2</ele>
        <time>2020-08-13T14:39:26Z</time>
      </trkpt>
      <trkpt lat="48.550531" lon="-4.61799">
        <ele>53.2</ele>
        <time>2020-08-13T14:39:27Z</time>
      </trkpt>
      <trkpt lat="48.550568" lon="-4.617983">
        <ele>53.2</ele>
        <time>2020-08-13T14:39:27Z</time>
      </trkpt>
      <trkpt lat="48.550809" lon="-4.616871">
        <ele>52.0</ele>
        <time>2020-08-13T14:39:32Z</time>
      </trkpt>
      <trkpt lat="48.550868" lon="-4.616065">
        <ele>50.8</ele>
        <time>2020-08-13T14:39:35Z</time>
      </trkpt>
      <trkpt lat="48.550873" lon="-4.615063">
        <ele>50.8</ele>
        <time>2020-08-13T14:39:39Z</time>
      </trkpt>
      <trkpt lat="48.550978" lon="-4.610558">
        <ele>45.8</ele>
        <time>2020-08-13T14:39:58Z</time>
      </trkpt>
      <trkpt lat="48.551009" lon="-4.610009">
        <ele>45.8</ele>
        <time>2020-08-13T14:40:00Z</time>
      </trkpt>
      <trkpt lat="48.551076" lon="-4.609346">
        <ele>44.4</ele>
        <time>2020-08-13T14:40:03Z</time>
      </trkpt>
      <trkpt lat="48.551391" lon="-4.607745">
        <ele>41.6</ele>
        <time>2020-08-13T14:40:09Z</time>
      </trkpt>
      <trkpt lat="48.551537" lon="-4.606827">
        <ele>40.0</ele>
        <time>2020-08-13T14:40:13Z</time>
      </trkpt>
      <trkpt lat="48.551716" lon="-4.605156">
        <ele>33.4</ele>
        <time>2020-08-13T14:40:20Z</time>
      </trkpt>
      <trkpt lat="48.55186" lon="-4.60399">
        <ele>26.2</ele>
        <time>2020-08-13T14:40:25Z</time>
      </trkpt>
      <trkpt lat="48.551992" lon="-4.602683">
        <ele>24.6</ele>
        <time>2020-08-13T14:40:31Z</time>
      </trkpt>
      <trkpt lat="48.552023" lon="-4.602222">
        <ele>25.0</ele>
        <time>2020-08-13T14:40:32Z</time>
      </trkpt>
      <trkpt lat="48.552021" lon="-4.601517">
        <ele>28.0</ele>
        <time>2020-08-13T14:40:35Z</time>
      </trkpt>
      <trkpt lat="48.552034" lon="-4.601236">
        <ele>28.0</ele>
        <time>2020-08-13T14:40:37Z</time>
      </trkpt>
      <trkpt lat="48.55207" lon="-4.601014">
        <ele>28.0</ele>
        <time>2020-08-13T14:40:37Z</time>
      </trkpt>
      <trkpt lat="48.552161" lon="-4.600751">
        <ele>31.6</ele>
        <time>2020-08-13T14:40:39Z</time>
      </trkpt>
      <trkpt lat="48.552824" lon="-4.599271">
        <ele>30.6</ele>
        <time>2020-08-13T14:40:46Z</time>
      </trkpt>
      <trkpt lat="48.552967" lon="-4.598877">
        <ele>30.0</ele>
        <time>2020-08-13T14:40:48Z</time>
      </trkpt>
      <trkpt lat="48.553038" lon="-4.598585">
        <ele>30.0</ele>
        <time>2020-08-13T14:40:49Z</time>
      </trkpt>
      <trkpt lat="48.553088" lon="-4.598275">
        <ele>29.8</ele>
        <time>2020-08-13T14:40:50Z</time>
      </trkpt>
      <trkpt lat="48.55326" lon="-4.596838">
        <ele>30.8</ele>
        <time>2020-08-13T14:40:56Z</time>
      </trkpt>
      <trkpt lat="48.553278" lon="-4.594975">
        <ele>18.2</ele>
        <time>2020-08-13T14:41:04Z</time>
      </trkpt>
      <trkpt lat="48.553321" lon="-4.594548">
        <ele>18.2</ele>
        <time>2020-08-13T14:41:06Z</time>
      </trkpt>
      <trkpt lat="48.553527" lon="-4.594028">
        <ele>13.0</ele>
        <time>2020-08-13T14:41:08Z</time>
      </trkpt>
      <trkpt lat="48.553607" lon="-4.593783">
        <ele>13.0</ele>
        <time>2020-08-13T14:41:10Z</time>
      </trkpt>
      <trkpt lat="48.553686" lon="-4.59347">
        <ele>13.0</ele>
        <time>2020-08-13T14:41:11Z</time>
      </trkpt>
      <trkpt lat="48.553864" lon="-4.592541">
        <ele>19.2</ele>
        <time>2020-08-13T14:41:15Z</time>
      </trkpt>
      <trkpt lat="48.553989" lon="-4.592152">
        <ele>24.4</ele>
        <time>2020-08-13T14:41:17Z</time>
      </trkpt>
      <trkpt lat="48.554264" lon="-4.591391">
        <ele>16.5</ele>
        <time>2020-08-13T14:41:20Z</time>
      </trkpt>
      <trkpt lat="48.554461" lon="-4.590717">
        <ele>22.0</ele>
        <time>2020-08-13T14:41:23Z</time>
      </trkpt>
      <trkpt lat="48.554532" lon="-4.590413">
        <ele>22.0</ele>
        <time>2020-08-13T14:41:25Z</time>
      </trkpt>
      <trkpt lat="48.554711" lon="-4.589952">
        <ele>23.6</ele>
        <time>2020-08-13T14:41:27Z</time>
      </trkpt>
      <trkpt lat="48.555099" lon="-4.589157">
        <ele>18.75</ele>
        <time>2020-08-13T14:41:31Z</time>
      </trkpt>
      <trkpt lat="48.555424" lon="-4.587946">
        <ele>20.8</ele>
        <time>2020-08-13T14:41:36Z</time>
      </trkpt>
      <trkpt lat="48.55575" lon="-4.58703">
        <ele>26.4</ele>
        <time>2020-08-13T14:41:40Z</time>
      </trkpt>
      <trkpt lat="48.556034" lon="-4.586094">
        <ele>18.0</ele>
        <time>2020-08-13T14:41:45Z</time>
      </trkpt>
      <trkpt lat="48.556163" lon="-4.585633">
        <ele>16.8</ele>
        <time>2020-08-13T14:41:47Z</time>
      </trkpt>
      <trkpt lat="48.556216" lon="-4.585389">
        <ele>16.8</ele>
        <time>2020-08-13T14:41:48Z</time>
      </trkpt>
      <trkpt lat="48.556233" lon="-4.585193">
        <ele>16.8</ele>
        <time>2020-08-13T14:41:49Z</time>
      </trkpt>
      <trkpt lat="48.55623" lon="-4.585005">
        <ele>16.8</ele>
        <time>2020-08-13T14:41:49Z</time>
      </trkpt>
      <trkpt lat="48.556194" lon="-4.584691">
        <ele>17.8</ele>
        <time>2020-08-13T14:41:51Z</time>
      </trkpt>
      <trkpt lat="48.556111" lon="-4.584449">
        <ele>17.8</ele>
        <time>2020-08-13T14:41:52Z</time>
      </trkpt>
      <trkpt lat="48.555567" lon="-4.583344">
        <ele>30.2</ele>
        <time>2020-08-13T14:41:58Z</time>
      </trkpt>
      <trkpt lat="48.555443" lon="-4.583017">
        <ele>23.8</ele>
        <time>2020-08-13T14:41:59Z</time>
      </trkpt>
      <trkpt lat="48.555344" lon="-4.582615">
        <ele>23.8</ele>
        <time>2020-08-13T14:42:01Z</time>
      </trkpt>
      <trkpt lat="48.555319" lon="-4.582435">
        <ele>19.0</ele>
        <time>2020-08-13T14:42:02Z</time>
      </trkpt>
      <trkpt lat="48.555305" lon="-4.581695">
        <ele>19.0</ele>
        <time>2020-08-13T14:42:05Z</time>
      </trkpt>
      <trkpt lat="48.555241" lon="-4.581168">
        <ele>17.2</ele>
        <time>2020-08-13T14:42:07Z</time>
      </trkpt>
      <trkpt lat="48.555185" lon="-4.580876">
        <ele>17.2</ele>
        <time>2020-08-13T14:42:08Z</time>
      </trkpt>
      <trkpt lat="48.555153" lon="-4.580389">
        <ele>15.2</ele>
        <time>2020-08-13T14:42:10Z</time>
      </trkpt>
      <trkpt lat="48.555182" lon="-4.577728">
        <ele>16.4</ele>
        <time>2020-08-13T14:42:21Z</time>
      </trkpt>
      <trkpt lat="48.555149" lon="-4.577452">
        <ele>20.6</ele>
        <time>2020-08-13T14:42:22Z</time>
      </trkpt>
      <trkpt lat="48.554956" lon="-4.576632">
        <ele>23.8</ele>
        <time>2020-08-13T14:42:26Z</time>
      </trkpt>
      <trkpt lat="48.554847" lon="-4.576063">
        <ele>23.8</ele>
        <time>2020-08-13T14:42:28Z</time>
      </trkpt>
      <trkpt lat="48.554779" lon="-4.575785">
        <ele>25.2</ele>
        <time>2020-08-13T14:42:29Z</time>
      </trkpt>
      <trkpt lat="48.554495" lon="-4.574801">
        <ele>27.0</ele>
        <time>2020-08-13T14:42:34Z</time>
      </trkpt>
      <trkpt lat="48.554469" lon="-4.574643">
        <ele>27.0</ele>
        <time>2020-08-13T14:42:35Z</time>
      </trkpt>
      <trkpt lat="48.554461" lon="-4.574207">
        <ele>27.0</ele>
        <time>2020-08-13T14:42:36Z</time>
      </trkpt>
      <trkpt lat="48.554591" lon="-4.572226">
        <ele>32.2</ele>
        <time>2020-08-13T14:42:45Z</time>
      </trkpt>
      <trkpt lat="48.554601" lon="-4.57159">
        <ele>32.8</ele>
        <time>2020-08-13T14:42:47Z</time>
      </trkpt>
      <trkpt lat="48.55467" lon="-4.570944">
        <ele>32.8</ele>
        <time>2020-08-13T14:42:50Z</time>
      </trkpt>
      <trkpt lat="48.554725" lon="-4.570667">
        <ele>33.6</ele>
        <time>2020-08-13T14:42:51Z</time>
      </trkpt>
      <trkpt lat="48.554825" lon="-4.570359">
        <ele>33.6</ele>
        <time>2020-08-13T14:42:52Z</time>
      </trkpt>
      <trkpt lat="48.555115" lon="-4.569792">
        <ele>37.8</ele>
        <time>2020-08-13T14:42:55Z</time>
      </trkpt>
      <trkpt lat="48.555223" lon="-4.569485">
        <ele>37.8</ele>
        <time>2020-08-13T14:42:57Z</time>
      </trkpt>
      <trkpt lat="48.555289" lon="-4.56906">
        <ele>38.0</ele>
        <time>2020-08-13T14:42:59Z</time>
      </trkpt>
      <trkpt lat="48.555368" lon="-4.56793">
        <ele>38.6</ele>
        <time>2020-08-13T14:43:03Z</time>
      </trkpt>
      <trkpt lat="48.555382" lon="-4.567547">
        <ele>38.6</ele>
        <time>2020-08-13T14:43:05Z</time>
      </trkpt>
      <trkpt lat="48.555271" lon="-4.566159">
        <ele>39.4</ele>
        <time>2020-08-13T14:43:11Z</time>
      </trkpt>
      <trkpt lat="48.555266" lon="-4.565847">
        <ele>39.4</ele>
        <time>2020-08-13T14:43:12Z</time>
      </trkpt>
      <trkpt lat="48.555314" lon="-4.565179">
        <ele>39.2</ele>
        <time>2020-08-13T14:43:15Z</time>
      </trkpt>
      <trkpt lat="48.555317" lon="-4.564828">
        <ele>39.8</ele>
        <time>2020-08-13T14:43:16Z</time>
      </trkpt>
      <trkpt lat="48.555271" lon="-4.564451">
        <ele>39.8</ele>
        <time>2020-08-13T14:43:18Z</time>
      </trkpt>
      <trkpt lat="48.555166" lon="-4.563874">
        <ele>40.6</ele>
        <time>2020-08-13T14:43:20Z</time>
      </trkpt>
      <trkpt lat="48.554823" lon="-4.562852">
        <ele>37.2</ele>
        <time>2020-08-13T14:43:25Z</time>
      </trkpt>
      <trkpt lat="48.554679" lon="-4.562288">
        <ele>38.6</ele>
        <time>2020-08-13T14:43:27Z</time>
      </trkpt>
      <trkpt lat="48.554652" lon="-4.562061">
        <ele>38.6</ele>
        <time>2020-08-13T14:43:28Z</time>
      </trkpt>
      <trkpt lat="48.554613" lon="-4.561222">
        <ele>39.2</ele>
        <time>2020-08-13T14:43:32Z</time>
      </trkpt>
      <trkpt lat="48.554549" lon="-4.560445">
        <ele>40.2</ele>
        <time>2020-08-13T14:43:35Z</time>
      </trkpt>
      <trkpt lat="48.554513" lon="-4.560117">
        <ele>40.2</ele>
        <time>2020-08-13T14:43:36Z</time>
      </trkpt>
      <trkpt lat="48.554457" lon="-4.559786">
        <ele>42.2</ele>
        <time>2020-08-13T14:43:38Z</time>
      </trkpt>
      <trkpt lat="48.554328" lon="-4.559462">
        <ele>42.2</ele>
        <time>2020-08-13T14:43:39Z</time>
      </trkpt>
      <trkpt lat="48.554123" lon="-4.559097">
        <ele>39.8</ele>
        <time>2020-08-13T14:43:41Z</time>
      </trkpt>
      <trkpt lat="48.553747" lon="-4.558492">
        <ele>39.8</ele>
        <time>2020-08-13T14:43:45Z</time>
      </trkpt>
      <trkpt lat="48.553616" lon="-4.558179">
        <ele>41.8</ele>
        <time>2020-08-13T14:43:46Z</time>
      </trkpt>
      <trkpt lat="48.553584" lon="-4.558041">
        <ele>41.8</ele>
        <time>2020-08-13T14:43:47Z</time>
      </trkpt>
      <trkpt lat="48.553535" lon="-4.557655">
        <ele>41.8</ele>
        <time>2020-08-13T14:43:48Z</time>
      </trkpt>
      <trkpt lat="48.55354" lon="-4.557459">
        <ele>43.4</ele>
        <time>2020-08-13T14:43:49Z</time>
      </trkpt>
      <trkpt lat="48.553614" lon="-4.557076">
        <ele>43.4</ele>
        <time>2020-08-13T14:43:51Z</time>
      </trkpt>
      <trkpt lat="48.553861" lon="-4.556395">
        <ele>43.8</ele>
        <time>2020-08-13T14:43:54Z</time>
      </trkpt>
      <trkpt lat="48.553917" lon="-4.556128">
        <ele>43.8</ele>
        <time>2020-08-13T14:43:55Z</time>
      </trkpt>
      <trkpt lat="48.553954" lon="-4.555801">
        <ele>43.2</ele>
        <time>2020-08-13T14:43:56Z</time>
      </trkpt>
      <trkpt lat="48.553954" lon="-4.555645">
        <ele>43.2</ele>
        <time>2020-08-13T14:43:57Z</time>
      </trkpt>
      <trkpt lat="48.553923" lon="-4.555293">
        <ele>43.2</ele>
        <time>2020-08-13T14:43:58Z</time>
      </trkpt>
      <trkpt lat="48.553821" lon="-4.554771">
        <ele>42.6</ele>
        <time>2020-08-13T14:44:01Z</time>
      </trkpt>
      <trkpt lat="48.553731" lon="-4.554445">
        <ele>42.6</ele>
        <time>2020-08-13T14:44:02Z</time>
      </trkpt>
      <trkpt lat="48.553605" lon="-4.554119">
        <ele>41.4</ele>
        <time>2020-08-13T14:44:04Z</time>
      </trkpt>
      <trkpt lat="48.553296" lon="-4.553464">
        <ele>42.4</ele>
        <time>2020-08-13T14:44:07Z</time>
      </trkpt>
      <trkpt lat="48.553159" lon="-4.553099">
        <ele>41.2</ele>
        <time>2020-08-13T14:44:09Z</time>
      </trkpt>
      <trkpt lat="48.553069" lon="-4.552693">
        <ele>41.2</ele>
        <time>2020-08-13T14:44:10Z</time>
      </trkpt>
      <trkpt lat="48.553024" lon="-4.552347">
        <ele>40.2</ele>
        <time>2020-08-13T14:44:12Z</time>
      </trkpt>
      <trkpt lat="48.553011" lon="-4.551883">
        <ele>40.2</ele>
        <time>2020-08-13T14:44:14Z</time>
      </trkpt>
      <trkpt lat="48.553029" lon="-4.551591">
        <ele>39.4</ele>
        <time>2020-08-13T14:44:15Z</time>
      </trkpt>
      <trkpt lat="48.553157" lon="-4.550297">
        <ele>38.2</ele>
        <time>2020-08-13T14:44:20Z</time>
      </trkpt>
      <trkpt lat="48.55318" lon="-4.548724">
        <ele>35.8</ele>
        <time>2020-08-13T14:44:27Z</time>
      </trkpt>
      <trkpt lat="48.553264" lon="-4.546657">
        <ele>38.6</ele>
        <time>2020-08-13T14:44:35Z</time>
      </trkpt>
      <trkpt lat="48.553223" lon="-4.545485">
        <ele>38.2</ele>
        <time>2020-08-13T14:44:40Z</time>
      </trkpt>
      <trkpt lat="48.553149" lon="-4.545074">
        <ele>38.2</ele>
        <time>2020-08-13T14:44:42Z</time>
      </trkpt>
      <trkpt lat="48.552759" lon="-4.543373">
        <ele>34.6</ele>
        <time>2020-08-13T14:44:49Z</time>
      </trkpt>
      <trkpt lat="48.552708" lon="-4.543074">
        <ele>33.4</ele>
        <time>2020-08-13T14:44:51Z</time>
      </trkpt>
      <trkpt lat="48.552411" lon="-4.541779">
        <ele>36.4</ele>
        <time>2020-08-13T14:44:56Z</time>
      </trkpt>
      <trkpt lat="48.552346" lon="-4.541558">
        <ele>33.2</ele>
        <time>2020-08-13T14:44:58Z</time>
      </trkpt>
      <trkpt lat="48.552086" lon="-4.541623">
        <ele>37.3</ele>
        <time>2020-08-13T14:45:03Z</time>
      </trkpt>
      <trkpt lat="48.552086" lon="-4.541623">
        <ele>37.3</ele>
        <time>2020-08-13T14:45:03Z</time>
      </trkpt>
      <trkpt lat="48.552346" lon="-4.541558">
        <ele>33.2</ele>
        <time>2020-08-13T14:45:07Z</time>
      </trkpt>
      <trkpt lat="48.552072" lon="-4.540468">
        <ele>30.2</ele>
        <time>2020-08-13T14:45:18Z</time>
      </trkpt>
      <trkpt lat="48.55202" lon="-4.540165">
        <ele>30.2</ele>
        <time>2020-08-13T14:45:20Z</time>
      </trkpt>
      <trkpt lat="48.551915" lon="-4.539358">
        <ele>27.6</ele>
        <time>2020-08-13T14:45:27Z</time>
      </trkpt>
      <trkpt lat="48.551859" lon="-4.538556">
        <ele>26.8</ele>
        <time>2020-08-13T14:45:34Z</time>
      </trkpt>
      <trkpt lat="48.551878" lon="-4.538418">
        <ele>26.8</ele>
        <time>2020-08-13T14:45:36Z</time>
      </trkpt>
      <trkpt lat="48.551943" lon="-4.538366">
        <ele>26.8</ele>
        <time>2020-08-13T14:45:36Z</time>
      </trkpt>
      <trkpt lat="48.55221" lon="-4.53827">
        <ele>24.4</ele>
        <time>2020-08-13T14:45:38Z</time>
      </trkpt>
      <trkpt lat="48.552413" lon="-4.538095">
        <ele>24.4</ele>
        <time>2020-08-13T14:45:39Z</time>
      </trkpt>
      <trkpt lat="48.552476" lon="-4.537949">
        <ele>24.4</ele>
        <time>2020-08-13T14:45:40Z</time>
      </trkpt>
      <trkpt lat="48.552502" lon="-4.537801">
        <ele>20.4</ele>
        <time>2020-08-13T14:45:41Z</time>
      </trkpt>
      <trkpt lat="48.552522" lon="-4.537505">
        <ele>20.4</ele>
        <time>2020-08-13T14:45:42Z</time>
      </trkpt>
      <trkpt lat="48.552489" lon="-4.536785">
        <ele>19.6</ele>
        <time>2020-08-13T14:45:45Z</time>
      </trkpt>
      <trkpt lat="48.552506" lon="-4.536568">
        <ele>11.0</ele>
        <time>2020-08-13T14:45:46Z</time>
      </trkpt>
      <trkpt lat="48.552569" lon="-4.536341">
        <ele>11.0</ele>
        <time>2020-08-13T14:45:47Z</time>
      </trkpt>
      <trkpt lat="48.552643" lon="-4.536142">
        <ele>11.0</ele>
        <time>2020-08-13T14:45:48Z</time>
      </trkpt>
      <trkpt lat="48.552772" lon="-4.535906">
        <ele>11.0</ele>
        <time>2020-08-13T14:45:49Z</time>
      </trkpt>
      <trkpt lat="48.55284" lon="-4.535819">
        <ele>6.2</ele>
        <time>2020-08-13T14:45:50Z</time>
      </trkpt>
      <trkpt lat="48.553056" lon="-4.53564">
        <ele>6.2</ele>
        <time>2020-08-13T14:45:51Z</time>
      </trkpt>
      <trkpt lat="48.553458" lon="-4.535445">
        <ele>4.0</ele>
        <time>2020-08-13T14:45:54Z</time>
      </trkpt>
      <trkpt lat="48.554704" lon="-4.534426">
        <ele>0.0</ele>
        <time>2020-08-13T14:46:03Z</time>
      </trkpt>
      <trkpt lat="48.555488" lon="-4.533826">
        <ele>0.0</ele>
        <time>2020-08-13T14:46:08Z</time>
      </trkpt>
      <trkpt lat="48.555943" lon="-4.533642">
        <ele>2.25</ele>
        <time>2020-08-13T14:46:11Z</time>
      </trkpt>
      <trkpt lat="48.556925" lon="-4.533525">
        <ele>3.8</ele>
        <time>2020-08-13T14:46:17Z</time>
      </trkpt>
      <trkpt lat="48.559028" lon="-4.53332">
        <ele>15.2</ele>
        <time>2020-08-13T14:46:30Z</time>
      </trkpt>
      <trkpt lat="48.559472" lon="-4.5332">
        <ele>19.6</ele>
        <time>2020-08-13T14:46:33Z</time>
      </trkpt>
      <trkpt lat="48.560735" lon="-4.532296">
        <ele>27.0</ele>
        <time>2020-08-13T14:46:42Z</time>
      </trkpt>
      <trkpt lat="48.561301" lon="-4.531975">
        <ele>31.2</ele>
        <time>2020-08-13T14:46:45Z</time>
      </trkpt>
      <trkpt lat="48.562501" lon="-4.531425">
        <ele>34.4</ele>
        <time>2020-08-13T14:46:53Z</time>
      </trkpt>
      <trkpt lat="48.562896" lon="-4.531139">
        <ele>34.4</ele>
        <time>2020-08-13T14:46:56Z</time>
      </trkpt>
      <trkpt lat="48.563486" lon="-4.530362">
        <ele>34.6</ele>
        <time>2020-08-13T14:47:01Z</time>
      </trkpt>
      <trkpt lat="48.564096" lon="-4.529382">
        <ele>34.6</ele>
        <time>2020-08-13T14:47:06Z</time>
      </trkpt>
      <trkpt lat="48.56445" lon="-4.52863">
        <ele>36.8</ele>
        <time>2020-08-13T14:47:10Z</time>
      </trkpt>
      <trkpt lat="48.56462" lon="-4.528103">
        <ele>36.8</ele>
        <time>2020-08-13T14:47:12Z</time>
      </trkpt>
      <trkpt lat="48.564706" lon="-4.527774">
        <ele>36.8</ele>
        <time>2020-08-13T14:47:14Z</time>
      </trkpt>
      <trkpt lat="48.564917" lon="-4.526793">
        <ele>36.6</ele>
        <time>2020-08-13T14:47:18Z</time>
      </trkpt>
      <trkpt lat="48.564997" lon="-4.526493">
        <ele>35.8</ele>
        <time>2020-08-13T14:47:19Z</time>
      </trkpt>
      <trkpt lat="48.565126" lon="-4.526211">
        <ele>36.4</ele>
        <time>2020-08-13T14:47:21Z</time>
      </trkpt>
      <trkpt lat="48.565081" lon="-4.525813">
        <ele>35.8</ele>
        <time>2020-08-13T14:47:24Z</time>
      </trkpt>
      <trkpt lat="48.565094" lon="-4.525722">
        <ele>35.8</ele>
        <time>2020-08-13T14:47:25Z</time>
      </trkpt>
      <trkpt lat="48.565123" lon="-4.525679">
        <ele>35.8</ele>
        <time>2020-08-13T14:47:25Z</time>
      </trkpt>
      <trkpt lat="48.565161" lon="-4.525674">
        <ele>35.8</ele>
        <time>2020-08-13T14:47:26Z</time>
      </trkpt>
      <trkpt lat="48.565214" lon="-4.525704">
        <ele>35.8</ele>
        <time>2020-08-13T14:47:26Z</time>
      </trkpt>
      <trkpt lat="48.565236" lon="-4.525777">
        <ele>35.8</ele>
        <time>2020-08-13T14:47:27Z</time>
      </trkpt>
      <trkpt lat="48.565253" lon="-4.526175">
        <ele>36.4</ele>
        <time>2020-08-13T14:47:30Z</time>
      </trkpt>
      <trkpt lat="48.565463" lon="-4.526397">
        <ele>36.4</ele>
        <time>2020-08-13T14:47:32Z</time>
      </trkpt>
      <trkpt lat="48.56559" lon="-4.526595">
        <ele>36.4</ele>
        <time>2020-08-13T14:47:34Z</time>
      </trkpt>
      <trkpt lat="48.566192" lon="-4.527706">
        <ele>37.4</ele>
        <time>2020-08-13T14:47:45Z</time>
      </trkpt>
      <trkpt lat="48.567444" lon="-4.530729">
        <ele>38.2</ele>
        <time>2020-08-13T14:48:10Z</time>
      </trkpt>
      <trkpt lat="48.567869" lon="-4.531691">
        <ele>40.6</ele>
        <time>2020-08-13T14:48:18Z</time>
      </trkpt>
      <trkpt lat="48.568978" lon="-4.533795">
        <ele>40.4</ele>
        <time>2020-08-13T14:48:38Z</time>
      </trkpt>
      <trkpt lat="48.569029" lon="-4.53386">
        <ele>40.4</ele>
        <time>2020-08-13T14:48:38Z</time>
      </trkpt>
      <trkpt lat="48.569149" lon="-4.533919">
        <ele>40.4</ele>
        <time>2020-08-13T14:48:40Z</time>
      </trkpt>
      <trkpt lat="48.569164" lon="-4.533877">
        <ele>40.4</ele>
        <time>2020-08-13T14:48:40Z</time>
      </trkpt>
      <trkpt lat="48.569225" lon="-4.533824">
        <ele>41.0</ele>
        <time>2020-08-13T14:48:41Z</time>
      </trkpt>
      <trkpt lat="48.569285" lon="-4.533845">
        <ele>41.0</ele>
        <time>2020-08-13T14:48:41Z</time>
      </trkpt>
      <trkpt lat="48.569323" lon="-4.533917">
        <ele>41.0</ele>
        <time>2020-08-13T14:48:42Z</time>
      </trkpt>
      <trkpt lat="48.569323" lon="-4.534002">
        <ele>41.0</ele>
        <time>2020-08-13T14:48:43Z</time>
      </trkpt>
      <trkpt lat="48.569303" lon="-4.534057">
        <ele>41.0</ele>
        <time>2020-08-13T14:48:43Z</time>
      </trkpt>
      <trkpt lat="48.569255" lon="-4.534097">
        <ele>41.0</ele>
        <time>2020-08-13T14:48:43Z</time>
      </trkpt>
      <trkpt lat="48.569263" lon="-4.534307">
        <ele>39.8</ele>
        <time>2020-08-13T14:48:45Z</time>
      </trkpt>
      <trkpt lat="48.569607" lon="-4.534982">
        <ele>39.8</ele>
        <time>2020-08-13T14:48:50Z</time>
      </trkpt>
      <trkpt lat="48.569908" lon="-4.53564">
        <ele>39.8</ele>
        <time>2020-08-13T14:48:55Z</time>
      </trkpt>
      <trkpt lat="48.570489" lon="-4.537248">
        <ele>42.6</ele>
        <time>2020-08-13T14:49:07Z</time>
      </trkpt>
      <trkpt lat="48.570899" lon="-4.53857">
        <ele>43.6</ele>
        <time>2020-08-13T14:49:16Z</time>
      </trkpt>
      <trkpt lat="48.57114" lon="-4.539399">
        <ele>43.8</ele>
        <time>2020-08-13T14:49:21Z</time>
      </trkpt>
      <trkpt lat="48.57136" lon="-4.540051">
        <ele>44.2</ele>
        <time>2020-08-13T14:49:26Z</time>
      </trkpt>
      <trkpt lat="48.572158" lon="-4.542142">
        <ele>45.8</ele>
        <time>2020-08-13T14:49:41Z</time>
      </trkpt>
      <trkpt lat="48.57228" lon="-4.542035">
        <ele>45.8</ele>
        <time>2020-08-13T14:49:42Z</time>
      </trkpt>
      <trkpt lat="48.572496" lon="-4.54189">
        <ele>45.8</ele>
        <time>2020-08-13T14:49:44Z</time>
      </trkpt>
      <trkpt lat="48.573071" lon="-4.541685">
        <ele>46.0</ele>
        <time>2020-08-13T14:49:49Z</time>
      </trkpt>
      <trkpt lat="48.573194" lon="-4.541589">
        <ele>45.6</ele>
        <time>2020-08-13T14:49:50Z</time>
      </trkpt>
      <trkpt lat="48.573407" lon="-4.541369">
        <ele>45.8</ele>
        <time>2020-08-13T14:49:52Z</time>
      </trkpt>
      <trkpt lat="48.573558" lon="-4.541255">
        <ele>45.8</ele>
        <time>2020-08-13T14:49:53Z</time>
      </trkpt>
      <trkpt lat="48.573859" lon="-4.541082">
        <ele>45.8</ele>
        <time>2020-08-13T14:49:55Z</time>
      </trkpt>
      <trkpt lat="48.573984" lon="-4.540958">
        <ele>45.8</ele>
        <time>2020-08-13T14:49:57Z</time>
      </trkpt>
      <trkpt lat="48.574035" lon="-4.540794">
        <ele>45.8</ele>
        <time>2020-08-13T14:49:57Z</time>
      </trkpt>
      <trkpt lat="48.574052" lon="-4.540654">
        <ele>45.8</ele>
        <time>2020-08-13T14:49:58Z</time>
      </trkpt>
      <trkpt lat="48.57403" lon="-4.539823">
        <ele>45.8</ele>
        <time>2020-08-13T14:50:02Z</time>
      </trkpt>
      <trkpt lat="48.574074" lon="-4.539619">
        <ele>45.8</ele>
        <time>2020-08-13T14:50:03Z</time>
      </trkpt>
      <trkpt lat="48.574696" lon="-4.540773">
        <ele>46.4</ele>
        <time>2020-08-13T14:50:08Z</time>
      </trkpt>
      <trkpt lat="48.574916" lon="-4.541216">
        <ele>45.8</ele>
        <time>2020-08-13T14:50:10Z</time>
      </trkpt>
      <trkpt lat="48.57503" lon="-4.541514">
        <ele>45.6</ele>
        <time>2020-08-13T14:50:11Z</time>
      </trkpt>
      <trkpt lat="48.575908" lon="-4.54443">
        <ele>41.6</ele>
        <time>2020-08-13T14:50:21Z</time>
      </trkpt>
      <trkpt lat="48.576088" lon="-4.545261">
        <ele>41.2</ele>
        <time>2020-08-13T14:50:23Z</time>
      </trkpt>
      <trkpt lat="48.576226" lon="-4.545725">
        <ele>41.2</ele>
        <time>2020-08-13T14:50:25Z</time>
      </trkpt>
      <trkpt lat="48.576407" lon="-4.546095">
        <ele>40.8</ele>
        <time>2020-08-13T14:50:26Z</time>
      </trkpt>
      <trkpt lat="48.577349" lon="-4.547434">
        <ele>42.6</ele>
        <time>2020-08-13T14:50:32Z</time>
      </trkpt>
      <trkpt lat="48.577693" lon="-4.547961">
        <ele>43.6</ele>
        <time>2020-08-13T14:50:34Z</time>
      </trkpt>
      <trkpt lat="48.577872" lon="-4.548435">
        <ele>42.4</ele>
        <time>2020-08-13T14:50:36Z</time>
      </trkpt>
      <trkpt lat="48.577994" lon="-4.548942">
        <ele>42.4</ele>
        <time>2020-08-13T14:50:38Z</time>
      </trkpt>
      <trkpt lat="48.578118" lon="-4.549611">
        <ele>42.0</ele>
        <time>2020-08-13T14:50:40Z</time>
      </trkpt>
      <trkpt lat="48.578265" lon="-4.550107">
        <ele>42.8</ele>
        <time>2020-08-13T14:50:41Z</time>
      </trkpt>
      <trkpt lat="48.57877" lon="-4.55152">
        <ele>44.2</ele>
        <time>2020-08-13T14:50:46Z</time>
      </trkpt>
      <trkpt lat="48.579285" lon="-4.553179">
        <ele>43.6</ele>
        <time>2020-08-13T14:50:52Z</time>
      </trkpt>
      <trkpt lat="48.579516" lon="-4.553672">
        <ele>43.6</ele>
        <time>2020-08-13T14:50:54Z</time>
      </trkpt>
      <trkpt lat="48.579721" lon="-4.553989">
        <ele>43.6</ele>
        <time>2020-08-13T14:50:55Z</time>
      </trkpt>
      <trkpt lat="48.579987" lon="-4.554303">
        <ele>44.0</ele>
        <time>2020-08-13T14:50:57Z</time>
      </trkpt>
      <trkpt lat="48.58009" lon="-4.554396">
        <ele>45.2</ele>
        <time>2020-08-13T14:50:57Z</time>
      </trkpt>
      <trkpt lat="48.580505" lon="-4.554637">
        <ele>45.2</ele>
        <time>2020-08-13T14:50:59Z</time>
      </trkpt>
      <trkpt lat="48.581262" lon="-4.554936">
        <ele>45.4</ele>
        <time>2020-08-13T14:51:03Z</time>
      </trkpt>
      <trkpt lat="48.581651" lon="-4.555022">
        <ele>45.4</ele>
        <time>2020-08-13T14:51:05Z</time>
      </trkpt>
      <trkpt lat="48.581858" lon="-4.555026">
        <ele>44.4</ele>
        <time>2020-08-13T14:51:06Z</time>
      </trkpt>
      <trkpt lat="48.582888" lon="-4.554909">
        <ele>45.4</ele>
        <time>2020-08-13T14:51:10Z</time>
      </trkpt>
      <trkpt lat="48.583239" lon="-4.554954">
        <ele>45.4</ele>
        <time>2020-08-13T14:51:12Z</time>
      </trkpt>
      <trkpt lat="48.583286" lon="-4.554818">
        <ele>45.4</ele>
        <time>2020-08-13T14:51:12Z</time>
      </trkpt>
      <trkpt lat="48.58338" lon="-4.554757">
        <ele>45.0</ele>
        <time>2020-08-13T14:51:13Z</time>
      </trkpt>
      <trkpt lat="48.583489" lon="-4.554815">
        <ele>45.0</ele>
        <time>2020-08-13T14:51:13Z</time>
      </trkpt>
      <trkpt lat="48.583536" lon="-4.554937">
        <ele>45.0</ele>
        <time>2020-08-13T14:51:14Z</time>
      </trkpt>
      <trkpt lat="48.584022" lon="-4.554738">
        <ele>45.0</ele>
        <time>2020-08-13T14:51:16Z</time>
      </trkpt>
      <trkpt lat="48.584284" lon="-4.55467">
        <ele>43.8</ele>
        <time>2020-08-13T14:51:18Z</time>
      </trkpt>
      <trkpt lat="48.584549" lon="-4.554627">
        <ele>43.8</ele>
        <time>2020-08-13T14:51:19Z</time>
      </trkpt>
      <trkpt lat="48.58571" lon="-4.554561">
        <ele>42.0</ele>
        <time>2020-08-13T14:51:24Z</time>
      </trkpt>
      <trkpt lat="48.586269" lon="-4.554469">
        <ele>39.6</ele>
        <time>2020-08-13T14:51:27Z</time>
      </trkpt>
      <trkpt lat="48.587162" lon="-4.554139">
        <ele>40.0</ele>
        <time>2020-08-13T14:51:31Z</time>
      </trkpt>
      <trkpt lat="48.587434" lon="-4.554097">
        <ele>40.0</ele>
        <time>2020-08-13T14:51:32Z</time>
      </trkpt>
      <trkpt lat="48.587643" lon="-4.554155">
        <ele>38.8</ele>
        <time>2020-08-13T14:51:33Z</time>
      </trkpt>
      <trkpt lat="48.587806" lon="-4.554267">
        <ele>35.6</ele>
        <time>2020-08-13T14:51:34Z</time>
      </trkpt>
      <trkpt lat="48.589055" lon="-4.555722">
        <ele>33.8</ele>
        <time>2020-08-13T14:51:42Z</time>
      </trkpt>
      <trkpt lat="48.589187" lon="-4.555838">
        <ele>35.0</ele>
        <time>2020-08-13T14:51:42Z</time>
      </trkpt>
      <trkpt lat="48.590071" lon="-4.556349">
        <ele>32.4</ele>
        <time>2020-08-13T14:51:47Z</time>
      </trkpt>
      <trkpt lat="48.591115" lon="-4.557134">
        <ele>27.8</ele>
        <time>2020-08-13T14:51:52Z</time>
      </trkpt>
      <trkpt lat="48.591322" lon="-4.557257">
        <ele>27.8</ele>
        <time>2020-08-13T14:51:53Z</time>
      </trkpt>
      <trkpt lat="48.591404" lon="-4.557284">
        <ele>27.8</ele>
        <time>2020-08-13T14:51:54Z</time>
      </trkpt>
      <trkpt lat="48.591839" lon="-4.557316">
        <ele>21.4</ele>
        <time>2020-08-13T14:51:56Z</time>
      </trkpt>
      <trkpt lat="48.592203" lon="-4.557293">
        <ele>21.4</ele>
        <time>2020-08-13T14:51:57Z</time>
      </trkpt>
      <trkpt lat="48.592482" lon="-4.557311">
        <ele>21.4</ele>
        <time>2020-08-13T14:51:59Z</time>
      </trkpt>
      <trkpt lat="48.593799" lon="-4.55759">
        <ele>19.6</ele>
        <time>2020-08-13T14:52:05Z</time>
      </trkpt>
      <trkpt lat="48.59396" lon="-4.557645">
        <ele>19.6</ele>
        <time>2020-08-13T14:52:06Z</time>
      </trkpt>
      <trkpt lat="48.594266" lon="-4.557846">
        <ele>13.2</ele>
        <time>2020-08-13T14:52:07Z</time>
      </trkpt>
      <trkpt lat="48.59448" lon="-4.558128">
        <ele>13.2</ele>
        <time>2020-08-13T14:52:09Z</time>
      </trkpt>
      <trkpt lat="48.594815" lon="-4.55875">
        <ele>19.8</ele>
        <time>2020-08-13T14:52:11Z</time>
      </trkpt>
      <trkpt lat="48.595368" lon="-4.559517">
        <ele>12.2</ele>
        <time>2020-08-13T14:52:15Z</time>
      </trkpt>
      <trkpt lat="48.596213" lon="-4.560622">
        <ele>8.4</ele>
        <time>2020-08-13T14:52:20Z</time>
      </trkpt>
      <trkpt lat="48.596917" lon="-4.561588">
        <ele>9.8</ele>
        <time>2020-08-13T14:52:24Z</time>
      </trkpt>
      <trkpt lat="48.59708" lon="-4.561861">
        <ele>18.2</ele>
        <time>2020-08-13T14:52:25Z</time>
      </trkpt>
      <trkpt lat="48.597693" lon="-4.563133">
        <ele>13.4</ele>
        <time>2020-08-13T14:52:30Z</time>
      </trkpt>
      <trkpt lat="48.597944" lon="-4.563477">
        <ele>15.4</ele>
        <time>2020-08-13T14:52:32Z</time>
      </trkpt>
      <trkpt lat="48.598006" lon="-4.563601">
        <ele>15.4</ele>
        <time>2020-08-13T14:52:32Z</time>
      </trkpt>
      <trkpt lat="48.598059" lon="-4.563717">
        <ele>15.4</ele>
        <time>2020-08-13T14:52:33Z</time>
      </trkpt>
      <trkpt lat="48.598184" lon="-4.564213">
        <ele>15.6</ele>
        <time>2020-08-13T14:52:34Z</time>
      </trkpt>
      <trkpt lat="48.59818" lon="-4.564248">
        <ele>15.6</ele>
        <time>2020-08-13T14:52:35Z</time>
      </trkpt>
      <trkpt lat="48.597994" lon="-4.564583">
        <ele>15.6</ele>
        <time>2020-08-13T14:52:36Z</time>
      </trkpt>
      <trkpt lat="48.597831" lon="-4.564942">
        <ele>15.6</ele>
        <time>2020-08-13T14:52:37Z</time>
      </trkpt>
      <trkpt lat="48.597791" lon="-4.565102">
        <ele>14.8</ele>
        <time>2020-08-13T14:52:38Z</time>
      </trkpt>
      <trkpt lat="48.5975" lon="-4.566795">
        <ele>11.6</ele>
        <time>2020-08-13T14:52:43Z</time>
      </trkpt>
      <trkpt lat="48.597483" lon="-4.566998">
        <ele>24.2</ele>
        <time>2020-08-13T14:52:44Z</time>
      </trkpt>
      <trkpt lat="48.59749" lon="-4.567326">
        <ele>24.2</ele>
        <time>2020-08-13T14:52:45Z</time>
      </trkpt>
      <trkpt lat="48.597657" lon="-4.568153">
        <ele>9.25</ele>
        <time>2020-08-13T14:52:48Z</time>
      </trkpt>
      <trkpt lat="48.597665" lon="-4.568215">
        <ele>9.25</ele>
        <time>2020-08-13T14:52:48Z</time>
      </trkpt>
      <trkpt lat="48.597643" lon="-4.568407">
        <ele>4.0</ele>
        <time>2020-08-13T14:52:49Z</time>
      </trkpt>
      <trkpt lat="48.597583" lon="-4.568506">
        <ele>4.0</ele>
        <time>2020-08-13T14:52:49Z</time>
      </trkpt>
      <trkpt lat="48.597234" lon="-4.568777">
        <ele>8.6</ele>
        <time>2020-08-13T14:52:51Z</time>
      </trkpt>
      <trkpt lat="48.597174" lon="-4.568845">
        <ele>8.6</ele>
        <time>2020-08-13T14:52:51Z</time>
      </trkpt>
      <trkpt lat="48.596827" lon="-4.569385">
        <ele>3.6</ele>
        <time>2020-08-13T14:52:54Z</time>
      </trkpt>
      <trkpt lat="48.596551" lon="-4.569909">
        <ele>13.2</ele>
        <time>2020-08-13T14:52:56Z</time>
      </trkpt>
      <trkpt lat="48.596344" lon="-4.570392">
        <ele>12.0</ele>
        <time>2020-08-13T14:52:58Z</time>
      </trkpt>
      <trkpt lat="48.596222" lon="-4.570516">
        <ele>12.0</ele>
        <time>2020-08-13T14:52:58Z</time>
      </trkpt>
      <trkpt lat="48.595966" lon="-4.570554">
        <ele>12.0</ele>
        <time>2020-08-13T14:53:01Z</time>
      </trkpt>
      <trkpt lat="48.595853" lon="-4.570808">
        <ele>12.0</ele>
        <time>2020-08-13T14:53:01Z</time>
      </trkpt>
      <trkpt lat="48.595305" lon="-4.573176">
        <ele>21.2</ele>
        <time>2020-08-13T14:53:09Z</time>
      </trkpt>
      <trkpt lat="48.595166" lon="-4.573614">
        <ele>17.4</ele>
        <time>2020-08-13T14:53:11Z</time>
      </trkpt>
      <trkpt lat="48.595049" lon="-4.57394">
        <ele>17.4</ele>
        <time>2020-08-13T14:53:12Z</time>
      </trkpt>
      <trkpt lat="48.594414" lon="-4.575408">
        <ele>22.4</ele>
        <time>2020-08-13T14:53:17Z</time>
      </trkpt>
      <trkpt lat="48.594279" lon="-4.575782">
        <ele>22.4</ele>
        <time>2020-08-13T14:53:19Z</time>
      </trkpt>
      <trkpt lat="48.593637" lon="-4.577768">
        <ele>25.6</ele>
        <time>2020-08-13T14:53:26Z</time>
      </trkpt>
      <trkpt lat="48.593261" lon="-4.577456">
        <ele>35.4</ele>
        <time>2020-08-13T14:53:32Z</time>
      </trkpt>
      <trkpt lat="48.593718" lon="-4.575779">
        <ele>31.8</ele>
        <time>2020-08-13T14:53:51Z</time>
      </trkpt>
      <trkpt lat="48.593718" lon="-4.575779">
        <ele>31.8</ele>
        <time>2020-08-13T14:53:51Z</time>
      </trkpt>
      <trkpt lat="48.593261" lon="-4.577456">
        <ele>35.4</ele>
        <time>2020-08-13T14:54:09Z</time>
      </trkpt>
      <trkpt lat="48.593637" lon="-4.577768">
        <ele>25.6</ele>
        <time>2020-08-13T14:54:16Z</time>
      </trkpt>
      <trkpt lat="48.594279" lon="-4.575782">
        <ele>22.4</ele>
        <time>2020-08-13T14:54:23Z</time>
      </trkpt>
      <trkpt lat="48.594414" lon="-4.575408">
        <ele>22.4</ele>
        <time>2020-08-13T14:54:24Z</time>
      </trkpt>
      <trkpt lat="48.59509" lon="-4.573841">
        <ele>17.4</ele>
        <time>2020-08-13T14:54:30Z</time>
      </trkpt>
      <trkpt lat="48.595305" lon="-4.573176">
        <ele>21.2</ele>
        <time>2020-08-13T14:54:32Z</time>
      </trkpt>
      <trkpt lat="48.595853" lon="-4.570808">
        <ele>12.0</ele>
        <time>2020-08-13T14:54:40Z</time>
      </trkpt>
      <trkpt lat="48.595849" lon="-4.570616">
        <ele>12.0</ele>
        <time>2020-08-13T14:54:41Z</time>
      </trkpt>
      <trkpt lat="48.595873" lon="-4.570506">
        <ele>12.0</ele>
        <time>2020-08-13T14:54:41Z</time>
      </trkpt>
      <trkpt lat="48.595782" lon="-4.570395">
        <ele>27.2</ele>
        <time>2020-08-13T14:54:43Z</time>
      </trkpt>
      <trkpt lat="48.595721" lon="-4.570242">
        <ele>27.2</ele>
        <time>2020-08-13T14:54:44Z</time>
      </trkpt>
      <trkpt lat="48.595654" lon="-4.569966">
        <ele>26.8</ele>
        <time>2020-08-13T14:54:45Z</time>
      </trkpt>
      <trkpt lat="48.595487" lon="-4.569406">
        <ele>26.8</ele>
        <time>2020-08-13T14:54:48Z</time>
      </trkpt>
      <trkpt lat="48.595649" lon="-4.568932">
        <ele>26.4</ele>
        <time>2020-08-13T14:54:52Z</time>
      </trkpt>
      <trkpt lat="48.595802" lon="-4.568765">
        <ele>26.4</ele>
        <time>2020-08-13T14:54:55Z</time>
      </trkpt>
      <trkpt lat="48.596761" lon="-4.567946">
        <ele>17.4</ele>
        <time>2020-08-13T14:55:07Z</time>
      </trkpt>
      <trkpt lat="48.596813" lon="-4.567859">
        <ele>17.4</ele>
        <time>2020-08-13T14:55:08Z</time>
      </trkpt>
      <trkpt lat="48.596757" lon="-4.567728">
        <ele>17.4</ele>
        <time>2020-08-13T14:55:09Z</time>
      </trkpt>
      <trkpt lat="48.596325" lon="-4.566999">
        <ele>31.4</ele>
        <time>2020-08-13T14:55:17Z</time>
      </trkpt>
      <trkpt lat="48.595501" lon="-4.566197">
        <ele>35.4</ele>
        <time>2020-08-13T14:55:28Z</time>
      </trkpt>
      <trkpt lat="48.595129" lon="-4.565677">
        <ele>35.6</ele>
        <time>2020-08-13T14:55:34Z</time>
      </trkpt>
      <trkpt lat="48.595187" lon="-4.565516">
        <ele>35.6</ele>
        <time>2020-08-13T14:55:36Z</time>
      </trkpt>
      <trkpt lat="48.595228" lon="-4.565237">
        <ele>35.6</ele>
        <time>2020-08-13T14:55:38Z</time>
      </trkpt>
      <trkpt lat="48.595243" lon="-4.564947">
        <ele>35.2</ele>
        <time>2020-08-13T14:55:40Z</time>
      </trkpt>
      <trkpt lat="48.595229" lon="-4.563569">
        <ele>34.6</ele>
        <time>2020-08-13T14:55:50Z</time>
      </trkpt>
      <trkpt lat="48.595216" lon="-4.563319">
        <ele>33.6</ele>
        <time>2020-08-13T14:55:52Z</time>
      </trkpt>
      <trkpt lat="48.595047" lon="-4.562478">
        <ele>29.8</ele>
        <time>2020-08-13T14:55:59Z</time>
      </trkpt>
      <trkpt lat="48.595478" lon="-4.562251">
        <ele>29.8</ele>
        <time>2020-08-13T14:56:04Z</time>
      </trkpt>
      <trkpt lat="48.595593" lon="-4.562219">
        <ele>29.8</ele>
        <time>2020-08-13T14:56:05Z</time>
      </trkpt>
      <trkpt lat="48.596124" lon="-4.56226">
        <ele>25.6</ele>
        <time>2020-08-13T14:56:10Z</time>
      </trkpt>
      <trkpt lat="48.597182" lon="-4.562251">
        <ele>18.2</ele>
        <time>2020-08-13T14:56:21Z</time>
      </trkpt>
      <trkpt lat="48.597236" lon="-4.562205">
        <ele>18.2</ele>
        <time>2020-08-13T14:56:22Z</time>
      </trkpt>
      <trkpt lat="48.59708" lon="-4.561861">
        <ele>18.2</ele>
        <time>2020-08-13T14:56:23Z</time>
      </trkpt>
      <trkpt lat="48.596917" lon="-4.561588">
        <ele>9.8</ele>
        <time>2020-08-13T14:56:25Z</time>
      </trkpt>
      <trkpt lat="48.596213" lon="-4.560622">
        <ele>8.4</ele>
        <time>2020-08-13T14:56:29Z</time>
      </trkpt>
      <trkpt lat="48.595368" lon="-4.559517">
        <ele>12.2</ele>
        <time>2020-08-13T14:56:34Z</time>
      </trkpt>
      <trkpt lat="48.594815" lon="-4.55875">
        <ele>19.8</ele>
        <time>2020-08-13T14:56:38Z</time>
      </trkpt>
      <trkpt lat="48.59448" lon="-4.558128">
        <ele>13.2</ele>
        <time>2020-08-13T14:56:40Z</time>
      </trkpt>
      <trkpt lat="48.594266" lon="-4.557846">
        <ele>13.2</ele>
        <time>2020-08-13T14:56:42Z</time>
      </trkpt>
      <trkpt lat="48.59396" lon="-4.557645">
        <ele>19.6</ele>
        <time>2020-08-13T14:56:43Z</time>
      </trkpt>
      <trkpt lat="48.593799" lon="-4.55759">
        <ele>19.6</ele>
        <time>2020-08-13T14:56:44Z</time>
      </trkpt>
      <trkpt lat="48.592482" lon="-4.557311">
        <ele>21.4</ele>
        <time>2020-08-13T14:56:50Z</time>
      </trkpt>
      <trkpt lat="48.592203" lon="-4.557293">
        <ele>21.4</ele>
        <time>2020-08-13T14:56:52Z</time>
      </trkpt>
      <trkpt lat="48.591839" lon="-4.557316">
        <ele>21.4</ele>
        <time>2020-08-13T14:56:53Z</time>
      </trkpt>
      <trkpt lat="48.591404" lon="-4.557284">
        <ele>27.8</ele>
        <time>2020-08-13T14:56:55Z</time>
      </trkpt>
      <trkpt lat="48.591322" lon="-4.557257">
        <ele>27.8</ele>
        <time>2020-08-13T14:56:56Z</time>
      </trkpt>
      <trkpt lat="48.591115" lon="-4.557134">
        <ele>27.8</ele>
        <time>2020-08-13T14:56:57Z</time>
      </trkpt>
      <trkpt lat="48.590071" lon="-4.556349">
        <ele>32.4</ele>
        <time>2020-08-13T14:57:02Z</time>
      </trkpt>
      <trkpt lat="48.589187" lon="-4.555838">
        <ele>35.0</ele>
        <time>2020-08-13T14:57:07Z</time>
      </trkpt>
      <trkpt lat="48.589055" lon="-4.555722">
        <ele>33.8</ele>
        <time>2020-08-13T14:57:08Z</time>
      </trkpt>
      <trkpt lat="48.587806" lon="-4.554267">
        <ele>35.6</ele>
        <time>2020-08-13T14:57:15Z</time>
      </trkpt>
      <trkpt lat="48.587643" lon="-4.554155">
        <ele>38.8</ele>
        <time>2020-08-13T14:57:16Z</time>
      </trkpt>
      <trkpt lat="48.587434" lon="-4.554097">
        <ele>40.0</ele>
        <time>2020-08-13T14:57:17Z</time>
      </trkpt>
      <trkpt lat="48.58729" lon="-4.55411">
        <ele>40.0</ele>
        <time>2020-08-13T14:57:17Z</time>
      </trkpt>
      <trkpt lat="48.587162" lon="-4.554139">
        <ele>40.0</ele>
        <time>2020-08-13T14:57:18Z</time>
      </trkpt>
      <trkpt lat="48.586269" lon="-4.554469">
        <ele>39.6</ele>
        <time>2020-08-13T14:57:22Z</time>
      </trkpt>
      <trkpt lat="48.58571" lon="-4.554561">
        <ele>42.0</ele>
        <time>2020-08-13T14:57:25Z</time>
      </trkpt>
      <trkpt lat="48.584549" lon="-4.554627">
        <ele>43.8</ele>
        <time>2020-08-13T14:57:31Z</time>
      </trkpt>
      <trkpt lat="48.584284" lon="-4.55467">
        <ele>43.8</ele>
        <time>2020-08-13T14:57:32Z</time>
      </trkpt>
      <trkpt lat="48.584022" lon="-4.554738">
        <ele>45.0</ele>
        <time>2020-08-13T14:57:33Z</time>
      </trkpt>
      <trkpt lat="48.583536" lon="-4.554937">
        <ele>45.0</ele>
        <time>2020-08-13T14:57:36Z</time>
      </trkpt>
      <trkpt lat="48.583515" lon="-4.555114">
        <ele>44.4</ele>
        <time>2020-08-13T14:57:37Z</time>
      </trkpt>
      <trkpt lat="48.58344" lon="-4.555204">
        <ele>44.4</ele>
        <time>2020-08-13T14:57:37Z</time>
      </trkpt>
      <trkpt lat="48.58339" lon="-4.555217">
        <ele>44.4</ele>
        <time>2020-08-13T14:57:38Z</time>
      </trkpt>
      <trkpt lat="48.583315" lon="-4.555188">
        <ele>45.0</ele>
        <time>2020-08-13T14:57:38Z</time>
      </trkpt>
      <trkpt lat="48.583247" lon="-4.555071">
        <ele>45.0</ele>
        <time>2020-08-13T14:57:39Z</time>
      </trkpt>
      <trkpt lat="48.583245" lon="-4.554916">
        <ele>45.4</ele>
        <time>2020-08-13T14:57:40Z</time>
      </trkpt>
      <trkpt lat="48.583286" lon="-4.554818">
        <ele>45.4</ele>
        <time>2020-08-13T14:57:40Z</time>
      </trkpt>
      <trkpt lat="48.58338" lon="-4.554757">
        <ele>45.0</ele>
        <time>2020-08-13T14:57:41Z</time>
      </trkpt>
      <trkpt lat="48.583373" lon="-4.55467">
        <ele>45.0</ele>
        <time>2020-08-13T14:57:42Z</time>
      </trkpt>
      <trkpt lat="48.583074" lon="-4.552558">
        <ele>45.0</ele>
        <time>2020-08-13T14:57:52Z</time>
      </trkpt>
      <trkpt lat="48.582743" lon="-4.549523">
        <ele>42.2</ele>
        <time>2020-08-13T14:58:08Z</time>
      </trkpt>
      <trkpt lat="48.582727" lon="-4.549233">
        <ele>42.2</ele>
        <time>2020-08-13T14:58:09Z</time>
      </trkpt>
      <trkpt lat="48.582764" lon="-4.548615">
        <ele>41.6</ele>
        <time>2020-08-13T14:58:12Z</time>
      </trkpt>
      <trkpt lat="48.582782" lon="-4.548044">
        <ele>41.4</ele>
        <time>2020-08-13T14:58:15Z</time>
      </trkpt>
      <trkpt lat="48.582824" lon="-4.547788">
        <ele>41.4</ele>
        <time>2020-08-13T14:58:16Z</time>
      </trkpt>
      <trkpt lat="48.582947" lon="-4.547341">
        <ele>40.8</ele>
        <time>2020-08-13T14:58:19Z</time>
      </trkpt>
      <trkpt lat="48.582992" lon="-4.547116">
        <ele>40.8</ele>
        <time>2020-08-13T14:58:20Z</time>
      </trkpt>
      <trkpt lat="48.583055" lon="-4.546664">
        <ele>40.4</ele>
        <time>2020-08-13T14:58:22Z</time>
      </trkpt>
      <trkpt lat="48.583071" lon="-4.546407">
        <ele>40.4</ele>
        <time>2020-08-13T14:58:24Z</time>
      </trkpt>
      <trkpt lat="48.58307" lon="-4.545813">
        <ele>39.8</ele>
        <time>2020-08-13T14:58:27Z</time>
      </trkpt>
      <trkpt lat="48.583028" lon="-4.544719">
        <ele>39.2</ele>
        <time>2020-08-13T14:58:32Z</time>
      </trkpt>
      <trkpt lat="48.583036" lon="-4.543565">
        <ele>39.8</ele>
        <time>2020-08-13T14:58:38Z</time>
      </trkpt>
      <trkpt lat="48.583017" lon="-4.543134">
        <ele>40.6</ele>
        <time>2020-08-13T14:58:40Z</time>
      </trkpt>
      <trkpt lat="48.582655" lon="-4.542144">
        <ele>40.8</ele>
        <time>2020-08-13T14:58:46Z</time>
      </trkpt>
      <trkpt lat="48.582327" lon="-4.541627">
        <ele>40.0</ele>
        <time>2020-08-13T14:58:49Z</time>
      </trkpt>
      <trkpt lat="48.582051" lon="-4.540826">
        <ele>40.2</ele>
        <time>2020-08-13T14:58:54Z</time>
      </trkpt>
      <trkpt lat="48.581975" lon="-4.540122">
        <ele>40.2</ele>
        <time>2020-08-13T14:58:57Z</time>
      </trkpt>
      <trkpt lat="48.581945" lon="-4.539639">
        <ele>40.0</ele>
        <time>2020-08-13T14:59:00Z</time>
      </trkpt>
      <trkpt lat="48.581865" lon="-4.539182">
        <ele>40.0</ele>
        <time>2020-08-13T14:59:02Z</time>
      </trkpt>
      <trkpt lat="48.581779" lon="-4.538827">
        <ele>40.2</ele>
        <time>2020-08-13T14:59:04Z</time>
      </trkpt>
      <trkpt lat="48.581757" lon="-4.538436">
        <ele>40.2</ele>
        <time>2020-08-13T14:59:06Z</time>
      </trkpt>
      <trkpt lat="48.581746" lon="-4.537388">
        <ele>40.4</ele>
        <time>2020-08-13T14:59:11Z</time>
      </trkpt>
      <trkpt lat="48.581756" lon="-4.537166">
        <ele>40.4</ele>
        <time>2020-08-13T14:59:12Z</time>
      </trkpt>
      <trkpt lat="48.5819" lon="-4.536446">
        <ele>41.2</ele>
        <time>2020-08-13T14:59:16Z</time>
      </trkpt>
      <trkpt lat="48.581931" lon="-4.536219">
        <ele>41.2</ele>
        <time>2020-08-13T14:59:17Z</time>
      </trkpt>
      <trkpt lat="48.581903" lon="-4.535918">
        <ele>41.2</ele>
        <time>2020-08-13T14:59:19Z</time>
      </trkpt>
      <trkpt lat="48.581393" lon="-4.534032">
        <ele>43.4</ele>
        <time>2020-08-13T14:59:29Z</time>
      </trkpt>
      <trkpt lat="48.581331" lon="-4.533638">
        <ele>43.4</ele>
        <time>2020-08-13T14:59:31Z</time>
      </trkpt>
      <trkpt lat="48.581302" lon="-4.533306">
        <ele>42.6</ele>
        <time>2020-08-13T14:59:33Z</time>
      </trkpt>
      <trkpt lat="48.581244" lon="-4.531982">
        <ele>40.8</ele>
        <time>2020-08-13T14:59:39Z</time>
      </trkpt>
      <trkpt lat="48.5811" lon="-4.530839">
        <ele>40.0</ele>
        <time>2020-08-13T14:59:45Z</time>
      </trkpt>
      <trkpt lat="48.581108" lon="-4.530323">
        <ele>39.2</ele>
        <time>2020-08-13T14:59:48Z</time>
      </trkpt>
      <trkpt lat="48.581138" lon="-4.529715">
        <ele>38.4</ele>
        <time>2020-08-13T14:59:51Z</time>
      </trkpt>
      <trkpt lat="48.581134" lon="-4.529034">
        <ele>36.8</ele>
        <time>2020-08-13T14:59:54Z</time>
      </trkpt>
      <trkpt lat="48.581045" lon="-4.528547">
        <ele>36.8</ele>
        <time>2020-08-13T14:59:57Z</time>
      </trkpt>
      <trkpt lat="48.580991" lon="-4.528507">
        <ele>36.8</ele>
        <time>2020-08-13T14:59:57Z</time>
      </trkpt>
      <trkpt lat="48.580975" lon="-4.528448">
        <ele>36.8</ele>
        <time>2020-08-13T14:59:58Z</time>
      </trkpt>
      <trkpt lat="48.581004" lon="-4.528357">
        <ele>36.8</ele>
        <time>2020-08-13T14:59:58Z</time>
      </trkpt>
      <trkpt lat="48.580989" lon="-4.52812">
        <ele>36.2</ele>
        <time>2020-08-13T14:59:59Z</time>
      </trkpt>
      <trkpt lat="48.580787" lon="-4.527319">
        <ele>38.4</ele>
        <time>2020-08-13T15:00:04Z</time>
      </trkpt>
      <trkpt lat="48.580382" lon="-4.526252">
        <ele>40.2</ele>
        <time>2020-08-13T15:00:10Z</time>
      </trkpt>
      <trkpt lat="48.579812" lon="-4.52386">
        <ele>42.2</ele>
        <time>2020-08-13T15:00:23Z</time>
      </trkpt>
      <trkpt lat="48.579669" lon="-4.5234">
        <ele>42.2</ele>
        <time>2020-08-13T15:00:26Z</time>
      </trkpt>
      <trkpt lat="48.579383" lon="-4.522586">
        <ele>41.6</ele>
        <time>2020-08-13T15:00:30Z</time>
      </trkpt>
      <trkpt lat="48.579296" lon="-4.522418">
        <ele>41.2</ele>
        <time>2020-08-13T15:00:31Z</time>
      </trkpt>
      <trkpt lat="48.579269" lon="-4.522425">
        <ele>41.2</ele>
        <time>2020-08-13T15:00:32Z</time>
      </trkpt>
      <trkpt lat="48.579217" lon="-4.522397">
        <ele>41.2</ele>
        <time>2020-08-13T15:00:32Z</time>
      </trkpt>
      <trkpt lat="48.579187" lon="-4.522328">
        <ele>41.2</ele>
        <time>2020-08-13T15:00:32Z</time>
      </trkpt>
      <trkpt lat="48.579201" lon="-4.522222">
        <ele>41.2</ele>
        <time>2020-08-13T15:00:33Z</time>
      </trkpt>
      <trkpt lat="48.579245" lon="-4.522175">
        <ele>41.2</ele>
        <time>2020-08-13T15:00:33Z</time>
      </trkpt>
      <trkpt lat="48.579313" lon="-4.522188">
        <ele>41.2</ele>
        <time>2020-08-13T15:00:34Z</time>
      </trkpt>
      <trkpt lat="48.579612" lon="-4.522078">
        <ele>41.2</ele>
        <time>2020-08-13T15:00:36Z</time>
      </trkpt>
      <trkpt lat="48.57973" lon="-4.522055">
        <ele>41.2</ele>
        <time>2020-08-13T15:00:37Z</time>
      </trkpt>
      <trkpt lat="48.57988" lon="-4.522122">
        <ele>41.2</ele>
        <time>2020-08-13T15:00:38Z</time>
      </trkpt>
      <trkpt lat="48.580018" lon="-4.522259">
        <ele>36.6</ele>
        <time>2020-08-13T15:00:39Z</time>
      </trkpt>
      <trkpt lat="48.580268" lon="-4.522581">
        <ele>38.0</ele>
        <time>2020-08-13T15:00:42Z</time>
      </trkpt>
      <trkpt lat="48.580436" lon="-4.522756">
        <ele>38.0</ele>
        <time>2020-08-13T15:00:43Z</time>
      </trkpt>
      <trkpt lat="48.58059" lon="-4.522821">
        <ele>38.0</ele>
        <time>2020-08-13T15:00:44Z</time>
      </trkpt>
      <trkpt lat="48.580731" lon="-4.522826">
        <ele>38.0</ele>
        <time>2020-08-13T15:00:45Z</time>
      </trkpt>
      <trkpt lat="48.580887" lon="-4.522742">
        <ele>32.8</ele>
        <time>2020-08-13T15:00:47Z</time>
      </trkpt>
      <trkpt lat="48.580978" lon="-4.522623">
        <ele>32.8</ele>
        <time>2020-08-13T15:00:47Z</time>
      </trkpt>
      <trkpt lat="48.581057" lon="-4.522409">
        <ele>30.6</ele>
        <time>2020-08-13T15:00:49Z</time>
      </trkpt>
      <trkpt lat="48.58118" lon="-4.521845">
        <ele>30.6</ele>
        <time>2020-08-13T15:00:51Z</time>
      </trkpt>
      <trkpt lat="48.581272" lon="-4.521642">
        <ele>30.4</ele>
        <time>2020-08-13T15:00:53Z</time>
      </trkpt>
      <trkpt lat="48.581351" lon="-4.521529">
        <ele>30.4</ele>
        <time>2020-08-13T15:00:53Z</time>
      </trkpt>
      <trkpt lat="48.581452" lon="-4.521454">
        <ele>30.4</ele>
        <time>2020-08-13T15:00:54Z</time>
      </trkpt>
      <trkpt lat="48.581592" lon="-4.52139">
        <ele>30.4</ele>
        <time>2020-08-13T15:00:55Z</time>
      </trkpt>
      <trkpt lat="48.581818" lon="-4.521332">
        <ele>23.2</ele>
        <time>2020-08-13T15:00:57Z</time>
      </trkpt>
      <trkpt lat="48.581923" lon="-4.521338">
        <ele>23.2</ele>
        <time>2020-08-13T15:00:58Z</time>
      </trkpt>
      <trkpt lat="48.581996" lon="-4.521372">
        <ele>23.2</ele>
        <time>2020-08-13T15:00:58Z</time>
      </trkpt>
      <trkpt lat="48.582343" lon="-4.521643">
        <ele>23.2</ele>
        <time>2020-08-13T15:01:01Z</time>
      </trkpt>
      <trkpt lat="48.583095" lon="-4.522075">
        <ele>19.6</ele>
        <time>2020-08-13T15:01:07Z</time>
      </trkpt>
      <trkpt lat="48.583169" lon="-4.522096">
        <ele>19.6</ele>
        <time>2020-08-13T15:01:08Z</time>
      </trkpt>
      <trkpt lat="48.583398" lon="-4.522049">
        <ele>18.8</ele>
        <time>2020-08-13T15:01:09Z</time>
      </trkpt>
      <trkpt lat="48.583816" lon="-4.521818">
        <ele>18.8</ele>
        <time>2020-08-13T15:01:12Z</time>
      </trkpt>
      <trkpt lat="48.58397" lon="-4.521713">
        <ele>18.8</ele>
        <time>2020-08-13T15:01:14Z</time>
      </trkpt>
      <trkpt lat="48.58464" lon="-4.520981">
        <ele>13.0</ele>
        <time>2020-08-13T15:01:20Z</time>
      </trkpt>
      <trkpt lat="48.584874" lon="-4.520669">
        <ele>15.4</ele>
        <time>2020-08-13T15:01:22Z</time>
      </trkpt>
      <trkpt lat="48.584962" lon="-4.520488">
        <ele>15.4</ele>
        <time>2020-08-13T15:01:23Z</time>
      </trkpt>
      <trkpt lat="48.585289" lon="-4.519618">
        <ele>12.0</ele>
        <time>2020-08-13T15:01:28Z</time>
      </trkpt>
      <trkpt lat="48.585707" lon="-4.51882">
        <ele>13.0</ele>
        <time>2020-08-13T15:01:33Z</time>
      </trkpt>
      <trkpt lat="48.585909" lon="-4.518353">
        <ele>6.0</ele>
        <time>2020-08-13T15:01:35Z</time>
      </trkpt>
      <trkpt lat="48.585965" lon="-4.51817">
        <ele>7.75</ele>
        <time>2020-08-13T15:01:36Z</time>
      </trkpt>
      <trkpt lat="48.586036" lon="-4.517759">
        <ele>7.75</ele>
        <time>2020-08-13T15:01:38Z</time>
      </trkpt>
      <trkpt lat="48.586116" lon="-4.516414">
        <ele>9.0</ele>
        <time>2020-08-13T15:01:45Z</time>
      </trkpt>
      <trkpt lat="48.586192" lon="-4.515897">
        <ele>9.0</ele>
        <time>2020-08-13T15:01:47Z</time>
      </trkpt>
      <trkpt lat="48.586257" lon="-4.515642">
        <ele>11.2</ele>
        <time>2020-08-13T15:01:49Z</time>
      </trkpt>
      <trkpt lat="48.586427" lon="-4.515294">
        <ele>11.2</ele>
        <time>2020-08-13T15:01:51Z</time>
      </trkpt>
      <trkpt lat="48.586544" lon="-4.515166">
        <ele>11.2</ele>
        <time>2020-08-13T15:01:52Z</time>
      </trkpt>
      <trkpt lat="48.586656" lon="-4.515107">
        <ele>11.2</ele>
        <time>2020-08-13T15:01:53Z</time>
      </trkpt>
      <trkpt lat="48.586789" lon="-4.515092">
        <ele>3.25</ele>
        <time>2020-08-13T15:01:54Z</time>
      </trkpt>
      <trkpt lat="48.588216" lon="-4.515236">
        <ele>0.0</ele>
        <time>2020-08-13T15:02:04Z</time>
      </trkpt>
      <trkpt lat="48.588381" lon="-4.515298">
        <ele>7.75</ele>
        <time>2020-08-13T15:02:05Z</time>
      </trkpt>
      <trkpt lat="48.588466" lon="-4.51538">
        <ele>7.75</ele>
        <time>2020-08-13T15:02:06Z</time>
      </trkpt>
      <trkpt lat="48.58858" lon="-4.515566">
        <ele>7.75</ele>
        <time>2020-08-13T15:02:07Z</time>
      </trkpt>
      <trkpt lat="48.588729" lon="-4.51639">
        <ele>5.0</ele>
        <time>2020-08-13T15:02:11Z</time>
      </trkpt>
      <trkpt lat="48.588796" lon="-4.516613">
        <ele>5.0</ele>
        <time>2020-08-13T15:02:13Z</time>
      </trkpt>
      <trkpt lat="48.589023" lon="-4.517175">
        <ele>3.5</ele>
        <time>2020-08-13T15:02:16Z</time>
      </trkpt>
      <trkpt lat="48.589068" lon="-4.517324">
        <ele>3.5</ele>
        <time>2020-08-13T15:02:16Z</time>
      </trkpt>
      <trkpt lat="48.589098" lon="-4.51749">
        <ele>3.5</ele>
        <time>2020-08-13T15:02:17Z</time>
      </trkpt>
      <trkpt lat="48.58913" lon="-4.51847">
        <ele>0.0</ele>
        <time>2020-08-13T15:02:22Z</time>
      </trkpt>
      <trkpt lat="48.58913" lon="-4.51847">
        <ele>0.0</ele>
        <time>2020-08-13T15:02:22Z</time>
      </trkpt>
      <trkpt lat="48.589157" lon="-4.518659">
        <ele>0.0</ele>
        <time>2020-08-13T15:02:24Z</time>
      </trkpt>
      <trkpt lat="48.589225" lon="-4.518872">
        <ele>12.25</ele>
        <time>2020-08-13T15:02:26Z</time>
      </trkpt>
      <trkpt lat="48.589352" lon="-4.519062">
        <ele>12.25</ele>
        <time>2020-08-13T15:02:27Z</time>
      </trkpt>
      <trkpt lat="48.589495" lon="-4.519156">
        <ele>12.25</ele>
        <time>2020-08-13T15:02:29Z</time>
      </trkpt>
      <trkpt lat="48.589638" lon="-4.519188">
        <ele>9.0</ele>
        <time>2020-08-13T15:02:31Z</time>
      </trkpt>
      <trkpt lat="48.590236" lon="-4.519115">
        <ele>15.2</ele>
        <time>2020-08-13T15:02:37Z</time>
      </trkpt>
      <trkpt lat="48.590556" lon="-4.519118">
        <ele>15.2</ele>
        <time>2020-08-13T15:02:40Z</time>
      </trkpt>
      <trkpt lat="48.591623" lon="-4.51931">
        <ele>10.6</ele>
        <time>2020-08-13T15:02:51Z</time>
      </trkpt>
      <trkpt lat="48.591778" lon="-4.519399">
        <ele>16.0</ele>
        <time>2020-08-13T15:02:53Z</time>
      </trkpt>
      <trkpt lat="48.592317" lon="-4.519882">
        <ele>16.0</ele>
        <time>2020-08-13T15:02:59Z</time>
      </trkpt>
      <trkpt lat="48.592526" lon="-4.520023">
        <ele>11.75</ele>
        <time>2020-08-13T15:03:02Z</time>
      </trkpt>
      <trkpt lat="48.592652" lon="-4.520029">
        <ele>11.75</ele>
        <time>2020-08-13T15:03:03Z</time>
      </trkpt>
      <trkpt lat="48.592768" lon="-4.520001">
        <ele>11.75</ele>
        <time>2020-08-13T15:03:04Z</time>
      </trkpt>
      <trkpt lat="48.592863" lon="-4.519925">
        <ele>21.2</ele>
        <time>2020-08-13T15:03:05Z</time>
      </trkpt>
      <trkpt lat="48.592939" lon="-4.519825">
        <ele>21.2</ele>
        <time>2020-08-13T15:03:06Z</time>
      </trkpt>
      <trkpt lat="48.593007" lon="-4.519664">
        <ele>21.2</ele>
        <time>2020-08-13T15:03:08Z</time>
      </trkpt>
      <trkpt lat="48.593055" lon="-4.519429">
        <ele>21.2</ele>
        <time>2020-08-13T15:03:09Z</time>
      </trkpt>
      <trkpt lat="48.593064" lon="-4.519252">
        <ele>21.2</ele>
        <time>2020-08-13T15:03:11Z</time>
      </trkpt>
      <trkpt lat="48.593049" lon="-4.518676">
        <ele>29.2</ele>
        <time>2020-08-13T15:03:15Z</time>
      </trkpt>
      <trkpt lat="48.592934" lon="-4.517187">
        <ele>38.8</ele>
        <time>2020-08-13T15:03:25Z</time>
      </trkpt>
      <trkpt lat="48.592874" lon="-4.516513">
        <ele>41.4</ele>
        <time>2020-08-13T15:03:29Z</time>
      </trkpt>
      <trkpt lat="48.592795" lon="-4.515849">
        <ele>41.4</ele>
        <time>2020-08-13T15:03:34Z</time>
      </trkpt>
      <trkpt lat="48.592789" lon="-4.515504">
        <ele>43.6</ele>
        <time>2020-08-13T15:03:36Z</time>
      </trkpt>
      <trkpt lat="48.592803" lon="-4.515252">
        <ele>43.6</ele>
        <time>2020-08-13T15:03:38Z</time>
      </trkpt>
      <trkpt lat="48.592862" lon="-4.514795">
        <ele>45.8</ele>
        <time>2020-08-13T15:03:41Z</time>
      </trkpt>
      <trkpt lat="48.592944" lon="-4.514487">
        <ele>45.8</ele>
        <time>2020-08-13T15:03:43Z</time>
      </trkpt>
      <trkpt lat="48.593225" lon="-4.513755">
        <ele>48.4</ele>
        <time>2020-08-13T15:03:49Z</time>
      </trkpt>
      <trkpt lat="48.593884" lon="-4.512292">
        <ele>47.8</ele>
        <time>2020-08-13T15:04:01Z</time>
      </trkpt>
      <trkpt lat="48.593991" lon="-4.512095">
        <ele>47.8</ele>
        <time>2020-08-13T15:04:03Z</time>
      </trkpt>
      <trkpt lat="48.594166" lon="-4.511861">
        <ele>47.8</ele>
        <time>2020-08-13T15:04:05Z</time>
      </trkpt>
      <trkpt lat="48.594404" lon="-4.511589">
        <ele>45.2</ele>
        <time>2020-08-13T15:04:08Z</time>
      </trkpt>
      <trkpt lat="48.595057" lon="-4.511001">
        <ele>39.0</ele>
        <time>2020-08-13T15:04:16Z</time>
      </trkpt>
      <trkpt lat="48.595288" lon="-4.510821">
        <ele>44.4</ele>
        <time>2020-08-13T15:04:19Z</time>
      </trkpt>
      <trkpt lat="48.595673" lon="-4.510584">
        <ele>44.4</ele>
        <time>2020-08-13T15:04:23Z</time>
      </trkpt>
      <trkpt lat="48.596709" lon="-4.510361">
        <ele>41.0</ele>
        <time>2020-08-13T15:04:34Z</time>
      </trkpt>
      <trkpt lat="48.596945" lon="-4.510368">
        <ele>41.0</ele>
        <time>2020-08-13T15:04:36Z</time>
      </trkpt>
      <trkpt lat="48.5975" lon="-4.510484">
        <ele>41.0</ele>
        <time>2020-08-13T15:04:42Z</time>
      </trkpt>
      <trkpt lat="48.597847" lon="-4.510521">
        <ele>43.8</ele>
        <time>2020-08-13T15:04:45Z</time>
      </trkpt>
      <trkpt lat="48.598506" lon="-4.510541">
        <ele>43.8</ele>
        <time>2020-08-13T15:04:52Z</time>
      </trkpt>
      <trkpt lat="48.598743" lon="-4.510576">
        <ele>43.8</ele>
        <time>2020-08-13T15:04:55Z</time>
      </trkpt>
      <trkpt lat="48.598899" lon="-4.510661">
        <ele>43.8</ele>
        <time>2020-08-13T15:04:56Z</time>
      </trkpt>
      <trkpt lat="48.598978" lon="-4.510753">
        <ele>43.8</ele>
        <time>2020-08-13T15:04:57Z</time>
      </trkpt>
      <trkpt lat="48.599456" lon="-4.511526">
        <ele>42.4</ele>
        <time>2020-08-13T15:05:05Z</time>
      </trkpt>
      <trkpt lat="48.599878" lon="-4.51217">
        <ele>44.0</ele>
        <time>2020-08-13T15:05:11Z</time>
      </trkpt>
      <trkpt lat="48.599963" lon="-4.512262">
        <ele>44.0</ele>
        <time>2020-08-13T15:05:12Z</time>
      </trkpt>
      <trkpt lat="48.600068" lon="-4.512351">
        <ele>43.0</ele>
        <time>2020-08-13T15:05:13Z</time>
      </trkpt>
      <trkpt lat="48.600124" lon="-4.512356">
        <ele>43.0</ele>
        <time>2020-08-13T15:05:14Z</time>
      </trkpt>
      <trkpt lat="48.600187" lon="-4.512337">
        <ele>43.0</ele>
        <time>2020-08-13T15:05:14Z</time>
      </trkpt>
      <trkpt lat="48.600422" lon="-4.512126">
        <ele>43.0</ele>
        <time>2020-08-13T15:05:18Z</time>
      </trkpt>
      <trkpt lat="48.600541" lon="-4.512292">
        <ele>43.0</ele>
        <time>2020-08-13T15:05:19Z</time>
      </trkpt>
      <trkpt lat="48.600762" lon="-4.51248">
        <ele>43.0</ele>
        <time>2020-08-13T15:05:22Z</time>
      </trkpt>
      <trkpt lat="48.600886" lon="-4.512524">
        <ele>46.4</ele>
        <time>2020-08-13T15:05:24Z</time>
      </trkpt>
      <trkpt lat="48.601504" lon="-4.512497">
        <ele>45.6</ele>
        <time>2020-08-13T15:05:30Z</time>
      </trkpt>
      <trkpt lat="48.601613" lon="-4.512522">
        <ele>46.4</ele>
        <time>2020-08-13T15:05:31Z</time>
      </trkpt>
      <trkpt lat="48.601723" lon="-4.512605">
        <ele>49.2</ele>
        <time>2020-08-13T15:05:33Z</time>
      </trkpt>
      <trkpt lat="48.601815" lon="-4.512747">
        <ele>49.2</ele>
        <time>2020-08-13T15:05:34Z</time>
      </trkpt>
      <trkpt lat="48.601908" lon="-4.512947">
        <ele>49.2</ele>
        <time>2020-08-13T15:05:36Z</time>
      </trkpt>
      <trkpt lat="48.602371" lon="-4.514532">
        <ele>50.4</ele>
        <time>2020-08-13T15:05:48Z</time>
      </trkpt>
      <trkpt lat="48.602525" lon="-4.514869">
        <ele>52.2</ele>
        <time>2020-08-13T15:05:51Z</time>
      </trkpt>
      <trkpt lat="48.60274" lon="-4.515161">
        <ele>52.6</ele>
        <time>2020-08-13T15:05:54Z</time>
      </trkpt>
      <trkpt lat="48.602881" lon="-4.515295">
        <ele>52.6</ele>
        <time>2020-08-13T15:05:56Z</time>
      </trkpt>
      <trkpt lat="48.603166" lon="-4.515477">
        <ele>52.6</ele>
        <time>2020-08-13T15:06:00Z</time>
      </trkpt>
      <trkpt lat="48.604619" lon="-4.515968">
        <ele>51.6</ele>
        <time>2020-08-13T15:06:16Z</time>
      </trkpt>
      <trkpt lat="48.604971" lon="-4.515956">
        <ele>51.6</ele>
        <time>2020-08-13T15:06:20Z</time>
      </trkpt>
      <trkpt lat="48.605221" lon="-4.515872">
        <ele>50.4</ele>
        <time>2020-08-13T15:06:22Z</time>
      </trkpt>
      <trkpt lat="48.60538" lon="-4.515777">
        <ele>50.2</ele>
        <time>2020-08-13T15:06:24Z</time>
      </trkpt>
      <trkpt lat="48.605505" lon="-4.515672">
        <ele>50.2</ele>
        <time>2020-08-13T15:06:26Z</time>
      </trkpt>
      <trkpt lat="48.605805" lon="-4.515343">
        <ele>50.2</ele>
        <time>2020-08-13T15:06:30Z</time>
      </trkpt>
      <trkpt lat="48.606027" lon="-4.515145">
        <ele>49.4</ele>
        <time>2020-08-13T15:06:33Z</time>
      </trkpt>
      <trkpt lat="48.606064" lon="-4.515066">
        <ele>49.4</ele>
        <time>2020-08-13T15:06:33Z</time>
      </trkpt>
      <trkpt lat="48.606154" lon="-4.515027">
        <ele>49.4</ele>
        <time>2020-08-13T15:06:34Z</time>
      </trkpt>
      <trkpt lat="48.606215" lon="-4.514958">
        <ele>50.8</ele>
        <time>2020-08-13T15:06:35Z</time>
      </trkpt>
      <trkpt lat="48.606272" lon="-4.514876">
        <ele>50.8</ele>
        <time>2020-08-13T15:06:36Z</time>
      </trkpt>
      <trkpt lat="48.606287" lon="-4.51482">
        <ele>50.8</ele>
        <time>2020-08-13T15:06:36Z</time>
      </trkpt>
      <trkpt lat="48.606571" lon="-4.512257">
        <ele>51.0</ele>
        <time>2020-08-13T15:06:54Z</time>
      </trkpt>
      <trkpt lat="48.60668" lon="-4.512273">
        <ele>50.4</ele>
        <time>2020-08-13T15:06:56Z</time>
      </trkpt>
      <trkpt lat="48.607263" lon="-4.512497">
        <ele>50.4</ele>
        <time>2020-08-13T15:07:07Z</time>
      </trkpt>
      <trkpt lat="48.608171" lon="-4.512644">
        <ele>48.4</ele>
        <time>2020-08-13T15:07:24Z</time>
      </trkpt>
      <trkpt lat="48.608464" lon="-4.512655">
        <ele>46.0</ele>
        <time>2020-08-13T15:07:29Z</time>
      </trkpt>
      <trkpt lat="48.608588" lon="-4.512627">
        <ele>46.0</ele>
        <time>2020-08-13T15:07:31Z</time>
      </trkpt>
      <trkpt lat="48.608942" lon="-4.51246">
        <ele>45.8</ele>
        <time>2020-08-13T15:07:38Z</time>
      </trkpt>
      <trkpt lat="48.610452" lon="-4.511711">
        <ele>42.4</ele>
        <time>2020-08-13T15:08:08Z</time>
      </trkpt>
      <trkpt lat="48.610555" lon="-4.511513">
        <ele>42.0</ele>
        <time>2020-08-13T15:08:11Z</time>
      </trkpt>
      <trkpt lat="48.610729" lon="-4.511643">
        <ele>42.0</ele>
        <time>2020-08-13T15:08:13Z</time>
      </trkpt>
      <trkpt lat="48.610971" lon="-4.511768">
        <ele>40.2</ele>
        <time>2020-08-13T15:08:16Z</time>
      </trkpt>
      <trkpt lat="48.611568" lon="-4.511977">
        <ele>40.2</ele>
        <time>2020-08-13T15:08:22Z</time>
      </trkpt>
      <trkpt lat="48.611801" lon="-4.512083">
        <ele>36.2</ele>
        <time>2020-08-13T15:08:25Z</time>
      </trkpt>
      <trkpt lat="48.61315" lon="-4.513086">
        <ele>30.4</ele>
        <time>2020-08-13T15:08:42Z</time>
      </trkpt>
      <trkpt lat="48.615873" lon="-4.514566">
        <ele>23.4</ele>
        <time>2020-08-13T15:09:14Z</time>
      </trkpt>
      <trkpt lat="48.617308" lon="-4.515299">
        <ele>22.4</ele>
        <time>2020-08-13T15:09:31Z</time>
      </trkpt>
      <trkpt lat="48.618429" lon="-4.515904">
        <ele>18.8</ele>
        <time>2020-08-13T15:09:44Z</time>
      </trkpt>
      <trkpt lat="48.618726" lon="-4.516094">
        <ele>18.8</ele>
        <time>2020-08-13T15:09:48Z</time>
      </trkpt>
      <trkpt lat="48.619039" lon="-4.516327">
        <ele>18.8</ele>
        <time>2020-08-13T15:09:52Z</time>
      </trkpt>
      <trkpt lat="48.619608" lon="-4.516787">
        <ele>18.6</ele>
        <time>2020-08-13T15:09:59Z</time>
      </trkpt>
      <trkpt lat="48.62003" lon="-4.516963">
        <ele>20.2</ele>
        <time>2020-08-13T15:10:04Z</time>
      </trkpt>
      <trkpt lat="48.620265" lon="-4.517012">
        <ele>20.2</ele>
        <time>2020-08-13T15:10:06Z</time>
      </trkpt>
      <trkpt lat="48.620655" lon="-4.517012">
        <ele>20.2</ele>
        <time>2020-08-13T15:10:11Z</time>
      </trkpt>
      <trkpt lat="48.620884" lon="-4.51697">
        <ele>21.4</ele>
        <time>2020-08-13T15:10:13Z</time>
      </trkpt>
      <trkpt lat="48.621109" lon="-4.5169">
        <ele>21.4</ele>
        <time>2020-08-13T15:10:16Z</time>
      </trkpt>
      <trkpt lat="48.621336" lon="-4.516765">
        <ele>21.4</ele>
        <time>2020-08-13T15:10:18Z</time>
      </trkpt>
      <trkpt lat="48.621691" lon="-4.516445">
        <ele>19.0</ele>
        <time>2020-08-13T15:10:23Z</time>
      </trkpt>
      <trkpt lat="48.621828" lon="-4.516343">
        <ele>19.0</ele>
        <time>2020-08-13T15:10:25Z</time>
      </trkpt>
      <trkpt lat="48.621866" lon="-4.516334">
        <ele>19.0</ele>
        <time>2020-08-13T15:10:25Z</time>
      </trkpt>
      <trkpt lat="48.622041" lon="-4.516343">
        <ele>19.0</ele>
        <time>2020-08-13T15:10:27Z</time>
      </trkpt>
      <trkpt lat="48.622288" lon="-4.516459">
        <ele>19.0</ele>
        <time>2020-08-13T15:10:30Z</time>
      </trkpt>
      <trkpt lat="48.622433" lon="-4.51658">
        <ele>19.0</ele>
        <time>2020-08-13T15:10:32Z</time>
      </trkpt>
      <trkpt lat="48.622977" lon="-4.517132">
        <ele>22.2</ele>
        <time>2020-08-13T15:10:39Z</time>
      </trkpt>
      <trkpt lat="48.623086" lon="-4.517188">
        <ele>22.2</ele>
        <time>2020-08-13T15:10:40Z</time>
      </trkpt>
      <trkpt lat="48.623218" lon="-4.517182">
        <ele>22.2</ele>
        <time>2020-08-13T15:10:42Z</time>
      </trkpt>
      <trkpt lat="48.623357" lon="-4.517111">
        <ele>21.6</ele>
        <time>2020-08-13T15:10:43Z</time>
      </trkpt>
      <trkpt lat="48.62358" lon="-4.516958">
        <ele>21.6</ele>
        <time>2020-08-13T15:10:46Z</time>
      </trkpt>
      <trkpt lat="48.623718" lon="-4.516904">
        <ele>21.6</ele>
        <time>2020-08-13T15:10:48Z</time>
      </trkpt>
      <trkpt lat="48.623948" lon="-4.516867">
        <ele>21.6</ele>
        <time>2020-08-13T15:10:50Z</time>
      </trkpt>
      <trkpt lat="48.624286" lon="-4.516752">
        <ele>19.8</ele>
        <time>2020-08-13T15:10:54Z</time>
      </trkpt>
      <trkpt lat="48.624286" lon="-4.516752">
        <ele>19.8</ele>
        <time>2020-08-13T15:10:54Z</time>
      </trkpt>
      <trkpt lat="48.623948" lon="-4.516867">
        <ele>21.6</ele>
        <time>2020-08-13T15:10:58Z</time>
      </trkpt>
      <trkpt lat="48.623718" lon="-4.516904">
        <ele>21.6</ele>
        <time>2020-08-13T15:11:00Z</time>
      </trkpt>
      <trkpt lat="48.62358" lon="-4.516958">
        <ele>21.6</ele>
        <time>2020-08-13T15:11:02Z</time>
      </trkpt>
      <trkpt lat="48.623357" lon="-4.517111">
        <ele>21.6</ele>
        <time>2020-08-13T15:11:04Z</time>
      </trkpt>
      <trkpt lat="48.623218" lon="-4.517182">
        <ele>22.2</ele>
        <time>2020-08-13T15:11:06Z</time>
      </trkpt>
      <trkpt lat="48.623086" lon="-4.517188">
        <ele>22.2</ele>
        <time>2020-08-13T15:11:07Z</time>
      </trkpt>
      <trkpt lat="48.622977" lon="-4.517132">
        <ele>22.2</ele>
        <time>2020-08-13T15:11:08Z</time>
      </trkpt>
      <trkpt lat="48.622433" lon="-4.51658">
        <ele>19.0</ele>
        <time>2020-08-13T15:11:15Z</time>
      </trkpt>
      <trkpt lat="48.622288" lon="-4.516459">
        <ele>19.0</ele>
        <time>2020-08-13T15:11:17Z</time>
      </trkpt>
      <trkpt lat="48.622041" lon="-4.516343">
        <ele>19.0</ele>
        <time>2020-08-13T15:11:19Z</time>
      </trkpt>
      <trkpt lat="48.621828" lon="-4.516343">
        <ele>19.0</ele>
        <time>2020-08-13T15:11:21Z</time>
      </trkpt>
      <trkpt lat="48.621704" lon="-4.515546">
        <ele>15.0</ele>
        <time>2020-08-13T15:11:28Z</time>
      </trkpt>
      <trkpt lat="48.621714" lon="-4.515334">
        <ele>15.0</ele>
        <time>2020-08-13T15:11:29Z</time>
      </trkpt>
      <trkpt lat="48.621781" lon="-4.51508">
        <ele>15.0</ele>
        <time>2020-08-13T15:11:31Z</time>
      </trkpt>
      <trkpt lat="48.621838" lon="-4.514962">
        <ele>12.8</ele>
        <time>2020-08-13T15:11:33Z</time>
      </trkpt>
      <trkpt lat="48.621994" lon="-4.514737">
        <ele>12.8</ele>
        <time>2020-08-13T15:11:35Z</time>
      </trkpt>
      <trkpt lat="48.622059" lon="-4.514481">
        <ele>12.8</ele>
        <time>2020-08-13T15:11:37Z</time>
      </trkpt>
      <trkpt lat="48.622102" lon="-4.514178">
        <ele>12.8</ele>
        <time>2020-08-13T15:11:39Z</time>
      </trkpt>
      <trkpt lat="48.622153" lon="-4.513593">
        <ele>10.6</ele>
        <time>2020-08-13T15:11:44Z</time>
      </trkpt>
      <trkpt lat="48.622102" lon="-4.51327">
        <ele>7.8</ele>
        <time>2020-08-13T15:11:46Z</time>
      </trkpt>
      <trkpt lat="48.621944" lon="-4.512587">
        <ele>7.8</ele>
        <time>2020-08-13T15:11:52Z</time>
      </trkpt>
      <trkpt lat="48.62197" lon="-4.512417">
        <ele>5.8</ele>
        <time>2020-08-13T15:11:53Z</time>
      </trkpt>
      <trkpt lat="48.622016" lon="-4.512294">
        <ele>5.8</ele>
        <time>2020-08-13T15:11:54Z</time>
      </trkpt>
      <trkpt lat="48.622042" lon="-4.51204">
        <ele>5.8</ele>
        <time>2020-08-13T15:11:56Z</time>
      </trkpt>
      <trkpt lat="48.62198" lon="-4.511786">
        <ele>5.8</ele>
        <time>2020-08-13T15:11:58Z</time>
      </trkpt>
      <trkpt lat="48.621745" lon="-4.51139">
        <ele>5.8</ele>
        <time>2020-08-13T15:12:02Z</time>
      </trkpt>
      <trkpt lat="48.621677" lon="-4.511219">
        <ele>5.8</ele>
        <time>2020-08-13T15:12:04Z</time>
      </trkpt>
      <trkpt lat="48.621657" lon="-4.51105">
        <ele>6.4</ele>
        <time>2020-08-13T15:12:05Z</time>
      </trkpt>
      <trkpt lat="48.621685" lon="-4.510899">
        <ele>5.8</ele>
        <time>2020-08-13T15:12:07Z</time>
      </trkpt>
      <trkpt lat="48.621873" lon="-4.510451">
        <ele>7.4</ele>
        <time>2020-08-13T15:12:11Z</time>
      </trkpt>
      <trkpt lat="48.621993" lon="-4.510108">
        <ele>7.4</ele>
        <time>2020-08-13T15:12:14Z</time>
      </trkpt>
      <trkpt lat="48.622272" lon="-4.509104">
        <ele>12.2</ele>
        <time>2020-08-13T15:12:22Z</time>
      </trkpt>
      <trkpt lat="48.622459" lon="-4.508262">
        <ele>13.2</ele>
        <time>2020-08-13T15:12:29Z</time>
      </trkpt>
      <trkpt lat="48.62248" lon="-4.507988">
        <ele>13.2</ele>
        <time>2020-08-13T15:12:31Z</time>
      </trkpt>
      <trkpt lat="48.622461" lon="-4.507644">
        <ele>13.2</ele>
        <time>2020-08-13T15:12:33Z</time>
      </trkpt>
      <trkpt lat="48.622367" lon="-4.507489">
        <ele>11.8</ele>
        <time>2020-08-13T15:12:35Z</time>
      </trkpt>
      <trkpt lat="48.622014" lon="-4.50726">
        <ele>11.8</ele>
        <time>2020-08-13T15:12:39Z</time>
      </trkpt>
      <trkpt lat="48.62192" lon="-4.507165">
        <ele>11.8</ele>
        <time>2020-08-13T15:12:41Z</time>
      </trkpt>
      <trkpt lat="48.621879" lon="-4.507231">
        <ele>11.8</ele>
        <time>2020-08-13T15:12:42Z</time>
      </trkpt>
      <trkpt lat="48.621833" lon="-4.507262">
        <ele>11.8</ele>
        <time>2020-08-13T15:12:42Z</time>
      </trkpt>
      <trkpt lat="48.621763" lon="-4.507273">
        <ele>11.8</ele>
        <time>2020-08-13T15:12:43Z</time>
      </trkpt>
      <trkpt lat="48.62157" lon="-4.507242">
        <ele>15.8</ele>
        <time>2020-08-13T15:12:46Z</time>
      </trkpt>
      <trkpt lat="48.621263" lon="-4.507148">
        <ele>15.8</ele>
        <time>2020-08-13T15:12:51Z</time>
      </trkpt>
      <trkpt lat="48.62085" lon="-4.50694">
        <ele>15.8</ele>
        <time>2020-08-13T15:12:58Z</time>
      </trkpt>
      <trkpt lat="48.620244" lon="-4.506452">
        <ele>19.0</ele>
        <time>2020-08-13T15:13:08Z</time>
      </trkpt>
      <trkpt lat="48.619138" lon="-4.505291">
        <ele>29.8</ele>
        <time>2020-08-13T15:13:29Z</time>
      </trkpt>
      <trkpt lat="48.618827" lon="-4.505085">
        <ele>29.8</ele>
        <time>2020-08-13T15:13:34Z</time>
      </trkpt>
      <trkpt lat="48.61869" lon="-4.505134">
        <ele>29.8</ele>
        <time>2020-08-13T15:13:37Z</time>
      </trkpt>
      <trkpt lat="48.618639" lon="-4.505003">
        <ele>29.8</ele>
        <time>2020-08-13T15:13:38Z</time>
      </trkpt>
      <trkpt lat="48.6181" lon="-4.50391">
        <ele>26.2</ele>
        <time>2020-08-13T15:13:48Z</time>
      </trkpt>
      <trkpt lat="48.617844" lon="-4.503254">
        <ele>25.0</ele>
        <time>2020-08-13T15:13:54Z</time>
      </trkpt>
      <trkpt lat="48.617506" lon="-4.502319">
        <ele>25.0</ele>
        <time>2020-08-13T15:14:02Z</time>
      </trkpt>
      <trkpt lat="48.617181" lon="-4.501313">
        <ele>29.6</ele>
        <time>2020-08-13T15:14:11Z</time>
      </trkpt>
      <trkpt lat="48.616936" lon="-4.500679">
        <ele>31.2</ele>
        <time>2020-08-13T15:14:16Z</time>
      </trkpt>
      <trkpt lat="48.616842" lon="-4.500494">
        <ele>31.2</ele>
        <time>2020-08-13T15:14:18Z</time>
      </trkpt>
      <trkpt lat="48.61667" lon="-4.500309">
        <ele>31.2</ele>
        <time>2020-08-13T15:14:20Z</time>
      </trkpt>
      <trkpt lat="48.616233" lon="-4.499639">
        <ele>35.8</ele>
        <time>2020-08-13T15:14:28Z</time>
      </trkpt>
      <trkpt lat="48.615901" lon="-4.499092">
        <ele>37.8</ele>
        <time>2020-08-13T15:14:33Z</time>
      </trkpt>
      <trkpt lat="48.615233" lon="-4.498186">
        <ele>45.2</ele>
        <time>2020-08-13T15:14:44Z</time>
      </trkpt>
      <trkpt lat="48.615072" lon="-4.497983">
        <ele>45.2</ele>
        <time>2020-08-13T15:14:46Z</time>
      </trkpt>
      <trkpt lat="48.614871" lon="-4.49777">
        <ele>49.0</ele>
        <time>2020-08-13T15:14:49Z</time>
      </trkpt>
      <trkpt lat="48.614076" lon="-4.497083">
        <ele>52.0</ele>
        <time>2020-08-13T15:14:59Z</time>
      </trkpt>
      <trkpt lat="48.613898" lon="-4.496761">
        <ele>52.0</ele>
        <time>2020-08-13T15:15:03Z</time>
      </trkpt>
      <trkpt lat="48.6133" lon="-4.495497">
        <ele>53.6</ele>
        <time>2020-08-13T15:15:14Z</time>
      </trkpt>
      <trkpt lat="48.611347" lon="-4.492156">
        <ele>60.4</ele>
        <time>2020-08-13T15:15:48Z</time>
      </trkpt>
      <trkpt lat="48.611025" lon="-4.491676">
        <ele>60.4</ele>
        <time>2020-08-13T15:15:54Z</time>
      </trkpt>
      <trkpt lat="48.61177" lon="-4.488564">
        <ele>59.2</ele>
        <time>2020-08-13T15:16:06Z</time>
      </trkpt>
      <trkpt lat="48.612609" lon="-4.484914">
        <ele>64.6</ele>
        <time>2020-08-13T15:16:21Z</time>
      </trkpt>
      <trkpt lat="48.612671" lon="-4.484529">
        <ele>64.6</ele>
        <time>2020-08-13T15:16:22Z</time>
      </trkpt>
      <trkpt lat="48.612695" lon="-4.484119">
        <ele>66.6</ele>
        <time>2020-08-13T15:16:24Z</time>
      </trkpt>
      <trkpt lat="48.612692" lon="-4.48379">
        <ele>66.6</ele>
        <time>2020-08-13T15:16:25Z</time>
      </trkpt>
      <trkpt lat="48.61265" lon="-4.483296">
        <ele>68.0</ele>
        <time>2020-08-13T15:16:27Z</time>
      </trkpt>
      <trkpt lat="48.61247" lon="-4.481866">
        <ele>69.0</ele>
        <time>2020-08-13T15:16:32Z</time>
      </trkpt>
      <trkpt lat="48.612496" lon="-4.480968">
        <ele>69.6</ele>
        <time>2020-08-13T15:16:36Z</time>
      </trkpt>
      <trkpt lat="48.612693" lon="-4.478272">
        <ele>73.2</ele>
        <time>2020-08-13T15:16:46Z</time>
      </trkpt>
      <trkpt lat="48.612785" lon="-4.477568">
        <ele>73.2</ele>
        <time>2020-08-13T15:16:49Z</time>
      </trkpt>
      <trkpt lat="48.612881" lon="-4.476971">
        <ele>74.0</ele>
        <time>2020-08-13T15:16:51Z</time>
      </trkpt>
      <trkpt lat="48.613103" lon="-4.475929">
        <ele>73.8</ele>
        <time>2020-08-13T15:16:55Z</time>
      </trkpt>
      <trkpt lat="48.613488" lon="-4.47459">
        <ele>75.2</ele>
        <time>2020-08-13T15:17:01Z</time>
      </trkpt>
      <trkpt lat="48.614194" lon="-4.472318">
        <ele>73.8</ele>
        <time>2020-08-13T15:17:10Z</time>
      </trkpt>
      <trkpt lat="48.61467" lon="-4.47069">
        <ele>74.2</ele>
        <time>2020-08-13T15:17:17Z</time>
      </trkpt>
      <trkpt lat="48.614828" lon="-4.470019">
        <ele>74.2</ele>
        <time>2020-08-13T15:17:20Z</time>
      </trkpt>
      <trkpt lat="48.614901" lon="-4.469614">
        <ele>74.0</ele>
        <time>2020-08-13T15:17:21Z</time>
      </trkpt>
      <trkpt lat="48.61503" lon="-4.468475">
        <ele>72.8</ele>
        <time>2020-08-13T15:17:26Z</time>
      </trkpt>
      <trkpt lat="48.615215" lon="-4.466193">
        <ele>74.6</ele>
        <time>2020-08-13T15:17:34Z</time>
      </trkpt>
      <trkpt lat="48.615312" lon="-4.464641">
        <ele>76.2</ele>
        <time>2020-08-13T15:17:40Z</time>
      </trkpt>
      <trkpt lat="48.615332" lon="-4.463898">
        <ele>76.0</ele>
        <time>2020-08-13T15:17:43Z</time>
      </trkpt>
      <trkpt lat="48.615325" lon="-4.463365">
        <ele>76.0</ele>
        <time>2020-08-13T15:17:45Z</time>
      </trkpt>
      <trkpt lat="48.615229" lon="-4.461583">
        <ele>74.6</ele>
        <time>2020-08-13T15:17:52Z</time>
      </trkpt>
      <trkpt lat="48.615212" lon="-4.460552">
        <ele>74.4</ele>
        <time>2020-08-13T15:17:56Z</time>
      </trkpt>
      <trkpt lat="48.615247" lon="-4.459167">
        <ele>73.6</ele>
        <time>2020-08-13T15:18:01Z</time>
      </trkpt>
      <trkpt lat="48.615309" lon="-4.458436">
        <ele>72.2</ele>
        <time>2020-08-13T15:18:04Z</time>
      </trkpt>
      <trkpt lat="48.615395" lon="-4.457708">
        <ele>70.8</ele>
        <time>2020-08-13T15:18:07Z</time>
      </trkpt>
      <trkpt lat="48.615803" lon="-4.454758">
        <ele>68.4</ele>
        <time>2020-08-13T15:18:18Z</time>
      </trkpt>
      <trkpt lat="48.615885" lon="-4.454074">
        <ele>67.6</ele>
        <time>2020-08-13T15:18:21Z</time>
      </trkpt>
      <trkpt lat="48.615943" lon="-4.453376">
        <ele>67.6</ele>
        <time>2020-08-13T15:18:23Z</time>
      </trkpt>
      <trkpt lat="48.615961" lon="-4.452966">
        <ele>67.6</ele>
        <time>2020-08-13T15:18:25Z</time>
      </trkpt>
      <trkpt lat="48.615969" lon="-4.452279">
        <ele>68.6</ele>
        <time>2020-08-13T15:18:28Z</time>
      </trkpt>
      <trkpt lat="48.615947" lon="-4.451689">
        <ele>68.6</ele>
        <time>2020-08-13T15:18:30Z</time>
      </trkpt>
      <trkpt lat="48.615843" lon="-4.450508">
        <ele>68.6</ele>
        <time>2020-08-13T15:18:34Z</time>
      </trkpt>
      <trkpt lat="48.615755" lon="-4.449905">
        <ele>67.0</ele>
        <time>2020-08-13T15:18:37Z</time>
      </trkpt>
      <trkpt lat="48.615219" lon="-4.446809">
        <ele>67.0</ele>
        <time>2020-08-13T15:18:49Z</time>
      </trkpt>
      <trkpt lat="48.615131" lon="-4.446206">
        <ele>67.4</ele>
        <time>2020-08-13T15:18:51Z</time>
      </trkpt>
      <trkpt lat="48.615066" lon="-4.44557">
        <ele>68.0</ele>
        <time>2020-08-13T15:18:54Z</time>
      </trkpt>
      <trkpt lat="48.614953" lon="-4.443397">
        <ele>66.6</ele>
        <time>2020-08-13T15:19:02Z</time>
      </trkpt>
      <trkpt lat="48.614828" lon="-4.442288">
        <ele>65.8</ele>
        <time>2020-08-13T15:19:06Z</time>
      </trkpt>
      <trkpt lat="48.614423" lon="-4.439556">
        <ele>65.8</ele>
        <time>2020-08-13T15:19:17Z</time>
      </trkpt>
      <trkpt lat="48.614336" lon="-4.438892">
        <ele>65.4</ele>
        <time>2020-08-13T15:19:19Z</time>
      </trkpt>
      <trkpt lat="48.614236" lon="-4.437475">
        <ele>64.6</ele>
        <time>2020-08-13T15:19:25Z</time>
      </trkpt>
      <trkpt lat="48.6142" lon="-4.43624">
        <ele>64.4</ele>
        <time>2020-08-13T15:19:29Z</time>
      </trkpt>
      <trkpt lat="48.61416" lon="-4.435722">
        <ele>63.8</ele>
        <time>2020-08-13T15:19:31Z</time>
      </trkpt>
      <trkpt lat="48.613993" lon="-4.434118">
        <ele>61.2</ele>
        <time>2020-08-13T15:19:38Z</time>
      </trkpt>
      <trkpt lat="48.613848" lon="-4.433256">
        <ele>59.2</ele>
        <time>2020-08-13T15:19:41Z</time>
      </trkpt>
      <trkpt lat="48.613405" lon="-4.431005">
        <ele>55.0</ele>
        <time>2020-08-13T15:19:50Z</time>
      </trkpt>
      <trkpt lat="48.613328" lon="-4.430407">
        <ele>47.0</ele>
        <time>2020-08-13T15:19:52Z</time>
      </trkpt>
      <trkpt lat="48.613297" lon="-4.429963">
        <ele>47.8</ele>
        <time>2020-08-13T15:19:54Z</time>
      </trkpt>
      <trkpt lat="48.613316" lon="-4.429444">
        <ele>47.8</ele>
        <time>2020-08-13T15:19:56Z</time>
      </trkpt>
      <trkpt lat="48.613396" lon="-4.428795">
        <ele>52.6</ele>
        <time>2020-08-13T15:19:58Z</time>
      </trkpt>
      <trkpt lat="48.613474" lon="-4.428413">
        <ele>52.6</ele>
        <time>2020-08-13T15:20:00Z</time>
      </trkpt>
      <trkpt lat="48.613642" lon="-4.427877">
        <ele>51.6</ele>
        <time>2020-08-13T15:20:02Z</time>
      </trkpt>
      <trkpt lat="48.613771" lon="-4.427556">
        <ele>51.6</ele>
        <time>2020-08-13T15:20:03Z</time>
      </trkpt>
      <trkpt lat="48.614021" lon="-4.427089">
        <ele>49.0</ele>
        <time>2020-08-13T15:20:06Z</time>
      </trkpt>
      <trkpt lat="48.614303" lon="-4.426669">
        <ele>50.6</ele>
        <time>2020-08-13T15:20:08Z</time>
      </trkpt>
      <trkpt lat="48.614436" lon="-4.426515">
        <ele>47.4</ele>
        <time>2020-08-13T15:20:09Z</time>
      </trkpt>
      <trkpt lat="48.616439" lon="-4.424676">
        <ele>45.4</ele>
        <time>2020-08-13T15:20:22Z</time>
      </trkpt>
      <trkpt lat="48.617055" lon="-4.424046">
        <ele>43.8</ele>
        <time>2020-08-13T15:20:27Z</time>
      </trkpt>
      <trkpt lat="48.617626" lon="-4.423403">
        <ele>45.6</ele>
        <time>2020-08-13T15:20:31Z</time>
      </trkpt>
      <trkpt lat="48.618238" lon="-4.422834">
        <ele>42.2</ele>
        <time>2020-08-13T15:20:35Z</time>
      </trkpt>
      <trkpt lat="48.618798" lon="-4.422405">
        <ele>38.6</ele>
        <time>2020-08-13T15:20:39Z</time>
      </trkpt>
      <trkpt lat="48.61935" lon="-4.422067">
        <ele>35.2</ele>
        <time>2020-08-13T15:20:42Z</time>
      </trkpt>
      <trkpt lat="48.622384" lon="-4.420371">
        <ele>17.6</ele>
        <time>2020-08-13T15:21:00Z</time>
      </trkpt>
      <trkpt lat="48.623146" lon="-4.419904">
        <ele>14.2</ele>
        <time>2020-08-13T15:21:05Z</time>
      </trkpt>
      <trkpt lat="48.623949" lon="-4.419458">
        <ele>13.2</ele>
        <time>2020-08-13T15:21:10Z</time>
      </trkpt>
      <trkpt lat="48.625646" lon="-4.418597">
        <ele>12.0</ele>
        <time>2020-08-13T15:21:20Z</time>
      </trkpt>
      <trkpt lat="48.62653" lon="-4.418068">
        <ele>11.0</ele>
        <time>2020-08-13T15:21:26Z</time>
      </trkpt>
      <trkpt lat="48.627416" lon="-4.417478">
        <ele>10.4</ele>
        <time>2020-08-13T15:21:31Z</time>
      </trkpt>
      <trkpt lat="48.627843" lon="-4.417121">
        <ele>10.6</ele>
        <time>2020-08-13T15:21:34Z</time>
      </trkpt>
      <trkpt lat="48.628029" lon="-4.416916">
        <ele>10.6</ele>
        <time>2020-08-13T15:21:35Z</time>
      </trkpt>
      <trkpt lat="48.628368" lon="-4.416367">
        <ele>10.4</ele>
        <time>2020-08-13T15:21:38Z</time>
      </trkpt>
      <trkpt lat="48.628513" lon="-4.416058">
        <ele>10.4</ele>
        <time>2020-08-13T15:21:40Z</time>
      </trkpt>
      <trkpt lat="48.628685" lon="-4.415567">
        <ele>9.6</ele>
        <time>2020-08-13T15:21:42Z</time>
      </trkpt>
      <trkpt lat="48.62902" lon="-4.414441">
        <ele>9.0</ele>
        <time>2020-08-13T15:21:47Z</time>
      </trkpt>
      <trkpt lat="48.629188" lon="-4.413976">
        <ele>7.2</ele>
        <time>2020-08-13T15:21:49Z</time>
      </trkpt>
      <trkpt lat="48.629321" lon="-4.413714">
        <ele>7.2</ele>
        <time>2020-08-13T15:21:50Z</time>
      </trkpt>
      <trkpt lat="48.62955" lon="-4.413424">
        <ele>7.2</ele>
        <time>2020-08-13T15:21:51Z</time>
      </trkpt>
      <trkpt lat="48.629848" lon="-4.413149">
        <ele>8.2</ele>
        <time>2020-08-13T15:21:53Z</time>
      </trkpt>
      <trkpt lat="48.630824" lon="-4.412328">
        <ele>8.6</ele>
        <time>2020-08-13T15:22:00Z</time>
      </trkpt>
      <trkpt lat="48.630995" lon="-4.412154">
        <ele>9.8</ele>
        <time>2020-08-13T15:22:01Z</time>
      </trkpt>
      <trkpt lat="48.631238" lon="-4.411977">
        <ele>9.8</ele>
        <time>2020-08-13T15:22:03Z</time>
      </trkpt>
      <trkpt lat="48.63212" lon="-4.411653">
        <ele>11.0</ele>
        <time>2020-08-13T15:22:08Z</time>
      </trkpt>
      <trkpt lat="48.633134" lon="-4.411189">
        <ele>12.0</ele>
        <time>2020-08-13T15:22:14Z</time>
      </trkpt>
      <trkpt lat="48.633568" lon="-4.410956">
        <ele>13.6</ele>
        <time>2020-08-13T15:22:17Z</time>
      </trkpt>
      <trkpt lat="48.634024" lon="-4.410841">
        <ele>13.6</ele>
        <time>2020-08-13T15:22:19Z</time>
      </trkpt>
      <trkpt lat="48.634048" lon="-4.410675">
        <ele>14.8</ele>
        <time>2020-08-13T15:22:20Z</time>
      </trkpt>
      <trkpt lat="48.634044" lon="-4.409215">
        <ele>15.2</ele>
        <time>2020-08-13T15:22:30Z</time>
      </trkpt>
      <trkpt lat="48.634084" lon="-4.408586">
        <ele>16.0</ele>
        <time>2020-08-13T15:22:35Z</time>
      </trkpt>
      <trkpt lat="48.634548" lon="-4.407099">
        <ele>14.4</ele>
        <time>2020-08-13T15:22:46Z</time>
      </trkpt>
      <trkpt lat="48.634594" lon="-4.406874">
        <ele>14.4</ele>
        <time>2020-08-13T15:22:47Z</time>
      </trkpt>
      <trkpt lat="48.63471" lon="-4.405769">
        <ele>11.4</ele>
        <time>2020-08-13T15:22:55Z</time>
      </trkpt>
      <trkpt lat="48.634748" lon="-4.405612">
        <ele>11.4</ele>
        <time>2020-08-13T15:22:56Z</time>
      </trkpt>
      <trkpt lat="48.63473" lon="-4.405589">
        <ele>11.4</ele>
        <time>2020-08-13T15:22:56Z</time>
      </trkpt>
      <trkpt lat="48.634729" lon="-4.405511">
        <ele>11.4</ele>
        <time>2020-08-13T15:22:56Z</time>
      </trkpt>
      <trkpt lat="48.634781" lon="-4.405484">
        <ele>11.4</ele>
        <time>2020-08-13T15:22:57Z</time>
      </trkpt>
      <trkpt lat="48.635007" lon="-4.403982">
        <ele>11.6</ele>
        <time>2020-08-13T15:23:03Z</time>
      </trkpt>
      <trkpt lat="48.635221" lon="-4.403139">
        <ele>12.6</ele>
        <time>2020-08-13T15:23:07Z</time>
      </trkpt>
      <trkpt lat="48.635291" lon="-4.402615">
        <ele>12.6</ele>
        <time>2020-08-13T15:23:09Z</time>
      </trkpt>
      <trkpt lat="48.635313" lon="-4.402315">
        <ele>12.8</ele>
        <time>2020-08-13T15:23:10Z</time>
      </trkpt>
      <trkpt lat="48.635314" lon="-4.401587">
        <ele>12.0</ele>
        <time>2020-08-13T15:23:13Z</time>
      </trkpt>
      <trkpt lat="48.635196" lon="-4.40036">
        <ele>11.4</ele>
        <time>2020-08-13T15:23:19Z</time>
      </trkpt>
      <trkpt lat="48.635112" lon="-4.399718">
        <ele>11.2</ele>
        <time>2020-08-13T15:23:21Z</time>
      </trkpt>
      <trkpt lat="48.635091" lon="-4.399394">
        <ele>11.2</ele>
        <time>2020-08-13T15:23:23Z</time>
      </trkpt>
      <trkpt lat="48.635099" lon="-4.399091">
        <ele>11.0</ele>
        <time>2020-08-13T15:23:24Z</time>
      </trkpt>
      <trkpt lat="48.635153" lon="-4.398774">
        <ele>11.0</ele>
        <time>2020-08-13T15:23:25Z</time>
      </trkpt>
      <trkpt lat="48.635232" lon="-4.398502">
        <ele>11.0</ele>
        <time>2020-08-13T15:23:27Z</time>
      </trkpt>
      <trkpt lat="48.63532" lon="-4.398308">
        <ele>10.2</ele>
        <time>2020-08-13T15:23:28Z</time>
      </trkpt>
      <trkpt lat="48.635532" lon="-4.397986">
        <ele>10.2</ele>
        <time>2020-08-13T15:23:29Z</time>
      </trkpt>
      <trkpt lat="48.635741" lon="-4.397779">
        <ele>10.2</ele>
        <time>2020-08-13T15:23:31Z</time>
      </trkpt>
      <trkpt lat="48.636267" lon="-4.397334">
        <ele>6.4</ele>
        <time>2020-08-13T15:23:35Z</time>
      </trkpt>
      <trkpt lat="48.636512" lon="-4.397174">
        <ele>6.4</ele>
        <time>2020-08-13T15:23:36Z</time>
      </trkpt>
      <trkpt lat="48.637261" lon="-4.39694">
        <ele>4.2</ele>
        <time>2020-08-13T15:23:41Z</time>
      </trkpt>
      <trkpt lat="48.637419" lon="-4.396851">
        <ele>4.2</ele>
        <time>2020-08-13T15:23:42Z</time>
      </trkpt>
      <trkpt lat="48.637536" lon="-4.39673">
        <ele>3.8</ele>
        <time>2020-08-13T15:23:43Z</time>
      </trkpt>
      <trkpt lat="48.637634" lon="-4.396548">
        <ele>4.8</ele>
        <time>2020-08-13T15:23:44Z</time>
      </trkpt>
      <trkpt lat="48.637727" lon="-4.396362">
        <ele>4.8</ele>
        <time>2020-08-13T15:23:45Z</time>
      </trkpt>
      <trkpt lat="48.637794" lon="-4.396125">
        <ele>4.8</ele>
        <time>2020-08-13T15:23:46Z</time>
      </trkpt>
      <trkpt lat="48.638194" lon="-4.393112">
        <ele>5.6</ele>
        <time>2020-08-13T15:23:59Z</time>
      </trkpt>
      <trkpt lat="48.638204" lon="-4.392899">
        <ele>5.6</ele>
        <time>2020-08-13T15:24:00Z</time>
      </trkpt>
      <trkpt lat="48.638099" lon="-4.391397">
        <ele>7.6</ele>
        <time>2020-08-13T15:24:06Z</time>
      </trkpt>
      <trkpt lat="48.637892" lon="-4.389921">
        <ele>9.0</ele>
        <time>2020-08-13T15:24:12Z</time>
      </trkpt>
      <trkpt lat="48.637886" lon="-4.389685">
        <ele>9.0</ele>
        <time>2020-08-13T15:24:13Z</time>
      </trkpt>
      <trkpt lat="48.637948" lon="-4.388978">
        <ele>10.4</ele>
        <time>2020-08-13T15:24:16Z</time>
      </trkpt>
      <trkpt lat="48.638146" lon="-4.387501">
        <ele>11.4</ele>
        <time>2020-08-13T15:24:23Z</time>
      </trkpt>
      <trkpt lat="48.638195" lon="-4.38716">
        <ele>11.4</ele>
        <time>2020-08-13T15:24:24Z</time>
      </trkpt>
      <trkpt lat="48.638287" lon="-4.386727">
        <ele>11.4</ele>
        <time>2020-08-13T15:24:26Z</time>
      </trkpt>
      <trkpt lat="48.638407" lon="-4.386301">
        <ele>11.2</ele>
        <time>2020-08-13T15:24:28Z</time>
      </trkpt>
      <trkpt lat="48.638508" lon="-4.386004">
        <ele>11.2</ele>
        <time>2020-08-13T15:24:29Z</time>
      </trkpt>
      <trkpt lat="48.638999" lon="-4.384953">
        <ele>12.4</ele>
        <time>2020-08-13T15:24:35Z</time>
      </trkpt>
      <trkpt lat="48.639469" lon="-4.384147">
        <ele>13.2</ele>
        <time>2020-08-13T15:24:39Z</time>
      </trkpt>
      <trkpt lat="48.639816" lon="-4.383281">
        <ele>13.0</ele>
        <time>2020-08-13T15:24:43Z</time>
      </trkpt>
      <trkpt lat="48.639852" lon="-4.383143">
        <ele>13.0</ele>
        <time>2020-08-13T15:24:44Z</time>
      </trkpt>
      <trkpt lat="48.639985" lon="-4.382501">
        <ele>13.0</ele>
        <time>2020-08-13T15:24:47Z</time>
      </trkpt>
      <trkpt lat="48.64033" lon="-4.380618">
        <ele>12.2</ele>
        <time>2020-08-13T15:24:55Z</time>
      </trkpt>
      <trkpt lat="48.640421" lon="-4.379964">
        <ele>12.2</ele>
        <time>2020-08-13T15:24:58Z</time>
      </trkpt>
      <trkpt lat="48.640446" lon="-4.379655">
        <ele>12.2</ele>
        <time>2020-08-13T15:24:59Z</time>
      </trkpt>
      <trkpt lat="48.640448" lon="-4.379371">
        <ele>12.2</ele>
        <time>2020-08-13T15:25:00Z</time>
      </trkpt>
      <trkpt lat="48.640398" lon="-4.378997">
        <ele>12.4</ele>
        <time>2020-08-13T15:25:02Z</time>
      </trkpt>
      <trkpt lat="48.640292" lon="-4.3785">
        <ele>12.4</ele>
        <time>2020-08-13T15:25:04Z</time>
      </trkpt>
      <trkpt lat="48.640272" lon="-4.378308">
        <ele>12.2</ele>
        <time>2020-08-13T15:25:05Z</time>
      </trkpt>
      <trkpt lat="48.640277" lon="-4.378137">
        <ele>12.2</ele>
        <time>2020-08-13T15:25:05Z</time>
      </trkpt>
      <trkpt lat="48.640474" lon="-4.376798">
        <ele>12.4</ele>
        <time>2020-08-13T15:25:11Z</time>
      </trkpt>
      <trkpt lat="48.640519" lon="-4.376598">
        <ele>12.6</ele>
        <time>2020-08-13T15:25:12Z</time>
      </trkpt>
      <trkpt lat="48.640605" lon="-4.376354">
        <ele>12.6</ele>
        <time>2020-08-13T15:25:13Z</time>
      </trkpt>
      <trkpt lat="48.641433" lon="-4.374634">
        <ele>11.8</ele>
        <time>2020-08-13T15:25:22Z</time>
      </trkpt>
      <trkpt lat="48.641804" lon="-4.373905">
        <ele>10.6</ele>
        <time>2020-08-13T15:25:26Z</time>
      </trkpt>
      <trkpt lat="48.641928" lon="-4.373726">
        <ele>10.6</ele>
        <time>2020-08-13T15:25:27Z</time>
      </trkpt>
      <trkpt lat="48.642158" lon="-4.373486">
        <ele>10.6</ele>
        <time>2020-08-13T15:25:29Z</time>
      </trkpt>
      <trkpt lat="48.644558" lon="-4.371241">
        <ele>9.8</ele>
        <time>2020-08-13T15:25:46Z</time>
      </trkpt>
      <trkpt lat="48.644814" lon="-4.37097">
        <ele>9.8</ele>
        <time>2020-08-13T15:25:48Z</time>
      </trkpt>
      <trkpt lat="48.644903" lon="-4.370826">
        <ele>10.0</ele>
        <time>2020-08-13T15:25:49Z</time>
      </trkpt>
      <trkpt lat="48.644987" lon="-4.370622">
        <ele>10.0</ele>
        <time>2020-08-13T15:25:50Z</time>
      </trkpt>
      <trkpt lat="48.645272" lon="-4.368915">
        <ele>7.8</ele>
        <time>2020-08-13T15:25:57Z</time>
      </trkpt>
      <trkpt lat="48.645263" lon="-4.368892">
        <ele>7.8</ele>
        <time>2020-08-13T15:25:58Z</time>
      </trkpt>
      <trkpt lat="48.645273" lon="-4.368815">
        <ele>7.8</ele>
        <time>2020-08-13T15:25:58Z</time>
      </trkpt>
      <trkpt lat="48.645287" lon="-4.368799">
        <ele>7.8</ele>
        <time>2020-08-13T15:25:58Z</time>
      </trkpt>
      <trkpt lat="48.645266" lon="-4.368605">
        <ele>7.8</ele>
        <time>2020-08-13T15:25:58Z</time>
      </trkpt>
      <trkpt lat="48.645222" lon="-4.368384">
        <ele>7.8</ele>
        <time>2020-08-13T15:25:59Z</time>
      </trkpt>
      <trkpt lat="48.644454" lon="-4.36594">
        <ele>8.8</ele>
        <time>2020-08-13T15:26:07Z</time>
      </trkpt>
      <trkpt lat="48.644406" lon="-4.365732">
        <ele>8.6</ele>
        <time>2020-08-13T15:26:08Z</time>
      </trkpt>
      <trkpt lat="48.644284" lon="-4.36495">
        <ele>8.6</ele>
        <time>2020-08-13T15:26:11Z</time>
      </trkpt>
      <trkpt lat="48.644232" lon="-4.364809">
        <ele>8.6</ele>
        <time>2020-08-13T15:26:11Z</time>
      </trkpt>
      <trkpt lat="48.644102" lon="-4.36463">
        <ele>8.0</ele>
        <time>2020-08-13T15:26:12Z</time>
      </trkpt>
      <trkpt lat="48.643918" lon="-4.364439">
        <ele>8.0</ele>
        <time>2020-08-13T15:26:13Z</time>
      </trkpt>
      <trkpt lat="48.643354" lon="-4.363935">
        <ele>8.4</ele>
        <time>2020-08-13T15:26:16Z</time>
      </trkpt>
      <trkpt lat="48.643285" lon="-4.363854">
        <ele>8.8</ele>
        <time>2020-08-13T15:26:16Z</time>
      </trkpt>
      <trkpt lat="48.643167" lon="-4.363661">
        <ele>8.8</ele>
        <time>2020-08-13T15:26:17Z</time>
      </trkpt>
      <trkpt lat="48.643088" lon="-4.363453">
        <ele>8.8</ele>
        <time>2020-08-13T15:26:18Z</time>
      </trkpt>
      <trkpt lat="48.642986" lon="-4.362958">
        <ele>9.6</ele>
        <time>2020-08-13T15:26:19Z</time>
      </trkpt>
      <trkpt lat="48.642972" lon="-4.362711">
        <ele>9.6</ele>
        <time>2020-08-13T15:26:20Z</time>
      </trkpt>
      <trkpt lat="48.643125" lon="-4.361782">
        <ele>10.8</ele>
        <time>2020-08-13T15:26:23Z</time>
      </trkpt>
      <trkpt lat="48.643161" lon="-4.361703">
        <ele>10.8</ele>
        <time>2020-08-13T15:26:23Z</time>
      </trkpt>
      <trkpt lat="48.643131" lon="-4.361652">
        <ele>10.6</ele>
        <time>2020-08-13T15:26:24Z</time>
      </trkpt>
      <trkpt lat="48.643126" lon="-4.361584">
        <ele>10.6</ele>
        <time>2020-08-13T15:26:24Z</time>
      </trkpt>
      <trkpt lat="48.643166" lon="-4.361505">
        <ele>10.6</ele>
        <time>2020-08-13T15:26:24Z</time>
      </trkpt>
      <trkpt lat="48.643188" lon="-4.361495">
        <ele>10.6</ele>
        <time>2020-08-13T15:26:24Z</time>
      </trkpt>
      <trkpt lat="48.64307" lon="-4.359904">
        <ele>10.2</ele>
        <time>2020-08-13T15:26:29Z</time>
      </trkpt>
      <trkpt lat="48.642907" lon="-4.358171">
        <ele>10.4</ele>
        <time>2020-08-13T15:26:34Z</time>
      </trkpt>
      <trkpt lat="48.642874" lon="-4.357696">
        <ele>10.4</ele>
        <time>2020-08-13T15:26:36Z</time>
      </trkpt>
      <trkpt lat="48.642885" lon="-4.357391">
        <ele>10.8</ele>
        <time>2020-08-13T15:26:37Z</time>
      </trkpt>
      <trkpt lat="48.643108" lon="-4.355383">
        <ele>10.8</ele>
        <time>2020-08-13T15:26:43Z</time>
      </trkpt>
      <trkpt lat="48.643412" lon="-4.353113">
        <ele>14.0</ele>
        <time>2020-08-13T15:26:50Z</time>
      </trkpt>
      <trkpt lat="48.64348" lon="-4.352754">
        <ele>14.0</ele>
        <time>2020-08-13T15:26:51Z</time>
      </trkpt>
      <trkpt lat="48.643933" lon="-4.350695">
        <ele>14.0</ele>
        <time>2020-08-13T15:26:58Z</time>
      </trkpt>
      <trkpt lat="48.644011" lon="-4.350262">
        <ele>14.0</ele>
        <time>2020-08-13T15:26:59Z</time>
      </trkpt>
      <trkpt lat="48.644144" lon="-4.349022">
        <ele>14.0</ele>
        <time>2020-08-13T15:27:03Z</time>
      </trkpt>
      <trkpt lat="48.644536" lon="-4.344803">
        <ele>13.6</ele>
        <time>2020-08-13T15:27:16Z</time>
      </trkpt>
      <trkpt lat="48.644661" lon="-4.343259">
        <ele>13.6</ele>
        <time>2020-08-13T15:27:21Z</time>
      </trkpt>
      <trkpt lat="48.644653" lon="-4.34249">
        <ele>13.2</ele>
        <time>2020-08-13T15:27:23Z</time>
      </trkpt>
      <trkpt lat="48.644566" lon="-4.341783">
        <ele>13.2</ele>
        <time>2020-08-13T15:27:25Z</time>
      </trkpt>
      <trkpt lat="48.643917" lon="-4.338689">
        <ele>13.0</ele>
        <time>2020-08-13T15:27:35Z</time>
      </trkpt>
      <trkpt lat="48.643533" lon="-4.336969">
        <ele>12.4</ele>
        <time>2020-08-13T15:27:41Z</time>
      </trkpt>
      <trkpt lat="48.643374" lon="-4.336465">
        <ele>11.2</ele>
        <time>2020-08-13T15:27:42Z</time>
      </trkpt>
      <trkpt lat="48.64294" lon="-4.335239">
        <ele>11.0</ele>
        <time>2020-08-13T15:27:46Z</time>
      </trkpt>
      <trkpt lat="48.642722" lon="-4.33468">
        <ele>10.8</ele>
        <time>2020-08-13T15:27:48Z</time>
      </trkpt>
      <trkpt lat="48.641563" lon="-4.332001">
        <ele>11.4</ele>
        <time>2020-08-13T15:27:58Z</time>
      </trkpt>
      <trkpt lat="48.641174" lon="-4.331351">
        <ele>11.2</ele>
        <time>2020-08-13T15:28:01Z</time>
      </trkpt>
      <trkpt lat="48.640935" lon="-4.331027">
        <ele>11.2</ele>
        <time>2020-08-13T15:28:02Z</time>
      </trkpt>
      <trkpt lat="48.640752" lon="-4.330815">
        <ele>12.8</ele>
        <time>2020-08-13T15:28:03Z</time>
      </trkpt>
      <trkpt lat="48.640303" lon="-4.330409">
        <ele>12.8</ele>
        <time>2020-08-13T15:28:06Z</time>
      </trkpt>
      <trkpt lat="48.640069" lon="-4.330265">
        <ele>12.8</ele>
        <time>2020-08-13T15:28:07Z</time>
      </trkpt>
      <trkpt lat="48.640062" lon="-4.330158">
        <ele>12.8</ele>
        <time>2020-08-13T15:28:08Z</time>
      </trkpt>
      <trkpt lat="48.640109" lon="-4.329684">
        <ele>13.4</ele>
        <time>2020-08-13T15:28:11Z</time>
      </trkpt>
      <trkpt lat="48.64017" lon="-4.329382">
        <ele>13.4</ele>
        <time>2020-08-13T15:28:14Z</time>
      </trkpt>
      <trkpt lat="48.640267" lon="-4.329078">
        <ele>13.0</ele>
        <time>2020-08-13T15:28:16Z</time>
      </trkpt>
      <trkpt lat="48.640314" lon="-4.329005">
        <ele>13.0</ele>
        <time>2020-08-13T15:28:17Z</time>
      </trkpt>
      <trkpt lat="48.647424" lon="-4.330123">
        <ele>11.8</ele>
        <time>2020-08-13T15:29:05Z</time>
      </trkpt>
      <trkpt lat="48.647932" lon="-4.330144">
        <ele>11.8</ele>
        <time>2020-08-13T15:29:09Z</time>
      </trkpt>
      <trkpt lat="48.650013" lon="-4.330098">
        <ele>19.2</ele>
        <time>2020-08-13T15:29:23Z</time>
      </trkpt>
      <trkpt lat="48.653259" lon="-4.330537">
        <ele>17.0</ele>
        <time>2020-08-13T15:29:45Z</time>
      </trkpt>
      <trkpt lat="48.655009" lon="-4.33032">
        <ele>14.2</ele>
        <time>2020-08-13T15:29:57Z</time>
      </trkpt>
      <trkpt lat="48.656218" lon="-4.330305">
        <ele>13.6</ele>
        <time>2020-08-13T15:30:05Z</time>
      </trkpt>
      <trkpt lat="48.656434" lon="-4.330284">
        <ele>13.6</ele>
        <time>2020-08-13T15:30:06Z</time>
      </trkpt>
      <trkpt lat="48.656668" lon="-4.330218">
        <ele>13.0</ele>
        <time>2020-08-13T15:30:08Z</time>
      </trkpt>
      <trkpt lat="48.656862" lon="-4.330128">
        <ele>13.0</ele>
        <time>2020-08-13T15:30:09Z</time>
      </trkpt>
      <trkpt lat="48.657045" lon="-4.330009">
        <ele>13.0</ele>
        <time>2020-08-13T15:30:10Z</time>
      </trkpt>
      <trkpt lat="48.65848" lon="-4.328961">
        <ele>11.8</ele>
        <time>2020-08-13T15:30:21Z</time>
      </trkpt>
      <trkpt lat="48.661144" lon="-4.32783">
        <ele>11.5</ele>
        <time>2020-08-13T15:30:40Z</time>
      </trkpt>
      <trkpt lat="48.661144" lon="-4.32783">
        <ele>11.5</ele>
        <time>2020-08-13T15:30:40Z</time>
      </trkpt>
      <trkpt lat="48.65848" lon="-4.328961">
        <ele>11.8</ele>
        <time>2020-08-13T15:30:58Z</time>
      </trkpt>
      <trkpt lat="48.657045" lon="-4.330009">
        <ele>13.0</ele>
        <time>2020-08-13T15:31:08Z</time>
      </trkpt>
      <trkpt lat="48.656862" lon="-4.330128">
        <ele>13.0</ele>
        <time>2020-08-13T15:31:09Z</time>
      </trkpt>
      <trkpt lat="48.656668" lon="-4.330218">
        <ele>13.0</ele>
        <time>2020-08-13T15:31:11Z</time>
      </trkpt>
      <trkpt lat="48.656434" lon="-4.330284">
        <ele>13.6</ele>
        <time>2020-08-13T15:31:12Z</time>
      </trkpt>
      <trkpt lat="48.656218" lon="-4.330305">
        <ele>13.6</ele>
        <time>2020-08-13T15:31:14Z</time>
      </trkpt>
      <trkpt lat="48.655009" lon="-4.33032">
        <ele>14.2</ele>
        <time>2020-08-13T15:31:21Z</time>
      </trkpt>
      <trkpt lat="48.653259" lon="-4.330537">
        <ele>17.0</ele>
        <time>2020-08-13T15:31:33Z</time>
      </trkpt>
      <trkpt lat="48.650013" lon="-4.330098">
        <ele>19.2</ele>
        <time>2020-08-13T15:31:54Z</time>
      </trkpt>
      <trkpt lat="48.647932" lon="-4.330144">
        <ele>11.8</ele>
        <time>2020-08-13T15:32:07Z</time>
      </trkpt>
      <trkpt lat="48.647424" lon="-4.330123">
        <ele>11.8</ele>
        <time>2020-08-13T15:32:11Z</time>
      </trkpt>
      <trkpt lat="48.640589" lon="-4.329053">
        <ele>13.0</ele>
        <time>2020-08-13T15:32:55Z</time>
      </trkpt>
      <trkpt lat="48.637273" lon="-4.328435">
        <ele>11.2</ele>
        <time>2020-08-13T15:33:17Z</time>
      </trkpt>
      <trkpt lat="48.637198" lon="-4.328601">
        <ele>11.2</ele>
        <time>2020-08-13T15:33:17Z</time>
      </trkpt>
      <trkpt lat="48.637146" lon="-4.328633">
        <ele>11.2</ele>
        <time>2020-08-13T15:33:18Z</time>
      </trkpt>
      <trkpt lat="48.637062" lon="-4.328629">
        <ele>11.2</ele>
        <time>2020-08-13T15:33:18Z</time>
      </trkpt>
      <trkpt lat="48.637011" lon="-4.328592">
        <ele>11.2</ele>
        <time>2020-08-13T15:33:18Z</time>
      </trkpt>
      <trkpt lat="48.636971" lon="-4.328531">
        <ele>11.2</ele>
        <time>2020-08-13T15:33:18Z</time>
      </trkpt>
      <trkpt lat="48.636942" lon="-4.328411">
        <ele>11.2</ele>
        <time>2020-08-13T15:33:19Z</time>
      </trkpt>
      <trkpt lat="48.636946" lon="-4.328327">
        <ele>10.2</ele>
        <time>2020-08-13T15:33:19Z</time>
      </trkpt>
      <trkpt lat="48.636983" lon="-4.328218">
        <ele>10.2</ele>
        <time>2020-08-13T15:33:19Z</time>
      </trkpt>
      <trkpt lat="48.637078" lon="-4.328138">
        <ele>10.2</ele>
        <time>2020-08-13T15:33:20Z</time>
      </trkpt>
      <trkpt lat="48.637056" lon="-4.327978">
        <ele>10.2</ele>
        <time>2020-08-13T15:33:20Z</time>
      </trkpt>
      <trkpt lat="48.636901" lon="-4.327643">
        <ele>10.2</ele>
        <time>2020-08-13T15:33:22Z</time>
      </trkpt>
      <trkpt lat="48.636562" lon="-4.327112">
        <ele>10.0</ele>
        <time>2020-08-13T15:33:24Z</time>
      </trkpt>
      <trkpt lat="48.636442" lon="-4.326874">
        <ele>10.0</ele>
        <time>2020-08-13T15:33:25Z</time>
      </trkpt>
      <trkpt lat="48.632614" lon="-4.318085">
        <ele>10.4</ele>
        <time>2020-08-13T15:33:57Z</time>
      </trkpt>
      <trkpt lat="48.632503" lon="-4.317742">
        <ele>10.4</ele>
        <time>2020-08-13T15:33:58Z</time>
      </trkpt>
      <trkpt lat="48.632367" lon="-4.317106">
        <ele>12.8</ele>
        <time>2020-08-13T15:34:00Z</time>
      </trkpt>
      <trkpt lat="48.632237" lon="-4.314945">
        <ele>11.2</ele>
        <time>2020-08-13T15:34:07Z</time>
      </trkpt>
      <trkpt lat="48.632272" lon="-4.314504">
        <ele>11.2</ele>
        <time>2020-08-13T15:34:08Z</time>
      </trkpt>
      <trkpt lat="48.63231" lon="-4.314323">
        <ele>11.2</ele>
        <time>2020-08-13T15:34:09Z</time>
      </trkpt>
      <trkpt lat="48.63223" lon="-4.314204">
        <ele>11.2</ele>
        <time>2020-08-13T15:34:09Z</time>
      </trkpt>
      <trkpt lat="48.632213" lon="-4.314079">
        <ele>10.8</ele>
        <time>2020-08-13T15:34:10Z</time>
      </trkpt>
      <trkpt lat="48.63224" lon="-4.313957">
        <ele>10.8</ele>
        <time>2020-08-13T15:34:10Z</time>
      </trkpt>
      <trkpt lat="48.632302" lon="-4.31387">
        <ele>10.8</ele>
        <time>2020-08-13T15:34:11Z</time>
      </trkpt>
      <trkpt lat="48.632237" lon="-4.313733">
        <ele>10.8</ele>
        <time>2020-08-13T15:34:11Z</time>
      </trkpt>
      <trkpt lat="48.632104" lon="-4.313072">
        <ele>10.0</ele>
        <time>2020-08-13T15:34:14Z</time>
      </trkpt>
      <trkpt lat="48.63186" lon="-4.311624">
        <ele>8.0</ele>
        <time>2020-08-13T15:34:19Z</time>
      </trkpt>
      <trkpt lat="48.631832" lon="-4.311326">
        <ele>8.0</ele>
        <time>2020-08-13T15:34:20Z</time>
      </trkpt>
      <trkpt lat="48.631829" lon="-4.311079">
        <ele>8.0</ele>
        <time>2020-08-13T15:34:21Z</time>
      </trkpt>
      <trkpt lat="48.631858" lon="-4.31062">
        <ele>8.0</ele>
        <time>2020-08-13T15:34:23Z</time>
      </trkpt>
      <trkpt lat="48.631923" lon="-4.310302">
        <ele>8.0</ele>
        <time>2020-08-13T15:34:24Z</time>
      </trkpt>
      <trkpt lat="48.632037" lon="-4.309907">
        <ele>7.6</ele>
        <time>2020-08-13T15:34:26Z</time>
      </trkpt>
      <trkpt lat="48.63222" lon="-4.309394">
        <ele>7.6</ele>
        <time>2020-08-13T15:34:28Z</time>
      </trkpt>
      <trkpt lat="48.632379" lon="-4.308871">
        <ele>7.6</ele>
        <time>2020-08-13T15:34:30Z</time>
      </trkpt>
      <trkpt lat="48.632448" lon="-4.308592">
        <ele>7.6</ele>
        <time>2020-08-13T15:34:31Z</time>
      </trkpt>
      <trkpt lat="48.632542" lon="-4.30801">
        <ele>5.6</ele>
        <time>2020-08-13T15:34:33Z</time>
      </trkpt>
      <trkpt lat="48.632571" lon="-4.30752">
        <ele>5.6</ele>
        <time>2020-08-13T15:34:35Z</time>
      </trkpt>
      <trkpt lat="48.632566" lon="-4.307116">
        <ele>4.8</ele>
        <time>2020-08-13T15:34:36Z</time>
      </trkpt>
      <trkpt lat="48.632478" lon="-4.305846">
        <ele>6.2</ele>
        <time>2020-08-13T15:34:41Z</time>
      </trkpt>
      <trkpt lat="48.632287" lon="-4.304293">
        <ele>5.2</ele>
        <time>2020-08-13T15:34:47Z</time>
      </trkpt>
      <trkpt lat="48.63222" lon="-4.303635">
        <ele>4.4</ele>
        <time>2020-08-13T15:34:49Z</time>
      </trkpt>
      <trkpt lat="48.632177" lon="-4.302667">
        <ele>4.0</ele>
        <time>2020-08-13T15:34:53Z</time>
      </trkpt>
      <trkpt lat="48.632151" lon="-4.301435">
        <ele>5.6</ele>
        <time>2020-08-13T15:34:57Z</time>
      </trkpt>
      <trkpt lat="48.632094" lon="-4.301049">
        <ele>5.6</ele>
        <time>2020-08-13T15:34:58Z</time>
      </trkpt>
      <trkpt lat="48.632019" lon="-4.300751">
        <ele>5.6</ele>
        <time>2020-08-13T15:35:00Z</time>
      </trkpt>
      <trkpt lat="48.631909" lon="-4.300459">
        <ele>5.6</ele>
        <time>2020-08-13T15:35:01Z</time>
      </trkpt>
      <trkpt lat="48.631773" lon="-4.300217">
        <ele>5.6</ele>
        <time>2020-08-13T15:35:02Z</time>
      </trkpt>
      <trkpt lat="48.631571" lon="-4.299956">
        <ele>6.6</ele>
        <time>2020-08-13T15:35:03Z</time>
      </trkpt>
      <trkpt lat="48.631401" lon="-4.2998">
        <ele>6.6</ele>
        <time>2020-08-13T15:35:05Z</time>
      </trkpt>
      <trkpt lat="48.631215" lon="-4.299678">
        <ele>6.6</ele>
        <time>2020-08-13T15:35:06Z</time>
      </trkpt>
      <trkpt lat="48.631039" lon="-4.299615">
        <ele>6.6</ele>
        <time>2020-08-13T15:35:07Z</time>
      </trkpt>
      <trkpt lat="48.630629" lon="-4.299528">
        <ele>8.8</ele>
        <time>2020-08-13T15:35:09Z</time>
      </trkpt>
      <trkpt lat="48.630355" lon="-4.299494">
        <ele>8.8</ele>
        <time>2020-08-13T15:35:10Z</time>
      </trkpt>
      <trkpt lat="48.630048" lon="-4.299522">
        <ele>8.8</ele>
        <time>2020-08-13T15:35:12Z</time>
      </trkpt>
      <trkpt lat="48.629887" lon="-4.299577">
        <ele>10.0</ele>
        <time>2020-08-13T15:35:13Z</time>
      </trkpt>
      <trkpt lat="48.629833" lon="-4.299645">
        <ele>10.0</ele>
        <time>2020-08-13T15:35:14Z</time>
      </trkpt>
      <trkpt lat="48.629768" lon="-4.299683">
        <ele>10.0</ele>
        <time>2020-08-13T15:35:14Z</time>
      </trkpt>
      <trkpt lat="48.629698" lon="-4.299687">
        <ele>10.0</ele>
        <time>2020-08-13T15:35:14Z</time>
      </trkpt>
      <trkpt lat="48.629604" lon="-4.299632">
        <ele>10.0</ele>
        <time>2020-08-13T15:35:15Z</time>
      </trkpt>
      <trkpt lat="48.629557" lon="-4.299563">
        <ele>10.0</ele>
        <time>2020-08-13T15:35:15Z</time>
      </trkpt>
      <trkpt lat="48.629518" lon="-4.299426">
        <ele>10.0</ele>
        <time>2020-08-13T15:35:16Z</time>
      </trkpt>
      <trkpt lat="48.629517" lon="-4.299326">
        <ele>10.0</ele>
        <time>2020-08-13T15:35:16Z</time>
      </trkpt>
      <trkpt lat="48.629537" lon="-4.299229">
        <ele>10.0</ele>
        <time>2020-08-13T15:35:17Z</time>
      </trkpt>
      <trkpt lat="48.629605" lon="-4.299111">
        <ele>9.4</ele>
        <time>2020-08-13T15:35:18Z</time>
      </trkpt>
      <trkpt lat="48.629809" lon="-4.298981">
        <ele>9.4</ele>
        <time>2020-08-13T15:35:19Z</time>
      </trkpt>
      <trkpt lat="48.62998" lon="-4.298764">
        <ele>9.4</ele>
        <time>2020-08-13T15:35:20Z</time>
      </trkpt>
      <trkpt lat="48.630047" lon="-4.298605">
        <ele>8.4</ele>
        <time>2020-08-13T15:35:21Z</time>
      </trkpt>
      <trkpt lat="48.630373" lon="-4.297471">
        <ele>7.8</ele>
        <time>2020-08-13T15:35:26Z</time>
      </trkpt>
      <trkpt lat="48.630483" lon="-4.297166">
        <ele>7.8</ele>
        <time>2020-08-13T15:35:28Z</time>
      </trkpt>
      <trkpt lat="48.630621" lon="-4.296889">
        <ele>7.8</ele>
        <time>2020-08-13T15:35:29Z</time>
      </trkpt>
      <trkpt lat="48.63074" lon="-4.296681">
        <ele>7.8</ele>
        <time>2020-08-13T15:35:30Z</time>
      </trkpt>
      <trkpt lat="48.631095" lon="-4.296229">
        <ele>5.6</ele>
        <time>2020-08-13T15:35:33Z</time>
      </trkpt>
      <trkpt lat="48.631934" lon="-4.295303">
        <ele>5.2</ele>
        <time>2020-08-13T15:35:40Z</time>
      </trkpt>
      <trkpt lat="48.632335" lon="-4.294825">
        <ele>4.6</ele>
        <time>2020-08-13T15:35:43Z</time>
      </trkpt>
      <trkpt lat="48.632697" lon="-4.294344">
        <ele>3.4</ele>
        <time>2020-08-13T15:35:46Z</time>
      </trkpt>
      <trkpt lat="48.632943" lon="-4.293973">
        <ele>2.6</ele>
        <time>2020-08-13T15:35:48Z</time>
      </trkpt>
      <trkpt lat="48.633662" lon="-4.292757">
        <ele>1.8</ele>
        <time>2020-08-13T15:35:55Z</time>
      </trkpt>
      <trkpt lat="48.634107" lon="-4.291944">
        <ele>1.6</ele>
        <time>2020-08-13T15:35:59Z</time>
      </trkpt>
      <trkpt lat="48.634234" lon="-4.291659">
        <ele>0.8</ele>
        <time>2020-08-13T15:36:00Z</time>
      </trkpt>
      <trkpt lat="48.635019" lon="-4.289318">
        <ele>1.6</ele>
        <time>2020-08-13T15:36:11Z</time>
      </trkpt>
      <trkpt lat="48.635348" lon="-4.288275">
        <ele>1.6</ele>
        <time>2020-08-13T15:36:16Z</time>
      </trkpt>
      <trkpt lat="48.636989" lon="-4.283316">
        <ele>1.4</ele>
        <time>2020-08-13T15:36:39Z</time>
      </trkpt>
      <trkpt lat="48.638659" lon="-4.278312">
        <ele>2.2</ele>
        <time>2020-08-13T15:37:02Z</time>
      </trkpt>
      <trkpt lat="48.638802" lon="-4.277797">
        <ele>2.2</ele>
        <time>2020-08-13T15:37:04Z</time>
      </trkpt>
      <trkpt lat="48.639082" lon="-4.276642">
        <ele>2.4</ele>
        <time>2020-08-13T15:37:09Z</time>
      </trkpt>
      <trkpt lat="48.639243" lon="-4.275825">
        <ele>3.8</ele>
        <time>2020-08-13T15:37:13Z</time>
      </trkpt>
      <trkpt lat="48.639646" lon="-4.273507">
        <ele>4.8</ele>
        <time>2020-08-13T15:37:23Z</time>
      </trkpt>
      <trkpt lat="48.640462" lon="-4.267701">
        <ele>5.8</ele>
        <time>2020-08-13T15:37:47Z</time>
      </trkpt>
      <trkpt lat="48.6414" lon="-4.261623">
        <ele>4.6</ele>
        <time>2020-08-13T15:38:13Z</time>
      </trkpt>
      <trkpt lat="48.642266" lon="-4.25577">
        <ele>7.8</ele>
        <time>2020-08-13T15:38:38Z</time>
      </trkpt>
      <trkpt lat="48.642469" lon="-4.254324">
        <ele>9.4</ele>
        <time>2020-08-13T15:38:44Z</time>
      </trkpt>
      <trkpt lat="48.643209" lon="-4.2487">
        <ele>8.6</ele>
        <time>2020-08-13T15:39:07Z</time>
      </trkpt>
      <trkpt lat="48.643273" lon="-4.24832">
        <ele>8.0</ele>
        <time>2020-08-13T15:39:09Z</time>
      </trkpt>
      <trkpt lat="48.644637" lon="-4.242169">
        <ele>7.0</ele>
        <time>2020-08-13T15:39:36Z</time>
      </trkpt>
      <trkpt lat="48.64611" lon="-4.236374">
        <ele>4.6</ele>
        <time>2020-08-13T15:40:01Z</time>
      </trkpt>
      <trkpt lat="48.647274" lon="-4.231662">
        <ele>3.6</ele>
        <time>2020-08-13T15:40:22Z</time>
      </trkpt>
      <trkpt lat="48.647379" lon="-4.231094">
        <ele>3.6</ele>
        <time>2020-08-13T15:40:24Z</time>
      </trkpt>
      <trkpt lat="48.647607" lon="-4.229688">
        <ele>3.2</ele>
        <time>2020-08-13T15:40:30Z</time>
      </trkpt>
      <trkpt lat="48.647825" lon="-4.228113">
        <ele>3.0</ele>
        <time>2020-08-13T15:40:37Z</time>
      </trkpt>
      <trkpt lat="48.648074" lon="-4.223796">
        <ele>3.8</ele>
        <time>2020-08-13T15:40:55Z</time>
      </trkpt>
      <trkpt lat="48.648094" lon="-4.223022">
        <ele>5.0</ele>
        <time>2020-08-13T15:40:58Z</time>
      </trkpt>
      <trkpt lat="48.648026" lon="-4.220897">
        <ele>5.6</ele>
        <time>2020-08-13T15:41:07Z</time>
      </trkpt>
      <trkpt lat="48.648001" lon="-4.220538">
        <ele>6.2</ele>
        <time>2020-08-13T15:41:08Z</time>
      </trkpt>
      <trkpt lat="48.647921" lon="-4.219988">
        <ele>7.2</ele>
        <time>2020-08-13T15:41:11Z</time>
      </trkpt>
      <trkpt lat="48.647779" lon="-4.21947">
        <ele>7.2</ele>
        <time>2020-08-13T15:41:13Z</time>
      </trkpt>
      <trkpt lat="48.647371" lon="-4.218393">
        <ele>7.6</ele>
        <time>2020-08-13T15:41:18Z</time>
      </trkpt>
      <trkpt lat="48.647297" lon="-4.218159">
        <ele>8.2</ele>
        <time>2020-08-13T15:41:19Z</time>
      </trkpt>
      <trkpt lat="48.647297" lon="-4.218159">
        <ele>8.2</ele>
        <time>2020-08-13T15:41:19Z</time>
      </trkpt>
      <trkpt lat="48.647221" lon="-4.217845">
        <ele>8.8</ele>
        <time>2020-08-13T15:41:21Z</time>
      </trkpt>
      <trkpt lat="48.6472" lon="-4.217692">
        <ele>8.8</ele>
        <time>2020-08-13T15:41:21Z</time>
      </trkpt>
      <trkpt lat="48.6472" lon="-4.217122">
        <ele>10.2</ele>
        <time>2020-08-13T15:41:24Z</time>
      </trkpt>
      <trkpt lat="48.64724" lon="-4.216721">
        <ele>10.2</ele>
        <time>2020-08-13T15:41:26Z</time>
      </trkpt>
      <trkpt lat="48.647284" lon="-4.216486">
        <ele>11.2</ele>
        <time>2020-08-13T15:41:27Z</time>
      </trkpt>
      <trkpt lat="48.64739" lon="-4.21615">
        <ele>11.2</ele>
        <time>2020-08-13T15:41:29Z</time>
      </trkpt>
      <trkpt lat="48.647548" lon="-4.215781">
        <ele>10.8</ele>
        <time>2020-08-13T15:41:31Z</time>
      </trkpt>
      <trkpt lat="48.648417" lon="-4.214198">
        <ele>8.0</ele>
        <time>2020-08-13T15:41:40Z</time>
      </trkpt>
      <trkpt lat="48.648754" lon="-4.213519">
        <ele>6.2</ele>
        <time>2020-08-13T15:41:44Z</time>
      </trkpt>
      <trkpt lat="48.648978" lon="-4.213007">
        <ele>5.4</ele>
        <time>2020-08-13T15:41:47Z</time>
      </trkpt>
      <trkpt lat="48.649185" lon="-4.212408">
        <ele>3.25</ele>
        <time>2020-08-13T15:41:50Z</time>
      </trkpt>
      <trkpt lat="48.649592" lon="-4.210894">
        <ele>2.0</ele>
        <time>2020-08-13T15:41:58Z</time>
      </trkpt>
      <trkpt lat="48.64974" lon="-4.210282">
        <ele>1.75</ele>
        <time>2020-08-13T15:42:01Z</time>
      </trkpt>
      <trkpt lat="48.649954" lon="-4.209263">
        <ele>1.6</ele>
        <time>2020-08-13T15:42:06Z</time>
      </trkpt>
      <trkpt lat="48.650133" lon="-4.208091">
        <ele>0.75</ele>
        <time>2020-08-13T15:42:11Z</time>
      </trkpt>
      <trkpt lat="48.650299" lon="-4.206268">
        <ele>1.25</ele>
        <time>2020-08-13T15:42:20Z</time>
      </trkpt>
      <trkpt lat="48.650358" lon="-4.205812">
        <ele>1.0</ele>
        <time>2020-08-13T15:42:22Z</time>
      </trkpt>
      <trkpt lat="48.650451" lon="-4.205359">
        <ele>1.0</ele>
        <time>2020-08-13T15:42:24Z</time>
      </trkpt>
      <trkpt lat="48.650635" lon="-4.204702">
        <ele>1.8</ele>
        <time>2020-08-13T15:42:28Z</time>
      </trkpt>
      <trkpt lat="48.651224" lon="-4.202982">
        <ele>1.75</ele>
        <time>2020-08-13T15:42:37Z</time>
      </trkpt>
      <trkpt lat="48.652191" lon="-4.199484">
        <ele>1.8</ele>
        <time>2020-08-13T15:42:54Z</time>
      </trkpt>
      <trkpt lat="48.652256" lon="-4.199179">
        <ele>1.8</ele>
        <time>2020-08-13T15:42:56Z</time>
      </trkpt>
      <trkpt lat="48.652299" lon="-4.198857">
        <ele>1.4</ele>
        <time>2020-08-13T15:42:57Z</time>
      </trkpt>
      <trkpt lat="48.652299" lon="-4.198642">
        <ele>1.4</ele>
        <time>2020-08-13T15:42:58Z</time>
      </trkpt>
      <trkpt lat="48.652268" lon="-4.198313">
        <ele>0.8</ele>
        <time>2020-08-13T15:43:00Z</time>
      </trkpt>
      <trkpt lat="48.651748" lon="-4.195487">
        <ele>2.2</ele>
        <time>2020-08-13T15:43:13Z</time>
      </trkpt>
      <trkpt lat="48.651707" lon="-4.195017">
        <ele>2.2</ele>
        <time>2020-08-13T15:43:15Z</time>
      </trkpt>
      <trkpt lat="48.651705" lon="-4.194736">
        <ele>2.0</ele>
        <time>2020-08-13T15:43:17Z</time>
      </trkpt>
      <trkpt lat="48.651732" lon="-4.194468">
        <ele>2.0</ele>
        <time>2020-08-13T15:43:18Z</time>
      </trkpt>
      <trkpt lat="48.651824" lon="-4.194051">
        <ele>2.4</ele>
        <time>2020-08-13T15:43:20Z</time>
      </trkpt>
      <trkpt lat="48.65223" lon="-4.19286">
        <ele>2.6</ele>
        <time>2020-08-13T15:43:26Z</time>
      </trkpt>
      <trkpt lat="48.652461" lon="-4.192445">
        <ele>2.4</ele>
        <time>2020-08-13T15:43:29Z</time>
      </trkpt>
      <trkpt lat="48.65254" lon="-4.192139">
        <ele>3.6</ele>
        <time>2020-08-13T15:43:30Z</time>
      </trkpt>
      <trkpt lat="48.652541" lon="-4.192026">
        <ele>3.6</ele>
        <time>2020-08-13T15:43:31Z</time>
      </trkpt>
      <trkpt lat="48.652577" lon="-4.191921">
        <ele>3.6</ele>
        <time>2020-08-13T15:43:32Z</time>
      </trkpt>
      <trkpt lat="48.652578" lon="-4.191853">
        <ele>3.6</ele>
        <time>2020-08-13T15:43:33Z</time>
      </trkpt>
      <trkpt lat="48.652268" lon="-4.18961">
        <ele>2.4</ele>
        <time>2020-08-13T15:43:53Z</time>
      </trkpt>
      <trkpt lat="48.652118" lon="-4.188862">
        <ele>3.6</ele>
        <time>2020-08-13T15:44:00Z</time>
      </trkpt>
      <trkpt lat="48.651699" lon="-4.186981">
        <ele>3.8</ele>
        <time>2020-08-13T15:44:17Z</time>
      </trkpt>
      <trkpt lat="48.651659" lon="-4.186737">
        <ele>3.0</ele>
        <time>2020-08-13T15:44:19Z</time>
      </trkpt>
      <trkpt lat="48.651638" lon="-4.186492">
        <ele>3.0</ele>
        <time>2020-08-13T15:44:21Z</time>
      </trkpt>
      <trkpt lat="48.651664" lon="-4.186075">
        <ele>3.0</ele>
        <time>2020-08-13T15:44:25Z</time>
      </trkpt>
      <trkpt lat="48.651744" lon="-4.185771">
        <ele>5.2</ele>
        <time>2020-08-13T15:44:28Z</time>
      </trkpt>
      <trkpt lat="48.651831" lon="-4.185572">
        <ele>5.2</ele>
        <time>2020-08-13T15:44:30Z</time>
      </trkpt>
      <trkpt lat="48.651933" lon="-4.185391">
        <ele>5.2</ele>
        <time>2020-08-13T15:44:32Z</time>
      </trkpt>
      <trkpt lat="48.652801" lon="-4.184071">
        <ele>7.4</ele>
        <time>2020-08-13T15:44:48Z</time>
      </trkpt>
      <trkpt lat="48.652996" lon="-4.183737">
        <ele>7.4</ele>
        <time>2020-08-13T15:44:52Z</time>
      </trkpt>
      <trkpt lat="48.653228" lon="-4.183279">
        <ele>7.2</ele>
        <time>2020-08-13T15:44:57Z</time>
      </trkpt>
      <trkpt lat="48.653399" lon="-4.182881">
        <ele>9.2</ele>
        <time>2020-08-13T15:45:01Z</time>
      </trkpt>
      <trkpt lat="48.653492" lon="-4.182614">
        <ele>9.2</ele>
        <time>2020-08-13T15:45:04Z</time>
      </trkpt>
      <trkpt lat="48.653679" lon="-4.181976">
        <ele>9.0</ele>
        <time>2020-08-13T15:45:10Z</time>
      </trkpt>
      <trkpt lat="48.65386" lon="-4.181159">
        <ele>9.2</ele>
        <time>2020-08-13T15:45:17Z</time>
      </trkpt>
      <trkpt lat="48.653978" lon="-4.180467">
        <ele>9.4</ele>
        <time>2020-08-13T15:45:23Z</time>
      </trkpt>
      <trkpt lat="48.654125" lon="-4.179084">
        <ele>9.8</ele>
        <time>2020-08-13T15:45:36Z</time>
      </trkpt>
      <trkpt lat="48.654133" lon="-4.178797">
        <ele>9.8</ele>
        <time>2020-08-13T15:45:38Z</time>
      </trkpt>
      <trkpt lat="48.654117" lon="-4.178544">
        <ele>9.8</ele>
        <time>2020-08-13T15:45:40Z</time>
      </trkpt>
      <trkpt lat="48.654064" lon="-4.178158">
        <ele>11.6</ele>
        <time>2020-08-13T15:45:44Z</time>
      </trkpt>
      <trkpt lat="48.654019" lon="-4.177952">
        <ele>11.6</ele>
        <time>2020-08-13T15:45:46Z</time>
      </trkpt>
      <trkpt lat="48.653905" lon="-4.177596">
        <ele>11.6</ele>
        <time>2020-08-13T15:45:49Z</time>
      </trkpt>
      <trkpt lat="48.653682" lon="-4.177112">
        <ele>14.6</ele>
        <time>2020-08-13T15:45:54Z</time>
      </trkpt>
      <trkpt lat="48.653176" lon="-4.176352">
        <ele>14.6</ele>
        <time>2020-08-13T15:46:04Z</time>
      </trkpt>
      <trkpt lat="48.652939" lon="-4.175921">
        <ele>14.6</ele>
        <time>2020-08-13T15:46:08Z</time>
      </trkpt>
      <trkpt lat="48.652769" lon="-4.175481">
        <ele>19.0</ele>
        <time>2020-08-13T15:46:13Z</time>
      </trkpt>
      <trkpt lat="48.652648" lon="-4.174776">
        <ele>22.6</ele>
        <time>2020-08-13T15:46:19Z</time>
      </trkpt>
      <trkpt lat="48.652622" lon="-4.174316">
        <ele>22.6</ele>
        <time>2020-08-13T15:46:23Z</time>
      </trkpt>
      <trkpt lat="48.652625" lon="-4.173867">
        <ele>23.4</ele>
        <time>2020-08-13T15:46:27Z</time>
      </trkpt>
      <trkpt lat="48.652589" lon="-4.173306">
        <ele>23.4</ele>
        <time>2020-08-13T15:46:32Z</time>
      </trkpt>
      <trkpt lat="48.652579" lon="-4.172077">
        <ele>24.8</ele>
        <time>2020-08-13T15:46:43Z</time>
      </trkpt>
      <trkpt lat="48.652591" lon="-4.17163">
        <ele>25.4</ele>
        <time>2020-08-13T15:46:47Z</time>
      </trkpt>
      <trkpt lat="48.652668" lon="-4.171156">
        <ele>25.4</ele>
        <time>2020-08-13T15:46:51Z</time>
      </trkpt>
      <trkpt lat="48.652778" lon="-4.170761">
        <ele>24.8</ele>
        <time>2020-08-13T15:46:55Z</time>
      </trkpt>
      <trkpt lat="48.652848" lon="-4.170573">
        <ele>24.8</ele>
        <time>2020-08-13T15:46:57Z</time>
      </trkpt>
      <trkpt lat="48.653036" lon="-4.170171">
        <ele>24.8</ele>
        <time>2020-08-13T15:47:01Z</time>
      </trkpt>
      <trkpt lat="48.65318" lon="-4.169949">
        <ele>23.8</ele>
        <time>2020-08-13T15:47:03Z</time>
      </trkpt>
      <trkpt lat="48.653452" lon="-4.169667">
        <ele>27.6</ele>
        <time>2020-08-13T15:47:08Z</time>
      </trkpt>
      <trkpt lat="48.653655" lon="-4.169498">
        <ele>27.6</ele>
        <time>2020-08-13T15:47:11Z</time>
      </trkpt>
      <trkpt lat="48.654009" lon="-4.169299">
        <ele>27.6</ele>
        <time>2020-08-13T15:47:16Z</time>
      </trkpt>
      <trkpt lat="48.656197" lon="-4.16866">
        <ele>29.8</ele>
        <time>2020-08-13T15:47:45Z</time>
      </trkpt>
      <trkpt lat="48.656594" lon="-4.168615">
        <ele>29.8</ele>
        <time>2020-08-13T15:47:50Z</time>
      </trkpt>
      <trkpt lat="48.657259" lon="-4.16862">
        <ele>31.8</ele>
        <time>2020-08-13T15:47:59Z</time>
      </trkpt>
      <trkpt lat="48.657478" lon="-4.168603">
        <ele>31.8</ele>
        <time>2020-08-13T15:48:02Z</time>
      </trkpt>
      <trkpt lat="48.65844" lon="-4.168345">
        <ele>32.4</ele>
        <time>2020-08-13T15:48:15Z</time>
      </trkpt>
      <trkpt lat="48.658378" lon="-4.166368">
        <ele>29.4</ele>
        <time>2020-08-13T15:48:28Z</time>
      </trkpt>
      <trkpt lat="48.658367" lon="-4.165584">
        <ele>29.0</ele>
        <time>2020-08-13T15:48:33Z</time>
      </trkpt>
      <trkpt lat="48.658428" lon="-4.161787">
        <ele>31.0</ele>
        <time>2020-08-13T15:48:58Z</time>
      </trkpt>
      <trkpt lat="48.658445" lon="-4.158602">
        <ele>40.2</ele>
        <time>2020-08-13T15:49:18Z</time>
      </trkpt>
      <trkpt lat="48.658436" lon="-4.158199">
        <ele>43.2</ele>
        <time>2020-08-13T15:49:21Z</time>
      </trkpt>
      <trkpt lat="48.658255" lon="-4.156893">
        <ele>44.6</ele>
        <time>2020-08-13T15:49:29Z</time>
      </trkpt>
      <trkpt lat="48.658236" lon="-4.156636">
        <ele>45.4</ele>
        <time>2020-08-13T15:49:31Z</time>
      </trkpt>
      <trkpt lat="48.658238" lon="-4.156061">
        <ele>45.4</ele>
        <time>2020-08-13T15:49:35Z</time>
      </trkpt>
      <trkpt lat="48.658301" lon="-4.15562">
        <ele>45.8</ele>
        <time>2020-08-13T15:49:38Z</time>
      </trkpt>
      <trkpt lat="48.65838" lon="-4.155212">
        <ele>46.4</ele>
        <time>2020-08-13T15:49:40Z</time>
      </trkpt>
      <trkpt lat="48.659656" lon="-4.150308">
        <ele>49.6</ele>
        <time>2020-08-13T15:50:14Z</time>
      </trkpt>
      <trkpt lat="48.659868" lon="-4.149219">
        <ele>49.6</ele>
        <time>2020-08-13T15:50:22Z</time>
      </trkpt>
      <trkpt lat="48.660432" lon="-4.145667">
        <ele>50.0</ele>
        <time>2020-08-13T15:50:45Z</time>
      </trkpt>
      <trkpt lat="48.660731" lon="-4.143517">
        <ele>55.0</ele>
        <time>2020-08-13T15:50:59Z</time>
      </trkpt>
      <trkpt lat="48.660794" lon="-4.142902">
        <ele>56.8</ele>
        <time>2020-08-13T15:51:03Z</time>
      </trkpt>
      <trkpt lat="48.660846" lon="-4.14213">
        <ele>54.6</ele>
        <time>2020-08-13T15:51:08Z</time>
      </trkpt>
      <trkpt lat="48.660874" lon="-4.141281">
        <ele>56.4</ele>
        <time>2020-08-13T15:51:14Z</time>
      </trkpt>
      <trkpt lat="48.660834" lon="-4.140098">
        <ele>57.6</ele>
        <time>2020-08-13T15:51:22Z</time>
      </trkpt>
      <trkpt lat="48.660793" lon="-4.139583">
        <ele>59.6</ele>
        <time>2020-08-13T15:51:25Z</time>
      </trkpt>
      <trkpt lat="48.660733" lon="-4.139097">
        <ele>58.4</ele>
        <time>2020-08-13T15:51:28Z</time>
      </trkpt>
      <trkpt lat="48.660644" lon="-4.1387">
        <ele>58.4</ele>
        <time>2020-08-13T15:51:31Z</time>
      </trkpt>
      <trkpt lat="48.660569" lon="-4.13845">
        <ele>58.4</ele>
        <time>2020-08-13T15:51:33Z</time>
      </trkpt>
      <trkpt lat="48.660514" lon="-4.138468">
        <ele>58.4</ele>
        <time>2020-08-13T15:51:33Z</time>
      </trkpt>
      <trkpt lat="48.660409" lon="-4.138423">
        <ele>58.4</ele>
        <time>2020-08-13T15:51:34Z</time>
      </trkpt>
      <trkpt lat="48.660343" lon="-4.138292">
        <ele>57.4</ele>
        <time>2020-08-13T15:51:35Z</time>
      </trkpt>
      <trkpt lat="48.660339" lon="-4.138142">
        <ele>57.4</ele>
        <time>2020-08-13T15:51:36Z</time>
      </trkpt>
      <trkpt lat="48.660382" lon="-4.138025">
        <ele>57.4</ele>
        <time>2020-08-13T15:51:37Z</time>
      </trkpt>
      <trkpt lat="48.660457" lon="-4.137956">
        <ele>57.4</ele>
        <time>2020-08-13T15:51:37Z</time>
      </trkpt>
      <trkpt lat="48.660501" lon="-4.137945">
        <ele>57.4</ele>
        <time>2020-08-13T15:51:38Z</time>
      </trkpt>
      <trkpt lat="48.660463" lon="-4.137667">
        <ele>57.4</ele>
        <time>2020-08-13T15:51:40Z</time>
      </trkpt>
      <trkpt lat="48.660279" lon="-4.136945">
        <ele>56.2</ele>
        <time>2020-08-13T15:51:44Z</time>
      </trkpt>
      <trkpt lat="48.659668" lon="-4.134934">
        <ele>51.8</ele>
        <time>2020-08-13T15:51:57Z</time>
      </trkpt>
      <trkpt lat="48.65934" lon="-4.13381">
        <ele>50.4</ele>
        <time>2020-08-13T15:52:04Z</time>
      </trkpt>
      <trkpt lat="48.659217" lon="-4.133307">
        <ele>50.0</ele>
        <time>2020-08-13T15:52:07Z</time>
      </trkpt>
      <trkpt lat="48.659107" lon="-4.132753">
        <ele>52.6</ele>
        <time>2020-08-13T15:52:11Z</time>
      </trkpt>
      <trkpt lat="48.65902" lon="-4.132059">
        <ele>51.8</ele>
        <time>2020-08-13T15:52:15Z</time>
      </trkpt>
      <trkpt lat="48.658985" lon="-4.13147">
        <ele>50.0</ele>
        <time>2020-08-13T15:52:18Z</time>
      </trkpt>
      <trkpt lat="48.65898" lon="-4.131085">
        <ele>50.0</ele>
        <time>2020-08-13T15:52:21Z</time>
      </trkpt>
      <trkpt lat="48.658995" lon="-4.130647">
        <ele>48.6</ele>
        <time>2020-08-13T15:52:23Z</time>
      </trkpt>
      <trkpt lat="48.659096" lon="-4.129605">
        <ele>47.2</ele>
        <time>2020-08-13T15:52:29Z</time>
      </trkpt>
      <trkpt lat="48.659163" lon="-4.129164">
        <ele>45.8</ele>
        <time>2020-08-13T15:52:32Z</time>
      </trkpt>
      <trkpt lat="48.659249" lon="-4.128738">
        <ele>45.4</ele>
        <time>2020-08-13T15:52:35Z</time>
      </trkpt>
      <trkpt lat="48.659481" lon="-4.127802">
        <ele>44.4</ele>
        <time>2020-08-13T15:52:41Z</time>
      </trkpt>
      <trkpt lat="48.66044" lon="-4.124284">
        <ele>44.0</ele>
        <time>2020-08-13T15:53:03Z</time>
      </trkpt>
      <trkpt lat="48.660813" lon="-4.122709">
        <ele>44.2</ele>
        <time>2020-08-13T15:53:13Z</time>
      </trkpt>
      <trkpt lat="48.661269" lon="-4.11999">
        <ele>48.8</ele>
        <time>2020-08-13T15:53:29Z</time>
      </trkpt>
      <trkpt lat="48.661597" lon="-4.118186">
        <ele>49.8</ele>
        <time>2020-08-13T15:53:40Z</time>
      </trkpt>
      <trkpt lat="48.661797" lon="-4.117277">
        <ele>48.8</ele>
        <time>2020-08-13T15:53:46Z</time>
      </trkpt>
      <trkpt lat="48.66189" lon="-4.116966">
        <ele>48.8</ele>
        <time>2020-08-13T15:53:48Z</time>
      </trkpt>
      <trkpt lat="48.662121" lon="-4.116364">
        <ele>48.0</ele>
        <time>2020-08-13T15:53:52Z</time>
      </trkpt>
      <trkpt lat="48.662353" lon="-4.115854">
        <ele>48.0</ele>
        <time>2020-08-13T15:53:55Z</time>
      </trkpt>
      <trkpt lat="48.66255" lon="-4.115497">
        <ele>47.0</ele>
        <time>2020-08-13T15:53:58Z</time>
      </trkpt>
      <trkpt lat="48.662825" lon="-4.115082">
        <ele>47.0</ele>
        <time>2020-08-13T15:54:02Z</time>
      </trkpt>
      <trkpt lat="48.663539" lon="-4.114094">
        <ele>44.4</ele>
        <time>2020-08-13T15:54:10Z</time>
      </trkpt>
      <trkpt lat="48.663686" lon="-4.113826">
        <ele>44.4</ele>
        <time>2020-08-13T15:54:12Z</time>
      </trkpt>
      <trkpt lat="48.663723" lon="-4.11373">
        <ele>44.4</ele>
        <time>2020-08-13T15:54:13Z</time>
      </trkpt>
      <trkpt lat="48.663774" lon="-4.113581">
        <ele>44.4</ele>
        <time>2020-08-13T15:54:14Z</time>
      </trkpt>
      <trkpt lat="48.663832" lon="-4.113253">
        <ele>43.6</ele>
        <time>2020-08-13T15:54:16Z</time>
      </trkpt>
      <trkpt lat="48.663836" lon="-4.112998">
        <ele>43.6</ele>
        <time>2020-08-13T15:54:17Z</time>
      </trkpt>
      <trkpt lat="48.663821" lon="-4.112816">
        <ele>43.6</ele>
        <time>2020-08-13T15:54:18Z</time>
      </trkpt>
      <trkpt lat="48.663789" lon="-4.112652">
        <ele>43.6</ele>
        <time>2020-08-13T15:54:19Z</time>
      </trkpt>
      <trkpt lat="48.663535" lon="-4.111771">
        <ele>43.6</ele>
        <time>2020-08-13T15:54:25Z</time>
      </trkpt>
      <trkpt lat="48.663441" lon="-4.111368">
        <ele>44.4</ele>
        <time>2020-08-13T15:54:27Z</time>
      </trkpt>
      <trkpt lat="48.66338" lon="-4.110915">
        <ele>44.4</ele>
        <time>2020-08-13T15:54:30Z</time>
      </trkpt>
      <trkpt lat="48.663222" lon="-4.108972">
        <ele>46.4</ele>
        <time>2020-08-13T15:54:42Z</time>
      </trkpt>
      <trkpt lat="48.663096" lon="-4.107663">
        <ele>47.4</ele>
        <time>2020-08-13T15:54:49Z</time>
      </trkpt>
      <trkpt lat="48.663011" lon="-4.106528">
        <ele>48.6</ele>
        <time>2020-08-13T15:54:56Z</time>
      </trkpt>
      <trkpt lat="48.662985" lon="-4.106333">
        <ele>48.6</ele>
        <time>2020-08-13T15:54:57Z</time>
      </trkpt>
      <trkpt lat="48.662966" lon="-4.10513">
        <ele>47.6</ele>
        <time>2020-08-13T15:55:04Z</time>
      </trkpt>
      <trkpt lat="48.662919" lon="-4.10409">
        <ele>48.0</ele>
        <time>2020-08-13T15:55:10Z</time>
      </trkpt>
      <trkpt lat="48.662909" lon="-4.103545">
        <ele>48.0</ele>
        <time>2020-08-13T15:55:14Z</time>
      </trkpt>
      <trkpt lat="48.662923" lon="-4.10302">
        <ele>48.0</ele>
        <time>2020-08-13T15:55:17Z</time>
      </trkpt>
      <trkpt lat="48.662886" lon="-4.102984">
        <ele>48.0</ele>
        <time>2020-08-13T15:55:17Z</time>
      </trkpt>
      <trkpt lat="48.662909" lon="-4.102912">
        <ele>48.0</ele>
        <time>2020-08-13T15:55:18Z</time>
      </trkpt>
      <trkpt lat="48.662859" lon="-4.102236">
        <ele>47.2</ele>
        <time>2020-08-13T15:55:22Z</time>
      </trkpt>
      <trkpt lat="48.662934" lon="-4.102094">
        <ele>47.2</ele>
        <time>2020-08-13T15:55:24Z</time>
      </trkpt>
      <trkpt lat="48.664226" lon="-4.100245">
        <ele>43.8</ele>
        <time>2020-08-13T15:55:42Z</time>
      </trkpt>
      <trkpt lat="48.664795" lon="-4.099484">
        <ele>43.8</ele>
        <time>2020-08-13T15:55:50Z</time>
      </trkpt>
      <trkpt lat="48.664766" lon="-4.099365">
        <ele>43.8</ele>
        <time>2020-08-13T15:55:50Z</time>
      </trkpt>
      <trkpt lat="48.664792" lon="-4.099249">
        <ele>43.8</ele>
        <time>2020-08-13T15:55:51Z</time>
      </trkpt>
      <trkpt lat="48.664857" lon="-4.099185">
        <ele>43.8</ele>
        <time>2020-08-13T15:55:51Z</time>
      </trkpt>
      <trkpt lat="48.664934" lon="-4.099191">
        <ele>43.8</ele>
        <time>2020-08-13T15:55:52Z</time>
      </trkpt>
      <trkpt lat="48.664968" lon="-4.099222">
        <ele>43.8</ele>
        <time>2020-08-13T15:55:52Z</time>
      </trkpt>
      <trkpt lat="48.665131" lon="-4.098958">
        <ele>43.2</ele>
        <time>2020-08-13T15:55:54Z</time>
      </trkpt>
      <trkpt lat="48.665562" lon="-4.098356">
        <ele>43.2</ele>
        <time>2020-08-13T15:55:58Z</time>
      </trkpt>
      <trkpt lat="48.665961" lon="-4.097745">
        <ele>42.2</ele>
        <time>2020-08-13T15:56:03Z</time>
      </trkpt>
      <trkpt lat="48.666151" lon="-4.097378">
        <ele>42.0</ele>
        <time>2020-08-13T15:56:05Z</time>
      </trkpt>
      <trkpt lat="48.666425" lon="-4.096656">
        <ele>39.6</ele>
        <time>2020-08-13T15:56:09Z</time>
      </trkpt>
      <trkpt lat="48.666619" lon="-4.095916">
        <ele>39.6</ele>
        <time>2020-08-13T15:56:13Z</time>
      </trkpt>
      <trkpt lat="48.666696" lon="-4.09549">
        <ele>38.2</ele>
        <time>2020-08-13T15:56:15Z</time>
      </trkpt>
      <trkpt lat="48.666712" lon="-4.095295">
        <ele>38.2</ele>
        <time>2020-08-13T15:56:16Z</time>
      </trkpt>
      <trkpt lat="48.666958" lon="-4.093579">
        <ele>41.4</ele>
        <time>2020-08-13T15:56:24Z</time>
      </trkpt>
      <trkpt lat="48.667326" lon="-4.091707">
        <ele>42.6</ele>
        <time>2020-08-13T15:56:34Z</time>
      </trkpt>
      <trkpt lat="48.667384" lon="-4.091357">
        <ele>44.0</ele>
        <time>2020-08-13T15:56:36Z</time>
      </trkpt>
      <trkpt lat="48.667473" lon="-4.09077">
        <ele>45.2</ele>
        <time>2020-08-13T15:56:39Z</time>
      </trkpt>
      <trkpt lat="48.667581" lon="-4.089807">
        <ele>42.2</ele>
        <time>2020-08-13T15:56:43Z</time>
      </trkpt>
      <trkpt lat="48.667634" lon="-4.088741">
        <ele>42.2</ele>
        <time>2020-08-13T15:56:49Z</time>
      </trkpt>
      <trkpt lat="48.667686" lon="-4.085527">
        <ele>38.2</ele>
        <time>2020-08-13T15:57:04Z</time>
      </trkpt>
      <trkpt lat="48.667699" lon="-4.083632">
        <ele>36.8</ele>
        <time>2020-08-13T15:57:14Z</time>
      </trkpt>
      <trkpt lat="48.667752" lon="-4.081228">
        <ele>41.4</ele>
        <time>2020-08-13T15:57:25Z</time>
      </trkpt>
      <trkpt lat="48.667751" lon="-4.07786">
        <ele>45.6</ele>
        <time>2020-08-13T15:57:42Z</time>
      </trkpt>
      <trkpt lat="48.667691" lon="-4.07729">
        <ele>46.4</ele>
        <time>2020-08-13T15:57:44Z</time>
      </trkpt>
      <trkpt lat="48.667562" lon="-4.07666">
        <ele>47.2</ele>
        <time>2020-08-13T15:57:48Z</time>
      </trkpt>
      <trkpt lat="48.667021" lon="-4.074908">
        <ele>48.6</ele>
        <time>2020-08-13T15:57:57Z</time>
      </trkpt>
      <trkpt lat="48.666936" lon="-4.074548">
        <ele>48.6</ele>
        <time>2020-08-13T15:57:59Z</time>
      </trkpt>
      <trkpt lat="48.666854" lon="-4.073889">
        <ele>48.2</ele>
        <time>2020-08-13T15:58:02Z</time>
      </trkpt>
      <trkpt lat="48.666817" lon="-4.073189">
        <ele>46.8</ele>
        <time>2020-08-13T15:58:06Z</time>
      </trkpt>
      <trkpt lat="48.666748" lon="-4.070783">
        <ele>47.2</ele>
        <time>2020-08-13T15:58:17Z</time>
      </trkpt>
      <trkpt lat="48.666702" lon="-4.07027">
        <ele>47.2</ele>
        <time>2020-08-13T15:58:20Z</time>
      </trkpt>
      <trkpt lat="48.666513" lon="-4.069392">
        <ele>50.0</ele>
        <time>2020-08-13T15:58:24Z</time>
      </trkpt>
      <trkpt lat="48.66625" lon="-4.068458">
        <ele>50.4</ele>
        <time>2020-08-13T15:58:29Z</time>
      </trkpt>
      <trkpt lat="48.666134" lon="-4.06788">
        <ele>51.2</ele>
        <time>2020-08-13T15:58:32Z</time>
      </trkpt>
      <trkpt lat="48.666104" lon="-4.067598">
        <ele>51.2</ele>
        <time>2020-08-13T15:58:34Z</time>
      </trkpt>
      <trkpt lat="48.666105" lon="-4.06726">
        <ele>52.0</ele>
        <time>2020-08-13T15:58:35Z</time>
      </trkpt>
      <trkpt lat="48.666185" lon="-4.065619">
        <ele>50.2</ele>
        <time>2020-08-13T15:58:43Z</time>
      </trkpt>
      <trkpt lat="48.666162" lon="-4.065363">
        <ele>50.2</ele>
        <time>2020-08-13T15:58:45Z</time>
      </trkpt>
      <trkpt lat="48.666" lon="-4.064707">
        <ele>48.2</ele>
        <time>2020-08-13T15:58:48Z</time>
      </trkpt>
      <trkpt lat="48.665977" lon="-4.064201">
        <ele>48.2</ele>
        <time>2020-08-13T15:58:50Z</time>
      </trkpt>
      <trkpt lat="48.666018" lon="-4.063361">
        <ele>49.0</ele>
        <time>2020-08-13T15:58:55Z</time>
      </trkpt>
      <trkpt lat="48.666116" lon="-4.062606">
        <ele>49.6</ele>
        <time>2020-08-13T15:58:58Z</time>
      </trkpt>
      <trkpt lat="48.666216" lon="-4.062029">
        <ele>48.4</ele>
        <time>2020-08-13T15:59:01Z</time>
      </trkpt>
      <trkpt lat="48.66648" lon="-4.061036">
        <ele>47.4</ele>
        <time>2020-08-13T15:59:06Z</time>
      </trkpt>
      <trkpt lat="48.667924" lon="-4.056251">
        <ele>15.2</ele>
        <time>2020-08-13T15:59:32Z</time>
      </trkpt>
      <trkpt lat="48.6687" lon="-4.05357">
        <ele>9.8</ele>
        <time>2020-08-13T15:59:46Z</time>
      </trkpt>
      <trkpt lat="48.669638" lon="-4.050558">
        <ele>21.2</ele>
        <time>2020-08-13T16:00:03Z</time>
      </trkpt>
      <trkpt lat="48.669816" lon="-4.05007">
        <ele>21.2</ele>
        <time>2020-08-13T16:00:05Z</time>
      </trkpt>
      <trkpt lat="48.669986" lon="-4.049696">
        <ele>24.4</ele>
        <time>2020-08-13T16:00:08Z</time>
      </trkpt>
      <trkpt lat="48.67054" lon="-4.048735">
        <ele>31.6</ele>
        <time>2020-08-13T16:00:14Z</time>
      </trkpt>
      <trkpt lat="48.670798" lon="-4.048162">
        <ele>35.4</ele>
        <time>2020-08-13T16:00:17Z</time>
      </trkpt>
      <trkpt lat="48.670894" lon="-4.047882">
        <ele>36.0</ele>
        <time>2020-08-13T16:00:19Z</time>
      </trkpt>
      <trkpt lat="48.670961" lon="-4.047683">
        <ele>36.0</ele>
        <time>2020-08-13T16:00:20Z</time>
      </trkpt>
      <trkpt lat="48.67139" lon="-4.046076">
        <ele>37.4</ele>
        <time>2020-08-13T16:00:28Z</time>
      </trkpt>
      <trkpt lat="48.672685" lon="-4.041826">
        <ele>37.8</ele>
        <time>2020-08-13T16:00:51Z</time>
      </trkpt>
      <trkpt lat="48.673243" lon="-4.040061">
        <ele>37.8</ele>
        <time>2020-08-13T16:01:01Z</time>
      </trkpt>
      <trkpt lat="48.673852" lon="-4.037901">
        <ele>38.6</ele>
        <time>2020-08-13T16:01:12Z</time>
      </trkpt>
      <trkpt lat="48.674131" lon="-4.036993">
        <ele>39.0</ele>
        <time>2020-08-13T16:01:17Z</time>
      </trkpt>
      <trkpt lat="48.674797" lon="-4.035557">
        <ele>38.8</ele>
        <time>2020-08-13T16:01:25Z</time>
      </trkpt>
      <trkpt lat="48.674887" lon="-4.035319">
        <ele>38.8</ele>
        <time>2020-08-13T16:01:27Z</time>
      </trkpt>
      <trkpt lat="48.675037" lon="-4.034765">
        <ele>38.6</ele>
        <time>2020-08-13T16:01:30Z</time>
      </trkpt>
      <trkpt lat="48.675114" lon="-4.034143">
        <ele>39.4</ele>
        <time>2020-08-13T16:01:33Z</time>
      </trkpt>
      <trkpt lat="48.675132" lon="-4.033738">
        <ele>39.4</ele>
        <time>2020-08-13T16:01:35Z</time>
      </trkpt>
      <trkpt lat="48.67509" lon="-4.032674">
        <ele>39.4</ele>
        <time>2020-08-13T16:01:40Z</time>
      </trkpt>
      <trkpt lat="48.675132" lon="-4.032166">
        <ele>39.0</ele>
        <time>2020-08-13T16:01:42Z</time>
      </trkpt>
      <trkpt lat="48.675189" lon="-4.031833">
        <ele>39.0</ele>
        <time>2020-08-13T16:01:44Z</time>
      </trkpt>
      <trkpt lat="48.675286" lon="-4.031533">
        <ele>37.6</ele>
        <time>2020-08-13T16:01:46Z</time>
      </trkpt>
      <trkpt lat="48.675861" lon="-4.03009">
        <ele>35.8</ele>
        <time>2020-08-13T16:01:54Z</time>
      </trkpt>
      <trkpt lat="48.675942" lon="-4.029773">
        <ele>35.2</ele>
        <time>2020-08-13T16:01:56Z</time>
      </trkpt>
      <trkpt lat="48.676319" lon="-4.027693">
        <ele>34.2</ele>
        <time>2020-08-13T16:02:06Z</time>
      </trkpt>
      <trkpt lat="48.676396" lon="-4.027014">
        <ele>32.6</ele>
        <time>2020-08-13T16:02:09Z</time>
      </trkpt>
      <trkpt lat="48.676413" lon="-4.026411">
        <ele>31.0</ele>
        <time>2020-08-13T16:02:12Z</time>
      </trkpt>
      <trkpt lat="48.676402" lon="-4.025781">
        <ele>29.8</ele>
        <time>2020-08-13T16:02:15Z</time>
      </trkpt>
      <trkpt lat="48.676338" lon="-4.024492">
        <ele>28.6</ele>
        <time>2020-08-13T16:02:22Z</time>
      </trkpt>
      <trkpt lat="48.676351" lon="-4.024151">
        <ele>27.6</ele>
        <time>2020-08-13T16:02:23Z</time>
      </trkpt>
      <trkpt lat="48.676399" lon="-4.023542">
        <ele>27.6</ele>
        <time>2020-08-13T16:02:26Z</time>
      </trkpt>
      <trkpt lat="48.676703" lon="-4.021601">
        <ele>21.2</ele>
        <time>2020-08-13T16:02:36Z</time>
      </trkpt>
      <trkpt lat="48.676755" lon="-4.02116">
        <ele>21.2</ele>
        <time>2020-08-13T16:02:38Z</time>
      </trkpt>
      <trkpt lat="48.67678" lon="-4.020745">
        <ele>15.8</ele>
        <time>2020-08-13T16:02:40Z</time>
      </trkpt>
      <trkpt lat="48.676745" lon="-4.020059">
        <ele>15.8</ele>
        <time>2020-08-13T16:02:44Z</time>
      </trkpt>
      <trkpt lat="48.67671" lon="-4.019832">
        <ele>10.6</ele>
        <time>2020-08-13T16:02:45Z</time>
      </trkpt>
      <trkpt lat="48.676633" lon="-4.019421">
        <ele>11.6</ele>
        <time>2020-08-13T16:02:47Z</time>
      </trkpt>
      <trkpt lat="48.676028" lon="-4.016597">
        <ele>21.6</ele>
        <time>2020-08-13T16:03:01Z</time>
      </trkpt>
      <trkpt lat="48.675955" lon="-4.016165">
        <ele>21.6</ele>
        <time>2020-08-13T16:03:04Z</time>
      </trkpt>
      <trkpt lat="48.67591" lon="-4.015719">
        <ele>22.4</ele>
        <time>2020-08-13T16:03:06Z</time>
      </trkpt>
      <trkpt lat="48.675924" lon="-4.015197">
        <ele>22.4</ele>
        <time>2020-08-13T16:03:08Z</time>
      </trkpt>
      <trkpt lat="48.675984" lon="-4.014745">
        <ele>23.4</ele>
        <time>2020-08-13T16:03:11Z</time>
      </trkpt>
      <trkpt lat="48.676035" lon="-4.014514">
        <ele>23.4</ele>
        <time>2020-08-13T16:03:12Z</time>
      </trkpt>
      <trkpt lat="48.676129" lon="-4.014229">
        <ele>23.4</ele>
        <time>2020-08-13T16:03:13Z</time>
      </trkpt>
      <trkpt lat="48.676246" lon="-4.013945">
        <ele>24.6</ele>
        <time>2020-08-13T16:03:15Z</time>
      </trkpt>
      <trkpt lat="48.676616" lon="-4.013165">
        <ele>26.6</ele>
        <time>2020-08-13T16:03:20Z</time>
      </trkpt>
      <trkpt lat="48.676821" lon="-4.012664">
        <ele>28.0</ele>
        <time>2020-08-13T16:03:23Z</time>
      </trkpt>
      <trkpt lat="48.677876" lon="-4.009536">
        <ele>30.8</ele>
        <time>2020-08-13T16:03:40Z</time>
      </trkpt>
      <trkpt lat="48.678017" lon="-4.009043">
        <ele>30.6</ele>
        <time>2020-08-13T16:03:42Z</time>
      </trkpt>
      <trkpt lat="48.678115" lon="-4.00847">
        <ele>30.6</ele>
        <time>2020-08-13T16:03:45Z</time>
      </trkpt>
      <trkpt lat="48.678159" lon="-4.007855">
        <ele>30.6</ele>
        <time>2020-08-13T16:03:48Z</time>
      </trkpt>
      <trkpt lat="48.678141" lon="-4.007251">
        <ele>31.0</ele>
        <time>2020-08-13T16:03:51Z</time>
      </trkpt>
      <trkpt lat="48.67808" lon="-4.006637">
        <ele>31.8</ele>
        <time>2020-08-13T16:03:54Z</time>
      </trkpt>
      <trkpt lat="48.678032" lon="-4.006403">
        <ele>31.8</ele>
        <time>2020-08-13T16:03:55Z</time>
      </trkpt>
      <trkpt lat="48.677929" lon="-4.006164">
        <ele>31.8</ele>
        <time>2020-08-13T16:03:57Z</time>
      </trkpt>
      <trkpt lat="48.677846" lon="-4.006135">
        <ele>31.8</ele>
        <time>2020-08-13T16:03:58Z</time>
      </trkpt>
      <trkpt lat="48.677776" lon="-4.00606">
        <ele>31.8</ele>
        <time>2020-08-13T16:03:58Z</time>
      </trkpt>
      <trkpt lat="48.677731" lon="-4.005949">
        <ele>31.8</ele>
        <time>2020-08-13T16:03:59Z</time>
      </trkpt>
      <trkpt lat="48.677718" lon="-4.005844">
        <ele>31.8</ele>
        <time>2020-08-13T16:04:00Z</time>
      </trkpt>
      <trkpt lat="48.677729" lon="-4.005737">
        <ele>31.8</ele>
        <time>2020-08-13T16:04:00Z</time>
      </trkpt>
      <trkpt lat="48.677762" lon="-4.005642">
        <ele>31.8</ele>
        <time>2020-08-13T16:04:01Z</time>
      </trkpt>
      <trkpt lat="48.677813" lon="-4.005567">
        <ele>31.8</ele>
        <time>2020-08-13T16:04:01Z</time>
      </trkpt>
      <trkpt lat="48.677878" lon="-4.005523">
        <ele>31.8</ele>
        <time>2020-08-13T16:04:02Z</time>
      </trkpt>
      <trkpt lat="48.677943" lon="-4.005512">
        <ele>31.8</ele>
        <time>2020-08-13T16:04:02Z</time>
      </trkpt>
      <trkpt lat="48.678151" lon="-4.00558">
        <ele>31.8</ele>
        <time>2020-08-13T16:04:04Z</time>
      </trkpt>
      <trkpt lat="48.678243" lon="-4.005577">
        <ele>31.8</ele>
        <time>2020-08-13T16:04:05Z</time>
      </trkpt>
      <trkpt lat="48.678406" lon="-4.005506">
        <ele>31.2</ele>
        <time>2020-08-13T16:04:06Z</time>
      </trkpt>
      <trkpt lat="48.679851" lon="-4.004267">
        <ele>30.6</ele>
        <time>2020-08-13T16:04:19Z</time>
      </trkpt>
      <trkpt lat="48.681226" lon="-4.003206">
        <ele>30.6</ele>
        <time>2020-08-13T16:04:32Z</time>
      </trkpt>
      <trkpt lat="48.681668" lon="-4.002826">
        <ele>29.2</ele>
        <time>2020-08-13T16:04:36Z</time>
      </trkpt>
      <trkpt lat="48.681977" lon="-4.002448">
        <ele>29.4</ele>
        <time>2020-08-13T16:04:39Z</time>
      </trkpt>
      <trkpt lat="48.682492" lon="-4.001925">
        <ele>29.4</ele>
        <time>2020-08-13T16:04:44Z</time>
      </trkpt>
      <trkpt lat="48.683218" lon="-4.001136">
        <ele>28.4</ele>
        <time>2020-08-13T16:04:51Z</time>
      </trkpt>
      <trkpt lat="48.683539" lon="-4.000851">
        <ele>29.0</ele>
        <time>2020-08-13T16:04:54Z</time>
      </trkpt>
      <trkpt lat="48.68385" lon="-4.000661">
        <ele>29.6</ele>
        <time>2020-08-13T16:04:57Z</time>
      </trkpt>
      <trkpt lat="48.684075" lon="-4.000571">
        <ele>29.6</ele>
        <time>2020-08-13T16:04:59Z</time>
      </trkpt>
      <trkpt lat="48.684762" lon="-4.000422">
        <ele>31.6</ele>
        <time>2020-08-13T16:05:04Z</time>
      </trkpt>
      <trkpt lat="48.685191" lon="-4.000371">
        <ele>35.4</ele>
        <time>2020-08-13T16:05:08Z</time>
      </trkpt>
      <trkpt lat="48.686301" lon="-4.000163">
        <ele>41.2</ele>
        <time>2020-08-13T16:05:17Z</time>
      </trkpt>
      <trkpt lat="48.687446" lon="-3.999916">
        <ele>45.8</ele>
        <time>2020-08-13T16:05:26Z</time>
      </trkpt>
      <trkpt lat="48.687795" lon="-3.99968">
        <ele>50.0</ele>
        <time>2020-08-13T16:05:29Z</time>
      </trkpt>
      <trkpt lat="48.687837" lon="-3.999504">
        <ele>50.0</ele>
        <time>2020-08-13T16:05:30Z</time>
      </trkpt>
      <trkpt lat="48.687883" lon="-3.999433">
        <ele>50.0</ele>
        <time>2020-08-13T16:05:31Z</time>
      </trkpt>
      <trkpt lat="48.687941" lon="-3.999387">
        <ele>50.0</ele>
        <time>2020-08-13T16:05:32Z</time>
      </trkpt>
      <trkpt lat="48.688005" lon="-3.999368">
        <ele>50.0</ele>
        <time>2020-08-13T16:05:33Z</time>
      </trkpt>
      <trkpt lat="48.688075" lon="-3.999382">
        <ele>50.0</ele>
        <time>2020-08-13T16:05:33Z</time>
      </trkpt>
      <trkpt lat="48.688139" lon="-3.999428">
        <ele>50.0</ele>
        <time>2020-08-13T16:05:34Z</time>
      </trkpt>
      <trkpt lat="48.688487" lon="-3.999289">
        <ele>51.6</ele>
        <time>2020-08-13T16:05:38Z</time>
      </trkpt>
      <trkpt lat="48.688814" lon="-3.998998">
        <ele>50.8</ele>
        <time>2020-08-13T16:05:42Z</time>
      </trkpt>
      <trkpt lat="48.689125" lon="-3.998768">
        <ele>50.8</ele>
        <time>2020-08-13T16:05:45Z</time>
      </trkpt>
      <trkpt lat="48.689448" lon="-3.998615">
        <ele>50.4</ele>
        <time>2020-08-13T16:05:49Z</time>
      </trkpt>
      <trkpt lat="48.689773" lon="-3.998542">
        <ele>50.4</ele>
        <time>2020-08-13T16:05:52Z</time>
      </trkpt>
      <trkpt lat="48.690077" lon="-3.998545">
        <ele>49.0</ele>
        <time>2020-08-13T16:05:55Z</time>
      </trkpt>
      <trkpt lat="48.690224" lon="-3.998567">
        <ele>49.0</ele>
        <time>2020-08-13T16:05:57Z</time>
      </trkpt>
      <trkpt lat="48.691369" lon="-3.998813">
        <ele>47.8</ele>
        <time>2020-08-13T16:06:08Z</time>
      </trkpt>
      <trkpt lat="48.692316" lon="-3.998863">
        <ele>46.6</ele>
        <time>2020-08-13T16:06:18Z</time>
      </trkpt>
      <trkpt lat="48.6925" lon="-3.99886">
        <ele>44.6</ele>
        <time>2020-08-13T16:06:20Z</time>
      </trkpt>
      <trkpt lat="48.693065" lon="-3.998793">
        <ele>44.6</ele>
        <time>2020-08-13T16:06:26Z</time>
      </trkpt>
      <trkpt lat="48.693687" lon="-3.998567">
        <ele>42.8</ele>
        <time>2020-08-13T16:06:32Z</time>
      </trkpt>
      <trkpt lat="48.694382" lon="-3.998261">
        <ele>42.0</ele>
        <time>2020-08-13T16:06:40Z</time>
      </trkpt>
      <trkpt lat="48.695689" lon="-3.997505">
        <ele>41.2</ele>
        <time>2020-08-13T16:06:54Z</time>
      </trkpt>
      <trkpt lat="48.695883" lon="-3.997365">
        <ele>40.4</ele>
        <time>2020-08-13T16:06:56Z</time>
      </trkpt>
      <trkpt lat="48.696027" lon="-3.997231">
        <ele>40.4</ele>
        <time>2020-08-13T16:06:58Z</time>
      </trkpt>
      <trkpt lat="48.696186" lon="-3.997036">
        <ele>40.4</ele>
        <time>2020-08-13T16:07:00Z</time>
      </trkpt>
      <trkpt lat="48.698542" lon="-3.993576">
        <ele>41.6</ele>
        <time>2020-08-13T16:07:34Z</time>
      </trkpt>
      <trkpt lat="48.698918" lon="-3.993082">
        <ele>41.4</ele>
        <time>2020-08-13T16:07:39Z</time>
      </trkpt>
      <trkpt lat="48.701711" lon="-3.98989">
        <ele>39.4</ele>
        <time>2020-08-13T16:08:14Z</time>
      </trkpt>
      <trkpt lat="48.702242" lon="-3.989231">
        <ele>39.4</ele>
        <time>2020-08-13T16:08:21Z</time>
      </trkpt>
      <trkpt lat="48.703705" lon="-3.987344">
        <ele>40.2</ele>
        <time>2020-08-13T16:08:41Z</time>
      </trkpt>
      <trkpt lat="48.70374" lon="-3.987239">
        <ele>40.2</ele>
        <time>2020-08-13T16:08:42Z</time>
      </trkpt>
      <trkpt lat="48.703779" lon="-3.986968">
        <ele>40.2</ele>
        <time>2020-08-13T16:08:44Z</time>
      </trkpt>
      <trkpt lat="48.703722" lon="-3.986832">
        <ele>40.2</ele>
        <time>2020-08-13T16:08:45Z</time>
      </trkpt>
      <trkpt lat="48.703714" lon="-3.986702">
        <ele>40.2</ele>
        <time>2020-08-13T16:08:46Z</time>
      </trkpt>
      <trkpt lat="48.703742" lon="-3.986578">
        <ele>39.6</ele>
        <time>2020-08-13T16:08:47Z</time>
      </trkpt>
      <trkpt lat="48.703784" lon="-3.986503">
        <ele>39.6</ele>
        <time>2020-08-13T16:08:47Z</time>
      </trkpt>
      <trkpt lat="48.703839" lon="-3.98645">
        <ele>39.6</ele>
        <time>2020-08-13T16:08:48Z</time>
      </trkpt>
      <trkpt lat="48.703902" lon="-3.986427">
        <ele>39.6</ele>
        <time>2020-08-13T16:08:49Z</time>
      </trkpt>
      <trkpt lat="48.703966" lon="-3.986433">
        <ele>39.6</ele>
        <time>2020-08-13T16:08:49Z</time>
      </trkpt>
      <trkpt lat="48.704026" lon="-3.98647">
        <ele>39.6</ele>
        <time>2020-08-13T16:08:50Z</time>
      </trkpt>
      <trkpt lat="48.704507" lon="-3.986179">
        <ele>39.2</ele>
        <time>2020-08-13T16:08:55Z</time>
      </trkpt>
      <trkpt lat="48.704735" lon="-3.986094">
        <ele>39.2</ele>
        <time>2020-08-13T16:08:57Z</time>
      </trkpt>
      <trkpt lat="48.70495" lon="-3.986066">
        <ele>39.2</ele>
        <time>2020-08-13T16:09:00Z</time>
      </trkpt>
      <trkpt lat="48.705393" lon="-3.985922">
        <ele>38.2</ele>
        <time>2020-08-13T16:09:04Z</time>
      </trkpt>
      <trkpt lat="48.705584" lon="-3.98582">
        <ele>37.6</ele>
        <time>2020-08-13T16:09:06Z</time>
      </trkpt>
      <trkpt lat="48.705734" lon="-3.985702">
        <ele>37.6</ele>
        <time>2020-08-13T16:09:08Z</time>
      </trkpt>
      <trkpt lat="48.706531" lon="-3.984969">
        <ele>36.4</ele>
        <time>2020-08-13T16:09:17Z</time>
      </trkpt>
      <trkpt lat="48.707221" lon="-3.984444">
        <ele>36.0</ele>
        <time>2020-08-13T16:09:25Z</time>
      </trkpt>
      <trkpt lat="48.707551" lon="-3.98424">
        <ele>35.6</ele>
        <time>2020-08-13T16:09:29Z</time>
      </trkpt>
      <trkpt lat="48.708127" lon="-3.98394">
        <ele>35.6</ele>
        <time>2020-08-13T16:09:35Z</time>
      </trkpt>
      <trkpt lat="48.708371" lon="-3.98385">
        <ele>34.2</ele>
        <time>2020-08-13T16:09:37Z</time>
      </trkpt>
      <trkpt lat="48.708759" lon="-3.983602">
        <ele>34.2</ele>
        <time>2020-08-13T16:09:42Z</time>
      </trkpt>
      <trkpt lat="48.708943" lon="-3.983454">
        <ele>34.2</ele>
        <time>2020-08-13T16:09:44Z</time>
      </trkpt>
      <trkpt lat="48.708996" lon="-3.983339">
        <ele>34.2</ele>
        <time>2020-08-13T16:09:45Z</time>
      </trkpt>
      <trkpt lat="48.709016" lon="-3.98324">
        <ele>34.4</ele>
        <time>2020-08-13T16:09:45Z</time>
      </trkpt>
      <trkpt lat="48.709054" lon="-3.983156">
        <ele>34.4</ele>
        <time>2020-08-13T16:09:46Z</time>
      </trkpt>
      <trkpt lat="48.709107" lon="-3.983092">
        <ele>34.4</ele>
        <time>2020-08-13T16:09:47Z</time>
      </trkpt>
      <trkpt lat="48.709171" lon="-3.983056">
        <ele>33.0</ele>
        <time>2020-08-13T16:09:47Z</time>
      </trkpt>
      <trkpt lat="48.709291" lon="-3.983067">
        <ele>33.0</ele>
        <time>2020-08-13T16:09:49Z</time>
      </trkpt>
      <trkpt lat="48.709381" lon="-3.983158">
        <ele>33.0</ele>
        <time>2020-08-13T16:09:50Z</time>
      </trkpt>
      <trkpt lat="48.70942" lon="-3.983246">
        <ele>33.0</ele>
        <time>2020-08-13T16:09:50Z</time>
      </trkpt>
      <trkpt lat="48.709475" lon="-3.983501">
        <ele>33.6</ele>
        <time>2020-08-13T16:09:52Z</time>
      </trkpt>
      <trkpt lat="48.709572" lon="-3.983636">
        <ele>33.6</ele>
        <time>2020-08-13T16:09:54Z</time>
      </trkpt>
      <trkpt lat="48.709766" lon="-3.983817">
        <ele>33.6</ele>
        <time>2020-08-13T16:09:56Z</time>
      </trkpt>
      <trkpt lat="48.710911" lon="-3.984431">
        <ele>32.2</ele>
        <time>2020-08-13T16:10:08Z</time>
      </trkpt>
      <trkpt lat="48.711284" lon="-3.98457">
        <ele>32.2</ele>
        <time>2020-08-13T16:10:12Z</time>
      </trkpt>
      <trkpt lat="48.711662" lon="-3.984679">
        <ele>32.2</ele>
        <time>2020-08-13T16:10:16Z</time>
      </trkpt>
      <trkpt lat="48.711921" lon="-3.98473">
        <ele>30.6</ele>
        <time>2020-08-13T16:10:19Z</time>
      </trkpt>
      <trkpt lat="48.712159" lon="-3.984751">
        <ele>30.6</ele>
        <time>2020-08-13T16:10:21Z</time>
      </trkpt>
      <trkpt lat="48.712496" lon="-3.984745">
        <ele>30.6</ele>
        <time>2020-08-13T16:10:25Z</time>
      </trkpt>
      <trkpt lat="48.714692" lon="-3.984523">
        <ele>21.6</ele>
        <time>2020-08-13T16:10:47Z</time>
      </trkpt>
      <trkpt lat="48.716222" lon="-3.984254">
        <ele>16.2</ele>
        <time>2020-08-13T16:11:03Z</time>
      </trkpt>
      <trkpt lat="48.717545" lon="-3.985011">
        <ele>12.2</ele>
        <time>2020-08-13T16:11:18Z</time>
      </trkpt>
      <trkpt lat="48.717857" lon="-3.985052">
        <ele>12.2</ele>
        <time>2020-08-13T16:11:21Z</time>
      </trkpt>
      <trkpt lat="48.718484" lon="-3.985052">
        <ele>12.4</ele>
        <time>2020-08-13T16:11:27Z</time>
      </trkpt>
      <trkpt lat="48.718743" lon="-3.985138">
        <ele>12.4</ele>
        <time>2020-08-13T16:11:30Z</time>
      </trkpt>
      <trkpt lat="48.719628" lon="-3.985502">
        <ele>11.8</ele>
        <time>2020-08-13T16:11:39Z</time>
      </trkpt>
      <trkpt lat="48.720365" lon="-3.985583">
        <ele>11.6</ele>
        <time>2020-08-13T16:11:47Z</time>
      </trkpt>
      <trkpt lat="48.720691" lon="-3.985584">
        <ele>11.6</ele>
        <time>2020-08-13T16:11:50Z</time>
      </trkpt>
      <trkpt lat="48.720784" lon="-3.985239">
        <ele>11.6</ele>
        <time>2020-08-13T16:11:53Z</time>
      </trkpt>
      <trkpt lat="48.721194" lon="-3.984201">
        <ele>12.8</ele>
        <time>2020-08-13T16:12:01Z</time>
      </trkpt>
      <trkpt lat="48.721417" lon="-3.983794">
        <ele>12.6</ele>
        <time>2020-08-13T16:12:04Z</time>
      </trkpt>
      <trkpt lat="48.721592" lon="-3.984102">
        <ele>12.6</ele>
        <time>2020-08-13T16:12:09Z</time>
      </trkpt>
      <trkpt lat="48.72172" lon="-3.984386">
        <ele>12.0</ele>
        <time>2020-08-13T16:12:14Z</time>
      </trkpt>
      <trkpt lat="48.722138" lon="-3.984002">
        <ele>11.2</ele>
        <time>2020-08-13T16:12:23Z</time>
      </trkpt>
      <trkpt lat="48.722587" lon="-3.983677">
        <ele>10.6</ele>
        <time>2020-08-13T16:12:32Z</time>
      </trkpt>
      <trkpt lat="48.722608" lon="-3.983821">
        <ele>10.6</ele>
        <time>2020-08-13T16:12:34Z</time>
      </trkpt>
      <trkpt lat="48.723002" lon="-3.983864">
        <ele>10.6</ele>
        <time>2020-08-13T16:12:41Z</time>
      </trkpt>
      <trkpt lat="48.723002" lon="-3.983864">
        <ele>10.6</ele>
        <time>2020-08-13T16:12:41Z</time>
      </trkpt>
      <trkpt lat="48.722608" lon="-3.983821">
        <ele>10.6</ele>
        <time>2020-08-13T16:12:48Z</time>
      </trkpt>
      <trkpt lat="48.722587" lon="-3.983677">
        <ele>10.6</ele>
        <time>2020-08-13T16:12:50Z</time>
      </trkpt>
      <trkpt lat="48.722138" lon="-3.984002">
        <ele>11.2</ele>
        <time>2020-08-13T16:12:59Z</time>
      </trkpt>
      <trkpt lat="48.72172" lon="-3.984386">
        <ele>12.0</ele>
        <time>2020-08-13T16:13:08Z</time>
      </trkpt>
      <trkpt lat="48.721592" lon="-3.984102">
        <ele>12.6</ele>
        <time>2020-08-13T16:13:12Z</time>
      </trkpt>
      <trkpt lat="48.721417" lon="-3.983794">
        <ele>12.6</ele>
        <time>2020-08-13T16:13:17Z</time>
      </trkpt>
      <trkpt lat="48.721194" lon="-3.984201">
        <ele>12.8</ele>
        <time>2020-08-13T16:13:21Z</time>
      </trkpt>
      <trkpt lat="48.720784" lon="-3.985239">
        <ele>11.6</ele>
        <time>2020-08-13T16:13:29Z</time>
      </trkpt>
      <trkpt lat="48.720835" lon="-3.985597">
        <ele>12.4</ele>
        <time>2020-08-13T16:13:31Z</time>
      </trkpt>
      <trkpt lat="48.720365" lon="-3.985583">
        <ele>11.6</ele>
        <time>2020-08-13T16:13:36Z</time>
      </trkpt>
      <trkpt lat="48.719628" lon="-3.985502">
        <ele>11.8</ele>
        <time>2020-08-13T16:13:44Z</time>
      </trkpt>
      <trkpt lat="48.718743" lon="-3.985138">
        <ele>12.4</ele>
        <time>2020-08-13T16:13:53Z</time>
      </trkpt>
      <trkpt lat="48.718484" lon="-3.985052">
        <ele>12.4</ele>
        <time>2020-08-13T16:13:56Z</time>
      </trkpt>
      <trkpt lat="48.717857" lon="-3.985052">
        <ele>12.2</ele>
        <time>2020-08-13T16:14:02Z</time>
      </trkpt>
      <trkpt lat="48.717545" lon="-3.985011">
        <ele>12.2</ele>
        <time>2020-08-13T16:14:05Z</time>
      </trkpt>
      <trkpt lat="48.716222" lon="-3.984254">
        <ele>16.2</ele>
        <time>2020-08-13T16:14:20Z</time>
      </trkpt>
      <trkpt lat="48.714692" lon="-3.984523">
        <ele>21.6</ele>
        <time>2020-08-13T16:14:36Z</time>
      </trkpt>
      <trkpt lat="48.712496" lon="-3.984745">
        <ele>30.6</ele>
        <time>2020-08-13T16:14:58Z</time>
      </trkpt>
      <trkpt lat="48.712159" lon="-3.984751">
        <ele>30.6</ele>
        <time>2020-08-13T16:15:02Z</time>
      </trkpt>
      <trkpt lat="48.711921" lon="-3.98473">
        <ele>30.6</ele>
        <time>2020-08-13T16:15:04Z</time>
      </trkpt>
      <trkpt lat="48.711662" lon="-3.984679">
        <ele>32.2</ele>
        <time>2020-08-13T16:15:07Z</time>
      </trkpt>
      <trkpt lat="48.711284" lon="-3.98457">
        <ele>32.2</ele>
        <time>2020-08-13T16:15:11Z</time>
      </trkpt>
      <trkpt lat="48.710911" lon="-3.984431">
        <ele>32.2</ele>
        <time>2020-08-13T16:15:15Z</time>
      </trkpt>
      <trkpt lat="48.709766" lon="-3.983817">
        <ele>33.6</ele>
        <time>2020-08-13T16:15:27Z</time>
      </trkpt>
      <trkpt lat="48.709342" lon="-3.983661">
        <ele>33.6</ele>
        <time>2020-08-13T16:15:32Z</time>
      </trkpt>
      <trkpt lat="48.709246" lon="-3.983722">
        <ele>33.6</ele>
        <time>2020-08-13T16:15:33Z</time>
      </trkpt>
      <trkpt lat="48.709177" lon="-3.983719">
        <ele>33.6</ele>
        <time>2020-08-13T16:15:33Z</time>
      </trkpt>
      <trkpt lat="48.708997" lon="-3.983615">
        <ele>34.2</ele>
        <time>2020-08-13T16:15:35Z</time>
      </trkpt>
      <trkpt lat="48.708886" lon="-3.983638">
        <ele>34.2</ele>
        <time>2020-08-13T16:15:36Z</time>
      </trkpt>
      <trkpt lat="48.708127" lon="-3.98394">
        <ele>35.6</ele>
        <time>2020-08-13T16:15:44Z</time>
      </trkpt>
      <trkpt lat="48.707551" lon="-3.98424">
        <ele>35.6</ele>
        <time>2020-08-13T16:15:51Z</time>
      </trkpt>
      <trkpt lat="48.707221" lon="-3.984444">
        <ele>36.0</ele>
        <time>2020-08-13T16:15:54Z</time>
      </trkpt>
      <trkpt lat="48.706531" lon="-3.984969">
        <ele>36.4</ele>
        <time>2020-08-13T16:16:02Z</time>
      </trkpt>
      <trkpt lat="48.705734" lon="-3.985702">
        <ele>37.6</ele>
        <time>2020-08-13T16:16:12Z</time>
      </trkpt>
      <trkpt lat="48.705584" lon="-3.98582">
        <ele>37.6</ele>
        <time>2020-08-13T16:16:14Z</time>
      </trkpt>
      <trkpt lat="48.705393" lon="-3.985922">
        <ele>38.2</ele>
        <time>2020-08-13T16:16:16Z</time>
      </trkpt>
      <trkpt lat="48.70495" lon="-3.986066">
        <ele>39.2</ele>
        <time>2020-08-13T16:16:20Z</time>
      </trkpt>
      <trkpt lat="48.704671" lon="-3.986235">
        <ele>39.2</ele>
        <time>2020-08-13T16:16:23Z</time>
      </trkpt>
      <trkpt lat="48.704235" lon="-3.986627">
        <ele>39.2</ele>
        <time>2020-08-13T16:16:29Z</time>
      </trkpt>
      <trkpt lat="48.704126" lon="-3.986769">
        <ele>40.2</ele>
        <time>2020-08-13T16:16:30Z</time>
      </trkpt>
      <trkpt lat="48.704104" lon="-3.986881">
        <ele>40.2</ele>
        <time>2020-08-13T16:16:31Z</time>
      </trkpt>
      <trkpt lat="48.704057" lon="-3.986974">
        <ele>40.2</ele>
        <time>2020-08-13T16:16:32Z</time>
      </trkpt>
      <trkpt lat="48.70399" lon="-3.987033">
        <ele>40.2</ele>
        <time>2020-08-13T16:16:33Z</time>
      </trkpt>
      <trkpt lat="48.703914" lon="-3.987052">
        <ele>40.2</ele>
        <time>2020-08-13T16:16:34Z</time>
      </trkpt>
      <trkpt lat="48.70384" lon="-3.987026">
        <ele>40.2</ele>
        <time>2020-08-13T16:16:35Z</time>
      </trkpt>
      <trkpt lat="48.703779" lon="-3.986968">
        <ele>40.2</ele>
        <time>2020-08-13T16:16:35Z</time>
      </trkpt>
      <trkpt lat="48.703722" lon="-3.986832">
        <ele>40.2</ele>
        <time>2020-08-13T16:16:37Z</time>
      </trkpt>
      <trkpt lat="48.703596" lon="-3.986785">
        <ele>40.2</ele>
        <time>2020-08-13T16:16:38Z</time>
      </trkpt>
      <trkpt lat="48.703438" lon="-3.986826">
        <ele>40.2</ele>
        <time>2020-08-13T16:16:40Z</time>
      </trkpt>
      <trkpt lat="48.703212" lon="-3.986989">
        <ele>40.0</ele>
        <time>2020-08-13T16:16:43Z</time>
      </trkpt>
      <trkpt lat="48.702893" lon="-3.987419">
        <ele>40.0</ele>
        <time>2020-08-13T16:16:48Z</time>
      </trkpt>
      <trkpt lat="48.702748" lon="-3.98751">
        <ele>39.8</ele>
        <time>2020-08-13T16:16:50Z</time>
      </trkpt>
      <trkpt lat="48.702642" lon="-3.987509">
        <ele>39.8</ele>
        <time>2020-08-13T16:16:52Z</time>
      </trkpt>
      <trkpt lat="48.702561" lon="-3.98748">
        <ele>40.0</ele>
        <time>2020-08-13T16:16:53Z</time>
      </trkpt>
      <trkpt lat="48.70204" lon="-3.987187">
        <ele>39.4</ele>
        <time>2020-08-13T16:16:59Z</time>
      </trkpt>
      <trkpt lat="48.7019" lon="-3.987168">
        <ele>39.4</ele>
        <time>2020-08-13T16:17:01Z</time>
      </trkpt>
      <trkpt lat="48.701106" lon="-3.98733">
        <ele>38.2</ele>
        <time>2020-08-13T16:17:10Z</time>
      </trkpt>
      <trkpt lat="48.700721" lon="-3.987333">
        <ele>38.0</ele>
        <time>2020-08-13T16:17:15Z</time>
      </trkpt>
      <trkpt lat="48.699909" lon="-3.987159">
        <ele>37.6</ele>
        <time>2020-08-13T16:17:25Z</time>
      </trkpt>
      <trkpt lat="48.69869" lon="-3.98686">
        <ele>38.0</ele>
        <time>2020-08-13T16:17:40Z</time>
      </trkpt>
      <trkpt lat="48.698494" lon="-3.986833">
        <ele>38.0</ele>
        <time>2020-08-13T16:17:42Z</time>
      </trkpt>
      <trkpt lat="48.697981" lon="-3.986857">
        <ele>37.6</ele>
        <time>2020-08-13T16:17:48Z</time>
      </trkpt>
      <trkpt lat="48.697668" lon="-3.986919">
        <ele>37.6</ele>
        <time>2020-08-13T16:17:52Z</time>
      </trkpt>
      <trkpt lat="48.697282" lon="-3.987066">
        <ele>37.2</ele>
        <time>2020-08-13T16:17:57Z</time>
      </trkpt>
      <trkpt lat="48.697174" lon="-3.987118">
        <ele>37.2</ele>
        <time>2020-08-13T16:17:58Z</time>
      </trkpt>
      <trkpt lat="48.696654" lon="-3.987471">
        <ele>37.8</ele>
        <time>2020-08-13T16:18:05Z</time>
      </trkpt>
      <trkpt lat="48.696361" lon="-3.987628">
        <ele>40.0</ele>
        <time>2020-08-13T16:18:09Z</time>
      </trkpt>
      <trkpt lat="48.69537" lon="-3.987964">
        <ele>41.6</ele>
        <time>2020-08-13T16:18:21Z</time>
      </trkpt>
      <trkpt lat="48.693922" lon="-3.988581">
        <ele>46.8</ele>
        <time>2020-08-13T16:18:39Z</time>
      </trkpt>
      <trkpt lat="48.693554" lon="-3.988698">
        <ele>46.8</ele>
        <time>2020-08-13T16:18:43Z</time>
      </trkpt>
      <trkpt lat="48.692799" lon="-3.988821">
        <ele>48.6</ele>
        <time>2020-08-13T16:18:53Z</time>
      </trkpt>
      <trkpt lat="48.692037" lon="-3.988997">
        <ele>49.8</ele>
        <time>2020-08-13T16:19:02Z</time>
      </trkpt>
      <trkpt lat="48.691506" lon="-3.989049">
        <ele>51.2</ele>
        <time>2020-08-13T16:19:08Z</time>
      </trkpt>
      <trkpt lat="48.690855" lon="-3.98916">
        <ele>51.2</ele>
        <time>2020-08-13T16:19:16Z</time>
      </trkpt>
      <trkpt lat="48.690692" lon="-3.989147">
        <ele>51.4</ele>
        <time>2020-08-13T16:19:18Z</time>
      </trkpt>
      <trkpt lat="48.69029" lon="-3.989032">
        <ele>51.4</ele>
        <time>2020-08-13T16:19:23Z</time>
      </trkpt>
      <trkpt lat="48.690225" lon="-3.989044">
        <ele>51.4</ele>
        <time>2020-08-13T16:19:24Z</time>
      </trkpt>
      <trkpt lat="48.690189" lon="-3.989016">
        <ele>51.4</ele>
        <time>2020-08-13T16:19:24Z</time>
      </trkpt>
      <trkpt lat="48.690017" lon="-3.9888">
        <ele>51.4</ele>
        <time>2020-08-13T16:19:27Z</time>
      </trkpt>
      <trkpt lat="48.689873" lon="-3.988865">
        <ele>50.2</ele>
        <time>2020-08-13T16:19:29Z</time>
      </trkpt>
      <trkpt lat="48.689794" lon="-3.988868">
        <ele>50.2</ele>
        <time>2020-08-13T16:19:30Z</time>
      </trkpt>
      <trkpt lat="48.689011" lon="-3.98874">
        <ele>49.8</ele>
        <time>2020-08-13T16:19:41Z</time>
      </trkpt>
      <trkpt lat="48.687136" lon="-3.988116">
        <ele>46.2</ele>
        <time>2020-08-13T16:20:06Z</time>
      </trkpt>
      <trkpt lat="48.68698" lon="-3.988092">
        <ele>46.2</ele>
        <time>2020-08-13T16:20:08Z</time>
      </trkpt>
      <trkpt lat="48.685971" lon="-3.988122">
        <ele>42.2</ele>
        <time>2020-08-13T16:20:21Z</time>
      </trkpt>
      <trkpt lat="48.685871" lon="-3.98799">
        <ele>42.2</ele>
        <time>2020-08-13T16:20:23Z</time>
      </trkpt>
      <trkpt lat="48.68541" lon="-3.987576">
        <ele>39.2</ele>
        <time>2020-08-13T16:20:32Z</time>
      </trkpt>
      <trkpt lat="48.685371" lon="-3.987499">
        <ele>40.6</ele>
        <time>2020-08-13T16:20:33Z</time>
      </trkpt>
      <trkpt lat="48.685327" lon="-3.987512">
        <ele>39.2</ele>
        <time>2020-08-13T16:20:33Z</time>
      </trkpt>
      <trkpt lat="48.684996" lon="-3.987397">
        <ele>38.0</ele>
        <time>2020-08-13T16:20:38Z</time>
      </trkpt>
      <trkpt lat="48.684957" lon="-3.987431">
        <ele>38.0</ele>
        <time>2020-08-13T16:20:38Z</time>
      </trkpt>
      <trkpt lat="48.684919" lon="-3.987401">
        <ele>38.0</ele>
        <time>2020-08-13T16:20:39Z</time>
      </trkpt>
      <trkpt lat="48.684912" lon="-3.987341">
        <ele>38.0</ele>
        <time>2020-08-13T16:20:39Z</time>
      </trkpt>
      <trkpt lat="48.68494" lon="-3.987297">
        <ele>38.0</ele>
        <time>2020-08-13T16:20:40Z</time>
      </trkpt>
      <trkpt lat="48.684879" lon="-3.987124">
        <ele>38.0</ele>
        <time>2020-08-13T16:20:42Z</time>
      </trkpt>
      <trkpt lat="48.684639" lon="-3.986621">
        <ele>38.8</ele>
        <time>2020-08-13T16:20:47Z</time>
      </trkpt>
      <trkpt lat="48.68458" lon="-3.98654">
        <ele>38.8</ele>
        <time>2020-08-13T16:20:48Z</time>
      </trkpt>
      <trkpt lat="48.68454" lon="-3.986518">
        <ele>38.8</ele>
        <time>2020-08-13T16:20:49Z</time>
      </trkpt>
      <trkpt lat="48.68439" lon="-3.986533">
        <ele>38.8</ele>
        <time>2020-08-13T16:20:51Z</time>
      </trkpt>
      <trkpt lat="48.683047" lon="-3.986985">
        <ele>30.4</ele>
        <time>2020-08-13T16:21:09Z</time>
      </trkpt>
      <trkpt lat="48.682229" lon="-3.984681">
        <ele>29.0</ele>
        <time>2020-08-13T16:21:19Z</time>
      </trkpt>
      <trkpt lat="48.681931" lon="-3.983782">
        <ele>28.0</ele>
        <time>2020-08-13T16:21:23Z</time>
      </trkpt>
      <trkpt lat="48.681897" lon="-3.983722">
        <ele>28.0</ele>
        <time>2020-08-13T16:21:23Z</time>
      </trkpt>
      <trkpt lat="48.681844" lon="-3.983675">
        <ele>28.0</ele>
        <time>2020-08-13T16:21:23Z</time>
      </trkpt>
      <trkpt lat="48.681754" lon="-3.98368">
        <ele>28.0</ele>
        <time>2020-08-13T16:21:24Z</time>
      </trkpt>
      <trkpt lat="48.681585" lon="-3.983745">
        <ele>25.6</ele>
        <time>2020-08-13T16:21:25Z</time>
      </trkpt>
      <trkpt lat="48.681495" lon="-3.983755">
        <ele>25.6</ele>
        <time>2020-08-13T16:21:25Z</time>
      </trkpt>
      <trkpt lat="48.681361" lon="-3.983736">
        <ele>25.6</ele>
        <time>2020-08-13T16:21:26Z</time>
      </trkpt>
      <trkpt lat="48.681222" lon="-3.98366">
        <ele>25.6</ele>
        <time>2020-08-13T16:21:27Z</time>
      </trkpt>
      <trkpt lat="48.679813" lon="-3.982208">
        <ele>25.0</ele>
        <time>2020-08-13T16:21:37Z</time>
      </trkpt>
      <trkpt lat="48.679626" lon="-3.982046">
        <ele>25.0</ele>
        <time>2020-08-13T16:21:38Z</time>
      </trkpt>
      <trkpt lat="48.678346" lon="-3.981244">
        <ele>24.8</ele>
        <time>2020-08-13T16:21:46Z</time>
      </trkpt>
      <trkpt lat="48.678135" lon="-3.981162">
        <ele>19.0</ele>
        <time>2020-08-13T16:21:47Z</time>
      </trkpt>
      <trkpt lat="48.677235" lon="-3.981005">
        <ele>16.0</ele>
        <time>2020-08-13T16:21:53Z</time>
      </trkpt>
      <trkpt lat="48.676795" lon="-3.980906">
        <ele>16.0</ele>
        <time>2020-08-13T16:21:55Z</time>
      </trkpt>
      <trkpt lat="48.676302" lon="-3.980737">
        <ele>16.4</ele>
        <time>2020-08-13T16:21:58Z</time>
      </trkpt>
      <trkpt lat="48.676102" lon="-3.980697">
        <ele>16.4</ele>
        <time>2020-08-13T16:21:59Z</time>
      </trkpt>
      <trkpt lat="48.675846" lon="-3.980724">
        <ele>16.4</ele>
        <time>2020-08-13T16:22:01Z</time>
      </trkpt>
      <trkpt lat="48.675078" lon="-3.980987">
        <ele>18.0</ele>
        <time>2020-08-13T16:22:05Z</time>
      </trkpt>
      <trkpt lat="48.67482" lon="-3.98102">
        <ele>19.0</ele>
        <time>2020-08-13T16:22:07Z</time>
      </trkpt>
      <trkpt lat="48.674456" lon="-3.980975">
        <ele>19.0</ele>
        <time>2020-08-13T16:22:09Z</time>
      </trkpt>
      <trkpt lat="48.673815" lon="-3.980618">
        <ele>17.8</ele>
        <time>2020-08-13T16:22:13Z</time>
      </trkpt>
      <trkpt lat="48.673418" lon="-3.980362">
        <ele>17.8</ele>
        <time>2020-08-13T16:22:16Z</time>
      </trkpt>
      <trkpt lat="48.673055" lon="-3.980196">
        <ele>18.2</ele>
        <time>2020-08-13T16:22:18Z</time>
      </trkpt>
      <trkpt lat="48.671627" lon="-3.979766">
        <ele>21.0</ele>
        <time>2020-08-13T16:22:26Z</time>
      </trkpt>
      <trkpt lat="48.671199" lon="-3.97959">
        <ele>21.0</ele>
        <time>2020-08-13T16:22:29Z</time>
      </trkpt>
      <trkpt lat="48.670047" lon="-3.978874">
        <ele>22.2</ele>
        <time>2020-08-13T16:22:36Z</time>
      </trkpt>
      <trkpt lat="48.669528" lon="-3.978461">
        <ele>26.4</ele>
        <time>2020-08-13T16:22:39Z</time>
      </trkpt>
      <trkpt lat="48.66902" lon="-3.977924">
        <ele>24.0</ele>
        <time>2020-08-13T16:22:43Z</time>
      </trkpt>
      <trkpt lat="48.668587" lon="-3.977602">
        <ele>24.0</ele>
        <time>2020-08-13T16:22:46Z</time>
      </trkpt>
      <trkpt lat="48.668358" lon="-3.97745">
        <ele>20.2</ele>
        <time>2020-08-13T16:22:47Z</time>
      </trkpt>
      <trkpt lat="48.667945" lon="-3.97725">
        <ele>18.2</ele>
        <time>2020-08-13T16:22:50Z</time>
      </trkpt>
      <trkpt lat="48.667784" lon="-3.977194">
        <ele>18.2</ele>
        <time>2020-08-13T16:22:51Z</time>
      </trkpt>
      <trkpt lat="48.667317" lon="-3.977114">
        <ele>16.8</ele>
        <time>2020-08-13T16:22:53Z</time>
      </trkpt>
      <trkpt lat="48.667091" lon="-3.977101">
        <ele>16.8</ele>
        <time>2020-08-13T16:22:55Z</time>
      </trkpt>
      <trkpt lat="48.666314" lon="-3.977139">
        <ele>16.2</ele>
        <time>2020-08-13T16:22:59Z</time>
      </trkpt>
      <trkpt lat="48.665861" lon="-3.977028">
        <ele>16.2</ele>
        <time>2020-08-13T16:23:02Z</time>
      </trkpt>
      <trkpt lat="48.663574" lon="-3.976281">
        <ele>16.2</ele>
        <time>2020-08-13T16:23:16Z</time>
      </trkpt>
      <trkpt lat="48.662762" lon="-3.976062">
        <ele>18.2</ele>
        <time>2020-08-13T16:23:20Z</time>
      </trkpt>
      <trkpt lat="48.662279" lon="-3.976019">
        <ele>22.4</ele>
        <time>2020-08-13T16:23:23Z</time>
      </trkpt>
      <trkpt lat="48.66107" lon="-3.976056">
        <ele>27.8</ele>
        <time>2020-08-13T16:23:30Z</time>
      </trkpt>
      <trkpt lat="48.660329" lon="-3.976053">
        <ele>33.2</ele>
        <time>2020-08-13T16:23:34Z</time>
      </trkpt>
      <trkpt lat="48.659891" lon="-3.976014">
        <ele>38.2</ele>
        <time>2020-08-13T16:23:37Z</time>
      </trkpt>
      <trkpt lat="48.658898" lon="-3.975781">
        <ele>42.6</ele>
        <time>2020-08-13T16:23:43Z</time>
      </trkpt>
      <trkpt lat="48.656838" lon="-3.975216">
        <ele>41.8</ele>
        <time>2020-08-13T16:23:55Z</time>
      </trkpt>
      <trkpt lat="48.65481" lon="-3.974057">
        <ele>41.0</ele>
        <time>2020-08-13T16:24:08Z</time>
      </trkpt>
      <trkpt lat="48.653351" lon="-3.973274">
        <ele>41.8</ele>
        <time>2020-08-13T16:24:17Z</time>
      </trkpt>
      <trkpt lat="48.652862" lon="-3.973051">
        <ele>42.2</ele>
        <time>2020-08-13T16:24:19Z</time>
      </trkpt>
      <trkpt lat="48.649528" lon="-3.971705">
        <ele>48.2</ele>
        <time>2020-08-13T16:24:39Z</time>
      </trkpt>
      <trkpt lat="48.649059" lon="-3.971476">
        <ele>52.0</ele>
        <time>2020-08-13T16:24:42Z</time>
      </trkpt>
      <trkpt lat="48.648879" lon="-3.971322">
        <ele>52.0</ele>
        <time>2020-08-13T16:24:44Z</time>
      </trkpt>
      <trkpt lat="48.648471" lon="-3.970888">
        <ele>52.0</ele>
        <time>2020-08-13T16:24:46Z</time>
      </trkpt>
      <trkpt lat="48.648345" lon="-3.970789">
        <ele>53.0</ele>
        <time>2020-08-13T16:24:47Z</time>
      </trkpt>
      <trkpt lat="48.648053" lon="-3.970619">
        <ele>54.0</ele>
        <time>2020-08-13T16:24:49Z</time>
      </trkpt>
      <trkpt lat="48.647344" lon="-3.970265">
        <ele>54.2</ele>
        <time>2020-08-13T16:24:53Z</time>
      </trkpt>
      <trkpt lat="48.647111" lon="-3.970177">
        <ele>54.2</ele>
        <time>2020-08-13T16:24:55Z</time>
      </trkpt>
      <trkpt lat="48.645741" lon="-3.969904">
        <ele>55.6</ele>
        <time>2020-08-13T16:25:03Z</time>
      </trkpt>
      <trkpt lat="48.645293" lon="-3.969921">
        <ele>55.6</ele>
        <time>2020-08-13T16:25:05Z</time>
      </trkpt>
      <trkpt lat="48.644909" lon="-3.969963">
        <ele>58.2</ele>
        <time>2020-08-13T16:25:08Z</time>
      </trkpt>
      <trkpt lat="48.644639" lon="-3.969938">
        <ele>58.2</ele>
        <time>2020-08-13T16:25:09Z</time>
      </trkpt>
      <trkpt lat="48.642077" lon="-3.969045">
        <ele>61.8</ele>
        <time>2020-08-13T16:25:24Z</time>
      </trkpt>
      <trkpt lat="48.64169" lon="-3.968937">
        <ele>61.8</ele>
        <time>2020-08-13T16:25:27Z</time>
      </trkpt>
      <trkpt lat="48.641127" lon="-3.968862">
        <ele>62.2</ele>
        <time>2020-08-13T16:25:30Z</time>
      </trkpt>
      <trkpt lat="48.639974" lon="-3.968784">
        <ele>60.0</ele>
        <time>2020-08-13T16:25:37Z</time>
      </trkpt>
      <trkpt lat="48.639774" lon="-3.968794">
        <ele>60.0</ele>
        <time>2020-08-13T16:25:38Z</time>
      </trkpt>
      <trkpt lat="48.639506" lon="-3.96884">
        <ele>60.0</ele>
        <time>2020-08-13T16:25:39Z</time>
      </trkpt>
      <trkpt lat="48.639131" lon="-3.968932">
        <ele>58.2</ele>
        <time>2020-08-13T16:25:42Z</time>
      </trkpt>
      <trkpt lat="48.639033" lon="-3.968977">
        <ele>58.2</ele>
        <time>2020-08-13T16:25:42Z</time>
      </trkpt>
      <trkpt lat="48.639041" lon="-3.968697">
        <ele>58.2</ele>
        <time>2020-08-13T16:25:43Z</time>
      </trkpt>
      <trkpt lat="48.639137" lon="-3.967883">
        <ele>56.0</ele>
        <time>2020-08-13T16:25:47Z</time>
      </trkpt>
      <trkpt lat="48.639186" lon="-3.967694">
        <ele>58.4</ele>
        <time>2020-08-13T16:25:47Z</time>
      </trkpt>
      <trkpt lat="48.639863" lon="-3.96593">
        <ele>56.8</ele>
        <time>2020-08-13T16:25:55Z</time>
      </trkpt>
      <trkpt lat="48.639996" lon="-3.965525">
        <ele>56.8</ele>
        <time>2020-08-13T16:25:57Z</time>
      </trkpt>
      <trkpt lat="48.640039" lon="-3.965301">
        <ele>57.8</ele>
        <time>2020-08-13T16:25:57Z</time>
      </trkpt>
      <trkpt lat="48.640039" lon="-3.964835">
        <ele>57.0</ele>
        <time>2020-08-13T16:25:59Z</time>
      </trkpt>
      <trkpt lat="48.639927" lon="-3.964184">
        <ele>56.6</ele>
        <time>2020-08-13T16:26:02Z</time>
      </trkpt>
      <trkpt lat="48.639482" lon="-3.962127">
        <ele>52.4</ele>
        <time>2020-08-13T16:26:10Z</time>
      </trkpt>
      <trkpt lat="48.639393" lon="-3.96157">
        <ele>49.4</ele>
        <time>2020-08-13T16:26:12Z</time>
      </trkpt>
      <trkpt lat="48.639361" lon="-3.961037">
        <ele>49.4</ele>
        <time>2020-08-13T16:26:14Z</time>
      </trkpt>
      <trkpt lat="48.6394" lon="-3.960015">
        <ele>46.8</ele>
        <time>2020-08-13T16:26:18Z</time>
      </trkpt>
      <trkpt lat="48.639499" lon="-3.958186">
        <ele>36.0</ele>
        <time>2020-08-13T16:26:24Z</time>
      </trkpt>
      <trkpt lat="48.639586" lon="-3.957564">
        <ele>36.0</ele>
        <time>2020-08-13T16:26:27Z</time>
      </trkpt>
      <trkpt lat="48.639678" lon="-3.957178">
        <ele>32.4</ele>
        <time>2020-08-13T16:26:28Z</time>
      </trkpt>
      <trkpt lat="48.639727" lon="-3.957038">
        <ele>32.4</ele>
        <time>2020-08-13T16:26:29Z</time>
      </trkpt>
      <trkpt lat="48.639945" lon="-3.956675">
        <ele>32.4</ele>
        <time>2020-08-13T16:26:31Z</time>
      </trkpt>
      <trkpt lat="48.640054" lon="-3.956542">
        <ele>32.8</ele>
        <time>2020-08-13T16:26:32Z</time>
      </trkpt>
      <trkpt lat="48.640292" lon="-3.956324">
        <ele>32.8</ele>
        <time>2020-08-13T16:26:33Z</time>
      </trkpt>
      <trkpt lat="48.641309" lon="-3.955479">
        <ele>32.4</ele>
        <time>2020-08-13T16:26:40Z</time>
      </trkpt>
      <trkpt lat="48.641591" lon="-3.955199">
        <ele>32.4</ele>
        <time>2020-08-13T16:26:41Z</time>
      </trkpt>
      <trkpt lat="48.64183" lon="-3.954911">
        <ele>29.2</ele>
        <time>2020-08-13T16:26:43Z</time>
      </trkpt>
      <trkpt lat="48.643067" lon="-3.953139">
        <ele>20.8</ele>
        <time>2020-08-13T16:26:53Z</time>
      </trkpt>
      <trkpt lat="48.643202" lon="-3.952986">
        <ele>20.8</ele>
        <time>2020-08-13T16:26:54Z</time>
      </trkpt>
      <trkpt lat="48.643385" lon="-3.952868">
        <ele>18.4</ele>
        <time>2020-08-13T16:26:55Z</time>
      </trkpt>
      <trkpt lat="48.643631" lon="-3.952794">
        <ele>18.4</ele>
        <time>2020-08-13T16:26:56Z</time>
      </trkpt>
      <trkpt lat="48.643796" lon="-3.952799">
        <ele>18.4</ele>
        <time>2020-08-13T16:26:57Z</time>
      </trkpt>
      <trkpt lat="48.643974" lon="-3.952864">
        <ele>18.4</ele>
        <time>2020-08-13T16:26:58Z</time>
      </trkpt>
      <trkpt lat="48.644208" lon="-3.953048">
        <ele>14.8</ele>
        <time>2020-08-13T16:27:00Z</time>
      </trkpt>
      <trkpt lat="48.644321" lon="-3.953182">
        <ele>14.8</ele>
        <time>2020-08-13T16:27:01Z</time>
      </trkpt>
      <trkpt lat="48.644488" lon="-3.953225">
        <ele>14.8</ele>
        <time>2020-08-13T16:27:01Z</time>
      </trkpt>
      <trkpt lat="48.644648" lon="-3.953231">
        <ele>14.8</ele>
        <time>2020-08-13T16:27:03Z</time>
      </trkpt>
      <trkpt lat="48.64486" lon="-3.949912">
        <ele>6.33</ele>
        <time>2020-08-13T16:27:18Z</time>
      </trkpt>
      <trkpt lat="48.645005" lon="-3.947327">
        <ele>15.4</ele>
        <time>2020-08-13T16:27:29Z</time>
      </trkpt>
      <trkpt lat="48.644965" lon="-3.947259">
        <ele>14.4</ele>
        <time>2020-08-13T16:27:30Z</time>
      </trkpt>
      <trkpt lat="48.644921" lon="-3.947081">
        <ele>14.4</ele>
        <time>2020-08-13T16:27:31Z</time>
      </trkpt>
      <trkpt lat="48.644936" lon="-3.946891">
        <ele>14.4</ele>
        <time>2020-08-13T16:27:33Z</time>
      </trkpt>
      <trkpt lat="48.645004" lon="-3.946739">
        <ele>15.4</ele>
        <time>2020-08-13T16:27:34Z</time>
      </trkpt>
      <trkpt lat="48.64511" lon="-3.94665">
        <ele>18.4</ele>
        <time>2020-08-13T16:27:35Z</time>
      </trkpt>
      <trkpt lat="48.645207" lon="-3.946637">
        <ele>18.4</ele>
        <time>2020-08-13T16:27:36Z</time>
      </trkpt>
      <trkpt lat="48.6453" lon="-3.946677">
        <ele>15.4</ele>
        <time>2020-08-13T16:27:37Z</time>
      </trkpt>
      <trkpt lat="48.645404" lon="-3.94682">
        <ele>15.4</ele>
        <time>2020-08-13T16:27:39Z</time>
      </trkpt>
      <trkpt lat="48.645737" lon="-3.946829">
        <ele>15.4</ele>
        <time>2020-08-13T16:27:42Z</time>
      </trkpt>
      <trkpt lat="48.645847" lon="-3.94665">
        <ele>18.8</ele>
        <time>2020-08-13T16:27:43Z</time>
      </trkpt>
      <trkpt lat="48.647004" lon="-3.94442">
        <ele>25.2</ele>
        <time>2020-08-13T16:27:57Z</time>
      </trkpt>
      <trkpt lat="48.648598" lon="-3.941293">
        <ele>38.2</ele>
        <time>2020-08-13T16:28:17Z</time>
      </trkpt>
      <trkpt lat="48.648874" lon="-3.94063">
        <ele>39.6</ele>
        <time>2020-08-13T16:28:21Z</time>
      </trkpt>
      <trkpt lat="48.648981" lon="-3.940311">
        <ele>39.6</ele>
        <time>2020-08-13T16:28:23Z</time>
      </trkpt>
      <trkpt lat="48.649148" lon="-3.939713">
        <ele>40.8</ele>
        <time>2020-08-13T16:28:26Z</time>
      </trkpt>
      <trkpt lat="48.649328" lon="-3.938948">
        <ele>40.8</ele>
        <time>2020-08-13T16:28:30Z</time>
      </trkpt>
      <trkpt lat="48.64953" lon="-3.937976">
        <ele>40.0</ele>
        <time>2020-08-13T16:28:35Z</time>
      </trkpt>
      <trkpt lat="48.649884" lon="-3.936401">
        <ele>38.8</ele>
        <time>2020-08-13T16:28:44Z</time>
      </trkpt>
      <trkpt lat="48.650043" lon="-3.935783">
        <ele>36.6</ele>
        <time>2020-08-13T16:28:47Z</time>
      </trkpt>
      <trkpt lat="48.650358" lon="-3.934736">
        <ele>35.0</ele>
        <time>2020-08-13T16:28:53Z</time>
      </trkpt>
      <trkpt lat="48.650647" lon="-3.933897">
        <ele>34.0</ele>
        <time>2020-08-13T16:28:58Z</time>
      </trkpt>
      <trkpt lat="48.651586" lon="-3.931618">
        <ele>24.2</ele>
        <time>2020-08-13T16:29:11Z</time>
      </trkpt>
      <trkpt lat="48.651681" lon="-3.93135">
        <ele>21.0</ele>
        <time>2020-08-13T16:29:13Z</time>
      </trkpt>
      <trkpt lat="48.651829" lon="-3.930801">
        <ele>19.2</ele>
        <time>2020-08-13T16:29:16Z</time>
      </trkpt>
      <trkpt lat="48.651882" lon="-3.930529">
        <ele>19.2</ele>
        <time>2020-08-13T16:29:17Z</time>
      </trkpt>
      <trkpt lat="48.651958" lon="-3.929959">
        <ele>18.0</ele>
        <time>2020-08-13T16:29:20Z</time>
      </trkpt>
      <trkpt lat="48.651984" lon="-3.929573">
        <ele>18.0</ele>
        <time>2020-08-13T16:29:22Z</time>
      </trkpt>
      <trkpt lat="48.651987" lon="-3.929174">
        <ele>18.0</ele>
        <time>2020-08-13T16:29:24Z</time>
      </trkpt>
      <trkpt lat="48.651792" lon="-3.924507">
        <ele>24.4</ele>
        <time>2020-08-13T16:29:47Z</time>
      </trkpt>
      <trkpt lat="48.651798" lon="-3.923806">
        <ele>26.6</ele>
        <time>2020-08-13T16:29:51Z</time>
      </trkpt>
      <trkpt lat="48.651838" lon="-3.923268">
        <ele>28.0</ele>
        <time>2020-08-13T16:29:54Z</time>
      </trkpt>
      <trkpt lat="48.651828" lon="-3.922937">
        <ele>28.0</ele>
        <time>2020-08-13T16:29:55Z</time>
      </trkpt>
      <trkpt lat="48.651811" lon="-3.922884">
        <ele>28.0</ele>
        <time>2020-08-13T16:29:56Z</time>
      </trkpt>
      <trkpt lat="48.651815" lon="-3.922768">
        <ele>28.0</ele>
        <time>2020-08-13T16:29:56Z</time>
      </trkpt>
      <trkpt lat="48.651936" lon="-3.922341">
        <ele>29.8</ele>
        <time>2020-08-13T16:30:00Z</time>
      </trkpt>
      <trkpt lat="48.651967" lon="-3.921636">
        <ele>31.6</ele>
        <time>2020-08-13T16:30:04Z</time>
      </trkpt>
      <trkpt lat="48.65197" lon="-3.921086">
        <ele>31.6</ele>
        <time>2020-08-13T16:30:08Z</time>
      </trkpt>
      <trkpt lat="48.651944" lon="-3.920553">
        <ele>33.8</ele>
        <time>2020-08-13T16:30:12Z</time>
      </trkpt>
      <trkpt lat="48.651717" lon="-3.917454">
        <ele>41.4</ele>
        <time>2020-08-13T16:30:33Z</time>
      </trkpt>
      <trkpt lat="48.651732" lon="-3.916838">
        <ele>41.4</ele>
        <time>2020-08-13T16:30:37Z</time>
      </trkpt>
      <trkpt lat="48.651959" lon="-3.914541">
        <ele>46.2</ele>
        <time>2020-08-13T16:30:53Z</time>
      </trkpt>
      <trkpt lat="48.651969" lon="-3.914104">
        <ele>46.4</ele>
        <time>2020-08-13T16:30:56Z</time>
      </trkpt>
      <trkpt lat="48.65192" lon="-3.91285">
        <ele>46.8</ele>
        <time>2020-08-13T16:31:04Z</time>
      </trkpt>
      <trkpt lat="48.65236" lon="-3.912812">
        <ele>46.8</ele>
        <time>2020-08-13T16:31:12Z</time>
      </trkpt>
      <trkpt lat="48.652513" lon="-3.91284">
        <ele>47.6</ele>
        <time>2020-08-13T16:31:15Z</time>
      </trkpt>
      <trkpt lat="48.652839" lon="-3.912993">
        <ele>47.6</ele>
        <time>2020-08-13T16:31:21Z</time>
      </trkpt>
      <trkpt lat="48.653048" lon="-3.913142">
        <ele>47.6</ele>
        <time>2020-08-13T16:31:26Z</time>
      </trkpt>
      <trkpt lat="48.653367" lon="-3.913629">
        <ele>49.4</ele>
        <time>2020-08-13T16:31:34Z</time>
      </trkpt>
      <trkpt lat="48.65367" lon="-3.913997">
        <ele>49.4</ele>
        <time>2020-08-13T16:31:41Z</time>
      </trkpt>
      <trkpt lat="48.654078" lon="-3.914279">
        <ele>46.2</ele>
        <time>2020-08-13T16:31:49Z</time>
      </trkpt>
      <trkpt lat="48.654414" lon="-3.914596">
        <ele>49.8</ele>
        <time>2020-08-13T16:31:57Z</time>
      </trkpt>
      <trkpt lat="48.654552" lon="-3.91464">
        <ele>49.8</ele>
        <time>2020-08-13T16:31:59Z</time>
      </trkpt>
      <trkpt lat="48.654617" lon="-3.91487">
        <ele>49.8</ele>
        <time>2020-08-13T16:32:02Z</time>
      </trkpt>
      <trkpt lat="48.654708" lon="-3.915035">
        <ele>45.4</ele>
        <time>2020-08-13T16:32:05Z</time>
      </trkpt>
      <trkpt lat="48.655137" lon="-3.91568">
        <ele>49.2</ele>
        <time>2020-08-13T16:32:16Z</time>
      </trkpt>
      <trkpt lat="48.655523" lon="-3.916347">
        <ele>45.4</ele>
        <time>2020-08-13T16:32:27Z</time>
      </trkpt>
      <trkpt lat="48.65563" lon="-3.916616">
        <ele>45.4</ele>
        <time>2020-08-13T16:32:31Z</time>
      </trkpt>
      <trkpt lat="48.65572" lon="-3.916921">
        <ele>41.8</ele>
        <time>2020-08-13T16:32:35Z</time>
      </trkpt>
      <trkpt lat="48.655794" lon="-3.917338">
        <ele>41.8</ele>
        <time>2020-08-13T16:32:40Z</time>
      </trkpt>
      <trkpt lat="48.655846" lon="-3.917911">
        <ele>44.2</ele>
        <time>2020-08-13T16:32:47Z</time>
      </trkpt>
      <trkpt lat="48.65592" lon="-3.918301">
        <ele>44.2</ele>
        <time>2020-08-13T16:32:52Z</time>
      </trkpt>
      <trkpt lat="48.656032" lon="-3.918692">
        <ele>40.2</ele>
        <time>2020-08-13T16:32:57Z</time>
      </trkpt>
      <trkpt lat="48.656188" lon="-3.919">
        <ele>40.2</ele>
        <time>2020-08-13T16:33:02Z</time>
      </trkpt>
      <trkpt lat="48.656362" lon="-3.919211">
        <ele>36.0</ele>
        <time>2020-08-13T16:33:06Z</time>
      </trkpt>
      <trkpt lat="48.656967" lon="-3.919832">
        <ele>40.2</ele>
        <time>2020-08-13T16:33:21Z</time>
      </trkpt>
      <trkpt lat="48.657037" lon="-3.919797">
        <ele>40.2</ele>
        <time>2020-08-13T16:33:21Z</time>
      </trkpt>
      <trkpt lat="48.657099" lon="-3.919859">
        <ele>40.2</ele>
        <time>2020-08-13T16:33:22Z</time>
      </trkpt>
      <trkpt lat="48.657543" lon="-3.919532">
        <ele>43.4</ele>
        <time>2020-08-13T16:33:27Z</time>
      </trkpt>
      <trkpt lat="48.657728" lon="-3.919433">
        <ele>43.4</ele>
        <time>2020-08-13T16:33:29Z</time>
      </trkpt>
      <trkpt lat="48.658099" lon="-3.919284">
        <ele>43.4</ele>
        <time>2020-08-13T16:33:33Z</time>
      </trkpt>
      <trkpt lat="48.65839" lon="-3.919211">
        <ele>46.2</ele>
        <time>2020-08-13T16:33:36Z</time>
      </trkpt>
      <trkpt lat="48.6586" lon="-3.919187">
        <ele>46.2</ele>
        <time>2020-08-13T16:33:38Z</time>
      </trkpt>
      <trkpt lat="48.658908" lon="-3.91919">
        <ele>46.2</ele>
        <time>2020-08-13T16:33:41Z</time>
      </trkpt>
      <trkpt lat="48.659497" lon="-3.919285">
        <ele>47.8</ele>
        <time>2020-08-13T16:33:47Z</time>
      </trkpt>
      <trkpt lat="48.65966" lon="-3.919291">
        <ele>47.8</ele>
        <time>2020-08-13T16:33:49Z</time>
      </trkpt>
      <trkpt lat="48.659669" lon="-3.919256">
        <ele>47.8</ele>
        <time>2020-08-13T16:33:49Z</time>
      </trkpt>
      <trkpt lat="48.659709" lon="-3.919214">
        <ele>47.8</ele>
        <time>2020-08-13T16:33:50Z</time>
      </trkpt>
      <trkpt lat="48.659735" lon="-3.919213">
        <ele>47.8</ele>
        <time>2020-08-13T16:33:50Z</time>
      </trkpt>
      <trkpt lat="48.659758" lon="-3.919226">
        <ele>47.8</ele>
        <time>2020-08-13T16:33:50Z</time>
      </trkpt>
      <trkpt lat="48.659787" lon="-3.919286">
        <ele>47.8</ele>
        <time>2020-08-13T16:33:51Z</time>
      </trkpt>
      <trkpt lat="48.659789" lon="-3.919324">
        <ele>47.8</ele>
        <time>2020-08-13T16:33:51Z</time>
      </trkpt>
      <trkpt lat="48.660864" lon="-3.919574">
        <ele>48.6</ele>
        <time>2020-08-13T16:34:02Z</time>
      </trkpt>
      <trkpt lat="48.661133" lon="-3.919608">
        <ele>48.6</ele>
        <time>2020-08-13T16:34:05Z</time>
      </trkpt>
      <trkpt lat="48.661219" lon="-3.919599">
        <ele>48.6</ele>
        <time>2020-08-13T16:34:06Z</time>
      </trkpt>
      <trkpt lat="48.661244" lon="-3.919515">
        <ele>48.6</ele>
        <time>2020-08-13T16:34:07Z</time>
      </trkpt>
      <trkpt lat="48.661269" lon="-3.919488">
        <ele>48.6</ele>
        <time>2020-08-13T16:34:07Z</time>
      </trkpt>
      <trkpt lat="48.66133" lon="-3.919479">
        <ele>48.6</ele>
        <time>2020-08-13T16:34:08Z</time>
      </trkpt>
      <trkpt lat="48.66138" lon="-3.919528">
        <ele>48.6</ele>
        <time>2020-08-13T16:34:08Z</time>
      </trkpt>
      <trkpt lat="48.661595" lon="-3.919203">
        <ele>48.6</ele>
        <time>2020-08-13T16:34:11Z</time>
      </trkpt>
      <trkpt lat="48.661761" lon="-3.918884">
        <ele>48.8</ele>
        <time>2020-08-13T16:34:14Z</time>
      </trkpt>
      <trkpt lat="48.66202" lon="-3.918507">
        <ele>48.8</ele>
        <time>2020-08-13T16:34:18Z</time>
      </trkpt>
      <trkpt lat="48.662518" lon="-3.917625">
        <ele>48.0</ele>
        <time>2020-08-13T16:34:26Z</time>
      </trkpt>
      <trkpt lat="48.662705" lon="-3.91734">
        <ele>49.4</ele>
        <time>2020-08-13T16:34:28Z</time>
      </trkpt>
      <trkpt lat="48.662826" lon="-3.917259">
        <ele>49.4</ele>
        <time>2020-08-13T16:34:30Z</time>
      </trkpt>
      <trkpt lat="48.6628" lon="-3.91722">
        <ele>49.4</ele>
        <time>2020-08-13T16:34:30Z</time>
      </trkpt>
      <trkpt lat="48.662792" lon="-3.91712">
        <ele>49.4</ele>
        <time>2020-08-13T16:34:31Z</time>
      </trkpt>
      <trkpt lat="48.66283" lon="-3.917052">
        <ele>49.4</ele>
        <time>2020-08-13T16:34:31Z</time>
      </trkpt>
      <trkpt lat="48.66289" lon="-3.917043">
        <ele>49.4</ele>
        <time>2020-08-13T16:34:32Z</time>
      </trkpt>
      <trkpt lat="48.662938" lon="-3.917103">
        <ele>49.4</ele>
        <time>2020-08-13T16:34:33Z</time>
      </trkpt>
      <trkpt lat="48.662942" lon="-3.917201">
        <ele>49.4</ele>
        <time>2020-08-13T16:34:33Z</time>
      </trkpt>
      <trkpt lat="48.663297" lon="-3.917028">
        <ele>49.4</ele>
        <time>2020-08-13T16:34:37Z</time>
      </trkpt>
      <trkpt lat="48.663741" lon="-3.916764">
        <ele>47.6</ele>
        <time>2020-08-13T16:34:42Z</time>
      </trkpt>
      <trkpt lat="48.66463" lon="-3.916301">
        <ele>46.4</ele>
        <time>2020-08-13T16:34:51Z</time>
      </trkpt>
      <trkpt lat="48.664887" lon="-3.916295">
        <ele>46.4</ele>
        <time>2020-08-13T16:34:54Z</time>
      </trkpt>
      <trkpt lat="48.665353" lon="-3.916353">
        <ele>43.4</ele>
        <time>2020-08-13T16:34:59Z</time>
      </trkpt>
      <trkpt lat="48.665618" lon="-3.916326">
        <ele>43.4</ele>
        <time>2020-08-13T16:35:02Z</time>
      </trkpt>
      <trkpt lat="48.666248" lon="-3.916018">
        <ele>40.6</ele>
        <time>2020-08-13T16:35:08Z</time>
      </trkpt>
      <trkpt lat="48.666464" lon="-3.915934">
        <ele>40.6</ele>
        <time>2020-08-13T16:35:11Z</time>
      </trkpt>
      <trkpt lat="48.666634" lon="-3.9159">
        <ele>40.6</ele>
        <time>2020-08-13T16:35:12Z</time>
      </trkpt>
      <trkpt lat="48.66971" lon="-3.919249">
        <ele>24.2</ele>
        <time>2020-08-13T16:35:51Z</time>
      </trkpt>
      <trkpt lat="48.670271" lon="-3.919922">
        <ele>20.4</ele>
        <time>2020-08-13T16:35:59Z</time>
      </trkpt>
      <trkpt lat="48.670271" lon="-3.919922">
        <ele>20.4</ele>
        <time>2020-08-13T16:35:59Z</time>
      </trkpt>
      <trkpt lat="48.66971" lon="-3.919249">
        <ele>24.2</ele>
        <time>2020-08-13T16:36:06Z</time>
      </trkpt>
      <trkpt lat="48.666634" lon="-3.9159">
        <ele>40.6</ele>
        <time>2020-08-13T16:36:45Z</time>
      </trkpt>
      <trkpt lat="48.666495" lon="-3.915926">
        <ele>40.6</ele>
        <time>2020-08-13T16:36:46Z</time>
      </trkpt>
      <trkpt lat="48.667286" lon="-3.914113">
        <ele>44.4</ele>
        <time>2020-08-13T16:37:13Z</time>
      </trkpt>
      <trkpt lat="48.66677" lon="-3.913771">
        <ele>44.4</ele>
        <time>2020-08-13T16:37:18Z</time>
      </trkpt>
      <trkpt lat="48.666061" lon="-3.913171">
        <ele>46.8</ele>
        <time>2020-08-13T16:37:27Z</time>
      </trkpt>
      <trkpt lat="48.665735" lon="-3.912866">
        <ele>48.8</ele>
        <time>2020-08-13T16:37:31Z</time>
      </trkpt>
      <trkpt lat="48.664984" lon="-3.912266">
        <ele>50.0</ele>
        <time>2020-08-13T16:37:39Z</time>
      </trkpt>
      <trkpt lat="48.664965" lon="-3.9123">
        <ele>50.0</ele>
        <time>2020-08-13T16:37:40Z</time>
      </trkpt>
      <trkpt lat="48.664906" lon="-3.912329">
        <ele>50.0</ele>
        <time>2020-08-13T16:37:40Z</time>
      </trkpt>
      <trkpt lat="48.664873" lon="-3.912316">
        <ele>50.0</ele>
        <time>2020-08-13T16:37:41Z</time>
      </trkpt>
      <trkpt lat="48.664828" lon="-3.912219">
        <ele>50.0</ele>
        <time>2020-08-13T16:37:41Z</time>
      </trkpt>
      <trkpt lat="48.664831" lon="-3.912172">
        <ele>50.0</ele>
        <time>2020-08-13T16:37:42Z</time>
      </trkpt>
      <trkpt lat="48.664477" lon="-3.912007">
        <ele>50.0</ele>
        <time>2020-08-13T16:37:46Z</time>
      </trkpt>
      <trkpt lat="48.66419" lon="-3.911922">
        <ele>50.0</ele>
        <time>2020-08-13T16:37:49Z</time>
      </trkpt>
      <trkpt lat="48.663839" lon="-3.911885">
        <ele>50.2</ele>
        <time>2020-08-13T16:37:52Z</time>
      </trkpt>
      <trkpt lat="48.663267" lon="-3.911909">
        <ele>50.8</ele>
        <time>2020-08-13T16:37:58Z</time>
      </trkpt>
      <trkpt lat="48.663258" lon="-3.911974">
        <ele>50.8</ele>
        <time>2020-08-13T16:37:58Z</time>
      </trkpt>
      <trkpt lat="48.66323" lon="-3.912028">
        <ele>50.8</ele>
        <time>2020-08-13T16:37:59Z</time>
      </trkpt>
      <trkpt lat="48.663154" lon="-3.91206">
        <ele>50.8</ele>
        <time>2020-08-13T16:38:00Z</time>
      </trkpt>
      <trkpt lat="48.663118" lon="-3.912042">
        <ele>50.8</ele>
        <time>2020-08-13T16:38:00Z</time>
      </trkpt>
      <trkpt lat="48.663074" lon="-3.911962">
        <ele>50.8</ele>
        <time>2020-08-13T16:38:01Z</time>
      </trkpt>
      <trkpt lat="48.663075" lon="-3.911852">
        <ele>50.8</ele>
        <time>2020-08-13T16:38:02Z</time>
      </trkpt>
      <trkpt lat="48.662724" lon="-3.911873">
        <ele>50.8</ele>
        <time>2020-08-13T16:38:05Z</time>
      </trkpt>
      <trkpt lat="48.66152" lon="-3.911848">
        <ele>52.2</ele>
        <time>2020-08-13T16:38:18Z</time>
      </trkpt>
      <trkpt lat="48.66116" lon="-3.911837">
        <ele>52.2</ele>
        <time>2020-08-13T16:38:21Z</time>
      </trkpt>
      <trkpt lat="48.660814" lon="-3.911795">
        <ele>54.0</ele>
        <time>2020-08-13T16:38:25Z</time>
      </trkpt>
      <trkpt lat="48.660539" lon="-3.91171">
        <ele>54.0</ele>
        <time>2020-08-13T16:38:28Z</time>
      </trkpt>
      <trkpt lat="48.659865" lon="-3.911439">
        <ele>54.0</ele>
        <time>2020-08-13T16:38:35Z</time>
      </trkpt>
      <trkpt lat="48.658702" lon="-3.91091">
        <ele>57.2</ele>
        <time>2020-08-13T16:38:47Z</time>
      </trkpt>
      <trkpt lat="48.656585" lon="-3.910052">
        <ele>59.0</ele>
        <time>2020-08-13T16:39:10Z</time>
      </trkpt>
      <trkpt lat="48.655965" lon="-3.909667">
        <ele>58.8</ele>
        <time>2020-08-13T16:39:16Z</time>
      </trkpt>
      <trkpt lat="48.655194" lon="-3.909088">
        <ele>59.6</ele>
        <time>2020-08-13T16:39:25Z</time>
      </trkpt>
      <trkpt lat="48.653072" lon="-3.907376">
        <ele>60.0</ele>
        <time>2020-08-13T16:39:50Z</time>
      </trkpt>
      <trkpt lat="48.651428" lon="-3.906082">
        <ele>57.6</ele>
        <time>2020-08-13T16:40:09Z</time>
      </trkpt>
      <trkpt lat="48.65061" lon="-3.90561">
        <ele>53.8</ele>
        <time>2020-08-13T16:40:18Z</time>
      </trkpt>
      <trkpt lat="48.650255" lon="-3.90549">
        <ele>53.8</ele>
        <time>2020-08-13T16:40:22Z</time>
      </trkpt>
      <trkpt lat="48.6502" lon="-3.905553">
        <ele>53.8</ele>
        <time>2020-08-13T16:40:22Z</time>
      </trkpt>
      <trkpt lat="48.650141" lon="-3.905566">
        <ele>53.8</ele>
        <time>2020-08-13T16:40:23Z</time>
      </trkpt>
      <trkpt lat="48.650085" lon="-3.905539">
        <ele>53.8</ele>
        <time>2020-08-13T16:40:23Z</time>
      </trkpt>
      <trkpt lat="48.650045" lon="-3.905484">
        <ele>53.8</ele>
        <time>2020-08-13T16:40:23Z</time>
      </trkpt>
      <trkpt lat="48.650024" lon="-3.905408">
        <ele>53.8</ele>
        <time>2020-08-13T16:40:24Z</time>
      </trkpt>
      <trkpt lat="48.650024" lon="-3.905326">
        <ele>53.8</ele>
        <time>2020-08-13T16:40:24Z</time>
      </trkpt>
      <trkpt lat="48.650047" lon="-3.905251">
        <ele>53.8</ele>
        <time>2020-08-13T16:40:25Z</time>
      </trkpt>
      <trkpt lat="48.649954" lon="-3.90514">
        <ele>52.8</ele>
        <time>2020-08-13T16:40:26Z</time>
      </trkpt>
      <trkpt lat="48.649779" lon="-3.904816">
        <ele>52.0</ele>
        <time>2020-08-13T16:40:28Z</time>
      </trkpt>
      <trkpt lat="48.649672" lon="-3.904661">
        <ele>52.0</ele>
        <time>2020-08-13T16:40:29Z</time>
      </trkpt>
      <trkpt lat="48.648134" lon="-3.902523">
        <ele>51.0</ele>
        <time>2020-08-13T16:40:45Z</time>
      </trkpt>
      <trkpt lat="48.647703" lon="-3.90205">
        <ele>50.2</ele>
        <time>2020-08-13T16:40:49Z</time>
      </trkpt>
      <trkpt lat="48.647557" lon="-3.901921">
        <ele>50.2</ele>
        <time>2020-08-13T16:40:50Z</time>
      </trkpt>
      <trkpt lat="48.647105" lon="-3.901627">
        <ele>48.0</ele>
        <time>2020-08-13T16:40:54Z</time>
      </trkpt>
      <trkpt lat="48.646653" lon="-3.901472">
        <ele>45.0</ele>
        <time>2020-08-13T16:40:57Z</time>
      </trkpt>
      <trkpt lat="48.646121" lon="-3.901433">
        <ele>45.0</ele>
        <time>2020-08-13T16:41:01Z</time>
      </trkpt>
      <trkpt lat="48.645437" lon="-3.901419">
        <ele>41.0</ele>
        <time>2020-08-13T16:41:06Z</time>
      </trkpt>
      <trkpt lat="48.64499" lon="-3.901272">
        <ele>38.6</ele>
        <time>2020-08-13T16:41:10Z</time>
      </trkpt>
      <trkpt lat="48.644667" lon="-3.901058">
        <ele>38.6</ele>
        <time>2020-08-13T16:41:12Z</time>
      </trkpt>
      <trkpt lat="48.644512" lon="-3.900919">
        <ele>38.6</ele>
        <time>2020-08-13T16:41:14Z</time>
      </trkpt>
      <trkpt lat="48.644244" lon="-3.900603">
        <ele>35.2</ele>
        <time>2020-08-13T16:41:16Z</time>
      </trkpt>
      <trkpt lat="48.64409" lon="-3.900385">
        <ele>36.8</ele>
        <time>2020-08-13T16:41:18Z</time>
      </trkpt>
      <trkpt lat="48.643885" lon="-3.899992">
        <ele>34.6</ele>
        <time>2020-08-13T16:41:21Z</time>
      </trkpt>
      <trkpt lat="48.643771" lon="-3.899619">
        <ele>34.6</ele>
        <time>2020-08-13T16:41:23Z</time>
      </trkpt>
      <trkpt lat="48.643516" lon="-3.89858">
        <ele>32.0</ele>
        <time>2020-08-13T16:41:28Z</time>
      </trkpt>
      <trkpt lat="48.643085" lon="-3.896602">
        <ele>27.2</ele>
        <time>2020-08-13T16:41:39Z</time>
      </trkpt>
      <trkpt lat="48.643039" lon="-3.895985">
        <ele>27.2</ele>
        <time>2020-08-13T16:41:42Z</time>
      </trkpt>
      <trkpt lat="48.643032" lon="-3.895625">
        <ele>19.4</ele>
        <time>2020-08-13T16:41:44Z</time>
      </trkpt>
      <trkpt lat="48.643079" lon="-3.89501">
        <ele>19.4</ele>
        <time>2020-08-13T16:41:47Z</time>
      </trkpt>
      <trkpt lat="48.643235" lon="-3.893841">
        <ele>6.6</ele>
        <time>2020-08-13T16:41:53Z</time>
      </trkpt>
      <trkpt lat="48.643221" lon="-3.893478">
        <ele>6.6</ele>
        <time>2020-08-13T16:41:54Z</time>
      </trkpt>
      <trkpt lat="48.643173" lon="-3.893171">
        <ele>8.6</ele>
        <time>2020-08-13T16:41:56Z</time>
      </trkpt>
      <trkpt lat="48.643073" lon="-3.892823">
        <ele>8.6</ele>
        <time>2020-08-13T16:41:58Z</time>
      </trkpt>
      <trkpt lat="48.642892" lon="-3.892405">
        <ele>11.0</ele>
        <time>2020-08-13T16:42:00Z</time>
      </trkpt>
      <trkpt lat="48.641787" lon="-3.888961">
        <ele>10.75</ele>
        <time>2020-08-13T16:42:20Z</time>
      </trkpt>
      <trkpt lat="48.641447" lon="-3.888502">
        <ele>23.4</ele>
        <time>2020-08-13T16:42:23Z</time>
      </trkpt>
      <trkpt lat="48.640744" lon="-3.886382">
        <ele>36.5</ele>
        <time>2020-08-13T16:42:35Z</time>
      </trkpt>
      <trkpt lat="48.639819" lon="-3.883207">
        <ele>23.8</ele>
        <time>2020-08-13T16:42:52Z</time>
      </trkpt>
      <trkpt lat="48.639048" lon="-3.879295">
        <ele>17.4</ele>
        <time>2020-08-13T16:43:13Z</time>
      </trkpt>
      <trkpt lat="48.638895" lon="-3.878147">
        <ele>14.6</ele>
        <time>2020-08-13T16:43:19Z</time>
      </trkpt>
      <trkpt lat="48.638895" lon="-3.878147">
        <ele>14.6</ele>
        <time>2020-08-13T16:43:19Z</time>
      </trkpt>
      <trkpt lat="48.638833" lon="-3.877686">
        <ele>11.8</ele>
        <time>2020-08-13T16:43:21Z</time>
      </trkpt>
      <trkpt lat="48.638686" lon="-3.876792">
        <ele>17.0</ele>
        <time>2020-08-13T16:43:25Z</time>
      </trkpt>
      <trkpt lat="48.638505" lon="-3.876153">
        <ele>19.25</ele>
        <time>2020-08-13T16:43:27Z</time>
      </trkpt>
      <trkpt lat="48.63833" lon="-3.875783">
        <ele>28.0</ele>
        <time>2020-08-13T16:43:29Z</time>
      </trkpt>
      <trkpt lat="48.638131" lon="-3.875413">
        <ele>28.0</ele>
        <time>2020-08-13T16:43:31Z</time>
      </trkpt>
      <trkpt lat="48.637806" lon="-3.875087">
        <ele>28.0</ele>
        <time>2020-08-13T16:43:33Z</time>
      </trkpt>
      <trkpt lat="48.636728" lon="-3.87434">
        <ele>29.4</ele>
        <time>2020-08-13T16:43:40Z</time>
      </trkpt>
      <trkpt lat="48.63598" lon="-3.873542">
        <ele>28.4</ele>
        <time>2020-08-13T16:43:46Z</time>
      </trkpt>
      <trkpt lat="48.635356" lon="-3.872564">
        <ele>29.4</ele>
        <time>2020-08-13T16:43:51Z</time>
      </trkpt>
      <trkpt lat="48.635224" lon="-3.872234">
        <ele>24.2</ele>
        <time>2020-08-13T16:43:53Z</time>
      </trkpt>
      <trkpt lat="48.635069" lon="-3.871635">
        <ele>23.8</ele>
        <time>2020-08-13T16:43:55Z</time>
      </trkpt>
      <trkpt lat="48.634999" lon="-3.871258">
        <ele>40.0</ele>
        <time>2020-08-13T16:43:57Z</time>
      </trkpt>
      <trkpt lat="48.634938" lon="-3.870698">
        <ele>43.6</ele>
        <time>2020-08-13T16:43:59Z</time>
      </trkpt>
      <trkpt lat="48.634944" lon="-3.870174">
        <ele>43.6</ele>
        <time>2020-08-13T16:44:01Z</time>
      </trkpt>
      <trkpt lat="48.634991" lon="-3.869661">
        <ele>45.0</ele>
        <time>2020-08-13T16:44:03Z</time>
      </trkpt>
      <trkpt lat="48.63519" lon="-3.868533">
        <ele>26.2</ele>
        <time>2020-08-13T16:44:08Z</time>
      </trkpt>
      <trkpt lat="48.635249" lon="-3.868019">
        <ele>28.0</ele>
        <time>2020-08-13T16:44:10Z</time>
      </trkpt>
      <trkpt lat="48.635253" lon="-3.867757">
        <ele>28.0</ele>
        <time>2020-08-13T16:44:11Z</time>
      </trkpt>
      <trkpt lat="48.635234" lon="-3.867535">
        <ele>28.0</ele>
        <time>2020-08-13T16:44:12Z</time>
      </trkpt>
      <trkpt lat="48.635112" lon="-3.866899">
        <ele>26.4</ele>
        <time>2020-08-13T16:44:14Z</time>
      </trkpt>
      <trkpt lat="48.635036" lon="-3.866627">
        <ele>22.2</ele>
        <time>2020-08-13T16:44:15Z</time>
      </trkpt>
      <trkpt lat="48.634663" lon="-3.865763">
        <ele>30.4</ele>
        <time>2020-08-13T16:44:20Z</time>
      </trkpt>
      <trkpt lat="48.633154" lon="-3.862427">
        <ele>14.8</ele>
        <time>2020-08-13T16:44:35Z</time>
      </trkpt>
      <trkpt lat="48.632519" lon="-3.861079">
        <ele>7.8</ele>
        <time>2020-08-13T16:44:42Z</time>
      </trkpt>
      <trkpt lat="48.63185" lon="-3.86029">
        <ele>10.8</ele>
        <time>2020-08-13T16:44:47Z</time>
      </trkpt>
      <trkpt lat="48.630897" lon="-3.859706">
        <ele>9.4</ele>
        <time>2020-08-13T16:44:53Z</time>
      </trkpt>
      <trkpt lat="48.630357" lon="-3.859296">
        <ele>9.8</ele>
        <time>2020-08-13T16:44:56Z</time>
      </trkpt>
      <trkpt lat="48.629834" lon="-3.858857">
        <ele>9.6</ele>
        <time>2020-08-13T16:45:00Z</time>
      </trkpt>
      <trkpt lat="48.62957" lon="-3.858678">
        <ele>9.6</ele>
        <time>2020-08-13T16:45:02Z</time>
      </trkpt>
      <trkpt lat="48.629321" lon="-3.858546">
        <ele>9.6</ele>
        <time>2020-08-13T16:45:03Z</time>
      </trkpt>
      <trkpt lat="48.627861" lon="-3.857873">
        <ele>10.8</ele>
        <time>2020-08-13T16:45:12Z</time>
      </trkpt>
      <trkpt lat="48.627473" lon="-3.857666">
        <ele>12.0</ele>
        <time>2020-08-13T16:45:15Z</time>
      </trkpt>
      <trkpt lat="48.627002" lon="-3.857458">
        <ele>6.2</ele>
        <time>2020-08-13T16:45:18Z</time>
      </trkpt>
      <trkpt lat="48.626512" lon="-3.857271">
        <ele>6.0</ele>
        <time>2020-08-13T16:45:21Z</time>
      </trkpt>
      <trkpt lat="48.626366" lon="-3.857221">
        <ele>6.0</ele>
        <time>2020-08-13T16:45:22Z</time>
      </trkpt>
      <trkpt lat="48.626061" lon="-3.85722">
        <ele>6.0</ele>
        <time>2020-08-13T16:45:23Z</time>
      </trkpt>
      <trkpt lat="48.625862" lon="-3.857308">
        <ele>6.0</ele>
        <time>2020-08-13T16:45:25Z</time>
      </trkpt>
      <trkpt lat="48.625813" lon="-3.857367">
        <ele>5.6</ele>
        <time>2020-08-13T16:45:25Z</time>
      </trkpt>
      <trkpt lat="48.625791" lon="-3.857366">
        <ele>5.6</ele>
        <time>2020-08-13T16:45:25Z</time>
      </trkpt>
      <trkpt lat="48.62577" lon="-3.857353">
        <ele>5.6</ele>
        <time>2020-08-13T16:45:25Z</time>
      </trkpt>
      <trkpt lat="48.625741" lon="-3.857264">
        <ele>5.6</ele>
        <time>2020-08-13T16:45:26Z</time>
      </trkpt>
      <trkpt lat="48.625574" lon="-3.857244">
        <ele>5.6</ele>
        <time>2020-08-13T16:45:27Z</time>
      </trkpt>
      <trkpt lat="48.624235" lon="-3.857445">
        <ele>7.6</ele>
        <time>2020-08-13T16:45:36Z</time>
      </trkpt>
      <trkpt lat="48.623389" lon="-3.85726">
        <ele>9.6</ele>
        <time>2020-08-13T16:45:41Z</time>
      </trkpt>
      <trkpt lat="48.622295" lon="-3.857165">
        <ele>20.2</ele>
        <time>2020-08-13T16:45:48Z</time>
      </trkpt>
      <trkpt lat="48.621435" lon="-3.856874">
        <ele>26.0</ele>
        <time>2020-08-13T16:45:54Z</time>
      </trkpt>
      <trkpt lat="48.620976" lon="-3.856803">
        <ele>26.0</ele>
        <time>2020-08-13T16:45:57Z</time>
      </trkpt>
      <trkpt lat="48.620236" lon="-3.856776">
        <ele>23.0</ele>
        <time>2020-08-13T16:46:02Z</time>
      </trkpt>
      <trkpt lat="48.620126" lon="-3.856793">
        <ele>23.0</ele>
        <time>2020-08-13T16:46:03Z</time>
      </trkpt>
      <trkpt lat="48.619845" lon="-3.856896">
        <ele>13.8</ele>
        <time>2020-08-13T16:46:05Z</time>
      </trkpt>
      <trkpt lat="48.619414" lon="-3.857233">
        <ele>13.8</ele>
        <time>2020-08-13T16:46:08Z</time>
      </trkpt>
      <trkpt lat="48.618688" lon="-3.857886">
        <ele>17.8</ele>
        <time>2020-08-13T16:46:13Z</time>
      </trkpt>
      <trkpt lat="48.617486" lon="-3.859435">
        <ele>19.6</ele>
        <time>2020-08-13T16:46:24Z</time>
      </trkpt>
      <trkpt lat="48.617309" lon="-3.859549">
        <ele>19.6</ele>
        <time>2020-08-13T16:46:25Z</time>
      </trkpt>
      <trkpt lat="48.617049" lon="-3.859632">
        <ele>19.6</ele>
        <time>2020-08-13T16:46:27Z</time>
      </trkpt>
      <trkpt lat="48.616755" lon="-3.859858">
        <ele>19.6</ele>
        <time>2020-08-13T16:46:29Z</time>
      </trkpt>
      <trkpt lat="48.616577" lon="-3.860066">
        <ele>24.6</ele>
        <time>2020-08-13T16:46:30Z</time>
      </trkpt>
      <trkpt lat="48.616334" lon="-3.86044">
        <ele>24.6</ele>
        <time>2020-08-13T16:46:32Z</time>
      </trkpt>
      <trkpt lat="48.616163" lon="-3.860633">
        <ele>24.6</ele>
        <time>2020-08-13T16:46:34Z</time>
      </trkpt>
      <trkpt lat="48.615584" lon="-3.861157">
        <ele>30.6</ele>
        <time>2020-08-13T16:46:38Z</time>
      </trkpt>
      <trkpt lat="48.615357" lon="-3.861276">
        <ele>30.6</ele>
        <time>2020-08-13T16:46:40Z</time>
      </trkpt>
      <trkpt lat="48.614778" lon="-3.861423">
        <ele>17.0</ele>
        <time>2020-08-13T16:46:44Z</time>
      </trkpt>
      <trkpt lat="48.614663" lon="-3.86153">
        <ele>17.0</ele>
        <time>2020-08-13T16:46:45Z</time>
      </trkpt>
      <trkpt lat="48.614444" lon="-3.861824">
        <ele>34.0</ele>
        <time>2020-08-13T16:46:47Z</time>
      </trkpt>
      <trkpt lat="48.614198" lon="-3.862058">
        <ele>34.0</ele>
        <time>2020-08-13T16:46:49Z</time>
      </trkpt>
      <trkpt lat="48.61407" lon="-3.862138">
        <ele>21.8</ele>
        <time>2020-08-13T16:46:50Z</time>
      </trkpt>
      <trkpt lat="48.613787" lon="-3.862258">
        <ele>21.8</ele>
        <time>2020-08-13T16:46:52Z</time>
      </trkpt>
      <trkpt lat="48.613577" lon="-3.862288">
        <ele>21.8</ele>
        <time>2020-08-13T16:46:53Z</time>
      </trkpt>
      <trkpt lat="48.613275" lon="-3.862248">
        <ele>28.0</ele>
        <time>2020-08-13T16:46:55Z</time>
      </trkpt>
      <trkpt lat="48.61296" lon="-3.862174">
        <ele>28.0</ele>
        <time>2020-08-13T16:46:57Z</time>
      </trkpt>
      <trkpt lat="48.612764" lon="-3.862066">
        <ele>28.0</ele>
        <time>2020-08-13T16:46:59Z</time>
      </trkpt>
      <trkpt lat="48.612666" lon="-3.861988">
        <ele>28.0</ele>
        <time>2020-08-13T16:46:59Z</time>
      </trkpt>
      <trkpt lat="48.612562" lon="-3.861804">
        <ele>28.0</ele>
        <time>2020-08-13T16:47:00Z</time>
      </trkpt>
      <trkpt lat="48.612419" lon="-3.861334">
        <ele>40.8</ele>
        <time>2020-08-13T16:47:03Z</time>
      </trkpt>
      <trkpt lat="48.612311" lon="-3.861171">
        <ele>40.8</ele>
        <time>2020-08-13T16:47:04Z</time>
      </trkpt>
      <trkpt lat="48.612158" lon="-3.86104">
        <ele>40.8</ele>
        <time>2020-08-13T16:47:05Z</time>
      </trkpt>
      <trkpt lat="48.61196" lon="-3.86091">
        <ele>40.8</ele>
        <time>2020-08-13T16:47:06Z</time>
      </trkpt>
      <trkpt lat="48.611634" lon="-3.860631">
        <ele>39.4</ele>
        <time>2020-08-13T16:47:09Z</time>
      </trkpt>
      <trkpt lat="48.611073" lon="-3.860049">
        <ele>39.4</ele>
        <time>2020-08-13T16:47:13Z</time>
      </trkpt>
      <trkpt lat="48.610792" lon="-3.859657">
        <ele>25.0</ele>
        <time>2020-08-13T16:47:16Z</time>
      </trkpt>
      <trkpt lat="48.610344" lon="-3.859185">
        <ele>25.0</ele>
        <time>2020-08-13T16:47:19Z</time>
      </trkpt>
      <trkpt lat="48.608955" lon="-3.85787">
        <ele>4.4</ele>
        <time>2020-08-13T16:47:30Z</time>
      </trkpt>
      <trkpt lat="48.608863" lon="-3.857847">
        <ele>4.4</ele>
        <time>2020-08-13T16:47:31Z</time>
      </trkpt>
      <trkpt lat="48.608832" lon="-3.857859">
        <ele>4.4</ele>
        <time>2020-08-13T16:47:33Z</time>
      </trkpt>
      <trkpt lat="48.608351" lon="-3.856635">
        <ele>7.8</ele>
        <time>2020-08-13T16:47:41Z</time>
      </trkpt>
      <trkpt lat="48.608278" lon="-3.856494">
        <ele>11.2</ele>
        <time>2020-08-13T16:47:42Z</time>
      </trkpt>
      <trkpt lat="48.608174" lon="-3.856378">
        <ele>11.2</ele>
        <time>2020-08-13T16:47:43Z</time>
      </trkpt>
      <trkpt lat="48.60725" lon="-3.855514">
        <ele>13.2</ele>
        <time>2020-08-13T16:47:53Z</time>
      </trkpt>
      <trkpt lat="48.60718" lon="-3.855443">
        <ele>13.2</ele>
        <time>2020-08-13T16:47:53Z</time>
      </trkpt>
      <trkpt lat="48.607085" lon="-3.855303">
        <ele>13.2</ele>
        <time>2020-08-13T16:47:55Z</time>
      </trkpt>
      <trkpt lat="48.606889" lon="-3.854854">
        <ele>13.6</ele>
        <time>2020-08-13T16:47:58Z</time>
      </trkpt>
      <trkpt lat="48.606687" lon="-3.854224">
        <ele>13.6</ele>
        <time>2020-08-13T16:48:02Z</time>
      </trkpt>
      <trkpt lat="48.606497" lon="-3.853775">
        <ele>21.4</ele>
        <time>2020-08-13T16:48:05Z</time>
      </trkpt>
      <trkpt lat="48.605595" lon="-3.852326">
        <ele>19.6</ele>
        <time>2020-08-13T16:48:16Z</time>
      </trkpt>
      <trkpt lat="48.60549" lon="-3.852189">
        <ele>19.6</ele>
        <time>2020-08-13T16:48:17Z</time>
      </trkpt>
      <trkpt lat="48.604541" lon="-3.851399">
        <ele>17.8</ele>
        <time>2020-08-13T16:48:27Z</time>
      </trkpt>
      <trkpt lat="48.604246" lon="-3.851226">
        <ele>17.8</ele>
        <time>2020-08-13T16:48:30Z</time>
      </trkpt>
      <trkpt lat="48.602938" lon="-3.850617">
        <ele>28.6</ele>
        <time>2020-08-13T16:48:42Z</time>
      </trkpt>
      <trkpt lat="48.602715" lon="-3.850492">
        <ele>28.6</ele>
        <time>2020-08-13T16:48:44Z</time>
      </trkpt>
      <trkpt lat="48.602513" lon="-3.850344">
        <ele>28.6</ele>
        <time>2020-08-13T16:48:46Z</time>
      </trkpt>
      <trkpt lat="48.602316" lon="-3.850146">
        <ele>40.8</ele>
        <time>2020-08-13T16:48:48Z</time>
      </trkpt>
      <trkpt lat="48.60198" lon="-3.849632">
        <ele>29.2</ele>
        <time>2020-08-13T16:48:52Z</time>
      </trkpt>
      <trkpt lat="48.601733" lon="-3.849068">
        <ele>18.4</ele>
        <time>2020-08-13T16:48:56Z</time>
      </trkpt>
      <trkpt lat="48.601338" lon="-3.847535">
        <ele>22.4</ele>
        <time>2020-08-13T16:49:06Z</time>
      </trkpt>
      <trkpt lat="48.601245" lon="-3.847252">
        <ele>14.4</ele>
        <time>2020-08-13T16:49:08Z</time>
      </trkpt>
      <trkpt lat="48.600772" lon="-3.846127">
        <ele>23.0</ele>
        <time>2020-08-13T16:49:15Z</time>
      </trkpt>
      <trkpt lat="48.600462" lon="-3.845482">
        <ele>15.2</ele>
        <time>2020-08-13T16:49:20Z</time>
      </trkpt>
      <trkpt lat="48.600271" lon="-3.845186">
        <ele>15.2</ele>
        <time>2020-08-13T16:49:22Z</time>
      </trkpt>
      <trkpt lat="48.599842" lon="-3.844673">
        <ele>21.6</ele>
        <time>2020-08-13T16:49:27Z</time>
      </trkpt>
      <trkpt lat="48.597279" lon="-3.84174">
        <ele>28.0</ele>
        <time>2020-08-13T16:49:55Z</time>
      </trkpt>
      <trkpt lat="48.597149" lon="-3.841641">
        <ele>14.6</ele>
        <time>2020-08-13T16:49:57Z</time>
      </trkpt>
      <trkpt lat="48.596909" lon="-3.841557">
        <ele>14.6</ele>
        <time>2020-08-13T16:49:59Z</time>
      </trkpt>
      <trkpt lat="48.596495" lon="-3.841563">
        <ele>14.4</ele>
        <time>2020-08-13T16:50:03Z</time>
      </trkpt>
      <trkpt lat="48.595544" lon="-3.841521">
        <ele>15.8</ele>
        <time>2020-08-13T16:50:11Z</time>
      </trkpt>
      <trkpt lat="48.594443" lon="-3.84151">
        <ele>21.0</ele>
        <time>2020-08-13T16:50:20Z</time>
      </trkpt>
      <trkpt lat="48.59368" lon="-3.841464">
        <ele>22.8</ele>
        <time>2020-08-13T16:50:27Z</time>
      </trkpt>
      <trkpt lat="48.592959" lon="-3.841449">
        <ele>23.6</ele>
        <time>2020-08-13T16:50:33Z</time>
      </trkpt>
      <trkpt lat="48.592658" lon="-3.841394">
        <ele>23.6</ele>
        <time>2020-08-13T16:50:36Z</time>
      </trkpt>
      <trkpt lat="48.59247" lon="-3.8413">
        <ele>28.4</ele>
        <time>2020-08-13T16:50:38Z</time>
      </trkpt>
      <trkpt lat="48.591179" lon="-3.840369">
        <ele>25.8</ele>
        <time>2020-08-13T16:50:50Z</time>
      </trkpt>
      <trkpt lat="48.589122" lon="-3.839002">
        <ele>22.6</ele>
        <time>2020-08-13T16:51:10Z</time>
      </trkpt>
      <trkpt lat="48.587331" lon="-3.838026">
        <ele>23.4</ele>
        <time>2020-08-13T16:51:26Z</time>
      </trkpt>
      <trkpt lat="48.586166" lon="-3.837151">
        <ele>24.8</ele>
        <time>2020-08-13T16:51:38Z</time>
      </trkpt>
      <trkpt lat="48.586058" lon="-3.837112">
        <ele>24.8</ele>
        <time>2020-08-13T16:51:39Z</time>
      </trkpt>
      <trkpt lat="48.585617" lon="-3.837044">
        <ele>28.6</ele>
        <time>2020-08-13T16:51:43Z</time>
      </trkpt>
      <trkpt lat="48.585427" lon="-3.836938">
        <ele>28.6</ele>
        <time>2020-08-13T16:51:44Z</time>
      </trkpt>
      <trkpt lat="48.584961" lon="-3.836568">
        <ele>18.0</ele>
        <time>2020-08-13T16:51:51Z</time>
      </trkpt>
      <trkpt lat="48.584894" lon="-3.836614">
        <ele>18.0</ele>
        <time>2020-08-13T16:51:51Z</time>
      </trkpt>
      <trkpt lat="48.584877" lon="-3.836604">
        <ele>18.0</ele>
        <time>2020-08-13T16:51:52Z</time>
      </trkpt>
      <trkpt lat="48.584848" lon="-3.836534">
        <ele>18.0</ele>
        <time>2020-08-13T16:51:52Z</time>
      </trkpt>
      <trkpt lat="48.584856" lon="-3.836481">
        <ele>18.0</ele>
        <time>2020-08-13T16:51:52Z</time>
      </trkpt>
      <trkpt lat="48.584388" lon="-3.836131">
        <ele>18.0</ele>
        <time>2020-08-13T16:51:56Z</time>
      </trkpt>
      <trkpt lat="48.58433" lon="-3.83603">
        <ele>18.0</ele>
        <time>2020-08-13T16:51:56Z</time>
      </trkpt>
      <trkpt lat="48.584318" lon="-3.835977">
        <ele>18.0</ele>
        <time>2020-08-13T16:51:57Z</time>
      </trkpt>
      <trkpt lat="48.584308" lon="-3.835315">
        <ele>10.0</ele>
        <time>2020-08-13T16:52:00Z</time>
      </trkpt>
      <trkpt lat="48.584238" lon="-3.835047">
        <ele>10.0</ele>
        <time>2020-08-13T16:52:01Z</time>
      </trkpt>
      <trkpt lat="48.584172" lon="-3.834973">
        <ele>8.6</ele>
        <time>2020-08-13T16:52:01Z</time>
      </trkpt>
      <trkpt lat="48.582313" lon="-3.833365">
        <ele>22.6</ele>
        <time>2020-08-13T16:52:16Z</time>
      </trkpt>
      <trkpt lat="48.582016" lon="-3.833074">
        <ele>18.2</ele>
        <time>2020-08-13T16:52:18Z</time>
      </trkpt>
      <trkpt lat="48.581752" lon="-3.83286">
        <ele>18.2</ele>
        <time>2020-08-13T16:52:20Z</time>
      </trkpt>
      <trkpt lat="48.58164" lon="-3.83257">
        <ele>31.6</ele>
        <time>2020-08-13T16:52:22Z</time>
      </trkpt>
      <trkpt lat="48.581494" lon="-3.832299">
        <ele>28.0</ele>
        <time>2020-08-13T16:52:24Z</time>
      </trkpt>
      <trkpt lat="48.581422" lon="-3.832109">
        <ele>28.0</ele>
        <time>2020-08-13T16:52:25Z</time>
      </trkpt>
      <trkpt lat="48.581352" lon="-3.832038">
        <ele>28.0</ele>
        <time>2020-08-13T16:52:26Z</time>
      </trkpt>
      <trkpt lat="48.581329" lon="-3.831983">
        <ele>28.0</ele>
        <time>2020-08-13T16:52:26Z</time>
      </trkpt>
      <trkpt lat="48.581319" lon="-3.831832">
        <ele>28.0</ele>
        <time>2020-08-13T16:52:27Z</time>
      </trkpt>
      <trkpt lat="48.581371" lon="-3.831703">
        <ele>28.0</ele>
        <time>2020-08-13T16:52:28Z</time>
      </trkpt>
      <trkpt lat="48.581465" lon="-3.831647">
        <ele>22.0</ele>
        <time>2020-08-13T16:52:30Z</time>
      </trkpt>
      <trkpt lat="48.581564" lon="-3.831692">
        <ele>28.0</ele>
        <time>2020-08-13T16:52:31Z</time>
      </trkpt>
      <trkpt lat="48.581607" lon="-3.831662">
        <ele>22.0</ele>
        <time>2020-08-13T16:52:32Z</time>
      </trkpt>
      <trkpt lat="48.581695" lon="-3.831657">
        <ele>13.8</ele>
        <time>2020-08-13T16:52:33Z</time>
      </trkpt>
      <trkpt lat="48.582378" lon="-3.83203">
        <ele>15.4</ele>
        <time>2020-08-13T16:52:40Z</time>
      </trkpt>
      <trkpt lat="48.582451" lon="-3.831688">
        <ele>15.4</ele>
        <time>2020-08-13T16:52:43Z</time>
      </trkpt>
      <trkpt lat="48.582465" lon="-3.831509">
        <ele>13.8</ele>
        <time>2020-08-13T16:52:44Z</time>
      </trkpt>
      <trkpt lat="48.582152" lon="-3.831229">
        <ele>13.8</ele>
        <time>2020-08-13T16:52:48Z</time>
      </trkpt>
      <trkpt lat="48.582109" lon="-3.831123">
        <ele>13.8</ele>
        <time>2020-08-13T16:52:49Z</time>
      </trkpt>
      <trkpt lat="48.582102" lon="-3.830998">
        <ele>13.8</ele>
        <time>2020-08-13T16:52:49Z</time>
      </trkpt>
      <trkpt lat="48.582217" lon="-3.830465">
        <ele>18.4</ele>
        <time>2020-08-13T16:52:53Z</time>
      </trkpt>
      <trkpt lat="48.582263" lon="-3.830139">
        <ele>18.4</ele>
        <time>2020-08-13T16:52:56Z</time>
      </trkpt>
      <trkpt lat="48.582278" lon="-3.82998">
        <ele>27.2</ele>
        <time>2020-08-13T16:52:57Z</time>
      </trkpt>
      <trkpt lat="48.582277" lon="-3.829767">
        <ele>27.2</ele>
        <time>2020-08-13T16:52:58Z</time>
      </trkpt>
      <trkpt lat="48.582196" lon="-3.829064">
        <ele>36.4</ele>
        <time>2020-08-13T16:53:03Z</time>
      </trkpt>
      <trkpt lat="48.582103" lon="-3.828643">
        <ele>36.4</ele>
        <time>2020-08-13T16:53:06Z</time>
      </trkpt>
      <trkpt lat="48.582043" lon="-3.828546">
        <ele>36.4</ele>
        <time>2020-08-13T16:53:07Z</time>
      </trkpt>
      <trkpt lat="48.582312" lon="-3.828276">
        <ele>44.0</ele>
        <time>2020-08-13T16:53:11Z</time>
      </trkpt>
      <trkpt lat="48.582614" lon="-3.827831">
        <ele>39.6</ele>
        <time>2020-08-13T16:53:15Z</time>
      </trkpt>
      <trkpt lat="48.582823" lon="-3.827568">
        <ele>39.6</ele>
        <time>2020-08-13T16:53:18Z</time>
      </trkpt>
      <trkpt lat="48.583268" lon="-3.82707">
        <ele>45.4</ele>
        <time>2020-08-13T16:53:23Z</time>
      </trkpt>
      <trkpt lat="48.583371" lon="-3.826762">
        <ele>41.0</ele>
        <time>2020-08-13T16:53:26Z</time>
      </trkpt>
      <trkpt lat="48.58348" lon="-3.826069">
        <ele>44.6</ele>
        <time>2020-08-13T16:53:31Z</time>
      </trkpt>
      <trkpt lat="48.583841" lon="-3.826101">
        <ele>44.6</ele>
        <time>2020-08-13T16:53:35Z</time>
      </trkpt>
      <trkpt lat="48.584199" lon="-3.826027">
        <ele>47.4</ele>
        <time>2020-08-13T16:53:38Z</time>
      </trkpt>
      <trkpt lat="48.585041" lon="-3.825935">
        <ele>55.8</ele>
        <time>2020-08-13T16:53:47Z</time>
      </trkpt>
      <trkpt lat="48.585247" lon="-3.825842">
        <ele>55.8</ele>
        <time>2020-08-13T16:53:49Z</time>
      </trkpt>
      <trkpt lat="48.585736" lon="-3.825515">
        <ele>57.2</ele>
        <time>2020-08-13T16:53:55Z</time>
      </trkpt>
      <trkpt lat="48.586913" lon="-3.825006">
        <ele>69.2</ele>
        <time>2020-08-13T16:54:07Z</time>
      </trkpt>
      <trkpt lat="48.587149" lon="-3.824822">
        <ele>70.4</ele>
        <time>2020-08-13T16:54:10Z</time>
      </trkpt>
      <trkpt lat="48.587747" lon="-3.824439">
        <ele>73.6</ele>
        <time>2020-08-13T16:54:16Z</time>
      </trkpt>
      <trkpt lat="48.588" lon="-3.824325">
        <ele>73.6</ele>
        <time>2020-08-13T16:54:19Z</time>
      </trkpt>
      <trkpt lat="48.588062" lon="-3.824318">
        <ele>73.6</ele>
        <time>2020-08-13T16:54:20Z</time>
      </trkpt>
      <trkpt lat="48.588071" lon="-3.82427">
        <ele>73.6</ele>
        <time>2020-08-13T16:54:20Z</time>
      </trkpt>
      <trkpt lat="48.588113" lon="-3.824194">
        <ele>73.6</ele>
        <time>2020-08-13T16:54:21Z</time>
      </trkpt>
      <trkpt lat="48.588143" lon="-3.824174">
        <ele>73.6</ele>
        <time>2020-08-13T16:54:21Z</time>
      </trkpt>
      <trkpt lat="48.588186" lon="-3.824169">
        <ele>73.6</ele>
        <time>2020-08-13T16:54:22Z</time>
      </trkpt>
      <trkpt lat="48.58826" lon="-3.82423">
        <ele>73.6</ele>
        <time>2020-08-13T16:54:23Z</time>
      </trkpt>
      <trkpt lat="48.58828" lon="-3.824287">
        <ele>73.6</ele>
        <time>2020-08-13T16:54:23Z</time>
      </trkpt>
      <trkpt lat="48.588358" lon="-3.82423">
        <ele>74.6</ele>
        <time>2020-08-13T16:54:24Z</time>
      </trkpt>
      <trkpt lat="48.588459" lon="-3.824202">
        <ele>74.6</ele>
        <time>2020-08-13T16:54:25Z</time>
      </trkpt>
      <trkpt lat="48.589194" lon="-3.824166">
        <ele>74.6</ele>
        <time>2020-08-13T16:54:32Z</time>
      </trkpt>
      <trkpt lat="48.5896" lon="-3.824107">
        <ele>74.6</ele>
        <time>2020-08-13T16:54:36Z</time>
      </trkpt>
      <trkpt lat="48.589848" lon="-3.824038">
        <ele>74.6</ele>
        <time>2020-08-13T16:54:38Z</time>
      </trkpt>
      <trkpt lat="48.590177" lon="-3.823896">
        <ele>72.2</ele>
        <time>2020-08-13T16:54:42Z</time>
      </trkpt>
      <trkpt lat="48.590828" lon="-3.823465">
        <ele>72.2</ele>
        <time>2020-08-13T16:54:48Z</time>
      </trkpt>
      <trkpt lat="48.591238" lon="-3.82334">
        <ele>70.0</ele>
        <time>2020-08-13T16:54:52Z</time>
      </trkpt>
      <trkpt lat="48.591329" lon="-3.823273">
        <ele>72.6</ele>
        <time>2020-08-13T16:54:53Z</time>
      </trkpt>
      <trkpt lat="48.59141" lon="-3.823135">
        <ele>72.6</ele>
        <time>2020-08-13T16:54:55Z</time>
      </trkpt>
      <trkpt lat="48.591456" lon="-3.82247">
        <ele>76.4</ele>
        <time>2020-08-13T16:54:59Z</time>
      </trkpt>
      <trkpt lat="48.591503" lon="-3.822341">
        <ele>76.4</ele>
        <time>2020-08-13T16:55:00Z</time>
      </trkpt>
      <trkpt lat="48.591624" lon="-3.822244">
        <ele>76.4</ele>
        <time>2020-08-13T16:55:01Z</time>
      </trkpt>
      <trkpt lat="48.591802" lon="-3.822141">
        <ele>75.2</ele>
        <time>2020-08-13T16:55:03Z</time>
      </trkpt>
      <trkpt lat="48.591819" lon="-3.822001">
        <ele>75.2</ele>
        <time>2020-08-13T16:55:04Z</time>
      </trkpt>
      <trkpt lat="48.591884" lon="-3.821869">
        <ele>75.2</ele>
        <time>2020-08-13T16:55:05Z</time>
      </trkpt>
      <trkpt lat="48.591996" lon="-3.821793">
        <ele>75.2</ele>
        <time>2020-08-13T16:55:05Z</time>
      </trkpt>
      <trkpt lat="48.592078" lon="-3.821797">
        <ele>75.2</ele>
        <time>2020-08-13T16:55:06Z</time>
      </trkpt>
      <trkpt lat="48.592809" lon="-3.820765">
        <ele>81.4</ele>
        <time>2020-08-13T16:55:13Z</time>
      </trkpt>
      <trkpt lat="48.593327" lon="-3.819924">
        <ele>83.4</ele>
        <time>2020-08-13T16:55:19Z</time>
      </trkpt>
      <trkpt lat="48.594164" lon="-3.818434">
        <ele>84.6</ele>
        <time>2020-08-13T16:55:28Z</time>
      </trkpt>
      <trkpt lat="48.594501" lon="-3.817692">
        <ele>85.6</ele>
        <time>2020-08-13T16:55:32Z</time>
      </trkpt>
      <trkpt lat="48.594646" lon="-3.817454">
        <ele>85.8</ele>
        <time>2020-08-13T16:55:34Z</time>
      </trkpt>
      <trkpt lat="48.595757" lon="-3.814914">
        <ele>87.4</ele>
        <time>2020-08-13T16:55:48Z</time>
      </trkpt>
      <trkpt lat="48.596584" lon="-3.813143">
        <ele>88.0</ele>
        <time>2020-08-13T16:55:58Z</time>
      </trkpt>
      <trkpt lat="48.597287" lon="-3.811557">
        <ele>85.8</ele>
        <time>2020-08-13T16:56:07Z</time>
      </trkpt>
      <trkpt lat="48.59762" lon="-3.810949">
        <ele>85.2</ele>
        <time>2020-08-13T16:56:11Z</time>
      </trkpt>
      <trkpt lat="48.6006" lon="-3.805951">
        <ele>71.4</ele>
        <time>2020-08-13T16:56:43Z</time>
      </trkpt>
      <trkpt lat="48.600779" lon="-3.80561">
        <ele>67.6</ele>
        <time>2020-08-13T16:56:45Z</time>
      </trkpt>
      <trkpt lat="48.60119" lon="-3.804635">
        <ele>67.0</ele>
        <time>2020-08-13T16:56:50Z</time>
      </trkpt>
      <trkpt lat="48.602384" lon="-3.801678">
        <ele>64.8</ele>
        <time>2020-08-13T16:57:07Z</time>
      </trkpt>
      <trkpt lat="48.602713" lon="-3.800925">
        <ele>64.0</ele>
        <time>2020-08-13T16:57:11Z</time>
      </trkpt>
      <trkpt lat="48.602953" lon="-3.800487">
        <ele>60.2</ele>
        <time>2020-08-13T16:57:14Z</time>
      </trkpt>
      <trkpt lat="48.603198" lon="-3.800159">
        <ele>60.2</ele>
        <time>2020-08-13T16:57:16Z</time>
      </trkpt>
      <trkpt lat="48.603308" lon="-3.800039">
        <ele>60.2</ele>
        <time>2020-08-13T16:57:17Z</time>
      </trkpt>
      <trkpt lat="48.603592" lon="-3.799793">
        <ele>58.0</ele>
        <time>2020-08-13T16:57:19Z</time>
      </trkpt>
      <trkpt lat="48.604446" lon="-3.799204">
        <ele>60.8</ele>
        <time>2020-08-13T16:57:26Z</time>
      </trkpt>
      <trkpt lat="48.605118" lon="-3.798665">
        <ele>57.2</ele>
        <time>2020-08-13T16:57:31Z</time>
      </trkpt>
      <trkpt lat="48.605885" lon="-3.798214">
        <ele>49.8</ele>
        <time>2020-08-13T16:57:37Z</time>
      </trkpt>
      <trkpt lat="48.606107" lon="-3.798067">
        <ele>49.8</ele>
        <time>2020-08-13T16:57:39Z</time>
      </trkpt>
      <trkpt lat="48.606313" lon="-3.797898">
        <ele>49.8</ele>
        <time>2020-08-13T16:57:41Z</time>
      </trkpt>
      <trkpt lat="48.60651" lon="-3.797687">
        <ele>49.8</ele>
        <time>2020-08-13T16:57:42Z</time>
      </trkpt>
      <trkpt lat="48.607546" lon="-3.796706">
        <ele>43.8</ele>
        <time>2020-08-13T16:57:51Z</time>
      </trkpt>
      <trkpt lat="48.608064" lon="-3.796235">
        <ele>39.0</ele>
        <time>2020-08-13T16:57:56Z</time>
      </trkpt>
      <trkpt lat="48.608381" lon="-3.795973">
        <ele>38.8</ele>
        <time>2020-08-13T16:57:58Z</time>
      </trkpt>
      <trkpt lat="48.608613" lon="-3.795817">
        <ele>34.2</ele>
        <time>2020-08-13T16:58:00Z</time>
      </trkpt>
      <trkpt lat="48.609635" lon="-3.795254">
        <ele>34.0</ele>
        <time>2020-08-13T16:58:08Z</time>
      </trkpt>
      <trkpt lat="48.609736" lon="-3.795149">
        <ele>34.0</ele>
        <time>2020-08-13T16:58:09Z</time>
      </trkpt>
      <trkpt lat="48.609865" lon="-3.794959">
        <ele>30.0</ele>
        <time>2020-08-13T16:58:10Z</time>
      </trkpt>
      <trkpt lat="48.609989" lon="-3.794728">
        <ele>30.0</ele>
        <time>2020-08-13T16:58:11Z</time>
      </trkpt>
      <trkpt lat="48.610059" lon="-3.794532">
        <ele>29.8</ele>
        <time>2020-08-13T16:58:12Z</time>
      </trkpt>
      <trkpt lat="48.61011" lon="-3.794307">
        <ele>29.8</ele>
        <time>2020-08-13T16:58:14Z</time>
      </trkpt>
      <trkpt lat="48.610481" lon="-3.79169">
        <ele>26.0</ele>
        <time>2020-08-13T16:58:26Z</time>
      </trkpt>
      <trkpt lat="48.61059" lon="-3.791185">
        <ele>25.2</ele>
        <time>2020-08-13T16:58:29Z</time>
      </trkpt>
      <trkpt lat="48.61089" lon="-3.790177">
        <ele>23.0</ele>
        <time>2020-08-13T16:58:34Z</time>
      </trkpt>
      <trkpt lat="48.61096" lon="-3.789738">
        <ele>25.2</ele>
        <time>2020-08-13T16:58:36Z</time>
      </trkpt>
      <trkpt lat="48.610976" lon="-3.789497">
        <ele>25.2</ele>
        <time>2020-08-13T16:58:37Z</time>
      </trkpt>
      <trkpt lat="48.610972" lon="-3.789249">
        <ele>25.2</ele>
        <time>2020-08-13T16:58:38Z</time>
      </trkpt>
      <trkpt lat="48.610923" lon="-3.788345">
        <ele>27.6</ele>
        <time>2020-08-13T16:58:43Z</time>
      </trkpt>
      <trkpt lat="48.610912" lon="-3.787834">
        <ele>30.6</ele>
        <time>2020-08-13T16:58:45Z</time>
      </trkpt>
      <trkpt lat="48.610971" lon="-3.787395">
        <ele>33.8</ele>
        <time>2020-08-13T16:58:47Z</time>
      </trkpt>
      <trkpt lat="48.611074" lon="-3.78704">
        <ele>33.8</ele>
        <time>2020-08-13T16:58:49Z</time>
      </trkpt>
      <trkpt lat="48.611139" lon="-3.786887">
        <ele>33.8</ele>
        <time>2020-08-13T16:58:50Z</time>
      </trkpt>
      <trkpt lat="48.611348" lon="-3.786555">
        <ele>38.0</ele>
        <time>2020-08-13T16:58:52Z</time>
      </trkpt>
      <trkpt lat="48.611585" lon="-3.786272">
        <ele>38.0</ele>
        <time>2020-08-13T16:58:54Z</time>
      </trkpt>
      <trkpt lat="48.612737" lon="-3.785018">
        <ele>30.8</ele>
        <time>2020-08-13T16:59:04Z</time>
      </trkpt>
      <trkpt lat="48.612868" lon="-3.784855">
        <ele>36.4</ele>
        <time>2020-08-13T16:59:06Z</time>
      </trkpt>
      <trkpt lat="48.613103" lon="-3.784505">
        <ele>36.4</ele>
        <time>2020-08-13T16:59:08Z</time>
      </trkpt>
      <trkpt lat="48.613248" lon="-3.78415">
        <ele>40.2</ele>
        <time>2020-08-13T16:59:10Z</time>
      </trkpt>
      <trkpt lat="48.613346" lon="-3.783722">
        <ele>32.4</ele>
        <time>2020-08-13T16:59:12Z</time>
      </trkpt>
      <trkpt lat="48.61338" lon="-3.783221">
        <ele>32.0</ele>
        <time>2020-08-13T16:59:15Z</time>
      </trkpt>
      <trkpt lat="48.613271" lon="-3.781891">
        <ele>35.0</ele>
        <time>2020-08-13T16:59:21Z</time>
      </trkpt>
      <trkpt lat="48.613293" lon="-3.781406">
        <ele>31.8</ele>
        <time>2020-08-13T16:59:23Z</time>
      </trkpt>
      <trkpt lat="48.613348" lon="-3.781067">
        <ele>30.0</ele>
        <time>2020-08-13T16:59:25Z</time>
      </trkpt>
      <trkpt lat="48.613447" lon="-3.780721">
        <ele>28.6</ele>
        <time>2020-08-13T16:59:27Z</time>
      </trkpt>
      <trkpt lat="48.613663" lon="-3.780298">
        <ele>28.6</ele>
        <time>2020-08-13T16:59:29Z</time>
      </trkpt>
      <trkpt lat="48.613882" lon="-3.779997">
        <ele>27.4</ele>
        <time>2020-08-13T16:59:31Z</time>
      </trkpt>
      <trkpt lat="48.615257" lon="-3.778617">
        <ele>35.2</ele>
        <time>2020-08-13T16:59:43Z</time>
      </trkpt>
      <trkpt lat="48.615919" lon="-3.778">
        <ele>37.2</ele>
        <time>2020-08-13T16:59:49Z</time>
      </trkpt>
      <trkpt lat="48.616105" lon="-3.777866">
        <ele>37.2</ele>
        <time>2020-08-13T16:59:50Z</time>
      </trkpt>
      <trkpt lat="48.616326" lon="-3.77777">
        <ele>37.2</ele>
        <time>2020-08-13T16:59:52Z</time>
      </trkpt>
      <trkpt lat="48.617085" lon="-3.777582">
        <ele>37.8</ele>
        <time>2020-08-13T16:59:57Z</time>
      </trkpt>
      <trkpt lat="48.617612" lon="-3.777367">
        <ele>37.4</ele>
        <time>2020-08-13T17:00:01Z</time>
      </trkpt>
      <trkpt lat="48.617934" lon="-3.77704">
        <ele>37.4</ele>
        <time>2020-08-13T17:00:04Z</time>
      </trkpt>
      <trkpt lat="48.618072" lon="-3.776815">
        <ele>37.4</ele>
        <time>2020-08-13T17:00:05Z</time>
      </trkpt>
      <trkpt lat="48.619301" lon="-3.774315">
        <ele>43.0</ele>
        <time>2020-08-13T17:00:20Z</time>
      </trkpt>
      <trkpt lat="48.620277" lon="-3.772283">
        <ele>45.4</ele>
        <time>2020-08-13T17:00:32Z</time>
      </trkpt>
      <trkpt lat="48.620696" lon="-3.771375">
        <ele>46.6</ele>
        <time>2020-08-13T17:00:37Z</time>
      </trkpt>
      <trkpt lat="48.620889" lon="-3.771036">
        <ele>45.0</ele>
        <time>2020-08-13T17:00:39Z</time>
      </trkpt>
      <trkpt lat="48.621096" lon="-3.77072">
        <ele>46.8</ele>
        <time>2020-08-13T17:00:41Z</time>
      </trkpt>
      <trkpt lat="48.621505" lon="-3.770332">
        <ele>46.8</ele>
        <time>2020-08-13T17:00:45Z</time>
      </trkpt>
      <trkpt lat="48.621901" lon="-3.770128">
        <ele>47.4</ele>
        <time>2020-08-13T17:00:48Z</time>
      </trkpt>
      <trkpt lat="48.622102" lon="-3.770051">
        <ele>47.4</ele>
        <time>2020-08-13T17:00:49Z</time>
      </trkpt>
      <trkpt lat="48.622539" lon="-3.769964">
        <ele>53.4</ele>
        <time>2020-08-13T17:00:52Z</time>
      </trkpt>
      <trkpt lat="48.623963" lon="-3.769765">
        <ele>57.4</ele>
        <time>2020-08-13T17:01:03Z</time>
      </trkpt>
      <trkpt lat="48.624415" lon="-3.769532">
        <ele>61.8</ele>
        <time>2020-08-13T17:01:06Z</time>
      </trkpt>
      <trkpt lat="48.625532" lon="-3.768658">
        <ele>69.6</ele>
        <time>2020-08-13T17:01:15Z</time>
      </trkpt>
      <trkpt lat="48.625789" lon="-3.768366">
        <ele>69.6</ele>
        <time>2020-08-13T17:01:17Z</time>
      </trkpt>
      <trkpt lat="48.62606" lon="-3.767972">
        <ele>72.8</ele>
        <time>2020-08-13T17:01:20Z</time>
      </trkpt>
      <trkpt lat="48.626353" lon="-3.767366">
        <ele>73.8</ele>
        <time>2020-08-13T17:01:24Z</time>
      </trkpt>
      <trkpt lat="48.626514" lon="-3.766796">
        <ele>73.8</ele>
        <time>2020-08-13T17:01:26Z</time>
      </trkpt>
      <trkpt lat="48.626612" lon="-3.766032">
        <ele>72.6</ele>
        <time>2020-08-13T17:01:30Z</time>
      </trkpt>
      <trkpt lat="48.6266" lon="-3.765315">
        <ele>70.8</ele>
        <time>2020-08-13T17:01:34Z</time>
      </trkpt>
      <trkpt lat="48.626333" lon="-3.763164">
        <ele>83.6</ele>
        <time>2020-08-13T17:01:44Z</time>
      </trkpt>
      <trkpt lat="48.62626" lon="-3.762339">
        <ele>95.0</ele>
        <time>2020-08-13T17:01:48Z</time>
      </trkpt>
      <trkpt lat="48.626252" lon="-3.762053">
        <ele>95.0</ele>
        <time>2020-08-13T17:01:49Z</time>
      </trkpt>
      <trkpt lat="48.626267" lon="-3.761759">
        <ele>95.0</ele>
        <time>2020-08-13T17:01:51Z</time>
      </trkpt>
      <trkpt lat="48.62634" lon="-3.761278">
        <ele>100.8</ele>
        <time>2020-08-13T17:01:53Z</time>
      </trkpt>
      <trkpt lat="48.626844" lon="-3.759346">
        <ele>103.0</ele>
        <time>2020-08-13T17:02:03Z</time>
      </trkpt>
      <trkpt lat="48.626892" lon="-3.759089">
        <ele>105.2</ele>
        <time>2020-08-13T17:02:04Z</time>
      </trkpt>
      <trkpt lat="48.62694" lon="-3.758673">
        <ele>105.2</ele>
        <time>2020-08-13T17:02:06Z</time>
      </trkpt>
      <trkpt lat="48.62696" lon="-3.758275">
        <ele>106.0</ele>
        <time>2020-08-13T17:02:08Z</time>
      </trkpt>
      <trkpt lat="48.626978" lon="-3.757219">
        <ele>107.4</ele>
        <time>2020-08-13T17:02:13Z</time>
      </trkpt>
      <trkpt lat="48.626988" lon="-3.75199">
        <ele>115.2</ele>
        <time>2020-08-13T17:02:38Z</time>
      </trkpt>
      <trkpt lat="48.627032" lon="-3.747788">
        <ele>116.6</ele>
        <time>2020-08-13T17:02:57Z</time>
      </trkpt>
      <trkpt lat="48.627069" lon="-3.747141">
        <ele>116.0</ele>
        <time>2020-08-13T17:03:01Z</time>
      </trkpt>
      <trkpt lat="48.627142" lon="-3.746803">
        <ele>116.0</ele>
        <time>2020-08-13T17:03:02Z</time>
      </trkpt>
      <trkpt lat="48.627384" lon="-3.746273">
        <ele>115.2</ele>
        <time>2020-08-13T17:03:05Z</time>
      </trkpt>
      <trkpt lat="48.631831" lon="-3.738474">
        <ele>123.8</ele>
        <time>2020-08-13T17:03:54Z</time>
      </trkpt>
      <trkpt lat="48.63225" lon="-3.737604">
        <ele>124.4</ele>
        <time>2020-08-13T17:03:59Z</time>
      </trkpt>
      <trkpt lat="48.632476" lon="-3.736913">
        <ele>124.4</ele>
        <time>2020-08-13T17:04:03Z</time>
      </trkpt>
      <trkpt lat="48.633327" lon="-3.733929">
        <ele>113.2</ele>
        <time>2020-08-13T17:04:18Z</time>
      </trkpt>
      <trkpt lat="48.633741" lon="-3.732696">
        <ele>111.8</ele>
        <time>2020-08-13T17:04:24Z</time>
      </trkpt>
      <trkpt lat="48.634523" lon="-3.730542">
        <ele>105.2</ele>
        <time>2020-08-13T17:04:36Z</time>
      </trkpt>
      <trkpt lat="48.634822" lon="-3.729801">
        <ele>104.8</ele>
        <time>2020-08-13T17:04:40Z</time>
      </trkpt>
      <trkpt lat="48.635607" lon="-3.728112">
        <ele>106.8</ele>
        <time>2020-08-13T17:04:50Z</time>
      </trkpt>
      <trkpt lat="48.636281" lon="-3.726589">
        <ele>110.0</ele>
        <time>2020-08-13T17:04:59Z</time>
      </trkpt>
      <trkpt lat="48.636433" lon="-3.726349">
        <ele>110.0</ele>
        <time>2020-08-13T17:05:00Z</time>
      </trkpt>
      <trkpt lat="48.637165" lon="-3.725478">
        <ele>112.4</ele>
        <time>2020-08-13T17:05:07Z</time>
      </trkpt>
      <trkpt lat="48.638165" lon="-3.724387">
        <ele>115.8</ele>
        <time>2020-08-13T17:05:16Z</time>
      </trkpt>
      <trkpt lat="48.638762" lon="-3.723501">
        <ele>116.8</ele>
        <time>2020-08-13T17:05:22Z</time>
      </trkpt>
      <trkpt lat="48.639329" lon="-3.72195">
        <ele>116.8</ele>
        <time>2020-08-13T17:05:30Z</time>
      </trkpt>
      <trkpt lat="48.639488" lon="-3.721435">
        <ele>116.2</ele>
        <time>2020-08-13T17:05:33Z</time>
      </trkpt>
      <trkpt lat="48.639402" lon="-3.721394">
        <ele>116.2</ele>
        <time>2020-08-13T17:05:34Z</time>
      </trkpt>
      <trkpt lat="48.639336" lon="-3.721301">
        <ele>116.2</ele>
        <time>2020-08-13T17:05:35Z</time>
      </trkpt>
      <trkpt lat="48.639302" lon="-3.721174">
        <ele>116.2</ele>
        <time>2020-08-13T17:05:36Z</time>
      </trkpt>
      <trkpt lat="48.639306" lon="-3.721038">
        <ele>116.2</ele>
        <time>2020-08-13T17:05:37Z</time>
      </trkpt>
      <trkpt lat="48.639341" lon="-3.720931">
        <ele>116.2</ele>
        <time>2020-08-13T17:05:37Z</time>
      </trkpt>
      <trkpt lat="48.639399" lon="-3.720852">
        <ele>116.2</ele>
        <time>2020-08-13T17:05:38Z</time>
      </trkpt>
      <trkpt lat="48.639473" lon="-3.72081">
        <ele>116.4</ele>
        <time>2020-08-13T17:05:39Z</time>
      </trkpt>
      <trkpt lat="48.639551" lon="-3.720813">
        <ele>116.4</ele>
        <time>2020-08-13T17:05:40Z</time>
      </trkpt>
      <trkpt lat="48.639647" lon="-3.720888">
        <ele>116.2</ele>
        <time>2020-08-13T17:05:41Z</time>
      </trkpt>
      <trkpt lat="48.639706" lon="-3.721026">
        <ele>116.2</ele>
        <time>2020-08-13T17:05:42Z</time>
      </trkpt>
      <trkpt lat="48.640059" lon="-3.720839">
        <ele>117.6</ele>
        <time>2020-08-13T17:05:45Z</time>
      </trkpt>
      <trkpt lat="48.640391" lon="-3.72048">
        <ele>117.2</ele>
        <time>2020-08-13T17:05:49Z</time>
      </trkpt>
      <trkpt lat="48.640831" lon="-3.719935">
        <ele>117.8</ele>
        <time>2020-08-13T17:05:54Z</time>
      </trkpt>
      <trkpt lat="48.641282" lon="-3.71952">
        <ele>118.4</ele>
        <time>2020-08-13T17:05:59Z</time>
      </trkpt>
      <trkpt lat="48.641783" lon="-3.719151">
        <ele>119.0</ele>
        <time>2020-08-13T17:06:05Z</time>
      </trkpt>
      <trkpt lat="48.643958" lon="-3.717872">
        <ele>116.8</ele>
        <time>2020-08-13T17:06:26Z</time>
      </trkpt>
      <trkpt lat="48.644391" lon="-3.717555">
        <ele>116.8</ele>
        <time>2020-08-13T17:06:31Z</time>
      </trkpt>
      <trkpt lat="48.644715" lon="-3.71729">
        <ele>115.8</ele>
        <time>2020-08-13T17:06:34Z</time>
      </trkpt>
      <trkpt lat="48.64502" lon="-3.717147">
        <ele>115.8</ele>
        <time>2020-08-13T17:06:37Z</time>
      </trkpt>
      <trkpt lat="48.645696" lon="-3.71703">
        <ele>115.8</ele>
        <time>2020-08-13T17:06:44Z</time>
      </trkpt>
      <trkpt lat="48.64606" lon="-3.716852">
        <ele>114.0</ele>
        <time>2020-08-13T17:06:47Z</time>
      </trkpt>
      <trkpt lat="48.646572" lon="-3.71654">
        <ele>112.8</ele>
        <time>2020-08-13T17:06:53Z</time>
      </trkpt>
      <trkpt lat="48.646954" lon="-3.71644">
        <ele>111.4</ele>
        <time>2020-08-13T17:06:56Z</time>
      </trkpt>
      <trkpt lat="48.647059" lon="-3.716472">
        <ele>111.4</ele>
        <time>2020-08-13T17:06:57Z</time>
      </trkpt>
      <trkpt lat="48.647111" lon="-3.71652">
        <ele>111.4</ele>
        <time>2020-08-13T17:06:58Z</time>
      </trkpt>
      <trkpt lat="48.647169" lon="-3.716629">
        <ele>111.4</ele>
        <time>2020-08-13T17:06:59Z</time>
      </trkpt>
      <trkpt lat="48.647341" lon="-3.716803">
        <ele>113.2</ele>
        <time>2020-08-13T17:07:01Z</time>
      </trkpt>
      <trkpt lat="48.647436" lon="-3.716855">
        <ele>113.2</ele>
        <time>2020-08-13T17:07:02Z</time>
      </trkpt>
      <trkpt lat="48.647517" lon="-3.716873">
        <ele>112.0</ele>
        <time>2020-08-13T17:07:02Z</time>
      </trkpt>
      <trkpt lat="48.647756" lon="-3.716859">
        <ele>112.0</ele>
        <time>2020-08-13T17:07:05Z</time>
      </trkpt>
      <trkpt lat="48.647923" lon="-3.71689">
        <ele>112.0</ele>
        <time>2020-08-13T17:07:06Z</time>
      </trkpt>
      <trkpt lat="48.648182" lon="-3.717099">
        <ele>112.0</ele>
        <time>2020-08-13T17:07:09Z</time>
      </trkpt>
      <trkpt lat="48.648542" lon="-3.717236">
        <ele>110.4</ele>
        <time>2020-08-13T17:07:13Z</time>
      </trkpt>
      <trkpt lat="48.649734" lon="-3.717423">
        <ele>111.6</ele>
        <time>2020-08-13T17:07:24Z</time>
      </trkpt>
      <trkpt lat="48.650072" lon="-3.717531">
        <ele>114.4</ele>
        <time>2020-08-13T17:07:27Z</time>
      </trkpt>
      <trkpt lat="48.650243" lon="-3.717636">
        <ele>114.4</ele>
        <time>2020-08-13T17:07:29Z</time>
      </trkpt>
      <trkpt lat="48.650373" lon="-3.717758">
        <ele>114.4</ele>
        <time>2020-08-13T17:07:30Z</time>
      </trkpt>
      <trkpt lat="48.650591" lon="-3.718034">
        <ele>114.4</ele>
        <time>2020-08-13T17:07:33Z</time>
      </trkpt>
      <trkpt lat="48.65077" lon="-3.718308">
        <ele>114.4</ele>
        <time>2020-08-13T17:07:35Z</time>
      </trkpt>
      <trkpt lat="48.651162" lon="-3.718771">
        <ele>116.2</ele>
        <time>2020-08-13T17:07:40Z</time>
      </trkpt>
      <trkpt lat="48.65269" lon="-3.7201">
        <ele>116.6</ele>
        <time>2020-08-13T17:07:57Z</time>
      </trkpt>
      <trkpt lat="48.652976" lon="-3.720266">
        <ele>116.6</ele>
        <time>2020-08-13T17:07:59Z</time>
      </trkpt>
      <trkpt lat="48.653121" lon="-3.72031">
        <ele>116.6</ele>
        <time>2020-08-13T17:08:01Z</time>
      </trkpt>
      <trkpt lat="48.653486" lon="-3.720337">
        <ele>117.2</ele>
        <time>2020-08-13T17:08:04Z</time>
      </trkpt>
      <trkpt lat="48.655406" lon="-3.720236">
        <ele>117.6</ele>
        <time>2020-08-13T17:08:22Z</time>
      </trkpt>
      <trkpt lat="48.656048" lon="-3.720074">
        <ele>117.0</ele>
        <time>2020-08-13T17:08:29Z</time>
      </trkpt>
      <trkpt lat="48.656231" lon="-3.719995">
        <ele>115.4</ele>
        <time>2020-08-13T17:08:30Z</time>
      </trkpt>
      <trkpt lat="48.656521" lon="-3.719828">
        <ele>115.4</ele>
        <time>2020-08-13T17:08:33Z</time>
      </trkpt>
      <trkpt lat="48.657558" lon="-3.719089">
        <ele>112.2</ele>
        <time>2020-08-13T17:08:44Z</time>
      </trkpt>
      <trkpt lat="48.657858" lon="-3.718897">
        <ele>112.2</ele>
        <time>2020-08-13T17:08:47Z</time>
      </trkpt>
      <trkpt lat="48.658349" lon="-3.718668">
        <ele>111.2</ele>
        <time>2020-08-13T17:08:52Z</time>
      </trkpt>
      <trkpt lat="48.658756" lon="-3.718526">
        <ele>111.2</ele>
        <time>2020-08-13T17:08:56Z</time>
      </trkpt>
      <trkpt lat="48.659527" lon="-3.718311">
        <ele>109.0</ele>
        <time>2020-08-13T17:09:03Z</time>
      </trkpt>
      <trkpt lat="48.659977" lon="-3.718108">
        <ele>109.0</ele>
        <time>2020-08-13T17:09:08Z</time>
      </trkpt>
      <trkpt lat="48.660422" lon="-3.717748">
        <ele>108.2</ele>
        <time>2020-08-13T17:09:12Z</time>
      </trkpt>
      <trkpt lat="48.662006" lon="-3.716112">
        <ele>108.0</ele>
        <time>2020-08-13T17:09:30Z</time>
      </trkpt>
      <trkpt lat="48.662269" lon="-3.715749">
        <ele>106.4</ele>
        <time>2020-08-13T17:09:34Z</time>
      </trkpt>
      <trkpt lat="48.663696" lon="-3.71321">
        <ele>95.4</ele>
        <time>2020-08-13T17:09:55Z</time>
      </trkpt>
      <trkpt lat="48.663983" lon="-3.712542">
        <ele>95.4</ele>
        <time>2020-08-13T17:09:59Z</time>
      </trkpt>
      <trkpt lat="48.664322" lon="-3.711427">
        <ele>90.0</ele>
        <time>2020-08-13T17:10:07Z</time>
      </trkpt>
      <trkpt lat="48.664374" lon="-3.711184">
        <ele>90.0</ele>
        <time>2020-08-13T17:10:09Z</time>
      </trkpt>
      <trkpt lat="48.664633" lon="-3.710241">
        <ele>88.0</ele>
        <time>2020-08-13T17:10:15Z</time>
      </trkpt>
      <trkpt lat="48.664798" lon="-3.709886">
        <ele>85.6</ele>
        <time>2020-08-13T17:10:18Z</time>
      </trkpt>
      <trkpt lat="48.664894" lon="-3.709735">
        <ele>85.6</ele>
        <time>2020-08-13T17:10:19Z</time>
      </trkpt>
      <trkpt lat="48.665082" lon="-3.709505">
        <ele>87.2</ele>
        <time>2020-08-13T17:10:21Z</time>
      </trkpt>
      <trkpt lat="48.665468" lon="-3.70913">
        <ele>84.8</ele>
        <time>2020-08-13T17:10:26Z</time>
      </trkpt>
      <trkpt lat="48.665686" lon="-3.708998">
        <ele>84.8</ele>
        <time>2020-08-13T17:10:28Z</time>
      </trkpt>
      <trkpt lat="48.665801" lon="-3.708953">
        <ele>84.8</ele>
        <time>2020-08-13T17:10:29Z</time>
      </trkpt>
      <trkpt lat="48.666329" lon="-3.708876">
        <ele>86.8</ele>
        <time>2020-08-13T17:10:34Z</time>
      </trkpt>
      <trkpt lat="48.66644" lon="-3.708842">
        <ele>86.8</ele>
        <time>2020-08-13T17:10:35Z</time>
      </trkpt>
      <trkpt lat="48.667007" lon="-3.708498">
        <ele>87.2</ele>
        <time>2020-08-13T17:10:41Z</time>
      </trkpt>
      <trkpt lat="48.667169" lon="-3.708479">
        <ele>87.2</ele>
        <time>2020-08-13T17:10:42Z</time>
      </trkpt>
      <trkpt lat="48.667193" lon="-3.708237">
        <ele>86.2</ele>
        <time>2020-08-13T17:10:44Z</time>
      </trkpt>
      <trkpt lat="48.667243" lon="-3.708174">
        <ele>86.2</ele>
        <time>2020-08-13T17:10:45Z</time>
      </trkpt>
      <trkpt lat="48.667333" lon="-3.708132">
        <ele>86.2</ele>
        <time>2020-08-13T17:10:46Z</time>
      </trkpt>
      <trkpt lat="48.667542" lon="-3.707923">
        <ele>86.0</ele>
        <time>2020-08-13T17:10:48Z</time>
      </trkpt>
      <trkpt lat="48.667616" lon="-3.707803">
        <ele>86.0</ele>
        <time>2020-08-13T17:10:49Z</time>
      </trkpt>
      <trkpt lat="48.667677" lon="-3.707647">
        <ele>86.0</ele>
        <time>2020-08-13T17:10:50Z</time>
      </trkpt>
      <trkpt lat="48.667821" lon="-3.70714">
        <ele>85.0</ele>
        <time>2020-08-13T17:10:54Z</time>
      </trkpt>
      <trkpt lat="48.6679" lon="-3.706968">
        <ele>85.0</ele>
        <time>2020-08-13T17:10:55Z</time>
      </trkpt>
      <trkpt lat="48.668095" lon="-3.706659">
        <ele>83.0</ele>
        <time>2020-08-13T17:10:58Z</time>
      </trkpt>
      <trkpt lat="48.66847" lon="-3.706163">
        <ele>83.6</ele>
        <time>2020-08-13T17:11:03Z</time>
      </trkpt>
      <trkpt lat="48.668721" lon="-3.705736">
        <ele>82.6</ele>
        <time>2020-08-13T17:11:07Z</time>
      </trkpt>
      <trkpt lat="48.668943" lon="-3.705287">
        <ele>82.6</ele>
        <time>2020-08-13T17:11:10Z</time>
      </trkpt>
      <trkpt lat="48.668973" lon="-3.705183">
        <ele>82.6</ele>
        <time>2020-08-13T17:11:11Z</time>
      </trkpt>
      <trkpt lat="48.669209" lon="-3.703866">
        <ele>81.2</ele>
        <time>2020-08-13T17:11:20Z</time>
      </trkpt>
      <trkpt lat="48.669559" lon="-3.702357">
        <ele>78.4</ele>
        <time>2020-08-13T17:11:30Z</time>
      </trkpt>
      <trkpt lat="48.669818" lon="-3.701001">
        <ele>77.4</ele>
        <time>2020-08-13T17:11:39Z</time>
      </trkpt>
      <trkpt lat="48.670136" lon="-3.699506">
        <ele>78.2</ele>
        <time>2020-08-13T17:11:50Z</time>
      </trkpt>
      <trkpt lat="48.670524" lon="-3.697309">
        <ele>74.8</ele>
        <time>2020-08-13T17:12:04Z</time>
      </trkpt>
      <trkpt lat="48.670733" lon="-3.696376">
        <ele>73.0</ele>
        <time>2020-08-13T17:12:11Z</time>
      </trkpt>
      <trkpt lat="48.671466" lon="-3.693973">
        <ele>73.0</ele>
        <time>2020-08-13T17:12:28Z</time>
      </trkpt>
      <trkpt lat="48.67192" lon="-3.692556">
        <ele>74.8</ele>
        <time>2020-08-13T17:12:38Z</time>
      </trkpt>
      <trkpt lat="48.672067" lon="-3.692167">
        <ele>72.0</ele>
        <time>2020-08-13T17:12:41Z</time>
      </trkpt>
      <trkpt lat="48.672252" lon="-3.691753">
        <ele>72.0</ele>
        <time>2020-08-13T17:12:44Z</time>
      </trkpt>
      <trkpt lat="48.672536" lon="-3.691225">
        <ele>71.4</ele>
        <time>2020-08-13T17:12:49Z</time>
      </trkpt>
      <trkpt lat="48.674317" lon="-3.68885">
        <ele>64.0</ele>
        <time>2020-08-13T17:13:12Z</time>
      </trkpt>
      <trkpt lat="48.676197" lon="-3.686204">
        <ele>59.0</ele>
        <time>2020-08-13T17:13:37Z</time>
      </trkpt>
      <trkpt lat="48.676525" lon="-3.685916">
        <ele>59.0</ele>
        <time>2020-08-13T17:13:41Z</time>
      </trkpt>
      <trkpt lat="48.67726" lon="-3.685337">
        <ele>58.6</ele>
        <time>2020-08-13T17:13:49Z</time>
      </trkpt>
      <trkpt lat="48.677774" lon="-3.684893">
        <ele>59.2</ele>
        <time>2020-08-13T17:13:55Z</time>
      </trkpt>
      <trkpt lat="48.678233" lon="-3.684348">
        <ele>59.2</ele>
        <time>2020-08-13T17:14:01Z</time>
      </trkpt>
      <trkpt lat="48.678402" lon="-3.684033">
        <ele>57.8</ele>
        <time>2020-08-13T17:14:03Z</time>
      </trkpt>
      <trkpt lat="48.678534" lon="-3.683701">
        <ele>57.8</ele>
        <time>2020-08-13T17:14:06Z</time>
      </trkpt>
      <trkpt lat="48.678698" lon="-3.683149">
        <ele>58.2</ele>
        <time>2020-08-13T17:14:10Z</time>
      </trkpt>
      <trkpt lat="48.678958" lon="-3.681899">
        <ele>58.8</ele>
        <time>2020-08-13T17:14:18Z</time>
      </trkpt>
      <trkpt lat="48.679129" lon="-3.681306">
        <ele>59.2</ele>
        <time>2020-08-13T17:14:23Z</time>
      </trkpt>
      <trkpt lat="48.67947" lon="-3.68063">
        <ele>60.8</ele>
        <time>2020-08-13T17:14:28Z</time>
      </trkpt>
      <trkpt lat="48.679721" lon="-3.68029">
        <ele>60.8</ele>
        <time>2020-08-13T17:14:31Z</time>
      </trkpt>
      <trkpt lat="48.67987" lon="-3.680172">
        <ele>60.8</ele>
        <time>2020-08-13T17:14:33Z</time>
      </trkpt>
      <trkpt lat="48.680505" lon="-3.679854">
        <ele>56.4</ele>
        <time>2020-08-13T17:14:40Z</time>
      </trkpt>
      <trkpt lat="48.681051" lon="-3.679551">
        <ele>51.4</ele>
        <time>2020-08-13T17:14:45Z</time>
      </trkpt>
      <trkpt lat="48.681943" lon="-3.678959">
        <ele>45.8</ele>
        <time>2020-08-13T17:14:55Z</time>
      </trkpt>
      <trkpt lat="48.682219" lon="-3.67872">
        <ele>45.8</ele>
        <time>2020-08-13T17:14:58Z</time>
      </trkpt>
      <trkpt lat="48.682629" lon="-3.678423">
        <ele>38.8</ele>
        <time>2020-08-13T17:15:03Z</time>
      </trkpt>
      <trkpt lat="48.682972" lon="-3.678222">
        <ele>39.2</ele>
        <time>2020-08-13T17:15:06Z</time>
      </trkpt>
      <trkpt lat="48.683182" lon="-3.678146">
        <ele>39.2</ele>
        <time>2020-08-13T17:15:08Z</time>
      </trkpt>
      <trkpt lat="48.683784" lon="-3.678048">
        <ele>30.6</ele>
        <time>2020-08-13T17:15:14Z</time>
      </trkpt>
      <trkpt lat="48.684279" lon="-3.677926">
        <ele>22.0</ele>
        <time>2020-08-13T17:15:19Z</time>
      </trkpt>
      <trkpt lat="48.684614" lon="-3.677779">
        <ele>22.0</ele>
        <time>2020-08-13T17:15:23Z</time>
      </trkpt>
      <trkpt lat="48.684901" lon="-3.677595">
        <ele>22.0</ele>
        <time>2020-08-13T17:15:26Z</time>
      </trkpt>
      <trkpt lat="48.686077" lon="-3.676623">
        <ele>8.8</ele>
        <time>2020-08-13T17:15:39Z</time>
      </trkpt>
      <trkpt lat="48.68627" lon="-3.67643">
        <ele>8.8</ele>
        <time>2020-08-13T17:15:41Z</time>
      </trkpt>
      <trkpt lat="48.686478" lon="-3.676139">
        <ele>8.8</ele>
        <time>2020-08-13T17:15:44Z</time>
      </trkpt>
      <trkpt lat="48.686618" lon="-3.675847">
        <ele>8.8</ele>
        <time>2020-08-13T17:15:47Z</time>
      </trkpt>
      <trkpt lat="48.686686" lon="-3.675654">
        <ele>6.6</ele>
        <time>2020-08-13T17:15:48Z</time>
      </trkpt>
      <trkpt lat="48.686785" lon="-3.67525">
        <ele>6.6</ele>
        <time>2020-08-13T17:15:51Z</time>
      </trkpt>
      <trkpt lat="48.686855" lon="-3.674746">
        <ele>9.6</ele>
        <time>2020-08-13T17:15:54Z</time>
      </trkpt>
      <trkpt lat="48.686868" lon="-3.674389">
        <ele>9.6</ele>
        <time>2020-08-13T17:15:56Z</time>
      </trkpt>
      <trkpt lat="48.686825" lon="-3.673859">
        <ele>13.4</ele>
        <time>2020-08-13T17:16:00Z</time>
      </trkpt>
      <trkpt lat="48.686753" lon="-3.673559">
        <ele>13.4</ele>
        <time>2020-08-13T17:16:02Z</time>
      </trkpt>
      <trkpt lat="48.686692" lon="-3.673389">
        <ele>13.4</ele>
        <time>2020-08-13T17:16:03Z</time>
      </trkpt>
      <trkpt lat="48.686185" lon="-3.672257">
        <ele>15.0</ele>
        <time>2020-08-13T17:16:12Z</time>
      </trkpt>
      <trkpt lat="48.686112" lon="-3.672054">
        <ele>15.0</ele>
        <time>2020-08-13T17:16:14Z</time>
      </trkpt>
      <trkpt lat="48.686027" lon="-3.671633">
        <ele>19.8</ele>
        <time>2020-08-13T17:16:17Z</time>
      </trkpt>
      <trkpt lat="48.686009" lon="-3.671441">
        <ele>19.8</ele>
        <time>2020-08-13T17:16:18Z</time>
      </trkpt>
      <trkpt lat="48.686007" lon="-3.671233">
        <ele>19.8</ele>
        <time>2020-08-13T17:16:19Z</time>
      </trkpt>
      <trkpt lat="48.686282" lon="-3.668553">
        <ele>31.0</ele>
        <time>2020-08-13T17:16:37Z</time>
      </trkpt>
      <trkpt lat="48.686363" lon="-3.668229">
        <ele>35.2</ele>
        <time>2020-08-13T17:16:39Z</time>
      </trkpt>
      <trkpt lat="48.686468" lon="-3.667952">
        <ele>35.2</ele>
        <time>2020-08-13T17:16:41Z</time>
      </trkpt>
      <trkpt lat="48.68655" lon="-3.667803">
        <ele>35.2</ele>
        <time>2020-08-13T17:16:42Z</time>
      </trkpt>
      <trkpt lat="48.687037" lon="-3.667172">
        <ele>41.4</ele>
        <time>2020-08-13T17:16:49Z</time>
      </trkpt>
      <trkpt lat="48.68718" lon="-3.666927">
        <ele>41.4</ele>
        <time>2020-08-13T17:16:51Z</time>
      </trkpt>
      <trkpt lat="48.687285" lon="-3.666682">
        <ele>41.4</ele>
        <time>2020-08-13T17:16:53Z</time>
      </trkpt>
      <trkpt lat="48.687335" lon="-3.666509">
        <ele>42.2</ele>
        <time>2020-08-13T17:16:54Z</time>
      </trkpt>
      <trkpt lat="48.687381" lon="-3.666155">
        <ele>42.2</ele>
        <time>2020-08-13T17:16:56Z</time>
      </trkpt>
      <trkpt lat="48.687361" lon="-3.663847">
        <ele>44.2</ele>
        <time>2020-08-13T17:17:11Z</time>
      </trkpt>
      <trkpt lat="48.687406" lon="-3.663234">
        <ele>45.8</ele>
        <time>2020-08-13T17:17:15Z</time>
      </trkpt>
      <trkpt lat="48.687434" lon="-3.663027">
        <ele>45.8</ele>
        <time>2020-08-13T17:17:17Z</time>
      </trkpt>
      <trkpt lat="48.687632" lon="-3.662269">
        <ele>45.8</ele>
        <time>2020-08-13T17:17:22Z</time>
      </trkpt>
      <trkpt lat="48.687791" lon="-3.661307">
        <ele>47.0</ele>
        <time>2020-08-13T17:17:28Z</time>
      </trkpt>
      <trkpt lat="48.688217" lon="-3.659691">
        <ele>47.4</ele>
        <time>2020-08-13T17:17:40Z</time>
      </trkpt>
      <trkpt lat="48.68838" lon="-3.659227">
        <ele>46.0</ele>
        <time>2020-08-13T17:17:43Z</time>
      </trkpt>
      <trkpt lat="48.688669" lon="-3.658574">
        <ele>46.2</ele>
        <time>2020-08-13T17:17:48Z</time>
      </trkpt>
      <trkpt lat="48.688948" lon="-3.657673">
        <ele>46.4</ele>
        <time>2020-08-13T17:17:55Z</time>
      </trkpt>
      <trkpt lat="48.689086" lon="-3.657305">
        <ele>46.4</ele>
        <time>2020-08-13T17:17:57Z</time>
      </trkpt>
      <trkpt lat="48.689335" lon="-3.656856">
        <ele>46.6</ele>
        <time>2020-08-13T17:18:01Z</time>
      </trkpt>
      <trkpt lat="48.689539" lon="-3.656614">
        <ele>46.8</ele>
        <time>2020-08-13T17:18:04Z</time>
      </trkpt>
      <trkpt lat="48.689547" lon="-3.656479">
        <ele>46.8</ele>
        <time>2020-08-13T17:18:06Z</time>
      </trkpt>
      <trkpt lat="48.689724" lon="-3.65627">
        <ele>46.8</ele>
        <time>2020-08-13T17:18:10Z</time>
      </trkpt>
      <trkpt lat="48.690135" lon="-3.655918">
        <ele>46.4</ele>
        <time>2020-08-13T17:18:19Z</time>
      </trkpt>
      <trkpt lat="48.690135" lon="-3.655918">
        <ele>46.4</ele>
        <time>2020-08-13T17:18:19Z</time>
      </trkpt>
      <trkpt lat="48.689724" lon="-3.65627">
        <ele>46.8</ele>
        <time>2020-08-13T17:18:27Z</time>
      </trkpt>
      <trkpt lat="48.689547" lon="-3.656479">
        <ele>46.8</ele>
        <time>2020-08-13T17:18:32Z</time>
      </trkpt>
      <trkpt lat="48.689539" lon="-3.656614">
        <ele>46.8</ele>
        <time>2020-08-13T17:18:33Z</time>
      </trkpt>
      <trkpt lat="48.689335" lon="-3.656856">
        <ele>46.6</ele>
        <time>2020-08-13T17:18:37Z</time>
      </trkpt>
      <trkpt lat="48.689237" lon="-3.656676">
        <ele>46.6</ele>
        <time>2020-08-13T17:18:39Z</time>
      </trkpt>
      <trkpt lat="48.68912" lon="-3.656291">
        <ele>45.6</ele>
        <time>2020-08-13T17:18:45Z</time>
      </trkpt>
      <trkpt lat="48.689052" lon="-3.655633">
        <ele>44.0</ele>
        <time>2020-08-13T17:18:53Z</time>
      </trkpt>
      <trkpt lat="48.688475" lon="-3.655556">
        <ele>44.0</ele>
        <time>2020-08-13T17:19:03Z</time>
      </trkpt>
      <trkpt lat="48.688281" lon="-3.655575">
        <ele>39.2</ele>
        <time>2020-08-13T17:19:07Z</time>
      </trkpt>
      <trkpt lat="48.68751" lon="-3.655966">
        <ele>43.2</ele>
        <time>2020-08-13T17:19:22Z</time>
      </trkpt>
      <trkpt lat="48.686839" lon="-3.656527">
        <ele>42.8</ele>
        <time>2020-08-13T17:19:36Z</time>
      </trkpt>
      <trkpt lat="48.686535" lon="-3.655334">
        <ele>41.8</ele>
        <time>2020-08-13T17:19:52Z</time>
      </trkpt>
      <trkpt lat="48.686393" lon="-3.655097">
        <ele>41.8</ele>
        <time>2020-08-13T17:19:56Z</time>
      </trkpt>
      <trkpt lat="48.686156" lon="-3.654909">
        <ele>36.2</ele>
        <time>2020-08-13T17:20:01Z</time>
      </trkpt>
      <trkpt lat="48.685919" lon="-3.654817">
        <ele>36.2</ele>
        <time>2020-08-13T17:20:05Z</time>
      </trkpt>
      <trkpt lat="48.685633" lon="-3.654783">
        <ele>33.6</ele>
        <time>2020-08-13T17:20:10Z</time>
      </trkpt>
      <trkpt lat="48.685119" lon="-3.654767">
        <ele>33.6</ele>
        <time>2020-08-13T17:20:20Z</time>
      </trkpt>
      <trkpt lat="48.685016" lon="-3.654745">
        <ele>33.6</ele>
        <time>2020-08-13T17:20:22Z</time>
      </trkpt>
      <trkpt lat="48.684913" lon="-3.654634">
        <ele>29.8</ele>
        <time>2020-08-13T17:20:24Z</time>
      </trkpt>
      <trkpt lat="48.684901" lon="-3.654592">
        <ele>29.8</ele>
        <time>2020-08-13T17:20:25Z</time>
      </trkpt>
      <trkpt lat="48.684556" lon="-3.654719">
        <ele>29.8</ele>
        <time>2020-08-13T17:20:27Z</time>
      </trkpt>
      <trkpt lat="48.683653" lon="-3.654887">
        <ele>28.75</ele>
        <time>2020-08-13T17:20:32Z</time>
      </trkpt>
      <trkpt lat="48.683158" lon="-3.655092">
        <ele>28.8</ele>
        <time>2020-08-13T17:20:35Z</time>
      </trkpt>
      <trkpt lat="48.68296" lon="-3.655206">
        <ele>28.8</ele>
        <time>2020-08-13T17:20:37Z</time>
      </trkpt>
      <trkpt lat="48.682348" lon="-3.655697">
        <ele>21.6</ele>
        <time>2020-08-13T17:20:41Z</time>
      </trkpt>
      <trkpt lat="48.682016" lon="-3.655876">
        <ele>28.4</ele>
        <time>2020-08-13T17:20:43Z</time>
      </trkpt>
      <trkpt lat="48.681647" lon="-3.655962">
        <ele>24.8</ele>
        <time>2020-08-13T17:20:45Z</time>
      </trkpt>
      <trkpt lat="48.681491" lon="-3.655956">
        <ele>24.8</ele>
        <time>2020-08-13T17:20:46Z</time>
      </trkpt>
      <trkpt lat="48.681284" lon="-3.65589">
        <ele>24.8</ele>
        <time>2020-08-13T17:20:47Z</time>
      </trkpt>
      <trkpt lat="48.680981" lon="-3.655615">
        <ele>19.4</ele>
        <time>2020-08-13T17:20:49Z</time>
      </trkpt>
      <trkpt lat="48.680894" lon="-3.655503">
        <ele>19.4</ele>
        <time>2020-08-13T17:20:50Z</time>
      </trkpt>
      <trkpt lat="48.680369" lon="-3.654624">
        <ele>22.6</ele>
        <time>2020-08-13T17:20:55Z</time>
      </trkpt>
      <trkpt lat="48.675643" lon="-3.646328">
        <ele>24.6</ele>
        <time>2020-08-13T17:21:38Z</time>
      </trkpt>
      <trkpt lat="48.675282" lon="-3.645758">
        <ele>24.2</ele>
        <time>2020-08-13T17:21:41Z</time>
      </trkpt>
      <trkpt lat="48.675102" lon="-3.645542">
        <ele>24.2</ele>
        <time>2020-08-13T17:21:42Z</time>
      </trkpt>
      <trkpt lat="48.67487" lon="-3.645319">
        <ele>28.4</ele>
        <time>2020-08-13T17:21:44Z</time>
      </trkpt>
      <trkpt lat="48.674499" lon="-3.645034">
        <ele>28.4</ele>
        <time>2020-08-13T17:21:46Z</time>
      </trkpt>
      <trkpt lat="48.674266" lon="-3.644911">
        <ele>26.6</ele>
        <time>2020-08-13T17:21:48Z</time>
      </trkpt>
      <trkpt lat="48.673917" lon="-3.644798">
        <ele>26.6</ele>
        <time>2020-08-13T17:21:50Z</time>
      </trkpt>
      <trkpt lat="48.673729" lon="-3.644775">
        <ele>26.6</ele>
        <time>2020-08-13T17:21:51Z</time>
      </trkpt>
      <trkpt lat="48.673211" lon="-3.644786">
        <ele>19.0</ele>
        <time>2020-08-13T17:21:54Z</time>
      </trkpt>
      <trkpt lat="48.672436" lon="-3.644979">
        <ele>11.25</ele>
        <time>2020-08-13T17:21:59Z</time>
      </trkpt>
      <trkpt lat="48.672187" lon="-3.645013">
        <ele>13.6</ele>
        <time>2020-08-13T17:22:00Z</time>
      </trkpt>
      <trkpt lat="48.671912" lon="-3.644988">
        <ele>11.25</ele>
        <time>2020-08-13T17:22:02Z</time>
      </trkpt>
      <trkpt lat="48.671809" lon="-3.644945">
        <ele>11.25</ele>
        <time>2020-08-13T17:22:03Z</time>
      </trkpt>
      <trkpt lat="48.671521" lon="-3.644763">
        <ele>0.0</ele>
        <time>2020-08-13T17:22:05Z</time>
      </trkpt>
      <trkpt lat="48.670975" lon="-3.644304">
        <ele>0.0</ele>
        <time>2020-08-13T17:22:08Z</time>
      </trkpt>
      <trkpt lat="48.670115" lon="-3.643656">
        <ele>4.0</ele>
        <time>2020-08-13T17:22:14Z</time>
      </trkpt>
      <trkpt lat="48.669925" lon="-3.643411">
        <ele>5.75</ele>
        <time>2020-08-13T17:22:16Z</time>
      </trkpt>
      <trkpt lat="48.669746" lon="-3.643017">
        <ele>7.0</ele>
        <time>2020-08-13T17:22:17Z</time>
      </trkpt>
      <trkpt lat="48.669659" lon="-3.642696">
        <ele>7.0</ele>
        <time>2020-08-13T17:22:19Z</time>
      </trkpt>
      <trkpt lat="48.669629" lon="-3.642428">
        <ele>8.0</ele>
        <time>2020-08-13T17:22:20Z</time>
      </trkpt>
      <trkpt lat="48.669623" lon="-3.642021">
        <ele>8.0</ele>
        <time>2020-08-13T17:22:21Z</time>
      </trkpt>
      <trkpt lat="48.669649" lon="-3.64152">
        <ele>8.8</ele>
        <time>2020-08-13T17:22:23Z</time>
      </trkpt>
      <trkpt lat="48.669762" lon="-3.640319">
        <ele>8.4</ele>
        <time>2020-08-13T17:22:28Z</time>
      </trkpt>
      <trkpt lat="48.66987" lon="-3.639666">
        <ele>8.4</ele>
        <time>2020-08-13T17:22:31Z</time>
      </trkpt>
      <trkpt lat="48.670053" lon="-3.63881">
        <ele>5.25</ele>
        <time>2020-08-13T17:22:35Z</time>
      </trkpt>
      <trkpt lat="48.669853" lon="-3.638646">
        <ele>9.4</ele>
        <time>2020-08-13T17:22:37Z</time>
      </trkpt>
      <trkpt lat="48.669622" lon="-3.638414">
        <ele>9.4</ele>
        <time>2020-08-13T17:22:40Z</time>
      </trkpt>
      <trkpt lat="48.668421" lon="-3.636821">
        <ele>17.8</ele>
        <time>2020-08-13T17:22:56Z</time>
      </trkpt>
      <trkpt lat="48.668253" lon="-3.636568">
        <ele>23.4</ele>
        <time>2020-08-13T17:22:59Z</time>
      </trkpt>
      <trkpt lat="48.668147" lon="-3.636358">
        <ele>23.4</ele>
        <time>2020-08-13T17:23:01Z</time>
      </trkpt>
      <trkpt lat="48.667031" lon="-3.633653">
        <ele>33.4</ele>
        <time>2020-08-13T17:23:22Z</time>
      </trkpt>
      <trkpt lat="48.666863" lon="-3.633319">
        <ele>35.2</ele>
        <time>2020-08-13T17:23:25Z</time>
      </trkpt>
      <trkpt lat="48.666771" lon="-3.633169">
        <ele>35.2</ele>
        <time>2020-08-13T17:23:26Z</time>
      </trkpt>
      <trkpt lat="48.666074" lon="-3.632298">
        <ele>39.0</ele>
        <time>2020-08-13T17:23:36Z</time>
      </trkpt>
      <trkpt lat="48.66427" lon="-3.630113">
        <ele>46.2</ele>
        <time>2020-08-13T17:23:59Z</time>
      </trkpt>
      <trkpt lat="48.664151" lon="-3.629726">
        <ele>49.0</ele>
        <time>2020-08-13T17:24:04Z</time>
      </trkpt>
      <trkpt lat="48.663809" lon="-3.628868">
        <ele>50.6</ele>
        <time>2020-08-13T17:24:17Z</time>
      </trkpt>
      <trkpt lat="48.663777" lon="-3.628049">
        <ele>51.8</ele>
        <time>2020-08-13T17:24:27Z</time>
      </trkpt>
      <trkpt lat="48.663735" lon="-3.627589">
        <ele>51.8</ele>
        <time>2020-08-13T17:24:32Z</time>
      </trkpt>
      <trkpt lat="48.66363" lon="-3.627409">
        <ele>53.2</ele>
        <time>2020-08-13T17:24:35Z</time>
      </trkpt>
      <trkpt lat="48.663126" lon="-3.62669">
        <ele>55.0</ele>
        <time>2020-08-13T17:24:48Z</time>
      </trkpt>
      <trkpt lat="48.663518" lon="-3.625952">
        <ele>54.6</ele>
        <time>2020-08-13T17:24:55Z</time>
      </trkpt>
      <trkpt lat="48.663812" lon="-3.625514">
        <ele>55.4</ele>
        <time>2020-08-13T17:24:59Z</time>
      </trkpt>
      <trkpt lat="48.664249" lon="-3.624968">
        <ele>53.8</ele>
        <time>2020-08-13T17:25:05Z</time>
      </trkpt>
      <trkpt lat="48.664485" lon="-3.624746">
        <ele>53.8</ele>
        <time>2020-08-13T17:25:08Z</time>
      </trkpt>
      <trkpt lat="48.665153" lon="-3.624037">
        <ele>50.4</ele>
        <time>2020-08-13T17:25:17Z</time>
      </trkpt>
      <trkpt lat="48.665473" lon="-3.623606">
        <ele>50.4</ele>
        <time>2020-08-13T17:25:22Z</time>
      </trkpt>
      <trkpt lat="48.665662" lon="-3.623318">
        <ele>49.8</ele>
        <time>2020-08-13T17:25:25Z</time>
      </trkpt>
      <trkpt lat="48.666076" lon="-3.622517">
        <ele>47.8</ele>
        <time>2020-08-13T17:25:32Z</time>
      </trkpt>
      <trkpt lat="48.666425" lon="-3.62174">
        <ele>47.2</ele>
        <time>2020-08-13T17:25:39Z</time>
      </trkpt>
      <trkpt lat="48.667553" lon="-3.619708">
        <ele>41.0</ele>
        <time>2020-08-13T17:25:58Z</time>
      </trkpt>
      <trkpt lat="48.668284" lon="-3.618344">
        <ele>42.2</ele>
        <time>2020-08-13T17:26:10Z</time>
      </trkpt>
      <trkpt lat="48.668439" lon="-3.617904">
        <ele>41.8</ele>
        <time>2020-08-13T17:26:14Z</time>
      </trkpt>
      <trkpt lat="48.668669" lon="-3.617083">
        <ele>44.0</ele>
        <time>2020-08-13T17:26:20Z</time>
      </trkpt>
      <trkpt lat="48.668777" lon="-3.61677">
        <ele>44.0</ele>
        <time>2020-08-13T17:26:23Z</time>
      </trkpt>
      <trkpt lat="48.669045" lon="-3.616122">
        <ele>46.0</ele>
        <time>2020-08-13T17:26:28Z</time>
      </trkpt>
      <trkpt lat="48.669129" lon="-3.615781">
        <ele>46.0</ele>
        <time>2020-08-13T17:26:31Z</time>
      </trkpt>
      <trkpt lat="48.669237" lon="-3.61495">
        <ele>41.8</ele>
        <time>2020-08-13T17:26:37Z</time>
      </trkpt>
      <trkpt lat="48.669347" lon="-3.613842">
        <ele>38.6</ele>
        <time>2020-08-13T17:26:45Z</time>
      </trkpt>
      <trkpt lat="48.669462" lon="-3.613431">
        <ele>38.6</ele>
        <time>2020-08-13T17:26:48Z</time>
      </trkpt>
      <trkpt lat="48.669808" lon="-3.612713">
        <ele>36.0</ele>
        <time>2020-08-13T17:26:55Z</time>
      </trkpt>
      <trkpt lat="48.669845" lon="-3.612608">
        <ele>36.0</ele>
        <time>2020-08-13T17:26:55Z</time>
      </trkpt>
      <trkpt lat="48.669893" lon="-3.61237">
        <ele>33.4</ele>
        <time>2020-08-13T17:26:57Z</time>
      </trkpt>
      <trkpt lat="48.669911" lon="-3.61213">
        <ele>33.4</ele>
        <time>2020-08-13T17:26:59Z</time>
      </trkpt>
      <trkpt lat="48.66988" lon="-3.611856">
        <ele>33.4</ele>
        <time>2020-08-13T17:27:01Z</time>
      </trkpt>
      <trkpt lat="48.669776" lon="-3.611531">
        <ele>30.0</ele>
        <time>2020-08-13T17:27:04Z</time>
      </trkpt>
      <trkpt lat="48.669649" lon="-3.611346">
        <ele>30.0</ele>
        <time>2020-08-13T17:27:06Z</time>
      </trkpt>
      <trkpt lat="48.669586" lon="-3.61122">
        <ele>30.0</ele>
        <time>2020-08-13T17:27:07Z</time>
      </trkpt>
      <trkpt lat="48.669483" lon="-3.610946">
        <ele>30.0</ele>
        <time>2020-08-13T17:27:09Z</time>
      </trkpt>
      <trkpt lat="48.669442" lon="-3.610783">
        <ele>26.0</ele>
        <time>2020-08-13T17:27:10Z</time>
      </trkpt>
      <trkpt lat="48.669299" lon="-3.609904">
        <ele>23.0</ele>
        <time>2020-08-13T17:27:17Z</time>
      </trkpt>
      <trkpt lat="48.669161" lon="-3.60884">
        <ele>39.4</ele>
        <time>2020-08-13T17:27:25Z</time>
      </trkpt>
      <trkpt lat="48.669157" lon="-3.60844">
        <ele>39.4</ele>
        <time>2020-08-13T17:27:28Z</time>
      </trkpt>
      <trkpt lat="48.669214" lon="-3.607979">
        <ele>20.4</ele>
        <time>2020-08-13T17:27:31Z</time>
      </trkpt>
      <trkpt lat="48.669272" lon="-3.60765">
        <ele>20.4</ele>
        <time>2020-08-13T17:27:34Z</time>
      </trkpt>
      <trkpt lat="48.669293" lon="-3.607315">
        <ele>19.6</ele>
        <time>2020-08-13T17:27:36Z</time>
      </trkpt>
      <trkpt lat="48.669079" lon="-3.604516">
        <ele>32.8</ele>
        <time>2020-08-13T17:27:56Z</time>
      </trkpt>
      <trkpt lat="48.668734" lon="-3.599574">
        <ele>9.6</ele>
        <time>2020-08-13T17:28:32Z</time>
      </trkpt>
      <trkpt lat="48.668521" lon="-3.596434">
        <ele>9.4</ele>
        <time>2020-08-13T17:28:55Z</time>
      </trkpt>
      <trkpt lat="48.668521" lon="-3.595953">
        <ele>9.4</ele>
        <time>2020-08-13T17:28:58Z</time>
      </trkpt>
      <trkpt lat="48.668551" lon="-3.595686">
        <ele>10.8</ele>
        <time>2020-08-13T17:29:00Z</time>
      </trkpt>
      <trkpt lat="48.668706" lon="-3.595062">
        <ele>10.8</ele>
        <time>2020-08-13T17:29:05Z</time>
      </trkpt>
      <trkpt lat="48.668886" lon="-3.594501">
        <ele>11.8</ele>
        <time>2020-08-13T17:29:09Z</time>
      </trkpt>
      <trkpt lat="48.66905" lon="-3.59408">
        <ele>14.2</ele>
        <time>2020-08-13T17:29:13Z</time>
      </trkpt>
      <trkpt lat="48.669644" lon="-3.592902">
        <ele>12.0</ele>
        <time>2020-08-13T17:29:23Z</time>
      </trkpt>
      <trkpt lat="48.671129" lon="-3.590188">
        <ele>0.0</ele>
        <time>2020-08-13T17:29:49Z</time>
      </trkpt>
      <trkpt lat="48.671328" lon="-3.589717">
        <ele>37.67</ele>
        <time>2020-08-13T17:29:54Z</time>
      </trkpt>
      <trkpt lat="48.671384" lon="-3.589525">
        <ele>37.67</ele>
        <time>2020-08-13T17:29:56Z</time>
      </trkpt>
      <trkpt lat="48.671493" lon="-3.588986">
        <ele>37.75</ele>
        <time>2020-08-13T17:30:00Z</time>
      </trkpt>
      <trkpt lat="48.671506" lon="-3.588818">
        <ele>37.75</ele>
        <time>2020-08-13T17:30:01Z</time>
      </trkpt>
      <trkpt lat="48.671499" lon="-3.588526">
        <ele>37.75</ele>
        <time>2020-08-13T17:30:03Z</time>
      </trkpt>
      <trkpt lat="48.671464" lon="-3.588302">
        <ele>31.5</ele>
        <time>2020-08-13T17:30:05Z</time>
      </trkpt>
      <trkpt lat="48.671415" lon="-3.588126">
        <ele>31.5</ele>
        <time>2020-08-13T17:30:06Z</time>
      </trkpt>
      <trkpt lat="48.671297" lon="-3.587826">
        <ele>31.5</ele>
        <time>2020-08-13T17:30:09Z</time>
      </trkpt>
      <trkpt lat="48.670907" lon="-3.58704">
        <ele>18.5</ele>
        <time>2020-08-13T17:30:16Z</time>
      </trkpt>
      <trkpt lat="48.670786" lon="-3.586719">
        <ele>26.0</ele>
        <time>2020-08-13T17:30:18Z</time>
      </trkpt>
      <trkpt lat="48.670695" lon="-3.586291">
        <ele>18.25</ele>
        <time>2020-08-13T17:30:22Z</time>
      </trkpt>
      <trkpt lat="48.670281" lon="-3.583481">
        <ele>0.0</ele>
        <time>2020-08-13T17:30:42Z</time>
      </trkpt>
      <trkpt lat="48.670229" lon="-3.583003">
        <ele>7.66</ele>
        <time>2020-08-13T17:30:46Z</time>
      </trkpt>
      <trkpt lat="48.670216" lon="-3.582243">
        <ele>7.75</ele>
        <time>2020-08-13T17:30:51Z</time>
      </trkpt>
      <trkpt lat="48.670257" lon="-3.581711">
        <ele>7.75</ele>
        <time>2020-08-13T17:30:55Z</time>
      </trkpt>
      <trkpt lat="48.670336" lon="-3.581243">
        <ele>8.75</ele>
        <time>2020-08-13T17:30:59Z</time>
      </trkpt>
      <trkpt lat="48.670505" lon="-3.580647">
        <ele>10.75</ele>
        <time>2020-08-13T17:31:03Z</time>
      </trkpt>
      <trkpt lat="48.670654" lon="-3.580235">
        <ele>10.75</ele>
        <time>2020-08-13T17:31:07Z</time>
      </trkpt>
      <trkpt lat="48.67083" lon="-3.579843">
        <ele>12.0</ele>
        <time>2020-08-13T17:31:10Z</time>
      </trkpt>
      <trkpt lat="48.671106" lon="-3.579354">
        <ele>4.67</ele>
        <time>2020-08-13T17:31:15Z</time>
      </trkpt>
      <trkpt lat="48.672637" lon="-3.577047">
        <ele>15.33</ele>
        <time>2020-08-13T17:31:38Z</time>
      </trkpt>
      <trkpt lat="48.674789" lon="-3.573405">
        <ele>19.5</ele>
        <time>2020-08-13T17:32:13Z</time>
      </trkpt>
      <trkpt lat="48.675118" lon="-3.572893">
        <ele>11.67</ele>
        <time>2020-08-13T17:32:18Z</time>
      </trkpt>
      <trkpt lat="48.675319" lon="-3.572613">
        <ele>11.67</ele>
        <time>2020-08-13T17:32:21Z</time>
      </trkpt>
      <trkpt lat="48.675413" lon="-3.572498">
        <ele>10.5</ele>
        <time>2020-08-13T17:32:23Z</time>
      </trkpt>
      <trkpt lat="48.675942" lon="-3.571968">
        <ele>0.0</ele>
        <time>2020-08-13T17:32:30Z</time>
      </trkpt>
      <trkpt lat="48.678248" lon="-3.570057">
        <ele>15.33</ele>
        <time>2020-08-13T17:32:58Z</time>
      </trkpt>
      <trkpt lat="48.679932" lon="-3.569075">
        <ele>22.25</ele>
        <time>2020-08-13T17:33:18Z</time>
      </trkpt>
      <trkpt lat="48.682448" lon="-3.567658">
        <ele>0.0</ele>
        <time>2020-08-13T17:33:47Z</time>
      </trkpt>
      <trkpt lat="48.683005" lon="-3.567392">
        <ele>21.5</ele>
        <time>2020-08-13T17:33:54Z</time>
      </trkpt>
      <trkpt lat="48.683678" lon="-3.567177">
        <ele>15.0</ele>
        <time>2020-08-13T17:34:01Z</time>
      </trkpt>
      <trkpt lat="48.684192" lon="-3.567088">
        <ele>11.25</ele>
        <time>2020-08-13T17:34:07Z</time>
      </trkpt>
      <trkpt lat="48.684256" lon="-3.567058">
        <ele>11.25</ele>
        <time>2020-08-13T17:34:07Z</time>
      </trkpt>
      <trkpt lat="48.684299" lon="-3.566968">
        <ele>11.25</ele>
        <time>2020-08-13T17:34:08Z</time>
      </trkpt>
      <trkpt lat="48.684507" lon="-3.565873">
        <ele>18.6</ele>
        <time>2020-08-13T17:34:16Z</time>
      </trkpt>
      <trkpt lat="48.68455" lon="-3.565434">
        <ele>28.0</ele>
        <time>2020-08-13T17:34:20Z</time>
      </trkpt>
      <trkpt lat="48.684587" lon="-3.564817">
        <ele>34.8</ele>
        <time>2020-08-13T17:34:24Z</time>
      </trkpt>
      <trkpt lat="48.684626" lon="-3.563924">
        <ele>37.4</ele>
        <time>2020-08-13T17:34:31Z</time>
      </trkpt>
      <trkpt lat="48.684625" lon="-3.563354">
        <ele>37.4</ele>
        <time>2020-08-13T17:34:35Z</time>
      </trkpt>
      <trkpt lat="48.684497" lon="-3.562268">
        <ele>32.8</ele>
        <time>2020-08-13T17:34:43Z</time>
      </trkpt>
      <trkpt lat="48.684486" lon="-3.562103">
        <ele>32.8</ele>
        <time>2020-08-13T17:34:44Z</time>
      </trkpt>
      <trkpt lat="48.684493" lon="-3.561846">
        <ele>32.8</ele>
        <time>2020-08-13T17:34:46Z</time>
      </trkpt>
      <trkpt lat="48.684537" lon="-3.56166">
        <ele>30.4</ele>
        <time>2020-08-13T17:34:47Z</time>
      </trkpt>
      <trkpt lat="48.68457" lon="-3.561582">
        <ele>30.4</ele>
        <time>2020-08-13T17:34:48Z</time>
      </trkpt>
      <trkpt lat="48.684626" lon="-3.561482">
        <ele>30.4</ele>
        <time>2020-08-13T17:34:49Z</time>
      </trkpt>
      <trkpt lat="48.684768" lon="-3.561318">
        <ele>30.4</ele>
        <time>2020-08-13T17:34:51Z</time>
      </trkpt>
      <trkpt lat="48.684957" lon="-3.561191">
        <ele>30.4</ele>
        <time>2020-08-13T17:34:53Z</time>
      </trkpt>
      <trkpt lat="48.685074" lon="-3.561185">
        <ele>29.2</ele>
        <time>2020-08-13T17:34:54Z</time>
      </trkpt>
      <trkpt lat="48.685148" lon="-3.561206">
        <ele>29.2</ele>
        <time>2020-08-13T17:34:55Z</time>
      </trkpt>
      <trkpt lat="48.685628" lon="-3.56157">
        <ele>29.2</ele>
        <time>2020-08-13T17:35:01Z</time>
      </trkpt>
      <trkpt lat="48.685705" lon="-3.561606">
        <ele>29.2</ele>
        <time>2020-08-13T17:35:02Z</time>
      </trkpt>
      <trkpt lat="48.685899" lon="-3.561589">
        <ele>35.4</ele>
        <time>2020-08-13T17:35:04Z</time>
      </trkpt>
      <trkpt lat="48.686959" lon="-3.561339">
        <ele>43.0</ele>
        <time>2020-08-13T17:35:15Z</time>
      </trkpt>
      <trkpt lat="48.687393" lon="-3.561073">
        <ele>43.0</ele>
        <time>2020-08-13T17:35:21Z</time>
      </trkpt>
      <trkpt lat="48.687705" lon="-3.560856">
        <ele>47.6</ele>
        <time>2020-08-13T17:35:24Z</time>
      </trkpt>
      <trkpt lat="48.688083" lon="-3.560785">
        <ele>51.8</ele>
        <time>2020-08-13T17:35:28Z</time>
      </trkpt>
      <trkpt lat="48.688508" lon="-3.560741">
        <ele>51.4</ele>
        <time>2020-08-13T17:35:33Z</time>
      </trkpt>
      <trkpt lat="48.688739" lon="-3.560673">
        <ele>51.4</ele>
        <time>2020-08-13T17:35:36Z</time>
      </trkpt>
      <trkpt lat="48.688913" lon="-3.560555">
        <ele>51.4</ele>
        <time>2020-08-13T17:35:38Z</time>
      </trkpt>
      <trkpt lat="48.689084" lon="-3.560382">
        <ele>51.4</ele>
        <time>2020-08-13T17:35:40Z</time>
      </trkpt>
      <trkpt lat="48.689504" lon="-3.559859">
        <ele>59.0</ele>
        <time>2020-08-13T17:35:46Z</time>
      </trkpt>
      <trkpt lat="48.689631" lon="-3.559622">
        <ele>59.0</ele>
        <time>2020-08-13T17:35:48Z</time>
      </trkpt>
      <trkpt lat="48.689882" lon="-3.55893">
        <ele>66.6</ele>
        <time>2020-08-13T17:35:54Z</time>
      </trkpt>
      <trkpt lat="48.690068" lon="-3.558497">
        <ele>64.6</ele>
        <time>2020-08-13T17:35:57Z</time>
      </trkpt>
      <trkpt lat="48.69025" lon="-3.558222">
        <ele>70.0</ele>
        <time>2020-08-13T17:36:00Z</time>
      </trkpt>
      <trkpt lat="48.690347" lon="-3.557896">
        <ele>70.0</ele>
        <time>2020-08-13T17:36:03Z</time>
      </trkpt>
      <trkpt lat="48.690383" lon="-3.557592">
        <ele>70.0</ele>
        <time>2020-08-13T17:36:05Z</time>
      </trkpt>
      <trkpt lat="48.69043" lon="-3.557432">
        <ele>77.2</ele>
        <time>2020-08-13T17:36:06Z</time>
      </trkpt>
      <trkpt lat="48.690502" lon="-3.557292">
        <ele>77.2</ele>
        <time>2020-08-13T17:36:08Z</time>
      </trkpt>
      <trkpt lat="48.690592" lon="-3.557171">
        <ele>77.2</ele>
        <time>2020-08-13T17:36:09Z</time>
      </trkpt>
      <trkpt lat="48.690923" lon="-3.556874">
        <ele>75.4</ele>
        <time>2020-08-13T17:36:13Z</time>
      </trkpt>
      <trkpt lat="48.691185" lon="-3.556576">
        <ele>80.6</ele>
        <time>2020-08-13T17:36:17Z</time>
      </trkpt>
      <trkpt lat="48.691312" lon="-3.556382">
        <ele>80.6</ele>
        <time>2020-08-13T17:36:19Z</time>
      </trkpt>
      <trkpt lat="48.69142" lon="-3.556148">
        <ele>80.6</ele>
        <time>2020-08-13T17:36:21Z</time>
      </trkpt>
      <trkpt lat="48.691563" lon="-3.555694">
        <ele>86.0</ele>
        <time>2020-08-13T17:36:24Z</time>
      </trkpt>
      <trkpt lat="48.691611" lon="-3.555462">
        <ele>86.0</ele>
        <time>2020-08-13T17:36:26Z</time>
      </trkpt>
      <trkpt lat="48.691655" lon="-3.555069">
        <ele>86.0</ele>
        <time>2020-08-13T17:36:29Z</time>
      </trkpt>
      <trkpt lat="48.691706" lon="-3.554209">
        <ele>87.8</ele>
        <time>2020-08-13T17:36:35Z</time>
      </trkpt>
      <trkpt lat="48.691772" lon="-3.553843">
        <ele>88.2</ele>
        <time>2020-08-13T17:36:38Z</time>
      </trkpt>
      <trkpt lat="48.691852" lon="-3.553667">
        <ele>88.2</ele>
        <time>2020-08-13T17:36:39Z</time>
      </trkpt>
      <trkpt lat="48.692014" lon="-3.553415">
        <ele>88.2</ele>
        <time>2020-08-13T17:36:42Z</time>
      </trkpt>
      <trkpt lat="48.692446" lon="-3.5529">
        <ele>87.8</ele>
        <time>2020-08-13T17:36:48Z</time>
      </trkpt>
      <trkpt lat="48.692606" lon="-3.55283">
        <ele>91.2</ele>
        <time>2020-08-13T17:36:50Z</time>
      </trkpt>
      <trkpt lat="48.692773" lon="-3.552819">
        <ele>91.2</ele>
        <time>2020-08-13T17:36:52Z</time>
      </trkpt>
      <trkpt lat="48.692853" lon="-3.552842">
        <ele>91.2</ele>
        <time>2020-08-13T17:36:52Z</time>
      </trkpt>
      <trkpt lat="48.693527" lon="-3.553116">
        <ele>93.2</ele>
        <time>2020-08-13T17:37:00Z</time>
      </trkpt>
      <trkpt lat="48.693814" lon="-3.55305">
        <ele>93.2</ele>
        <time>2020-08-13T17:37:03Z</time>
      </trkpt>
      <trkpt lat="48.694193" lon="-3.552757">
        <ele>95.8</ele>
        <time>2020-08-13T17:37:08Z</time>
      </trkpt>
      <trkpt lat="48.694408" lon="-3.552223">
        <ele>99.0</ele>
        <time>2020-08-13T17:37:12Z</time>
      </trkpt>
      <trkpt lat="48.69445" lon="-3.551698">
        <ele>99.0</ele>
        <time>2020-08-13T17:37:16Z</time>
      </trkpt>
      <trkpt lat="48.694473" lon="-3.547717">
        <ele>109.6</ele>
        <time>2020-08-13T17:37:45Z</time>
      </trkpt>
      <trkpt lat="48.694523" lon="-3.547222">
        <ele>110.4</ele>
        <time>2020-08-13T17:37:48Z</time>
      </trkpt>
      <trkpt lat="48.694579" lon="-3.546933">
        <ele>110.4</ele>
        <time>2020-08-13T17:37:50Z</time>
      </trkpt>
      <trkpt lat="48.694745" lon="-3.546309">
        <ele>111.4</ele>
        <time>2020-08-13T17:37:55Z</time>
      </trkpt>
      <trkpt lat="48.695313" lon="-3.544394">
        <ele>115.2</ele>
        <time>2020-08-13T17:38:10Z</time>
      </trkpt>
      <trkpt lat="48.695908" lon="-3.542993">
        <ele>117.2</ele>
        <time>2020-08-13T17:38:22Z</time>
      </trkpt>
      <trkpt lat="48.696314" lon="-3.542079">
        <ele>118.4</ele>
        <time>2020-08-13T17:38:30Z</time>
      </trkpt>
      <trkpt lat="48.696385" lon="-3.541833">
        <ele>118.4</ele>
        <time>2020-08-13T17:38:34Z</time>
      </trkpt>
      <trkpt lat="48.696347" lon="-3.541752">
        <ele>118.4</ele>
        <time>2020-08-13T17:38:34Z</time>
      </trkpt>
      <trkpt lat="48.696333" lon="-3.541651">
        <ele>119.2</ele>
        <time>2020-08-13T17:38:35Z</time>
      </trkpt>
      <trkpt lat="48.696353" lon="-3.541519">
        <ele>119.2</ele>
        <time>2020-08-13T17:38:35Z</time>
      </trkpt>
      <trkpt lat="48.696398" lon="-3.541435">
        <ele>119.2</ele>
        <time>2020-08-13T17:38:36Z</time>
      </trkpt>
      <trkpt lat="48.696468" lon="-3.541386">
        <ele>119.2</ele>
        <time>2020-08-13T17:38:37Z</time>
      </trkpt>
      <trkpt lat="48.696545" lon="-3.541387">
        <ele>119.2</ele>
        <time>2020-08-13T17:38:37Z</time>
      </trkpt>
      <trkpt lat="48.69669" lon="-3.541141">
        <ele>117.0</ele>
        <time>2020-08-13T17:38:39Z</time>
      </trkpt>
      <trkpt lat="48.696931" lon="-3.54029">
        <ele>117.0</ele>
        <time>2020-08-13T17:38:43Z</time>
      </trkpt>
      <trkpt lat="48.697062" lon="-3.539742">
        <ele>116.4</ele>
        <time>2020-08-13T17:38:46Z</time>
      </trkpt>
      <trkpt lat="48.697949" lon="-3.535504">
        <ele>112.4</ele>
        <time>2020-08-13T17:39:08Z</time>
      </trkpt>
      <trkpt lat="48.699489" lon="-3.527738">
        <ele>108.0</ele>
        <time>2020-08-13T17:39:47Z</time>
      </trkpt>
      <trkpt lat="48.699887" lon="-3.525885">
        <ele>106.0</ele>
        <time>2020-08-13T17:39:57Z</time>
      </trkpt>
      <trkpt lat="48.700277" lon="-3.523844">
        <ele>105.2</ele>
        <time>2020-08-13T17:40:07Z</time>
      </trkpt>
      <trkpt lat="48.700223" lon="-3.523796">
        <ele>105.2</ele>
        <time>2020-08-13T17:40:07Z</time>
      </trkpt>
      <trkpt lat="48.700187" lon="-3.523719">
        <ele>105.2</ele>
        <time>2020-08-13T17:40:08Z</time>
      </trkpt>
      <trkpt lat="48.700175" lon="-3.523626">
        <ele>105.2</ele>
        <time>2020-08-13T17:40:08Z</time>
      </trkpt>
      <trkpt lat="48.70019" lon="-3.523534">
        <ele>105.2</ele>
        <time>2020-08-13T17:40:08Z</time>
      </trkpt>
      <trkpt lat="48.700213" lon="-3.523483">
        <ele>105.2</ele>
        <time>2020-08-13T17:40:09Z</time>
      </trkpt>
      <trkpt lat="48.700282" lon="-3.523418">
        <ele>105.2</ele>
        <time>2020-08-13T17:40:09Z</time>
      </trkpt>
      <trkpt lat="48.700364" lon="-3.523419">
        <ele>105.2</ele>
        <time>2020-08-13T17:40:10Z</time>
      </trkpt>
      <trkpt lat="48.701215" lon="-3.519031">
        <ele>102.0</ele>
        <time>2020-08-13T17:40:26Z</time>
      </trkpt>
      <trkpt lat="48.701346" lon="-3.518434">
        <ele>102.0</ele>
        <time>2020-08-13T17:40:28Z</time>
      </trkpt>
      <trkpt lat="48.701598" lon="-3.517697">
        <ele>101.4</ele>
        <time>2020-08-13T17:40:31Z</time>
      </trkpt>
      <trkpt lat="48.701759" lon="-3.517128">
        <ele>98.2</ele>
        <time>2020-08-13T17:40:33Z</time>
      </trkpt>
      <trkpt lat="48.702347" lon="-3.51481">
        <ele>94.6</ele>
        <time>2020-08-13T17:40:42Z</time>
      </trkpt>
      <trkpt lat="48.702512" lon="-3.514235">
        <ele>94.2</ele>
        <time>2020-08-13T17:40:44Z</time>
      </trkpt>
      <trkpt lat="48.703418" lon="-3.511524">
        <ele>92.8</ele>
        <time>2020-08-13T17:40:55Z</time>
      </trkpt>
      <trkpt lat="48.70354" lon="-3.511199">
        <ele>92.8</ele>
        <time>2020-08-13T17:40:56Z</time>
      </trkpt>
      <trkpt lat="48.703914" lon="-3.510415">
        <ele>91.8</ele>
        <time>2020-08-13T17:40:59Z</time>
      </trkpt>
      <trkpt lat="48.70657" lon="-3.505947">
        <ele>89.4</ele>
        <time>2020-08-13T17:41:21Z</time>
      </trkpt>
      <trkpt lat="48.708117" lon="-3.503303">
        <ele>85.2</ele>
        <time>2020-08-13T17:41:33Z</time>
      </trkpt>
      <trkpt lat="48.708349" lon="-3.502953">
        <ele>83.8</ele>
        <time>2020-08-13T17:41:35Z</time>
      </trkpt>
      <trkpt lat="48.708586" lon="-3.502655">
        <ele>83.8</ele>
        <time>2020-08-13T17:41:37Z</time>
      </trkpt>
      <trkpt lat="48.708847" lon="-3.502408">
        <ele>84.0</ele>
        <time>2020-08-13T17:41:38Z</time>
      </trkpt>
      <trkpt lat="48.709174" lon="-3.502178">
        <ele>83.6</ele>
        <time>2020-08-13T17:41:40Z</time>
      </trkpt>
      <trkpt lat="48.710205" lon="-3.501544">
        <ele>85.4</ele>
        <time>2020-08-13T17:41:46Z</time>
      </trkpt>
      <trkpt lat="48.710428" lon="-3.501389">
        <ele>85.4</ele>
        <time>2020-08-13T17:41:47Z</time>
      </trkpt>
      <trkpt lat="48.71075" lon="-3.501117">
        <ele>85.4</ele>
        <time>2020-08-13T17:41:49Z</time>
      </trkpt>
      <trkpt lat="48.711838" lon="-3.500027">
        <ele>88.6</ele>
        <time>2020-08-13T17:41:56Z</time>
      </trkpt>
      <trkpt lat="48.711967" lon="-3.499866">
        <ele>90.2</ele>
        <time>2020-08-13T17:41:57Z</time>
      </trkpt>
      <trkpt lat="48.713274" lon="-3.497919">
        <ele>93.6</ele>
        <time>2020-08-13T17:42:07Z</time>
      </trkpt>
      <trkpt lat="48.714186" lon="-3.496491">
        <ele>96.2</ele>
        <time>2020-08-13T17:42:14Z</time>
      </trkpt>
      <trkpt lat="48.715063" lon="-3.494797">
        <ele>96.2</ele>
        <time>2020-08-13T17:42:22Z</time>
      </trkpt>
      <trkpt lat="48.715332" lon="-3.494378">
        <ele>96.2</ele>
        <time>2020-08-13T17:42:24Z</time>
      </trkpt>
      <trkpt lat="48.715936" lon="-3.493659">
        <ele>97.8</ele>
        <time>2020-08-13T17:42:28Z</time>
      </trkpt>
      <trkpt lat="48.716171" lon="-3.49334">
        <ele>97.8</ele>
        <time>2020-08-13T17:42:30Z</time>
      </trkpt>
      <trkpt lat="48.716523" lon="-3.492728">
        <ele>97.6</ele>
        <time>2020-08-13T17:42:32Z</time>
      </trkpt>
      <trkpt lat="48.71754" lon="-3.49107">
        <ele>97.6</ele>
        <time>2020-08-13T17:42:40Z</time>
      </trkpt>
      <trkpt lat="48.718102" lon="-3.490117">
        <ele>97.2</ele>
        <time>2020-08-13T17:42:45Z</time>
      </trkpt>
      <trkpt lat="48.718156" lon="-3.489895">
        <ele>97.2</ele>
        <time>2020-08-13T17:42:46Z</time>
      </trkpt>
      <trkpt lat="48.718218" lon="-3.489729">
        <ele>97.2</ele>
        <time>2020-08-13T17:42:46Z</time>
      </trkpt>
      <trkpt lat="48.718198" lon="-3.489649">
        <ele>97.2</ele>
        <time>2020-08-13T17:42:47Z</time>
      </trkpt>
      <trkpt lat="48.718207" lon="-3.48948">
        <ele>97.2</ele>
        <time>2020-08-13T17:42:47Z</time>
      </trkpt>
      <trkpt lat="48.718237" lon="-3.489407">
        <ele>97.2</ele>
        <time>2020-08-13T17:42:48Z</time>
      </trkpt>
      <trkpt lat="48.718293" lon="-3.489339">
        <ele>97.2</ele>
        <time>2020-08-13T17:42:48Z</time>
      </trkpt>
      <trkpt lat="48.718362" lon="-3.489308">
        <ele>98.0</ele>
        <time>2020-08-13T17:42:48Z</time>
      </trkpt>
      <trkpt lat="48.718434" lon="-3.48932">
        <ele>98.0</ele>
        <time>2020-08-13T17:42:49Z</time>
      </trkpt>
      <trkpt lat="48.718497" lon="-3.489373">
        <ele>98.0</ele>
        <time>2020-08-13T17:42:49Z</time>
      </trkpt>
      <trkpt lat="48.719487" lon="-3.487211">
        <ele>97.2</ele>
        <time>2020-08-13T17:42:58Z</time>
      </trkpt>
      <trkpt lat="48.719871" lon="-3.486342">
        <ele>97.2</ele>
        <time>2020-08-13T17:43:02Z</time>
      </trkpt>
      <trkpt lat="48.720261" lon="-3.485388">
        <ele>98.4</ele>
        <time>2020-08-13T17:43:05Z</time>
      </trkpt>
      <trkpt lat="48.720887" lon="-3.483929">
        <ele>98.8</ele>
        <time>2020-08-13T17:43:11Z</time>
      </trkpt>
      <trkpt lat="48.721552" lon="-3.482333">
        <ele>98.4</ele>
        <time>2020-08-13T17:43:18Z</time>
      </trkpt>
      <trkpt lat="48.721782" lon="-3.481743">
        <ele>99.4</ele>
        <time>2020-08-13T17:43:20Z</time>
      </trkpt>
      <trkpt lat="48.721676" lon="-3.481644">
        <ele>99.2</ele>
        <time>2020-08-13T17:43:21Z</time>
      </trkpt>
      <trkpt lat="48.721599" lon="-3.4815">
        <ele>98.6</ele>
        <time>2020-08-13T17:43:23Z</time>
      </trkpt>
      <trkpt lat="48.721556" lon="-3.481325">
        <ele>98.6</ele>
        <time>2020-08-13T17:43:24Z</time>
      </trkpt>
      <trkpt lat="48.721554" lon="-3.481139">
        <ele>98.6</ele>
        <time>2020-08-13T17:43:25Z</time>
      </trkpt>
      <trkpt lat="48.721585" lon="-3.480981">
        <ele>98.6</ele>
        <time>2020-08-13T17:43:26Z</time>
      </trkpt>
      <trkpt lat="48.721645" lon="-3.480843">
        <ele>98.6</ele>
        <time>2020-08-13T17:43:28Z</time>
      </trkpt>
      <trkpt lat="48.721728" lon="-3.480738">
        <ele>98.6</ele>
        <time>2020-08-13T17:43:29Z</time>
      </trkpt>
      <trkpt lat="48.721842" lon="-3.480668">
        <ele>98.6</ele>
        <time>2020-08-13T17:43:30Z</time>
      </trkpt>
      <trkpt lat="48.721995" lon="-3.480665">
        <ele>98.6</ele>
        <time>2020-08-13T17:43:32Z</time>
      </trkpt>
      <trkpt lat="48.722097" lon="-3.48072">
        <ele>98.6</ele>
        <time>2020-08-13T17:43:33Z</time>
      </trkpt>
      <trkpt lat="48.722184" lon="-3.480817">
        <ele>98.6</ele>
        <time>2020-08-13T17:43:34Z</time>
      </trkpt>
      <trkpt lat="48.722567" lon="-3.480377">
        <ele>98.8</ele>
        <time>2020-08-13T17:43:39Z</time>
      </trkpt>
      <trkpt lat="48.723638" lon="-3.47924">
        <ele>98.0</ele>
        <time>2020-08-13T17:43:54Z</time>
      </trkpt>
      <trkpt lat="48.725146" lon="-3.477671">
        <ele>96.8</ele>
        <time>2020-08-13T17:44:14Z</time>
      </trkpt>
      <trkpt lat="48.725401" lon="-3.477453">
        <ele>96.2</ele>
        <time>2020-08-13T17:44:17Z</time>
      </trkpt>
      <trkpt lat="48.725643" lon="-3.477329">
        <ele>96.2</ele>
        <time>2020-08-13T17:44:20Z</time>
      </trkpt>
      <trkpt lat="48.725798" lon="-3.47728">
        <ele>96.2</ele>
        <time>2020-08-13T17:44:22Z</time>
      </trkpt>
      <trkpt lat="48.7263" lon="-3.47724">
        <ele>95.0</ele>
        <time>2020-08-13T17:44:27Z</time>
      </trkpt>
      <trkpt lat="48.726913" lon="-3.477255">
        <ele>91.4</ele>
        <time>2020-08-13T17:44:34Z</time>
      </trkpt>
      <trkpt lat="48.727328" lon="-3.477203">
        <ele>91.4</ele>
        <time>2020-08-13T17:44:38Z</time>
      </trkpt>
      <trkpt lat="48.727696" lon="-3.477085">
        <ele>86.6</ele>
        <time>2020-08-13T17:44:42Z</time>
      </trkpt>
      <trkpt lat="48.728101" lon="-3.476884">
        <ele>86.6</ele>
        <time>2020-08-13T17:44:47Z</time>
      </trkpt>
      <trkpt lat="48.728521" lon="-3.476495">
        <ele>78.0</ele>
        <time>2020-08-13T17:44:53Z</time>
      </trkpt>
      <trkpt lat="48.728831" lon="-3.476181">
        <ele>78.0</ele>
        <time>2020-08-13T17:44:57Z</time>
      </trkpt>
      <trkpt lat="48.729285" lon="-3.475545">
        <ele>68.0</ele>
        <time>2020-08-13T17:45:03Z</time>
      </trkpt>
      <trkpt lat="48.729554" lon="-3.475014">
        <ele>68.0</ele>
        <time>2020-08-13T17:45:08Z</time>
      </trkpt>
      <trkpt lat="48.729725" lon="-3.474545">
        <ele>62.8</ele>
        <time>2020-08-13T17:45:12Z</time>
      </trkpt>
      <trkpt lat="48.730126" lon="-3.473064">
        <ele>43.2</ele>
        <time>2020-08-13T17:45:24Z</time>
      </trkpt>
      <trkpt lat="48.730255" lon="-3.472494">
        <ele>38.6</ele>
        <time>2020-08-13T17:45:28Z</time>
      </trkpt>
      <trkpt lat="48.730352" lon="-3.471901">
        <ele>38.6</ele>
        <time>2020-08-13T17:45:33Z</time>
      </trkpt>
      <trkpt lat="48.730447" lon="-3.471024">
        <ele>34.0</ele>
        <time>2020-08-13T17:45:39Z</time>
      </trkpt>
      <trkpt lat="48.730469" lon="-3.47051">
        <ele>29.6</ele>
        <time>2020-08-13T17:45:43Z</time>
      </trkpt>
      <trkpt lat="48.730469" lon="-3.469835">
        <ele>24.4</ele>
        <time>2020-08-13T17:45:48Z</time>
      </trkpt>
      <trkpt lat="48.730422" lon="-3.468826">
        <ele>19.6</ele>
        <time>2020-08-13T17:45:55Z</time>
      </trkpt>
      <trkpt lat="48.730275" lon="-3.467028">
        <ele>12.0</ele>
        <time>2020-08-13T17:46:08Z</time>
      </trkpt>
      <trkpt lat="48.730265" lon="-3.466657">
        <ele>9.4</ele>
        <time>2020-08-13T17:46:11Z</time>
      </trkpt>
      <trkpt lat="48.730339" lon="-3.466204">
        <ele>9.4</ele>
        <time>2020-08-13T17:46:14Z</time>
      </trkpt>
      <trkpt lat="48.730383" lon="-3.466035">
        <ele>9.4</ele>
        <time>2020-08-13T17:46:16Z</time>
      </trkpt>
      <trkpt lat="48.730444" lon="-3.465896">
        <ele>9.4</ele>
        <time>2020-08-13T17:46:17Z</time>
      </trkpt>
      <trkpt lat="48.730556" lon="-3.465708">
        <ele>6.8</ele>
        <time>2020-08-13T17:46:19Z</time>
      </trkpt>
      <trkpt lat="48.731272" lon="-3.465047">
        <ele>3.4</ele>
        <time>2020-08-13T17:46:28Z</time>
      </trkpt>
      <trkpt lat="48.731267" lon="-3.465009">
        <ele>3.4</ele>
        <time>2020-08-13T17:46:29Z</time>
      </trkpt>
      <trkpt lat="48.731301" lon="-3.46491">
        <ele>3.4</ele>
        <time>2020-08-13T17:46:30Z</time>
      </trkpt>
      <trkpt lat="48.731324" lon="-3.464896">
        <ele>3.4</ele>
        <time>2020-08-13T17:46:31Z</time>
      </trkpt>
      <trkpt lat="48.73135" lon="-3.464894">
        <ele>3.4</ele>
        <time>2020-08-13T17:46:31Z</time>
      </trkpt>
      <trkpt lat="48.731408" lon="-3.464961">
        <ele>3.4</ele>
        <time>2020-08-13T17:46:33Z</time>
      </trkpt>
      <trkpt lat="48.731698" lon="-3.464865">
        <ele>4.8</ele>
        <time>2020-08-13T17:46:40Z</time>
      </trkpt>
      <trkpt lat="48.731819" lon="-3.464849">
        <ele>4.8</ele>
        <time>2020-08-13T17:46:43Z</time>
      </trkpt>
      <trkpt lat="48.731847" lon="-3.464749">
        <ele>4.8</ele>
        <time>2020-08-13T17:46:44Z</time>
      </trkpt>
      <trkpt lat="48.731893" lon="-3.464722">
        <ele>4.8</ele>
        <time>2020-08-13T17:46:45Z</time>
      </trkpt>
      <trkpt lat="48.731942" lon="-3.464742">
        <ele>4.8</ele>
        <time>2020-08-13T17:46:45Z</time>
      </trkpt>
      <trkpt lat="48.731974" lon="-3.464808">
        <ele>4.8</ele>
        <time>2020-08-13T17:46:46Z</time>
      </trkpt>
      <trkpt lat="48.731977" lon="-3.464849">
        <ele>4.8</ele>
        <time>2020-08-13T17:46:46Z</time>
      </trkpt>
      <trkpt lat="48.731955" lon="-3.464924">
        <ele>4.8</ele>
        <time>2020-08-13T17:46:47Z</time>
      </trkpt>
      <trkpt lat="48.731934" lon="-3.464949">
        <ele>4.8</ele>
        <time>2020-08-13T17:46:47Z</time>
      </trkpt>
      <trkpt lat="48.731962" lon="-3.465191">
        <ele>4.4</ele>
        <time>2020-08-13T17:46:50Z</time>
      </trkpt>
      <trkpt lat="48.732047" lon="-3.465527">
        <ele>4.4</ele>
        <time>2020-08-13T17:46:53Z</time>
      </trkpt>
      <trkpt lat="48.732336" lon="-3.466171">
        <ele>3.2</ele>
        <time>2020-08-13T17:47:00Z</time>
      </trkpt>
      <trkpt lat="48.732653" lon="-3.466752">
        <ele>4.0</ele>
        <time>2020-08-13T17:47:07Z</time>
      </trkpt>
      <trkpt lat="48.732875" lon="-3.467012">
        <ele>4.0</ele>
        <time>2020-08-13T17:47:10Z</time>
      </trkpt>
      <trkpt lat="48.733303" lon="-3.467345">
        <ele>4.0</ele>
        <time>2020-08-13T17:47:17Z</time>
      </trkpt>
      <trkpt lat="48.733737" lon="-3.467611">
        <ele>4.8</ele>
        <time>2020-08-13T17:47:23Z</time>
      </trkpt>
      <trkpt lat="48.73503" lon="-3.468248">
        <ele>7.2</ele>
        <time>2020-08-13T17:47:42Z</time>
      </trkpt>
      <trkpt lat="48.735477" lon="-3.468447">
        <ele>8.4</ele>
        <time>2020-08-13T17:47:48Z</time>
      </trkpt>
      <trkpt lat="48.735704" lon="-3.468468">
        <ele>8.4</ele>
        <time>2020-08-13T17:47:51Z</time>
      </trkpt>
      <trkpt lat="48.735901" lon="-3.468463">
        <ele>8.6</ele>
        <time>2020-08-13T17:47:54Z</time>
      </trkpt>
      <trkpt lat="48.736089" lon="-3.468417">
        <ele>8.6</ele>
        <time>2020-08-13T17:47:57Z</time>
      </trkpt>
      <trkpt lat="48.737544" lon="-3.467842">
        <ele>17.8</ele>
        <time>2020-08-13T17:48:17Z</time>
      </trkpt>
      <trkpt lat="48.737802" lon="-3.467603">
        <ele>17.8</ele>
        <time>2020-08-13T17:48:20Z</time>
      </trkpt>
      <trkpt lat="48.737974" lon="-3.46737">
        <ele>23.0</ele>
        <time>2020-08-13T17:48:22Z</time>
      </trkpt>
      <trkpt lat="48.738241" lon="-3.466823">
        <ele>23.0</ele>
        <time>2020-08-13T17:48:26Z</time>
      </trkpt>
      <trkpt lat="48.738662" lon="-3.465677">
        <ele>35.0</ele>
        <time>2020-08-13T17:48:33Z</time>
      </trkpt>
      <trkpt lat="48.738753" lon="-3.465522">
        <ele>35.0</ele>
        <time>2020-08-13T17:48:35Z</time>
      </trkpt>
      <trkpt lat="48.73885" lon="-3.465432">
        <ele>35.0</ele>
        <time>2020-08-13T17:48:36Z</time>
      </trkpt>
      <trkpt lat="48.738944" lon="-3.465386">
        <ele>35.0</ele>
        <time>2020-08-13T17:48:36Z</time>
      </trkpt>
      <trkpt lat="48.739152" lon="-3.465367">
        <ele>35.0</ele>
        <time>2020-08-13T17:48:38Z</time>
      </trkpt>
      <trkpt lat="48.739276" lon="-3.465428">
        <ele>38.6</ele>
        <time>2020-08-13T17:48:39Z</time>
      </trkpt>
      <trkpt lat="48.739386" lon="-3.465552">
        <ele>38.6</ele>
        <time>2020-08-13T17:48:41Z</time>
      </trkpt>
      <trkpt lat="48.739657" lon="-3.466112">
        <ele>36.4</ele>
        <time>2020-08-13T17:48:45Z</time>
      </trkpt>
      <trkpt lat="48.739921" lon="-3.466735">
        <ele>34.2</ele>
        <time>2020-08-13T17:48:49Z</time>
      </trkpt>
      <trkpt lat="48.740231" lon="-3.467311">
        <ele>40.4</ele>
        <time>2020-08-13T17:48:53Z</time>
      </trkpt>
      <trkpt lat="48.740294" lon="-3.46739">
        <ele>40.4</ele>
        <time>2020-08-13T17:48:54Z</time>
      </trkpt>
      <trkpt lat="48.741054" lon="-3.46811">
        <ele>43.0</ele>
        <time>2020-08-13T17:49:01Z</time>
      </trkpt>
      <trkpt lat="48.74131" lon="-3.468417">
        <ele>39.6</ele>
        <time>2020-08-13T17:49:04Z</time>
      </trkpt>
      <trkpt lat="48.741467" lon="-3.46867">
        <ele>39.6</ele>
        <time>2020-08-13T17:49:06Z</time>
      </trkpt>
      <trkpt lat="48.741695" lon="-3.46916">
        <ele>49.0</ele>
        <time>2020-08-13T17:49:10Z</time>
      </trkpt>
      <trkpt lat="48.741947" lon="-3.469911">
        <ele>51.0</ele>
        <time>2020-08-13T17:49:15Z</time>
      </trkpt>
      <trkpt lat="48.742506" lon="-3.471402">
        <ele>64.2</ele>
        <time>2020-08-13T17:49:24Z</time>
      </trkpt>
      <trkpt lat="48.742798" lon="-3.472239">
        <ele>67.4</ele>
        <time>2020-08-13T17:49:30Z</time>
      </trkpt>
      <trkpt lat="48.743211" lon="-3.473218">
        <ele>69.6</ele>
        <time>2020-08-13T17:49:36Z</time>
      </trkpt>
      <trkpt lat="48.743672" lon="-3.474141">
        <ele>73.2</ele>
        <time>2020-08-13T17:49:43Z</time>
      </trkpt>
      <trkpt lat="48.744091" lon="-3.474871">
        <ele>72.2</ele>
        <time>2020-08-13T17:49:49Z</time>
      </trkpt>
      <trkpt lat="48.744638" lon="-3.475775">
        <ele>74.4</ele>
        <time>2020-08-13T17:49:56Z</time>
      </trkpt>
      <trkpt lat="48.744755" lon="-3.476049">
        <ele>73.4</ele>
        <time>2020-08-13T17:49:57Z</time>
      </trkpt>
      <trkpt lat="48.744835" lon="-3.476289">
        <ele>73.4</ele>
        <time>2020-08-13T17:49:59Z</time>
      </trkpt>
      <trkpt lat="48.744878" lon="-3.476304">
        <ele>73.4</ele>
        <time>2020-08-13T17:50:00Z</time>
      </trkpt>
      <trkpt lat="48.744951" lon="-3.476372">
        <ele>73.4</ele>
        <time>2020-08-13T17:50:00Z</time>
      </trkpt>
      <trkpt lat="48.744982" lon="-3.476446">
        <ele>73.4</ele>
        <time>2020-08-13T17:50:01Z</time>
      </trkpt>
      <trkpt lat="48.744991" lon="-3.476575">
        <ele>73.4</ele>
        <time>2020-08-13T17:50:01Z</time>
      </trkpt>
      <trkpt lat="48.745192" lon="-3.476823">
        <ele>73.6</ele>
        <time>2020-08-13T17:50:03Z</time>
      </trkpt>
      <trkpt lat="48.745427" lon="-3.477237">
        <ele>73.6</ele>
        <time>2020-08-13T17:50:06Z</time>
      </trkpt>
      <trkpt lat="48.745598" lon="-3.477582">
        <ele>71.8</ele>
        <time>2020-08-13T17:50:08Z</time>
      </trkpt>
      <trkpt lat="48.745758" lon="-3.477966">
        <ele>71.8</ele>
        <time>2020-08-13T17:50:11Z</time>
      </trkpt>
      <trkpt lat="48.746537" lon="-3.480121">
        <ele>74.2</ele>
        <time>2020-08-13T17:50:23Z</time>
      </trkpt>
      <trkpt lat="48.747639" lon="-3.483009">
        <ele>82.8</ele>
        <time>2020-08-13T17:50:40Z</time>
      </trkpt>
      <trkpt lat="48.748511" lon="-3.485096">
        <ele>93.6</ele>
        <time>2020-08-13T17:50:53Z</time>
      </trkpt>
      <trkpt lat="48.748638" lon="-3.485697">
        <ele>93.6</ele>
        <time>2020-08-13T17:50:56Z</time>
      </trkpt>
      <trkpt lat="48.748691" lon="-3.486092">
        <ele>96.0</ele>
        <time>2020-08-13T17:50:58Z</time>
      </trkpt>
      <trkpt lat="48.748822" lon="-3.486767">
        <ele>97.8</ele>
        <time>2020-08-13T17:51:01Z</time>
      </trkpt>
      <trkpt lat="48.749014" lon="-3.48747">
        <ele>97.8</ele>
        <time>2020-08-13T17:51:05Z</time>
      </trkpt>
      <trkpt lat="48.751044" lon="-3.493492">
        <ele>103.6</ele>
        <time>2020-08-13T17:51:40Z</time>
      </trkpt>
      <trkpt lat="48.751287" lon="-3.494274">
        <ele>102.8</ele>
        <time>2020-08-13T17:51:44Z</time>
      </trkpt>
      <trkpt lat="48.751504" lon="-3.495208">
        <ele>102.0</ele>
        <time>2020-08-13T17:51:49Z</time>
      </trkpt>
      <trkpt lat="48.751689" lon="-3.496211">
        <ele>101.4</ele>
        <time>2020-08-13T17:51:54Z</time>
      </trkpt>
      <trkpt lat="48.751816" lon="-3.497055">
        <ele>102.4</ele>
        <time>2020-08-13T17:51:59Z</time>
      </trkpt>
      <trkpt lat="48.751882" lon="-3.49786">
        <ele>103.2</ele>
        <time>2020-08-13T17:52:03Z</time>
      </trkpt>
      <trkpt lat="48.752308" lon="-3.508397">
        <ele>105.0</ele>
        <time>2020-08-13T17:52:56Z</time>
      </trkpt>
      <trkpt lat="48.752399" lon="-3.50946">
        <ele>105.6</ele>
        <time>2020-08-13T17:53:02Z</time>
      </trkpt>
      <trkpt lat="48.752524" lon="-3.510413">
        <ele>104.2</ele>
        <time>2020-08-13T17:53:07Z</time>
      </trkpt>
      <trkpt lat="48.75278" lon="-3.511887">
        <ele>104.4</ele>
        <time>2020-08-13T17:53:14Z</time>
      </trkpt>
      <trkpt lat="48.752891" lon="-3.512638">
        <ele>104.6</ele>
        <time>2020-08-13T17:53:18Z</time>
      </trkpt>
      <trkpt lat="48.753361" lon="-3.517026">
        <ele>103.4</ele>
        <time>2020-08-13T17:53:41Z</time>
      </trkpt>
      <trkpt lat="48.753507" lon="-3.518026">
        <ele>103.2</ele>
        <time>2020-08-13T17:53:46Z</time>
      </trkpt>
      <trkpt lat="48.754279" lon="-3.521797">
        <ele>102.8</ele>
        <time>2020-08-13T17:54:06Z</time>
      </trkpt>
      <trkpt lat="48.754504" lon="-3.522968">
        <ele>102.6</ele>
        <time>2020-08-13T17:54:12Z</time>
      </trkpt>
      <trkpt lat="48.754724" lon="-3.52399">
        <ele>102.4</ele>
        <time>2020-08-13T17:54:18Z</time>
      </trkpt>
      <trkpt lat="48.754884" lon="-3.52454">
        <ele>102.4</ele>
        <time>2020-08-13T17:54:21Z</time>
      </trkpt>
      <trkpt lat="48.755049" lon="-3.524942">
        <ele>102.6</ele>
        <time>2020-08-13T17:54:23Z</time>
      </trkpt>
      <trkpt lat="48.755219" lon="-3.525272">
        <ele>103.0</ele>
        <time>2020-08-13T17:54:25Z</time>
      </trkpt>
      <trkpt lat="48.755418" lon="-3.525593">
        <ele>103.0</ele>
        <time>2020-08-13T17:54:28Z</time>
      </trkpt>
      <trkpt lat="48.756108" lon="-3.526562">
        <ele>103.4</ele>
        <time>2020-08-13T17:54:35Z</time>
      </trkpt>
      <trkpt lat="48.756417" lon="-3.527076">
        <ele>103.0</ele>
        <time>2020-08-13T17:54:38Z</time>
      </trkpt>
      <trkpt lat="48.756701" lon="-3.527627">
        <ele>101.2</ele>
        <time>2020-08-13T17:54:42Z</time>
      </trkpt>
      <trkpt lat="48.756927" lon="-3.528138">
        <ele>101.2</ele>
        <time>2020-08-13T17:54:45Z</time>
      </trkpt>
      <trkpt lat="48.757252" lon="-3.52899">
        <ele>99.8</ele>
        <time>2020-08-13T17:54:50Z</time>
      </trkpt>
      <trkpt lat="48.757648" lon="-3.530342">
        <ele>95.6</ele>
        <time>2020-08-13T17:54:57Z</time>
      </trkpt>
      <trkpt lat="48.759372" lon="-3.537046">
        <ele>98.8</ele>
        <time>2020-08-13T17:55:34Z</time>
      </trkpt>
      <trkpt lat="48.759481" lon="-3.537403">
        <ele>98.8</ele>
        <time>2020-08-13T17:55:36Z</time>
      </trkpt>
      <trkpt lat="48.759863" lon="-3.538492">
        <ele>98.6</ele>
        <time>2020-08-13T17:55:42Z</time>
      </trkpt>
      <trkpt lat="48.760099" lon="-3.539022">
        <ele>100.8</ele>
        <time>2020-08-13T17:55:46Z</time>
      </trkpt>
      <trkpt lat="48.760785" lon="-3.54023">
        <ele>98.6</ele>
        <time>2020-08-13T17:55:54Z</time>
      </trkpt>
      <trkpt lat="48.761078" lon="-3.540777">
        <ele>100.0</ele>
        <time>2020-08-13T17:55:57Z</time>
      </trkpt>
      <trkpt lat="48.761652" lon="-3.541885">
        <ele>97.4</ele>
        <time>2020-08-13T17:56:04Z</time>
      </trkpt>
      <trkpt lat="48.76205" lon="-3.54273">
        <ele>96.6</ele>
        <time>2020-08-13T17:56:10Z</time>
      </trkpt>
      <trkpt lat="48.7627" lon="-3.544036">
        <ele>95.4</ele>
        <time>2020-08-13T17:56:18Z</time>
      </trkpt>
      <trkpt lat="48.763232" lon="-3.544992">
        <ele>94.6</ele>
        <time>2020-08-13T17:56:24Z</time>
      </trkpt>
      <trkpt lat="48.764752" lon="-3.547525">
        <ele>92.0</ele>
        <time>2020-08-13T17:56:42Z</time>
      </trkpt>
      <trkpt lat="48.765175" lon="-3.54829">
        <ele>91.6</ele>
        <time>2020-08-13T17:56:47Z</time>
      </trkpt>
      <trkpt lat="48.765347" lon="-3.548694">
        <ele>91.8</ele>
        <time>2020-08-13T17:56:49Z</time>
      </trkpt>
      <trkpt lat="48.765844" lon="-3.549448">
        <ele>91.2</ele>
        <time>2020-08-13T17:56:55Z</time>
      </trkpt>
      <trkpt lat="48.766302" lon="-3.550308">
        <ele>90.2</ele>
        <time>2020-08-13T17:57:00Z</time>
      </trkpt>
      <trkpt lat="48.766754" lon="-3.551204">
        <ele>88.2</ele>
        <time>2020-08-13T17:57:06Z</time>
      </trkpt>
      <trkpt lat="48.766832" lon="-3.551146">
        <ele>88.2</ele>
        <time>2020-08-13T17:57:07Z</time>
      </trkpt>
      <trkpt lat="48.766874" lon="-3.551152">
        <ele>88.2</ele>
        <time>2020-08-13T17:57:07Z</time>
      </trkpt>
      <trkpt lat="48.766938" lon="-3.551218">
        <ele>88.2</ele>
        <time>2020-08-13T17:57:08Z</time>
      </trkpt>
      <trkpt lat="48.766956" lon="-3.551275">
        <ele>88.2</ele>
        <time>2020-08-13T17:57:08Z</time>
      </trkpt>
      <trkpt lat="48.766961" lon="-3.551337">
        <ele>88.2</ele>
        <time>2020-08-13T17:57:09Z</time>
      </trkpt>
      <trkpt lat="48.766935" lon="-3.551441">
        <ele>88.2</ele>
        <time>2020-08-13T17:57:10Z</time>
      </trkpt>
      <trkpt lat="48.766876" lon="-3.551501">
        <ele>88.2</ele>
        <time>2020-08-13T17:57:10Z</time>
      </trkpt>
      <trkpt lat="48.766968" lon="-3.551684">
        <ele>87.4</ele>
        <time>2020-08-13T17:57:12Z</time>
      </trkpt>
      <trkpt lat="48.767134" lon="-3.552174">
        <ele>87.4</ele>
        <time>2020-08-13T17:57:16Z</time>
      </trkpt>
      <trkpt lat="48.767253" lon="-3.552584">
        <ele>86.6</ele>
        <time>2020-08-13T17:57:19Z</time>
      </trkpt>
      <trkpt lat="48.767352" lon="-3.553018">
        <ele>86.6</ele>
        <time>2020-08-13T17:57:22Z</time>
      </trkpt>
      <trkpt lat="48.767715" lon="-3.555616">
        <ele>84.4</ele>
        <time>2020-08-13T17:57:40Z</time>
      </trkpt>
      <trkpt lat="48.76782" lon="-3.556107">
        <ele>83.8</ele>
        <time>2020-08-13T17:57:43Z</time>
      </trkpt>
      <trkpt lat="48.767999" lon="-3.556813">
        <ele>82.8</ele>
        <time>2020-08-13T17:57:48Z</time>
      </trkpt>
      <trkpt lat="48.768514" lon="-3.558525">
        <ele>80.4</ele>
        <time>2020-08-13T17:58:01Z</time>
      </trkpt>
      <trkpt lat="48.768698" lon="-3.559059">
        <ele>80.4</ele>
        <time>2020-08-13T17:58:05Z</time>
      </trkpt>
      <trkpt lat="48.768984" lon="-3.559748">
        <ele>79.8</ele>
        <time>2020-08-13T17:58:11Z</time>
      </trkpt>
      <trkpt lat="48.769017" lon="-3.559928">
        <ele>79.8</ele>
        <time>2020-08-13T17:58:12Z</time>
      </trkpt>
      <trkpt lat="48.769025" lon="-3.560116">
        <ele>79.0</ele>
        <time>2020-08-13T17:58:13Z</time>
      </trkpt>
      <trkpt lat="48.768978" lon="-3.562033">
        <ele>78.6</ele>
        <time>2020-08-13T17:58:26Z</time>
      </trkpt>
      <trkpt lat="48.768895" lon="-3.563452">
        <ele>78.0</ele>
        <time>2020-08-13T17:58:36Z</time>
      </trkpt>
      <trkpt lat="48.768929" lon="-3.563578">
        <ele>78.0</ele>
        <time>2020-08-13T17:58:37Z</time>
      </trkpt>
      <trkpt lat="48.768956" lon="-3.563583">
        <ele>78.0</ele>
        <time>2020-08-13T17:58:37Z</time>
      </trkpt>
      <trkpt lat="48.768998" lon="-3.563632">
        <ele>78.0</ele>
        <time>2020-08-13T17:58:37Z</time>
      </trkpt>
      <trkpt lat="48.769009" lon="-3.563711">
        <ele>78.0</ele>
        <time>2020-08-13T17:58:37Z</time>
      </trkpt>
      <trkpt lat="48.768985" lon="-3.563782">
        <ele>78.0</ele>
        <time>2020-08-13T17:58:38Z</time>
      </trkpt>
      <trkpt lat="48.769041" lon="-3.563867">
        <ele>78.0</ele>
        <time>2020-08-13T17:58:38Z</time>
      </trkpt>
      <trkpt lat="48.769139" lon="-3.563993">
        <ele>78.0</ele>
        <time>2020-08-13T17:58:39Z</time>
      </trkpt>
      <trkpt lat="48.769319" lon="-3.564118">
        <ele>76.8</ele>
        <time>2020-08-13T17:58:40Z</time>
      </trkpt>
      <trkpt lat="48.76947" lon="-3.56434">
        <ele>75.8</ele>
        <time>2020-08-13T17:58:41Z</time>
      </trkpt>
      <trkpt lat="48.769551" lon="-3.564505">
        <ele>75.8</ele>
        <time>2020-08-13T17:58:42Z</time>
      </trkpt>
      <trkpt lat="48.769567" lon="-3.564469">
        <ele>75.8</ele>
        <time>2020-08-13T17:58:43Z</time>
      </trkpt>
      <trkpt lat="48.769618" lon="-3.564434">
        <ele>75.8</ele>
        <time>2020-08-13T17:58:43Z</time>
      </trkpt>
      <trkpt lat="48.769672" lon="-3.564458">
        <ele>75.8</ele>
        <time>2020-08-13T17:58:44Z</time>
      </trkpt>
      <trkpt lat="48.769701" lon="-3.564528">
        <ele>75.8</ele>
        <time>2020-08-13T17:58:44Z</time>
      </trkpt>
      <trkpt lat="48.769695" lon="-3.564608">
        <ele>75.8</ele>
        <time>2020-08-13T17:58:45Z</time>
      </trkpt>
      <trkpt lat="48.769931" lon="-3.564751">
        <ele>75.8</ele>
        <time>2020-08-13T17:58:47Z</time>
      </trkpt>
      <trkpt lat="48.770074" lon="-3.564807">
        <ele>74.4</ele>
        <time>2020-08-13T17:58:49Z</time>
      </trkpt>
      <trkpt lat="48.770664" lon="-3.56492">
        <ele>74.4</ele>
        <time>2020-08-13T17:58:55Z</time>
      </trkpt>
      <trkpt lat="48.770775" lon="-3.564875">
        <ele>74.4</ele>
        <time>2020-08-13T17:58:56Z</time>
      </trkpt>
      <trkpt lat="48.771264" lon="-3.564474">
        <ele>72.8</ele>
        <time>2020-08-13T17:59:02Z</time>
      </trkpt>
      <trkpt lat="48.771431" lon="-3.564404">
        <ele>72.8</ele>
        <time>2020-08-13T17:59:04Z</time>
      </trkpt>
      <trkpt lat="48.772015" lon="-3.564418">
        <ele>69.8</ele>
        <time>2020-08-13T17:59:09Z</time>
      </trkpt>
      <trkpt lat="48.772195" lon="-3.5644">
        <ele>69.8</ele>
        <time>2020-08-13T17:59:11Z</time>
      </trkpt>
      <trkpt lat="48.773303" lon="-3.564616">
        <ele>65.4</ele>
        <time>2020-08-13T17:59:23Z</time>
      </trkpt>
      <trkpt lat="48.773514" lon="-3.564692">
        <ele>59.6</ele>
        <time>2020-08-13T17:59:25Z</time>
      </trkpt>
      <trkpt lat="48.773877" lon="-3.564942">
        <ele>59.6</ele>
        <time>2020-08-13T17:59:29Z</time>
      </trkpt>
      <trkpt lat="48.77426" lon="-3.565261">
        <ele>53.4</ele>
        <time>2020-08-13T17:59:33Z</time>
      </trkpt>
      <trkpt lat="48.774457" lon="-3.565361">
        <ele>53.4</ele>
        <time>2020-08-13T17:59:36Z</time>
      </trkpt>
      <trkpt lat="48.774718" lon="-3.565441">
        <ele>53.4</ele>
        <time>2020-08-13T17:59:38Z</time>
      </trkpt>
      <trkpt lat="48.776082" lon="-3.565762">
        <ele>49.6</ele>
        <time>2020-08-13T17:59:52Z</time>
      </trkpt>
      <trkpt lat="48.777047" lon="-3.566253">
        <ele>47.0</ele>
        <time>2020-08-13T18:00:03Z</time>
      </trkpt>
      <trkpt lat="48.777566" lon="-3.566474">
        <ele>47.4</ele>
        <time>2020-08-13T18:00:08Z</time>
      </trkpt>
      <trkpt lat="48.778294" lon="-3.566683">
        <ele>46.8</ele>
        <time>2020-08-13T18:00:16Z</time>
      </trkpt>
      <trkpt lat="48.778775" lon="-3.566852">
        <ele>47.0</ele>
        <time>2020-08-13T18:00:21Z</time>
      </trkpt>
      <trkpt lat="48.779233" lon="-3.567133">
        <ele>46.2</ele>
        <time>2020-08-13T18:00:26Z</time>
      </trkpt>
      <trkpt lat="48.779829" lon="-3.567703">
        <ele>45.6</ele>
        <time>2020-08-13T18:00:33Z</time>
      </trkpt>
      <trkpt lat="48.780158" lon="-3.567974">
        <ele>44.8</ele>
        <time>2020-08-13T18:00:37Z</time>
      </trkpt>
      <trkpt lat="48.782454" lon="-3.569106">
        <ele>42.2</ele>
        <time>2020-08-13T18:01:01Z</time>
      </trkpt>
      <trkpt lat="48.782454" lon="-3.569106">
        <ele>42.2</ele>
        <time>2020-08-13T18:01:01Z</time>
      </trkpt>
      <trkpt lat="48.784304" lon="-3.569873">
        <ele>43.2</ele>
        <time>2020-08-13T18:01:11Z</time>
      </trkpt>
      <trkpt lat="48.784501" lon="-3.569917">
        <ele>43.2</ele>
        <time>2020-08-13T18:01:12Z</time>
      </trkpt>
      <trkpt lat="48.786161" lon="-3.57008">
        <ele>33.4</ele>
        <time>2020-08-13T18:01:21Z</time>
      </trkpt>
      <trkpt lat="48.786762" lon="-3.570053">
        <ele>24.8</ele>
        <time>2020-08-13T18:01:24Z</time>
      </trkpt>
      <trkpt lat="48.786947" lon="-3.570117">
        <ele>24.8</ele>
        <time>2020-08-13T18:01:25Z</time>
      </trkpt>
      <trkpt lat="48.787278" lon="-3.570442">
        <ele>24.8</ele>
        <time>2020-08-13T18:01:27Z</time>
      </trkpt>
      <trkpt lat="48.787372" lon="-3.570477">
        <ele>24.8</ele>
        <time>2020-08-13T18:01:28Z</time>
      </trkpt>
      <trkpt lat="48.787786" lon="-3.570527">
        <ele>16.8</ele>
        <time>2020-08-13T18:01:30Z</time>
      </trkpt>
      <trkpt lat="48.788274" lon="-3.570629">
        <ele>16.8</ele>
        <time>2020-08-13T18:01:32Z</time>
      </trkpt>
      <trkpt lat="48.788355" lon="-3.57068">
        <ele>10.8</ele>
        <time>2020-08-13T18:01:33Z</time>
      </trkpt>
      <trkpt lat="48.788615" lon="-3.570941">
        <ele>8.6</ele>
        <time>2020-08-13T18:01:35Z</time>
      </trkpt>
      <trkpt lat="48.788766" lon="-3.571047">
        <ele>8.6</ele>
        <time>2020-08-13T18:01:35Z</time>
      </trkpt>
      <trkpt lat="48.789026" lon="-3.571187">
        <ele>8.6</ele>
        <time>2020-08-13T18:01:37Z</time>
      </trkpt>
      <trkpt lat="48.789817" lon="-3.567811">
        <ele>6.6</ele>
        <time>2020-08-13T18:01:50Z</time>
      </trkpt>
      <trkpt lat="48.790349" lon="-3.565638">
        <ele>5.0</ele>
        <time>2020-08-13T18:01:59Z</time>
      </trkpt>
      <trkpt lat="48.791644" lon="-3.560185">
        <ele>6.8</ele>
        <time>2020-08-13T18:02:20Z</time>
      </trkpt>
      <trkpt lat="48.791676" lon="-3.559874">
        <ele>7.0</ele>
        <time>2020-08-13T18:02:21Z</time>
      </trkpt>
      <trkpt lat="48.791692" lon="-3.55953">
        <ele>7.0</ele>
        <time>2020-08-13T18:02:22Z</time>
      </trkpt>
      <trkpt lat="48.791684" lon="-3.559095">
        <ele>6.2</ele>
        <time>2020-08-13T18:02:24Z</time>
      </trkpt>
      <trkpt lat="48.791619" lon="-3.558671">
        <ele>6.2</ele>
        <time>2020-08-13T18:02:25Z</time>
      </trkpt>
      <trkpt lat="48.791441" lon="-3.557915">
        <ele>5.6</ele>
        <time>2020-08-13T18:02:28Z</time>
      </trkpt>
      <trkpt lat="48.79145" lon="-3.55785">
        <ele>5.6</ele>
        <time>2020-08-13T18:02:29Z</time>
      </trkpt>
      <trkpt lat="48.791291" lon="-3.557161">
        <ele>4.6</ele>
        <time>2020-08-13T18:02:33Z</time>
      </trkpt>
      <trkpt lat="48.791209" lon="-3.556751">
        <ele>4.6</ele>
        <time>2020-08-13T18:02:36Z</time>
      </trkpt>
      <trkpt lat="48.791188" lon="-3.556576">
        <ele>3.8</ele>
        <time>2020-08-13T18:02:37Z</time>
      </trkpt>
      <trkpt lat="48.791222" lon="-3.555074">
        <ele>3.6</ele>
        <time>2020-08-13T18:02:47Z</time>
      </trkpt>
      <trkpt lat="48.791264" lon="-3.554802">
        <ele>3.0</ele>
        <time>2020-08-13T18:02:48Z</time>
      </trkpt>
      <trkpt lat="48.791623" lon="-3.553429">
        <ele>3.2</ele>
        <time>2020-08-13T18:02:58Z</time>
      </trkpt>
      <trkpt lat="48.791795" lon="-3.552964">
        <ele>4.8</ele>
        <time>2020-08-13T18:03:01Z</time>
      </trkpt>
      <trkpt lat="48.791969" lon="-3.552659">
        <ele>4.8</ele>
        <time>2020-08-13T18:03:03Z</time>
      </trkpt>
      <trkpt lat="48.792218" lon="-3.552358">
        <ele>5.6</ele>
        <time>2020-08-13T18:03:07Z</time>
      </trkpt>
      <trkpt lat="48.793413" lon="-3.551462">
        <ele>8.0</ele>
        <time>2020-08-13T18:03:19Z</time>
      </trkpt>
      <trkpt lat="48.793783" lon="-3.551155">
        <ele>8.0</ele>
        <time>2020-08-13T18:03:23Z</time>
      </trkpt>
      <trkpt lat="48.794029" lon="-3.550865">
        <ele>8.0</ele>
        <time>2020-08-13T18:03:26Z</time>
      </trkpt>
      <trkpt lat="48.794212" lon="-3.550578">
        <ele>10.2</ele>
        <time>2020-08-13T18:03:29Z</time>
      </trkpt>
      <trkpt lat="48.794352" lon="-3.550307">
        <ele>10.2</ele>
        <time>2020-08-13T18:03:31Z</time>
      </trkpt>
      <trkpt lat="48.794471" lon="-3.549994">
        <ele>16.4</ele>
        <time>2020-08-13T18:03:33Z</time>
      </trkpt>
      <trkpt lat="48.795423" lon="-3.546694">
        <ele>14.2</ele>
        <time>2020-08-13T18:03:56Z</time>
      </trkpt>
      <trkpt lat="48.795772" lon="-3.545652">
        <ele>15.6</ele>
        <time>2020-08-13T18:04:03Z</time>
      </trkpt>
      <trkpt lat="48.795868" lon="-3.545395">
        <ele>6.0</ele>
        <time>2020-08-13T18:04:05Z</time>
      </trkpt>
      <trkpt lat="48.796707" lon="-3.543528">
        <ele>4.0</ele>
        <time>2020-08-13T18:04:19Z</time>
      </trkpt>
      <trkpt lat="48.796999" lon="-3.542953">
        <ele>8.2</ele>
        <time>2020-08-13T18:04:24Z</time>
      </trkpt>
      <trkpt lat="48.797307" lon="-3.542462">
        <ele>11.8</ele>
        <time>2020-08-13T18:04:28Z</time>
      </trkpt>
      <trkpt lat="48.799751" lon="-3.539204">
        <ele>14.8</ele>
        <time>2020-08-13T18:04:59Z</time>
      </trkpt>
      <trkpt lat="48.799987" lon="-3.538845">
        <ele>19.8</ele>
        <time>2020-08-13T18:05:03Z</time>
      </trkpt>
      <trkpt lat="48.800195" lon="-3.53846">
        <ele>16.6</ele>
        <time>2020-08-13T18:05:06Z</time>
      </trkpt>
      <trkpt lat="48.801715" lon="-3.535148">
        <ele>5.4</ele>
        <time>2020-08-13T18:05:31Z</time>
      </trkpt>
      <trkpt lat="48.801968" lon="-3.534728">
        <ele>6.0</ele>
        <time>2020-08-13T18:05:35Z</time>
      </trkpt>
      <trkpt lat="48.802069" lon="-3.5346">
        <ele>6.0</ele>
        <time>2020-08-13T18:05:36Z</time>
      </trkpt>
      <trkpt lat="48.802258" lon="-3.5344">
        <ele>6.0</ele>
        <time>2020-08-13T18:05:38Z</time>
      </trkpt>
      <trkpt lat="48.802543" lon="-3.534199">
        <ele>2.6</ele>
        <time>2020-08-13T18:05:41Z</time>
      </trkpt>
      <trkpt lat="48.80282" lon="-3.53409">
        <ele>7.0</ele>
        <time>2020-08-13T18:05:44Z</time>
      </trkpt>
      <trkpt lat="48.806221" lon="-3.533552">
        <ele>2.8</ele>
        <time>2020-08-13T18:06:17Z</time>
      </trkpt>
      <trkpt lat="48.806335" lon="-3.533549">
        <ele>2.8</ele>
        <time>2020-08-13T18:06:18Z</time>
      </trkpt>
      <trkpt lat="48.806597" lon="-3.533597">
        <ele>2.8</ele>
        <time>2020-08-13T18:06:20Z</time>
      </trkpt>
      <trkpt lat="48.807699" lon="-3.533943">
        <ele>4.4</ele>
        <time>2020-08-13T18:06:31Z</time>
      </trkpt>
      <trkpt lat="48.807979" lon="-3.533976">
        <ele>4.4</ele>
        <time>2020-08-13T18:06:34Z</time>
      </trkpt>
      <trkpt lat="48.80843" lon="-3.53385">
        <ele>6.4</ele>
        <time>2020-08-13T18:06:38Z</time>
      </trkpt>
      <trkpt lat="48.808679" lon="-3.533643">
        <ele>6.4</ele>
        <time>2020-08-13T18:06:41Z</time>
      </trkpt>
      <trkpt lat="48.808815" lon="-3.533494">
        <ele>6.4</ele>
        <time>2020-08-13T18:06:42Z</time>
      </trkpt>
      <trkpt lat="48.814938" lon="-3.526053">
        <ele>12.4</ele>
        <time>2020-08-13T18:07:57Z</time>
      </trkpt>
      <trkpt lat="48.815271" lon="-3.525598">
        <ele>12.6</ele>
        <time>2020-08-13T18:08:01Z</time>
      </trkpt>
      <trkpt lat="48.815462" lon="-3.525264">
        <ele>12.6</ele>
        <time>2020-08-13T18:08:04Z</time>
      </trkpt>
      <trkpt lat="48.815572" lon="-3.525035">
        <ele>12.6</ele>
        <time>2020-08-13T18:08:06Z</time>
      </trkpt>
      <trkpt lat="48.81573" lon="-3.524619">
        <ele>15.6</ele>
        <time>2020-08-13T18:08:09Z</time>
      </trkpt>
      <trkpt lat="48.816083" lon="-3.523376">
        <ele>14.8</ele>
        <time>2020-08-13T18:08:17Z</time>
      </trkpt>
      <trkpt lat="48.816252" lon="-3.522922">
        <ele>14.0</ele>
        <time>2020-08-13T18:08:21Z</time>
      </trkpt>
      <trkpt lat="48.816953" lon="-3.521342">
        <ele>8.2</ele>
        <time>2020-08-13T18:08:33Z</time>
      </trkpt>
      <trkpt lat="48.817074" lon="-3.521019">
        <ele>8.2</ele>
        <time>2020-08-13T18:08:35Z</time>
      </trkpt>
      <trkpt lat="48.817352" lon="-3.520157">
        <ele>8.0</ele>
        <time>2020-08-13T18:08:41Z</time>
      </trkpt>
      <trkpt lat="48.81753" lon="-3.519705">
        <ele>7.0</ele>
        <time>2020-08-13T18:08:44Z</time>
      </trkpt>
      <trkpt lat="48.817725" lon="-3.519342">
        <ele>7.0</ele>
        <time>2020-08-13T18:08:47Z</time>
      </trkpt>
      <trkpt lat="48.818436" lon="-3.518276">
        <ele>6.8</ele>
        <time>2020-08-13T18:08:57Z</time>
      </trkpt>
      <trkpt lat="48.818833" lon="-3.5177">
        <ele>6.8</ele>
        <time>2020-08-13T18:09:02Z</time>
      </trkpt>
      <trkpt lat="48.819044" lon="-3.517472">
        <ele>6.8</ele>
        <time>2020-08-13T18:09:05Z</time>
      </trkpt>
      <trkpt lat="48.819232" lon="-3.517333">
        <ele>6.4</ele>
        <time>2020-08-13T18:09:07Z</time>
      </trkpt>
      <trkpt lat="48.819431" lon="-3.517246">
        <ele>6.4</ele>
        <time>2020-08-13T18:09:09Z</time>
      </trkpt>
      <trkpt lat="48.819639" lon="-3.517209">
        <ele>6.4</ele>
        <time>2020-08-13T18:09:11Z</time>
      </trkpt>
      <trkpt lat="48.819881" lon="-3.517224">
        <ele>6.4</ele>
        <time>2020-08-13T18:09:13Z</time>
      </trkpt>
      <trkpt lat="48.820295" lon="-3.517359">
        <ele>6.8</ele>
        <time>2020-08-13T18:09:17Z</time>
      </trkpt>
      <trkpt lat="48.821943" lon="-3.518088">
        <ele>6.8</ele>
        <time>2020-08-13T18:09:33Z</time>
      </trkpt>
      <trkpt lat="48.822395" lon="-3.518185">
        <ele>6.8</ele>
        <time>2020-08-13T18:09:38Z</time>
      </trkpt>
      <trkpt lat="48.823205" lon="-3.518254">
        <ele>7.4</ele>
        <time>2020-08-13T18:09:46Z</time>
      </trkpt>
      <trkpt lat="48.82324" lon="-3.518086">
        <ele>7.4</ele>
        <time>2020-08-13T18:09:48Z</time>
      </trkpt>
      <trkpt lat="48.823341" lon="-3.51787">
        <ele>7.0</ele>
        <time>2020-08-13T18:09:51Z</time>
      </trkpt>
      <trkpt lat="48.823738" lon="-3.517228">
        <ele>8.8</ele>
        <time>2020-08-13T18:10:02Z</time>
      </trkpt>
      <trkpt lat="48.823944" lon="-3.517059">
        <ele>8.8</ele>
        <time>2020-08-13T18:10:06Z</time>
      </trkpt>
      <trkpt lat="48.823982" lon="-3.517008">
        <ele>8.8</ele>
        <time>2020-08-13T18:10:07Z</time>
      </trkpt>
      <trkpt lat="48.823784" lon="-3.516672">
        <ele>8.8</ele>
        <time>2020-08-13T18:10:21Z</time>
      </trkpt>
      <trkpt lat="48.823513" lon="-3.516351">
        <ele>11.2</ele>
        <time>2020-08-13T18:10:37Z</time>
      </trkpt>
      <trkpt lat="48.82324" lon="-3.516571">
        <ele>11.2</ele>
        <time>2020-08-13T18:10:40Z</time>
      </trkpt>
      <trkpt lat="48.82307" lon="-3.516898">
        <ele>8.6</ele>
        <time>2020-08-13T18:10:43Z</time>
      </trkpt>
      <trkpt lat="48.82307" lon="-3.516898">
        <ele>8.6</ele>
        <time>2020-08-13T18:10:43Z</time>
      </trkpt>
      <trkpt lat="48.82324" lon="-3.516571">
        <ele>11.2</ele>
        <time>2020-08-13T18:10:47Z</time>
      </trkpt>
      <trkpt lat="48.823513" lon="-3.516351">
        <ele>11.2</ele>
        <time>2020-08-13T18:10:50Z</time>
      </trkpt>
      <trkpt lat="48.823784" lon="-3.516672">
        <ele>8.8</ele>
        <time>2020-08-13T18:11:06Z</time>
      </trkpt>
      <trkpt lat="48.823982" lon="-3.517008">
        <ele>8.8</ele>
        <time>2020-08-13T18:11:20Z</time>
      </trkpt>
      <trkpt lat="48.823944" lon="-3.517059">
        <ele>8.8</ele>
        <time>2020-08-13T18:11:21Z</time>
      </trkpt>
      <trkpt lat="48.823738" lon="-3.517228">
        <ele>8.8</ele>
        <time>2020-08-13T18:11:25Z</time>
      </trkpt>
      <trkpt lat="48.823341" lon="-3.51787">
        <ele>7.0</ele>
        <time>2020-08-13T18:11:36Z</time>
      </trkpt>
      <trkpt lat="48.82324" lon="-3.518086">
        <ele>7.4</ele>
        <time>2020-08-13T18:11:39Z</time>
      </trkpt>
      <trkpt lat="48.823205" lon="-3.518254">
        <ele>7.4</ele>
        <time>2020-08-13T18:11:41Z</time>
      </trkpt>
      <trkpt lat="48.822395" lon="-3.518185">
        <ele>6.8</ele>
        <time>2020-08-13T18:11:52Z</time>
      </trkpt>
      <trkpt lat="48.821943" lon="-3.518088">
        <ele>6.8</ele>
        <time>2020-08-13T18:11:58Z</time>
      </trkpt>
      <trkpt lat="48.820295" lon="-3.517359">
        <ele>6.8</ele>
        <time>2020-08-13T18:12:20Z</time>
      </trkpt>
      <trkpt lat="48.819881" lon="-3.517224">
        <ele>6.4</ele>
        <time>2020-08-13T18:12:26Z</time>
      </trkpt>
      <trkpt lat="48.819732" lon="-3.517206">
        <ele>6.4</ele>
        <time>2020-08-13T18:12:28Z</time>
      </trkpt>
      <trkpt lat="48.819431" lon="-3.517246">
        <ele>6.4</ele>
        <time>2020-08-13T18:12:32Z</time>
      </trkpt>
      <trkpt lat="48.819232" lon="-3.517333">
        <ele>6.4</ele>
        <time>2020-08-13T18:12:34Z</time>
      </trkpt>
      <trkpt lat="48.819044" lon="-3.517472">
        <ele>6.8</ele>
        <time>2020-08-13T18:12:37Z</time>
      </trkpt>
      <trkpt lat="48.818833" lon="-3.5177">
        <ele>6.8</ele>
        <time>2020-08-13T18:12:41Z</time>
      </trkpt>
      <trkpt lat="48.818528" lon="-3.518142">
        <ele>6.8</ele>
        <time>2020-08-13T18:12:46Z</time>
      </trkpt>
      <trkpt lat="48.817874" lon="-3.516382">
        <ele>9.6</ele>
        <time>2020-08-13T18:13:01Z</time>
      </trkpt>
      <trkpt lat="48.817386" lon="-3.514996">
        <ele>11.8</ele>
        <time>2020-08-13T18:13:12Z</time>
      </trkpt>
      <trkpt lat="48.817335" lon="-3.514812">
        <ele>11.8</ele>
        <time>2020-08-13T18:13:14Z</time>
      </trkpt>
      <trkpt lat="48.81731" lon="-3.514564">
        <ele>11.8</ele>
        <time>2020-08-13T18:13:16Z</time>
      </trkpt>
      <trkpt lat="48.817307" lon="-3.514419">
        <ele>11.8</ele>
        <time>2020-08-13T18:13:17Z</time>
      </trkpt>
      <trkpt lat="48.817349" lon="-3.513851">
        <ele>12.2</ele>
        <time>2020-08-13T18:13:21Z</time>
      </trkpt>
      <trkpt lat="48.817469" lon="-3.513149">
        <ele>12.4</ele>
        <time>2020-08-13T18:13:26Z</time>
      </trkpt>
      <trkpt lat="48.817484" lon="-3.512878">
        <ele>12.4</ele>
        <time>2020-08-13T18:13:28Z</time>
      </trkpt>
      <trkpt lat="48.81743" lon="-3.511821">
        <ele>12.4</ele>
        <time>2020-08-13T18:13:36Z</time>
      </trkpt>
      <trkpt lat="48.817439" lon="-3.51153">
        <ele>12.6</ele>
        <time>2020-08-13T18:13:38Z</time>
      </trkpt>
      <trkpt lat="48.817509" lon="-3.511199">
        <ele>12.6</ele>
        <time>2020-08-13T18:13:40Z</time>
      </trkpt>
      <trkpt lat="48.817752" lon="-3.510659">
        <ele>12.4</ele>
        <time>2020-08-13T18:13:45Z</time>
      </trkpt>
      <trkpt lat="48.817804" lon="-3.510464">
        <ele>12.4</ele>
        <time>2020-08-13T18:13:47Z</time>
      </trkpt>
      <trkpt lat="48.817856" lon="-3.51013">
        <ele>12.4</ele>
        <time>2020-08-13T18:13:49Z</time>
      </trkpt>
      <trkpt lat="48.81793" lon="-3.509444">
        <ele>13.4</ele>
        <time>2020-08-13T18:13:54Z</time>
      </trkpt>
      <trkpt lat="48.818101" lon="-3.507597">
        <ele>15.2</ele>
        <time>2020-08-13T18:14:08Z</time>
      </trkpt>
      <trkpt lat="48.818091" lon="-3.507525">
        <ele>15.2</ele>
        <time>2020-08-13T18:14:08Z</time>
      </trkpt>
      <trkpt lat="48.817993" lon="-3.507373">
        <ele>15.0</ele>
        <time>2020-08-13T18:14:10Z</time>
      </trkpt>
      <trkpt lat="48.816907" lon="-3.506814">
        <ele>15.2</ele>
        <time>2020-08-13T18:14:20Z</time>
      </trkpt>
      <trkpt lat="48.811575" lon="-3.504227">
        <ele>24.2</ele>
        <time>2020-08-13T18:15:08Z</time>
      </trkpt>
      <trkpt lat="48.809972" lon="-3.503507">
        <ele>29.6</ele>
        <time>2020-08-13T18:15:22Z</time>
      </trkpt>
      <trkpt lat="48.809308" lon="-3.503123">
        <ele>29.6</ele>
        <time>2020-08-13T18:15:28Z</time>
      </trkpt>
      <trkpt lat="48.80687" lon="-3.501545">
        <ele>43.0</ele>
        <time>2020-08-13T18:15:50Z</time>
      </trkpt>
      <trkpt lat="48.806345" lon="-3.50125">
        <ele>46.8</ele>
        <time>2020-08-13T18:15:55Z</time>
      </trkpt>
      <trkpt lat="48.806085" lon="-3.501123">
        <ele>46.8</ele>
        <time>2020-08-13T18:15:57Z</time>
      </trkpt>
      <trkpt lat="48.804372" lon="-3.500469">
        <ele>54.4</ele>
        <time>2020-08-13T18:16:12Z</time>
      </trkpt>
      <trkpt lat="48.803775" lon="-3.50013">
        <ele>56.4</ele>
        <time>2020-08-13T18:16:18Z</time>
      </trkpt>
      <trkpt lat="48.803451" lon="-3.499911">
        <ele>58.4</ele>
        <time>2020-08-13T18:16:21Z</time>
      </trkpt>
      <trkpt lat="48.803028" lon="-3.499583">
        <ele>59.8</ele>
        <time>2020-08-13T18:16:25Z</time>
      </trkpt>
      <trkpt lat="48.802284" lon="-3.498946">
        <ele>62.2</ele>
        <time>2020-08-13T18:16:32Z</time>
      </trkpt>
      <trkpt lat="48.80181" lon="-3.498609">
        <ele>62.2</ele>
        <time>2020-08-13T18:16:36Z</time>
      </trkpt>
      <trkpt lat="48.80136" lon="-3.498354">
        <ele>61.4</ele>
        <time>2020-08-13T18:16:40Z</time>
      </trkpt>
      <trkpt lat="48.801049" lon="-3.498216">
        <ele>63.2</ele>
        <time>2020-08-13T18:16:43Z</time>
      </trkpt>
      <trkpt lat="48.799598" lon="-3.497813">
        <ele>61.4</ele>
        <time>2020-08-13T18:16:56Z</time>
      </trkpt>
      <trkpt lat="48.799422" lon="-3.497748">
        <ele>61.4</ele>
        <time>2020-08-13T18:16:57Z</time>
      </trkpt>
      <trkpt lat="48.799113" lon="-3.497606">
        <ele>60.6</ele>
        <time>2020-08-13T18:17:00Z</time>
      </trkpt>
      <trkpt lat="48.797883" lon="-3.49697">
        <ele>60.8</ele>
        <time>2020-08-13T18:17:11Z</time>
      </trkpt>
      <trkpt lat="48.797979" lon="-3.496371">
        <ele>60.8</ele>
        <time>2020-08-13T18:17:16Z</time>
      </trkpt>
      <trkpt lat="48.798001" lon="-3.49596">
        <ele>60.8</ele>
        <time>2020-08-13T18:17:19Z</time>
      </trkpt>
      <trkpt lat="48.797858" lon="-3.495173">
        <ele>60.0</ele>
        <time>2020-08-13T18:17:25Z</time>
      </trkpt>
      <trkpt lat="48.797592" lon="-3.494211">
        <ele>58.6</ele>
        <time>2020-08-13T18:17:33Z</time>
      </trkpt>
      <trkpt lat="48.797435" lon="-3.493254">
        <ele>57.8</ele>
        <time>2020-08-13T18:17:40Z</time>
      </trkpt>
      <trkpt lat="48.797271" lon="-3.492678">
        <ele>57.8</ele>
        <time>2020-08-13T18:17:45Z</time>
      </trkpt>
      <trkpt lat="48.79721" lon="-3.49236">
        <ele>58.0</ele>
        <time>2020-08-13T18:17:48Z</time>
      </trkpt>
      <trkpt lat="48.797151" lon="-3.491323">
        <ele>58.4</ele>
        <time>2020-08-13T18:17:56Z</time>
      </trkpt>
      <trkpt lat="48.797164" lon="-3.491008">
        <ele>58.4</ele>
        <time>2020-08-13T18:17:58Z</time>
      </trkpt>
      <trkpt lat="48.797302" lon="-3.489721">
        <ele>60.4</ele>
        <time>2020-08-13T18:18:08Z</time>
      </trkpt>
      <trkpt lat="48.797407" lon="-3.488873">
        <ele>61.2</ele>
        <time>2020-08-13T18:18:15Z</time>
      </trkpt>
      <trkpt lat="48.797527" lon="-3.48805">
        <ele>61.8</ele>
        <time>2020-08-13T18:18:22Z</time>
      </trkpt>
      <trkpt lat="48.797567" lon="-3.487621">
        <ele>61.8</ele>
        <time>2020-08-13T18:18:26Z</time>
      </trkpt>
      <trkpt lat="48.797561" lon="-3.487285">
        <ele>62.2</ele>
        <time>2020-08-13T18:18:29Z</time>
      </trkpt>
      <trkpt lat="48.797489" lon="-3.486571">
        <ele>64.0</ele>
        <time>2020-08-13T18:18:35Z</time>
      </trkpt>
      <trkpt lat="48.79748" lon="-3.486223">
        <ele>64.0</ele>
        <time>2020-08-13T18:18:38Z</time>
      </trkpt>
      <trkpt lat="48.797547" lon="-3.485469">
        <ele>62.4</ele>
        <time>2020-08-13T18:18:44Z</time>
      </trkpt>
      <trkpt lat="48.797486" lon="-3.484482">
        <ele>72.6</ele>
        <time>2020-08-13T18:18:52Z</time>
      </trkpt>
      <trkpt lat="48.797457" lon="-3.483741">
        <ele>78.8</ele>
        <time>2020-08-13T18:18:59Z</time>
      </trkpt>
      <trkpt lat="48.797468" lon="-3.482694">
        <ele>81.8</ele>
        <time>2020-08-13T18:19:07Z</time>
      </trkpt>
      <trkpt lat="48.797448" lon="-3.482162">
        <ele>83.6</ele>
        <time>2020-08-13T18:19:12Z</time>
      </trkpt>
      <trkpt lat="48.79738" lon="-3.481967">
        <ele>83.6</ele>
        <time>2020-08-13T18:19:14Z</time>
      </trkpt>
      <trkpt lat="48.798093" lon="-3.480543">
        <ele>80.2</ele>
        <time>2020-08-13T18:19:27Z</time>
      </trkpt>
      <trkpt lat="48.798698" lon="-3.47925">
        <ele>81.0</ele>
        <time>2020-08-13T18:19:39Z</time>
      </trkpt>
      <trkpt lat="48.799123" lon="-3.478189">
        <ele>84.6</ele>
        <time>2020-08-13T18:19:48Z</time>
      </trkpt>
      <trkpt lat="48.799343" lon="-3.477769">
        <ele>83.0</ele>
        <time>2020-08-13T18:19:52Z</time>
      </trkpt>
      <trkpt lat="48.800008" lon="-3.476598">
        <ele>86.2</ele>
        <time>2020-08-13T18:20:03Z</time>
      </trkpt>
      <trkpt lat="48.80022" lon="-3.476194">
        <ele>86.2</ele>
        <time>2020-08-13T18:20:07Z</time>
      </trkpt>
      <trkpt lat="48.800386" lon="-3.475785">
        <ele>86.8</ele>
        <time>2020-08-13T18:20:11Z</time>
      </trkpt>
      <trkpt lat="48.80054" lon="-3.475193">
        <ele>86.8</ele>
        <time>2020-08-13T18:20:16Z</time>
      </trkpt>
      <trkpt lat="48.800685" lon="-3.474475">
        <ele>86.6</ele>
        <time>2020-08-13T18:20:21Z</time>
      </trkpt>
      <trkpt lat="48.800804" lon="-3.474009">
        <ele>85.4</ele>
        <time>2020-08-13T18:20:25Z</time>
      </trkpt>
      <trkpt lat="48.800917" lon="-3.473676">
        <ele>85.4</ele>
        <time>2020-08-13T18:20:28Z</time>
      </trkpt>
      <trkpt lat="48.801112" lon="-3.473142">
        <ele>84.2</ele>
        <time>2020-08-13T18:20:32Z</time>
      </trkpt>
      <trkpt lat="48.802093" lon="-3.470987">
        <ele>80.2</ele>
        <time>2020-08-13T18:20:51Z</time>
      </trkpt>
      <trkpt lat="48.802296" lon="-3.470513">
        <ele>78.6</ele>
        <time>2020-08-13T18:20:56Z</time>
      </trkpt>
      <trkpt lat="48.802498" lon="-3.469968">
        <ele>77.0</ele>
        <time>2020-08-13T18:21:00Z</time>
      </trkpt>
      <trkpt lat="48.802532" lon="-3.469825">
        <ele>78.6</ele>
        <time>2020-08-13T18:21:01Z</time>
      </trkpt>
      <trkpt lat="48.803475" lon="-3.467179">
        <ele>75.0</ele>
        <time>2020-08-13T18:21:24Z</time>
      </trkpt>
      <trkpt lat="48.804123" lon="-3.465097">
        <ele>74.4</ele>
        <time>2020-08-13T18:21:41Z</time>
      </trkpt>
      <trkpt lat="48.804182" lon="-3.464837">
        <ele>72.6</ele>
        <time>2020-08-13T18:21:43Z</time>
      </trkpt>
      <trkpt lat="48.803783" lon="-3.464539">
        <ele>74.2</ele>
        <time>2020-08-13T18:21:48Z</time>
      </trkpt>
      <trkpt lat="48.803373" lon="-3.464099">
        <ele>74.2</ele>
        <time>2020-08-13T18:21:54Z</time>
      </trkpt>
      <trkpt lat="48.803174" lon="-3.463829">
        <ele>74.6</ele>
        <time>2020-08-13T18:21:57Z</time>
      </trkpt>
      <trkpt lat="48.802817" lon="-3.463249">
        <ele>74.8</ele>
        <time>2020-08-13T18:22:03Z</time>
      </trkpt>
      <trkpt lat="48.802664" lon="-3.46304">
        <ele>74.8</ele>
        <time>2020-08-13T18:22:05Z</time>
      </trkpt>
      <trkpt lat="48.802405" lon="-3.46278">
        <ele>74.6</ele>
        <time>2020-08-13T18:22:09Z</time>
      </trkpt>
      <trkpt lat="48.801939" lon="-3.462463">
        <ele>75.6</ele>
        <time>2020-08-13T18:22:15Z</time>
      </trkpt>
      <trkpt lat="48.801359" lon="-3.461868">
        <ele>75.0</ele>
        <time>2020-08-13T18:22:23Z</time>
      </trkpt>
      <trkpt lat="48.800972" lon="-3.461611">
        <ele>75.4</ele>
        <time>2020-08-13T18:22:28Z</time>
      </trkpt>
      <trkpt lat="48.800716" lon="-3.461524">
        <ele>73.6</ele>
        <time>2020-08-13T18:22:31Z</time>
      </trkpt>
      <trkpt lat="48.800495" lon="-3.461501">
        <ele>73.6</ele>
        <time>2020-08-13T18:22:33Z</time>
      </trkpt>
      <trkpt lat="48.800101" lon="-3.461514">
        <ele>73.6</ele>
        <time>2020-08-13T18:22:38Z</time>
      </trkpt>
      <trkpt lat="48.799303" lon="-3.46146">
        <ele>70.6</ele>
        <time>2020-08-13T18:22:47Z</time>
      </trkpt>
      <trkpt lat="48.798897" lon="-3.461369">
        <ele>68.4</ele>
        <time>2020-08-13T18:22:52Z</time>
      </trkpt>
      <trkpt lat="48.798964" lon="-3.461059">
        <ele>68.4</ele>
        <time>2020-08-13T18:22:54Z</time>
      </trkpt>
      <trkpt lat="48.799111" lon="-3.460549">
        <ele>67.8</ele>
        <time>2020-08-13T18:22:58Z</time>
      </trkpt>
      <trkpt lat="48.799205" lon="-3.460071">
        <ele>70.2</ele>
        <time>2020-08-13T18:23:02Z</time>
      </trkpt>
      <trkpt lat="48.799203" lon="-3.459924">
        <ele>68.4</ele>
        <time>2020-08-13T18:23:03Z</time>
      </trkpt>
      <trkpt lat="48.799166" lon="-3.459635">
        <ele>67.0</ele>
        <time>2020-08-13T18:23:05Z</time>
      </trkpt>
      <trkpt lat="48.799155" lon="-3.459323">
        <ele>67.0</ele>
        <time>2020-08-13T18:23:08Z</time>
      </trkpt>
      <trkpt lat="48.799136" lon="-3.459228">
        <ele>67.0</ele>
        <time>2020-08-13T18:23:09Z</time>
      </trkpt>
      <trkpt lat="48.79911" lon="-3.459151">
        <ele>65.6</ele>
        <time>2020-08-13T18:23:09Z</time>
      </trkpt>
      <trkpt lat="48.799056" lon="-3.459067">
        <ele>65.6</ele>
        <time>2020-08-13T18:23:10Z</time>
      </trkpt>
      <trkpt lat="48.798702" lon="-3.458638">
        <ele>65.6</ele>
        <time>2020-08-13T18:23:15Z</time>
      </trkpt>
      <trkpt lat="48.798455" lon="-3.458284">
        <ele>62.2</ele>
        <time>2020-08-13T18:23:19Z</time>
      </trkpt>
      <trkpt lat="48.798062" lon="-3.457563">
        <ele>63.6</ele>
        <time>2020-08-13T18:23:26Z</time>
      </trkpt>
      <trkpt lat="48.797923" lon="-3.457065">
        <ele>59.8</ele>
        <time>2020-08-13T18:23:31Z</time>
      </trkpt>
      <trkpt lat="48.797869" lon="-3.456722">
        <ele>59.8</ele>
        <time>2020-08-13T18:23:33Z</time>
      </trkpt>
      <trkpt lat="48.797984" lon="-3.456473">
        <ele>57.0</ele>
        <time>2020-08-13T18:23:34Z</time>
      </trkpt>
      <trkpt lat="48.798121" lon="-3.456012">
        <ele>57.0</ele>
        <time>2020-08-13T18:23:36Z</time>
      </trkpt>
      <trkpt lat="48.798579" lon="-3.454619">
        <ele>54.2</ele>
        <time>2020-08-13T18:23:41Z</time>
      </trkpt>
      <trkpt lat="48.798661" lon="-3.454429">
        <ele>54.2</ele>
        <time>2020-08-13T18:23:41Z</time>
      </trkpt>
      <trkpt lat="48.799342" lon="-3.453517">
        <ele>54.2</ele>
        <time>2020-08-13T18:23:46Z</time>
      </trkpt>
      <trkpt lat="48.799399" lon="-3.453407">
        <ele>54.2</ele>
        <time>2020-08-13T18:23:46Z</time>
      </trkpt>
      <trkpt lat="48.799445" lon="-3.45327">
        <ele>54.0</ele>
        <time>2020-08-13T18:23:46Z</time>
      </trkpt>
      <trkpt lat="48.799485" lon="-3.453024">
        <ele>54.0</ele>
        <time>2020-08-13T18:23:47Z</time>
      </trkpt>
      <trkpt lat="48.799556" lon="-3.452017">
        <ele>52.4</ele>
        <time>2020-08-13T18:23:50Z</time>
      </trkpt>
      <trkpt lat="48.799642" lon="-3.451513">
        <ele>48.2</ele>
        <time>2020-08-13T18:23:52Z</time>
      </trkpt>
      <trkpt lat="48.79997" lon="-3.450746">
        <ele>44.4</ele>
        <time>2020-08-13T18:23:55Z</time>
      </trkpt>
      <trkpt lat="48.800125" lon="-3.450357">
        <ele>43.2</ele>
        <time>2020-08-13T18:23:56Z</time>
      </trkpt>
      <trkpt lat="48.800165" lon="-3.450205">
        <ele>43.2</ele>
        <time>2020-08-13T18:23:57Z</time>
      </trkpt>
      <trkpt lat="48.800182" lon="-3.450037">
        <ele>43.2</ele>
        <time>2020-08-13T18:23:57Z</time>
      </trkpt>
      <trkpt lat="48.800084" lon="-3.447389">
        <ele>25.6</ele>
        <time>2020-08-13T18:24:06Z</time>
      </trkpt>
      <trkpt lat="48.800227" lon="-3.447393">
        <ele>25.6</ele>
        <time>2020-08-13T18:24:07Z</time>
      </trkpt>
      <trkpt lat="48.800235" lon="-3.447356">
        <ele>25.6</ele>
        <time>2020-08-13T18:24:08Z</time>
      </trkpt>
      <trkpt lat="48.800927" lon="-3.446323">
        <ele>17.4</ele>
        <time>2020-08-13T18:24:26Z</time>
      </trkpt>
      <trkpt lat="48.801102" lon="-3.446019">
        <ele>17.4</ele>
        <time>2020-08-13T18:24:31Z</time>
      </trkpt>
      <trkpt lat="48.801166" lon="-3.445972">
        <ele>17.4</ele>
        <time>2020-08-13T18:24:32Z</time>
      </trkpt>
      <trkpt lat="48.80126" lon="-3.445954">
        <ele>17.4</ele>
        <time>2020-08-13T18:24:34Z</time>
      </trkpt>
      <trkpt lat="48.801447" lon="-3.446025">
        <ele>17.4</ele>
        <time>2020-08-13T18:24:37Z</time>
      </trkpt>
      <trkpt lat="48.8016" lon="-3.446034">
        <ele>17.4</ele>
        <time>2020-08-13T18:24:40Z</time>
      </trkpt>
      <trkpt lat="48.801714" lon="-3.446005">
        <ele>20.4</ele>
        <time>2020-08-13T18:24:42Z</time>
      </trkpt>
      <trkpt lat="48.803146" lon="-3.445205">
        <ele>18.2</ele>
        <time>2020-08-13T18:25:11Z</time>
      </trkpt>
      <trkpt lat="48.802841" lon="-3.443236">
        <ele>4.8</ele>
        <time>2020-08-13T18:25:35Z</time>
      </trkpt>
      <trkpt lat="48.802967" lon="-3.443188">
        <ele>4.8</ele>
        <time>2020-08-13T18:25:38Z</time>
      </trkpt>
      <trkpt lat="48.803233" lon="-3.443179">
        <ele>4.8</ele>
        <time>2020-08-13T18:25:44Z</time>
      </trkpt>
      <trkpt lat="48.803482" lon="-3.443265">
        <ele>5.2</ele>
        <time>2020-08-13T18:25:50Z</time>
      </trkpt>
      <trkpt lat="48.803556" lon="-3.443184">
        <ele>5.2</ele>
        <time>2020-08-13T18:25:52Z</time>
      </trkpt>
      <trkpt lat="48.804363" lon="-3.44291">
        <ele>5.8</ele>
        <time>2020-08-13T18:26:11Z</time>
      </trkpt>
      <trkpt lat="48.804363" lon="-3.44291">
        <ele>5.8</ele>
        <time>2020-08-13T18:26:11Z</time>
      </trkpt>
      <trkpt lat="48.804911" lon="-3.442713">
        <ele>6.4</ele>
        <time>2020-08-13T18:26:24Z</time>
      </trkpt>
      <trkpt lat="48.804947" lon="-3.442827">
        <ele>6.4</ele>
        <time>2020-08-13T18:26:26Z</time>
      </trkpt>
      <trkpt lat="48.803635" lon="-3.443273">
        <ele>5.2</ele>
        <time>2020-08-13T18:26:53Z</time>
      </trkpt>
      <trkpt lat="48.803482" lon="-3.443265">
        <ele>5.2</ele>
        <time>2020-08-13T18:26:56Z</time>
      </trkpt>
      <trkpt lat="48.803233" lon="-3.443179">
        <ele>4.8</ele>
        <time>2020-08-13T18:27:01Z</time>
      </trkpt>
      <trkpt lat="48.802967" lon="-3.443188">
        <ele>4.8</ele>
        <time>2020-08-13T18:27:06Z</time>
      </trkpt>
      <trkpt lat="48.802163" lon="-3.443481">
        <ele>6.0</ele>
        <time>2020-08-13T18:27:23Z</time>
      </trkpt>
      <trkpt lat="48.802107" lon="-3.44353">
        <ele>6.0</ele>
        <time>2020-08-13T18:27:24Z</time>
      </trkpt>
      <trkpt lat="48.80169" lon="-3.443505">
        <ele>6.0</ele>
        <time>2020-08-13T18:27:32Z</time>
      </trkpt>
      <trkpt lat="48.801526" lon="-3.443445">
        <ele>7.4</ele>
        <time>2020-08-13T18:27:36Z</time>
      </trkpt>
      <trkpt lat="48.800938" lon="-3.442939">
        <ele>6.2</ele>
        <time>2020-08-13T18:27:49Z</time>
      </trkpt>
      <trkpt lat="48.800753" lon="-3.442822">
        <ele>7.2</ele>
        <time>2020-08-13T18:27:53Z</time>
      </trkpt>
      <trkpt lat="48.800357" lon="-3.442652">
        <ele>7.2</ele>
        <time>2020-08-13T18:28:01Z</time>
      </trkpt>
      <trkpt lat="48.799344" lon="-3.4423">
        <ele>6.6</ele>
        <time>2020-08-13T18:28:22Z</time>
      </trkpt>
      <trkpt lat="48.798198" lon="-3.441954">
        <ele>9.2</ele>
        <time>2020-08-13T18:28:45Z</time>
      </trkpt>
      <trkpt lat="48.798074" lon="-3.441797">
        <ele>9.2</ele>
        <time>2020-08-13T18:28:48Z</time>
      </trkpt>
      <trkpt lat="48.797859" lon="-3.441678">
        <ele>9.2</ele>
        <time>2020-08-13T18:28:53Z</time>
      </trkpt>
      <trkpt lat="48.797785" lon="-3.441718">
        <ele>9.2</ele>
        <time>2020-08-13T18:28:54Z</time>
      </trkpt>
      <trkpt lat="48.797707" lon="-3.441731">
        <ele>9.2</ele>
        <time>2020-08-13T18:28:55Z</time>
      </trkpt>
      <trkpt lat="48.797607" lon="-3.441707">
        <ele>9.2</ele>
        <time>2020-08-13T18:28:56Z</time>
      </trkpt>
      <trkpt lat="48.797516" lon="-3.44164">
        <ele>6.6</ele>
        <time>2020-08-13T18:28:57Z</time>
      </trkpt>
      <trkpt lat="48.797443" lon="-3.441534">
        <ele>9.6</ele>
        <time>2020-08-13T18:28:58Z</time>
      </trkpt>
      <trkpt lat="48.797395" lon="-3.441409">
        <ele>9.6</ele>
        <time>2020-08-13T18:28:59Z</time>
      </trkpt>
      <trkpt lat="48.797372" lon="-3.44127">
        <ele>9.6</ele>
        <time>2020-08-13T18:29:00Z</time>
      </trkpt>
      <trkpt lat="48.797376" lon="-3.441125">
        <ele>9.6</ele>
        <time>2020-08-13T18:29:01Z</time>
      </trkpt>
      <trkpt lat="48.797406" lon="-3.440989">
        <ele>9.6</ele>
        <time>2020-08-13T18:29:02Z</time>
      </trkpt>
      <trkpt lat="48.79746" lon="-3.44087">
        <ele>9.6</ele>
        <time>2020-08-13T18:29:03Z</time>
      </trkpt>
      <trkpt lat="48.797586" lon="-3.440739">
        <ele>7.0</ele>
        <time>2020-08-13T18:29:04Z</time>
      </trkpt>
      <trkpt lat="48.797661" lon="-3.440709">
        <ele>7.0</ele>
        <time>2020-08-13T18:29:05Z</time>
      </trkpt>
      <trkpt lat="48.797798" lon="-3.440611">
        <ele>7.0</ele>
        <time>2020-08-13T18:29:07Z</time>
      </trkpt>
      <trkpt lat="48.797872" lon="-3.440469">
        <ele>7.0</ele>
        <time>2020-08-13T18:29:08Z</time>
      </trkpt>
      <trkpt lat="48.797891" lon="-3.440331">
        <ele>7.0</ele>
        <time>2020-08-13T18:29:09Z</time>
      </trkpt>
      <trkpt lat="48.797877" lon="-3.439935">
        <ele>9.0</ele>
        <time>2020-08-13T18:29:12Z</time>
      </trkpt>
      <trkpt lat="48.797763" lon="-3.439705">
        <ele>9.0</ele>
        <time>2020-08-13T18:29:13Z</time>
      </trkpt>
      <trkpt lat="48.797439" lon="-3.438608">
        <ele>21.0</ele>
        <time>2020-08-13T18:29:22Z</time>
      </trkpt>
      <trkpt lat="48.797274" lon="-3.438226">
        <ele>23.6</ele>
        <time>2020-08-13T18:29:25Z</time>
      </trkpt>
      <trkpt lat="48.797131" lon="-3.437957">
        <ele>23.6</ele>
        <time>2020-08-13T18:29:27Z</time>
      </trkpt>
      <trkpt lat="48.796951" lon="-3.437673">
        <ele>23.6</ele>
        <time>2020-08-13T18:29:30Z</time>
      </trkpt>
      <trkpt lat="48.796233" lon="-3.436653">
        <ele>31.6</ele>
        <time>2020-08-13T18:29:40Z</time>
      </trkpt>
      <trkpt lat="48.795943" lon="-3.436343">
        <ele>31.6</ele>
        <time>2020-08-13T18:29:43Z</time>
      </trkpt>
      <trkpt lat="48.795707" lon="-3.436139">
        <ele>35.6</ele>
        <time>2020-08-13T18:29:46Z</time>
      </trkpt>
      <trkpt lat="48.794874" lon="-3.435183">
        <ele>38.2</ele>
        <time>2020-08-13T18:29:57Z</time>
      </trkpt>
      <trkpt lat="48.794733" lon="-3.435068">
        <ele>38.2</ele>
        <time>2020-08-13T18:29:59Z</time>
      </trkpt>
      <trkpt lat="48.794297" lon="-3.434847">
        <ele>39.2</ele>
        <time>2020-08-13T18:30:03Z</time>
      </trkpt>
      <trkpt lat="48.793988" lon="-3.434606">
        <ele>37.4</ele>
        <time>2020-08-13T18:30:07Z</time>
      </trkpt>
      <trkpt lat="48.793831" lon="-3.43438">
        <ele>37.4</ele>
        <time>2020-08-13T18:30:09Z</time>
      </trkpt>
      <trkpt lat="48.793657" lon="-3.434033">
        <ele>38.8</ele>
        <time>2020-08-13T18:30:12Z</time>
      </trkpt>
      <trkpt lat="48.793606" lon="-3.433901">
        <ele>38.8</ele>
        <time>2020-08-13T18:30:13Z</time>
      </trkpt>
      <trkpt lat="48.793341" lon="-3.432995">
        <ele>40.2</ele>
        <time>2020-08-13T18:30:20Z</time>
      </trkpt>
      <trkpt lat="48.793234" lon="-3.432774">
        <ele>41.0</ele>
        <time>2020-08-13T18:30:22Z</time>
      </trkpt>
      <trkpt lat="48.792892" lon="-3.432443">
        <ele>41.6</ele>
        <time>2020-08-13T18:30:26Z</time>
      </trkpt>
      <trkpt lat="48.792691" lon="-3.432218">
        <ele>41.6</ele>
        <time>2020-08-13T18:30:28Z</time>
      </trkpt>
      <trkpt lat="48.792523" lon="-3.431943">
        <ele>41.6</ele>
        <time>2020-08-13T18:30:31Z</time>
      </trkpt>
      <trkpt lat="48.792307" lon="-3.431527">
        <ele>42.0</ele>
        <time>2020-08-13T18:30:34Z</time>
      </trkpt>
      <trkpt lat="48.792063" lon="-3.431186">
        <ele>42.0</ele>
        <time>2020-08-13T18:30:38Z</time>
      </trkpt>
      <trkpt lat="48.791583" lon="-3.430793">
        <ele>39.8</ele>
        <time>2020-08-13T18:30:43Z</time>
      </trkpt>
      <trkpt lat="48.791278" lon="-3.43051">
        <ele>39.8</ele>
        <time>2020-08-13T18:30:47Z</time>
      </trkpt>
      <trkpt lat="48.790972" lon="-3.430137">
        <ele>39.8</ele>
        <time>2020-08-13T18:30:51Z</time>
      </trkpt>
      <trkpt lat="48.790386" lon="-3.429239">
        <ele>43.4</ele>
        <time>2020-08-13T18:31:00Z</time>
      </trkpt>
      <trkpt lat="48.790134" lon="-3.428903">
        <ele>47.6</ele>
        <time>2020-08-13T18:31:03Z</time>
      </trkpt>
      <trkpt lat="48.789914" lon="-3.428732">
        <ele>51.4</ele>
        <time>2020-08-13T18:31:06Z</time>
      </trkpt>
      <trkpt lat="48.789867" lon="-3.428788">
        <ele>51.4</ele>
        <time>2020-08-13T18:31:06Z</time>
      </trkpt>
      <trkpt lat="48.789828" lon="-3.428774">
        <ele>51.4</ele>
        <time>2020-08-13T18:31:07Z</time>
      </trkpt>
      <trkpt lat="48.789802" lon="-3.428719">
        <ele>51.4</ele>
        <time>2020-08-13T18:31:07Z</time>
      </trkpt>
      <trkpt lat="48.789811" lon="-3.428649">
        <ele>51.4</ele>
        <time>2020-08-13T18:31:08Z</time>
      </trkpt>
      <trkpt lat="48.789427" lon="-3.428453">
        <ele>51.4</ele>
        <time>2020-08-13T18:31:12Z</time>
      </trkpt>
      <trkpt lat="48.788768" lon="-3.427982">
        <ele>54.8</ele>
        <time>2020-08-13T18:31:19Z</time>
      </trkpt>
      <trkpt lat="48.788448" lon="-3.427704">
        <ele>54.8</ele>
        <time>2020-08-13T18:31:23Z</time>
      </trkpt>
      <trkpt lat="48.788341" lon="-3.427602">
        <ele>54.8</ele>
        <time>2020-08-13T18:31:24Z</time>
      </trkpt>
      <trkpt lat="48.788193" lon="-3.427364">
        <ele>55.6</ele>
        <time>2020-08-13T18:31:27Z</time>
      </trkpt>
      <trkpt lat="48.787978" lon="-3.42714">
        <ele>55.6</ele>
        <time>2020-08-13T18:31:29Z</time>
      </trkpt>
      <trkpt lat="48.787047" lon="-3.426311">
        <ele>56.4</ele>
        <time>2020-08-13T18:31:40Z</time>
      </trkpt>
      <trkpt lat="48.786713" lon="-3.425897">
        <ele>56.4</ele>
        <time>2020-08-13T18:31:45Z</time>
      </trkpt>
      <trkpt lat="48.786586" lon="-3.425695">
        <ele>58.0</ele>
        <time>2020-08-13T18:31:47Z</time>
      </trkpt>
      <trkpt lat="48.786448" lon="-3.425528">
        <ele>58.0</ele>
        <time>2020-08-13T18:31:48Z</time>
      </trkpt>
      <trkpt lat="48.785819" lon="-3.425046">
        <ele>60.2</ele>
        <time>2020-08-13T18:31:56Z</time>
      </trkpt>
      <trkpt lat="48.785518" lon="-3.424788">
        <ele>59.4</ele>
        <time>2020-08-13T18:31:59Z</time>
      </trkpt>
      <trkpt lat="48.785468" lon="-3.424719">
        <ele>59.4</ele>
        <time>2020-08-13T18:32:00Z</time>
      </trkpt>
      <trkpt lat="48.785244" lon="-3.424244">
        <ele>59.4</ele>
        <time>2020-08-13T18:32:04Z</time>
      </trkpt>
      <trkpt lat="48.785119" lon="-3.424016">
        <ele>59.6</ele>
        <time>2020-08-13T18:32:06Z</time>
      </trkpt>
      <trkpt lat="48.78496" lon="-3.423748">
        <ele>62.4</ele>
        <time>2020-08-13T18:32:08Z</time>
      </trkpt>
      <trkpt lat="48.784471" lon="-3.423027">
        <ele>60.8</ele>
        <time>2020-08-13T18:32:15Z</time>
      </trkpt>
      <trkpt lat="48.784314" lon="-3.422757">
        <ele>60.8</ele>
        <time>2020-08-13T18:32:18Z</time>
      </trkpt>
      <trkpt lat="48.784259" lon="-3.422603">
        <ele>60.8</ele>
        <time>2020-08-13T18:32:19Z</time>
      </trkpt>
      <trkpt lat="48.784219" lon="-3.422354">
        <ele>58.2</ele>
        <time>2020-08-13T18:32:21Z</time>
      </trkpt>
      <trkpt lat="48.784308" lon="-3.421577">
        <ele>56.6</ele>
        <time>2020-08-13T18:32:26Z</time>
      </trkpt>
      <trkpt lat="48.784368" lon="-3.421305">
        <ele>56.6</ele>
        <time>2020-08-13T18:32:28Z</time>
      </trkpt>
      <trkpt lat="48.784584" lon="-3.420797">
        <ele>54.8</ele>
        <time>2020-08-13T18:32:32Z</time>
      </trkpt>
      <trkpt lat="48.784629" lon="-3.420614">
        <ele>54.8</ele>
        <time>2020-08-13T18:32:33Z</time>
      </trkpt>
      <trkpt lat="48.784621" lon="-3.420527">
        <ele>54.8</ele>
        <time>2020-08-13T18:32:34Z</time>
      </trkpt>
      <trkpt lat="48.784577" lon="-3.420454">
        <ele>54.8</ele>
        <time>2020-08-13T18:32:34Z</time>
      </trkpt>
      <trkpt lat="48.784275" lon="-3.42006">
        <ele>54.8</ele>
        <time>2020-08-13T18:32:38Z</time>
      </trkpt>
      <trkpt lat="48.78416" lon="-3.419874">
        <ele>60.8</ele>
        <time>2020-08-13T18:32:40Z</time>
      </trkpt>
      <trkpt lat="48.783944" lon="-3.419419">
        <ele>60.8</ele>
        <time>2020-08-13T18:32:44Z</time>
      </trkpt>
      <trkpt lat="48.783884" lon="-3.419188">
        <ele>60.8</ele>
        <time>2020-08-13T18:32:46Z</time>
      </trkpt>
      <trkpt lat="48.783917" lon="-3.418944">
        <ele>63.2</ele>
        <time>2020-08-13T18:32:47Z</time>
      </trkpt>
      <trkpt lat="48.784027" lon="-3.41862">
        <ele>63.2</ele>
        <time>2020-08-13T18:32:50Z</time>
      </trkpt>
      <trkpt lat="48.784099" lon="-3.418532">
        <ele>63.2</ele>
        <time>2020-08-13T18:32:51Z</time>
      </trkpt>
      <trkpt lat="48.783255" lon="-3.417967">
        <ele>66.2</ele>
        <time>2020-08-13T18:32:58Z</time>
      </trkpt>
      <trkpt lat="48.782665" lon="-3.417503">
        <ele>66.2</ele>
        <time>2020-08-13T18:33:03Z</time>
      </trkpt>
      <trkpt lat="48.781752" lon="-3.417">
        <ele>67.2</ele>
        <time>2020-08-13T18:33:11Z</time>
      </trkpt>
      <trkpt lat="48.781145" lon="-3.416618">
        <ele>72.4</ele>
        <time>2020-08-13T18:33:16Z</time>
      </trkpt>
      <trkpt lat="48.780633" lon="-3.416148">
        <ele>74.4</ele>
        <time>2020-08-13T18:33:21Z</time>
      </trkpt>
      <trkpt lat="48.780039" lon="-3.415742">
        <ele>76.0</ele>
        <time>2020-08-13T18:33:26Z</time>
      </trkpt>
      <trkpt lat="48.779334" lon="-3.415327">
        <ele>78.8</ele>
        <time>2020-08-13T18:33:32Z</time>
      </trkpt>
      <trkpt lat="48.778722" lon="-3.414712">
        <ele>83.4</ele>
        <time>2020-08-13T18:33:37Z</time>
      </trkpt>
      <trkpt lat="48.778457" lon="-3.414495">
        <ele>83.4</ele>
        <time>2020-08-13T18:33:40Z</time>
      </trkpt>
      <trkpt lat="48.777829" lon="-3.414291">
        <ele>82.4</ele>
        <time>2020-08-13T18:33:45Z</time>
      </trkpt>
      <trkpt lat="48.777415" lon="-3.414101">
        <ele>80.0</ele>
        <time>2020-08-13T18:33:48Z</time>
      </trkpt>
      <trkpt lat="48.777636" lon="-3.413513">
        <ele>82.2</ele>
        <time>2020-08-13T18:33:51Z</time>
      </trkpt>
      <trkpt lat="48.777789" lon="-3.413008">
        <ele>81.6</ele>
        <time>2020-08-13T18:33:53Z</time>
      </trkpt>
      <trkpt lat="48.778965" lon="-3.408346">
        <ele>83.6</ele>
        <time>2020-08-13T18:34:14Z</time>
      </trkpt>
      <trkpt lat="48.779334" lon="-3.407058">
        <ele>85.0</ele>
        <time>2020-08-13T18:34:20Z</time>
      </trkpt>
      <trkpt lat="48.779535" lon="-3.406454">
        <ele>84.8</ele>
        <time>2020-08-13T18:34:23Z</time>
      </trkpt>
      <trkpt lat="48.77982" lon="-3.405673">
        <ele>84.4</ele>
        <time>2020-08-13T18:34:27Z</time>
      </trkpt>
      <trkpt lat="48.780114" lon="-3.404947">
        <ele>85.8</ele>
        <time>2020-08-13T18:34:31Z</time>
      </trkpt>
      <trkpt lat="48.782664" lon="-3.398782">
        <ele>85.0</ele>
        <time>2020-08-13T18:35:01Z</time>
      </trkpt>
      <trkpt lat="48.782973" lon="-3.398142">
        <ele>86.0</ele>
        <time>2020-08-13T18:35:05Z</time>
      </trkpt>
      <trkpt lat="48.783176" lon="-3.397817">
        <ele>86.0</ele>
        <time>2020-08-13T18:35:07Z</time>
      </trkpt>
      <trkpt lat="48.783437" lon="-3.397482">
        <ele>85.4</ele>
        <time>2020-08-13T18:35:09Z</time>
      </trkpt>
      <trkpt lat="48.783786" lon="-3.397106">
        <ele>85.4</ele>
        <time>2020-08-13T18:35:12Z</time>
      </trkpt>
      <trkpt lat="48.783983" lon="-3.396941">
        <ele>85.4</ele>
        <time>2020-08-13T18:35:13Z</time>
      </trkpt>
      <trkpt lat="48.784259" lon="-3.396779">
        <ele>84.6</ele>
        <time>2020-08-13T18:35:15Z</time>
      </trkpt>
      <trkpt lat="48.784596" lon="-3.396657">
        <ele>85.0</ele>
        <time>2020-08-13T18:35:17Z</time>
      </trkpt>
      <trkpt lat="48.784793" lon="-3.396617">
        <ele>85.0</ele>
        <time>2020-08-13T18:35:18Z</time>
      </trkpt>
      <trkpt lat="48.784867" lon="-3.39658">
        <ele>85.0</ele>
        <time>2020-08-13T18:35:19Z</time>
      </trkpt>
      <trkpt lat="48.784958" lon="-3.396494">
        <ele>85.0</ele>
        <time>2020-08-13T18:35:20Z</time>
      </trkpt>
      <trkpt lat="48.784947" lon="-3.39638">
        <ele>85.0</ele>
        <time>2020-08-13T18:35:20Z</time>
      </trkpt>
      <trkpt lat="48.784966" lon="-3.396283">
        <ele>85.0</ele>
        <time>2020-08-13T18:35:20Z</time>
      </trkpt>
      <trkpt lat="48.785005" lon="-3.3962">
        <ele>84.2</ele>
        <time>2020-08-13T18:35:21Z</time>
      </trkpt>
      <trkpt lat="48.785069" lon="-3.396144">
        <ele>84.2</ele>
        <time>2020-08-13T18:35:21Z</time>
      </trkpt>
      <trkpt lat="48.785156" lon="-3.395915">
        <ele>84.2</ele>
        <time>2020-08-13T18:35:22Z</time>
      </trkpt>
      <trkpt lat="48.785202" lon="-3.395835">
        <ele>84.2</ele>
        <time>2020-08-13T18:35:22Z</time>
      </trkpt>
      <trkpt lat="48.785342" lon="-3.395671">
        <ele>84.4</ele>
        <time>2020-08-13T18:35:23Z</time>
      </trkpt>
      <trkpt lat="48.785591" lon="-3.394718">
        <ele>85.0</ele>
        <time>2020-08-13T18:35:27Z</time>
      </trkpt>
      <trkpt lat="48.7858" lon="-3.394169">
        <ele>85.0</ele>
        <time>2020-08-13T18:35:29Z</time>
      </trkpt>
      <trkpt lat="48.786187" lon="-3.393311">
        <ele>83.8</ele>
        <time>2020-08-13T18:35:33Z</time>
      </trkpt>
      <trkpt lat="48.786665" lon="-3.392483">
        <ele>83.8</ele>
        <time>2020-08-13T18:35:37Z</time>
      </trkpt>
      <trkpt lat="48.786922" lon="-3.391833">
        <ele>84.2</ele>
        <time>2020-08-13T18:35:40Z</time>
      </trkpt>
      <trkpt lat="48.787139" lon="-3.391382">
        <ele>83.6</ele>
        <time>2020-08-13T18:35:42Z</time>
      </trkpt>
      <trkpt lat="48.787282" lon="-3.391205">
        <ele>83.6</ele>
        <time>2020-08-13T18:35:43Z</time>
      </trkpt>
      <trkpt lat="48.787633" lon="-3.390849">
        <ele>83.4</ele>
        <time>2020-08-13T18:35:45Z</time>
      </trkpt>
      <trkpt lat="48.787751" lon="-3.3907">
        <ele>82.4</ele>
        <time>2020-08-13T18:35:46Z</time>
      </trkpt>
      <trkpt lat="48.788112" lon="-3.390056">
        <ele>82.4</ele>
        <time>2020-08-13T18:35:49Z</time>
      </trkpt>
      <trkpt lat="48.788328" lon="-3.389783">
        <ele>82.2</ele>
        <time>2020-08-13T18:35:50Z</time>
      </trkpt>
      <trkpt lat="48.788714" lon="-3.389352">
        <ele>82.0</ele>
        <time>2020-08-13T18:35:53Z</time>
      </trkpt>
      <trkpt lat="48.789041" lon="-3.388908">
        <ele>81.4</ele>
        <time>2020-08-13T18:35:55Z</time>
      </trkpt>
      <trkpt lat="48.789127" lon="-3.38876">
        <ele>81.4</ele>
        <time>2020-08-13T18:35:56Z</time>
      </trkpt>
      <trkpt lat="48.789222" lon="-3.388553">
        <ele>81.6</ele>
        <time>2020-08-13T18:35:57Z</time>
      </trkpt>
      <trkpt lat="48.789277" lon="-3.388386">
        <ele>81.6</ele>
        <time>2020-08-13T18:35:58Z</time>
      </trkpt>
      <trkpt lat="48.789367" lon="-3.387999">
        <ele>80.6</ele>
        <time>2020-08-13T18:35:59Z</time>
      </trkpt>
      <trkpt lat="48.789583" lon="-3.386678">
        <ele>79.8</ele>
        <time>2020-08-13T18:36:04Z</time>
      </trkpt>
      <trkpt lat="48.789625" lon="-3.386507">
        <ele>79.2</ele>
        <time>2020-08-13T18:36:05Z</time>
      </trkpt>
      <trkpt lat="48.789625" lon="-3.386507">
        <ele>79.2</ele>
        <time>2020-08-13T18:36:05Z</time>
      </trkpt>
      <trkpt lat="48.789965" lon="-3.385543">
        <ele>77.6</ele>
        <time>2020-08-13T18:36:09Z</time>
      </trkpt>
      <trkpt lat="48.790105" lon="-3.38494">
        <ele>75.6</ele>
        <time>2020-08-13T18:36:12Z</time>
      </trkpt>
      <trkpt lat="48.790138" lon="-3.384658">
        <ele>75.6</ele>
        <time>2020-08-13T18:36:13Z</time>
      </trkpt>
      <trkpt lat="48.790156" lon="-3.384167">
        <ele>75.6</ele>
        <time>2020-08-13T18:36:15Z</time>
      </trkpt>
      <trkpt lat="48.790173" lon="-3.38212">
        <ele>70.0</ele>
        <time>2020-08-13T18:36:24Z</time>
      </trkpt>
      <trkpt lat="48.790207" lon="-3.381495">
        <ele>67.8</ele>
        <time>2020-08-13T18:36:26Z</time>
      </trkpt>
      <trkpt lat="48.790253" lon="-3.381163">
        <ele>67.8</ele>
        <time>2020-08-13T18:36:28Z</time>
      </trkpt>
      <trkpt lat="48.790826" lon="-3.379214">
        <ele>63.0</ele>
        <time>2020-08-13T18:36:37Z</time>
      </trkpt>
      <trkpt lat="48.790904" lon="-3.378989">
        <ele>61.4</ele>
        <time>2020-08-13T18:36:38Z</time>
      </trkpt>
      <trkpt lat="48.790968" lon="-3.37886">
        <ele>61.4</ele>
        <time>2020-08-13T18:36:38Z</time>
      </trkpt>
      <trkpt lat="48.791116" lon="-3.378691">
        <ele>61.4</ele>
        <time>2020-08-13T18:36:40Z</time>
      </trkpt>
      <trkpt lat="48.791229" lon="-3.378605">
        <ele>61.4</ele>
        <time>2020-08-13T18:36:40Z</time>
      </trkpt>
      <trkpt lat="48.791547" lon="-3.378427">
        <ele>61.4</ele>
        <time>2020-08-13T18:36:43Z</time>
      </trkpt>
      <trkpt lat="48.791651" lon="-3.378345">
        <ele>61.4</ele>
        <time>2020-08-13T18:36:43Z</time>
      </trkpt>
      <trkpt lat="48.791789" lon="-3.378158">
        <ele>60.4</ele>
        <time>2020-08-13T18:36:45Z</time>
      </trkpt>
      <trkpt lat="48.79199" lon="-3.377703">
        <ele>60.4</ele>
        <time>2020-08-13T18:36:47Z</time>
      </trkpt>
      <trkpt lat="48.792114" lon="-3.377598">
        <ele>60.4</ele>
        <time>2020-08-13T18:36:48Z</time>
      </trkpt>
      <trkpt lat="48.792239" lon="-3.377577">
        <ele>60.4</ele>
        <time>2020-08-13T18:36:49Z</time>
      </trkpt>
      <trkpt lat="48.792407" lon="-3.377635">
        <ele>60.4</ele>
        <time>2020-08-13T18:36:50Z</time>
      </trkpt>
      <trkpt lat="48.792466" lon="-3.377677">
        <ele>60.4</ele>
        <time>2020-08-13T18:36:50Z</time>
      </trkpt>
      <trkpt lat="48.793258" lon="-3.378502">
        <ele>59.8</ele>
        <time>2020-08-13T18:36:56Z</time>
      </trkpt>
      <trkpt lat="48.793364" lon="-3.378634">
        <ele>61.8</ele>
        <time>2020-08-13T18:36:57Z</time>
      </trkpt>
      <trkpt lat="48.793438" lon="-3.378745">
        <ele>61.8</ele>
        <time>2020-08-13T18:36:58Z</time>
      </trkpt>
      <trkpt lat="48.79373" lon="-3.379467">
        <ele>58.6</ele>
        <time>2020-08-13T18:37:01Z</time>
      </trkpt>
      <trkpt lat="48.793821" lon="-3.379614">
        <ele>58.6</ele>
        <time>2020-08-13T18:37:02Z</time>
      </trkpt>
      <trkpt lat="48.794142" lon="-3.379984">
        <ele>58.6</ele>
        <time>2020-08-13T18:37:05Z</time>
      </trkpt>
      <trkpt lat="48.794271" lon="-3.380181">
        <ele>58.8</ele>
        <time>2020-08-13T18:37:06Z</time>
      </trkpt>
      <trkpt lat="48.794668" lon="-3.381114">
        <ele>55.6</ele>
        <time>2020-08-13T18:37:10Z</time>
      </trkpt>
      <trkpt lat="48.795231" lon="-3.38194">
        <ele>55.0</ele>
        <time>2020-08-13T18:37:15Z</time>
      </trkpt>
      <trkpt lat="48.795764" lon="-3.382796">
        <ele>52.2</ele>
        <time>2020-08-13T18:37:20Z</time>
      </trkpt>
      <trkpt lat="48.795981" lon="-3.383046">
        <ele>58.0</ele>
        <time>2020-08-13T18:37:22Z</time>
      </trkpt>
      <trkpt lat="48.796504" lon="-3.383522">
        <ele>52.2</ele>
        <time>2020-08-13T18:37:26Z</time>
      </trkpt>
      <trkpt lat="48.796751" lon="-3.383669">
        <ele>57.0</ele>
        <time>2020-08-13T18:37:28Z</time>
      </trkpt>
      <trkpt lat="48.796906" lon="-3.383726">
        <ele>57.0</ele>
        <time>2020-08-13T18:37:29Z</time>
      </trkpt>
      <trkpt lat="48.796988" lon="-3.383737">
        <ele>57.0</ele>
        <time>2020-08-13T18:37:29Z</time>
      </trkpt>
      <trkpt lat="48.797136" lon="-3.383707">
        <ele>57.0</ele>
        <time>2020-08-13T18:37:30Z</time>
      </trkpt>
      <trkpt lat="48.797713" lon="-3.383361">
        <ele>62.2</ele>
        <time>2020-08-13T18:37:34Z</time>
      </trkpt>
      <trkpt lat="48.79802" lon="-3.383125">
        <ele>68.8</ele>
        <time>2020-08-13T18:37:36Z</time>
      </trkpt>
      <trkpt lat="48.79811" lon="-3.383021">
        <ele>68.8</ele>
        <time>2020-08-13T18:37:37Z</time>
      </trkpt>
      <trkpt lat="48.79821" lon="-3.382865">
        <ele>68.8</ele>
        <time>2020-08-13T18:37:38Z</time>
      </trkpt>
      <trkpt lat="48.798371" lon="-3.382528">
        <ele>68.4</ele>
        <time>2020-08-13T18:37:40Z</time>
      </trkpt>
      <trkpt lat="48.798672" lon="-3.381675">
        <ele>71.2</ele>
        <time>2020-08-13T18:37:44Z</time>
      </trkpt>
      <trkpt lat="48.798846" lon="-3.381247">
        <ele>73.0</ele>
        <time>2020-08-13T18:37:46Z</time>
      </trkpt>
      <trkpt lat="48.799139" lon="-3.380754">
        <ele>74.4</ele>
        <time>2020-08-13T18:37:49Z</time>
      </trkpt>
      <trkpt lat="48.799478" lon="-3.380336">
        <ele>73.8</ele>
        <time>2020-08-13T18:37:51Z</time>
      </trkpt>
      <trkpt lat="48.800164" lon="-3.379683">
        <ele>73.4</ele>
        <time>2020-08-13T18:37:56Z</time>
      </trkpt>
      <trkpt lat="48.800281" lon="-3.379492">
        <ele>73.4</ele>
        <time>2020-08-13T18:37:58Z</time>
      </trkpt>
      <trkpt lat="48.800392" lon="-3.3792">
        <ele>73.4</ele>
        <time>2020-08-13T18:37:59Z</time>
      </trkpt>
      <trkpt lat="48.800432" lon="-3.379025">
        <ele>74.2</ele>
        <time>2020-08-13T18:38:00Z</time>
      </trkpt>
      <trkpt lat="48.800512" lon="-3.378116">
        <ele>75.2</ele>
        <time>2020-08-13T18:38:04Z</time>
      </trkpt>
      <trkpt lat="48.800601" lon="-3.377779">
        <ele>75.2</ele>
        <time>2020-08-13T18:38:05Z</time>
      </trkpt>
      <trkpt lat="48.801135" lon="-3.376705">
        <ele>73.8</ele>
        <time>2020-08-13T18:38:11Z</time>
      </trkpt>
      <trkpt lat="48.801272" lon="-3.376467">
        <ele>74.0</ele>
        <time>2020-08-13T18:38:12Z</time>
      </trkpt>
      <trkpt lat="48.801379" lon="-3.376331">
        <ele>74.0</ele>
        <time>2020-08-13T18:38:13Z</time>
      </trkpt>
      <trkpt lat="48.802276" lon="-3.375465">
        <ele>72.2</ele>
        <time>2020-08-13T18:38:20Z</time>
      </trkpt>
      <trkpt lat="48.802737" lon="-3.374934">
        <ele>70.6</ele>
        <time>2020-08-13T18:38:23Z</time>
      </trkpt>
      <trkpt lat="48.803256" lon="-3.37444">
        <ele>70.6</ele>
        <time>2020-08-13T18:38:27Z</time>
      </trkpt>
      <trkpt lat="48.803404" lon="-3.374319">
        <ele>69.4</ele>
        <time>2020-08-13T18:38:28Z</time>
      </trkpt>
      <trkpt lat="48.803679" lon="-3.374156">
        <ele>69.0</ele>
        <time>2020-08-13T18:38:30Z</time>
      </trkpt>
      <trkpt lat="48.804504" lon="-3.373764">
        <ele>68.0</ele>
        <time>2020-08-13T18:38:36Z</time>
      </trkpt>
      <trkpt lat="48.804753" lon="-3.373614">
        <ele>68.0</ele>
        <time>2020-08-13T18:38:37Z</time>
      </trkpt>
      <trkpt lat="48.80534" lon="-3.373129">
        <ele>67.2</ele>
        <time>2020-08-13T18:38:42Z</time>
      </trkpt>
      <trkpt lat="48.805714" lon="-3.372984">
        <ele>67.2</ele>
        <time>2020-08-13T18:38:44Z</time>
      </trkpt>
      <trkpt lat="48.805905" lon="-3.372889">
        <ele>66.6</ele>
        <time>2020-08-13T18:38:45Z</time>
      </trkpt>
      <trkpt lat="48.806014" lon="-3.37281">
        <ele>66.6</ele>
        <time>2020-08-13T18:38:46Z</time>
      </trkpt>
      <trkpt lat="48.806668" lon="-3.372133">
        <ele>67.2</ele>
        <time>2020-08-13T18:38:51Z</time>
      </trkpt>
      <trkpt lat="48.806938" lon="-3.371767">
        <ele>67.2</ele>
        <time>2020-08-13T18:38:53Z</time>
      </trkpt>
      <trkpt lat="48.807029" lon="-3.371612">
        <ele>67.0</ele>
        <time>2020-08-13T18:38:54Z</time>
      </trkpt>
      <trkpt lat="48.807295" lon="-3.371105">
        <ele>67.0</ele>
        <time>2020-08-13T18:38:57Z</time>
      </trkpt>
      <trkpt lat="48.807465" lon="-3.370728">
        <ele>66.2</ele>
        <time>2020-08-13T18:38:59Z</time>
      </trkpt>
      <trkpt lat="48.807775" lon="-3.369867">
        <ele>65.6</ele>
        <time>2020-08-13T18:39:03Z</time>
      </trkpt>
      <trkpt lat="48.808262" lon="-3.368388">
        <ele>63.8</ele>
        <time>2020-08-13T18:39:10Z</time>
      </trkpt>
      <trkpt lat="48.808281" lon="-3.368278">
        <ele>63.0</ele>
        <time>2020-08-13T18:39:10Z</time>
      </trkpt>
      <trkpt lat="48.808318" lon="-3.367386">
        <ele>63.2</ele>
        <time>2020-08-13T18:39:14Z</time>
      </trkpt>
      <trkpt lat="48.808382" lon="-3.366911">
        <ele>62.0</ele>
        <time>2020-08-13T18:39:16Z</time>
      </trkpt>
      <trkpt lat="48.808454" lon="-3.366578">
        <ele>62.4</ele>
        <time>2020-08-13T18:39:18Z</time>
      </trkpt>
      <trkpt lat="48.808582" lon="-3.366118">
        <ele>62.4</ele>
        <time>2020-08-13T18:39:20Z</time>
      </trkpt>
      <trkpt lat="48.808772" lon="-3.365569">
        <ele>62.8</ele>
        <time>2020-08-13T18:39:22Z</time>
      </trkpt>
      <trkpt lat="48.80899" lon="-3.365096">
        <ele>62.8</ele>
        <time>2020-08-13T18:39:25Z</time>
      </trkpt>
      <trkpt lat="48.809169" lon="-3.364837">
        <ele>59.2</ele>
        <time>2020-08-13T18:39:26Z</time>
      </trkpt>
      <trkpt lat="48.809969" lon="-3.36392">
        <ele>58.6</ele>
        <time>2020-08-13T18:39:33Z</time>
      </trkpt>
      <trkpt lat="48.810142" lon="-3.363694">
        <ele>53.0</ele>
        <time>2020-08-13T18:39:34Z</time>
      </trkpt>
      <trkpt lat="48.810355" lon="-3.363391">
        <ele>53.0</ele>
        <time>2020-08-13T18:39:36Z</time>
      </trkpt>
      <trkpt lat="48.81067" lon="-3.362857">
        <ele>50.2</ele>
        <time>2020-08-13T18:39:39Z</time>
      </trkpt>
      <trkpt lat="48.811044" lon="-3.361985">
        <ele>42.2</ele>
        <time>2020-08-13T18:39:43Z</time>
      </trkpt>
      <trkpt lat="48.81123" lon="-3.361482">
        <ele>43.4</ele>
        <time>2020-08-13T18:39:46Z</time>
      </trkpt>
      <trkpt lat="48.811321" lon="-3.361186">
        <ele>43.4</ele>
        <time>2020-08-13T18:39:47Z</time>
      </trkpt>
      <trkpt lat="48.811429" lon="-3.360686">
        <ele>47.6</ele>
        <time>2020-08-13T18:39:49Z</time>
      </trkpt>
      <trkpt lat="48.811482" lon="-3.359832">
        <ele>51.0</ele>
        <time>2020-08-13T18:39:53Z</time>
      </trkpt>
      <trkpt lat="48.811555" lon="-3.359609">
        <ele>51.0</ele>
        <time>2020-08-13T18:39:54Z</time>
      </trkpt>
      <trkpt lat="48.811625" lon="-3.359504">
        <ele>51.0</ele>
        <time>2020-08-13T18:39:54Z</time>
      </trkpt>
      <trkpt lat="48.811692" lon="-3.359429">
        <ele>46.2</ele>
        <time>2020-08-13T18:39:55Z</time>
      </trkpt>
      <trkpt lat="48.8118" lon="-3.359354">
        <ele>46.2</ele>
        <time>2020-08-13T18:39:56Z</time>
      </trkpt>
      <trkpt lat="48.811911" lon="-3.359206">
        <ele>46.2</ele>
        <time>2020-08-13T18:39:57Z</time>
      </trkpt>
      <trkpt lat="48.812301" lon="-3.35833">
        <ele>53.0</ele>
        <time>2020-08-13T18:40:01Z</time>
      </trkpt>
      <trkpt lat="48.812357" lon="-3.35824">
        <ele>53.0</ele>
        <time>2020-08-13T18:40:02Z</time>
      </trkpt>
      <trkpt lat="48.812798" lon="-3.357848">
        <ele>52.2</ele>
        <time>2020-08-13T18:40:05Z</time>
      </trkpt>
      <trkpt lat="48.812855" lon="-3.357861">
        <ele>52.2</ele>
        <time>2020-08-13T18:40:06Z</time>
      </trkpt>
      <trkpt lat="48.812991" lon="-3.357972">
        <ele>52.2</ele>
        <time>2020-08-13T18:40:08Z</time>
      </trkpt>
      <trkpt lat="48.813733" lon="-3.358699">
        <ele>48.4</ele>
        <time>2020-08-13T18:40:17Z</time>
      </trkpt>
      <trkpt lat="48.813828" lon="-3.358761">
        <ele>48.4</ele>
        <time>2020-08-13T18:40:18Z</time>
      </trkpt>
      <trkpt lat="48.813913" lon="-3.358775">
        <ele>48.4</ele>
        <time>2020-08-13T18:40:19Z</time>
      </trkpt>
      <trkpt lat="48.814032" lon="-3.358763">
        <ele>48.4</ele>
        <time>2020-08-13T18:40:20Z</time>
      </trkpt>
      <trkpt lat="48.814393" lon="-3.358537">
        <ele>47.4</ele>
        <time>2020-08-13T18:40:24Z</time>
      </trkpt>
      <trkpt lat="48.814501" lon="-3.358496">
        <ele>47.4</ele>
        <time>2020-08-13T18:40:25Z</time>
      </trkpt>
      <trkpt lat="48.814839" lon="-3.358454">
        <ele>47.4</ele>
        <time>2020-08-13T18:40:29Z</time>
      </trkpt>
      <trkpt lat="48.816179" lon="-3.358495">
        <ele>48.0</ele>
        <time>2020-08-13T18:40:43Z</time>
      </trkpt>
      <trkpt lat="48.816442" lon="-3.358489">
        <ele>48.0</ele>
        <time>2020-08-13T18:40:46Z</time>
      </trkpt>
      <trkpt lat="48.816727" lon="-3.358447">
        <ele>48.2</ele>
        <time>2020-08-13T18:40:49Z</time>
      </trkpt>
      <trkpt lat="48.816915" lon="-3.358476">
        <ele>48.2</ele>
        <time>2020-08-13T18:40:51Z</time>
      </trkpt>
      <trkpt lat="48.817044" lon="-3.358543">
        <ele>48.2</ele>
        <time>2020-08-13T18:40:52Z</time>
      </trkpt>
      <trkpt lat="48.817282" lon="-3.358771">
        <ele>48.2</ele>
        <time>2020-08-13T18:40:55Z</time>
      </trkpt>
      <trkpt lat="48.817371" lon="-3.358908">
        <ele>48.2</ele>
        <time>2020-08-13T18:40:56Z</time>
      </trkpt>
      <trkpt lat="48.817668" lon="-3.359545">
        <ele>45.4</ele>
        <time>2020-08-13T18:41:02Z</time>
      </trkpt>
      <trkpt lat="48.817835" lon="-3.359793">
        <ele>45.4</ele>
        <time>2020-08-13T18:41:04Z</time>
      </trkpt>
      <trkpt lat="48.81804" lon="-3.359972">
        <ele>45.4</ele>
        <time>2020-08-13T18:41:07Z</time>
      </trkpt>
      <trkpt lat="48.81813" lon="-3.360015">
        <ele>43.0</ele>
        <time>2020-08-13T18:41:08Z</time>
      </trkpt>
      <trkpt lat="48.818289" lon="-3.360048">
        <ele>43.0</ele>
        <time>2020-08-13T18:41:09Z</time>
      </trkpt>
      <trkpt lat="48.818427" lon="-3.360049">
        <ele>35.0</ele>
        <time>2020-08-13T18:41:11Z</time>
      </trkpt>
      <trkpt lat="48.818681" lon="-3.359961">
        <ele>38.6</ele>
        <time>2020-08-13T18:41:14Z</time>
      </trkpt>
      <trkpt lat="48.8189" lon="-3.3598">
        <ele>38.6</ele>
        <time>2020-08-13T18:41:16Z</time>
      </trkpt>
      <trkpt lat="48.819003" lon="-3.359677">
        <ele>38.6</ele>
        <time>2020-08-13T18:41:18Z</time>
      </trkpt>
      <trkpt lat="48.819084" lon="-3.359524">
        <ele>38.6</ele>
        <time>2020-08-13T18:41:19Z</time>
      </trkpt>
      <trkpt lat="48.819174" lon="-3.35931">
        <ele>31.6</ele>
        <time>2020-08-13T18:41:21Z</time>
      </trkpt>
      <trkpt lat="48.819485" lon="-3.358288">
        <ele>27.6</ele>
        <time>2020-08-13T18:41:29Z</time>
      </trkpt>
      <trkpt lat="48.819521" lon="-3.358118">
        <ele>27.6</ele>
        <time>2020-08-13T18:41:30Z</time>
      </trkpt>
      <trkpt lat="48.819535" lon="-3.357963">
        <ele>27.6</ele>
        <time>2020-08-13T18:41:31Z</time>
      </trkpt>
      <trkpt lat="48.819497" lon="-3.357639">
        <ele>27.6</ele>
        <time>2020-08-13T18:41:33Z</time>
      </trkpt>
      <trkpt lat="48.819265" lon="-3.356717">
        <ele>19.0</ele>
        <time>2020-08-13T18:41:40Z</time>
      </trkpt>
      <trkpt lat="48.819243" lon="-3.356341">
        <ele>15.0</ele>
        <time>2020-08-13T18:41:43Z</time>
      </trkpt>
      <trkpt lat="48.81929" lon="-3.355991">
        <ele>15.0</ele>
        <time>2020-08-13T18:41:45Z</time>
      </trkpt>
      <trkpt lat="48.819322" lon="-3.355855">
        <ele>15.0</ele>
        <time>2020-08-13T18:41:46Z</time>
      </trkpt>
      <trkpt lat="48.820017" lon="-3.353297">
        <ele>3.25</ele>
        <time>2020-08-13T18:42:05Z</time>
      </trkpt>
      <trkpt lat="48.820166" lon="-3.352828">
        <ele>3.25</ele>
        <time>2020-08-13T18:42:09Z</time>
      </trkpt>
      <trkpt lat="48.82091" lon="-3.350767">
        <ele>6.0</ele>
        <time>2020-08-13T18:42:25Z</time>
      </trkpt>
      <trkpt lat="48.821055" lon="-3.350392">
        <ele>6.0</ele>
        <time>2020-08-13T18:42:28Z</time>
      </trkpt>
      <trkpt lat="48.821456" lon="-3.349471">
        <ele>10.4</ele>
        <time>2020-08-13T18:42:36Z</time>
      </trkpt>
      <trkpt lat="48.821611" lon="-3.348973">
        <ele>16.2</ele>
        <time>2020-08-13T18:42:40Z</time>
      </trkpt>
      <trkpt lat="48.821862" lon="-3.347948">
        <ele>23.6</ele>
        <time>2020-08-13T18:42:47Z</time>
      </trkpt>
      <trkpt lat="48.821905" lon="-3.34772">
        <ele>23.6</ele>
        <time>2020-08-13T18:42:49Z</time>
      </trkpt>
      <trkpt lat="48.822062" lon="-3.346143">
        <ele>31.0</ele>
        <time>2020-08-13T18:43:00Z</time>
      </trkpt>
      <trkpt lat="48.822093" lon="-3.345552">
        <ele>32.8</ele>
        <time>2020-08-13T18:43:04Z</time>
      </trkpt>
      <trkpt lat="48.822019" lon="-3.343105">
        <ele>30.6</ele>
        <time>2020-08-13T18:43:21Z</time>
      </trkpt>
      <trkpt lat="48.822021" lon="-3.342281">
        <ele>30.0</ele>
        <time>2020-08-13T18:43:26Z</time>
      </trkpt>
      <trkpt lat="48.82207" lon="-3.341186">
        <ele>30.6</ele>
        <time>2020-08-13T18:43:34Z</time>
      </trkpt>
      <trkpt lat="48.822242" lon="-3.337848">
        <ele>24.6</ele>
        <time>2020-08-13T18:43:57Z</time>
      </trkpt>
      <trkpt lat="48.822425" lon="-3.334686">
        <ele>40.4</ele>
        <time>2020-08-13T18:44:19Z</time>
      </trkpt>
      <trkpt lat="48.822575" lon="-3.333597">
        <ele>35.4</ele>
        <time>2020-08-13T18:44:27Z</time>
      </trkpt>
      <trkpt lat="48.822722" lon="-3.332932">
        <ele>39.0</ele>
        <time>2020-08-13T18:44:32Z</time>
      </trkpt>
      <trkpt lat="48.823354" lon="-3.330892">
        <ele>33.2</ele>
        <time>2020-08-13T18:44:47Z</time>
      </trkpt>
      <trkpt lat="48.824644" lon="-3.326892">
        <ele>34.8</ele>
        <time>2020-08-13T18:45:18Z</time>
      </trkpt>
      <trkpt lat="48.824869" lon="-3.326331">
        <ele>36.0</ele>
        <time>2020-08-13T18:45:22Z</time>
      </trkpt>
      <trkpt lat="48.825036" lon="-3.325979">
        <ele>29.8</ele>
        <time>2020-08-13T18:45:25Z</time>
      </trkpt>
      <trkpt lat="48.825373" lon="-3.325417">
        <ele>32.8</ele>
        <time>2020-08-13T18:45:31Z</time>
      </trkpt>
      <trkpt lat="48.825707" lon="-3.324932">
        <ele>34.2</ele>
        <time>2020-08-13T18:45:36Z</time>
      </trkpt>
      <trkpt lat="48.825963" lon="-3.324653">
        <ele>26.2</ele>
        <time>2020-08-13T18:45:39Z</time>
      </trkpt>
      <trkpt lat="48.826347" lon="-3.324279">
        <ele>26.2</ele>
        <time>2020-08-13T18:45:44Z</time>
      </trkpt>
      <trkpt lat="48.827549" lon="-3.323364">
        <ele>14.4</ele>
        <time>2020-08-13T18:45:58Z</time>
      </trkpt>
      <trkpt lat="48.827977" lon="-3.322936">
        <ele>18.8</ele>
        <time>2020-08-13T18:46:03Z</time>
      </trkpt>
      <trkpt lat="48.828367" lon="-3.322431">
        <ele>20.0</ele>
        <time>2020-08-13T18:46:09Z</time>
      </trkpt>
      <trkpt lat="48.833032" lon="-3.314916">
        <ele>24.6</ele>
        <time>2020-08-13T18:47:20Z</time>
      </trkpt>
      <trkpt lat="48.833611" lon="-3.314015">
        <ele>18.6</ele>
        <time>2020-08-13T18:47:29Z</time>
      </trkpt>
      <trkpt lat="48.834628" lon="-3.312514">
        <ele>17.8</ele>
        <time>2020-08-13T18:47:43Z</time>
      </trkpt>
      <trkpt lat="48.834777" lon="-3.312327">
        <ele>22.2</ele>
        <time>2020-08-13T18:47:47Z</time>
      </trkpt>
      <trkpt lat="48.835479" lon="-3.312162">
        <ele>15.2</ele>
        <time>2020-08-13T18:48:00Z</time>
      </trkpt>
      <trkpt lat="48.836263" lon="-3.312465">
        <ele>8.4</ele>
        <time>2020-08-13T18:48:15Z</time>
      </trkpt>
      <trkpt lat="48.836171" lon="-3.313015">
        <ele>7.2</ele>
        <time>2020-08-13T18:48:22Z</time>
      </trkpt>
      <trkpt lat="48.836056" lon="-3.312974">
        <ele>7.2</ele>
        <time>2020-08-13T18:48:24Z</time>
      </trkpt>
      <trkpt lat="48.835982" lon="-3.313089">
        <ele>7.2</ele>
        <time>2020-08-13T18:48:26Z</time>
      </trkpt>
      <trkpt lat="48.835879" lon="-3.313506">
        <ele>6.75</ele>
        <time>2020-08-13T18:48:31Z</time>
      </trkpt>
      <trkpt lat="48.835879" lon="-3.313506">
        <ele>6.75</ele>
        <time>2020-08-13T18:48:31Z</time>
      </trkpt>
      <trkpt lat="48.835982" lon="-3.313089">
        <ele>7.2</ele>
        <time>2020-08-13T18:48:37Z</time>
      </trkpt>
      <trkpt lat="48.836056" lon="-3.312974">
        <ele>7.2</ele>
        <time>2020-08-13T18:48:39Z</time>
      </trkpt>
      <trkpt lat="48.836171" lon="-3.313015">
        <ele>7.2</ele>
        <time>2020-08-13T18:48:41Z</time>
      </trkpt>
      <trkpt lat="48.836263" lon="-3.312465">
        <ele>8.4</ele>
        <time>2020-08-13T18:48:45Z</time>
      </trkpt>
      <trkpt lat="48.836423" lon="-3.311774">
        <ele>8.4</ele>
        <time>2020-08-13T18:48:50Z</time>
      </trkpt>
      <trkpt lat="48.836415" lon="-3.311495">
        <ele>10.6</ele>
        <time>2020-08-13T18:48:51Z</time>
      </trkpt>
      <trkpt lat="48.836146" lon="-3.310476">
        <ele>13.6</ele>
        <time>2020-08-13T18:48:59Z</time>
      </trkpt>
      <trkpt lat="48.836086" lon="-3.31038">
        <ele>13.6</ele>
        <time>2020-08-13T18:49:00Z</time>
      </trkpt>
      <trkpt lat="48.83602" lon="-3.310313">
        <ele>13.6</ele>
        <time>2020-08-13T18:49:01Z</time>
      </trkpt>
      <trkpt lat="48.835693" lon="-3.310117">
        <ele>19.2</ele>
        <time>2020-08-13T18:49:04Z</time>
      </trkpt>
      <trkpt lat="48.835546" lon="-3.310105">
        <ele>19.2</ele>
        <time>2020-08-13T18:49:06Z</time>
      </trkpt>
      <trkpt lat="48.835052" lon="-3.310181">
        <ele>19.2</ele>
        <time>2020-08-13T18:49:11Z</time>
      </trkpt>
      <trkpt lat="48.834928" lon="-3.310181">
        <ele>28.8</ele>
        <time>2020-08-13T18:49:13Z</time>
      </trkpt>
      <trkpt lat="48.834794" lon="-3.310141">
        <ele>28.8</ele>
        <time>2020-08-13T18:49:14Z</time>
      </trkpt>
      <trkpt lat="48.834633" lon="-3.310023">
        <ele>28.8</ele>
        <time>2020-08-13T18:49:16Z</time>
      </trkpt>
      <trkpt lat="48.834495" lon="-3.309875">
        <ele>28.6</ele>
        <time>2020-08-13T18:49:18Z</time>
      </trkpt>
      <trkpt lat="48.834435" lon="-3.309768">
        <ele>28.6</ele>
        <time>2020-08-13T18:49:18Z</time>
      </trkpt>
      <trkpt lat="48.834375" lon="-3.309595">
        <ele>28.6</ele>
        <time>2020-08-13T18:49:20Z</time>
      </trkpt>
      <trkpt lat="48.834318" lon="-3.309107">
        <ele>29.0</ele>
        <time>2020-08-13T18:49:23Z</time>
      </trkpt>
      <trkpt lat="48.834316" lon="-3.306932">
        <ele>33.0</ele>
        <time>2020-08-13T18:49:38Z</time>
      </trkpt>
      <trkpt lat="48.834304" lon="-3.306695">
        <ele>33.0</ele>
        <time>2020-08-13T18:49:40Z</time>
      </trkpt>
      <trkpt lat="48.834273" lon="-3.306505">
        <ele>35.6</ele>
        <time>2020-08-13T18:49:41Z</time>
      </trkpt>
      <trkpt lat="48.834222" lon="-3.306339">
        <ele>35.6</ele>
        <time>2020-08-13T18:49:42Z</time>
      </trkpt>
      <trkpt lat="48.834168" lon="-3.306224">
        <ele>35.6</ele>
        <time>2020-08-13T18:49:43Z</time>
      </trkpt>
      <trkpt lat="48.834053" lon="-3.306068">
        <ele>40.4</ele>
        <time>2020-08-13T18:49:45Z</time>
      </trkpt>
      <trkpt lat="48.833917" lon="-3.305923">
        <ele>40.4</ele>
        <time>2020-08-13T18:49:47Z</time>
      </trkpt>
      <trkpt lat="48.833753" lon="-3.305844">
        <ele>40.4</ele>
        <time>2020-08-13T18:49:48Z</time>
      </trkpt>
      <trkpt lat="48.833432" lon="-3.305778">
        <ele>43.2</ele>
        <time>2020-08-13T18:49:52Z</time>
      </trkpt>
      <trkpt lat="48.832754" lon="-3.305826">
        <ele>44.2</ele>
        <time>2020-08-13T18:49:59Z</time>
      </trkpt>
      <trkpt lat="48.832604" lon="-3.305798">
        <ele>44.2</ele>
        <time>2020-08-13T18:50:00Z</time>
      </trkpt>
      <trkpt lat="48.832456" lon="-3.305718">
        <ele>43.0</ele>
        <time>2020-08-13T18:50:02Z</time>
      </trkpt>
      <trkpt lat="48.832306" lon="-3.3056">
        <ele>43.0</ele>
        <time>2020-08-13T18:50:04Z</time>
      </trkpt>
      <trkpt lat="48.831609" lon="-3.304882">
        <ele>43.2</ele>
        <time>2020-08-13T18:50:12Z</time>
      </trkpt>
      <trkpt lat="48.830957" lon="-3.303914">
        <ele>43.8</ele>
        <time>2020-08-13T18:50:22Z</time>
      </trkpt>
      <trkpt lat="48.830699" lon="-3.303565">
        <ele>47.2</ele>
        <time>2020-08-13T18:50:25Z</time>
      </trkpt>
      <trkpt lat="48.830532" lon="-3.303372">
        <ele>47.2</ele>
        <time>2020-08-13T18:50:27Z</time>
      </trkpt>
      <trkpt lat="48.830418" lon="-3.30329">
        <ele>49.0</ele>
        <time>2020-08-13T18:50:29Z</time>
      </trkpt>
      <trkpt lat="48.830226" lon="-3.30325">
        <ele>49.0</ele>
        <time>2020-08-13T18:50:31Z</time>
      </trkpt>
      <trkpt lat="48.830149" lon="-3.303258">
        <ele>49.0</ele>
        <time>2020-08-13T18:50:32Z</time>
      </trkpt>
      <trkpt lat="48.829973" lon="-3.303327">
        <ele>53.2</ele>
        <time>2020-08-13T18:50:34Z</time>
      </trkpt>
      <trkpt lat="48.829739" lon="-3.303529">
        <ele>50.8</ele>
        <time>2020-08-13T18:50:36Z</time>
      </trkpt>
      <trkpt lat="48.829358" lon="-3.303929">
        <ele>50.8</ele>
        <time>2020-08-13T18:50:41Z</time>
      </trkpt>
      <trkpt lat="48.829252" lon="-3.304013">
        <ele>50.8</ele>
        <time>2020-08-13T18:50:42Z</time>
      </trkpt>
      <trkpt lat="48.829176" lon="-3.304044">
        <ele>50.8</ele>
        <time>2020-08-13T18:50:43Z</time>
      </trkpt>
      <trkpt lat="48.829007" lon="-3.30404">
        <ele>53.2</ele>
        <time>2020-08-13T18:50:45Z</time>
      </trkpt>
      <trkpt lat="48.82892" lon="-3.303996">
        <ele>53.2</ele>
        <time>2020-08-13T18:50:46Z</time>
      </trkpt>
      <trkpt lat="48.828799" lon="-3.303899">
        <ele>53.2</ele>
        <time>2020-08-13T18:50:47Z</time>
      </trkpt>
      <trkpt lat="48.828403" lon="-3.303422">
        <ele>53.2</ele>
        <time>2020-08-13T18:50:52Z</time>
      </trkpt>
      <trkpt lat="48.828167" lon="-3.303294">
        <ele>52.4</ele>
        <time>2020-08-13T18:50:55Z</time>
      </trkpt>
      <trkpt lat="48.827698" lon="-3.30322">
        <ele>52.4</ele>
        <time>2020-08-13T18:51:00Z</time>
      </trkpt>
      <trkpt lat="48.826884" lon="-3.303238">
        <ele>51.2</ele>
        <time>2020-08-13T18:51:08Z</time>
      </trkpt>
      <trkpt lat="48.826138" lon="-3.303202">
        <ele>51.0</ele>
        <time>2020-08-13T18:51:16Z</time>
      </trkpt>
      <trkpt lat="48.825743" lon="-3.303136">
        <ele>50.6</ele>
        <time>2020-08-13T18:51:20Z</time>
      </trkpt>
      <trkpt lat="48.825267" lon="-3.302987">
        <ele>50.6</ele>
        <time>2020-08-13T18:51:25Z</time>
      </trkpt>
      <trkpt lat="48.82495" lon="-3.30297">
        <ele>51.8</ele>
        <time>2020-08-13T18:51:28Z</time>
      </trkpt>
      <trkpt lat="48.82462" lon="-3.302925">
        <ele>51.8</ele>
        <time>2020-08-13T18:51:32Z</time>
      </trkpt>
      <trkpt lat="48.824394" lon="-3.30286">
        <ele>51.8</ele>
        <time>2020-08-13T18:51:34Z</time>
      </trkpt>
      <trkpt lat="48.824227" lon="-3.302775">
        <ele>51.8</ele>
        <time>2020-08-13T18:51:36Z</time>
      </trkpt>
      <trkpt lat="48.824101" lon="-3.302667">
        <ele>55.2</ele>
        <time>2020-08-13T18:51:38Z</time>
      </trkpt>
      <trkpt lat="48.823936" lon="-3.302468">
        <ele>55.0</ele>
        <time>2020-08-13T18:51:40Z</time>
      </trkpt>
      <trkpt lat="48.823602" lon="-3.301917">
        <ele>55.0</ele>
        <time>2020-08-13T18:51:45Z</time>
      </trkpt>
      <trkpt lat="48.822916" lon="-3.300993">
        <ele>57.4</ele>
        <time>2020-08-13T18:51:54Z</time>
      </trkpt>
      <trkpt lat="48.822826" lon="-3.300905">
        <ele>57.4</ele>
        <time>2020-08-13T18:51:55Z</time>
      </trkpt>
      <trkpt lat="48.822322" lon="-3.300568">
        <ele>60.4</ele>
        <time>2020-08-13T18:52:01Z</time>
      </trkpt>
      <trkpt lat="48.822044" lon="-3.300343">
        <ele>60.4</ele>
        <time>2020-08-13T18:52:04Z</time>
      </trkpt>
      <trkpt lat="48.82153" lon="-3.299804">
        <ele>65.6</ele>
        <time>2020-08-13T18:52:11Z</time>
      </trkpt>
      <trkpt lat="48.821258" lon="-3.299486">
        <ele>65.6</ele>
        <time>2020-08-13T18:52:14Z</time>
      </trkpt>
      <trkpt lat="48.820948" lon="-3.299051">
        <ele>64.6</ele>
        <time>2020-08-13T18:52:19Z</time>
      </trkpt>
      <trkpt lat="48.820782" lon="-3.298879">
        <ele>68.0</ele>
        <time>2020-08-13T18:52:21Z</time>
      </trkpt>
      <trkpt lat="48.820581" lon="-3.298781">
        <ele>68.0</ele>
        <time>2020-08-13T18:52:23Z</time>
      </trkpt>
      <trkpt lat="48.820319" lon="-3.298738">
        <ele>68.0</ele>
        <time>2020-08-13T18:52:26Z</time>
      </trkpt>
      <trkpt lat="48.819748" lon="-3.298688">
        <ele>69.4</ele>
        <time>2020-08-13T18:52:32Z</time>
      </trkpt>
      <trkpt lat="48.819488" lon="-3.298605">
        <ele>69.4</ele>
        <time>2020-08-13T18:52:34Z</time>
      </trkpt>
      <trkpt lat="48.818843" lon="-3.298229">
        <ele>70.8</ele>
        <time>2020-08-13T18:52:42Z</time>
      </trkpt>
      <trkpt lat="48.818668" lon="-3.298171">
        <ele>70.8</ele>
        <time>2020-08-13T18:52:43Z</time>
      </trkpt>
      <trkpt lat="48.818149" lon="-3.298105">
        <ele>72.0</ele>
        <time>2020-08-13T18:52:49Z</time>
      </trkpt>
      <trkpt lat="48.817302" lon="-3.298062">
        <ele>72.0</ele>
        <time>2020-08-13T18:52:58Z</time>
      </trkpt>
      <trkpt lat="48.815995" lon="-3.297826">
        <ele>71.6</ele>
        <time>2020-08-13T18:53:11Z</time>
      </trkpt>
      <trkpt lat="48.815874" lon="-3.297776">
        <ele>71.6</ele>
        <time>2020-08-13T18:53:13Z</time>
      </trkpt>
      <trkpt lat="48.815788" lon="-3.297721">
        <ele>70.8</ele>
        <time>2020-08-13T18:53:13Z</time>
      </trkpt>
      <trkpt lat="48.815686" lon="-3.297617">
        <ele>70.8</ele>
        <time>2020-08-13T18:53:15Z</time>
      </trkpt>
      <trkpt lat="48.814928" lon="-3.296718">
        <ele>69.2</ele>
        <time>2020-08-13T18:53:25Z</time>
      </trkpt>
      <trkpt lat="48.814264" lon="-3.295715">
        <ele>67.6</ele>
        <time>2020-08-13T18:53:34Z</time>
      </trkpt>
      <trkpt lat="48.814004" lon="-3.295383">
        <ele>68.8</ele>
        <time>2020-08-13T18:53:38Z</time>
      </trkpt>
      <trkpt lat="48.813524" lon="-3.295069">
        <ele>68.8</ele>
        <time>2020-08-13T18:53:43Z</time>
      </trkpt>
      <trkpt lat="48.81335" lon="-3.295044">
        <ele>68.8</ele>
        <time>2020-08-13T18:53:46Z</time>
      </trkpt>
      <trkpt lat="48.813865" lon="-3.294332">
        <ele>67.0</ele>
        <time>2020-08-13T18:53:49Z</time>
      </trkpt>
      <trkpt lat="48.814068" lon="-3.293995">
        <ele>66.6</ele>
        <time>2020-08-13T18:53:51Z</time>
      </trkpt>
      <trkpt lat="48.814285" lon="-3.293583">
        <ele>66.2</ele>
        <time>2020-08-13T18:53:52Z</time>
      </trkpt>
      <trkpt lat="48.81453" lon="-3.292941">
        <ele>65.6</ele>
        <time>2020-08-13T18:53:55Z</time>
      </trkpt>
      <trkpt lat="48.814624" lon="-3.292673">
        <ele>65.6</ele>
        <time>2020-08-13T18:53:56Z</time>
      </trkpt>
      <trkpt lat="48.814673" lon="-3.292484">
        <ele>65.0</ele>
        <time>2020-08-13T18:53:56Z</time>
      </trkpt>
      <trkpt lat="48.814736" lon="-3.291168">
        <ele>65.6</ele>
        <time>2020-08-13T18:54:01Z</time>
      </trkpt>
      <trkpt lat="48.814777" lon="-3.290742">
        <ele>65.4</ele>
        <time>2020-08-13T18:54:02Z</time>
      </trkpt>
      <trkpt lat="48.814832" lon="-3.290364">
        <ele>65.4</ele>
        <time>2020-08-13T18:54:03Z</time>
      </trkpt>
      <trkpt lat="48.815199" lon="-3.288671">
        <ele>63.6</ele>
        <time>2020-08-13T18:54:09Z</time>
      </trkpt>
      <trkpt lat="48.815537" lon="-3.287288">
        <ele>61.0</ele>
        <time>2020-08-13T18:54:14Z</time>
      </trkpt>
      <trkpt lat="48.815601" lon="-3.28687">
        <ele>61.0</ele>
        <time>2020-08-13T18:54:15Z</time>
      </trkpt>
      <trkpt lat="48.815692" lon="-3.285682">
        <ele>61.6</ele>
        <time>2020-08-13T18:54:19Z</time>
      </trkpt>
      <trkpt lat="48.815933" lon="-3.284448">
        <ele>64.0</ele>
        <time>2020-08-13T18:54:24Z</time>
      </trkpt>
      <trkpt lat="48.81598" lon="-3.284142">
        <ele>65.2</ele>
        <time>2020-08-13T18:54:25Z</time>
      </trkpt>
      <trkpt lat="48.816008" lon="-3.283709">
        <ele>65.2</ele>
        <time>2020-08-13T18:54:26Z</time>
      </trkpt>
      <trkpt lat="48.815974" lon="-3.282951">
        <ele>66.2</ele>
        <time>2020-08-13T18:54:28Z</time>
      </trkpt>
      <trkpt lat="48.815996" lon="-3.282507">
        <ele>66.2</ele>
        <time>2020-08-13T18:54:30Z</time>
      </trkpt>
      <trkpt lat="48.816024" lon="-3.282254">
        <ele>66.2</ele>
        <time>2020-08-13T18:54:31Z</time>
      </trkpt>
      <trkpt lat="48.816114" lon="-3.281776">
        <ele>66.2</ele>
        <time>2020-08-13T18:54:32Z</time>
      </trkpt>
      <trkpt lat="48.816541" lon="-3.280364">
        <ele>66.2</ele>
        <time>2020-08-13T18:54:37Z</time>
      </trkpt>
      <trkpt lat="48.816749" lon="-3.279893">
        <ele>65.8</ele>
        <time>2020-08-13T18:54:39Z</time>
      </trkpt>
      <trkpt lat="48.817242" lon="-3.278942">
        <ele>65.6</ele>
        <time>2020-08-13T18:54:43Z</time>
      </trkpt>
      <trkpt lat="48.817414" lon="-3.278523">
        <ele>65.6</ele>
        <time>2020-08-13T18:54:45Z</time>
      </trkpt>
      <trkpt lat="48.817611" lon="-3.277828">
        <ele>66.0</ele>
        <time>2020-08-13T18:54:47Z</time>
      </trkpt>
      <trkpt lat="48.817829" lon="-3.276887">
        <ele>65.6</ele>
        <time>2020-08-13T18:54:51Z</time>
      </trkpt>
      <trkpt lat="48.818019" lon="-3.276277">
        <ele>65.2</ele>
        <time>2020-08-13T18:54:53Z</time>
      </trkpt>
      <trkpt lat="48.818429" lon="-3.275083">
        <ele>65.0</ele>
        <time>2020-08-13T18:54:57Z</time>
      </trkpt>
      <trkpt lat="48.818607" lon="-3.27452">
        <ele>65.4</ele>
        <time>2020-08-13T18:54:59Z</time>
      </trkpt>
      <trkpt lat="48.818671" lon="-3.274236">
        <ele>65.4</ele>
        <time>2020-08-13T18:55:00Z</time>
      </trkpt>
      <trkpt lat="48.818732" lon="-3.27355">
        <ele>66.0</ele>
        <time>2020-08-13T18:55:03Z</time>
      </trkpt>
      <trkpt lat="48.818739" lon="-3.272426">
        <ele>67.8</ele>
        <time>2020-08-13T18:55:06Z</time>
      </trkpt>
      <trkpt lat="48.818811" lon="-3.271044">
        <ele>66.6</ele>
        <time>2020-08-13T18:55:11Z</time>
      </trkpt>
      <trkpt lat="48.818808" lon="-3.270694">
        <ele>65.8</ele>
        <time>2020-08-13T18:55:12Z</time>
      </trkpt>
      <trkpt lat="48.81878" lon="-3.270294">
        <ele>65.8</ele>
        <time>2020-08-13T18:55:13Z</time>
      </trkpt>
      <trkpt lat="48.818651" lon="-3.269465">
        <ele>65.4</ele>
        <time>2020-08-13T18:55:16Z</time>
      </trkpt>
      <trkpt lat="48.818649" lon="-3.26909">
        <ele>65.0</ele>
        <time>2020-08-13T18:55:17Z</time>
      </trkpt>
      <trkpt lat="48.818694" lon="-3.268777">
        <ele>65.0</ele>
        <time>2020-08-13T18:55:18Z</time>
      </trkpt>
      <trkpt lat="48.818742" lon="-3.268572">
        <ele>65.0</ele>
        <time>2020-08-13T18:55:19Z</time>
      </trkpt>
      <trkpt lat="48.81888" lon="-3.268225">
        <ele>65.6</ele>
        <time>2020-08-13T18:55:20Z</time>
      </trkpt>
      <trkpt lat="48.819303" lon="-3.267564">
        <ele>66.2</ele>
        <time>2020-08-13T18:55:23Z</time>
      </trkpt>
      <trkpt lat="48.819935" lon="-3.266524">
        <ele>66.6</ele>
        <time>2020-08-13T18:55:28Z</time>
      </trkpt>
      <trkpt lat="48.820013" lon="-3.266363">
        <ele>65.8</ele>
        <time>2020-08-13T18:55:29Z</time>
      </trkpt>
      <trkpt lat="48.820085" lon="-3.266108">
        <ele>65.8</ele>
        <time>2020-08-13T18:55:30Z</time>
      </trkpt>
      <trkpt lat="48.82013" lon="-3.265801">
        <ele>65.2</ele>
        <time>2020-08-13T18:55:31Z</time>
      </trkpt>
      <trkpt lat="48.820202" lon="-3.265054">
        <ele>65.2</ele>
        <time>2020-08-13T18:55:33Z</time>
      </trkpt>
      <trkpt lat="48.820201" lon="-3.264936">
        <ele>64.4</ele>
        <time>2020-08-13T18:55:33Z</time>
      </trkpt>
      <trkpt lat="48.820173" lon="-3.264747">
        <ele>64.4</ele>
        <time>2020-08-13T18:55:34Z</time>
      </trkpt>
      <trkpt lat="48.82002" lon="-3.264277">
        <ele>64.4</ele>
        <time>2020-08-13T18:55:36Z</time>
      </trkpt>
      <trkpt lat="48.81994" lon="-3.263892">
        <ele>64.0</ele>
        <time>2020-08-13T18:55:37Z</time>
      </trkpt>
      <trkpt lat="48.819803" lon="-3.263027">
        <ele>64.4</ele>
        <time>2020-08-13T18:55:40Z</time>
      </trkpt>
      <trkpt lat="48.819774" lon="-3.26275">
        <ele>64.4</ele>
        <time>2020-08-13T18:55:41Z</time>
      </trkpt>
      <trkpt lat="48.819746" lon="-3.262145">
        <ele>65.2</ele>
        <time>2020-08-13T18:55:43Z</time>
      </trkpt>
      <trkpt lat="48.819754" lon="-3.261974">
        <ele>65.2</ele>
        <time>2020-08-13T18:55:43Z</time>
      </trkpt>
      <trkpt lat="48.819799" lon="-3.261764">
        <ele>65.2</ele>
        <time>2020-08-13T18:55:44Z</time>
      </trkpt>
      <trkpt lat="48.819906" lon="-3.261429">
        <ele>66.0</ele>
        <time>2020-08-13T18:55:45Z</time>
      </trkpt>
      <trkpt lat="48.820171" lon="-3.260807">
        <ele>66.6</ele>
        <time>2020-08-13T18:55:48Z</time>
      </trkpt>
      <trkpt lat="48.820248" lon="-3.260535">
        <ele>66.6</ele>
        <time>2020-08-13T18:55:49Z</time>
      </trkpt>
      <trkpt lat="48.820293" lon="-3.260298">
        <ele>66.6</ele>
        <time>2020-08-13T18:55:50Z</time>
      </trkpt>
      <trkpt lat="48.820296" lon="-3.259923">
        <ele>65.8</ele>
        <time>2020-08-13T18:55:51Z</time>
      </trkpt>
      <trkpt lat="48.820268" lon="-3.2596">
        <ele>65.8</ele>
        <time>2020-08-13T18:55:52Z</time>
      </trkpt>
      <trkpt lat="48.820284" lon="-3.259296">
        <ele>65.8</ele>
        <time>2020-08-13T18:55:53Z</time>
      </trkpt>
      <trkpt lat="48.820349" lon="-3.259076">
        <ele>64.8</ele>
        <time>2020-08-13T18:55:54Z</time>
      </trkpt>
      <trkpt lat="48.820426" lon="-3.258911">
        <ele>64.8</ele>
        <time>2020-08-13T18:55:54Z</time>
      </trkpt>
      <trkpt lat="48.821044" lon="-3.25781">
        <ele>64.8</ele>
        <time>2020-08-13T18:55:59Z</time>
      </trkpt>
      <trkpt lat="48.821228" lon="-3.257347">
        <ele>63.6</ele>
        <time>2020-08-13T18:56:01Z</time>
      </trkpt>
      <trkpt lat="48.821416" lon="-3.256991">
        <ele>63.6</ele>
        <time>2020-08-13T18:56:02Z</time>
      </trkpt>
      <trkpt lat="48.821646" lon="-3.256665">
        <ele>63.8</ele>
        <time>2020-08-13T18:56:04Z</time>
      </trkpt>
      <trkpt lat="48.821765" lon="-3.256462">
        <ele>65.0</ele>
        <time>2020-08-13T18:56:05Z</time>
      </trkpt>
      <trkpt lat="48.822237" lon="-3.255426">
        <ele>65.2</ele>
        <time>2020-08-13T18:56:09Z</time>
      </trkpt>
      <trkpt lat="48.822504" lon="-3.254955">
        <ele>64.4</ele>
        <time>2020-08-13T18:56:11Z</time>
      </trkpt>
      <trkpt lat="48.822601" lon="-3.254741">
        <ele>64.4</ele>
        <time>2020-08-13T18:56:12Z</time>
      </trkpt>
      <trkpt lat="48.822868" lon="-3.253882">
        <ele>63.2</ele>
        <time>2020-08-13T18:56:15Z</time>
      </trkpt>
      <trkpt lat="48.823079" lon="-3.253424">
        <ele>63.2</ele>
        <time>2020-08-13T18:56:17Z</time>
      </trkpt>
      <trkpt lat="48.823521" lon="-3.252513">
        <ele>62.6</ele>
        <time>2020-08-13T18:56:20Z</time>
      </trkpt>
      <trkpt lat="48.82389" lon="-3.251875">
        <ele>61.2</ele>
        <time>2020-08-13T18:56:23Z</time>
      </trkpt>
      <trkpt lat="48.824359" lon="-3.251403">
        <ele>61.8</ele>
        <time>2020-08-13T18:56:26Z</time>
      </trkpt>
      <trkpt lat="48.824924" lon="-3.250905">
        <ele>61.8</ele>
        <time>2020-08-13T18:56:29Z</time>
      </trkpt>
      <trkpt lat="48.825084" lon="-3.250803">
        <ele>62.2</ele>
        <time>2020-08-13T18:56:30Z</time>
      </trkpt>
      <trkpt lat="48.82528" lon="-3.250717">
        <ele>62.2</ele>
        <time>2020-08-13T18:56:31Z</time>
      </trkpt>
      <trkpt lat="48.825794" lon="-3.250639">
        <ele>62.2</ele>
        <time>2020-08-13T18:56:34Z</time>
      </trkpt>
      <trkpt lat="48.826196" lon="-3.250442">
        <ele>63.0</ele>
        <time>2020-08-13T18:56:36Z</time>
      </trkpt>
      <trkpt lat="48.826704" lon="-3.249987">
        <ele>64.4</ele>
        <time>2020-08-13T18:56:39Z</time>
      </trkpt>
      <trkpt lat="48.827484" lon="-3.248897">
        <ele>64.6</ele>
        <time>2020-08-13T18:56:44Z</time>
      </trkpt>
      <trkpt lat="48.828077" lon="-3.247841">
        <ele>64.4</ele>
        <time>2020-08-13T18:56:49Z</time>
      </trkpt>
      <trkpt lat="48.82884" lon="-3.246356">
        <ele>63.8</ele>
        <time>2020-08-13T18:56:55Z</time>
      </trkpt>
      <trkpt lat="48.829769" lon="-3.244451">
        <ele>62.6</ele>
        <time>2020-08-13T18:57:02Z</time>
      </trkpt>
      <trkpt lat="48.830478" lon="-3.242756">
        <ele>62.0</ele>
        <time>2020-08-13T18:57:09Z</time>
      </trkpt>
      <trkpt lat="48.830603" lon="-3.24252">
        <ele>62.0</ele>
        <time>2020-08-13T18:57:10Z</time>
      </trkpt>
      <trkpt lat="48.831013" lon="-3.241987">
        <ele>61.2</ele>
        <time>2020-08-13T18:57:13Z</time>
      </trkpt>
      <trkpt lat="48.831215" lon="-3.2416">
        <ele>59.4</ele>
        <time>2020-08-13T18:57:14Z</time>
      </trkpt>
      <trkpt lat="48.831298" lon="-3.241365">
        <ele>59.4</ele>
        <time>2020-08-13T18:57:15Z</time>
      </trkpt>
      <trkpt lat="48.831338" lon="-3.241137">
        <ele>59.4</ele>
        <time>2020-08-13T18:57:16Z</time>
      </trkpt>
      <trkpt lat="48.831364" lon="-3.240694">
        <ele>57.6</ele>
        <time>2020-08-13T18:57:17Z</time>
      </trkpt>
      <trkpt lat="48.831369" lon="-3.239455">
        <ele>56.6</ele>
        <time>2020-08-13T18:57:21Z</time>
      </trkpt>
      <trkpt lat="48.831242" lon="-3.237765">
        <ele>55.0</ele>
        <time>2020-08-13T18:57:27Z</time>
      </trkpt>
      <trkpt lat="48.831237" lon="-3.237531">
        <ele>55.0</ele>
        <time>2020-08-13T18:57:28Z</time>
      </trkpt>
      <trkpt lat="48.83127" lon="-3.237353">
        <ele>54.4</ele>
        <time>2020-08-13T18:57:28Z</time>
      </trkpt>
      <trkpt lat="48.831366" lon="-3.237129">
        <ele>54.4</ele>
        <time>2020-08-13T18:57:29Z</time>
      </trkpt>
      <trkpt lat="48.831777" lon="-3.236616">
        <ele>53.8</ele>
        <time>2020-08-13T18:57:32Z</time>
      </trkpt>
      <trkpt lat="48.832087" lon="-3.236129">
        <ele>53.8</ele>
        <time>2020-08-13T18:57:34Z</time>
      </trkpt>
      <trkpt lat="48.832259" lon="-3.235574">
        <ele>54.6</ele>
        <time>2020-08-13T18:57:36Z</time>
      </trkpt>
      <trkpt lat="48.832314" lon="-3.235306">
        <ele>54.6</ele>
        <time>2020-08-13T18:57:37Z</time>
      </trkpt>
      <trkpt lat="48.83148" lon="-3.235203">
        <ele>53.6</ele>
        <time>2020-08-13T18:57:42Z</time>
      </trkpt>
      <trkpt lat="48.831049" lon="-3.235283">
        <ele>53.6</ele>
        <time>2020-08-13T18:57:45Z</time>
      </trkpt>
      <trkpt lat="48.830661" lon="-3.235249">
        <ele>52.0</ele>
        <time>2020-08-13T18:57:47Z</time>
      </trkpt>
      <trkpt lat="48.829921" lon="-3.234977">
        <ele>46.2</ele>
        <time>2020-08-13T18:57:52Z</time>
      </trkpt>
      <trkpt lat="48.826796" lon="-3.234569">
        <ele>36.6</ele>
        <time>2020-08-13T18:58:11Z</time>
      </trkpt>
      <trkpt lat="48.824316" lon="-3.234213">
        <ele>46.2</ele>
        <time>2020-08-13T18:58:27Z</time>
      </trkpt>
      <trkpt lat="48.823602" lon="-3.234254">
        <ele>48.0</ele>
        <time>2020-08-13T18:58:31Z</time>
      </trkpt>
      <trkpt lat="48.823312" lon="-3.234298">
        <ele>49.8</ele>
        <time>2020-08-13T18:58:33Z</time>
      </trkpt>
      <trkpt lat="48.82293" lon="-3.234405">
        <ele>49.8</ele>
        <time>2020-08-13T18:58:35Z</time>
      </trkpt>
      <trkpt lat="48.822207" lon="-3.234728">
        <ele>51.0</ele>
        <time>2020-08-13T18:58:40Z</time>
      </trkpt>
      <trkpt lat="48.818041" lon="-3.237579">
        <ele>46.6</ele>
        <time>2020-08-13T18:59:08Z</time>
      </trkpt>
      <trkpt lat="48.817973" lon="-3.237604">
        <ele>46.6</ele>
        <time>2020-08-13T18:59:08Z</time>
      </trkpt>
      <trkpt lat="48.817718" lon="-3.237611">
        <ele>46.6</ele>
        <time>2020-08-13T18:59:10Z</time>
      </trkpt>
      <trkpt lat="48.816949" lon="-3.237428">
        <ele>49.0</ele>
        <time>2020-08-13T18:59:15Z</time>
      </trkpt>
      <trkpt lat="48.816696" lon="-3.237428">
        <ele>49.0</ele>
        <time>2020-08-13T18:59:16Z</time>
      </trkpt>
      <trkpt lat="48.816372" lon="-3.237519">
        <ele>48.6</ele>
        <time>2020-08-13T18:59:18Z</time>
      </trkpt>
      <trkpt lat="48.815688" lon="-3.237769">
        <ele>49.8</ele>
        <time>2020-08-13T18:59:23Z</time>
      </trkpt>
      <trkpt lat="48.814237" lon="-3.237875">
        <ele>51.0</ele>
        <time>2020-08-13T18:59:32Z</time>
      </trkpt>
      <trkpt lat="48.813396" lon="-3.238044">
        <ele>52.2</ele>
        <time>2020-08-13T18:59:37Z</time>
      </trkpt>
      <trkpt lat="48.812952" lon="-3.238088">
        <ele>53.4</ele>
        <time>2020-08-13T18:59:40Z</time>
      </trkpt>
      <trkpt lat="48.812731" lon="-3.238077">
        <ele>53.4</ele>
        <time>2020-08-13T18:59:41Z</time>
      </trkpt>
      <trkpt lat="48.812456" lon="-3.238029">
        <ele>53.8</ele>
        <time>2020-08-13T18:59:43Z</time>
      </trkpt>
      <trkpt lat="48.812301" lon="-3.237976">
        <ele>53.8</ele>
        <time>2020-08-13T18:59:44Z</time>
      </trkpt>
      <trkpt lat="48.812129" lon="-3.237846">
        <ele>53.8</ele>
        <time>2020-08-13T18:59:45Z</time>
      </trkpt>
      <trkpt lat="48.811782" lon="-3.237393">
        <ele>55.4</ele>
        <time>2020-08-13T18:59:48Z</time>
      </trkpt>
      <trkpt lat="48.811636" lon="-3.237275">
        <ele>56.0</ele>
        <time>2020-08-13T18:59:49Z</time>
      </trkpt>
      <trkpt lat="48.811288" lon="-3.237087">
        <ele>56.0</ele>
        <time>2020-08-13T18:59:51Z</time>
      </trkpt>
      <trkpt lat="48.810876" lon="-3.236815">
        <ele>56.0</ele>
        <time>2020-08-13T18:59:54Z</time>
      </trkpt>
      <trkpt lat="48.810499" lon="-3.236633">
        <ele>57.4</ele>
        <time>2020-08-13T18:59:56Z</time>
      </trkpt>
      <trkpt lat="48.810197" lon="-3.236508">
        <ele>57.4</ele>
        <time>2020-08-13T18:59:58Z</time>
      </trkpt>
      <trkpt lat="48.809712" lon="-3.236389">
        <ele>57.2</ele>
        <time>2020-08-13T19:00:01Z</time>
      </trkpt>
      <trkpt lat="48.809499" lon="-3.236277">
        <ele>57.2</ele>
        <time>2020-08-13T19:00:02Z</time>
      </trkpt>
      <trkpt lat="48.809122" lon="-3.235973">
        <ele>56.6</ele>
        <time>2020-08-13T19:00:05Z</time>
      </trkpt>
      <trkpt lat="48.808065" lon="-3.234981">
        <ele>59.6</ele>
        <time>2020-08-13T19:00:13Z</time>
      </trkpt>
      <trkpt lat="48.80788" lon="-3.234756">
        <ele>59.6</ele>
        <time>2020-08-13T19:00:14Z</time>
      </trkpt>
      <trkpt lat="48.807635" lon="-3.234599">
        <ele>59.6</ele>
        <time>2020-08-13T19:00:16Z</time>
      </trkpt>
      <trkpt lat="48.807488" lon="-3.234583">
        <ele>60.4</ele>
        <time>2020-08-13T19:00:17Z</time>
      </trkpt>
      <trkpt lat="48.807308" lon="-3.234607">
        <ele>60.4</ele>
        <time>2020-08-13T19:00:18Z</time>
      </trkpt>
      <trkpt lat="48.807125" lon="-3.234669">
        <ele>60.4</ele>
        <time>2020-08-13T19:00:19Z</time>
      </trkpt>
      <trkpt lat="48.805679" lon="-3.235379">
        <ele>61.2</ele>
        <time>2020-08-13T19:00:28Z</time>
      </trkpt>
      <trkpt lat="48.804728" lon="-3.236188">
        <ele>60.6</ele>
        <time>2020-08-13T19:00:35Z</time>
      </trkpt>
      <trkpt lat="48.803449" lon="-3.237334">
        <ele>61.2</ele>
        <time>2020-08-13T19:00:44Z</time>
      </trkpt>
      <trkpt lat="48.802719" lon="-3.238048">
        <ele>61.0</ele>
        <time>2020-08-13T19:00:49Z</time>
      </trkpt>
      <trkpt lat="48.802306" lon="-3.238349">
        <ele>59.6</ele>
        <time>2020-08-13T19:00:52Z</time>
      </trkpt>
      <trkpt lat="48.801766" lon="-3.238694">
        <ele>59.6</ele>
        <time>2020-08-13T19:00:56Z</time>
      </trkpt>
      <trkpt lat="48.801343" lon="-3.239097">
        <ele>59.4</ele>
        <time>2020-08-13T19:00:59Z</time>
      </trkpt>
      <trkpt lat="48.801094" lon="-3.239292">
        <ele>60.0</ele>
        <time>2020-08-13T19:01:01Z</time>
      </trkpt>
      <trkpt lat="48.800782" lon="-3.23946">
        <ele>61.2</ele>
        <time>2020-08-13T19:01:03Z</time>
      </trkpt>
      <trkpt lat="48.800583" lon="-3.239506">
        <ele>61.2</ele>
        <time>2020-08-13T19:01:04Z</time>
      </trkpt>
      <trkpt lat="48.800356" lon="-3.239505">
        <ele>61.2</ele>
        <time>2020-08-13T19:01:05Z</time>
      </trkpt>
      <trkpt lat="48.799009" lon="-3.239283">
        <ele>63.8</ele>
        <time>2020-08-13T19:01:14Z</time>
      </trkpt>
      <trkpt lat="48.798595" lon="-3.239167">
        <ele>63.8</ele>
        <time>2020-08-13T19:01:16Z</time>
      </trkpt>
      <trkpt lat="48.797494" lon="-3.238799">
        <ele>60.4</ele>
        <time>2020-08-13T19:01:23Z</time>
      </trkpt>
      <trkpt lat="48.79748" lon="-3.238852">
        <ele>60.4</ele>
        <time>2020-08-13T19:01:24Z</time>
      </trkpt>
      <trkpt lat="48.797419" lon="-3.238915">
        <ele>60.4</ele>
        <time>2020-08-13T19:01:24Z</time>
      </trkpt>
      <trkpt lat="48.797382" lon="-3.238916">
        <ele>60.4</ele>
        <time>2020-08-13T19:01:25Z</time>
      </trkpt>
      <trkpt lat="48.797327" lon="-3.238869">
        <ele>60.4</ele>
        <time>2020-08-13T19:01:25Z</time>
      </trkpt>
      <trkpt lat="48.797303" lon="-3.238761">
        <ele>60.4</ele>
        <time>2020-08-13T19:01:26Z</time>
      </trkpt>
      <trkpt lat="48.797337" lon="-3.238658">
        <ele>60.4</ele>
        <time>2020-08-13T19:01:27Z</time>
      </trkpt>
      <trkpt lat="48.797269" lon="-3.238536">
        <ele>60.4</ele>
        <time>2020-08-13T19:01:28Z</time>
      </trkpt>
      <trkpt lat="48.79722" lon="-3.238382">
        <ele>60.4</ele>
        <time>2020-08-13T19:01:29Z</time>
      </trkpt>
      <trkpt lat="48.797143" lon="-3.237889">
        <ele>59.6</ele>
        <time>2020-08-13T19:01:33Z</time>
      </trkpt>
      <trkpt lat="48.797057" lon="-3.237565">
        <ele>59.6</ele>
        <time>2020-08-13T19:01:35Z</time>
      </trkpt>
      <trkpt lat="48.796844" lon="-3.236933">
        <ele>58.6</ele>
        <time>2020-08-13T19:01:40Z</time>
      </trkpt>
      <trkpt lat="48.796713" lon="-3.236783">
        <ele>58.6</ele>
        <time>2020-08-13T19:01:41Z</time>
      </trkpt>
      <trkpt lat="48.79665" lon="-3.23677">
        <ele>55.6</ele>
        <time>2020-08-13T19:01:42Z</time>
      </trkpt>
      <trkpt lat="48.795611" lon="-3.236816">
        <ele>50.0</ele>
        <time>2020-08-13T19:01:53Z</time>
      </trkpt>
      <trkpt lat="48.79551" lon="-3.236785">
        <ele>50.0</ele>
        <time>2020-08-13T19:01:54Z</time>
      </trkpt>
      <trkpt lat="48.795421" lon="-3.236744">
        <ele>50.0</ele>
        <time>2020-08-13T19:01:55Z</time>
      </trkpt>
      <trkpt lat="48.794722" lon="-3.236037">
        <ele>43.4</ele>
        <time>2020-08-13T19:02:03Z</time>
      </trkpt>
      <trkpt lat="48.794458" lon="-3.235899">
        <ele>43.4</ele>
        <time>2020-08-13T19:02:06Z</time>
      </trkpt>
      <trkpt lat="48.793868" lon="-3.235677">
        <ele>39.4</ele>
        <time>2020-08-13T19:02:13Z</time>
      </trkpt>
      <trkpt lat="48.793671" lon="-3.235628">
        <ele>39.4</ele>
        <time>2020-08-13T19:02:15Z</time>
      </trkpt>
      <trkpt lat="48.793296" lon="-3.235612">
        <ele>33.8</ele>
        <time>2020-08-13T19:02:18Z</time>
      </trkpt>
      <trkpt lat="48.793219" lon="-3.235634">
        <ele>33.8</ele>
        <time>2020-08-13T19:02:19Z</time>
      </trkpt>
      <trkpt lat="48.792691" lon="-3.236085">
        <ele>25.6</ele>
        <time>2020-08-13T19:02:25Z</time>
      </trkpt>
      <trkpt lat="48.79256" lon="-3.236147">
        <ele>25.6</ele>
        <time>2020-08-13T19:02:27Z</time>
      </trkpt>
      <trkpt lat="48.792343" lon="-3.236156">
        <ele>15.6</ele>
        <time>2020-08-13T19:02:29Z</time>
      </trkpt>
      <trkpt lat="48.792214" lon="-3.236122">
        <ele>15.6</ele>
        <time>2020-08-13T19:02:31Z</time>
      </trkpt>
      <trkpt lat="48.791475" lon="-3.235791">
        <ele>16.4</ele>
        <time>2020-08-13T19:02:39Z</time>
      </trkpt>
      <trkpt lat="48.790623" lon="-3.235376">
        <ele>8.2</ele>
        <time>2020-08-13T19:02:48Z</time>
      </trkpt>
      <trkpt lat="48.790553" lon="-3.235331">
        <ele>8.2</ele>
        <time>2020-08-13T19:02:48Z</time>
      </trkpt>
      <trkpt lat="48.790471" lon="-3.235241">
        <ele>8.2</ele>
        <time>2020-08-13T19:02:50Z</time>
      </trkpt>
      <trkpt lat="48.790422" lon="-3.235144">
        <ele>8.2</ele>
        <time>2020-08-13T19:02:50Z</time>
      </trkpt>
      <trkpt lat="48.790334" lon="-3.234866">
        <ele>11.2</ele>
        <time>2020-08-13T19:02:52Z</time>
      </trkpt>
      <trkpt lat="48.790304" lon="-3.234618">
        <ele>11.2</ele>
        <time>2020-08-13T19:02:54Z</time>
      </trkpt>
      <trkpt lat="48.790307" lon="-3.234495">
        <ele>11.2</ele>
        <time>2020-08-13T19:02:55Z</time>
      </trkpt>
      <trkpt lat="48.790436" lon="-3.233627">
        <ele>10.4</ele>
        <time>2020-08-13T19:03:01Z</time>
      </trkpt>
      <trkpt lat="48.790549" lon="-3.233045">
        <ele>8.2</ele>
        <time>2020-08-13T19:03:05Z</time>
      </trkpt>
      <trkpt lat="48.79062" lon="-3.232834">
        <ele>8.2</ele>
        <time>2020-08-13T19:03:07Z</time>
      </trkpt>
      <trkpt lat="48.790934" lon="-3.232141">
        <ele>9.2</ele>
        <time>2020-08-13T19:03:12Z</time>
      </trkpt>
      <trkpt lat="48.790958" lon="-3.232036">
        <ele>9.2</ele>
        <time>2020-08-13T19:03:13Z</time>
      </trkpt>
      <trkpt lat="48.790929" lon="-3.231146">
        <ele>7.2</ele>
        <time>2020-08-13T19:03:19Z</time>
      </trkpt>
      <trkpt lat="48.790879" lon="-3.23027">
        <ele>6.6</ele>
        <time>2020-08-13T19:03:26Z</time>
      </trkpt>
      <trkpt lat="48.791115" lon="-3.229603">
        <ele>6.6</ele>
        <time>2020-08-13T19:03:31Z</time>
      </trkpt>
      <trkpt lat="48.791145" lon="-3.229433">
        <ele>6.6</ele>
        <time>2020-08-13T19:03:32Z</time>
      </trkpt>
      <trkpt lat="48.791152" lon="-3.229186">
        <ele>6.6</ele>
        <time>2020-08-13T19:03:33Z</time>
      </trkpt>
      <trkpt lat="48.791105" lon="-3.228936">
        <ele>7.0</ele>
        <time>2020-08-13T19:03:35Z</time>
      </trkpt>
      <trkpt lat="48.79103" lon="-3.228772">
        <ele>7.0</ele>
        <time>2020-08-13T19:03:37Z</time>
      </trkpt>
      <trkpt lat="48.790713" lon="-3.22835">
        <ele>13.6</ele>
        <time>2020-08-13T19:03:41Z</time>
      </trkpt>
      <trkpt lat="48.790535" lon="-3.227971">
        <ele>10.0</ele>
        <time>2020-08-13T19:03:44Z</time>
      </trkpt>
      <trkpt lat="48.790348" lon="-3.227649">
        <ele>10.0</ele>
        <time>2020-08-13T19:03:47Z</time>
      </trkpt>
      <trkpt lat="48.79031" lon="-3.227706">
        <ele>10.0</ele>
        <time>2020-08-13T19:03:48Z</time>
      </trkpt>
      <trkpt lat="48.790262" lon="-3.22771">
        <ele>10.0</ele>
        <time>2020-08-13T19:03:48Z</time>
      </trkpt>
      <trkpt lat="48.790233" lon="-3.227685">
        <ele>10.0</ele>
        <time>2020-08-13T19:03:49Z</time>
      </trkpt>
      <trkpt lat="48.790211" lon="-3.227618">
        <ele>10.0</ele>
        <time>2020-08-13T19:03:49Z</time>
      </trkpt>
      <trkpt lat="48.790214" lon="-3.227574">
        <ele>10.0</ele>
        <time>2020-08-13T19:03:50Z</time>
      </trkpt>
      <trkpt lat="48.79008" lon="-3.227494">
        <ele>6.4</ele>
        <time>2020-08-13T19:03:51Z</time>
      </trkpt>
      <trkpt lat="48.789786" lon="-3.227115">
        <ele>12.6</ele>
        <time>2020-08-13T19:03:56Z</time>
      </trkpt>
      <trkpt lat="48.789141" lon="-3.226205">
        <ele>11.8</ele>
        <time>2020-08-13T19:04:07Z</time>
      </trkpt>
      <trkpt lat="48.788631" lon="-3.22554">
        <ele>7.2</ele>
        <time>2020-08-13T19:04:15Z</time>
      </trkpt>
      <trkpt lat="48.788222" lon="-3.225065">
        <ele>9.6</ele>
        <time>2020-08-13T19:04:21Z</time>
      </trkpt>
      <trkpt lat="48.787909" lon="-3.224744">
        <ele>6.2</ele>
        <time>2020-08-13T19:04:26Z</time>
      </trkpt>
      <trkpt lat="48.787464" lon="-3.224345">
        <ele>9.2</ele>
        <time>2020-08-13T19:04:32Z</time>
      </trkpt>
      <trkpt lat="48.786999" lon="-3.223995">
        <ele>6.2</ele>
        <time>2020-08-13T19:04:39Z</time>
      </trkpt>
      <trkpt lat="48.786133" lon="-3.223281">
        <ele>7.4</ele>
        <time>2020-08-13T19:04:50Z</time>
      </trkpt>
      <trkpt lat="48.785242" lon="-3.222579">
        <ele>12.6</ele>
        <time>2020-08-13T19:05:03Z</time>
      </trkpt>
      <trkpt lat="48.784834" lon="-3.222406">
        <ele>7.6</ele>
        <time>2020-08-13T19:05:08Z</time>
      </trkpt>
      <trkpt lat="48.784802" lon="-3.222452">
        <ele>7.6</ele>
        <time>2020-08-13T19:05:09Z</time>
      </trkpt>
      <trkpt lat="48.784718" lon="-3.222483">
        <ele>7.6</ele>
        <time>2020-08-13T19:05:10Z</time>
      </trkpt>
      <trkpt lat="48.784676" lon="-3.222464">
        <ele>7.6</ele>
        <time>2020-08-13T19:05:10Z</time>
      </trkpt>
      <trkpt lat="48.784616" lon="-3.222369">
        <ele>7.6</ele>
        <time>2020-08-13T19:05:11Z</time>
      </trkpt>
      <trkpt lat="48.784611" lon="-3.222239">
        <ele>7.6</ele>
        <time>2020-08-13T19:05:12Z</time>
      </trkpt>
      <trkpt lat="48.78463" lon="-3.222179">
        <ele>7.6</ele>
        <time>2020-08-13T19:05:12Z</time>
      </trkpt>
      <trkpt lat="48.784603" lon="-3.221888">
        <ele>7.6</ele>
        <time>2020-08-13T19:05:15Z</time>
      </trkpt>
      <trkpt lat="48.784185" lon="-3.220653">
        <ele>0.0</ele>
        <time>2020-08-13T19:05:25Z</time>
      </trkpt>
      <trkpt lat="48.783956" lon="-3.219923">
        <ele>0.0</ele>
        <time>2020-08-13T19:05:31Z</time>
      </trkpt>
      <trkpt lat="48.783956" lon="-3.219923">
        <ele>0.0</ele>
        <time>2020-08-13T19:05:31Z</time>
      </trkpt>
      <trkpt lat="48.783842" lon="-3.21956">
        <ele>0.0</ele>
        <time>2020-08-13T19:05:33Z</time>
      </trkpt>
      <trkpt lat="48.783739" lon="-3.219147">
        <ele>2.2</ele>
        <time>2020-08-13T19:05:36Z</time>
      </trkpt>
      <trkpt lat="48.783697" lon="-3.218796">
        <ele>2.2</ele>
        <time>2020-08-13T19:05:39Z</time>
      </trkpt>
      <trkpt lat="48.783698" lon="-3.218523">
        <ele>2.2</ele>
        <time>2020-08-13T19:05:40Z</time>
      </trkpt>
      <trkpt lat="48.783776" lon="-3.21754">
        <ele>4.4</ele>
        <time>2020-08-13T19:05:47Z</time>
      </trkpt>
      <trkpt lat="48.783784" lon="-3.217252">
        <ele>7.6</ele>
        <time>2020-08-13T19:05:49Z</time>
      </trkpt>
      <trkpt lat="48.783774" lon="-3.216856">
        <ele>7.6</ele>
        <time>2020-08-13T19:05:52Z</time>
      </trkpt>
      <trkpt lat="48.783719" lon="-3.216405">
        <ele>11.4</ele>
        <time>2020-08-13T19:05:55Z</time>
      </trkpt>
      <trkpt lat="48.783368" lon="-3.214637">
        <ele>14.2</ele>
        <time>2020-08-13T19:06:07Z</time>
      </trkpt>
      <trkpt lat="48.783316" lon="-3.214266">
        <ele>19.2</ele>
        <time>2020-08-13T19:06:09Z</time>
      </trkpt>
      <trkpt lat="48.783314" lon="-3.213961">
        <ele>24.2</ele>
        <time>2020-08-13T19:06:11Z</time>
      </trkpt>
      <trkpt lat="48.78333" lon="-3.213817">
        <ele>24.2</ele>
        <time>2020-08-13T19:06:12Z</time>
      </trkpt>
      <trkpt lat="48.783431" lon="-3.2134">
        <ele>17.2</ele>
        <time>2020-08-13T19:06:15Z</time>
      </trkpt>
      <trkpt lat="48.783985" lon="-3.211868">
        <ele>29.4</ele>
        <time>2020-08-13T19:06:27Z</time>
      </trkpt>
      <trkpt lat="48.784093" lon="-3.211524">
        <ele>36.6</ele>
        <time>2020-08-13T19:06:30Z</time>
      </trkpt>
      <trkpt lat="48.7842" lon="-3.210959">
        <ele>26.8</ele>
        <time>2020-08-13T19:06:34Z</time>
      </trkpt>
      <trkpt lat="48.784231" lon="-3.210591">
        <ele>28.6</ele>
        <time>2020-08-13T19:06:36Z</time>
      </trkpt>
      <trkpt lat="48.784235" lon="-3.210341">
        <ele>28.6</ele>
        <time>2020-08-13T19:06:38Z</time>
      </trkpt>
      <trkpt lat="48.784209" lon="-3.209947">
        <ele>31.0</ele>
        <time>2020-08-13T19:06:40Z</time>
      </trkpt>
      <trkpt lat="48.784169" lon="-3.209684">
        <ele>31.0</ele>
        <time>2020-08-13T19:06:42Z</time>
      </trkpt>
      <trkpt lat="48.784087" lon="-3.209359">
        <ele>42.4</ele>
        <time>2020-08-13T19:06:45Z</time>
      </trkpt>
      <trkpt lat="48.783726" lon="-3.208254">
        <ele>43.2</ele>
        <time>2020-08-13T19:06:53Z</time>
      </trkpt>
      <trkpt lat="48.783674" lon="-3.208053">
        <ele>43.2</ele>
        <time>2020-08-13T19:06:54Z</time>
      </trkpt>
      <trkpt lat="48.783624" lon="-3.207747">
        <ele>43.2</ele>
        <time>2020-08-13T19:06:56Z</time>
      </trkpt>
      <trkpt lat="48.783606" lon="-3.20758">
        <ele>43.2</ele>
        <time>2020-08-13T19:06:58Z</time>
      </trkpt>
      <trkpt lat="48.7836" lon="-3.207129">
        <ele>42.8</ele>
        <time>2020-08-13T19:07:01Z</time>
      </trkpt>
      <trkpt lat="48.783704" lon="-3.205591">
        <ele>46.0</ele>
        <time>2020-08-13T19:07:11Z</time>
      </trkpt>
      <trkpt lat="48.78366" lon="-3.20488">
        <ele>46.4</ele>
        <time>2020-08-13T19:07:16Z</time>
      </trkpt>
      <trkpt lat="48.783562" lon="-3.204418">
        <ele>46.4</ele>
        <time>2020-08-13T19:07:19Z</time>
      </trkpt>
      <trkpt lat="48.783917" lon="-3.204286">
        <ele>46.4</ele>
        <time>2020-08-13T19:07:22Z</time>
      </trkpt>
      <trkpt lat="48.784135" lon="-3.204154">
        <ele>47.0</ele>
        <time>2020-08-13T19:07:24Z</time>
      </trkpt>
      <trkpt lat="48.784231" lon="-3.204059">
        <ele>47.0</ele>
        <time>2020-08-13T19:07:25Z</time>
      </trkpt>
      <trkpt lat="48.784325" lon="-3.203944">
        <ele>47.0</ele>
        <time>2020-08-13T19:07:26Z</time>
      </trkpt>
      <trkpt lat="48.784764" lon="-3.203206">
        <ele>47.8</ele>
        <time>2020-08-13T19:07:31Z</time>
      </trkpt>
      <trkpt lat="48.785313" lon="-3.202481">
        <ele>49.0</ele>
        <time>2020-08-13T19:07:37Z</time>
      </trkpt>
      <trkpt lat="48.785971" lon="-3.201548">
        <ele>51.2</ele>
        <time>2020-08-13T19:07:45Z</time>
      </trkpt>
      <trkpt lat="48.786075" lon="-3.201328">
        <ele>51.2</ele>
        <time>2020-08-13T19:07:46Z</time>
      </trkpt>
      <trkpt lat="48.786759" lon="-3.199686">
        <ele>55.0</ele>
        <time>2020-08-13T19:07:57Z</time>
      </trkpt>
      <trkpt lat="48.786879" lon="-3.19954">
        <ele>55.0</ele>
        <time>2020-08-13T19:07:58Z</time>
      </trkpt>
      <trkpt lat="48.787124" lon="-3.199473">
        <ele>55.0</ele>
        <time>2020-08-13T19:08:00Z</time>
      </trkpt>
      <trkpt lat="48.787226" lon="-3.199359">
        <ele>55.0</ele>
        <time>2020-08-13T19:08:01Z</time>
      </trkpt>
      <trkpt lat="48.787335" lon="-3.19912">
        <ele>55.8</ele>
        <time>2020-08-13T19:08:03Z</time>
      </trkpt>
      <trkpt lat="48.78786" lon="-3.197166">
        <ele>60.8</ele>
        <time>2020-08-13T19:08:14Z</time>
      </trkpt>
      <trkpt lat="48.787985" lon="-3.196861">
        <ele>60.8</ele>
        <time>2020-08-13T19:08:16Z</time>
      </trkpt>
      <trkpt lat="48.78824" lon="-3.196662">
        <ele>61.4</ele>
        <time>2020-08-13T19:08:18Z</time>
      </trkpt>
      <trkpt lat="48.788761" lon="-3.196386">
        <ele>64.0</ele>
        <time>2020-08-13T19:08:23Z</time>
      </trkpt>
      <trkpt lat="48.788984" lon="-3.19624">
        <ele>64.0</ele>
        <time>2020-08-13T19:08:25Z</time>
      </trkpt>
      <trkpt lat="48.789439" lon="-3.195887">
        <ele>65.8</ele>
        <time>2020-08-13T19:08:29Z</time>
      </trkpt>
      <trkpt lat="48.790489" lon="-3.195182">
        <ele>67.0</ele>
        <time>2020-08-13T19:08:38Z</time>
      </trkpt>
      <trkpt lat="48.79136" lon="-3.194523">
        <ele>67.6</ele>
        <time>2020-08-13T19:08:46Z</time>
      </trkpt>
      <trkpt lat="48.791614" lon="-3.19439">
        <ele>67.6</ele>
        <time>2020-08-13T19:08:49Z</time>
      </trkpt>
      <trkpt lat="48.791753" lon="-3.194341">
        <ele>67.4</ele>
        <time>2020-08-13T19:08:50Z</time>
      </trkpt>
      <trkpt lat="48.792361" lon="-3.194208">
        <ele>67.4</ele>
        <time>2020-08-13T19:08:55Z</time>
      </trkpt>
      <trkpt lat="48.792546" lon="-3.194119">
        <ele>68.0</ele>
        <time>2020-08-13T19:08:56Z</time>
      </trkpt>
      <trkpt lat="48.792758" lon="-3.193937">
        <ele>68.0</ele>
        <time>2020-08-13T19:08:58Z</time>
      </trkpt>
      <trkpt lat="48.793342" lon="-3.193106">
        <ele>69.0</ele>
        <time>2020-08-13T19:09:05Z</time>
      </trkpt>
      <trkpt lat="48.793793" lon="-3.192533">
        <ele>69.0</ele>
        <time>2020-08-13T19:09:10Z</time>
      </trkpt>
      <trkpt lat="48.793921" lon="-3.192323">
        <ele>70.2</ele>
        <time>2020-08-13T19:09:11Z</time>
      </trkpt>
      <trkpt lat="48.794172" lon="-3.191755">
        <ele>70.8</ele>
        <time>2020-08-13T19:09:15Z</time>
      </trkpt>
      <trkpt lat="48.794336" lon="-3.191285">
        <ele>71.6</ele>
        <time>2020-08-13T19:09:18Z</time>
      </trkpt>
      <trkpt lat="48.794695" lon="-3.190094">
        <ele>72.0</ele>
        <time>2020-08-13T19:09:25Z</time>
      </trkpt>
      <trkpt lat="48.794811" lon="-3.189796">
        <ele>73.0</ele>
        <time>2020-08-13T19:09:27Z</time>
      </trkpt>
      <trkpt lat="48.794908" lon="-3.189615">
        <ele>73.0</ele>
        <time>2020-08-13T19:09:28Z</time>
      </trkpt>
      <trkpt lat="48.795112" lon="-3.189357">
        <ele>73.6</ele>
        <time>2020-08-13T19:09:30Z</time>
      </trkpt>
      <trkpt lat="48.795747" lon="-3.188731">
        <ele>74.6</ele>
        <time>2020-08-13T19:09:36Z</time>
      </trkpt>
      <trkpt lat="48.796007" lon="-3.188416">
        <ele>74.8</ele>
        <time>2020-08-13T19:09:39Z</time>
      </trkpt>
      <trkpt lat="48.796125" lon="-3.188131">
        <ele>75.6</ele>
        <time>2020-08-13T19:09:41Z</time>
      </trkpt>
      <trkpt lat="48.796209" lon="-3.187768">
        <ele>75.6</ele>
        <time>2020-08-13T19:09:43Z</time>
      </trkpt>
      <trkpt lat="48.796233" lon="-3.187587">
        <ele>75.6</ele>
        <time>2020-08-13T19:09:44Z</time>
      </trkpt>
      <trkpt lat="48.796234" lon="-3.187166">
        <ele>76.2</ele>
        <time>2020-08-13T19:09:46Z</time>
      </trkpt>
      <trkpt lat="48.796059" lon="-3.186054">
        <ele>76.6</ele>
        <time>2020-08-13T19:09:52Z</time>
      </trkpt>
      <trkpt lat="48.796055" lon="-3.185748">
        <ele>77.0</ele>
        <time>2020-08-13T19:09:54Z</time>
      </trkpt>
      <trkpt lat="48.796085" lon="-3.185591">
        <ele>77.0</ele>
        <time>2020-08-13T19:09:55Z</time>
      </trkpt>
      <trkpt lat="48.796146" lon="-3.185417">
        <ele>77.0</ele>
        <time>2020-08-13T19:09:56Z</time>
      </trkpt>
      <trkpt lat="48.796544" lon="-3.184637">
        <ele>77.8</ele>
        <time>2020-08-13T19:10:01Z</time>
      </trkpt>
      <trkpt lat="48.796647" lon="-3.18438">
        <ele>77.8</ele>
        <time>2020-08-13T19:10:03Z</time>
      </trkpt>
      <trkpt lat="48.796722" lon="-3.184132">
        <ele>77.4</ele>
        <time>2020-08-13T19:10:04Z</time>
      </trkpt>
      <trkpt lat="48.796779" lon="-3.183797">
        <ele>77.4</ele>
        <time>2020-08-13T19:10:06Z</time>
      </trkpt>
      <trkpt lat="48.796787" lon="-3.18357">
        <ele>77.4</ele>
        <time>2020-08-13T19:10:07Z</time>
      </trkpt>
      <trkpt lat="48.796691" lon="-3.182257">
        <ele>78.6</ele>
        <time>2020-08-13T19:10:15Z</time>
      </trkpt>
      <trkpt lat="48.796712" lon="-3.181645">
        <ele>79.4</ele>
        <time>2020-08-13T19:10:18Z</time>
      </trkpt>
      <trkpt lat="48.796748" lon="-3.181385">
        <ele>79.4</ele>
        <time>2020-08-13T19:10:19Z</time>
      </trkpt>
      <trkpt lat="48.796796" lon="-3.181176">
        <ele>79.4</ele>
        <time>2020-08-13T19:10:21Z</time>
      </trkpt>
      <trkpt lat="48.796874" lon="-3.180978">
        <ele>79.4</ele>
        <time>2020-08-13T19:10:22Z</time>
      </trkpt>
      <trkpt lat="48.796962" lon="-3.180844">
        <ele>79.4</ele>
        <time>2020-08-13T19:10:23Z</time>
      </trkpt>
      <trkpt lat="48.797073" lon="-3.180715">
        <ele>79.2</ele>
        <time>2020-08-13T19:10:24Z</time>
      </trkpt>
      <trkpt lat="48.798031" lon="-3.179865">
        <ele>79.4</ele>
        <time>2020-08-13T19:10:33Z</time>
      </trkpt>
      <trkpt lat="48.798177" lon="-3.179644">
        <ele>79.4</ele>
        <time>2020-08-13T19:10:35Z</time>
      </trkpt>
      <trkpt lat="48.79824" lon="-3.179466">
        <ele>79.4</ele>
        <time>2020-08-13T19:10:36Z</time>
      </trkpt>
      <trkpt lat="48.798284" lon="-3.179286">
        <ele>79.4</ele>
        <time>2020-08-13T19:10:37Z</time>
      </trkpt>
      <trkpt lat="48.798397" lon="-3.178631">
        <ele>78.8</ele>
        <time>2020-08-13T19:10:40Z</time>
      </trkpt>
      <trkpt lat="48.798815" lon="-3.17666">
        <ele>77.0</ele>
        <time>2020-08-13T19:10:52Z</time>
      </trkpt>
      <trkpt lat="48.798863" lon="-3.176167">
        <ele>77.0</ele>
        <time>2020-08-13T19:10:54Z</time>
      </trkpt>
      <trkpt lat="48.798856" lon="-3.175593">
        <ele>75.8</ele>
        <time>2020-08-13T19:10:57Z</time>
      </trkpt>
      <trkpt lat="48.798799" lon="-3.174924">
        <ele>74.2</ele>
        <time>2020-08-13T19:11:01Z</time>
      </trkpt>
      <trkpt lat="48.798653" lon="-3.173887">
        <ele>72.6</ele>
        <time>2020-08-13T19:11:07Z</time>
      </trkpt>
      <trkpt lat="48.798627" lon="-3.173574">
        <ele>72.6</ele>
        <time>2020-08-13T19:11:08Z</time>
      </trkpt>
      <trkpt lat="48.798636" lon="-3.173362">
        <ele>72.6</ele>
        <time>2020-08-13T19:11:10Z</time>
      </trkpt>
      <trkpt lat="48.79869" lon="-3.17295">
        <ele>71.8</ele>
        <time>2020-08-13T19:11:12Z</time>
      </trkpt>
      <trkpt lat="48.798854" lon="-3.172436">
        <ele>72.2</ele>
        <time>2020-08-13T19:11:15Z</time>
      </trkpt>
      <trkpt lat="48.799094" lon="-3.171839">
        <ele>72.2</ele>
        <time>2020-08-13T19:11:19Z</time>
      </trkpt>
      <trkpt lat="48.799167" lon="-3.171605">
        <ele>71.8</ele>
        <time>2020-08-13T19:11:20Z</time>
      </trkpt>
      <trkpt lat="48.799263" lon="-3.171204">
        <ele>71.8</ele>
        <time>2020-08-13T19:11:22Z</time>
      </trkpt>
      <trkpt lat="48.799283" lon="-3.171051">
        <ele>71.8</ele>
        <time>2020-08-13T19:11:23Z</time>
      </trkpt>
      <trkpt lat="48.799347" lon="-3.169829">
        <ele>71.4</ele>
        <time>2020-08-13T19:11:30Z</time>
      </trkpt>
      <trkpt lat="48.799412" lon="-3.16929">
        <ele>71.4</ele>
        <time>2020-08-13T19:11:33Z</time>
      </trkpt>
      <trkpt lat="48.799564" lon="-3.16831">
        <ele>73.0</ele>
        <time>2020-08-13T19:11:38Z</time>
      </trkpt>
      <trkpt lat="48.799622" lon="-3.168008">
        <ele>73.0</ele>
        <time>2020-08-13T19:11:40Z</time>
      </trkpt>
      <trkpt lat="48.79975" lon="-3.167509">
        <ele>73.0</ele>
        <time>2020-08-13T19:11:43Z</time>
      </trkpt>
      <trkpt lat="48.799898" lon="-3.167026">
        <ele>73.6</ele>
        <time>2020-08-13T19:11:46Z</time>
      </trkpt>
      <trkpt lat="48.800537" lon="-3.165566">
        <ele>76.8</ele>
        <time>2020-08-13T19:11:55Z</time>
      </trkpt>
      <trkpt lat="48.801038" lon="-3.164284">
        <ele>77.6</ele>
        <time>2020-08-13T19:12:03Z</time>
      </trkpt>
      <trkpt lat="48.801185" lon="-3.16381">
        <ele>78.6</ele>
        <time>2020-08-13T19:12:06Z</time>
      </trkpt>
      <trkpt lat="48.801275" lon="-3.16329">
        <ele>79.0</ele>
        <time>2020-08-13T19:12:09Z</time>
      </trkpt>
      <trkpt lat="48.801302" lon="-3.163031">
        <ele>79.0</ele>
        <time>2020-08-13T19:12:10Z</time>
      </trkpt>
      <trkpt lat="48.801256" lon="-3.163016">
        <ele>79.0</ele>
        <time>2020-08-13T19:12:11Z</time>
      </trkpt>
      <trkpt lat="48.801222" lon="-3.162967">
        <ele>79.0</ele>
        <time>2020-08-13T19:12:11Z</time>
      </trkpt>
      <trkpt lat="48.80121" lon="-3.162898">
        <ele>79.0</ele>
        <time>2020-08-13T19:12:12Z</time>
      </trkpt>
      <trkpt lat="48.801224" lon="-3.16283">
        <ele>79.0</ele>
        <time>2020-08-13T19:12:12Z</time>
      </trkpt>
      <trkpt lat="48.801263" lon="-3.162782">
        <ele>79.0</ele>
        <time>2020-08-13T19:12:13Z</time>
      </trkpt>
      <trkpt lat="48.801313" lon="-3.162775">
        <ele>79.0</ele>
        <time>2020-08-13T19:12:13Z</time>
      </trkpt>
      <trkpt lat="48.801357" lon="-3.162812">
        <ele>79.0</ele>
        <time>2020-08-13T19:12:14Z</time>
      </trkpt>
      <trkpt lat="48.801588" lon="-3.162419">
        <ele>79.0</ele>
        <time>2020-08-13T19:12:17Z</time>
      </trkpt>
      <trkpt lat="48.802388" lon="-3.161253">
        <ele>79.6</ele>
        <time>2020-08-13T19:12:29Z</time>
      </trkpt>
      <trkpt lat="48.802612" lon="-3.160897">
        <ele>79.6</ele>
        <time>2020-08-13T19:12:32Z</time>
      </trkpt>
      <trkpt lat="48.803208" lon="-3.160165">
        <ele>80.2</ele>
        <time>2020-08-13T19:12:40Z</time>
      </trkpt>
      <trkpt lat="48.803287" lon="-3.160034">
        <ele>80.2</ele>
        <time>2020-08-13T19:12:41Z</time>
      </trkpt>
      <trkpt lat="48.803459" lon="-3.159487">
        <ele>79.6</ele>
        <time>2020-08-13T19:12:45Z</time>
      </trkpt>
      <trkpt lat="48.803664" lon="-3.159055">
        <ele>79.6</ele>
        <time>2020-08-13T19:12:49Z</time>
      </trkpt>
      <trkpt lat="48.803727" lon="-3.15888">
        <ele>79.6</ele>
        <time>2020-08-13T19:12:50Z</time>
      </trkpt>
      <trkpt lat="48.803748" lon="-3.158778">
        <ele>79.6</ele>
        <time>2020-08-13T19:12:51Z</time>
      </trkpt>
      <trkpt lat="48.803735" lon="-3.158672">
        <ele>79.6</ele>
        <time>2020-08-13T19:12:52Z</time>
      </trkpt>
      <trkpt lat="48.803701" lon="-3.158558">
        <ele>79.6</ele>
        <time>2020-08-13T19:12:52Z</time>
      </trkpt>
      <trkpt lat="48.803494" lon="-3.158243">
        <ele>80.4</ele>
        <time>2020-08-13T19:12:55Z</time>
      </trkpt>
      <trkpt lat="48.803465" lon="-3.158127">
        <ele>80.4</ele>
        <time>2020-08-13T19:12:56Z</time>
      </trkpt>
      <trkpt lat="48.803474" lon="-3.157725">
        <ele>80.4</ele>
        <time>2020-08-13T19:12:59Z</time>
      </trkpt>
      <trkpt lat="48.803591" lon="-3.157707">
        <ele>80.4</ele>
        <time>2020-08-13T19:13:00Z</time>
      </trkpt>
      <trkpt lat="48.804308" lon="-3.157787">
        <ele>79.2</ele>
        <time>2020-08-13T19:13:05Z</time>
      </trkpt>
      <trkpt lat="48.804498" lon="-3.157773">
        <ele>79.2</ele>
        <time>2020-08-13T19:13:07Z</time>
      </trkpt>
      <trkpt lat="48.804661" lon="-3.1577">
        <ele>79.2</ele>
        <time>2020-08-13T19:13:08Z</time>
      </trkpt>
      <trkpt lat="48.804853" lon="-3.157545">
        <ele>79.2</ele>
        <time>2020-08-13T19:13:09Z</time>
      </trkpt>
      <trkpt lat="48.805049" lon="-3.157305">
        <ele>78.8</ele>
        <time>2020-08-13T19:13:11Z</time>
      </trkpt>
      <trkpt lat="48.80578" lon="-3.15544">
        <ele>79.6</ele>
        <time>2020-08-13T19:13:22Z</time>
      </trkpt>
      <trkpt lat="48.805838" lon="-3.155221">
        <ele>77.2</ele>
        <time>2020-08-13T19:13:23Z</time>
      </trkpt>
      <trkpt lat="48.805901" lon="-3.15479">
        <ele>77.2</ele>
        <time>2020-08-13T19:13:25Z</time>
      </trkpt>
      <trkpt lat="48.805953" lon="-3.153567">
        <ele>77.0</ele>
        <time>2020-08-13T19:13:31Z</time>
      </trkpt>
      <trkpt lat="48.806218" lon="-3.151288">
        <ele>75.8</ele>
        <time>2020-08-13T19:13:42Z</time>
      </trkpt>
      <trkpt lat="48.806272" lon="-3.151037">
        <ele>75.8</ele>
        <time>2020-08-13T19:13:44Z</time>
      </trkpt>
      <trkpt lat="48.806379" lon="-3.150791">
        <ele>75.2</ele>
        <time>2020-08-13T19:13:45Z</time>
      </trkpt>
      <trkpt lat="48.806436" lon="-3.150722">
        <ele>75.2</ele>
        <time>2020-08-13T19:13:46Z</time>
      </trkpt>
      <trkpt lat="48.806501" lon="-3.150658">
        <ele>75.2</ele>
        <time>2020-08-13T19:13:46Z</time>
      </trkpt>
      <trkpt lat="48.806957" lon="-3.150341">
        <ele>73.4</ele>
        <time>2020-08-13T19:13:50Z</time>
      </trkpt>
      <trkpt lat="48.807243" lon="-3.150225">
        <ele>73.4</ele>
        <time>2020-08-13T19:13:52Z</time>
      </trkpt>
      <trkpt lat="48.807478" lon="-3.150183">
        <ele>73.4</ele>
        <time>2020-08-13T19:13:54Z</time>
      </trkpt>
      <trkpt lat="48.807958" lon="-3.150181">
        <ele>70.8</ele>
        <time>2020-08-13T19:13:58Z</time>
      </trkpt>
      <trkpt lat="48.808664" lon="-3.15028">
        <ele>67.6</ele>
        <time>2020-08-13T19:14:03Z</time>
      </trkpt>
      <trkpt lat="48.808842" lon="-3.150283">
        <ele>67.6</ele>
        <time>2020-08-13T19:14:04Z</time>
      </trkpt>
      <trkpt lat="48.809084" lon="-3.150243">
        <ele>67.6</ele>
        <time>2020-08-13T19:14:06Z</time>
      </trkpt>
      <trkpt lat="48.809506" lon="-3.150101">
        <ele>65.0</ele>
        <time>2020-08-13T19:14:09Z</time>
      </trkpt>
      <trkpt lat="48.81059" lon="-3.149358">
        <ele>63.2</ele>
        <time>2020-08-13T19:14:18Z</time>
      </trkpt>
      <trkpt lat="48.811016" lon="-3.149129">
        <ele>63.8</ele>
        <time>2020-08-13T19:14:21Z</time>
      </trkpt>
      <trkpt lat="48.811448" lon="-3.149039">
        <ele>63.8</ele>
        <time>2020-08-13T19:14:24Z</time>
      </trkpt>
      <trkpt lat="48.811675" lon="-3.149041">
        <ele>63.8</ele>
        <time>2020-08-13T19:14:26Z</time>
      </trkpt>
      <trkpt lat="48.811941" lon="-3.149088">
        <ele>63.8</ele>
        <time>2020-08-13T19:14:28Z</time>
      </trkpt>
      <trkpt lat="48.812498" lon="-3.14931">
        <ele>63.0</ele>
        <time>2020-08-13T19:14:32Z</time>
      </trkpt>
      <trkpt lat="48.812862" lon="-3.149385">
        <ele>63.0</ele>
        <time>2020-08-13T19:14:35Z</time>
      </trkpt>
      <trkpt lat="48.8132" lon="-3.149364">
        <ele>63.0</ele>
        <time>2020-08-13T19:14:38Z</time>
      </trkpt>
      <trkpt lat="48.813772" lon="-3.149131">
        <ele>61.6</ele>
        <time>2020-08-13T19:14:42Z</time>
      </trkpt>
      <trkpt lat="48.81403" lon="-3.149096">
        <ele>61.6</ele>
        <time>2020-08-13T19:14:44Z</time>
      </trkpt>
      <trkpt lat="48.814311" lon="-3.149112">
        <ele>60.2</ele>
        <time>2020-08-13T19:14:46Z</time>
      </trkpt>
      <trkpt lat="48.814784" lon="-3.149182">
        <ele>61.4</ele>
        <time>2020-08-13T19:14:49Z</time>
      </trkpt>
      <trkpt lat="48.815028" lon="-3.14924">
        <ele>59.2</ele>
        <time>2020-08-13T19:14:51Z</time>
      </trkpt>
      <trkpt lat="48.815253" lon="-3.149328">
        <ele>59.2</ele>
        <time>2020-08-13T19:14:53Z</time>
      </trkpt>
      <trkpt lat="48.815401" lon="-3.149415">
        <ele>59.2</ele>
        <time>2020-08-13T19:14:54Z</time>
      </trkpt>
      <trkpt lat="48.815682" lon="-3.149638">
        <ele>59.2</ele>
        <time>2020-08-13T19:14:57Z</time>
      </trkpt>
      <trkpt lat="48.816098" lon="-3.150017">
        <ele>56.0</ele>
        <time>2020-08-13T19:15:00Z</time>
      </trkpt>
      <trkpt lat="48.816232" lon="-3.150091">
        <ele>56.0</ele>
        <time>2020-08-13T19:15:01Z</time>
      </trkpt>
      <trkpt lat="48.816479" lon="-3.15017">
        <ele>56.0</ele>
        <time>2020-08-13T19:15:03Z</time>
      </trkpt>
      <trkpt lat="48.816826" lon="-3.150174">
        <ele>52.4</ele>
        <time>2020-08-13T19:15:06Z</time>
      </trkpt>
      <trkpt lat="48.816956" lon="-3.150136">
        <ele>52.4</ele>
        <time>2020-08-13T19:15:07Z</time>
      </trkpt>
      <trkpt lat="48.817184" lon="-3.150025">
        <ele>52.4</ele>
        <time>2020-08-13T19:15:08Z</time>
      </trkpt>
      <trkpt lat="48.817562" lon="-3.149744">
        <ele>48.8</ele>
        <time>2020-08-13T19:15:12Z</time>
      </trkpt>
      <trkpt lat="48.820869" lon="-3.147005">
        <ele>47.2</ele>
        <time>2020-08-13T19:15:39Z</time>
      </trkpt>
      <trkpt lat="48.821679" lon="-3.146283">
        <ele>48.4</ele>
        <time>2020-08-13T19:15:46Z</time>
      </trkpt>
      <trkpt lat="48.822127" lon="-3.145858">
        <ele>48.4</ele>
        <time>2020-08-13T19:15:50Z</time>
      </trkpt>
      <trkpt lat="48.822639" lon="-3.145472">
        <ele>49.6</ele>
        <time>2020-08-13T19:15:54Z</time>
      </trkpt>
      <trkpt lat="48.822853" lon="-3.145223">
        <ele>49.6</ele>
        <time>2020-08-13T19:15:56Z</time>
      </trkpt>
      <trkpt lat="48.82348" lon="-3.144376">
        <ele>51.0</ele>
        <time>2020-08-13T19:16:03Z</time>
      </trkpt>
      <trkpt lat="48.823695" lon="-3.14412">
        <ele>50.4</ele>
        <time>2020-08-13T19:16:05Z</time>
      </trkpt>
      <trkpt lat="48.823941" lon="-3.14391">
        <ele>50.4</ele>
        <time>2020-08-13T19:16:07Z</time>
      </trkpt>
      <trkpt lat="48.824241" lon="-3.143703">
        <ele>52.2</ele>
        <time>2020-08-13T19:16:09Z</time>
      </trkpt>
      <trkpt lat="48.825229" lon="-3.143345">
        <ele>52.2</ele>
        <time>2020-08-13T19:16:17Z</time>
      </trkpt>
      <trkpt lat="48.825389" lon="-3.143269">
        <ele>51.8</ele>
        <time>2020-08-13T19:16:18Z</time>
      </trkpt>
      <trkpt lat="48.825545" lon="-3.143152">
        <ele>51.8</ele>
        <time>2020-08-13T19:16:19Z</time>
      </trkpt>
      <trkpt lat="48.825855" lon="-3.14278">
        <ele>51.4</ele>
        <time>2020-08-13T19:16:22Z</time>
      </trkpt>
      <trkpt lat="48.826026" lon="-3.142613">
        <ele>51.4</ele>
        <time>2020-08-13T19:16:24Z</time>
      </trkpt>
      <trkpt lat="48.826207" lon="-3.142476">
        <ele>50.6</ele>
        <time>2020-08-13T19:16:25Z</time>
      </trkpt>
      <trkpt lat="48.826371" lon="-3.142382">
        <ele>50.6</ele>
        <time>2020-08-13T19:16:27Z</time>
      </trkpt>
      <trkpt lat="48.826642" lon="-3.142291">
        <ele>50.6</ele>
        <time>2020-08-13T19:16:29Z</time>
      </trkpt>
      <trkpt lat="48.827035" lon="-3.142236">
        <ele>49.6</ele>
        <time>2020-08-13T19:16:31Z</time>
      </trkpt>
      <trkpt lat="48.827303" lon="-3.142274">
        <ele>49.6</ele>
        <time>2020-08-13T19:16:33Z</time>
      </trkpt>
      <trkpt lat="48.827957" lon="-3.142512">
        <ele>49.4</ele>
        <time>2020-08-13T19:16:38Z</time>
      </trkpt>
      <trkpt lat="48.828109" lon="-3.142537">
        <ele>49.4</ele>
        <time>2020-08-13T19:16:40Z</time>
      </trkpt>
      <trkpt lat="48.82939" lon="-3.142501">
        <ele>48.6</ele>
        <time>2020-08-13T19:16:49Z</time>
      </trkpt>
      <trkpt lat="48.82985" lon="-3.142421">
        <ele>48.6</ele>
        <time>2020-08-13T19:16:52Z</time>
      </trkpt>
      <trkpt lat="48.830083" lon="-3.142333">
        <ele>49.0</ele>
        <time>2020-08-13T19:16:54Z</time>
      </trkpt>
      <trkpt lat="48.831134" lon="-3.141839">
        <ele>47.6</ele>
        <time>2020-08-13T19:17:02Z</time>
      </trkpt>
      <trkpt lat="48.831286" lon="-3.141813">
        <ele>47.6</ele>
        <time>2020-08-13T19:17:04Z</time>
      </trkpt>
      <trkpt lat="48.831668" lon="-3.14189">
        <ele>45.4</ele>
        <time>2020-08-13T19:17:06Z</time>
      </trkpt>
      <trkpt lat="48.832382" lon="-3.142153">
        <ele>45.4</ele>
        <time>2020-08-13T19:17:12Z</time>
      </trkpt>
      <trkpt lat="48.833022" lon="-3.142461">
        <ele>43.4</ele>
        <time>2020-08-13T19:17:17Z</time>
      </trkpt>
      <trkpt lat="48.83351" lon="-3.142569">
        <ele>41.8</ele>
        <time>2020-08-13T19:17:20Z</time>
      </trkpt>
      <trkpt lat="48.833954" lon="-3.142832">
        <ele>41.8</ele>
        <time>2020-08-13T19:17:24Z</time>
      </trkpt>
      <trkpt lat="48.834307" lon="-3.143127">
        <ele>42.2</ele>
        <time>2020-08-13T19:17:27Z</time>
      </trkpt>
      <trkpt lat="48.834539" lon="-3.143269">
        <ele>42.2</ele>
        <time>2020-08-13T19:17:29Z</time>
      </trkpt>
      <trkpt lat="48.834693" lon="-3.143304">
        <ele>42.2</ele>
        <time>2020-08-13T19:17:30Z</time>
      </trkpt>
      <trkpt lat="48.834847" lon="-3.143291">
        <ele>42.2</ele>
        <time>2020-08-13T19:17:31Z</time>
      </trkpt>
      <trkpt lat="48.835148" lon="-3.14316">
        <ele>42.6</ele>
        <time>2020-08-13T19:17:33Z</time>
      </trkpt>
      <trkpt lat="48.835706" lon="-3.142649">
        <ele>42.6</ele>
        <time>2020-08-13T19:17:38Z</time>
      </trkpt>
      <trkpt lat="48.83703" lon="-3.141719">
        <ele>43.8</ele>
        <time>2020-08-13T19:17:49Z</time>
      </trkpt>
      <trkpt lat="48.839153" lon="-3.1407">
        <ele>43.8</ele>
        <time>2020-08-13T19:18:05Z</time>
      </trkpt>
      <trkpt lat="48.839676" lon="-3.140526">
        <ele>45.4</ele>
        <time>2020-08-13T19:18:09Z</time>
      </trkpt>
      <trkpt lat="48.841486" lon="-3.139193">
        <ele>47.6</ele>
        <time>2020-08-13T19:18:24Z</time>
      </trkpt>
      <trkpt lat="48.841733" lon="-3.139034">
        <ele>48.2</ele>
        <time>2020-08-13T19:18:26Z</time>
      </trkpt>
      <trkpt lat="48.841945" lon="-3.138841">
        <ele>48.2</ele>
        <time>2020-08-13T19:18:28Z</time>
      </trkpt>
      <trkpt lat="48.842361" lon="-3.138702">
        <ele>48.2</ele>
        <time>2020-08-13T19:18:31Z</time>
      </trkpt>
      <trkpt lat="48.842539" lon="-3.138744">
        <ele>48.2</ele>
        <time>2020-08-13T19:18:33Z</time>
      </trkpt>
      <trkpt lat="48.8426" lon="-3.13873">
        <ele>48.2</ele>
        <time>2020-08-13T19:18:33Z</time>
      </trkpt>
      <trkpt lat="48.842978" lon="-3.138483">
        <ele>48.2</ele>
        <time>2020-08-13T19:18:36Z</time>
      </trkpt>
      <trkpt lat="48.843148" lon="-3.13811">
        <ele>48.4</ele>
        <time>2020-08-13T19:18:38Z</time>
      </trkpt>
      <trkpt lat="48.843268" lon="-3.137918">
        <ele>48.4</ele>
        <time>2020-08-13T19:18:40Z</time>
      </trkpt>
      <trkpt lat="48.844726" lon="-3.136724">
        <ele>43.8</ele>
        <time>2020-08-13T19:18:52Z</time>
      </trkpt>
      <trkpt lat="48.845664" lon="-3.135751">
        <ele>40.4</ele>
        <time>2020-08-13T19:19:00Z</time>
      </trkpt>
      <trkpt lat="48.845966" lon="-3.135408">
        <ele>39.6</ele>
        <time>2020-08-13T19:19:03Z</time>
      </trkpt>
      <trkpt lat="48.847042" lon="-3.133762">
        <ele>36.6</ele>
        <time>2020-08-13T19:19:14Z</time>
      </trkpt>
      <trkpt lat="48.847197" lon="-3.13347">
        <ele>36.6</ele>
        <time>2020-08-13T19:19:16Z</time>
      </trkpt>
      <trkpt lat="48.847428" lon="-3.13289">
        <ele>34.6</ele>
        <time>2020-08-13T19:19:19Z</time>
      </trkpt>
      <trkpt lat="48.847745" lon="-3.132023">
        <ele>35.0</ele>
        <time>2020-08-13T19:19:24Z</time>
      </trkpt>
      <trkpt lat="48.847912" lon="-3.131657">
        <ele>34.2</ele>
        <time>2020-08-13T19:19:26Z</time>
      </trkpt>
      <trkpt lat="48.848033" lon="-3.131474">
        <ele>34.2</ele>
        <time>2020-08-13T19:19:28Z</time>
      </trkpt>
      <trkpt lat="48.848165" lon="-3.131288">
        <ele>34.2</ele>
        <time>2020-08-13T19:19:29Z</time>
      </trkpt>
      <trkpt lat="48.848427" lon="-3.130981">
        <ele>35.6</ele>
        <time>2020-08-13T19:19:32Z</time>
      </trkpt>
      <trkpt lat="48.850285" lon="-3.128926">
        <ele>28.0</ele>
        <time>2020-08-13T19:19:49Z</time>
      </trkpt>
      <trkpt lat="48.850957" lon="-3.12822">
        <ele>21.8</ele>
        <time>2020-08-13T19:19:55Z</time>
      </trkpt>
      <trkpt lat="48.851431" lon="-3.127602">
        <ele>21.8</ele>
        <time>2020-08-13T19:19:59Z</time>
      </trkpt>
      <trkpt lat="48.851722" lon="-3.127105">
        <ele>17.8</ele>
        <time>2020-08-13T19:20:02Z</time>
      </trkpt>
      <trkpt lat="48.851921" lon="-3.126587">
        <ele>16.2</ele>
        <time>2020-08-13T19:20:05Z</time>
      </trkpt>
      <trkpt lat="48.852032" lon="-3.126215">
        <ele>16.2</ele>
        <time>2020-08-13T19:20:07Z</time>
      </trkpt>
      <trkpt lat="48.852473" lon="-3.124199">
        <ele>20.4</ele>
        <time>2020-08-13T19:20:18Z</time>
      </trkpt>
      <trkpt lat="48.852573" lon="-3.123804">
        <ele>17.8</ele>
        <time>2020-08-13T19:20:20Z</time>
      </trkpt>
      <trkpt lat="48.852654" lon="-3.123592">
        <ele>17.8</ele>
        <time>2020-08-13T19:20:21Z</time>
      </trkpt>
      <trkpt lat="48.852772" lon="-3.123349">
        <ele>17.8</ele>
        <time>2020-08-13T19:20:22Z</time>
      </trkpt>
      <trkpt lat="48.852828" lon="-3.123267">
        <ele>19.4</ele>
        <time>2020-08-13T19:20:23Z</time>
      </trkpt>
      <trkpt lat="48.853278" lon="-3.12276">
        <ele>19.4</ele>
        <time>2020-08-13T19:20:27Z</time>
      </trkpt>
      <trkpt lat="48.85347" lon="-3.122499">
        <ele>20.6</ele>
        <time>2020-08-13T19:20:29Z</time>
      </trkpt>
      <trkpt lat="48.853758" lon="-3.121986">
        <ele>20.6</ele>
        <time>2020-08-13T19:20:32Z</time>
      </trkpt>
      <trkpt lat="48.854309" lon="-3.120858">
        <ele>20.6</ele>
        <time>2020-08-13T19:20:39Z</time>
      </trkpt>
      <trkpt lat="48.854498" lon="-3.120405">
        <ele>21.6</ele>
        <time>2020-08-13T19:20:42Z</time>
      </trkpt>
      <trkpt lat="48.854724" lon="-3.119587">
        <ele>22.2</ele>
        <time>2020-08-13T19:20:46Z</time>
      </trkpt>
      <trkpt lat="48.854801" lon="-3.118805">
        <ele>21.6</ele>
        <time>2020-08-13T19:20:50Z</time>
      </trkpt>
      <trkpt lat="48.854834" lon="-3.118269">
        <ele>21.4</ele>
        <time>2020-08-13T19:20:53Z</time>
      </trkpt>
      <trkpt lat="48.854843" lon="-3.117786">
        <ele>21.4</ele>
        <time>2020-08-13T19:20:55Z</time>
      </trkpt>
      <trkpt lat="48.854895" lon="-3.117297">
        <ele>21.4</ele>
        <time>2020-08-13T19:20:57Z</time>
      </trkpt>
      <trkpt lat="48.854959" lon="-3.116961">
        <ele>21.4</ele>
        <time>2020-08-13T19:20:59Z</time>
      </trkpt>
      <trkpt lat="48.855049" lon="-3.116601">
        <ele>22.2</ele>
        <time>2020-08-13T19:21:01Z</time>
      </trkpt>
      <trkpt lat="48.855172" lon="-3.116225">
        <ele>22.2</ele>
        <time>2020-08-13T19:21:03Z</time>
      </trkpt>
      <trkpt lat="48.855289" lon="-3.115958">
        <ele>22.2</ele>
        <time>2020-08-13T19:21:05Z</time>
      </trkpt>
      <trkpt lat="48.855799" lon="-3.114923">
        <ele>23.0</ele>
        <time>2020-08-13T19:21:11Z</time>
      </trkpt>
      <trkpt lat="48.856117" lon="-3.114239">
        <ele>22.4</ele>
        <time>2020-08-13T19:21:15Z</time>
      </trkpt>
      <trkpt lat="48.85618" lon="-3.114065">
        <ele>21.8</ele>
        <time>2020-08-13T19:21:16Z</time>
      </trkpt>
      <trkpt lat="48.856558" lon="-3.112818">
        <ele>22.2</ele>
        <time>2020-08-13T19:21:23Z</time>
      </trkpt>
      <trkpt lat="48.857252" lon="-3.110854">
        <ele>21.4</ele>
        <time>2020-08-13T19:21:33Z</time>
      </trkpt>
      <trkpt lat="48.857388" lon="-3.110426">
        <ele>22.4</ele>
        <time>2020-08-13T19:21:36Z</time>
      </trkpt>
      <trkpt lat="48.857453" lon="-3.110131">
        <ele>22.4</ele>
        <time>2020-08-13T19:21:37Z</time>
      </trkpt>
      <trkpt lat="48.85766" lon="-3.108896">
        <ele>20.6</ele>
        <time>2020-08-13T19:21:44Z</time>
      </trkpt>
      <trkpt lat="48.857591" lon="-3.108906">
        <ele>20.6</ele>
        <time>2020-08-13T19:21:47Z</time>
      </trkpt>
      <trkpt lat="48.857462" lon="-3.109011">
        <ele>24.4</ele>
        <time>2020-08-13T19:21:54Z</time>
      </trkpt>
      <trkpt lat="48.857462" lon="-3.109011">
        <ele>24.4</ele>
        <time>2020-08-13T19:21:54Z</time>
      </trkpt>
      <trkpt lat="48.857591" lon="-3.108906">
        <ele>20.6</ele>
        <time>2020-08-13T19:22:01Z</time>
      </trkpt>
      <trkpt lat="48.85766" lon="-3.108896">
        <ele>20.6</ele>
        <time>2020-08-13T19:22:04Z</time>
      </trkpt>
      <trkpt lat="48.857897" lon="-3.107446">
        <ele>19.6</ele>
        <time>2020-08-13T19:22:14Z</time>
      </trkpt>
      <trkpt lat="48.858255" lon="-3.105768">
        <ele>18.4</ele>
        <time>2020-08-13T19:22:26Z</time>
      </trkpt>
      <trkpt lat="48.855777" lon="-3.105765">
        <ele>31.2</ele>
        <time>2020-08-13T19:22:52Z</time>
      </trkpt>
      <trkpt lat="48.855336" lon="-3.105822">
        <ele>31.2</ele>
        <time>2020-08-13T19:22:57Z</time>
      </trkpt>
      <trkpt lat="48.853385" lon="-3.1063">
        <ele>38.6</ele>
        <time>2020-08-13T19:23:17Z</time>
      </trkpt>
      <trkpt lat="48.850882" lon="-3.10715">
        <ele>37.8</ele>
        <time>2020-08-13T19:23:44Z</time>
      </trkpt>
      <trkpt lat="48.850647" lon="-3.10718">
        <ele>36.0</ele>
        <time>2020-08-13T19:23:47Z</time>
      </trkpt>
      <trkpt lat="48.850257" lon="-3.107127">
        <ele>36.0</ele>
        <time>2020-08-13T19:23:51Z</time>
      </trkpt>
      <trkpt lat="48.849865" lon="-3.106831">
        <ele>33.2</ele>
        <time>2020-08-13T19:23:55Z</time>
      </trkpt>
      <trkpt lat="48.849629" lon="-3.106473">
        <ele>32.4</ele>
        <time>2020-08-13T19:23:59Z</time>
      </trkpt>
      <trkpt lat="48.849225" lon="-3.105739">
        <ele>32.0</ele>
        <time>2020-08-13T19:24:05Z</time>
      </trkpt>
      <trkpt lat="48.848912" lon="-3.105347">
        <ele>30.8</ele>
        <time>2020-08-13T19:24:10Z</time>
      </trkpt>
      <trkpt lat="48.848591" lon="-3.105117">
        <ele>30.8</ele>
        <time>2020-08-13T19:24:13Z</time>
      </trkpt>
      <trkpt lat="48.848453" lon="-3.10507">
        <ele>30.8</ele>
        <time>2020-08-13T19:24:15Z</time>
      </trkpt>
      <trkpt lat="48.848121" lon="-3.105007">
        <ele>31.6</ele>
        <time>2020-08-13T19:24:18Z</time>
      </trkpt>
      <trkpt lat="48.847621" lon="-3.104994">
        <ele>31.6</ele>
        <time>2020-08-13T19:24:24Z</time>
      </trkpt>
      <trkpt lat="48.846084" lon="-3.105008">
        <ele>35.8</ele>
        <time>2020-08-13T19:24:40Z</time>
      </trkpt>
      <trkpt lat="48.844393" lon="-3.10537">
        <ele>41.2</ele>
        <time>2020-08-13T19:24:58Z</time>
      </trkpt>
      <trkpt lat="48.843829" lon="-3.105586">
        <ele>42.8</ele>
        <time>2020-08-13T19:25:04Z</time>
      </trkpt>
      <trkpt lat="48.843686" lon="-3.10568">
        <ele>42.8</ele>
        <time>2020-08-13T19:25:05Z</time>
      </trkpt>
      <trkpt lat="48.842999" lon="-3.106315">
        <ele>45.4</ele>
        <time>2020-08-13T19:25:14Z</time>
      </trkpt>
      <trkpt lat="48.842376" lon="-3.106709">
        <ele>46.0</ele>
        <time>2020-08-13T19:25:21Z</time>
      </trkpt>
      <trkpt lat="48.841982" lon="-3.107009">
        <ele>46.0</ele>
        <time>2020-08-13T19:25:26Z</time>
      </trkpt>
      <trkpt lat="48.841918" lon="-3.107031">
        <ele>46.0</ele>
        <time>2020-08-13T19:25:26Z</time>
      </trkpt>
      <trkpt lat="48.841869" lon="-3.107023">
        <ele>46.0</ele>
        <time>2020-08-13T19:25:27Z</time>
      </trkpt>
      <trkpt lat="48.841778" lon="-3.107004">
        <ele>46.0</ele>
        <time>2020-08-13T19:25:28Z</time>
      </trkpt>
      <trkpt lat="48.841573" lon="-3.106898">
        <ele>44.8</ele>
        <time>2020-08-13T19:25:30Z</time>
      </trkpt>
      <trkpt lat="48.841332" lon="-3.10674">
        <ele>44.8</ele>
        <time>2020-08-13T19:25:33Z</time>
      </trkpt>
      <trkpt lat="48.841247" lon="-3.106647">
        <ele>44.4</ele>
        <time>2020-08-13T19:25:34Z</time>
      </trkpt>
      <trkpt lat="48.841134" lon="-3.106478">
        <ele>44.4</ele>
        <time>2020-08-13T19:25:35Z</time>
      </trkpt>
      <trkpt lat="48.840841" lon="-3.105875">
        <ele>44.4</ele>
        <time>2020-08-13T19:25:41Z</time>
      </trkpt>
      <trkpt lat="48.840697" lon="-3.105667">
        <ele>40.0</ele>
        <time>2020-08-13T19:25:43Z</time>
      </trkpt>
      <trkpt lat="48.840615" lon="-3.105595">
        <ele>40.0</ele>
        <time>2020-08-13T19:25:44Z</time>
      </trkpt>
      <trkpt lat="48.839277" lon="-3.104776">
        <ele>34.0</ele>
        <time>2020-08-13T19:25:59Z</time>
      </trkpt>
      <trkpt lat="48.839038" lon="-3.104678">
        <ele>31.4</ele>
        <time>2020-08-13T19:26:01Z</time>
      </trkpt>
      <trkpt lat="48.838125" lon="-3.104496">
        <ele>32.4</ele>
        <time>2020-08-13T19:26:11Z</time>
      </trkpt>
      <trkpt lat="48.837834" lon="-3.104527">
        <ele>32.4</ele>
        <time>2020-08-13T19:26:14Z</time>
      </trkpt>
      <trkpt lat="48.837652" lon="-3.10459">
        <ele>32.4</ele>
        <time>2020-08-13T19:26:16Z</time>
      </trkpt>
      <trkpt lat="48.837028" lon="-3.10497">
        <ele>35.2</ele>
        <time>2020-08-13T19:26:23Z</time>
      </trkpt>
      <trkpt lat="48.836827" lon="-3.105052">
        <ele>37.0</ele>
        <time>2020-08-13T19:26:25Z</time>
      </trkpt>
      <trkpt lat="48.835082" lon="-3.105099">
        <ele>37.2</ele>
        <time>2020-08-13T19:26:44Z</time>
      </trkpt>
      <trkpt lat="48.834316" lon="-3.10507">
        <ele>36.2</ele>
        <time>2020-08-13T19:26:52Z</time>
      </trkpt>
      <trkpt lat="48.833753" lon="-3.105116">
        <ele>36.0</ele>
        <time>2020-08-13T19:26:58Z</time>
      </trkpt>
      <trkpt lat="48.833305" lon="-3.105097">
        <ele>34.6</ele>
        <time>2020-08-13T19:27:02Z</time>
      </trkpt>
      <trkpt lat="48.833192" lon="-3.105058">
        <ele>34.6</ele>
        <time>2020-08-13T19:27:04Z</time>
      </trkpt>
      <trkpt lat="48.833104" lon="-3.105007">
        <ele>34.6</ele>
        <time>2020-08-13T19:27:05Z</time>
      </trkpt>
      <trkpt lat="48.832163" lon="-3.104186">
        <ele>30.0</ele>
        <time>2020-08-13T19:27:16Z</time>
      </trkpt>
      <trkpt lat="48.831067" lon="-3.103201">
        <ele>22.0</ele>
        <time>2020-08-13T19:27:29Z</time>
      </trkpt>
      <trkpt lat="48.830407" lon="-3.102933">
        <ele>22.4</ele>
        <time>2020-08-13T19:27:36Z</time>
      </trkpt>
      <trkpt lat="48.830215" lon="-3.102816">
        <ele>22.4</ele>
        <time>2020-08-13T19:27:39Z</time>
      </trkpt>
      <trkpt lat="48.829725" lon="-3.101887">
        <ele>27.0</ele>
        <time>2020-08-13T19:27:47Z</time>
      </trkpt>
      <trkpt lat="48.829565" lon="-3.101703">
        <ele>27.0</ele>
        <time>2020-08-13T19:27:49Z</time>
      </trkpt>
      <trkpt lat="48.829394" lon="-3.101586">
        <ele>25.4</ele>
        <time>2020-08-13T19:27:51Z</time>
      </trkpt>
      <trkpt lat="48.829161" lon="-3.101466">
        <ele>29.0</ele>
        <time>2020-08-13T19:27:54Z</time>
      </trkpt>
      <trkpt lat="48.828798" lon="-3.101342">
        <ele>29.0</ele>
        <time>2020-08-13T19:27:57Z</time>
      </trkpt>
      <trkpt lat="48.828557" lon="-3.10133">
        <ele>29.0</ele>
        <time>2020-08-13T19:28:00Z</time>
      </trkpt>
      <trkpt lat="48.827775" lon="-3.101458">
        <ele>31.2</ele>
        <time>2020-08-13T19:28:08Z</time>
      </trkpt>
      <trkpt lat="48.827608" lon="-3.101463">
        <ele>31.2</ele>
        <time>2020-08-13T19:28:10Z</time>
      </trkpt>
      <trkpt lat="48.827277" lon="-3.101382">
        <ele>32.8</ele>
        <time>2020-08-13T19:28:13Z</time>
      </trkpt>
      <trkpt lat="48.825616" lon="-3.100639">
        <ele>38.6</ele>
        <time>2020-08-13T19:28:32Z</time>
      </trkpt>
      <trkpt lat="48.824067" lon="-3.099827">
        <ele>51.4</ele>
        <time>2020-08-13T19:28:49Z</time>
      </trkpt>
      <trkpt lat="48.823719" lon="-3.099622">
        <ele>51.4</ele>
        <time>2020-08-13T19:28:53Z</time>
      </trkpt>
      <trkpt lat="48.822627" lon="-3.098903">
        <ele>55.2</ele>
        <time>2020-08-13T19:29:05Z</time>
      </trkpt>
      <trkpt lat="48.82186" lon="-3.098511">
        <ele>57.4</ele>
        <time>2020-08-13T19:29:14Z</time>
      </trkpt>
      <trkpt lat="48.821748" lon="-3.098485">
        <ele>57.4</ele>
        <time>2020-08-13T19:29:15Z</time>
      </trkpt>
      <trkpt lat="48.82139" lon="-3.098464">
        <ele>58.4</ele>
        <time>2020-08-13T19:29:19Z</time>
      </trkpt>
      <trkpt lat="48.820505" lon="-3.098485">
        <ele>58.4</ele>
        <time>2020-08-13T19:29:28Z</time>
      </trkpt>
      <trkpt lat="48.82023" lon="-3.098513">
        <ele>58.4</ele>
        <time>2020-08-13T19:29:31Z</time>
      </trkpt>
      <trkpt lat="48.819967" lon="-3.09859">
        <ele>57.6</ele>
        <time>2020-08-13T19:29:34Z</time>
      </trkpt>
      <trkpt lat="48.818548" lon="-3.099097">
        <ele>55.8</ele>
        <time>2020-08-13T19:29:49Z</time>
      </trkpt>
      <trkpt lat="48.818235" lon="-3.099234">
        <ele>57.2</ele>
        <time>2020-08-13T19:29:52Z</time>
      </trkpt>
      <trkpt lat="48.817698" lon="-3.099575">
        <ele>57.2</ele>
        <time>2020-08-13T19:29:58Z</time>
      </trkpt>
      <trkpt lat="48.817315" lon="-3.099873">
        <ele>56.2</ele>
        <time>2020-08-13T19:30:03Z</time>
      </trkpt>
      <trkpt lat="48.816465" lon="-3.10064">
        <ele>57.6</ele>
        <time>2020-08-13T19:30:13Z</time>
      </trkpt>
      <trkpt lat="48.816225" lon="-3.100803">
        <ele>57.6</ele>
        <time>2020-08-13T19:30:16Z</time>
      </trkpt>
      <trkpt lat="48.815934" lon="-3.10096">
        <ele>59.2</ele>
        <time>2020-08-13T19:30:19Z</time>
      </trkpt>
      <trkpt lat="48.81578" lon="-3.101008">
        <ele>60.2</ele>
        <time>2020-08-13T19:30:21Z</time>
      </trkpt>
      <trkpt lat="48.815274" lon="-3.101055">
        <ele>60.2</ele>
        <time>2020-08-13T19:30:27Z</time>
      </trkpt>
      <trkpt lat="48.815326" lon="-3.100029">
        <ele>58.6</ele>
        <time>2020-08-13T19:30:34Z</time>
      </trkpt>
      <trkpt lat="48.815382" lon="-3.099645">
        <ele>57.0</ele>
        <time>2020-08-13T19:30:37Z</time>
      </trkpt>
      <trkpt lat="48.815382" lon="-3.099645">
        <ele>57.0</ele>
        <time>2020-08-13T19:30:37Z</time>
      </trkpt>
      <trkpt lat="48.815326" lon="-3.100029">
        <ele>58.6</ele>
        <time>2020-08-13T19:30:40Z</time>
      </trkpt>
      <trkpt lat="48.815274" lon="-3.101055">
        <ele>60.2</ele>
        <time>2020-08-13T19:30:48Z</time>
      </trkpt>
      <trkpt lat="48.814987" lon="-3.10112">
        <ele>61.0</ele>
        <time>2020-08-13T19:30:51Z</time>
      </trkpt>
      <trkpt lat="48.814796" lon="-3.101198">
        <ele>61.0</ele>
        <time>2020-08-13T19:30:53Z</time>
      </trkpt>
      <trkpt lat="48.81381" lon="-3.101715">
        <ele>61.6</ele>
        <time>2020-08-13T19:31:03Z</time>
      </trkpt>
      <trkpt lat="48.812841" lon="-3.102287">
        <ele>60.6</ele>
        <time>2020-08-13T19:31:12Z</time>
      </trkpt>
      <trkpt lat="48.812533" lon="-3.102492">
        <ele>60.6</ele>
        <time>2020-08-13T19:31:16Z</time>
      </trkpt>
      <trkpt lat="48.812229" lon="-3.102751">
        <ele>60.4</ele>
        <time>2020-08-13T19:31:19Z</time>
      </trkpt>
      <trkpt lat="48.811469" lon="-3.103528">
        <ele>60.2</ele>
        <time>2020-08-13T19:31:28Z</time>
      </trkpt>
      <trkpt lat="48.811215" lon="-3.103715">
        <ele>60.2</ele>
        <time>2020-08-13T19:31:30Z</time>
      </trkpt>
      <trkpt lat="48.810999" lon="-3.10384">
        <ele>60.2</ele>
        <time>2020-08-13T19:31:32Z</time>
      </trkpt>
      <trkpt lat="48.809943" lon="-3.10419">
        <ele>60.0</ele>
        <time>2020-08-13T19:31:43Z</time>
      </trkpt>
      <trkpt lat="48.809708" lon="-3.104324">
        <ele>60.0</ele>
        <time>2020-08-13T19:31:45Z</time>
      </trkpt>
      <trkpt lat="48.80792" lon="-3.105515">
        <ele>61.2</ele>
        <time>2020-08-13T19:32:03Z</time>
      </trkpt>
      <trkpt lat="48.806754" lon="-3.105994">
        <ele>61.0</ele>
        <time>2020-08-13T19:32:15Z</time>
      </trkpt>
      <trkpt lat="48.806519" lon="-3.106049">
        <ele>59.0</ele>
        <time>2020-08-13T19:32:17Z</time>
      </trkpt>
      <trkpt lat="48.806352" lon="-3.106066">
        <ele>59.0</ele>
        <time>2020-08-13T19:32:19Z</time>
      </trkpt>
      <trkpt lat="48.805218" lon="-3.105974">
        <ele>56.6</ele>
        <time>2020-08-13T19:32:29Z</time>
      </trkpt>
      <trkpt lat="48.805037" lon="-3.105996">
        <ele>56.6</ele>
        <time>2020-08-13T19:32:31Z</time>
      </trkpt>
      <trkpt lat="48.804869" lon="-3.106063">
        <ele>56.6</ele>
        <time>2020-08-13T19:32:33Z</time>
      </trkpt>
      <trkpt lat="48.804341" lon="-3.10647">
        <ele>56.6</ele>
        <time>2020-08-13T19:32:38Z</time>
      </trkpt>
      <trkpt lat="48.803525" lon="-3.106789">
        <ele>59.8</ele>
        <time>2020-08-13T19:32:46Z</time>
      </trkpt>
      <trkpt lat="48.802539" lon="-3.107247">
        <ele>58.0</ele>
        <time>2020-08-13T19:32:56Z</time>
      </trkpt>
      <trkpt lat="48.802191" lon="-3.107385">
        <ele>55.8</ele>
        <time>2020-08-13T19:32:59Z</time>
      </trkpt>
      <trkpt lat="48.801833" lon="-3.107493">
        <ele>55.8</ele>
        <time>2020-08-13T19:33:03Z</time>
      </trkpt>
      <trkpt lat="48.801632" lon="-3.107521">
        <ele>56.6</ele>
        <time>2020-08-13T19:33:05Z</time>
      </trkpt>
      <trkpt lat="48.801345" lon="-3.107504">
        <ele>56.6</ele>
        <time>2020-08-13T19:33:07Z</time>
      </trkpt>
      <trkpt lat="48.800315" lon="-3.107354">
        <ele>52.0</ele>
        <time>2020-08-13T19:33:17Z</time>
      </trkpt>
      <trkpt lat="48.800193" lon="-3.107318">
        <ele>52.0</ele>
        <time>2020-08-13T19:33:18Z</time>
      </trkpt>
      <trkpt lat="48.798826" lon="-3.106497">
        <ele>58.4</ele>
        <time>2020-08-13T19:33:32Z</time>
      </trkpt>
      <trkpt lat="48.798633" lon="-3.106426">
        <ele>58.4</ele>
        <time>2020-08-13T19:33:34Z</time>
      </trkpt>
      <trkpt lat="48.79845" lon="-3.106412">
        <ele>58.4</ele>
        <time>2020-08-13T19:33:36Z</time>
      </trkpt>
      <trkpt lat="48.7979" lon="-3.106466">
        <ele>60.0</ele>
        <time>2020-08-13T19:33:41Z</time>
      </trkpt>
      <trkpt lat="48.797605" lon="-3.106457">
        <ele>60.0</ele>
        <time>2020-08-13T19:33:44Z</time>
      </trkpt>
      <trkpt lat="48.796728" lon="-3.106072">
        <ele>61.0</ele>
        <time>2020-08-13T19:33:52Z</time>
      </trkpt>
      <trkpt lat="48.79645" lon="-3.106003">
        <ele>61.8</ele>
        <time>2020-08-13T19:33:55Z</time>
      </trkpt>
      <trkpt lat="48.795961" lon="-3.105988">
        <ele>61.8</ele>
        <time>2020-08-13T19:34:00Z</time>
      </trkpt>
      <trkpt lat="48.795309" lon="-3.106077">
        <ele>61.0</ele>
        <time>2020-08-13T19:34:06Z</time>
      </trkpt>
      <trkpt lat="48.794981" lon="-3.106079">
        <ele>59.0</ele>
        <time>2020-08-13T19:34:09Z</time>
      </trkpt>
      <trkpt lat="48.794643" lon="-3.10611">
        <ele>59.0</ele>
        <time>2020-08-13T19:34:12Z</time>
      </trkpt>
      <trkpt lat="48.794582" lon="-3.106105">
        <ele>59.0</ele>
        <time>2020-08-13T19:34:13Z</time>
      </trkpt>
      <trkpt lat="48.794547" lon="-3.10608">
        <ele>59.0</ele>
        <time>2020-08-13T19:34:13Z</time>
      </trkpt>
      <trkpt lat="48.794476" lon="-3.106185">
        <ele>59.0</ele>
        <time>2020-08-13T19:34:15Z</time>
      </trkpt>
      <trkpt lat="48.793813" lon="-3.106403">
        <ele>55.4</ele>
        <time>2020-08-13T19:34:28Z</time>
      </trkpt>
      <trkpt lat="48.792788" lon="-3.106648">
        <ele>52.2</ele>
        <time>2020-08-13T19:34:47Z</time>
      </trkpt>
      <trkpt lat="48.792663" lon="-3.106658">
        <ele>52.2</ele>
        <time>2020-08-13T19:34:49Z</time>
      </trkpt>
      <trkpt lat="48.792529" lon="-3.106627">
        <ele>52.2</ele>
        <time>2020-08-13T19:34:51Z</time>
      </trkpt>
      <trkpt lat="48.791523" lon="-3.106219">
        <ele>48.4</ele>
        <time>2020-08-13T19:35:11Z</time>
      </trkpt>
      <trkpt lat="48.791426" lon="-3.106185">
        <ele>48.4</ele>
        <time>2020-08-13T19:35:12Z</time>
      </trkpt>
      <trkpt lat="48.791316" lon="-3.106181">
        <ele>48.4</ele>
        <time>2020-08-13T19:35:14Z</time>
      </trkpt>
      <trkpt lat="48.791012" lon="-3.106212">
        <ele>48.4</ele>
        <time>2020-08-13T19:35:20Z</time>
      </trkpt>
      <trkpt lat="48.790486" lon="-3.106312">
        <ele>43.8</ele>
        <time>2020-08-13T19:35:30Z</time>
      </trkpt>
      <trkpt lat="48.790169" lon="-3.106302">
        <ele>43.8</ele>
        <time>2020-08-13T19:35:36Z</time>
      </trkpt>
      <trkpt lat="48.78993" lon="-3.106359">
        <ele>34.6</ele>
        <time>2020-08-13T19:35:40Z</time>
      </trkpt>
      <trkpt lat="48.78934" lon="-3.106589">
        <ele>34.6</ele>
        <time>2020-08-13T19:35:52Z</time>
      </trkpt>
      <trkpt lat="48.789021" lon="-3.106677">
        <ele>28.2</ele>
        <time>2020-08-13T19:35:58Z</time>
      </trkpt>
      <trkpt lat="48.788862" lon="-3.106506">
        <ele>24.2</ele>
        <time>2020-08-13T19:36:02Z</time>
      </trkpt>
      <trkpt lat="48.78854" lon="-3.106047">
        <ele>24.2</ele>
        <time>2020-08-13T19:36:10Z</time>
      </trkpt>
      <trkpt lat="48.78803" lon="-3.105643">
        <ele>15.2</ele>
        <time>2020-08-13T19:36:20Z</time>
      </trkpt>
      <trkpt lat="48.787985" lon="-3.10556">
        <ele>15.2</ele>
        <time>2020-08-13T19:36:22Z</time>
      </trkpt>
      <trkpt lat="48.787935" lon="-3.105345">
        <ele>15.2</ele>
        <time>2020-08-13T19:36:25Z</time>
      </trkpt>
      <trkpt lat="48.787699" lon="-3.104951">
        <ele>14.2</ele>
        <time>2020-08-13T19:36:31Z</time>
      </trkpt>
      <trkpt lat="48.787701" lon="-3.104891">
        <ele>14.2</ele>
        <time>2020-08-13T19:36:32Z</time>
      </trkpt>
      <trkpt lat="48.787252" lon="-3.104844">
        <ele>19.0</ele>
        <time>2020-08-13T19:36:42Z</time>
      </trkpt>
      <trkpt lat="48.786987" lon="-3.104866">
        <ele>19.0</ele>
        <time>2020-08-13T19:36:48Z</time>
      </trkpt>
      <trkpt lat="48.78677" lon="-3.104916">
        <ele>19.0</ele>
        <time>2020-08-13T19:36:53Z</time>
      </trkpt>
      <trkpt lat="48.7866" lon="-3.105003">
        <ele>22.4</ele>
        <time>2020-08-13T19:36:58Z</time>
      </trkpt>
      <trkpt lat="48.786519" lon="-3.105101">
        <ele>22.4</ele>
        <time>2020-08-13T19:37:00Z</time>
      </trkpt>
      <trkpt lat="48.786339" lon="-3.105453">
        <ele>22.4</ele>
        <time>2020-08-13T19:37:07Z</time>
      </trkpt>
      <trkpt lat="48.785791" lon="-3.106986">
        <ele>23.8</ele>
        <time>2020-08-13T19:37:33Z</time>
      </trkpt>
      <trkpt lat="48.78572" lon="-3.106953">
        <ele>23.8</ele>
        <time>2020-08-13T19:37:35Z</time>
      </trkpt>
      <trkpt lat="48.78531" lon="-3.106628">
        <ele>24.0</ele>
        <time>2020-08-13T19:37:46Z</time>
      </trkpt>
      <trkpt lat="48.784766" lon="-3.106461">
        <ele>22.0</ele>
        <time>2020-08-13T19:37:58Z</time>
      </trkpt>
      <trkpt lat="48.784257" lon="-3.106274">
        <ele>22.0</ele>
        <time>2020-08-13T19:38:10Z</time>
      </trkpt>
      <trkpt lat="48.784135" lon="-3.10626">
        <ele>17.0</ele>
        <time>2020-08-13T19:38:13Z</time>
      </trkpt>
      <trkpt lat="48.783945" lon="-3.106282">
        <ele>17.0</ele>
        <time>2020-08-13T19:38:16Z</time>
      </trkpt>
      <trkpt lat="48.783825" lon="-3.106338">
        <ele>17.0</ele>
        <time>2020-08-13T19:38:18Z</time>
      </trkpt>
      <trkpt lat="48.783617" lon="-3.106533">
        <ele>17.0</ele>
        <time>2020-08-13T19:38:21Z</time>
      </trkpt>
      <trkpt lat="48.782586" lon="-3.107753">
        <ele>18.4</ele>
        <time>2020-08-13T19:38:39Z</time>
      </trkpt>
      <trkpt lat="48.782386" lon="-3.107922">
        <ele>13.4</ele>
        <time>2020-08-13T19:38:42Z</time>
      </trkpt>
      <trkpt lat="48.782222" lon="-3.107984">
        <ele>13.4</ele>
        <time>2020-08-13T19:38:44Z</time>
      </trkpt>
      <trkpt lat="48.782038" lon="-3.107996">
        <ele>13.4</ele>
        <time>2020-08-13T19:38:47Z</time>
      </trkpt>
      <trkpt lat="48.781872" lon="-3.108122">
        <ele>13.4</ele>
        <time>2020-08-13T19:38:49Z</time>
      </trkpt>
      <trkpt lat="48.781829" lon="-3.108199">
        <ele>13.4</ele>
        <time>2020-08-13T19:38:50Z</time>
      </trkpt>
      <trkpt lat="48.781509" lon="-3.107617">
        <ele>10.2</ele>
        <time>2020-08-13T19:38:53Z</time>
      </trkpt>
      <trkpt lat="48.780061" lon="-3.105154">
        <ele>1.2</ele>
        <time>2020-08-13T19:39:06Z</time>
      </trkpt>
      <trkpt lat="48.779968" lon="-3.104946">
        <ele>3.4</ele>
        <time>2020-08-13T19:39:07Z</time>
      </trkpt>
      <trkpt lat="48.779848" lon="-3.104547">
        <ele>3.4</ele>
        <time>2020-08-13T19:39:08Z</time>
      </trkpt>
      <trkpt lat="48.779727" lon="-3.103959">
        <ele>6.4</ele>
        <time>2020-08-13T19:39:10Z</time>
      </trkpt>
      <trkpt lat="48.77964" lon="-3.103673">
        <ele>6.4</ele>
        <time>2020-08-13T19:39:12Z</time>
      </trkpt>
      <trkpt lat="48.779556" lon="-3.103406">
        <ele>6.4</ele>
        <time>2020-08-13T19:39:13Z</time>
      </trkpt>
      <trkpt lat="48.77941" lon="-3.103043">
        <ele>8.6</ele>
        <time>2020-08-13T19:39:14Z</time>
      </trkpt>
      <trkpt lat="48.779286" lon="-3.102781">
        <ele>8.6</ele>
        <time>2020-08-13T19:39:16Z</time>
      </trkpt>
      <trkpt lat="48.77903" lon="-3.102326">
        <ele>6.4</ele>
        <time>2020-08-13T19:39:18Z</time>
      </trkpt>
      <trkpt lat="48.778389" lon="-3.101428">
        <ele>12.4</ele>
        <time>2020-08-13T19:39:23Z</time>
      </trkpt>
      <trkpt lat="48.778" lon="-3.100986">
        <ele>5.6</ele>
        <time>2020-08-13T19:39:26Z</time>
      </trkpt>
      <trkpt lat="48.777821" lon="-3.100835">
        <ele>5.6</ele>
        <time>2020-08-13T19:39:27Z</time>
      </trkpt>
      <trkpt lat="48.777608" lon="-3.100691">
        <ele>11.4</ele>
        <time>2020-08-13T19:39:28Z</time>
      </trkpt>
      <trkpt lat="48.773785" lon="-3.098296">
        <ele>15.0</ele>
        <time>2020-08-13T19:39:52Z</time>
      </trkpt>
      <trkpt lat="48.772426" lon="-3.097419">
        <ele>17.4</ele>
        <time>2020-08-13T19:40:00Z</time>
      </trkpt>
      <trkpt lat="48.771905" lon="-3.096983">
        <ele>17.4</ele>
        <time>2020-08-13T19:40:04Z</time>
      </trkpt>
      <trkpt lat="48.771324" lon="-3.096382">
        <ele>19.6</ele>
        <time>2020-08-13T19:40:08Z</time>
      </trkpt>
      <trkpt lat="48.770958" lon="-3.095908">
        <ele>19.6</ele>
        <time>2020-08-13T19:40:11Z</time>
      </trkpt>
      <trkpt lat="48.770596" lon="-3.095371">
        <ele>20.2</ele>
        <time>2020-08-13T19:40:13Z</time>
      </trkpt>
      <trkpt lat="48.770301" lon="-3.09485">
        <ele>23.8</ele>
        <time>2020-08-13T19:40:16Z</time>
      </trkpt>
      <trkpt lat="48.769936" lon="-3.094099">
        <ele>19.2</ele>
        <time>2020-08-13T19:40:20Z</time>
      </trkpt>
      <trkpt lat="48.769628" lon="-3.093311">
        <ele>21.0</ele>
        <time>2020-08-13T19:40:23Z</time>
      </trkpt>
      <trkpt lat="48.76646" lon="-3.084455">
        <ele>27.8</ele>
        <time>2020-08-13T19:41:01Z</time>
      </trkpt>
      <trkpt lat="48.764723" lon="-3.07969">
        <ele>36.8</ele>
        <time>2020-08-13T19:41:22Z</time>
      </trkpt>
      <trkpt lat="48.764455" lon="-3.078828">
        <ele>36.4</ele>
        <time>2020-08-13T19:41:25Z</time>
      </trkpt>
      <trkpt lat="48.764238" lon="-3.077912">
        <ele>35.6</ele>
        <time>2020-08-13T19:41:29Z</time>
      </trkpt>
      <trkpt lat="48.764105" lon="-3.077088">
        <ele>39.6</ele>
        <time>2020-08-13T19:41:32Z</time>
      </trkpt>
      <trkpt lat="48.764035" lon="-3.076194">
        <ele>38.6</ele>
        <time>2020-08-13T19:41:35Z</time>
      </trkpt>
      <trkpt lat="48.764021" lon="-3.075838">
        <ele>38.6</ele>
        <time>2020-08-13T19:41:37Z</time>
      </trkpt>
      <trkpt lat="48.76403" lon="-3.075132">
        <ele>38.0</ele>
        <time>2020-08-13T19:41:40Z</time>
      </trkpt>
      <trkpt lat="48.764081" lon="-3.074531">
        <ele>37.2</ele>
        <time>2020-08-13T19:41:42Z</time>
      </trkpt>
      <trkpt lat="48.764193" lon="-3.073658">
        <ele>31.6</ele>
        <time>2020-08-13T19:41:45Z</time>
      </trkpt>
      <trkpt lat="48.764293" lon="-3.073128">
        <ele>30.0</ele>
        <time>2020-08-13T19:41:47Z</time>
      </trkpt>
      <trkpt lat="48.764433" lon="-3.072537">
        <ele>30.0</ele>
        <time>2020-08-13T19:41:50Z</time>
      </trkpt>
      <trkpt lat="48.764709" lon="-3.07168">
        <ele>29.6</ele>
        <time>2020-08-13T19:41:53Z</time>
      </trkpt>
      <trkpt lat="48.764962" lon="-3.071038">
        <ele>28.8</ele>
        <time>2020-08-13T19:41:56Z</time>
      </trkpt>
      <trkpt lat="48.766265" lon="-3.068136">
        <ele>22.8</ele>
        <time>2020-08-13T19:42:09Z</time>
      </trkpt>
      <trkpt lat="48.766507" lon="-3.067565">
        <ele>22.8</ele>
        <time>2020-08-13T19:42:12Z</time>
      </trkpt>
      <trkpt lat="48.766708" lon="-3.067043">
        <ele>22.0</ele>
        <time>2020-08-13T19:42:14Z</time>
      </trkpt>
      <trkpt lat="48.766949" lon="-3.066242">
        <ele>23.0</ele>
        <time>2020-08-13T19:42:17Z</time>
      </trkpt>
      <trkpt lat="48.767108" lon="-3.065576">
        <ele>23.4</ele>
        <time>2020-08-13T19:42:20Z</time>
      </trkpt>
      <trkpt lat="48.767255" lon="-3.064528">
        <ele>24.0</ele>
        <time>2020-08-13T19:42:24Z</time>
      </trkpt>
      <trkpt lat="48.767306" lon="-3.063724">
        <ele>24.6</ele>
        <time>2020-08-13T19:42:27Z</time>
      </trkpt>
      <trkpt lat="48.767317" lon="-3.06312">
        <ele>25.6</ele>
        <time>2020-08-13T19:42:30Z</time>
      </trkpt>
      <trkpt lat="48.767299" lon="-3.06257">
        <ele>25.6</ele>
        <time>2020-08-13T19:42:32Z</time>
      </trkpt>
      <trkpt lat="48.767236" lon="-3.06186">
        <ele>26.4</ele>
        <time>2020-08-13T19:42:34Z</time>
      </trkpt>
      <trkpt lat="48.767093" lon="-3.06091">
        <ele>27.2</ele>
        <time>2020-08-13T19:42:38Z</time>
      </trkpt>
      <trkpt lat="48.766661" lon="-3.059036">
        <ele>32.8</ele>
        <time>2020-08-13T19:42:45Z</time>
      </trkpt>
      <trkpt lat="48.766489" lon="-3.058506">
        <ele>32.8</ele>
        <time>2020-08-13T19:42:48Z</time>
      </trkpt>
      <trkpt lat="48.766403" lon="-3.058386">
        <ele>32.8</ele>
        <time>2020-08-13T19:42:48Z</time>
      </trkpt>
      <trkpt lat="48.766308" lon="-3.058316">
        <ele>32.8</ele>
        <time>2020-08-13T19:42:49Z</time>
      </trkpt>
      <trkpt lat="48.766224" lon="-3.058318">
        <ele>32.8</ele>
        <time>2020-08-13T19:42:50Z</time>
      </trkpt>
      <trkpt lat="48.766143" lon="-3.05829">
        <ele>32.8</ele>
        <time>2020-08-13T19:42:50Z</time>
      </trkpt>
      <trkpt lat="48.766064" lon="-3.058229">
        <ele>32.8</ele>
        <time>2020-08-13T19:42:50Z</time>
      </trkpt>
      <trkpt lat="48.765993" lon="-3.058133">
        <ele>32.8</ele>
        <time>2020-08-13T19:42:51Z</time>
      </trkpt>
      <trkpt lat="48.765942" lon="-3.058012">
        <ele>32.8</ele>
        <time>2020-08-13T19:42:51Z</time>
      </trkpt>
      <trkpt lat="48.76591" lon="-3.057808">
        <ele>32.8</ele>
        <time>2020-08-13T19:42:52Z</time>
      </trkpt>
      <trkpt lat="48.765928" lon="-3.05762">
        <ele>32.8</ele>
        <time>2020-08-13T19:42:53Z</time>
      </trkpt>
      <trkpt lat="48.765963" lon="-3.057507">
        <ele>32.8</ele>
        <time>2020-08-13T19:42:53Z</time>
      </trkpt>
      <trkpt lat="48.766014" lon="-3.05741">
        <ele>31.6</ele>
        <time>2020-08-13T19:42:54Z</time>
      </trkpt>
      <trkpt lat="48.76608" lon="-3.057333">
        <ele>31.6</ele>
        <time>2020-08-13T19:42:54Z</time>
      </trkpt>
      <trkpt lat="48.766128" lon="-3.057194">
        <ele>31.6</ele>
        <time>2020-08-13T19:42:55Z</time>
      </trkpt>
      <trkpt lat="48.766146" lon="-3.057065">
        <ele>31.6</ele>
        <time>2020-08-13T19:42:55Z</time>
      </trkpt>
      <trkpt lat="48.766131" lon="-3.056721">
        <ele>31.6</ele>
        <time>2020-08-13T19:42:56Z</time>
      </trkpt>
      <trkpt lat="48.76316" lon="-3.043603">
        <ele>55.0</ele>
        <time>2020-08-13T19:43:43Z</time>
      </trkpt>
      <trkpt lat="48.762948" lon="-3.042798">
        <ele>56.8</ele>
        <time>2020-08-13T19:43:46Z</time>
      </trkpt>
      <trkpt lat="48.762648" lon="-3.041937">
        <ele>58.6</ele>
        <time>2020-08-13T19:43:49Z</time>
      </trkpt>
      <trkpt lat="48.762447" lon="-3.041441">
        <ele>63.4</ele>
        <time>2020-08-13T19:43:51Z</time>
      </trkpt>
      <trkpt lat="48.762226" lon="-3.04109">
        <ele>63.4</ele>
        <time>2020-08-13T19:43:53Z</time>
      </trkpt>
      <trkpt lat="48.762168" lon="-3.04105">
        <ele>63.4</ele>
        <time>2020-08-13T19:43:53Z</time>
      </trkpt>
      <trkpt lat="48.762054" lon="-3.041015">
        <ele>63.4</ele>
        <time>2020-08-13T19:43:54Z</time>
      </trkpt>
      <trkpt lat="48.761947" lon="-3.041036">
        <ele>63.4</ele>
        <time>2020-08-13T19:43:54Z</time>
      </trkpt>
      <trkpt lat="48.761841" lon="-3.04101">
        <ele>63.4</ele>
        <time>2020-08-13T19:43:55Z</time>
      </trkpt>
      <trkpt lat="48.761744" lon="-3.040938">
        <ele>63.4</ele>
        <time>2020-08-13T19:43:56Z</time>
      </trkpt>
      <trkpt lat="48.76168" lon="-3.040854">
        <ele>63.4</ele>
        <time>2020-08-13T19:43:56Z</time>
      </trkpt>
      <trkpt lat="48.76163" lon="-3.040751">
        <ele>70.0</ele>
        <time>2020-08-13T19:43:57Z</time>
      </trkpt>
      <trkpt lat="48.761597" lon="-3.040632">
        <ele>70.0</ele>
        <time>2020-08-13T19:43:57Z</time>
      </trkpt>
      <trkpt lat="48.761479" lon="-3.040456">
        <ele>70.0</ele>
        <time>2020-08-13T19:43:58Z</time>
      </trkpt>
      <trkpt lat="48.761384" lon="-3.040337">
        <ele>70.0</ele>
        <time>2020-08-13T19:43:59Z</time>
      </trkpt>
      <trkpt lat="48.761269" lon="-3.040266">
        <ele>70.0</ele>
        <time>2020-08-13T19:43:59Z</time>
      </trkpt>
      <trkpt lat="48.760389" lon="-3.03997">
        <ele>78.0</ele>
        <time>2020-08-13T19:44:05Z</time>
      </trkpt>
      <trkpt lat="48.759702" lon="-3.039862">
        <ele>82.4</ele>
        <time>2020-08-13T19:44:09Z</time>
      </trkpt>
      <trkpt lat="48.751869" lon="-3.039827">
        <ele>75.0</ele>
        <time>2020-08-13T19:44:53Z</time>
      </trkpt>
      <trkpt lat="48.751204" lon="-3.039764">
        <ele>77.0</ele>
        <time>2020-08-13T19:44:57Z</time>
      </trkpt>
      <trkpt lat="48.750826" lon="-3.039689">
        <ele>77.8</ele>
        <time>2020-08-13T19:44:59Z</time>
      </trkpt>
      <trkpt lat="48.750328" lon="-3.039529">
        <ele>77.8</ele>
        <time>2020-08-13T19:45:02Z</time>
      </trkpt>
      <trkpt lat="48.746822" lon="-3.03838">
        <ele>82.8</ele>
        <time>2020-08-13T19:45:21Z</time>
      </trkpt>
      <trkpt lat="48.743898" lon="-3.037477">
        <ele>89.6</ele>
        <time>2020-08-13T19:45:36Z</time>
      </trkpt>
      <trkpt lat="48.743426" lon="-3.037295">
        <ele>89.6</ele>
        <time>2020-08-13T19:45:39Z</time>
      </trkpt>
      <trkpt lat="48.743054" lon="-3.037103">
        <ele>89.6</ele>
        <time>2020-08-13T19:45:41Z</time>
      </trkpt>
      <trkpt lat="48.742519" lon="-3.03671">
        <ele>89.6</ele>
        <time>2020-08-13T19:45:44Z</time>
      </trkpt>
      <trkpt lat="48.73295" lon="-3.028028">
        <ele>88.2</ele>
        <time>2020-08-13T19:46:42Z</time>
      </trkpt>
      <trkpt lat="48.732416" lon="-3.027566">
        <ele>90.0</ele>
        <time>2020-08-13T19:46:45Z</time>
      </trkpt>
      <trkpt lat="48.731978" lon="-3.027277">
        <ele>89.8</ele>
        <time>2020-08-13T19:46:48Z</time>
      </trkpt>
      <trkpt lat="48.731573" lon="-3.027103">
        <ele>91.6</ele>
        <time>2020-08-13T19:46:50Z</time>
      </trkpt>
      <trkpt lat="48.730872" lon="-3.026946">
        <ele>91.6</ele>
        <time>2020-08-13T19:46:53Z</time>
      </trkpt>
      <trkpt lat="48.72594" lon="-3.026035">
        <ele>93.0</ele>
        <time>2020-08-13T19:47:19Z</time>
      </trkpt>
      <trkpt lat="48.725346" lon="-3.025858">
        <ele>93.6</ele>
        <time>2020-08-13T19:47:22Z</time>
      </trkpt>
      <trkpt lat="48.723242" lon="-3.024911">
        <ele>95.4</ele>
        <time>2020-08-13T19:47:34Z</time>
      </trkpt>
      <trkpt lat="48.722874" lon="-3.024765">
        <ele>95.4</ele>
        <time>2020-08-13T19:47:36Z</time>
      </trkpt>
      <trkpt lat="48.719439" lon="-3.023916">
        <ele>94.8</ele>
        <time>2020-08-13T19:47:54Z</time>
      </trkpt>
      <trkpt lat="48.717619" lon="-3.023792">
        <ele>99.8</ele>
        <time>2020-08-13T19:48:03Z</time>
      </trkpt>
      <trkpt lat="48.716797" lon="-3.023797">
        <ele>102.0</ele>
        <time>2020-08-13T19:48:07Z</time>
      </trkpt>
      <trkpt lat="48.71552" lon="-3.023873">
        <ele>104.8</ele>
        <time>2020-08-13T19:48:14Z</time>
      </trkpt>
      <trkpt lat="48.715145" lon="-3.023921">
        <ele>104.8</ele>
        <time>2020-08-13T19:48:18Z</time>
      </trkpt>
      <trkpt lat="48.714477" lon="-3.023956">
        <ele>104.4</ele>
        <time>2020-08-13T19:48:24Z</time>
      </trkpt>
      <trkpt lat="48.714179" lon="-3.024058">
        <ele>104.4</ele>
        <time>2020-08-13T19:48:26Z</time>
      </trkpt>
      <trkpt lat="48.713936" lon="-3.024191">
        <ele>103.4</ele>
        <time>2020-08-13T19:48:29Z</time>
      </trkpt>
      <trkpt lat="48.713608" lon="-3.024429">
        <ele>103.4</ele>
        <time>2020-08-13T19:48:32Z</time>
      </trkpt>
      <trkpt lat="48.713541" lon="-3.024496">
        <ele>103.4</ele>
        <time>2020-08-13T19:48:33Z</time>
      </trkpt>
      <trkpt lat="48.713483" lon="-3.024603">
        <ele>103.4</ele>
        <time>2020-08-13T19:48:34Z</time>
      </trkpt>
      <trkpt lat="48.71348" lon="-3.024745">
        <ele>103.4</ele>
        <time>2020-08-13T19:48:34Z</time>
      </trkpt>
      <trkpt lat="48.713461" lon="-3.024811">
        <ele>103.4</ele>
        <time>2020-08-13T19:48:34Z</time>
      </trkpt>
      <trkpt lat="48.713417" lon="-3.024883">
        <ele>103.4</ele>
        <time>2020-08-13T19:48:35Z</time>
      </trkpt>
      <trkpt lat="48.713361" lon="-3.024929">
        <ele>103.4</ele>
        <time>2020-08-13T19:48:35Z</time>
      </trkpt>
      <trkpt lat="48.713297" lon="-3.024942">
        <ele>102.4</ele>
        <time>2020-08-13T19:48:35Z</time>
      </trkpt>
      <trkpt lat="48.713234" lon="-3.024921">
        <ele>102.4</ele>
        <time>2020-08-13T19:48:36Z</time>
      </trkpt>
      <trkpt lat="48.713179" lon="-3.024869">
        <ele>102.4</ele>
        <time>2020-08-13T19:48:36Z</time>
      </trkpt>
      <trkpt lat="48.713141" lon="-3.024791">
        <ele>102.4</ele>
        <time>2020-08-13T19:48:36Z</time>
      </trkpt>
      <trkpt lat="48.713121" lon="-3.024688">
        <ele>102.4</ele>
        <time>2020-08-13T19:48:37Z</time>
      </trkpt>
      <trkpt lat="48.713129" lon="-3.024583">
        <ele>102.4</ele>
        <time>2020-08-13T19:48:37Z</time>
      </trkpt>
      <trkpt lat="48.713157" lon="-3.024497">
        <ele>102.4</ele>
        <time>2020-08-13T19:48:37Z</time>
      </trkpt>
      <trkpt lat="48.713204" lon="-3.024432">
        <ele>102.4</ele>
        <time>2020-08-13T19:48:37Z</time>
      </trkpt>
      <trkpt lat="48.713262" lon="-3.024394">
        <ele>102.4</ele>
        <time>2020-08-13T19:48:38Z</time>
      </trkpt>
      <trkpt lat="48.713325" lon="-3.024388">
        <ele>102.4</ele>
        <time>2020-08-13T19:48:38Z</time>
      </trkpt>
      <trkpt lat="48.713405" lon="-3.023039">
        <ele>103.0</ele>
        <time>2020-08-13T19:48:42Z</time>
      </trkpt>
      <trkpt lat="48.7134" lon="-3.022679">
        <ele>103.0</ele>
        <time>2020-08-13T19:48:43Z</time>
      </trkpt>
      <trkpt lat="48.713355" lon="-3.022655">
        <ele>103.0</ele>
        <time>2020-08-13T19:48:44Z</time>
      </trkpt>
      <trkpt lat="48.713284" lon="-3.022559">
        <ele>102.2</ele>
        <time>2020-08-13T19:48:44Z</time>
      </trkpt>
      <trkpt lat="48.713254" lon="-3.022408">
        <ele>102.2</ele>
        <time>2020-08-13T19:48:45Z</time>
      </trkpt>
      <trkpt lat="48.713285" lon="-3.022247">
        <ele>102.2</ele>
        <time>2020-08-13T19:48:46Z</time>
      </trkpt>
      <trkpt lat="48.71337" lon="-3.022143">
        <ele>102.2</ele>
        <time>2020-08-13T19:48:47Z</time>
      </trkpt>
      <trkpt lat="48.713478" lon="-3.02213">
        <ele>102.2</ele>
        <time>2020-08-13T19:48:48Z</time>
      </trkpt>
      <trkpt lat="48.713472" lon="-3.021794">
        <ele>102.2</ele>
        <time>2020-08-13T19:48:50Z</time>
      </trkpt>
      <trkpt lat="48.713449" lon="-3.021596">
        <ele>101.2</ele>
        <time>2020-08-13T19:48:51Z</time>
      </trkpt>
      <trkpt lat="48.713424" lon="-3.021514">
        <ele>101.2</ele>
        <time>2020-08-13T19:48:51Z</time>
      </trkpt>
      <trkpt lat="48.713323" lon="-3.021331">
        <ele>100.8</ele>
        <time>2020-08-13T19:48:53Z</time>
      </trkpt>
      <trkpt lat="48.712988" lon="-3.020854">
        <ele>100.8</ele>
        <time>2020-08-13T19:48:57Z</time>
      </trkpt>
      <trkpt lat="48.712828" lon="-3.020663">
        <ele>99.0</ele>
        <time>2020-08-13T19:48:58Z</time>
      </trkpt>
      <trkpt lat="48.712434" lon="-3.020383">
        <ele>99.2</ele>
        <time>2020-08-13T19:49:02Z</time>
      </trkpt>
      <trkpt lat="48.711853" lon="-3.020112">
        <ele>99.2</ele>
        <time>2020-08-13T19:49:07Z</time>
      </trkpt>
      <trkpt lat="48.711712" lon="-3.019993">
        <ele>96.4</ele>
        <time>2020-08-13T19:49:08Z</time>
      </trkpt>
      <trkpt lat="48.71156" lon="-3.019827">
        <ele>98.0</ele>
        <time>2020-08-13T19:49:10Z</time>
      </trkpt>
      <trkpt lat="48.710746" lon="-3.018634">
        <ele>98.8</ele>
        <time>2020-08-13T19:49:19Z</time>
      </trkpt>
      <trkpt lat="48.709936" lon="-3.017405">
        <ele>100.6</ele>
        <time>2020-08-13T19:49:29Z</time>
      </trkpt>
      <trkpt lat="48.709201" lon="-3.016627">
        <ele>100.2</ele>
        <time>2020-08-13T19:49:36Z</time>
      </trkpt>
      <trkpt lat="48.707896" lon="-3.015546">
        <ele>103.2</ele>
        <time>2020-08-13T19:49:49Z</time>
      </trkpt>
      <trkpt lat="48.707053" lon="-3.01495">
        <ele>103.0</ele>
        <time>2020-08-13T19:49:56Z</time>
      </trkpt>
      <trkpt lat="48.706697" lon="-3.014661">
        <ele>103.0</ele>
        <time>2020-08-13T19:50:00Z</time>
      </trkpt>
      <trkpt lat="48.706359" lon="-3.014463">
        <ele>101.4</ele>
        <time>2020-08-13T19:50:03Z</time>
      </trkpt>
      <trkpt lat="48.705975" lon="-3.014276">
        <ele>101.4</ele>
        <time>2020-08-13T19:50:06Z</time>
      </trkpt>
      <trkpt lat="48.705641" lon="-3.01406">
        <ele>99.4</ele>
        <time>2020-08-13T19:50:09Z</time>
      </trkpt>
      <trkpt lat="48.705365" lon="-3.013936">
        <ele>99.4</ele>
        <time>2020-08-13T19:50:12Z</time>
      </trkpt>
      <trkpt lat="48.704826" lon="-3.013833">
        <ele>97.4</ele>
        <time>2020-08-13T19:50:16Z</time>
      </trkpt>
      <trkpt lat="48.704528" lon="-3.013702">
        <ele>97.4</ele>
        <time>2020-08-13T19:50:19Z</time>
      </trkpt>
      <trkpt lat="48.704253" lon="-3.013511">
        <ele>97.4</ele>
        <time>2020-08-13T19:50:21Z</time>
      </trkpt>
      <trkpt lat="48.703586" lon="-3.012937">
        <ele>96.2</ele>
        <time>2020-08-13T19:50:28Z</time>
      </trkpt>
      <trkpt lat="48.703381" lon="-3.012841">
        <ele>96.2</ele>
        <time>2020-08-13T19:50:29Z</time>
      </trkpt>
      <trkpt lat="48.702991" lon="-3.012807">
        <ele>96.2</ele>
        <time>2020-08-13T19:50:33Z</time>
      </trkpt>
      <trkpt lat="48.702891" lon="-3.012763">
        <ele>96.2</ele>
        <time>2020-08-13T19:50:33Z</time>
      </trkpt>
      <trkpt lat="48.70277" lon="-3.012677">
        <ele>96.2</ele>
        <time>2020-08-13T19:50:35Z</time>
      </trkpt>
      <trkpt lat="48.702631" lon="-3.012545">
        <ele>96.2</ele>
        <time>2020-08-13T19:50:36Z</time>
      </trkpt>
      <trkpt lat="48.702101" lon="-3.012003">
        <ele>97.6</ele>
        <time>2020-08-13T19:50:41Z</time>
      </trkpt>
      <trkpt lat="48.701724" lon="-3.011745">
        <ele>97.6</ele>
        <time>2020-08-13T19:50:45Z</time>
      </trkpt>
      <trkpt lat="48.701207" lon="-3.011305">
        <ele>98.6</ele>
        <time>2020-08-13T19:50:50Z</time>
      </trkpt>
      <trkpt lat="48.70105" lon="-3.011237">
        <ele>98.6</ele>
        <time>2020-08-13T19:50:51Z</time>
      </trkpt>
      <trkpt lat="48.700471" lon="-3.011132">
        <ele>99.2</ele>
        <time>2020-08-13T19:50:56Z</time>
      </trkpt>
      <trkpt lat="48.699755" lon="-3.010954">
        <ele>99.6</ele>
        <time>2020-08-13T19:51:02Z</time>
      </trkpt>
      <trkpt lat="48.699311" lon="-3.010747">
        <ele>100.0</ele>
        <time>2020-08-13T19:51:06Z</time>
      </trkpt>
      <trkpt lat="48.698851" lon="-3.010442">
        <ele>99.2</ele>
        <time>2020-08-13T19:51:10Z</time>
      </trkpt>
      <trkpt lat="48.69746" lon="-3.009628">
        <ele>94.6</ele>
        <time>2020-08-13T19:51:22Z</time>
      </trkpt>
      <trkpt lat="48.696744" lon="-3.009096">
        <ele>94.4</ele>
        <time>2020-08-13T19:51:29Z</time>
      </trkpt>
      <trkpt lat="48.696499" lon="-3.00883">
        <ele>91.6</ele>
        <time>2020-08-13T19:51:31Z</time>
      </trkpt>
      <trkpt lat="48.696301" lon="-3.008277">
        <ele>92.4</ele>
        <time>2020-08-13T19:51:35Z</time>
      </trkpt>
      <trkpt lat="48.696221" lon="-3.008113">
        <ele>92.4</ele>
        <time>2020-08-13T19:51:36Z</time>
      </trkpt>
      <trkpt lat="48.696544" lon="-3.007495">
        <ele>93.8</ele>
        <time>2020-08-13T19:51:40Z</time>
      </trkpt>
      <trkpt lat="48.697386" lon="-3.004817">
        <ele>97.8</ele>
        <time>2020-08-13T19:51:56Z</time>
      </trkpt>
      <trkpt lat="48.697602" lon="-3.00351">
        <ele>99.8</ele>
        <time>2020-08-13T19:52:03Z</time>
      </trkpt>
      <trkpt lat="48.69764" lon="-3.003367">
        <ele>99.8</ele>
        <time>2020-08-13T19:52:04Z</time>
      </trkpt>
      <trkpt lat="48.697891" lon="-3.002827">
        <ele>98.8</ele>
        <time>2020-08-13T19:52:07Z</time>
      </trkpt>
      <trkpt lat="48.697953" lon="-3.002636">
        <ele>98.8</ele>
        <time>2020-08-13T19:52:09Z</time>
      </trkpt>
      <trkpt lat="48.698309" lon="-3.001184">
        <ele>96.2</ele>
        <time>2020-08-13T19:52:17Z</time>
      </trkpt>
      <trkpt lat="48.698466" lon="-3.000757">
        <ele>96.4</ele>
        <time>2020-08-13T19:52:19Z</time>
      </trkpt>
      <trkpt lat="48.698682" lon="-2.999807">
        <ele>95.8</ele>
        <time>2020-08-13T19:52:25Z</time>
      </trkpt>
      <trkpt lat="48.698787" lon="-2.999461">
        <ele>95.8</ele>
        <time>2020-08-13T19:52:27Z</time>
      </trkpt>
      <trkpt lat="48.698996" lon="-2.999039">
        <ele>96.0</ele>
        <time>2020-08-13T19:52:29Z</time>
      </trkpt>
      <trkpt lat="48.699081" lon="-2.998809">
        <ele>96.0</ele>
        <time>2020-08-13T19:52:31Z</time>
      </trkpt>
      <trkpt lat="48.699119" lon="-2.99858">
        <ele>96.0</ele>
        <time>2020-08-13T19:52:32Z</time>
      </trkpt>
      <trkpt lat="48.699127" lon="-2.998413">
        <ele>96.0</ele>
        <time>2020-08-13T19:52:33Z</time>
      </trkpt>
      <trkpt lat="48.699118" lon="-2.997888">
        <ele>96.6</ele>
        <time>2020-08-13T19:52:36Z</time>
      </trkpt>
      <trkpt lat="48.699133" lon="-2.997637">
        <ele>96.6</ele>
        <time>2020-08-13T19:52:37Z</time>
      </trkpt>
      <trkpt lat="48.699166" lon="-2.997495">
        <ele>97.4</ele>
        <time>2020-08-13T19:52:38Z</time>
      </trkpt>
      <trkpt lat="48.69926" lon="-2.997247">
        <ele>97.6</ele>
        <time>2020-08-13T19:52:39Z</time>
      </trkpt>
      <trkpt lat="48.699347" lon="-2.997083">
        <ele>97.6</ele>
        <time>2020-08-13T19:52:40Z</time>
      </trkpt>
      <trkpt lat="48.700005" lon="-2.9962">
        <ele>97.6</ele>
        <time>2020-08-13T19:52:47Z</time>
      </trkpt>
      <trkpt lat="48.700108" lon="-2.996011">
        <ele>97.6</ele>
        <time>2020-08-13T19:52:49Z</time>
      </trkpt>
      <trkpt lat="48.700146" lon="-2.995856">
        <ele>97.6</ele>
        <time>2020-08-13T19:52:50Z</time>
      </trkpt>
      <trkpt lat="48.70015" lon="-2.995746">
        <ele>97.0</ele>
        <time>2020-08-13T19:52:50Z</time>
      </trkpt>
      <trkpt lat="48.700124" lon="-2.995566">
        <ele>97.0</ele>
        <time>2020-08-13T19:52:51Z</time>
      </trkpt>
      <trkpt lat="48.699781" lon="-2.994318">
        <ele>97.4</ele>
        <time>2020-08-13T19:52:58Z</time>
      </trkpt>
      <trkpt lat="48.699559" lon="-2.993338">
        <ele>97.8</ele>
        <time>2020-08-13T19:53:04Z</time>
      </trkpt>
      <trkpt lat="48.699553" lon="-2.993069">
        <ele>97.8</ele>
        <time>2020-08-13T19:53:05Z</time>
      </trkpt>
      <trkpt lat="48.699639" lon="-2.992692">
        <ele>97.8</ele>
        <time>2020-08-13T19:53:07Z</time>
      </trkpt>
      <trkpt lat="48.699714" lon="-2.992507">
        <ele>97.8</ele>
        <time>2020-08-13T19:53:09Z</time>
      </trkpt>
      <trkpt lat="48.69981" lon="-2.992346">
        <ele>97.8</ele>
        <time>2020-08-13T19:53:10Z</time>
      </trkpt>
      <trkpt lat="48.699877" lon="-2.992273">
        <ele>97.8</ele>
        <time>2020-08-13T19:53:10Z</time>
      </trkpt>
      <trkpt lat="48.700236" lon="-2.992084">
        <ele>98.0</ele>
        <time>2020-08-13T19:53:13Z</time>
      </trkpt>
      <trkpt lat="48.701413" lon="-2.99125">
        <ele>97.8</ele>
        <time>2020-08-13T19:53:24Z</time>
      </trkpt>
      <trkpt lat="48.701652" lon="-2.990985">
        <ele>97.8</ele>
        <time>2020-08-13T19:53:26Z</time>
      </trkpt>
      <trkpt lat="48.701783" lon="-2.990793">
        <ele>97.6</ele>
        <time>2020-08-13T19:53:28Z</time>
      </trkpt>
      <trkpt lat="48.701887" lon="-2.990617">
        <ele>97.6</ele>
        <time>2020-08-13T19:53:29Z</time>
      </trkpt>
      <trkpt lat="48.702047" lon="-2.990292">
        <ele>97.6</ele>
        <time>2020-08-13T19:53:31Z</time>
      </trkpt>
      <trkpt lat="48.702125" lon="-2.990067">
        <ele>97.6</ele>
        <time>2020-08-13T19:53:32Z</time>
      </trkpt>
      <trkpt lat="48.70221" lon="-2.989742">
        <ele>96.6</ele>
        <time>2020-08-13T19:53:34Z</time>
      </trkpt>
      <trkpt lat="48.702283" lon="-2.989234">
        <ele>96.6</ele>
        <time>2020-08-13T19:53:37Z</time>
      </trkpt>
      <trkpt lat="48.7023" lon="-2.989009">
        <ele>95.0</ele>
        <time>2020-08-13T19:53:38Z</time>
      </trkpt>
      <trkpt lat="48.702325" lon="-2.987546">
        <ele>94.0</ele>
        <time>2020-08-13T19:53:46Z</time>
      </trkpt>
      <trkpt lat="48.702391" lon="-2.98618">
        <ele>92.0</ele>
        <time>2020-08-13T19:53:53Z</time>
      </trkpt>
      <trkpt lat="48.702403" lon="-2.985221">
        <ele>90.6</ele>
        <time>2020-08-13T19:53:58Z</time>
      </trkpt>
      <trkpt lat="48.70244" lon="-2.984847">
        <ele>90.2</ele>
        <time>2020-08-13T19:54:00Z</time>
      </trkpt>
      <trkpt lat="48.702499" lon="-2.984615">
        <ele>90.2</ele>
        <time>2020-08-13T19:54:01Z</time>
      </trkpt>
      <trkpt lat="48.703559" lon="-2.982516">
        <ele>89.8</ele>
        <time>2020-08-13T19:54:15Z</time>
      </trkpt>
      <trkpt lat="48.703736" lon="-2.981718">
        <ele>89.6</ele>
        <time>2020-08-13T19:54:20Z</time>
      </trkpt>
      <trkpt lat="48.703855" lon="-2.981385">
        <ele>89.2</ele>
        <time>2020-08-13T19:54:22Z</time>
      </trkpt>
      <trkpt lat="48.704008" lon="-2.981122">
        <ele>89.2</ele>
        <time>2020-08-13T19:54:24Z</time>
      </trkpt>
      <trkpt lat="48.704163" lon="-2.980932">
        <ele>89.2</ele>
        <time>2020-08-13T19:54:25Z</time>
      </trkpt>
      <trkpt lat="48.704275" lon="-2.980709">
        <ele>87.0</ele>
        <time>2020-08-13T19:54:27Z</time>
      </trkpt>
      <trkpt lat="48.704652" lon="-2.979828">
        <ele>86.0</ele>
        <time>2020-08-13T19:54:32Z</time>
      </trkpt>
      <trkpt lat="48.704741" lon="-2.979576">
        <ele>86.0</ele>
        <time>2020-08-13T19:54:34Z</time>
      </trkpt>
      <trkpt lat="48.704863" lon="-2.979121">
        <ele>85.6</ele>
        <time>2020-08-13T19:54:36Z</time>
      </trkpt>
      <trkpt lat="48.704933" lon="-2.978923">
        <ele>85.6</ele>
        <time>2020-08-13T19:54:38Z</time>
      </trkpt>
      <trkpt lat="48.705115" lon="-2.978536">
        <ele>83.6</ele>
        <time>2020-08-13T19:54:40Z</time>
      </trkpt>
      <trkpt lat="48.705217" lon="-2.978274">
        <ele>83.6</ele>
        <time>2020-08-13T19:54:42Z</time>
      </trkpt>
      <trkpt lat="48.70533" lon="-2.977915">
        <ele>83.6</ele>
        <time>2020-08-13T19:54:44Z</time>
      </trkpt>
      <trkpt lat="48.705651" lon="-2.976423">
        <ele>86.2</ele>
        <time>2020-08-13T19:54:52Z</time>
      </trkpt>
      <trkpt lat="48.705768" lon="-2.975669">
        <ele>87.2</ele>
        <time>2020-08-13T19:54:56Z</time>
      </trkpt>
      <trkpt lat="48.706031" lon="-2.974417">
        <ele>85.6</ele>
        <time>2020-08-13T19:55:03Z</time>
      </trkpt>
      <trkpt lat="48.706123" lon="-2.974038">
        <ele>87.2</ele>
        <time>2020-08-13T19:55:05Z</time>
      </trkpt>
      <trkpt lat="48.706194" lon="-2.973826">
        <ele>87.2</ele>
        <time>2020-08-13T19:55:07Z</time>
      </trkpt>
      <trkpt lat="48.706328" lon="-2.973557">
        <ele>87.2</ele>
        <time>2020-08-13T19:55:08Z</time>
      </trkpt>
      <trkpt lat="48.706698" lon="-2.973138">
        <ele>84.8</ele>
        <time>2020-08-13T19:55:12Z</time>
      </trkpt>
      <trkpt lat="48.706819" lon="-2.972945">
        <ele>84.8</ele>
        <time>2020-08-13T19:55:13Z</time>
      </trkpt>
      <trkpt lat="48.707449" lon="-2.971413">
        <ele>84.6</ele>
        <time>2020-08-13T19:55:23Z</time>
      </trkpt>
      <trkpt lat="48.707597" lon="-2.971095">
        <ele>81.8</ele>
        <time>2020-08-13T19:55:25Z</time>
      </trkpt>
      <trkpt lat="48.707703" lon="-2.970914">
        <ele>81.8</ele>
        <time>2020-08-13T19:55:26Z</time>
      </trkpt>
      <trkpt lat="48.707777" lon="-2.970706">
        <ele>81.0</ele>
        <time>2020-08-13T19:55:28Z</time>
      </trkpt>
      <trkpt lat="48.707833" lon="-2.970508">
        <ele>81.0</ele>
        <time>2020-08-13T19:55:29Z</time>
      </trkpt>
      <trkpt lat="48.708064" lon="-2.969388">
        <ele>80.0</ele>
        <time>2020-08-13T19:55:35Z</time>
      </trkpt>
      <trkpt lat="48.708189" lon="-2.968395">
        <ele>80.4</ele>
        <time>2020-08-13T19:55:40Z</time>
      </trkpt>
      <trkpt lat="48.708278" lon="-2.966955">
        <ele>82.8</ele>
        <time>2020-08-13T19:55:48Z</time>
      </trkpt>
      <trkpt lat="48.708428" lon="-2.966971">
        <ele>79.6</ele>
        <time>2020-08-13T19:55:49Z</time>
      </trkpt>
      <trkpt lat="48.708885" lon="-2.966961">
        <ele>79.6</ele>
        <time>2020-08-13T19:55:53Z</time>
      </trkpt>
      <trkpt lat="48.708988" lon="-2.966941">
        <ele>79.6</ele>
        <time>2020-08-13T19:55:54Z</time>
      </trkpt>
      <trkpt lat="48.709079" lon="-2.966907">
        <ele>79.6</ele>
        <time>2020-08-13T19:55:54Z</time>
      </trkpt>
      <trkpt lat="48.709238" lon="-2.966795">
        <ele>77.0</ele>
        <time>2020-08-13T19:55:56Z</time>
      </trkpt>
      <trkpt lat="48.709355" lon="-2.96668">
        <ele>77.0</ele>
        <time>2020-08-13T19:55:57Z</time>
      </trkpt>
      <trkpt lat="48.709398" lon="-2.966356">
        <ele>78.4</ele>
        <time>2020-08-13T19:55:59Z</time>
      </trkpt>
      <trkpt lat="48.709501" lon="-2.965971">
        <ele>78.4</ele>
        <time>2020-08-13T19:56:02Z</time>
      </trkpt>
      <trkpt lat="48.709629" lon="-2.965573">
        <ele>79.6</ele>
        <time>2020-08-13T19:56:06Z</time>
      </trkpt>
      <trkpt lat="48.709721" lon="-2.965336">
        <ele>79.6</ele>
        <time>2020-08-13T19:56:08Z</time>
      </trkpt>
      <trkpt lat="48.709997" lon="-2.964761">
        <ele>81.2</ele>
        <time>2020-08-13T19:56:13Z</time>
      </trkpt>
      <trkpt lat="48.710087" lon="-2.964475">
        <ele>80.6</ele>
        <time>2020-08-13T19:56:16Z</time>
      </trkpt>
      <trkpt lat="48.71013" lon="-2.964407">
        <ele>80.6</ele>
        <time>2020-08-13T19:56:16Z</time>
      </trkpt>
      <trkpt lat="48.710064" lon="-2.964052">
        <ele>80.4</ele>
        <time>2020-08-13T19:56:19Z</time>
      </trkpt>
      <trkpt lat="48.709819" lon="-2.963027">
        <ele>83.0</ele>
        <time>2020-08-13T19:56:28Z</time>
      </trkpt>
      <trkpt lat="48.709785" lon="-2.962663">
        <ele>83.0</ele>
        <time>2020-08-13T19:56:31Z</time>
      </trkpt>
      <trkpt lat="48.709774" lon="-2.961865">
        <ele>85.0</ele>
        <time>2020-08-13T19:56:38Z</time>
      </trkpt>
      <trkpt lat="48.709757" lon="-2.961581">
        <ele>86.8</ele>
        <time>2020-08-13T19:56:40Z</time>
      </trkpt>
      <trkpt lat="48.709729" lon="-2.961146">
        <ele>86.8</ele>
        <time>2020-08-13T19:56:44Z</time>
      </trkpt>
      <trkpt lat="48.709679" lon="-2.960672">
        <ele>87.5</ele>
        <time>2020-08-13T19:56:48Z</time>
      </trkpt>
      <trkpt lat="48.709679" lon="-2.960672">
        <ele>87.5</ele>
        <time>2020-08-13T19:56:48Z</time>
      </trkpt>
      <trkpt lat="48.709729" lon="-2.961146">
        <ele>86.8</ele>
        <time>2020-08-13T19:56:52Z</time>
      </trkpt>
      <trkpt lat="48.709757" lon="-2.961581">
        <ele>86.8</ele>
        <time>2020-08-13T19:56:55Z</time>
      </trkpt>
      <trkpt lat="48.709774" lon="-2.961865">
        <ele>85.0</ele>
        <time>2020-08-13T19:56:58Z</time>
      </trkpt>
      <trkpt lat="48.709785" lon="-2.962663">
        <ele>83.0</ele>
        <time>2020-08-13T19:57:04Z</time>
      </trkpt>
      <trkpt lat="48.709819" lon="-2.963027">
        <ele>83.0</ele>
        <time>2020-08-13T19:57:07Z</time>
      </trkpt>
      <trkpt lat="48.710064" lon="-2.964052">
        <ele>80.4</ele>
        <time>2020-08-13T19:57:16Z</time>
      </trkpt>
      <trkpt lat="48.71013" lon="-2.964407">
        <ele>80.6</ele>
        <time>2020-08-13T19:57:19Z</time>
      </trkpt>
      <trkpt lat="48.710087" lon="-2.964475">
        <ele>80.6</ele>
        <time>2020-08-13T19:57:20Z</time>
      </trkpt>
      <trkpt lat="48.709997" lon="-2.964761">
        <ele>81.2</ele>
        <time>2020-08-13T19:57:23Z</time>
      </trkpt>
      <trkpt lat="48.709721" lon="-2.965336">
        <ele>79.6</ele>
        <time>2020-08-13T19:57:28Z</time>
      </trkpt>
      <trkpt lat="48.709629" lon="-2.965573">
        <ele>79.6</ele>
        <time>2020-08-13T19:57:30Z</time>
      </trkpt>
      <trkpt lat="48.709501" lon="-2.965971">
        <ele>78.4</ele>
        <time>2020-08-13T19:57:33Z</time>
      </trkpt>
      <trkpt lat="48.709398" lon="-2.966356">
        <ele>78.4</ele>
        <time>2020-08-13T19:57:37Z</time>
      </trkpt>
      <trkpt lat="48.709355" lon="-2.96668">
        <ele>77.0</ele>
        <time>2020-08-13T19:57:39Z</time>
      </trkpt>
      <trkpt lat="48.709238" lon="-2.966795">
        <ele>77.0</ele>
        <time>2020-08-13T19:57:40Z</time>
      </trkpt>
      <trkpt lat="48.709079" lon="-2.966907">
        <ele>79.6</ele>
        <time>2020-08-13T19:57:42Z</time>
      </trkpt>
      <trkpt lat="48.708988" lon="-2.966941">
        <ele>79.6</ele>
        <time>2020-08-13T19:57:42Z</time>
      </trkpt>
      <trkpt lat="48.708885" lon="-2.966961">
        <ele>79.6</ele>
        <time>2020-08-13T19:57:43Z</time>
      </trkpt>
      <trkpt lat="48.708428" lon="-2.966971">
        <ele>79.6</ele>
        <time>2020-08-13T19:57:47Z</time>
      </trkpt>
      <trkpt lat="48.708278" lon="-2.966955">
        <ele>82.8</ele>
        <time>2020-08-13T19:57:48Z</time>
      </trkpt>
      <trkpt lat="48.708037" lon="-2.966854">
        <ele>82.8</ele>
        <time>2020-08-13T19:57:50Z</time>
      </trkpt>
      <trkpt lat="48.70781" lon="-2.966813">
        <ele>82.8</ele>
        <time>2020-08-13T19:57:51Z</time>
      </trkpt>
      <trkpt lat="48.707319" lon="-2.966896">
        <ele>86.6</ele>
        <time>2020-08-13T19:57:55Z</time>
      </trkpt>
      <trkpt lat="48.706371" lon="-2.967164">
        <ele>90.0</ele>
        <time>2020-08-13T19:58:03Z</time>
      </trkpt>
      <trkpt lat="48.705701" lon="-2.967393">
        <ele>91.8</ele>
        <time>2020-08-13T19:58:08Z</time>
      </trkpt>
      <trkpt lat="48.704779" lon="-2.96751">
        <ele>92.2</ele>
        <time>2020-08-13T19:58:15Z</time>
      </trkpt>
      <trkpt lat="48.704154" lon="-2.967501">
        <ele>92.2</ele>
        <time>2020-08-13T19:58:20Z</time>
      </trkpt>
      <trkpt lat="48.704008" lon="-2.967608">
        <ele>92.2</ele>
        <time>2020-08-13T19:58:21Z</time>
      </trkpt>
      <trkpt lat="48.703944" lon="-2.967681">
        <ele>92.2</ele>
        <time>2020-08-13T19:58:22Z</time>
      </trkpt>
      <trkpt lat="48.703491" lon="-2.968492">
        <ele>92.6</ele>
        <time>2020-08-13T19:58:27Z</time>
      </trkpt>
      <trkpt lat="48.70324" lon="-2.968784">
        <ele>91.8</ele>
        <time>2020-08-13T19:58:29Z</time>
      </trkpt>
      <trkpt lat="48.703131" lon="-2.968876">
        <ele>91.8</ele>
        <time>2020-08-13T19:58:30Z</time>
      </trkpt>
      <trkpt lat="48.702912" lon="-2.968948">
        <ele>91.8</ele>
        <time>2020-08-13T19:58:32Z</time>
      </trkpt>
      <trkpt lat="48.702769" lon="-2.968937">
        <ele>91.8</ele>
        <time>2020-08-13T19:58:33Z</time>
      </trkpt>
      <trkpt lat="48.702671" lon="-2.9689">
        <ele>91.8</ele>
        <time>2020-08-13T19:58:34Z</time>
      </trkpt>
      <trkpt lat="48.702146" lon="-2.968592">
        <ele>89.6</ele>
        <time>2020-08-13T19:58:38Z</time>
      </trkpt>
      <trkpt lat="48.70196" lon="-2.968518">
        <ele>89.6</ele>
        <time>2020-08-13T19:58:40Z</time>
      </trkpt>
      <trkpt lat="48.701836" lon="-2.968513">
        <ele>89.6</ele>
        <time>2020-08-13T19:58:41Z</time>
      </trkpt>
      <trkpt lat="48.701671" lon="-2.968567">
        <ele>89.6</ele>
        <time>2020-08-13T19:58:42Z</time>
      </trkpt>
      <trkpt lat="48.701433" lon="-2.968727">
        <ele>87.4</ele>
        <time>2020-08-13T19:58:44Z</time>
      </trkpt>
      <trkpt lat="48.701362" lon="-2.968791">
        <ele>87.4</ele>
        <time>2020-08-13T19:58:45Z</time>
      </trkpt>
      <trkpt lat="48.701193" lon="-2.969085">
        <ele>87.4</ele>
        <time>2020-08-13T19:58:47Z</time>
      </trkpt>
      <trkpt lat="48.701054" lon="-2.969215">
        <ele>88.6</ele>
        <time>2020-08-13T19:58:48Z</time>
      </trkpt>
      <trkpt lat="48.700986" lon="-2.969247">
        <ele>88.6</ele>
        <time>2020-08-13T19:58:48Z</time>
      </trkpt>
      <trkpt lat="48.70088" lon="-2.969262">
        <ele>88.6</ele>
        <time>2020-08-13T19:58:49Z</time>
      </trkpt>
      <trkpt lat="48.700532" lon="-2.969206">
        <ele>85.8</ele>
        <time>2020-08-13T19:58:52Z</time>
      </trkpt>
      <trkpt lat="48.699857" lon="-2.96905">
        <ele>80.8</ele>
        <time>2020-08-13T19:58:57Z</time>
      </trkpt>
      <trkpt lat="48.699532" lon="-2.968913">
        <ele>80.8</ele>
        <time>2020-08-13T19:59:00Z</time>
      </trkpt>
      <trkpt lat="48.699275" lon="-2.968854">
        <ele>80.8</ele>
        <time>2020-08-13T19:59:02Z</time>
      </trkpt>
      <trkpt lat="48.699097" lon="-2.9689">
        <ele>78.0</ele>
        <time>2020-08-13T19:59:03Z</time>
      </trkpt>
      <trkpt lat="48.698979" lon="-2.968964">
        <ele>78.0</ele>
        <time>2020-08-13T19:59:04Z</time>
      </trkpt>
      <trkpt lat="48.698274" lon="-2.969475">
        <ele>77.2</ele>
        <time>2020-08-13T19:59:10Z</time>
      </trkpt>
      <trkpt lat="48.698114" lon="-2.96956">
        <ele>77.2</ele>
        <time>2020-08-13T19:59:12Z</time>
      </trkpt>
      <trkpt lat="48.69789" lon="-2.969794">
        <ele>77.2</ele>
        <time>2020-08-13T19:59:14Z</time>
      </trkpt>
      <trkpt lat="48.697315" lon="-2.970326">
        <ele>77.0</ele>
        <time>2020-08-13T19:59:19Z</time>
      </trkpt>
      <trkpt lat="48.696135" lon="-2.971504">
        <ele>75.2</ele>
        <time>2020-08-13T19:59:30Z</time>
      </trkpt>
      <trkpt lat="48.695948" lon="-2.971643">
        <ele>75.2</ele>
        <time>2020-08-13T19:59:31Z</time>
      </trkpt>
      <trkpt lat="48.695506" lon="-2.971824">
        <ele>73.8</ele>
        <time>2020-08-13T19:59:35Z</time>
      </trkpt>
      <trkpt lat="48.69536" lon="-2.971923">
        <ele>73.8</ele>
        <time>2020-08-13T19:59:36Z</time>
      </trkpt>
      <trkpt lat="48.695255" lon="-2.972033">
        <ele>73.8</ele>
        <time>2020-08-13T19:59:37Z</time>
      </trkpt>
      <trkpt lat="48.695088" lon="-2.972334">
        <ele>73.8</ele>
        <time>2020-08-13T19:59:39Z</time>
      </trkpt>
      <trkpt lat="48.694976" lon="-2.972478">
        <ele>72.6</ele>
        <time>2020-08-13T19:59:40Z</time>
      </trkpt>
      <trkpt lat="48.694828" lon="-2.97257">
        <ele>73.4</ele>
        <time>2020-08-13T19:59:41Z</time>
      </trkpt>
      <trkpt lat="48.694694" lon="-2.972604">
        <ele>73.4</ele>
        <time>2020-08-13T19:59:42Z</time>
      </trkpt>
      <trkpt lat="48.694531" lon="-2.972614">
        <ele>73.4</ele>
        <time>2020-08-13T19:59:44Z</time>
      </trkpt>
      <trkpt lat="48.694104" lon="-2.972561">
        <ele>72.4</ele>
        <time>2020-08-13T19:59:47Z</time>
      </trkpt>
      <trkpt lat="48.693916" lon="-2.972484">
        <ele>72.0</ele>
        <time>2020-08-13T19:59:48Z</time>
      </trkpt>
      <trkpt lat="48.692821" lon="-2.971859">
        <ele>70.2</ele>
        <time>2020-08-13T19:59:57Z</time>
      </trkpt>
      <trkpt lat="48.692445" lon="-2.971673">
        <ele>67.4</ele>
        <time>2020-08-13T20:00:00Z</time>
      </trkpt>
      <trkpt lat="48.691552" lon="-2.971086">
        <ele>64.8</ele>
        <time>2020-08-13T20:00:08Z</time>
      </trkpt>
      <trkpt lat="48.691189" lon="-2.970979">
        <ele>64.8</ele>
        <time>2020-08-13T20:00:11Z</time>
      </trkpt>
      <trkpt lat="48.690837" lon="-2.97092">
        <ele>64.8</ele>
        <time>2020-08-13T20:00:13Z</time>
      </trkpt>
      <trkpt lat="48.690655" lon="-2.970856">
        <ele>64.0</ele>
        <time>2020-08-13T20:00:15Z</time>
      </trkpt>
      <trkpt lat="48.690465" lon="-2.970716">
        <ele>64.4</ele>
        <time>2020-08-13T20:00:17Z</time>
      </trkpt>
      <trkpt lat="48.690234" lon="-2.970453">
        <ele>64.4</ele>
        <time>2020-08-13T20:00:19Z</time>
      </trkpt>
      <trkpt lat="48.69011" lon="-2.970348">
        <ele>64.4</ele>
        <time>2020-08-13T20:00:20Z</time>
      </trkpt>
      <trkpt lat="48.689954" lon="-2.970287">
        <ele>65.0</ele>
        <time>2020-08-13T20:00:21Z</time>
      </trkpt>
      <trkpt lat="48.689082" lon="-2.970216">
        <ele>66.2</ele>
        <time>2020-08-13T20:00:28Z</time>
      </trkpt>
      <trkpt lat="48.688767" lon="-2.970253">
        <ele>66.2</ele>
        <time>2020-08-13T20:00:30Z</time>
      </trkpt>
      <trkpt lat="48.687253" lon="-2.970835">
        <ele>70.6</ele>
        <time>2020-08-13T20:00:42Z</time>
      </trkpt>
      <trkpt lat="48.686974" lon="-2.970962">
        <ele>70.6</ele>
        <time>2020-08-13T20:00:44Z</time>
      </trkpt>
      <trkpt lat="48.686774" lon="-2.971161">
        <ele>70.6</ele>
        <time>2020-08-13T20:00:46Z</time>
      </trkpt>
      <trkpt lat="48.686652" lon="-2.971357">
        <ele>73.4</ele>
        <time>2020-08-13T20:00:48Z</time>
      </trkpt>
      <trkpt lat="48.686381" lon="-2.972009">
        <ele>73.0</ele>
        <time>2020-08-13T20:00:52Z</time>
      </trkpt>
      <trkpt lat="48.686298" lon="-2.972168">
        <ele>73.0</ele>
        <time>2020-08-13T20:00:53Z</time>
      </trkpt>
      <trkpt lat="48.68616" lon="-2.972286">
        <ele>73.0</ele>
        <time>2020-08-13T20:00:54Z</time>
      </trkpt>
      <trkpt lat="48.685941" lon="-2.972403">
        <ele>73.0</ele>
        <time>2020-08-13T20:00:56Z</time>
      </trkpt>
      <trkpt lat="48.685792" lon="-2.97244">
        <ele>76.0</ele>
        <time>2020-08-13T20:00:57Z</time>
      </trkpt>
      <trkpt lat="48.685485" lon="-2.972475">
        <ele>76.0</ele>
        <time>2020-08-13T20:00:59Z</time>
      </trkpt>
      <trkpt lat="48.684853" lon="-2.972786">
        <ele>79.4</ele>
        <time>2020-08-13T20:01:04Z</time>
      </trkpt>
      <trkpt lat="48.68478" lon="-2.972875">
        <ele>79.4</ele>
        <time>2020-08-13T20:01:05Z</time>
      </trkpt>
      <trkpt lat="48.683415" lon="-2.973725">
        <ele>81.0</ele>
        <time>2020-08-13T20:01:16Z</time>
      </trkpt>
      <trkpt lat="48.68299" lon="-2.974092">
        <ele>83.2</ele>
        <time>2020-08-13T20:01:20Z</time>
      </trkpt>
      <trkpt lat="48.682799" lon="-2.97416">
        <ele>83.2</ele>
        <time>2020-08-13T20:01:22Z</time>
      </trkpt>
      <trkpt lat="48.682626" lon="-2.974158">
        <ele>83.2</ele>
        <time>2020-08-13T20:01:23Z</time>
      </trkpt>
      <trkpt lat="48.682335" lon="-2.974113">
        <ele>84.2</ele>
        <time>2020-08-13T20:01:25Z</time>
      </trkpt>
      <trkpt lat="48.682081" lon="-2.974119">
        <ele>84.2</ele>
        <time>2020-08-13T20:01:27Z</time>
      </trkpt>
      <trkpt lat="48.681005" lon="-2.974292">
        <ele>83.8</ele>
        <time>2020-08-13T20:01:35Z</time>
      </trkpt>
      <trkpt lat="48.68039" lon="-2.974542">
        <ele>84.8</ele>
        <time>2020-08-13T20:01:40Z</time>
      </trkpt>
      <trkpt lat="48.679752" lon="-2.974636">
        <ele>87.4</ele>
        <time>2020-08-13T20:01:45Z</time>
      </trkpt>
      <trkpt lat="48.677279" lon="-2.975283">
        <ele>92.4</ele>
        <time>2020-08-13T20:02:05Z</time>
      </trkpt>
      <trkpt lat="48.677126" lon="-2.975399">
        <ele>92.4</ele>
        <time>2020-08-13T20:02:06Z</time>
      </trkpt>
      <trkpt lat="48.677018" lon="-2.975539">
        <ele>92.4</ele>
        <time>2020-08-13T20:02:07Z</time>
      </trkpt>
      <trkpt lat="48.676288" lon="-2.976727">
        <ele>90.2</ele>
        <time>2020-08-13T20:02:15Z</time>
      </trkpt>
      <trkpt lat="48.676144" lon="-2.977008">
        <ele>90.2</ele>
        <time>2020-08-13T20:02:17Z</time>
      </trkpt>
      <trkpt lat="48.675813" lon="-2.97783">
        <ele>88.2</ele>
        <time>2020-08-13T20:02:22Z</time>
      </trkpt>
      <trkpt lat="48.675749" lon="-2.977949">
        <ele>88.2</ele>
        <time>2020-08-13T20:02:23Z</time>
      </trkpt>
      <trkpt lat="48.675534" lon="-2.978155">
        <ele>88.2</ele>
        <time>2020-08-13T20:02:25Z</time>
      </trkpt>
      <trkpt lat="48.675432" lon="-2.978196">
        <ele>88.2</ele>
        <time>2020-08-13T20:02:25Z</time>
      </trkpt>
      <trkpt lat="48.674883" lon="-2.978123">
        <ele>88.0</ele>
        <time>2020-08-13T20:02:30Z</time>
      </trkpt>
      <trkpt lat="48.673959" lon="-2.97808">
        <ele>88.4</ele>
        <time>2020-08-13T20:02:37Z</time>
      </trkpt>
      <trkpt lat="48.673392" lon="-2.977926">
        <ele>88.4</ele>
        <time>2020-08-13T20:02:41Z</time>
      </trkpt>
      <trkpt lat="48.671855" lon="-2.97774">
        <ele>86.6</ele>
        <time>2020-08-13T20:02:53Z</time>
      </trkpt>
      <trkpt lat="48.671645" lon="-2.977759">
        <ele>83.0</ele>
        <time>2020-08-13T20:02:55Z</time>
      </trkpt>
      <trkpt lat="48.671341" lon="-2.977854">
        <ele>83.0</ele>
        <time>2020-08-13T20:02:57Z</time>
      </trkpt>
      <trkpt lat="48.671128" lon="-2.978015">
        <ele>83.0</ele>
        <time>2020-08-13T20:02:59Z</time>
      </trkpt>
      <trkpt lat="48.670838" lon="-2.978359">
        <ele>80.8</ele>
        <time>2020-08-13T20:03:02Z</time>
      </trkpt>
      <trkpt lat="48.670296" lon="-2.97889">
        <ele>76.4</ele>
        <time>2020-08-13T20:03:07Z</time>
      </trkpt>
      <trkpt lat="48.669941" lon="-2.979187">
        <ele>71.6</ele>
        <time>2020-08-13T20:03:10Z</time>
      </trkpt>
      <trkpt lat="48.669255" lon="-2.979609">
        <ele>71.6</ele>
        <time>2020-08-13T20:03:15Z</time>
      </trkpt>
      <trkpt lat="48.668646" lon="-2.980098">
        <ele>66.8</ele>
        <time>2020-08-13T20:03:21Z</time>
      </trkpt>
      <trkpt lat="48.668504" lon="-2.980285">
        <ele>66.8</ele>
        <time>2020-08-13T20:03:22Z</time>
      </trkpt>
      <trkpt lat="48.668287" lon="-2.980867">
        <ele>64.4</ele>
        <time>2020-08-13T20:03:26Z</time>
      </trkpt>
      <trkpt lat="48.668109" lon="-2.981144">
        <ele>64.4</ele>
        <time>2020-08-13T20:03:28Z</time>
      </trkpt>
      <trkpt lat="48.667996" lon="-2.981284">
        <ele>64.4</ele>
        <time>2020-08-13T20:03:29Z</time>
      </trkpt>
      <trkpt lat="48.667655" lon="-2.981581">
        <ele>64.4</ele>
        <time>2020-08-13T20:03:32Z</time>
      </trkpt>
      <trkpt lat="48.665982" lon="-2.983227">
        <ele>63.8</ele>
        <time>2020-08-13T20:03:47Z</time>
      </trkpt>
      <trkpt lat="48.665626" lon="-2.983491">
        <ele>60.8</ele>
        <time>2020-08-13T20:03:50Z</time>
      </trkpt>
      <trkpt lat="48.665573" lon="-2.983558">
        <ele>60.8</ele>
        <time>2020-08-13T20:03:51Z</time>
      </trkpt>
      <trkpt lat="48.665534" lon="-2.983658">
        <ele>60.8</ele>
        <time>2020-08-13T20:03:51Z</time>
      </trkpt>
      <trkpt lat="48.665469" lon="-2.983444">
        <ele>60.8</ele>
        <time>2020-08-13T20:03:53Z</time>
      </trkpt>
      <trkpt lat="48.665282" lon="-2.983018">
        <ele>61.4</ele>
        <time>2020-08-13T20:03:55Z</time>
      </trkpt>
      <trkpt lat="48.665088" lon="-2.982819">
        <ele>61.4</ele>
        <time>2020-08-13T20:03:57Z</time>
      </trkpt>
      <trkpt lat="48.664918" lon="-2.982584">
        <ele>59.6</ele>
        <time>2020-08-13T20:03:59Z</time>
      </trkpt>
      <trkpt lat="48.664533" lon="-2.982135">
        <ele>60.8</ele>
        <time>2020-08-13T20:04:03Z</time>
      </trkpt>
      <trkpt lat="48.664029" lon="-2.98174">
        <ele>59.0</ele>
        <time>2020-08-13T20:04:07Z</time>
      </trkpt>
      <trkpt lat="48.663666" lon="-2.981517">
        <ele>60.2</ele>
        <time>2020-08-13T20:04:10Z</time>
      </trkpt>
      <trkpt lat="48.663451" lon="-2.981311">
        <ele>60.2</ele>
        <time>2020-08-13T20:04:12Z</time>
      </trkpt>
      <trkpt lat="48.663176" lon="-2.980982">
        <ele>58.0</ele>
        <time>2020-08-13T20:04:15Z</time>
      </trkpt>
      <trkpt lat="48.662923" lon="-2.980736">
        <ele>59.0</ele>
        <time>2020-08-13T20:04:17Z</time>
      </trkpt>
      <trkpt lat="48.662606" lon="-2.980504">
        <ele>59.0</ele>
        <time>2020-08-13T20:04:20Z</time>
      </trkpt>
      <trkpt lat="48.66239" lon="-2.980438">
        <ele>56.0</ele>
        <time>2020-08-13T20:04:21Z</time>
      </trkpt>
      <trkpt lat="48.661977" lon="-2.980422">
        <ele>56.0</ele>
        <time>2020-08-13T20:04:25Z</time>
      </trkpt>
      <trkpt lat="48.661832" lon="-2.980374">
        <ele>56.0</ele>
        <time>2020-08-13T20:04:26Z</time>
      </trkpt>
      <trkpt lat="48.661602" lon="-2.980213">
        <ele>55.0</ele>
        <time>2020-08-13T20:04:28Z</time>
      </trkpt>
      <trkpt lat="48.661376" lon="-2.979757">
        <ele>56.6</ele>
        <time>2020-08-13T20:04:31Z</time>
      </trkpt>
      <trkpt lat="48.660888" lon="-2.97811">
        <ele>59.2</ele>
        <time>2020-08-13T20:04:40Z</time>
      </trkpt>
      <trkpt lat="48.660735" lon="-2.97774">
        <ele>59.0</ele>
        <time>2020-08-13T20:04:42Z</time>
      </trkpt>
      <trkpt lat="48.66067" lon="-2.977656">
        <ele>59.0</ele>
        <time>2020-08-13T20:04:43Z</time>
      </trkpt>
      <trkpt lat="48.660469" lon="-2.977483">
        <ele>59.4</ele>
        <time>2020-08-13T20:04:45Z</time>
      </trkpt>
      <trkpt lat="48.660334" lon="-2.977287">
        <ele>59.4</ele>
        <time>2020-08-13T20:04:46Z</time>
      </trkpt>
      <trkpt lat="48.66023" lon="-2.977078">
        <ele>59.4</ele>
        <time>2020-08-13T20:04:47Z</time>
      </trkpt>
      <trkpt lat="48.660049" lon="-2.976565">
        <ele>59.4</ele>
        <time>2020-08-13T20:04:50Z</time>
      </trkpt>
      <trkpt lat="48.659828" lon="-2.976058">
        <ele>58.2</ele>
        <time>2020-08-13T20:04:53Z</time>
      </trkpt>
      <trkpt lat="48.659471" lon="-2.975638">
        <ele>58.4</ele>
        <time>2020-08-13T20:04:57Z</time>
      </trkpt>
      <trkpt lat="48.658581" lon="-2.974728">
        <ele>58.8</ele>
        <time>2020-08-13T20:05:05Z</time>
      </trkpt>
      <trkpt lat="48.65752" lon="-2.973234">
        <ele>60.8</ele>
        <time>2020-08-13T20:05:16Z</time>
      </trkpt>
      <trkpt lat="48.65701" lon="-2.972925">
        <ele>59.6</ele>
        <time>2020-08-13T20:05:21Z</time>
      </trkpt>
      <trkpt lat="48.65664" lon="-2.972567">
        <ele>59.8</ele>
        <time>2020-08-13T20:05:24Z</time>
      </trkpt>
      <trkpt lat="48.656472" lon="-2.972359">
        <ele>61.4</ele>
        <time>2020-08-13T20:05:26Z</time>
      </trkpt>
      <trkpt lat="48.656335" lon="-2.97205">
        <ele>61.4</ele>
        <time>2020-08-13T20:05:28Z</time>
      </trkpt>
      <trkpt lat="48.656092" lon="-2.971338">
        <ele>62.2</ele>
        <time>2020-08-13T20:05:32Z</time>
      </trkpt>
      <trkpt lat="48.655782" lon="-2.970577">
        <ele>62.0</ele>
        <time>2020-08-13T20:05:36Z</time>
      </trkpt>
      <trkpt lat="48.655394" lon="-2.969801">
        <ele>63.0</ele>
        <time>2020-08-13T20:05:41Z</time>
      </trkpt>
      <trkpt lat="48.655122" lon="-2.96902">
        <ele>64.4</ele>
        <time>2020-08-13T20:05:46Z</time>
      </trkpt>
      <trkpt lat="48.654769" lon="-2.967745">
        <ele>63.4</ele>
        <time>2020-08-13T20:05:53Z</time>
      </trkpt>
      <trkpt lat="48.654679" lon="-2.967531">
        <ele>63.4</ele>
        <time>2020-08-13T20:05:54Z</time>
      </trkpt>
      <trkpt lat="48.654578" lon="-2.967363">
        <ele>64.0</ele>
        <time>2020-08-13T20:05:55Z</time>
      </trkpt>
      <trkpt lat="48.65299" lon="-2.965527">
        <ele>63.4</ele>
        <time>2020-08-13T20:06:11Z</time>
      </trkpt>
      <trkpt lat="48.65172" lon="-2.96448">
        <ele>66.2</ele>
        <time>2020-08-13T20:06:22Z</time>
      </trkpt>
      <trkpt lat="48.651493" lon="-2.964221">
        <ele>65.4</ele>
        <time>2020-08-13T20:06:24Z</time>
      </trkpt>
      <trkpt lat="48.651261" lon="-2.963888">
        <ele>66.4</ele>
        <time>2020-08-13T20:06:26Z</time>
      </trkpt>
      <trkpt lat="48.65096" lon="-2.963298">
        <ele>68.6</ele>
        <time>2020-08-13T20:06:30Z</time>
      </trkpt>
      <trkpt lat="48.650854" lon="-2.963023">
        <ele>68.6</ele>
        <time>2020-08-13T20:06:32Z</time>
      </trkpt>
      <trkpt lat="48.650637" lon="-2.962618">
        <ele>66.6</ele>
        <time>2020-08-13T20:06:35Z</time>
      </trkpt>
      <trkpt lat="48.650636" lon="-2.962544">
        <ele>66.6</ele>
        <time>2020-08-13T20:06:35Z</time>
      </trkpt>
      <trkpt lat="48.650186" lon="-2.963316">
        <ele>66.6</ele>
        <time>2020-08-13T20:06:40Z</time>
      </trkpt>
      <trkpt lat="48.649881" lon="-2.963745">
        <ele>63.6</ele>
        <time>2020-08-13T20:06:42Z</time>
      </trkpt>
      <trkpt lat="48.649714" lon="-2.963921">
        <ele>63.6</ele>
        <time>2020-08-13T20:06:44Z</time>
      </trkpt>
      <trkpt lat="48.649515" lon="-2.964042">
        <ele>63.6</ele>
        <time>2020-08-13T20:06:45Z</time>
      </trkpt>
      <trkpt lat="48.649213" lon="-2.964129">
        <ele>63.6</ele>
        <time>2020-08-13T20:06:47Z</time>
      </trkpt>
      <trkpt lat="48.648799" lon="-2.964193">
        <ele>65.8</ele>
        <time>2020-08-13T20:06:50Z</time>
      </trkpt>
      <trkpt lat="48.647904" lon="-2.964196">
        <ele>68.0</ele>
        <time>2020-08-13T20:06:56Z</time>
      </trkpt>
      <trkpt lat="48.647121" lon="-2.964353">
        <ele>67.4</ele>
        <time>2020-08-13T20:07:02Z</time>
      </trkpt>
      <trkpt lat="48.64671" lon="-2.964559">
        <ele>67.4</ele>
        <time>2020-08-13T20:07:04Z</time>
      </trkpt>
      <trkpt lat="48.646428" lon="-2.964802">
        <ele>66.6</ele>
        <time>2020-08-13T20:07:07Z</time>
      </trkpt>
      <trkpt lat="48.646199" lon="-2.965083">
        <ele>66.8</ele>
        <time>2020-08-13T20:07:09Z</time>
      </trkpt>
      <trkpt lat="48.645961" lon="-2.965461">
        <ele>66.8</ele>
        <time>2020-08-13T20:07:11Z</time>
      </trkpt>
      <trkpt lat="48.644833" lon="-2.967666">
        <ele>71.4</ele>
        <time>2020-08-13T20:07:23Z</time>
      </trkpt>
      <trkpt lat="48.644623" lon="-2.968031">
        <ele>71.4</ele>
        <time>2020-08-13T20:07:26Z</time>
      </trkpt>
      <trkpt lat="48.644437" lon="-2.968298">
        <ele>71.4</ele>
        <time>2020-08-13T20:07:27Z</time>
      </trkpt>
      <trkpt lat="48.643975" lon="-2.968749">
        <ele>71.8</ele>
        <time>2020-08-13T20:07:31Z</time>
      </trkpt>
      <trkpt lat="48.643565" lon="-2.968968">
        <ele>71.8</ele>
        <time>2020-08-13T20:07:34Z</time>
      </trkpt>
      <trkpt lat="48.64288" lon="-2.969181">
        <ele>73.2</ele>
        <time>2020-08-13T20:07:39Z</time>
      </trkpt>
      <trkpt lat="48.642547" lon="-2.969332">
        <ele>73.2</ele>
        <time>2020-08-13T20:07:41Z</time>
      </trkpt>
      <trkpt lat="48.642193" lon="-2.969673">
        <ele>76.0</ele>
        <time>2020-08-13T20:07:44Z</time>
      </trkpt>
      <trkpt lat="48.6408" lon="-2.97134">
        <ele>85.8</ele>
        <time>2020-08-13T20:07:56Z</time>
      </trkpt>
      <trkpt lat="48.640239" lon="-2.971911">
        <ele>85.0</ele>
        <time>2020-08-13T20:08:00Z</time>
      </trkpt>
      <trkpt lat="48.640098" lon="-2.9722">
        <ele>85.0</ele>
        <time>2020-08-13T20:08:02Z</time>
      </trkpt>
      <trkpt lat="48.639457" lon="-2.973975">
        <ele>84.8</ele>
        <time>2020-08-13T20:08:11Z</time>
      </trkpt>
      <trkpt lat="48.639272" lon="-2.974443">
        <ele>84.0</ele>
        <time>2020-08-13T20:08:14Z</time>
      </trkpt>
      <trkpt lat="48.639081" lon="-2.97473">
        <ele>85.0</ele>
        <time>2020-08-13T20:08:15Z</time>
      </trkpt>
      <trkpt lat="48.638876" lon="-2.974933">
        <ele>85.0</ele>
        <time>2020-08-13T20:08:17Z</time>
      </trkpt>
      <trkpt lat="48.636977" lon="-2.975707">
        <ele>85.2</ele>
        <time>2020-08-13T20:08:30Z</time>
      </trkpt>
      <trkpt lat="48.636501" lon="-2.97588">
        <ele>87.4</ele>
        <time>2020-08-13T20:08:34Z</time>
      </trkpt>
      <trkpt lat="48.63611" lon="-2.975949">
        <ele>87.4</ele>
        <time>2020-08-13T20:08:36Z</time>
      </trkpt>
      <trkpt lat="48.634087" lon="-2.975792">
        <ele>89.2</ele>
        <time>2020-08-13T20:08:50Z</time>
      </trkpt>
      <trkpt lat="48.63387" lon="-2.975808">
        <ele>89.2</ele>
        <time>2020-08-13T20:08:52Z</time>
      </trkpt>
      <trkpt lat="48.633767" lon="-2.975898">
        <ele>90.0</ele>
        <time>2020-08-13T20:08:52Z</time>
      </trkpt>
      <trkpt lat="48.633732" lon="-2.976223">
        <ele>90.0</ele>
        <time>2020-08-13T20:08:54Z</time>
      </trkpt>
      <trkpt lat="48.633749" lon="-2.976323">
        <ele>90.0</ele>
        <time>2020-08-13T20:08:54Z</time>
      </trkpt>
      <trkpt lat="48.633747" lon="-2.976487">
        <ele>90.0</ele>
        <time>2020-08-13T20:08:55Z</time>
      </trkpt>
      <trkpt lat="48.633689" lon="-2.976694">
        <ele>91.4</ele>
        <time>2020-08-13T20:08:56Z</time>
      </trkpt>
      <trkpt lat="48.633623" lon="-2.976801">
        <ele>91.4</ele>
        <time>2020-08-13T20:08:57Z</time>
      </trkpt>
      <trkpt lat="48.633516" lon="-2.976887">
        <ele>91.4</ele>
        <time>2020-08-13T20:08:57Z</time>
      </trkpt>
      <trkpt lat="48.633363" lon="-2.976907">
        <ele>91.4</ele>
        <time>2020-08-13T20:08:58Z</time>
      </trkpt>
      <trkpt lat="48.633268" lon="-2.976865">
        <ele>91.2</ele>
        <time>2020-08-13T20:08:59Z</time>
      </trkpt>
      <trkpt lat="48.633186" lon="-2.976784">
        <ele>91.2</ele>
        <time>2020-08-13T20:09:00Z</time>
      </trkpt>
      <trkpt lat="48.633125" lon="-2.976678">
        <ele>91.2</ele>
        <time>2020-08-13T20:09:00Z</time>
      </trkpt>
      <trkpt lat="48.633083" lon="-2.976543">
        <ele>90.6</ele>
        <time>2020-08-13T20:09:01Z</time>
      </trkpt>
      <trkpt lat="48.63301" lon="-2.976469">
        <ele>90.6</ele>
        <time>2020-08-13T20:09:02Z</time>
      </trkpt>
      <trkpt lat="48.632881" lon="-2.976389">
        <ele>90.6</ele>
        <time>2020-08-13T20:09:02Z</time>
      </trkpt>
      <trkpt lat="48.632735" lon="-2.976345">
        <ele>90.6</ele>
        <time>2020-08-13T20:09:03Z</time>
      </trkpt>
      <trkpt lat="48.629527" lon="-2.97621">
        <ele>102.2</ele>
        <time>2020-08-13T20:09:25Z</time>
      </trkpt>
      <trkpt lat="48.628867" lon="-2.976112">
        <ele>101.8</ele>
        <time>2020-08-13T20:09:29Z</time>
      </trkpt>
      <trkpt lat="48.628366" lon="-2.975981">
        <ele>101.8</ele>
        <time>2020-08-13T20:09:32Z</time>
      </trkpt>
      <trkpt lat="48.627744" lon="-2.97574">
        <ele>103.2</ele>
        <time>2020-08-13T20:09:36Z</time>
      </trkpt>
      <trkpt lat="48.627382" lon="-2.975568">
        <ele>101.0</ele>
        <time>2020-08-13T20:09:39Z</time>
      </trkpt>
      <trkpt lat="48.62657" lon="-2.975075">
        <ele>99.0</ele>
        <time>2020-08-13T20:09:45Z</time>
      </trkpt>
      <trkpt lat="48.62605" lon="-2.974667">
        <ele>99.0</ele>
        <time>2020-08-13T20:09:49Z</time>
      </trkpt>
      <trkpt lat="48.625769" lon="-2.974421">
        <ele>100.2</ele>
        <time>2020-08-13T20:09:51Z</time>
      </trkpt>
      <trkpt lat="48.625255" lon="-2.973913">
        <ele>99.6</ele>
        <time>2020-08-13T20:09:55Z</time>
      </trkpt>
      <trkpt lat="48.623869" lon="-2.9723">
        <ele>99.2</ele>
        <time>2020-08-13T20:10:06Z</time>
      </trkpt>
      <trkpt lat="48.623039" lon="-2.9713">
        <ele>101.0</ele>
        <time>2020-08-13T20:10:13Z</time>
      </trkpt>
      <trkpt lat="48.622665" lon="-2.970888">
        <ele>101.0</ele>
        <time>2020-08-13T20:10:16Z</time>
      </trkpt>
      <trkpt lat="48.621958" lon="-2.970217">
        <ele>103.0</ele>
        <time>2020-08-13T20:10:22Z</time>
      </trkpt>
      <trkpt lat="48.621716" lon="-2.970016">
        <ele>103.0</ele>
        <time>2020-08-13T20:10:24Z</time>
      </trkpt>
      <trkpt lat="48.621124" lon="-2.969587">
        <ele>103.4</ele>
        <time>2020-08-13T20:10:28Z</time>
      </trkpt>
      <trkpt lat="48.620265" lon="-2.969066">
        <ele>103.0</ele>
        <time>2020-08-13T20:10:34Z</time>
      </trkpt>
      <trkpt lat="48.619322" lon="-2.968637">
        <ele>102.0</ele>
        <time>2020-08-13T20:10:40Z</time>
      </trkpt>
      <trkpt lat="48.618455" lon="-2.968211">
        <ele>101.0</ele>
        <time>2020-08-13T20:10:46Z</time>
      </trkpt>
      <trkpt lat="48.61644" lon="-2.967337">
        <ele>104.0</ele>
        <time>2020-08-13T20:11:00Z</time>
      </trkpt>
      <trkpt lat="48.616029" lon="-2.967058">
        <ele>104.0</ele>
        <time>2020-08-13T20:11:03Z</time>
      </trkpt>
      <trkpt lat="48.615865" lon="-2.966919">
        <ele>104.0</ele>
        <time>2020-08-13T20:11:04Z</time>
      </trkpt>
      <trkpt lat="48.61556" lon="-2.96661">
        <ele>103.4</ele>
        <time>2020-08-13T20:11:07Z</time>
      </trkpt>
      <trkpt lat="48.611894" lon="-2.962199">
        <ele>99.8</ele>
        <time>2020-08-13T20:11:38Z</time>
      </trkpt>
      <trkpt lat="48.610654" lon="-2.960757">
        <ele>107.0</ele>
        <time>2020-08-13T20:11:48Z</time>
      </trkpt>
      <trkpt lat="48.610061" lon="-2.960201">
        <ele>107.0</ele>
        <time>2020-08-13T20:11:52Z</time>
      </trkpt>
      <trkpt lat="48.609794" lon="-2.95998">
        <ele>104.4</ele>
        <time>2020-08-13T20:11:54Z</time>
      </trkpt>
      <trkpt lat="48.609351" lon="-2.959685">
        <ele>104.4</ele>
        <time>2020-08-13T20:11:58Z</time>
      </trkpt>
      <trkpt lat="48.604216" lon="-2.956601">
        <ele>104.6</ele>
        <time>2020-08-13T20:12:34Z</time>
      </trkpt>
      <trkpt lat="48.603701" lon="-2.956308">
        <ele>104.4</ele>
        <time>2020-08-13T20:12:38Z</time>
      </trkpt>
      <trkpt lat="48.600458" lon="-2.954633">
        <ele>106.6</ele>
        <time>2020-08-13T20:13:00Z</time>
      </trkpt>
      <trkpt lat="48.599611" lon="-2.954152">
        <ele>106.8</ele>
        <time>2020-08-13T20:13:06Z</time>
      </trkpt>
      <trkpt lat="48.599309" lon="-2.953863">
        <ele>106.8</ele>
        <time>2020-08-13T20:13:08Z</time>
      </trkpt>
      <trkpt lat="48.597936" lon="-2.952318">
        <ele>108.8</ele>
        <time>2020-08-13T20:13:20Z</time>
      </trkpt>
      <trkpt lat="48.597657" lon="-2.952052">
        <ele>108.8</ele>
        <time>2020-08-13T20:13:22Z</time>
      </trkpt>
      <trkpt lat="48.597413" lon="-2.951843">
        <ele>109.2</ele>
        <time>2020-08-13T20:13:24Z</time>
      </trkpt>
      <trkpt lat="48.596329" lon="-2.951017">
        <ele>109.2</ele>
        <time>2020-08-13T20:13:32Z</time>
      </trkpt>
      <trkpt lat="48.59529" lon="-2.950089">
        <ele>109.6</ele>
        <time>2020-08-13T20:13:40Z</time>
      </trkpt>
      <trkpt lat="48.594712" lon="-2.949543">
        <ele>110.6</ele>
        <time>2020-08-13T20:13:44Z</time>
      </trkpt>
      <trkpt lat="48.594435" lon="-2.949202">
        <ele>110.6</ele>
        <time>2020-08-13T20:13:46Z</time>
      </trkpt>
      <trkpt lat="48.593557" lon="-2.947718">
        <ele>112.2</ele>
        <time>2020-08-13T20:13:55Z</time>
      </trkpt>
      <trkpt lat="48.592149" lon="-2.945425">
        <ele>114.2</ele>
        <time>2020-08-13T20:14:09Z</time>
      </trkpt>
      <trkpt lat="48.591616" lon="-2.944511">
        <ele>119.0</ele>
        <time>2020-08-13T20:14:14Z</time>
      </trkpt>
      <trkpt lat="48.590998" lon="-2.943181">
        <ele>118.2</ele>
        <time>2020-08-13T20:14:21Z</time>
      </trkpt>
      <trkpt lat="48.590074" lon="-2.940971">
        <ele>119.0</ele>
        <time>2020-08-13T20:14:32Z</time>
      </trkpt>
      <trkpt lat="48.589915" lon="-2.940669">
        <ele>123.0</ele>
        <time>2020-08-13T20:14:34Z</time>
      </trkpt>
      <trkpt lat="48.589685" lon="-2.940306">
        <ele>123.0</ele>
        <time>2020-08-13T20:14:36Z</time>
      </trkpt>
      <trkpt lat="48.589473" lon="-2.94002">
        <ele>123.0</ele>
        <time>2020-08-13T20:14:38Z</time>
      </trkpt>
      <trkpt lat="48.58928" lon="-2.939806">
        <ele>121.0</ele>
        <time>2020-08-13T20:14:40Z</time>
      </trkpt>
      <trkpt lat="48.589091" lon="-2.93964">
        <ele>124.2</ele>
        <time>2020-08-13T20:14:41Z</time>
      </trkpt>
      <trkpt lat="48.585602" lon="-2.936973">
        <ele>122.8</ele>
        <time>2020-08-13T20:15:07Z</time>
      </trkpt>
      <trkpt lat="48.584784" lon="-2.9363">
        <ele>122.4</ele>
        <time>2020-08-13T20:15:13Z</time>
      </trkpt>
      <trkpt lat="48.58414" lon="-2.935733">
        <ele>118.6</ele>
        <time>2020-08-13T20:15:18Z</time>
      </trkpt>
      <trkpt lat="48.583353" lon="-2.934992">
        <ele>117.2</ele>
        <time>2020-08-13T20:15:24Z</time>
      </trkpt>
      <trkpt lat="48.582559" lon="-2.934204">
        <ele>120.2</ele>
        <time>2020-08-13T20:15:30Z</time>
      </trkpt>
      <trkpt lat="48.575892" lon="-2.927325">
        <ele>110.6</ele>
        <time>2020-08-13T20:16:23Z</time>
      </trkpt>
      <trkpt lat="48.575365" lon="-2.926713">
        <ele>110.8</ele>
        <time>2020-08-13T20:16:28Z</time>
      </trkpt>
      <trkpt lat="48.575094" lon="-2.926333">
        <ele>111.2</ele>
        <time>2020-08-13T20:16:30Z</time>
      </trkpt>
      <trkpt lat="48.574844" lon="-2.925924">
        <ele>111.6</ele>
        <time>2020-08-13T20:16:33Z</time>
      </trkpt>
      <trkpt lat="48.574627" lon="-2.925519">
        <ele>111.0</ele>
        <time>2020-08-13T20:16:35Z</time>
      </trkpt>
      <trkpt lat="48.57441" lon="-2.925063">
        <ele>111.0</ele>
        <time>2020-08-13T20:16:37Z</time>
      </trkpt>
      <trkpt lat="48.574147" lon="-2.924388">
        <ele>109.8</ele>
        <time>2020-08-13T20:16:41Z</time>
      </trkpt>
      <trkpt lat="48.573974" lon="-2.923849">
        <ele>109.2</ele>
        <time>2020-08-13T20:16:43Z</time>
      </trkpt>
      <trkpt lat="48.573786" lon="-2.923113">
        <ele>108.2</ele>
        <time>2020-08-13T20:16:47Z</time>
      </trkpt>
      <trkpt lat="48.573677" lon="-2.922526">
        <ele>108.2</ele>
        <time>2020-08-13T20:16:49Z</time>
      </trkpt>
      <trkpt lat="48.5736" lon="-2.921989">
        <ele>105.8</ele>
        <time>2020-08-13T20:16:52Z</time>
      </trkpt>
      <trkpt lat="48.57353" lon="-2.92121">
        <ele>103.4</ele>
        <time>2020-08-13T20:16:55Z</time>
      </trkpt>
      <trkpt lat="48.57351" lon="-2.920521">
        <ele>101.4</ele>
        <time>2020-08-13T20:16:58Z</time>
      </trkpt>
      <trkpt lat="48.57354" lon="-2.919841">
        <ele>98.6</ele>
        <time>2020-08-13T20:17:01Z</time>
      </trkpt>
      <trkpt lat="48.573588" lon="-2.919245">
        <ele>98.6</ele>
        <time>2020-08-13T20:17:04Z</time>
      </trkpt>
      <trkpt lat="48.573675" lon="-2.918611">
        <ele>95.6</ele>
        <time>2020-08-13T20:17:07Z</time>
      </trkpt>
      <trkpt lat="48.574248" lon="-2.915741">
        <ele>86.6</ele>
        <time>2020-08-13T20:17:20Z</time>
      </trkpt>
      <trkpt lat="48.574412" lon="-2.914852">
        <ele>85.4</ele>
        <time>2020-08-13T20:17:24Z</time>
      </trkpt>
      <trkpt lat="48.574465" lon="-2.914488">
        <ele>85.4</ele>
        <time>2020-08-13T20:17:25Z</time>
      </trkpt>
      <trkpt lat="48.574668" lon="-2.91265">
        <ele>86.4</ele>
        <time>2020-08-13T20:17:33Z</time>
      </trkpt>
      <trkpt lat="48.574736" lon="-2.911927">
        <ele>87.0</ele>
        <time>2020-08-13T20:17:37Z</time>
      </trkpt>
      <trkpt lat="48.574771" lon="-2.911186">
        <ele>85.8</ele>
        <time>2020-08-13T20:17:40Z</time>
      </trkpt>
      <trkpt lat="48.574743" lon="-2.910582">
        <ele>83.0</ele>
        <time>2020-08-13T20:17:42Z</time>
      </trkpt>
      <trkpt lat="48.574667" lon="-2.910025">
        <ele>83.0</ele>
        <time>2020-08-13T20:17:45Z</time>
      </trkpt>
      <trkpt lat="48.574442" lon="-2.908642">
        <ele>79.6</ele>
        <time>2020-08-13T20:17:51Z</time>
      </trkpt>
      <trkpt lat="48.574398" lon="-2.908237">
        <ele>78.6</ele>
        <time>2020-08-13T20:17:53Z</time>
      </trkpt>
      <trkpt lat="48.574384" lon="-2.907885">
        <ele>78.6</ele>
        <time>2020-08-13T20:17:54Z</time>
      </trkpt>
      <trkpt lat="48.574403" lon="-2.907528">
        <ele>78.6</ele>
        <time>2020-08-13T20:17:56Z</time>
      </trkpt>
      <trkpt lat="48.574602" lon="-2.905755">
        <ele>71.4</ele>
        <time>2020-08-13T20:18:04Z</time>
      </trkpt>
      <trkpt lat="48.574598" lon="-2.905158">
        <ele>71.4</ele>
        <time>2020-08-13T20:18:06Z</time>
      </trkpt>
      <trkpt lat="48.57458" lon="-2.904867">
        <ele>69.0</ele>
        <time>2020-08-13T20:18:08Z</time>
      </trkpt>
      <trkpt lat="48.5745" lon="-2.904274">
        <ele>69.0</ele>
        <time>2020-08-13T20:18:10Z</time>
      </trkpt>
      <trkpt lat="48.574375" lon="-2.903734">
        <ele>63.2</ele>
        <time>2020-08-13T20:18:13Z</time>
      </trkpt>
      <trkpt lat="48.574288" lon="-2.903455">
        <ele>63.2</ele>
        <time>2020-08-13T20:18:14Z</time>
      </trkpt>
      <trkpt lat="48.574207" lon="-2.903239">
        <ele>57.6</ele>
        <time>2020-08-13T20:18:15Z</time>
      </trkpt>
      <trkpt lat="48.57401" lon="-2.90283">
        <ele>58.4</ele>
        <time>2020-08-13T20:18:18Z</time>
      </trkpt>
      <trkpt lat="48.573671" lon="-2.902271">
        <ele>59.0</ele>
        <time>2020-08-13T20:18:21Z</time>
      </trkpt>
      <trkpt lat="48.573464" lon="-2.902013">
        <ele>59.0</ele>
        <time>2020-08-13T20:18:23Z</time>
      </trkpt>
      <trkpt lat="48.573129" lon="-2.901675">
        <ele>59.0</ele>
        <time>2020-08-13T20:18:25Z</time>
      </trkpt>
      <trkpt lat="48.572788" lon="-2.901426">
        <ele>64.6</ele>
        <time>2020-08-13T20:18:28Z</time>
      </trkpt>
      <trkpt lat="48.57249" lon="-2.90127">
        <ele>64.0</ele>
        <time>2020-08-13T20:18:30Z</time>
      </trkpt>
      <trkpt lat="48.572044" lon="-2.901135">
        <ele>64.0</ele>
        <time>2020-08-13T20:18:33Z</time>
      </trkpt>
      <trkpt lat="48.570679" lon="-2.900868">
        <ele>63.0</ele>
        <time>2020-08-13T20:18:42Z</time>
      </trkpt>
      <trkpt lat="48.57031" lon="-2.900753">
        <ele>72.2</ele>
        <time>2020-08-13T20:18:44Z</time>
      </trkpt>
      <trkpt lat="48.569974" lon="-2.900599">
        <ele>70.8</ele>
        <time>2020-08-13T20:18:47Z</time>
      </trkpt>
      <trkpt lat="48.569557" lon="-2.900321">
        <ele>70.8</ele>
        <time>2020-08-13T20:18:50Z</time>
      </trkpt>
      <trkpt lat="48.5692" lon="-2.899991">
        <ele>77.8</ele>
        <time>2020-08-13T20:18:52Z</time>
      </trkpt>
      <trkpt lat="48.56065" lon="-2.89063">
        <ele>111.2</ele>
        <time>2020-08-13T20:20:02Z</time>
      </trkpt>
      <trkpt lat="48.55927" lon="-2.889093">
        <ele>109.2</ele>
        <time>2020-08-13T20:20:13Z</time>
      </trkpt>
      <trkpt lat="48.558573" lon="-2.888208">
        <ele>108.8</ele>
        <time>2020-08-13T20:20:19Z</time>
      </trkpt>
      <trkpt lat="48.557986" lon="-2.887291">
        <ele>110.0</ele>
        <time>2020-08-13T20:20:25Z</time>
      </trkpt>
      <trkpt lat="48.557582" lon="-2.886501">
        <ele>110.2</ele>
        <time>2020-08-13T20:20:29Z</time>
      </trkpt>
      <trkpt lat="48.557181" lon="-2.885564">
        <ele>113.0</ele>
        <time>2020-08-13T20:20:34Z</time>
      </trkpt>
      <trkpt lat="48.55681" lon="-2.884544">
        <ele>113.6</ele>
        <time>2020-08-13T20:20:39Z</time>
      </trkpt>
      <trkpt lat="48.556543" lon="-2.883566">
        <ele>115.2</ele>
        <time>2020-08-13T20:20:44Z</time>
      </trkpt>
      <trkpt lat="48.556355" lon="-2.88269">
        <ele>116.4</ele>
        <time>2020-08-13T20:20:48Z</time>
      </trkpt>
      <trkpt lat="48.556202" lon="-2.881626">
        <ele>116.6</ele>
        <time>2020-08-13T20:20:52Z</time>
      </trkpt>
      <trkpt lat="48.555586" lon="-2.876513">
        <ele>112.6</ele>
        <time>2020-08-13T20:21:15Z</time>
      </trkpt>
      <trkpt lat="48.555291" lon="-2.874355">
        <ele>109.0</ele>
        <time>2020-08-13T20:21:25Z</time>
      </trkpt>
      <trkpt lat="48.555155" lon="-2.873463">
        <ele>108.4</ele>
        <time>2020-08-13T20:21:29Z</time>
      </trkpt>
      <trkpt lat="48.554785" lon="-2.87128">
        <ele>104.6</ele>
        <time>2020-08-13T20:21:38Z</time>
      </trkpt>
      <trkpt lat="48.552717" lon="-2.860838">
        <ele>118.4</ele>
        <time>2020-08-13T20:22:26Z</time>
      </trkpt>
      <trkpt lat="48.551704" lon="-2.855821">
        <ele>117.2</ele>
        <time>2020-08-13T20:22:49Z</time>
      </trkpt>
      <trkpt lat="48.550901" lon="-2.851658">
        <ele>113.2</ele>
        <time>2020-08-13T20:23:07Z</time>
      </trkpt>
      <trkpt lat="48.55023" lon="-2.848997">
        <ele>107.4</ele>
        <time>2020-08-13T20:23:20Z</time>
      </trkpt>
      <trkpt lat="48.54977" lon="-2.847366">
        <ele>108.8</ele>
        <time>2020-08-13T20:23:28Z</time>
      </trkpt>
      <trkpt lat="48.549633" lon="-2.846911">
        <ele>108.8</ele>
        <time>2020-08-13T20:23:30Z</time>
      </trkpt>
      <trkpt lat="48.549471" lon="-2.846457">
        <ele>110.2</ele>
        <time>2020-08-13T20:23:32Z</time>
      </trkpt>
      <trkpt lat="48.549248" lon="-2.845927">
        <ele>110.2</ele>
        <time>2020-08-13T20:23:35Z</time>
      </trkpt>
      <trkpt lat="48.548737" lon="-2.84493">
        <ele>116.4</ele>
        <time>2020-08-13T20:23:40Z</time>
      </trkpt>
      <trkpt lat="48.543281" lon="-2.836768">
        <ele>127.6</ele>
        <time>2020-08-13T20:24:31Z</time>
      </trkpt>
      <trkpt lat="48.542789" lon="-2.836114">
        <ele>128.2</ele>
        <time>2020-08-13T20:24:35Z</time>
      </trkpt>
      <trkpt lat="48.542223" lon="-2.835262">
        <ele>129.0</ele>
        <time>2020-08-13T20:24:41Z</time>
      </trkpt>
      <trkpt lat="48.541778" lon="-2.834617">
        <ele>129.4</ele>
        <time>2020-08-13T20:24:44Z</time>
      </trkpt>
      <trkpt lat="48.54197" lon="-2.834381">
        <ele>129.4</ele>
        <time>2020-08-13T20:24:45Z</time>
      </trkpt>
      <trkpt lat="48.542018" lon="-2.834233">
        <ele>129.4</ele>
        <time>2020-08-13T20:24:45Z</time>
      </trkpt>
      <trkpt lat="48.542099" lon="-2.833786">
        <ele>130.0</ele>
        <time>2020-08-13T20:24:47Z</time>
      </trkpt>
      <trkpt lat="48.542243" lon="-2.833455">
        <ele>130.0</ele>
        <time>2020-08-13T20:24:48Z</time>
      </trkpt>
      <trkpt lat="48.543145" lon="-2.832282">
        <ele>129.4</ele>
        <time>2020-08-13T20:24:55Z</time>
      </trkpt>
      <trkpt lat="48.543239" lon="-2.832126">
        <ele>129.4</ele>
        <time>2020-08-13T20:24:55Z</time>
      </trkpt>
      <trkpt lat="48.543587" lon="-2.831354">
        <ele>127.6</ele>
        <time>2020-08-13T20:24:59Z</time>
      </trkpt>
      <trkpt lat="48.543744" lon="-2.830667">
        <ele>127.2</ele>
        <time>2020-08-13T20:25:01Z</time>
      </trkpt>
      <trkpt lat="48.544126" lon="-2.828715">
        <ele>127.2</ele>
        <time>2020-08-13T20:25:08Z</time>
      </trkpt>
      <trkpt lat="48.544314" lon="-2.827578">
        <ele>127.2</ele>
        <time>2020-08-13T20:25:13Z</time>
      </trkpt>
      <trkpt lat="48.544526" lon="-2.826016">
        <ele>128.8</ele>
        <time>2020-08-13T20:25:18Z</time>
      </trkpt>
      <trkpt lat="48.544652" lon="-2.824858">
        <ele>129.4</ele>
        <time>2020-08-13T20:25:22Z</time>
      </trkpt>
      <trkpt lat="48.54471" lon="-2.824176">
        <ele>129.4</ele>
        <time>2020-08-13T20:25:25Z</time>
      </trkpt>
      <trkpt lat="48.544816" lon="-2.822506">
        <ele>129.0</ele>
        <time>2020-08-13T20:25:31Z</time>
      </trkpt>
      <trkpt lat="48.544879" lon="-2.820759">
        <ele>127.2</ele>
        <time>2020-08-13T20:25:37Z</time>
      </trkpt>
      <trkpt lat="48.545088" lon="-2.799431">
        <ele>123.2</ele>
        <time>2020-08-13T20:26:52Z</time>
      </trkpt>
      <trkpt lat="48.545147" lon="-2.797271">
        <ele>123.8</ele>
        <time>2020-08-13T20:26:59Z</time>
      </trkpt>
      <trkpt lat="48.545211" lon="-2.79589">
        <ele>123.8</ele>
        <time>2020-08-13T20:27:04Z</time>
      </trkpt>
      <trkpt lat="48.545344" lon="-2.793733">
        <ele>120.0</ele>
        <time>2020-08-13T20:27:12Z</time>
      </trkpt>
      <trkpt lat="48.546104" lon="-2.784595">
        <ele>114.4</ele>
        <time>2020-08-13T20:27:44Z</time>
      </trkpt>
      <trkpt lat="48.546184" lon="-2.78297">
        <ele>113.8</ele>
        <time>2020-08-13T20:27:50Z</time>
      </trkpt>
      <trkpt lat="48.546196" lon="-2.782274">
        <ele>113.8</ele>
        <time>2020-08-13T20:27:52Z</time>
      </trkpt>
      <trkpt lat="48.546188" lon="-2.781187">
        <ele>113.4</ele>
        <time>2020-08-13T20:27:56Z</time>
      </trkpt>
      <trkpt lat="48.54615" lon="-2.780229">
        <ele>112.8</ele>
        <time>2020-08-13T20:28:00Z</time>
      </trkpt>
      <trkpt lat="48.546079" lon="-2.779161">
        <ele>111.2</ele>
        <time>2020-08-13T20:28:03Z</time>
      </trkpt>
      <trkpt lat="48.546023" lon="-2.778544">
        <ele>111.2</ele>
        <time>2020-08-13T20:28:05Z</time>
      </trkpt>
      <trkpt lat="48.545867" lon="-2.777242">
        <ele>109.4</ele>
        <time>2020-08-13T20:28:10Z</time>
      </trkpt>
      <trkpt lat="48.545616" lon="-2.775726">
        <ele>107.4</ele>
        <time>2020-08-13T20:28:16Z</time>
      </trkpt>
      <trkpt lat="48.545366" lon="-2.774519">
        <ele>106.6</ele>
        <time>2020-08-13T20:28:20Z</time>
      </trkpt>
      <trkpt lat="48.545041" lon="-2.773228">
        <ele>105.6</ele>
        <time>2020-08-13T20:28:25Z</time>
      </trkpt>
      <trkpt lat="48.544755" lon="-2.772245">
        <ele>105.8</ele>
        <time>2020-08-13T20:28:29Z</time>
      </trkpt>
      <trkpt lat="48.544433" lon="-2.771279">
        <ele>105.2</ele>
        <time>2020-08-13T20:28:32Z</time>
      </trkpt>
      <trkpt lat="48.544055" lon="-2.770283">
        <ele>104.0</ele>
        <time>2020-08-13T20:28:37Z</time>
      </trkpt>
      <trkpt lat="48.543626" lon="-2.769249">
        <ele>102.4</ele>
        <time>2020-08-13T20:28:41Z</time>
      </trkpt>
      <trkpt lat="48.543205" lon="-2.76835">
        <ele>104.6</ele>
        <time>2020-08-13T20:28:45Z</time>
      </trkpt>
      <trkpt lat="48.542624" lon="-2.76724">
        <ele>104.8</ele>
        <time>2020-08-13T20:28:50Z</time>
      </trkpt>
      <trkpt lat="48.542367" lon="-2.76679">
        <ele>106.4</ele>
        <time>2020-08-13T20:28:52Z</time>
      </trkpt>
      <trkpt lat="48.542153" lon="-2.766432">
        <ele>106.6</ele>
        <time>2020-08-13T20:28:53Z</time>
      </trkpt>
      <trkpt lat="48.541574" lon="-2.76554">
        <ele>107.0</ele>
        <time>2020-08-13T20:28:58Z</time>
      </trkpt>
      <trkpt lat="48.540611" lon="-2.764242">
        <ele>108.0</ele>
        <time>2020-08-13T20:29:05Z</time>
      </trkpt>
      <trkpt lat="48.540367" lon="-2.76394">
        <ele>107.4</ele>
        <time>2020-08-13T20:29:06Z</time>
      </trkpt>
      <trkpt lat="48.539674" lon="-2.76318">
        <ele>106.4</ele>
        <time>2020-08-13T20:29:11Z</time>
      </trkpt>
      <trkpt lat="48.538954" lon="-2.762473">
        <ele>106.2</ele>
        <time>2020-08-13T20:29:15Z</time>
      </trkpt>
      <trkpt lat="48.538078" lon="-2.761711">
        <ele>107.4</ele>
        <time>2020-08-13T20:29:21Z</time>
      </trkpt>
      <trkpt lat="48.537191" lon="-2.761012">
        <ele>107.4</ele>
        <time>2020-08-13T20:29:26Z</time>
      </trkpt>
      <trkpt lat="48.535264" lon="-2.759562">
        <ele>105.2</ele>
        <time>2020-08-13T20:29:38Z</time>
      </trkpt>
      <trkpt lat="48.532811" lon="-2.757672">
        <ele>103.0</ele>
        <time>2020-08-13T20:29:52Z</time>
      </trkpt>
      <trkpt lat="48.521408" lon="-2.74857">
        <ele>75.8</ele>
        <time>2020-08-13T20:31:01Z</time>
      </trkpt>
      <trkpt lat="48.519957" lon="-2.74733">
        <ele>55.6</ele>
        <time>2020-08-13T20:31:10Z</time>
      </trkpt>
      <trkpt lat="48.516568" lon="-2.744239">
        <ele>71.6</ele>
        <time>2020-08-13T20:31:31Z</time>
      </trkpt>
      <trkpt lat="48.516207" lon="-2.743937">
        <ele>73.2</ele>
        <time>2020-08-13T20:31:33Z</time>
      </trkpt>
      <trkpt lat="48.51568" lon="-2.743561">
        <ele>77.6</ele>
        <time>2020-08-13T20:31:36Z</time>
      </trkpt>
      <trkpt lat="48.515216" lon="-2.743297">
        <ele>77.8</ele>
        <time>2020-08-13T20:31:38Z</time>
      </trkpt>
      <trkpt lat="48.514936" lon="-2.743171">
        <ele>81.0</ele>
        <time>2020-08-13T20:31:40Z</time>
      </trkpt>
      <trkpt lat="48.51429" lon="-2.742945">
        <ele>81.0</ele>
        <time>2020-08-13T20:31:44Z</time>
      </trkpt>
      <trkpt lat="48.513361" lon="-2.742741">
        <ele>83.6</ele>
        <time>2020-08-13T20:31:49Z</time>
      </trkpt>
      <trkpt lat="48.51299" lon="-2.742623">
        <ele>85.6</ele>
        <time>2020-08-13T20:31:51Z</time>
      </trkpt>
      <trkpt lat="48.512647" lon="-2.742462">
        <ele>84.4</ele>
        <time>2020-08-13T20:31:52Z</time>
      </trkpt>
      <trkpt lat="48.512346" lon="-2.742257">
        <ele>85.2</ele>
        <time>2020-08-13T20:31:54Z</time>
      </trkpt>
      <trkpt lat="48.512178" lon="-2.742111">
        <ele>85.2</ele>
        <time>2020-08-13T20:31:55Z</time>
      </trkpt>
      <trkpt lat="48.511681" lon="-2.74157">
        <ele>83.2</ele>
        <time>2020-08-13T20:31:58Z</time>
      </trkpt>
      <trkpt lat="48.509944" lon="-2.739388">
        <ele>83.4</ele>
        <time>2020-08-13T20:32:10Z</time>
      </trkpt>
      <trkpt lat="48.503915" lon="-2.731656">
        <ele>74.8</ele>
        <time>2020-08-13T20:32:52Z</time>
      </trkpt>
      <trkpt lat="48.502511" lon="-2.729886">
        <ele>82.0</ele>
        <time>2020-08-13T20:33:02Z</time>
      </trkpt>
      <trkpt lat="48.501709" lon="-2.728922">
        <ele>87.6</ele>
        <time>2020-08-13T20:33:08Z</time>
      </trkpt>
      <trkpt lat="48.50075" lon="-2.727822">
        <ele>96.0</ele>
        <time>2020-08-13T20:33:14Z</time>
      </trkpt>
      <trkpt lat="48.499607" lon="-2.726473">
        <ele>100.2</ele>
        <time>2020-08-13T20:33:22Z</time>
      </trkpt>
      <trkpt lat="48.499093" lon="-2.725892">
        <ele>101.8</ele>
        <time>2020-08-13T20:33:25Z</time>
      </trkpt>
      <trkpt lat="48.498505" lon="-2.725348">
        <ele>102.4</ele>
        <time>2020-08-13T20:33:29Z</time>
      </trkpt>
      <trkpt lat="48.497949" lon="-2.724924">
        <ele>104.2</ele>
        <time>2020-08-13T20:33:32Z</time>
      </trkpt>
      <trkpt lat="48.497448" lon="-2.724629">
        <ele>104.0</ele>
        <time>2020-08-13T20:33:35Z</time>
      </trkpt>
      <trkpt lat="48.497172" lon="-2.7245">
        <ele>104.0</ele>
        <time>2020-08-13T20:33:36Z</time>
      </trkpt>
      <trkpt lat="48.496799" lon="-2.724364">
        <ele>104.0</ele>
        <time>2020-08-13T20:33:39Z</time>
      </trkpt>
      <trkpt lat="48.496437" lon="-2.724259">
        <ele>103.2</ele>
        <time>2020-08-13T20:33:40Z</time>
      </trkpt>
      <trkpt lat="48.494422" lon="-2.723929">
        <ele>104.6</ele>
        <time>2020-08-13T20:33:51Z</time>
      </trkpt>
      <trkpt lat="48.493712" lon="-2.723759">
        <ele>104.0</ele>
        <time>2020-08-13T20:33:55Z</time>
      </trkpt>
      <trkpt lat="48.492846" lon="-2.723465">
        <ele>102.8</ele>
        <time>2020-08-13T20:34:00Z</time>
      </trkpt>
      <trkpt lat="48.492148" lon="-2.72318">
        <ele>102.6</ele>
        <time>2020-08-13T20:34:04Z</time>
      </trkpt>
      <trkpt lat="48.491304" lon="-2.722752">
        <ele>103.6</ele>
        <time>2020-08-13T20:34:08Z</time>
      </trkpt>
      <trkpt lat="48.490428" lon="-2.722153">
        <ele>105.4</ele>
        <time>2020-08-13T20:34:13Z</time>
      </trkpt>
      <trkpt lat="48.489959" lon="-2.721804">
        <ele>104.4</ele>
        <time>2020-08-13T20:34:16Z</time>
      </trkpt>
      <trkpt lat="48.489454" lon="-2.72138">
        <ele>103.4</ele>
        <time>2020-08-13T20:34:19Z</time>
      </trkpt>
      <trkpt lat="48.488965" lon="-2.720916">
        <ele>103.2</ele>
        <time>2020-08-13T20:34:22Z</time>
      </trkpt>
      <trkpt lat="48.488544" lon="-2.720471">
        <ele>102.6</ele>
        <time>2020-08-13T20:34:25Z</time>
      </trkpt>
      <trkpt lat="48.488222" lon="-2.720073">
        <ele>103.0</ele>
        <time>2020-08-13T20:34:27Z</time>
      </trkpt>
      <trkpt lat="48.487856" lon="-2.719581">
        <ele>102.2</ele>
        <time>2020-08-13T20:34:30Z</time>
      </trkpt>
      <trkpt lat="48.487507" lon="-2.719043">
        <ele>101.4</ele>
        <time>2020-08-13T20:34:33Z</time>
      </trkpt>
      <trkpt lat="48.487172" lon="-2.718463">
        <ele>101.2</ele>
        <time>2020-08-13T20:34:35Z</time>
      </trkpt>
      <trkpt lat="48.486856" lon="-2.717832">
        <ele>100.2</ele>
        <time>2020-08-13T20:34:38Z</time>
      </trkpt>
      <trkpt lat="48.486491" lon="-2.716997">
        <ele>98.2</ele>
        <time>2020-08-13T20:34:42Z</time>
      </trkpt>
      <trkpt lat="48.486106" lon="-2.715899">
        <ele>96.4</ele>
        <time>2020-08-13T20:34:46Z</time>
      </trkpt>
      <trkpt lat="48.485937" lon="-2.71531">
        <ele>95.6</ele>
        <time>2020-08-13T20:34:48Z</time>
      </trkpt>
      <trkpt lat="48.485673" lon="-2.714138">
        <ele>92.8</ele>
        <time>2020-08-13T20:34:53Z</time>
      </trkpt>
      <trkpt lat="48.485543" lon="-2.713415">
        <ele>92.8</ele>
        <time>2020-08-13T20:34:55Z</time>
      </trkpt>
      <trkpt lat="48.485068" lon="-2.709918">
        <ele>89.0</ele>
        <time>2020-08-13T20:35:08Z</time>
      </trkpt>
      <trkpt lat="48.484909" lon="-2.708835">
        <ele>85.4</ele>
        <time>2020-08-13T20:35:12Z</time>
      </trkpt>
      <trkpt lat="48.484595" lon="-2.706948">
        <ele>83.8</ele>
        <time>2020-08-13T20:35:18Z</time>
      </trkpt>
      <trkpt lat="48.484191" lon="-2.704737">
        <ele>78.0</ele>
        <time>2020-08-13T20:35:27Z</time>
      </trkpt>
      <trkpt lat="48.483493" lon="-2.70136">
        <ele>72.6</ele>
        <time>2020-08-13T20:35:39Z</time>
      </trkpt>
      <trkpt lat="48.483362" lon="-2.700639">
        <ele>70.4</ele>
        <time>2020-08-13T20:35:42Z</time>
      </trkpt>
      <trkpt lat="48.483213" lon="-2.699694">
        <ele>71.0</ele>
        <time>2020-08-13T20:35:45Z</time>
      </trkpt>
      <trkpt lat="48.483029" lon="-2.698122">
        <ele>68.6</ele>
        <time>2020-08-13T20:35:51Z</time>
      </trkpt>
      <trkpt lat="48.482979" lon="-2.697548">
        <ele>68.6</ele>
        <time>2020-08-13T20:35:53Z</time>
      </trkpt>
      <trkpt lat="48.482898" lon="-2.696268">
        <ele>68.2</ele>
        <time>2020-08-13T20:35:57Z</time>
      </trkpt>
      <trkpt lat="48.482843" lon="-2.694626">
        <ele>66.0</ele>
        <time>2020-08-13T20:36:03Z</time>
      </trkpt>
      <trkpt lat="48.482779" lon="-2.69196">
        <ele>54.0</ele>
        <time>2020-08-13T20:36:12Z</time>
      </trkpt>
      <trkpt lat="48.482696" lon="-2.690492">
        <ele>46.0</ele>
        <time>2020-08-13T20:36:18Z</time>
      </trkpt>
      <trkpt lat="48.482557" lon="-2.688976">
        <ele>39.2</ele>
        <time>2020-08-13T20:36:23Z</time>
      </trkpt>
      <trkpt lat="48.482373" lon="-2.687643">
        <ele>43.0</ele>
        <time>2020-08-13T20:36:28Z</time>
      </trkpt>
      <trkpt lat="48.481609" lon="-2.683108">
        <ele>49.0</ele>
        <time>2020-08-13T20:36:44Z</time>
      </trkpt>
      <trkpt lat="48.480523" lon="-2.676436">
        <ele>21.4</ele>
        <time>2020-08-13T20:37:08Z</time>
      </trkpt>
      <trkpt lat="48.480309" lon="-2.675237">
        <ele>21.0</ele>
        <time>2020-08-13T20:37:13Z</time>
      </trkpt>
      <trkpt lat="48.480125" lon="-2.674031">
        <ele>19.8</ele>
        <time>2020-08-13T20:37:17Z</time>
      </trkpt>
      <trkpt lat="48.479619" lon="-2.670999">
        <ele>20.4</ele>
        <time>2020-08-13T20:37:28Z</time>
      </trkpt>
      <trkpt lat="48.479382" lon="-2.669353">
        <ele>18.0</ele>
        <time>2020-08-13T20:37:34Z</time>
      </trkpt>
      <trkpt lat="48.479311" lon="-2.668788">
        <ele>16.8</ele>
        <time>2020-08-13T20:37:36Z</time>
      </trkpt>
      <trkpt lat="48.47924" lon="-2.668032">
        <ele>15.6</ele>
        <time>2020-08-13T20:37:39Z</time>
      </trkpt>
      <trkpt lat="48.479158" lon="-2.666766">
        <ele>17.4</ele>
        <time>2020-08-13T20:37:43Z</time>
      </trkpt>
      <trkpt lat="48.479133" lon="-2.665411">
        <ele>19.4</ele>
        <time>2020-08-13T20:37:48Z</time>
      </trkpt>
      <trkpt lat="48.479154" lon="-2.664512">
        <ele>19.4</ele>
        <time>2020-08-13T20:37:51Z</time>
      </trkpt>
      <trkpt lat="48.479213" lon="-2.663368">
        <ele>24.8</ele>
        <time>2020-08-13T20:37:55Z</time>
      </trkpt>
      <trkpt lat="48.4793" lon="-2.662277">
        <ele>23.4</ele>
        <time>2020-08-13T20:37:59Z</time>
      </trkpt>
      <trkpt lat="48.480714" lon="-2.648985">
        <ele>35.2</ele>
        <time>2020-08-13T20:38:48Z</time>
      </trkpt>
      <trkpt lat="48.48068" lon="-2.647564">
        <ele>35.8</ele>
        <time>2020-08-13T20:38:56Z</time>
      </trkpt>
      <trkpt lat="48.480651" lon="-2.647127">
        <ele>36.2</ele>
        <time>2020-08-13T20:38:59Z</time>
      </trkpt>
      <trkpt lat="48.480599" lon="-2.646872">
        <ele>36.2</ele>
        <time>2020-08-13T20:39:01Z</time>
      </trkpt>
      <trkpt lat="48.480568" lon="-2.646791">
        <ele>36.2</ele>
        <time>2020-08-13T20:39:01Z</time>
      </trkpt>
      <trkpt lat="48.480475" lon="-2.646703">
        <ele>36.2</ele>
        <time>2020-08-13T20:39:02Z</time>
      </trkpt>
      <trkpt lat="48.480366" lon="-2.646669">
        <ele>36.2</ele>
        <time>2020-08-13T20:39:03Z</time>
      </trkpt>
      <trkpt lat="48.480301" lon="-2.646704">
        <ele>36.2</ele>
        <time>2020-08-13T20:39:04Z</time>
      </trkpt>
      <trkpt lat="48.480231" lon="-2.646711">
        <ele>36.2</ele>
        <time>2020-08-13T20:39:04Z</time>
      </trkpt>
      <trkpt lat="48.480163" lon="-2.646691">
        <ele>36.2</ele>
        <time>2020-08-13T20:39:04Z</time>
      </trkpt>
      <trkpt lat="48.480092" lon="-2.646635">
        <ele>37.0</ele>
        <time>2020-08-13T20:39:05Z</time>
      </trkpt>
      <trkpt lat="48.480036" lon="-2.646548">
        <ele>37.0</ele>
        <time>2020-08-13T20:39:05Z</time>
      </trkpt>
      <trkpt lat="48.480001" lon="-2.64644">
        <ele>37.0</ele>
        <time>2020-08-13T20:39:05Z</time>
      </trkpt>
      <trkpt lat="48.479989" lon="-2.646329">
        <ele>38.0</ele>
        <time>2020-08-13T20:39:06Z</time>
      </trkpt>
      <trkpt lat="48.479998" lon="-2.646217">
        <ele>38.0</ele>
        <time>2020-08-13T20:39:06Z</time>
      </trkpt>
      <trkpt lat="48.480028" lon="-2.646114">
        <ele>37.0</ele>
        <time>2020-08-13T20:39:07Z</time>
      </trkpt>
      <trkpt lat="48.480076" lon="-2.646029">
        <ele>37.0</ele>
        <time>2020-08-13T20:39:07Z</time>
      </trkpt>
      <trkpt lat="48.480139" lon="-2.645968">
        <ele>37.0</ele>
        <time>2020-08-13T20:39:07Z</time>
      </trkpt>
      <trkpt lat="48.480204" lon="-2.645937">
        <ele>37.0</ele>
        <time>2020-08-13T20:39:08Z</time>
      </trkpt>
      <trkpt lat="48.480273" lon="-2.645934">
        <ele>37.0</ele>
        <time>2020-08-13T20:39:08Z</time>
      </trkpt>
      <trkpt lat="48.480353" lon="-2.645966">
        <ele>37.0</ele>
        <time>2020-08-13T20:39:09Z</time>
      </trkpt>
      <trkpt lat="48.480422" lon="-2.646034">
        <ele>37.0</ele>
        <time>2020-08-13T20:39:09Z</time>
      </trkpt>
      <trkpt lat="48.480486" lon="-2.646052">
        <ele>37.0</ele>
        <time>2020-08-13T20:39:09Z</time>
      </trkpt>
      <trkpt lat="48.480575" lon="-2.646046">
        <ele>37.0</ele>
        <time>2020-08-13T20:39:10Z</time>
      </trkpt>
      <trkpt lat="48.480777" lon="-2.64597">
        <ele>37.0</ele>
        <time>2020-08-13T20:39:11Z</time>
      </trkpt>
      <trkpt lat="48.480845" lon="-2.645939">
        <ele>37.6</ele>
        <time>2020-08-13T20:39:11Z</time>
      </trkpt>
      <trkpt lat="48.48147" lon="-2.645485">
        <ele>38.4</ele>
        <time>2020-08-13T20:39:15Z</time>
      </trkpt>
      <trkpt lat="48.481457" lon="-2.645359">
        <ele>38.4</ele>
        <time>2020-08-13T20:39:15Z</time>
      </trkpt>
      <trkpt lat="48.481473" lon="-2.645255">
        <ele>38.4</ele>
        <time>2020-08-13T20:39:16Z</time>
      </trkpt>
      <trkpt lat="48.481511" lon="-2.645166">
        <ele>38.4</ele>
        <time>2020-08-13T20:39:16Z</time>
      </trkpt>
      <trkpt lat="48.481566" lon="-2.645101">
        <ele>38.4</ele>
        <time>2020-08-13T20:39:17Z</time>
      </trkpt>
      <trkpt lat="48.48167" lon="-2.645062">
        <ele>38.6</ele>
        <time>2020-08-13T20:39:17Z</time>
      </trkpt>
      <trkpt lat="48.481775" lon="-2.645107">
        <ele>38.6</ele>
        <time>2020-08-13T20:39:18Z</time>
      </trkpt>
      <trkpt lat="48.481852" lon="-2.645229">
        <ele>38.6</ele>
        <time>2020-08-13T20:39:19Z</time>
      </trkpt>
      <trkpt lat="48.481872" lon="-2.645308">
        <ele>38.6</ele>
        <time>2020-08-13T20:39:19Z</time>
      </trkpt>
      <trkpt lat="48.482009" lon="-2.645198">
        <ele>38.6</ele>
        <time>2020-08-13T20:39:20Z</time>
      </trkpt>
      <trkpt lat="48.482137" lon="-2.645019">
        <ele>38.6</ele>
        <time>2020-08-13T20:39:21Z</time>
      </trkpt>
      <trkpt lat="48.482432" lon="-2.644366">
        <ele>39.0</ele>
        <time>2020-08-13T20:39:25Z</time>
      </trkpt>
      <trkpt lat="48.483222" lon="-2.642383">
        <ele>38.0</ele>
        <time>2020-08-13T20:39:35Z</time>
      </trkpt>
      <trkpt lat="48.483516" lon="-2.641503">
        <ele>37.4</ele>
        <time>2020-08-13T20:39:39Z</time>
      </trkpt>
      <trkpt lat="48.483699" lon="-2.640771">
        <ele>37.0</ele>
        <time>2020-08-13T20:39:43Z</time>
      </trkpt>
      <trkpt lat="48.484405" lon="-2.636869">
        <ele>32.4</ele>
        <time>2020-08-13T20:40:00Z</time>
      </trkpt>
      <trkpt lat="48.484663" lon="-2.635835">
        <ele>32.2</ele>
        <time>2020-08-13T20:40:05Z</time>
      </trkpt>
      <trkpt lat="48.485089" lon="-2.634816">
        <ele>34.0</ele>
        <time>2020-08-13T20:40:10Z</time>
      </trkpt>
      <trkpt lat="48.485567" lon="-2.634017">
        <ele>34.4</ele>
        <time>2020-08-13T20:40:15Z</time>
      </trkpt>
      <trkpt lat="48.487934" lon="-2.631137">
        <ele>43.6</ele>
        <time>2020-08-13T20:40:35Z</time>
      </trkpt>
      <trkpt lat="48.48861" lon="-2.63045">
        <ele>49.4</ele>
        <time>2020-08-13T20:40:40Z</time>
      </trkpt>
      <trkpt lat="48.490732" lon="-2.62865">
        <ele>54.0</ele>
        <time>2020-08-13T20:40:56Z</time>
      </trkpt>
      <trkpt lat="48.491496" lon="-2.628035">
        <ele>52.4</ele>
        <time>2020-08-13T20:41:02Z</time>
      </trkpt>
      <trkpt lat="48.492213" lon="-2.627412">
        <ele>53.0</ele>
        <time>2020-08-13T20:41:07Z</time>
      </trkpt>
      <trkpt lat="48.496167" lon="-2.623791">
        <ele>62.8</ele>
        <time>2020-08-13T20:41:38Z</time>
      </trkpt>
      <trkpt lat="48.496426" lon="-2.62358">
        <ele>62.8</ele>
        <time>2020-08-13T20:41:40Z</time>
      </trkpt>
      <trkpt lat="48.497088" lon="-2.623162">
        <ele>65.8</ele>
        <time>2020-08-13T20:41:44Z</time>
      </trkpt>
      <trkpt lat="48.498386" lon="-2.622532">
        <ele>69.4</ele>
        <time>2020-08-13T20:41:53Z</time>
      </trkpt>
      <trkpt lat="48.499452" lon="-2.621963">
        <ele>69.2</ele>
        <time>2020-08-13T20:42:01Z</time>
      </trkpt>
      <trkpt lat="48.499678" lon="-2.621815">
        <ele>69.2</ele>
        <time>2020-08-13T20:42:02Z</time>
      </trkpt>
      <trkpt lat="48.500064" lon="-2.621512">
        <ele>68.2</ele>
        <time>2020-08-13T20:42:05Z</time>
      </trkpt>
      <trkpt lat="48.500398" lon="-2.621189">
        <ele>68.2</ele>
        <time>2020-08-13T20:42:08Z</time>
      </trkpt>
      <trkpt lat="48.501472" lon="-2.619961">
        <ele>63.4</ele>
        <time>2020-08-13T20:42:17Z</time>
      </trkpt>
      <trkpt lat="48.503335" lon="-2.61805">
        <ele>51.4</ele>
        <time>2020-08-13T20:42:31Z</time>
      </trkpt>
      <trkpt lat="48.503633" lon="-2.617812">
        <ele>51.4</ele>
        <time>2020-08-13T20:42:34Z</time>
      </trkpt>
      <trkpt lat="48.503855" lon="-2.617725">
        <ele>51.4</ele>
        <time>2020-08-13T20:42:35Z</time>
      </trkpt>
      <trkpt lat="48.504346" lon="-2.617594">
        <ele>50.8</ele>
        <time>2020-08-13T20:42:38Z</time>
      </trkpt>
      <trkpt lat="48.504541" lon="-2.617522">
        <ele>50.8</ele>
        <time>2020-08-13T20:42:40Z</time>
      </trkpt>
      <trkpt lat="48.504676" lon="-2.617433">
        <ele>47.4</ele>
        <time>2020-08-13T20:42:41Z</time>
      </trkpt>
      <trkpt lat="48.504797" lon="-2.617321">
        <ele>47.4</ele>
        <time>2020-08-13T20:42:42Z</time>
      </trkpt>
      <trkpt lat="48.505085" lon="-2.616899">
        <ele>50.0</ele>
        <time>2020-08-13T20:42:44Z</time>
      </trkpt>
      <trkpt lat="48.505448" lon="-2.615952">
        <ele>46.8</ele>
        <time>2020-08-13T20:42:49Z</time>
      </trkpt>
      <trkpt lat="48.505575" lon="-2.615395">
        <ele>44.0</ele>
        <time>2020-08-13T20:42:52Z</time>
      </trkpt>
      <trkpt lat="48.505661" lon="-2.614658">
        <ele>40.4</ele>
        <time>2020-08-13T20:42:55Z</time>
      </trkpt>
      <trkpt lat="48.505722" lon="-2.61432">
        <ele>40.4</ele>
        <time>2020-08-13T20:42:56Z</time>
      </trkpt>
      <trkpt lat="48.505868" lon="-2.613903">
        <ele>40.0</ele>
        <time>2020-08-13T20:42:58Z</time>
      </trkpt>
      <trkpt lat="48.506298" lon="-2.612992">
        <ele>37.4</ele>
        <time>2020-08-13T20:43:03Z</time>
      </trkpt>
      <trkpt lat="48.506552" lon="-2.612338">
        <ele>38.0</ele>
        <time>2020-08-13T20:43:07Z</time>
      </trkpt>
      <trkpt lat="48.506703" lon="-2.612049">
        <ele>35.0</ele>
        <time>2020-08-13T20:43:08Z</time>
      </trkpt>
      <trkpt lat="48.507855" lon="-2.610531">
        <ele>47.8</ele>
        <time>2020-08-13T20:43:18Z</time>
      </trkpt>
      <trkpt lat="48.509717" lon="-2.607846">
        <ele>55.6</ele>
        <time>2020-08-13T20:43:35Z</time>
      </trkpt>
      <trkpt lat="48.512304" lon="-2.604071">
        <ele>73.6</ele>
        <time>2020-08-13T20:43:59Z</time>
      </trkpt>
      <trkpt lat="48.513098" lon="-2.602991">
        <ele>77.4</ele>
        <time>2020-08-13T20:44:06Z</time>
      </trkpt>
      <trkpt lat="48.515422" lon="-2.599735">
        <ele>80.6</ele>
        <time>2020-08-13T20:44:27Z</time>
      </trkpt>
      <trkpt lat="48.515403" lon="-2.599614">
        <ele>80.6</ele>
        <time>2020-08-13T20:44:27Z</time>
      </trkpt>
      <trkpt lat="48.515434" lon="-2.599539">
        <ele>80.6</ele>
        <time>2020-08-13T20:44:27Z</time>
      </trkpt>
      <trkpt lat="48.515487" lon="-2.599506">
        <ele>80.6</ele>
        <time>2020-08-13T20:44:28Z</time>
      </trkpt>
      <trkpt lat="48.515558" lon="-2.599545">
        <ele>80.6</ele>
        <time>2020-08-13T20:44:28Z</time>
      </trkpt>
      <trkpt lat="48.518279" lon="-2.595728">
        <ele>85.0</ele>
        <time>2020-08-13T20:44:47Z</time>
      </trkpt>
      <trkpt lat="48.522127" lon="-2.590196">
        <ele>79.4</ele>
        <time>2020-08-13T20:45:14Z</time>
      </trkpt>
      <trkpt lat="48.523905" lon="-2.587757">
        <ele>79.4</ele>
        <time>2020-08-13T20:45:27Z</time>
      </trkpt>
      <trkpt lat="48.525082" lon="-2.586025">
        <ele>79.0</ele>
        <time>2020-08-13T20:45:35Z</time>
      </trkpt>
      <trkpt lat="48.528951" lon="-2.580441">
        <ele>77.8</ele>
        <time>2020-08-13T20:46:02Z</time>
      </trkpt>
      <trkpt lat="48.531361" lon="-2.577038">
        <ele>78.8</ele>
        <time>2020-08-13T20:46:19Z</time>
      </trkpt>
      <trkpt lat="48.531355" lon="-2.576978">
        <ele>78.8</ele>
        <time>2020-08-13T20:46:20Z</time>
      </trkpt>
      <trkpt lat="48.531375" lon="-2.576925">
        <ele>78.8</ele>
        <time>2020-08-13T20:46:20Z</time>
      </trkpt>
      <trkpt lat="48.531411" lon="-2.576903">
        <ele>78.8</ele>
        <time>2020-08-13T20:46:21Z</time>
      </trkpt>
      <trkpt lat="48.531458" lon="-2.57693">
        <ele>78.8</ele>
        <time>2020-08-13T20:46:21Z</time>
      </trkpt>
      <trkpt lat="48.53195" lon="-2.576178">
        <ele>79.8</ele>
        <time>2020-08-13T20:46:28Z</time>
      </trkpt>
      <trkpt lat="48.532263" lon="-2.576643">
        <ele>79.8</ele>
        <time>2020-08-13T20:46:33Z</time>
      </trkpt>
      <trkpt lat="48.532483" lon="-2.577171">
        <ele>79.4</ele>
        <time>2020-08-13T20:46:37Z</time>
      </trkpt>
      <trkpt lat="48.532556" lon="-2.577311">
        <ele>78.8</ele>
        <time>2020-08-13T20:46:38Z</time>
      </trkpt>
      <trkpt lat="48.532711" lon="-2.577435">
        <ele>78.8</ele>
        <time>2020-08-13T20:46:40Z</time>
      </trkpt>
      <trkpt lat="48.532934" lon="-2.577507">
        <ele>77.8</ele>
        <time>2020-08-13T20:46:42Z</time>
      </trkpt>
      <trkpt lat="48.532968" lon="-2.577446">
        <ele>78.8</ele>
        <time>2020-08-13T20:46:43Z</time>
      </trkpt>
      <trkpt lat="48.533004" lon="-2.577445">
        <ele>78.8</ele>
        <time>2020-08-13T20:46:43Z</time>
      </trkpt>
      <trkpt lat="48.533039" lon="-2.577505">
        <ele>77.8</ele>
        <time>2020-08-13T20:46:44Z</time>
      </trkpt>
      <trkpt lat="48.533034" lon="-2.577559">
        <ele>77.8</ele>
        <time>2020-08-13T20:46:44Z</time>
      </trkpt>
      <trkpt lat="48.532993" lon="-2.577602">
        <ele>77.8</ele>
        <time>2020-08-13T20:46:45Z</time>
      </trkpt>
      <trkpt lat="48.533079" lon="-2.577774">
        <ele>77.8</ele>
        <time>2020-08-13T20:46:46Z</time>
      </trkpt>
      <trkpt lat="48.533285" lon="-2.578043">
        <ele>77.8</ele>
        <time>2020-08-13T20:46:49Z</time>
      </trkpt>
      <trkpt lat="48.533332" lon="-2.577999">
        <ele>77.8</ele>
        <time>2020-08-13T20:46:50Z</time>
      </trkpt>
      <trkpt lat="48.533377" lon="-2.578057">
        <ele>77.8</ele>
        <time>2020-08-13T20:46:52Z</time>
      </trkpt>
      <trkpt lat="48.533442" lon="-2.578024">
        <ele>77.8</ele>
        <time>2020-08-13T20:46:53Z</time>
      </trkpt>
      <trkpt lat="48.533631" lon="-2.578078">
        <ele>77.8</ele>
        <time>2020-08-13T20:46:58Z</time>
      </trkpt>
      <trkpt lat="48.534269" lon="-2.579482">
        <ele>76.6</ele>
        <time>2020-08-13T20:47:24Z</time>
      </trkpt>
      <trkpt lat="48.534314" lon="-2.579628">
        <ele>76.6</ele>
        <time>2020-08-13T20:47:26Z</time>
      </trkpt>
      <trkpt lat="48.534315" lon="-2.579682">
        <ele>76.6</ele>
        <time>2020-08-13T20:47:27Z</time>
      </trkpt>
      <trkpt lat="48.534374" lon="-2.579723">
        <ele>76.6</ele>
        <time>2020-08-13T20:47:28Z</time>
      </trkpt>
      <trkpt lat="48.534555" lon="-2.580048">
        <ele>75.4</ele>
        <time>2020-08-13T20:47:33Z</time>
      </trkpt>
      <trkpt lat="48.53483" lon="-2.580666">
        <ele>75.4</ele>
        <time>2020-08-13T20:47:43Z</time>
      </trkpt>
      <trkpt lat="48.535183" lon="-2.580575">
        <ele>79.4</ele>
        <time>2020-08-13T20:47:45Z</time>
      </trkpt>
      <trkpt lat="48.535507" lon="-2.580555">
        <ele>79.4</ele>
        <time>2020-08-13T20:47:48Z</time>
      </trkpt>
      <trkpt lat="48.535833" lon="-2.580573">
        <ele>79.4</ele>
        <time>2020-08-13T20:47:51Z</time>
      </trkpt>
      <trkpt lat="48.536129" lon="-2.580657">
        <ele>84.2</ele>
        <time>2020-08-13T20:47:53Z</time>
      </trkpt>
      <trkpt lat="48.53696" lon="-2.581343">
        <ele>84.8</ele>
        <time>2020-08-13T20:48:01Z</time>
      </trkpt>
      <trkpt lat="48.5376" lon="-2.581975">
        <ele>84.8</ele>
        <time>2020-08-13T20:48:07Z</time>
      </trkpt>
      <trkpt lat="48.537765" lon="-2.582111">
        <ele>84.8</ele>
        <time>2020-08-13T20:48:08Z</time>
      </trkpt>
      <trkpt lat="48.538414" lon="-2.582541">
        <ele>85.2</ele>
        <time>2020-08-13T20:48:14Z</time>
      </trkpt>
      <trkpt lat="48.538644" lon="-2.582649">
        <ele>85.2</ele>
        <time>2020-08-13T20:48:16Z</time>
      </trkpt>
      <trkpt lat="48.538844" lon="-2.582653">
        <ele>85.2</ele>
        <time>2020-08-13T20:48:17Z</time>
      </trkpt>
      <trkpt lat="48.539492" lon="-2.582415">
        <ele>90.6</ele>
        <time>2020-08-13T20:48:23Z</time>
      </trkpt>
      <trkpt lat="48.539911" lon="-2.582312">
        <ele>90.6</ele>
        <time>2020-08-13T20:48:26Z</time>
      </trkpt>
      <trkpt lat="48.541771" lon="-2.582011">
        <ele>89.2</ele>
        <time>2020-08-13T20:48:41Z</time>
      </trkpt>
      <trkpt lat="48.542081" lon="-2.58199">
        <ele>89.2</ele>
        <time>2020-08-13T20:48:43Z</time>
      </trkpt>
      <trkpt lat="48.542574" lon="-2.58205">
        <ele>89.4</ele>
        <time>2020-08-13T20:48:47Z</time>
      </trkpt>
      <trkpt lat="48.542843" lon="-2.582048">
        <ele>89.4</ele>
        <time>2020-08-13T20:48:50Z</time>
      </trkpt>
      <trkpt lat="48.54314" lon="-2.581992">
        <ele>89.4</ele>
        <time>2020-08-13T20:48:52Z</time>
      </trkpt>
      <trkpt lat="48.543927" lon="-2.581696">
        <ele>89.6</ele>
        <time>2020-08-13T20:48:58Z</time>
      </trkpt>
      <trkpt lat="48.544457" lon="-2.581547">
        <ele>90.6</ele>
        <time>2020-08-13T20:49:03Z</time>
      </trkpt>
      <trkpt lat="48.545062" lon="-2.581533">
        <ele>91.4</ele>
        <time>2020-08-13T20:49:08Z</time>
      </trkpt>
      <trkpt lat="48.545218" lon="-2.581512">
        <ele>91.4</ele>
        <time>2020-08-13T20:49:09Z</time>
      </trkpt>
      <trkpt lat="48.546429" lon="-2.581128">
        <ele>92.4</ele>
        <time>2020-08-13T20:49:19Z</time>
      </trkpt>
      <trkpt lat="48.547815" lon="-2.580473">
        <ele>93.0</ele>
        <time>2020-08-13T20:49:30Z</time>
      </trkpt>
      <trkpt lat="48.548198" lon="-2.580361">
        <ele>93.0</ele>
        <time>2020-08-13T20:49:33Z</time>
      </trkpt>
      <trkpt lat="48.548881" lon="-2.580231">
        <ele>93.4</ele>
        <time>2020-08-13T20:49:39Z</time>
      </trkpt>
      <trkpt lat="48.549049" lon="-2.580173">
        <ele>93.4</ele>
        <time>2020-08-13T20:49:40Z</time>
      </trkpt>
      <trkpt lat="48.549632" lon="-2.579814">
        <ele>94.4</ele>
        <time>2020-08-13T20:49:45Z</time>
      </trkpt>
      <trkpt lat="48.55011" lon="-2.579631">
        <ele>94.8</ele>
        <time>2020-08-13T20:49:49Z</time>
      </trkpt>
      <trkpt lat="48.550351" lon="-2.579605">
        <ele>94.8</ele>
        <time>2020-08-13T20:49:51Z</time>
      </trkpt>
      <trkpt lat="48.551112" lon="-2.579657">
        <ele>93.6</ele>
        <time>2020-08-13T20:49:57Z</time>
      </trkpt>
      <trkpt lat="48.553145" lon="-2.579503">
        <ele>91.8</ele>
        <time>2020-08-13T20:50:13Z</time>
      </trkpt>
      <trkpt lat="48.553456" lon="-2.579433">
        <ele>91.4</ele>
        <time>2020-08-13T20:50:16Z</time>
      </trkpt>
      <trkpt lat="48.553575" lon="-2.579374">
        <ele>91.4</ele>
        <time>2020-08-13T20:50:17Z</time>
      </trkpt>
      <trkpt lat="48.553797" lon="-2.579203">
        <ele>91.4</ele>
        <time>2020-08-13T20:50:19Z</time>
      </trkpt>
      <trkpt lat="48.554227" lon="-2.578783">
        <ele>91.6</ele>
        <time>2020-08-13T20:50:23Z</time>
      </trkpt>
      <trkpt lat="48.554491" lon="-2.578581">
        <ele>91.6</ele>
        <time>2020-08-13T20:50:25Z</time>
      </trkpt>
      <trkpt lat="48.554762" lon="-2.578462">
        <ele>91.6</ele>
        <time>2020-08-13T20:50:28Z</time>
      </trkpt>
      <trkpt lat="48.555155" lon="-2.578354">
        <ele>90.8</ele>
        <time>2020-08-13T20:50:31Z</time>
      </trkpt>
      <trkpt lat="48.556085" lon="-2.578151">
        <ele>88.4</ele>
        <time>2020-08-13T20:50:38Z</time>
      </trkpt>
      <trkpt lat="48.556251" lon="-2.578097">
        <ele>88.4</ele>
        <time>2020-08-13T20:50:40Z</time>
      </trkpt>
      <trkpt lat="48.556561" lon="-2.577942">
        <ele>88.4</ele>
        <time>2020-08-13T20:50:42Z</time>
      </trkpt>
      <trkpt lat="48.557615" lon="-2.57724">
        <ele>83.8</ele>
        <time>2020-08-13T20:50:51Z</time>
      </trkpt>
      <trkpt lat="48.558283" lon="-2.576725">
        <ele>83.8</ele>
        <time>2020-08-13T20:50:57Z</time>
      </trkpt>
      <trkpt lat="48.559043" lon="-2.57622">
        <ele>79.6</ele>
        <time>2020-08-13T20:51:04Z</time>
      </trkpt>
      <trkpt lat="48.559479" lon="-2.575913">
        <ele>77.2</ele>
        <time>2020-08-13T20:51:08Z</time>
      </trkpt>
      <trkpt lat="48.55998" lon="-2.575518">
        <ele>76.8</ele>
        <time>2020-08-13T20:51:12Z</time>
      </trkpt>
      <trkpt lat="48.560229" lon="-2.575356">
        <ele>74.4</ele>
        <time>2020-08-13T20:51:15Z</time>
      </trkpt>
      <trkpt lat="48.560864" lon="-2.575007">
        <ele>69.4</ele>
        <time>2020-08-13T20:51:20Z</time>
      </trkpt>
      <trkpt lat="48.56185" lon="-2.574562">
        <ele>62.4</ele>
        <time>2020-08-13T20:51:28Z</time>
      </trkpt>
      <trkpt lat="48.562262" lon="-2.57445">
        <ele>62.4</ele>
        <time>2020-08-13T20:51:32Z</time>
      </trkpt>
      <trkpt lat="48.56371" lon="-2.574133">
        <ele>53.8</ele>
        <time>2020-08-13T20:51:43Z</time>
      </trkpt>
      <trkpt lat="48.56407" lon="-2.574091">
        <ele>53.8</ele>
        <time>2020-08-13T20:51:46Z</time>
      </trkpt>
      <trkpt lat="48.564532" lon="-2.574095">
        <ele>51.8</ele>
        <time>2020-08-13T20:51:50Z</time>
      </trkpt>
      <trkpt lat="48.564636" lon="-2.574078">
        <ele>51.8</ele>
        <time>2020-08-13T20:51:51Z</time>
      </trkpt>
      <trkpt lat="48.564869" lon="-2.573946">
        <ele>51.8</ele>
        <time>2020-08-13T20:51:53Z</time>
      </trkpt>
      <trkpt lat="48.565332" lon="-2.573542">
        <ele>50.4</ele>
        <time>2020-08-13T20:51:57Z</time>
      </trkpt>
      <trkpt lat="48.565497" lon="-2.573433">
        <ele>50.4</ele>
        <time>2020-08-13T20:51:58Z</time>
      </trkpt>
      <trkpt lat="48.565818" lon="-2.573266">
        <ele>51.0</ele>
        <time>2020-08-13T20:52:01Z</time>
      </trkpt>
      <trkpt lat="48.566807" lon="-2.572996">
        <ele>46.0</ele>
        <time>2020-08-13T20:52:09Z</time>
      </trkpt>
      <trkpt lat="48.566956" lon="-2.572972">
        <ele>46.0</ele>
        <time>2020-08-13T20:52:10Z</time>
      </trkpt>
      <trkpt lat="48.567068" lon="-2.57298">
        <ele>46.0</ele>
        <time>2020-08-13T20:52:11Z</time>
      </trkpt>
      <trkpt lat="48.568094" lon="-2.573201">
        <ele>40.8</ele>
        <time>2020-08-13T20:52:19Z</time>
      </trkpt>
      <trkpt lat="48.568217" lon="-2.573206">
        <ele>40.8</ele>
        <time>2020-08-13T20:52:20Z</time>
      </trkpt>
      <trkpt lat="48.568315" lon="-2.573185">
        <ele>40.8</ele>
        <time>2020-08-13T20:52:21Z</time>
      </trkpt>
      <trkpt lat="48.568446" lon="-2.573119">
        <ele>34.6</ele>
        <time>2020-08-13T20:52:22Z</time>
      </trkpt>
      <trkpt lat="48.568651" lon="-2.57291">
        <ele>34.6</ele>
        <time>2020-08-13T20:52:24Z</time>
      </trkpt>
      <trkpt lat="48.568729" lon="-2.572791">
        <ele>34.6</ele>
        <time>2020-08-13T20:52:25Z</time>
      </trkpt>
      <trkpt lat="48.570183" lon="-2.569986">
        <ele>21.2</ele>
        <time>2020-08-13T20:52:44Z</time>
      </trkpt>
      <trkpt lat="48.570527" lon="-2.569443">
        <ele>21.2</ele>
        <time>2020-08-13T20:52:48Z</time>
      </trkpt>
      <trkpt lat="48.572017" lon="-2.567854">
        <ele>15.6</ele>
        <time>2020-08-13T20:53:03Z</time>
      </trkpt>
      <trkpt lat="48.572276" lon="-2.567626">
        <ele>15.6</ele>
        <time>2020-08-13T20:53:05Z</time>
      </trkpt>
      <trkpt lat="48.573323" lon="-2.567004">
        <ele>14.4</ele>
        <time>2020-08-13T20:53:14Z</time>
      </trkpt>
      <trkpt lat="48.573404" lon="-2.566943">
        <ele>10.4</ele>
        <time>2020-08-13T20:53:15Z</time>
      </trkpt>
      <trkpt lat="48.573519" lon="-2.566811">
        <ele>10.4</ele>
        <time>2020-08-13T20:53:16Z</time>
      </trkpt>
      <trkpt lat="48.573694" lon="-2.566535">
        <ele>14.2</ele>
        <time>2020-08-13T20:53:18Z</time>
      </trkpt>
      <trkpt lat="48.573842" lon="-2.566224">
        <ele>14.2</ele>
        <time>2020-08-13T20:53:20Z</time>
      </trkpt>
      <trkpt lat="48.574177" lon="-2.56525">
        <ele>12.4</ele>
        <time>2020-08-13T20:53:26Z</time>
      </trkpt>
      <trkpt lat="48.57441" lon="-2.564733">
        <ele>14.6</ele>
        <time>2020-08-13T20:53:29Z</time>
      </trkpt>
      <trkpt lat="48.574587" lon="-2.564433">
        <ele>14.6</ele>
        <time>2020-08-13T20:53:31Z</time>
      </trkpt>
      <trkpt lat="48.574791" lon="-2.564181">
        <ele>14.6</ele>
        <time>2020-08-13T20:53:33Z</time>
      </trkpt>
      <trkpt lat="48.575035" lon="-2.56395">
        <ele>10.2</ele>
        <time>2020-08-13T20:53:36Z</time>
      </trkpt>
      <trkpt lat="48.575446" lon="-2.563686">
        <ele>10.2</ele>
        <time>2020-08-13T20:53:39Z</time>
      </trkpt>
      <trkpt lat="48.575732" lon="-2.563579">
        <ele>10.2</ele>
        <time>2020-08-13T20:53:41Z</time>
      </trkpt>
      <trkpt lat="48.575896" lon="-2.563585">
        <ele>5.4</ele>
        <time>2020-08-13T20:53:43Z</time>
      </trkpt>
      <trkpt lat="48.576023" lon="-2.563636">
        <ele>5.4</ele>
        <time>2020-08-13T20:53:45Z</time>
      </trkpt>
      <trkpt lat="48.576055" lon="-2.563598">
        <ele>5.4</ele>
        <time>2020-08-13T20:53:45Z</time>
      </trkpt>
      <trkpt lat="48.576165" lon="-2.563544">
        <ele>5.4</ele>
        <time>2020-08-13T20:53:46Z</time>
      </trkpt>
      <trkpt lat="48.576297" lon="-2.563557">
        <ele>5.4</ele>
        <time>2020-08-13T20:53:48Z</time>
      </trkpt>
      <trkpt lat="48.576901" lon="-2.563893">
        <ele>3.0</ele>
        <time>2020-08-13T20:53:55Z</time>
      </trkpt>
      <trkpt lat="48.577114" lon="-2.56407">
        <ele>3.0</ele>
        <time>2020-08-13T20:53:57Z</time>
      </trkpt>
      <trkpt lat="48.577441" lon="-2.564245">
        <ele>1.2</ele>
        <time>2020-08-13T20:54:01Z</time>
      </trkpt>
      <trkpt lat="48.57756" lon="-2.56425">
        <ele>1.4</ele>
        <time>2020-08-13T20:54:02Z</time>
      </trkpt>
      <trkpt lat="48.577629" lon="-2.564183">
        <ele>1.4</ele>
        <time>2020-08-13T20:54:03Z</time>
      </trkpt>
      <trkpt lat="48.577709" lon="-2.563931">
        <ele>3.2</ele>
        <time>2020-08-13T20:54:05Z</time>
      </trkpt>
      <trkpt lat="48.577725" lon="-2.563725">
        <ele>3.2</ele>
        <time>2020-08-13T20:54:06Z</time>
      </trkpt>
      <trkpt lat="48.577768" lon="-2.563727">
        <ele>3.2</ele>
        <time>2020-08-13T20:54:07Z</time>
      </trkpt>
      <trkpt lat="48.577864" lon="-2.563663">
        <ele>3.2</ele>
        <time>2020-08-13T20:54:08Z</time>
      </trkpt>
      <trkpt lat="48.578645" lon="-2.562914">
        <ele>8.0</ele>
        <time>2020-08-13T20:54:21Z</time>
      </trkpt>
      <trkpt lat="48.578823" lon="-2.562865">
        <ele>8.0</ele>
        <time>2020-08-13T20:54:23Z</time>
      </trkpt>
      <trkpt lat="48.579243" lon="-2.562901">
        <ele>12.4</ele>
        <time>2020-08-13T20:54:29Z</time>
      </trkpt>
      <trkpt lat="48.579379" lon="-2.562855">
        <ele>12.4</ele>
        <time>2020-08-13T20:54:30Z</time>
      </trkpt>
      <trkpt lat="48.579519" lon="-2.562708">
        <ele>12.4</ele>
        <time>2020-08-13T20:54:33Z</time>
      </trkpt>
      <trkpt lat="48.579659" lon="-2.562425">
        <ele>11.2</ele>
        <time>2020-08-13T20:54:36Z</time>
      </trkpt>
      <trkpt lat="48.579785" lon="-2.562063">
        <ele>11.2</ele>
        <time>2020-08-13T20:54:39Z</time>
      </trkpt>
      <trkpt lat="48.579848" lon="-2.561716">
        <ele>11.2</ele>
        <time>2020-08-13T20:54:42Z</time>
      </trkpt>
      <trkpt lat="48.579915" lon="-2.560336">
        <ele>12.0</ele>
        <time>2020-08-13T20:54:54Z</time>
      </trkpt>
      <trkpt lat="48.579921" lon="-2.559832">
        <ele>11.2</ele>
        <time>2020-08-13T20:54:59Z</time>
      </trkpt>
      <trkpt lat="48.579882" lon="-2.559135">
        <ele>9.0</ele>
        <time>2020-08-13T20:55:05Z</time>
      </trkpt>
      <trkpt lat="48.579909" lon="-2.558847">
        <ele>9.0</ele>
        <time>2020-08-13T20:55:07Z</time>
      </trkpt>
      <trkpt lat="48.579948" lon="-2.558647">
        <ele>9.0</ele>
        <time>2020-08-13T20:55:09Z</time>
      </trkpt>
      <trkpt lat="48.580187" lon="-2.557757">
        <ele>11.6</ele>
        <time>2020-08-13T20:55:18Z</time>
      </trkpt>
      <trkpt lat="48.580324" lon="-2.557373">
        <ele>13.4</ele>
        <time>2020-08-13T20:55:21Z</time>
      </trkpt>
      <trkpt lat="48.580644" lon="-2.556607">
        <ele>17.2</ele>
        <time>2020-08-13T20:55:29Z</time>
      </trkpt>
      <trkpt lat="48.580721" lon="-2.556352">
        <ele>17.2</ele>
        <time>2020-08-13T20:55:32Z</time>
      </trkpt>
      <trkpt lat="48.580811" lon="-2.555976">
        <ele>17.2</ele>
        <time>2020-08-13T20:55:35Z</time>
      </trkpt>
      <trkpt lat="48.580862" lon="-2.555838">
        <ele>18.0</ele>
        <time>2020-08-13T20:55:37Z</time>
      </trkpt>
      <trkpt lat="48.580902" lon="-2.555794">
        <ele>19.0</ele>
        <time>2020-08-13T20:55:38Z</time>
      </trkpt>
      <trkpt lat="48.580874" lon="-2.555704">
        <ele>19.0</ele>
        <time>2020-08-13T20:55:38Z</time>
      </trkpt>
      <trkpt lat="48.580884" lon="-2.555605">
        <ele>19.0</ele>
        <time>2020-08-13T20:55:39Z</time>
      </trkpt>
      <trkpt lat="48.580903" lon="-2.555564">
        <ele>19.0</ele>
        <time>2020-08-13T20:55:40Z</time>
      </trkpt>
      <trkpt lat="48.580961" lon="-2.555516">
        <ele>19.0</ele>
        <time>2020-08-13T20:55:40Z</time>
      </trkpt>
      <trkpt lat="48.581001" lon="-2.555183">
        <ele>19.0</ele>
        <time>2020-08-13T20:55:43Z</time>
      </trkpt>
      <trkpt lat="48.581107" lon="-2.554828">
        <ele>19.8</ele>
        <time>2020-08-13T20:55:46Z</time>
      </trkpt>
      <trkpt lat="48.581264" lon="-2.554171">
        <ele>19.8</ele>
        <time>2020-08-13T20:55:52Z</time>
      </trkpt>
      <trkpt lat="48.58151" lon="-2.553625">
        <ele>21.6</ele>
        <time>2020-08-13T20:55:57Z</time>
      </trkpt>
      <trkpt lat="48.581729" lon="-2.553003">
        <ele>21.0</ele>
        <time>2020-08-13T20:56:03Z</time>
      </trkpt>
      <trkpt lat="48.581806" lon="-2.552822">
        <ele>21.0</ele>
        <time>2020-08-13T20:56:04Z</time>
      </trkpt>
      <trkpt lat="48.581875" lon="-2.552708">
        <ele>21.0</ele>
        <time>2020-08-13T20:56:06Z</time>
      </trkpt>
      <trkpt lat="48.582081" lon="-2.552442">
        <ele>23.0</ele>
        <time>2020-08-13T20:56:09Z</time>
      </trkpt>
      <trkpt lat="48.582601" lon="-2.551937">
        <ele>24.8</ele>
        <time>2020-08-13T20:56:17Z</time>
      </trkpt>
      <trkpt lat="48.583387" lon="-2.552535">
        <ele>26.2</ele>
        <time>2020-08-13T20:56:33Z</time>
      </trkpt>
      <trkpt lat="48.583692" lon="-2.552525">
        <ele>26.2</ele>
        <time>2020-08-13T20:56:38Z</time>
      </trkpt>
      <trkpt lat="48.58393" lon="-2.552482">
        <ele>25.0</ele>
        <time>2020-08-13T20:56:43Z</time>
      </trkpt>
      <trkpt lat="48.584107" lon="-2.552378">
        <ele>25.0</ele>
        <time>2020-08-13T20:56:46Z</time>
      </trkpt>
      <trkpt lat="48.584297" lon="-2.552252">
        <ele>24.6</ele>
        <time>2020-08-13T20:56:50Z</time>
      </trkpt>
      <trkpt lat="48.585364" lon="-2.551247">
        <ele>21.8</ele>
        <time>2020-08-13T20:57:13Z</time>
      </trkpt>
      <trkpt lat="48.585582" lon="-2.551126">
        <ele>21.8</ele>
        <time>2020-08-13T20:57:18Z</time>
      </trkpt>
      <trkpt lat="48.585582" lon="-2.551126">
        <ele>21.8</ele>
        <time>2020-08-13T20:57:18Z</time>
      </trkpt>
      <trkpt lat="48.585764" lon="-2.551024">
        <ele>21.8</ele>
        <time>2020-08-13T20:57:21Z</time>
      </trkpt>
      <trkpt lat="48.586368" lon="-2.550769">
        <ele>20.0</ele>
        <time>2020-08-13T20:57:33Z</time>
      </trkpt>
      <trkpt lat="48.586288" lon="-2.550226">
        <ele>20.0</ele>
        <time>2020-08-13T20:57:40Z</time>
      </trkpt>
      <trkpt lat="48.586326" lon="-2.550104">
        <ele>20.0</ele>
        <time>2020-08-13T20:57:41Z</time>
      </trkpt>
      <trkpt lat="48.586558" lon="-2.549949">
        <ele>19.0</ele>
        <time>2020-08-13T20:57:46Z</time>
      </trkpt>
      <trkpt lat="48.586867" lon="-2.54978">
        <ele>21.2</ele>
        <time>2020-08-13T20:57:52Z</time>
      </trkpt>
      <trkpt lat="48.586703" lon="-2.54933">
        <ele>21.2</ele>
        <time>2020-08-13T20:58:00Z</time>
      </trkpt>
      <trkpt lat="48.58666" lon="-2.549115">
        <ele>19.0</ele>
        <time>2020-08-13T20:58:03Z</time>
      </trkpt>
      <trkpt lat="48.586665" lon="-2.548835">
        <ele>19.0</ele>
        <time>2020-08-13T20:58:07Z</time>
      </trkpt>
      <trkpt lat="48.5867" lon="-2.548567">
        <ele>22.0</ele>
        <time>2020-08-13T20:58:12Z</time>
      </trkpt>
      <trkpt lat="48.586894" lon="-2.547625">
        <ele>21.4</ele>
        <time>2020-08-13T20:58:27Z</time>
      </trkpt>
      <trkpt lat="48.586891" lon="-2.547176">
        <ele>21.6</ele>
        <time>2020-08-13T20:58:34Z</time>
      </trkpt>
      <trkpt lat="48.586857" lon="-2.547042">
        <ele>21.6</ele>
        <time>2020-08-13T20:58:36Z</time>
      </trkpt>
      <trkpt lat="48.586908" lon="-2.546924">
        <ele>21.6</ele>
        <time>2020-08-13T20:58:37Z</time>
      </trkpt>
      <trkpt lat="48.586931" lon="-2.546168">
        <ele>22.4</ele>
        <time>2020-08-13T20:58:44Z</time>
      </trkpt>
      <trkpt lat="48.586952" lon="-2.54589">
        <ele>22.4</ele>
        <time>2020-08-13T20:58:47Z</time>
      </trkpt>
      <trkpt lat="48.587177" lon="-2.545148">
        <ele>24.6</ele>
        <time>2020-08-13T20:58:55Z</time>
      </trkpt>
      <trkpt lat="48.58719" lon="-2.544949">
        <ele>28.4</ele>
        <time>2020-08-13T20:58:57Z</time>
      </trkpt>
      <trkpt lat="48.587174" lon="-2.544852">
        <ele>28.4</ele>
        <time>2020-08-13T20:58:58Z</time>
      </trkpt>
      <trkpt lat="48.587145" lon="-2.544779">
        <ele>28.4</ele>
        <time>2020-08-13T20:58:59Z</time>
      </trkpt>
      <trkpt lat="48.58708" lon="-2.544683">
        <ele>28.4</ele>
        <time>2020-08-13T20:59:00Z</time>
      </trkpt>
      <trkpt lat="48.586679" lon="-2.544244">
        <ele>28.4</ele>
        <time>2020-08-13T20:59:07Z</time>
      </trkpt>
      <trkpt lat="48.586399" lon="-2.544005">
        <ele>35.4</ele>
        <time>2020-08-13T20:59:12Z</time>
      </trkpt>
      <trkpt lat="48.586253" lon="-2.543787">
        <ele>35.4</ele>
        <time>2020-08-13T20:59:15Z</time>
      </trkpt>
      <trkpt lat="48.586199" lon="-2.543575">
        <ele>35.4</ele>
        <time>2020-08-13T20:59:17Z</time>
      </trkpt>
      <trkpt lat="48.586132" lon="-2.542982">
        <ele>41.4</ele>
        <time>2020-08-13T20:59:23Z</time>
      </trkpt>
      <trkpt lat="48.586078" lon="-2.542664">
        <ele>41.4</ele>
        <time>2020-08-13T20:59:26Z</time>
      </trkpt>
      <trkpt lat="48.585992" lon="-2.542397">
        <ele>47.2</ele>
        <time>2020-08-13T20:59:29Z</time>
      </trkpt>
      <trkpt lat="48.585883" lon="-2.542183">
        <ele>47.2</ele>
        <time>2020-08-13T20:59:31Z</time>
      </trkpt>
      <trkpt lat="48.585739" lon="-2.542031">
        <ele>49.8</ele>
        <time>2020-08-13T20:59:34Z</time>
      </trkpt>
      <trkpt lat="48.585137" lon="-2.541773">
        <ele>49.8</ele>
        <time>2020-08-13T20:59:43Z</time>
      </trkpt>
      <trkpt lat="48.585064" lon="-2.541682">
        <ele>49.8</ele>
        <time>2020-08-13T20:59:44Z</time>
      </trkpt>
      <trkpt lat="48.58497" lon="-2.541297">
        <ele>54.6</ele>
        <time>2020-08-13T20:59:48Z</time>
      </trkpt>
      <trkpt lat="48.58475" lon="-2.53992">
        <ele>57.8</ele>
        <time>2020-08-13T21:00:02Z</time>
      </trkpt>
      <trkpt lat="48.584592" lon="-2.539129">
        <ele>60.0</ele>
        <time>2020-08-13T21:00:10Z</time>
      </trkpt>
      <trkpt lat="48.584584" lon="-2.53903">
        <ele>60.0</ele>
        <time>2020-08-13T21:00:11Z</time>
      </trkpt>
      <trkpt lat="48.584659" lon="-2.537957">
        <ele>61.6</ele>
        <time>2020-08-13T21:00:21Z</time>
      </trkpt>
      <trkpt lat="48.584654" lon="-2.537748">
        <ele>61.6</ele>
        <time>2020-08-13T21:00:24Z</time>
      </trkpt>
      <trkpt lat="48.584619" lon="-2.53772">
        <ele>61.6</ele>
        <time>2020-08-13T21:00:25Z</time>
      </trkpt>
      <trkpt lat="48.58406" lon="-2.536791">
        <ele>64.6</ele>
        <time>2020-08-13T21:00:44Z</time>
      </trkpt>
      <trkpt lat="48.583996" lon="-2.536708">
        <ele>64.6</ele>
        <time>2020-08-13T21:00:46Z</time>
      </trkpt>
      <trkpt lat="48.58369" lon="-2.536515">
        <ele>65.0</ele>
        <time>2020-08-13T21:00:53Z</time>
      </trkpt>
      <trkpt lat="48.583652" lon="-2.536422">
        <ele>65.0</ele>
        <time>2020-08-13T21:00:55Z</time>
      </trkpt>
      <trkpt lat="48.583651" lon="-2.53637">
        <ele>65.0</ele>
        <time>2020-08-13T21:00:56Z</time>
      </trkpt>
      <trkpt lat="48.583687" lon="-2.536247">
        <ele>65.0</ele>
        <time>2020-08-13T21:00:58Z</time>
      </trkpt>
      <trkpt lat="48.583767" lon="-2.53604">
        <ele>65.0</ele>
        <time>2020-08-13T21:01:01Z</time>
      </trkpt>
      <trkpt lat="48.584067" lon="-2.535505">
        <ele>64.8</ele>
        <time>2020-08-13T21:01:12Z</time>
      </trkpt>
      <trkpt lat="48.584182" lon="-2.535194">
        <ele>64.0</ele>
        <time>2020-08-13T21:01:18Z</time>
      </trkpt>
      <trkpt lat="48.584217" lon="-2.53512">
        <ele>64.0</ele>
        <time>2020-08-13T21:01:19Z</time>
      </trkpt>
      <trkpt lat="48.584254" lon="-2.535083">
        <ele>64.0</ele>
        <time>2020-08-13T21:01:20Z</time>
      </trkpt>
      <trkpt lat="48.584201" lon="-2.534863">
        <ele>63.4</ele>
        <time>2020-08-13T21:01:24Z</time>
      </trkpt>
      <trkpt lat="48.584047" lon="-2.533951">
        <ele>61.0</ele>
        <time>2020-08-13T21:01:38Z</time>
      </trkpt>
      <trkpt lat="48.584052" lon="-2.533672">
        <ele>61.0</ele>
        <time>2020-08-13T21:01:42Z</time>
      </trkpt>
      <trkpt lat="48.584072" lon="-2.533487">
        <ele>61.0</ele>
        <time>2020-08-13T21:01:45Z</time>
      </trkpt>
      <trkpt lat="48.58426" lon="-2.532616">
        <ele>58.8</ele>
        <time>2020-08-13T21:01:59Z</time>
      </trkpt>
      <trkpt lat="48.584227" lon="-2.532574">
        <ele>58.8</ele>
        <time>2020-08-13T21:01:59Z</time>
      </trkpt>
      <trkpt lat="48.584213" lon="-2.532495">
        <ele>57.6</ele>
        <time>2020-08-13T21:02:00Z</time>
      </trkpt>
      <trkpt lat="48.584235" lon="-2.532421">
        <ele>57.6</ele>
        <time>2020-08-13T21:02:00Z</time>
      </trkpt>
      <trkpt lat="48.584283" lon="-2.532385">
        <ele>57.6</ele>
        <time>2020-08-13T21:02:01Z</time>
      </trkpt>
      <trkpt lat="48.584292" lon="-2.532269">
        <ele>57.6</ele>
        <time>2020-08-13T21:02:02Z</time>
      </trkpt>
      <trkpt lat="48.584285" lon="-2.532136">
        <ele>57.6</ele>
        <time>2020-08-13T21:02:02Z</time>
      </trkpt>
      <trkpt lat="48.584244" lon="-2.531922">
        <ele>57.6</ele>
        <time>2020-08-13T21:02:04Z</time>
      </trkpt>
      <trkpt lat="48.584119" lon="-2.531571">
        <ele>61.4</ele>
        <time>2020-08-13T21:02:06Z</time>
      </trkpt>
      <trkpt lat="48.583695" lon="-2.530542">
        <ele>63.8</ele>
        <time>2020-08-13T21:02:13Z</time>
      </trkpt>
      <trkpt lat="48.583589" lon="-2.530189">
        <ele>63.8</ele>
        <time>2020-08-13T21:02:15Z</time>
      </trkpt>
      <trkpt lat="48.583542" lon="-2.529895">
        <ele>66.2</ele>
        <time>2020-08-13T21:02:17Z</time>
      </trkpt>
      <trkpt lat="48.583526" lon="-2.529741">
        <ele>66.2</ele>
        <time>2020-08-13T21:02:18Z</time>
      </trkpt>
      <trkpt lat="48.583519" lon="-2.529334">
        <ele>66.2</ele>
        <time>2020-08-13T21:02:20Z</time>
      </trkpt>
      <trkpt lat="48.583686" lon="-2.527714">
        <ele>73.4</ele>
        <time>2020-08-13T21:02:30Z</time>
      </trkpt>
      <trkpt lat="48.583757" lon="-2.527275">
        <ele>77.0</ele>
        <time>2020-08-13T21:02:33Z</time>
      </trkpt>
      <trkpt lat="48.583873" lon="-2.526819">
        <ele>77.0</ele>
        <time>2020-08-13T21:02:36Z</time>
      </trkpt>
      <trkpt lat="48.583964" lon="-2.526549">
        <ele>80.2</ele>
        <time>2020-08-13T21:02:37Z</time>
      </trkpt>
      <trkpt lat="48.584041" lon="-2.526349">
        <ele>80.2</ele>
        <time>2020-08-13T21:02:39Z</time>
      </trkpt>
      <trkpt lat="48.584371" lon="-2.525638">
        <ele>81.2</ele>
        <time>2020-08-13T21:02:44Z</time>
      </trkpt>
      <trkpt lat="48.584558" lon="-2.525147">
        <ele>81.2</ele>
        <time>2020-08-13T21:02:47Z</time>
      </trkpt>
      <trkpt lat="48.584611" lon="-2.524961">
        <ele>84.2</ele>
        <time>2020-08-13T21:02:48Z</time>
      </trkpt>
      <trkpt lat="48.584693" lon="-2.524532">
        <ele>84.2</ele>
        <time>2020-08-13T21:02:51Z</time>
      </trkpt>
      <trkpt lat="48.584787" lon="-2.523898">
        <ele>87.6</ele>
        <time>2020-08-13T21:02:55Z</time>
      </trkpt>
      <trkpt lat="48.584852" lon="-2.523349">
        <ele>87.6</ele>
        <time>2020-08-13T21:02:58Z</time>
      </trkpt>
      <trkpt lat="48.584944" lon="-2.521513">
        <ele>94.6</ele>
        <time>2020-08-13T21:03:09Z</time>
      </trkpt>
      <trkpt lat="48.584983" lon="-2.52109">
        <ele>94.6</ele>
        <time>2020-08-13T21:03:11Z</time>
      </trkpt>
      <trkpt lat="48.585835" lon="-2.513362">
        <ele>89.4</ele>
        <time>2020-08-13T21:03:57Z</time>
      </trkpt>
      <trkpt lat="48.585928" lon="-2.512748">
        <ele>91.0</ele>
        <time>2020-08-13T21:04:01Z</time>
      </trkpt>
      <trkpt lat="48.586062" lon="-2.512218">
        <ele>92.4</ele>
        <time>2020-08-13T21:04:04Z</time>
      </trkpt>
      <trkpt lat="48.586464" lon="-2.510992">
        <ele>92.8</ele>
        <time>2020-08-13T21:04:12Z</time>
      </trkpt>
      <trkpt lat="48.586596" lon="-2.510476">
        <ele>93.8</ele>
        <time>2020-08-13T21:04:15Z</time>
      </trkpt>
      <trkpt lat="48.586707" lon="-2.509896">
        <ele>90.4</ele>
        <time>2020-08-13T21:04:19Z</time>
      </trkpt>
      <trkpt lat="48.586799" lon="-2.509122">
        <ele>91.6</ele>
        <time>2020-08-13T21:04:23Z</time>
      </trkpt>
      <trkpt lat="48.586979" lon="-2.507294">
        <ele>99.6</ele>
        <time>2020-08-13T21:04:34Z</time>
      </trkpt>
      <trkpt lat="48.587008" lon="-2.506669">
        <ele>99.6</ele>
        <time>2020-08-13T21:04:38Z</time>
      </trkpt>
      <trkpt lat="48.587016" lon="-2.505219">
        <ele>106.4</ele>
        <time>2020-08-13T21:04:46Z</time>
      </trkpt>
      <trkpt lat="48.587065" lon="-2.504734">
        <ele>107.6</ele>
        <time>2020-08-13T21:04:49Z</time>
      </trkpt>
      <trkpt lat="48.587165" lon="-2.504217">
        <ele>107.6</ele>
        <time>2020-08-13T21:04:52Z</time>
      </trkpt>
      <trkpt lat="48.587224" lon="-2.503942">
        <ele>109.0</ele>
        <time>2020-08-13T21:04:54Z</time>
      </trkpt>
      <trkpt lat="48.587422" lon="-2.503289">
        <ele>110.8</ele>
        <time>2020-08-13T21:04:58Z</time>
      </trkpt>
      <trkpt lat="48.58745" lon="-2.503145">
        <ele>110.8</ele>
        <time>2020-08-13T21:04:59Z</time>
      </trkpt>
      <trkpt lat="48.587472" lon="-2.502961">
        <ele>110.8</ele>
        <time>2020-08-13T21:05:00Z</time>
      </trkpt>
      <trkpt lat="48.587445" lon="-2.502582">
        <ele>110.8</ele>
        <time>2020-08-13T21:05:02Z</time>
      </trkpt>
      <trkpt lat="48.58742" lon="-2.502486">
        <ele>112.6</ele>
        <time>2020-08-13T21:05:03Z</time>
      </trkpt>
      <trkpt lat="48.587355" lon="-2.502386">
        <ele>112.6</ele>
        <time>2020-08-13T21:05:04Z</time>
      </trkpt>
      <trkpt lat="48.587326" lon="-2.502283">
        <ele>112.6</ele>
        <time>2020-08-13T21:05:05Z</time>
      </trkpt>
      <trkpt lat="48.587325" lon="-2.502145">
        <ele>112.6</ele>
        <time>2020-08-13T21:05:05Z</time>
      </trkpt>
      <trkpt lat="48.58735" lon="-2.502044">
        <ele>112.6</ele>
        <time>2020-08-13T21:05:06Z</time>
      </trkpt>
      <trkpt lat="48.587426" lon="-2.501926">
        <ele>112.6</ele>
        <time>2020-08-13T21:05:06Z</time>
      </trkpt>
      <trkpt lat="48.587479" lon="-2.50189">
        <ele>112.6</ele>
        <time>2020-08-13T21:05:07Z</time>
      </trkpt>
      <trkpt lat="48.587568" lon="-2.50188">
        <ele>112.4</ele>
        <time>2020-08-13T21:05:08Z</time>
      </trkpt>
      <trkpt lat="48.587637" lon="-2.501774">
        <ele>112.4</ele>
        <time>2020-08-13T21:05:08Z</time>
      </trkpt>
      <trkpt lat="48.587822" lon="-2.501355">
        <ele>113.8</ele>
        <time>2020-08-13T21:05:11Z</time>
      </trkpt>
      <trkpt lat="48.587946" lon="-2.501126">
        <ele>113.8</ele>
        <time>2020-08-13T21:05:12Z</time>
      </trkpt>
      <trkpt lat="48.588775" lon="-2.499797">
        <ele>115.6</ele>
        <time>2020-08-13T21:05:21Z</time>
      </trkpt>
      <trkpt lat="48.58893" lon="-2.499526">
        <ele>115.6</ele>
        <time>2020-08-13T21:05:22Z</time>
      </trkpt>
      <trkpt lat="48.589165" lon="-2.499047">
        <ele>116.4</ele>
        <time>2020-08-13T21:05:25Z</time>
      </trkpt>
      <trkpt lat="48.589413" lon="-2.498371">
        <ele>114.6</ele>
        <time>2020-08-13T21:05:29Z</time>
      </trkpt>
      <trkpt lat="48.590209" lon="-2.49522">
        <ele>113.4</ele>
        <time>2020-08-13T21:05:45Z</time>
      </trkpt>
      <trkpt lat="48.590361" lon="-2.494695">
        <ele>112.6</ele>
        <time>2020-08-13T21:05:48Z</time>
      </trkpt>
      <trkpt lat="48.591122" lon="-2.492885">
        <ele>111.2</ele>
        <time>2020-08-13T21:05:58Z</time>
      </trkpt>
      <trkpt lat="48.591427" lon="-2.492224">
        <ele>110.8</ele>
        <time>2020-08-13T21:06:02Z</time>
      </trkpt>
      <trkpt lat="48.591708" lon="-2.491776">
        <ele>110.0</ele>
        <time>2020-08-13T21:06:05Z</time>
      </trkpt>
      <trkpt lat="48.592347" lon="-2.490822">
        <ele>107.4</ele>
        <time>2020-08-13T21:06:11Z</time>
      </trkpt>
      <trkpt lat="48.592529" lon="-2.490418">
        <ele>106.0</ele>
        <time>2020-08-13T21:06:13Z</time>
      </trkpt>
      <trkpt lat="48.59268" lon="-2.489993">
        <ele>105.4</ele>
        <time>2020-08-13T21:06:16Z</time>
      </trkpt>
      <trkpt lat="48.592799" lon="-2.489538">
        <ele>105.4</ele>
        <time>2020-08-13T21:06:18Z</time>
      </trkpt>
      <trkpt lat="48.593251" lon="-2.487336">
        <ele>104.8</ele>
        <time>2020-08-13T21:06:29Z</time>
      </trkpt>
      <trkpt lat="48.593293" lon="-2.487087">
        <ele>104.8</ele>
        <time>2020-08-13T21:06:30Z</time>
      </trkpt>
      <trkpt lat="48.593489" lon="-2.48545">
        <ele>102.8</ele>
        <time>2020-08-13T21:06:38Z</time>
      </trkpt>
      <trkpt lat="48.593582" lon="-2.484879">
        <ele>101.4</ele>
        <time>2020-08-13T21:06:41Z</time>
      </trkpt>
      <trkpt lat="48.593651" lon="-2.484566">
        <ele>101.4</ele>
        <time>2020-08-13T21:06:42Z</time>
      </trkpt>
      <trkpt lat="48.593891" lon="-2.483743">
        <ele>100.4</ele>
        <time>2020-08-13T21:06:47Z</time>
      </trkpt>
      <trkpt lat="48.595917" lon="-2.477978">
        <ele>91.0</ele>
        <time>2020-08-13T21:07:18Z</time>
      </trkpt>
      <trkpt lat="48.596136" lon="-2.477536">
        <ele>91.0</ele>
        <time>2020-08-13T21:07:20Z</time>
      </trkpt>
      <trkpt lat="48.596554" lon="-2.476854">
        <ele>89.8</ele>
        <time>2020-08-13T21:07:25Z</time>
      </trkpt>
      <trkpt lat="48.596641" lon="-2.47667">
        <ele>89.8</ele>
        <time>2020-08-13T21:07:26Z</time>
      </trkpt>
      <trkpt lat="48.596851" lon="-2.476143">
        <ele>89.2</ele>
        <time>2020-08-13T21:07:29Z</time>
      </trkpt>
      <trkpt lat="48.597185" lon="-2.475102">
        <ele>88.4</ele>
        <time>2020-08-13T21:07:34Z</time>
      </trkpt>
      <trkpt lat="48.597328" lon="-2.474767">
        <ele>87.6</ele>
        <time>2020-08-13T21:07:36Z</time>
      </trkpt>
      <trkpt lat="48.597911" lon="-2.473595">
        <ele>86.0</ele>
        <time>2020-08-13T21:07:43Z</time>
      </trkpt>
      <trkpt lat="48.597958" lon="-2.473285">
        <ele>85.2</ele>
        <time>2020-08-13T21:07:44Z</time>
      </trkpt>
      <trkpt lat="48.597988" lon="-2.472959">
        <ele>85.2</ele>
        <time>2020-08-13T21:07:45Z</time>
      </trkpt>
      <trkpt lat="48.597975" lon="-2.472812">
        <ele>85.2</ele>
        <time>2020-08-13T21:07:46Z</time>
      </trkpt>
      <trkpt lat="48.597998" lon="-2.471669">
        <ele>84.4</ele>
        <time>2020-08-13T21:07:50Z</time>
      </trkpt>
      <trkpt lat="48.598191" lon="-2.469695">
        <ele>80.8</ele>
        <time>2020-08-13T21:07:56Z</time>
      </trkpt>
      <trkpt lat="48.598461" lon="-2.468407">
        <ele>79.8</ele>
        <time>2020-08-13T21:08:01Z</time>
      </trkpt>
      <trkpt lat="48.59937" lon="-2.464401">
        <ele>78.2</ele>
        <time>2020-08-13T21:08:15Z</time>
      </trkpt>
      <trkpt lat="48.599851" lon="-2.46257">
        <ele>76.8</ele>
        <time>2020-08-13T21:08:22Z</time>
      </trkpt>
      <trkpt lat="48.600223" lon="-2.461724">
        <ele>76.4</ele>
        <time>2020-08-13T21:08:25Z</time>
      </trkpt>
      <trkpt lat="48.601307" lon="-2.460056">
        <ele>75.0</ele>
        <time>2020-08-13T21:08:33Z</time>
      </trkpt>
      <trkpt lat="48.602094" lon="-2.458794">
        <ele>75.8</ele>
        <time>2020-08-13T21:08:39Z</time>
      </trkpt>
      <trkpt lat="48.60331" lon="-2.456756">
        <ele>72.8</ele>
        <time>2020-08-13T21:08:48Z</time>
      </trkpt>
      <trkpt lat="48.604412" lon="-2.455122">
        <ele>69.6</ele>
        <time>2020-08-13T21:08:56Z</time>
      </trkpt>
      <trkpt lat="48.605082" lon="-2.454729">
        <ele>67.4</ele>
        <time>2020-08-13T21:09:00Z</time>
      </trkpt>
      <trkpt lat="48.605471" lon="-2.454588">
        <ele>67.4</ele>
        <time>2020-08-13T21:09:02Z</time>
      </trkpt>
      <trkpt lat="48.606233" lon="-2.454372">
        <ele>67.0</ele>
        <time>2020-08-13T21:09:06Z</time>
      </trkpt>
      <trkpt lat="48.606604" lon="-2.454226">
        <ele>67.0</ele>
        <time>2020-08-13T21:09:08Z</time>
      </trkpt>
      <trkpt lat="48.606969" lon="-2.454016">
        <ele>66.2</ele>
        <time>2020-08-13T21:09:10Z</time>
      </trkpt>
      <trkpt lat="48.607361" lon="-2.453623">
        <ele>66.2</ele>
        <time>2020-08-13T21:09:12Z</time>
      </trkpt>
      <trkpt lat="48.607915" lon="-2.452861">
        <ele>65.0</ele>
        <time>2020-08-13T21:09:16Z</time>
      </trkpt>
      <trkpt lat="48.609074" lon="-2.451155">
        <ele>63.4</ele>
        <time>2020-08-13T21:09:24Z</time>
      </trkpt>
      <trkpt lat="48.60954" lon="-2.450502">
        <ele>62.4</ele>
        <time>2020-08-13T21:09:28Z</time>
      </trkpt>
      <trkpt lat="48.610159" lon="-2.449769">
        <ele>62.8</ele>
        <time>2020-08-13T21:09:32Z</time>
      </trkpt>
      <trkpt lat="48.610859" lon="-2.449257">
        <ele>62.4</ele>
        <time>2020-08-13T21:09:36Z</time>
      </trkpt>
      <trkpt lat="48.6116" lon="-2.448837">
        <ele>62.6</ele>
        <time>2020-08-13T21:09:40Z</time>
      </trkpt>
      <trkpt lat="48.612668" lon="-2.448267">
        <ele>58.8</ele>
        <time>2020-08-13T21:09:46Z</time>
      </trkpt>
      <trkpt lat="48.613115" lon="-2.448124">
        <ele>58.8</ele>
        <time>2020-08-13T21:09:48Z</time>
      </trkpt>
      <trkpt lat="48.613791" lon="-2.44796">
        <ele>57.0</ele>
        <time>2020-08-13T21:09:51Z</time>
      </trkpt>
      <trkpt lat="48.614508" lon="-2.447827">
        <ele>56.8</ele>
        <time>2020-08-13T21:09:55Z</time>
      </trkpt>
      <trkpt lat="48.615771" lon="-2.447765">
        <ele>55.6</ele>
        <time>2020-08-13T21:10:02Z</time>
      </trkpt>
      <trkpt lat="48.616329" lon="-2.447645">
        <ele>53.0</ele>
        <time>2020-08-13T21:10:04Z</time>
      </trkpt>
      <trkpt lat="48.616887" lon="-2.447373">
        <ele>51.8</ele>
        <time>2020-08-13T21:10:07Z</time>
      </trkpt>
      <trkpt lat="48.617529" lon="-2.446692">
        <ele>50.4</ele>
        <time>2020-08-13T21:10:11Z</time>
      </trkpt>
      <trkpt lat="48.619629" lon="-2.44343">
        <ele>50.4</ele>
        <time>2020-08-13T21:10:27Z</time>
      </trkpt>
      <trkpt lat="48.620654" lon="-2.441644">
        <ele>48.6</ele>
        <time>2020-08-13T21:10:35Z</time>
      </trkpt>
      <trkpt lat="48.621074" lon="-2.440677">
        <ele>49.0</ele>
        <time>2020-08-13T21:10:39Z</time>
      </trkpt>
      <trkpt lat="48.621432" lon="-2.439561">
        <ele>48.8</ele>
        <time>2020-08-13T21:10:43Z</time>
      </trkpt>
      <trkpt lat="48.621529" lon="-2.438998">
        <ele>48.8</ele>
        <time>2020-08-13T21:10:45Z</time>
      </trkpt>
      <trkpt lat="48.621555" lon="-2.438761">
        <ele>48.8</ele>
        <time>2020-08-13T21:10:46Z</time>
      </trkpt>
      <trkpt lat="48.621508" lon="-2.43862">
        <ele>48.8</ele>
        <time>2020-08-13T21:10:46Z</time>
      </trkpt>
      <trkpt lat="48.6215" lon="-2.43852">
        <ele>48.8</ele>
        <time>2020-08-13T21:10:47Z</time>
      </trkpt>
      <trkpt lat="48.621527" lon="-2.438385">
        <ele>48.8</ele>
        <time>2020-08-13T21:10:47Z</time>
      </trkpt>
      <trkpt lat="48.621562" lon="-2.43832">
        <ele>48.0</ele>
        <time>2020-08-13T21:10:48Z</time>
      </trkpt>
      <trkpt lat="48.621538" lon="-2.438204">
        <ele>48.0</ele>
        <time>2020-08-13T21:10:48Z</time>
      </trkpt>
      <trkpt lat="48.621451" lon="-2.437967">
        <ele>48.0</ele>
        <time>2020-08-13T21:10:50Z</time>
      </trkpt>
      <trkpt lat="48.621002" lon="-2.437076">
        <ele>47.6</ele>
        <time>2020-08-13T21:10:55Z</time>
      </trkpt>
      <trkpt lat="48.620374" lon="-2.436023">
        <ele>46.6</ele>
        <time>2020-08-13T21:11:01Z</time>
      </trkpt>
      <trkpt lat="48.619301" lon="-2.43407">
        <ele>45.2</ele>
        <time>2020-08-13T21:11:12Z</time>
      </trkpt>
      <trkpt lat="48.619174" lon="-2.433821">
        <ele>45.2</ele>
        <time>2020-08-13T21:11:13Z</time>
      </trkpt>
      <trkpt lat="48.618922" lon="-2.433227">
        <ele>44.6</ele>
        <time>2020-08-13T21:11:16Z</time>
      </trkpt>
      <trkpt lat="48.618789" lon="-2.432798">
        <ele>44.6</ele>
        <time>2020-08-13T21:11:19Z</time>
      </trkpt>
      <trkpt lat="48.618644" lon="-2.432139">
        <ele>43.0</ele>
        <time>2020-08-13T21:11:22Z</time>
      </trkpt>
      <trkpt lat="48.618577" lon="-2.431619">
        <ele>42.2</ele>
        <time>2020-08-13T21:11:24Z</time>
      </trkpt>
      <trkpt lat="48.618558" lon="-2.431342">
        <ele>42.2</ele>
        <time>2020-08-13T21:11:25Z</time>
      </trkpt>
      <trkpt lat="48.61855" lon="-2.430875">
        <ele>42.2</ele>
        <time>2020-08-13T21:11:27Z</time>
      </trkpt>
      <trkpt lat="48.61858" lon="-2.430261">
        <ele>42.0</ele>
        <time>2020-08-13T21:11:30Z</time>
      </trkpt>
      <trkpt lat="48.619211" lon="-2.42146">
        <ele>41.6</ele>
        <time>2020-08-13T21:12:09Z</time>
      </trkpt>
      <trkpt lat="48.619426" lon="-2.418989">
        <ele>42.0</ele>
        <time>2020-08-13T21:12:20Z</time>
      </trkpt>
      <trkpt lat="48.619942" lon="-2.41397">
        <ele>46.8</ele>
        <time>2020-08-13T21:12:42Z</time>
      </trkpt>
      <trkpt lat="48.620049" lon="-2.413988">
        <ele>46.6</ele>
        <time>2020-08-13T21:12:43Z</time>
      </trkpt>
      <trkpt lat="48.620209" lon="-2.413966">
        <ele>46.6</ele>
        <time>2020-08-13T21:12:43Z</time>
      </trkpt>
      <trkpt lat="48.620297" lon="-2.41391">
        <ele>46.6</ele>
        <time>2020-08-13T21:12:44Z</time>
      </trkpt>
      <trkpt lat="48.620537" lon="-2.413518">
        <ele>46.6</ele>
        <time>2020-08-13T21:12:47Z</time>
      </trkpt>
      <trkpt lat="48.621282" lon="-2.412428">
        <ele>47.6</ele>
        <time>2020-08-13T21:12:54Z</time>
      </trkpt>
      <trkpt lat="48.622381" lon="-2.411288">
        <ele>47.2</ele>
        <time>2020-08-13T21:13:04Z</time>
      </trkpt>
      <trkpt lat="48.623941" lon="-2.409913">
        <ele>45.4</ele>
        <time>2020-08-13T21:13:18Z</time>
      </trkpt>
      <trkpt lat="48.624427" lon="-2.409666">
        <ele>43.6</ele>
        <time>2020-08-13T21:13:22Z</time>
      </trkpt>
      <trkpt lat="48.624682" lon="-2.409592">
        <ele>43.6</ele>
        <time>2020-08-13T21:13:24Z</time>
      </trkpt>
      <trkpt lat="48.624923" lon="-2.409581">
        <ele>43.6</ele>
        <time>2020-08-13T21:13:26Z</time>
      </trkpt>
      <trkpt lat="48.626137" lon="-2.409954">
        <ele>40.0</ele>
        <time>2020-08-13T21:13:35Z</time>
      </trkpt>
      <trkpt lat="48.627859" lon="-2.41052">
        <ele>40.0</ele>
        <time>2020-08-13T21:13:48Z</time>
      </trkpt>
      <trkpt lat="48.628711" lon="-2.410693">
        <ele>40.2</ele>
        <time>2020-08-13T21:13:55Z</time>
      </trkpt>
      <trkpt lat="48.631304" lon="-2.410927">
        <ele>27.4</ele>
        <time>2020-08-13T21:14:14Z</time>
      </trkpt>
      <trkpt lat="48.632423" lon="-2.410965">
        <ele>20.4</ele>
        <time>2020-08-13T21:14:23Z</time>
      </trkpt>
      <trkpt lat="48.632987" lon="-2.410915">
        <ele>13.2</ele>
        <time>2020-08-13T21:14:27Z</time>
      </trkpt>
      <trkpt lat="48.63351" lon="-2.410713">
        <ele>13.6</ele>
        <time>2020-08-13T21:14:31Z</time>
      </trkpt>
      <trkpt lat="48.633983" lon="-2.410466">
        <ele>13.6</ele>
        <time>2020-08-13T21:14:35Z</time>
      </trkpt>
      <trkpt lat="48.634287" lon="-2.410265">
        <ele>7.6</ele>
        <time>2020-08-13T21:14:37Z</time>
      </trkpt>
      <trkpt lat="48.63445" lon="-2.410129">
        <ele>7.6</ele>
        <time>2020-08-13T21:14:39Z</time>
      </trkpt>
      <trkpt lat="48.634771" lon="-2.409829">
        <ele>12.6</ele>
        <time>2020-08-13T21:14:42Z</time>
      </trkpt>
      <trkpt lat="48.635644" lon="-2.408849">
        <ele>12.2</ele>
        <time>2020-08-13T21:14:50Z</time>
      </trkpt>
      <trkpt lat="48.636422" lon="-2.408033">
        <ele>15.4</ele>
        <time>2020-08-13T21:14:57Z</time>
      </trkpt>
      <trkpt lat="48.637492" lon="-2.406859">
        <ele>18.6</ele>
        <time>2020-08-13T21:15:07Z</time>
      </trkpt>
      <trkpt lat="48.63755" lon="-2.406755">
        <ele>13.0</ele>
        <time>2020-08-13T21:15:08Z</time>
      </trkpt>
      <trkpt lat="48.637532" lon="-2.406714">
        <ele>13.0</ele>
        <time>2020-08-13T21:15:08Z</time>
      </trkpt>
      <trkpt lat="48.637534" lon="-2.406617">
        <ele>16.4</ele>
        <time>2020-08-13T21:15:09Z</time>
      </trkpt>
      <trkpt lat="48.637554" lon="-2.406577">
        <ele>16.4</ele>
        <time>2020-08-13T21:15:09Z</time>
      </trkpt>
      <trkpt lat="48.63758" lon="-2.406553">
        <ele>16.4</ele>
        <time>2020-08-13T21:15:10Z</time>
      </trkpt>
      <trkpt lat="48.63764" lon="-2.406557">
        <ele>16.4</ele>
        <time>2020-08-13T21:15:10Z</time>
      </trkpt>
      <trkpt lat="48.637666" lon="-2.406584">
        <ele>16.4</ele>
        <time>2020-08-13T21:15:11Z</time>
      </trkpt>
      <trkpt lat="48.64053" lon="-2.403368">
        <ele>15.6</ele>
        <time>2020-08-13T21:15:47Z</time>
      </trkpt>
      <trkpt lat="48.640576" lon="-2.40332">
        <ele>16.4</ele>
        <time>2020-08-13T21:15:48Z</time>
      </trkpt>
      <trkpt lat="48.64069" lon="-2.403305">
        <ele>16.4</ele>
        <time>2020-08-13T21:15:49Z</time>
      </trkpt>
      <trkpt lat="48.640801" lon="-2.403319">
        <ele>16.4</ele>
        <time>2020-08-13T21:15:50Z</time>
      </trkpt>
      <trkpt lat="48.640872" lon="-2.403291">
        <ele>13.4</ele>
        <time>2020-08-13T21:15:51Z</time>
      </trkpt>
      <trkpt lat="48.640962" lon="-2.403211">
        <ele>13.4</ele>
        <time>2020-08-13T21:15:52Z</time>
      </trkpt>
      <trkpt lat="48.641004" lon="-2.403141">
        <ele>13.4</ele>
        <time>2020-08-13T21:15:52Z</time>
      </trkpt>
      <trkpt lat="48.641065" lon="-2.402926">
        <ele>13.4</ele>
        <time>2020-08-13T21:15:54Z</time>
      </trkpt>
      <trkpt lat="48.641191" lon="-2.401366">
        <ele>14.8</ele>
        <time>2020-08-13T21:16:05Z</time>
      </trkpt>
      <trkpt lat="48.641244" lon="-2.400448">
        <ele>16.8</ele>
        <time>2020-08-13T21:16:11Z</time>
      </trkpt>
      <trkpt lat="48.641223" lon="-2.400192">
        <ele>16.8</ele>
        <time>2020-08-13T21:16:13Z</time>
      </trkpt>
      <trkpt lat="48.641174" lon="-2.400179">
        <ele>16.8</ele>
        <time>2020-08-13T21:16:13Z</time>
      </trkpt>
      <trkpt lat="48.641149" lon="-2.400134">
        <ele>16.8</ele>
        <time>2020-08-13T21:16:13Z</time>
      </trkpt>
      <trkpt lat="48.641148" lon="-2.399901">
        <ele>20.0</ele>
        <time>2020-08-13T21:16:15Z</time>
      </trkpt>
      <trkpt lat="48.641159" lon="-2.399825">
        <ele>20.0</ele>
        <time>2020-08-13T21:16:15Z</time>
      </trkpt>
      <trkpt lat="48.64119" lon="-2.399784">
        <ele>20.0</ele>
        <time>2020-08-13T21:16:15Z</time>
      </trkpt>
      <trkpt lat="48.641234" lon="-2.399769">
        <ele>20.0</ele>
        <time>2020-08-13T21:16:16Z</time>
      </trkpt>
      <trkpt lat="48.641346" lon="-2.397795">
        <ele>27.8</ele>
        <time>2020-08-13T21:16:27Z</time>
      </trkpt>
      <trkpt lat="48.64144" lon="-2.39515">
        <ele>36.8</ele>
        <time>2020-08-13T21:16:42Z</time>
      </trkpt>
      <trkpt lat="48.641507" lon="-2.393947">
        <ele>36.8</ele>
        <time>2020-08-13T21:16:48Z</time>
      </trkpt>
      <trkpt lat="48.641582" lon="-2.393348">
        <ele>36.8</ele>
        <time>2020-08-13T21:16:52Z</time>
      </trkpt>
      <trkpt lat="48.641694" lon="-2.392963">
        <ele>34.2</ele>
        <time>2020-08-13T21:16:54Z</time>
      </trkpt>
      <trkpt lat="48.641801" lon="-2.392696">
        <ele>34.2</ele>
        <time>2020-08-13T21:16:56Z</time>
      </trkpt>
      <trkpt lat="48.641939" lon="-2.392416">
        <ele>38.6</ele>
        <time>2020-08-13T21:16:58Z</time>
      </trkpt>
      <trkpt lat="48.642174" lon="-2.392093">
        <ele>38.6</ele>
        <time>2020-08-13T21:17:00Z</time>
      </trkpt>
      <trkpt lat="48.642336" lon="-2.391911">
        <ele>38.6</ele>
        <time>2020-08-13T21:17:02Z</time>
      </trkpt>
      <trkpt lat="48.642527" lon="-2.391745">
        <ele>35.0</ele>
        <time>2020-08-13T21:17:04Z</time>
      </trkpt>
      <trkpt lat="48.64286" lon="-2.39159">
        <ele>40.6</ele>
        <time>2020-08-13T21:17:07Z</time>
      </trkpt>
      <trkpt lat="48.645156" lon="-2.390761">
        <ele>58.4</ele>
        <time>2020-08-13T21:17:27Z</time>
      </trkpt>
      <trkpt lat="48.645769" lon="-2.390427">
        <ele>58.4</ele>
        <time>2020-08-13T21:17:32Z</time>
      </trkpt>
      <trkpt lat="48.646215" lon="-2.389991">
        <ele>61.2</ele>
        <time>2020-08-13T21:17:37Z</time>
      </trkpt>
      <trkpt lat="48.646465" lon="-2.389708">
        <ele>61.2</ele>
        <time>2020-08-13T21:17:39Z</time>
      </trkpt>
      <trkpt lat="48.646694" lon="-2.389375">
        <ele>52.6</ele>
        <time>2020-08-13T21:17:42Z</time>
      </trkpt>
      <trkpt lat="48.646986" lon="-2.388849">
        <ele>56.2</ele>
        <time>2020-08-13T21:17:46Z</time>
      </trkpt>
      <trkpt lat="48.647205" lon="-2.38836">
        <ele>56.2</ele>
        <time>2020-08-13T21:17:49Z</time>
      </trkpt>
      <trkpt lat="48.64733" lon="-2.388028">
        <ele>58.6</ele>
        <time>2020-08-13T21:17:51Z</time>
      </trkpt>
      <trkpt lat="48.647665" lon="-2.386728">
        <ele>51.0</ele>
        <time>2020-08-13T21:17:59Z</time>
      </trkpt>
      <trkpt lat="48.647876" lon="-2.38573">
        <ele>53.2</ele>
        <time>2020-08-13T21:18:05Z</time>
      </trkpt>
      <trkpt lat="48.64833" lon="-2.383818">
        <ele>55.8</ele>
        <time>2020-08-13T21:18:16Z</time>
      </trkpt>
      <trkpt lat="48.648781" lon="-2.381648">
        <ele>52.8</ele>
        <time>2020-08-13T21:18:29Z</time>
      </trkpt>
      <trkpt lat="48.648817" lon="-2.381061">
        <ele>52.8</ele>
        <time>2020-08-13T21:18:32Z</time>
      </trkpt>
      <trkpt lat="48.648805" lon="-2.380765">
        <ele>52.2</ele>
        <time>2020-08-13T21:18:34Z</time>
      </trkpt>
      <trkpt lat="48.64867" lon="-2.379315">
        <ele>51.6</ele>
        <time>2020-08-13T21:18:42Z</time>
      </trkpt>
      <trkpt lat="48.648684" lon="-2.378743">
        <ele>50.0</ele>
        <time>2020-08-13T21:18:45Z</time>
      </trkpt>
      <trkpt lat="48.648729" lon="-2.378394">
        <ele>50.0</ele>
        <time>2020-08-13T21:18:47Z</time>
      </trkpt>
      <trkpt lat="48.648794" lon="-2.378059">
        <ele>48.6</ele>
        <time>2020-08-13T21:18:49Z</time>
      </trkpt>
      <trkpt lat="48.648945" lon="-2.377616">
        <ele>48.6</ele>
        <time>2020-08-13T21:18:51Z</time>
      </trkpt>
      <trkpt lat="48.650228" lon="-2.374142">
        <ele>35.8</ele>
        <time>2020-08-13T21:19:14Z</time>
      </trkpt>
      <trkpt lat="48.650386" lon="-2.373764">
        <ele>35.8</ele>
        <time>2020-08-13T21:19:16Z</time>
      </trkpt>
      <trkpt lat="48.650516" lon="-2.373583">
        <ele>35.8</ele>
        <time>2020-08-13T21:19:18Z</time>
      </trkpt>
      <trkpt lat="48.650648" lon="-2.373444">
        <ele>35.8</ele>
        <time>2020-08-13T21:19:19Z</time>
      </trkpt>
      <trkpt lat="48.650775" lon="-2.37337">
        <ele>35.8</ele>
        <time>2020-08-13T21:19:20Z</time>
      </trkpt>
      <trkpt lat="48.650948" lon="-2.373317">
        <ele>27.2</ele>
        <time>2020-08-13T21:19:22Z</time>
      </trkpt>
      <trkpt lat="48.651135" lon="-2.373318">
        <ele>27.2</ele>
        <time>2020-08-13T21:19:23Z</time>
      </trkpt>
      <trkpt lat="48.651322" lon="-2.373384">
        <ele>32.4</ele>
        <time>2020-08-13T21:19:25Z</time>
      </trkpt>
      <trkpt lat="48.651706" lon="-2.373587">
        <ele>22.6</ele>
        <time>2020-08-13T21:19:28Z</time>
      </trkpt>
      <trkpt lat="48.651916" lon="-2.373642">
        <ele>22.6</ele>
        <time>2020-08-13T21:19:30Z</time>
      </trkpt>
      <trkpt lat="48.652036" lon="-2.37364">
        <ele>22.6</ele>
        <time>2020-08-13T21:19:31Z</time>
      </trkpt>
      <trkpt lat="48.652173" lon="-2.373601">
        <ele>22.6</ele>
        <time>2020-08-13T21:19:32Z</time>
      </trkpt>
      <trkpt lat="48.652315" lon="-2.373522">
        <ele>22.6</ele>
        <time>2020-08-13T21:19:34Z</time>
      </trkpt>
      <trkpt lat="48.652548" lon="-2.37329">
        <ele>15.2</ele>
        <time>2020-08-13T21:19:36Z</time>
      </trkpt>
      <trkpt lat="48.652906" lon="-2.372653">
        <ele>15.2</ele>
        <time>2020-08-13T21:19:41Z</time>
      </trkpt>
      <trkpt lat="48.653013" lon="-2.372417">
        <ele>21.0</ele>
        <time>2020-08-13T21:19:42Z</time>
      </trkpt>
      <trkpt lat="48.6532" lon="-2.372099">
        <ele>21.0</ele>
        <time>2020-08-13T21:19:45Z</time>
      </trkpt>
      <trkpt lat="48.653359" lon="-2.371858">
        <ele>22.0</ele>
        <time>2020-08-13T21:19:47Z</time>
      </trkpt>
      <trkpt lat="48.65353" lon="-2.371679">
        <ele>22.0</ele>
        <time>2020-08-13T21:19:48Z</time>
      </trkpt>
      <trkpt lat="48.653726" lon="-2.371569">
        <ele>28.8</ele>
        <time>2020-08-13T21:19:50Z</time>
      </trkpt>
      <trkpt lat="48.653923" lon="-2.371526">
        <ele>28.8</ele>
        <time>2020-08-13T21:19:52Z</time>
      </trkpt>
      <trkpt lat="48.654262" lon="-2.371521">
        <ele>31.2</ele>
        <time>2020-08-13T21:19:55Z</time>
      </trkpt>
      <trkpt lat="48.654453" lon="-2.371466">
        <ele>31.2</ele>
        <time>2020-08-13T21:19:56Z</time>
      </trkpt>
      <trkpt lat="48.654631" lon="-2.371355">
        <ele>31.2</ele>
        <time>2020-08-13T21:19:58Z</time>
      </trkpt>
      <trkpt lat="48.654746" lon="-2.371243">
        <ele>31.2</ele>
        <time>2020-08-13T21:19:59Z</time>
      </trkpt>
      <trkpt lat="48.654836" lon="-2.371101">
        <ele>31.2</ele>
        <time>2020-08-13T21:20:00Z</time>
      </trkpt>
      <trkpt lat="48.655499" lon="-2.369618">
        <ele>31.4</ele>
        <time>2020-08-13T21:20:10Z</time>
      </trkpt>
      <trkpt lat="48.65561" lon="-2.369322">
        <ele>31.4</ele>
        <time>2020-08-13T21:20:12Z</time>
      </trkpt>
      <trkpt lat="48.655702" lon="-2.368972">
        <ele>34.0</ele>
        <time>2020-08-13T21:20:14Z</time>
      </trkpt>
      <trkpt lat="48.655725" lon="-2.368605">
        <ele>34.0</ele>
        <time>2020-08-13T21:20:16Z</time>
      </trkpt>
      <trkpt lat="48.655709" lon="-2.368354">
        <ele>34.0</ele>
        <time>2020-08-13T21:20:17Z</time>
      </trkpt>
      <trkpt lat="48.655664" lon="-2.368108">
        <ele>35.8</ele>
        <time>2020-08-13T21:20:19Z</time>
      </trkpt>
      <trkpt lat="48.655523" lon="-2.367626">
        <ele>35.8</ele>
        <time>2020-08-13T21:20:22Z</time>
      </trkpt>
      <trkpt lat="48.655457" lon="-2.367513">
        <ele>35.8</ele>
        <time>2020-08-13T21:20:23Z</time>
      </trkpt>
      <trkpt lat="48.655241" lon="-2.36724">
        <ele>35.2</ele>
        <time>2020-08-13T21:20:25Z</time>
      </trkpt>
      <trkpt lat="48.655101" lon="-2.367131">
        <ele>35.2</ele>
        <time>2020-08-13T21:20:26Z</time>
      </trkpt>
      <trkpt lat="48.654837" lon="-2.367014">
        <ele>39.2</ele>
        <time>2020-08-13T21:20:29Z</time>
      </trkpt>
      <trkpt lat="48.653703" lon="-2.366786">
        <ele>44.2</ele>
        <time>2020-08-13T21:20:39Z</time>
      </trkpt>
      <trkpt lat="48.653635" lon="-2.36661">
        <ele>43.4</ele>
        <time>2020-08-13T21:20:39Z</time>
      </trkpt>
      <trkpt lat="48.653576" lon="-2.366354">
        <ele>43.4</ele>
        <time>2020-08-13T21:20:40Z</time>
      </trkpt>
      <trkpt lat="48.652539" lon="-2.363548">
        <ele>45.2</ele>
        <time>2020-08-13T21:20:52Z</time>
      </trkpt>
      <trkpt lat="48.652081" lon="-2.362001">
        <ele>52.0</ele>
        <time>2020-08-13T21:20:58Z</time>
      </trkpt>
      <trkpt lat="48.651733" lon="-2.360732">
        <ele>48.8</ele>
        <time>2020-08-13T21:21:03Z</time>
      </trkpt>
      <trkpt lat="48.651664" lon="-2.360355">
        <ele>52.8</ele>
        <time>2020-08-13T21:21:04Z</time>
      </trkpt>
      <trkpt lat="48.651356" lon="-2.358344">
        <ele>46.2</ele>
        <time>2020-08-13T21:21:12Z</time>
      </trkpt>
      <trkpt lat="48.65131" lon="-2.357845">
        <ele>42.4</ele>
        <time>2020-08-13T21:21:14Z</time>
      </trkpt>
      <trkpt lat="48.651323" lon="-2.357394">
        <ele>38.6</ele>
        <time>2020-08-13T21:21:15Z</time>
      </trkpt>
      <trkpt lat="48.6514" lon="-2.356862">
        <ele>38.6</ele>
        <time>2020-08-13T21:21:17Z</time>
      </trkpt>
      <trkpt lat="48.651521" lon="-2.356408">
        <ele>35.2</ele>
        <time>2020-08-13T21:21:19Z</time>
      </trkpt>
      <trkpt lat="48.651618" lon="-2.356177">
        <ele>35.2</ele>
        <time>2020-08-13T21:21:20Z</time>
      </trkpt>
      <trkpt lat="48.651721" lon="-2.355978">
        <ele>35.4</ele>
        <time>2020-08-13T21:21:21Z</time>
      </trkpt>
      <trkpt lat="48.652214" lon="-2.355301">
        <ele>34.6</ele>
        <time>2020-08-13T21:21:25Z</time>
      </trkpt>
      <trkpt lat="48.652899" lon="-2.354768">
        <ele>34.4</ele>
        <time>2020-08-13T21:21:29Z</time>
      </trkpt>
      <trkpt lat="48.653046" lon="-2.354621">
        <ele>34.4</ele>
        <time>2020-08-13T21:21:30Z</time>
      </trkpt>
      <trkpt lat="48.655285" lon="-2.351721">
        <ele>27.2</ele>
        <time>2020-08-13T21:21:46Z</time>
      </trkpt>
      <trkpt lat="48.655617" lon="-2.351204">
        <ele>26.2</ele>
        <time>2020-08-13T21:21:49Z</time>
      </trkpt>
      <trkpt lat="48.655772" lon="-2.350928">
        <ele>26.2</ele>
        <time>2020-08-13T21:21:50Z</time>
      </trkpt>
      <trkpt lat="48.656839" lon="-2.348683">
        <ele>27.0</ele>
        <time>2020-08-13T21:22:00Z</time>
      </trkpt>
      <trkpt lat="48.657138" lon="-2.348201">
        <ele>28.6</ele>
        <time>2020-08-13T21:22:02Z</time>
      </trkpt>
      <trkpt lat="48.657324" lon="-2.347956">
        <ele>28.6</ele>
        <time>2020-08-13T21:22:04Z</time>
      </trkpt>
      <trkpt lat="48.65776" lon="-2.347529">
        <ele>29.4</ele>
        <time>2020-08-13T21:22:06Z</time>
      </trkpt>
      <trkpt lat="48.65822" lon="-2.34724">
        <ele>30.6</ele>
        <time>2020-08-13T21:22:09Z</time>
      </trkpt>
      <trkpt lat="48.658563" lon="-2.347102">
        <ele>28.8</ele>
        <time>2020-08-13T21:22:11Z</time>
      </trkpt>
      <trkpt lat="48.658907" lon="-2.347036">
        <ele>28.8</ele>
        <time>2020-08-13T21:22:13Z</time>
      </trkpt>
      <trkpt lat="48.659276" lon="-2.347026">
        <ele>25.0</ele>
        <time>2020-08-13T21:22:15Z</time>
      </trkpt>
      <trkpt lat="48.659507" lon="-2.34706">
        <ele>25.0</ele>
        <time>2020-08-13T21:22:16Z</time>
      </trkpt>
      <trkpt lat="48.659865" lon="-2.347167">
        <ele>25.0</ele>
        <time>2020-08-13T21:22:18Z</time>
      </trkpt>
      <trkpt lat="48.661813" lon="-2.348183">
        <ele>13.0</ele>
        <time>2020-08-13T21:22:29Z</time>
      </trkpt>
      <trkpt lat="48.662076" lon="-2.348278">
        <ele>13.0</ele>
        <time>2020-08-13T21:22:31Z</time>
      </trkpt>
      <trkpt lat="48.662221" lon="-2.348292">
        <ele>13.0</ele>
        <time>2020-08-13T21:22:32Z</time>
      </trkpt>
      <trkpt lat="48.662413" lon="-2.34827">
        <ele>13.0</ele>
        <time>2020-08-13T21:22:33Z</time>
      </trkpt>
      <trkpt lat="48.662573" lon="-2.348212">
        <ele>13.0</ele>
        <time>2020-08-13T21:22:34Z</time>
      </trkpt>
      <trkpt lat="48.662735" lon="-2.348102">
        <ele>13.0</ele>
        <time>2020-08-13T21:22:35Z</time>
      </trkpt>
      <trkpt lat="48.662868" lon="-2.34798">
        <ele>13.0</ele>
        <time>2020-08-13T21:22:36Z</time>
      </trkpt>
      <trkpt lat="48.663038" lon="-2.347763">
        <ele>13.0</ele>
        <time>2020-08-13T21:22:37Z</time>
      </trkpt>
      <trkpt lat="48.66316" lon="-2.34752">
        <ele>13.0</ele>
        <time>2020-08-13T21:22:38Z</time>
      </trkpt>
      <trkpt lat="48.663293" lon="-2.34706">
        <ele>20.6</ele>
        <time>2020-08-13T21:22:40Z</time>
      </trkpt>
      <trkpt lat="48.663334" lon="-2.346765">
        <ele>18.6</ele>
        <time>2020-08-13T21:22:41Z</time>
      </trkpt>
      <trkpt lat="48.66334" lon="-2.346471">
        <ele>23.4</ele>
        <time>2020-08-13T21:22:42Z</time>
      </trkpt>
      <trkpt lat="48.663291" lon="-2.346126">
        <ele>25.2</ele>
        <time>2020-08-13T21:22:43Z</time>
      </trkpt>
      <trkpt lat="48.66303" lon="-2.344799">
        <ele>28.0</ele>
        <time>2020-08-13T21:22:48Z</time>
      </trkpt>
      <trkpt lat="48.662979" lon="-2.344473">
        <ele>28.0</ele>
        <time>2020-08-13T21:22:49Z</time>
      </trkpt>
      <trkpt lat="48.66297" lon="-2.344332">
        <ele>28.0</ele>
        <time>2020-08-13T21:22:50Z</time>
      </trkpt>
      <trkpt lat="48.662967" lon="-2.3441">
        <ele>29.8</ele>
        <time>2020-08-13T21:22:51Z</time>
      </trkpt>
      <trkpt lat="48.662989" lon="-2.343899">
        <ele>29.8</ele>
        <time>2020-08-13T21:22:51Z</time>
      </trkpt>
      <trkpt lat="48.663061" lon="-2.343606">
        <ele>29.8</ele>
        <time>2020-08-13T21:22:53Z</time>
      </trkpt>
      <trkpt lat="48.663165" lon="-2.343348">
        <ele>29.8</ele>
        <time>2020-08-13T21:22:54Z</time>
      </trkpt>
      <trkpt lat="48.663282" lon="-2.343153">
        <ele>33.2</ele>
        <time>2020-08-13T21:22:55Z</time>
      </trkpt>
      <trkpt lat="48.663473" lon="-2.342967">
        <ele>34.4</ele>
        <time>2020-08-13T21:22:56Z</time>
      </trkpt>
      <trkpt lat="48.663675" lon="-2.342874">
        <ele>34.4</ele>
        <time>2020-08-13T21:22:57Z</time>
      </trkpt>
      <trkpt lat="48.664641" lon="-2.342744">
        <ele>28.2</ele>
        <time>2020-08-13T21:23:02Z</time>
      </trkpt>
      <trkpt lat="48.664837" lon="-2.342702">
        <ele>28.2</ele>
        <time>2020-08-13T21:23:03Z</time>
      </trkpt>
      <trkpt lat="48.664992" lon="-2.342643">
        <ele>28.2</ele>
        <time>2020-08-13T21:23:04Z</time>
      </trkpt>
      <trkpt lat="48.66519" lon="-2.342534">
        <ele>18.6</ele>
        <time>2020-08-13T21:23:06Z</time>
      </trkpt>
      <trkpt lat="48.665946" lon="-2.342043">
        <ele>25.6</ele>
        <time>2020-08-13T21:23:10Z</time>
      </trkpt>
      <trkpt lat="48.666303" lon="-2.341763">
        <ele>25.6</ele>
        <time>2020-08-13T21:23:12Z</time>
      </trkpt>
      <trkpt lat="48.666464" lon="-2.341548">
        <ele>36.4</ele>
        <time>2020-08-13T21:23:14Z</time>
      </trkpt>
      <trkpt lat="48.666536" lon="-2.341421">
        <ele>36.4</ele>
        <time>2020-08-13T21:23:14Z</time>
      </trkpt>
      <trkpt lat="48.666585" lon="-2.341288">
        <ele>36.4</ele>
        <time>2020-08-13T21:23:15Z</time>
      </trkpt>
      <trkpt lat="48.666663" lon="-2.340976">
        <ele>36.4</ele>
        <time>2020-08-13T21:23:16Z</time>
      </trkpt>
      <trkpt lat="48.666798" lon="-2.339486">
        <ele>38.4</ele>
        <time>2020-08-13T21:23:21Z</time>
      </trkpt>
      <trkpt lat="48.666891" lon="-2.338878">
        <ele>36.8</ele>
        <time>2020-08-13T21:23:24Z</time>
      </trkpt>
      <trkpt lat="48.66709" lon="-2.338051">
        <ele>34.2</ele>
        <time>2020-08-13T21:23:27Z</time>
      </trkpt>
      <trkpt lat="48.667183" lon="-2.337718">
        <ele>34.2</ele>
        <time>2020-08-13T21:23:28Z</time>
      </trkpt>
      <trkpt lat="48.667302" lon="-2.337385">
        <ele>34.4</ele>
        <time>2020-08-13T21:23:29Z</time>
      </trkpt>
      <trkpt lat="48.667559" lon="-2.33684">
        <ele>29.8</ele>
        <time>2020-08-13T21:23:32Z</time>
      </trkpt>
      <trkpt lat="48.667704" lon="-2.336574">
        <ele>35.0</ele>
        <time>2020-08-13T21:23:33Z</time>
      </trkpt>
      <trkpt lat="48.668021" lon="-2.336103">
        <ele>35.0</ele>
        <time>2020-08-13T21:23:36Z</time>
      </trkpt>
      <trkpt lat="48.668254" lon="-2.335821">
        <ele>37.6</ele>
        <time>2020-08-13T21:23:37Z</time>
      </trkpt>
      <trkpt lat="48.668367" lon="-2.33571">
        <ele>36.0</ele>
        <time>2020-08-13T21:23:38Z</time>
      </trkpt>
      <trkpt lat="48.669291" lon="-2.33489">
        <ele>33.8</ele>
        <time>2020-08-13T21:23:44Z</time>
      </trkpt>
      <trkpt lat="48.669425" lon="-2.334751">
        <ele>33.8</ele>
        <time>2020-08-13T21:23:45Z</time>
      </trkpt>
      <trkpt lat="48.669495" lon="-2.33465">
        <ele>33.8</ele>
        <time>2020-08-13T21:23:45Z</time>
      </trkpt>
      <trkpt lat="48.6696" lon="-2.334431">
        <ele>33.8</ele>
        <time>2020-08-13T21:23:46Z</time>
      </trkpt>
      <trkpt lat="48.669663" lon="-2.334228">
        <ele>33.8</ele>
        <time>2020-08-13T21:23:47Z</time>
      </trkpt>
      <trkpt lat="48.669693" lon="-2.334073">
        <ele>39.8</ele>
        <time>2020-08-13T21:23:48Z</time>
      </trkpt>
      <trkpt lat="48.669716" lon="-2.333774">
        <ele>39.8</ele>
        <time>2020-08-13T21:23:49Z</time>
      </trkpt>
      <trkpt lat="48.669656" lon="-2.332672">
        <ele>42.8</ele>
        <time>2020-08-13T21:23:53Z</time>
      </trkpt>
      <trkpt lat="48.669659" lon="-2.332184">
        <ele>44.8</ele>
        <time>2020-08-13T21:23:54Z</time>
      </trkpt>
      <trkpt lat="48.66974" lon="-2.331702">
        <ele>44.8</ele>
        <time>2020-08-13T21:23:56Z</time>
      </trkpt>
      <trkpt lat="48.669879" lon="-2.331187">
        <ele>47.4</ele>
        <time>2020-08-13T21:23:58Z</time>
      </trkpt>
      <trkpt lat="48.669925" lon="-2.331073">
        <ele>47.4</ele>
        <time>2020-08-13T21:23:59Z</time>
      </trkpt>
      <trkpt lat="48.670072" lon="-2.330806">
        <ele>46.8</ele>
        <time>2020-08-13T21:24:00Z</time>
      </trkpt>
      <trkpt lat="48.672624" lon="-2.327249">
        <ele>43.8</ele>
        <time>2020-08-13T21:24:19Z</time>
      </trkpt>
      <trkpt lat="48.672865" lon="-2.326947">
        <ele>43.8</ele>
        <time>2020-08-13T21:24:21Z</time>
      </trkpt>
      <trkpt lat="48.673109" lon="-2.326708">
        <ele>43.8</ele>
        <time>2020-08-13T21:24:22Z</time>
      </trkpt>
      <trkpt lat="48.673373" lon="-2.326523">
        <ele>49.6</ele>
        <time>2020-08-13T21:24:24Z</time>
      </trkpt>
      <trkpt lat="48.673608" lon="-2.326435">
        <ele>49.6</ele>
        <time>2020-08-13T21:24:25Z</time>
      </trkpt>
      <trkpt lat="48.673971" lon="-2.326363">
        <ele>49.6</ele>
        <time>2020-08-13T21:24:28Z</time>
      </trkpt>
      <trkpt lat="48.673971" lon="-2.326363">
        <ele>49.6</ele>
        <time>2020-08-13T21:24:28Z</time>
      </trkpt>
      <trkpt lat="48.674377" lon="-2.32624">
        <ele>49.0</ele>
        <time>2020-08-13T21:24:30Z</time>
      </trkpt>
      <trkpt lat="48.674663" lon="-2.326047">
        <ele>49.0</ele>
        <time>2020-08-13T21:24:31Z</time>
      </trkpt>
      <trkpt lat="48.674797" lon="-2.32592">
        <ele>49.0</ele>
        <time>2020-08-13T21:24:32Z</time>
      </trkpt>
      <trkpt lat="48.675124" lon="-2.325503">
        <ele>57.2</ele>
        <time>2020-08-13T21:24:34Z</time>
      </trkpt>
      <trkpt lat="48.677048" lon="-2.322768">
        <ele>60.6</ele>
        <time>2020-08-13T21:24:46Z</time>
      </trkpt>
      <trkpt lat="48.677294" lon="-2.322359">
        <ele>63.6</ele>
        <time>2020-08-13T21:24:48Z</time>
      </trkpt>
      <trkpt lat="48.677465" lon="-2.321949">
        <ele>63.6</ele>
        <time>2020-08-13T21:24:49Z</time>
      </trkpt>
      <trkpt lat="48.678446" lon="-2.318885">
        <ele>66.4</ele>
        <time>2020-08-13T21:24:59Z</time>
      </trkpt>
      <trkpt lat="48.678491" lon="-2.318664">
        <ele>66.4</ele>
        <time>2020-08-13T21:25:00Z</time>
      </trkpt>
      <trkpt lat="48.678516" lon="-2.318358">
        <ele>66.4</ele>
        <time>2020-08-13T21:25:01Z</time>
      </trkpt>
      <trkpt lat="48.678557" lon="-2.318148">
        <ele>65.6</ele>
        <time>2020-08-13T21:25:02Z</time>
      </trkpt>
      <trkpt lat="48.678421" lon="-2.318028">
        <ele>65.6</ele>
        <time>2020-08-13T21:25:03Z</time>
      </trkpt>
      <trkpt lat="48.678246" lon="-2.317928">
        <ele>66.2</ele>
        <time>2020-08-13T21:25:04Z</time>
      </trkpt>
      <trkpt lat="48.678163" lon="-2.317906">
        <ele>66.2</ele>
        <time>2020-08-13T21:25:04Z</time>
      </trkpt>
      <trkpt lat="48.677285" lon="-2.317889">
        <ele>65.6</ele>
        <time>2020-08-13T21:25:09Z</time>
      </trkpt>
      <trkpt lat="48.67697" lon="-2.31792">
        <ele>65.6</ele>
        <time>2020-08-13T21:25:11Z</time>
      </trkpt>
      <trkpt lat="48.675834" lon="-2.318172">
        <ele>64.2</ele>
        <time>2020-08-13T21:25:18Z</time>
      </trkpt>
      <trkpt lat="48.669145" lon="-2.319783">
        <ele>60.8</ele>
        <time>2020-08-13T21:25:57Z</time>
      </trkpt>
      <trkpt lat="48.668497" lon="-2.319965">
        <ele>60.8</ele>
        <time>2020-08-13T21:26:01Z</time>
      </trkpt>
      <trkpt lat="48.667889" lon="-2.320202">
        <ele>59.4</ele>
        <time>2020-08-13T21:26:05Z</time>
      </trkpt>
      <trkpt lat="48.667493" lon="-2.320408">
        <ele>61.4</ele>
        <time>2020-08-13T21:26:07Z</time>
      </trkpt>
      <trkpt lat="48.666942" lon="-2.320802">
        <ele>61.4</ele>
        <time>2020-08-13T21:26:10Z</time>
      </trkpt>
      <trkpt lat="48.666521" lon="-2.321183">
        <ele>61.8</ele>
        <time>2020-08-13T21:26:13Z</time>
      </trkpt>
      <trkpt lat="48.666081" lon="-2.321675">
        <ele>60.0</ele>
        <time>2020-08-13T21:26:16Z</time>
      </trkpt>
      <trkpt lat="48.665644" lon="-2.322304">
        <ele>61.8</ele>
        <time>2020-08-13T21:26:20Z</time>
      </trkpt>
      <trkpt lat="48.665265" lon="-2.322977">
        <ele>60.6</ele>
        <time>2020-08-13T21:26:23Z</time>
      </trkpt>
      <trkpt lat="48.665001" lon="-2.323541">
        <ele>59.0</ele>
        <time>2020-08-13T21:26:26Z</time>
      </trkpt>
      <trkpt lat="48.664815" lon="-2.324023">
        <ele>60.4</ele>
        <time>2020-08-13T21:26:28Z</time>
      </trkpt>
      <trkpt lat="48.66446" lon="-2.325075">
        <ele>59.2</ele>
        <time>2020-08-13T21:26:33Z</time>
      </trkpt>
      <trkpt lat="48.664326" lon="-2.32543">
        <ele>59.2</ele>
        <time>2020-08-13T21:26:34Z</time>
      </trkpt>
      <trkpt lat="48.664251" lon="-2.325586">
        <ele>59.2</ele>
        <time>2020-08-13T21:26:35Z</time>
      </trkpt>
      <trkpt lat="48.664024" lon="-2.325857">
        <ele>58.4</ele>
        <time>2020-08-13T21:26:37Z</time>
      </trkpt>
      <trkpt lat="48.663776" lon="-2.326005">
        <ele>58.4</ele>
        <time>2020-08-13T21:26:38Z</time>
      </trkpt>
      <trkpt lat="48.663659" lon="-2.326034">
        <ele>58.4</ele>
        <time>2020-08-13T21:26:39Z</time>
      </trkpt>
      <trkpt lat="48.663461" lon="-2.326034">
        <ele>58.4</ele>
        <time>2020-08-13T21:26:40Z</time>
      </trkpt>
      <trkpt lat="48.663281" lon="-2.325956">
        <ele>57.4</ele>
        <time>2020-08-13T21:26:41Z</time>
      </trkpt>
      <trkpt lat="48.662766" lon="-2.325631">
        <ele>56.8</ele>
        <time>2020-08-13T21:26:44Z</time>
      </trkpt>
      <trkpt lat="48.662633" lon="-2.32558">
        <ele>56.8</ele>
        <time>2020-08-13T21:26:45Z</time>
      </trkpt>
      <trkpt lat="48.662499" lon="-2.325577">
        <ele>55.2</ele>
        <time>2020-08-13T21:26:46Z</time>
      </trkpt>
      <trkpt lat="48.662291" lon="-2.325628">
        <ele>55.2</ele>
        <time>2020-08-13T21:26:47Z</time>
      </trkpt>
      <trkpt lat="48.661795" lon="-2.325924">
        <ele>55.6</ele>
        <time>2020-08-13T21:26:50Z</time>
      </trkpt>
      <trkpt lat="48.661525" lon="-2.32602">
        <ele>53.6</ele>
        <time>2020-08-13T21:26:52Z</time>
      </trkpt>
      <trkpt lat="48.659058" lon="-2.326294">
        <ele>49.0</ele>
        <time>2020-08-13T21:27:06Z</time>
      </trkpt>
      <trkpt lat="48.658771" lon="-2.326365">
        <ele>49.0</ele>
        <time>2020-08-13T21:27:08Z</time>
      </trkpt>
      <trkpt lat="48.657546" lon="-2.326943">
        <ele>49.8</ele>
        <time>2020-08-13T21:27:15Z</time>
      </trkpt>
      <trkpt lat="48.65731" lon="-2.327109">
        <ele>51.4</ele>
        <time>2020-08-13T21:27:17Z</time>
      </trkpt>
      <trkpt lat="48.656477" lon="-2.327877">
        <ele>53.6</ele>
        <time>2020-08-13T21:27:22Z</time>
      </trkpt>
      <trkpt lat="48.656252" lon="-2.328107">
        <ele>53.6</ele>
        <time>2020-08-13T21:27:24Z</time>
      </trkpt>
      <trkpt lat="48.65605" lon="-2.328369">
        <ele>53.0</ele>
        <time>2020-08-13T21:27:26Z</time>
      </trkpt>
      <trkpt lat="48.655985" lon="-2.328491">
        <ele>53.0</ele>
        <time>2020-08-13T21:27:26Z</time>
      </trkpt>
      <trkpt lat="48.655871" lon="-2.328767">
        <ele>53.0</ele>
        <time>2020-08-13T21:27:27Z</time>
      </trkpt>
      <trkpt lat="48.655785" lon="-2.329055">
        <ele>53.2</ele>
        <time>2020-08-13T21:27:29Z</time>
      </trkpt>
      <trkpt lat="48.655708" lon="-2.329496">
        <ele>52.2</ele>
        <time>2020-08-13T21:27:30Z</time>
      </trkpt>
      <trkpt lat="48.655512" lon="-2.330906">
        <ele>48.4</ele>
        <time>2020-08-13T21:27:36Z</time>
      </trkpt>
      <trkpt lat="48.655463" lon="-2.331079">
        <ele>48.4</ele>
        <time>2020-08-13T21:27:37Z</time>
      </trkpt>
      <trkpt lat="48.655337" lon="-2.331366">
        <ele>48.4</ele>
        <time>2020-08-13T21:27:38Z</time>
      </trkpt>
      <trkpt lat="48.655179" lon="-2.33158">
        <ele>48.4</ele>
        <time>2020-08-13T21:27:39Z</time>
      </trkpt>
      <trkpt lat="48.655026" lon="-2.331702">
        <ele>47.6</ele>
        <time>2020-08-13T21:27:40Z</time>
      </trkpt>
      <trkpt lat="48.654445" lon="-2.332006">
        <ele>47.4</ele>
        <time>2020-08-13T21:27:44Z</time>
      </trkpt>
      <trkpt lat="48.654314" lon="-2.332118">
        <ele>47.4</ele>
        <time>2020-08-13T21:27:45Z</time>
      </trkpt>
      <trkpt lat="48.654177" lon="-2.332288">
        <ele>47.4</ele>
        <time>2020-08-13T21:27:46Z</time>
      </trkpt>
      <trkpt lat="48.654085" lon="-2.332324">
        <ele>47.8</ele>
        <time>2020-08-13T21:27:46Z</time>
      </trkpt>
      <trkpt lat="48.653889" lon="-2.332334">
        <ele>47.8</ele>
        <time>2020-08-13T21:27:47Z</time>
      </trkpt>
      <trkpt lat="48.653752" lon="-2.332279">
        <ele>47.8</ele>
        <time>2020-08-13T21:27:48Z</time>
      </trkpt>
      <trkpt lat="48.653603" lon="-2.33215">
        <ele>47.8</ele>
        <time>2020-08-13T21:27:49Z</time>
      </trkpt>
      <trkpt lat="48.653327" lon="-2.331955">
        <ele>48.4</ele>
        <time>2020-08-13T21:27:51Z</time>
      </trkpt>
      <trkpt lat="48.652389" lon="-2.331395">
        <ele>49.2</ele>
        <time>2020-08-13T21:27:57Z</time>
      </trkpt>
      <trkpt lat="48.651531" lon="-2.330814">
        <ele>51.0</ele>
        <time>2020-08-13T21:28:02Z</time>
      </trkpt>
      <trkpt lat="48.651031" lon="-2.330396">
        <ele>51.0</ele>
        <time>2020-08-13T21:28:05Z</time>
      </trkpt>
      <trkpt lat="48.650426" lon="-2.329965">
        <ele>53.2</ele>
        <time>2020-08-13T21:28:09Z</time>
      </trkpt>
      <trkpt lat="48.650266" lon="-2.329795">
        <ele>53.2</ele>
        <time>2020-08-13T21:28:10Z</time>
      </trkpt>
      <trkpt lat="48.650093" lon="-2.32951">
        <ele>53.2</ele>
        <time>2020-08-13T21:28:12Z</time>
      </trkpt>
      <trkpt lat="48.649446" lon="-2.328777">
        <ele>54.8</ele>
        <time>2020-08-13T21:28:17Z</time>
      </trkpt>
      <trkpt lat="48.648756" lon="-2.327957">
        <ele>56.2</ele>
        <time>2020-08-13T21:28:22Z</time>
      </trkpt>
      <trkpt lat="48.648537" lon="-2.32766">
        <ele>56.2</ele>
        <time>2020-08-13T21:28:23Z</time>
      </trkpt>
      <trkpt lat="48.647829" lon="-2.326577">
        <ele>56.2</ele>
        <time>2020-08-13T21:28:29Z</time>
      </trkpt>
      <trkpt lat="48.647612" lon="-2.326313">
        <ele>56.2</ele>
        <time>2020-08-13T21:28:31Z</time>
      </trkpt>
      <trkpt lat="48.647079" lon="-2.325779">
        <ele>55.2</ele>
        <time>2020-08-13T21:28:35Z</time>
      </trkpt>
      <trkpt lat="48.646806" lon="-2.325601">
        <ele>55.2</ele>
        <time>2020-08-13T21:28:36Z</time>
      </trkpt>
      <trkpt lat="48.646286" lon="-2.32533">
        <ele>56.2</ele>
        <time>2020-08-13T21:28:39Z</time>
      </trkpt>
      <trkpt lat="48.646052" lon="-2.325249">
        <ele>56.2</ele>
        <time>2020-08-13T21:28:41Z</time>
      </trkpt>
      <trkpt lat="48.64542" lon="-2.325213">
        <ele>57.0</ele>
        <time>2020-08-13T21:28:45Z</time>
      </trkpt>
      <trkpt lat="48.645097" lon="-2.32516">
        <ele>57.0</ele>
        <time>2020-08-13T21:28:46Z</time>
      </trkpt>
      <trkpt lat="48.643928" lon="-2.324871">
        <ele>60.2</ele>
        <time>2020-08-13T21:28:53Z</time>
      </trkpt>
      <trkpt lat="48.643558" lon="-2.324744">
        <ele>60.2</ele>
        <time>2020-08-13T21:28:56Z</time>
      </trkpt>
      <trkpt lat="48.643317" lon="-2.324621">
        <ele>62.4</ele>
        <time>2020-08-13T21:28:57Z</time>
      </trkpt>
      <trkpt lat="48.64141" lon="-2.323505">
        <ele>64.4</ele>
        <time>2020-08-13T21:29:09Z</time>
      </trkpt>
      <trkpt lat="48.641102" lon="-2.323352">
        <ele>64.4</ele>
        <time>2020-08-13T21:29:11Z</time>
      </trkpt>
      <trkpt lat="48.640918" lon="-2.323302">
        <ele>65.4</ele>
        <time>2020-08-13T21:29:12Z</time>
      </trkpt>
      <trkpt lat="48.640167" lon="-2.323348">
        <ele>65.6</ele>
        <time>2020-08-13T21:29:16Z</time>
      </trkpt>
      <trkpt lat="48.639734" lon="-2.323277">
        <ele>68.2</ele>
        <time>2020-08-13T21:29:19Z</time>
      </trkpt>
      <trkpt lat="48.637366" lon="-2.32238">
        <ele>65.6</ele>
        <time>2020-08-13T21:29:33Z</time>
      </trkpt>
      <trkpt lat="48.637189" lon="-2.322325">
        <ele>65.6</ele>
        <time>2020-08-13T21:29:34Z</time>
      </trkpt>
      <trkpt lat="48.636924" lon="-2.322307">
        <ele>65.6</ele>
        <time>2020-08-13T21:29:35Z</time>
      </trkpt>
      <trkpt lat="48.63682" lon="-2.322324">
        <ele>65.6</ele>
        <time>2020-08-13T21:29:36Z</time>
      </trkpt>
      <trkpt lat="48.636694" lon="-2.322037">
        <ele>65.6</ele>
        <time>2020-08-13T21:29:38Z</time>
      </trkpt>
      <trkpt lat="48.636546" lon="-2.321769">
        <ele>63.6</ele>
        <time>2020-08-13T21:29:40Z</time>
      </trkpt>
      <trkpt lat="48.63631" lon="-2.321517">
        <ele>63.8</ele>
        <time>2020-08-13T21:29:42Z</time>
      </trkpt>
      <trkpt lat="48.636155" lon="-2.321321">
        <ele>63.8</ele>
        <time>2020-08-13T21:29:44Z</time>
      </trkpt>
      <trkpt lat="48.635933" lon="-2.320954">
        <ele>63.8</ele>
        <time>2020-08-13T21:29:47Z</time>
      </trkpt>
      <trkpt lat="48.63566" lon="-2.320647">
        <ele>59.0</ele>
        <time>2020-08-13T21:29:50Z</time>
      </trkpt>
      <trkpt lat="48.635421" lon="-2.320276">
        <ele>59.0</ele>
        <time>2020-08-13T21:29:53Z</time>
      </trkpt>
      <trkpt lat="48.635351" lon="-2.320232">
        <ele>59.0</ele>
        <time>2020-08-13T21:29:53Z</time>
      </trkpt>
      <trkpt lat="48.635287" lon="-2.320237">
        <ele>59.0</ele>
        <time>2020-08-13T21:29:54Z</time>
      </trkpt>
      <trkpt lat="48.63523" lon="-2.320269">
        <ele>59.0</ele>
        <time>2020-08-13T21:29:54Z</time>
      </trkpt>
      <trkpt lat="48.63495" lon="-2.320556">
        <ele>54.0</ele>
        <time>2020-08-13T21:29:57Z</time>
      </trkpt>
      <trkpt lat="48.634831" lon="-2.320654">
        <ele>54.0</ele>
        <time>2020-08-13T21:29:58Z</time>
      </trkpt>
      <trkpt lat="48.634201" lon="-2.321085">
        <ele>57.0</ele>
        <time>2020-08-13T21:30:04Z</time>
      </trkpt>
      <trkpt lat="48.633963" lon="-2.321116">
        <ele>52.0</ele>
        <time>2020-08-13T21:30:06Z</time>
      </trkpt>
      <trkpt lat="48.633823" lon="-2.321054">
        <ele>52.0</ele>
        <time>2020-08-13T21:30:07Z</time>
      </trkpt>
      <trkpt lat="48.633569" lon="-2.320895">
        <ele>52.0</ele>
        <time>2020-08-13T21:30:10Z</time>
      </trkpt>
      <trkpt lat="48.633425" lon="-2.320836">
        <ele>52.0</ele>
        <time>2020-08-13T21:30:11Z</time>
      </trkpt>
      <trkpt lat="48.632623" lon="-2.320927">
        <ele>45.0</ele>
        <time>2020-08-13T21:30:18Z</time>
      </trkpt>
      <trkpt lat="48.632272" lon="-2.321151">
        <ele>36.8</ele>
        <time>2020-08-13T21:30:21Z</time>
      </trkpt>
      <trkpt lat="48.631571" lon="-2.321737">
        <ele>33.6</ele>
        <time>2020-08-13T21:30:27Z</time>
      </trkpt>
      <trkpt lat="48.631052" lon="-2.322294">
        <ele>33.6</ele>
        <time>2020-08-13T21:30:33Z</time>
      </trkpt>
      <trkpt lat="48.630987" lon="-2.322339">
        <ele>33.6</ele>
        <time>2020-08-13T21:30:33Z</time>
      </trkpt>
      <trkpt lat="48.630841" lon="-2.322376">
        <ele>33.6</ele>
        <time>2020-08-13T21:30:35Z</time>
      </trkpt>
      <trkpt lat="48.630686" lon="-2.32234">
        <ele>33.6</ele>
        <time>2020-08-13T21:30:36Z</time>
      </trkpt>
      <trkpt lat="48.630618" lon="-2.322298">
        <ele>33.6</ele>
        <time>2020-08-13T21:30:37Z</time>
      </trkpt>
      <trkpt lat="48.630541" lon="-2.322211">
        <ele>33.6</ele>
        <time>2020-08-13T21:30:37Z</time>
      </trkpt>
      <trkpt lat="48.630324" lon="-2.321943">
        <ele>33.6</ele>
        <time>2020-08-13T21:30:40Z</time>
      </trkpt>
      <trkpt lat="48.629909" lon="-2.321377">
        <ele>23.6</ele>
        <time>2020-08-13T21:30:44Z</time>
      </trkpt>
      <trkpt lat="48.629702" lon="-2.320968">
        <ele>23.6</ele>
        <time>2020-08-13T21:30:47Z</time>
      </trkpt>
      <trkpt lat="48.629634" lon="-2.320894">
        <ele>23.6</ele>
        <time>2020-08-13T21:30:48Z</time>
      </trkpt>
      <trkpt lat="48.629259" lon="-2.32067">
        <ele>17.2</ele>
        <time>2020-08-13T21:30:51Z</time>
      </trkpt>
      <trkpt lat="48.628989" lon="-2.320546">
        <ele>14.25</ele>
        <time>2020-08-13T21:30:54Z</time>
      </trkpt>
      <trkpt lat="48.628917" lon="-2.320534">
        <ele>14.25</ele>
        <time>2020-08-13T21:30:54Z</time>
      </trkpt>
      <trkpt lat="48.628842" lon="-2.320568">
        <ele>14.25</ele>
        <time>2020-08-13T21:30:55Z</time>
      </trkpt>
      <trkpt lat="48.628745" lon="-2.320689">
        <ele>14.25</ele>
        <time>2020-08-13T21:30:56Z</time>
      </trkpt>
      <trkpt lat="48.628698" lon="-2.320804">
        <ele>14.25</ele>
        <time>2020-08-13T21:30:57Z</time>
      </trkpt>
      <trkpt lat="48.62866" lon="-2.320933">
        <ele>16.5</ele>
        <time>2020-08-13T21:30:58Z</time>
      </trkpt>
      <trkpt lat="48.628594" lon="-2.321308">
        <ele>16.5</ele>
        <time>2020-08-13T21:31:00Z</time>
      </trkpt>
      <trkpt lat="48.628584" lon="-2.32143">
        <ele>16.5</ele>
        <time>2020-08-13T21:31:00Z</time>
      </trkpt>
      <trkpt lat="48.628592" lon="-2.321557">
        <ele>16.5</ele>
        <time>2020-08-13T21:31:01Z</time>
      </trkpt>
      <trkpt lat="48.628672" lon="-2.321969">
        <ele>19.25</ele>
        <time>2020-08-13T21:31:04Z</time>
      </trkpt>
      <trkpt lat="48.628656" lon="-2.322193">
        <ele>19.25</ele>
        <time>2020-08-13T21:31:05Z</time>
      </trkpt>
      <trkpt lat="48.62843" lon="-2.322907">
        <ele>24.0</ele>
        <time>2020-08-13T21:31:09Z</time>
      </trkpt>
      <trkpt lat="48.627854" lon="-2.32501">
        <ele>15.2</ele>
        <time>2020-08-13T21:31:22Z</time>
      </trkpt>
      <trkpt lat="48.627772" lon="-2.325267">
        <ele>15.2</ele>
        <time>2020-08-13T21:31:23Z</time>
      </trkpt>
      <trkpt lat="48.627706" lon="-2.325409">
        <ele>15.2</ele>
        <time>2020-08-13T21:31:24Z</time>
      </trkpt>
      <trkpt lat="48.627329" lon="-2.325972">
        <ele>15.6</ele>
        <time>2020-08-13T21:31:29Z</time>
      </trkpt>
      <trkpt lat="48.627206" lon="-2.326221">
        <ele>15.6</ele>
        <time>2020-08-13T21:31:30Z</time>
      </trkpt>
      <trkpt lat="48.627122" lon="-2.326463">
        <ele>15.6</ele>
        <time>2020-08-13T21:31:32Z</time>
      </trkpt>
      <trkpt lat="48.627011" lon="-2.326667">
        <ele>25.6</ele>
        <time>2020-08-13T21:31:34Z</time>
      </trkpt>
      <trkpt lat="48.626957" lon="-2.326713">
        <ele>25.6</ele>
        <time>2020-08-13T21:31:34Z</time>
      </trkpt>
      <trkpt lat="48.62658" lon="-2.326832">
        <ele>11.6</ele>
        <time>2020-08-13T21:31:38Z</time>
      </trkpt>
      <trkpt lat="48.626451" lon="-2.326929">
        <ele>11.6</ele>
        <time>2020-08-13T21:31:39Z</time>
      </trkpt>
      <trkpt lat="48.626392" lon="-2.327018">
        <ele>11.6</ele>
        <time>2020-08-13T21:31:39Z</time>
      </trkpt>
      <trkpt lat="48.626031" lon="-2.328115">
        <ele>20.0</ele>
        <time>2020-08-13T21:31:46Z</time>
      </trkpt>
      <trkpt lat="48.625963" lon="-2.328227">
        <ele>20.0</ele>
        <time>2020-08-13T21:31:47Z</time>
      </trkpt>
      <trkpt lat="48.625659" lon="-2.328532">
        <ele>14.0</ele>
        <time>2020-08-13T21:31:50Z</time>
      </trkpt>
      <trkpt lat="48.625356" lon="-2.329134">
        <ele>14.0</ele>
        <time>2020-08-13T21:31:54Z</time>
      </trkpt>
      <trkpt lat="48.62415" lon="-2.331022">
        <ele>11.2</ele>
        <time>2020-08-13T21:32:09Z</time>
      </trkpt>
      <trkpt lat="48.623974" lon="-2.33135">
        <ele>11.2</ele>
        <time>2020-08-13T21:32:11Z</time>
      </trkpt>
      <trkpt lat="48.623826" lon="-2.331654">
        <ele>11.2</ele>
        <time>2020-08-13T21:32:13Z</time>
      </trkpt>
      <trkpt lat="48.623105" lon="-2.333447">
        <ele>19.2</ele>
        <time>2020-08-13T21:32:25Z</time>
      </trkpt>
      <trkpt lat="48.622925" lon="-2.33387">
        <ele>19.2</ele>
        <time>2020-08-13T21:32:28Z</time>
      </trkpt>
      <trkpt lat="48.622807" lon="-2.3341">
        <ele>19.2</ele>
        <time>2020-08-13T21:32:29Z</time>
      </trkpt>
      <trkpt lat="48.622583" lon="-2.334419">
        <ele>32.8</ele>
        <time>2020-08-13T21:32:32Z</time>
      </trkpt>
      <trkpt lat="48.622399" lon="-2.334565">
        <ele>14.8</ele>
        <time>2020-08-13T21:32:34Z</time>
      </trkpt>
      <trkpt lat="48.622309" lon="-2.334604">
        <ele>14.8</ele>
        <time>2020-08-13T21:32:35Z</time>
      </trkpt>
      <trkpt lat="48.621909" lon="-2.334681">
        <ele>14.8</ele>
        <time>2020-08-13T21:32:38Z</time>
      </trkpt>
      <trkpt lat="48.621835" lon="-2.334721">
        <ele>14.8</ele>
        <time>2020-08-13T21:32:39Z</time>
      </trkpt>
      <trkpt lat="48.621778" lon="-2.334779">
        <ele>14.8</ele>
        <time>2020-08-13T21:32:40Z</time>
      </trkpt>
      <trkpt lat="48.621395" lon="-2.335414">
        <ele>9.0</ele>
        <time>2020-08-13T21:32:44Z</time>
      </trkpt>
      <trkpt lat="48.621252" lon="-2.335734">
        <ele>9.0</ele>
        <time>2020-08-13T21:32:47Z</time>
      </trkpt>
      <trkpt lat="48.621165" lon="-2.336074">
        <ele>15.0</ele>
        <time>2020-08-13T21:32:49Z</time>
      </trkpt>
      <trkpt lat="48.621124" lon="-2.336305">
        <ele>15.0</ele>
        <time>2020-08-13T21:32:50Z</time>
      </trkpt>
      <trkpt lat="48.62103" lon="-2.336635">
        <ele>15.0</ele>
        <time>2020-08-13T21:32:52Z</time>
      </trkpt>
      <trkpt lat="48.620665" lon="-2.337461">
        <ele>9.2</ele>
        <time>2020-08-13T21:32:57Z</time>
      </trkpt>
      <trkpt lat="48.620357" lon="-2.338106">
        <ele>13.0</ele>
        <time>2020-08-13T21:33:02Z</time>
      </trkpt>
      <trkpt lat="48.620218" lon="-2.338345">
        <ele>18.6</ele>
        <time>2020-08-13T21:33:05Z</time>
      </trkpt>
      <trkpt lat="48.618923" lon="-2.336708">
        <ele>7.4</ele>
        <time>2020-08-13T21:33:19Z</time>
      </trkpt>
      <trkpt lat="48.618749" lon="-2.336561">
        <ele>7.4</ele>
        <time>2020-08-13T21:33:20Z</time>
      </trkpt>
      <trkpt lat="48.618637" lon="-2.336501">
        <ele>7.4</ele>
        <time>2020-08-13T21:33:21Z</time>
      </trkpt>
      <trkpt lat="48.618498" lon="-2.336472">
        <ele>7.4</ele>
        <time>2020-08-13T21:33:22Z</time>
      </trkpt>
      <trkpt lat="48.618223" lon="-2.336469">
        <ele>11.6</ele>
        <time>2020-08-13T21:33:25Z</time>
      </trkpt>
      <trkpt lat="48.617911" lon="-2.336562">
        <ele>11.6</ele>
        <time>2020-08-13T21:33:27Z</time>
      </trkpt>
      <trkpt lat="48.617695" lon="-2.336677">
        <ele>9.6</ele>
        <time>2020-08-13T21:33:29Z</time>
      </trkpt>
      <trkpt lat="48.617498" lon="-2.336802">
        <ele>14.8</ele>
        <time>2020-08-13T21:33:31Z</time>
      </trkpt>
      <trkpt lat="48.616512" lon="-2.337606">
        <ele>18.2</ele>
        <time>2020-08-13T21:33:40Z</time>
      </trkpt>
      <trkpt lat="48.615938" lon="-2.337881">
        <ele>18.2</ele>
        <time>2020-08-13T21:33:44Z</time>
      </trkpt>
      <trkpt lat="48.615359" lon="-2.33804">
        <ele>24.0</ele>
        <time>2020-08-13T21:33:49Z</time>
      </trkpt>
      <trkpt lat="48.615044" lon="-2.338037">
        <ele>24.0</ele>
        <time>2020-08-13T21:33:52Z</time>
      </trkpt>
      <trkpt lat="48.614906" lon="-2.338006">
        <ele>27.2</ele>
        <time>2020-08-13T21:33:53Z</time>
      </trkpt>
      <trkpt lat="48.614682" lon="-2.33789">
        <ele>27.2</ele>
        <time>2020-08-13T21:33:55Z</time>
      </trkpt>
      <trkpt lat="48.61451" lon="-2.337699">
        <ele>27.2</ele>
        <time>2020-08-13T21:33:56Z</time>
      </trkpt>
      <trkpt lat="48.614449" lon="-2.337602">
        <ele>27.2</ele>
        <time>2020-08-13T21:33:57Z</time>
      </trkpt>
      <trkpt lat="48.614389" lon="-2.337453">
        <ele>30.0</ele>
        <time>2020-08-13T21:33:58Z</time>
      </trkpt>
      <trkpt lat="48.614278" lon="-2.337045">
        <ele>30.0</ele>
        <time>2020-08-13T21:34:00Z</time>
      </trkpt>
      <trkpt lat="48.614255" lon="-2.336878">
        <ele>30.0</ele>
        <time>2020-08-13T21:34:01Z</time>
      </trkpt>
      <trkpt lat="48.614245" lon="-2.336425">
        <ele>33.2</ele>
        <time>2020-08-13T21:34:04Z</time>
      </trkpt>
      <trkpt lat="48.614285" lon="-2.335871">
        <ele>33.2</ele>
        <time>2020-08-13T21:34:07Z</time>
      </trkpt>
      <trkpt lat="48.614724" lon="-2.332182">
        <ele>41.4</ele>
        <time>2020-08-13T21:34:26Z</time>
      </trkpt>
      <trkpt lat="48.614746" lon="-2.331834">
        <ele>41.4</ele>
        <time>2020-08-13T21:34:28Z</time>
      </trkpt>
      <trkpt lat="48.61475" lon="-2.331395">
        <ele>39.6</ele>
        <time>2020-08-13T21:34:30Z</time>
      </trkpt>
      <trkpt lat="48.614726" lon="-2.331019">
        <ele>39.6</ele>
        <time>2020-08-13T21:34:32Z</time>
      </trkpt>
      <trkpt lat="48.614637" lon="-2.330488">
        <ele>36.6</ele>
        <time>2020-08-13T21:34:35Z</time>
      </trkpt>
      <trkpt lat="48.614569" lon="-2.3302">
        <ele>36.6</ele>
        <time>2020-08-13T21:34:37Z</time>
      </trkpt>
      <trkpt lat="48.613575" lon="-2.327078">
        <ele>22.2</ele>
        <time>2020-08-13T21:34:55Z</time>
      </trkpt>
      <trkpt lat="48.613457" lon="-2.326609">
        <ele>20.6</ele>
        <time>2020-08-13T21:34:58Z</time>
      </trkpt>
      <trkpt lat="48.613394" lon="-2.326185">
        <ele>20.6</ele>
        <time>2020-08-13T21:35:00Z</time>
      </trkpt>
      <trkpt lat="48.61337" lon="-2.325909">
        <ele>20.6</ele>
        <time>2020-08-13T21:35:01Z</time>
      </trkpt>
      <trkpt lat="48.61337" lon="-2.32519">
        <ele>19.4</ele>
        <time>2020-08-13T21:35:05Z</time>
      </trkpt>
      <trkpt lat="48.613418" lon="-2.322383">
        <ele>10.6</ele>
        <time>2020-08-13T21:35:20Z</time>
      </trkpt>
      <trkpt lat="48.613459" lon="-2.320809">
        <ele>6.8</ele>
        <time>2020-08-13T21:35:28Z</time>
      </trkpt>
      <trkpt lat="48.613419" lon="-2.320298">
        <ele>6.8</ele>
        <time>2020-08-13T21:35:31Z</time>
      </trkpt>
      <trkpt lat="48.613344" lon="-2.320024">
        <ele>6.8</ele>
        <time>2020-08-13T21:35:33Z</time>
      </trkpt>
      <trkpt lat="48.613217" lon="-2.319763">
        <ele>2.2</ele>
        <time>2020-08-13T21:35:34Z</time>
      </trkpt>
      <trkpt lat="48.613124" lon="-2.319637">
        <ele>2.2</ele>
        <time>2020-08-13T21:35:35Z</time>
      </trkpt>
      <trkpt lat="48.610562" lon="-2.316965">
        <ele>7.6</ele>
        <time>2020-08-13T21:36:00Z</time>
      </trkpt>
      <trkpt lat="48.61028" lon="-2.316633">
        <ele>7.2</ele>
        <time>2020-08-13T21:36:03Z</time>
      </trkpt>
      <trkpt lat="48.610139" lon="-2.316389">
        <ele>7.2</ele>
        <time>2020-08-13T21:36:05Z</time>
      </trkpt>
      <trkpt lat="48.610025" lon="-2.316099">
        <ele>7.2</ele>
        <time>2020-08-13T21:36:06Z</time>
      </trkpt>
      <trkpt lat="48.609958" lon="-2.315845">
        <ele>9.8</ele>
        <time>2020-08-13T21:36:08Z</time>
      </trkpt>
      <trkpt lat="48.609705" lon="-2.314445">
        <ele>12.2</ele>
        <time>2020-08-13T21:36:15Z</time>
      </trkpt>
      <trkpt lat="48.608758" lon="-2.309885">
        <ele>39.4</ele>
        <time>2020-08-13T21:36:41Z</time>
      </trkpt>
      <trkpt lat="48.608677" lon="-2.309588">
        <ele>39.4</ele>
        <time>2020-08-13T21:36:42Z</time>
      </trkpt>
      <trkpt lat="48.608489" lon="-2.309055">
        <ele>42.6</ele>
        <time>2020-08-13T21:36:45Z</time>
      </trkpt>
      <trkpt lat="48.606302" lon="-2.304037">
        <ele>47.0</ele>
        <time>2020-08-13T21:37:17Z</time>
      </trkpt>
      <trkpt lat="48.605667" lon="-2.302493">
        <ele>41.4</ele>
        <time>2020-08-13T21:37:27Z</time>
      </trkpt>
      <trkpt lat="48.605492" lon="-2.302126">
        <ele>41.4</ele>
        <time>2020-08-13T21:37:29Z</time>
      </trkpt>
      <trkpt lat="48.604415" lon="-2.300063">
        <ele>36.0</ele>
        <time>2020-08-13T21:37:43Z</time>
      </trkpt>
      <trkpt lat="48.604222" lon="-2.299745">
        <ele>34.0</ele>
        <time>2020-08-13T21:37:45Z</time>
      </trkpt>
      <trkpt lat="48.604107" lon="-2.299601">
        <ele>34.2</ele>
        <time>2020-08-13T21:37:46Z</time>
      </trkpt>
      <trkpt lat="48.603572" lon="-2.299108">
        <ele>33.8</ele>
        <time>2020-08-13T21:37:51Z</time>
      </trkpt>
      <trkpt lat="48.601649" lon="-2.297417">
        <ele>42.0</ele>
        <time>2020-08-13T21:38:09Z</time>
      </trkpt>
      <trkpt lat="48.601443" lon="-2.297124">
        <ele>42.0</ele>
        <time>2020-08-13T21:38:11Z</time>
      </trkpt>
      <trkpt lat="48.600545" lon="-2.29555">
        <ele>47.0</ele>
        <time>2020-08-13T21:38:22Z</time>
      </trkpt>
      <trkpt lat="48.600371" lon="-2.295312">
        <ele>47.0</ele>
        <time>2020-08-13T21:38:24Z</time>
      </trkpt>
      <trkpt lat="48.59991" lon="-2.294887">
        <ele>51.0</ele>
        <time>2020-08-13T21:38:28Z</time>
      </trkpt>
      <trkpt lat="48.599443" lon="-2.294564">
        <ele>51.0</ele>
        <time>2020-08-13T21:38:32Z</time>
      </trkpt>
      <trkpt lat="48.598564" lon="-2.294033">
        <ele>56.2</ele>
        <time>2020-08-13T21:38:40Z</time>
      </trkpt>
      <trkpt lat="48.59816" lon="-2.293758">
        <ele>59.0</ele>
        <time>2020-08-13T21:38:43Z</time>
      </trkpt>
      <trkpt lat="48.597642" lon="-2.293257">
        <ele>62.0</ele>
        <time>2020-08-13T21:38:48Z</time>
      </trkpt>
      <trkpt lat="48.597557" lon="-2.293232">
        <ele>62.0</ele>
        <time>2020-08-13T21:38:49Z</time>
      </trkpt>
      <trkpt lat="48.597304" lon="-2.293093">
        <ele>64.0</ele>
        <time>2020-08-13T21:38:52Z</time>
      </trkpt>
      <trkpt lat="48.59726" lon="-2.293136">
        <ele>64.0</ele>
        <time>2020-08-13T21:38:52Z</time>
      </trkpt>
      <trkpt lat="48.59721" lon="-2.29314">
        <ele>64.0</ele>
        <time>2020-08-13T21:38:53Z</time>
      </trkpt>
      <trkpt lat="48.597095" lon="-2.293081">
        <ele>64.0</ele>
        <time>2020-08-13T21:38:54Z</time>
      </trkpt>
      <trkpt lat="48.596634" lon="-2.292743">
        <ele>63.6</ele>
        <time>2020-08-13T21:39:01Z</time>
      </trkpt>
      <trkpt lat="48.596293" lon="-2.292544">
        <ele>63.6</ele>
        <time>2020-08-13T21:39:06Z</time>
      </trkpt>
      <trkpt lat="48.59617" lon="-2.292433">
        <ele>66.8</ele>
        <time>2020-08-13T21:39:08Z</time>
      </trkpt>
      <trkpt lat="48.596151" lon="-2.292309">
        <ele>66.8</ele>
        <time>2020-08-13T21:39:09Z</time>
      </trkpt>
      <trkpt lat="48.596157" lon="-2.292158">
        <ele>66.8</ele>
        <time>2020-08-13T21:39:10Z</time>
      </trkpt>
      <trkpt lat="48.596181" lon="-2.291961">
        <ele>66.8</ele>
        <time>2020-08-13T21:39:12Z</time>
      </trkpt>
      <trkpt lat="48.596207" lon="-2.291904">
        <ele>66.8</ele>
        <time>2020-08-13T21:39:13Z</time>
      </trkpt>
      <trkpt lat="48.596368" lon="-2.291739">
        <ele>66.8</ele>
        <time>2020-08-13T21:39:15Z</time>
      </trkpt>
      <trkpt lat="48.596753" lon="-2.291418">
        <ele>66.8</ele>
        <time>2020-08-13T21:39:21Z</time>
      </trkpt>
      <trkpt lat="48.596802" lon="-2.291124">
        <ele>66.8</ele>
        <time>2020-08-13T21:39:22Z</time>
      </trkpt>
      <trkpt lat="48.596872" lon="-2.290923">
        <ele>66.8</ele>
        <time>2020-08-13T21:39:23Z</time>
      </trkpt>
      <trkpt lat="48.597079" lon="-2.289676">
        <ele>66.8</ele>
        <time>2020-08-13T21:39:29Z</time>
      </trkpt>
      <trkpt lat="48.597087" lon="-2.289552">
        <ele>66.8</ele>
        <time>2020-08-13T21:39:29Z</time>
      </trkpt>
      <trkpt lat="48.597059" lon="-2.28887">
        <ele>67.2</ele>
        <time>2020-08-13T21:39:32Z</time>
      </trkpt>
      <trkpt lat="48.597057" lon="-2.288426">
        <ele>67.2</ele>
        <time>2020-08-13T21:39:34Z</time>
      </trkpt>
      <trkpt lat="48.597073" lon="-2.288126">
        <ele>66.4</ele>
        <time>2020-08-13T21:39:35Z</time>
      </trkpt>
      <trkpt lat="48.597137" lon="-2.287744">
        <ele>66.4</ele>
        <time>2020-08-13T21:39:36Z</time>
      </trkpt>
      <trkpt lat="48.597269" lon="-2.287305">
        <ele>65.6</ele>
        <time>2020-08-13T21:39:38Z</time>
      </trkpt>
      <trkpt lat="48.597527" lon="-2.286573">
        <ele>61.6</ele>
        <time>2020-08-13T21:39:42Z</time>
      </trkpt>
      <trkpt lat="48.597625" lon="-2.286251">
        <ele>61.6</ele>
        <time>2020-08-13T21:39:43Z</time>
      </trkpt>
      <trkpt lat="48.59769" lon="-2.285965">
        <ele>61.6</ele>
        <time>2020-08-13T21:39:44Z</time>
      </trkpt>
      <trkpt lat="48.597748" lon="-2.285608">
        <ele>61.6</ele>
        <time>2020-08-13T21:39:46Z</time>
      </trkpt>
      <trkpt lat="48.597771" lon="-2.285241">
        <ele>61.6</ele>
        <time>2020-08-13T21:39:47Z</time>
      </trkpt>
      <trkpt lat="48.597759" lon="-2.284933">
        <ele>61.4</ele>
        <time>2020-08-13T21:39:49Z</time>
      </trkpt>
      <trkpt lat="48.597715" lon="-2.284643">
        <ele>61.4</ele>
        <time>2020-08-13T21:39:50Z</time>
      </trkpt>
      <trkpt lat="48.597594" lon="-2.284268">
        <ele>61.4</ele>
        <time>2020-08-13T21:39:52Z</time>
      </trkpt>
      <trkpt lat="48.597383" lon="-2.283855">
        <ele>63.6</ele>
        <time>2020-08-13T21:39:54Z</time>
      </trkpt>
      <trkpt lat="48.597316" lon="-2.28368">
        <ele>63.6</ele>
        <time>2020-08-13T21:39:54Z</time>
      </trkpt>
      <trkpt lat="48.597244" lon="-2.283423">
        <ele>63.6</ele>
        <time>2020-08-13T21:39:56Z</time>
      </trkpt>
      <trkpt lat="48.5972" lon="-2.283011">
        <ele>62.6</ele>
        <time>2020-08-13T21:39:57Z</time>
      </trkpt>
      <trkpt lat="48.597121" lon="-2.281903">
        <ele>61.6</ele>
        <time>2020-08-13T21:40:02Z</time>
      </trkpt>
      <trkpt lat="48.597054" lon="-2.281477">
        <ele>61.8</ele>
        <time>2020-08-13T21:40:04Z</time>
      </trkpt>
      <trkpt lat="48.597008" lon="-2.2813">
        <ele>61.8</ele>
        <time>2020-08-13T21:40:04Z</time>
      </trkpt>
      <trkpt lat="48.596949" lon="-2.28113">
        <ele>61.8</ele>
        <time>2020-08-13T21:40:05Z</time>
      </trkpt>
      <trkpt lat="48.596577" lon="-2.280327">
        <ele>63.4</ele>
        <time>2020-08-13T21:40:09Z</time>
      </trkpt>
      <trkpt lat="48.596438" lon="-2.279862">
        <ele>63.4</ele>
        <time>2020-08-13T21:40:11Z</time>
      </trkpt>
      <trkpt lat="48.596335" lon="-2.279321">
        <ele>63.4</ele>
        <time>2020-08-13T21:40:13Z</time>
      </trkpt>
      <trkpt lat="48.596286" lon="-2.278936">
        <ele>63.2</ele>
        <time>2020-08-13T21:40:15Z</time>
      </trkpt>
      <trkpt lat="48.596128" lon="-2.277254">
        <ele>61.0</ele>
        <time>2020-08-13T21:40:22Z</time>
      </trkpt>
      <trkpt lat="48.596048" lon="-2.276737">
        <ele>61.0</ele>
        <time>2020-08-13T21:40:24Z</time>
      </trkpt>
      <trkpt lat="48.595986" lon="-2.276496">
        <ele>60.8</ele>
        <time>2020-08-13T21:40:25Z</time>
      </trkpt>
      <trkpt lat="48.59574" lon="-2.275755">
        <ele>62.0</ele>
        <time>2020-08-13T21:40:28Z</time>
      </trkpt>
      <trkpt lat="48.595557" lon="-2.275083">
        <ele>62.0</ele>
        <time>2020-08-13T21:40:31Z</time>
      </trkpt>
      <trkpt lat="48.595189" lon="-2.273453">
        <ele>61.4</ele>
        <time>2020-08-13T21:40:38Z</time>
      </trkpt>
      <trkpt lat="48.595105" lon="-2.273028">
        <ele>61.0</ele>
        <time>2020-08-13T21:40:40Z</time>
      </trkpt>
      <trkpt lat="48.595054" lon="-2.272571">
        <ele>61.0</ele>
        <time>2020-08-13T21:40:42Z</time>
      </trkpt>
      <trkpt lat="48.595135" lon="-2.271187">
        <ele>60.6</ele>
        <time>2020-08-13T21:40:48Z</time>
      </trkpt>
      <trkpt lat="48.595117" lon="-2.270797">
        <ele>61.0</ele>
        <time>2020-08-13T21:40:49Z</time>
      </trkpt>
      <trkpt lat="48.594797" lon="-2.269006">
        <ele>62.4</ele>
        <time>2020-08-13T21:40:57Z</time>
      </trkpt>
      <trkpt lat="48.594753" lon="-2.268664">
        <ele>62.4</ele>
        <time>2020-08-13T21:40:58Z</time>
      </trkpt>
      <trkpt lat="48.594655" lon="-2.267428">
        <ele>63.8</ele>
        <time>2020-08-13T21:41:03Z</time>
      </trkpt>
      <trkpt lat="48.594596" lon="-2.266881">
        <ele>63.8</ele>
        <time>2020-08-13T21:41:05Z</time>
      </trkpt>
      <trkpt lat="48.594206" lon="-2.264021">
        <ele>69.2</ele>
        <time>2020-08-13T21:41:17Z</time>
      </trkpt>
      <trkpt lat="48.594186" lon="-2.263758">
        <ele>69.2</ele>
        <time>2020-08-13T21:41:18Z</time>
      </trkpt>
      <trkpt lat="48.594169" lon="-2.263438">
        <ele>69.2</ele>
        <time>2020-08-13T21:41:20Z</time>
      </trkpt>
      <trkpt lat="48.594143" lon="-2.262026">
        <ele>71.8</ele>
        <time>2020-08-13T21:41:25Z</time>
      </trkpt>
      <trkpt lat="48.594076" lon="-2.261132">
        <ele>71.6</ele>
        <time>2020-08-13T21:41:29Z</time>
      </trkpt>
      <trkpt lat="48.593874" lon="-2.258869">
        <ele>69.4</ele>
        <time>2020-08-13T21:41:38Z</time>
      </trkpt>
      <trkpt lat="48.593832" lon="-2.258228">
        <ele>69.4</ele>
        <time>2020-08-13T21:41:41Z</time>
      </trkpt>
      <trkpt lat="48.593803" lon="-2.257531">
        <ele>69.4</ele>
        <time>2020-08-13T21:41:44Z</time>
      </trkpt>
      <trkpt lat="48.593789" lon="-2.256282">
        <ele>69.8</ele>
        <time>2020-08-13T21:41:49Z</time>
      </trkpt>
      <trkpt lat="48.593802" lon="-2.255034">
        <ele>70.0</ele>
        <time>2020-08-13T21:41:54Z</time>
      </trkpt>
      <trkpt lat="48.593792" lon="-2.254364">
        <ele>70.0</ele>
        <time>2020-08-13T21:41:57Z</time>
      </trkpt>
      <trkpt lat="48.593746" lon="-2.253598">
        <ele>70.4</ele>
        <time>2020-08-13T21:42:00Z</time>
      </trkpt>
      <trkpt lat="48.593574" lon="-2.251621">
        <ele>69.8</ele>
        <time>2020-08-13T21:42:08Z</time>
      </trkpt>
      <trkpt lat="48.593515" lon="-2.251191">
        <ele>69.8</ele>
        <time>2020-08-13T21:42:10Z</time>
      </trkpt>
      <trkpt lat="48.59343" lon="-2.25075">
        <ele>69.4</ele>
        <time>2020-08-13T21:42:11Z</time>
      </trkpt>
      <trkpt lat="48.593315" lon="-2.250286">
        <ele>69.2</ele>
        <time>2020-08-13T21:42:13Z</time>
      </trkpt>
      <trkpt lat="48.59318" lon="-2.249846">
        <ele>69.0</ele>
        <time>2020-08-13T21:42:15Z</time>
      </trkpt>
      <trkpt lat="48.593015" lon="-2.24939">
        <ele>69.0</ele>
        <time>2020-08-13T21:42:17Z</time>
      </trkpt>
      <trkpt lat="48.592856" lon="-2.249025">
        <ele>69.0</ele>
        <time>2020-08-13T21:42:19Z</time>
      </trkpt>
      <trkpt lat="48.59267" lon="-2.248626">
        <ele>69.0</ele>
        <time>2020-08-13T21:42:21Z</time>
      </trkpt>
      <trkpt lat="48.592432" lon="-2.248216">
        <ele>67.0</ele>
        <time>2020-08-13T21:42:23Z</time>
      </trkpt>
      <trkpt lat="48.592206" lon="-2.24798">
        <ele>67.0</ele>
        <time>2020-08-13T21:42:26Z</time>
      </trkpt>
      <trkpt lat="48.592149" lon="-2.247993">
        <ele>67.0</ele>
        <time>2020-08-13T21:42:27Z</time>
      </trkpt>
      <trkpt lat="48.592094" lon="-2.247966">
        <ele>67.0</ele>
        <time>2020-08-13T21:42:28Z</time>
      </trkpt>
      <trkpt lat="48.592053" lon="-2.247905">
        <ele>67.0</ele>
        <time>2020-08-13T21:42:28Z</time>
      </trkpt>
      <trkpt lat="48.592034" lon="-2.247824">
        <ele>67.0</ele>
        <time>2020-08-13T21:42:29Z</time>
      </trkpt>
      <trkpt lat="48.59204" lon="-2.247738">
        <ele>67.0</ele>
        <time>2020-08-13T21:42:29Z</time>
      </trkpt>
      <trkpt lat="48.591964" lon="-2.247549">
        <ele>67.0</ele>
        <time>2020-08-13T21:42:31Z</time>
      </trkpt>
      <trkpt lat="48.58982" lon="-2.245182">
        <ele>57.6</ele>
        <time>2020-08-13T21:42:59Z</time>
      </trkpt>
      <trkpt lat="48.588193" lon="-2.243289">
        <ele>47.0</ele>
        <time>2020-08-13T21:43:21Z</time>
      </trkpt>
      <trkpt lat="48.587632" lon="-2.242611">
        <ele>47.0</ele>
        <time>2020-08-13T21:43:28Z</time>
      </trkpt>
      <trkpt lat="48.587341" lon="-2.242163">
        <ele>46.4</ele>
        <time>2020-08-13T21:43:33Z</time>
      </trkpt>
      <trkpt lat="48.587137" lon="-2.241768">
        <ele>46.4</ele>
        <time>2020-08-13T21:43:36Z</time>
      </trkpt>
      <trkpt lat="48.585823" lon="-2.238837">
        <ele>54.8</ele>
        <time>2020-08-13T21:44:01Z</time>
      </trkpt>
      <trkpt lat="48.585626" lon="-2.238443">
        <ele>54.8</ele>
        <time>2020-08-13T21:44:05Z</time>
      </trkpt>
      <trkpt lat="48.585191" lon="-2.237756">
        <ele>56.0</ele>
        <time>2020-08-13T21:44:11Z</time>
      </trkpt>
      <trkpt lat="48.583083" lon="-2.234822">
        <ele>58.0</ele>
        <time>2020-08-13T21:44:42Z</time>
      </trkpt>
      <trkpt lat="48.582992" lon="-2.234706">
        <ele>58.0</ele>
        <time>2020-08-13T21:44:43Z</time>
      </trkpt>
      <trkpt lat="48.582802" lon="-2.234577">
        <ele>58.0</ele>
        <time>2020-08-13T21:44:45Z</time>
      </trkpt>
      <trkpt lat="48.582658" lon="-2.234513">
        <ele>58.0</ele>
        <time>2020-08-13T21:44:47Z</time>
      </trkpt>
      <trkpt lat="48.582592" lon="-2.234539">
        <ele>58.0</ele>
        <time>2020-08-13T21:44:48Z</time>
      </trkpt>
      <trkpt lat="48.582544" lon="-2.234516">
        <ele>58.0</ele>
        <time>2020-08-13T21:44:48Z</time>
      </trkpt>
      <trkpt lat="48.582507" lon="-2.234459">
        <ele>58.0</ele>
        <time>2020-08-13T21:44:49Z</time>
      </trkpt>
      <trkpt lat="48.582493" lon="-2.234376">
        <ele>57.2</ele>
        <time>2020-08-13T21:44:50Z</time>
      </trkpt>
      <trkpt lat="48.582528" lon="-2.234259">
        <ele>58.0</ele>
        <time>2020-08-13T21:44:51Z</time>
      </trkpt>
      <trkpt lat="48.58249" lon="-2.234006">
        <ele>58.2</ele>
        <time>2020-08-13T21:44:53Z</time>
      </trkpt>
      <trkpt lat="48.581764" lon="-2.232946">
        <ele>58.0</ele>
        <time>2020-08-13T21:45:06Z</time>
      </trkpt>
      <trkpt lat="48.581561" lon="-2.232578">
        <ele>56.2</ele>
        <time>2020-08-13T21:45:11Z</time>
      </trkpt>
      <trkpt lat="48.581379" lon="-2.232148">
        <ele>55.4</ele>
        <time>2020-08-13T21:45:15Z</time>
      </trkpt>
      <trkpt lat="48.581294" lon="-2.231878">
        <ele>55.4</ele>
        <time>2020-08-13T21:45:18Z</time>
      </trkpt>
      <trkpt lat="48.581106" lon="-2.231078">
        <ele>54.6</ele>
        <time>2020-08-13T21:45:25Z</time>
      </trkpt>
      <trkpt lat="48.580978" lon="-2.230607">
        <ele>54.4</ele>
        <time>2020-08-13T21:45:29Z</time>
      </trkpt>
      <trkpt lat="48.580841" lon="-2.230195">
        <ele>54.4</ele>
        <time>2020-08-13T21:45:33Z</time>
      </trkpt>
      <trkpt lat="48.580442" lon="-2.229138">
        <ele>52.2</ele>
        <time>2020-08-13T21:45:44Z</time>
      </trkpt>
      <trkpt lat="48.580298" lon="-2.228692">
        <ele>52.2</ele>
        <time>2020-08-13T21:45:48Z</time>
      </trkpt>
      <trkpt lat="48.580056" lon="-2.227764">
        <ele>52.2</ele>
        <time>2020-08-13T21:45:57Z</time>
      </trkpt>
      <trkpt lat="48.579989" lon="-2.22737">
        <ele>51.8</ele>
        <time>2020-08-13T21:46:01Z</time>
      </trkpt>
      <trkpt lat="48.579963" lon="-2.227067">
        <ele>51.8</ele>
        <time>2020-08-13T21:46:03Z</time>
      </trkpt>
      <trkpt lat="48.579815" lon="-2.224734">
        <ele>53.6</ele>
        <time>2020-08-13T21:46:24Z</time>
      </trkpt>
      <trkpt lat="48.579792" lon="-2.223986">
        <ele>53.4</ele>
        <time>2020-08-13T21:46:30Z</time>
      </trkpt>
      <trkpt lat="48.579803" lon="-2.223548">
        <ele>53.4</ele>
        <time>2020-08-13T21:46:34Z</time>
      </trkpt>
      <trkpt lat="48.579795" lon="-2.222997">
        <ele>52.8</ele>
        <time>2020-08-13T21:46:39Z</time>
      </trkpt>
      <trkpt lat="48.579717" lon="-2.221896">
        <ele>52.4</ele>
        <time>2020-08-13T21:46:48Z</time>
      </trkpt>
      <trkpt lat="48.579695" lon="-2.221777">
        <ele>52.4</ele>
        <time>2020-08-13T21:46:50Z</time>
      </trkpt>
      <trkpt lat="48.57967" lon="-2.221732">
        <ele>52.4</ele>
        <time>2020-08-13T21:46:50Z</time>
      </trkpt>
      <trkpt lat="48.579608" lon="-2.22169">
        <ele>52.4</ele>
        <time>2020-08-13T21:46:51Z</time>
      </trkpt>
      <trkpt lat="48.579064" lon="-2.221525">
        <ele>52.8</ele>
        <time>2020-08-13T21:46:58Z</time>
      </trkpt>
      <trkpt lat="48.578937" lon="-2.22144">
        <ele>52.8</ele>
        <time>2020-08-13T21:47:00Z</time>
      </trkpt>
      <trkpt lat="48.578837" lon="-2.2213">
        <ele>52.8</ele>
        <time>2020-08-13T21:47:02Z</time>
      </trkpt>
      <trkpt lat="48.578785" lon="-2.221194">
        <ele>52.8</ele>
        <time>2020-08-13T21:47:03Z</time>
      </trkpt>
      <trkpt lat="48.578635" lon="-2.220718">
        <ele>51.6</ele>
        <time>2020-08-13T21:47:08Z</time>
      </trkpt>
      <trkpt lat="48.578401" lon="-2.219631">
        <ele>49.4</ele>
        <time>2020-08-13T21:47:18Z</time>
      </trkpt>
      <trkpt lat="48.578333" lon="-2.219136">
        <ele>47.2</ele>
        <time>2020-08-13T21:47:22Z</time>
      </trkpt>
      <trkpt lat="48.578321" lon="-2.218941">
        <ele>46.8</ele>
        <time>2020-08-13T21:47:24Z</time>
      </trkpt>
      <trkpt lat="48.57827" lon="-2.218934">
        <ele>46.8</ele>
        <time>2020-08-13T21:47:24Z</time>
      </trkpt>
      <trkpt lat="48.578224" lon="-2.218897">
        <ele>46.8</ele>
        <time>2020-08-13T21:47:25Z</time>
      </trkpt>
      <trkpt lat="48.578129" lon="-2.218741">
        <ele>46.8</ele>
        <time>2020-08-13T21:47:27Z</time>
      </trkpt>
      <trkpt lat="48.577692" lon="-2.21781">
        <ele>44.0</ele>
        <time>2020-08-13T21:47:37Z</time>
      </trkpt>
      <trkpt lat="48.577394" lon="-2.216979">
        <ele>37.8</ele>
        <time>2020-08-13T21:47:45Z</time>
      </trkpt>
      <trkpt lat="48.57721" lon="-2.216592">
        <ele>34.8</ele>
        <time>2020-08-13T21:47:49Z</time>
      </trkpt>
      <trkpt lat="48.577071" lon="-2.216388">
        <ele>34.8</ele>
        <time>2020-08-13T21:47:52Z</time>
      </trkpt>
      <trkpt lat="48.576984" lon="-2.216307">
        <ele>34.8</ele>
        <time>2020-08-13T21:47:53Z</time>
      </trkpt>
      <trkpt lat="48.576953" lon="-2.21614">
        <ele>34.8</ele>
        <time>2020-08-13T21:47:55Z</time>
      </trkpt>
      <trkpt lat="48.576621" lon="-2.215302">
        <ele>27.6</ele>
        <time>2020-08-13T21:48:03Z</time>
      </trkpt>
      <trkpt lat="48.575995" lon="-2.213951">
        <ele>19.0</ele>
        <time>2020-08-13T21:48:18Z</time>
      </trkpt>
      <trkpt lat="48.574977" lon="-2.214424">
        <ele>10.0</ele>
        <time>2020-08-13T21:48:27Z</time>
      </trkpt>
      <trkpt lat="48.5748" lon="-2.21445">
        <ele>10.0</ele>
        <time>2020-08-13T21:48:29Z</time>
      </trkpt>
      <trkpt lat="48.574541" lon="-2.214428">
        <ele>10.0</ele>
        <time>2020-08-13T21:48:31Z</time>
      </trkpt>
      <trkpt lat="48.574362" lon="-2.214348">
        <ele>10.0</ele>
        <time>2020-08-13T21:48:33Z</time>
      </trkpt>
      <trkpt lat="48.572446" lon="-2.212946">
        <ele>14.8</ele>
        <time>2020-08-13T21:48:51Z</time>
      </trkpt>
      <trkpt lat="48.572001" lon="-2.212659">
        <ele>14.8</ele>
        <time>2020-08-13T21:48:56Z</time>
      </trkpt>
      <trkpt lat="48.57158" lon="-2.212472">
        <ele>17.2</ele>
        <time>2020-08-13T21:48:59Z</time>
      </trkpt>
      <trkpt lat="48.570853" lon="-2.212305">
        <ele>17.2</ele>
        <time>2020-08-13T21:49:06Z</time>
      </trkpt>
      <trkpt lat="48.570614" lon="-2.212199">
        <ele>22.0</ele>
        <time>2020-08-13T21:49:08Z</time>
      </trkpt>
      <trkpt lat="48.570408" lon="-2.212058">
        <ele>22.0</ele>
        <time>2020-08-13T21:49:10Z</time>
      </trkpt>
      <trkpt lat="48.570311" lon="-2.211961">
        <ele>22.0</ele>
        <time>2020-08-13T21:49:11Z</time>
      </trkpt>
      <trkpt lat="48.569882" lon="-2.211391">
        <ele>24.0</ele>
        <time>2020-08-13T21:49:16Z</time>
      </trkpt>
      <trkpt lat="48.569727" lon="-2.211217">
        <ele>24.0</ele>
        <time>2020-08-13T21:49:18Z</time>
      </trkpt>
      <trkpt lat="48.569499" lon="-2.211033">
        <ele>24.0</ele>
        <time>2020-08-13T21:49:20Z</time>
      </trkpt>
      <trkpt lat="48.569141" lon="-2.210699">
        <ele>26.2</ele>
        <time>2020-08-13T21:49:24Z</time>
      </trkpt>
      <trkpt lat="48.568905" lon="-2.210363">
        <ele>26.2</ele>
        <time>2020-08-13T21:49:27Z</time>
      </trkpt>
      <trkpt lat="48.567532" lon="-2.207334">
        <ele>26.6</ele>
        <time>2020-08-13T21:49:48Z</time>
      </trkpt>
      <trkpt lat="48.567263" lon="-2.206685">
        <ele>27.4</ele>
        <time>2020-08-13T21:49:52Z</time>
      </trkpt>
      <trkpt lat="48.567015" lon="-2.205882">
        <ele>27.4</ele>
        <time>2020-08-13T21:49:58Z</time>
      </trkpt>
      <trkpt lat="48.56692" lon="-2.205474">
        <ele>27.6</ele>
        <time>2020-08-13T21:50:00Z</time>
      </trkpt>
      <trkpt lat="48.566748" lon="-2.204352">
        <ele>28.8</ele>
        <time>2020-08-13T21:50:07Z</time>
      </trkpt>
      <trkpt lat="48.566524" lon="-2.202627">
        <ele>36.8</ele>
        <time>2020-08-13T21:50:17Z</time>
      </trkpt>
      <trkpt lat="48.565714" lon="-2.194957">
        <ele>42.8</ele>
        <time>2020-08-13T21:51:02Z</time>
      </trkpt>
      <trkpt lat="48.565462" lon="-2.192387">
        <ele>41.6</ele>
        <time>2020-08-13T21:51:17Z</time>
      </trkpt>
      <trkpt lat="48.565241" lon="-2.189932">
        <ele>38.6</ele>
        <time>2020-08-13T21:51:32Z</time>
      </trkpt>
      <trkpt lat="48.565188" lon="-2.189694">
        <ele>38.6</ele>
        <time>2020-08-13T21:51:34Z</time>
      </trkpt>
      <trkpt lat="48.565131" lon="-2.189608">
        <ele>38.6</ele>
        <time>2020-08-13T21:51:34Z</time>
      </trkpt>
      <trkpt lat="48.565111" lon="-2.189503">
        <ele>38.6</ele>
        <time>2020-08-13T21:51:35Z</time>
      </trkpt>
      <trkpt lat="48.56513" lon="-2.189375">
        <ele>38.6</ele>
        <time>2020-08-13T21:51:36Z</time>
      </trkpt>
      <trkpt lat="48.56516" lon="-2.189315">
        <ele>38.6</ele>
        <time>2020-08-13T21:51:36Z</time>
      </trkpt>
      <trkpt lat="48.565218" lon="-2.189262">
        <ele>38.6</ele>
        <time>2020-08-13T21:51:37Z</time>
      </trkpt>
      <trkpt lat="48.565303" lon="-2.189256">
        <ele>38.6</ele>
        <time>2020-08-13T21:51:38Z</time>
      </trkpt>
      <trkpt lat="48.565623" lon="-2.189079">
        <ele>40.0</ele>
        <time>2020-08-13T21:51:41Z</time>
      </trkpt>
      <trkpt lat="48.565695" lon="-2.188988">
        <ele>40.0</ele>
        <time>2020-08-13T21:51:42Z</time>
      </trkpt>
      <trkpt lat="48.569463" lon="-2.182767">
        <ele>41.4</ele>
        <time>2020-08-13T21:52:32Z</time>
      </trkpt>
      <trkpt lat="48.569598" lon="-2.18257">
        <ele>41.4</ele>
        <time>2020-08-13T21:52:34Z</time>
      </trkpt>
      <trkpt lat="48.572239" lon="-2.178164">
        <ele>30.8</ele>
        <time>2020-08-13T21:53:09Z</time>
      </trkpt>
      <trkpt lat="48.57241" lon="-2.177931">
        <ele>30.8</ele>
        <time>2020-08-13T21:53:11Z</time>
      </trkpt>
      <trkpt lat="48.572672" lon="-2.177645">
        <ele>27.6</ele>
        <time>2020-08-13T21:53:14Z</time>
      </trkpt>
      <trkpt lat="48.574161" lon="-2.176417">
        <ele>26.0</ele>
        <time>2020-08-13T21:53:29Z</time>
      </trkpt>
      <trkpt lat="48.574781" lon="-2.17601">
        <ele>21.6</ele>
        <time>2020-08-13T21:53:36Z</time>
      </trkpt>
      <trkpt lat="48.574877" lon="-2.175923">
        <ele>21.6</ele>
        <time>2020-08-13T21:53:37Z</time>
      </trkpt>
      <trkpt lat="48.574963" lon="-2.175798">
        <ele>22.2</ele>
        <time>2020-08-13T21:53:38Z</time>
      </trkpt>
      <trkpt lat="48.574991" lon="-2.175652">
        <ele>22.2</ele>
        <time>2020-08-13T21:53:39Z</time>
      </trkpt>
      <trkpt lat="48.575028" lon="-2.175591">
        <ele>20.6</ele>
        <time>2020-08-13T21:53:39Z</time>
      </trkpt>
      <trkpt lat="48.575132" lon="-2.175547">
        <ele>20.6</ele>
        <time>2020-08-13T21:53:40Z</time>
      </trkpt>
      <trkpt lat="48.575177" lon="-2.175555">
        <ele>20.6</ele>
        <time>2020-08-13T21:53:40Z</time>
      </trkpt>
      <trkpt lat="48.575412" lon="-2.175417">
        <ele>20.6</ele>
        <time>2020-08-13T21:53:42Z</time>
      </trkpt>
      <trkpt lat="48.575688" lon="-2.1751">
        <ele>20.6</ele>
        <time>2020-08-13T21:53:45Z</time>
      </trkpt>
      <trkpt lat="48.575879" lon="-2.174769">
        <ele>20.8</ele>
        <time>2020-08-13T21:53:47Z</time>
      </trkpt>
      <trkpt lat="48.57601" lon="-2.17444">
        <ele>20.8</ele>
        <time>2020-08-13T21:53:49Z</time>
      </trkpt>
      <trkpt lat="48.576136" lon="-2.173913">
        <ele>23.2</ele>
        <time>2020-08-13T21:53:52Z</time>
      </trkpt>
      <trkpt lat="48.57685" lon="-2.168644">
        <ele>6.6</ele>
        <time>2020-08-13T21:54:19Z</time>
      </trkpt>
      <trkpt lat="48.576912" lon="-2.168148">
        <ele>5.6</ele>
        <time>2020-08-13T21:54:21Z</time>
      </trkpt>
      <trkpt lat="48.576949" lon="-2.1677">
        <ele>5.6</ele>
        <time>2020-08-13T21:54:23Z</time>
      </trkpt>
      <trkpt lat="48.576967" lon="-2.167135">
        <ele>4.6</ele>
        <time>2020-08-13T21:54:26Z</time>
      </trkpt>
      <trkpt lat="48.576947" lon="-2.166442">
        <ele>4.4</ele>
        <time>2020-08-13T21:54:30Z</time>
      </trkpt>
      <trkpt lat="48.576531" lon="-2.160418">
        <ele>7.6</ele>
        <time>2020-08-13T21:55:00Z</time>
      </trkpt>
      <trkpt lat="48.576406" lon="-2.159161">
        <ele>10.6</ele>
        <time>2020-08-13T21:55:06Z</time>
      </trkpt>
      <trkpt lat="48.576053" lon="-2.156143">
        <ele>11.8</ele>
        <time>2020-08-13T21:55:22Z</time>
      </trkpt>
      <trkpt lat="48.576" lon="-2.156119">
        <ele>11.8</ele>
        <time>2020-08-13T21:55:23Z</time>
      </trkpt>
      <trkpt lat="48.575969" lon="-2.15605">
        <ele>11.8</ele>
        <time>2020-08-13T21:55:23Z</time>
      </trkpt>
      <trkpt lat="48.575973" lon="-2.155967">
        <ele>11.8</ele>
        <time>2020-08-13T21:55:24Z</time>
      </trkpt>
      <trkpt lat="48.57603" lon="-2.155896">
        <ele>11.8</ele>
        <time>2020-08-13T21:55:25Z</time>
      </trkpt>
      <trkpt lat="48.575993" lon="-2.155165">
        <ele>10.6</ele>
        <time>2020-08-13T21:55:31Z</time>
      </trkpt>
      <trkpt lat="48.575994" lon="-2.154723">
        <ele>10.6</ele>
        <time>2020-08-13T21:55:35Z</time>
      </trkpt>
      <trkpt lat="48.576033" lon="-2.154027">
        <ele>11.4</ele>
        <time>2020-08-13T21:55:41Z</time>
      </trkpt>
      <trkpt lat="48.576355" lon="-2.150524">
        <ele>14.6</ele>
        <time>2020-08-13T21:56:12Z</time>
      </trkpt>
      <trkpt lat="48.576405" lon="-2.150191">
        <ele>14.6</ele>
        <time>2020-08-13T21:56:14Z</time>
      </trkpt>
      <trkpt lat="48.576615" lon="-2.149362">
        <ele>14.6</ele>
        <time>2020-08-13T21:56:22Z</time>
      </trkpt>
      <trkpt lat="48.576622" lon="-2.149165">
        <ele>15.4</ele>
        <time>2020-08-13T21:56:24Z</time>
      </trkpt>
      <trkpt lat="48.576608" lon="-2.148986">
        <ele>15.4</ele>
        <time>2020-08-13T21:56:25Z</time>
      </trkpt>
      <trkpt lat="48.57658" lon="-2.148835">
        <ele>15.4</ele>
        <time>2020-08-13T21:56:27Z</time>
      </trkpt>
      <trkpt lat="48.57661" lon="-2.148713">
        <ele>15.4</ele>
        <time>2020-08-13T21:56:28Z</time>
      </trkpt>
      <trkpt lat="48.576689" lon="-2.148628">
        <ele>17.2</ele>
        <time>2020-08-13T21:56:29Z</time>
      </trkpt>
      <trkpt lat="48.576787" lon="-2.148631">
        <ele>17.2</ele>
        <time>2020-08-13T21:56:31Z</time>
      </trkpt>
      <trkpt lat="48.57683" lon="-2.148667">
        <ele>17.2</ele>
        <time>2020-08-13T21:56:31Z</time>
      </trkpt>
      <trkpt lat="48.577049" lon="-2.14852">
        <ele>17.2</ele>
        <time>2020-08-13T21:56:34Z</time>
      </trkpt>
      <trkpt lat="48.57904" lon="-2.145657">
        <ele>22.6</ele>
        <time>2020-08-13T21:57:10Z</time>
      </trkpt>
      <trkpt lat="48.579591" lon="-2.145009">
        <ele>23.6</ele>
        <time>2020-08-13T21:57:20Z</time>
      </trkpt>
      <trkpt lat="48.579702" lon="-2.144826">
        <ele>24.4</ele>
        <time>2020-08-13T21:57:22Z</time>
      </trkpt>
      <trkpt lat="48.579732" lon="-2.144676">
        <ele>24.4</ele>
        <time>2020-08-13T21:57:23Z</time>
      </trkpt>
      <trkpt lat="48.579813" lon="-2.143837">
        <ele>24.6</ele>
        <time>2020-08-13T21:57:30Z</time>
      </trkpt>
      <trkpt lat="48.58006" lon="-2.142188">
        <ele>26.4</ele>
        <time>2020-08-13T21:57:45Z</time>
      </trkpt>
      <trkpt lat="48.580184" lon="-2.141509">
        <ele>28.0</ele>
        <time>2020-08-13T21:57:51Z</time>
      </trkpt>
      <trkpt lat="48.580347" lon="-2.140844">
        <ele>28.0</ele>
        <time>2020-08-13T21:57:57Z</time>
      </trkpt>
      <trkpt lat="48.580499" lon="-2.140337">
        <ele>29.8</ele>
        <time>2020-08-13T21:58:01Z</time>
      </trkpt>
      <trkpt lat="48.58049" lon="-2.139971">
        <ele>30.2</ele>
        <time>2020-08-13T21:58:05Z</time>
      </trkpt>
      <trkpt lat="48.580516" lon="-2.139629">
        <ele>30.2</ele>
        <time>2020-08-13T21:58:07Z</time>
      </trkpt>
      <trkpt lat="48.580495" lon="-2.139615">
        <ele>30.2</ele>
        <time>2020-08-13T21:58:08Z</time>
      </trkpt>
      <trkpt lat="48.580478" lon="-2.139552">
        <ele>30.2</ele>
        <time>2020-08-13T21:58:08Z</time>
      </trkpt>
      <trkpt lat="48.580505" lon="-2.139497">
        <ele>30.2</ele>
        <time>2020-08-13T21:58:09Z</time>
      </trkpt>
      <trkpt lat="48.580434" lon="-2.139158">
        <ele>29.6</ele>
        <time>2020-08-13T21:58:12Z</time>
      </trkpt>
      <trkpt lat="48.580353" lon="-2.138954">
        <ele>29.6</ele>
        <time>2020-08-13T21:58:14Z</time>
      </trkpt>
      <trkpt lat="48.580305" lon="-2.13897">
        <ele>29.6</ele>
        <time>2020-08-13T21:58:14Z</time>
      </trkpt>
      <trkpt lat="48.580248" lon="-2.138918">
        <ele>29.6</ele>
        <time>2020-08-13T21:58:15Z</time>
      </trkpt>
      <trkpt lat="48.580236" lon="-2.138868">
        <ele>29.6</ele>
        <time>2020-08-13T21:58:15Z</time>
      </trkpt>
      <trkpt lat="48.580241" lon="-2.138812">
        <ele>29.6</ele>
        <time>2020-08-13T21:58:15Z</time>
      </trkpt>
      <trkpt lat="48.580263" lon="-2.138767">
        <ele>29.6</ele>
        <time>2020-08-13T21:58:16Z</time>
      </trkpt>
      <trkpt lat="48.580327" lon="-2.138743">
        <ele>29.6</ele>
        <time>2020-08-13T21:58:16Z</time>
      </trkpt>
      <trkpt lat="48.580353" lon="-2.138758">
        <ele>29.6</ele>
        <time>2020-08-13T21:58:16Z</time>
      </trkpt>
      <trkpt lat="48.580379" lon="-2.138685">
        <ele>29.6</ele>
        <time>2020-08-13T21:58:17Z</time>
      </trkpt>
      <trkpt lat="48.580399" lon="-2.138544">
        <ele>29.6</ele>
        <time>2020-08-13T21:58:17Z</time>
      </trkpt>
      <trkpt lat="48.58038" lon="-2.137199">
        <ele>26.0</ele>
        <time>2020-08-13T21:58:24Z</time>
      </trkpt>
      <trkpt lat="48.580472" lon="-2.13537">
        <ele>20.8</ele>
        <time>2020-08-13T21:58:34Z</time>
      </trkpt>
      <trkpt lat="48.58046" lon="-2.133773">
        <ele>17.8</ele>
        <time>2020-08-13T21:58:42Z</time>
      </trkpt>
      <trkpt lat="48.580477" lon="-2.133424">
        <ele>17.8</ele>
        <time>2020-08-13T21:58:44Z</time>
      </trkpt>
      <trkpt lat="48.580516" lon="-2.133113">
        <ele>17.6</ele>
        <time>2020-08-13T21:58:45Z</time>
      </trkpt>
      <trkpt lat="48.581209" lon="-2.129147">
        <ele>34.2</ele>
        <time>2020-08-13T21:59:06Z</time>
      </trkpt>
      <trkpt lat="48.581643" lon="-2.126479">
        <ele>39.2</ele>
        <time>2020-08-13T21:59:20Z</time>
      </trkpt>
      <trkpt lat="48.581992" lon="-2.124869">
        <ele>37.6</ele>
        <time>2020-08-13T21:59:29Z</time>
      </trkpt>
      <trkpt lat="48.582054" lon="-2.124635">
        <ele>37.6</ele>
        <time>2020-08-13T21:59:30Z</time>
      </trkpt>
      <trkpt lat="48.582209" lon="-2.124246">
        <ele>37.6</ele>
        <time>2020-08-13T21:59:33Z</time>
      </trkpt>
      <trkpt lat="48.583618" lon="-2.121479">
        <ele>27.2</ele>
        <time>2020-08-13T21:59:50Z</time>
      </trkpt>
      <trkpt lat="48.583721" lon="-2.121341">
        <ele>27.2</ele>
        <time>2020-08-13T21:59:51Z</time>
      </trkpt>
      <trkpt lat="48.583981" lon="-2.121061">
        <ele>27.2</ele>
        <time>2020-08-13T21:59:54Z</time>
      </trkpt>
      <trkpt lat="48.58453" lon="-2.120538">
        <ele>24.0</ele>
        <time>2020-08-13T21:59:59Z</time>
      </trkpt>
      <trkpt lat="48.584843" lon="-2.120308">
        <ele>24.0</ele>
        <time>2020-08-13T22:00:02Z</time>
      </trkpt>
      <trkpt lat="48.588088" lon="-2.118681">
        <ele>14.8</ele>
        <time>2020-08-13T22:00:28Z</time>
      </trkpt>
      <trkpt lat="48.588229" lon="-2.118579">
        <ele>14.8</ele>
        <time>2020-08-13T22:00:29Z</time>
      </trkpt>
      <trkpt lat="48.588412" lon="-2.118393">
        <ele>17.2</ele>
        <time>2020-08-13T22:00:31Z</time>
      </trkpt>
      <trkpt lat="48.588592" lon="-2.118142">
        <ele>19.4</ele>
        <time>2020-08-13T22:00:33Z</time>
      </trkpt>
      <trkpt lat="48.588726" lon="-2.117885">
        <ele>19.4</ele>
        <time>2020-08-13T22:00:34Z</time>
      </trkpt>
      <trkpt lat="48.589144" lon="-2.116855">
        <ele>22.4</ele>
        <time>2020-08-13T22:00:41Z</time>
      </trkpt>
      <trkpt lat="48.590041" lon="-2.115072">
        <ele>27.2</ele>
        <time>2020-08-13T22:00:52Z</time>
      </trkpt>
      <trkpt lat="48.590277" lon="-2.114524">
        <ele>29.4</ele>
        <time>2020-08-13T22:00:55Z</time>
      </trkpt>
      <trkpt lat="48.591433" lon="-2.111267">
        <ele>31.0</ele>
        <time>2020-08-13T22:01:14Z</time>
      </trkpt>
      <trkpt lat="48.591758" lon="-2.110646">
        <ele>32.4</ele>
        <time>2020-08-13T22:01:18Z</time>
      </trkpt>
      <trkpt lat="48.59213" lon="-2.110031">
        <ele>32.4</ele>
        <time>2020-08-13T22:01:23Z</time>
      </trkpt>
      <trkpt lat="48.592363" lon="-2.109602">
        <ele>32.6</ele>
        <time>2020-08-13T22:01:25Z</time>
      </trkpt>
      <trkpt lat="48.592563" lon="-2.109063">
        <ele>34.0</ele>
        <time>2020-08-13T22:01:28Z</time>
      </trkpt>
      <trkpt lat="48.592812" lon="-2.108211">
        <ele>34.0</ele>
        <time>2020-08-13T22:01:33Z</time>
      </trkpt>
      <trkpt lat="48.593181" lon="-2.10738">
        <ele>33.2</ele>
        <time>2020-08-13T22:01:38Z</time>
      </trkpt>
      <trkpt lat="48.593292" lon="-2.10701">
        <ele>33.2</ele>
        <time>2020-08-13T22:01:40Z</time>
      </trkpt>
      <trkpt lat="48.593753" lon="-2.104633">
        <ele>35.8</ele>
        <time>2020-08-13T22:01:53Z</time>
      </trkpt>
      <trkpt lat="48.59381" lon="-2.104185">
        <ele>35.8</ele>
        <time>2020-08-13T22:01:55Z</time>
      </trkpt>
      <trkpt lat="48.593795" lon="-2.103367">
        <ele>38.2</ele>
        <time>2020-08-13T22:02:00Z</time>
      </trkpt>
      <trkpt lat="48.593706" lon="-2.101575">
        <ele>48.6</ele>
        <time>2020-08-13T22:02:09Z</time>
      </trkpt>
      <trkpt lat="48.593705" lon="-2.10119">
        <ele>48.6</ele>
        <time>2020-08-13T22:02:11Z</time>
      </trkpt>
      <trkpt lat="48.593754" lon="-2.100639">
        <ele>51.0</ele>
        <time>2020-08-13T22:02:14Z</time>
      </trkpt>
      <trkpt lat="48.593874" lon="-2.100129">
        <ele>51.0</ele>
        <time>2020-08-13T22:02:16Z</time>
      </trkpt>
      <trkpt lat="48.594096" lon="-2.099571">
        <ele>53.0</ele>
        <time>2020-08-13T22:02:20Z</time>
      </trkpt>
      <trkpt lat="48.602137" lon="-2.08238">
        <ele>57.8</ele>
        <time>2020-08-13T22:04:07Z</time>
      </trkpt>
      <trkpt lat="48.602645" lon="-2.081036">
        <ele>57.8</ele>
        <time>2020-08-13T22:04:15Z</time>
      </trkpt>
      <trkpt lat="48.602989" lon="-2.080323">
        <ele>58.8</ele>
        <time>2020-08-13T22:04:19Z</time>
      </trkpt>
      <trkpt lat="48.603709" lon="-2.079167">
        <ele>59.2</ele>
        <time>2020-08-13T22:04:28Z</time>
      </trkpt>
      <trkpt lat="48.605111" lon="-2.077037">
        <ele>57.2</ele>
        <time>2020-08-13T22:04:43Z</time>
      </trkpt>
      <trkpt lat="48.608553" lon="-2.072319">
        <ele>49.6</ele>
        <time>2020-08-13T22:05:19Z</time>
      </trkpt>
      <trkpt lat="48.609894" lon="-2.070564">
        <ele>50.6</ele>
        <time>2020-08-13T22:05:32Z</time>
      </trkpt>
      <trkpt lat="48.610486" lon="-2.069661">
        <ele>48.2</ele>
        <time>2020-08-13T22:05:39Z</time>
      </trkpt>
      <trkpt lat="48.610682" lon="-2.069326">
        <ele>48.2</ele>
        <time>2020-08-13T22:05:41Z</time>
      </trkpt>
      <trkpt lat="48.610857" lon="-2.068977">
        <ele>47.8</ele>
        <time>2020-08-13T22:05:43Z</time>
      </trkpt>
      <trkpt lat="48.610928" lon="-2.068786">
        <ele>47.8</ele>
        <time>2020-08-13T22:05:45Z</time>
      </trkpt>
      <trkpt lat="48.610917" lon="-2.068568">
        <ele>47.8</ele>
        <time>2020-08-13T22:05:46Z</time>
      </trkpt>
      <trkpt lat="48.610958" lon="-2.068422">
        <ele>47.8</ele>
        <time>2020-08-13T22:05:47Z</time>
      </trkpt>
      <trkpt lat="48.611042" lon="-2.068329">
        <ele>48.2</ele>
        <time>2020-08-13T22:05:49Z</time>
      </trkpt>
      <trkpt lat="48.61117" lon="-2.068294">
        <ele>48.2</ele>
        <time>2020-08-13T22:05:50Z</time>
      </trkpt>
      <trkpt lat="48.611244" lon="-2.06832">
        <ele>48.2</ele>
        <time>2020-08-13T22:05:51Z</time>
      </trkpt>
      <trkpt lat="48.611353" lon="-2.068442">
        <ele>47.8</ele>
        <time>2020-08-13T22:05:52Z</time>
      </trkpt>
      <trkpt lat="48.611385" lon="-2.06859">
        <ele>47.8</ele>
        <time>2020-08-13T22:05:53Z</time>
      </trkpt>
      <trkpt lat="48.611387" lon="-2.068673">
        <ele>47.8</ele>
        <time>2020-08-13T22:05:54Z</time>
      </trkpt>
      <trkpt lat="48.611345" lon="-2.068855">
        <ele>47.8</ele>
        <time>2020-08-13T22:05:55Z</time>
      </trkpt>
      <trkpt lat="48.611381" lon="-2.069827">
        <ele>48.0</ele>
        <time>2020-08-13T22:06:01Z</time>
      </trkpt>
      <trkpt lat="48.611379" lon="-2.071257">
        <ele>50.0</ele>
        <time>2020-08-13T22:06:11Z</time>
      </trkpt>
      <trkpt lat="48.611356" lon="-2.071594">
        <ele>50.0</ele>
        <time>2020-08-13T22:06:13Z</time>
      </trkpt>
      <trkpt lat="48.611408" lon="-2.071875">
        <ele>50.8</ele>
        <time>2020-08-13T22:06:16Z</time>
      </trkpt>
      <trkpt lat="48.611465" lon="-2.071904">
        <ele>50.8</ele>
        <time>2020-08-13T22:06:16Z</time>
      </trkpt>
      <trkpt lat="48.611512" lon="-2.071961">
        <ele>50.8</ele>
        <time>2020-08-13T22:06:17Z</time>
      </trkpt>
      <trkpt lat="48.611697" lon="-2.071906">
        <ele>52.6</ele>
        <time>2020-08-13T22:06:19Z</time>
      </trkpt>
      <trkpt lat="48.612029" lon="-2.071559">
        <ele>50.8</ele>
        <time>2020-08-13T22:06:23Z</time>
      </trkpt>
      <trkpt lat="48.6124" lon="-2.071222">
        <ele>50.8</ele>
        <time>2020-08-13T22:06:27Z</time>
      </trkpt>
      <trkpt lat="48.614152" lon="-2.069807">
        <ele>50.6</ele>
        <time>2020-08-13T22:06:48Z</time>
      </trkpt>
      <trkpt lat="48.614592" lon="-2.069531">
        <ele>49.2</ele>
        <time>2020-08-13T22:06:52Z</time>
      </trkpt>
      <trkpt lat="48.614736" lon="-2.069462">
        <ele>48.7</ele>
        <time>2020-08-13T22:06:54Z</time>
      </trkpt>
      <trkpt lat="48.614736" lon="-2.069462">
        <ele>48.7</ele>
        <time>2020-08-13T22:06:54Z</time>
      </trkpt>
      <trkpt lat="48.614592" lon="-2.069531">
        <ele>49.2</ele>
        <time>2020-08-13T22:06:56Z</time>
      </trkpt>
      <trkpt lat="48.614152" lon="-2.069807">
        <ele>50.6</ele>
        <time>2020-08-13T22:07:00Z</time>
      </trkpt>
      <trkpt lat="48.6124" lon="-2.071222">
        <ele>50.8</ele>
        <time>2020-08-13T22:07:21Z</time>
      </trkpt>
      <trkpt lat="48.612029" lon="-2.071559">
        <ele>50.8</ele>
        <time>2020-08-13T22:07:25Z</time>
      </trkpt>
      <trkpt lat="48.611697" lon="-2.071906">
        <ele>52.6</ele>
        <time>2020-08-13T22:07:29Z</time>
      </trkpt>
      <trkpt lat="48.611556" lon="-2.072147">
        <ele>50.8</ele>
        <time>2020-08-13T22:07:31Z</time>
      </trkpt>
      <trkpt lat="48.611518" lon="-2.072298">
        <ele>50.8</ele>
        <time>2020-08-13T22:07:33Z</time>
      </trkpt>
      <trkpt lat="48.611438" lon="-2.072384">
        <ele>50.8</ele>
        <time>2020-08-13T22:07:34Z</time>
      </trkpt>
      <trkpt lat="48.611378" lon="-2.072398">
        <ele>50.8</ele>
        <time>2020-08-13T22:07:34Z</time>
      </trkpt>
      <trkpt lat="48.611319" lon="-2.07238">
        <ele>50.8</ele>
        <time>2020-08-13T22:07:35Z</time>
      </trkpt>
      <trkpt lat="48.61126" lon="-2.072323">
        <ele>50.8</ele>
        <time>2020-08-13T22:07:35Z</time>
      </trkpt>
      <trkpt lat="48.611225" lon="-2.072248">
        <ele>50.8</ele>
        <time>2020-08-13T22:07:36Z</time>
      </trkpt>
      <trkpt lat="48.611208" lon="-2.07213">
        <ele>50.8</ele>
        <time>2020-08-13T22:07:37Z</time>
      </trkpt>
      <trkpt lat="48.611219" lon="-2.07204">
        <ele>50.8</ele>
        <time>2020-08-13T22:07:38Z</time>
      </trkpt>
      <trkpt lat="48.61125" lon="-2.071962">
        <ele>50.8</ele>
        <time>2020-08-13T22:07:38Z</time>
      </trkpt>
      <trkpt lat="48.611297" lon="-2.071904">
        <ele>50.8</ele>
        <time>2020-08-13T22:07:39Z</time>
      </trkpt>
      <trkpt lat="48.611356" lon="-2.071594">
        <ele>50.0</ele>
        <time>2020-08-13T22:07:41Z</time>
      </trkpt>
      <trkpt lat="48.611379" lon="-2.071257">
        <ele>50.0</ele>
        <time>2020-08-13T22:07:43Z</time>
      </trkpt>
      <trkpt lat="48.611381" lon="-2.069827">
        <ele>48.0</ele>
        <time>2020-08-13T22:07:53Z</time>
      </trkpt>
      <trkpt lat="48.611361" lon="-2.069379">
        <ele>48.0</ele>
        <time>2020-08-13T22:07:56Z</time>
      </trkpt>
      <trkpt lat="48.611329" lon="-2.06925">
        <ele>48.0</ele>
        <time>2020-08-13T22:07:57Z</time>
      </trkpt>
      <trkpt lat="48.611256" lon="-2.069076">
        <ele>47.8</ele>
        <time>2020-08-13T22:07:58Z</time>
      </trkpt>
      <trkpt lat="48.61119" lon="-2.069002">
        <ele>47.8</ele>
        <time>2020-08-13T22:07:59Z</time>
      </trkpt>
      <trkpt lat="48.611104" lon="-2.069001">
        <ele>47.8</ele>
        <time>2020-08-13T22:08:00Z</time>
      </trkpt>
      <trkpt lat="48.611025" lon="-2.068956">
        <ele>47.8</ele>
        <time>2020-08-13T22:08:00Z</time>
      </trkpt>
      <trkpt lat="48.610928" lon="-2.068786">
        <ele>47.8</ele>
        <time>2020-08-13T22:08:01Z</time>
      </trkpt>
      <trkpt lat="48.610917" lon="-2.068568">
        <ele>47.8</ele>
        <time>2020-08-13T22:08:02Z</time>
      </trkpt>
      <trkpt lat="48.610958" lon="-2.068422">
        <ele>47.8</ele>
        <time>2020-08-13T22:08:03Z</time>
      </trkpt>
      <trkpt lat="48.611042" lon="-2.068329">
        <ele>48.2</ele>
        <time>2020-08-13T22:08:04Z</time>
      </trkpt>
      <trkpt lat="48.61117" lon="-2.068294">
        <ele>48.2</ele>
        <time>2020-08-13T22:08:05Z</time>
      </trkpt>
      <trkpt lat="48.611207" lon="-2.068307">
        <ele>48.2</ele>
        <time>2020-08-13T22:08:05Z</time>
      </trkpt>
      <trkpt lat="48.611255" lon="-2.068272">
        <ele>48.2</ele>
        <time>2020-08-13T22:08:05Z</time>
      </trkpt>
      <trkpt lat="48.611418" lon="-2.068055">
        <ele>48.2</ele>
        <time>2020-08-13T22:08:07Z</time>
      </trkpt>
      <trkpt lat="48.612809" lon="-2.065617">
        <ele>47.2</ele>
        <time>2020-08-13T22:08:21Z</time>
      </trkpt>
      <trkpt lat="48.613028" lon="-2.06518">
        <ele>47.2</ele>
        <time>2020-08-13T22:08:24Z</time>
      </trkpt>
      <trkpt lat="48.61314" lon="-2.064908">
        <ele>47.0</ele>
        <time>2020-08-13T22:08:25Z</time>
      </trkpt>
      <trkpt lat="48.61327" lon="-2.064511">
        <ele>47.0</ele>
        <time>2020-08-13T22:08:27Z</time>
      </trkpt>
      <trkpt lat="48.61334" lon="-2.064243">
        <ele>46.4</ele>
        <time>2020-08-13T22:08:29Z</time>
      </trkpt>
      <trkpt lat="48.613441" lon="-2.063667">
        <ele>46.4</ele>
        <time>2020-08-13T22:08:31Z</time>
      </trkpt>
      <trkpt lat="48.613472" lon="-2.063405">
        <ele>46.4</ele>
        <time>2020-08-13T22:08:33Z</time>
      </trkpt>
      <trkpt lat="48.613499" lon="-2.062908">
        <ele>45.4</ele>
        <time>2020-08-13T22:08:35Z</time>
      </trkpt>
      <trkpt lat="48.613476" lon="-2.062285">
        <ele>44.8</ele>
        <time>2020-08-13T22:08:38Z</time>
      </trkpt>
      <trkpt lat="48.613186" lon="-2.058927">
        <ele>39.6</ele>
        <time>2020-08-13T22:08:53Z</time>
      </trkpt>
      <trkpt lat="48.613121" lon="-2.057948">
        <ele>38.4</ele>
        <time>2020-08-13T22:08:57Z</time>
      </trkpt>
      <trkpt lat="48.613094" lon="-2.056563">
        <ele>37.0</ele>
        <time>2020-08-13T22:09:04Z</time>
      </trkpt>
      <trkpt lat="48.613109" lon="-2.055655">
        <ele>37.4</ele>
        <time>2020-08-13T22:09:08Z</time>
      </trkpt>
      <trkpt lat="48.613299" lon="-2.049671">
        <ele>41.2</ele>
        <time>2020-08-13T22:09:35Z</time>
      </trkpt>
      <trkpt lat="48.613405" lon="-2.045814">
        <ele>46.2</ele>
        <time>2020-08-13T22:09:53Z</time>
      </trkpt>
      <trkpt lat="48.613496" lon="-2.043319">
        <ele>45.8</ele>
        <time>2020-08-13T22:10:04Z</time>
      </trkpt>
      <trkpt lat="48.61359" lon="-2.039971">
        <ele>41.2</ele>
        <time>2020-08-13T22:10:19Z</time>
      </trkpt>
      <trkpt lat="48.613626" lon="-2.039163">
        <ele>41.2</ele>
        <time>2020-08-13T22:10:23Z</time>
      </trkpt>
      <trkpt lat="48.613681" lon="-2.036499">
        <ele>31.4</ele>
        <time>2020-08-13T22:10:35Z</time>
      </trkpt>
      <trkpt lat="48.61382" lon="-2.03544">
        <ele>27.0</ele>
        <time>2020-08-13T22:10:40Z</time>
      </trkpt>
      <trkpt lat="48.613898" lon="-2.035002">
        <ele>27.0</ele>
        <time>2020-08-13T22:10:42Z</time>
      </trkpt>
      <trkpt lat="48.614273" lon="-2.033406">
        <ele>22.0</ele>
        <time>2020-08-13T22:10:50Z</time>
      </trkpt>
      <trkpt lat="48.614854" lon="-2.031087">
        <ele>10.2</ele>
        <time>2020-08-13T22:11:01Z</time>
      </trkpt>
      <trkpt lat="48.614987" lon="-2.030671">
        <ele>10.25</ele>
        <time>2020-08-13T22:11:03Z</time>
      </trkpt>
      <trkpt lat="48.615191" lon="-2.030268">
        <ele>18.0</ele>
        <time>2020-08-13T22:11:05Z</time>
      </trkpt>
      <trkpt lat="48.615313" lon="-2.030113">
        <ele>18.0</ele>
        <time>2020-08-13T22:11:06Z</time>
      </trkpt>
      <trkpt lat="48.615498" lon="-2.029941">
        <ele>14.6</ele>
        <time>2020-08-13T22:11:08Z</time>
      </trkpt>
      <trkpt lat="48.615688" lon="-2.029826">
        <ele>14.6</ele>
        <time>2020-08-13T22:11:09Z</time>
      </trkpt>
      <trkpt lat="48.616623" lon="-2.02946">
        <ele>18.4</ele>
        <time>2020-08-13T22:11:16Z</time>
      </trkpt>
      <trkpt lat="48.616853" lon="-2.029295">
        <ele>21.2</ele>
        <time>2020-08-13T22:11:18Z</time>
      </trkpt>
      <trkpt lat="48.617018" lon="-2.029071">
        <ele>10.4</ele>
        <time>2020-08-13T22:11:19Z</time>
      </trkpt>
      <trkpt lat="48.617085" lon="-2.028925">
        <ele>10.4</ele>
        <time>2020-08-13T22:11:20Z</time>
      </trkpt>
      <trkpt lat="48.617155" lon="-2.028709">
        <ele>10.4</ele>
        <time>2020-08-13T22:11:21Z</time>
      </trkpt>
      <trkpt lat="48.618399" lon="-2.021901">
        <ele>0.0</ele>
        <time>2020-08-13T22:11:53Z</time>
      </trkpt>
      <trkpt lat="48.618593" lon="-2.020469">
        <ele>6.0</ele>
        <time>2020-08-13T22:12:00Z</time>
      </trkpt>
      <trkpt lat="48.618781" lon="-2.018904">
        <ele>7.0</ele>
        <time>2020-08-13T22:12:07Z</time>
      </trkpt>
      <trkpt lat="48.618759" lon="-2.018559">
        <ele>7.0</ele>
        <time>2020-08-13T22:12:09Z</time>
      </trkpt>
      <trkpt lat="48.618718" lon="-2.018367">
        <ele>7.0</ele>
        <time>2020-08-13T22:12:10Z</time>
      </trkpt>
      <trkpt lat="48.618603" lon="-2.018072">
        <ele>9.75</ele>
        <time>2020-08-13T22:12:11Z</time>
      </trkpt>
      <trkpt lat="48.618526" lon="-2.017942">
        <ele>9.75</ele>
        <time>2020-08-13T22:12:12Z</time>
      </trkpt>
      <trkpt lat="48.618441" lon="-2.017844">
        <ele>9.75</ele>
        <time>2020-08-13T22:12:13Z</time>
      </trkpt>
      <trkpt lat="48.617783" lon="-2.017272">
        <ele>14.67</ele>
        <time>2020-08-13T22:12:18Z</time>
      </trkpt>
      <trkpt lat="48.617683" lon="-2.017162">
        <ele>14.67</ele>
        <time>2020-08-13T22:12:19Z</time>
      </trkpt>
      <trkpt lat="48.617504" lon="-2.016943">
        <ele>14.67</ele>
        <time>2020-08-13T22:12:20Z</time>
      </trkpt>
      <trkpt lat="48.616247" lon="-2.015183">
        <ele>0.0</ele>
        <time>2020-08-13T22:12:32Z</time>
      </trkpt>
      <trkpt lat="48.616095" lon="-2.015012">
        <ele>0.0</ele>
        <time>2020-08-13T22:12:34Z</time>
      </trkpt>
      <trkpt lat="48.615833" lon="-2.014812">
        <ele>19.25</ele>
        <time>2020-08-13T22:12:36Z</time>
      </trkpt>
      <trkpt lat="48.615553" lon="-2.014723">
        <ele>14.4</ele>
        <time>2020-08-13T22:12:38Z</time>
      </trkpt>
      <trkpt lat="48.614944" lon="-2.014647">
        <ele>13.0</ele>
        <time>2020-08-13T22:12:42Z</time>
      </trkpt>
      <trkpt lat="48.61478" lon="-2.014591">
        <ele>13.0</ele>
        <time>2020-08-13T22:12:43Z</time>
      </trkpt>
      <trkpt lat="48.614631" lon="-2.014514">
        <ele>13.0</ele>
        <time>2020-08-13T22:12:44Z</time>
      </trkpt>
      <trkpt lat="48.614527" lon="-2.014432">
        <ele>13.0</ele>
        <time>2020-08-13T22:12:45Z</time>
      </trkpt>
      <trkpt lat="48.614331" lon="-2.014221">
        <ele>13.0</ele>
        <time>2020-08-13T22:12:47Z</time>
      </trkpt>
      <trkpt lat="48.61425" lon="-2.014098">
        <ele>20.2</ele>
        <time>2020-08-13T22:12:48Z</time>
      </trkpt>
      <trkpt lat="48.614161" lon="-2.013916">
        <ele>14.0</ele>
        <time>2020-08-13T22:12:49Z</time>
      </trkpt>
      <trkpt lat="48.614029" lon="-2.013515">
        <ele>14.0</ele>
        <time>2020-08-13T22:12:51Z</time>
      </trkpt>
      <trkpt lat="48.613977" lon="-2.013156">
        <ele>16.25</ele>
        <time>2020-08-13T22:12:52Z</time>
      </trkpt>
      <trkpt lat="48.613973" lon="-2.012786">
        <ele>16.25</ele>
        <time>2020-08-13T22:12:54Z</time>
      </trkpt>
      <trkpt lat="48.614001" lon="-2.012575">
        <ele>16.25</ele>
        <time>2020-08-13T22:12:55Z</time>
      </trkpt>
      <trkpt lat="48.614111" lon="-2.012155">
        <ele>18.0</ele>
        <time>2020-08-13T22:12:57Z</time>
      </trkpt>
      <trkpt lat="48.614204" lon="-2.01194">
        <ele>28.6</ele>
        <time>2020-08-13T22:12:58Z</time>
      </trkpt>
      <trkpt lat="48.614327" lon="-2.011725">
        <ele>28.6</ele>
        <time>2020-08-13T22:13:00Z</time>
      </trkpt>
      <trkpt lat="48.614572" lon="-2.011394">
        <ele>28.4</ele>
        <time>2020-08-13T22:13:02Z</time>
      </trkpt>
      <trkpt lat="48.616431" lon="-2.009051">
        <ele>36.4</ele>
        <time>2020-08-13T22:13:19Z</time>
      </trkpt>
      <trkpt lat="48.616653" lon="-2.008741">
        <ele>36.4</ele>
        <time>2020-08-13T22:13:21Z</time>
      </trkpt>
      <trkpt lat="48.616834" lon="-2.008444">
        <ele>41.4</ele>
        <time>2020-08-13T22:13:23Z</time>
      </trkpt>
      <trkpt lat="48.616988" lon="-2.008152">
        <ele>39.4</ele>
        <time>2020-08-13T22:13:24Z</time>
      </trkpt>
      <trkpt lat="48.617109" lon="-2.007881">
        <ele>39.4</ele>
        <time>2020-08-13T22:13:26Z</time>
      </trkpt>
      <trkpt lat="48.617332" lon="-2.007239">
        <ele>36.4</ele>
        <time>2020-08-13T22:13:29Z</time>
      </trkpt>
      <trkpt lat="48.617453" lon="-2.00672">
        <ele>36.4</ele>
        <time>2020-08-13T22:13:32Z</time>
      </trkpt>
      <trkpt lat="48.617524" lon="-2.006335">
        <ele>37.4</ele>
        <time>2020-08-13T22:13:33Z</time>
      </trkpt>
      <trkpt lat="48.617565" lon="-2.005954">
        <ele>37.4</ele>
        <time>2020-08-13T22:13:35Z</time>
      </trkpt>
      <trkpt lat="48.617584" lon="-2.005545">
        <ele>36.8</ele>
        <time>2020-08-13T22:13:37Z</time>
      </trkpt>
      <trkpt lat="48.617581" lon="-2.001215">
        <ele>31.6</ele>
        <time>2020-08-13T22:13:57Z</time>
      </trkpt>
      <trkpt lat="48.617599" lon="-1.997635">
        <ele>32.2</ele>
        <time>2020-08-13T22:14:13Z</time>
      </trkpt>
      <trkpt lat="48.617622" lon="-1.997177">
        <ele>33.2</ele>
        <time>2020-08-13T22:14:15Z</time>
      </trkpt>
      <trkpt lat="48.617667" lon="-1.99674">
        <ele>33.2</ele>
        <time>2020-08-13T22:14:17Z</time>
      </trkpt>
      <trkpt lat="48.617743" lon="-1.996326">
        <ele>33.0</ele>
        <time>2020-08-13T22:14:19Z</time>
      </trkpt>
      <trkpt lat="48.617876" lon="-1.995743">
        <ele>32.0</ele>
        <time>2020-08-13T22:14:22Z</time>
      </trkpt>
      <trkpt lat="48.618039" lon="-1.995227">
        <ele>32.0</ele>
        <time>2020-08-13T22:14:24Z</time>
      </trkpt>
      <trkpt lat="48.618881" lon="-1.99299">
        <ele>30.2</ele>
        <time>2020-08-13T22:14:36Z</time>
      </trkpt>
      <trkpt lat="48.619234" lon="-1.992172">
        <ele>31.8</ele>
        <time>2020-08-13T22:14:40Z</time>
      </trkpt>
      <trkpt lat="48.619625" lon="-1.991401">
        <ele>31.8</ele>
        <time>2020-08-13T22:14:45Z</time>
      </trkpt>
      <trkpt lat="48.619852" lon="-1.991019">
        <ele>31.8</ele>
        <time>2020-08-13T22:14:47Z</time>
      </trkpt>
      <trkpt lat="48.620105" lon="-1.990637">
        <ele>34.0</ele>
        <time>2020-08-13T22:14:50Z</time>
      </trkpt>
      <trkpt lat="48.620358" lon="-1.990313">
        <ele>34.0</ele>
        <time>2020-08-13T22:14:52Z</time>
      </trkpt>
      <trkpt lat="48.62083" lon="-1.989812">
        <ele>33.6</ele>
        <time>2020-08-13T22:14:56Z</time>
      </trkpt>
      <trkpt lat="48.621075" lon="-1.989611">
        <ele>35.8</ele>
        <time>2020-08-13T22:14:58Z</time>
      </trkpt>
      <trkpt lat="48.621535" lon="-1.989289">
        <ele>35.8</ele>
        <time>2020-08-13T22:15:01Z</time>
      </trkpt>
      <trkpt lat="48.621725" lon="-1.989179">
        <ele>37.6</ele>
        <time>2020-08-13T22:15:03Z</time>
      </trkpt>
      <trkpt lat="48.621944" lon="-1.989076">
        <ele>37.6</ele>
        <time>2020-08-13T22:15:04Z</time>
      </trkpt>
      <trkpt lat="48.622494" lon="-1.988882">
        <ele>37.6</ele>
        <time>2020-08-13T22:15:08Z</time>
      </trkpt>
      <trkpt lat="48.62283" lon="-1.988811">
        <ele>38.2</ele>
        <time>2020-08-13T22:15:10Z</time>
      </trkpt>
      <trkpt lat="48.62329" lon="-1.988749">
        <ele>38.2</ele>
        <time>2020-08-13T22:15:14Z</time>
      </trkpt>
      <trkpt lat="48.623986" lon="-1.988706">
        <ele>37.6</ele>
        <time>2020-08-13T22:15:18Z</time>
      </trkpt>
      <trkpt lat="48.624921" lon="-1.988695">
        <ele>36.8</ele>
        <time>2020-08-13T22:15:25Z</time>
      </trkpt>
      <trkpt lat="48.625574" lon="-1.988557">
        <ele>37.8</ele>
        <time>2020-08-13T22:15:31Z</time>
      </trkpt>
      <trkpt lat="48.625668" lon="-1.98833">
        <ele>39.2</ele>
        <time>2020-08-13T22:15:33Z</time>
      </trkpt>
      <trkpt lat="48.625819" lon="-1.988161">
        <ele>39.2</ele>
        <time>2020-08-13T22:15:35Z</time>
      </trkpt>
      <trkpt lat="48.625992" lon="-1.988093">
        <ele>39.6</ele>
        <time>2020-08-13T22:15:37Z</time>
      </trkpt>
      <trkpt lat="48.626155" lon="-1.988117">
        <ele>39.6</ele>
        <time>2020-08-13T22:15:40Z</time>
      </trkpt>
      <trkpt lat="48.626379" lon="-1.987862">
        <ele>39.6</ele>
        <time>2020-08-13T22:15:43Z</time>
      </trkpt>
      <trkpt lat="48.626454" lon="-1.98761">
        <ele>39.6</ele>
        <time>2020-08-13T22:15:45Z</time>
      </trkpt>
      <trkpt lat="48.626647" lon="-1.986399">
        <ele>40.4</ele>
        <time>2020-08-13T22:15:53Z</time>
      </trkpt>
      <trkpt lat="48.626638" lon="-1.985674">
        <ele>40.4</ele>
        <time>2020-08-13T22:15:58Z</time>
      </trkpt>
      <trkpt lat="48.626545" lon="-1.985526">
        <ele>40.4</ele>
        <time>2020-08-13T22:16:00Z</time>
      </trkpt>
      <trkpt lat="48.626499" lon="-1.985494">
        <ele>40.4</ele>
        <time>2020-08-13T22:16:00Z</time>
      </trkpt>
      <trkpt lat="48.626431" lon="-1.985381">
        <ele>40.4</ele>
        <time>2020-08-13T22:16:01Z</time>
      </trkpt>
      <trkpt lat="48.626413" lon="-1.985214">
        <ele>40.4</ele>
        <time>2020-08-13T22:16:02Z</time>
      </trkpt>
      <trkpt lat="48.626432" lon="-1.985125">
        <ele>40.4</ele>
        <time>2020-08-13T22:16:03Z</time>
      </trkpt>
      <trkpt lat="48.6265" lon="-1.985013">
        <ele>40.4</ele>
        <time>2020-08-13T22:16:04Z</time>
      </trkpt>
      <trkpt lat="48.626566" lon="-1.984828">
        <ele>40.0</ele>
        <time>2020-08-13T22:16:05Z</time>
      </trkpt>
      <trkpt lat="48.626589" lon="-1.984713">
        <ele>40.0</ele>
        <time>2020-08-13T22:16:06Z</time>
      </trkpt>
      <trkpt lat="48.626614" lon="-1.984521">
        <ele>40.0</ele>
        <time>2020-08-13T22:16:08Z</time>
      </trkpt>
      <trkpt lat="48.626704" lon="-1.982816">
        <ele>38.6</ele>
        <time>2020-08-13T22:16:19Z</time>
      </trkpt>
      <trkpt lat="48.626743" lon="-1.982534">
        <ele>38.6</ele>
        <time>2020-08-13T22:16:21Z</time>
      </trkpt>
      <trkpt lat="48.626891" lon="-1.981945">
        <ele>37.2</ele>
        <time>2020-08-13T22:16:25Z</time>
      </trkpt>
      <trkpt lat="48.627068" lon="-1.981496">
        <ele>34.4</ele>
        <time>2020-08-13T22:16:29Z</time>
      </trkpt>
      <trkpt lat="48.627302" lon="-1.981065">
        <ele>34.4</ele>
        <time>2020-08-13T22:16:33Z</time>
      </trkpt>
      <trkpt lat="48.628036" lon="-1.979809">
        <ele>27.0</ele>
        <time>2020-08-13T22:16:44Z</time>
      </trkpt>
      <trkpt lat="48.628171" lon="-1.979529">
        <ele>27.0</ele>
        <time>2020-08-13T22:16:46Z</time>
      </trkpt>
      <trkpt lat="48.628216" lon="-1.979333">
        <ele>27.0</ele>
        <time>2020-08-13T22:16:48Z</time>
      </trkpt>
      <trkpt lat="48.628231" lon="-1.97915">
        <ele>25.4</ele>
        <time>2020-08-13T22:16:49Z</time>
      </trkpt>
      <trkpt lat="48.628229" lon="-1.979101">
        <ele>25.4</ele>
        <time>2020-08-13T22:16:49Z</time>
      </trkpt>
      <trkpt lat="48.628256" lon="-1.979012">
        <ele>25.4</ele>
        <time>2020-08-13T22:16:50Z</time>
      </trkpt>
      <trkpt lat="48.628315" lon="-1.978968">
        <ele>25.4</ele>
        <time>2020-08-13T22:16:50Z</time>
      </trkpt>
      <trkpt lat="48.628448" lon="-1.978727">
        <ele>23.4</ele>
        <time>2020-08-13T22:16:52Z</time>
      </trkpt>
      <trkpt lat="48.628513" lon="-1.978478">
        <ele>23.4</ele>
        <time>2020-08-13T22:16:54Z</time>
      </trkpt>
      <trkpt lat="48.628582" lon="-1.97808">
        <ele>23.0</ele>
        <time>2020-08-13T22:16:56Z</time>
      </trkpt>
      <trkpt lat="48.62866" lon="-1.977253">
        <ele>22.8</ele>
        <time>2020-08-13T22:17:00Z</time>
      </trkpt>
      <trkpt lat="48.628887" lon="-1.970758">
        <ele>34.6</ele>
        <time>2020-08-13T22:17:36Z</time>
      </trkpt>
      <trkpt lat="48.628939" lon="-1.969858">
        <ele>34.0</ele>
        <time>2020-08-13T22:17:41Z</time>
      </trkpt>
      <trkpt lat="48.629018" lon="-1.9692">
        <ele>34.0</ele>
        <time>2020-08-13T22:17:45Z</time>
      </trkpt>
      <trkpt lat="48.629275" lon="-1.967715">
        <ele>24.0</ele>
        <time>2020-08-13T22:17:53Z</time>
      </trkpt>
      <trkpt lat="48.629214" lon="-1.967643">
        <ele>24.0</ele>
        <time>2020-08-13T22:17:54Z</time>
      </trkpt>
      <trkpt lat="48.629197" lon="-1.967536">
        <ele>24.0</ele>
        <time>2020-08-13T22:17:54Z</time>
      </trkpt>
      <trkpt lat="48.629228" lon="-1.96744">
        <ele>21.0</ele>
        <time>2020-08-13T22:17:54Z</time>
      </trkpt>
      <trkpt lat="48.629289" lon="-1.967394">
        <ele>21.0</ele>
        <time>2020-08-13T22:17:55Z</time>
      </trkpt>
      <trkpt lat="48.629324" lon="-1.967396">
        <ele>21.0</ele>
        <time>2020-08-13T22:17:55Z</time>
      </trkpt>
      <trkpt lat="48.62954" lon="-1.966109">
        <ele>16.2</ele>
        <time>2020-08-13T22:17:59Z</time>
      </trkpt>
      <trkpt lat="48.629628" lon="-1.965402">
        <ele>11.4</ele>
        <time>2020-08-13T22:18:02Z</time>
      </trkpt>
      <trkpt lat="48.629869" lon="-1.962217">
        <ele>18.2</ele>
        <time>2020-08-13T22:18:13Z</time>
      </trkpt>
      <trkpt lat="48.629994" lon="-1.961143">
        <ele>21.8</ele>
        <time>2020-08-13T22:18:16Z</time>
      </trkpt>
      <trkpt lat="48.630258" lon="-1.959553">
        <ele>28.0</ele>
        <time>2020-08-13T22:18:22Z</time>
      </trkpt>
      <trkpt lat="48.630494" lon="-1.958444">
        <ele>30.4</ele>
        <time>2020-08-13T22:18:26Z</time>
      </trkpt>
      <trkpt lat="48.630582" lon="-1.958072">
        <ele>32.0</ele>
        <time>2020-08-13T22:18:27Z</time>
      </trkpt>
      <trkpt lat="48.630953" lon="-1.956762">
        <ele>31.8</ele>
        <time>2020-08-13T22:18:32Z</time>
      </trkpt>
      <trkpt lat="48.631288" lon="-1.955723">
        <ele>29.8</ele>
        <time>2020-08-13T22:18:36Z</time>
      </trkpt>
      <trkpt lat="48.631622" lon="-1.954837">
        <ele>29.4</ele>
        <time>2020-08-13T22:18:39Z</time>
      </trkpt>
      <trkpt lat="48.632989" lon="-1.951438">
        <ele>28.6</ele>
        <time>2020-08-13T22:18:53Z</time>
      </trkpt>
      <trkpt lat="48.633153" lon="-1.950963">
        <ele>28.6</ele>
        <time>2020-08-13T22:18:55Z</time>
      </trkpt>
      <trkpt lat="48.633397" lon="-1.950054">
        <ele>31.4</ele>
        <time>2020-08-13T22:18:58Z</time>
      </trkpt>
      <trkpt lat="48.63342" lon="-1.950103">
        <ele>31.4</ele>
        <time>2020-08-13T22:18:58Z</time>
      </trkpt>
      <trkpt lat="48.634023" lon="-1.950527">
        <ele>31.4</ele>
        <time>2020-08-13T22:19:04Z</time>
      </trkpt>
      <trkpt lat="48.634911" lon="-1.951109">
        <ele>32.8</ele>
        <time>2020-08-13T22:19:11Z</time>
      </trkpt>
      <trkpt lat="48.635598" lon="-1.951641">
        <ele>35.4</ele>
        <time>2020-08-13T22:19:18Z</time>
      </trkpt>
      <trkpt lat="48.635782" lon="-1.951665">
        <ele>35.4</ele>
        <time>2020-08-13T22:19:19Z</time>
      </trkpt>
      <trkpt lat="48.636238" lon="-1.9515">
        <ele>37.8</ele>
        <time>2020-08-13T22:19:23Z</time>
      </trkpt>
      <trkpt lat="48.636372" lon="-1.951476">
        <ele>37.8</ele>
        <time>2020-08-13T22:19:24Z</time>
      </trkpt>
      <trkpt lat="48.636515" lon="-1.951485">
        <ele>37.8</ele>
        <time>2020-08-13T22:19:25Z</time>
      </trkpt>
      <trkpt lat="48.636653" lon="-1.951548">
        <ele>37.8</ele>
        <time>2020-08-13T22:19:26Z</time>
      </trkpt>
      <trkpt lat="48.636775" lon="-1.951665">
        <ele>38.4</ele>
        <time>2020-08-13T22:19:28Z</time>
      </trkpt>
      <trkpt lat="48.637592" lon="-1.95262">
        <ele>37.0</ele>
        <time>2020-08-13T22:19:36Z</time>
      </trkpt>
      <trkpt lat="48.638342" lon="-1.9536">
        <ele>36.8</ele>
        <time>2020-08-13T22:19:44Z</time>
      </trkpt>
      <trkpt lat="48.638967" lon="-1.954493">
        <ele>35.4</ele>
        <time>2020-08-13T22:19:51Z</time>
      </trkpt>
      <trkpt lat="48.639054" lon="-1.954576">
        <ele>35.4</ele>
        <time>2020-08-13T22:19:52Z</time>
      </trkpt>
      <trkpt lat="48.64041" lon="-1.955443">
        <ele>33.4</ele>
        <time>2020-08-13T22:20:04Z</time>
      </trkpt>
      <trkpt lat="48.640604" lon="-1.955555">
        <ele>33.4</ele>
        <time>2020-08-13T22:20:05Z</time>
      </trkpt>
      <trkpt lat="48.641396" lon="-1.955921">
        <ele>33.0</ele>
        <time>2020-08-13T22:20:12Z</time>
      </trkpt>
      <trkpt lat="48.64158" lon="-1.956041">
        <ele>33.0</ele>
        <time>2020-08-13T22:20:14Z</time>
      </trkpt>
      <trkpt lat="48.642258" lon="-1.956569">
        <ele>35.2</ele>
        <time>2020-08-13T22:20:20Z</time>
      </trkpt>
      <trkpt lat="48.642587" lon="-1.956919">
        <ele>38.0</ele>
        <time>2020-08-13T22:20:23Z</time>
      </trkpt>
      <trkpt lat="48.64278" lon="-1.957196">
        <ele>38.0</ele>
        <time>2020-08-13T22:20:25Z</time>
      </trkpt>
      <trkpt lat="48.643052" lon="-1.957714">
        <ele>37.4</ele>
        <time>2020-08-13T22:20:29Z</time>
      </trkpt>
      <trkpt lat="48.643461" lon="-1.958421">
        <ele>38.4</ele>
        <time>2020-08-13T22:20:34Z</time>
      </trkpt>
      <trkpt lat="48.644102" lon="-1.959612">
        <ele>37.0</ele>
        <time>2020-08-13T22:20:42Z</time>
      </trkpt>
      <trkpt lat="48.644254" lon="-1.959866">
        <ele>35.6</ele>
        <time>2020-08-13T22:20:44Z</time>
      </trkpt>
      <trkpt lat="48.645354" lon="-1.961317">
        <ele>31.0</ele>
        <time>2020-08-13T22:20:56Z</time>
      </trkpt>
      <trkpt lat="48.645925" lon="-1.961829">
        <ele>28.8</ele>
        <time>2020-08-13T22:21:01Z</time>
      </trkpt>
      <trkpt lat="48.647341" lon="-1.962752">
        <ele>26.4</ele>
        <time>2020-08-13T22:21:13Z</time>
      </trkpt>
      <trkpt lat="48.647507" lon="-1.962873">
        <ele>26.2</ele>
        <time>2020-08-13T22:21:15Z</time>
      </trkpt>
      <trkpt lat="48.647599" lon="-1.962986">
        <ele>26.2</ele>
        <time>2020-08-13T22:21:16Z</time>
      </trkpt>
      <trkpt lat="48.647642" lon="-1.963085">
        <ele>26.2</ele>
        <time>2020-08-13T22:21:16Z</time>
      </trkpt>
      <trkpt lat="48.647667" lon="-1.963239">
        <ele>26.2</ele>
        <time>2020-08-13T22:21:17Z</time>
      </trkpt>
      <trkpt lat="48.647735" lon="-1.964604">
        <ele>26.4</ele>
        <time>2020-08-13T22:21:25Z</time>
      </trkpt>
      <trkpt lat="48.647724" lon="-1.965676">
        <ele>25.8</ele>
        <time>2020-08-13T22:21:30Z</time>
      </trkpt>
      <trkpt lat="48.64774" lon="-1.965827">
        <ele>25.8</ele>
        <time>2020-08-13T22:21:31Z</time>
      </trkpt>
      <trkpt lat="48.647776" lon="-1.96594">
        <ele>25.4</ele>
        <time>2020-08-13T22:21:32Z</time>
      </trkpt>
      <trkpt lat="48.647839" lon="-1.966064">
        <ele>25.4</ele>
        <time>2020-08-13T22:21:33Z</time>
      </trkpt>
      <trkpt lat="48.648011" lon="-1.966247">
        <ele>25.4</ele>
        <time>2020-08-13T22:21:34Z</time>
      </trkpt>
      <trkpt lat="48.648982" lon="-1.966934">
        <ele>25.0</ele>
        <time>2020-08-13T22:21:43Z</time>
      </trkpt>
      <trkpt lat="48.649131" lon="-1.96706">
        <ele>25.0</ele>
        <time>2020-08-13T22:21:44Z</time>
      </trkpt>
      <trkpt lat="48.649392" lon="-1.967306">
        <ele>23.8</ele>
        <time>2020-08-13T22:21:47Z</time>
      </trkpt>
      <trkpt lat="48.649759" lon="-1.967747">
        <ele>23.2</ele>
        <time>2020-08-13T22:21:51Z</time>
      </trkpt>
      <trkpt lat="48.650102" lon="-1.968321">
        <ele>21.8</ele>
        <time>2020-08-13T22:21:55Z</time>
      </trkpt>
      <trkpt lat="48.651048" lon="-1.970344">
        <ele>21.4</ele>
        <time>2020-08-13T22:22:08Z</time>
      </trkpt>
      <trkpt lat="48.651129" lon="-1.970478">
        <ele>21.4</ele>
        <time>2020-08-13T22:22:09Z</time>
      </trkpt>
      <trkpt lat="48.651208" lon="-1.970407">
        <ele>21.4</ele>
        <time>2020-08-13T22:22:10Z</time>
      </trkpt>
      <trkpt lat="48.651334" lon="-1.970387">
        <ele>21.4</ele>
        <time>2020-08-13T22:22:12Z</time>
      </trkpt>
      <trkpt lat="48.65145" lon="-1.970484">
        <ele>21.4</ele>
        <time>2020-08-13T22:22:14Z</time>
      </trkpt>
      <trkpt lat="48.651496" lon="-1.970574">
        <ele>21.4</ele>
        <time>2020-08-13T22:22:15Z</time>
      </trkpt>
      <trkpt lat="48.651523" lon="-1.97076">
        <ele>21.4</ele>
        <time>2020-08-13T22:22:16Z</time>
      </trkpt>
      <trkpt lat="48.651505" lon="-1.970879">
        <ele>22.8</ele>
        <time>2020-08-13T22:22:17Z</time>
      </trkpt>
      <trkpt lat="48.651462" lon="-1.970982">
        <ele>22.8</ele>
        <time>2020-08-13T22:22:18Z</time>
      </trkpt>
      <trkpt lat="48.65158" lon="-1.971157">
        <ele>22.8</ele>
        <time>2020-08-13T22:22:21Z</time>
      </trkpt>
      <trkpt lat="48.652247" lon="-1.972746">
        <ele>28.0</ele>
        <time>2020-08-13T22:22:37Z</time>
      </trkpt>
      <trkpt lat="48.652319" lon="-1.972842">
        <ele>28.0</ele>
        <time>2020-08-13T22:22:38Z</time>
      </trkpt>
      <trkpt lat="48.652408" lon="-1.972917">
        <ele>28.0</ele>
        <time>2020-08-13T22:22:40Z</time>
      </trkpt>
      <trkpt lat="48.652477" lon="-1.97283">
        <ele>28.0</ele>
        <time>2020-08-13T22:22:41Z</time>
      </trkpt>
      <trkpt lat="48.652566" lon="-1.972817">
        <ele>29.4</ele>
        <time>2020-08-13T22:22:42Z</time>
      </trkpt>
      <trkpt lat="48.652645" lon="-1.972883">
        <ele>29.4</ele>
        <time>2020-08-13T22:22:43Z</time>
      </trkpt>
      <trkpt lat="48.652679" lon="-1.972976">
        <ele>29.4</ele>
        <time>2020-08-13T22:22:44Z</time>
      </trkpt>
      <trkpt lat="48.652751" lon="-1.973046">
        <ele>29.4</ele>
        <time>2020-08-13T22:22:45Z</time>
      </trkpt>
      <trkpt lat="48.65287" lon="-1.973119">
        <ele>29.4</ele>
        <time>2020-08-13T22:22:46Z</time>
      </trkpt>
      <trkpt lat="48.652882" lon="-1.973154">
        <ele>29.4</ele>
        <time>2020-08-13T22:22:47Z</time>
      </trkpt>
      <trkpt lat="48.654596" lon="-1.973666">
        <ele>29.2</ele>
        <time>2020-08-13T22:23:05Z</time>
      </trkpt>
      <trkpt lat="48.654883" lon="-1.973684">
        <ele>29.2</ele>
        <time>2020-08-13T22:23:07Z</time>
      </trkpt>
      <trkpt lat="48.655585" lon="-1.973903">
        <ele>28.8</ele>
        <time>2020-08-13T22:23:15Z</time>
      </trkpt>
      <trkpt lat="48.655607" lon="-1.973938">
        <ele>28.8</ele>
        <time>2020-08-13T22:23:15Z</time>
      </trkpt>
      <trkpt lat="48.656758" lon="-1.974301">
        <ele>29.0</ele>
        <time>2020-08-13T22:23:27Z</time>
      </trkpt>
      <trkpt lat="48.657111" lon="-1.974581">
        <ele>29.0</ele>
        <time>2020-08-13T22:23:31Z</time>
      </trkpt>
      <trkpt lat="48.657283" lon="-1.974843">
        <ele>29.0</ele>
        <time>2020-08-13T22:23:34Z</time>
      </trkpt>
      <trkpt lat="48.657926" lon="-1.975244">
        <ele>28.8</ele>
        <time>2020-08-13T22:23:41Z</time>
      </trkpt>
      <trkpt lat="48.659514" lon="-1.976385">
        <ele>28.8</ele>
        <time>2020-08-13T22:23:59Z</time>
      </trkpt>
      <trkpt lat="48.66002" lon="-1.976685">
        <ele>28.0</ele>
        <time>2020-08-13T22:24:04Z</time>
      </trkpt>
      <trkpt lat="48.660378" lon="-1.976849">
        <ele>28.0</ele>
        <time>2020-08-13T22:24:08Z</time>
      </trkpt>
      <trkpt lat="48.661226" lon="-1.977165">
        <ele>28.2</ele>
        <time>2020-08-13T22:24:17Z</time>
      </trkpt>
      <trkpt lat="48.66136" lon="-1.977236">
        <ele>28.2</ele>
        <time>2020-08-13T22:24:19Z</time>
      </trkpt>
      <trkpt lat="48.661376" lon="-1.977211">
        <ele>28.2</ele>
        <time>2020-08-13T22:24:19Z</time>
      </trkpt>
      <trkpt lat="48.661441" lon="-1.977194">
        <ele>28.2</ele>
        <time>2020-08-13T22:24:19Z</time>
      </trkpt>
      <trkpt lat="48.661464" lon="-1.977214">
        <ele>28.2</ele>
        <time>2020-08-13T22:24:20Z</time>
      </trkpt>
      <trkpt lat="48.661488" lon="-1.977285">
        <ele>28.2</ele>
        <time>2020-08-13T22:24:20Z</time>
      </trkpt>
      <trkpt lat="48.661485" lon="-1.977325">
        <ele>28.2</ele>
        <time>2020-08-13T22:24:21Z</time>
      </trkpt>
      <trkpt lat="48.661518" lon="-1.977347">
        <ele>28.2</ele>
        <time>2020-08-13T22:24:21Z</time>
      </trkpt>
      <trkpt lat="48.662006" lon="-1.977305">
        <ele>28.2</ele>
        <time>2020-08-13T22:24:26Z</time>
      </trkpt>
      <trkpt lat="48.663048" lon="-1.977409">
        <ele>27.0</ele>
        <time>2020-08-13T22:24:37Z</time>
      </trkpt>
      <trkpt lat="48.663265" lon="-1.977463">
        <ele>27.0</ele>
        <time>2020-08-13T22:24:39Z</time>
      </trkpt>
      <trkpt lat="48.663543" lon="-1.97757">
        <ele>25.2</ele>
        <time>2020-08-13T22:24:42Z</time>
      </trkpt>
      <trkpt lat="48.665013" lon="-1.978158">
        <ele>22.6</ele>
        <time>2020-08-13T22:24:57Z</time>
      </trkpt>
      <trkpt lat="48.665357" lon="-1.978393">
        <ele>22.0</ele>
        <time>2020-08-13T22:25:01Z</time>
      </trkpt>
      <trkpt lat="48.665957" lon="-1.978926">
        <ele>22.4</ele>
        <time>2020-08-13T22:25:08Z</time>
      </trkpt>
      <trkpt lat="48.666111" lon="-1.979039">
        <ele>22.4</ele>
        <time>2020-08-13T22:25:10Z</time>
      </trkpt>
      <trkpt lat="48.666321" lon="-1.979138">
        <ele>22.4</ele>
        <time>2020-08-13T22:25:12Z</time>
      </trkpt>
      <trkpt lat="48.666746" lon="-1.97922">
        <ele>22.8</ele>
        <time>2020-08-13T22:25:17Z</time>
      </trkpt>
      <trkpt lat="48.66769" lon="-1.979563">
        <ele>24.2</ele>
        <time>2020-08-13T22:25:27Z</time>
      </trkpt>
      <trkpt lat="48.668534" lon="-1.980046">
        <ele>26.0</ele>
        <time>2020-08-13T22:25:36Z</time>
      </trkpt>
      <trkpt lat="48.668703" lon="-1.980193">
        <ele>26.0</ele>
        <time>2020-08-13T22:25:38Z</time>
      </trkpt>
      <trkpt lat="48.669187" lon="-1.980802">
        <ele>26.0</ele>
        <time>2020-08-13T22:25:44Z</time>
      </trkpt>
      <trkpt lat="48.670433" lon="-1.982391">
        <ele>22.4</ele>
        <time>2020-08-13T22:26:01Z</time>
      </trkpt>
      <trkpt lat="48.670672" lon="-1.982731">
        <ele>17.8</ele>
        <time>2020-08-13T22:26:04Z</time>
      </trkpt>
      <trkpt lat="48.670705" lon="-1.982815">
        <ele>17.8</ele>
        <time>2020-08-13T22:26:05Z</time>
      </trkpt>
      <trkpt lat="48.670909" lon="-1.982713">
        <ele>17.33</ele>
        <time>2020-08-13T22:26:07Z</time>
      </trkpt>
      <trkpt lat="48.673001" lon="-1.98149">
        <ele>18.4</ele>
        <time>2020-08-13T22:26:32Z</time>
      </trkpt>
      <trkpt lat="48.67325" lon="-1.981361">
        <ele>18.4</ele>
        <time>2020-08-13T22:26:35Z</time>
      </trkpt>
      <trkpt lat="48.676225" lon="-1.979606">
        <ele>12.4</ele>
        <time>2020-08-13T22:27:11Z</time>
      </trkpt>
      <trkpt lat="48.676587" lon="-1.97942">
        <ele>12.4</ele>
        <time>2020-08-13T22:27:15Z</time>
      </trkpt>
      <trkpt lat="48.676917" lon="-1.979297">
        <ele>11.8</ele>
        <time>2020-08-13T22:27:19Z</time>
      </trkpt>
      <trkpt lat="48.678322" lon="-1.978936">
        <ele>13.4</ele>
        <time>2020-08-13T22:27:35Z</time>
      </trkpt>
      <trkpt lat="48.678426" lon="-1.978889">
        <ele>15.8</ele>
        <time>2020-08-13T22:27:36Z</time>
      </trkpt>
      <trkpt lat="48.678536" lon="-1.978809">
        <ele>15.8</ele>
        <time>2020-08-13T22:27:38Z</time>
      </trkpt>
      <trkpt lat="48.679968" lon="-1.977387">
        <ele>15.4</ele>
        <time>2020-08-13T22:27:57Z</time>
      </trkpt>
      <trkpt lat="48.680163" lon="-1.977096">
        <ele>16.0</ele>
        <time>2020-08-13T22:28:00Z</time>
      </trkpt>
      <trkpt lat="48.680265" lon="-1.97669">
        <ele>16.0</ele>
        <time>2020-08-13T22:28:03Z</time>
      </trkpt>
      <trkpt lat="48.680443" lon="-1.975397">
        <ele>15.0</ele>
        <time>2020-08-13T22:28:13Z</time>
      </trkpt>
      <trkpt lat="48.68047" lon="-1.975119">
        <ele>15.0</ele>
        <time>2020-08-13T22:28:15Z</time>
      </trkpt>
      <trkpt lat="48.680476" lon="-1.974824">
        <ele>14.0</ele>
        <time>2020-08-13T22:28:17Z</time>
      </trkpt>
      <trkpt lat="48.680462" lon="-1.97435">
        <ele>14.0</ele>
        <time>2020-08-13T22:28:20Z</time>
      </trkpt>
      <trkpt lat="48.680499" lon="-1.973939">
        <ele>14.2</ele>
        <time>2020-08-13T22:28:23Z</time>
      </trkpt>
      <trkpt lat="48.680579" lon="-1.973522">
        <ele>14.2</ele>
        <time>2020-08-13T22:28:27Z</time>
      </trkpt>
      <trkpt lat="48.680661" lon="-1.973201">
        <ele>14.4</ele>
        <time>2020-08-13T22:28:29Z</time>
      </trkpt>
      <trkpt lat="48.679636" lon="-1.972316">
        <ele>13.6</ele>
        <time>2020-08-13T22:28:51Z</time>
      </trkpt>
      <trkpt lat="48.679222" lon="-1.973466">
        <ele>11.9</ele>
        <time>2020-08-13T22:29:07Z</time>
      </trkpt>
      <trkpt lat="48.679222" lon="-1.973466">
        <ele>11.9</ele>
        <time>2020-08-13T22:29:07Z</time>
      </trkpt>
      <trkpt lat="48.679057" lon="-1.973847">
        <ele>11.6</ele>
        <time>2020-08-13T22:29:12Z</time>
      </trkpt>
      <trkpt lat="48.679158" lon="-1.973919">
        <ele>11.6</ele>
        <time>2020-08-13T22:29:15Z</time>
      </trkpt>
      <trkpt lat="48.679277" lon="-1.973964">
        <ele>12.2</ele>
        <time>2020-08-13T22:29:17Z</time>
      </trkpt>
      <trkpt lat="48.67959" lon="-1.974004">
        <ele>12.2</ele>
        <time>2020-08-13T22:29:23Z</time>
      </trkpt>
      <trkpt lat="48.679754" lon="-1.974054">
        <ele>12.2</ele>
        <time>2020-08-13T22:29:26Z</time>
      </trkpt>
      <trkpt lat="48.680313" lon="-1.974315">
        <ele>14.0</ele>
        <time>2020-08-13T22:29:36Z</time>
      </trkpt>
      <trkpt lat="48.680462" lon="-1.97435">
        <ele>14.0</ele>
        <time>2020-08-13T22:29:39Z</time>
      </trkpt>
      <trkpt lat="48.680499" lon="-1.973939">
        <ele>14.2</ele>
        <time>2020-08-13T22:29:42Z</time>
      </trkpt>
      <trkpt lat="48.680602" lon="-1.973419">
        <ele>14.2</ele>
        <time>2020-08-13T22:29:46Z</time>
      </trkpt>
      <trkpt lat="48.681024" lon="-1.971963">
        <ele>18.6</ele>
        <time>2020-08-13T22:29:56Z</time>
      </trkpt>
      <trkpt lat="48.681643" lon="-1.969417">
        <ele>18.8</ele>
        <time>2020-08-13T22:30:15Z</time>
      </trkpt>
      <trkpt lat="48.681753" lon="-1.968891">
        <ele>23.4</ele>
        <time>2020-08-13T22:30:18Z</time>
      </trkpt>
      <trkpt lat="48.68185" lon="-1.968155">
        <ele>22.6</ele>
        <time>2020-08-13T22:30:24Z</time>
      </trkpt>
      <trkpt lat="48.681836" lon="-1.968057">
        <ele>22.6</ele>
        <time>2020-08-13T22:30:24Z</time>
      </trkpt>
      <trkpt lat="48.681759" lon="-1.967975">
        <ele>22.6</ele>
        <time>2020-08-13T22:30:25Z</time>
      </trkpt>
      <trkpt lat="48.681206" lon="-1.967782">
        <ele>20.2</ele>
        <time>2020-08-13T22:30:31Z</time>
      </trkpt>
      <trkpt lat="48.681139" lon="-1.967721">
        <ele>20.2</ele>
        <time>2020-08-13T22:30:32Z</time>
      </trkpt>
      <trkpt lat="48.681131" lon="-1.967568">
        <ele>20.2</ele>
        <time>2020-08-13T22:30:33Z</time>
      </trkpt>
      <trkpt lat="48.681208" lon="-1.967006">
        <ele>18.8</ele>
        <time>2020-08-13T22:30:35Z</time>
      </trkpt>
      <trkpt lat="48.681214" lon="-1.966835">
        <ele>18.8</ele>
        <time>2020-08-13T22:30:35Z</time>
      </trkpt>
      <trkpt lat="48.681185" lon="-1.965366">
        <ele>15.0</ele>
        <time>2020-08-13T22:30:41Z</time>
      </trkpt>
      <trkpt lat="48.681228" lon="-1.965057">
        <ele>15.0</ele>
        <time>2020-08-13T22:30:42Z</time>
      </trkpt>
      <trkpt lat="48.681389" lon="-1.964321">
        <ele>13.8</ele>
        <time>2020-08-13T22:30:45Z</time>
      </trkpt>
      <trkpt lat="48.681395" lon="-1.964149">
        <ele>13.4</ele>
        <time>2020-08-13T22:30:46Z</time>
      </trkpt>
      <trkpt lat="48.681379" lon="-1.964041">
        <ele>13.4</ele>
        <time>2020-08-13T22:30:46Z</time>
      </trkpt>
      <trkpt lat="48.681245" lon="-1.963686">
        <ele>13.4</ele>
        <time>2020-08-13T22:30:48Z</time>
      </trkpt>
      <trkpt lat="48.681013" lon="-1.96318">
        <ele>12.8</ele>
        <time>2020-08-13T22:30:50Z</time>
      </trkpt>
      <trkpt lat="48.680199" lon="-1.962064">
        <ele>12.4</ele>
        <time>2020-08-13T22:30:56Z</time>
      </trkpt>
      <trkpt lat="48.679654" lon="-1.961243">
        <ele>12.8</ele>
        <time>2020-08-13T22:31:01Z</time>
      </trkpt>
      <trkpt lat="48.679545" lon="-1.961026">
        <ele>12.8</ele>
        <time>2020-08-13T22:31:02Z</time>
      </trkpt>
      <trkpt lat="48.679448" lon="-1.960677">
        <ele>14.0</ele>
        <time>2020-08-13T22:31:03Z</time>
      </trkpt>
      <trkpt lat="48.6794" lon="-1.960393">
        <ele>14.0</ele>
        <time>2020-08-13T22:31:04Z</time>
      </trkpt>
      <trkpt lat="48.679385" lon="-1.960039">
        <ele>14.0</ele>
        <time>2020-08-13T22:31:05Z</time>
      </trkpt>
      <trkpt lat="48.679428" lon="-1.958007">
        <ele>17.0</ele>
        <time>2020-08-13T22:31:13Z</time>
      </trkpt>
      <trkpt lat="48.679473" lon="-1.957556">
        <ele>17.0</ele>
        <time>2020-08-13T22:31:15Z</time>
      </trkpt>
      <trkpt lat="48.679717" lon="-1.955979">
        <ele>15.6</ele>
        <time>2020-08-13T22:31:21Z</time>
      </trkpt>
      <trkpt lat="48.679806" lon="-1.955541">
        <ele>15.6</ele>
        <time>2020-08-13T22:31:23Z</time>
      </trkpt>
      <trkpt lat="48.679923" lon="-1.955155">
        <ele>15.6</ele>
        <time>2020-08-13T22:31:24Z</time>
      </trkpt>
      <trkpt lat="48.680388" lon="-1.953897">
        <ele>13.0</ele>
        <time>2020-08-13T22:31:30Z</time>
      </trkpt>
      <trkpt lat="48.681851" lon="-1.950341">
        <ele>11.2</ele>
        <time>2020-08-13T22:31:45Z</time>
      </trkpt>
      <trkpt lat="48.681916" lon="-1.950124">
        <ele>11.2</ele>
        <time>2020-08-13T22:31:46Z</time>
      </trkpt>
      <trkpt lat="48.681953" lon="-1.949892">
        <ele>12.2</ele>
        <time>2020-08-13T22:31:47Z</time>
      </trkpt>
      <trkpt lat="48.681955" lon="-1.949664">
        <ele>12.2</ele>
        <time>2020-08-13T22:31:48Z</time>
      </trkpt>
      <trkpt lat="48.681939" lon="-1.949391">
        <ele>12.2</ele>
        <time>2020-08-13T22:31:49Z</time>
      </trkpt>
      <trkpt lat="48.681851" lon="-1.948528">
        <ele>15.6</ele>
        <time>2020-08-13T22:31:52Z</time>
      </trkpt>
      <trkpt lat="48.681804" lon="-1.948233">
        <ele>18.2</ele>
        <time>2020-08-13T22:31:54Z</time>
      </trkpt>
      <trkpt lat="48.681734" lon="-1.947943">
        <ele>18.2</ele>
        <time>2020-08-13T22:31:55Z</time>
      </trkpt>
      <trkpt lat="48.681642" lon="-1.947686">
        <ele>18.8</ele>
        <time>2020-08-13T22:31:56Z</time>
      </trkpt>
      <trkpt lat="48.68063" lon="-1.945678">
        <ele>25.0</ele>
        <time>2020-08-13T22:32:05Z</time>
      </trkpt>
      <trkpt lat="48.68031" lon="-1.945227">
        <ele>25.0</ele>
        <time>2020-08-13T22:32:08Z</time>
      </trkpt>
      <trkpt lat="48.680084" lon="-1.944988">
        <ele>26.6</ele>
        <time>2020-08-13T22:32:09Z</time>
      </trkpt>
      <trkpt lat="48.679865" lon="-1.944799">
        <ele>29.4</ele>
        <time>2020-08-13T22:32:11Z</time>
      </trkpt>
      <trkpt lat="48.678901" lon="-1.944231">
        <ele>32.4</ele>
        <time>2020-08-13T22:32:17Z</time>
      </trkpt>
      <trkpt lat="48.678753" lon="-1.944094">
        <ele>34.8</ele>
        <time>2020-08-13T22:32:18Z</time>
      </trkpt>
      <trkpt lat="48.678614" lon="-1.943903">
        <ele>34.8</ele>
        <time>2020-08-13T22:32:19Z</time>
      </trkpt>
      <trkpt lat="48.678508" lon="-1.943701">
        <ele>34.8</ele>
        <time>2020-08-13T22:32:20Z</time>
      </trkpt>
      <trkpt lat="48.678431" lon="-1.943471">
        <ele>34.8</ele>
        <time>2020-08-13T22:32:21Z</time>
      </trkpt>
      <trkpt lat="48.678387" lon="-1.943233">
        <ele>34.2</ele>
        <time>2020-08-13T22:32:22Z</time>
      </trkpt>
      <trkpt lat="48.678377" lon="-1.942847">
        <ele>34.2</ele>
        <time>2020-08-13T22:32:23Z</time>
      </trkpt>
      <trkpt lat="48.678428" lon="-1.942482">
        <ele>32.0</ele>
        <time>2020-08-13T22:32:25Z</time>
      </trkpt>
      <trkpt lat="48.678621" lon="-1.941556">
        <ele>31.0</ele>
        <time>2020-08-13T22:32:28Z</time>
      </trkpt>
      <trkpt lat="48.678741" lon="-1.941145">
        <ele>31.0</ele>
        <time>2020-08-13T22:32:30Z</time>
      </trkpt>
      <trkpt lat="48.679761" lon="-1.938357">
        <ele>20.0</ele>
        <time>2020-08-13T22:32:42Z</time>
      </trkpt>
      <trkpt lat="48.679852" lon="-1.938056">
        <ele>16.2</ele>
        <time>2020-08-13T22:32:43Z</time>
      </trkpt>
      <trkpt lat="48.679992" lon="-1.937276">
        <ele>12.6</ele>
        <time>2020-08-13T22:32:46Z</time>
      </trkpt>
      <trkpt lat="48.680429" lon="-1.93449">
        <ele>10.4</ele>
        <time>2020-08-13T22:32:57Z</time>
      </trkpt>
      <trkpt lat="48.680503" lon="-1.934265">
        <ele>10.4</ele>
        <time>2020-08-13T22:32:58Z</time>
      </trkpt>
      <trkpt lat="48.680579" lon="-1.934116">
        <ele>14.0</ele>
        <time>2020-08-13T22:32:59Z</time>
      </trkpt>
      <trkpt lat="48.680808" lon="-1.933869">
        <ele>14.0</ele>
        <time>2020-08-13T22:33:00Z</time>
      </trkpt>
      <trkpt lat="48.680958" lon="-1.933798">
        <ele>16.0</ele>
        <time>2020-08-13T22:33:01Z</time>
      </trkpt>
      <trkpt lat="48.681108" lon="-1.933778">
        <ele>16.0</ele>
        <time>2020-08-13T22:33:02Z</time>
      </trkpt>
      <trkpt lat="48.681344" lon="-1.933858">
        <ele>16.0</ele>
        <time>2020-08-13T22:33:04Z</time>
      </trkpt>
      <trkpt lat="48.68148" lon="-1.933963">
        <ele>16.0</ele>
        <time>2020-08-13T22:33:04Z</time>
      </trkpt>
      <trkpt lat="48.681568" lon="-1.93409">
        <ele>16.0</ele>
        <time>2020-08-13T22:33:05Z</time>
      </trkpt>
      <trkpt lat="48.681665" lon="-1.934291">
        <ele>12.8</ele>
        <time>2020-08-13T22:33:06Z</time>
      </trkpt>
      <trkpt lat="48.68184" lon="-1.934747">
        <ele>15.4</ele>
        <time>2020-08-13T22:33:08Z</time>
      </trkpt>
      <trkpt lat="48.681933" lon="-1.934912">
        <ele>15.4</ele>
        <time>2020-08-13T22:33:09Z</time>
      </trkpt>
      <trkpt lat="48.682146" lon="-1.935165">
        <ele>10.0</ele>
        <time>2020-08-13T22:33:10Z</time>
      </trkpt>
      <trkpt lat="48.682324" lon="-1.935281">
        <ele>10.0</ele>
        <time>2020-08-13T22:33:12Z</time>
      </trkpt>
      <trkpt lat="48.684103" lon="-1.936196">
        <ele>11.4</ele>
        <time>2020-08-13T22:33:22Z</time>
      </trkpt>
      <trkpt lat="48.684988" lon="-1.936534">
        <ele>15.8</ele>
        <time>2020-08-13T22:33:27Z</time>
      </trkpt>
      <trkpt lat="48.68524" lon="-1.936557">
        <ele>21.8</ele>
        <time>2020-08-13T22:33:29Z</time>
      </trkpt>
      <trkpt lat="48.685491" lon="-1.936468">
        <ele>21.8</ele>
        <time>2020-08-13T22:33:30Z</time>
      </trkpt>
      <trkpt lat="48.685626" lon="-1.936369">
        <ele>21.8</ele>
        <time>2020-08-13T22:33:31Z</time>
      </trkpt>
      <trkpt lat="48.68954" lon="-1.932721">
        <ele>31.6</ele>
        <time>2020-08-13T22:33:57Z</time>
      </trkpt>
      <trkpt lat="48.689692" lon="-1.932536">
        <ele>31.6</ele>
        <time>2020-08-13T22:33:59Z</time>
      </trkpt>
      <trkpt lat="48.689777" lon="-1.932354">
        <ele>31.8</ele>
        <time>2020-08-13T22:33:59Z</time>
      </trkpt>
      <trkpt lat="48.689815" lon="-1.932187">
        <ele>31.8</ele>
        <time>2020-08-13T22:34:00Z</time>
      </trkpt>
      <trkpt lat="48.689828" lon="-1.932045">
        <ele>31.8</ele>
        <time>2020-08-13T22:34:01Z</time>
      </trkpt>
      <trkpt lat="48.689822" lon="-1.931875">
        <ele>31.8</ele>
        <time>2020-08-13T22:34:01Z</time>
      </trkpt>
      <trkpt lat="48.689796" lon="-1.931706">
        <ele>31.8</ele>
        <time>2020-08-13T22:34:02Z</time>
      </trkpt>
      <trkpt lat="48.689131" lon="-1.929492">
        <ele>33.4</ele>
        <time>2020-08-13T22:34:11Z</time>
      </trkpt>
      <trkpt lat="48.689075" lon="-1.929221">
        <ele>33.4</ele>
        <time>2020-08-13T22:34:12Z</time>
      </trkpt>
      <trkpt lat="48.689041" lon="-1.92895">
        <ele>32.2</ele>
        <time>2020-08-13T22:34:13Z</time>
      </trkpt>
      <trkpt lat="48.688962" lon="-1.926609">
        <ele>33.4</ele>
        <time>2020-08-13T22:34:22Z</time>
      </trkpt>
      <trkpt lat="48.688968" lon="-1.924145">
        <ele>36.0</ele>
        <time>2020-08-13T22:34:31Z</time>
      </trkpt>
      <trkpt lat="48.688985" lon="-1.923819">
        <ele>36.0</ele>
        <time>2020-08-13T22:34:33Z</time>
      </trkpt>
      <trkpt lat="48.68926" lon="-1.921126">
        <ele>38.2</ele>
        <time>2020-08-13T22:34:43Z</time>
      </trkpt>
      <trkpt lat="48.689294" lon="-1.920613">
        <ele>39.2</ele>
        <time>2020-08-13T22:34:45Z</time>
      </trkpt>
      <trkpt lat="48.689281" lon="-1.919986">
        <ele>40.8</ele>
        <time>2020-08-13T22:34:47Z</time>
      </trkpt>
      <trkpt lat="48.68922" lon="-1.919322">
        <ele>40.8</ele>
        <time>2020-08-13T22:34:50Z</time>
      </trkpt>
      <trkpt lat="48.689144" lon="-1.918859">
        <ele>40.8</ele>
        <time>2020-08-13T22:34:51Z</time>
      </trkpt>
      <trkpt lat="48.689045" lon="-1.918461">
        <ele>40.8</ele>
        <time>2020-08-13T22:34:53Z</time>
      </trkpt>
      <trkpt lat="48.68878" lon="-1.917588">
        <ele>42.0</ele>
        <time>2020-08-13T22:34:57Z</time>
      </trkpt>
      <trkpt lat="48.688713" lon="-1.917237">
        <ele>41.6</ele>
        <time>2020-08-13T22:34:58Z</time>
      </trkpt>
      <trkpt lat="48.688689" lon="-1.916946">
        <ele>41.6</ele>
        <time>2020-08-13T22:34:59Z</time>
      </trkpt>
      <trkpt lat="48.688694" lon="-1.916647">
        <ele>40.4</ele>
        <time>2020-08-13T22:35:00Z</time>
      </trkpt>
      <trkpt lat="48.688846" lon="-1.915321">
        <ele>40.4</ele>
        <time>2020-08-13T22:35:05Z</time>
      </trkpt>
      <trkpt lat="48.688858" lon="-1.914923">
        <ele>40.4</ele>
        <time>2020-08-13T22:35:07Z</time>
      </trkpt>
      <trkpt lat="48.688761" lon="-1.914185">
        <ele>40.4</ele>
        <time>2020-08-13T22:35:10Z</time>
      </trkpt>
      <trkpt lat="48.688685" lon="-1.913799">
        <ele>40.0</ele>
        <time>2020-08-13T22:35:11Z</time>
      </trkpt>
      <trkpt lat="48.68854" lon="-1.913281">
        <ele>39.4</ele>
        <time>2020-08-13T22:35:13Z</time>
      </trkpt>
      <trkpt lat="48.688381" lon="-1.912894">
        <ele>39.4</ele>
        <time>2020-08-13T22:35:15Z</time>
      </trkpt>
      <trkpt lat="48.688008" lon="-1.912089">
        <ele>41.8</ele>
        <time>2020-08-13T22:35:19Z</time>
      </trkpt>
      <trkpt lat="48.687926" lon="-1.911852">
        <ele>41.8</ele>
        <time>2020-08-13T22:35:20Z</time>
      </trkpt>
      <trkpt lat="48.687891" lon="-1.911663">
        <ele>41.6</ele>
        <time>2020-08-13T22:35:20Z</time>
      </trkpt>
      <trkpt lat="48.68788" lon="-1.911462">
        <ele>41.6</ele>
        <time>2020-08-13T22:35:21Z</time>
      </trkpt>
      <trkpt lat="48.687884" lon="-1.91062">
        <ele>41.6</ele>
        <time>2020-08-13T22:35:24Z</time>
      </trkpt>
      <trkpt lat="48.687861" lon="-1.910154">
        <ele>41.6</ele>
        <time>2020-08-13T22:35:26Z</time>
      </trkpt>
      <trkpt lat="48.687809" lon="-1.909628">
        <ele>41.0</ele>
        <time>2020-08-13T22:35:28Z</time>
      </trkpt>
      <trkpt lat="48.687799" lon="-1.909302">
        <ele>41.0</ele>
        <time>2020-08-13T22:35:29Z</time>
      </trkpt>
      <trkpt lat="48.687844" lon="-1.908817">
        <ele>39.4</ele>
        <time>2020-08-13T22:35:31Z</time>
      </trkpt>
      <trkpt lat="48.688197" lon="-1.907036">
        <ele>35.2</ele>
        <time>2020-08-13T22:35:38Z</time>
      </trkpt>
      <trkpt lat="48.688282" lon="-1.906765">
        <ele>35.2</ele>
        <time>2020-08-13T22:35:39Z</time>
      </trkpt>
      <trkpt lat="48.688385" lon="-1.906556">
        <ele>31.6</ele>
        <time>2020-08-13T22:35:40Z</time>
      </trkpt>
      <trkpt lat="48.688663" lon="-1.906187">
        <ele>31.6</ele>
        <time>2020-08-13T22:35:42Z</time>
      </trkpt>
      <trkpt lat="48.688909" lon="-1.905799">
        <ele>30.0</ele>
        <time>2020-08-13T22:35:45Z</time>
      </trkpt>
      <trkpt lat="48.689509" lon="-1.904636">
        <ele>22.2</ele>
        <time>2020-08-13T22:35:50Z</time>
      </trkpt>
      <trkpt lat="48.689815" lon="-1.904011">
        <ele>19.6</ele>
        <time>2020-08-13T22:35:53Z</time>
      </trkpt>
      <trkpt lat="48.6899" lon="-1.903781">
        <ele>19.6</ele>
        <time>2020-08-13T22:35:54Z</time>
      </trkpt>
      <trkpt lat="48.689966" lon="-1.903576">
        <ele>19.6</ele>
        <time>2020-08-13T22:35:55Z</time>
      </trkpt>
      <trkpt lat="48.690044" lon="-1.903251">
        <ele>12.25</ele>
        <time>2020-08-13T22:35:56Z</time>
      </trkpt>
      <trkpt lat="48.690396" lon="-1.901312">
        <ele>9.0</ele>
        <time>2020-08-13T22:36:04Z</time>
      </trkpt>
      <trkpt lat="48.690488" lon="-1.900889">
        <ele>9.0</ele>
        <time>2020-08-13T22:36:05Z</time>
      </trkpt>
      <trkpt lat="48.690678" lon="-1.900186">
        <ele>6.75</ele>
        <time>2020-08-13T22:36:08Z</time>
      </trkpt>
      <trkpt lat="48.690857" lon="-1.899625">
        <ele>5.66</ele>
        <time>2020-08-13T22:36:11Z</time>
      </trkpt>
      <trkpt lat="48.691927" lon="-1.896815">
        <ele>0.0</ele>
        <time>2020-08-13T22:36:23Z</time>
      </trkpt>
      <trkpt lat="48.692224" lon="-1.896187">
        <ele>4.33</ele>
        <time>2020-08-13T22:36:26Z</time>
      </trkpt>
      <trkpt lat="48.692578" lon="-1.895567">
        <ele>0.0</ele>
        <time>2020-08-13T22:36:29Z</time>
      </trkpt>
      <trkpt lat="48.692769" lon="-1.895309">
        <ele>0.0</ele>
        <time>2020-08-13T22:36:30Z</time>
      </trkpt>
      <trkpt lat="48.693355" lon="-1.894589">
        <ele>0.0</ele>
        <time>2020-08-13T22:36:35Z</time>
      </trkpt>
      <trkpt lat="48.693823" lon="-1.894172">
        <ele>0.0</ele>
        <time>2020-08-13T22:36:38Z</time>
      </trkpt>
      <trkpt lat="48.69415" lon="-1.893848">
        <ele>4.5</ele>
        <time>2020-08-13T22:36:40Z</time>
      </trkpt>
      <trkpt lat="48.694375" lon="-1.89355">
        <ele>5.0</ele>
        <time>2020-08-13T22:36:42Z</time>
      </trkpt>
      <trkpt lat="48.694576" lon="-1.893206">
        <ele>4.4</ele>
        <time>2020-08-13T22:36:43Z</time>
      </trkpt>
      <trkpt lat="48.694663" lon="-1.892984">
        <ele>4.4</ele>
        <time>2020-08-13T22:36:44Z</time>
      </trkpt>
      <trkpt lat="48.694745" lon="-1.892661">
        <ele>4.4</ele>
        <time>2020-08-13T22:36:46Z</time>
      </trkpt>
      <trkpt lat="48.694807" lon="-1.892151">
        <ele>4.2</ele>
        <time>2020-08-13T22:36:48Z</time>
      </trkpt>
      <trkpt lat="48.694807" lon="-1.891915">
        <ele>4.2</ele>
        <time>2020-08-13T22:36:49Z</time>
      </trkpt>
      <trkpt lat="48.694785" lon="-1.891613">
        <ele>4.8</ele>
        <time>2020-08-13T22:36:50Z</time>
      </trkpt>
      <trkpt lat="48.694743" lon="-1.891369">
        <ele>4.8</ele>
        <time>2020-08-13T22:36:51Z</time>
      </trkpt>
      <trkpt lat="48.694617" lon="-1.890974">
        <ele>4.8</ele>
        <time>2020-08-13T22:36:52Z</time>
      </trkpt>
      <trkpt lat="48.694505" lon="-1.89074">
        <ele>9.6</ele>
        <time>2020-08-13T22:36:53Z</time>
      </trkpt>
      <trkpt lat="48.694316" lon="-1.890431">
        <ele>9.6</ele>
        <time>2020-08-13T22:36:55Z</time>
      </trkpt>
      <trkpt lat="48.694084" lon="-1.890115">
        <ele>5.8</ele>
        <time>2020-08-13T22:36:57Z</time>
      </trkpt>
      <trkpt lat="48.693755" lon="-1.889764">
        <ele>11.8</ele>
        <time>2020-08-13T22:36:59Z</time>
      </trkpt>
      <trkpt lat="48.693266" lon="-1.88939">
        <ele>7.8</ele>
        <time>2020-08-13T22:37:02Z</time>
      </trkpt>
      <trkpt lat="48.693197" lon="-1.889281">
        <ele>7.8</ele>
        <time>2020-08-13T22:37:03Z</time>
      </trkpt>
      <trkpt lat="48.693168" lon="-1.889191">
        <ele>7.8</ele>
        <time>2020-08-13T22:37:03Z</time>
      </trkpt>
      <trkpt lat="48.693134" lon="-1.88897">
        <ele>13.8</ele>
        <time>2020-08-13T22:37:04Z</time>
      </trkpt>
      <trkpt lat="48.693156" lon="-1.888764">
        <ele>13.8</ele>
        <time>2020-08-13T22:37:05Z</time>
      </trkpt>
      <trkpt lat="48.693207" lon="-1.88863">
        <ele>13.8</ele>
        <time>2020-08-13T22:37:06Z</time>
      </trkpt>
      <trkpt lat="48.693321" lon="-1.888453">
        <ele>13.8</ele>
        <time>2020-08-13T22:37:06Z</time>
      </trkpt>
      <trkpt lat="48.693459" lon="-1.888326">
        <ele>22.2</ele>
        <time>2020-08-13T22:37:07Z</time>
      </trkpt>
      <trkpt lat="48.693791" lon="-1.888076">
        <ele>22.2</ele>
        <time>2020-08-13T22:37:10Z</time>
      </trkpt>
      <trkpt lat="48.693883" lon="-1.887967">
        <ele>22.2</ele>
        <time>2020-08-13T22:37:10Z</time>
      </trkpt>
      <trkpt lat="48.693988" lon="-1.887796">
        <ele>22.2</ele>
        <time>2020-08-13T22:37:11Z</time>
      </trkpt>
      <trkpt lat="48.694056" lon="-1.88762">
        <ele>22.2</ele>
        <time>2020-08-13T22:37:12Z</time>
      </trkpt>
      <trkpt lat="48.694129" lon="-1.887159">
        <ele>24.2</ele>
        <time>2020-08-13T22:37:14Z</time>
      </trkpt>
      <trkpt lat="48.694125" lon="-1.886885">
        <ele>24.2</ele>
        <time>2020-08-13T22:37:15Z</time>
      </trkpt>
      <trkpt lat="48.694066" lon="-1.886583">
        <ele>25.0</ele>
        <time>2020-08-13T22:37:16Z</time>
      </trkpt>
      <trkpt lat="48.693405" lon="-1.88411">
        <ele>26.2</ele>
        <time>2020-08-13T22:37:26Z</time>
      </trkpt>
      <trkpt lat="48.693268" lon="-1.883776">
        <ele>28.6</ele>
        <time>2020-08-13T22:37:27Z</time>
      </trkpt>
      <trkpt lat="48.693121" lon="-1.883482">
        <ele>28.6</ele>
        <time>2020-08-13T22:37:29Z</time>
      </trkpt>
      <trkpt lat="48.692961" lon="-1.883251">
        <ele>28.2</ele>
        <time>2020-08-13T22:37:30Z</time>
      </trkpt>
      <trkpt lat="48.692443" lon="-1.882751">
        <ele>30.6</ele>
        <time>2020-08-13T22:37:34Z</time>
      </trkpt>
      <trkpt lat="48.692345" lon="-1.882683">
        <ele>30.6</ele>
        <time>2020-08-13T22:37:34Z</time>
      </trkpt>
      <trkpt lat="48.692131" lon="-1.882585">
        <ele>30.6</ele>
        <time>2020-08-13T22:37:35Z</time>
      </trkpt>
      <trkpt lat="48.691111" lon="-1.882287">
        <ele>33.6</ele>
        <time>2020-08-13T22:37:41Z</time>
      </trkpt>
      <trkpt lat="48.690741" lon="-1.88212">
        <ele>36.6</ele>
        <time>2020-08-13T22:37:44Z</time>
      </trkpt>
      <trkpt lat="48.690373" lon="-1.881836">
        <ele>36.6</ele>
        <time>2020-08-13T22:37:46Z</time>
      </trkpt>
      <trkpt lat="48.690118" lon="-1.881562">
        <ele>37.0</ele>
        <time>2020-08-13T22:37:48Z</time>
      </trkpt>
      <trkpt lat="48.689873" lon="-1.881254">
        <ele>38.0</ele>
        <time>2020-08-13T22:37:50Z</time>
      </trkpt>
      <trkpt lat="48.689571" lon="-1.880712">
        <ele>37.2</ele>
        <time>2020-08-13T22:37:52Z</time>
      </trkpt>
      <trkpt lat="48.68946" lon="-1.880464">
        <ele>37.2</ele>
        <time>2020-08-13T22:37:53Z</time>
      </trkpt>
      <trkpt lat="48.689295" lon="-1.88002">
        <ele>37.2</ele>
        <time>2020-08-13T22:37:55Z</time>
      </trkpt>
      <trkpt lat="48.689193" lon="-1.879586">
        <ele>34.8</ele>
        <time>2020-08-13T22:37:57Z</time>
      </trkpt>
      <trkpt lat="48.689089" lon="-1.879009">
        <ele>35.4</ele>
        <time>2020-08-13T22:37:59Z</time>
      </trkpt>
      <trkpt lat="48.689054" lon="-1.878574">
        <ele>35.4</ele>
        <time>2020-08-13T22:38:01Z</time>
      </trkpt>
      <trkpt lat="48.689058" lon="-1.878027">
        <ele>33.8</ele>
        <time>2020-08-13T22:38:03Z</time>
      </trkpt>
      <trkpt lat="48.689115" lon="-1.877356">
        <ele>32.4</ele>
        <time>2020-08-13T22:38:06Z</time>
      </trkpt>
      <trkpt lat="48.689216" lon="-1.876888">
        <ele>27.6</ele>
        <time>2020-08-13T22:38:07Z</time>
      </trkpt>
      <trkpt lat="48.689318" lon="-1.876533">
        <ele>27.8</ele>
        <time>2020-08-13T22:38:09Z</time>
      </trkpt>
      <trkpt lat="48.689548" lon="-1.875977">
        <ele>27.8</ele>
        <time>2020-08-13T22:38:11Z</time>
      </trkpt>
      <trkpt lat="48.691223" lon="-1.872893">
        <ele>31.0</ele>
        <time>2020-08-13T22:38:26Z</time>
      </trkpt>
      <trkpt lat="48.691491" lon="-1.87231">
        <ele>33.0</ele>
        <time>2020-08-13T22:38:29Z</time>
      </trkpt>
      <trkpt lat="48.691715" lon="-1.871773">
        <ele>31.8</ele>
        <time>2020-08-13T22:38:31Z</time>
      </trkpt>
      <trkpt lat="48.691905" lon="-1.871257">
        <ele>34.0</ele>
        <time>2020-08-13T22:38:34Z</time>
      </trkpt>
      <trkpt lat="48.694601" lon="-1.861779">
        <ele>44.8</ele>
        <time>2020-08-13T22:39:13Z</time>
      </trkpt>
      <trkpt lat="48.6948" lon="-1.861355">
        <ele>46.2</ele>
        <time>2020-08-13T22:39:15Z</time>
      </trkpt>
      <trkpt lat="48.694976" lon="-1.861111">
        <ele>46.2</ele>
        <time>2020-08-13T22:39:16Z</time>
      </trkpt>
      <trkpt lat="48.695227" lon="-1.860837">
        <ele>42.6</ele>
        <time>2020-08-13T22:39:18Z</time>
      </trkpt>
      <trkpt lat="48.695329" lon="-1.860756">
        <ele>47.0</ele>
        <time>2020-08-13T22:39:18Z</time>
      </trkpt>
      <trkpt lat="48.695651" lon="-1.860563">
        <ele>47.0</ele>
        <time>2020-08-13T22:39:20Z</time>
      </trkpt>
      <trkpt lat="48.695951" lon="-1.860475">
        <ele>43.2</ele>
        <time>2020-08-13T22:39:22Z</time>
      </trkpt>
      <trkpt lat="48.69956" lon="-1.860288">
        <ele>34.4</ele>
        <time>2020-08-13T22:39:43Z</time>
      </trkpt>
      <trkpt lat="48.700051" lon="-1.860225">
        <ele>29.0</ele>
        <time>2020-08-13T22:39:46Z</time>
      </trkpt>
      <trkpt lat="48.700238" lon="-1.860156">
        <ele>29.0</ele>
        <time>2020-08-13T22:39:47Z</time>
      </trkpt>
      <trkpt lat="48.700208" lon="-1.859814">
        <ele>38.6</ele>
        <time>2020-08-13T22:39:52Z</time>
      </trkpt>
      <trkpt lat="48.700239" lon="-1.859307">
        <ele>38.6</ele>
        <time>2020-08-13T22:39:58Z</time>
      </trkpt>
      <trkpt lat="48.700217" lon="-1.858654">
        <ele>42.0</ele>
        <time>2020-08-13T22:40:06Z</time>
      </trkpt>
      <trkpt lat="48.700227" lon="-1.858423">
        <ele>42.0</ele>
        <time>2020-08-13T22:40:09Z</time>
      </trkpt>
      <trkpt lat="48.700264" lon="-1.858107">
        <ele>42.4</ele>
        <time>2020-08-13T22:40:12Z</time>
      </trkpt>
      <trkpt lat="48.700344" lon="-1.857626">
        <ele>42.4</ele>
        <time>2020-08-13T22:40:18Z</time>
      </trkpt>
      <trkpt lat="48.700353" lon="-1.857456">
        <ele>42.4</ele>
        <time>2020-08-13T22:40:21Z</time>
      </trkpt>
      <trkpt lat="48.700264" lon="-1.857106">
        <ele>42.4</ele>
        <time>2020-08-13T22:40:25Z</time>
      </trkpt>
      <trkpt lat="48.700088" lon="-1.856278">
        <ele>42.6</ele>
        <time>2020-08-13T22:40:36Z</time>
      </trkpt>
      <trkpt lat="48.700057" lon="-1.855837">
        <ele>42.6</ele>
        <time>2020-08-13T22:40:41Z</time>
      </trkpt>
      <trkpt lat="48.700019" lon="-1.855653">
        <ele>41.6</ele>
        <time>2020-08-13T22:40:43Z</time>
      </trkpt>
      <trkpt lat="48.699927" lon="-1.855347">
        <ele>40.4</ele>
        <time>2020-08-13T22:40:47Z</time>
      </trkpt>
      <trkpt lat="48.699648" lon="-1.85425">
        <ele>40.0</ele>
        <time>2020-08-13T22:41:02Z</time>
      </trkpt>
      <trkpt lat="48.699449" lon="-1.853767">
        <ele>39.6</ele>
        <time>2020-08-13T22:41:09Z</time>
      </trkpt>
      <trkpt lat="48.699384" lon="-1.85353">
        <ele>39.6</ele>
        <time>2020-08-13T22:41:12Z</time>
      </trkpt>
      <trkpt lat="48.699303" lon="-1.853067">
        <ele>38.6</ele>
        <time>2020-08-13T22:41:18Z</time>
      </trkpt>
      <trkpt lat="48.699134" lon="-1.853195">
        <ele>38.8</ele>
        <time>2020-08-13T22:41:21Z</time>
      </trkpt>
      <trkpt lat="48.698838" lon="-1.853516">
        <ele>38.6</ele>
        <time>2020-08-13T22:41:28Z</time>
      </trkpt>
      <trkpt lat="48.698772" lon="-1.853568">
        <ele>38.6</ele>
        <time>2020-08-13T22:41:30Z</time>
      </trkpt>
      <trkpt lat="48.698521" lon="-1.85365">
        <ele>38.6</ele>
        <time>2020-08-13T22:41:34Z</time>
      </trkpt>
      <trkpt lat="48.698627" lon="-1.85431">
        <ele>38.4</ele>
        <time>2020-08-13T22:41:43Z</time>
      </trkpt>
      <trkpt lat="48.698656" lon="-1.854847">
        <ele>38.4</ele>
        <time>2020-08-13T22:41:49Z</time>
      </trkpt>
      <trkpt lat="48.698663" lon="-1.855328">
        <ele>38.4</ele>
        <time>2020-08-13T22:41:55Z</time>
      </trkpt>
      <trkpt lat="48.698663" lon="-1.855328">
        <ele>38.4</ele>
        <time>2020-08-13T22:41:55Z</time>
      </trkpt>
      <trkpt lat="48.698656" lon="-1.854847">
        <ele>38.4</ele>
        <time>2020-08-13T22:42:01Z</time>
      </trkpt>
      <trkpt lat="48.698627" lon="-1.85431">
        <ele>38.4</ele>
        <time>2020-08-13T22:42:07Z</time>
      </trkpt>
      <trkpt lat="48.698521" lon="-1.85365">
        <ele>38.6</ele>
        <time>2020-08-13T22:42:16Z</time>
      </trkpt>
      <trkpt lat="48.698618" lon="-1.853618">
        <ele>38.6</ele>
        <time>2020-08-13T22:42:17Z</time>
      </trkpt>
      <trkpt lat="48.698435" lon="-1.852678">
        <ele>38.8</ele>
        <time>2020-08-13T22:42:29Z</time>
      </trkpt>
      <trkpt lat="48.698412" lon="-1.852641">
        <ele>38.8</ele>
        <time>2020-08-13T22:42:30Z</time>
      </trkpt>
      <trkpt lat="48.695783" lon="-1.852668">
        <ele>32.0</ele>
        <time>2020-08-13T22:42:50Z</time>
      </trkpt>
      <trkpt lat="48.695053" lon="-1.852598">
        <ele>32.0</ele>
        <time>2020-08-13T22:42:56Z</time>
      </trkpt>
      <trkpt lat="48.69491" lon="-1.852552">
        <ele>29.0</ele>
        <time>2020-08-13T22:42:57Z</time>
      </trkpt>
      <trkpt lat="48.694506" lon="-1.852359">
        <ele>26.2</ele>
        <time>2020-08-13T22:43:00Z</time>
      </trkpt>
      <trkpt lat="48.694304" lon="-1.852234">
        <ele>26.2</ele>
        <time>2020-08-13T22:43:02Z</time>
      </trkpt>
      <trkpt lat="48.694096" lon="-1.85207">
        <ele>26.4</ele>
        <time>2020-08-13T22:43:04Z</time>
      </trkpt>
      <trkpt lat="48.693825" lon="-1.851773">
        <ele>26.4</ele>
        <time>2020-08-13T22:43:07Z</time>
      </trkpt>
      <trkpt lat="48.693614" lon="-1.851479">
        <ele>24.2</ele>
        <time>2020-08-13T22:43:09Z</time>
      </trkpt>
      <trkpt lat="48.693276" lon="-1.850941">
        <ele>26.6</ele>
        <time>2020-08-13T22:43:13Z</time>
      </trkpt>
      <trkpt lat="48.692149" lon="-1.848832">
        <ele>35.6</ele>
        <time>2020-08-13T22:43:26Z</time>
      </trkpt>
      <trkpt lat="48.691972" lon="-1.848588">
        <ele>35.6</ele>
        <time>2020-08-13T22:43:28Z</time>
      </trkpt>
      <trkpt lat="48.691563" lon="-1.848244">
        <ele>35.6</ele>
        <time>2020-08-13T22:43:32Z</time>
      </trkpt>
      <trkpt lat="48.69136" lon="-1.848138">
        <ele>35.6</ele>
        <time>2020-08-13T22:43:34Z</time>
      </trkpt>
      <trkpt lat="48.691167" lon="-1.848101">
        <ele>35.6</ele>
        <time>2020-08-13T22:43:35Z</time>
      </trkpt>
      <trkpt lat="48.690746" lon="-1.848117">
        <ele>38.0</ele>
        <time>2020-08-13T22:43:38Z</time>
      </trkpt>
      <trkpt lat="48.690546" lon="-1.848191">
        <ele>38.0</ele>
        <time>2020-08-13T22:43:40Z</time>
      </trkpt>
      <trkpt lat="48.69019" lon="-1.848432">
        <ele>40.0</ele>
        <time>2020-08-13T22:43:43Z</time>
      </trkpt>
      <trkpt lat="48.690035" lon="-1.848598">
        <ele>40.0</ele>
        <time>2020-08-13T22:43:45Z</time>
      </trkpt>
      <trkpt lat="48.687528" lon="-1.851922">
        <ele>42.2</ele>
        <time>2020-08-13T22:44:10Z</time>
      </trkpt>
      <trkpt lat="48.686024" lon="-1.853757">
        <ele>45.0</ele>
        <time>2020-08-13T22:44:25Z</time>
      </trkpt>
      <trkpt lat="48.685367" lon="-1.854444">
        <ele>47.0</ele>
        <time>2020-08-13T22:44:32Z</time>
      </trkpt>
      <trkpt lat="48.683998" lon="-1.855739">
        <ele>50.0</ele>
        <time>2020-08-13T22:44:44Z</time>
      </trkpt>
      <trkpt lat="48.683061" lon="-1.856514">
        <ele>49.0</ele>
        <time>2020-08-13T22:44:52Z</time>
      </trkpt>
      <trkpt lat="48.683072" lon="-1.856614">
        <ele>49.0</ele>
        <time>2020-08-13T22:44:53Z</time>
      </trkpt>
      <trkpt lat="48.683037" lon="-1.856701">
        <ele>47.6</ele>
        <time>2020-08-13T22:44:54Z</time>
      </trkpt>
      <trkpt lat="48.683" lon="-1.856729">
        <ele>47.6</ele>
        <time>2020-08-13T22:44:54Z</time>
      </trkpt>
      <trkpt lat="48.68292" lon="-1.856706">
        <ele>47.6</ele>
        <time>2020-08-13T22:44:55Z</time>
      </trkpt>
      <trkpt lat="48.682893" lon="-1.856659">
        <ele>49.0</ele>
        <time>2020-08-13T22:44:55Z</time>
      </trkpt>
      <trkpt lat="48.678469" lon="-1.860266">
        <ele>43.8</ele>
        <time>2020-08-13T22:45:47Z</time>
      </trkpt>
      <trkpt lat="48.677623" lon="-1.861217">
        <ele>44.4</ele>
        <time>2020-08-13T22:45:58Z</time>
      </trkpt>
      <trkpt lat="48.676753" lon="-1.862292">
        <ele>46.2</ele>
        <time>2020-08-13T22:46:09Z</time>
      </trkpt>
      <trkpt lat="48.676478" lon="-1.862516">
        <ele>48.0</ele>
        <time>2020-08-13T22:46:12Z</time>
      </trkpt>
      <trkpt lat="48.676384" lon="-1.862588">
        <ele>48.0</ele>
        <time>2020-08-13T22:46:13Z</time>
      </trkpt>
      <trkpt lat="48.675911" lon="-1.862859">
        <ele>48.0</ele>
        <time>2020-08-13T22:46:19Z</time>
      </trkpt>
      <trkpt lat="48.674089" lon="-1.863762">
        <ele>42.4</ele>
        <time>2020-08-13T22:46:38Z</time>
      </trkpt>
      <trkpt lat="48.674096" lon="-1.863808">
        <ele>42.4</ele>
        <time>2020-08-13T22:46:39Z</time>
      </trkpt>
      <trkpt lat="48.674081" lon="-1.8639">
        <ele>42.4</ele>
        <time>2020-08-13T22:46:39Z</time>
      </trkpt>
      <trkpt lat="48.67403" lon="-1.863965">
        <ele>42.4</ele>
        <time>2020-08-13T22:46:40Z</time>
      </trkpt>
      <trkpt lat="48.673995" lon="-1.863975">
        <ele>42.4</ele>
        <time>2020-08-13T22:46:40Z</time>
      </trkpt>
      <trkpt lat="48.673929" lon="-1.863942">
        <ele>42.4</ele>
        <time>2020-08-13T22:46:41Z</time>
      </trkpt>
      <trkpt lat="48.673892" lon="-1.863853">
        <ele>42.4</ele>
        <time>2020-08-13T22:46:42Z</time>
      </trkpt>
      <trkpt lat="48.673814" lon="-1.863913">
        <ele>42.4</ele>
        <time>2020-08-13T22:46:43Z</time>
      </trkpt>
      <trkpt lat="48.672877" lon="-1.864367">
        <ele>40.8</ele>
        <time>2020-08-13T22:46:53Z</time>
      </trkpt>
      <trkpt lat="48.672308" lon="-1.864606">
        <ele>41.8</ele>
        <time>2020-08-13T22:46:59Z</time>
      </trkpt>
      <trkpt lat="48.67213" lon="-1.86465">
        <ele>41.8</ele>
        <time>2020-08-13T22:47:01Z</time>
      </trkpt>
      <trkpt lat="48.671932" lon="-1.864678">
        <ele>41.8</ele>
        <time>2020-08-13T22:47:03Z</time>
      </trkpt>
      <trkpt lat="48.671691" lon="-1.864681">
        <ele>41.8</ele>
        <time>2020-08-13T22:47:05Z</time>
      </trkpt>
      <trkpt lat="48.67065" lon="-1.864546">
        <ele>41.2</ele>
        <time>2020-08-13T22:47:16Z</time>
      </trkpt>
      <trkpt lat="48.670482" lon="-1.864556">
        <ele>41.2</ele>
        <time>2020-08-13T22:47:17Z</time>
      </trkpt>
      <trkpt lat="48.669927" lon="-1.864692">
        <ele>38.8</ele>
        <time>2020-08-13T22:47:23Z</time>
      </trkpt>
      <trkpt lat="48.669816" lon="-1.864797">
        <ele>38.8</ele>
        <time>2020-08-13T22:47:25Z</time>
      </trkpt>
      <trkpt lat="48.66979" lon="-1.864858">
        <ele>38.8</ele>
        <time>2020-08-13T22:47:25Z</time>
      </trkpt>
      <trkpt lat="48.669725" lon="-1.864906">
        <ele>38.8</ele>
        <time>2020-08-13T22:47:26Z</time>
      </trkpt>
      <trkpt lat="48.669689" lon="-1.864904">
        <ele>38.8</ele>
        <time>2020-08-13T22:47:26Z</time>
      </trkpt>
      <trkpt lat="48.66963" lon="-1.864856">
        <ele>38.8</ele>
        <time>2020-08-13T22:47:27Z</time>
      </trkpt>
      <trkpt lat="48.669474" lon="-1.864818">
        <ele>38.8</ele>
        <time>2020-08-13T22:47:28Z</time>
      </trkpt>
      <trkpt lat="48.668915" lon="-1.864995">
        <ele>37.6</ele>
        <time>2020-08-13T22:47:32Z</time>
      </trkpt>
      <trkpt lat="48.667865" lon="-1.865283">
        <ele>41.6</ele>
        <time>2020-08-13T22:47:38Z</time>
      </trkpt>
      <trkpt lat="48.667444" lon="-1.865367">
        <ele>41.6</ele>
        <time>2020-08-13T22:47:41Z</time>
      </trkpt>
      <trkpt lat="48.667194" lon="-1.865374">
        <ele>41.6</ele>
        <time>2020-08-13T22:47:42Z</time>
      </trkpt>
      <trkpt lat="48.66565" lon="-1.865231">
        <ele>40.0</ele>
        <time>2020-08-13T22:47:52Z</time>
      </trkpt>
      <trkpt lat="48.6651" lon="-1.865334">
        <ele>40.0</ele>
        <time>2020-08-13T22:47:55Z</time>
      </trkpt>
      <trkpt lat="48.664821" lon="-1.865474">
        <ele>39.2</ele>
        <time>2020-08-13T22:47:57Z</time>
      </trkpt>
      <trkpt lat="48.664359" lon="-1.865774">
        <ele>39.2</ele>
        <time>2020-08-13T22:48:00Z</time>
      </trkpt>
      <trkpt lat="48.663492" lon="-1.866286">
        <ele>42.8</ele>
        <time>2020-08-13T22:48:05Z</time>
      </trkpt>
      <trkpt lat="48.663104" lon="-1.866469">
        <ele>40.0</ele>
        <time>2020-08-13T22:48:08Z</time>
      </trkpt>
      <trkpt lat="48.661179" lon="-1.867045">
        <ele>45.4</ele>
        <time>2020-08-13T22:48:20Z</time>
      </trkpt>
      <trkpt lat="48.66062" lon="-1.86739">
        <ele>46.2</ele>
        <time>2020-08-13T22:48:23Z</time>
      </trkpt>
      <trkpt lat="48.660238" lon="-1.867703">
        <ele>47.6</ele>
        <time>2020-08-13T22:48:26Z</time>
      </trkpt>
      <trkpt lat="48.659584" lon="-1.868391">
        <ele>47.2</ele>
        <time>2020-08-13T22:48:31Z</time>
      </trkpt>
      <trkpt lat="48.658974" lon="-1.869094">
        <ele>44.6</ele>
        <time>2020-08-13T22:48:35Z</time>
      </trkpt>
      <trkpt lat="48.658604" lon="-1.869463">
        <ele>45.2</ele>
        <time>2020-08-13T22:48:38Z</time>
      </trkpt>
      <trkpt lat="48.658268" lon="-1.869759">
        <ele>42.0</ele>
        <time>2020-08-13T22:48:40Z</time>
      </trkpt>
      <trkpt lat="48.657711" lon="-1.870188">
        <ele>42.4</ele>
        <time>2020-08-13T22:48:44Z</time>
      </trkpt>
      <trkpt lat="48.655188" lon="-1.871853">
        <ele>36.2</ele>
        <time>2020-08-13T22:49:01Z</time>
      </trkpt>
      <trkpt lat="48.651555" lon="-1.874748">
        <ele>32.4</ele>
        <time>2020-08-13T22:49:25Z</time>
      </trkpt>
      <trkpt lat="48.651117" lon="-1.87513">
        <ele>34.4</ele>
        <time>2020-08-13T22:49:28Z</time>
      </trkpt>
      <trkpt lat="48.650837" lon="-1.875419">
        <ele>34.4</ele>
        <time>2020-08-13T22:49:30Z</time>
      </trkpt>
      <trkpt lat="48.650511" lon="-1.875833">
        <ele>34.4</ele>
        <time>2020-08-13T22:49:33Z</time>
      </trkpt>
      <trkpt lat="48.650259" lon="-1.8762">
        <ele>34.4</ele>
        <time>2020-08-13T22:49:35Z</time>
      </trkpt>
      <trkpt lat="48.650013" lon="-1.876616">
        <ele>34.4</ele>
        <time>2020-08-13T22:49:37Z</time>
      </trkpt>
      <trkpt lat="48.64983" lon="-1.876967">
        <ele>35.6</ele>
        <time>2020-08-13T22:49:39Z</time>
      </trkpt>
      <trkpt lat="48.649641" lon="-1.877384">
        <ele>35.6</ele>
        <time>2020-08-13T22:49:41Z</time>
      </trkpt>
      <trkpt lat="48.649484" lon="-1.877782">
        <ele>36.4</ele>
        <time>2020-08-13T22:49:43Z</time>
      </trkpt>
      <trkpt lat="48.649355" lon="-1.878168">
        <ele>36.4</ele>
        <time>2020-08-13T22:49:44Z</time>
      </trkpt>
      <trkpt lat="48.648532" lon="-1.880785">
        <ele>40.2</ele>
        <time>2020-08-13T22:49:56Z</time>
      </trkpt>
      <trkpt lat="48.648393" lon="-1.881413">
        <ele>42.0</ele>
        <time>2020-08-13T22:49:59Z</time>
      </trkpt>
      <trkpt lat="48.648198" lon="-1.882035">
        <ele>39.6</ele>
        <time>2020-08-13T22:50:03Z</time>
      </trkpt>
      <trkpt lat="48.647873" lon="-1.882959">
        <ele>39.4</ele>
        <time>2020-08-13T22:50:08Z</time>
      </trkpt>
      <trkpt lat="48.647586" lon="-1.883676">
        <ele>38.8</ele>
        <time>2020-08-13T22:50:12Z</time>
      </trkpt>
      <trkpt lat="48.64714" lon="-1.884631">
        <ele>37.0</ele>
        <time>2020-08-13T22:50:18Z</time>
      </trkpt>
      <trkpt lat="48.646659" lon="-1.885536">
        <ele>38.2</ele>
        <time>2020-08-13T22:50:24Z</time>
      </trkpt>
      <trkpt lat="48.646065" lon="-1.886451">
        <ele>39.8</ele>
        <time>2020-08-13T22:50:31Z</time>
      </trkpt>
      <trkpt lat="48.645287" lon="-1.887549">
        <ele>42.4</ele>
        <time>2020-08-13T22:50:39Z</time>
      </trkpt>
      <trkpt lat="48.645012" lon="-1.887907">
        <ele>42.4</ele>
        <time>2020-08-13T22:50:42Z</time>
      </trkpt>
      <trkpt lat="48.644969" lon="-1.887988">
        <ele>43.8</ele>
        <time>2020-08-13T22:50:42Z</time>
      </trkpt>
      <trkpt lat="48.644382" lon="-1.884038">
        <ele>29.2</ele>
        <time>2020-08-13T22:51:08Z</time>
      </trkpt>
      <trkpt lat="48.644327" lon="-1.883427">
        <ele>29.2</ele>
        <time>2020-08-13T22:51:12Z</time>
      </trkpt>
      <trkpt lat="48.644263" lon="-1.883009">
        <ele>25.0</ele>
        <time>2020-08-13T22:51:14Z</time>
      </trkpt>
      <trkpt lat="48.644109" lon="-1.882264">
        <ele>15.4</ele>
        <time>2020-08-13T22:51:19Z</time>
      </trkpt>
      <trkpt lat="48.643949" lon="-1.88173">
        <ele>15.4</ele>
        <time>2020-08-13T22:51:23Z</time>
      </trkpt>
      <trkpt lat="48.643784" lon="-1.881287">
        <ele>12.2</ele>
        <time>2020-08-13T22:51:26Z</time>
      </trkpt>
      <trkpt lat="48.643631" lon="-1.880934">
        <ele>12.2</ele>
        <time>2020-08-13T22:51:29Z</time>
      </trkpt>
      <trkpt lat="48.642146" lon="-1.877563">
        <ele>6.4</ele>
        <time>2020-08-13T22:51:55Z</time>
      </trkpt>
      <trkpt lat="48.64103" lon="-1.875077">
        <ele>6.4</ele>
        <time>2020-08-13T22:52:14Z</time>
      </trkpt>
      <trkpt lat="48.640013" lon="-1.872738">
        <ele>5.2</ele>
        <time>2020-08-13T22:52:31Z</time>
      </trkpt>
      <trkpt lat="48.638983" lon="-1.870464">
        <ele>5.2</ele>
        <time>2020-08-13T22:52:49Z</time>
      </trkpt>
      <trkpt lat="48.638662" lon="-1.869889">
        <ele>5.6</ele>
        <time>2020-08-13T22:52:53Z</time>
      </trkpt>
      <trkpt lat="48.638442" lon="-1.869549">
        <ele>5.6</ele>
        <time>2020-08-13T22:52:56Z</time>
      </trkpt>
      <trkpt lat="48.638129" lon="-1.869129">
        <ele>5.2</ele>
        <time>2020-08-13T22:53:00Z</time>
      </trkpt>
      <trkpt lat="48.637658" lon="-1.868608">
        <ele>5.2</ele>
        <time>2020-08-13T22:53:06Z</time>
      </trkpt>
      <trkpt lat="48.637456" lon="-1.868425">
        <ele>4.8</ele>
        <time>2020-08-13T22:53:08Z</time>
      </trkpt>
      <trkpt lat="48.63701" lon="-1.868071">
        <ele>5.2</ele>
        <time>2020-08-13T22:53:13Z</time>
      </trkpt>
      <trkpt lat="48.633862" lon="-1.865706">
        <ele>6.6</ele>
        <time>2020-08-13T22:53:47Z</time>
      </trkpt>
      <trkpt lat="48.633133" lon="-1.865188">
        <ele>6.4</ele>
        <time>2020-08-13T22:53:54Z</time>
      </trkpt>
      <trkpt lat="48.631464" lon="-1.864058">
        <ele>4.8</ele>
        <time>2020-08-13T22:54:12Z</time>
      </trkpt>
      <trkpt lat="48.630368" lon="-1.863215">
        <ele>4.8</ele>
        <time>2020-08-13T22:54:23Z</time>
      </trkpt>
      <trkpt lat="48.628207" lon="-1.861372">
        <ele>5.4</ele>
        <time>2020-08-13T22:54:47Z</time>
      </trkpt>
      <trkpt lat="48.627933" lon="-1.861116">
        <ele>5.4</ele>
        <time>2020-08-13T22:54:50Z</time>
      </trkpt>
      <trkpt lat="48.627646" lon="-1.860808">
        <ele>5.2</ele>
        <time>2020-08-13T22:54:54Z</time>
      </trkpt>
      <trkpt lat="48.626397" lon="-1.859407">
        <ele>5.8</ele>
        <time>2020-08-13T22:55:08Z</time>
      </trkpt>
      <trkpt lat="48.624513" lon="-1.85747">
        <ele>5.8</ele>
        <time>2020-08-13T22:55:30Z</time>
      </trkpt>
      <trkpt lat="48.623382" lon="-1.856223">
        <ele>6.2</ele>
        <time>2020-08-13T22:55:44Z</time>
      </trkpt>
      <trkpt lat="48.622874" lon="-1.8556">
        <ele>6.6</ele>
        <time>2020-08-13T22:55:50Z</time>
      </trkpt>
      <trkpt lat="48.62246" lon="-1.85505">
        <ele>6.6</ele>
        <time>2020-08-13T22:55:55Z</time>
      </trkpt>
      <trkpt lat="48.621847" lon="-1.854183">
        <ele>6.8</ele>
        <time>2020-08-13T22:56:03Z</time>
      </trkpt>
      <trkpt lat="48.620813" lon="-1.852672">
        <ele>7.2</ele>
        <time>2020-08-13T22:56:17Z</time>
      </trkpt>
      <trkpt lat="48.619817" lon="-1.851149">
        <ele>6.6</ele>
        <time>2020-08-13T22:56:30Z</time>
      </trkpt>
      <trkpt lat="48.619715" lon="-1.850941">
        <ele>6.6</ele>
        <time>2020-08-13T22:56:32Z</time>
      </trkpt>
      <trkpt lat="48.619438" lon="-1.850476">
        <ele>7.2</ele>
        <time>2020-08-13T22:56:36Z</time>
      </trkpt>
      <trkpt lat="48.617576" lon="-1.847599">
        <ele>6.6</ele>
        <time>2020-08-13T22:57:01Z</time>
      </trkpt>
      <trkpt lat="48.615924" lon="-1.84494">
        <ele>5.6</ele>
        <time>2020-08-13T22:57:24Z</time>
      </trkpt>
      <trkpt lat="48.614784" lon="-1.843175">
        <ele>5.8</ele>
        <time>2020-08-13T22:57:40Z</time>
      </trkpt>
      <trkpt lat="48.614501" lon="-1.842649">
        <ele>5.8</ele>
        <time>2020-08-13T22:57:44Z</time>
      </trkpt>
      <trkpt lat="48.61415" lon="-1.841912">
        <ele>6.0</ele>
        <time>2020-08-13T22:57:50Z</time>
      </trkpt>
      <trkpt lat="48.614002" lon="-1.841534">
        <ele>6.6</ele>
        <time>2020-08-13T22:57:53Z</time>
      </trkpt>
      <trkpt lat="48.61399" lon="-1.841462">
        <ele>6.6</ele>
        <time>2020-08-13T22:57:53Z</time>
      </trkpt>
      <trkpt lat="48.613493" lon="-1.841648">
        <ele>6.6</ele>
        <time>2020-08-13T22:57:57Z</time>
      </trkpt>
      <trkpt lat="48.613255" lon="-1.841778">
        <ele>4.6</ele>
        <time>2020-08-13T22:57:59Z</time>
      </trkpt>
      <trkpt lat="48.613081" lon="-1.841925">
        <ele>4.6</ele>
        <time>2020-08-13T22:58:00Z</time>
      </trkpt>
      <trkpt lat="48.612564" lon="-1.842499">
        <ele>4.6</ele>
        <time>2020-08-13T22:58:05Z</time>
      </trkpt>
      <trkpt lat="48.612422" lon="-1.842625">
        <ele>4.6</ele>
        <time>2020-08-13T22:58:06Z</time>
      </trkpt>
      <trkpt lat="48.612268" lon="-1.842708">
        <ele>4.6</ele>
        <time>2020-08-13T22:58:07Z</time>
      </trkpt>
      <trkpt lat="48.612089" lon="-1.842761">
        <ele>4.6</ele>
        <time>2020-08-13T22:58:08Z</time>
      </trkpt>
      <trkpt lat="48.611568" lon="-1.842809">
        <ele>4.2</ele>
        <time>2020-08-13T22:58:12Z</time>
      </trkpt>
      <trkpt lat="48.610927" lon="-1.842953">
        <ele>4.2</ele>
        <time>2020-08-13T22:58:16Z</time>
      </trkpt>
      <trkpt lat="48.610733" lon="-1.842964">
        <ele>4.2</ele>
        <time>2020-08-13T22:58:17Z</time>
      </trkpt>
      <trkpt lat="48.609686" lon="-1.842927">
        <ele>4.0</ele>
        <time>2020-08-13T22:58:25Z</time>
      </trkpt>
      <trkpt lat="48.609338" lon="-1.843003">
        <ele>4.0</ele>
        <time>2020-08-13T22:58:27Z</time>
      </trkpt>
      <trkpt lat="48.609096" lon="-1.84312">
        <ele>3.4</ele>
        <time>2020-08-13T22:58:29Z</time>
      </trkpt>
      <trkpt lat="48.608388" lon="-1.843531">
        <ele>3.8</ele>
        <time>2020-08-13T22:58:34Z</time>
      </trkpt>
      <trkpt lat="48.607651" lon="-1.844015">
        <ele>4.2</ele>
        <time>2020-08-13T22:58:40Z</time>
      </trkpt>
      <trkpt lat="48.606748" lon="-1.844418">
        <ele>5.0</ele>
        <time>2020-08-13T22:58:46Z</time>
      </trkpt>
      <trkpt lat="48.60556" lon="-1.845051">
        <ele>4.2</ele>
        <time>2020-08-13T22:58:55Z</time>
      </trkpt>
      <trkpt lat="48.605136" lon="-1.845222">
        <ele>4.2</ele>
        <time>2020-08-13T22:58:58Z</time>
      </trkpt>
      <trkpt lat="48.604887" lon="-1.845285">
        <ele>3.8</ele>
        <time>2020-08-13T22:59:00Z</time>
      </trkpt>
      <trkpt lat="48.604017" lon="-1.845342">
        <ele>3.8</ele>
        <time>2020-08-13T22:59:06Z</time>
      </trkpt>
      <trkpt lat="48.603512" lon="-1.8454">
        <ele>3.8</ele>
        <time>2020-08-13T22:59:09Z</time>
      </trkpt>
      <trkpt lat="48.603392" lon="-1.845369">
        <ele>3.8</ele>
        <time>2020-08-13T22:59:10Z</time>
      </trkpt>
      <trkpt lat="48.603266" lon="-1.845297">
        <ele>4.4</ele>
        <time>2020-08-13T22:59:11Z</time>
      </trkpt>
      <trkpt lat="48.603154" lon="-1.845215">
        <ele>4.4</ele>
        <time>2020-08-13T22:59:12Z</time>
      </trkpt>
      <trkpt lat="48.602875" lon="-1.844938">
        <ele>4.4</ele>
        <time>2020-08-13T22:59:14Z</time>
      </trkpt>
      <trkpt lat="48.602625" lon="-1.844767">
        <ele>4.4</ele>
        <time>2020-08-13T22:59:16Z</time>
      </trkpt>
      <trkpt lat="48.602422" lon="-1.844684">
        <ele>4.4</ele>
        <time>2020-08-13T22:59:18Z</time>
      </trkpt>
      <trkpt lat="48.601526" lon="-1.84441">
        <ele>4.2</ele>
        <time>2020-08-13T22:59:24Z</time>
      </trkpt>
      <trkpt lat="48.60122" lon="-1.844388">
        <ele>4.2</ele>
        <time>2020-08-13T22:59:26Z</time>
      </trkpt>
      <trkpt lat="48.600309" lon="-1.844488">
        <ele>4.6</ele>
        <time>2020-08-13T22:59:32Z</time>
      </trkpt>
      <trkpt lat="48.599976" lon="-1.844448">
        <ele>4.8</ele>
        <time>2020-08-13T22:59:35Z</time>
      </trkpt>
      <trkpt lat="48.599411" lon="-1.844283">
        <ele>4.8</ele>
        <time>2020-08-13T22:59:39Z</time>
      </trkpt>
      <trkpt lat="48.598885" lon="-1.844165">
        <ele>4.4</ele>
        <time>2020-08-13T22:59:42Z</time>
      </trkpt>
      <trkpt lat="48.597925" lon="-1.844013">
        <ele>5.0</ele>
        <time>2020-08-13T22:59:49Z</time>
      </trkpt>
      <trkpt lat="48.59744" lon="-1.843981">
        <ele>5.0</ele>
        <time>2020-08-13T22:59:52Z</time>
      </trkpt>
      <trkpt lat="48.596901" lon="-1.844021">
        <ele>5.0</ele>
        <time>2020-08-13T22:59:56Z</time>
      </trkpt>
      <trkpt lat="48.596394" lon="-1.844123">
        <ele>5.4</ele>
        <time>2020-08-13T23:00:00Z</time>
      </trkpt>
      <trkpt lat="48.595837" lon="-1.844276">
        <ele>4.8</ele>
        <time>2020-08-13T23:00:04Z</time>
      </trkpt>
      <trkpt lat="48.595495" lon="-1.844316">
        <ele>5.2</ele>
        <time>2020-08-13T23:00:06Z</time>
      </trkpt>
      <trkpt lat="48.595088" lon="-1.844317">
        <ele>5.2</ele>
        <time>2020-08-13T23:00:09Z</time>
      </trkpt>
      <trkpt lat="48.594666" lon="-1.844278">
        <ele>5.4</ele>
        <time>2020-08-13T23:00:12Z</time>
      </trkpt>
      <trkpt lat="48.594304" lon="-1.844174">
        <ele>5.4</ele>
        <time>2020-08-13T23:00:14Z</time>
      </trkpt>
      <trkpt lat="48.594253" lon="-1.844179">
        <ele>5.4</ele>
        <time>2020-08-13T23:00:15Z</time>
      </trkpt>
      <trkpt lat="48.594017" lon="-1.844381">
        <ele>4.4</ele>
        <time>2020-08-13T23:00:16Z</time>
      </trkpt>
      <trkpt lat="48.593768" lon="-1.844516">
        <ele>4.4</ele>
        <time>2020-08-13T23:00:18Z</time>
      </trkpt>
      <trkpt lat="48.592506" lon="-1.844775">
        <ele>3.4</ele>
        <time>2020-08-13T23:00:27Z</time>
      </trkpt>
      <trkpt lat="48.591727" lon="-1.844885">
        <ele>3.0</ele>
        <time>2020-08-13T23:00:32Z</time>
      </trkpt>
      <trkpt lat="48.589314" lon="-1.845123">
        <ele>3.8</ele>
        <time>2020-08-13T23:00:49Z</time>
      </trkpt>
      <trkpt lat="48.588752" lon="-1.845213">
        <ele>5.0</ele>
        <time>2020-08-13T23:00:53Z</time>
      </trkpt>
      <trkpt lat="48.588547" lon="-1.845223">
        <ele>5.0</ele>
        <time>2020-08-13T23:00:54Z</time>
      </trkpt>
      <trkpt lat="48.58834" lon="-1.84518">
        <ele>5.0</ele>
        <time>2020-08-13T23:00:56Z</time>
      </trkpt>
      <trkpt lat="48.588314" lon="-1.844518">
        <ele>4.6</ele>
        <time>2020-08-13T23:00:59Z</time>
      </trkpt>
      <trkpt lat="48.588247" lon="-1.844123">
        <ele>4.4</ele>
        <time>2020-08-13T23:01:00Z</time>
      </trkpt>
      <trkpt lat="48.588185" lon="-1.843882">
        <ele>4.4</ele>
        <time>2020-08-13T23:01:01Z</time>
      </trkpt>
      <trkpt lat="48.58806" lon="-1.843501">
        <ele>4.4</ele>
        <time>2020-08-13T23:01:03Z</time>
      </trkpt>
      <trkpt lat="48.585427" lon="-1.837277">
        <ele>2.6</ele>
        <time>2020-08-13T23:01:31Z</time>
      </trkpt>
      <trkpt lat="48.585189" lon="-1.836574">
        <ele>2.8</ele>
        <time>2020-08-13T23:01:34Z</time>
      </trkpt>
      <trkpt lat="48.579039" lon="-1.816322">
        <ele>3.8</ele>
        <time>2020-08-13T23:02:59Z</time>
      </trkpt>
      <trkpt lat="48.577202" lon="-1.810357">
        <ele>2.8</ele>
        <time>2020-08-13T23:03:25Z</time>
      </trkpt>
      <trkpt lat="48.576726" lon="-1.80875">
        <ele>2.4</ele>
        <time>2020-08-13T23:03:31Z</time>
      </trkpt>
      <trkpt lat="48.574123" lon="-1.800252">
        <ele>1.6</ele>
        <time>2020-08-13T23:04:07Z</time>
      </trkpt>
      <trkpt lat="48.573926" lon="-1.799692">
        <ele>1.8</ele>
        <time>2020-08-13T23:04:10Z</time>
      </trkpt>
      <trkpt lat="48.571492" lon="-1.794231">
        <ele>3.0</ele>
        <time>2020-08-13T23:04:35Z</time>
      </trkpt>
      <trkpt lat="48.570349" lon="-1.791726">
        <ele>2.2</ele>
        <time>2020-08-13T23:04:46Z</time>
      </trkpt>
      <trkpt lat="48.569411" lon="-1.789338">
        <ele>2.0</ele>
        <time>2020-08-13T23:04:57Z</time>
      </trkpt>
      <trkpt lat="48.568962" lon="-1.788073">
        <ele>3.4</ele>
        <time>2020-08-13T23:05:03Z</time>
      </trkpt>
      <trkpt lat="48.568446" lon="-1.786919">
        <ele>3.8</ele>
        <time>2020-08-13T23:05:08Z</time>
      </trkpt>
      <trkpt lat="48.567301" lon="-1.784988">
        <ele>3.2</ele>
        <time>2020-08-13T23:05:18Z</time>
      </trkpt>
      <trkpt lat="48.566746" lon="-1.784002">
        <ele>4.0</ele>
        <time>2020-08-13T23:05:23Z</time>
      </trkpt>
      <trkpt lat="48.566157" lon="-1.782821">
        <ele>3.0</ele>
        <time>2020-08-13T23:05:28Z</time>
      </trkpt>
      <trkpt lat="48.565566" lon="-1.781766">
        <ele>2.0</ele>
        <time>2020-08-13T23:05:34Z</time>
      </trkpt>
      <trkpt lat="48.56473" lon="-1.780464">
        <ele>3.6</ele>
        <time>2020-08-13T23:05:41Z</time>
      </trkpt>
      <trkpt lat="48.56154" lon="-1.775783">
        <ele>2.6</ele>
        <time>2020-08-13T23:06:06Z</time>
      </trkpt>
      <trkpt lat="48.556517" lon="-1.768293">
        <ele>3.4</ele>
        <time>2020-08-13T23:06:47Z</time>
      </trkpt>
      <trkpt lat="48.556286" lon="-1.767928">
        <ele>3.4</ele>
        <time>2020-08-13T23:06:49Z</time>
      </trkpt>
      <trkpt lat="48.556134" lon="-1.767635">
        <ele>3.4</ele>
        <time>2020-08-13T23:06:51Z</time>
      </trkpt>
      <trkpt lat="48.555922" lon="-1.76714">
        <ele>4.2</ele>
        <time>2020-08-13T23:06:53Z</time>
      </trkpt>
      <trkpt lat="48.555856" lon="-1.767134">
        <ele>4.2</ele>
        <time>2020-08-13T23:06:53Z</time>
      </trkpt>
      <trkpt lat="48.555795" lon="-1.767094">
        <ele>4.6</ele>
        <time>2020-08-13T23:06:54Z</time>
      </trkpt>
      <trkpt lat="48.555748" lon="-1.767026">
        <ele>4.6</ele>
        <time>2020-08-13T23:06:54Z</time>
      </trkpt>
      <trkpt lat="48.555718" lon="-1.766938">
        <ele>4.6</ele>
        <time>2020-08-13T23:06:54Z</time>
      </trkpt>
      <trkpt lat="48.555709" lon="-1.766839">
        <ele>4.6</ele>
        <time>2020-08-13T23:06:55Z</time>
      </trkpt>
      <trkpt lat="48.555724" lon="-1.766742">
        <ele>4.6</ele>
        <time>2020-08-13T23:06:55Z</time>
      </trkpt>
      <trkpt lat="48.555759" lon="-1.766658">
        <ele>4.0</ele>
        <time>2020-08-13T23:06:55Z</time>
      </trkpt>
      <trkpt lat="48.555436" lon="-1.766116">
        <ele>4.0</ele>
        <time>2020-08-13T23:06:58Z</time>
      </trkpt>
      <trkpt lat="48.555211" lon="-1.765683">
        <ele>3.4</ele>
        <time>2020-08-13T23:07:00Z</time>
      </trkpt>
      <trkpt lat="48.555036" lon="-1.765243">
        <ele>3.4</ele>
        <time>2020-08-13T23:07:01Z</time>
      </trkpt>
      <trkpt lat="48.554924" lon="-1.764898">
        <ele>3.2</ele>
        <time>2020-08-13T23:07:03Z</time>
      </trkpt>
      <trkpt lat="48.554605" lon="-1.763389">
        <ele>2.0</ele>
        <time>2020-08-13T23:07:08Z</time>
      </trkpt>
      <trkpt lat="48.554455" lon="-1.762806">
        <ele>1.6</ele>
        <time>2020-08-13T23:07:10Z</time>
      </trkpt>
      <trkpt lat="48.554214" lon="-1.762216">
        <ele>1.0</ele>
        <time>2020-08-13T23:07:12Z</time>
      </trkpt>
      <trkpt lat="48.553925" lon="-1.7617">
        <ele>3.4</ele>
        <time>2020-08-13T23:07:15Z</time>
      </trkpt>
      <trkpt lat="48.553736" lon="-1.761466">
        <ele>3.2</ele>
        <time>2020-08-13T23:07:16Z</time>
      </trkpt>
      <trkpt lat="48.553288" lon="-1.761063">
        <ele>3.8</ele>
        <time>2020-08-13T23:07:19Z</time>
      </trkpt>
      <trkpt lat="48.55272" lon="-1.760605">
        <ele>3.6</ele>
        <time>2020-08-13T23:07:22Z</time>
      </trkpt>
      <trkpt lat="48.552778" lon="-1.760522">
        <ele>3.6</ele>
        <time>2020-08-13T23:07:22Z</time>
      </trkpt>
      <trkpt lat="48.552765" lon="-1.760392">
        <ele>3.6</ele>
        <time>2020-08-13T23:07:23Z</time>
      </trkpt>
      <trkpt lat="48.552799" lon="-1.76011">
        <ele>3.6</ele>
        <time>2020-08-13T23:07:24Z</time>
      </trkpt>
      <trkpt lat="48.553033" lon="-1.759175">
        <ele>3.2</ele>
        <time>2020-08-13T23:07:27Z</time>
      </trkpt>
      <trkpt lat="48.553418" lon="-1.7575">
        <ele>3.2</ele>
        <time>2020-08-13T23:07:32Z</time>
      </trkpt>
      <trkpt lat="48.553536" lon="-1.756777">
        <ele>3.8</ele>
        <time>2020-08-13T23:07:34Z</time>
      </trkpt>
      <trkpt lat="48.55362" lon="-1.756502">
        <ele>3.2</ele>
        <time>2020-08-13T23:07:35Z</time>
      </trkpt>
      <trkpt lat="48.554023" lon="-1.752919">
        <ele>5.4</ele>
        <time>2020-08-13T23:07:46Z</time>
      </trkpt>
      <trkpt lat="48.554285" lon="-1.750313">
        <ele>5.4</ele>
        <time>2020-08-13T23:07:54Z</time>
      </trkpt>
      <trkpt lat="48.554474" lon="-1.747146">
        <ele>4.6</ele>
        <time>2020-08-13T23:08:04Z</time>
      </trkpt>
      <trkpt lat="48.554728" lon="-1.74102">
        <ele>5.6</ele>
        <time>2020-08-13T23:08:23Z</time>
      </trkpt>
      <trkpt lat="48.555341" lon="-1.723042">
        <ele>19.4</ele>
        <time>2020-08-13T23:09:18Z</time>
      </trkpt>
      <trkpt lat="48.555533" lon="-1.719451">
        <ele>24.2</ele>
        <time>2020-08-13T23:09:29Z</time>
      </trkpt>
      <trkpt lat="48.555696" lon="-1.717284">
        <ele>29.8</ele>
        <time>2020-08-13T23:09:36Z</time>
      </trkpt>
      <trkpt lat="48.555896" lon="-1.715087">
        <ele>35.0</ele>
        <time>2020-08-13T23:09:42Z</time>
      </trkpt>
      <trkpt lat="48.556022" lon="-1.713886">
        <ele>37.8</ele>
        <time>2020-08-13T23:09:46Z</time>
      </trkpt>
      <trkpt lat="48.556345" lon="-1.711126">
        <ele>40.8</ele>
        <time>2020-08-13T23:09:55Z</time>
      </trkpt>
      <trkpt lat="48.556548" lon="-1.709569">
        <ele>39.6</ele>
        <time>2020-08-13T23:09:59Z</time>
      </trkpt>
      <trkpt lat="48.556875" lon="-1.70741">
        <ele>38.4</ele>
        <time>2020-08-13T23:10:06Z</time>
      </trkpt>
      <trkpt lat="48.557217" lon="-1.70528">
        <ele>38.6</ele>
        <time>2020-08-13T23:10:13Z</time>
      </trkpt>
      <trkpt lat="48.557739" lon="-1.70239">
        <ele>40.4</ele>
        <time>2020-08-13T23:10:22Z</time>
      </trkpt>
      <trkpt lat="48.560811" lon="-1.687542">
        <ele>65.2</ele>
        <time>2020-08-13T23:11:10Z</time>
      </trkpt>
      <trkpt lat="48.561415" lon="-1.684291">
        <ele>66.0</ele>
        <time>2020-08-13T23:11:20Z</time>
      </trkpt>
      <trkpt lat="48.561686" lon="-1.682642">
        <ele>69.0</ele>
        <time>2020-08-13T23:11:25Z</time>
      </trkpt>
      <trkpt lat="48.562127" lon="-1.679637">
        <ele>71.0</ele>
        <time>2020-08-13T23:11:34Z</time>
      </trkpt>
      <trkpt lat="48.562497" lon="-1.676784">
        <ele>63.2</ele>
        <time>2020-08-13T23:11:43Z</time>
      </trkpt>
      <trkpt lat="48.562827" lon="-1.673752">
        <ele>63.2</ele>
        <time>2020-08-13T23:11:53Z</time>
      </trkpt>
      <trkpt lat="48.563033" lon="-1.671542">
        <ele>67.4</ele>
        <time>2020-08-13T23:12:00Z</time>
      </trkpt>
      <trkpt lat="48.56317" lon="-1.669809">
        <ele>67.4</ele>
        <time>2020-08-13T23:12:05Z</time>
      </trkpt>
      <trkpt lat="48.563303" lon="-1.667744">
        <ele>69.2</ele>
        <time>2020-08-13T23:12:11Z</time>
      </trkpt>
      <trkpt lat="48.563412" lon="-1.665718">
        <ele>71.8</ele>
        <time>2020-08-13T23:12:17Z</time>
      </trkpt>
      <trkpt lat="48.563546" lon="-1.661664">
        <ele>83.8</ele>
        <time>2020-08-13T23:12:30Z</time>
      </trkpt>
      <trkpt lat="48.563592" lon="-1.657987">
        <ele>85.8</ele>
        <time>2020-08-13T23:12:41Z</time>
      </trkpt>
      <trkpt lat="48.563587" lon="-1.637569">
        <ele>85.6</ele>
        <time>2020-08-13T23:13:43Z</time>
      </trkpt>
      <trkpt lat="48.56356" lon="-1.63604">
        <ele>89.2</ele>
        <time>2020-08-13T23:13:48Z</time>
      </trkpt>
      <trkpt lat="48.563502" lon="-1.634955">
        <ele>89.0</ele>
        <time>2020-08-13T23:13:51Z</time>
      </trkpt>
      <trkpt lat="48.56342" lon="-1.633894">
        <ele>88.0</ele>
        <time>2020-08-13T23:13:55Z</time>
      </trkpt>
      <trkpt lat="48.563064" lon="-1.630163">
        <ele>87.8</ele>
        <time>2020-08-13T23:14:06Z</time>
      </trkpt>
      <trkpt lat="48.5629" lon="-1.627736">
        <ele>92.2</ele>
        <time>2020-08-13T23:14:14Z</time>
      </trkpt>
      <trkpt lat="48.562849" lon="-1.626127">
        <ele>92.8</ele>
        <time>2020-08-13T23:14:18Z</time>
      </trkpt>
      <trkpt lat="48.562846" lon="-1.625142">
        <ele>92.4</ele>
        <time>2020-08-13T23:14:21Z</time>
      </trkpt>
      <trkpt lat="48.56287" lon="-1.623692">
        <ele>91.8</ele>
        <time>2020-08-13T23:14:26Z</time>
      </trkpt>
      <trkpt lat="48.562956" lon="-1.622001">
        <ele>92.0</ele>
        <time>2020-08-13T23:14:31Z</time>
      </trkpt>
      <trkpt lat="48.563067" lon="-1.620618">
        <ele>91.8</ele>
        <time>2020-08-13T23:14:35Z</time>
      </trkpt>
      <trkpt lat="48.563427" lon="-1.617709">
        <ele>86.8</ele>
        <time>2020-08-13T23:14:44Z</time>
      </trkpt>
      <trkpt lat="48.564443" lon="-1.611328">
        <ele>79.0</ele>
        <time>2020-08-13T23:15:04Z</time>
      </trkpt>
      <trkpt lat="48.564723" lon="-1.609028">
        <ele>82.8</ele>
        <time>2020-08-13T23:15:12Z</time>
      </trkpt>
      <trkpt lat="48.566514" lon="-1.586953">
        <ele>65.6</ele>
        <time>2020-08-13T23:16:19Z</time>
      </trkpt>
      <trkpt lat="48.566788" lon="-1.583005">
        <ele>68.4</ele>
        <time>2020-08-13T23:16:32Z</time>
      </trkpt>
      <trkpt lat="48.566866" lon="-1.581456">
        <ele>70.4</ele>
        <time>2020-08-13T23:16:36Z</time>
      </trkpt>
      <trkpt lat="48.566894" lon="-1.579603">
        <ele>69.8</ele>
        <time>2020-08-13T23:16:42Z</time>
      </trkpt>
      <trkpt lat="48.566892" lon="-1.57802">
        <ele>69.8</ele>
        <time>2020-08-13T23:16:47Z</time>
      </trkpt>
      <trkpt lat="48.566867" lon="-1.576576">
        <ele>71.6</ele>
        <time>2020-08-13T23:16:51Z</time>
      </trkpt>
      <trkpt lat="48.566771" lon="-1.574319">
        <ele>72.4</ele>
        <time>2020-08-13T23:16:58Z</time>
      </trkpt>
      <trkpt lat="48.566606" lon="-1.57192">
        <ele>73.6</ele>
        <time>2020-08-13T23:17:05Z</time>
      </trkpt>
      <trkpt lat="48.56636" lon="-1.569528">
        <ele>70.0</ele>
        <time>2020-08-13T23:17:13Z</time>
      </trkpt>
      <trkpt lat="48.566148" lon="-1.567793">
        <ele>59.8</ele>
        <time>2020-08-13T23:17:18Z</time>
      </trkpt>
      <trkpt lat="48.565686" lon="-1.564841">
        <ele>32.8</ele>
        <time>2020-08-13T23:17:28Z</time>
      </trkpt>
      <trkpt lat="48.565431" lon="-1.563473">
        <ele>29.6</ele>
        <time>2020-08-13T23:17:32Z</time>
      </trkpt>
      <trkpt lat="48.564103" lon="-1.557012">
        <ele>30.0</ele>
        <time>2020-08-13T23:17:53Z</time>
      </trkpt>
      <trkpt lat="48.56352" lon="-1.553963">
        <ele>22.2</ele>
        <time>2020-08-13T23:18:02Z</time>
      </trkpt>
      <trkpt lat="48.563083" lon="-1.551396">
        <ele>18.8</ele>
        <time>2020-08-13T23:18:10Z</time>
      </trkpt>
      <trkpt lat="48.562804" lon="-1.549549">
        <ele>17.2</ele>
        <time>2020-08-13T23:18:16Z</time>
      </trkpt>
      <trkpt lat="48.562565" lon="-1.547782">
        <ele>15.2</ele>
        <time>2020-08-13T23:18:22Z</time>
      </trkpt>
      <trkpt lat="48.562346" lon="-1.546006">
        <ele>11.4</ele>
        <time>2020-08-13T23:18:27Z</time>
      </trkpt>
      <trkpt lat="48.562187" lon="-1.54453">
        <ele>7.8</ele>
        <time>2020-08-13T23:18:32Z</time>
      </trkpt>
      <trkpt lat="48.5619" lon="-1.541414">
        <ele>5.6</ele>
        <time>2020-08-13T23:18:41Z</time>
      </trkpt>
      <trkpt lat="48.561751" lon="-1.539555">
        <ele>6.2</ele>
        <time>2020-08-13T23:18:47Z</time>
      </trkpt>
      <trkpt lat="48.561585" lon="-1.536372">
        <ele>5.6</ele>
        <time>2020-08-13T23:18:57Z</time>
      </trkpt>
      <trkpt lat="48.561444" lon="-1.534798">
        <ele>6.2</ele>
        <time>2020-08-13T23:19:05Z</time>
      </trkpt>
      <trkpt lat="48.561352" lon="-1.534416">
        <ele>6.2</ele>
        <time>2020-08-13T23:19:07Z</time>
      </trkpt>
      <trkpt lat="48.561209" lon="-1.534084">
        <ele>6.0</ele>
        <time>2020-08-13T23:19:09Z</time>
      </trkpt>
      <trkpt lat="48.560437" lon="-1.532898">
        <ele>5.4</ele>
        <time>2020-08-13T23:19:17Z</time>
      </trkpt>
      <trkpt lat="48.560283" lon="-1.532606">
        <ele>5.4</ele>
        <time>2020-08-13T23:19:19Z</time>
      </trkpt>
      <trkpt lat="48.560225" lon="-1.53243">
        <ele>5.8</ele>
        <time>2020-08-13T23:19:20Z</time>
      </trkpt>
      <trkpt lat="48.560181" lon="-1.532166">
        <ele>5.8</ele>
        <time>2020-08-13T23:19:22Z</time>
      </trkpt>
      <trkpt lat="48.560166" lon="-1.531941">
        <ele>5.8</ele>
        <time>2020-08-13T23:19:23Z</time>
      </trkpt>
      <trkpt lat="48.560177" lon="-1.531723">
        <ele>5.8</ele>
        <time>2020-08-13T23:19:24Z</time>
      </trkpt>
      <trkpt lat="48.560225" lon="-1.531509">
        <ele>6.6</ele>
        <time>2020-08-13T23:19:25Z</time>
      </trkpt>
      <trkpt lat="48.56037" lon="-1.531049">
        <ele>6.6</ele>
        <time>2020-08-13T23:19:28Z</time>
      </trkpt>
      <trkpt lat="48.560432" lon="-1.530806">
        <ele>6.6</ele>
        <time>2020-08-13T23:19:29Z</time>
      </trkpt>
      <trkpt lat="48.560421" lon="-1.530707">
        <ele>6.6</ele>
        <time>2020-08-13T23:19:29Z</time>
      </trkpt>
      <trkpt lat="48.560435" lon="-1.530608">
        <ele>6.6</ele>
        <time>2020-08-13T23:19:30Z</time>
      </trkpt>
      <trkpt lat="48.56047" lon="-1.530524">
        <ele>6.6</ele>
        <time>2020-08-13T23:19:30Z</time>
      </trkpt>
      <trkpt lat="48.560253" lon="-1.530229">
        <ele>6.6</ele>
        <time>2020-08-13T23:19:32Z</time>
      </trkpt>
      <trkpt lat="48.559278" lon="-1.529197">
        <ele>5.6</ele>
        <time>2020-08-13T23:19:40Z</time>
      </trkpt>
      <trkpt lat="48.557465" lon="-1.527525">
        <ele>6.2</ele>
        <time>2020-08-13T23:19:54Z</time>
      </trkpt>
      <trkpt lat="48.557092" lon="-1.527025">
        <ele>6.4</ele>
        <time>2020-08-13T23:19:57Z</time>
      </trkpt>
      <trkpt lat="48.557006" lon="-1.526874">
        <ele>6.4</ele>
        <time>2020-08-13T23:19:58Z</time>
      </trkpt>
      <trkpt lat="48.556916" lon="-1.526696">
        <ele>6.4</ele>
        <time>2020-08-13T23:19:59Z</time>
      </trkpt>
      <trkpt lat="48.556704" lon="-1.526189">
        <ele>6.4</ele>
        <time>2020-08-13T23:20:01Z</time>
      </trkpt>
      <trkpt lat="48.556485" lon="-1.525575">
        <ele>6.8</ele>
        <time>2020-08-13T23:20:04Z</time>
      </trkpt>
      <trkpt lat="48.5564" lon="-1.525241">
        <ele>6.8</ele>
        <time>2020-08-13T23:20:06Z</time>
      </trkpt>
      <trkpt lat="48.556343" lon="-1.524901">
        <ele>6.4</ele>
        <time>2020-08-13T23:20:07Z</time>
      </trkpt>
      <trkpt lat="48.556285" lon="-1.524141">
        <ele>6.0</ele>
        <time>2020-08-13T23:20:10Z</time>
      </trkpt>
      <trkpt lat="48.556245" lon="-1.52386">
        <ele>6.0</ele>
        <time>2020-08-13T23:20:12Z</time>
      </trkpt>
      <trkpt lat="48.556182" lon="-1.523582">
        <ele>6.0</ele>
        <time>2020-08-13T23:20:13Z</time>
      </trkpt>
      <trkpt lat="48.555949" lon="-1.522938">
        <ele>5.8</ele>
        <time>2020-08-13T23:20:16Z</time>
      </trkpt>
      <trkpt lat="48.555539" lon="-1.522021">
        <ele>5.8</ele>
        <time>2020-08-13T23:20:21Z</time>
      </trkpt>
      <trkpt lat="48.555304" lon="-1.521532">
        <ele>6.0</ele>
        <time>2020-08-13T23:20:23Z</time>
      </trkpt>
      <trkpt lat="48.555151" lon="-1.521116">
        <ele>6.0</ele>
        <time>2020-08-13T23:20:25Z</time>
      </trkpt>
      <trkpt lat="48.554734" lon="-1.519596">
        <ele>7.0</ele>
        <time>2020-08-13T23:20:32Z</time>
      </trkpt>
      <trkpt lat="48.554245" lon="-1.518433">
        <ele>7.6</ele>
        <time>2020-08-13T23:20:38Z</time>
      </trkpt>
      <trkpt lat="48.554014" lon="-1.517939">
        <ele>8.6</ele>
        <time>2020-08-13T23:20:41Z</time>
      </trkpt>
      <trkpt lat="48.553863" lon="-1.51772">
        <ele>8.6</ele>
        <time>2020-08-13T23:20:42Z</time>
      </trkpt>
      <trkpt lat="48.552707" lon="-1.516538">
        <ele>7.8</ele>
        <time>2020-08-13T23:20:51Z</time>
      </trkpt>
      <trkpt lat="48.552377" lon="-1.51623">
        <ele>8.8</ele>
        <time>2020-08-13T23:20:54Z</time>
      </trkpt>
      <trkpt lat="48.552341" lon="-1.516307">
        <ele>8.8</ele>
        <time>2020-08-13T23:20:54Z</time>
      </trkpt>
      <trkpt lat="48.552309" lon="-1.516317">
        <ele>8.8</ele>
        <time>2020-08-13T23:20:55Z</time>
      </trkpt>
      <trkpt lat="48.552277" lon="-1.516301">
        <ele>8.8</ele>
        <time>2020-08-13T23:20:55Z</time>
      </trkpt>
      <trkpt lat="48.552253" lon="-1.516259">
        <ele>8.8</ele>
        <time>2020-08-13T23:20:55Z</time>
      </trkpt>
      <trkpt lat="48.552248" lon="-1.516205">
        <ele>8.8</ele>
        <time>2020-08-13T23:20:56Z</time>
      </trkpt>
      <trkpt lat="48.552262" lon="-1.516155">
        <ele>8.8</ele>
        <time>2020-08-13T23:20:56Z</time>
      </trkpt>
      <trkpt lat="48.55231" lon="-1.516119">
        <ele>8.8</ele>
        <time>2020-08-13T23:20:57Z</time>
      </trkpt>
      <trkpt lat="48.552622" lon="-1.513327">
        <ele>8.4</ele>
        <time>2020-08-13T23:21:17Z</time>
      </trkpt>
      <trkpt lat="48.552673" lon="-1.513101">
        <ele>8.4</ele>
        <time>2020-08-13T23:21:19Z</time>
      </trkpt>
      <trkpt lat="48.552649" lon="-1.51307">
        <ele>8.4</ele>
        <time>2020-08-13T23:21:20Z</time>
      </trkpt>
      <trkpt lat="48.55263" lon="-1.512983">
        <ele>8.4</ele>
        <time>2020-08-13T23:21:20Z</time>
      </trkpt>
      <trkpt lat="48.552651" lon="-1.512897">
        <ele>8.4</ele>
        <time>2020-08-13T23:21:21Z</time>
      </trkpt>
      <trkpt lat="48.55269" lon="-1.512857">
        <ele>8.4</ele>
        <time>2020-08-13T23:21:22Z</time>
      </trkpt>
      <trkpt lat="48.552735" lon="-1.512852">
        <ele>8.4</ele>
        <time>2020-08-13T23:21:22Z</time>
      </trkpt>
      <trkpt lat="48.552785" lon="-1.512893">
        <ele>8.4</ele>
        <time>2020-08-13T23:21:23Z</time>
      </trkpt>
      <trkpt lat="48.552801" lon="-1.512929">
        <ele>8.4</ele>
        <time>2020-08-13T23:21:23Z</time>
      </trkpt>
      <trkpt lat="48.552971" lon="-1.512798">
        <ele>8.4</ele>
        <time>2020-08-13T23:21:26Z</time>
      </trkpt>
      <trkpt lat="48.553184" lon="-1.512743">
        <ele>8.4</ele>
        <time>2020-08-13T23:21:29Z</time>
      </trkpt>
      <trkpt lat="48.554689" lon="-1.512443">
        <ele>10.0</ele>
        <time>2020-08-13T23:21:48Z</time>
      </trkpt>
      <trkpt lat="48.555146" lon="-1.512278">
        <ele>9.0</ele>
        <time>2020-08-13T23:21:55Z</time>
      </trkpt>
      <trkpt lat="48.555485" lon="-1.512061">
        <ele>9.0</ele>
        <time>2020-08-13T23:21:59Z</time>
      </trkpt>
      <trkpt lat="48.556178" lon="-1.511437">
        <ele>9.4</ele>
        <time>2020-08-13T23:22:10Z</time>
      </trkpt>
      <trkpt lat="48.556607" lon="-1.510942">
        <ele>9.4</ele>
        <time>2020-08-13T23:22:17Z</time>
      </trkpt>
      <trkpt lat="48.556954" lon="-1.510499">
        <ele>9.8</ele>
        <time>2020-08-13T23:22:23Z</time>
      </trkpt>
      <trkpt lat="48.557241" lon="-1.510016">
        <ele>9.8</ele>
        <time>2020-08-13T23:22:28Z</time>
      </trkpt>
      <trkpt lat="48.557355" lon="-1.509762">
        <ele>10.2</ele>
        <time>2020-08-13T23:22:31Z</time>
      </trkpt>
      <trkpt lat="48.557446" lon="-1.509483">
        <ele>10.2</ele>
        <time>2020-08-13T23:22:34Z</time>
      </trkpt>
      <trkpt lat="48.557448" lon="-1.509399">
        <ele>10.2</ele>
        <time>2020-08-13T23:22:34Z</time>
      </trkpt>
      <trkpt lat="48.557379" lon="-1.509349">
        <ele>10.2</ele>
        <time>2020-08-13T23:22:35Z</time>
      </trkpt>
      <trkpt lat="48.557357" lon="-1.509241">
        <ele>10.2</ele>
        <time>2020-08-13T23:22:35Z</time>
      </trkpt>
      <trkpt lat="48.557392" lon="-1.509146">
        <ele>10.8</ele>
        <time>2020-08-13T23:22:36Z</time>
      </trkpt>
      <trkpt lat="48.557419" lon="-1.509123">
        <ele>10.8</ele>
        <time>2020-08-13T23:22:36Z</time>
      </trkpt>
      <trkpt lat="48.557481" lon="-1.509122">
        <ele>10.8</ele>
        <time>2020-08-13T23:22:36Z</time>
      </trkpt>
      <trkpt lat="48.557529" lon="-1.509179">
        <ele>9.4</ele>
        <time>2020-08-13T23:22:37Z</time>
      </trkpt>
      <trkpt lat="48.55757" lon="-1.509197">
        <ele>9.4</ele>
        <time>2020-08-13T23:22:37Z</time>
      </trkpt>
      <trkpt lat="48.557688" lon="-1.509243">
        <ele>9.4</ele>
        <time>2020-08-13T23:22:38Z</time>
      </trkpt>
      <trkpt lat="48.557815" lon="-1.509263">
        <ele>9.4</ele>
        <time>2020-08-13T23:22:38Z</time>
      </trkpt>
      <trkpt lat="48.558151" lon="-1.509268">
        <ele>9.4</ele>
        <time>2020-08-13T23:22:40Z</time>
      </trkpt>
      <trkpt lat="48.55829" lon="-1.5093">
        <ele>9.4</ele>
        <time>2020-08-13T23:22:41Z</time>
      </trkpt>
      <trkpt lat="48.559008" lon="-1.509294">
        <ele>8.2</ele>
        <time>2020-08-13T23:22:45Z</time>
      </trkpt>
      <trkpt lat="48.560049" lon="-1.50935">
        <ele>7.2</ele>
        <time>2020-08-13T23:22:52Z</time>
      </trkpt>
      <trkpt lat="48.560204" lon="-1.509337">
        <ele>7.2</ele>
        <time>2020-08-13T23:22:53Z</time>
      </trkpt>
      <trkpt lat="48.561143" lon="-1.509414">
        <ele>7.0</ele>
        <time>2020-08-13T23:22:58Z</time>
      </trkpt>
      <trkpt lat="48.561692" lon="-1.509548">
        <ele>7.0</ele>
        <time>2020-08-13T23:23:01Z</time>
      </trkpt>
      <trkpt lat="48.562302" lon="-1.50983">
        <ele>7.0</ele>
        <time>2020-08-13T23:23:05Z</time>
      </trkpt>
      <trkpt lat="48.562707" lon="-1.510117">
        <ele>7.6</ele>
        <time>2020-08-13T23:23:08Z</time>
      </trkpt>
      <trkpt lat="48.563031" lon="-1.510397">
        <ele>7.6</ele>
        <time>2020-08-13T23:23:10Z</time>
      </trkpt>
      <trkpt lat="48.563359" lon="-1.510747">
        <ele>8.8</ele>
        <time>2020-08-13T23:23:12Z</time>
      </trkpt>
      <trkpt lat="48.564105" lon="-1.511608">
        <ele>7.8</ele>
        <time>2020-08-13T23:23:18Z</time>
      </trkpt>
      <trkpt lat="48.564502" lon="-1.511966">
        <ele>8.0</ele>
        <time>2020-08-13T23:23:21Z</time>
      </trkpt>
      <trkpt lat="48.565026" lon="-1.512325">
        <ele>8.8</ele>
        <time>2020-08-13T23:23:24Z</time>
      </trkpt>
      <trkpt lat="48.565279" lon="-1.512466">
        <ele>8.8</ele>
        <time>2020-08-13T23:23:26Z</time>
      </trkpt>
      <trkpt lat="48.565517" lon="-1.51256">
        <ele>7.4</ele>
        <time>2020-08-13T23:23:27Z</time>
      </trkpt>
      <trkpt lat="48.565827" lon="-1.512649">
        <ele>7.4</ele>
        <time>2020-08-13T23:23:29Z</time>
      </trkpt>
      <trkpt lat="48.566153" lon="-1.512707">
        <ele>7.0</ele>
        <time>2020-08-13T23:23:31Z</time>
      </trkpt>
      <trkpt lat="48.567055" lon="-1.512807">
        <ele>7.0</ele>
        <time>2020-08-13T23:23:37Z</time>
      </trkpt>
      <trkpt lat="48.567526" lon="-1.512831">
        <ele>6.8</ele>
        <time>2020-08-13T23:23:39Z</time>
      </trkpt>
      <trkpt lat="48.57589" lon="-1.512548">
        <ele>7.0</ele>
        <time>2020-08-13T23:24:29Z</time>
      </trkpt>
      <trkpt lat="48.577775" lon="-1.512447">
        <ele>7.4</ele>
        <time>2020-08-13T23:24:40Z</time>
      </trkpt>
      <trkpt lat="48.582878" lon="-1.511619">
        <ele>8.2</ele>
        <time>2020-08-13T23:25:11Z</time>
      </trkpt>
      <trkpt lat="48.583845" lon="-1.511434">
        <ele>7.4</ele>
        <time>2020-08-13T23:25:16Z</time>
      </trkpt>
      <trkpt lat="48.589608" lon="-1.510007">
        <ele>7.6</ele>
        <time>2020-08-13T23:25:51Z</time>
      </trkpt>
      <trkpt lat="48.590046" lon="-1.509954">
        <ele>8.0</ele>
        <time>2020-08-13T23:25:54Z</time>
      </trkpt>
      <trkpt lat="48.590426" lon="-1.509983">
        <ele>8.0</ele>
        <time>2020-08-13T23:25:56Z</time>
      </trkpt>
      <trkpt lat="48.590982" lon="-1.510081">
        <ele>6.4</ele>
        <time>2020-08-13T23:25:59Z</time>
      </trkpt>
      <trkpt lat="48.592162" lon="-1.510423">
        <ele>6.8</ele>
        <time>2020-08-13T23:26:07Z</time>
      </trkpt>
      <trkpt lat="48.592533" lon="-1.510563">
        <ele>6.8</ele>
        <time>2020-08-13T23:26:09Z</time>
      </trkpt>
      <trkpt lat="48.592861" lon="-1.510736">
        <ele>6.8</ele>
        <time>2020-08-13T23:26:11Z</time>
      </trkpt>
      <trkpt lat="48.593128" lon="-1.510948">
        <ele>6.2</ele>
        <time>2020-08-13T23:26:13Z</time>
      </trkpt>
      <trkpt lat="48.594176" lon="-1.511917">
        <ele>6.0</ele>
        <time>2020-08-13T23:26:20Z</time>
      </trkpt>
      <trkpt lat="48.594306" lon="-1.512016">
        <ele>6.0</ele>
        <time>2020-08-13T23:26:21Z</time>
      </trkpt>
      <trkpt lat="48.594516" lon="-1.512148">
        <ele>6.0</ele>
        <time>2020-08-13T23:26:22Z</time>
      </trkpt>
      <trkpt lat="48.594687" lon="-1.512209">
        <ele>6.0</ele>
        <time>2020-08-13T23:26:23Z</time>
      </trkpt>
      <trkpt lat="48.595801" lon="-1.512421">
        <ele>6.4</ele>
        <time>2020-08-13T23:26:30Z</time>
      </trkpt>
      <trkpt lat="48.596238" lon="-1.512537">
        <ele>7.6</ele>
        <time>2020-08-13T23:26:33Z</time>
      </trkpt>
      <trkpt lat="48.597909" lon="-1.513056">
        <ele>7.6</ele>
        <time>2020-08-13T23:26:43Z</time>
      </trkpt>
      <trkpt lat="48.598045" lon="-1.513078">
        <ele>7.6</ele>
        <time>2020-08-13T23:26:43Z</time>
      </trkpt>
      <trkpt lat="48.598794" lon="-1.513081">
        <ele>7.4</ele>
        <time>2020-08-13T23:26:48Z</time>
      </trkpt>
      <trkpt lat="48.599647" lon="-1.513041">
        <ele>7.6</ele>
        <time>2020-08-13T23:26:53Z</time>
      </trkpt>
      <trkpt lat="48.601751" lon="-1.512429">
        <ele>6.6</ele>
        <time>2020-08-13T23:27:06Z</time>
      </trkpt>
      <trkpt lat="48.604387" lon="-1.511601">
        <ele>6.2</ele>
        <time>2020-08-13T23:27:22Z</time>
      </trkpt>
      <trkpt lat="48.607891" lon="-1.510346">
        <ele>6.4</ele>
        <time>2020-08-13T23:27:43Z</time>
      </trkpt>
      <trkpt lat="48.607998" lon="-1.510287">
        <ele>6.4</ele>
        <time>2020-08-13T23:27:44Z</time>
      </trkpt>
      <trkpt lat="48.608112" lon="-1.510126">
        <ele>6.4</ele>
        <time>2020-08-13T23:27:45Z</time>
      </trkpt>
      <trkpt lat="48.608304" lon="-1.510198">
        <ele>6.4</ele>
        <time>2020-08-13T23:27:46Z</time>
      </trkpt>
      <trkpt lat="48.608489" lon="-1.510176">
        <ele>6.2</ele>
        <time>2020-08-13T23:27:48Z</time>
      </trkpt>
      <trkpt lat="48.60906" lon="-1.510041">
        <ele>6.2</ele>
        <time>2020-08-13T23:27:52Z</time>
      </trkpt>
      <trkpt lat="48.609816" lon="-1.509953">
        <ele>5.8</ele>
        <time>2020-08-13T23:27:58Z</time>
      </trkpt>
      <trkpt lat="48.610068" lon="-1.509861">
        <ele>6.4</ele>
        <time>2020-08-13T23:28:04Z</time>
      </trkpt>
      <trkpt lat="48.610283" lon="-1.509847">
        <ele>6.4</ele>
        <time>2020-08-13T23:28:09Z</time>
      </trkpt>
      <trkpt lat="48.61032" lon="-1.509791">
        <ele>6.4</ele>
        <time>2020-08-13T23:28:10Z</time>
      </trkpt>
      <trkpt lat="48.610347" lon="-1.509673">
        <ele>6.4</ele>
        <time>2020-08-13T23:28:12Z</time>
      </trkpt>
      <trkpt lat="48.610201" lon="-1.507968">
        <ele>6.6</ele>
        <time>2020-08-13T23:28:38Z</time>
      </trkpt>
      <trkpt lat="48.611503" lon="-1.5078">
        <ele>6.4</ele>
        <time>2020-08-13T23:29:08Z</time>
      </trkpt>
      <trkpt lat="48.596769" lon="-1.50784">
        <ele>6.9</ele>
        <time>2020-08-12T14:23:56Z</time>
      </trkpt>
      <trkpt lat="48.596709" lon="-1.507106">
        <ele>7.8</ele>
        <time>2020-08-12T14:24:00Z</time>
      </trkpt>
      <trkpt lat="48.596634" lon="-1.506624">
        <ele>11.6</ele>
        <time>2020-08-12T14:24:02Z</time>
      </trkpt>
      <trkpt lat="48.596419" lon="-1.505492">
        <ele>15.2</ele>
        <time>2020-08-12T14:24:09Z</time>
      </trkpt>
      <trkpt lat="48.59638" lon="-1.50521">
        <ele>15.2</ele>
        <time>2020-08-12T14:24:10Z</time>
      </trkpt>
      <trkpt lat="48.596317" lon="-1.504721">
        <ele>17.6</ele>
        <time>2020-08-12T14:24:13Z</time>
      </trkpt>
      <trkpt lat="48.596297" lon="-1.504339">
        <ele>17.6</ele>
        <time>2020-08-12T14:24:15Z</time>
      </trkpt>
      <trkpt lat="48.596126" lon="-1.503002">
        <ele>18.4</ele>
        <time>2020-08-12T14:24:22Z</time>
      </trkpt>
      <trkpt lat="48.595964" lon="-1.502054">
        <ele>17.4</ele>
        <time>2020-08-12T14:24:27Z</time>
      </trkpt>
      <trkpt lat="48.595917" lon="-1.501914">
        <ele>17.4</ele>
        <time>2020-08-12T14:24:28Z</time>
      </trkpt>
      <trkpt lat="48.595841" lon="-1.501742">
        <ele>17.4</ele>
        <time>2020-08-12T14:24:29Z</time>
      </trkpt>
      <trkpt lat="48.59524" lon="-1.500648">
        <ele>15.6</ele>
        <time>2020-08-12T14:24:37Z</time>
      </trkpt>
      <trkpt lat="48.595128" lon="-1.500481">
        <ele>15.6</ele>
        <time>2020-08-12T14:24:38Z</time>
      </trkpt>
      <trkpt lat="48.594851" lon="-1.500181">
        <ele>16.8</ele>
        <time>2020-08-12T14:24:41Z</time>
      </trkpt>
      <trkpt lat="48.594623" lon="-1.50002">
        <ele>16.8</ele>
        <time>2020-08-12T14:24:43Z</time>
      </trkpt>
      <trkpt lat="48.59451" lon="-1.499976">
        <ele>15.8</ele>
        <time>2020-08-12T14:24:44Z</time>
      </trkpt>
      <trkpt lat="48.593463" lon="-1.499835">
        <ele>17.8</ele>
        <time>2020-08-12T14:24:52Z</time>
      </trkpt>
      <trkpt lat="48.59336" lon="-1.499792">
        <ele>17.8</ele>
        <time>2020-08-12T14:24:53Z</time>
      </trkpt>
      <trkpt lat="48.593159" lon="-1.499588">
        <ele>19.4</ele>
        <time>2020-08-12T14:24:55Z</time>
      </trkpt>
      <trkpt lat="48.593075" lon="-1.499438">
        <ele>19.4</ele>
        <time>2020-08-12T14:24:56Z</time>
      </trkpt>
      <trkpt lat="48.592773" lon="-1.498767">
        <ele>19.2</ele>
        <time>2020-08-12T14:25:00Z</time>
      </trkpt>
      <trkpt lat="48.59249" lon="-1.498078">
        <ele>20.8</ele>
        <time>2020-08-12T14:25:04Z</time>
      </trkpt>
      <trkpt lat="48.592054" lon="-1.496543">
        <ele>23.8</ele>
        <time>2020-08-12T14:25:13Z</time>
      </trkpt>
      <trkpt lat="48.591855" lon="-1.495991">
        <ele>23.8</ele>
        <time>2020-08-12T14:25:17Z</time>
      </trkpt>
      <trkpt lat="48.591303" lon="-1.494607">
        <ele>25.6</ele>
        <time>2020-08-12T14:25:25Z</time>
      </trkpt>
      <trkpt lat="48.591108" lon="-1.494207">
        <ele>25.6</ele>
        <time>2020-08-12T14:25:28Z</time>
      </trkpt>
      <trkpt lat="48.590127" lon="-1.492482">
        <ele>29.6</ele>
        <time>2020-08-12T14:25:40Z</time>
      </trkpt>
      <trkpt lat="48.589922" lon="-1.491958">
        <ele>27.0</ele>
        <time>2020-08-12T14:25:43Z</time>
      </trkpt>
      <trkpt lat="48.589827" lon="-1.491648">
        <ele>27.4</ele>
        <time>2020-08-12T14:25:45Z</time>
      </trkpt>
      <trkpt lat="48.589711" lon="-1.491116">
        <ele>27.4</ele>
        <time>2020-08-12T14:25:48Z</time>
      </trkpt>
      <trkpt lat="48.589486" lon="-1.4895">
        <ele>29.0</ele>
        <time>2020-08-12T14:25:57Z</time>
      </trkpt>
      <trkpt lat="48.589356" lon="-1.488732">
        <ele>29.6</ele>
        <time>2020-08-12T14:26:01Z</time>
      </trkpt>
      <trkpt lat="48.589217" lon="-1.488025">
        <ele>30.0</ele>
        <time>2020-08-12T14:26:05Z</time>
      </trkpt>
      <trkpt lat="48.588508" lon="-1.48496">
        <ele>28.2</ele>
        <time>2020-08-12T14:26:22Z</time>
      </trkpt>
      <trkpt lat="48.588359" lon="-1.484406">
        <ele>28.2</ele>
        <time>2020-08-12T14:26:25Z</time>
      </trkpt>
      <trkpt lat="48.587801" lon="-1.482895">
        <ele>29.4</ele>
        <time>2020-08-12T14:26:34Z</time>
      </trkpt>
      <trkpt lat="48.587736" lon="-1.482669">
        <ele>29.4</ele>
        <time>2020-08-12T14:26:36Z</time>
      </trkpt>
      <trkpt lat="48.587692" lon="-1.482425">
        <ele>31.2</ele>
        <time>2020-08-12T14:26:37Z</time>
      </trkpt>
      <trkpt lat="48.587569" lon="-1.481329">
        <ele>33.0</ele>
        <time>2020-08-12T14:26:43Z</time>
      </trkpt>
      <trkpt lat="48.587346" lon="-1.479911">
        <ele>38.8</ele>
        <time>2020-08-12T14:26:51Z</time>
      </trkpt>
      <trkpt lat="48.587083" lon="-1.478944">
        <ele>42.6</ele>
        <time>2020-08-12T14:26:56Z</time>
      </trkpt>
      <trkpt lat="48.586678" lon="-1.477132">
        <ele>45.0</ele>
        <time>2020-08-12T14:27:06Z</time>
      </trkpt>
      <trkpt lat="48.586339" lon="-1.475325">
        <ele>43.0</ele>
        <time>2020-08-12T14:27:16Z</time>
      </trkpt>
      <trkpt lat="48.586233" lon="-1.47496">
        <ele>43.0</ele>
        <time>2020-08-12T14:27:18Z</time>
      </trkpt>
      <trkpt lat="48.585296" lon="-1.47268">
        <ele>42.4</ele>
        <time>2020-08-12T14:27:32Z</time>
      </trkpt>
      <trkpt lat="48.583508" lon="-1.467902">
        <ele>36.0</ele>
        <time>2020-08-12T14:28:02Z</time>
      </trkpt>
      <trkpt lat="48.583329" lon="-1.467475">
        <ele>34.8</ele>
        <time>2020-08-12T14:28:04Z</time>
      </trkpt>
      <trkpt lat="48.582656" lon="-1.46616">
        <ele>35.0</ele>
        <time>2020-08-12T14:28:13Z</time>
      </trkpt>
      <trkpt lat="48.582455" lon="-1.465705">
        <ele>32.4</ele>
        <time>2020-08-12T14:28:16Z</time>
      </trkpt>
      <trkpt lat="48.582327" lon="-1.465295">
        <ele>32.4</ele>
        <time>2020-08-12T14:28:18Z</time>
      </trkpt>
      <trkpt lat="48.582241" lon="-1.464919">
        <ele>32.0</ele>
        <time>2020-08-12T14:28:20Z</time>
      </trkpt>
      <trkpt lat="48.582152" lon="-1.46435">
        <ele>32.0</ele>
        <time>2020-08-12T14:28:24Z</time>
      </trkpt>
      <trkpt lat="48.582025" lon="-1.463816">
        <ele>31.6</ele>
        <time>2020-08-12T14:28:27Z</time>
      </trkpt>
      <trkpt lat="48.58189" lon="-1.463397">
        <ele>31.6</ele>
        <time>2020-08-12T14:28:29Z</time>
      </trkpt>
      <trkpt lat="48.580619" lon="-1.459791">
        <ele>32.2</ele>
        <time>2020-08-12T14:28:51Z</time>
      </trkpt>
      <trkpt lat="48.580491" lon="-1.459485">
        <ele>32.2</ele>
        <time>2020-08-12T14:28:53Z</time>
      </trkpt>
      <trkpt lat="48.580356" lon="-1.459265">
        <ele>32.2</ele>
        <time>2020-08-12T14:28:54Z</time>
      </trkpt>
      <trkpt lat="48.57979" lon="-1.458692">
        <ele>31.8</ele>
        <time>2020-08-12T14:29:00Z</time>
      </trkpt>
      <trkpt lat="48.57961" lon="-1.458426">
        <ele>31.8</ele>
        <time>2020-08-12T14:29:02Z</time>
      </trkpt>
      <trkpt lat="48.579439" lon="-1.458081">
        <ele>31.2</ele>
        <time>2020-08-12T14:29:04Z</time>
      </trkpt>
      <trkpt lat="48.578813" lon="-1.4563">
        <ele>29.6</ele>
        <time>2020-08-12T14:29:15Z</time>
      </trkpt>
      <trkpt lat="48.578749" lon="-1.456079">
        <ele>29.6</ele>
        <time>2020-08-12T14:29:16Z</time>
      </trkpt>
      <trkpt lat="48.578583" lon="-1.455347">
        <ele>30.0</ele>
        <time>2020-08-12T14:29:20Z</time>
      </trkpt>
      <trkpt lat="48.57846" lon="-1.454426">
        <ele>31.4</ele>
        <time>2020-08-12T14:29:25Z</time>
      </trkpt>
      <trkpt lat="48.578332" lon="-1.453133">
        <ele>33.0</ele>
        <time>2020-08-12T14:29:32Z</time>
      </trkpt>
      <trkpt lat="48.578306" lon="-1.45294">
        <ele>33.0</ele>
        <time>2020-08-12T14:29:33Z</time>
      </trkpt>
      <trkpt lat="48.578265" lon="-1.452776">
        <ele>33.0</ele>
        <time>2020-08-12T14:29:34Z</time>
      </trkpt>
      <trkpt lat="48.578175" lon="-1.452569">
        <ele>33.0</ele>
        <time>2020-08-12T14:29:35Z</time>
      </trkpt>
      <trkpt lat="48.578078" lon="-1.452408">
        <ele>33.0</ele>
        <time>2020-08-12T14:29:36Z</time>
      </trkpt>
      <trkpt lat="48.577793" lon="-1.452155">
        <ele>33.0</ele>
        <time>2020-08-12T14:29:39Z</time>
      </trkpt>
      <trkpt lat="48.577738" lon="-1.452084">
        <ele>33.0</ele>
        <time>2020-08-12T14:29:40Z</time>
      </trkpt>
      <trkpt lat="48.577709" lon="-1.451965">
        <ele>33.0</ele>
        <time>2020-08-12T14:29:40Z</time>
      </trkpt>
      <trkpt lat="48.577701" lon="-1.451691">
        <ele>33.0</ele>
        <time>2020-08-12T14:29:42Z</time>
      </trkpt>
      <trkpt lat="48.577738" lon="-1.450497">
        <ele>32.6</ele>
        <time>2020-08-12T14:29:50Z</time>
      </trkpt>
      <trkpt lat="48.577713" lon="-1.450151">
        <ele>32.6</ele>
        <time>2020-08-12T14:29:53Z</time>
      </trkpt>
      <trkpt lat="48.577542" lon="-1.44935">
        <ele>33.0</ele>
        <time>2020-08-12T14:29:58Z</time>
      </trkpt>
      <trkpt lat="48.577494" lon="-1.448844">
        <ele>32.2</ele>
        <time>2020-08-12T14:30:02Z</time>
      </trkpt>
      <trkpt lat="48.577451" lon="-1.448748">
        <ele>32.2</ele>
        <time>2020-08-12T14:30:03Z</time>
      </trkpt>
      <trkpt lat="48.577368" lon="-1.448656">
        <ele>32.2</ele>
        <time>2020-08-12T14:30:04Z</time>
      </trkpt>
      <trkpt lat="48.577345" lon="-1.448382">
        <ele>32.2</ele>
        <time>2020-08-12T14:30:05Z</time>
      </trkpt>
      <trkpt lat="48.577299" lon="-1.448321">
        <ele>34.2</ele>
        <time>2020-08-12T14:30:06Z</time>
      </trkpt>
      <trkpt lat="48.577095" lon="-1.447632">
        <ele>34.2</ele>
        <time>2020-08-12T14:30:09Z</time>
      </trkpt>
      <trkpt lat="48.576942" lon="-1.447203">
        <ele>36.8</ele>
        <time>2020-08-12T14:30:12Z</time>
      </trkpt>
      <trkpt lat="48.576644" lon="-1.446473">
        <ele>37.2</ele>
        <time>2020-08-12T14:30:16Z</time>
      </trkpt>
      <trkpt lat="48.576482" lon="-1.446142">
        <ele>37.2</ele>
        <time>2020-08-12T14:30:18Z</time>
      </trkpt>
      <trkpt lat="48.576322" lon="-1.445919">
        <ele>37.2</ele>
        <time>2020-08-12T14:30:20Z</time>
      </trkpt>
      <trkpt lat="48.575935" lon="-1.44559">
        <ele>38.2</ele>
        <time>2020-08-12T14:30:24Z</time>
      </trkpt>
      <trkpt lat="48.575491" lon="-1.445115">
        <ele>37.8</ele>
        <time>2020-08-12T14:30:28Z</time>
      </trkpt>
      <trkpt lat="48.574143" lon="-1.443276">
        <ele>41.8</ele>
        <time>2020-08-12T14:30:42Z</time>
      </trkpt>
      <trkpt lat="48.57206" lon="-1.440887">
        <ele>44.4</ele>
        <time>2020-08-12T14:31:02Z</time>
      </trkpt>
      <trkpt lat="48.571889" lon="-1.440498">
        <ele>45.6</ele>
        <time>2020-08-12T14:31:04Z</time>
      </trkpt>
      <trkpt lat="48.571529" lon="-1.439509">
        <ele>45.2</ele>
        <time>2020-08-12T14:31:10Z</time>
      </trkpt>
      <trkpt lat="48.571347" lon="-1.43909">
        <ele>44.8</ele>
        <time>2020-08-12T14:31:12Z</time>
      </trkpt>
      <trkpt lat="48.571092" lon="-1.438638">
        <ele>44.8</ele>
        <time>2020-08-12T14:31:15Z</time>
      </trkpt>
      <trkpt lat="48.570791" lon="-1.438161">
        <ele>44.4</ele>
        <time>2020-08-12T14:31:19Z</time>
      </trkpt>
      <trkpt lat="48.569974" lon="-1.437025">
        <ele>46.8</ele>
        <time>2020-08-12T14:31:27Z</time>
      </trkpt>
      <trkpt lat="48.569559" lon="-1.436377">
        <ele>48.2</ele>
        <time>2020-08-12T14:31:32Z</time>
      </trkpt>
      <trkpt lat="48.568019" lon="-1.433713">
        <ele>48.8</ele>
        <time>2020-08-12T14:31:50Z</time>
      </trkpt>
      <trkpt lat="48.567701" lon="-1.432847">
        <ele>49.6</ele>
        <time>2020-08-12T14:31:55Z</time>
      </trkpt>
      <trkpt lat="48.567609" lon="-1.432652">
        <ele>49.6</ele>
        <time>2020-08-12T14:31:56Z</time>
      </trkpt>
      <trkpt lat="48.56682" lon="-1.43131">
        <ele>52.6</ele>
        <time>2020-08-12T14:32:05Z</time>
      </trkpt>
      <trkpt lat="48.56668" lon="-1.431101">
        <ele>52.6</ele>
        <time>2020-08-12T14:32:07Z</time>
      </trkpt>
      <trkpt lat="48.56523" lon="-1.429434">
        <ele>56.0</ele>
        <time>2020-08-12T14:32:21Z</time>
      </trkpt>
      <trkpt lat="48.564663" lon="-1.428753">
        <ele>58.2</ele>
        <time>2020-08-12T14:32:26Z</time>
      </trkpt>
      <trkpt lat="48.56425" lon="-1.428215">
        <ele>58.4</ele>
        <time>2020-08-12T14:32:31Z</time>
      </trkpt>
      <trkpt lat="48.563599" lon="-1.427177">
        <ele>61.0</ele>
        <time>2020-08-12T14:32:38Z</time>
      </trkpt>
      <trkpt lat="48.563306" lon="-1.42674">
        <ele>62.6</ele>
        <time>2020-08-12T14:32:41Z</time>
      </trkpt>
      <trkpt lat="48.563057" lon="-1.42642">
        <ele>63.0</ele>
        <time>2020-08-12T14:32:43Z</time>
      </trkpt>
      <trkpt lat="48.562754" lon="-1.426085">
        <ele>63.0</ele>
        <time>2020-08-12T14:32:46Z</time>
      </trkpt>
      <trkpt lat="48.562435" lon="-1.425797">
        <ele>64.2</ele>
        <time>2020-08-12T14:32:49Z</time>
      </trkpt>
      <trkpt lat="48.561935" lon="-1.425408">
        <ele>64.2</ele>
        <time>2020-08-12T14:32:54Z</time>
      </trkpt>
      <trkpt lat="48.560762" lon="-1.42417">
        <ele>64.6</ele>
        <time>2020-08-12T14:33:05Z</time>
      </trkpt>
      <trkpt lat="48.560336" lon="-1.423686">
        <ele>62.6</ele>
        <time>2020-08-12T14:33:09Z</time>
      </trkpt>
      <trkpt lat="48.557786" lon="-1.421035">
        <ele>58.8</ele>
        <time>2020-08-12T14:33:32Z</time>
      </trkpt>
      <trkpt lat="48.557638" lon="-1.420913">
        <ele>58.8</ele>
        <time>2020-08-12T14:33:34Z</time>
      </trkpt>
      <trkpt lat="48.557241" lon="-1.420657">
        <ele>58.4</ele>
        <time>2020-08-12T14:33:37Z</time>
      </trkpt>
      <trkpt lat="48.557087" lon="-1.42052">
        <ele>58.4</ele>
        <time>2020-08-12T14:33:38Z</time>
      </trkpt>
      <trkpt lat="48.556967" lon="-1.420341">
        <ele>58.4</ele>
        <time>2020-08-12T14:33:40Z</time>
      </trkpt>
      <trkpt lat="48.555793" lon="-1.417813">
        <ele>61.2</ele>
        <time>2020-08-12T14:33:55Z</time>
      </trkpt>
      <trkpt lat="48.555349" lon="-1.416919">
        <ele>59.4</ele>
        <time>2020-08-12T14:34:01Z</time>
      </trkpt>
      <trkpt lat="48.554365" lon="-1.415012">
        <ele>58.4</ele>
        <time>2020-08-12T14:34:13Z</time>
      </trkpt>
      <trkpt lat="48.553642" lon="-1.413523">
        <ele>59.6</ele>
        <time>2020-08-12T14:34:23Z</time>
      </trkpt>
      <trkpt lat="48.552916" lon="-1.41182">
        <ele>60.6</ele>
        <time>2020-08-12T14:34:33Z</time>
      </trkpt>
      <trkpt lat="48.552402" lon="-1.410567">
        <ele>62.4</ele>
        <time>2020-08-12T14:34:41Z</time>
      </trkpt>
      <trkpt lat="48.552297" lon="-1.410186">
        <ele>62.4</ele>
        <time>2020-08-12T14:34:43Z</time>
      </trkpt>
      <trkpt lat="48.551789" lon="-1.407627">
        <ele>62.2</ele>
        <time>2020-08-12T14:34:56Z</time>
      </trkpt>
      <trkpt lat="48.55173" lon="-1.407415">
        <ele>62.6</ele>
        <time>2020-08-12T14:34:57Z</time>
      </trkpt>
      <trkpt lat="48.551634" lon="-1.407278">
        <ele>63.0</ele>
        <time>2020-08-12T14:34:58Z</time>
      </trkpt>
      <trkpt lat="48.551545" lon="-1.407245">
        <ele>63.0</ele>
        <time>2020-08-12T14:34:59Z</time>
      </trkpt>
      <trkpt lat="48.551422" lon="-1.407241">
        <ele>63.0</ele>
        <time>2020-08-12T14:35:00Z</time>
      </trkpt>
      <trkpt lat="48.55091" lon="-1.407414">
        <ele>63.0</ele>
        <time>2020-08-12T14:35:04Z</time>
      </trkpt>
      <trkpt lat="48.55082" lon="-1.406907">
        <ele>63.2</ele>
        <time>2020-08-12T14:35:06Z</time>
      </trkpt>
      <trkpt lat="48.550135" lon="-1.403768">
        <ele>65.6</ele>
        <time>2020-08-12T14:35:17Z</time>
      </trkpt>
      <trkpt lat="48.550077" lon="-1.403372">
        <ele>65.6</ele>
        <time>2020-08-12T14:35:19Z</time>
      </trkpt>
      <trkpt lat="48.550017" lon="-1.402651">
        <ele>66.0</ele>
        <time>2020-08-12T14:35:21Z</time>
      </trkpt>
      <trkpt lat="48.549997" lon="-1.400299">
        <ele>68.6</ele>
        <time>2020-08-12T14:35:30Z</time>
      </trkpt>
      <trkpt lat="48.54993" lon="-1.399659">
        <ele>69.2</ele>
        <time>2020-08-12T14:35:32Z</time>
      </trkpt>
      <trkpt lat="48.549519" lon="-1.396912">
        <ele>69.6</ele>
        <time>2020-08-12T14:35:42Z</time>
      </trkpt>
      <trkpt lat="48.549321" lon="-1.395291">
        <ele>69.8</ele>
        <time>2020-08-12T14:35:47Z</time>
      </trkpt>
      <trkpt lat="48.549127" lon="-1.393297">
        <ele>70.2</ele>
        <time>2020-08-12T14:35:54Z</time>
      </trkpt>
      <trkpt lat="48.548699" lon="-1.39158">
        <ele>69.8</ele>
        <time>2020-08-12T14:36:01Z</time>
      </trkpt>
      <trkpt lat="48.547797" lon="-1.388513">
        <ele>73.2</ele>
        <time>2020-08-12T14:36:12Z</time>
      </trkpt>
      <trkpt lat="48.54736" lon="-1.387166">
        <ele>76.2</ele>
        <time>2020-08-12T14:36:17Z</time>
      </trkpt>
      <trkpt lat="48.547011" lon="-1.386293">
        <ele>77.2</ele>
        <time>2020-08-12T14:36:21Z</time>
      </trkpt>
      <trkpt lat="48.546479" lon="-1.385037">
        <ele>77.8</ele>
        <time>2020-08-12T14:36:26Z</time>
      </trkpt>
      <trkpt lat="48.546194" lon="-1.384194">
        <ele>79.4</ele>
        <time>2020-08-12T14:36:29Z</time>
      </trkpt>
      <trkpt lat="48.545992" lon="-1.383362">
        <ele>80.6</ele>
        <time>2020-08-12T14:36:33Z</time>
      </trkpt>
      <trkpt lat="48.545958" lon="-1.383149">
        <ele>81.8</ele>
        <time>2020-08-12T14:36:33Z</time>
      </trkpt>
      <trkpt lat="48.545837" lon="-1.382733">
        <ele>81.8</ele>
        <time>2020-08-12T14:36:35Z</time>
      </trkpt>
      <trkpt lat="48.545693" lon="-1.382363">
        <ele>82.4</ele>
        <time>2020-08-12T14:36:36Z</time>
      </trkpt>
      <trkpt lat="48.545544" lon="-1.382073">
        <ele>82.4</ele>
        <time>2020-08-12T14:36:38Z</time>
      </trkpt>
      <trkpt lat="48.545423" lon="-1.381759">
        <ele>82.4</ele>
        <time>2020-08-12T14:36:39Z</time>
      </trkpt>
      <trkpt lat="48.545302" lon="-1.381219">
        <ele>82.8</ele>
        <time>2020-08-12T14:36:41Z</time>
      </trkpt>
      <trkpt lat="48.545196" lon="-1.380594">
        <ele>82.6</ele>
        <time>2020-08-12T14:36:43Z</time>
      </trkpt>
      <trkpt lat="48.545143" lon="-1.379843">
        <ele>82.6</ele>
        <time>2020-08-12T14:36:46Z</time>
      </trkpt>
      <trkpt lat="48.545119" lon="-1.378642">
        <ele>82.0</ele>
        <time>2020-08-12T14:36:50Z</time>
      </trkpt>
      <trkpt lat="48.544967" lon="-1.376978">
        <ele>79.8</ele>
        <time>2020-08-12T14:36:56Z</time>
      </trkpt>
      <trkpt lat="48.544832" lon="-1.375687">
        <ele>82.8</ele>
        <time>2020-08-12T14:37:00Z</time>
      </trkpt>
      <trkpt lat="48.544405" lon="-1.373025">
        <ele>86.8</ele>
        <time>2020-08-12T14:37:10Z</time>
      </trkpt>
      <trkpt lat="48.543861" lon="-1.370554">
        <ele>85.8</ele>
        <time>2020-08-12T14:37:19Z</time>
      </trkpt>
      <trkpt lat="48.543721" lon="-1.370086">
        <ele>85.8</ele>
        <time>2020-08-12T14:37:21Z</time>
      </trkpt>
      <trkpt lat="48.543494" lon="-1.369604">
        <ele>85.8</ele>
        <time>2020-08-12T14:37:23Z</time>
      </trkpt>
      <trkpt lat="48.54123" lon="-1.366124">
        <ele>82.8</ele>
        <time>2020-08-12T14:37:40Z</time>
      </trkpt>
      <trkpt lat="48.539424" lon="-1.364063">
        <ele>76.4</ele>
        <time>2020-08-12T14:37:51Z</time>
      </trkpt>
      <trkpt lat="48.538878" lon="-1.363659">
        <ele>78.2</ele>
        <time>2020-08-12T14:37:55Z</time>
      </trkpt>
      <trkpt lat="48.538532" lon="-1.363288">
        <ele>76.6</ele>
        <time>2020-08-12T14:37:57Z</time>
      </trkpt>
      <trkpt lat="48.538242" lon="-1.362648">
        <ele>78.2</ele>
        <time>2020-08-12T14:38:00Z</time>
      </trkpt>
      <trkpt lat="48.537574" lon="-1.360153">
        <ele>79.4</ele>
        <time>2020-08-12T14:38:09Z</time>
      </trkpt>
      <trkpt lat="48.537265" lon="-1.359248">
        <ele>81.2</ele>
        <time>2020-08-12T14:38:12Z</time>
      </trkpt>
      <trkpt lat="48.536089" lon="-1.355438">
        <ele>76.2</ele>
        <time>2020-08-12T14:38:27Z</time>
      </trkpt>
      <trkpt lat="48.534468" lon="-1.351535">
        <ele>73.4</ele>
        <time>2020-08-12T14:38:43Z</time>
      </trkpt>
      <trkpt lat="48.534226" lon="-1.350897">
        <ele>73.4</ele>
        <time>2020-08-12T14:38:46Z</time>
      </trkpt>
      <trkpt lat="48.533149" lon="-1.347823">
        <ele>71.6</ele>
        <time>2020-08-12T14:38:58Z</time>
      </trkpt>
      <trkpt lat="48.532967" lon="-1.347397">
        <ele>69.6</ele>
        <time>2020-08-12T14:38:59Z</time>
      </trkpt>
      <trkpt lat="48.532485" lon="-1.346486">
        <ele>70.6</ele>
        <time>2020-08-12T14:39:03Z</time>
      </trkpt>
      <trkpt lat="48.532098" lon="-1.345954">
        <ele>70.6</ele>
        <time>2020-08-12T14:39:06Z</time>
      </trkpt>
      <trkpt lat="48.531897" lon="-1.345771">
        <ele>71.8</ele>
        <time>2020-08-12T14:39:07Z</time>
      </trkpt>
      <trkpt lat="48.531638" lon="-1.345582">
        <ele>73.8</ele>
        <time>2020-08-12T14:39:09Z</time>
      </trkpt>
      <trkpt lat="48.531306" lon="-1.345431">
        <ele>73.8</ele>
        <time>2020-08-12T14:39:11Z</time>
      </trkpt>
      <trkpt lat="48.530667" lon="-1.345321">
        <ele>76.0</ele>
        <time>2020-08-12T14:39:14Z</time>
      </trkpt>
      <trkpt lat="48.530649" lon="-1.345442">
        <ele>76.0</ele>
        <time>2020-08-12T14:39:14Z</time>
      </trkpt>
      <trkpt lat="48.530607" lon="-1.345547">
        <ele>76.0</ele>
        <time>2020-08-12T14:39:15Z</time>
      </trkpt>
      <trkpt lat="48.530544" lon="-1.345628">
        <ele>76.0</ele>
        <time>2020-08-12T14:39:15Z</time>
      </trkpt>
      <trkpt lat="48.530468" lon="-1.345675">
        <ele>76.0</ele>
        <time>2020-08-12T14:39:15Z</time>
      </trkpt>
      <trkpt lat="48.530387" lon="-1.345683">
        <ele>76.0</ele>
        <time>2020-08-12T14:39:16Z</time>
      </trkpt>
      <trkpt lat="48.530281" lon="-1.345632">
        <ele>76.0</ele>
        <time>2020-08-12T14:39:16Z</time>
      </trkpt>
      <trkpt lat="48.530199" lon="-1.345518">
        <ele>76.0</ele>
        <time>2020-08-12T14:39:17Z</time>
      </trkpt>
      <trkpt lat="48.530157" lon="-1.345362">
        <ele>76.0</ele>
        <time>2020-08-12T14:39:17Z</time>
      </trkpt>
      <trkpt lat="48.53004" lon="-1.345232">
        <ele>76.0</ele>
        <time>2020-08-12T14:39:18Z</time>
      </trkpt>
      <trkpt lat="48.529926" lon="-1.345175">
        <ele>78.4</ele>
        <time>2020-08-12T14:39:18Z</time>
      </trkpt>
      <trkpt lat="48.528947" lon="-1.344854">
        <ele>81.0</ele>
        <time>2020-08-12T14:39:22Z</time>
      </trkpt>
      <trkpt lat="48.528778" lon="-1.34482">
        <ele>81.0</ele>
        <time>2020-08-12T14:39:23Z</time>
      </trkpt>
      <trkpt lat="48.528536" lon="-1.34483">
        <ele>81.0</ele>
        <time>2020-08-12T14:39:24Z</time>
      </trkpt>
      <trkpt lat="48.527535" lon="-1.345139">
        <ele>84.2</ele>
        <time>2020-08-12T14:39:28Z</time>
      </trkpt>
      <trkpt lat="48.52378" lon="-1.346831">
        <ele>93.8</ele>
        <time>2020-08-12T14:39:44Z</time>
      </trkpt>
      <trkpt lat="48.523071" lon="-1.347102">
        <ele>92.4</ele>
        <time>2020-08-12T14:39:47Z</time>
      </trkpt>
      <trkpt lat="48.521698" lon="-1.34756">
        <ele>87.6</ele>
        <time>2020-08-12T14:39:52Z</time>
      </trkpt>
      <trkpt lat="48.520963" lon="-1.347793">
        <ele>79.2</ele>
        <time>2020-08-12T14:39:56Z</time>
      </trkpt>
      <trkpt lat="48.520041" lon="-1.348012">
        <ele>73.8</ele>
        <time>2020-08-12T14:39:59Z</time>
      </trkpt>
      <trkpt lat="48.518114" lon="-1.34831">
        <ele>83.0</ele>
        <time>2020-08-12T14:40:07Z</time>
      </trkpt>
      <trkpt lat="48.516098" lon="-1.348444">
        <ele>88.2</ele>
        <time>2020-08-12T14:40:15Z</time>
      </trkpt>
      <trkpt lat="48.514068" lon="-1.34844">
        <ele>100.4</ele>
        <time>2020-08-12T14:40:23Z</time>
      </trkpt>
      <trkpt lat="48.511846" lon="-1.348136">
        <ele>104.2</ele>
        <time>2020-08-12T14:40:32Z</time>
      </trkpt>
      <trkpt lat="48.509596" lon="-1.347546">
        <ele>104.2</ele>
        <time>2020-08-12T14:40:42Z</time>
      </trkpt>
      <trkpt lat="48.507119" lon="-1.346759">
        <ele>118.8</ele>
        <time>2020-08-12T14:40:52Z</time>
      </trkpt>
      <trkpt lat="48.504587" lon="-1.345874">
        <ele>124.2</ele>
        <time>2020-08-12T14:41:02Z</time>
      </trkpt>
      <trkpt lat="48.499634" lon="-1.344064">
        <ele>135.2</ele>
        <time>2020-08-12T14:41:23Z</time>
      </trkpt>
      <trkpt lat="48.498052" lon="-1.343363">
        <ele>136.2</ele>
        <time>2020-08-12T14:41:30Z</time>
      </trkpt>
      <trkpt lat="48.496498" lon="-1.342518">
        <ele>136.6</ele>
        <time>2020-08-12T14:41:36Z</time>
      </trkpt>
      <trkpt lat="48.494821" lon="-1.34138">
        <ele>133.2</ele>
        <time>2020-08-12T14:41:44Z</time>
      </trkpt>
      <trkpt lat="48.493263" lon="-1.340155">
        <ele>130.2</ele>
        <time>2020-08-12T14:41:51Z</time>
      </trkpt>
      <trkpt lat="48.491742" lon="-1.338793">
        <ele>128.0</ele>
        <time>2020-08-12T14:41:58Z</time>
      </trkpt>
      <trkpt lat="48.491263" lon="-1.33827">
        <ele>127.6</ele>
        <time>2020-08-12T14:42:00Z</time>
      </trkpt>
      <trkpt lat="48.487038" lon="-1.333939">
        <ele>131.8</ele>
        <time>2020-08-12T14:42:21Z</time>
      </trkpt>
      <trkpt lat="48.485304" lon="-1.332366">
        <ele>133.6</ele>
        <time>2020-08-12T14:42:29Z</time>
      </trkpt>
      <trkpt lat="48.484216" lon="-1.331507">
        <ele>134.6</ele>
        <time>2020-08-12T14:42:34Z</time>
      </trkpt>
      <trkpt lat="48.483338" lon="-1.330879">
        <ele>136.0</ele>
        <time>2020-08-12T14:42:38Z</time>
      </trkpt>
      <trkpt lat="48.481824" lon="-1.329936">
        <ele>138.6</ele>
        <time>2020-08-12T14:42:45Z</time>
      </trkpt>
      <trkpt lat="48.480403" lon="-1.329203">
        <ele>140.4</ele>
        <time>2020-08-12T14:42:51Z</time>
      </trkpt>
      <trkpt lat="48.479363" lon="-1.328732">
        <ele>138.8</ele>
        <time>2020-08-12T14:42:55Z</time>
      </trkpt>
      <trkpt lat="48.478094" lon="-1.328251">
        <ele>129.8</ele>
        <time>2020-08-12T14:43:00Z</time>
      </trkpt>
      <trkpt lat="48.47682" lon="-1.327884">
        <ele>125.0</ele>
        <time>2020-08-12T14:43:06Z</time>
      </trkpt>
      <trkpt lat="48.475442" lon="-1.327585">
        <ele>126.4</ele>
        <time>2020-08-12T14:43:11Z</time>
      </trkpt>
      <trkpt lat="48.474457" lon="-1.327434">
        <ele>130.4</ele>
        <time>2020-08-12T14:43:15Z</time>
      </trkpt>
      <trkpt lat="48.473342" lon="-1.32733">
        <ele>134.4</ele>
        <time>2020-08-12T14:43:20Z</time>
      </trkpt>
      <trkpt lat="48.472482" lon="-1.327305">
        <ele>137.4</ele>
        <time>2020-08-12T14:43:23Z</time>
      </trkpt>
      <trkpt lat="48.471515" lon="-1.32731">
        <ele>137.6</ele>
        <time>2020-08-12T14:43:27Z</time>
      </trkpt>
      <trkpt lat="48.470693" lon="-1.327359">
        <ele>136.8</ele>
        <time>2020-08-12T14:43:31Z</time>
      </trkpt>
      <trkpt lat="48.469822" lon="-1.32746">
        <ele>136.2</ele>
        <time>2020-08-12T14:43:34Z</time>
      </trkpt>
      <trkpt lat="48.465166" lon="-1.328189">
        <ele>127.6</ele>
        <time>2020-08-12T14:43:53Z</time>
      </trkpt>
      <trkpt lat="48.463304" lon="-1.328428">
        <ele>126.4</ele>
        <time>2020-08-12T14:44:01Z</time>
      </trkpt>
      <trkpt lat="48.462269" lon="-1.328487">
        <ele>127.6</ele>
        <time>2020-08-12T14:44:05Z</time>
      </trkpt>
      <trkpt lat="48.461214" lon="-1.328507">
        <ele>129.0</ele>
        <time>2020-08-12T14:44:09Z</time>
      </trkpt>
      <trkpt lat="48.459312" lon="-1.328444">
        <ele>130.2</ele>
        <time>2020-08-12T14:44:17Z</time>
      </trkpt>
      <trkpt lat="48.458389" lon="-1.328334">
        <ele>130.8</ele>
        <time>2020-08-12T14:44:20Z</time>
      </trkpt>
      <trkpt lat="48.457284" lon="-1.328173">
        <ele>132.2</ele>
        <time>2020-08-12T14:44:25Z</time>
      </trkpt>
      <trkpt lat="48.45659" lon="-1.328041">
        <ele>133.2</ele>
        <time>2020-08-12T14:44:28Z</time>
      </trkpt>
      <trkpt lat="48.455461" lon="-1.327794">
        <ele>132.6</ele>
        <time>2020-08-12T14:44:32Z</time>
      </trkpt>
      <trkpt lat="48.454602" lon="-1.327567">
        <ele>131.4</ele>
        <time>2020-08-12T14:44:36Z</time>
      </trkpt>
      <trkpt lat="48.453727" lon="-1.327303">
        <ele>129.4</ele>
        <time>2020-08-12T14:44:39Z</time>
      </trkpt>
      <trkpt lat="48.438554" lon="-1.322438">
        <ele>122.2</ele>
        <time>2020-08-12T14:45:42Z</time>
      </trkpt>
      <trkpt lat="48.437212" lon="-1.321913">
        <ele>121.6</ele>
        <time>2020-08-12T14:45:48Z</time>
      </trkpt>
      <trkpt lat="48.436429" lon="-1.321553">
        <ele>122.6</ele>
        <time>2020-08-12T14:45:51Z</time>
      </trkpt>
      <trkpt lat="48.435485" lon="-1.321051">
        <ele>122.8</ele>
        <time>2020-08-12T14:45:55Z</time>
      </trkpt>
      <trkpt lat="48.434054" lon="-1.32018">
        <ele>127.8</ele>
        <time>2020-08-12T14:46:01Z</time>
      </trkpt>
      <trkpt lat="48.428757" lon="-1.316344">
        <ele>131.4</ele>
        <time>2020-08-12T14:46:25Z</time>
      </trkpt>
      <trkpt lat="48.427474" lon="-1.315451">
        <ele>131.8</ele>
        <time>2020-08-12T14:46:31Z</time>
      </trkpt>
      <trkpt lat="48.426761" lon="-1.315005">
        <ele>131.8</ele>
        <time>2020-08-12T14:46:34Z</time>
      </trkpt>
      <trkpt lat="48.426101" lon="-1.314619">
        <ele>131.4</ele>
        <time>2020-08-12T14:46:37Z</time>
      </trkpt>
      <trkpt lat="48.425183" lon="-1.314149">
        <ele>132.8</ele>
        <time>2020-08-12T14:46:41Z</time>
      </trkpt>
      <trkpt lat="48.42424" lon="-1.313701">
        <ele>132.0</ele>
        <time>2020-08-12T14:46:45Z</time>
      </trkpt>
      <trkpt lat="48.423323" lon="-1.313327">
        <ele>128.8</ele>
        <time>2020-08-12T14:46:48Z</time>
      </trkpt>
      <trkpt lat="48.422406" lon="-1.313">
        <ele>127.2</ele>
        <time>2020-08-12T14:46:52Z</time>
      </trkpt>
      <trkpt lat="48.421351" lon="-1.312699">
        <ele>127.2</ele>
        <time>2020-08-12T14:46:57Z</time>
      </trkpt>
      <trkpt lat="48.420133" lon="-1.312421">
        <ele>130.4</ele>
        <time>2020-08-12T14:47:02Z</time>
      </trkpt>
      <trkpt lat="48.418686" lon="-1.312212">
        <ele>131.2</ele>
        <time>2020-08-12T14:47:07Z</time>
      </trkpt>
      <trkpt lat="48.417194" lon="-1.312105">
        <ele>130.6</ele>
        <time>2020-08-12T14:47:13Z</time>
      </trkpt>
      <trkpt lat="48.41654" lon="-1.312106">
        <ele>129.4</ele>
        <time>2020-08-12T14:47:16Z</time>
      </trkpt>
      <trkpt lat="48.415295" lon="-1.312161">
        <ele>127.0</ele>
        <time>2020-08-12T14:47:21Z</time>
      </trkpt>
      <trkpt lat="48.413369" lon="-1.312389">
        <ele>123.6</ele>
        <time>2020-08-12T14:47:29Z</time>
      </trkpt>
      <trkpt lat="48.412147" lon="-1.312462">
        <ele>121.0</ele>
        <time>2020-08-12T14:47:34Z</time>
      </trkpt>
      <trkpt lat="48.410585" lon="-1.312434">
        <ele>117.2</ele>
        <time>2020-08-12T14:47:40Z</time>
      </trkpt>
      <trkpt lat="48.409873" lon="-1.312376">
        <ele>114.6</ele>
        <time>2020-08-12T14:47:43Z</time>
      </trkpt>
      <trkpt lat="48.408697" lon="-1.312217">
        <ele>111.4</ele>
        <time>2020-08-12T14:47:48Z</time>
      </trkpt>
      <trkpt lat="48.407985" lon="-1.312086">
        <ele>109.6</ele>
        <time>2020-08-12T14:47:51Z</time>
      </trkpt>
      <trkpt lat="48.406929" lon="-1.311834">
        <ele>107.6</ele>
        <time>2020-08-12T14:47:55Z</time>
      </trkpt>
      <trkpt lat="48.406167" lon="-1.311617">
        <ele>107.0</ele>
        <time>2020-08-12T14:47:58Z</time>
      </trkpt>
      <trkpt lat="48.405237" lon="-1.311297">
        <ele>107.4</ele>
        <time>2020-08-12T14:48:02Z</time>
      </trkpt>
      <trkpt lat="48.403562" lon="-1.310631">
        <ele>108.8</ele>
        <time>2020-08-12T14:48:09Z</time>
      </trkpt>
      <trkpt lat="48.402684" lon="-1.310315">
        <ele>111.0</ele>
        <time>2020-08-12T14:48:13Z</time>
      </trkpt>
      <trkpt lat="48.401782" lon="-1.310041">
        <ele>113.4</ele>
        <time>2020-08-12T14:48:16Z</time>
      </trkpt>
      <trkpt lat="48.400498" lon="-1.309731">
        <ele>118.2</ele>
        <time>2020-08-12T14:48:22Z</time>
      </trkpt>
      <trkpt lat="48.395016" lon="-1.308735">
        <ele>120.8</ele>
        <time>2020-08-12T14:48:44Z</time>
      </trkpt>
      <trkpt lat="48.393366" lon="-1.308351">
        <ele>119.6</ele>
        <time>2020-08-12T14:48:51Z</time>
      </trkpt>
      <trkpt lat="48.392088" lon="-1.307968">
        <ele>116.2</ele>
        <time>2020-08-12T14:48:56Z</time>
      </trkpt>
      <trkpt lat="48.390778" lon="-1.307528">
        <ele>111.4</ele>
        <time>2020-08-12T14:49:01Z</time>
      </trkpt>
      <trkpt lat="48.389125" lon="-1.306883">
        <ele>108.8</ele>
        <time>2020-08-12T14:49:08Z</time>
      </trkpt>
      <trkpt lat="48.387414" lon="-1.306155">
        <ele>110.6</ele>
        <time>2020-08-12T14:49:15Z</time>
      </trkpt>
      <trkpt lat="48.385239" lon="-1.305352">
        <ele>107.4</ele>
        <time>2020-08-12T14:49:24Z</time>
      </trkpt>
      <trkpt lat="48.3842" lon="-1.305032">
        <ele>107.2</ele>
        <time>2020-08-12T14:49:29Z</time>
      </trkpt>
      <trkpt lat="48.383111" lon="-1.304742">
        <ele>110.0</ele>
        <time>2020-08-12T14:49:33Z</time>
      </trkpt>
      <trkpt lat="48.378443" lon="-1.303685">
        <ele>117.0</ele>
        <time>2020-08-12T14:49:52Z</time>
      </trkpt>
      <trkpt lat="48.377558" lon="-1.303519">
        <ele>116.4</ele>
        <time>2020-08-12T14:49:56Z</time>
      </trkpt>
      <trkpt lat="48.376674" lon="-1.303395">
        <ele>116.6</ele>
        <time>2020-08-12T14:49:59Z</time>
      </trkpt>
      <trkpt lat="48.375893" lon="-1.303308">
        <ele>120.2</ele>
        <time>2020-08-12T14:50:03Z</time>
      </trkpt>
      <trkpt lat="48.375076" lon="-1.303251">
        <ele>121.4</ele>
        <time>2020-08-12T14:50:06Z</time>
      </trkpt>
      <trkpt lat="48.373863" lon="-1.303231">
        <ele>121.2</ele>
        <time>2020-08-12T14:50:11Z</time>
      </trkpt>
      <trkpt lat="48.372704" lon="-1.303271">
        <ele>120.4</ele>
        <time>2020-08-12T14:50:16Z</time>
      </trkpt>
      <trkpt lat="48.371761" lon="-1.30336">
        <ele>118.4</ele>
        <time>2020-08-12T14:50:19Z</time>
      </trkpt>
      <trkpt lat="48.370776" lon="-1.303494">
        <ele>121.0</ele>
        <time>2020-08-12T14:50:23Z</time>
      </trkpt>
      <trkpt lat="48.369742" lon="-1.303672">
        <ele>122.2</ele>
        <time>2020-08-12T14:50:28Z</time>
      </trkpt>
      <trkpt lat="48.368767" lon="-1.303917">
        <ele>122.2</ele>
        <time>2020-08-12T14:50:32Z</time>
      </trkpt>
      <trkpt lat="48.366927" lon="-1.304431">
        <ele>118.6</ele>
        <time>2020-08-12T14:50:39Z</time>
      </trkpt>
      <trkpt lat="48.365901" lon="-1.304653">
        <ele>115.4</ele>
        <time>2020-08-12T14:50:43Z</time>
      </trkpt>
      <trkpt lat="48.364956" lon="-1.30478">
        <ele>104.6</ele>
        <time>2020-08-12T14:50:47Z</time>
      </trkpt>
      <trkpt lat="48.364515" lon="-1.304816">
        <ele>104.6</ele>
        <time>2020-08-12T14:50:49Z</time>
      </trkpt>
      <trkpt lat="48.363837" lon="-1.304832">
        <ele>102.6</ele>
        <time>2020-08-12T14:50:52Z</time>
      </trkpt>
      <trkpt lat="48.362933" lon="-1.304801">
        <ele>103.8</ele>
        <time>2020-08-12T14:50:55Z</time>
      </trkpt>
      <trkpt lat="48.36201" lon="-1.304701">
        <ele>106.6</ele>
        <time>2020-08-12T14:50:59Z</time>
      </trkpt>
      <trkpt lat="48.361132" lon="-1.304537">
        <ele>108.2</ele>
        <time>2020-08-12T14:51:03Z</time>
      </trkpt>
      <trkpt lat="48.360444" lon="-1.304364">
        <ele>110.2</ele>
        <time>2020-08-12T14:51:05Z</time>
      </trkpt>
      <trkpt lat="48.359364" lon="-1.304003">
        <ele>112.4</ele>
        <time>2020-08-12T14:51:10Z</time>
      </trkpt>
      <trkpt lat="48.358363" lon="-1.30358">
        <ele>110.4</ele>
        <time>2020-08-12T14:51:14Z</time>
      </trkpt>
      <trkpt lat="48.357446" lon="-1.303092">
        <ele>109.2</ele>
        <time>2020-08-12T14:51:18Z</time>
      </trkpt>
      <trkpt lat="48.354868" lon="-1.301556">
        <ele>112.4</ele>
        <time>2020-08-12T14:51:29Z</time>
      </trkpt>
      <trkpt lat="48.352078" lon="-1.299925">
        <ele>121.0</ele>
        <time>2020-08-12T14:51:41Z</time>
      </trkpt>
      <trkpt lat="48.351474" lon="-1.299605">
        <ele>122.0</ele>
        <time>2020-08-12T14:51:44Z</time>
      </trkpt>
      <trkpt lat="48.350508" lon="-1.299131">
        <ele>123.0</ele>
        <time>2020-08-12T14:51:48Z</time>
      </trkpt>
      <trkpt lat="48.349613" lon="-1.298754">
        <ele>123.6</ele>
        <time>2020-08-12T14:51:52Z</time>
      </trkpt>
      <trkpt lat="48.348986" lon="-1.29852">
        <ele>123.6</ele>
        <time>2020-08-12T14:51:54Z</time>
      </trkpt>
      <trkpt lat="48.348133" lon="-1.298246">
        <ele>123.4</ele>
        <time>2020-08-12T14:51:58Z</time>
      </trkpt>
      <trkpt lat="48.347281" lon="-1.298019">
        <ele>123.4</ele>
        <time>2020-08-12T14:52:01Z</time>
      </trkpt>
      <trkpt lat="48.346409" lon="-1.29783">
        <ele>123.4</ele>
        <time>2020-08-12T14:52:05Z</time>
      </trkpt>
      <trkpt lat="48.345526" lon="-1.297689">
        <ele>123.6</ele>
        <time>2020-08-12T14:52:09Z</time>
      </trkpt>
      <trkpt lat="48.34355" lon="-1.297535">
        <ele>121.8</ele>
        <time>2020-08-12T14:52:17Z</time>
      </trkpt>
      <trkpt lat="48.342289" lon="-1.297572">
        <ele>118.4</ele>
        <time>2020-08-12T14:52:22Z</time>
      </trkpt>
      <trkpt lat="48.340958" lon="-1.297705">
        <ele>119.2</ele>
        <time>2020-08-12T14:52:27Z</time>
      </trkpt>
      <trkpt lat="48.339994" lon="-1.297854">
        <ele>119.2</ele>
        <time>2020-08-12T14:52:31Z</time>
      </trkpt>
      <trkpt lat="48.339315" lon="-1.298008">
        <ele>119.2</ele>
        <time>2020-08-12T14:52:34Z</time>
      </trkpt>
      <trkpt lat="48.338197" lon="-1.298321">
        <ele>118.6</ele>
        <time>2020-08-12T14:52:38Z</time>
      </trkpt>
      <trkpt lat="48.337476" lon="-1.298564">
        <ele>118.0</ele>
        <time>2020-08-12T14:52:41Z</time>
      </trkpt>
      <trkpt lat="48.336459" lon="-1.298971">
        <ele>118.2</ele>
        <time>2020-08-12T14:52:45Z</time>
      </trkpt>
      <trkpt lat="48.33563" lon="-1.299348">
        <ele>118.2</ele>
        <time>2020-08-12T14:52:49Z</time>
      </trkpt>
      <trkpt lat="48.334616" lon="-1.299881">
        <ele>118.2</ele>
        <time>2020-08-12T14:52:53Z</time>
      </trkpt>
      <trkpt lat="48.334197" lon="-1.300115">
        <ele>117.4</ele>
        <time>2020-08-12T14:52:55Z</time>
      </trkpt>
      <trkpt lat="48.333053" lon="-1.300822">
        <ele>117.6</ele>
        <time>2020-08-12T14:53:00Z</time>
      </trkpt>
      <trkpt lat="48.332204" lon="-1.301424">
        <ele>117.4</ele>
        <time>2020-08-12T14:53:04Z</time>
      </trkpt>
      <trkpt lat="48.331284" lon="-1.302131">
        <ele>117.4</ele>
        <time>2020-08-12T14:53:08Z</time>
      </trkpt>
      <trkpt lat="48.330649" lon="-1.302668">
        <ele>117.4</ele>
        <time>2020-08-12T14:53:11Z</time>
      </trkpt>
      <trkpt lat="48.330075" lon="-1.303186">
        <ele>117.4</ele>
        <time>2020-08-12T14:53:14Z</time>
      </trkpt>
      <trkpt lat="48.32897" lon="-1.304274">
        <ele>119.6</ele>
        <time>2020-08-12T14:53:19Z</time>
      </trkpt>
      <trkpt lat="48.327936" lon="-1.305408">
        <ele>120.6</ele>
        <time>2020-08-12T14:53:24Z</time>
      </trkpt>
      <trkpt lat="48.327099" lon="-1.306427">
        <ele>120.6</ele>
        <time>2020-08-12T14:53:29Z</time>
      </trkpt>
      <trkpt lat="48.326594" lon="-1.307077">
        <ele>119.4</ele>
        <time>2020-08-12T14:53:31Z</time>
      </trkpt>
      <trkpt lat="48.326053" lon="-1.307818">
        <ele>118.2</ele>
        <time>2020-08-12T14:53:34Z</time>
      </trkpt>
      <trkpt lat="48.325074" lon="-1.309279">
        <ele>118.6</ele>
        <time>2020-08-12T14:53:40Z</time>
      </trkpt>
      <trkpt lat="48.32456" lon="-1.310111">
        <ele>117.4</ele>
        <time>2020-08-12T14:53:43Z</time>
      </trkpt>
      <trkpt lat="48.323989" lon="-1.311103">
        <ele>116.0</ele>
        <time>2020-08-12T14:53:46Z</time>
      </trkpt>
      <trkpt lat="48.323425" lon="-1.31215">
        <ele>114.4</ele>
        <time>2020-08-12T14:53:50Z</time>
      </trkpt>
      <trkpt lat="48.322957" lon="-1.313092">
        <ele>113.4</ele>
        <time>2020-08-12T14:53:53Z</time>
      </trkpt>
      <trkpt lat="48.322481" lon="-1.314103">
        <ele>115.8</ele>
        <time>2020-08-12T14:53:56Z</time>
      </trkpt>
      <trkpt lat="48.322115" lon="-1.314933">
        <ele>116.0</ele>
        <time>2020-08-12T14:53:59Z</time>
      </trkpt>
      <trkpt lat="48.321736" lon="-1.315854">
        <ele>115.2</ele>
        <time>2020-08-12T14:54:02Z</time>
      </trkpt>
      <trkpt lat="48.320954" lon="-1.31797">
        <ele>114.4</ele>
        <time>2020-08-12T14:54:09Z</time>
      </trkpt>
      <trkpt lat="48.320555" lon="-1.319172">
        <ele>114.6</ele>
        <time>2020-08-12T14:54:12Z</time>
      </trkpt>
      <trkpt lat="48.320192" lon="-1.320385">
        <ele>113.0</ele>
        <time>2020-08-12T14:54:16Z</time>
      </trkpt>
      <trkpt lat="48.317795" lon="-1.329398">
        <ele>110.4</ele>
        <time>2020-08-12T14:54:42Z</time>
      </trkpt>
      <trkpt lat="48.316017" lon="-1.336174">
        <ele>105.6</ele>
        <time>2020-08-12T14:55:01Z</time>
      </trkpt>
      <trkpt lat="48.315356" lon="-1.338643">
        <ele>102.2</ele>
        <time>2020-08-12T14:55:09Z</time>
      </trkpt>
      <trkpt lat="48.314535" lon="-1.341311">
        <ele>99.0</ele>
        <time>2020-08-12T14:55:16Z</time>
      </trkpt>
      <trkpt lat="48.314024" lon="-1.342773">
        <ele>98.0</ele>
        <time>2020-08-12T14:55:21Z</time>
      </trkpt>
      <trkpt lat="48.313375" lon="-1.344409">
        <ele>99.2</ele>
        <time>2020-08-12T14:55:26Z</time>
      </trkpt>
      <trkpt lat="48.312825" lon="-1.345685">
        <ele>97.0</ele>
        <time>2020-08-12T14:55:30Z</time>
      </trkpt>
      <trkpt lat="48.312443" lon="-1.346527">
        <ele>97.4</ele>
        <time>2020-08-12T14:55:33Z</time>
      </trkpt>
      <trkpt lat="48.311953" lon="-1.34753">
        <ele>97.2</ele>
        <time>2020-08-12T14:55:36Z</time>
      </trkpt>
      <trkpt lat="48.311" lon="-1.349314">
        <ele>101.8</ele>
        <time>2020-08-12T14:55:42Z</time>
      </trkpt>
      <trkpt lat="48.310461" lon="-1.350239">
        <ele>105.0</ele>
        <time>2020-08-12T14:55:46Z</time>
      </trkpt>
      <trkpt lat="48.309912" lon="-1.351113">
        <ele>107.2</ele>
        <time>2020-08-12T14:55:49Z</time>
      </trkpt>
      <trkpt lat="48.308816" lon="-1.352733">
        <ele>106.4</ele>
        <time>2020-08-12T14:55:55Z</time>
      </trkpt>
      <trkpt lat="48.308079" lon="-1.353726">
        <ele>107.2</ele>
        <time>2020-08-12T14:55:59Z</time>
      </trkpt>
      <trkpt lat="48.306859" lon="-1.355211">
        <ele>104.6</ele>
        <time>2020-08-12T14:56:05Z</time>
      </trkpt>
      <trkpt lat="48.306276" lon="-1.355869">
        <ele>104.0</ele>
        <time>2020-08-12T14:56:08Z</time>
      </trkpt>
      <trkpt lat="48.305584" lon="-1.356594">
        <ele>101.4</ele>
        <time>2020-08-12T14:56:12Z</time>
      </trkpt>
      <trkpt lat="48.30488" lon="-1.357296">
        <ele>96.4</ele>
        <time>2020-08-12T14:56:15Z</time>
      </trkpt>
      <trkpt lat="48.304215" lon="-1.357909">
        <ele>95.6</ele>
        <time>2020-08-12T14:56:18Z</time>
      </trkpt>
      <trkpt lat="48.301685" lon="-1.360033">
        <ele>76.6</ele>
        <time>2020-08-12T14:56:30Z</time>
      </trkpt>
      <trkpt lat="48.300897" lon="-1.360748">
        <ele>70.0</ele>
        <time>2020-08-12T14:56:34Z</time>
      </trkpt>
      <trkpt lat="48.300114" lon="-1.361498">
        <ele>65.6</ele>
        <time>2020-08-12T14:56:37Z</time>
      </trkpt>
      <trkpt lat="48.29933" lon="-1.362327">
        <ele>61.4</ele>
        <time>2020-08-12T14:56:41Z</time>
      </trkpt>
      <trkpt lat="48.298197" lon="-1.363647">
        <ele>54.6</ele>
        <time>2020-08-12T14:56:47Z</time>
      </trkpt>
      <trkpt lat="48.297254" lon="-1.36486">
        <ele>51.6</ele>
        <time>2020-08-12T14:56:52Z</time>
      </trkpt>
      <trkpt lat="48.296623" lon="-1.365716">
        <ele>49.6</ele>
        <time>2020-08-12T14:56:56Z</time>
      </trkpt>
      <trkpt lat="48.295825" lon="-1.366917">
        <ele>49.6</ele>
        <time>2020-08-12T14:57:00Z</time>
      </trkpt>
      <trkpt lat="48.294982" lon="-1.368316">
        <ele>50.4</ele>
        <time>2020-08-12T14:57:05Z</time>
      </trkpt>
      <trkpt lat="48.294105" lon="-1.369921">
        <ele>55.6</ele>
        <time>2020-08-12T14:57:11Z</time>
      </trkpt>
      <trkpt lat="48.292251" lon="-1.373579">
        <ele>58.0</ele>
        <time>2020-08-12T14:57:23Z</time>
      </trkpt>
      <trkpt lat="48.290942" lon="-1.376203">
        <ele>62.4</ele>
        <time>2020-08-12T14:57:32Z</time>
      </trkpt>
      <trkpt lat="48.285973" lon="-1.386015">
        <ele>72.6</ele>
        <time>2020-08-12T14:58:05Z</time>
      </trkpt>
      <trkpt lat="48.28456" lon="-1.388693">
        <ele>76.4</ele>
        <time>2020-08-12T14:58:14Z</time>
      </trkpt>
      <trkpt lat="48.283522" lon="-1.390466">
        <ele>75.6</ele>
        <time>2020-08-12T14:58:21Z</time>
      </trkpt>
      <trkpt lat="48.282184" lon="-1.392524">
        <ele>73.2</ele>
        <time>2020-08-12T14:58:28Z</time>
      </trkpt>
      <trkpt lat="48.281036" lon="-1.394122">
        <ele>71.2</ele>
        <time>2020-08-12T14:58:35Z</time>
      </trkpt>
      <trkpt lat="48.279812" lon="-1.395673">
        <ele>71.8</ele>
        <time>2020-08-12T14:58:41Z</time>
      </trkpt>
      <trkpt lat="48.278586" lon="-1.397108">
        <ele>74.4</ele>
        <time>2020-08-12T14:58:47Z</time>
      </trkpt>
      <trkpt lat="48.277299" lon="-1.398463">
        <ele>77.0</ele>
        <time>2020-08-12T14:58:54Z</time>
      </trkpt>
      <trkpt lat="48.276347" lon="-1.399416">
        <ele>78.8</ele>
        <time>2020-08-12T14:58:58Z</time>
      </trkpt>
      <trkpt lat="48.274797" lon="-1.400804">
        <ele>84.6</ele>
        <time>2020-08-12T14:59:06Z</time>
      </trkpt>
      <trkpt lat="48.273181" lon="-1.402098">
        <ele>86.6</ele>
        <time>2020-08-12T14:59:13Z</time>
      </trkpt>
      <trkpt lat="48.269957" lon="-1.404345">
        <ele>93.2</ele>
        <time>2020-08-12T14:59:27Z</time>
      </trkpt>
      <trkpt lat="48.268007" lon="-1.405962">
        <ele>101.4</ele>
        <time>2020-08-12T14:59:36Z</time>
      </trkpt>
      <trkpt lat="48.266652" lon="-1.407299">
        <ele>112.0</ele>
        <time>2020-08-12T14:59:43Z</time>
      </trkpt>
      <trkpt lat="48.26526" lon="-1.408879">
        <ele>111.8</ele>
        <time>2020-08-12T14:59:50Z</time>
      </trkpt>
      <trkpt lat="48.26413" lon="-1.410367">
        <ele>108.2</ele>
        <time>2020-08-12T14:59:56Z</time>
      </trkpt>
      <trkpt lat="48.263116" lon="-1.411882">
        <ele>106.2</ele>
        <time>2020-08-12T15:00:02Z</time>
      </trkpt>
      <trkpt lat="48.262027" lon="-1.413677">
        <ele>106.8</ele>
        <time>2020-08-12T15:00:08Z</time>
      </trkpt>
      <trkpt lat="48.260724" lon="-1.41575">
        <ele>107.4</ele>
        <time>2020-08-12T15:00:16Z</time>
      </trkpt>
      <trkpt lat="48.259334" lon="-1.417703">
        <ele>105.6</ele>
        <time>2020-08-12T15:00:24Z</time>
      </trkpt>
      <trkpt lat="48.25826" lon="-1.419071">
        <ele>106.4</ele>
        <time>2020-08-12T15:00:29Z</time>
      </trkpt>
      <trkpt lat="48.257505" lon="-1.419955">
        <ele>105.6</ele>
        <time>2020-08-12T15:00:33Z</time>
      </trkpt>
      <trkpt lat="48.256617" lon="-1.42093">
        <ele>106.8</ele>
        <time>2020-08-12T15:00:38Z</time>
      </trkpt>
      <trkpt lat="48.254392" lon="-1.423236">
        <ele>106.2</ele>
        <time>2020-08-12T15:00:49Z</time>
      </trkpt>
      <trkpt lat="48.253463" lon="-1.424287">
        <ele>106.6</ele>
        <time>2020-08-12T15:00:53Z</time>
      </trkpt>
      <trkpt lat="48.252389" lon="-1.425639">
        <ele>103.2</ele>
        <time>2020-08-12T15:00:59Z</time>
      </trkpt>
      <trkpt lat="48.251712" lon="-1.426565">
        <ele>103.4</ele>
        <time>2020-08-12T15:01:03Z</time>
      </trkpt>
      <trkpt lat="48.250493" lon="-1.428434">
        <ele>101.0</ele>
        <time>2020-08-12T15:01:10Z</time>
      </trkpt>
      <trkpt lat="48.249662" lon="-1.429867">
        <ele>99.6</ele>
        <time>2020-08-12T15:01:15Z</time>
      </trkpt>
      <trkpt lat="48.248794" lon="-1.431492">
        <ele>98.8</ele>
        <time>2020-08-12T15:01:20Z</time>
      </trkpt>
      <trkpt lat="48.248108" lon="-1.432918">
        <ele>100.6</ele>
        <time>2020-08-12T15:01:25Z</time>
      </trkpt>
      <trkpt lat="48.24746" lon="-1.434414">
        <ele>102.8</ele>
        <time>2020-08-12T15:01:30Z</time>
      </trkpt>
      <trkpt lat="48.246857" lon="-1.43594">
        <ele>102.8</ele>
        <time>2020-08-12T15:01:35Z</time>
      </trkpt>
      <trkpt lat="48.246447" lon="-1.437048">
        <ele>102.6</ele>
        <time>2020-08-12T15:01:38Z</time>
      </trkpt>
      <trkpt lat="48.245965" lon="-1.438495">
        <ele>98.6</ele>
        <time>2020-08-12T15:01:43Z</time>
      </trkpt>
      <trkpt lat="48.245613" lon="-1.439677">
        <ele>93.8</ele>
        <time>2020-08-12T15:01:46Z</time>
      </trkpt>
      <trkpt lat="48.245247" lon="-1.44101">
        <ele>91.0</ele>
        <time>2020-08-12T15:01:50Z</time>
      </trkpt>
      <trkpt lat="48.244987" lon="-1.442057">
        <ele>88.2</ele>
        <time>2020-08-12T15:01:53Z</time>
      </trkpt>
      <trkpt lat="48.241861" lon="-1.455885">
        <ele>89.6</ele>
        <time>2020-08-12T15:02:32Z</time>
      </trkpt>
      <trkpt lat="48.240622" lon="-1.461474">
        <ele>69.8</ele>
        <time>2020-08-12T15:02:48Z</time>
      </trkpt>
      <trkpt lat="48.23975" lon="-1.465332">
        <ele>63.4</ele>
        <time>2020-08-12T15:02:59Z</time>
      </trkpt>
      <trkpt lat="48.239135" lon="-1.467913">
        <ele>63.0</ele>
        <time>2020-08-12T15:03:06Z</time>
      </trkpt>
      <trkpt lat="48.238548" lon="-1.470016">
        <ele>64.0</ele>
        <time>2020-08-12T15:03:13Z</time>
      </trkpt>
      <trkpt lat="48.237" lon="-1.474602">
        <ele>68.6</ele>
        <time>2020-08-12T15:03:26Z</time>
      </trkpt>
      <trkpt lat="48.236385" lon="-1.476349">
        <ele>70.2</ele>
        <time>2020-08-12T15:03:32Z</time>
      </trkpt>
      <trkpt lat="48.235742" lon="-1.478039">
        <ele>78.0</ele>
        <time>2020-08-12T15:03:37Z</time>
      </trkpt>
      <trkpt lat="48.235091" lon="-1.479617">
        <ele>85.6</ele>
        <time>2020-08-12T15:03:42Z</time>
      </trkpt>
      <trkpt lat="48.234346" lon="-1.481209">
        <ele>93.8</ele>
        <time>2020-08-12T15:03:47Z</time>
      </trkpt>
      <trkpt lat="48.233321" lon="-1.483208">
        <ele>104.0</ele>
        <time>2020-08-12T15:03:54Z</time>
      </trkpt>
      <trkpt lat="48.231979" lon="-1.485413">
        <ele>103.0</ele>
        <time>2020-08-12T15:04:02Z</time>
      </trkpt>
      <trkpt lat="48.231093" lon="-1.486732">
        <ele>100.4</ele>
        <time>2020-08-12T15:04:07Z</time>
      </trkpt>
      <trkpt lat="48.230131" lon="-1.488049">
        <ele>100.2</ele>
        <time>2020-08-12T15:04:12Z</time>
      </trkpt>
      <trkpt lat="48.224989" lon="-1.494268">
        <ele>98.0</ele>
        <time>2020-08-12T15:04:39Z</time>
      </trkpt>
      <trkpt lat="48.224322" lon="-1.495162">
        <ele>98.0</ele>
        <time>2020-08-12T15:04:43Z</time>
      </trkpt>
      <trkpt lat="48.223339" lon="-1.496528">
        <ele>96.8</ele>
        <time>2020-08-12T15:04:48Z</time>
      </trkpt>
      <trkpt lat="48.221784" lon="-1.499086">
        <ele>97.4</ele>
        <time>2020-08-12T15:04:57Z</time>
      </trkpt>
      <trkpt lat="48.221216" lon="-1.500157">
        <ele>92.4</ele>
        <time>2020-08-12T15:05:01Z</time>
      </trkpt>
      <trkpt lat="48.220215" lon="-1.502148">
        <ele>86.6</ele>
        <time>2020-08-12T15:05:08Z</time>
      </trkpt>
      <trkpt lat="48.219698" lon="-1.503293">
        <ele>83.6</ele>
        <time>2020-08-12T15:05:11Z</time>
      </trkpt>
      <trkpt lat="48.219192" lon="-1.5045">
        <ele>84.2</ele>
        <time>2020-08-12T15:05:15Z</time>
      </trkpt>
      <trkpt lat="48.218754" lon="-1.505635">
        <ele>85.2</ele>
        <time>2020-08-12T15:05:19Z</time>
      </trkpt>
      <trkpt lat="48.218276" lon="-1.506996">
        <ele>90.2</ele>
        <time>2020-08-12T15:05:23Z</time>
      </trkpt>
      <trkpt lat="48.217923" lon="-1.508063">
        <ele>93.0</ele>
        <time>2020-08-12T15:05:26Z</time>
      </trkpt>
      <trkpt lat="48.217593" lon="-1.50915">
        <ele>95.4</ele>
        <time>2020-08-12T15:05:29Z</time>
      </trkpt>
      <trkpt lat="48.216948" lon="-1.511444">
        <ele>100.6</ele>
        <time>2020-08-12T15:05:36Z</time>
      </trkpt>
      <trkpt lat="48.216652" lon="-1.512389">
        <ele>100.6</ele>
        <time>2020-08-12T15:05:39Z</time>
      </trkpt>
      <trkpt lat="48.21608" lon="-1.513954">
        <ele>100.6</ele>
        <time>2020-08-12T15:05:44Z</time>
      </trkpt>
      <trkpt lat="48.21579" lon="-1.51465">
        <ele>101.8</ele>
        <time>2020-08-12T15:05:46Z</time>
      </trkpt>
      <trkpt lat="48.215388" lon="-1.515519">
        <ele>102.6</ele>
        <time>2020-08-12T15:05:49Z</time>
      </trkpt>
      <trkpt lat="48.215032" lon="-1.516224">
        <ele>103.2</ele>
        <time>2020-08-12T15:05:51Z</time>
      </trkpt>
      <trkpt lat="48.214569" lon="-1.517045">
        <ele>103.2</ele>
        <time>2020-08-12T15:05:54Z</time>
      </trkpt>
      <trkpt lat="48.214086" lon="-1.517833">
        <ele>102.2</ele>
        <time>2020-08-12T15:05:57Z</time>
      </trkpt>
      <trkpt lat="48.213605" lon="-1.518546">
        <ele>102.6</ele>
        <time>2020-08-12T15:06:00Z</time>
      </trkpt>
      <trkpt lat="48.212859" lon="-1.519521">
        <ele>103.6</ele>
        <time>2020-08-12T15:06:04Z</time>
      </trkpt>
      <trkpt lat="48.21209" lon="-1.520399">
        <ele>105.2</ele>
        <time>2020-08-12T15:06:07Z</time>
      </trkpt>
      <trkpt lat="48.211602" lon="-1.520895">
        <ele>105.2</ele>
        <time>2020-08-12T15:06:10Z</time>
      </trkpt>
      <trkpt lat="48.211113" lon="-1.521346">
        <ele>105.2</ele>
        <time>2020-08-12T15:06:12Z</time>
      </trkpt>
      <trkpt lat="48.210284" lon="-1.522044">
        <ele>102.6</ele>
        <time>2020-08-12T15:06:16Z</time>
      </trkpt>
      <trkpt lat="48.206908" lon="-1.524496">
        <ele>97.6</ele>
        <time>2020-08-12T15:06:31Z</time>
      </trkpt>
      <trkpt lat="48.206483" lon="-1.524844">
        <ele>98.2</ele>
        <time>2020-08-12T15:06:33Z</time>
      </trkpt>
      <trkpt lat="48.205711" lon="-1.525345">
        <ele>96.8</ele>
        <time>2020-08-12T15:06:37Z</time>
      </trkpt>
      <trkpt lat="48.203752" lon="-1.526763">
        <ele>96.2</ele>
        <time>2020-08-12T15:06:45Z</time>
      </trkpt>
      <trkpt lat="48.203117" lon="-1.527287">
        <ele>96.2</ele>
        <time>2020-08-12T15:06:48Z</time>
      </trkpt>
      <trkpt lat="48.202489" lon="-1.527839">
        <ele>100.2</ele>
        <time>2020-08-12T15:06:51Z</time>
      </trkpt>
      <trkpt lat="48.20161" lon="-1.528711">
        <ele>99.8</ele>
        <time>2020-08-12T15:06:55Z</time>
      </trkpt>
      <trkpt lat="48.200979" lon="-1.529386">
        <ele>97.2</ele>
        <time>2020-08-12T15:06:59Z</time>
      </trkpt>
      <trkpt lat="48.200562" lon="-1.529888">
        <ele>97.2</ele>
        <time>2020-08-12T15:07:01Z</time>
      </trkpt>
      <trkpt lat="48.199832" lon="-1.530836">
        <ele>98.8</ele>
        <time>2020-08-12T15:07:05Z</time>
      </trkpt>
      <trkpt lat="48.197534" lon="-1.534092">
        <ele>97.6</ele>
        <time>2020-08-12T15:07:17Z</time>
      </trkpt>
      <trkpt lat="48.190634" lon="-1.543947">
        <ele>113.8</ele>
        <time>2020-08-12T15:07:56Z</time>
      </trkpt>
      <trkpt lat="48.189589" lon="-1.545472">
        <ele>112.0</ele>
        <time>2020-08-12T15:08:02Z</time>
      </trkpt>
      <trkpt lat="48.186478" lon="-1.54989">
        <ele>108.6</ele>
        <time>2020-08-12T15:08:19Z</time>
      </trkpt>
      <trkpt lat="48.173077" lon="-1.568592">
        <ele>80.4</ele>
        <time>2020-08-12T15:09:33Z</time>
      </trkpt>
      <trkpt lat="48.172293" lon="-1.569752">
        <ele>77.8</ele>
        <time>2020-08-12T15:09:37Z</time>
      </trkpt>
      <trkpt lat="48.171841" lon="-1.570456">
        <ele>77.2</ele>
        <time>2020-08-12T15:09:40Z</time>
      </trkpt>
      <trkpt lat="48.171235" lon="-1.571483">
        <ele>78.4</ele>
        <time>2020-08-12T15:09:44Z</time>
      </trkpt>
      <trkpt lat="48.170419" lon="-1.573005">
        <ele>79.0</ele>
        <time>2020-08-12T15:09:49Z</time>
      </trkpt>
      <trkpt lat="48.16987" lon="-1.574143">
        <ele>80.6</ele>
        <time>2020-08-12T15:09:53Z</time>
      </trkpt>
      <trkpt lat="48.169299" lon="-1.575445">
        <ele>79.6</ele>
        <time>2020-08-12T15:09:57Z</time>
      </trkpt>
      <trkpt lat="48.16883" lon="-1.576619">
        <ele>79.6</ele>
        <time>2020-08-12T15:10:01Z</time>
      </trkpt>
      <trkpt lat="48.168315" lon="-1.578033">
        <ele>80.4</ele>
        <time>2020-08-12T15:10:05Z</time>
      </trkpt>
      <trkpt lat="48.166024" lon="-1.585152">
        <ele>72.8</ele>
        <time>2020-08-12T15:10:26Z</time>
      </trkpt>
      <trkpt lat="48.165676" lon="-1.586144">
        <ele>74.2</ele>
        <time>2020-08-12T15:10:29Z</time>
      </trkpt>
      <trkpt lat="48.165355" lon="-1.586955">
        <ele>73.2</ele>
        <time>2020-08-12T15:10:32Z</time>
      </trkpt>
      <trkpt lat="48.164934" lon="-1.58793">
        <ele>75.0</ele>
        <time>2020-08-12T15:10:35Z</time>
      </trkpt>
      <trkpt lat="48.164751" lon="-1.588316">
        <ele>75.0</ele>
        <time>2020-08-12T15:10:36Z</time>
      </trkpt>
      <trkpt lat="48.164171" lon="-1.589427">
        <ele>76.8</ele>
        <time>2020-08-12T15:10:40Z</time>
      </trkpt>
      <trkpt lat="48.163696" lon="-1.590242">
        <ele>77.2</ele>
        <time>2020-08-12T15:10:43Z</time>
      </trkpt>
      <trkpt lat="48.163088" lon="-1.591175">
        <ele>77.2</ele>
        <time>2020-08-12T15:10:47Z</time>
      </trkpt>
      <trkpt lat="48.162303" lon="-1.59225">
        <ele>78.4</ele>
        <time>2020-08-12T15:10:51Z</time>
      </trkpt>
      <trkpt lat="48.160816" lon="-1.594214">
        <ele>80.0</ele>
        <time>2020-08-12T15:10:59Z</time>
      </trkpt>
      <trkpt lat="48.159047" lon="-1.596614">
        <ele>78.2</ele>
        <time>2020-08-12T15:11:09Z</time>
      </trkpt>
      <trkpt lat="48.158253" lon="-1.59801">
        <ele>79.4</ele>
        <time>2020-08-12T15:11:16Z</time>
      </trkpt>
      <trkpt lat="48.157648" lon="-1.599276">
        <ele>78.8</ele>
        <time>2020-08-12T15:11:22Z</time>
      </trkpt>
      <trkpt lat="48.157477" lon="-1.5996">
        <ele>77.0</ele>
        <time>2020-08-12T15:11:23Z</time>
      </trkpt>
      <trkpt lat="48.157136" lon="-1.600133">
        <ele>78.2</ele>
        <time>2020-08-12T15:11:26Z</time>
      </trkpt>
      <trkpt lat="48.15695" lon="-1.600369">
        <ele>78.2</ele>
        <time>2020-08-12T15:11:27Z</time>
      </trkpt>
      <trkpt lat="48.156759" lon="-1.600584">
        <ele>78.2</ele>
        <time>2020-08-12T15:11:29Z</time>
      </trkpt>
      <trkpt lat="48.156562" lon="-1.600773">
        <ele>77.0</ele>
        <time>2020-08-12T15:11:30Z</time>
      </trkpt>
      <trkpt lat="48.156346" lon="-1.600953">
        <ele>80.0</ele>
        <time>2020-08-12T15:11:32Z</time>
      </trkpt>
      <trkpt lat="48.156106" lon="-1.601117">
        <ele>80.0</ele>
        <time>2020-08-12T15:11:33Z</time>
      </trkpt>
      <trkpt lat="48.155708" lon="-1.601331">
        <ele>78.0</ele>
        <time>2020-08-12T15:11:36Z</time>
      </trkpt>
      <trkpt lat="48.155525" lon="-1.601408">
        <ele>78.0</ele>
        <time>2020-08-12T15:11:37Z</time>
      </trkpt>
      <trkpt lat="48.155174" lon="-1.601507">
        <ele>78.0</ele>
        <time>2020-08-12T15:11:39Z</time>
      </trkpt>
      <trkpt lat="48.154858" lon="-1.601548">
        <ele>76.0</ele>
        <time>2020-08-12T15:11:41Z</time>
      </trkpt>
      <trkpt lat="48.154464" lon="-1.601549">
        <ele>76.0</ele>
        <time>2020-08-12T15:11:43Z</time>
      </trkpt>
      <trkpt lat="48.154044" lon="-1.601467">
        <ele>75.4</ele>
        <time>2020-08-12T15:11:45Z</time>
      </trkpt>
      <trkpt lat="48.153835" lon="-1.601398">
        <ele>75.4</ele>
        <time>2020-08-12T15:11:46Z</time>
      </trkpt>
      <trkpt lat="48.153306" lon="-1.601144">
        <ele>75.6</ele>
        <time>2020-08-12T15:11:50Z</time>
      </trkpt>
      <trkpt lat="48.149869" lon="-1.599168">
        <ele>59.4</ele>
        <time>2020-08-12T15:12:11Z</time>
      </trkpt>
      <trkpt lat="48.149564" lon="-1.598956">
        <ele>58.4</ele>
        <time>2020-08-12T15:12:13Z</time>
      </trkpt>
      <trkpt lat="48.149357" lon="-1.598767">
        <ele>58.4</ele>
        <time>2020-08-12T15:12:14Z</time>
      </trkpt>
      <trkpt lat="48.149168" lon="-1.598561">
        <ele>58.4</ele>
        <time>2020-08-12T15:12:16Z</time>
      </trkpt>
      <trkpt lat="48.148777" lon="-1.598031">
        <ele>57.0</ele>
        <time>2020-08-12T15:12:19Z</time>
      </trkpt>
      <trkpt lat="48.148484" lon="-1.597527">
        <ele>57.0</ele>
        <time>2020-08-12T15:12:21Z</time>
      </trkpt>
      <trkpt lat="48.14823" lon="-1.596965">
        <ele>57.8</ele>
        <time>2020-08-12T15:12:24Z</time>
      </trkpt>
      <trkpt lat="48.148115" lon="-1.596658">
        <ele>57.2</ele>
        <time>2020-08-12T15:12:25Z</time>
      </trkpt>
      <trkpt lat="48.148009" lon="-1.596312">
        <ele>57.2</ele>
        <time>2020-08-12T15:12:27Z</time>
      </trkpt>
      <trkpt lat="48.147923" lon="-1.595978">
        <ele>57.2</ele>
        <time>2020-08-12T15:12:28Z</time>
      </trkpt>
      <trkpt lat="48.147676" lon="-1.59479">
        <ele>55.6</ele>
        <time>2020-08-12T15:12:33Z</time>
      </trkpt>
      <trkpt lat="48.147464" lon="-1.594125">
        <ele>51.4</ele>
        <time>2020-08-12T15:12:36Z</time>
      </trkpt>
      <trkpt lat="48.147332" lon="-1.5938">
        <ele>51.4</ele>
        <time>2020-08-12T15:12:37Z</time>
      </trkpt>
      <trkpt lat="48.147157" lon="-1.593431">
        <ele>51.4</ele>
        <time>2020-08-12T15:12:39Z</time>
      </trkpt>
      <trkpt lat="48.146605" lon="-1.592364">
        <ele>48.2</ele>
        <time>2020-08-12T15:12:44Z</time>
      </trkpt>
      <trkpt lat="48.145354" lon="-1.590511">
        <ele>48.4</ele>
        <time>2020-08-12T15:12:54Z</time>
      </trkpt>
      <trkpt lat="48.14243" lon="-1.586254">
        <ele>41.2</ele>
        <time>2020-08-12T15:13:17Z</time>
      </trkpt>
      <trkpt lat="48.141935" lon="-1.585517">
        <ele>40.4</ele>
        <time>2020-08-12T15:13:22Z</time>
      </trkpt>
      <trkpt lat="48.141554" lon="-1.5849">
        <ele>39.8</ele>
        <time>2020-08-12T15:13:25Z</time>
      </trkpt>
      <trkpt lat="48.14117" lon="-1.584221">
        <ele>39.8</ele>
        <time>2020-08-12T15:13:28Z</time>
      </trkpt>
      <trkpt lat="48.140823" lon="-1.583529">
        <ele>42.8</ele>
        <time>2020-08-12T15:13:31Z</time>
      </trkpt>
      <trkpt lat="48.13965" lon="-1.581058">
        <ele>35.8</ele>
        <time>2020-08-12T15:13:43Z</time>
      </trkpt>
      <trkpt lat="48.139302" lon="-1.580404">
        <ele>35.0</ele>
        <time>2020-08-12T15:13:46Z</time>
      </trkpt>
      <trkpt lat="48.138606" lon="-1.579279">
        <ele>31.2</ele>
        <time>2020-08-12T15:13:52Z</time>
      </trkpt>
      <trkpt lat="48.13808" lon="-1.578541">
        <ele>29.4</ele>
        <time>2020-08-12T15:13:56Z</time>
      </trkpt>
      <trkpt lat="48.137596" lon="-1.577949">
        <ele>30.8</ele>
        <time>2020-08-12T15:14:00Z</time>
      </trkpt>
      <trkpt lat="48.137191" lon="-1.577482">
        <ele>30.2</ele>
        <time>2020-08-12T15:14:03Z</time>
      </trkpt>
      <trkpt lat="48.136454" lon="-1.576748">
        <ele>31.6</ele>
        <time>2020-08-12T15:14:08Z</time>
      </trkpt>
      <trkpt lat="48.135896" lon="-1.576272">
        <ele>31.6</ele>
        <time>2020-08-12T15:14:12Z</time>
      </trkpt>
      <trkpt lat="48.135499" lon="-1.575973">
        <ele>33.2</ele>
        <time>2020-08-12T15:14:14Z</time>
      </trkpt>
      <trkpt lat="48.13497" lon="-1.575606">
        <ele>32.2</ele>
        <time>2020-08-12T15:14:18Z</time>
      </trkpt>
      <trkpt lat="48.134321" lon="-1.575228">
        <ele>32.2</ele>
        <time>2020-08-12T15:14:22Z</time>
      </trkpt>
      <trkpt lat="48.133773" lon="-1.57496">
        <ele>32.8</ele>
        <time>2020-08-12T15:14:25Z</time>
      </trkpt>
      <trkpt lat="48.133322" lon="-1.57477">
        <ele>33.4</ele>
        <time>2020-08-12T15:14:28Z</time>
      </trkpt>
      <trkpt lat="48.13289" lon="-1.574615">
        <ele>33.4</ele>
        <time>2020-08-12T15:14:30Z</time>
      </trkpt>
      <trkpt lat="48.132309" lon="-1.574449">
        <ele>34.6</ele>
        <time>2020-08-12T15:14:34Z</time>
      </trkpt>
      <trkpt lat="48.131639" lon="-1.574313">
        <ele>37.2</ele>
        <time>2020-08-12T15:14:37Z</time>
      </trkpt>
      <trkpt lat="48.131178" lon="-1.574252">
        <ele>37.2</ele>
        <time>2020-08-12T15:14:40Z</time>
      </trkpt>
      <trkpt lat="48.13034" lon="-1.574221">
        <ele>39.2</ele>
        <time>2020-08-12T15:14:45Z</time>
      </trkpt>
      <trkpt lat="48.129536" lon="-1.574267">
        <ele>39.4</ele>
        <time>2020-08-12T15:14:50Z</time>
      </trkpt>
      <trkpt lat="48.1281" lon="-1.574452">
        <ele>41.8</ele>
        <time>2020-08-12T15:14:58Z</time>
      </trkpt>
      <trkpt lat="48.127576" lon="-1.574506">
        <ele>41.8</ele>
        <time>2020-08-12T15:15:01Z</time>
      </trkpt>
      <trkpt lat="48.127083" lon="-1.574528">
        <ele>45.0</ele>
        <time>2020-08-12T15:15:04Z</time>
      </trkpt>
      <trkpt lat="48.126552" lon="-1.574515">
        <ele>47.0</ele>
        <time>2020-08-12T15:15:07Z</time>
      </trkpt>
      <trkpt lat="48.125568" lon="-1.574411">
        <ele>47.2</ele>
        <time>2020-08-12T15:15:13Z</time>
      </trkpt>
      <trkpt lat="48.124916" lon="-1.574265">
        <ele>45.6</ele>
        <time>2020-08-12T15:15:16Z</time>
      </trkpt>
      <trkpt lat="48.123824" lon="-1.573922">
        <ele>45.2</ele>
        <time>2020-08-12T15:15:23Z</time>
      </trkpt>
      <trkpt lat="48.120779" lon="-1.572823">
        <ele>45.2</ele>
        <time>2020-08-12T15:15:41Z</time>
      </trkpt>
      <trkpt lat="48.120415" lon="-1.572748">
        <ele>45.2</ele>
        <time>2020-08-12T15:15:43Z</time>
      </trkpt>
      <trkpt lat="48.119743" lon="-1.572569">
        <ele>48.0</ele>
        <time>2020-08-12T15:15:47Z</time>
      </trkpt>
      <trkpt lat="48.119309" lon="-1.572537">
        <ele>48.0</ele>
        <time>2020-08-12T15:15:49Z</time>
      </trkpt>
      <trkpt lat="48.119004" lon="-1.572539">
        <ele>50.6</ele>
        <time>2020-08-12T15:15:51Z</time>
      </trkpt>
      <trkpt lat="48.118572" lon="-1.572586">
        <ele>50.6</ele>
        <time>2020-08-12T15:15:54Z</time>
      </trkpt>
      <trkpt lat="48.118229" lon="-1.572656">
        <ele>52.6</ele>
        <time>2020-08-12T15:15:56Z</time>
      </trkpt>
      <trkpt lat="48.117681" lon="-1.572837">
        <ele>52.6</ele>
        <time>2020-08-12T15:15:59Z</time>
      </trkpt>
      <trkpt lat="48.117091" lon="-1.573127">
        <ele>53.4</ele>
        <time>2020-08-12T15:16:02Z</time>
      </trkpt>
      <trkpt lat="48.116933" lon="-1.573225">
        <ele>53.4</ele>
        <time>2020-08-12T15:16:04Z</time>
      </trkpt>
      <trkpt lat="48.11648" lon="-1.573564">
        <ele>54.0</ele>
        <time>2020-08-12T15:16:07Z</time>
      </trkpt>
      <trkpt lat="48.116262" lon="-1.573764">
        <ele>54.0</ele>
        <time>2020-08-12T15:16:09Z</time>
      </trkpt>
      <trkpt lat="48.116052" lon="-1.573991">
        <ele>54.0</ele>
        <time>2020-08-12T15:16:11Z</time>
      </trkpt>
      <trkpt lat="48.115766" lon="-1.574351">
        <ele>55.0</ele>
        <time>2020-08-12T15:16:14Z</time>
      </trkpt>
      <trkpt lat="48.115449" lon="-1.574866">
        <ele>55.0</ele>
        <time>2020-08-12T15:16:17Z</time>
      </trkpt>
      <trkpt lat="48.115251" lon="-1.575266">
        <ele>56.6</ele>
        <time>2020-08-12T15:16:19Z</time>
      </trkpt>
      <trkpt lat="48.115069" lon="-1.575728">
        <ele>56.6</ele>
        <time>2020-08-12T15:16:22Z</time>
      </trkpt>
      <trkpt lat="48.114669" lon="-1.57702">
        <ele>57.4</ele>
        <time>2020-08-12T15:16:29Z</time>
      </trkpt>
      <trkpt lat="48.11415" lon="-1.578514">
        <ele>55.6</ele>
        <time>2020-08-12T15:16:37Z</time>
      </trkpt>
      <trkpt lat="48.112838" lon="-1.582799">
        <ele>60.8</ele>
        <time>2020-08-12T15:16:59Z</time>
      </trkpt>
      <trkpt lat="48.111849" lon="-1.585829">
        <ele>55.4</ele>
        <time>2020-08-12T15:17:15Z</time>
      </trkpt>
      <trkpt lat="48.110735" lon="-1.589085">
        <ele>47.0</ele>
        <time>2020-08-12T15:17:32Z</time>
      </trkpt>
      <trkpt lat="48.109848" lon="-1.591595">
        <ele>47.0</ele>
        <time>2020-08-12T15:17:46Z</time>
      </trkpt>
      <trkpt lat="48.108602" lon="-1.594794">
        <ele>41.6</ele>
        <time>2020-08-12T15:18:04Z</time>
      </trkpt>
      <trkpt lat="48.108018" lon="-1.596257">
        <ele>37.0</ele>
        <time>2020-08-12T15:18:12Z</time>
      </trkpt>
      <trkpt lat="48.107426" lon="-1.597683">
        <ele>35.4</ele>
        <time>2020-08-12T15:18:20Z</time>
      </trkpt>
      <trkpt lat="48.106002" lon="-1.600967">
        <ele>37.8</ele>
        <time>2020-08-12T15:18:38Z</time>
      </trkpt>
      <trkpt lat="48.105446" lon="-1.602201">
        <ele>39.6</ele>
        <time>2020-08-12T15:18:45Z</time>
      </trkpt>
      <trkpt lat="48.104268" lon="-1.604701">
        <ele>40.4</ele>
        <time>2020-08-12T15:19:00Z</time>
      </trkpt>
      <trkpt lat="48.103139" lon="-1.60701">
        <ele>41.6</ele>
        <time>2020-08-12T15:19:14Z</time>
      </trkpt>
      <trkpt lat="48.101609" lon="-1.609972">
        <ele>45.8</ele>
        <time>2020-08-12T15:19:31Z</time>
      </trkpt>
      <trkpt lat="48.100897" lon="-1.611277">
        <ele>48.0</ele>
        <time>2020-08-12T15:19:39Z</time>
      </trkpt>
      <trkpt lat="48.094825" lon="-1.622051">
        <ele>56.8</ele>
        <time>2020-08-12T15:20:46Z</time>
      </trkpt>
      <trkpt lat="48.093643" lon="-1.624106">
        <ele>55.2</ele>
        <time>2020-08-12T15:20:59Z</time>
      </trkpt>
      <trkpt lat="48.091585" lon="-1.627744">
        <ele>50.4</ele>
        <time>2020-08-12T15:21:22Z</time>
      </trkpt>
      <trkpt lat="48.090302" lon="-1.63003">
        <ele>48.4</ele>
        <time>2020-08-12T15:21:36Z</time>
      </trkpt>
      <trkpt lat="48.088955" lon="-1.632497">
        <ele>40.4</ele>
        <time>2020-08-12T15:21:51Z</time>
      </trkpt>
      <trkpt lat="48.087834" lon="-1.634596">
        <ele>41.4</ele>
        <time>2020-08-12T15:22:04Z</time>
      </trkpt>
      <trkpt lat="48.086518" lon="-1.637128">
        <ele>38.6</ele>
        <time>2020-08-12T15:22:19Z</time>
      </trkpt>
      <trkpt lat="48.083463" lon="-1.643119">
        <ele>40.8</ele>
        <time>2020-08-12T15:22:55Z</time>
      </trkpt>
      <trkpt lat="48.082985" lon="-1.644091">
        <ele>38.8</ele>
        <time>2020-08-12T15:23:01Z</time>
      </trkpt>
      <trkpt lat="48.082703" lon="-1.644716">
        <ele>38.4</ele>
        <time>2020-08-12T15:23:04Z</time>
      </trkpt>
      <trkpt lat="48.082438" lon="-1.645431">
        <ele>35.4</ele>
        <time>2020-08-12T15:23:08Z</time>
      </trkpt>
      <trkpt lat="48.082285" lon="-1.645902">
        <ele>35.4</ele>
        <time>2020-08-12T15:23:11Z</time>
      </trkpt>
      <trkpt lat="48.082032" lon="-1.646867">
        <ele>35.8</ele>
        <time>2020-08-12T15:23:16Z</time>
      </trkpt>
      <trkpt lat="48.081802" lon="-1.648127">
        <ele>36.8</ele>
        <time>2020-08-12T15:23:22Z</time>
      </trkpt>
      <trkpt lat="48.081671" lon="-1.649441">
        <ele>38.6</ele>
        <time>2020-08-12T15:23:28Z</time>
      </trkpt>
      <trkpt lat="48.081636" lon="-1.650344">
        <ele>32.8</ele>
        <time>2020-08-12T15:23:33Z</time>
      </trkpt>
      <trkpt lat="48.08122" lon="-1.666845">
        <ele>32.6</ele>
        <time>2020-08-12T15:24:51Z</time>
      </trkpt>
      <trkpt lat="48.081112" lon="-1.669304">
        <ele>31.8</ele>
        <time>2020-08-12T15:25:03Z</time>
      </trkpt>
      <trkpt lat="48.081162" lon="-1.669391">
        <ele>31.8</ele>
        <time>2020-08-12T15:25:04Z</time>
      </trkpt>
      <trkpt lat="48.081144" lon="-1.670603">
        <ele>32.0</ele>
        <time>2020-08-12T15:25:12Z</time>
      </trkpt>
      <trkpt lat="48.081156" lon="-1.670857">
        <ele>32.8</ele>
        <time>2020-08-12T15:25:14Z</time>
      </trkpt>
      <trkpt lat="48.081226" lon="-1.671372">
        <ele>32.8</ele>
        <time>2020-08-12T15:25:17Z</time>
      </trkpt>
      <trkpt lat="48.08137" lon="-1.671981">
        <ele>32.6</ele>
        <time>2020-08-12T15:25:22Z</time>
      </trkpt>
      <trkpt lat="48.081543" lon="-1.672766">
        <ele>33.6</ele>
        <time>2020-08-12T15:25:29Z</time>
      </trkpt>
      <trkpt lat="48.081579" lon="-1.673047">
        <ele>33.6</ele>
        <time>2020-08-12T15:25:31Z</time>
      </trkpt>
      <trkpt lat="48.081585" lon="-1.673368">
        <ele>34.2</ele>
        <time>2020-08-12T15:25:34Z</time>
      </trkpt>
      <trkpt lat="48.081564" lon="-1.674193">
        <ele>34.2</ele>
        <time>2020-08-12T15:25:42Z</time>
      </trkpt>
      <trkpt lat="48.081585" lon="-1.674385">
        <ele>34.2</ele>
        <time>2020-08-12T15:25:43Z</time>
      </trkpt>
      <trkpt lat="48.081655" lon="-1.674529">
        <ele>34.2</ele>
        <time>2020-08-12T15:25:45Z</time>
      </trkpt>
      <trkpt lat="48.081701" lon="-1.674555">
        <ele>34.4</ele>
        <time>2020-08-12T15:25:45Z</time>
      </trkpt>
      <trkpt lat="48.081815" lon="-1.674687">
        <ele>34.4</ele>
        <time>2020-08-12T15:25:46Z</time>
      </trkpt>
      <trkpt lat="48.081843" lon="-1.674747">
        <ele>34.4</ele>
        <time>2020-08-12T15:25:46Z</time>
      </trkpt>
      <trkpt lat="48.081886" lon="-1.674919">
        <ele>34.4</ele>
        <time>2020-08-12T15:25:47Z</time>
      </trkpt>
      <trkpt lat="48.081883" lon="-1.675102">
        <ele>32.6</ele>
        <time>2020-08-12T15:25:47Z</time>
      </trkpt>
      <trkpt lat="48.081841" lon="-1.67526">
        <ele>32.6</ele>
        <time>2020-08-12T15:25:48Z</time>
      </trkpt>
      <trkpt lat="48.081771" lon="-1.675379">
        <ele>32.6</ele>
        <time>2020-08-12T15:25:48Z</time>
      </trkpt>
      <trkpt lat="48.081683" lon="-1.675458">
        <ele>32.6</ele>
        <time>2020-08-12T15:25:49Z</time>
      </trkpt>
      <trkpt lat="48.081536" lon="-1.675491">
        <ele>32.4</ele>
        <time>2020-08-12T15:25:49Z</time>
      </trkpt>
      <trkpt lat="48.081395" lon="-1.675424">
        <ele>32.4</ele>
        <time>2020-08-12T15:25:50Z</time>
      </trkpt>
      <trkpt lat="48.081274" lon="-1.675238">
        <ele>32.4</ele>
        <time>2020-08-12T15:25:51Z</time>
      </trkpt>
      <trkpt lat="48.081207" lon="-1.675182">
        <ele>32.4</ele>
        <time>2020-08-12T15:25:51Z</time>
      </trkpt>
      <trkpt lat="48.081032" lon="-1.675091">
        <ele>32.4</ele>
        <time>2020-08-12T15:25:52Z</time>
      </trkpt>
      <trkpt lat="48.080982" lon="-1.675085">
        <ele>32.4</ele>
        <time>2020-08-12T15:25:52Z</time>
      </trkpt>
      <trkpt lat="48.078384" lon="-1.675191">
        <ele>32.6</ele>
        <time>2020-08-12T15:26:05Z</time>
      </trkpt>
      <trkpt lat="48.077612" lon="-1.675251">
        <ele>32.6</ele>
        <time>2020-08-12T15:26:08Z</time>
      </trkpt>
      <trkpt lat="48.07538" lon="-1.675532">
        <ele>32.6</ele>
        <time>2020-08-12T15:26:19Z</time>
      </trkpt>
      <trkpt lat="48.074602" lon="-1.675668">
        <ele>33.0</ele>
        <time>2020-08-12T15:26:23Z</time>
      </trkpt>
      <trkpt lat="48.073021" lon="-1.676005">
        <ele>31.8</ele>
        <time>2020-08-12T15:26:30Z</time>
      </trkpt>
      <trkpt lat="48.066445" lon="-1.677489">
        <ele>34.4</ele>
        <time>2020-08-12T15:27:02Z</time>
      </trkpt>
      <trkpt lat="48.065518" lon="-1.677714">
        <ele>35.6</ele>
        <time>2020-08-12T15:27:06Z</time>
      </trkpt>
      <trkpt lat="48.063546" lon="-1.678303">
        <ele>34.0</ele>
        <time>2020-08-12T15:27:15Z</time>
      </trkpt>
      <trkpt lat="48.033753" lon="-1.688202">
        <ele>19.8</ele>
        <time>2020-08-12T15:29:40Z</time>
      </trkpt>
      <trkpt lat="48.032602" lon="-1.688563">
        <ele>19.4</ele>
        <time>2020-08-12T15:29:45Z</time>
      </trkpt>
      <trkpt lat="48.030827" lon="-1.68907">
        <ele>18.8</ele>
        <time>2020-08-12T15:29:54Z</time>
      </trkpt>
      <trkpt lat="48.028807" lon="-1.689578">
        <ele>19.0</ele>
        <time>2020-08-12T15:30:03Z</time>
      </trkpt>
      <trkpt lat="48.027217" lon="-1.689934">
        <ele>20.0</ele>
        <time>2020-08-12T15:30:11Z</time>
      </trkpt>
      <trkpt lat="48.024745" lon="-1.690398">
        <ele>19.8</ele>
        <time>2020-08-12T15:30:23Z</time>
      </trkpt>
      <trkpt lat="48.023225" lon="-1.690633">
        <ele>21.2</ele>
        <time>2020-08-12T15:30:30Z</time>
      </trkpt>
      <trkpt lat="48.022401" lon="-1.690747">
        <ele>23.0</ele>
        <time>2020-08-12T15:30:34Z</time>
      </trkpt>
      <trkpt lat="48.020469" lon="-1.690966">
        <ele>27.4</ele>
        <time>2020-08-12T15:30:43Z</time>
      </trkpt>
      <trkpt lat="48.009696" lon="-1.691929">
        <ele>24.4</ele>
        <time>2020-08-12T15:31:34Z</time>
      </trkpt>
      <trkpt lat="48.008153" lon="-1.692087">
        <ele>26.6</ele>
        <time>2020-08-12T15:31:41Z</time>
      </trkpt>
      <trkpt lat="47.999715" lon="-1.693307">
        <ele>27.2</ele>
        <time>2020-08-12T15:32:21Z</time>
      </trkpt>
      <trkpt lat="47.998397" lon="-1.693515">
        <ele>29.2</ele>
        <time>2020-08-12T15:32:27Z</time>
      </trkpt>
      <trkpt lat="47.997966" lon="-1.69361">
        <ele>30.6</ele>
        <time>2020-08-12T15:32:30Z</time>
      </trkpt>
      <trkpt lat="47.997161" lon="-1.693852">
        <ele>30.8</ele>
        <time>2020-08-12T15:32:33Z</time>
      </trkpt>
      <trkpt lat="47.996565" lon="-1.69408">
        <ele>30.4</ele>
        <time>2020-08-12T15:32:36Z</time>
      </trkpt>
      <trkpt lat="47.994603" lon="-1.694908">
        <ele>30.6</ele>
        <time>2020-08-12T15:32:46Z</time>
      </trkpt>
      <trkpt lat="47.993625" lon="-1.695234">
        <ele>31.8</ele>
        <time>2020-08-12T15:32:51Z</time>
      </trkpt>
      <trkpt lat="47.992923" lon="-1.695401">
        <ele>32.8</ele>
        <time>2020-08-12T15:32:54Z</time>
      </trkpt>
      <trkpt lat="47.992304" lon="-1.695501">
        <ele>33.8</ele>
        <time>2020-08-12T15:32:57Z</time>
      </trkpt>
      <trkpt lat="47.990982" lon="-1.695588">
        <ele>35.4</ele>
        <time>2020-08-12T15:33:03Z</time>
      </trkpt>
      <trkpt lat="47.981381" lon="-1.695804">
        <ele>80.8</ele>
        <time>2020-08-12T15:33:49Z</time>
      </trkpt>
      <trkpt lat="47.980345" lon="-1.695792">
        <ele>86.2</ele>
        <time>2020-08-12T15:33:53Z</time>
      </trkpt>
      <trkpt lat="47.979656" lon="-1.695733">
        <ele>91.2</ele>
        <time>2020-08-12T15:33:57Z</time>
      </trkpt>
      <trkpt lat="47.979" lon="-1.695642">
        <ele>95.6</ele>
        <time>2020-08-12T15:34:00Z</time>
      </trkpt>
      <trkpt lat="47.978019" lon="-1.69544">
        <ele>99.4</ele>
        <time>2020-08-12T15:34:05Z</time>
      </trkpt>
      <trkpt lat="47.977356" lon="-1.695253">
        <ele>101.8</ele>
        <time>2020-08-12T15:34:08Z</time>
      </trkpt>
      <trkpt lat="47.966362" lon="-1.69143">
        <ele>85.8</ele>
        <time>2020-08-12T15:35:01Z</time>
      </trkpt>
      <trkpt lat="47.96603" lon="-1.691295">
        <ele>85.8</ele>
        <time>2020-08-12T15:35:03Z</time>
      </trkpt>
      <trkpt lat="47.965506" lon="-1.691041">
        <ele>85.2</ele>
        <time>2020-08-12T15:35:05Z</time>
      </trkpt>
      <trkpt lat="47.965186" lon="-1.690857">
        <ele>85.2</ele>
        <time>2020-08-12T15:35:07Z</time>
      </trkpt>
      <trkpt lat="47.964646" lon="-1.690496">
        <ele>85.8</ele>
        <time>2020-08-12T15:35:10Z</time>
      </trkpt>
      <trkpt lat="47.964215" lon="-1.690167">
        <ele>85.8</ele>
        <time>2020-08-12T15:35:12Z</time>
      </trkpt>
      <trkpt lat="47.963913" lon="-1.689909">
        <ele>86.6</ele>
        <time>2020-08-12T15:35:14Z</time>
      </trkpt>
      <trkpt lat="47.96342" lon="-1.689434">
        <ele>86.6</ele>
        <time>2020-08-12T15:35:16Z</time>
      </trkpt>
      <trkpt lat="47.962736" lon="-1.688687">
        <ele>85.2</ele>
        <time>2020-08-12T15:35:20Z</time>
      </trkpt>
      <trkpt lat="47.961178" lon="-1.686865">
        <ele>85.6</ele>
        <time>2020-08-12T15:35:30Z</time>
      </trkpt>
      <trkpt lat="47.9606" lon="-1.686265">
        <ele>84.4</ele>
        <time>2020-08-12T15:35:33Z</time>
      </trkpt>
      <trkpt lat="47.960197" lon="-1.685899">
        <ele>84.4</ele>
        <time>2020-08-12T15:35:35Z</time>
      </trkpt>
      <trkpt lat="47.953423" lon="-1.680486">
        <ele>104.0</ele>
        <time>2020-08-12T15:36:12Z</time>
      </trkpt>
      <trkpt lat="47.952887" lon="-1.680077">
        <ele>105.4</ele>
        <time>2020-08-12T15:36:14Z</time>
      </trkpt>
      <trkpt lat="47.952364" lon="-1.679727">
        <ele>106.4</ele>
        <time>2020-08-12T15:36:17Z</time>
      </trkpt>
      <trkpt lat="47.951672" lon="-1.679352">
        <ele>106.4</ele>
        <time>2020-08-12T15:36:21Z</time>
      </trkpt>
      <trkpt lat="47.951143" lon="-1.679128">
        <ele>105.0</ele>
        <time>2020-08-12T15:36:23Z</time>
      </trkpt>
      <trkpt lat="47.945325" lon="-1.677048">
        <ele>95.0</ele>
        <time>2020-08-12T15:36:51Z</time>
      </trkpt>
      <trkpt lat="47.944548" lon="-1.676812">
        <ele>91.2</ele>
        <time>2020-08-12T15:36:55Z</time>
      </trkpt>
      <trkpt lat="47.94178" lon="-1.676132">
        <ele>79.4</ele>
        <time>2020-08-12T15:37:08Z</time>
      </trkpt>
      <trkpt lat="47.940336" lon="-1.675729">
        <ele>76.2</ele>
        <time>2020-08-12T15:37:15Z</time>
      </trkpt>
      <trkpt lat="47.939881" lon="-1.675565">
        <ele>75.8</ele>
        <time>2020-08-12T15:37:18Z</time>
      </trkpt>
      <trkpt lat="47.933445" lon="-1.673002">
        <ele>69.4</ele>
        <time>2020-08-12T15:37:49Z</time>
      </trkpt>
      <trkpt lat="47.932997" lon="-1.672859">
        <ele>74.2</ele>
        <time>2020-08-12T15:37:51Z</time>
      </trkpt>
      <trkpt lat="47.932288" lon="-1.672735">
        <ele>80.0</ele>
        <time>2020-08-12T15:37:55Z</time>
      </trkpt>
      <trkpt lat="47.931729" lon="-1.672719">
        <ele>80.0</ele>
        <time>2020-08-12T15:37:57Z</time>
      </trkpt>
      <trkpt lat="47.93125" lon="-1.672773">
        <ele>85.8</ele>
        <time>2020-08-12T15:37:59Z</time>
      </trkpt>
      <trkpt lat="47.930919" lon="-1.672843">
        <ele>85.8</ele>
        <time>2020-08-12T15:38:01Z</time>
      </trkpt>
      <trkpt lat="47.930537" lon="-1.672959">
        <ele>90.4</ele>
        <time>2020-08-12T15:38:03Z</time>
      </trkpt>
      <trkpt lat="47.929997" lon="-1.673191">
        <ele>92.6</ele>
        <time>2020-08-12T15:38:06Z</time>
      </trkpt>
      <trkpt lat="47.929688" lon="-1.67336">
        <ele>92.0</ele>
        <time>2020-08-12T15:38:07Z</time>
      </trkpt>
      <trkpt lat="47.929364" lon="-1.67357">
        <ele>92.0</ele>
        <time>2020-08-12T15:38:09Z</time>
      </trkpt>
      <trkpt lat="47.92875" lon="-1.674067">
        <ele>91.0</ele>
        <time>2020-08-12T15:38:12Z</time>
      </trkpt>
      <trkpt lat="47.927475" lon="-1.675269">
        <ele>84.2</ele>
        <time>2020-08-12T15:38:19Z</time>
      </trkpt>
      <trkpt lat="47.927061" lon="-1.675597">
        <ele>84.2</ele>
        <time>2020-08-12T15:38:21Z</time>
      </trkpt>
      <trkpt lat="47.92642" lon="-1.676022">
        <ele>79.0</ele>
        <time>2020-08-12T15:38:25Z</time>
      </trkpt>
      <trkpt lat="47.925083" lon="-1.676715">
        <ele>75.0</ele>
        <time>2020-08-12T15:38:31Z</time>
      </trkpt>
      <trkpt lat="47.92246" lon="-1.678026">
        <ele>62.2</ele>
        <time>2020-08-12T15:38:44Z</time>
      </trkpt>
      <trkpt lat="47.920502" lon="-1.679207">
        <ele>63.6</ele>
        <time>2020-08-12T15:38:54Z</time>
      </trkpt>
      <trkpt lat="47.919943" lon="-1.679516">
        <ele>61.2</ele>
        <time>2020-08-12T15:38:57Z</time>
      </trkpt>
      <trkpt lat="47.916374" lon="-1.681148">
        <ele>55.4</ele>
        <time>2020-08-12T15:39:15Z</time>
      </trkpt>
      <trkpt lat="47.915099" lon="-1.681679">
        <ele>57.2</ele>
        <time>2020-08-12T15:39:21Z</time>
      </trkpt>
      <trkpt lat="47.914556" lon="-1.68187">
        <ele>58.0</ele>
        <time>2020-08-12T15:39:24Z</time>
      </trkpt>
      <trkpt lat="47.914094" lon="-1.682007">
        <ele>57.0</ele>
        <time>2020-08-12T15:39:26Z</time>
      </trkpt>
      <trkpt lat="47.913108" lon="-1.682262">
        <ele>57.0</ele>
        <time>2020-08-12T15:39:31Z</time>
      </trkpt>
      <trkpt lat="47.911211" lon="-1.682712">
        <ele>58.0</ele>
        <time>2020-08-12T15:39:40Z</time>
      </trkpt>
      <trkpt lat="47.910315" lon="-1.683">
        <ele>58.8</ele>
        <time>2020-08-12T15:39:44Z</time>
      </trkpt>
      <trkpt lat="47.906338" lon="-1.684579">
        <ele>56.0</ele>
        <time>2020-08-12T15:40:04Z</time>
      </trkpt>
      <trkpt lat="47.905908" lon="-1.684774">
        <ele>56.0</ele>
        <time>2020-08-12T15:40:06Z</time>
      </trkpt>
      <trkpt lat="47.904173" lon="-1.68566">
        <ele>54.2</ele>
        <time>2020-08-12T15:40:14Z</time>
      </trkpt>
      <trkpt lat="47.903722" lon="-1.685855">
        <ele>52.8</ele>
        <time>2020-08-12T15:40:17Z</time>
      </trkpt>
      <trkpt lat="47.903158" lon="-1.686053">
        <ele>53.0</ele>
        <time>2020-08-12T15:40:19Z</time>
      </trkpt>
      <trkpt lat="47.90226" lon="-1.686287">
        <ele>51.6</ele>
        <time>2020-08-12T15:40:24Z</time>
      </trkpt>
      <trkpt lat="47.901336" lon="-1.686416">
        <ele>48.4</ele>
        <time>2020-08-12T15:40:28Z</time>
      </trkpt>
      <trkpt lat="47.900609" lon="-1.686447">
        <ele>45.8</ele>
        <time>2020-08-12T15:40:31Z</time>
      </trkpt>
      <trkpt lat="47.898292" lon="-1.686435">
        <ele>40.6</ele>
        <time>2020-08-12T15:40:42Z</time>
      </trkpt>
      <trkpt lat="47.896877" lon="-1.686566">
        <ele>40.0</ele>
        <time>2020-08-12T15:40:49Z</time>
      </trkpt>
      <trkpt lat="47.895946" lon="-1.686754">
        <ele>40.0</ele>
        <time>2020-08-12T15:40:53Z</time>
      </trkpt>
      <trkpt lat="47.894914" lon="-1.687057">
        <ele>34.0</ele>
        <time>2020-08-12T15:40:58Z</time>
      </trkpt>
      <trkpt lat="47.894083" lon="-1.687377">
        <ele>35.0</ele>
        <time>2020-08-12T15:41:03Z</time>
      </trkpt>
      <trkpt lat="47.893618" lon="-1.68759">
        <ele>34.6</ele>
        <time>2020-08-12T15:41:05Z</time>
      </trkpt>
      <trkpt lat="47.892407" lon="-1.688247">
        <ele>38.6</ele>
        <time>2020-08-12T15:41:11Z</time>
      </trkpt>
      <trkpt lat="47.890319" lon="-1.68954">
        <ele>43.0</ele>
        <time>2020-08-12T15:41:22Z</time>
      </trkpt>
      <trkpt lat="47.889879" lon="-1.689775">
        <ele>45.2</ele>
        <time>2020-08-12T15:41:24Z</time>
      </trkpt>
      <trkpt lat="47.889385" lon="-1.689995">
        <ele>45.2</ele>
        <time>2020-08-12T15:41:26Z</time>
      </trkpt>
      <trkpt lat="47.888995" lon="-1.690136">
        <ele>41.0</ele>
        <time>2020-08-12T15:41:28Z</time>
      </trkpt>
      <trkpt lat="47.888414" lon="-1.690282">
        <ele>41.0</ele>
        <time>2020-08-12T15:41:31Z</time>
      </trkpt>
      <trkpt lat="47.887966" lon="-1.690359">
        <ele>35.0</ele>
        <time>2020-08-12T15:41:33Z</time>
      </trkpt>
      <trkpt lat="47.887493" lon="-1.690394">
        <ele>28.8</ele>
        <time>2020-08-12T15:41:35Z</time>
      </trkpt>
      <trkpt lat="47.887161" lon="-1.690394">
        <ele>28.8</ele>
        <time>2020-08-12T15:41:37Z</time>
      </trkpt>
      <trkpt lat="47.886509" lon="-1.690338">
        <ele>23.6</ele>
        <time>2020-08-12T15:41:40Z</time>
      </trkpt>
      <trkpt lat="47.884519" lon="-1.689944">
        <ele>21.8</ele>
        <time>2020-08-12T15:41:49Z</time>
      </trkpt>
      <trkpt lat="47.882876" lon="-1.689657">
        <ele>21.4</ele>
        <time>2020-08-12T15:41:57Z</time>
      </trkpt>
      <trkpt lat="47.881604" lon="-1.689513">
        <ele>29.0</ele>
        <time>2020-08-12T15:42:03Z</time>
      </trkpt>
      <trkpt lat="47.880326" lon="-1.68943">
        <ele>33.2</ele>
        <time>2020-08-12T15:42:09Z</time>
      </trkpt>
      <trkpt lat="47.873479" lon="-1.689102">
        <ele>36.6</ele>
        <time>2020-08-12T15:42:42Z</time>
      </trkpt>
      <trkpt lat="47.872679" lon="-1.689087">
        <ele>34.4</ele>
        <time>2020-08-12T15:42:45Z</time>
      </trkpt>
      <trkpt lat="47.872321" lon="-1.689112">
        <ele>35.0</ele>
        <time>2020-08-12T15:42:47Z</time>
      </trkpt>
      <trkpt lat="47.871753" lon="-1.689216">
        <ele>36.6</ele>
        <time>2020-08-12T15:42:50Z</time>
      </trkpt>
      <trkpt lat="47.871301" lon="-1.689356">
        <ele>38.6</ele>
        <time>2020-08-12T15:42:52Z</time>
      </trkpt>
      <trkpt lat="47.870736" lon="-1.689602">
        <ele>41.2</ele>
        <time>2020-08-12T15:42:55Z</time>
      </trkpt>
      <trkpt lat="47.869413" lon="-1.690321">
        <ele>44.8</ele>
        <time>2020-08-12T15:43:01Z</time>
      </trkpt>
      <trkpt lat="47.868875" lon="-1.690578">
        <ele>48.2</ele>
        <time>2020-08-12T15:43:04Z</time>
      </trkpt>
      <trkpt lat="47.868199" lon="-1.690824">
        <ele>49.4</ele>
        <time>2020-08-12T15:43:07Z</time>
      </trkpt>
      <trkpt lat="47.867505" lon="-1.690986">
        <ele>49.0</ele>
        <time>2020-08-12T15:43:11Z</time>
      </trkpt>
      <trkpt lat="47.867046" lon="-1.691042">
        <ele>50.2</ele>
        <time>2020-08-12T15:43:13Z</time>
      </trkpt>
      <trkpt lat="47.866579" lon="-1.691066">
        <ele>50.4</ele>
        <time>2020-08-12T15:43:15Z</time>
      </trkpt>
      <trkpt lat="47.863442" lon="-1.69096">
        <ele>51.4</ele>
        <time>2020-08-12T15:43:30Z</time>
      </trkpt>
      <trkpt lat="47.862048" lon="-1.690987">
        <ele>55.0</ele>
        <time>2020-08-12T15:43:36Z</time>
      </trkpt>
      <trkpt lat="47.861353" lon="-1.69104">
        <ele>57.2</ele>
        <time>2020-08-12T15:43:40Z</time>
      </trkpt>
      <trkpt lat="47.860449" lon="-1.691148">
        <ele>58.6</ele>
        <time>2020-08-12T15:43:44Z</time>
      </trkpt>
      <trkpt lat="47.859782" lon="-1.691255">
        <ele>60.2</ele>
        <time>2020-08-12T15:43:47Z</time>
      </trkpt>
      <trkpt lat="47.858895" lon="-1.69144">
        <ele>60.6</ele>
        <time>2020-08-12T15:43:51Z</time>
      </trkpt>
      <trkpt lat="47.857461" lon="-1.691836">
        <ele>58.8</ele>
        <time>2020-08-12T15:43:58Z</time>
      </trkpt>
      <trkpt lat="47.856271" lon="-1.692255">
        <ele>60.8</ele>
        <time>2020-08-12T15:44:04Z</time>
      </trkpt>
      <trkpt lat="47.85496" lon="-1.692811">
        <ele>65.2</ele>
        <time>2020-08-12T15:44:11Z</time>
      </trkpt>
      <trkpt lat="47.851139" lon="-1.694683">
        <ele>77.6</ele>
        <time>2020-08-12T15:44:30Z</time>
      </trkpt>
      <trkpt lat="47.850132" lon="-1.69513">
        <ele>80.2</ele>
        <time>2020-08-12T15:44:35Z</time>
      </trkpt>
      <trkpt lat="47.849152" lon="-1.695507">
        <ele>87.6</ele>
        <time>2020-08-12T15:44:39Z</time>
      </trkpt>
      <trkpt lat="47.848247" lon="-1.695796">
        <ele>89.4</ele>
        <time>2020-08-12T15:44:44Z</time>
      </trkpt>
      <trkpt lat="47.84757" lon="-1.695984">
        <ele>89.0</ele>
        <time>2020-08-12T15:44:47Z</time>
      </trkpt>
      <trkpt lat="47.84689" lon="-1.696137">
        <ele>93.0</ele>
        <time>2020-08-12T15:44:50Z</time>
      </trkpt>
      <trkpt lat="47.846146" lon="-1.69626">
        <ele>98.8</ele>
        <time>2020-08-12T15:44:54Z</time>
      </trkpt>
      <trkpt lat="47.845636" lon="-1.696324">
        <ele>102.4</ele>
        <time>2020-08-12T15:44:56Z</time>
      </trkpt>
      <trkpt lat="47.844728" lon="-1.696399">
        <ele>105.2</ele>
        <time>2020-08-12T15:45:00Z</time>
      </trkpt>
      <trkpt lat="47.843936" lon="-1.696423">
        <ele>105.6</ele>
        <time>2020-08-12T15:45:04Z</time>
      </trkpt>
      <trkpt lat="47.843017" lon="-1.696397">
        <ele>103.4</ele>
        <time>2020-08-12T15:45:09Z</time>
      </trkpt>
      <trkpt lat="47.842113" lon="-1.69632">
        <ele>98.4</ele>
        <time>2020-08-12T15:45:13Z</time>
      </trkpt>
      <trkpt lat="47.841205" lon="-1.696181">
        <ele>92.0</ele>
        <time>2020-08-12T15:45:17Z</time>
      </trkpt>
      <trkpt lat="47.840415" lon="-1.696015">
        <ele>85.6</ele>
        <time>2020-08-12T15:45:21Z</time>
      </trkpt>
      <trkpt lat="47.839615" lon="-1.695806">
        <ele>83.4</ele>
        <time>2020-08-12T15:45:25Z</time>
      </trkpt>
      <trkpt lat="47.838729" lon="-1.695525">
        <ele>79.4</ele>
        <time>2020-08-12T15:45:29Z</time>
      </trkpt>
      <trkpt lat="47.838059" lon="-1.695275">
        <ele>74.8</ele>
        <time>2020-08-12T15:45:32Z</time>
      </trkpt>
      <trkpt lat="47.836961" lon="-1.694795">
        <ele>74.0</ele>
        <time>2020-08-12T15:45:38Z</time>
      </trkpt>
      <trkpt lat="47.835775" lon="-1.694163">
        <ele>73.0</ele>
        <time>2020-08-12T15:45:44Z</time>
      </trkpt>
      <trkpt lat="47.834414" lon="-1.693323">
        <ele>74.4</ele>
        <time>2020-08-12T15:45:51Z</time>
      </trkpt>
      <trkpt lat="47.830825" lon="-1.690866">
        <ele>86.2</ele>
        <time>2020-08-12T15:46:09Z</time>
      </trkpt>
      <trkpt lat="47.829954" lon="-1.690357">
        <ele>94.0</ele>
        <time>2020-08-12T15:46:14Z</time>
      </trkpt>
      <trkpt lat="47.82879" lon="-1.689806">
        <ele>98.2</ele>
        <time>2020-08-12T15:46:19Z</time>
      </trkpt>
      <trkpt lat="47.827664" lon="-1.689407">
        <ele>100.8</ele>
        <time>2020-08-12T15:46:25Z</time>
      </trkpt>
      <trkpt lat="47.826656" lon="-1.689154">
        <ele>97.4</ele>
        <time>2020-08-12T15:46:30Z</time>
      </trkpt>
      <trkpt lat="47.825736" lon="-1.689004">
        <ele>95.2</ele>
        <time>2020-08-12T15:46:34Z</time>
      </trkpt>
      <trkpt lat="47.825055" lon="-1.688944">
        <ele>95.2</ele>
        <time>2020-08-12T15:46:37Z</time>
      </trkpt>
      <trkpt lat="47.824361" lon="-1.68893">
        <ele>91.8</ele>
        <time>2020-08-12T15:46:41Z</time>
      </trkpt>
      <trkpt lat="47.822969" lon="-1.688982">
        <ele>83.2</ele>
        <time>2020-08-12T15:46:47Z</time>
      </trkpt>
      <trkpt lat="47.818387" lon="-1.689402">
        <ele>66.6</ele>
        <time>2020-08-12T15:47:09Z</time>
      </trkpt>
      <trkpt lat="47.810466" lon="-1.690166">
        <ele>55.0</ele>
        <time>2020-08-12T15:47:46Z</time>
      </trkpt>
      <trkpt lat="47.80676" lon="-1.690472">
        <ele>51.8</ele>
        <time>2020-08-12T15:48:04Z</time>
      </trkpt>
      <trkpt lat="47.80603" lon="-1.690484">
        <ele>53.0</ele>
        <time>2020-08-12T15:48:07Z</time>
      </trkpt>
      <trkpt lat="47.805232" lon="-1.690417">
        <ele>53.8</ele>
        <time>2020-08-12T15:48:11Z</time>
      </trkpt>
      <trkpt lat="47.800433" lon="-1.689463">
        <ele>58.4</ele>
        <time>2020-08-12T15:48:34Z</time>
      </trkpt>
      <trkpt lat="47.799842" lon="-1.68942">
        <ele>60.6</ele>
        <time>2020-08-12T15:48:37Z</time>
      </trkpt>
      <trkpt lat="47.799208" lon="-1.689431">
        <ele>60.6</ele>
        <time>2020-08-12T15:48:40Z</time>
      </trkpt>
      <trkpt lat="47.798367" lon="-1.689552">
        <ele>63.6</ele>
        <time>2020-08-12T15:48:44Z</time>
      </trkpt>
      <trkpt lat="47.797769" lon="-1.68971">
        <ele>68.2</ele>
        <time>2020-08-12T15:48:47Z</time>
      </trkpt>
      <trkpt lat="47.797194" lon="-1.689924">
        <ele>72.0</ele>
        <time>2020-08-12T15:48:49Z</time>
      </trkpt>
      <trkpt lat="47.796045" lon="-1.690494">
        <ele>76.6</ele>
        <time>2020-08-12T15:48:55Z</time>
      </trkpt>
      <trkpt lat="47.795038" lon="-1.691062">
        <ele>84.6</ele>
        <time>2020-08-12T15:49:00Z</time>
      </trkpt>
      <trkpt lat="47.794281" lon="-1.691589">
        <ele>90.8</ele>
        <time>2020-08-12T15:49:04Z</time>
      </trkpt>
      <trkpt lat="47.791292" lon="-1.693874">
        <ele>94.8</ele>
        <time>2020-08-12T15:49:20Z</time>
      </trkpt>
      <trkpt lat="47.790139" lon="-1.694703">
        <ele>94.0</ele>
        <time>2020-08-12T15:49:26Z</time>
      </trkpt>
      <trkpt lat="47.789383" lon="-1.695181">
        <ele>92.4</ele>
        <time>2020-08-12T15:49:30Z</time>
      </trkpt>
      <trkpt lat="47.78324" lon="-1.698778">
        <ele>61.4</ele>
        <time>2020-08-12T15:50:01Z</time>
      </trkpt>
      <trkpt lat="47.78266" lon="-1.699073">
        <ele>61.4</ele>
        <time>2020-08-12T15:50:04Z</time>
      </trkpt>
      <trkpt lat="47.782391" lon="-1.699187">
        <ele>60.8</ele>
        <time>2020-08-12T15:50:05Z</time>
      </trkpt>
      <trkpt lat="47.781879" lon="-1.699349">
        <ele>60.8</ele>
        <time>2020-08-12T15:50:08Z</time>
      </trkpt>
      <trkpt lat="47.781309" lon="-1.699458">
        <ele>58.2</ele>
        <time>2020-08-12T15:50:11Z</time>
      </trkpt>
      <trkpt lat="47.779086" lon="-1.699676">
        <ele>50.6</ele>
        <time>2020-08-12T15:50:21Z</time>
      </trkpt>
      <trkpt lat="47.77875" lon="-1.699726">
        <ele>50.6</ele>
        <time>2020-08-12T15:50:23Z</time>
      </trkpt>
      <trkpt lat="47.778311" lon="-1.699823">
        <ele>50.0</ele>
        <time>2020-08-12T15:50:25Z</time>
      </trkpt>
      <trkpt lat="47.777844" lon="-1.699975">
        <ele>50.0</ele>
        <time>2020-08-12T15:50:27Z</time>
      </trkpt>
      <trkpt lat="47.777443" lon="-1.700152">
        <ele>49.4</ele>
        <time>2020-08-12T15:50:29Z</time>
      </trkpt>
      <trkpt lat="47.776857" lon="-1.700491">
        <ele>49.4</ele>
        <time>2020-08-12T15:50:32Z</time>
      </trkpt>
      <trkpt lat="47.776436" lon="-1.700801">
        <ele>49.6</ele>
        <time>2020-08-12T15:50:34Z</time>
      </trkpt>
      <trkpt lat="47.775936" lon="-1.701248">
        <ele>47.6</ele>
        <time>2020-08-12T15:50:37Z</time>
      </trkpt>
      <trkpt lat="47.775496" lon="-1.70173">
        <ele>46.8</ele>
        <time>2020-08-12T15:50:40Z</time>
      </trkpt>
      <trkpt lat="47.775127" lon="-1.702207">
        <ele>46.8</ele>
        <time>2020-08-12T15:50:42Z</time>
      </trkpt>
      <trkpt lat="47.774837" lon="-1.702638">
        <ele>46.2</ele>
        <time>2020-08-12T15:50:44Z</time>
      </trkpt>
      <trkpt lat="47.774422" lon="-1.703368">
        <ele>45.0</ele>
        <time>2020-08-12T15:50:47Z</time>
      </trkpt>
      <trkpt lat="47.77361" lon="-1.705074">
        <ele>44.4</ele>
        <time>2020-08-12T15:50:53Z</time>
      </trkpt>
      <trkpt lat="47.773186" lon="-1.705883">
        <ele>45.2</ele>
        <time>2020-08-12T15:50:57Z</time>
      </trkpt>
      <trkpt lat="47.772729" lon="-1.706624">
        <ele>45.2</ele>
        <time>2020-08-12T15:51:00Z</time>
      </trkpt>
      <trkpt lat="47.77212" lon="-1.707442">
        <ele>47.0</ele>
        <time>2020-08-12T15:51:04Z</time>
      </trkpt>
      <trkpt lat="47.771543" lon="-1.708078">
        <ele>47.6</ele>
        <time>2020-08-12T15:51:07Z</time>
      </trkpt>
      <trkpt lat="47.771188" lon="-1.708421">
        <ele>48.2</ele>
        <time>2020-08-12T15:51:09Z</time>
      </trkpt>
      <trkpt lat="47.770896" lon="-1.708667">
        <ele>48.2</ele>
        <time>2020-08-12T15:51:11Z</time>
      </trkpt>
      <trkpt lat="47.77026" lon="-1.709136">
        <ele>47.0</ele>
        <time>2020-08-12T15:51:14Z</time>
      </trkpt>
      <trkpt lat="47.769725" lon="-1.709452">
        <ele>45.6</ele>
        <time>2020-08-12T15:51:17Z</time>
      </trkpt>
      <trkpt lat="47.769399" lon="-1.709617">
        <ele>45.6</ele>
        <time>2020-08-12T15:51:18Z</time>
      </trkpt>
      <trkpt lat="47.76883" lon="-1.709846">
        <ele>44.6</ele>
        <time>2020-08-12T15:51:21Z</time>
      </trkpt>
      <trkpt lat="47.768141" lon="-1.710041">
        <ele>42.4</ele>
        <time>2020-08-12T15:51:25Z</time>
      </trkpt>
      <trkpt lat="47.767586" lon="-1.710136">
        <ele>42.4</ele>
        <time>2020-08-12T15:51:27Z</time>
      </trkpt>
      <trkpt lat="47.766286" lon="-1.710278">
        <ele>37.8</ele>
        <time>2020-08-12T15:51:33Z</time>
      </trkpt>
      <trkpt lat="47.765592" lon="-1.710375">
        <ele>37.0</ele>
        <time>2020-08-12T15:51:37Z</time>
      </trkpt>
      <trkpt lat="47.76489" lon="-1.710521">
        <ele>37.6</ele>
        <time>2020-08-12T15:51:40Z</time>
      </trkpt>
      <trkpt lat="47.764094" lon="-1.710771">
        <ele>38.8</ele>
        <time>2020-08-12T15:51:44Z</time>
      </trkpt>
      <trkpt lat="47.763185" lon="-1.711144">
        <ele>40.2</ele>
        <time>2020-08-12T15:51:48Z</time>
      </trkpt>
      <trkpt lat="47.756171" lon="-1.714296">
        <ele>51.4</ele>
        <time>2020-08-12T15:52:23Z</time>
      </trkpt>
      <trkpt lat="47.755717" lon="-1.714478">
        <ele>54.6</ele>
        <time>2020-08-12T15:52:25Z</time>
      </trkpt>
      <trkpt lat="47.754922" lon="-1.714736">
        <ele>57.4</ele>
        <time>2020-08-12T15:52:29Z</time>
      </trkpt>
      <trkpt lat="47.754117" lon="-1.714928">
        <ele>60.4</ele>
        <time>2020-08-12T15:52:33Z</time>
      </trkpt>
      <trkpt lat="47.753425" lon="-1.715031">
        <ele>62.0</ele>
        <time>2020-08-12T15:52:36Z</time>
      </trkpt>
      <trkpt lat="47.752265" lon="-1.715143">
        <ele>67.2</ele>
        <time>2020-08-12T15:52:42Z</time>
      </trkpt>
      <trkpt lat="47.748777" lon="-1.715423">
        <ele>66.0</ele>
        <time>2020-08-12T15:52:58Z</time>
      </trkpt>
      <trkpt lat="47.747935" lon="-1.715442">
        <ele>64.2</ele>
        <time>2020-08-12T15:53:02Z</time>
      </trkpt>
      <trkpt lat="47.746937" lon="-1.715377">
        <ele>60.4</ele>
        <time>2020-08-12T15:53:07Z</time>
      </trkpt>
      <trkpt lat="47.746477" lon="-1.715311">
        <ele>58.8</ele>
        <time>2020-08-12T15:53:09Z</time>
      </trkpt>
      <trkpt lat="47.745931" lon="-1.715204">
        <ele>58.8</ele>
        <time>2020-08-12T15:53:12Z</time>
      </trkpt>
      <trkpt lat="47.738583" lon="-1.713462">
        <ele>67.2</ele>
        <time>2020-08-12T15:53:47Z</time>
      </trkpt>
      <trkpt lat="47.737528" lon="-1.713244">
        <ele>68.8</ele>
        <time>2020-08-12T15:53:52Z</time>
      </trkpt>
      <trkpt lat="47.736402" lon="-1.713083">
        <ele>71.6</ele>
        <time>2020-08-12T15:53:57Z</time>
      </trkpt>
      <trkpt lat="47.734898" lon="-1.712922">
        <ele>70.2</ele>
        <time>2020-08-12T15:54:04Z</time>
      </trkpt>
      <trkpt lat="47.729828" lon="-1.712479">
        <ele>69.2</ele>
        <time>2020-08-12T15:54:28Z</time>
      </trkpt>
      <trkpt lat="47.728216" lon="-1.7123">
        <ele>70.2</ele>
        <time>2020-08-12T15:54:36Z</time>
      </trkpt>
      <trkpt lat="47.727523" lon="-1.712169">
        <ele>70.2</ele>
        <time>2020-08-12T15:54:39Z</time>
      </trkpt>
      <trkpt lat="47.726591" lon="-1.711937">
        <ele>68.2</ele>
        <time>2020-08-12T15:54:43Z</time>
      </trkpt>
      <trkpt lat="47.720905" lon="-1.710258">
        <ele>55.2</ele>
        <time>2020-08-12T15:55:11Z</time>
      </trkpt>
      <trkpt lat="47.719552" lon="-1.709752">
        <ele>45.6</ele>
        <time>2020-08-12T15:55:17Z</time>
      </trkpt>
      <trkpt lat="47.708197" lon="-1.70477">
        <ele>23.6</ele>
        <time>2020-08-12T15:56:13Z</time>
      </trkpt>
      <trkpt lat="47.707493" lon="-1.704493">
        <ele>23.2</ele>
        <time>2020-08-12T15:56:17Z</time>
      </trkpt>
      <trkpt lat="47.706802" lon="-1.704276">
        <ele>23.2</ele>
        <time>2020-08-12T15:56:20Z</time>
      </trkpt>
      <trkpt lat="47.706344" lon="-1.704166">
        <ele>20.0</ele>
        <time>2020-08-12T15:56:22Z</time>
      </trkpt>
      <trkpt lat="47.705626" lon="-1.704053">
        <ele>18.4</ele>
        <time>2020-08-12T15:56:26Z</time>
      </trkpt>
      <trkpt lat="47.705032" lon="-1.703996">
        <ele>18.4</ele>
        <time>2020-08-12T15:56:29Z</time>
      </trkpt>
      <trkpt lat="47.698275" lon="-1.703551">
        <ele>11.2</ele>
        <time>2020-08-12T15:57:00Z</time>
      </trkpt>
      <trkpt lat="47.696035" lon="-1.703315">
        <ele>15.0</ele>
        <time>2020-08-12T15:57:11Z</time>
      </trkpt>
      <trkpt lat="47.695168" lon="-1.703167">
        <ele>16.2</ele>
        <time>2020-08-12T15:57:15Z</time>
      </trkpt>
      <trkpt lat="47.694279" lon="-1.702973">
        <ele>18.0</ele>
        <time>2020-08-12T15:57:19Z</time>
      </trkpt>
      <trkpt lat="47.693413" lon="-1.702744">
        <ele>20.6</ele>
        <time>2020-08-12T15:57:24Z</time>
      </trkpt>
      <trkpt lat="47.692183" lon="-1.702344">
        <ele>26.6</ele>
        <time>2020-08-12T15:57:30Z</time>
      </trkpt>
      <trkpt lat="47.691535" lon="-1.702102">
        <ele>28.0</ele>
        <time>2020-08-12T15:57:33Z</time>
      </trkpt>
      <trkpt lat="47.690392" lon="-1.701617">
        <ele>29.0</ele>
        <time>2020-08-12T15:57:38Z</time>
      </trkpt>
      <trkpt lat="47.689292" lon="-1.701072">
        <ele>30.6</ele>
        <time>2020-08-12T15:57:44Z</time>
      </trkpt>
      <trkpt lat="47.688212" lon="-1.70046">
        <ele>30.2</ele>
        <time>2020-08-12T15:57:49Z</time>
      </trkpt>
      <trkpt lat="47.687264" lon="-1.699853">
        <ele>26.4</ele>
        <time>2020-08-12T15:57:54Z</time>
      </trkpt>
      <trkpt lat="47.686426" lon="-1.699274">
        <ele>23.0</ele>
        <time>2020-08-12T15:57:59Z</time>
      </trkpt>
      <trkpt lat="47.673698" lon="-1.689771">
        <ele>42.8</ele>
        <time>2020-08-12T15:59:06Z</time>
      </trkpt>
      <trkpt lat="47.667147" lon="-1.684857">
        <ele>46.4</ele>
        <time>2020-08-12T15:59:40Z</time>
      </trkpt>
      <trkpt lat="47.66561" lon="-1.683642">
        <ele>38.2</ele>
        <time>2020-08-12T15:59:49Z</time>
      </trkpt>
      <trkpt lat="47.66451" lon="-1.682715">
        <ele>35.0</ele>
        <time>2020-08-12T15:59:55Z</time>
      </trkpt>
      <trkpt lat="47.663716" lon="-1.682014">
        <ele>33.2</ele>
        <time>2020-08-12T15:59:59Z</time>
      </trkpt>
      <trkpt lat="47.662452" lon="-1.680831">
        <ele>31.0</ele>
        <time>2020-08-12T16:00:06Z</time>
      </trkpt>
      <trkpt lat="47.660907" lon="-1.679258">
        <ele>31.6</ele>
        <time>2020-08-12T16:00:15Z</time>
      </trkpt>
      <trkpt lat="47.660178" lon="-1.678469">
        <ele>33.2</ele>
        <time>2020-08-12T16:00:19Z</time>
      </trkpt>
      <trkpt lat="47.659173" lon="-1.677317">
        <ele>33.2</ele>
        <time>2020-08-12T16:00:25Z</time>
      </trkpt>
      <trkpt lat="47.65812" lon="-1.67604">
        <ele>34.6</ele>
        <time>2020-08-12T16:00:32Z</time>
      </trkpt>
      <trkpt lat="47.657016" lon="-1.674612">
        <ele>34.4</ele>
        <time>2020-08-12T16:00:38Z</time>
      </trkpt>
      <trkpt lat="47.656271" lon="-1.673593">
        <ele>34.6</ele>
        <time>2020-08-12T16:00:43Z</time>
      </trkpt>
      <trkpt lat="47.655464" lon="-1.672436">
        <ele>34.0</ele>
        <time>2020-08-12T16:00:49Z</time>
      </trkpt>
      <trkpt lat="47.654749" lon="-1.671357">
        <ele>33.4</ele>
        <time>2020-08-12T16:00:53Z</time>
      </trkpt>
      <trkpt lat="47.65322" lon="-1.668928">
        <ele>36.4</ele>
        <time>2020-08-12T16:01:04Z</time>
      </trkpt>
      <trkpt lat="47.649461" lon="-1.662591">
        <ele>37.4</ele>
        <time>2020-08-12T16:01:31Z</time>
      </trkpt>
      <trkpt lat="47.648762" lon="-1.661486">
        <ele>39.0</ele>
        <time>2020-08-12T16:01:36Z</time>
      </trkpt>
      <trkpt lat="47.64836" lon="-1.66091">
        <ele>39.0</ele>
        <time>2020-08-12T16:01:38Z</time>
      </trkpt>
      <trkpt lat="47.647857" lon="-1.66025">
        <ele>38.6</ele>
        <time>2020-08-12T16:01:41Z</time>
      </trkpt>
      <trkpt lat="47.64733" lon="-1.659627">
        <ele>38.6</ele>
        <time>2020-08-12T16:01:45Z</time>
      </trkpt>
      <trkpt lat="47.646752" lon="-1.659009">
        <ele>38.8</ele>
        <time>2020-08-12T16:01:48Z</time>
      </trkpt>
      <trkpt lat="47.646017" lon="-1.658315">
        <ele>39.6</ele>
        <time>2020-08-12T16:01:52Z</time>
      </trkpt>
      <trkpt lat="47.645424" lon="-1.65782">
        <ele>39.6</ele>
        <time>2020-08-12T16:01:55Z</time>
      </trkpt>
      <trkpt lat="47.644917" lon="-1.657439">
        <ele>40.2</ele>
        <time>2020-08-12T16:01:58Z</time>
      </trkpt>
      <trkpt lat="47.643941" lon="-1.656755">
        <ele>42.0</ele>
        <time>2020-08-12T16:02:03Z</time>
      </trkpt>
      <trkpt lat="47.636815" lon="-1.651925">
        <ele>56.0</ele>
        <time>2020-08-12T16:02:40Z</time>
      </trkpt>
      <trkpt lat="47.635544" lon="-1.651031">
        <ele>57.2</ele>
        <time>2020-08-12T16:02:47Z</time>
      </trkpt>
      <trkpt lat="47.633636" lon="-1.649619">
        <ele>53.2</ele>
        <time>2020-08-12T16:02:57Z</time>
      </trkpt>
      <trkpt lat="47.608375" lon="-1.629879">
        <ele>21.0</ele>
        <time>2020-08-12T16:05:12Z</time>
      </trkpt>
      <trkpt lat="47.607746" lon="-1.629416">
        <ele>20.4</ele>
        <time>2020-08-12T16:05:15Z</time>
      </trkpt>
      <trkpt lat="47.607129" lon="-1.629026">
        <ele>19.0</ele>
        <time>2020-08-12T16:05:18Z</time>
      </trkpt>
      <trkpt lat="47.606246" lon="-1.628582">
        <ele>18.0</ele>
        <time>2020-08-12T16:05:22Z</time>
      </trkpt>
      <trkpt lat="47.605781" lon="-1.628399">
        <ele>16.4</ele>
        <time>2020-08-12T16:05:25Z</time>
      </trkpt>
      <trkpt lat="47.60533" lon="-1.628253">
        <ele>16.2</ele>
        <time>2020-08-12T16:05:27Z</time>
      </trkpt>
      <trkpt lat="47.60468" lon="-1.628092">
        <ele>14.6</ele>
        <time>2020-08-12T16:05:30Z</time>
      </trkpt>
      <trkpt lat="47.604199" lon="-1.628015">
        <ele>14.6</ele>
        <time>2020-08-12T16:05:32Z</time>
      </trkpt>
      <trkpt lat="47.603156" lon="-1.627934">
        <ele>14.2</ele>
        <time>2020-08-12T16:05:37Z</time>
      </trkpt>
      <trkpt lat="47.588017" lon="-1.627304">
        <ele>40.2</ele>
        <time>2020-08-12T16:06:49Z</time>
      </trkpt>
      <trkpt lat="47.586668" lon="-1.627286">
        <ele>44.8</ele>
        <time>2020-08-12T16:06:55Z</time>
      </trkpt>
      <trkpt lat="47.585395" lon="-1.627342">
        <ele>55.4</ele>
        <time>2020-08-12T16:07:01Z</time>
      </trkpt>
      <trkpt lat="47.584587" lon="-1.627427">
        <ele>59.6</ele>
        <time>2020-08-12T16:07:05Z</time>
      </trkpt>
      <trkpt lat="47.584124" lon="-1.627502">
        <ele>64.2</ele>
        <time>2020-08-12T16:07:07Z</time>
      </trkpt>
      <trkpt lat="47.583316" lon="-1.62768">
        <ele>68.4</ele>
        <time>2020-08-12T16:07:11Z</time>
      </trkpt>
      <trkpt lat="47.582506" lon="-1.627908">
        <ele>68.4</ele>
        <time>2020-08-12T16:07:15Z</time>
      </trkpt>
      <trkpt lat="47.581948" lon="-1.628098">
        <ele>68.2</ele>
        <time>2020-08-12T16:07:18Z</time>
      </trkpt>
      <trkpt lat="47.580818" lon="-1.628537">
        <ele>63.2</ele>
        <time>2020-08-12T16:07:23Z</time>
      </trkpt>
      <trkpt lat="47.568251" lon="-1.633787">
        <ele>65.2</ele>
        <time>2020-08-12T16:08:25Z</time>
      </trkpt>
      <trkpt lat="47.567223" lon="-1.634194">
        <ele>63.2</ele>
        <time>2020-08-12T16:08:30Z</time>
      </trkpt>
      <trkpt lat="47.566658" lon="-1.634388">
        <ele>61.4</ele>
        <time>2020-08-12T16:08:33Z</time>
      </trkpt>
      <trkpt lat="47.566079" lon="-1.634557">
        <ele>61.4</ele>
        <time>2020-08-12T16:08:35Z</time>
      </trkpt>
      <trkpt lat="47.565379" lon="-1.634728">
        <ele>64.4</ele>
        <time>2020-08-12T16:08:39Z</time>
      </trkpt>
      <trkpt lat="47.564673" lon="-1.634868">
        <ele>69.6</ele>
        <time>2020-08-12T16:08:42Z</time>
      </trkpt>
      <trkpt lat="47.563972" lon="-1.634949">
        <ele>73.6</ele>
        <time>2020-08-12T16:08:45Z</time>
      </trkpt>
      <trkpt lat="47.562914" lon="-1.635004">
        <ele>76.4</ele>
        <time>2020-08-12T16:08:50Z</time>
      </trkpt>
      <trkpt lat="47.562331" lon="-1.634998">
        <ele>72.4</ele>
        <time>2020-08-12T16:08:53Z</time>
      </trkpt>
      <trkpt lat="47.561593" lon="-1.634945">
        <ele>76.4</ele>
        <time>2020-08-12T16:08:57Z</time>
      </trkpt>
      <trkpt lat="47.56067" lon="-1.63482">
        <ele>79.8</ele>
        <time>2020-08-12T16:09:01Z</time>
      </trkpt>
      <trkpt lat="47.560211" lon="-1.634732">
        <ele>79.8</ele>
        <time>2020-08-12T16:09:03Z</time>
      </trkpt>
      <trkpt lat="47.559508" lon="-1.634556">
        <ele>79.0</ele>
        <time>2020-08-12T16:09:07Z</time>
      </trkpt>
      <trkpt lat="47.558697" lon="-1.634305">
        <ele>73.6</ele>
        <time>2020-08-12T16:09:10Z</time>
      </trkpt>
      <trkpt lat="47.557794" lon="-1.633972">
        <ele>71.0</ele>
        <time>2020-08-12T16:09:15Z</time>
      </trkpt>
      <trkpt lat="47.555476" lon="-1.633053">
        <ele>75.6</ele>
        <time>2020-08-12T16:09:26Z</time>
      </trkpt>
      <trkpt lat="47.554588" lon="-1.632771">
        <ele>76.0</ele>
        <time>2020-08-12T16:09:31Z</time>
      </trkpt>
      <trkpt lat="47.553639" lon="-1.632572">
        <ele>76.2</ele>
        <time>2020-08-12T16:09:35Z</time>
      </trkpt>
      <trkpt lat="47.552948" lon="-1.632494">
        <ele>76.6</ele>
        <time>2020-08-12T16:09:38Z</time>
      </trkpt>
      <trkpt lat="47.552246" lon="-1.63246">
        <ele>76.0</ele>
        <time>2020-08-12T16:09:42Z</time>
      </trkpt>
      <trkpt lat="47.551432" lon="-1.632494">
        <ele>74.4</ele>
        <time>2020-08-12T16:09:45Z</time>
      </trkpt>
      <trkpt lat="47.550642" lon="-1.632596">
        <ele>72.2</ele>
        <time>2020-08-12T16:09:49Z</time>
      </trkpt>
      <trkpt lat="47.549818" lon="-1.632779">
        <ele>72.6</ele>
        <time>2020-08-12T16:09:53Z</time>
      </trkpt>
      <trkpt lat="47.549473" lon="-1.632878">
        <ele>72.6</ele>
        <time>2020-08-12T16:09:55Z</time>
      </trkpt>
      <trkpt lat="47.548871" lon="-1.633087">
        <ele>72.8</ele>
        <time>2020-08-12T16:09:58Z</time>
      </trkpt>
      <trkpt lat="47.548192" lon="-1.633369">
        <ele>74.8</ele>
        <time>2020-08-12T16:10:01Z</time>
      </trkpt>
      <trkpt lat="47.547434" lon="-1.63375">
        <ele>75.6</ele>
        <time>2020-08-12T16:10:05Z</time>
      </trkpt>
      <trkpt lat="47.545668" lon="-1.634732">
        <ele>78.8</ele>
        <time>2020-08-12T16:10:14Z</time>
      </trkpt>
      <trkpt lat="47.545139" lon="-1.634966">
        <ele>78.8</ele>
        <time>2020-08-12T16:10:16Z</time>
      </trkpt>
      <trkpt lat="47.544615" lon="-1.635161">
        <ele>79.2</ele>
        <time>2020-08-12T16:10:19Z</time>
      </trkpt>
      <trkpt lat="47.544375" lon="-1.635229">
        <ele>79.2</ele>
        <time>2020-08-12T16:10:20Z</time>
      </trkpt>
      <trkpt lat="47.543625" lon="-1.635405">
        <ele>78.4</ele>
        <time>2020-08-12T16:10:24Z</time>
      </trkpt>
      <trkpt lat="47.531922" lon="-1.63773">
        <ele>73.8</ele>
        <time>2020-08-12T16:11:19Z</time>
      </trkpt>
      <trkpt lat="47.529795" lon="-1.638262">
        <ele>70.6</ele>
        <time>2020-08-12T16:11:30Z</time>
      </trkpt>
      <trkpt lat="47.527231" lon="-1.638966">
        <ele>73.6</ele>
        <time>2020-08-12T16:11:42Z</time>
      </trkpt>
      <trkpt lat="47.525441" lon="-1.639576">
        <ele>71.0</ele>
        <time>2020-08-12T16:11:51Z</time>
      </trkpt>
      <trkpt lat="47.52446" lon="-1.639863">
        <ele>70.0</ele>
        <time>2020-08-12T16:11:55Z</time>
      </trkpt>
      <trkpt lat="47.523224" lon="-1.640143">
        <ele>66.8</ele>
        <time>2020-08-12T16:12:01Z</time>
      </trkpt>
      <trkpt lat="47.521885" lon="-1.640417">
        <ele>66.2</ele>
        <time>2020-08-12T16:12:08Z</time>
      </trkpt>
      <trkpt lat="47.521056" lon="-1.640533">
        <ele>67.0</ele>
        <time>2020-08-12T16:12:11Z</time>
      </trkpt>
      <trkpt lat="47.520443" lon="-1.640578">
        <ele>67.6</ele>
        <time>2020-08-12T16:12:14Z</time>
      </trkpt>
      <trkpt lat="47.520021" lon="-1.640589">
        <ele>67.6</ele>
        <time>2020-08-12T16:12:16Z</time>
      </trkpt>
      <trkpt lat="47.51889" lon="-1.64054">
        <ele>64.8</ele>
        <time>2020-08-12T16:12:22Z</time>
      </trkpt>
      <trkpt lat="47.513052" lon="-1.639876">
        <ele>49.4</ele>
        <time>2020-08-12T16:12:49Z</time>
      </trkpt>
      <trkpt lat="47.508622" lon="-1.639413">
        <ele>39.6</ele>
        <time>2020-08-12T16:13:10Z</time>
      </trkpt>
      <trkpt lat="47.504753" lon="-1.639098">
        <ele>34.6</ele>
        <time>2020-08-12T16:13:29Z</time>
      </trkpt>
      <trkpt lat="47.476797" lon="-1.636557">
        <ele>26.6</ele>
        <time>2020-08-12T16:15:41Z</time>
      </trkpt>
      <trkpt lat="47.475903" lon="-1.636542">
        <ele>27.0</ele>
        <time>2020-08-12T16:15:45Z</time>
      </trkpt>
      <trkpt lat="47.474997" lon="-1.63662">
        <ele>26.4</ele>
        <time>2020-08-12T16:15:49Z</time>
      </trkpt>
      <trkpt lat="47.474326" lon="-1.636733">
        <ele>27.2</ele>
        <time>2020-08-12T16:15:53Z</time>
      </trkpt>
      <trkpt lat="47.473876" lon="-1.636836">
        <ele>26.8</ele>
        <time>2020-08-12T16:15:55Z</time>
      </trkpt>
      <trkpt lat="47.472108" lon="-1.637382">
        <ele>26.0</ele>
        <time>2020-08-12T16:16:03Z</time>
      </trkpt>
      <trkpt lat="47.471334" lon="-1.637598">
        <ele>24.8</ele>
        <time>2020-08-12T16:16:07Z</time>
      </trkpt>
      <trkpt lat="47.470666" lon="-1.637748">
        <ele>25.2</ele>
        <time>2020-08-12T16:16:10Z</time>
      </trkpt>
      <trkpt lat="47.469874" lon="-1.637883">
        <ele>25.2</ele>
        <time>2020-08-12T16:16:14Z</time>
      </trkpt>
      <trkpt lat="47.467184" lon="-1.638266">
        <ele>25.6</ele>
        <time>2020-08-12T16:16:27Z</time>
      </trkpt>
      <trkpt lat="47.466165" lon="-1.638388">
        <ele>25.6</ele>
        <time>2020-08-12T16:16:32Z</time>
      </trkpt>
      <trkpt lat="47.465593" lon="-1.638427">
        <ele>25.8</ele>
        <time>2020-08-12T16:16:34Z</time>
      </trkpt>
      <trkpt lat="47.463218" lon="-1.638484">
        <ele>23.2</ele>
        <time>2020-08-12T16:16:45Z</time>
      </trkpt>
      <trkpt lat="47.462532" lon="-1.638542">
        <ele>23.2</ele>
        <time>2020-08-12T16:16:49Z</time>
      </trkpt>
      <trkpt lat="47.461826" lon="-1.638658">
        <ele>22.4</ele>
        <time>2020-08-12T16:16:52Z</time>
      </trkpt>
      <trkpt lat="47.460682" lon="-1.638957">
        <ele>21.2</ele>
        <time>2020-08-12T16:16:58Z</time>
      </trkpt>
      <trkpt lat="47.456448" lon="-1.64031">
        <ele>19.2</ele>
        <time>2020-08-12T16:17:18Z</time>
      </trkpt>
      <trkpt lat="47.455085" lon="-1.640706">
        <ele>19.0</ele>
        <time>2020-08-12T16:17:25Z</time>
      </trkpt>
      <trkpt lat="47.453575" lon="-1.641063">
        <ele>18.2</ele>
        <time>2020-08-12T16:17:32Z</time>
      </trkpt>
      <trkpt lat="47.452241" lon="-1.641288">
        <ele>19.0</ele>
        <time>2020-08-12T16:17:38Z</time>
      </trkpt>
      <trkpt lat="47.45099" lon="-1.641428">
        <ele>19.8</ele>
        <time>2020-08-12T16:17:44Z</time>
      </trkpt>
      <trkpt lat="47.450199" lon="-1.641472">
        <ele>21.6</ele>
        <time>2020-08-12T16:17:48Z</time>
      </trkpt>
      <trkpt lat="47.448878" lon="-1.641484">
        <ele>26.2</ele>
        <time>2020-08-12T16:17:54Z</time>
      </trkpt>
      <trkpt lat="47.4476" lon="-1.641425">
        <ele>26.8</ele>
        <time>2020-08-12T16:18:00Z</time>
      </trkpt>
      <trkpt lat="47.446071" lon="-1.641247">
        <ele>24.0</ele>
        <time>2020-08-12T16:18:07Z</time>
      </trkpt>
      <trkpt lat="47.444567" lon="-1.641009">
        <ele>21.0</ele>
        <time>2020-08-12T16:18:14Z</time>
      </trkpt>
      <trkpt lat="47.43757" lon="-1.639775">
        <ele>22.4</ele>
        <time>2020-08-12T16:18:48Z</time>
      </trkpt>
      <trkpt lat="47.436053" lon="-1.639476">
        <ele>21.2</ele>
        <time>2020-08-12T16:18:55Z</time>
      </trkpt>
      <trkpt lat="47.434892" lon="-1.639174">
        <ele>20.6</ele>
        <time>2020-08-12T16:19:00Z</time>
      </trkpt>
      <trkpt lat="47.430726" lon="-1.637929">
        <ele>21.4</ele>
        <time>2020-08-12T16:19:21Z</time>
      </trkpt>
      <trkpt lat="47.430126" lon="-1.637779">
        <ele>21.4</ele>
        <time>2020-08-12T16:19:23Z</time>
      </trkpt>
      <trkpt lat="47.429407" lon="-1.637665">
        <ele>22.2</ele>
        <time>2020-08-12T16:19:27Z</time>
      </trkpt>
      <trkpt lat="47.428827" lon="-1.637641">
        <ele>22.6</ele>
        <time>2020-08-12T16:19:30Z</time>
      </trkpt>
      <trkpt lat="47.428113" lon="-1.63768">
        <ele>23.2</ele>
        <time>2020-08-12T16:19:33Z</time>
      </trkpt>
      <trkpt lat="47.42481" lon="-1.638135">
        <ele>24.2</ele>
        <time>2020-08-12T16:19:49Z</time>
      </trkpt>
      <trkpt lat="47.424332" lon="-1.638221">
        <ele>24.2</ele>
        <time>2020-08-12T16:19:51Z</time>
      </trkpt>
      <trkpt lat="47.423661" lon="-1.6384">
        <ele>24.4</ele>
        <time>2020-08-12T16:19:54Z</time>
      </trkpt>
      <trkpt lat="47.4232" lon="-1.638575">
        <ele>25.2</ele>
        <time>2020-08-12T16:19:56Z</time>
      </trkpt>
      <trkpt lat="47.422427" lon="-1.638946">
        <ele>26.0</ele>
        <time>2020-08-12T16:20:00Z</time>
      </trkpt>
      <trkpt lat="47.421656" lon="-1.639433">
        <ele>26.0</ele>
        <time>2020-08-12T16:20:04Z</time>
      </trkpt>
      <trkpt lat="47.420345" lon="-1.640425">
        <ele>24.4</ele>
        <time>2020-08-12T16:20:11Z</time>
      </trkpt>
      <trkpt lat="47.419793" lon="-1.640822">
        <ele>23.6</ele>
        <time>2020-08-12T16:20:14Z</time>
      </trkpt>
      <trkpt lat="47.419359" lon="-1.6411">
        <ele>23.8</ele>
        <time>2020-08-12T16:20:16Z</time>
      </trkpt>
      <trkpt lat="47.418649" lon="-1.641466">
        <ele>24.2</ele>
        <time>2020-08-12T16:20:20Z</time>
      </trkpt>
      <trkpt lat="47.418127" lon="-1.641678">
        <ele>24.6</ele>
        <time>2020-08-12T16:20:22Z</time>
      </trkpt>
      <trkpt lat="47.417666" lon="-1.641823">
        <ele>24.6</ele>
        <time>2020-08-12T16:20:25Z</time>
      </trkpt>
      <trkpt lat="47.417221" lon="-1.641927">
        <ele>26.0</ele>
        <time>2020-08-12T16:20:27Z</time>
      </trkpt>
      <trkpt lat="47.41651" lon="-1.642031">
        <ele>26.2</ele>
        <time>2020-08-12T16:20:30Z</time>
      </trkpt>
      <trkpt lat="47.416011" lon="-1.642063">
        <ele>26.2</ele>
        <time>2020-08-12T16:20:32Z</time>
      </trkpt>
      <trkpt lat="47.415557" lon="-1.642038">
        <ele>25.4</ele>
        <time>2020-08-12T16:20:35Z</time>
      </trkpt>
      <trkpt lat="47.414958" lon="-1.641954">
        <ele>26.2</ele>
        <time>2020-08-12T16:20:37Z</time>
      </trkpt>
      <trkpt lat="47.413556" lon="-1.64163">
        <ele>27.2</ele>
        <time>2020-08-12T16:20:44Z</time>
      </trkpt>
      <trkpt lat="47.412818" lon="-1.641502">
        <ele>28.6</ele>
        <time>2020-08-12T16:20:48Z</time>
      </trkpt>
      <trkpt lat="47.412151" lon="-1.641475">
        <ele>29.4</ele>
        <time>2020-08-12T16:20:51Z</time>
      </trkpt>
      <trkpt lat="47.411676" lon="-1.641491">
        <ele>29.4</ele>
        <time>2020-08-12T16:20:53Z</time>
      </trkpt>
      <trkpt lat="47.410975" lon="-1.641592">
        <ele>30.4</ele>
        <time>2020-08-12T16:20:56Z</time>
      </trkpt>
      <trkpt lat="47.410499" lon="-1.641705">
        <ele>30.6</ele>
        <time>2020-08-12T16:20:59Z</time>
      </trkpt>
      <trkpt lat="47.409925" lon="-1.641881">
        <ele>29.0</ele>
        <time>2020-08-12T16:21:01Z</time>
      </trkpt>
      <trkpt lat="47.403339" lon="-1.644094">
        <ele>33.0</ele>
        <time>2020-08-12T16:21:33Z</time>
      </trkpt>
      <trkpt lat="47.402417" lon="-1.644374">
        <ele>38.0</ele>
        <time>2020-08-12T16:21:38Z</time>
      </trkpt>
      <trkpt lat="47.401609" lon="-1.644577">
        <ele>40.0</ele>
        <time>2020-08-12T16:21:42Z</time>
      </trkpt>
      <trkpt lat="47.401102" lon="-1.64468">
        <ele>40.0</ele>
        <time>2020-08-12T16:21:44Z</time>
      </trkpt>
      <trkpt lat="47.399722" lon="-1.644839">
        <ele>41.8</ele>
        <time>2020-08-12T16:21:51Z</time>
      </trkpt>
      <trkpt lat="47.398775" lon="-1.644869">
        <ele>41.4</ele>
        <time>2020-08-12T16:21:55Z</time>
      </trkpt>
      <trkpt lat="47.39807" lon="-1.644863">
        <ele>40.0</ele>
        <time>2020-08-12T16:21:58Z</time>
      </trkpt>
      <trkpt lat="47.392287" lon="-1.644723">
        <ele>34.4</ele>
        <time>2020-08-12T16:22:26Z</time>
      </trkpt>
      <trkpt lat="47.391568" lon="-1.644675">
        <ele>34.4</ele>
        <time>2020-08-12T16:22:29Z</time>
      </trkpt>
      <trkpt lat="47.3911" lon="-1.644622">
        <ele>34.4</ele>
        <time>2020-08-12T16:22:31Z</time>
      </trkpt>
      <trkpt lat="47.379201" lon="-1.642734">
        <ele>43.6</ele>
        <time>2020-08-12T16:23:28Z</time>
      </trkpt>
      <trkpt lat="47.378378" lon="-1.642633">
        <ele>44.2</ele>
        <time>2020-08-12T16:23:32Z</time>
      </trkpt>
      <trkpt lat="47.377912" lon="-1.642604">
        <ele>44.8</ele>
        <time>2020-08-12T16:23:34Z</time>
      </trkpt>
      <trkpt lat="47.377109" lon="-1.642632">
        <ele>44.4</ele>
        <time>2020-08-12T16:23:38Z</time>
      </trkpt>
      <trkpt lat="47.376285" lon="-1.642767">
        <ele>44.2</ele>
        <time>2020-08-12T16:23:42Z</time>
      </trkpt>
      <trkpt lat="47.375707" lon="-1.642917">
        <ele>44.6</ele>
        <time>2020-08-12T16:23:44Z</time>
      </trkpt>
      <trkpt lat="47.375114" lon="-1.643119">
        <ele>44.6</ele>
        <time>2020-08-12T16:23:47Z</time>
      </trkpt>
      <trkpt lat="47.374667" lon="-1.643305">
        <ele>46.6</ele>
        <time>2020-08-12T16:23:49Z</time>
      </trkpt>
      <trkpt lat="47.374234" lon="-1.643511">
        <ele>45.0</ele>
        <time>2020-08-12T16:23:52Z</time>
      </trkpt>
      <trkpt lat="47.373789" lon="-1.643752">
        <ele>47.2</ele>
        <time>2020-08-12T16:23:54Z</time>
      </trkpt>
      <trkpt lat="47.373364" lon="-1.644012">
        <ele>47.2</ele>
        <time>2020-08-12T16:23:56Z</time>
      </trkpt>
      <trkpt lat="47.372633" lon="-1.644527">
        <ele>49.4</ele>
        <time>2020-08-12T16:24:00Z</time>
      </trkpt>
      <trkpt lat="47.372217" lon="-1.644865">
        <ele>52.4</ele>
        <time>2020-08-12T16:24:02Z</time>
      </trkpt>
      <trkpt lat="47.371823" lon="-1.645215">
        <ele>52.2</ele>
        <time>2020-08-12T16:24:04Z</time>
      </trkpt>
      <trkpt lat="47.371438" lon="-1.645589">
        <ele>53.6</ele>
        <time>2020-08-12T16:24:06Z</time>
      </trkpt>
      <trkpt lat="47.371062" lon="-1.645987">
        <ele>54.0</ele>
        <time>2020-08-12T16:24:09Z</time>
      </trkpt>
      <trkpt lat="47.370513" lon="-1.646629">
        <ele>54.0</ele>
        <time>2020-08-12T16:24:12Z</time>
      </trkpt>
      <trkpt lat="47.369996" lon="-1.647312">
        <ele>55.0</ele>
        <time>2020-08-12T16:24:15Z</time>
      </trkpt>
      <trkpt lat="47.368186" lon="-1.65002">
        <ele>57.6</ele>
        <time>2020-08-12T16:24:27Z</time>
      </trkpt>
      <trkpt lat="47.367505" lon="-1.650951">
        <ele>58.0</ele>
        <time>2020-08-12T16:24:32Z</time>
      </trkpt>
      <trkpt lat="47.366976" lon="-1.651602">
        <ele>57.4</ele>
        <time>2020-08-12T16:24:35Z</time>
      </trkpt>
      <trkpt lat="47.366505" lon="-1.652131">
        <ele>55.8</ele>
        <time>2020-08-12T16:24:38Z</time>
      </trkpt>
      <trkpt lat="47.365942" lon="-1.652713">
        <ele>54.2</ele>
        <time>2020-08-12T16:24:41Z</time>
      </trkpt>
      <trkpt lat="47.365037" lon="-1.653539">
        <ele>50.4</ele>
        <time>2020-08-12T16:24:46Z</time>
      </trkpt>
      <trkpt lat="47.364223" lon="-1.654178">
        <ele>48.2</ele>
        <time>2020-08-12T16:24:50Z</time>
      </trkpt>
      <trkpt lat="47.363277" lon="-1.65481">
        <ele>49.4</ele>
        <time>2020-08-12T16:24:55Z</time>
      </trkpt>
      <trkpt lat="47.362389" lon="-1.655301">
        <ele>52.8</ele>
        <time>2020-08-12T16:25:00Z</time>
      </trkpt>
      <trkpt lat="47.361621" lon="-1.655655">
        <ele>52.8</ele>
        <time>2020-08-12T16:25:04Z</time>
      </trkpt>
      <trkpt lat="47.360697" lon="-1.655999">
        <ele>53.4</ele>
        <time>2020-08-12T16:25:08Z</time>
      </trkpt>
      <trkpt lat="47.359921" lon="-1.656218">
        <ele>50.4</ele>
        <time>2020-08-12T16:25:12Z</time>
      </trkpt>
      <trkpt lat="47.358975" lon="-1.656403">
        <ele>46.8</ele>
        <time>2020-08-12T16:25:16Z</time>
      </trkpt>
      <trkpt lat="47.358052" lon="-1.6565">
        <ele>45.4</ele>
        <time>2020-08-12T16:25:21Z</time>
      </trkpt>
      <trkpt lat="47.357357" lon="-1.656521">
        <ele>46.0</ele>
        <time>2020-08-12T16:25:24Z</time>
      </trkpt>
      <trkpt lat="47.357004" lon="-1.65651">
        <ele>46.0</ele>
        <time>2020-08-12T16:25:26Z</time>
      </trkpt>
      <trkpt lat="47.355956" lon="-1.656429">
        <ele>47.8</ele>
        <time>2020-08-12T16:25:31Z</time>
      </trkpt>
      <trkpt lat="47.340381" lon="-1.654567">
        <ele>65.2</ele>
        <time>2020-08-12T16:26:44Z</time>
      </trkpt>
      <trkpt lat="47.339178" lon="-1.654384">
        <ele>66.2</ele>
        <time>2020-08-12T16:26:50Z</time>
      </trkpt>
      <trkpt lat="47.337799" lon="-1.654081">
        <ele>65.0</ele>
        <time>2020-08-12T16:26:57Z</time>
      </trkpt>
      <trkpt lat="47.336658" lon="-1.653746">
        <ele>60.8</ele>
        <time>2020-08-12T16:27:02Z</time>
      </trkpt>
      <trkpt lat="47.335637" lon="-1.653386">
        <ele>58.0</ele>
        <time>2020-08-12T16:27:07Z</time>
      </trkpt>
      <trkpt lat="47.335148" lon="-1.653192">
        <ele>57.0</ele>
        <time>2020-08-12T16:27:09Z</time>
      </trkpt>
      <trkpt lat="47.333745" lon="-1.652548">
        <ele>52.8</ele>
        <time>2020-08-12T16:27:16Z</time>
      </trkpt>
      <trkpt lat="47.332534" lon="-1.65189">
        <ele>48.4</ele>
        <time>2020-08-12T16:27:22Z</time>
      </trkpt>
      <trkpt lat="47.331775" lon="-1.651428">
        <ele>43.2</ele>
        <time>2020-08-12T16:27:26Z</time>
      </trkpt>
      <trkpt lat="47.331033" lon="-1.650942">
        <ele>41.2</ele>
        <time>2020-08-12T16:27:30Z</time>
      </trkpt>
      <trkpt lat="47.323159" lon="-1.64555">
        <ele>32.8</ele>
        <time>2020-08-12T16:28:11Z</time>
      </trkpt>
      <trkpt lat="47.322422" lon="-1.645066">
        <ele>39.2</ele>
        <time>2020-08-12T16:28:15Z</time>
      </trkpt>
      <trkpt lat="47.321891" lon="-1.644748">
        <ele>38.6</ele>
        <time>2020-08-12T16:28:18Z</time>
      </trkpt>
      <trkpt lat="47.321228" lon="-1.64441">
        <ele>42.8</ele>
        <time>2020-08-12T16:28:21Z</time>
      </trkpt>
      <trkpt lat="47.320774" lon="-1.644208">
        <ele>46.6</ele>
        <time>2020-08-12T16:28:23Z</time>
      </trkpt>
      <trkpt lat="47.319823" lon="-1.643868">
        <ele>46.2</ele>
        <time>2020-08-12T16:28:28Z</time>
      </trkpt>
      <trkpt lat="47.316314" lon="-1.642937">
        <ele>50.8</ele>
        <time>2020-08-12T16:28:45Z</time>
      </trkpt>
      <trkpt lat="47.315419" lon="-1.642648">
        <ele>54.4</ele>
        <time>2020-08-12T16:28:49Z</time>
      </trkpt>
      <trkpt lat="47.314501" lon="-1.642256">
        <ele>57.2</ele>
        <time>2020-08-12T16:28:54Z</time>
      </trkpt>
      <trkpt lat="47.313628" lon="-1.64179">
        <ele>59.4</ele>
        <time>2020-08-12T16:28:58Z</time>
      </trkpt>
      <trkpt lat="47.313086" lon="-1.641449">
        <ele>63.4</ele>
        <time>2020-08-12T16:29:01Z</time>
      </trkpt>
      <trkpt lat="47.31215" lon="-1.640777">
        <ele>66.0</ele>
        <time>2020-08-12T16:29:06Z</time>
      </trkpt>
      <trkpt lat="47.307113" lon="-1.636923">
        <ele>63.4</ele>
        <time>2020-08-12T16:29:32Z</time>
      </trkpt>
      <trkpt lat="47.306236" lon="-1.636191">
        <ele>61.4</ele>
        <time>2020-08-12T16:29:37Z</time>
      </trkpt>
      <trkpt lat="47.305806" lon="-1.635793">
        <ele>61.6</ele>
        <time>2020-08-12T16:29:40Z</time>
      </trkpt>
      <trkpt lat="47.305386" lon="-1.635367">
        <ele>61.6</ele>
        <time>2020-08-12T16:29:42Z</time>
      </trkpt>
      <trkpt lat="47.304942" lon="-1.634876">
        <ele>64.8</ele>
        <time>2020-08-12T16:29:45Z</time>
      </trkpt>
      <trkpt lat="47.304296" lon="-1.634081">
        <ele>67.2</ele>
        <time>2020-08-12T16:29:49Z</time>
      </trkpt>
      <trkpt lat="47.303672" lon="-1.633216">
        <ele>68.4</ele>
        <time>2020-08-12T16:29:53Z</time>
      </trkpt>
      <trkpt lat="47.303081" lon="-1.632284">
        <ele>68.0</ele>
        <time>2020-08-12T16:29:57Z</time>
      </trkpt>
      <trkpt lat="47.302535" lon="-1.63131">
        <ele>67.8</ele>
        <time>2020-08-12T16:30:01Z</time>
      </trkpt>
      <trkpt lat="47.299194" lon="-1.624538">
        <ele>59.6</ele>
        <time>2020-08-12T16:30:28Z</time>
      </trkpt>
      <trkpt lat="47.297882" lon="-1.62195">
        <ele>58.2</ele>
        <time>2020-08-12T16:30:38Z</time>
      </trkpt>
      <trkpt lat="47.296959" lon="-1.620222">
        <ele>57.0</ele>
        <time>2020-08-12T16:30:45Z</time>
      </trkpt>
      <trkpt lat="47.295866" lon="-1.618283">
        <ele>55.8</ele>
        <time>2020-08-12T16:30:53Z</time>
      </trkpt>
      <trkpt lat="47.294482" lon="-1.615977">
        <ele>54.8</ele>
        <time>2020-08-12T16:31:03Z</time>
      </trkpt>
      <trkpt lat="47.293149" lon="-1.61389">
        <ele>58.6</ele>
        <time>2020-08-12T16:31:12Z</time>
      </trkpt>
      <trkpt lat="47.291923" lon="-1.612099">
        <ele>58.6</ele>
        <time>2020-08-12T16:31:20Z</time>
      </trkpt>
      <trkpt lat="47.290976" lon="-1.610847">
        <ele>60.2</ele>
        <time>2020-08-12T16:31:26Z</time>
      </trkpt>
      <trkpt lat="47.290267" lon="-1.610004">
        <ele>62.2</ele>
        <time>2020-08-12T16:31:31Z</time>
      </trkpt>
      <trkpt lat="47.289239" lon="-1.608915">
        <ele>63.8</ele>
        <time>2020-08-12T16:31:37Z</time>
      </trkpt>
      <trkpt lat="47.288358" lon="-1.608093">
        <ele>63.0</ele>
        <time>2020-08-12T16:31:41Z</time>
      </trkpt>
      <trkpt lat="47.28736" lon="-1.607268">
        <ele>59.6</ele>
        <time>2020-08-12T16:31:47Z</time>
      </trkpt>
      <trkpt lat="47.286532" lon="-1.606666">
        <ele>56.6</ele>
        <time>2020-08-12T16:31:51Z</time>
      </trkpt>
      <trkpt lat="47.285583" lon="-1.606062">
        <ele>54.6</ele>
        <time>2020-08-12T16:31:56Z</time>
      </trkpt>
      <trkpt lat="47.284733" lon="-1.605579">
        <ele>51.6</ele>
        <time>2020-08-12T16:32:00Z</time>
      </trkpt>
      <trkpt lat="47.283397" lon="-1.604874">
        <ele>49.0</ele>
        <time>2020-08-12T16:32:07Z</time>
      </trkpt>
      <trkpt lat="47.282572" lon="-1.604392">
        <ele>46.8</ele>
        <time>2020-08-12T16:32:11Z</time>
      </trkpt>
      <trkpt lat="47.281953" lon="-1.603965">
        <ele>45.4</ele>
        <time>2020-08-12T16:32:15Z</time>
      </trkpt>
      <trkpt lat="47.281542" lon="-1.603645">
        <ele>43.6</ele>
        <time>2020-08-12T16:32:17Z</time>
      </trkpt>
      <trkpt lat="47.281114" lon="-1.603277">
        <ele>45.2</ele>
        <time>2020-08-12T16:32:19Z</time>
      </trkpt>
      <trkpt lat="47.280376" lon="-1.602557">
        <ele>45.0</ele>
        <time>2020-08-12T16:32:23Z</time>
      </trkpt>
      <trkpt lat="47.279944" lon="-1.602074">
        <ele>46.8</ele>
        <time>2020-08-12T16:32:26Z</time>
      </trkpt>
      <trkpt lat="47.279173" lon="-1.601092">
        <ele>47.4</ele>
        <time>2020-08-12T16:32:31Z</time>
      </trkpt>
      <trkpt lat="47.278907" lon="-1.600708">
        <ele>48.0</ele>
        <time>2020-08-12T16:32:32Z</time>
      </trkpt>
      <trkpt lat="47.278469" lon="-1.600025">
        <ele>48.0</ele>
        <time>2020-08-12T16:32:35Z</time>
      </trkpt>
      <trkpt lat="47.277112" lon="-1.597741">
        <ele>49.8</ele>
        <time>2020-08-12T16:32:45Z</time>
      </trkpt>
      <trkpt lat="47.276701" lon="-1.597088">
        <ele>49.4</ele>
        <time>2020-08-12T16:32:48Z</time>
      </trkpt>
      <trkpt lat="47.276133" lon="-1.596292">
        <ele>49.2</ele>
        <time>2020-08-12T16:32:52Z</time>
      </trkpt>
      <trkpt lat="47.275622" lon="-1.595645">
        <ele>49.2</ele>
        <time>2020-08-12T16:32:55Z</time>
      </trkpt>
      <trkpt lat="47.275321" lon="-1.59529">
        <ele>49.2</ele>
        <time>2020-08-12T16:32:57Z</time>
      </trkpt>
      <trkpt lat="47.274765" lon="-1.594692">
        <ele>48.4</ele>
        <time>2020-08-12T16:33:00Z</time>
      </trkpt>
      <trkpt lat="47.274352" lon="-1.594286">
        <ele>48.4</ele>
        <time>2020-08-12T16:33:02Z</time>
      </trkpt>
      <trkpt lat="47.271006" lon="-1.59129">
        <ele>51.2</ele>
        <time>2020-08-12T16:33:21Z</time>
      </trkpt>
      <trkpt lat="47.268877" lon="-1.589476">
        <ele>48.4</ele>
        <time>2020-08-12T16:33:32Z</time>
      </trkpt>
      <trkpt lat="47.268431" lon="-1.589148">
        <ele>49.4</ele>
        <time>2020-08-12T16:33:35Z</time>
      </trkpt>
      <trkpt lat="47.26803" lon="-1.588895">
        <ele>48.4</ele>
        <time>2020-08-12T16:33:37Z</time>
      </trkpt>
      <trkpt lat="47.266631" lon="-1.588178">
        <ele>47.2</ele>
        <time>2020-08-12T16:33:44Z</time>
      </trkpt>
      <trkpt lat="47.266269" lon="-1.587941">
        <ele>47.2</ele>
        <time>2020-08-12T16:33:46Z</time>
      </trkpt>
      <trkpt lat="47.266015" lon="-1.587731">
        <ele>47.2</ele>
        <time>2020-08-12T16:33:47Z</time>
      </trkpt>
      <trkpt lat="47.265678" lon="-1.587405">
        <ele>46.0</ele>
        <time>2020-08-12T16:33:49Z</time>
      </trkpt>
      <trkpt lat="47.265463" lon="-1.587164">
        <ele>46.0</ele>
        <time>2020-08-12T16:33:50Z</time>
      </trkpt>
      <trkpt lat="47.263752" lon="-1.585055">
        <ele>41.6</ele>
        <time>2020-08-12T16:34:01Z</time>
      </trkpt>
      <trkpt lat="47.263269" lon="-1.584492">
        <ele>41.4</ele>
        <time>2020-08-12T16:34:04Z</time>
      </trkpt>
      <trkpt lat="47.262983" lon="-1.584201">
        <ele>41.4</ele>
        <time>2020-08-12T16:34:05Z</time>
      </trkpt>
      <trkpt lat="47.262668" lon="-1.583919">
        <ele>41.6</ele>
        <time>2020-08-12T16:34:07Z</time>
      </trkpt>
      <trkpt lat="47.262444" lon="-1.583731">
        <ele>40.6</ele>
        <time>2020-08-12T16:34:08Z</time>
      </trkpt>
      <trkpt lat="47.262296" lon="-1.583672">
        <ele>40.6</ele>
        <time>2020-08-12T16:34:11Z</time>
      </trkpt>
      <trkpt lat="47.262242" lon="-1.5837">
        <ele>40.6</ele>
        <time>2020-08-12T16:34:12Z</time>
      </trkpt>
      <trkpt lat="47.262177" lon="-1.583699">
        <ele>40.6</ele>
        <time>2020-08-12T16:34:13Z</time>
      </trkpt>
      <trkpt lat="47.262128" lon="-1.583671">
        <ele>40.6</ele>
        <time>2020-08-12T16:34:13Z</time>
      </trkpt>
      <trkpt lat="47.262058" lon="-1.583555">
        <ele>40.6</ele>
        <time>2020-08-12T16:34:15Z</time>
      </trkpt>
      <trkpt lat="47.26205" lon="-1.583401">
        <ele>40.6</ele>
        <time>2020-08-12T16:34:16Z</time>
      </trkpt>
      <trkpt lat="47.261881" lon="-1.583217">
        <ele>40.4</ele>
        <time>2020-08-12T16:34:19Z</time>
      </trkpt>
      <trkpt lat="47.260622" lon="-1.582143">
        <ele>40.4</ele>
        <time>2020-08-12T16:34:37Z</time>
      </trkpt>
      <trkpt lat="47.260522" lon="-1.582091">
        <ele>40.4</ele>
        <time>2020-08-12T16:34:38Z</time>
      </trkpt>
      <trkpt lat="47.260412" lon="-1.582095">
        <ele>40.4</ele>
        <time>2020-08-12T16:34:40Z</time>
      </trkpt>
      <trkpt lat="47.26035" lon="-1.582206">
        <ele>40.4</ele>
        <time>2020-08-12T16:34:41Z</time>
      </trkpt>
      <trkpt lat="47.260305" lon="-1.582236">
        <ele>40.4</ele>
        <time>2020-08-12T16:34:42Z</time>
      </trkpt>
      <trkpt lat="47.260257" lon="-1.582246">
        <ele>40.4</ele>
        <time>2020-08-12T16:34:42Z</time>
      </trkpt>
      <trkpt lat="47.260169" lon="-1.582206">
        <ele>40.4</ele>
        <time>2020-08-12T16:34:44Z</time>
      </trkpt>
      <trkpt lat="47.260119" lon="-1.58213">
        <ele>40.4</ele>
        <time>2020-08-12T16:34:45Z</time>
      </trkpt>
      <trkpt lat="47.2601" lon="-1.582066">
        <ele>40.4</ele>
        <time>2020-08-12T16:34:45Z</time>
      </trkpt>
      <trkpt lat="47.260097" lon="-1.58196">
        <ele>40.4</ele>
        <time>2020-08-12T16:34:46Z</time>
      </trkpt>
      <trkpt lat="47.260125" lon="-1.581863">
        <ele>40.4</ele>
        <time>2020-08-12T16:34:47Z</time>
      </trkpt>
      <trkpt lat="47.260017" lon="-1.581653">
        <ele>39.4</ele>
        <time>2020-08-12T16:34:49Z</time>
      </trkpt>
      <trkpt lat="47.259151" lon="-1.580895">
        <ele>39.6</ele>
        <time>2020-08-12T16:35:03Z</time>
      </trkpt>
      <trkpt lat="47.258249" lon="-1.580063">
        <ele>39.0</ele>
        <time>2020-08-12T16:35:17Z</time>
      </trkpt>
      <trkpt lat="47.255705" lon="-1.577838">
        <ele>39.4</ele>
        <time>2020-08-12T16:35:56Z</time>
      </trkpt>
      <trkpt lat="47.255364" lon="-1.577563">
        <ele>39.4</ele>
        <time>2020-08-12T16:36:01Z</time>
      </trkpt>
      <trkpt lat="47.255305" lon="-1.577566">
        <ele>39.4</ele>
        <time>2020-08-12T16:36:02Z</time>
      </trkpt>
      <trkpt lat="47.255284" lon="-1.577541">
        <ele>39.4</ele>
        <time>2020-08-12T16:36:02Z</time>
      </trkpt>
      <trkpt lat="47.255268" lon="-1.577482">
        <ele>39.2</ele>
        <time>2020-08-12T16:36:03Z</time>
      </trkpt>
      <trkpt lat="47.255292" lon="-1.577405">
        <ele>39.2</ele>
        <time>2020-08-12T16:36:03Z</time>
      </trkpt>
      <trkpt lat="47.254273" lon="-1.576512">
        <ele>38.2</ele>
        <time>2020-08-12T16:36:19Z</time>
      </trkpt>
      <trkpt lat="47.254207" lon="-1.576569">
        <ele>38.2</ele>
        <time>2020-08-12T16:36:20Z</time>
      </trkpt>
      <trkpt lat="47.254168" lon="-1.576565">
        <ele>38.2</ele>
        <time>2020-08-12T16:36:21Z</time>
      </trkpt>
      <trkpt lat="47.254068" lon="-1.576478">
        <ele>37.0</ele>
        <time>2020-08-12T16:36:22Z</time>
      </trkpt>
      <trkpt lat="47.25313" lon="-1.576295">
        <ele>36.2</ele>
        <time>2020-08-12T16:36:36Z</time>
      </trkpt>
      <trkpt lat="47.253077" lon="-1.576324">
        <ele>36.2</ele>
        <time>2020-08-12T16:36:37Z</time>
      </trkpt>
      <trkpt lat="47.253037" lon="-1.576308">
        <ele>36.2</ele>
        <time>2020-08-12T16:36:38Z</time>
      </trkpt>
      <trkpt lat="47.253001" lon="-1.576239">
        <ele>36.2</ele>
        <time>2020-08-12T16:36:39Z</time>
      </trkpt>
      <trkpt lat="47.252644" lon="-1.57629">
        <ele>36.2</ele>
        <time>2020-08-12T16:36:43Z</time>
      </trkpt>
      <trkpt lat="47.252461" lon="-1.576355">
        <ele>34.0</ele>
        <time>2020-08-12T16:36:46Z</time>
      </trkpt>
      <trkpt lat="47.250328" lon="-1.576818">
        <ele>20.6</ele>
        <time>2020-08-12T16:37:15Z</time>
      </trkpt>
      <trkpt lat="47.247568" lon="-1.57746">
        <ele>11.6</ele>
        <time>2020-08-12T16:37:52Z</time>
      </trkpt>
      <trkpt lat="47.247454" lon="-1.577475">
        <ele>14.6</ele>
        <time>2020-08-12T16:37:54Z</time>
      </trkpt>
      <trkpt lat="47.247275" lon="-1.57746">
        <ele>14.6</ele>
        <time>2020-08-12T16:37:56Z</time>
      </trkpt>
      <trkpt lat="47.247006" lon="-1.577386">
        <ele>14.6</ele>
        <time>2020-08-12T16:38:00Z</time>
      </trkpt>
      <trkpt lat="47.247023" lon="-1.577589">
        <ele>16.4</ele>
        <time>2020-08-12T16:38:02Z</time>
      </trkpt>
      <trkpt lat="47.247003" lon="-1.577715">
        <ele>16.4</ele>
        <time>2020-08-12T16:38:02Z</time>
      </trkpt>
      <trkpt lat="47.246915" lon="-1.578026">
        <ele>16.4</ele>
        <time>2020-08-12T16:38:05Z</time>
      </trkpt>
      <trkpt lat="47.246" lon="-1.579847">
        <ele>29.2</ele>
        <time>2020-08-12T16:38:21Z</time>
      </trkpt>
      <trkpt lat="47.245616" lon="-1.580571">
        <ele>34.0</ele>
        <time>2020-08-12T16:38:27Z</time>
      </trkpt>
      <trkpt lat="47.245151" lon="-1.581299">
        <ele>33.8</ele>
        <time>2020-08-12T16:38:34Z</time>
      </trkpt>
      <trkpt lat="47.244359" lon="-1.582384">
        <ele>33.6</ele>
        <time>2020-08-12T16:38:45Z</time>
      </trkpt>
      <trkpt lat="47.244394" lon="-1.582483">
        <ele>33.6</ele>
        <time>2020-08-12T16:38:46Z</time>
      </trkpt>
      <trkpt lat="47.24438" lon="-1.582565">
        <ele>34.0</ele>
        <time>2020-08-12T16:38:46Z</time>
      </trkpt>
      <trkpt lat="47.244338" lon="-1.58262">
        <ele>34.0</ele>
        <time>2020-08-12T16:38:47Z</time>
      </trkpt>
      <trkpt lat="47.244261" lon="-1.582621">
        <ele>34.0</ele>
        <time>2020-08-12T16:38:48Z</time>
      </trkpt>
      <trkpt lat="47.244225" lon="-1.58258">
        <ele>34.0</ele>
        <time>2020-08-12T16:38:48Z</time>
      </trkpt>
      <trkpt lat="47.243834" lon="-1.582786">
        <ele>34.4</ele>
        <time>2020-08-12T16:38:52Z</time>
      </trkpt>
      <trkpt lat="47.243627" lon="-1.582853">
        <ele>34.4</ele>
        <time>2020-08-12T16:38:55Z</time>
      </trkpt>
      <trkpt lat="47.242795" lon="-1.582829">
        <ele>36.6</ele>
        <time>2020-08-12T16:39:03Z</time>
      </trkpt>
      <trkpt lat="47.242622" lon="-1.582863">
        <ele>36.6</ele>
        <time>2020-08-12T16:39:05Z</time>
      </trkpt>
      <trkpt lat="47.242339" lon="-1.582973">
        <ele>39.6</ele>
        <time>2020-08-12T16:39:08Z</time>
      </trkpt>
      <trkpt lat="47.242103" lon="-1.583131">
        <ele>39.6</ele>
        <time>2020-08-12T16:39:11Z</time>
      </trkpt>
      <trkpt lat="47.241398" lon="-1.583746">
        <ele>42.4</ele>
        <time>2020-08-12T16:39:19Z</time>
      </trkpt>
      <trkpt lat="47.241331" lon="-1.583856">
        <ele>42.4</ele>
        <time>2020-08-12T16:39:20Z</time>
      </trkpt>
      <trkpt lat="47.241075" lon="-1.584087">
        <ele>42.4</ele>
        <time>2020-08-12T16:39:23Z</time>
      </trkpt>
      <trkpt lat="47.240739" lon="-1.584325">
        <ele>45.4</ele>
        <time>2020-08-12T16:39:27Z</time>
      </trkpt>
      <trkpt lat="47.24072" lon="-1.584374">
        <ele>45.4</ele>
        <time>2020-08-12T16:39:27Z</time>
      </trkpt>
      <trkpt lat="47.240687" lon="-1.584402">
        <ele>45.4</ele>
        <time>2020-08-12T16:39:28Z</time>
      </trkpt>
      <trkpt lat="47.240633" lon="-1.584391">
        <ele>45.4</ele>
        <time>2020-08-12T16:39:28Z</time>
      </trkpt>
      <trkpt lat="47.240582" lon="-1.584408">
        <ele>45.4</ele>
        <time>2020-08-12T16:39:29Z</time>
      </trkpt>
      <trkpt lat="47.239842" lon="-1.58471">
        <ele>46.8</ele>
        <time>2020-08-12T16:39:37Z</time>
      </trkpt>
      <trkpt lat="47.239819" lon="-1.584721">
        <ele>46.8</ele>
        <time>2020-08-12T16:39:37Z</time>
      </trkpt>
      <trkpt lat="47.239753" lon="-1.584687">
        <ele>46.8</ele>
        <time>2020-08-12T16:39:38Z</time>
      </trkpt>
      <trkpt lat="47.238433" lon="-1.585644">
        <ele>46.8</ele>
        <time>2020-08-12T16:39:53Z</time>
      </trkpt>
      <trkpt lat="47.238218" lon="-1.585827">
        <ele>47.0</ele>
        <time>2020-08-12T16:39:55Z</time>
      </trkpt>
      <trkpt lat="47.237813" lon="-1.586048">
        <ele>47.2</ele>
        <time>2020-08-12T16:40:00Z</time>
      </trkpt>
      <trkpt lat="47.237747" lon="-1.586102">
        <ele>47.2</ele>
        <time>2020-08-12T16:40:01Z</time>
      </trkpt>
      <trkpt lat="47.237775" lon="-1.586225">
        <ele>47.2</ele>
        <time>2020-08-12T16:40:01Z</time>
      </trkpt>
      <trkpt lat="47.237771" lon="-1.586267">
        <ele>47.2</ele>
        <time>2020-08-12T16:40:02Z</time>
      </trkpt>
      <trkpt lat="47.237747" lon="-1.58634">
        <ele>47.2</ele>
        <time>2020-08-12T16:40:02Z</time>
      </trkpt>
      <trkpt lat="47.23771" lon="-1.586386">
        <ele>47.2</ele>
        <time>2020-08-12T16:40:03Z</time>
      </trkpt>
      <trkpt lat="47.237676" lon="-1.586406">
        <ele>47.2</ele>
        <time>2020-08-12T16:40:03Z</time>
      </trkpt>
      <trkpt lat="47.237597" lon="-1.586397">
        <ele>47.2</ele>
        <time>2020-08-12T16:40:04Z</time>
      </trkpt>
      <trkpt lat="47.237548" lon="-1.586346">
        <ele>47.2</ele>
        <time>2020-08-12T16:40:05Z</time>
      </trkpt>
      <trkpt lat="47.23752" lon="-1.586269">
        <ele>47.2</ele>
        <time>2020-08-12T16:40:05Z</time>
      </trkpt>
      <trkpt lat="47.237517" lon="-1.586199">
        <ele>47.2</ele>
        <time>2020-08-12T16:40:06Z</time>
      </trkpt>
      <trkpt lat="47.236576" lon="-1.584923">
        <ele>46.2</ele>
        <time>2020-08-12T16:40:19Z</time>
      </trkpt>
      <trkpt lat="47.235284" lon="-1.583096">
        <ele>44.8</ele>
        <time>2020-08-12T16:40:37Z</time>
      </trkpt>
      <trkpt lat="47.235242" lon="-1.583077">
        <ele>44.8</ele>
        <time>2020-08-12T16:40:38Z</time>
      </trkpt>
      <trkpt lat="47.235213" lon="-1.58303">
        <ele>44.8</ele>
        <time>2020-08-12T16:40:39Z</time>
      </trkpt>
      <trkpt lat="47.235206" lon="-1.582953">
        <ele>44.8</ele>
        <time>2020-08-12T16:40:39Z</time>
      </trkpt>
      <trkpt lat="47.234635" lon="-1.581688">
        <ele>45.0</ele>
        <time>2020-08-12T16:40:56Z</time>
      </trkpt>
      <trkpt lat="47.234339" lon="-1.580979">
        <ele>44.2</ele>
        <time>2020-08-12T16:41:05Z</time>
      </trkpt>
      <trkpt lat="47.234125" lon="-1.580536">
        <ele>43.6</ele>
        <time>2020-08-12T16:41:11Z</time>
      </trkpt>
      <trkpt lat="47.23321" lon="-1.578493">
        <ele>40.6</ele>
        <time>2020-08-12T16:41:38Z</time>
      </trkpt>
      <trkpt lat="47.232924" lon="-1.577943">
        <ele>39.4</ele>
        <time>2020-08-12T16:41:45Z</time>
      </trkpt>
      <trkpt lat="47.232562" lon="-1.577159">
        <ele>38.6</ele>
        <time>2020-08-12T16:41:56Z</time>
      </trkpt>
      <trkpt lat="47.232522" lon="-1.577126">
        <ele>38.6</ele>
        <time>2020-08-12T16:41:56Z</time>
      </trkpt>
      <trkpt lat="47.232464" lon="-1.577095">
        <ele>36.6</ele>
        <time>2020-08-12T16:41:57Z</time>
      </trkpt>
      <trkpt lat="47.232341" lon="-1.577107">
        <ele>36.6</ele>
        <time>2020-08-12T16:41:58Z</time>
      </trkpt>
      <trkpt lat="47.232254" lon="-1.577088">
        <ele>36.6</ele>
        <time>2020-08-12T16:41:59Z</time>
      </trkpt>
      <trkpt lat="47.229009" lon="-1.575305">
        <ele>31.0</ele>
        <time>2020-08-12T16:42:35Z</time>
      </trkpt>
      <trkpt lat="47.228237" lon="-1.575467">
        <ele>29.0</ele>
        <time>2020-08-12T16:42:45Z</time>
      </trkpt>
      <trkpt lat="47.226537" lon="-1.575772">
        <ele>27.2</ele>
        <time>2020-08-12T16:43:07Z</time>
      </trkpt>
      <trkpt lat="47.226039" lon="-1.57589">
        <ele>25.4</ele>
        <time>2020-08-12T16:43:14Z</time>
      </trkpt>
      <trkpt lat="47.225854" lon="-1.575956">
        <ele>25.4</ele>
        <time>2020-08-12T16:43:17Z</time>
      </trkpt>
      <trkpt lat="47.22584" lon="-1.576036">
        <ele>25.4</ele>
        <time>2020-08-12T16:43:17Z</time>
      </trkpt>
      <trkpt lat="47.225817" lon="-1.576059">
        <ele>24.6</ele>
        <time>2020-08-12T16:43:18Z</time>
      </trkpt>
      <trkpt lat="47.225794" lon="-1.576066">
        <ele>24.6</ele>
        <time>2020-08-12T16:43:18Z</time>
      </trkpt>
      <trkpt lat="47.225745" lon="-1.576038">
        <ele>24.6</ele>
        <time>2020-08-12T16:43:19Z</time>
      </trkpt>
      <trkpt lat="47.22573" lon="-1.576001">
        <ele>24.6</ele>
        <time>2020-08-12T16:43:19Z</time>
      </trkpt>
      <trkpt lat="47.225439" lon="-1.576114">
        <ele>24.6</ele>
        <time>2020-08-12T16:43:23Z</time>
      </trkpt>
      <trkpt lat="47.224749" lon="-1.576479">
        <ele>22.6</ele>
        <time>2020-08-12T16:43:32Z</time>
      </trkpt>
      <trkpt lat="47.224298" lon="-1.576754">
        <ele>23.0</ele>
        <time>2020-08-12T16:43:39Z</time>
      </trkpt>
      <trkpt lat="47.22431" lon="-1.57683">
        <ele>23.0</ele>
        <time>2020-08-12T16:43:39Z</time>
      </trkpt>
      <trkpt lat="47.2243" lon="-1.576892">
        <ele>23.0</ele>
        <time>2020-08-12T16:43:40Z</time>
      </trkpt>
      <trkpt lat="47.224242" lon="-1.576969">
        <ele>23.0</ele>
        <time>2020-08-12T16:43:41Z</time>
      </trkpt>
      <trkpt lat="47.224161" lon="-1.576965">
        <ele>23.0</ele>
        <time>2020-08-12T16:43:42Z</time>
      </trkpt>
      <trkpt lat="47.22411" lon="-1.576888">
        <ele>23.0</ele>
        <time>2020-08-12T16:43:43Z</time>
      </trkpt>
      <trkpt lat="47.222044" lon="-1.578573">
        <ele>13.6</ele>
        <time>2020-08-12T16:44:13Z</time>
      </trkpt>
      <trkpt lat="47.222035" lon="-1.578694">
        <ele>13.6</ele>
        <time>2020-08-12T16:44:15Z</time>
      </trkpt>
      <trkpt lat="47.221994" lon="-1.578746">
        <ele>13.6</ele>
        <time>2020-08-12T16:44:16Z</time>
      </trkpt>
      <trkpt lat="47.221961" lon="-1.578758">
        <ele>13.6</ele>
        <time>2020-08-12T16:44:17Z</time>
      </trkpt>
      <trkpt lat="47.221902" lon="-1.578735">
        <ele>13.6</ele>
        <time>2020-08-12T16:44:18Z</time>
      </trkpt>
      <trkpt lat="47.221871" lon="-1.578684">
        <ele>13.6</ele>
        <time>2020-08-12T16:44:19Z</time>
      </trkpt>
      <trkpt lat="47.22186" lon="-1.578618">
        <ele>13.6</ele>
        <time>2020-08-12T16:44:20Z</time>
      </trkpt>
      <trkpt lat="47.221883" lon="-1.578529">
        <ele>13.6</ele>
        <time>2020-08-12T16:44:21Z</time>
      </trkpt>
      <trkpt lat="47.221563" lon="-1.57775">
        <ele>13.2</ele>
        <time>2020-08-12T16:44:34Z</time>
      </trkpt>
      <trkpt lat="47.221194" lon="-1.577272">
        <ele>17.4</ele>
        <time>2020-08-12T16:44:45Z</time>
      </trkpt>
      <trkpt lat="47.221045" lon="-1.576952">
        <ele>17.4</ele>
        <time>2020-08-12T16:44:50Z</time>
      </trkpt>
      <trkpt lat="47.220783" lon="-1.57627">
        <ele>17.8</ele>
        <time>2020-08-12T16:45:01Z</time>
      </trkpt>
      <trkpt lat="47.220725" lon="-1.576037">
        <ele>17.8</ele>
        <time>2020-08-12T16:45:05Z</time>
      </trkpt>
      <trkpt lat="47.219819" lon="-1.577247">
        <ele>17.6</ele>
        <time>2020-08-12T16:45:28Z</time>
      </trkpt>
      <trkpt lat="47.219442" lon="-1.577711">
        <ele>15.6</ele>
        <time>2020-08-12T16:45:37Z</time>
      </trkpt>
      <trkpt lat="47.219454" lon="-1.5778">
        <ele>15.6</ele>
        <time>2020-08-12T16:45:38Z</time>
      </trkpt>
      <trkpt lat="47.219419" lon="-1.577864">
        <ele>15.6</ele>
        <time>2020-08-12T16:45:39Z</time>
      </trkpt>
      <trkpt lat="47.219376" lon="-1.577875">
        <ele>15.6</ele>
        <time>2020-08-12T16:45:40Z</time>
      </trkpt>
      <trkpt lat="47.219328" lon="-1.577827">
        <ele>15.6</ele>
        <time>2020-08-12T16:45:41Z</time>
      </trkpt>
      <trkpt lat="47.218429" lon="-1.57865">
        <ele>16.4</ele>
        <time>2020-08-12T16:46:00Z</time>
      </trkpt>
      <trkpt lat="47.218213" lon="-1.578133">
        <ele>19.2</ele>
        <time>2020-08-12T16:46:08Z</time>
      </trkpt>
      <trkpt lat="47.217992" lon="-1.577678">
        <ele>19.2</ele>
        <time>2020-08-12T16:46:15Z</time>
      </trkpt>
      <trkpt lat="47.216781" lon="-1.575449">
        <ele>17.8</ele>
        <time>2020-08-12T16:46:51Z</time>
      </trkpt>
      <trkpt lat="47.21665" lon="-1.575294">
        <ele>19.2</ele>
        <time>2020-08-12T16:46:54Z</time>
      </trkpt>
      <trkpt lat="47.214676" lon="-1.574586">
        <ele>16.2</ele>
        <time>2020-08-12T16:47:31Z</time>
      </trkpt>
      <trkpt lat="47.214635" lon="-1.574724">
        <ele>16.2</ele>
        <time>2020-08-12T16:47:33Z</time>
      </trkpt>
      <trkpt lat="47.214576" lon="-1.574822">
        <ele>16.2</ele>
        <time>2020-08-12T16:47:35Z</time>
      </trkpt>
      <trkpt lat="47.214433" lon="-1.574919">
        <ele>16.2</ele>
        <time>2020-08-12T16:47:38Z</time>
      </trkpt>
      <trkpt lat="47.214306" lon="-1.574911">
        <ele>16.2</ele>
        <time>2020-08-12T16:47:40Z</time>
      </trkpt>
      <trkpt lat="47.214174" lon="-1.574808">
        <ele>16.2</ele>
        <time>2020-08-12T16:47:43Z</time>
      </trkpt>
      <trkpt lat="47.214108" lon="-1.574665">
        <ele>17.6</ele>
        <time>2020-08-12T16:47:46Z</time>
      </trkpt>
      <trkpt lat="47.214081" lon="-1.574515">
        <ele>17.6</ele>
        <time>2020-08-12T16:47:48Z</time>
      </trkpt>
      <trkpt lat="47.214085" lon="-1.574407">
        <ele>17.6</ele>
        <time>2020-08-12T16:47:49Z</time>
      </trkpt>
      <trkpt lat="47.214109" lon="-1.574292">
        <ele>17.6</ele>
        <time>2020-08-12T16:47:51Z</time>
      </trkpt>
      <trkpt lat="47.214172" lon="-1.57415">
        <ele>14.0</ele>
        <time>2020-08-12T16:47:53Z</time>
      </trkpt>
      <trkpt lat="47.213672" lon="-1.573331">
        <ele>12.4</ele>
        <time>2020-08-12T16:48:08Z</time>
      </trkpt>
      <trkpt lat="47.212744" lon="-1.571737">
        <ele>11.8</ele>
        <time>2020-08-12T16:48:36Z</time>
      </trkpt>
      <trkpt lat="47.212585" lon="-1.571698">
        <ele>11.8</ele>
        <time>2020-08-12T16:48:40Z</time>
      </trkpt>
      <trkpt lat="47.212557" lon="-1.571679">
        <ele>11.8</ele>
        <time>2020-08-12T16:48:40Z</time>
      </trkpt>
      <trkpt lat="47.212486" lon="-1.571566">
        <ele>11.2</ele>
        <time>2020-08-12T16:48:42Z</time>
      </trkpt>
      <trkpt lat="47.212297" lon="-1.571436">
        <ele>11.2</ele>
        <time>2020-08-12T16:48:46Z</time>
      </trkpt>
      <trkpt lat="47.211979" lon="-1.571319">
        <ele>11.2</ele>
        <time>2020-08-12T16:48:53Z</time>
      </trkpt>
      <trkpt lat="47.212028" lon="-1.571017">
        <ele>10.8</ele>
        <time>2020-08-12T16:48:58Z</time>
      </trkpt>
      <trkpt lat="47.212028" lon="-1.571017">
        <ele>10.8</ele>
        <time>2020-08-12T16:48:58Z</time>
      </trkpt>
      <trkpt lat="47.211979" lon="-1.571319">
        <ele>11.2</ele>
        <time>2020-08-12T16:49:03Z</time>
      </trkpt>
      <trkpt lat="47.209803" lon="-1.570532">
        <ele>10.2</ele>
        <time>2020-08-12T16:49:38Z</time>
      </trkpt>
      <trkpt lat="47.209774" lon="-1.570632">
        <ele>10.2</ele>
        <time>2020-08-12T16:49:39Z</time>
      </trkpt>
      <trkpt lat="47.209713" lon="-1.57071">
        <ele>10.2</ele>
        <time>2020-08-12T16:49:40Z</time>
      </trkpt>
      <trkpt lat="47.209638" lon="-1.570739">
        <ele>10.2</ele>
        <time>2020-08-12T16:49:42Z</time>
      </trkpt>
      <trkpt lat="47.209571" lon="-1.570722">
        <ele>10.2</ele>
        <time>2020-08-12T16:49:43Z</time>
      </trkpt>
      <trkpt lat="47.2095" lon="-1.570648">
        <ele>10.2</ele>
        <time>2020-08-12T16:49:44Z</time>
      </trkpt>
      <trkpt lat="47.209471" lon="-1.570576">
        <ele>10.2</ele>
        <time>2020-08-12T16:49:45Z</time>
      </trkpt>
      <trkpt lat="47.209467" lon="-1.570409">
        <ele>10.2</ele>
        <time>2020-08-12T16:49:47Z</time>
      </trkpt>
      <trkpt lat="47.20899" lon="-1.57025">
        <ele>8.4</ele>
        <time>2020-08-12T16:49:55Z</time>
      </trkpt>
      <trkpt lat="47.208883" lon="-1.570235">
        <ele>8.4</ele>
        <time>2020-08-12T16:49:57Z</time>
      </trkpt>
      <trkpt lat="47.208828" lon="-1.570176">
        <ele>8.4</ele>
        <time>2020-08-12T16:49:58Z</time>
      </trkpt>
      <trkpt lat="47.208464" lon="-1.569146">
        <ele>2.2</ele>
        <time>2020-08-12T16:50:12Z</time>
      </trkpt>
      <trkpt lat="47.208425" lon="-1.568986">
        <ele>2.2</ele>
        <time>2020-08-12T16:50:14Z</time>
      </trkpt>
      <trkpt lat="47.208402" lon="-1.568863">
        <ele>2.2</ele>
        <time>2020-08-12T16:50:15Z</time>
      </trkpt>
      <trkpt lat="47.208982" lon="-1.566763">
        <ele>1.0</ele>
        <time>2020-08-12T16:50:41Z</time>
      </trkpt>
      <trkpt lat="47.208936" lon="-1.566595">
        <ele>0.8</ele>
        <time>2020-08-12T16:50:43Z</time>
      </trkpt>
      <trkpt lat="47.208869" lon="-1.566444">
        <ele>0.8</ele>
        <time>2020-08-12T16:50:44Z</time>
      </trkpt>
      <trkpt lat="47.207788" lon="-1.565455">
        <ele>3.0</ele>
        <time>2020-08-12T16:51:01Z</time>
      </trkpt>
      <trkpt lat="47.20769" lon="-1.565348">
        <ele>3.0</ele>
        <time>2020-08-12T16:51:03Z</time>
      </trkpt>
      <trkpt lat="47.207343" lon="-1.565052">
        <ele>4.6</ele>
        <time>2020-08-12T16:51:08Z</time>
      </trkpt>
      <trkpt lat="47.207066" lon="-1.564763">
        <ele>6.8</ele>
        <time>2020-08-12T16:51:12Z</time>
      </trkpt>
      <trkpt lat="47.206851" lon="-1.564595">
        <ele>6.8</ele>
        <time>2020-08-12T16:51:16Z</time>
      </trkpt>
      <trkpt lat="47.206584" lon="-1.564322">
        <ele>8.0</ele>
        <time>2020-08-12T16:51:20Z</time>
      </trkpt>
      <trkpt lat="47.206264" lon="-1.564066">
        <ele>9.0</ele>
        <time>2020-08-12T16:51:25Z</time>
      </trkpt>
      <trkpt lat="47.206089" lon="-1.563867">
        <ele>9.0</ele>
        <time>2020-08-12T16:51:28Z</time>
      </trkpt>
      <trkpt lat="47.205764" lon="-1.563598">
        <ele>9.4</ele>
        <time>2020-08-12T16:51:32Z</time>
      </trkpt>
      <trkpt lat="47.204737" lon="-1.562608">
        <ele>8.0</ele>
        <time>2020-08-12T16:51:49Z</time>
      </trkpt>
      <trkpt lat="47.204582" lon="-1.562534">
        <ele>8.0</ele>
        <time>2020-08-12T16:51:51Z</time>
      </trkpt>
      <trkpt lat="47.204569" lon="-1.562574">
        <ele>8.0</ele>
        <time>2020-08-12T16:51:51Z</time>
      </trkpt>
      <trkpt lat="47.204494" lon="-1.562645">
        <ele>8.0</ele>
        <time>2020-08-12T16:51:52Z</time>
      </trkpt>
      <trkpt lat="47.204431" lon="-1.562632">
        <ele>8.0</ele>
        <time>2020-08-12T16:51:53Z</time>
      </trkpt>
      <trkpt lat="47.204384" lon="-1.562571">
        <ele>8.0</ele>
        <time>2020-08-12T16:51:54Z</time>
      </trkpt>
      <trkpt lat="47.204367" lon="-1.562481">
        <ele>7.4</ele>
        <time>2020-08-12T16:51:55Z</time>
      </trkpt>
      <trkpt lat="47.204372" lon="-1.562435">
        <ele>7.4</ele>
        <time>2020-08-12T16:51:55Z</time>
      </trkpt>
      <trkpt lat="47.204301" lon="-1.562349">
        <ele>7.4</ele>
        <time>2020-08-12T16:51:57Z</time>
      </trkpt>
      <trkpt lat="47.203921" lon="-1.562023">
        <ele>5.6</ele>
        <time>2020-08-12T16:52:02Z</time>
      </trkpt>
      <trkpt lat="47.203839" lon="-1.561911">
        <ele>5.6</ele>
        <time>2020-08-12T16:52:04Z</time>
      </trkpt>
      <trkpt lat="47.20383" lon="-1.561871">
        <ele>5.6</ele>
        <time>2020-08-12T16:52:04Z</time>
      </trkpt>
      <trkpt lat="47.203824" lon="-1.561772">
        <ele>5.6</ele>
        <time>2020-08-12T16:52:05Z</time>
      </trkpt>
      <trkpt lat="47.203843" lon="-1.561498">
        <ele>5.6</ele>
        <time>2020-08-12T16:52:08Z</time>
      </trkpt>
      <trkpt lat="47.203859" lon="-1.561463">
        <ele>5.6</ele>
        <time>2020-08-12T16:52:08Z</time>
      </trkpt>
      <trkpt lat="47.203959" lon="-1.560514">
        <ele>6.2</ele>
        <time>2020-08-12T16:52:17Z</time>
      </trkpt>
      <trkpt lat="47.203959" lon="-1.560253">
        <ele>6.2</ele>
        <time>2020-08-12T16:52:19Z</time>
      </trkpt>
      <trkpt lat="47.20449" lon="-1.555062">
        <ele>8.0</ele>
        <time>2020-08-12T16:53:06Z</time>
      </trkpt>
      <trkpt lat="47.204527" lon="-1.55372">
        <ele>8.6</ele>
        <time>2020-08-12T16:53:18Z</time>
      </trkpt>
      <trkpt lat="47.204546" lon="-1.55361">
        <ele>8.6</ele>
        <time>2020-08-12T16:53:19Z</time>
      </trkpt>
      <trkpt lat="47.204668" lon="-1.55335">
        <ele>8.6</ele>
        <time>2020-08-12T16:53:22Z</time>
      </trkpt>
      <trkpt lat="47.203994" lon="-1.55193">
        <ele>8.2</ele>
        <time>2020-08-12T16:53:37Z</time>
      </trkpt>
      <trkpt lat="47.20384" lon="-1.551803">
        <ele>8.2</ele>
        <time>2020-08-12T16:53:40Z</time>
      </trkpt>
      <trkpt lat="47.203751" lon="-1.551767">
        <ele>8.2</ele>
        <time>2020-08-12T16:53:41Z</time>
      </trkpt>
      <trkpt lat="47.203707" lon="-1.55167">
        <ele>8.2</ele>
        <time>2020-08-12T16:53:42Z</time>
      </trkpt>
      <trkpt lat="47.203714" lon="-1.551548">
        <ele>8.2</ele>
        <time>2020-08-12T16:53:43Z</time>
      </trkpt>
      <trkpt lat="47.20364" lon="-1.551247">
        <ele>8.2</ele>
        <time>2020-08-12T16:53:46Z</time>
      </trkpt>
      <trkpt lat="47.203392" lon="-1.550778">
        <ele>8.6</ele>
        <time>2020-08-12T16:53:51Z</time>
      </trkpt>
      <trkpt lat="47.202633" lon="-1.549204">
        <ele>9.8</ele>
        <time>2020-08-12T16:54:08Z</time>
      </trkpt>
      <trkpt lat="47.2022" lon="-1.548348">
        <ele>8.8</ele>
        <time>2020-08-12T16:54:18Z</time>
      </trkpt>
      <trkpt lat="47.202122" lon="-1.548242">
        <ele>9.0</ele>
        <time>2020-08-12T16:54:19Z</time>
      </trkpt>
      <trkpt lat="47.201669" lon="-1.5474">
        <ele>9.4</ele>
        <time>2020-08-12T16:54:29Z</time>
      </trkpt>
      <trkpt lat="47.201493" lon="-1.547008">
        <ele>9.6</ele>
        <time>2020-08-12T16:54:33Z</time>
      </trkpt>
      <trkpt lat="47.200736" lon="-1.545457">
        <ele>8.0</ele>
        <time>2020-08-12T16:54:50Z</time>
      </trkpt>
      <trkpt lat="47.200671" lon="-1.545415">
        <ele>8.0</ele>
        <time>2020-08-12T16:54:51Z</time>
      </trkpt>
      <trkpt lat="47.200645" lon="-1.545307">
        <ele>8.0</ele>
        <time>2020-08-12T16:54:52Z</time>
      </trkpt>
      <trkpt lat="47.200698" lon="-1.545195">
        <ele>8.0</ele>
        <time>2020-08-12T16:54:53Z</time>
      </trkpt>
      <trkpt lat="47.200563" lon="-1.545007">
        <ele>8.0</ele>
        <time>2020-08-12T16:54:56Z</time>
      </trkpt>
      <trkpt lat="47.200411" lon="-1.544711">
        <ele>6.8</ele>
        <time>2020-08-12T16:54:59Z</time>
      </trkpt>
      <trkpt lat="47.200288" lon="-1.544347">
        <ele>6.8</ele>
        <time>2020-08-12T16:55:03Z</time>
      </trkpt>
      <trkpt lat="47.200222" lon="-1.544332">
        <ele>6.8</ele>
        <time>2020-08-12T16:55:04Z</time>
      </trkpt>
      <trkpt lat="47.200188" lon="-1.544289">
        <ele>6.8</ele>
        <time>2020-08-12T16:55:04Z</time>
      </trkpt>
      <trkpt lat="47.200168" lon="-1.544197">
        <ele>6.8</ele>
        <time>2020-08-12T16:55:05Z</time>
      </trkpt>
      <trkpt lat="47.20019" lon="-1.544105">
        <ele>4.0</ele>
        <time>2020-08-12T16:55:06Z</time>
      </trkpt>
      <trkpt lat="47.200135" lon="-1.544053">
        <ele>4.0</ele>
        <time>2020-08-12T16:55:07Z</time>
      </trkpt>
      <trkpt lat="47.198188" lon="-1.542703">
        <ele>7.0</ele>
        <time>2020-08-12T16:55:33Z</time>
      </trkpt>
      <trkpt lat="47.198045" lon="-1.542699">
        <ele>7.0</ele>
        <time>2020-08-12T16:55:35Z</time>
      </trkpt>
      <trkpt lat="47.197958" lon="-1.542638">
        <ele>7.0</ele>
        <time>2020-08-12T16:55:36Z</time>
      </trkpt>
      <trkpt lat="47.197828" lon="-1.542609">
        <ele>7.0</ele>
        <time>2020-08-12T16:55:38Z</time>
      </trkpt>
      <trkpt lat="47.197772" lon="-1.542567">
        <ele>7.0</ele>
        <time>2020-08-12T16:55:38Z</time>
      </trkpt>
      <trkpt lat="47.197746" lon="-1.542527">
        <ele>7.0</ele>
        <time>2020-08-12T16:55:39Z</time>
      </trkpt>
      <trkpt lat="47.197727" lon="-1.542401">
        <ele>7.8</ele>
        <time>2020-08-12T16:55:40Z</time>
      </trkpt>
      <trkpt lat="47.197762" lon="-1.542228">
        <ele>7.8</ele>
        <time>2020-08-12T16:55:41Z</time>
      </trkpt>
      <trkpt lat="47.197948" lon="-1.541724">
        <ele>7.8</ele>
        <time>2020-08-12T16:55:46Z</time>
      </trkpt>
      <trkpt lat="47.197965" lon="-1.54161">
        <ele>9.4</ele>
        <time>2020-08-12T16:55:47Z</time>
      </trkpt>
      <trkpt lat="47.197961" lon="-1.541535">
        <ele>9.4</ele>
        <time>2020-08-12T16:55:48Z</time>
      </trkpt>
      <trkpt lat="47.197932" lon="-1.541394">
        <ele>9.4</ele>
        <time>2020-08-12T16:55:49Z</time>
      </trkpt>
      <trkpt lat="47.197764" lon="-1.541254">
        <ele>9.4</ele>
        <time>2020-08-12T16:55:52Z</time>
      </trkpt>
      <trkpt lat="47.197689" lon="-1.541162">
        <ele>9.4</ele>
        <time>2020-08-12T16:55:53Z</time>
      </trkpt>
      <trkpt lat="47.197528" lon="-1.541044">
        <ele>9.4</ele>
        <time>2020-08-12T16:55:55Z</time>
      </trkpt>
      <trkpt lat="47.19742" lon="-1.540908">
        <ele>8.8</ele>
        <time>2020-08-12T16:55:57Z</time>
      </trkpt>
      <trkpt lat="47.197139" lon="-1.540407">
        <ele>10.0</ele>
        <time>2020-08-12T16:56:03Z</time>
      </trkpt>
      <trkpt lat="47.197071" lon="-1.540477">
        <ele>10.0</ele>
        <time>2020-08-12T16:56:05Z</time>
      </trkpt>
      <trkpt lat="47.197001" lon="-1.540463">
        <ele>10.0</ele>
        <time>2020-08-12T16:56:06Z</time>
      </trkpt>
      <trkpt lat="47.196954" lon="-1.540387">
        <ele>10.0</ele>
        <time>2020-08-12T16:56:08Z</time>
      </trkpt>
      <trkpt lat="47.196947" lon="-1.540306">
        <ele>10.0</ele>
        <time>2020-08-12T16:56:09Z</time>
      </trkpt>
      <trkpt lat="47.196967" lon="-1.540235">
        <ele>10.0</ele>
        <time>2020-08-12T16:56:10Z</time>
      </trkpt>
      <trkpt lat="47.197014" lon="-1.540184">
        <ele>10.0</ele>
        <time>2020-08-12T16:56:11Z</time>
      </trkpt>
      <trkpt lat="47.196304" lon="-1.53842">
        <ele>13.6</ele>
        <time>2020-08-12T16:56:39Z</time>
      </trkpt>
      <trkpt lat="47.195994" lon="-1.538651">
        <ele>13.6</ele>
        <time>2020-08-12T16:56:44Z</time>
      </trkpt>
      <trkpt lat="47.195777" lon="-1.538538">
        <ele>13.8</ele>
        <time>2020-08-12T16:56:47Z</time>
      </trkpt>
      <trkpt lat="47.195413" lon="-1.53831">
        <ele>16.4</ele>
        <time>2020-08-12T16:56:52Z</time>
      </trkpt>
      <trkpt lat="47.194785" lon="-1.53804">
        <ele>15.6</ele>
        <time>2020-08-12T16:57:01Z</time>
      </trkpt>
      <trkpt lat="47.194694" lon="-1.537965">
        <ele>15.6</ele>
        <time>2020-08-12T16:57:02Z</time>
      </trkpt>
      <trkpt lat="47.194054" lon="-1.537653">
        <ele>13.6</ele>
        <time>2020-08-12T16:57:11Z</time>
      </trkpt>
      <trkpt lat="47.193766" lon="-1.537444">
        <ele>14.2</ele>
        <time>2020-08-12T16:57:15Z</time>
      </trkpt>
      <trkpt lat="47.193451" lon="-1.537157">
        <ele>14.2</ele>
        <time>2020-08-12T16:57:20Z</time>
      </trkpt>
      <trkpt lat="47.192881" lon="-1.536199">
        <ele>13.8</ele>
        <time>2020-08-12T16:57:32Z</time>
      </trkpt>
      <trkpt lat="47.192844" lon="-1.53616">
        <ele>13.8</ele>
        <time>2020-08-12T16:57:32Z</time>
      </trkpt>
      <trkpt lat="47.192808" lon="-1.536126">
        <ele>13.8</ele>
        <time>2020-08-12T16:57:33Z</time>
      </trkpt>
      <trkpt lat="47.192179" lon="-1.535799">
        <ele>12.2</ele>
        <time>2020-08-12T16:57:42Z</time>
      </trkpt>
      <trkpt lat="47.192032" lon="-1.535665">
        <ele>12.2</ele>
        <time>2020-08-12T16:57:44Z</time>
      </trkpt>
      <trkpt lat="47.191985" lon="-1.53558">
        <ele>12.2</ele>
        <time>2020-08-12T16:57:45Z</time>
      </trkpt>
      <trkpt lat="47.191805" lon="-1.535038">
        <ele>12.2</ele>
        <time>2020-08-12T16:57:50Z</time>
      </trkpt>
      <trkpt lat="47.191797" lon="-1.534963">
        <ele>13.6</ele>
        <time>2020-08-12T16:57:51Z</time>
      </trkpt>
      <trkpt lat="47.191808" lon="-1.534905">
        <ele>13.6</ele>
        <time>2020-08-12T16:57:52Z</time>
      </trkpt>
      <trkpt lat="47.191114" lon="-1.534065">
        <ele>14.2</ele>
        <time>2020-08-12T16:58:03Z</time>
      </trkpt>
      <trkpt lat="47.19047" lon="-1.533485">
        <ele>12.6</ele>
        <time>2020-08-12T16:58:12Z</time>
      </trkpt>
      <trkpt lat="47.189622" lon="-1.532414">
        <ele>16.4</ele>
        <time>2020-08-12T16:58:27Z</time>
      </trkpt>
      <trkpt lat="47.188219" lon="-1.530796">
        <ele>14.8</ele>
        <time>2020-08-12T16:58:49Z</time>
      </trkpt>
      <trkpt lat="47.187388" lon="-1.529327">
        <ele>12.4</ele>
        <time>2020-08-12T16:59:06Z</time>
      </trkpt>
      <trkpt lat="47.18578" lon="-1.526698">
        <ele>13.2</ele>
        <time>2020-08-12T16:59:36Z</time>
      </trkpt>
      <trkpt lat="47.185039" lon="-1.525423">
        <ele>14.0</ele>
        <time>2020-08-12T16:59:50Z</time>
      </trkpt>
      <trkpt lat="47.184792" lon="-1.525043">
        <ele>12.0</ele>
        <time>2020-08-12T16:59:55Z</time>
      </trkpt>
      <trkpt lat="47.18475" lon="-1.524872">
        <ele>12.8</ele>
        <time>2020-08-12T16:59:57Z</time>
      </trkpt>
      <trkpt lat="47.184685" lon="-1.52486">
        <ele>12.8</ele>
        <time>2020-08-12T16:59:58Z</time>
      </trkpt>
      <trkpt lat="47.184656" lon="-1.524809">
        <ele>12.8</ele>
        <time>2020-08-12T16:59:58Z</time>
      </trkpt>
      <trkpt lat="47.184653" lon="-1.524741">
        <ele>12.8</ele>
        <time>2020-08-12T16:59:58Z</time>
      </trkpt>
      <trkpt lat="47.184679" lon="-1.524681">
        <ele>12.8</ele>
        <time>2020-08-12T16:59:59Z</time>
      </trkpt>
      <trkpt lat="47.184967" lon="-1.524485">
        <ele>12.8</ele>
        <time>2020-08-12T17:00:02Z</time>
      </trkpt>
      <trkpt lat="47.185057" lon="-1.524373">
        <ele>14.8</ele>
        <time>2020-08-12T17:00:03Z</time>
      </trkpt>
      <trkpt lat="47.185645" lon="-1.523338">
        <ele>15.4</ele>
        <time>2020-08-12T17:00:13Z</time>
      </trkpt>
      <trkpt lat="47.185796" lon="-1.522984">
        <ele>15.8</ele>
        <time>2020-08-12T17:00:16Z</time>
      </trkpt>
      <trkpt lat="47.185788" lon="-1.522856">
        <ele>15.8</ele>
        <time>2020-08-12T17:00:17Z</time>
      </trkpt>
      <trkpt lat="47.185834" lon="-1.522763">
        <ele>16.8</ele>
        <time>2020-08-12T17:00:17Z</time>
      </trkpt>
      <trkpt lat="47.185402" lon="-1.521991">
        <ele>15.8</ele>
        <time>2020-08-12T17:00:24Z</time>
      </trkpt>
      <trkpt lat="47.185379" lon="-1.521882">
        <ele>15.8</ele>
        <time>2020-08-12T17:00:25Z</time>
      </trkpt>
      <trkpt lat="47.185419" lon="-1.521621">
        <ele>16.0</ele>
        <time>2020-08-12T17:00:27Z</time>
      </trkpt>
      <trkpt lat="47.185408" lon="-1.521525">
        <ele>16.0</ele>
        <time>2020-08-12T17:00:27Z</time>
      </trkpt>
      <trkpt lat="47.185326" lon="-1.521382">
        <ele>16.0</ele>
        <time>2020-08-12T17:00:28Z</time>
      </trkpt>
      <trkpt lat="47.184661" lon="-1.520721">
        <ele>15.2</ele>
        <time>2020-08-12T17:00:31Z</time>
      </trkpt>
      <trkpt lat="47.184469" lon="-1.520594">
        <ele>15.2</ele>
        <time>2020-08-12T17:00:32Z</time>
      </trkpt>
      <trkpt lat="47.183517" lon="-1.519769">
        <ele>10.8</ele>
        <time>2020-08-12T17:00:37Z</time>
      </trkpt>
      <trkpt lat="47.182714" lon="-1.519104">
        <ele>8.0</ele>
        <time>2020-08-12T17:00:40Z</time>
      </trkpt>
      <trkpt lat="47.182431" lon="-1.518892">
        <ele>7.2</ele>
        <time>2020-08-12T17:00:42Z</time>
      </trkpt>
      <trkpt lat="47.181409" lon="-1.518198">
        <ele>5.0</ele>
        <time>2020-08-12T17:00:46Z</time>
      </trkpt>
      <trkpt lat="47.180801" lon="-1.517825">
        <ele>4.6</ele>
        <time>2020-08-12T17:00:49Z</time>
      </trkpt>
      <trkpt lat="47.179295" lon="-1.517055">
        <ele>9.0</ele>
        <time>2020-08-12T17:00:55Z</time>
      </trkpt>
      <trkpt lat="47.17828" lon="-1.51661">
        <ele>20.2</ele>
        <time>2020-08-12T17:01:00Z</time>
      </trkpt>
      <trkpt lat="47.176428" lon="-1.515866">
        <ele>23.2</ele>
        <time>2020-08-12T17:01:08Z</time>
      </trkpt>
      <trkpt lat="47.173513" lon="-1.514807">
        <ele>24.0</ele>
        <time>2020-08-12T17:01:20Z</time>
      </trkpt>
      <trkpt lat="47.171715" lon="-1.514217">
        <ele>24.2</ele>
        <time>2020-08-12T17:01:27Z</time>
      </trkpt>
      <trkpt lat="47.170638" lon="-1.513888">
        <ele>24.0</ele>
        <time>2020-08-12T17:01:32Z</time>
      </trkpt>
      <trkpt lat="47.16781" lon="-1.513108">
        <ele>24.8</ele>
        <time>2020-08-12T17:01:44Z</time>
      </trkpt>
      <trkpt lat="47.16673" lon="-1.512894">
        <ele>21.8</ele>
        <time>2020-08-12T17:01:48Z</time>
      </trkpt>
      <trkpt lat="47.16594" lon="-1.512791">
        <ele>18.0</ele>
        <time>2020-08-12T17:01:51Z</time>
      </trkpt>
      <trkpt lat="47.164974" lon="-1.512715">
        <ele>10.6</ele>
        <time>2020-08-12T17:01:55Z</time>
      </trkpt>
      <trkpt lat="47.164205" lon="-1.512683">
        <ele>10.6</ele>
        <time>2020-08-12T17:01:58Z</time>
      </trkpt>
      <trkpt lat="47.163722" lon="-1.512685">
        <ele>9.4</ele>
        <time>2020-08-12T17:02:00Z</time>
      </trkpt>
      <trkpt lat="47.162566" lon="-1.512735">
        <ele>8.4</ele>
        <time>2020-08-12T17:02:05Z</time>
      </trkpt>
      <trkpt lat="47.161757" lon="-1.512796">
        <ele>8.4</ele>
        <time>2020-08-12T17:02:08Z</time>
      </trkpt>
      <trkpt lat="47.160245" lon="-1.512979">
        <ele>10.2</ele>
        <time>2020-08-12T17:02:15Z</time>
      </trkpt>
      <trkpt lat="47.158879" lon="-1.513192">
        <ele>13.0</ele>
        <time>2020-08-12T17:02:20Z</time>
      </trkpt>
      <trkpt lat="47.157678" lon="-1.513399">
        <ele>17.0</ele>
        <time>2020-08-12T17:02:25Z</time>
      </trkpt>
      <trkpt lat="47.154275" lon="-1.514069">
        <ele>21.0</ele>
        <time>2020-08-12T17:02:39Z</time>
      </trkpt>
      <trkpt lat="47.152801" lon="-1.514335">
        <ele>25.0</ele>
        <time>2020-08-12T17:02:45Z</time>
      </trkpt>
      <trkpt lat="47.151644" lon="-1.514507">
        <ele>29.0</ele>
        <time>2020-08-12T17:02:50Z</time>
      </trkpt>
      <trkpt lat="47.150691" lon="-1.514621">
        <ele>30.4</ele>
        <time>2020-08-12T17:02:54Z</time>
      </trkpt>
      <trkpt lat="47.149744" lon="-1.514707">
        <ele>32.2</ele>
        <time>2020-08-12T17:02:58Z</time>
      </trkpt>
      <trkpt lat="47.148832" lon="-1.514755">
        <ele>32.2</ele>
        <time>2020-08-12T17:03:01Z</time>
      </trkpt>
      <trkpt lat="47.147281" lon="-1.514753">
        <ele>31.2</ele>
        <time>2020-08-12T17:03:08Z</time>
      </trkpt>
      <trkpt lat="47.14649" lon="-1.514696">
        <ele>31.6</ele>
        <time>2020-08-12T17:03:11Z</time>
      </trkpt>
      <trkpt lat="47.14534" lon="-1.514562">
        <ele>32.2</ele>
        <time>2020-08-12T17:03:16Z</time>
      </trkpt>
      <trkpt lat="47.144754" lon="-1.514465">
        <ele>33.0</ele>
        <time>2020-08-12T17:03:18Z</time>
      </trkpt>
      <trkpt lat="47.144075" lon="-1.514328">
        <ele>33.4</ele>
        <time>2020-08-12T17:03:21Z</time>
      </trkpt>
      <trkpt lat="47.143196" lon="-1.514112">
        <ele>34.8</ele>
        <time>2020-08-12T17:03:25Z</time>
      </trkpt>
      <trkpt lat="47.142376" lon="-1.513872">
        <ele>35.0</ele>
        <time>2020-08-12T17:03:28Z</time>
      </trkpt>
      <trkpt lat="47.141581" lon="-1.513604">
        <ele>34.6</ele>
        <time>2020-08-12T17:03:31Z</time>
      </trkpt>
      <trkpt lat="47.140486" lon="-1.51317">
        <ele>34.8</ele>
        <time>2020-08-12T17:03:36Z</time>
      </trkpt>
      <trkpt lat="47.139636" lon="-1.512784">
        <ele>35.6</ele>
        <time>2020-08-12T17:03:40Z</time>
      </trkpt>
      <trkpt lat="47.138708" lon="-1.512314">
        <ele>36.0</ele>
        <time>2020-08-12T17:03:44Z</time>
      </trkpt>
      <trkpt lat="47.138079" lon="-1.511956">
        <ele>36.0</ele>
        <time>2020-08-12T17:03:46Z</time>
      </trkpt>
      <trkpt lat="47.137118" lon="-1.511362">
        <ele>35.8</ele>
        <time>2020-08-12T17:03:51Z</time>
      </trkpt>
      <trkpt lat="47.135739" lon="-1.510403">
        <ele>37.8</ele>
        <time>2020-08-12T17:03:57Z</time>
      </trkpt>
      <trkpt lat="47.134505" lon="-1.509449">
        <ele>38.4</ele>
        <time>2020-08-12T17:04:03Z</time>
      </trkpt>
      <trkpt lat="47.133366" lon="-1.508512">
        <ele>39.0</ele>
        <time>2020-08-12T17:04:08Z</time>
      </trkpt>
      <trkpt lat="47.131767" lon="-1.507136">
        <ele>34.4</ele>
        <time>2020-08-12T17:04:15Z</time>
      </trkpt>
      <trkpt lat="47.117706" lon="-1.494738">
        <ele>32.8</ele>
        <time>2020-08-12T17:05:22Z</time>
      </trkpt>
      <trkpt lat="47.117162" lon="-1.494274">
        <ele>29.6</ele>
        <time>2020-08-12T17:05:25Z</time>
      </trkpt>
      <trkpt lat="47.11523" lon="-1.492745">
        <ele>26.0</ele>
        <time>2020-08-12T17:05:34Z</time>
      </trkpt>
      <trkpt lat="47.114465" lon="-1.492058">
        <ele>26.4</ele>
        <time>2020-08-12T17:05:38Z</time>
      </trkpt>
      <trkpt lat="47.110936" lon="-1.488575">
        <ele>25.4</ele>
        <time>2020-08-12T17:05:55Z</time>
      </trkpt>
      <trkpt lat="47.110368" lon="-1.487973">
        <ele>26.2</ele>
        <time>2020-08-12T17:05:58Z</time>
      </trkpt>
      <trkpt lat="47.109341" lon="-1.48682">
        <ele>26.0</ele>
        <time>2020-08-12T17:06:03Z</time>
      </trkpt>
      <trkpt lat="47.108432" lon="-1.485727">
        <ele>27.2</ele>
        <time>2020-08-12T17:06:08Z</time>
      </trkpt>
      <trkpt lat="47.107634" lon="-1.484705">
        <ele>26.2</ele>
        <time>2020-08-12T17:06:12Z</time>
      </trkpt>
      <trkpt lat="47.106953" lon="-1.48378">
        <ele>25.4</ele>
        <time>2020-08-12T17:06:16Z</time>
      </trkpt>
      <trkpt lat="47.106194" lon="-1.482698">
        <ele>24.2</ele>
        <time>2020-08-12T17:06:20Z</time>
      </trkpt>
      <trkpt lat="47.105363" lon="-1.481454">
        <ele>25.2</ele>
        <time>2020-08-12T17:06:25Z</time>
      </trkpt>
      <trkpt lat="47.098583" lon="-1.470886">
        <ele>25.8</ele>
        <time>2020-08-12T17:07:05Z</time>
      </trkpt>
      <trkpt lat="47.097855" lon="-1.469776">
        <ele>30.4</ele>
        <time>2020-08-12T17:07:10Z</time>
      </trkpt>
      <trkpt lat="47.097211" lon="-1.468834">
        <ele>32.6</ele>
        <time>2020-08-12T17:07:13Z</time>
      </trkpt>
      <trkpt lat="47.096011" lon="-1.467158">
        <ele>30.4</ele>
        <time>2020-08-12T17:07:20Z</time>
      </trkpt>
      <trkpt lat="47.082953" lon="-1.449189">
        <ele>28.8</ele>
        <time>2020-08-12T17:08:33Z</time>
      </trkpt>
      <trkpt lat="47.081317" lon="-1.446982">
        <ele>29.0</ele>
        <time>2020-08-12T17:08:42Z</time>
      </trkpt>
      <trkpt lat="47.08038" lon="-1.445773">
        <ele>31.6</ele>
        <time>2020-08-12T17:08:47Z</time>
      </trkpt>
      <trkpt lat="47.07964" lon="-1.444863">
        <ele>31.6</ele>
        <time>2020-08-12T17:08:51Z</time>
      </trkpt>
      <trkpt lat="47.078844" lon="-1.443932">
        <ele>31.2</ele>
        <time>2020-08-12T17:08:55Z</time>
      </trkpt>
      <trkpt lat="47.078214" lon="-1.443238">
        <ele>30.2</ele>
        <time>2020-08-12T17:08:59Z</time>
      </trkpt>
      <trkpt lat="47.077252" lon="-1.44222">
        <ele>29.8</ele>
        <time>2020-08-12T17:09:04Z</time>
      </trkpt>
      <trkpt lat="47.076281" lon="-1.441255">
        <ele>30.2</ele>
        <time>2020-08-12T17:09:08Z</time>
      </trkpt>
      <trkpt lat="47.075185" lon="-1.440232">
        <ele>32.0</ele>
        <time>2020-08-12T17:09:14Z</time>
      </trkpt>
      <trkpt lat="47.068103" lon="-1.434027">
        <ele>37.6</ele>
        <time>2020-08-12T17:09:47Z</time>
      </trkpt>
      <trkpt lat="47.067529" lon="-1.433503">
        <ele>37.6</ele>
        <time>2020-08-12T17:09:50Z</time>
      </trkpt>
      <trkpt lat="47.0663" lon="-1.432331">
        <ele>40.8</ele>
        <time>2020-08-12T17:09:56Z</time>
      </trkpt>
      <trkpt lat="47.06544" lon="-1.431455">
        <ele>43.6</ele>
        <time>2020-08-12T17:10:00Z</time>
      </trkpt>
      <trkpt lat="47.064696" lon="-1.430653">
        <ele>47.4</ele>
        <time>2020-08-12T17:10:04Z</time>
      </trkpt>
      <trkpt lat="47.063569" lon="-1.429355">
        <ele>50.2</ele>
        <time>2020-08-12T17:10:10Z</time>
      </trkpt>
      <trkpt lat="47.062422" lon="-1.42795">
        <ele>52.6</ele>
        <time>2020-08-12T17:10:16Z</time>
      </trkpt>
      <trkpt lat="47.058869" lon="-1.423349">
        <ele>50.0</ele>
        <time>2020-08-12T17:10:35Z</time>
      </trkpt>
      <trkpt lat="47.057986" lon="-1.42223">
        <ele>49.0</ele>
        <time>2020-08-12T17:10:40Z</time>
      </trkpt>
      <trkpt lat="47.056992" lon="-1.421025">
        <ele>48.8</ele>
        <time>2020-08-12T17:10:45Z</time>
      </trkpt>
      <trkpt lat="47.055968" lon="-1.41986">
        <ele>48.2</ele>
        <time>2020-08-12T17:10:51Z</time>
      </trkpt>
      <trkpt lat="47.05486" lon="-1.4187">
        <ele>47.6</ele>
        <time>2020-08-12T17:10:56Z</time>
      </trkpt>
      <trkpt lat="47.053748" lon="-1.417621">
        <ele>47.6</ele>
        <time>2020-08-12T17:11:02Z</time>
      </trkpt>
      <trkpt lat="47.052742" lon="-1.41672">
        <ele>46.8</ele>
        <time>2020-08-12T17:11:06Z</time>
      </trkpt>
      <trkpt lat="47.052032" lon="-1.416121">
        <ele>47.0</ele>
        <time>2020-08-12T17:11:10Z</time>
      </trkpt>
      <trkpt lat="47.050928" lon="-1.415254">
        <ele>46.2</ele>
        <time>2020-08-12T17:11:15Z</time>
      </trkpt>
      <trkpt lat="47.050124" lon="-1.414667">
        <ele>46.6</ele>
        <time>2020-08-12T17:11:19Z</time>
      </trkpt>
      <trkpt lat="47.049408" lon="-1.414174">
        <ele>47.0</ele>
        <time>2020-08-12T17:11:22Z</time>
      </trkpt>
      <trkpt lat="47.048112" lon="-1.413351">
        <ele>48.2</ele>
        <time>2020-08-12T17:11:28Z</time>
      </trkpt>
      <trkpt lat="47.047023" lon="-1.412727">
        <ele>49.2</ele>
        <time>2020-08-12T17:11:32Z</time>
      </trkpt>
      <trkpt lat="47.046447" lon="-1.412422">
        <ele>48.8</ele>
        <time>2020-08-12T17:11:35Z</time>
      </trkpt>
      <trkpt lat="47.045113" lon="-1.411775">
        <ele>49.0</ele>
        <time>2020-08-12T17:11:41Z</time>
      </trkpt>
      <trkpt lat="47.043877" lon="-1.41125">
        <ele>49.6</ele>
        <time>2020-08-12T17:11:46Z</time>
      </trkpt>
      <trkpt lat="47.042525" lon="-1.410751">
        <ele>51.0</ele>
        <time>2020-08-12T17:11:52Z</time>
      </trkpt>
      <trkpt lat="47.038516" lon="-1.40948">
        <ele>54.4</ele>
        <time>2020-08-12T17:12:08Z</time>
      </trkpt>
      <trkpt lat="47.036989" lon="-1.408953">
        <ele>52.4</ele>
        <time>2020-08-12T17:12:15Z</time>
      </trkpt>
      <trkpt lat="47.036026" lon="-1.408577">
        <ele>51.2</ele>
        <time>2020-08-12T17:12:19Z</time>
      </trkpt>
      <trkpt lat="47.035346" lon="-1.408287">
        <ele>48.6</ele>
        <time>2020-08-12T17:12:22Z</time>
      </trkpt>
      <trkpt lat="47.033896" lon="-1.407613">
        <ele>44.6</ele>
        <time>2020-08-12T17:12:28Z</time>
      </trkpt>
      <trkpt lat="47.032696" lon="-1.406985">
        <ele>43.8</ele>
        <time>2020-08-12T17:12:33Z</time>
      </trkpt>
      <trkpt lat="47.031168" lon="-1.406095">
        <ele>43.6</ele>
        <time>2020-08-12T17:12:40Z</time>
      </trkpt>
      <trkpt lat="47.029986" lon="-1.40533">
        <ele>42.0</ele>
        <time>2020-08-12T17:12:45Z</time>
      </trkpt>
      <trkpt lat="47.028774" lon="-1.404477">
        <ele>41.6</ele>
        <time>2020-08-12T17:12:51Z</time>
      </trkpt>
      <trkpt lat="47.027963" lon="-1.403867">
        <ele>40.2</ele>
        <time>2020-08-12T17:12:54Z</time>
      </trkpt>
      <trkpt lat="47.026514" lon="-1.402688">
        <ele>40.2</ele>
        <time>2020-08-12T17:13:01Z</time>
      </trkpt>
      <trkpt lat="47.024931" lon="-1.401292">
        <ele>39.6</ele>
        <time>2020-08-12T17:13:09Z</time>
      </trkpt>
      <trkpt lat="47.016637" lon="-1.393592">
        <ele>40.4</ele>
        <time>2020-08-12T17:13:49Z</time>
      </trkpt>
      <trkpt lat="47.014954" lon="-1.392081">
        <ele>42.2</ele>
        <time>2020-08-12T17:13:57Z</time>
      </trkpt>
      <trkpt lat="47.013712" lon="-1.391037">
        <ele>43.6</ele>
        <time>2020-08-12T17:14:03Z</time>
      </trkpt>
      <trkpt lat="47.012396" lon="-1.390017">
        <ele>45.4</ele>
        <time>2020-08-12T17:14:09Z</time>
      </trkpt>
      <trkpt lat="47.01091" lon="-1.388964">
        <ele>44.0</ele>
        <time>2020-08-12T17:14:15Z</time>
      </trkpt>
      <trkpt lat="47.0098" lon="-1.388258">
        <ele>43.4</ele>
        <time>2020-08-12T17:14:20Z</time>
      </trkpt>
      <trkpt lat="47.008525" lon="-1.387516">
        <ele>43.4</ele>
        <time>2020-08-12T17:14:26Z</time>
      </trkpt>
      <trkpt lat="47.007095" lon="-1.386765">
        <ele>41.2</ele>
        <time>2020-08-12T17:14:32Z</time>
      </trkpt>
      <trkpt lat="47.006071" lon="-1.38628">
        <ele>41.2</ele>
        <time>2020-08-12T17:14:36Z</time>
      </trkpt>
      <trkpt lat="47.004725" lon="-1.385709">
        <ele>43.6</ele>
        <time>2020-08-12T17:14:42Z</time>
      </trkpt>
      <trkpt lat="47.00337" lon="-1.385208">
        <ele>44.0</ele>
        <time>2020-08-12T17:14:48Z</time>
      </trkpt>
      <trkpt lat="47.002227" lon="-1.384841">
        <ele>44.2</ele>
        <time>2020-08-12T17:14:53Z</time>
      </trkpt>
      <trkpt lat="47.000295" lon="-1.384315">
        <ele>44.2</ele>
        <time>2020-08-12T17:15:01Z</time>
      </trkpt>
      <trkpt lat="46.994095" lon="-1.38285">
        <ele>44.6</ele>
        <time>2020-08-12T17:15:26Z</time>
      </trkpt>
      <trkpt lat="46.992774" lon="-1.38249">
        <ele>42.0</ele>
        <time>2020-08-12T17:15:32Z</time>
      </trkpt>
      <trkpt lat="46.992015" lon="-1.382252">
        <ele>40.4</ele>
        <time>2020-08-12T17:15:35Z</time>
      </trkpt>
      <trkpt lat="46.991108" lon="-1.381938">
        <ele>39.0</ele>
        <time>2020-08-12T17:15:39Z</time>
      </trkpt>
      <trkpt lat="46.990197" lon="-1.381586">
        <ele>38.8</ele>
        <time>2020-08-12T17:15:43Z</time>
      </trkpt>
      <trkpt lat="46.989304" lon="-1.381205">
        <ele>38.2</ele>
        <time>2020-08-12T17:15:46Z</time>
      </trkpt>
      <trkpt lat="46.987848" lon="-1.3805">
        <ele>38.4</ele>
        <time>2020-08-12T17:15:53Z</time>
      </trkpt>
      <trkpt lat="46.987185" lon="-1.380147">
        <ele>38.0</ele>
        <time>2020-08-12T17:15:56Z</time>
      </trkpt>
      <trkpt lat="46.986263" lon="-1.379619">
        <ele>38.6</ele>
        <time>2020-08-12T17:16:00Z</time>
      </trkpt>
      <trkpt lat="46.984928" lon="-1.378775">
        <ele>38.8</ele>
        <time>2020-08-12T17:16:06Z</time>
      </trkpt>
      <trkpt lat="46.984202" lon="-1.37828">
        <ele>38.8</ele>
        <time>2020-08-12T17:16:09Z</time>
      </trkpt>
      <trkpt lat="46.983102" lon="-1.37747">
        <ele>40.6</ele>
        <time>2020-08-12T17:16:14Z</time>
      </trkpt>
      <trkpt lat="46.98186" lon="-1.376471">
        <ele>41.2</ele>
        <time>2020-08-12T17:16:20Z</time>
      </trkpt>
      <trkpt lat="46.980473" lon="-1.37524">
        <ele>42.2</ele>
        <time>2020-08-12T17:16:26Z</time>
      </trkpt>
      <trkpt lat="46.979497" lon="-1.374297">
        <ele>42.2</ele>
        <time>2020-08-12T17:16:31Z</time>
      </trkpt>
      <trkpt lat="46.977824" lon="-1.372569">
        <ele>40.8</ele>
        <time>2020-08-12T17:16:39Z</time>
      </trkpt>
      <trkpt lat="46.968158" lon="-1.362233">
        <ele>36.8</ele>
        <time>2020-08-12T17:17:28Z</time>
      </trkpt>
      <trkpt lat="46.967281" lon="-1.361362">
        <ele>37.8</ele>
        <time>2020-08-12T17:17:33Z</time>
      </trkpt>
      <trkpt lat="46.966363" lon="-1.360567">
        <ele>38.6</ele>
        <time>2020-08-12T17:17:37Z</time>
      </trkpt>
      <trkpt lat="46.965758" lon="-1.360104">
        <ele>39.8</ele>
        <time>2020-08-12T17:17:40Z</time>
      </trkpt>
      <trkpt lat="46.96478" lon="-1.359455">
        <ele>39.6</ele>
        <time>2020-08-12T17:17:44Z</time>
      </trkpt>
      <trkpt lat="46.964014" lon="-1.359024">
        <ele>39.2</ele>
        <time>2020-08-12T17:17:47Z</time>
      </trkpt>
      <trkpt lat="46.963464" lon="-1.358754">
        <ele>39.2</ele>
        <time>2020-08-12T17:17:50Z</time>
      </trkpt>
      <trkpt lat="46.962897" lon="-1.358509">
        <ele>40.6</ele>
        <time>2020-08-12T17:17:52Z</time>
      </trkpt>
      <trkpt lat="46.961326" lon="-1.357941">
        <ele>40.4</ele>
        <time>2020-08-12T17:17:59Z</time>
      </trkpt>
      <trkpt lat="46.950379" lon="-1.354202">
        <ele>45.0</ele>
        <time>2020-08-12T17:18:45Z</time>
      </trkpt>
      <trkpt lat="46.946926" lon="-1.352913">
        <ele>47.0</ele>
        <time>2020-08-12T17:18:59Z</time>
      </trkpt>
      <trkpt lat="46.946358" lon="-1.352673">
        <ele>48.2</ele>
        <time>2020-08-12T17:19:02Z</time>
      </trkpt>
      <trkpt lat="46.945811" lon="-1.35236">
        <ele>49.6</ele>
        <time>2020-08-12T17:19:04Z</time>
      </trkpt>
      <trkpt lat="46.944876" lon="-1.351768">
        <ele>49.8</ele>
        <time>2020-08-12T17:19:08Z</time>
      </trkpt>
      <trkpt lat="46.943998" lon="-1.351144">
        <ele>50.4</ele>
        <time>2020-08-12T17:19:12Z</time>
      </trkpt>
      <trkpt lat="46.942867" lon="-1.350163">
        <ele>51.4</ele>
        <time>2020-08-12T17:19:18Z</time>
      </trkpt>
      <trkpt lat="46.936399" lon="-1.343942">
        <ele>51.2</ele>
        <time>2020-08-12T17:19:49Z</time>
      </trkpt>
      <trkpt lat="46.933332" lon="-1.341041">
        <ele>49.4</ele>
        <time>2020-08-12T17:20:04Z</time>
      </trkpt>
      <trkpt lat="46.923821" lon="-1.332679">
        <ele>55.0</ele>
        <time>2020-08-12T17:20:49Z</time>
      </trkpt>
      <trkpt lat="46.914149" lon="-1.324886">
        <ele>40.6</ele>
        <time>2020-08-12T17:21:34Z</time>
      </trkpt>
      <trkpt lat="46.912373" lon="-1.32331">
        <ele>46.8</ele>
        <time>2020-08-12T17:21:43Z</time>
      </trkpt>
      <trkpt lat="46.910152" lon="-1.32099">
        <ele>52.6</ele>
        <time>2020-08-12T17:21:54Z</time>
      </trkpt>
      <trkpt lat="46.909075" lon="-1.319729">
        <ele>53.8</ele>
        <time>2020-08-12T17:22:00Z</time>
      </trkpt>
      <trkpt lat="46.908026" lon="-1.318407">
        <ele>53.0</ele>
        <time>2020-08-12T17:22:05Z</time>
      </trkpt>
      <trkpt lat="46.906475" lon="-1.316277">
        <ele>48.6</ele>
        <time>2020-08-12T17:22:14Z</time>
      </trkpt>
      <trkpt lat="46.905307" lon="-1.314423">
        <ele>46.2</ele>
        <time>2020-08-12T17:22:21Z</time>
      </trkpt>
      <trkpt lat="46.90417" lon="-1.312488">
        <ele>53.8</ele>
        <time>2020-08-12T17:22:28Z</time>
      </trkpt>
      <trkpt lat="46.902148" lon="-1.308973">
        <ele>60.0</ele>
        <time>2020-08-12T17:22:41Z</time>
      </trkpt>
      <trkpt lat="46.901033" lon="-1.307162">
        <ele>60.2</ele>
        <time>2020-08-12T17:22:48Z</time>
      </trkpt>
      <trkpt lat="46.899934" lon="-1.305534">
        <ele>60.4</ele>
        <time>2020-08-12T17:22:54Z</time>
      </trkpt>
      <trkpt lat="46.898997" lon="-1.304278">
        <ele>61.0</ele>
        <time>2020-08-12T17:22:59Z</time>
      </trkpt>
      <trkpt lat="46.8981" lon="-1.303155">
        <ele>63.2</ele>
        <time>2020-08-12T17:23:04Z</time>
      </trkpt>
      <trkpt lat="46.896877" lon="-1.30172">
        <ele>64.8</ele>
        <time>2020-08-12T17:23:10Z</time>
      </trkpt>
      <trkpt lat="46.895706" lon="-1.300429">
        <ele>67.8</ele>
        <time>2020-08-12T17:23:16Z</time>
      </trkpt>
      <trkpt lat="46.895017" lon="-1.299729">
        <ele>67.6</ele>
        <time>2020-08-12T17:23:20Z</time>
      </trkpt>
      <trkpt lat="46.894031" lon="-1.29881">
        <ele>68.2</ele>
        <time>2020-08-12T17:23:25Z</time>
      </trkpt>
      <trkpt lat="46.89226" lon="-1.297297">
        <ele>66.6</ele>
        <time>2020-08-12T17:23:33Z</time>
      </trkpt>
      <trkpt lat="46.883513" lon="-1.290885">
        <ele>72.8</ele>
        <time>2020-08-12T17:24:13Z</time>
      </trkpt>
      <trkpt lat="46.881615" lon="-1.289529">
        <ele>70.4</ele>
        <time>2020-08-12T17:24:22Z</time>
      </trkpt>
      <trkpt lat="46.880226" lon="-1.288633">
        <ele>70.4</ele>
        <time>2020-08-12T17:24:28Z</time>
      </trkpt>
      <trkpt lat="46.878922" lon="-1.287887">
        <ele>71.6</ele>
        <time>2020-08-12T17:24:34Z</time>
      </trkpt>
      <trkpt lat="46.877927" lon="-1.287374">
        <ele>70.8</ele>
        <time>2020-08-12T17:24:38Z</time>
      </trkpt>
      <trkpt lat="46.876478" lon="-1.286709">
        <ele>69.6</ele>
        <time>2020-08-12T17:24:44Z</time>
      </trkpt>
      <trkpt lat="46.875141" lon="-1.286182">
        <ele>69.0</ele>
        <time>2020-08-12T17:24:50Z</time>
      </trkpt>
      <trkpt lat="46.873875" lon="-1.285753">
        <ele>66.8</ele>
        <time>2020-08-12T17:24:55Z</time>
      </trkpt>
      <trkpt lat="46.87238" lon="-1.285339">
        <ele>63.6</ele>
        <time>2020-08-12T17:25:01Z</time>
      </trkpt>
      <trkpt lat="46.870881" lon="-1.28502">
        <ele>61.8</ele>
        <time>2020-08-12T17:25:07Z</time>
      </trkpt>
      <trkpt lat="46.869916" lon="-1.284848">
        <ele>61.0</ele>
        <time>2020-08-12T17:25:11Z</time>
      </trkpt>
      <trkpt lat="46.866226" lon="-1.284305">
        <ele>65.4</ele>
        <time>2020-08-12T17:25:26Z</time>
      </trkpt>
      <trkpt lat="46.865077" lon="-1.284096">
        <ele>65.0</ele>
        <time>2020-08-12T17:25:31Z</time>
      </trkpt>
      <trkpt lat="46.864274" lon="-1.283908">
        <ele>64.6</ele>
        <time>2020-08-12T17:25:35Z</time>
      </trkpt>
      <trkpt lat="46.863464" lon="-1.283682">
        <ele>65.2</ele>
        <time>2020-08-12T17:25:38Z</time>
      </trkpt>
      <trkpt lat="46.862674" lon="-1.283422">
        <ele>65.0</ele>
        <time>2020-08-12T17:25:41Z</time>
      </trkpt>
      <trkpt lat="46.861658" lon="-1.283029">
        <ele>67.2</ele>
        <time>2020-08-12T17:25:45Z</time>
      </trkpt>
      <trkpt lat="46.860984" lon="-1.282733">
        <ele>67.2</ele>
        <time>2020-08-12T17:25:48Z</time>
      </trkpt>
      <trkpt lat="46.860101" lon="-1.282298">
        <ele>65.6</ele>
        <time>2020-08-12T17:25:52Z</time>
      </trkpt>
      <trkpt lat="46.859334" lon="-1.281876">
        <ele>65.4</ele>
        <time>2020-08-12T17:25:55Z</time>
      </trkpt>
      <trkpt lat="46.858465" lon="-1.281349">
        <ele>65.0</ele>
        <time>2020-08-12T17:25:59Z</time>
      </trkpt>
      <trkpt lat="46.857494" lon="-1.28069">
        <ele>64.2</ele>
        <time>2020-08-12T17:26:04Z</time>
      </trkpt>
      <trkpt lat="46.856767" lon="-1.280147">
        <ele>64.2</ele>
        <time>2020-08-12T17:26:07Z</time>
      </trkpt>
      <trkpt lat="46.855949" lon="-1.279483">
        <ele>65.0</ele>
        <time>2020-08-12T17:26:11Z</time>
      </trkpt>
      <trkpt lat="46.855354" lon="-1.278966">
        <ele>66.2</ele>
        <time>2020-08-12T17:26:14Z</time>
      </trkpt>
      <trkpt lat="46.854664" lon="-1.278321">
        <ele>67.2</ele>
        <time>2020-08-12T17:26:17Z</time>
      </trkpt>
      <trkpt lat="46.853793" lon="-1.277437">
        <ele>67.8</ele>
        <time>2020-08-12T17:26:21Z</time>
      </trkpt>
      <trkpt lat="46.853049" lon="-1.276621">
        <ele>68.4</ele>
        <time>2020-08-12T17:26:25Z</time>
      </trkpt>
      <trkpt lat="46.852414" lon="-1.27587">
        <ele>69.4</ele>
        <time>2020-08-12T17:26:28Z</time>
      </trkpt>
      <trkpt lat="46.85171" lon="-1.274974">
        <ele>70.0</ele>
        <time>2020-08-12T17:26:32Z</time>
      </trkpt>
      <trkpt lat="46.850751" lon="-1.273649">
        <ele>71.6</ele>
        <time>2020-08-12T17:26:38Z</time>
      </trkpt>
      <trkpt lat="46.850047" lon="-1.272575">
        <ele>70.6</ele>
        <time>2020-08-12T17:26:42Z</time>
      </trkpt>
      <trkpt lat="46.849433" lon="-1.271566">
        <ele>69.8</ele>
        <time>2020-08-12T17:26:46Z</time>
      </trkpt>
      <trkpt lat="46.848979" lon="-1.270763">
        <ele>70.8</ele>
        <time>2020-08-12T17:26:49Z</time>
      </trkpt>
      <trkpt lat="46.848194" lon="-1.269281">
        <ele>70.2</ele>
        <time>2020-08-12T17:26:54Z</time>
      </trkpt>
      <trkpt lat="46.847799" lon="-1.268469">
        <ele>68.8</ele>
        <time>2020-08-12T17:26:57Z</time>
      </trkpt>
      <trkpt lat="46.84716" lon="-1.267038">
        <ele>67.0</ele>
        <time>2020-08-12T17:27:01Z</time>
      </trkpt>
      <trkpt lat="46.84674" lon="-1.266015">
        <ele>66.4</ele>
        <time>2020-08-12T17:27:05Z</time>
      </trkpt>
      <trkpt lat="46.846287" lon="-1.26482">
        <ele>63.8</ele>
        <time>2020-08-12T17:27:08Z</time>
      </trkpt>
      <trkpt lat="46.845952" lon="-1.263859">
        <ele>59.4</ele>
        <time>2020-08-12T17:27:11Z</time>
      </trkpt>
      <trkpt lat="46.845482" lon="-1.262368">
        <ele>57.2</ele>
        <time>2020-08-12T17:27:16Z</time>
      </trkpt>
      <trkpt lat="46.845169" lon="-1.26127">
        <ele>60.8</ele>
        <time>2020-08-12T17:27:19Z</time>
      </trkpt>
      <trkpt lat="46.844841" lon="-1.260017">
        <ele>64.2</ele>
        <time>2020-08-12T17:27:23Z</time>
      </trkpt>
      <trkpt lat="46.844507" lon="-1.258551">
        <ele>66.4</ele>
        <time>2020-08-12T17:27:27Z</time>
      </trkpt>
      <trkpt lat="46.844247" lon="-1.25724">
        <ele>68.6</ele>
        <time>2020-08-12T17:27:31Z</time>
      </trkpt>
      <trkpt lat="46.844019" lon="-1.255919">
        <ele>69.8</ele>
        <time>2020-08-12T17:27:35Z</time>
      </trkpt>
      <trkpt lat="46.843844" lon="-1.254759">
        <ele>71.4</ele>
        <time>2020-08-12T17:27:38Z</time>
      </trkpt>
      <trkpt lat="46.843227" lon="-1.250097">
        <ele>72.8</ele>
        <time>2020-08-12T17:27:52Z</time>
      </trkpt>
      <trkpt lat="46.842985" lon="-1.248436">
        <ele>73.2</ele>
        <time>2020-08-12T17:27:56Z</time>
      </trkpt>
      <trkpt lat="46.842765" lon="-1.247126">
        <ele>76.2</ele>
        <time>2020-08-12T17:28:00Z</time>
      </trkpt>
      <trkpt lat="46.84244" lon="-1.245491">
        <ele>78.8</ele>
        <time>2020-08-12T17:28:05Z</time>
      </trkpt>
      <trkpt lat="46.842145" lon="-1.244214">
        <ele>78.2</ele>
        <time>2020-08-12T17:28:09Z</time>
      </trkpt>
      <trkpt lat="46.841895" lon="-1.243246">
        <ele>77.8</ele>
        <time>2020-08-12T17:28:12Z</time>
      </trkpt>
      <trkpt lat="46.841543" lon="-1.242002">
        <ele>77.6</ele>
        <time>2020-08-12T17:28:15Z</time>
      </trkpt>
      <trkpt lat="46.840997" lon="-1.240302">
        <ele>74.2</ele>
        <time>2020-08-12T17:28:21Z</time>
      </trkpt>
      <trkpt lat="46.840681" lon="-1.239414">
        <ele>73.2</ele>
        <time>2020-08-12T17:28:23Z</time>
      </trkpt>
      <trkpt lat="46.840271" lon="-1.238354">
        <ele>74.4</ele>
        <time>2020-08-12T17:28:27Z</time>
      </trkpt>
      <trkpt lat="46.839912" lon="-1.237483">
        <ele>76.6</ele>
        <time>2020-08-12T17:28:30Z</time>
      </trkpt>
      <trkpt lat="46.839536" lon="-1.236625">
        <ele>77.4</ele>
        <time>2020-08-12T17:28:32Z</time>
      </trkpt>
      <trkpt lat="46.839071" lon="-1.235642">
        <ele>77.8</ele>
        <time>2020-08-12T17:28:36Z</time>
      </trkpt>
      <trkpt lat="46.838443" lon="-1.234417">
        <ele>78.8</ele>
        <time>2020-08-12T17:28:40Z</time>
      </trkpt>
      <trkpt lat="46.837706" lon="-1.233107">
        <ele>81.2</ele>
        <time>2020-08-12T17:28:45Z</time>
      </trkpt>
      <trkpt lat="46.837238" lon="-1.232334">
        <ele>81.2</ele>
        <time>2020-08-12T17:28:48Z</time>
      </trkpt>
      <trkpt lat="46.836759" lon="-1.231589">
        <ele>81.4</ele>
        <time>2020-08-12T17:28:51Z</time>
      </trkpt>
      <trkpt lat="46.835932" lon="-1.230401">
        <ele>81.2</ele>
        <time>2020-08-12T17:28:55Z</time>
      </trkpt>
      <trkpt lat="46.835145" lon="-1.22937">
        <ele>80.8</ele>
        <time>2020-08-12T17:29:00Z</time>
      </trkpt>
      <trkpt lat="46.834619" lon="-1.22873">
        <ele>81.0</ele>
        <time>2020-08-12T17:29:02Z</time>
      </trkpt>
      <trkpt lat="46.834067" lon="-1.228096">
        <ele>81.0</ele>
        <time>2020-08-12T17:29:05Z</time>
      </trkpt>
      <trkpt lat="46.833116" lon="-1.227086">
        <ele>82.0</ele>
        <time>2020-08-12T17:29:10Z</time>
      </trkpt>
      <trkpt lat="46.832048" lon="-1.22607">
        <ele>83.0</ele>
        <time>2020-08-12T17:29:15Z</time>
      </trkpt>
      <trkpt lat="46.830827" lon="-1.225032">
        <ele>80.2</ele>
        <time>2020-08-12T17:29:21Z</time>
      </trkpt>
      <trkpt lat="46.8299" lon="-1.224309">
        <ele>82.4</ele>
        <time>2020-08-12T17:29:25Z</time>
      </trkpt>
      <trkpt lat="46.828923" lon="-1.223584">
        <ele>84.0</ele>
        <time>2020-08-12T17:29:30Z</time>
      </trkpt>
      <trkpt lat="46.818515" lon="-1.216223">
        <ele>93.0</ele>
        <time>2020-08-12T17:30:17Z</time>
      </trkpt>
      <trkpt lat="46.816941" lon="-1.21508">
        <ele>96.4</ele>
        <time>2020-08-12T17:30:24Z</time>
      </trkpt>
      <trkpt lat="46.815108" lon="-1.213671">
        <ele>96.2</ele>
        <time>2020-08-12T17:30:33Z</time>
      </trkpt>
      <trkpt lat="46.814208" lon="-1.212951">
        <ele>95.8</ele>
        <time>2020-08-12T17:30:37Z</time>
      </trkpt>
      <trkpt lat="46.806516" lon="-1.206651">
        <ele>96.4</ele>
        <time>2020-08-12T17:31:13Z</time>
      </trkpt>
      <trkpt lat="46.805111" lon="-1.205586">
        <ele>95.6</ele>
        <time>2020-08-12T17:31:19Z</time>
      </trkpt>
      <trkpt lat="46.803011" lon="-1.204138">
        <ele>92.6</ele>
        <time>2020-08-12T17:31:29Z</time>
      </trkpt>
      <trkpt lat="46.802062" lon="-1.203535">
        <ele>90.8</ele>
        <time>2020-08-12T17:31:33Z</time>
      </trkpt>
      <trkpt lat="46.800809" lon="-1.202782">
        <ele>88.0</ele>
        <time>2020-08-12T17:31:38Z</time>
      </trkpt>
      <trkpt lat="46.799907" lon="-1.202276">
        <ele>87.4</ele>
        <time>2020-08-12T17:31:42Z</time>
      </trkpt>
      <trkpt lat="46.798735" lon="-1.201656">
        <ele>87.4</ele>
        <time>2020-08-12T17:31:47Z</time>
      </trkpt>
      <trkpt lat="46.79753" lon="-1.201068">
        <ele>86.0</ele>
        <time>2020-08-12T17:31:53Z</time>
      </trkpt>
      <trkpt lat="46.796947" lon="-1.200794">
        <ele>84.2</ele>
        <time>2020-08-12T17:31:55Z</time>
      </trkpt>
      <trkpt lat="46.795598" lon="-1.200213">
        <ele>81.6</ele>
        <time>2020-08-12T17:32:01Z</time>
      </trkpt>
      <trkpt lat="46.789297" lon="-1.197665">
        <ele>76.6</ele>
        <time>2020-08-12T17:32:28Z</time>
      </trkpt>
      <trkpt lat="46.788421" lon="-1.197286">
        <ele>79.0</ele>
        <time>2020-08-12T17:32:31Z</time>
      </trkpt>
      <trkpt lat="46.78754" lon="-1.196869">
        <ele>80.6</ele>
        <time>2020-08-12T17:32:35Z</time>
      </trkpt>
      <trkpt lat="46.786689" lon="-1.196429">
        <ele>84.0</ele>
        <time>2020-08-12T17:32:39Z</time>
      </trkpt>
      <trkpt lat="46.785732" lon="-1.195896">
        <ele>90.8</ele>
        <time>2020-08-12T17:32:43Z</time>
      </trkpt>
      <trkpt lat="46.784566" lon="-1.19518">
        <ele>90.6</ele>
        <time>2020-08-12T17:32:48Z</time>
      </trkpt>
      <trkpt lat="46.783727" lon="-1.194621">
        <ele>92.4</ele>
        <time>2020-08-12T17:32:52Z</time>
      </trkpt>
      <trkpt lat="46.78291" lon="-1.194041">
        <ele>96.4</ele>
        <time>2020-08-12T17:32:56Z</time>
      </trkpt>
      <trkpt lat="46.781956" lon="-1.193314">
        <ele>99.6</ele>
        <time>2020-08-12T17:33:00Z</time>
      </trkpt>
      <trkpt lat="46.780911" lon="-1.192459">
        <ele>102.4</ele>
        <time>2020-08-12T17:33:05Z</time>
      </trkpt>
      <trkpt lat="46.780193" lon="-1.191829">
        <ele>104.0</ele>
        <time>2020-08-12T17:33:08Z</time>
      </trkpt>
      <trkpt lat="46.779391" lon="-1.191086">
        <ele>102.4</ele>
        <time>2020-08-12T17:33:12Z</time>
      </trkpt>
      <trkpt lat="46.778586" lon="-1.190295">
        <ele>100.0</ele>
        <time>2020-08-12T17:33:16Z</time>
      </trkpt>
      <trkpt lat="46.777706" lon="-1.189375">
        <ele>97.8</ele>
        <time>2020-08-12T17:33:21Z</time>
      </trkpt>
      <trkpt lat="46.776852" lon="-1.188428">
        <ele>95.4</ele>
        <time>2020-08-12T17:33:25Z</time>
      </trkpt>
      <trkpt lat="46.776285" lon="-1.187771">
        <ele>93.6</ele>
        <time>2020-08-12T17:33:28Z</time>
      </trkpt>
      <trkpt lat="46.775192" lon="-1.186451">
        <ele>91.4</ele>
        <time>2020-08-12T17:33:34Z</time>
      </trkpt>
      <trkpt lat="46.772624" lon="-1.183291">
        <ele>89.4</ele>
        <time>2020-08-12T17:33:47Z</time>
      </trkpt>
      <trkpt lat="46.771914" lon="-1.18247">
        <ele>83.6</ele>
        <time>2020-08-12T17:33:51Z</time>
      </trkpt>
      <trkpt lat="46.770964" lon="-1.181452">
        <ele>80.8</ele>
        <time>2020-08-12T17:33:56Z</time>
      </trkpt>
      <trkpt lat="46.769765" lon="-1.180293">
        <ele>78.4</ele>
        <time>2020-08-12T17:34:02Z</time>
      </trkpt>
      <trkpt lat="46.768457" lon="-1.179167">
        <ele>77.4</ele>
        <time>2020-08-12T17:34:08Z</time>
      </trkpt>
      <trkpt lat="46.764979" lon="-1.176392">
        <ele>69.6</ele>
        <time>2020-08-12T17:34:24Z</time>
      </trkpt>
      <trkpt lat="46.755445" lon="-1.168793">
        <ele>65.8</ele>
        <time>2020-08-12T17:35:09Z</time>
      </trkpt>
      <trkpt lat="46.754057" lon="-1.16771">
        <ele>71.6</ele>
        <time>2020-08-12T17:35:15Z</time>
      </trkpt>
      <trkpt lat="46.75331" lon="-1.167169">
        <ele>75.2</ele>
        <time>2020-08-12T17:35:18Z</time>
      </trkpt>
      <trkpt lat="46.752127" lon="-1.166373">
        <ele>74.4</ele>
        <time>2020-08-12T17:35:24Z</time>
      </trkpt>
      <trkpt lat="46.751006" lon="-1.165687">
        <ele>75.8</ele>
        <time>2020-08-12T17:35:29Z</time>
      </trkpt>
      <trkpt lat="46.749462" lon="-1.16485">
        <ele>85.2</ele>
        <time>2020-08-12T17:35:35Z</time>
      </trkpt>
      <trkpt lat="46.742531" lon="-1.16153">
        <ele>86.2</ele>
        <time>2020-08-12T17:36:05Z</time>
      </trkpt>
      <trkpt lat="46.741162" lon="-1.160885">
        <ele>90.4</ele>
        <time>2020-08-12T17:36:11Z</time>
      </trkpt>
      <trkpt lat="46.74001" lon="-1.160386">
        <ele>92.4</ele>
        <time>2020-08-12T17:36:16Z</time>
      </trkpt>
      <trkpt lat="46.738606" lon="-1.159842">
        <ele>92.8</ele>
        <time>2020-08-12T17:36:22Z</time>
      </trkpt>
      <trkpt lat="46.737077" lon="-1.159332">
        <ele>96.4</ele>
        <time>2020-08-12T17:36:28Z</time>
      </trkpt>
      <trkpt lat="46.735672" lon="-1.158931">
        <ele>98.2</ele>
        <time>2020-08-12T17:36:34Z</time>
      </trkpt>
      <trkpt lat="46.73391" lon="-1.158528">
        <ele>99.2</ele>
        <time>2020-08-12T17:36:41Z</time>
      </trkpt>
      <trkpt lat="46.729391" lon="-1.157659">
        <ele>95.4</ele>
        <time>2020-08-12T17:37:00Z</time>
      </trkpt>
      <trkpt lat="46.728323" lon="-1.157482">
        <ele>89.8</ele>
        <time>2020-08-12T17:37:04Z</time>
      </trkpt>
      <trkpt lat="46.726298" lon="-1.157226">
        <ele>89.0</ele>
        <time>2020-08-12T17:37:13Z</time>
      </trkpt>
      <trkpt lat="46.7245" lon="-1.157098">
        <ele>94.6</ele>
        <time>2020-08-12T17:37:20Z</time>
      </trkpt>
      <trkpt lat="46.723178" lon="-1.157055">
        <ele>93.0</ele>
        <time>2020-08-12T17:37:25Z</time>
      </trkpt>
      <trkpt lat="46.722227" lon="-1.157055">
        <ele>92.0</ele>
        <time>2020-08-12T17:37:29Z</time>
      </trkpt>
      <trkpt lat="46.720194" lon="-1.157118">
        <ele>90.0</ele>
        <time>2020-08-12T17:37:38Z</time>
      </trkpt>
      <trkpt lat="46.718883" lon="-1.157124">
        <ele>86.0</ele>
        <time>2020-08-12T17:37:43Z</time>
      </trkpt>
      <trkpt lat="46.702854" lon="-1.156648">
        <ele>90.2</ele>
        <time>2020-08-12T17:38:48Z</time>
      </trkpt>
      <trkpt lat="46.701096" lon="-1.156617">
        <ele>94.6</ele>
        <time>2020-08-12T17:38:56Z</time>
      </trkpt>
      <trkpt lat="46.698555" lon="-1.156629">
        <ele>102.4</ele>
        <time>2020-08-12T17:39:06Z</time>
      </trkpt>
      <trkpt lat="46.690898" lon="-1.156844">
        <ele>97.6</ele>
        <time>2020-08-12T17:39:37Z</time>
      </trkpt>
      <trkpt lat="46.689004" lon="-1.156836">
        <ele>95.6</ele>
        <time>2020-08-12T17:39:45Z</time>
      </trkpt>
      <trkpt lat="46.686878" lon="-1.156743">
        <ele>97.6</ele>
        <time>2020-08-12T17:39:54Z</time>
      </trkpt>
      <trkpt lat="46.679771" lon="-1.156179">
        <ele>100.4</ele>
        <time>2020-08-12T17:40:23Z</time>
      </trkpt>
      <trkpt lat="46.678527" lon="-1.156104">
        <ele>100.6</ele>
        <time>2020-08-12T17:40:28Z</time>
      </trkpt>
      <trkpt lat="46.677461" lon="-1.156077">
        <ele>97.8</ele>
        <time>2020-08-12T17:40:32Z</time>
      </trkpt>
      <trkpt lat="46.676157" lon="-1.156098">
        <ele>97.4</ele>
        <time>2020-08-12T17:40:37Z</time>
      </trkpt>
      <trkpt lat="46.674666" lon="-1.156188">
        <ele>94.0</ele>
        <time>2020-08-12T17:40:44Z</time>
      </trkpt>
      <trkpt lat="46.667009" lon="-1.157006">
        <ele>81.2</ele>
        <time>2020-08-12T17:41:15Z</time>
      </trkpt>
      <trkpt lat="46.665744" lon="-1.157105">
        <ele>70.6</ele>
        <time>2020-08-12T17:41:20Z</time>
      </trkpt>
      <trkpt lat="46.664621" lon="-1.157125">
        <ele>60.4</ele>
        <time>2020-08-12T17:41:25Z</time>
      </trkpt>
      <trkpt lat="46.663774" lon="-1.157096">
        <ele>56.2</ele>
        <time>2020-08-12T17:41:28Z</time>
      </trkpt>
      <trkpt lat="46.662901" lon="-1.157014">
        <ele>59.2</ele>
        <time>2020-08-12T17:41:32Z</time>
      </trkpt>
      <trkpt lat="46.662445" lon="-1.156951">
        <ele>63.4</ele>
        <time>2020-08-12T17:41:34Z</time>
      </trkpt>
      <trkpt lat="46.661951" lon="-1.15687">
        <ele>63.4</ele>
        <time>2020-08-12T17:41:36Z</time>
      </trkpt>
      <trkpt lat="46.661035" lon="-1.15668">
        <ele>67.0</ele>
        <time>2020-08-12T17:41:39Z</time>
      </trkpt>
      <trkpt lat="46.660343" lon="-1.156499">
        <ele>65.4</ele>
        <time>2020-08-12T17:41:42Z</time>
      </trkpt>
      <trkpt lat="46.659662" lon="-1.156292">
        <ele>68.2</ele>
        <time>2020-08-12T17:41:45Z</time>
      </trkpt>
      <trkpt lat="46.65898" lon="-1.156057">
        <ele>71.8</ele>
        <time>2020-08-12T17:41:48Z</time>
      </trkpt>
      <trkpt lat="46.65807" lon="-1.155699">
        <ele>73.8</ele>
        <time>2020-08-12T17:41:52Z</time>
      </trkpt>
      <trkpt lat="46.657402" lon="-1.155399">
        <ele>77.8</ele>
        <time>2020-08-12T17:41:55Z</time>
      </trkpt>
      <trkpt lat="46.656518" lon="-1.154958">
        <ele>76.8</ele>
        <time>2020-08-12T17:41:58Z</time>
      </trkpt>
      <trkpt lat="46.653692" lon="-1.153386">
        <ele>88.0</ele>
        <time>2020-08-12T17:42:11Z</time>
      </trkpt>
      <trkpt lat="46.652484" lon="-1.152793">
        <ele>92.8</ele>
        <time>2020-08-12T17:42:16Z</time>
      </trkpt>
      <trkpt lat="46.651229" lon="-1.152283">
        <ele>92.4</ele>
        <time>2020-08-12T17:42:21Z</time>
      </trkpt>
      <trkpt lat="46.650199" lon="-1.15194">
        <ele>90.8</ele>
        <time>2020-08-12T17:42:26Z</time>
      </trkpt>
      <trkpt lat="46.649508" lon="-1.151748">
        <ele>89.8</ele>
        <time>2020-08-12T17:42:29Z</time>
      </trkpt>
      <trkpt lat="46.648046" lon="-1.151436">
        <ele>91.2</ele>
        <time>2020-08-12T17:42:35Z</time>
      </trkpt>
      <trkpt lat="46.646002" lon="-1.151136">
        <ele>93.0</ele>
        <time>2020-08-12T17:42:43Z</time>
      </trkpt>
      <trkpt lat="46.634459" lon="-1.149742">
        <ele>93.2</ele>
        <time>2020-08-12T17:43:30Z</time>
      </trkpt>
      <trkpt lat="46.633003" lon="-1.149545">
        <ele>91.6</ele>
        <time>2020-08-12T17:43:36Z</time>
      </trkpt>
      <trkpt lat="46.631361" lon="-1.149231">
        <ele>86.2</ele>
        <time>2020-08-12T17:43:43Z</time>
      </trkpt>
      <trkpt lat="46.629937" lon="-1.148852">
        <ele>85.0</ele>
        <time>2020-08-12T17:43:49Z</time>
      </trkpt>
      <trkpt lat="46.629117" lon="-1.14859">
        <ele>85.2</ele>
        <time>2020-08-12T17:43:52Z</time>
      </trkpt>
      <trkpt lat="46.627977" lon="-1.14817">
        <ele>86.6</ele>
        <time>2020-08-12T17:43:57Z</time>
      </trkpt>
      <trkpt lat="46.626365" lon="-1.147457">
        <ele>83.8</ele>
        <time>2020-08-12T17:44:04Z</time>
      </trkpt>
      <trkpt lat="46.625766" lon="-1.147159">
        <ele>81.8</ele>
        <time>2020-08-12T17:44:07Z</time>
      </trkpt>
      <trkpt lat="46.623824" lon="-1.146072">
        <ele>77.6</ele>
        <time>2020-08-12T17:44:15Z</time>
      </trkpt>
      <trkpt lat="46.619863" lon="-1.143723">
        <ele>81.0</ele>
        <time>2020-08-12T17:44:32Z</time>
      </trkpt>
      <trkpt lat="46.617196" lon="-1.142176">
        <ele>73.2</ele>
        <time>2020-08-12T17:44:44Z</time>
      </trkpt>
      <trkpt lat="46.615649" lon="-1.141363">
        <ele>74.0</ele>
        <time>2020-08-12T17:44:51Z</time>
      </trkpt>
      <trkpt lat="46.614723" lon="-1.140936">
        <ele>73.6</ele>
        <time>2020-08-12T17:44:55Z</time>
      </trkpt>
      <trkpt lat="46.614044" lon="-1.140658">
        <ele>71.8</ele>
        <time>2020-08-12T17:44:58Z</time>
      </trkpt>
      <trkpt lat="46.613226" lon="-1.140364">
        <ele>69.2</ele>
        <time>2020-08-12T17:45:01Z</time>
      </trkpt>
      <trkpt lat="46.612532" lon="-1.140149">
        <ele>69.2</ele>
        <time>2020-08-12T17:45:04Z</time>
      </trkpt>
      <trkpt lat="46.611598" lon="-1.139906">
        <ele>68.2</ele>
        <time>2020-08-12T17:45:08Z</time>
      </trkpt>
      <trkpt lat="46.610992" lon="-1.139777">
        <ele>68.2</ele>
        <time>2020-08-12T17:45:10Z</time>
      </trkpt>
      <trkpt lat="46.609353" lon="-1.139504">
        <ele>64.6</ele>
        <time>2020-08-12T17:45:17Z</time>
      </trkpt>
      <trkpt lat="46.605434" lon="-1.139022">
        <ele>57.6</ele>
        <time>2020-08-12T17:45:33Z</time>
      </trkpt>
      <trkpt lat="46.604237" lon="-1.138791">
        <ele>56.8</ele>
        <time>2020-08-12T17:45:38Z</time>
      </trkpt>
      <trkpt lat="46.603531" lon="-1.1386">
        <ele>57.8</ele>
        <time>2020-08-12T17:45:41Z</time>
      </trkpt>
      <trkpt lat="46.602603" lon="-1.138277">
        <ele>58.0</ele>
        <time>2020-08-12T17:45:45Z</time>
      </trkpt>
      <trkpt lat="46.601604" lon="-1.137833">
        <ele>58.2</ele>
        <time>2020-08-12T17:45:49Z</time>
      </trkpt>
      <trkpt lat="46.600703" lon="-1.137344">
        <ele>60.2</ele>
        <time>2020-08-12T17:45:53Z</time>
      </trkpt>
      <trkpt lat="46.599793" lon="-1.136754">
        <ele>61.6</ele>
        <time>2020-08-12T17:45:57Z</time>
      </trkpt>
      <trkpt lat="46.599103" lon="-1.136241">
        <ele>58.0</ele>
        <time>2020-08-12T17:46:00Z</time>
      </trkpt>
      <trkpt lat="46.598393" lon="-1.135649">
        <ele>56.6</ele>
        <time>2020-08-12T17:46:04Z</time>
      </trkpt>
      <trkpt lat="46.598007" lon="-1.135295">
        <ele>54.2</ele>
        <time>2020-08-12T17:46:06Z</time>
      </trkpt>
      <trkpt lat="46.597391" lon="-1.134686">
        <ele>53.2</ele>
        <time>2020-08-12T17:46:09Z</time>
      </trkpt>
      <trkpt lat="46.596813" lon="-1.13406">
        <ele>53.6</ele>
        <time>2020-08-12T17:46:12Z</time>
      </trkpt>
      <trkpt lat="46.596179" lon="-1.133294">
        <ele>55.6</ele>
        <time>2020-08-12T17:46:15Z</time>
      </trkpt>
      <trkpt lat="46.595664" lon="-1.132618">
        <ele>58.2</ele>
        <time>2020-08-12T17:46:18Z</time>
      </trkpt>
      <trkpt lat="46.595109" lon="-1.131817">
        <ele>56.6</ele>
        <time>2020-08-12T17:46:21Z</time>
      </trkpt>
      <trkpt lat="46.59344" lon="-1.129204">
        <ele>51.6</ele>
        <time>2020-08-12T17:46:31Z</time>
      </trkpt>
      <trkpt lat="46.592753" lon="-1.128219">
        <ele>49.2</ele>
        <time>2020-08-12T17:46:35Z</time>
      </trkpt>
      <trkpt lat="46.591951" lon="-1.127165">
        <ele>47.4</ele>
        <time>2020-08-12T17:46:39Z</time>
      </trkpt>
      <trkpt lat="46.591191" lon="-1.126244">
        <ele>43.0</ele>
        <time>2020-08-12T17:46:43Z</time>
      </trkpt>
      <trkpt lat="46.590622" lon="-1.125608">
        <ele>32.6</ele>
        <time>2020-08-12T17:46:46Z</time>
      </trkpt>
      <trkpt lat="46.589857" lon="-1.124803">
        <ele>22.4</ele>
        <time>2020-08-12T17:46:50Z</time>
      </trkpt>
      <trkpt lat="46.589006" lon="-1.123984">
        <ele>15.6</ele>
        <time>2020-08-12T17:46:54Z</time>
      </trkpt>
      <trkpt lat="46.587869" lon="-1.123005">
        <ele>13.6</ele>
        <time>2020-08-12T17:47:00Z</time>
      </trkpt>
      <trkpt lat="46.587239" lon="-1.122508">
        <ele>14.2</ele>
        <time>2020-08-12T17:47:03Z</time>
      </trkpt>
      <trkpt lat="46.584431" lon="-1.120403">
        <ele>24.2</ele>
        <time>2020-08-12T17:47:16Z</time>
      </trkpt>
      <trkpt lat="46.583041" lon="-1.119422">
        <ele>28.0</ele>
        <time>2020-08-12T17:47:22Z</time>
      </trkpt>
      <trkpt lat="46.58149" lon="-1.118423">
        <ele>33.0</ele>
        <time>2020-08-12T17:47:29Z</time>
      </trkpt>
      <trkpt lat="46.58034" lon="-1.117751">
        <ele>34.4</ele>
        <time>2020-08-12T17:47:34Z</time>
      </trkpt>
      <trkpt lat="46.574412" lon="-1.114515">
        <ele>37.0</ele>
        <time>2020-08-12T17:48:00Z</time>
      </trkpt>
      <trkpt lat="46.572847" lon="-1.11357">
        <ele>36.2</ele>
        <time>2020-08-12T17:48:07Z</time>
      </trkpt>
      <trkpt lat="46.571786" lon="-1.112877">
        <ele>36.4</ele>
        <time>2020-08-12T17:48:11Z</time>
      </trkpt>
      <trkpt lat="46.571246" lon="-1.112503">
        <ele>38.4</ele>
        <time>2020-08-12T17:48:14Z</time>
      </trkpt>
      <trkpt lat="46.568527" lon="-1.110525">
        <ele>54.4</ele>
        <time>2020-08-12T17:48:26Z</time>
      </trkpt>
      <trkpt lat="46.56587" lon="-1.108565">
        <ele>62.4</ele>
        <time>2020-08-12T17:48:38Z</time>
      </trkpt>
      <trkpt lat="46.565281" lon="-1.108094">
        <ele>62.2</ele>
        <time>2020-08-12T17:48:41Z</time>
      </trkpt>
      <trkpt lat="46.564238" lon="-1.107212">
        <ele>60.4</ele>
        <time>2020-08-12T17:48:46Z</time>
      </trkpt>
      <trkpt lat="46.563518" lon="-1.106563">
        <ele>60.0</ele>
        <time>2020-08-12T17:48:50Z</time>
      </trkpt>
      <trkpt lat="46.562825" lon="-1.105904">
        <ele>58.4</ele>
        <time>2020-08-12T17:48:53Z</time>
      </trkpt>
      <trkpt lat="46.561617" lon="-1.104672">
        <ele>53.2</ele>
        <time>2020-08-12T17:48:59Z</time>
      </trkpt>
      <trkpt lat="46.561032" lon="-1.104038">
        <ele>53.6</ele>
        <time>2020-08-12T17:49:02Z</time>
      </trkpt>
      <trkpt lat="46.56036" lon="-1.103274">
        <ele>51.8</ele>
        <time>2020-08-12T17:49:05Z</time>
      </trkpt>
      <trkpt lat="46.559147" lon="-1.101796">
        <ele>51.6</ele>
        <time>2020-08-12T17:49:12Z</time>
      </trkpt>
      <trkpt lat="46.552616" lon="-1.093475">
        <ele>40.2</ele>
        <time>2020-08-12T17:49:47Z</time>
      </trkpt>
      <trkpt lat="46.551592" lon="-1.092247">
        <ele>39.8</ele>
        <time>2020-08-12T17:49:53Z</time>
      </trkpt>
      <trkpt lat="46.550832" lon="-1.091382">
        <ele>40.0</ele>
        <time>2020-08-12T17:49:57Z</time>
      </trkpt>
      <trkpt lat="46.549754" lon="-1.090218">
        <ele>39.2</ele>
        <time>2020-08-12T17:50:02Z</time>
      </trkpt>
      <trkpt lat="46.548888" lon="-1.089334">
        <ele>37.4</ele>
        <time>2020-08-12T17:50:07Z</time>
      </trkpt>
      <trkpt lat="46.548171" lon="-1.088635">
        <ele>30.6</ele>
        <time>2020-08-12T17:50:10Z</time>
      </trkpt>
      <trkpt lat="46.546758" lon="-1.087336">
        <ele>24.2</ele>
        <time>2020-08-12T17:50:17Z</time>
      </trkpt>
      <trkpt lat="46.545621" lon="-1.086371">
        <ele>21.2</ele>
        <time>2020-08-12T17:50:22Z</time>
      </trkpt>
      <trkpt lat="46.540757" lon="-1.082378">
        <ele>28.6</ele>
        <time>2020-08-12T17:50:45Z</time>
      </trkpt>
      <trkpt lat="46.539677" lon="-1.081438">
        <ele>27.8</ele>
        <time>2020-08-12T17:50:50Z</time>
      </trkpt>
      <trkpt lat="46.538288" lon="-1.080118">
        <ele>30.0</ele>
        <time>2020-08-12T17:50:57Z</time>
      </trkpt>
      <trkpt lat="46.537159" lon="-1.078937">
        <ele>33.0</ele>
        <time>2020-08-12T17:51:03Z</time>
      </trkpt>
      <trkpt lat="46.536036" lon="-1.077666">
        <ele>34.6</ele>
        <time>2020-08-12T17:51:08Z</time>
      </trkpt>
      <trkpt lat="46.535376" lon="-1.076872">
        <ele>35.8</ele>
        <time>2020-08-12T17:51:12Z</time>
      </trkpt>
      <trkpt lat="46.534753" lon="-1.076085">
        <ele>36.6</ele>
        <time>2020-08-12T17:51:15Z</time>
      </trkpt>
      <trkpt lat="46.533791" lon="-1.074793">
        <ele>38.8</ele>
        <time>2020-08-12T17:51:21Z</time>
      </trkpt>
      <trkpt lat="46.532669" lon="-1.073156">
        <ele>40.2</ele>
        <time>2020-08-12T17:51:27Z</time>
      </trkpt>
      <trkpt lat="46.531707" lon="-1.071635">
        <ele>42.2</ele>
        <time>2020-08-12T17:51:33Z</time>
      </trkpt>
      <trkpt lat="46.528104" lon="-1.065652">
        <ele>42.0</ele>
        <time>2020-08-12T17:51:55Z</time>
      </trkpt>
      <trkpt lat="46.527357" lon="-1.06437">
        <ele>42.8</ele>
        <time>2020-08-12T17:52:00Z</time>
      </trkpt>
      <trkpt lat="46.526552" lon="-1.062934">
        <ele>43.2</ele>
        <time>2020-08-12T17:52:05Z</time>
      </trkpt>
      <trkpt lat="46.525823" lon="-1.061582">
        <ele>44.2</ele>
        <time>2020-08-12T17:52:10Z</time>
      </trkpt>
      <trkpt lat="46.525127" lon="-1.06024">
        <ele>44.0</ele>
        <time>2020-08-12T17:52:15Z</time>
      </trkpt>
      <trkpt lat="46.524035" lon="-1.058025">
        <ele>48.0</ele>
        <time>2020-08-12T17:52:22Z</time>
      </trkpt>
      <trkpt lat="46.523379" lon="-1.056623">
        <ele>50.0</ele>
        <time>2020-08-12T17:52:27Z</time>
      </trkpt>
      <trkpt lat="46.522683" lon="-1.05507">
        <ele>50.4</ele>
        <time>2020-08-12T17:52:32Z</time>
      </trkpt>
      <trkpt lat="46.521644" lon="-1.052616">
        <ele>48.2</ele>
        <time>2020-08-12T17:52:40Z</time>
      </trkpt>
      <trkpt lat="46.520657" lon="-1.050117">
        <ele>48.8</ele>
        <time>2020-08-12T17:52:49Z</time>
      </trkpt>
      <trkpt lat="46.519572" lon="-1.047128">
        <ele>47.8</ele>
        <time>2020-08-12T17:52:58Z</time>
      </trkpt>
      <trkpt lat="46.518705" lon="-1.04453">
        <ele>47.0</ele>
        <time>2020-08-12T17:53:06Z</time>
      </trkpt>
      <trkpt lat="46.517896" lon="-1.041898">
        <ele>46.0</ele>
        <time>2020-08-12T17:53:14Z</time>
      </trkpt>
      <trkpt lat="46.517361" lon="-1.040023">
        <ele>45.0</ele>
        <time>2020-08-12T17:53:20Z</time>
      </trkpt>
      <trkpt lat="46.516693" lon="-1.0375">
        <ele>44.8</ele>
        <time>2020-08-12T17:53:28Z</time>
      </trkpt>
      <trkpt lat="46.514931" lon="-1.030356">
        <ele>40.8</ele>
        <time>2020-08-12T17:53:49Z</time>
      </trkpt>
      <trkpt lat="46.514137" lon="-1.027312">
        <ele>34.2</ele>
        <time>2020-08-12T17:53:58Z</time>
      </trkpt>
      <trkpt lat="46.513785" lon="-1.026032">
        <ele>34.0</ele>
        <time>2020-08-12T17:54:02Z</time>
      </trkpt>
      <trkpt lat="46.512984" lon="-1.023263">
        <ele>35.2</ele>
        <time>2020-08-12T17:54:10Z</time>
      </trkpt>
      <trkpt lat="46.511971" lon="-1.019984">
        <ele>37.6</ele>
        <time>2020-08-12T17:54:20Z</time>
      </trkpt>
      <trkpt lat="46.511165" lon="-1.017536">
        <ele>35.2</ele>
        <time>2020-08-12T17:54:28Z</time>
      </trkpt>
      <trkpt lat="46.510054" lon="-1.014364">
        <ele>31.6</ele>
        <time>2020-08-12T17:54:38Z</time>
      </trkpt>
      <trkpt lat="46.495347" lon="-0.974494">
        <ele>36.4</ele>
        <time>2020-08-12T17:56:45Z</time>
      </trkpt>
      <trkpt lat="46.494719" lon="-0.972849">
        <ele>36.0</ele>
        <time>2020-08-12T17:56:50Z</time>
      </trkpt>
      <trkpt lat="46.493945" lon="-0.970925">
        <ele>35.8</ele>
        <time>2020-08-12T17:56:57Z</time>
      </trkpt>
      <trkpt lat="46.493286" lon="-0.969361">
        <ele>35.0</ele>
        <time>2020-08-12T17:57:02Z</time>
      </trkpt>
      <trkpt lat="46.492602" lon="-0.967802">
        <ele>35.4</ele>
        <time>2020-08-12T17:57:07Z</time>
      </trkpt>
      <trkpt lat="46.491895" lon="-0.966258">
        <ele>34.6</ele>
        <time>2020-08-12T17:57:12Z</time>
      </trkpt>
      <trkpt lat="46.491296" lon="-0.964994">
        <ele>34.2</ele>
        <time>2020-08-12T17:57:17Z</time>
      </trkpt>
      <trkpt lat="46.490624" lon="-0.96363">
        <ele>33.6</ele>
        <time>2020-08-12T17:57:21Z</time>
      </trkpt>
      <trkpt lat="46.489348" lon="-0.961169">
        <ele>29.0</ele>
        <time>2020-08-12T17:57:30Z</time>
      </trkpt>
      <trkpt lat="46.488185" lon="-0.959057">
        <ele>30.4</ele>
        <time>2020-08-12T17:57:38Z</time>
      </trkpt>
      <trkpt lat="46.487279" lon="-0.957488">
        <ele>32.6</ele>
        <time>2020-08-12T17:57:43Z</time>
      </trkpt>
      <trkpt lat="46.476172" lon="-0.938698">
        <ele>39.0</ele>
        <time>2020-08-12T17:58:53Z</time>
      </trkpt>
      <trkpt lat="46.474799" lon="-0.936248">
        <ele>37.2</ele>
        <time>2020-08-12T17:59:02Z</time>
      </trkpt>
      <trkpt lat="46.473461" lon="-0.933697">
        <ele>38.0</ele>
        <time>2020-08-12T17:59:11Z</time>
      </trkpt>
      <trkpt lat="46.472705" lon="-0.932177">
        <ele>37.2</ele>
        <time>2020-08-12T17:59:16Z</time>
      </trkpt>
      <trkpt lat="46.471714" lon="-0.930083">
        <ele>36.6</ele>
        <time>2020-08-12T17:59:23Z</time>
      </trkpt>
      <trkpt lat="46.471199" lon="-0.928948">
        <ele>36.8</ele>
        <time>2020-08-12T17:59:27Z</time>
      </trkpt>
      <trkpt lat="46.470214" lon="-0.926677">
        <ele>36.4</ele>
        <time>2020-08-12T17:59:35Z</time>
      </trkpt>
      <trkpt lat="46.469504" lon="-0.924948">
        <ele>33.4</ele>
        <time>2020-08-12T17:59:40Z</time>
      </trkpt>
      <trkpt lat="46.468927" lon="-0.92348">
        <ele>34.8</ele>
        <time>2020-08-12T17:59:45Z</time>
      </trkpt>
      <trkpt lat="46.468146" lon="-0.921393">
        <ele>35.6</ele>
        <time>2020-08-12T17:59:52Z</time>
      </trkpt>
      <trkpt lat="46.467413" lon="-0.919321">
        <ele>34.0</ele>
        <time>2020-08-12T17:59:58Z</time>
      </trkpt>
      <trkpt lat="46.466703" lon="-0.917192">
        <ele>34.8</ele>
        <time>2020-08-12T18:00:05Z</time>
      </trkpt>
      <trkpt lat="46.466209" lon="-0.915622">
        <ele>36.2</ele>
        <time>2020-08-12T18:00:10Z</time>
      </trkpt>
      <trkpt lat="46.465496" lon="-0.913212">
        <ele>38.8</ele>
        <time>2020-08-12T18:00:17Z</time>
      </trkpt>
      <trkpt lat="46.464843" lon="-0.910841">
        <ele>38.2</ele>
        <time>2020-08-12T18:00:24Z</time>
      </trkpt>
      <trkpt lat="46.464314" lon="-0.908779">
        <ele>37.6</ele>
        <time>2020-08-12T18:00:30Z</time>
      </trkpt>
      <trkpt lat="46.463746" lon="-0.906386">
        <ele>35.6</ele>
        <time>2020-08-12T18:00:38Z</time>
      </trkpt>
      <trkpt lat="46.463202" lon="-0.903881">
        <ele>36.8</ele>
        <time>2020-08-12T18:00:45Z</time>
      </trkpt>
      <trkpt lat="46.46288" lon="-0.902276">
        <ele>36.8</ele>
        <time>2020-08-12T18:00:50Z</time>
      </trkpt>
      <trkpt lat="46.462456" lon="-0.899976">
        <ele>36.0</ele>
        <time>2020-08-12T18:00:56Z</time>
      </trkpt>
      <trkpt lat="46.462046" lon="-0.897513">
        <ele>35.8</ele>
        <time>2020-08-12T18:01:03Z</time>
      </trkpt>
      <trkpt lat="46.461773" lon="-0.895695">
        <ele>35.0</ele>
        <time>2020-08-12T18:01:09Z</time>
      </trkpt>
      <trkpt lat="46.461566" lon="-0.894193">
        <ele>34.2</ele>
        <time>2020-08-12T18:01:13Z</time>
      </trkpt>
      <trkpt lat="46.460335" lon="-0.884666">
        <ele>32.2</ele>
        <time>2020-08-12T18:01:40Z</time>
      </trkpt>
      <trkpt lat="46.460192" lon="-0.883699">
        <ele>32.6</ele>
        <time>2020-08-12T18:01:43Z</time>
      </trkpt>
      <trkpt lat="46.45997" lon="-0.882373">
        <ele>31.2</ele>
        <time>2020-08-12T18:01:47Z</time>
      </trkpt>
      <trkpt lat="46.459699" lon="-0.880916">
        <ele>30.2</ele>
        <time>2020-08-12T18:01:51Z</time>
      </trkpt>
      <trkpt lat="46.45943" lon="-0.879616">
        <ele>28.0</ele>
        <time>2020-08-12T18:01:55Z</time>
      </trkpt>
      <trkpt lat="46.459098" lon="-0.878156">
        <ele>23.6</ele>
        <time>2020-08-12T18:01:59Z</time>
      </trkpt>
      <trkpt lat="46.458821" lon="-0.877038">
        <ele>20.2</ele>
        <time>2020-08-12T18:02:03Z</time>
      </trkpt>
      <trkpt lat="46.458485" lon="-0.875789">
        <ele>23.6</ele>
        <time>2020-08-12T18:02:06Z</time>
      </trkpt>
      <trkpt lat="46.457936" lon="-0.873908">
        <ele>30.2</ele>
        <time>2020-08-12T18:02:12Z</time>
      </trkpt>
      <trkpt lat="46.45764" lon="-0.872968">
        <ele>30.4</ele>
        <time>2020-08-12T18:02:15Z</time>
      </trkpt>
      <trkpt lat="46.456992" lon="-0.871072">
        <ele>25.8</ele>
        <time>2020-08-12T18:02:21Z</time>
      </trkpt>
      <trkpt lat="46.456404" lon="-0.869511">
        <ele>23.0</ele>
        <time>2020-08-12T18:02:26Z</time>
      </trkpt>
      <trkpt lat="46.455592" lon="-0.86755">
        <ele>31.4</ele>
        <time>2020-08-12T18:02:32Z</time>
      </trkpt>
      <trkpt lat="46.455169" lon="-0.866593">
        <ele>33.6</ele>
        <time>2020-08-12T18:02:36Z</time>
      </trkpt>
      <trkpt lat="46.454669" lon="-0.865527">
        <ele>33.2</ele>
        <time>2020-08-12T18:02:39Z</time>
      </trkpt>
      <trkpt lat="46.454118" lon="-0.864412">
        <ele>31.6</ele>
        <time>2020-08-12T18:02:43Z</time>
      </trkpt>
      <trkpt lat="46.452946" lon="-0.8622">
        <ele>30.6</ele>
        <time>2020-08-12T18:02:51Z</time>
      </trkpt>
      <trkpt lat="46.452207" lon="-0.860964">
        <ele>33.0</ele>
        <time>2020-08-12T18:02:56Z</time>
      </trkpt>
      <trkpt lat="46.451299" lon="-0.859514">
        <ele>36.6</ele>
        <time>2020-08-12T18:03:01Z</time>
      </trkpt>
      <trkpt lat="46.442082" lon="-0.845321">
        <ele>6.6</ele>
        <time>2020-08-12T18:03:56Z</time>
      </trkpt>
      <trkpt lat="46.441712" lon="-0.844736">
        <ele>6.8</ele>
        <time>2020-08-12T18:03:58Z</time>
      </trkpt>
      <trkpt lat="46.440782" lon="-0.843189">
        <ele>4.0</ele>
        <time>2020-08-12T18:04:04Z</time>
      </trkpt>
      <trkpt lat="46.43964" lon="-0.841087">
        <ele>5.0</ele>
        <time>2020-08-12T18:04:11Z</time>
      </trkpt>
      <trkpt lat="46.438883" lon="-0.83956">
        <ele>7.6</ele>
        <time>2020-08-12T18:04:17Z</time>
      </trkpt>
      <trkpt lat="46.438345" lon="-0.838392">
        <ele>8.0</ele>
        <time>2020-08-12T18:04:21Z</time>
      </trkpt>
      <trkpt lat="46.437978" lon="-0.837555">
        <ele>18.0</ele>
        <time>2020-08-12T18:04:24Z</time>
      </trkpt>
      <trkpt lat="46.437425" lon="-0.836216">
        <ele>28.0</ele>
        <time>2020-08-12T18:04:28Z</time>
      </trkpt>
      <trkpt lat="46.436757" lon="-0.834453">
        <ele>26.4</ele>
        <time>2020-08-12T18:04:34Z</time>
      </trkpt>
      <trkpt lat="46.436163" lon="-0.832735">
        <ele>25.8</ele>
        <time>2020-08-12T18:04:39Z</time>
      </trkpt>
      <trkpt lat="46.435783" lon="-0.831535">
        <ele>24.2</ele>
        <time>2020-08-12T18:04:43Z</time>
      </trkpt>
      <trkpt lat="46.435365" lon="-0.830113">
        <ele>23.4</ele>
        <time>2020-08-12T18:04:47Z</time>
      </trkpt>
      <trkpt lat="46.434982" lon="-0.828685">
        <ele>21.2</ele>
        <time>2020-08-12T18:04:51Z</time>
      </trkpt>
      <trkpt lat="46.434605" lon="-0.827135">
        <ele>20.4</ele>
        <time>2020-08-12T18:04:56Z</time>
      </trkpt>
      <trkpt lat="46.434174" lon="-0.825128">
        <ele>19.2</ele>
        <time>2020-08-12T18:05:02Z</time>
      </trkpt>
      <trkpt lat="46.433942" lon="-0.823895">
        <ele>17.0</ele>
        <time>2020-08-12T18:05:05Z</time>
      </trkpt>
      <trkpt lat="46.43354" lon="-0.821376">
        <ele>17.2</ele>
        <time>2020-08-12T18:05:13Z</time>
      </trkpt>
      <trkpt lat="46.433287" lon="-0.819377">
        <ele>17.4</ele>
        <time>2020-08-12T18:05:18Z</time>
      </trkpt>
      <trkpt lat="46.432515" lon="-0.812164">
        <ele>16.8</ele>
        <time>2020-08-12T18:05:39Z</time>
      </trkpt>
      <trkpt lat="46.432315" lon="-0.810649">
        <ele>15.8</ele>
        <time>2020-08-12T18:05:43Z</time>
      </trkpt>
      <trkpt lat="46.432142" lon="-0.809495">
        <ele>15.2</ele>
        <time>2020-08-12T18:05:47Z</time>
      </trkpt>
      <trkpt lat="46.43186" lon="-0.807846">
        <ele>13.8</ele>
        <time>2020-08-12T18:05:51Z</time>
      </trkpt>
      <trkpt lat="46.431508" lon="-0.806058">
        <ele>12.8</ele>
        <time>2020-08-12T18:05:57Z</time>
      </trkpt>
      <trkpt lat="46.431106" lon="-0.80426">
        <ele>11.6</ele>
        <time>2020-08-12T18:06:02Z</time>
      </trkpt>
      <trkpt lat="46.430663" lon="-0.802504">
        <ele>11.6</ele>
        <time>2020-08-12T18:06:07Z</time>
      </trkpt>
      <trkpt lat="46.430226" lon="-0.80093">
        <ele>14.6</ele>
        <time>2020-08-12T18:06:12Z</time>
      </trkpt>
      <trkpt lat="46.429848" lon="-0.799681">
        <ele>13.0</ele>
        <time>2020-08-12T18:06:16Z</time>
      </trkpt>
      <trkpt lat="46.429135" lon="-0.797534">
        <ele>13.0</ele>
        <time>2020-08-12T18:06:23Z</time>
      </trkpt>
      <trkpt lat="46.4287" lon="-0.796342">
        <ele>12.2</ele>
        <time>2020-08-12T18:06:26Z</time>
      </trkpt>
      <trkpt lat="46.424328" lon="-0.785263">
        <ele>16.0</ele>
        <time>2020-08-12T18:07:02Z</time>
      </trkpt>
      <trkpt lat="46.423497" lon="-0.783019">
        <ele>18.8</ele>
        <time>2020-08-12T18:07:09Z</time>
      </trkpt>
      <trkpt lat="46.422985" lon="-0.781509">
        <ele>17.4</ele>
        <time>2020-08-12T18:07:14Z</time>
      </trkpt>
      <trkpt lat="46.42249" lon="-0.779958">
        <ele>16.6</ele>
        <time>2020-08-12T18:07:19Z</time>
      </trkpt>
      <trkpt lat="46.422115" lon="-0.778703">
        <ele>16.8</ele>
        <time>2020-08-12T18:07:23Z</time>
      </trkpt>
      <trkpt lat="46.421715" lon="-0.77729">
        <ele>16.8</ele>
        <time>2020-08-12T18:07:27Z</time>
      </trkpt>
      <trkpt lat="46.421334" lon="-0.775845">
        <ele>16.0</ele>
        <time>2020-08-12T18:07:32Z</time>
      </trkpt>
      <trkpt lat="46.420982" lon="-0.774399">
        <ele>16.8</ele>
        <time>2020-08-12T18:07:36Z</time>
      </trkpt>
      <trkpt lat="46.420728" lon="-0.773284">
        <ele>15.6</ele>
        <time>2020-08-12T18:07:39Z</time>
      </trkpt>
      <trkpt lat="46.420419" lon="-0.771826">
        <ele>16.0</ele>
        <time>2020-08-12T18:07:43Z</time>
      </trkpt>
      <trkpt lat="46.4201" lon="-0.770176">
        <ele>17.6</ele>
        <time>2020-08-12T18:07:48Z</time>
      </trkpt>
      <trkpt lat="46.419841" lon="-0.768697">
        <ele>15.4</ele>
        <time>2020-08-12T18:07:53Z</time>
      </trkpt>
      <trkpt lat="46.419511" lon="-0.766557">
        <ele>16.2</ele>
        <time>2020-08-12T18:07:59Z</time>
      </trkpt>
      <trkpt lat="46.41931" lon="-0.76505">
        <ele>16.6</ele>
        <time>2020-08-12T18:08:03Z</time>
      </trkpt>
      <trkpt lat="46.419082" lon="-0.763032">
        <ele>16.8</ele>
        <time>2020-08-12T18:08:09Z</time>
      </trkpt>
      <trkpt lat="46.418909" lon="-0.761172">
        <ele>17.2</ele>
        <time>2020-08-12T18:08:14Z</time>
      </trkpt>
      <trkpt lat="46.418786" lon="-0.759493">
        <ele>14.6</ele>
        <time>2020-08-12T18:08:19Z</time>
      </trkpt>
      <trkpt lat="46.417206" lon="-0.735463">
        <ele>13.8</ele>
        <time>2020-08-12T18:09:27Z</time>
      </trkpt>
      <trkpt lat="46.417091" lon="-0.733936">
        <ele>13.4</ele>
        <time>2020-08-12T18:09:31Z</time>
      </trkpt>
      <trkpt lat="46.41695" lon="-0.732391">
        <ele>15.0</ele>
        <time>2020-08-12T18:09:35Z</time>
      </trkpt>
      <trkpt lat="46.416656" lon="-0.729726">
        <ele>14.6</ele>
        <time>2020-08-12T18:09:43Z</time>
      </trkpt>
      <trkpt lat="46.416364" lon="-0.727536">
        <ele>14.0</ele>
        <time>2020-08-12T18:09:49Z</time>
      </trkpt>
      <trkpt lat="46.415981" lon="-0.725051">
        <ele>14.4</ele>
        <time>2020-08-12T18:09:56Z</time>
      </trkpt>
      <trkpt lat="46.415475" lon="-0.722247">
        <ele>15.4</ele>
        <time>2020-08-12T18:10:05Z</time>
      </trkpt>
      <trkpt lat="46.415076" lon="-0.72029">
        <ele>15.8</ele>
        <time>2020-08-12T18:10:10Z</time>
      </trkpt>
      <trkpt lat="46.41468" lon="-0.718515">
        <ele>14.8</ele>
        <time>2020-08-12T18:10:16Z</time>
      </trkpt>
      <trkpt lat="46.414213" lon="-0.71659">
        <ele>15.4</ele>
        <time>2020-08-12T18:10:21Z</time>
      </trkpt>
      <trkpt lat="46.413748" lon="-0.714817">
        <ele>15.0</ele>
        <time>2020-08-12T18:10:27Z</time>
      </trkpt>
      <trkpt lat="46.413442" lon="-0.713708">
        <ele>13.6</ele>
        <time>2020-08-12T18:10:30Z</time>
      </trkpt>
      <trkpt lat="46.412847" lon="-0.711699">
        <ele>13.0</ele>
        <time>2020-08-12T18:10:36Z</time>
      </trkpt>
      <trkpt lat="46.412362" lon="-0.710167">
        <ele>14.8</ele>
        <time>2020-08-12T18:10:41Z</time>
      </trkpt>
      <trkpt lat="46.411739" lon="-0.708315">
        <ele>14.4</ele>
        <time>2020-08-12T18:10:47Z</time>
      </trkpt>
      <trkpt lat="46.411087" lon="-0.706498">
        <ele>16.2</ele>
        <time>2020-08-12T18:10:53Z</time>
      </trkpt>
      <trkpt lat="46.410406" lon="-0.704715">
        <ele>16.4</ele>
        <time>2020-08-12T18:10:58Z</time>
      </trkpt>
      <trkpt lat="46.409816" lon="-0.70326">
        <ele>13.2</ele>
        <time>2020-08-12T18:11:03Z</time>
      </trkpt>
      <trkpt lat="46.40901" lon="-0.701371">
        <ele>12.4</ele>
        <time>2020-08-12T18:11:09Z</time>
      </trkpt>
      <trkpt lat="46.408372" lon="-0.699963">
        <ele>9.6</ele>
        <time>2020-08-12T18:11:14Z</time>
      </trkpt>
      <trkpt lat="46.407579" lon="-0.698298">
        <ele>6.6</ele>
        <time>2020-08-12T18:11:20Z</time>
      </trkpt>
      <trkpt lat="46.406669" lon="-0.696493">
        <ele>6.2</ele>
        <time>2020-08-12T18:11:26Z</time>
      </trkpt>
      <trkpt lat="46.405874" lon="-0.695004">
        <ele>7.2</ele>
        <time>2020-08-12T18:11:31Z</time>
      </trkpt>
      <trkpt lat="46.395174" lon="-0.675702">
        <ele>5.0</ele>
        <time>2020-08-12T18:12:41Z</time>
      </trkpt>
      <trkpt lat="46.394381" lon="-0.674188">
        <ele>6.8</ele>
        <time>2020-08-12T18:12:46Z</time>
      </trkpt>
      <trkpt lat="46.393779" lon="-0.672925">
        <ele>6.2</ele>
        <time>2020-08-12T18:12:51Z</time>
      </trkpt>
      <trkpt lat="46.393289" lon="-0.671777">
        <ele>6.8</ele>
        <time>2020-08-12T18:12:54Z</time>
      </trkpt>
      <trkpt lat="46.392777" lon="-0.670411">
        <ele>7.4</ele>
        <time>2020-08-12T18:12:59Z</time>
      </trkpt>
      <trkpt lat="46.392329" lon="-0.669029">
        <ele>8.4</ele>
        <time>2020-08-12T18:13:03Z</time>
      </trkpt>
      <trkpt lat="46.39199" lon="-0.667818">
        <ele>9.4</ele>
        <time>2020-08-12T18:13:07Z</time>
      </trkpt>
      <trkpt lat="46.391715" lon="-0.666677">
        <ele>10.6</ele>
        <time>2020-08-12T18:13:10Z</time>
      </trkpt>
      <trkpt lat="46.391417" lon="-0.665206">
        <ele>11.8</ele>
        <time>2020-08-12T18:13:15Z</time>
      </trkpt>
      <trkpt lat="46.391215" lon="-0.663953">
        <ele>11.4</ele>
        <time>2020-08-12T18:13:18Z</time>
      </trkpt>
      <trkpt lat="46.39108" lon="-0.662906">
        <ele>11.6</ele>
        <time>2020-08-12T18:13:21Z</time>
      </trkpt>
      <trkpt lat="46.390929" lon="-0.661274">
        <ele>11.8</ele>
        <time>2020-08-12T18:13:26Z</time>
      </trkpt>
      <trkpt lat="46.390851" lon="-0.659687">
        <ele>12.6</ele>
        <time>2020-08-12T18:13:30Z</time>
      </trkpt>
      <trkpt lat="46.390846" lon="-0.657877">
        <ele>13.6</ele>
        <time>2020-08-12T18:13:35Z</time>
      </trkpt>
      <trkpt lat="46.3909" lon="-0.656514">
        <ele>17.4</ele>
        <time>2020-08-12T18:13:39Z</time>
      </trkpt>
      <trkpt lat="46.390984" lon="-0.655345">
        <ele>17.4</ele>
        <time>2020-08-12T18:13:43Z</time>
      </trkpt>
      <trkpt lat="46.391067" lon="-0.654516">
        <ele>18.2</ele>
        <time>2020-08-12T18:13:45Z</time>
      </trkpt>
      <trkpt lat="46.39119" lon="-0.653528">
        <ele>20.4</ele>
        <time>2020-08-12T18:13:48Z</time>
      </trkpt>
      <trkpt lat="46.391408" lon="-0.652157">
        <ele>23.0</ele>
        <time>2020-08-12T18:13:52Z</time>
      </trkpt>
      <trkpt lat="46.391617" lon="-0.651076">
        <ele>23.8</ele>
        <time>2020-08-12T18:13:55Z</time>
      </trkpt>
      <trkpt lat="46.391759" lon="-0.650427">
        <ele>23.4</ele>
        <time>2020-08-12T18:13:57Z</time>
      </trkpt>
      <trkpt lat="46.392169" lon="-0.648829">
        <ele>23.6</ele>
        <time>2020-08-12T18:14:02Z</time>
      </trkpt>
      <trkpt lat="46.392537" lon="-0.647595">
        <ele>21.8</ele>
        <time>2020-08-12T18:14:05Z</time>
      </trkpt>
      <trkpt lat="46.393661" lon="-0.644207">
        <ele>22.8</ele>
        <time>2020-08-12T18:14:16Z</time>
      </trkpt>
      <trkpt lat="46.396188" lon="-0.636853">
        <ele>26.4</ele>
        <time>2020-08-12T18:14:39Z</time>
      </trkpt>
      <trkpt lat="46.396872" lon="-0.634738">
        <ele>29.8</ele>
        <time>2020-08-12T18:14:46Z</time>
      </trkpt>
      <trkpt lat="46.397521" lon="-0.632564">
        <ele>31.6</ele>
        <time>2020-08-12T18:14:52Z</time>
      </trkpt>
      <trkpt lat="46.397998" lon="-0.630837">
        <ele>31.4</ele>
        <time>2020-08-12T18:14:58Z</time>
      </trkpt>
      <trkpt lat="46.398487" lon="-0.62893">
        <ele>32.4</ele>
        <time>2020-08-12T18:15:03Z</time>
      </trkpt>
      <trkpt lat="46.39908" lon="-0.626379">
        <ele>32.2</ele>
        <time>2020-08-12T18:15:11Z</time>
      </trkpt>
      <trkpt lat="46.399488" lon="-0.624435">
        <ele>35.4</ele>
        <time>2020-08-12T18:15:17Z</time>
      </trkpt>
      <trkpt lat="46.399973" lon="-0.621841">
        <ele>36.6</ele>
        <time>2020-08-12T18:15:24Z</time>
      </trkpt>
      <trkpt lat="46.400422" lon="-0.619049">
        <ele>38.2</ele>
        <time>2020-08-12T18:15:32Z</time>
      </trkpt>
      <trkpt lat="46.400634" lon="-0.617546">
        <ele>38.6</ele>
        <time>2020-08-12T18:15:37Z</time>
      </trkpt>
      <trkpt lat="46.400899" lon="-0.615392">
        <ele>37.6</ele>
        <time>2020-08-12T18:15:43Z</time>
      </trkpt>
      <trkpt lat="46.402451" lon="-0.6">
        <ele>29.6</ele>
        <time>2020-08-12T18:16:26Z</time>
      </trkpt>
      <trkpt lat="46.402636" lon="-0.598396">
        <ele>30.6</ele>
        <time>2020-08-12T18:16:31Z</time>
      </trkpt>
      <trkpt lat="46.402822" lon="-0.596961">
        <ele>33.0</ele>
        <time>2020-08-12T18:16:35Z</time>
      </trkpt>
      <trkpt lat="46.403105" lon="-0.595075">
        <ele>34.2</ele>
        <time>2020-08-12T18:16:41Z</time>
      </trkpt>
      <trkpt lat="46.403493" lon="-0.592949">
        <ele>33.8</ele>
        <time>2020-08-12T18:16:47Z</time>
      </trkpt>
      <trkpt lat="46.403981" lon="-0.590673">
        <ele>35.6</ele>
        <time>2020-08-12T18:16:54Z</time>
      </trkpt>
      <trkpt lat="46.4045" lon="-0.588593">
        <ele>40.0</ele>
        <time>2020-08-12T18:17:00Z</time>
      </trkpt>
      <trkpt lat="46.404952" lon="-0.586976">
        <ele>43.6</ele>
        <time>2020-08-12T18:17:05Z</time>
      </trkpt>
      <trkpt lat="46.405567" lon="-0.584996">
        <ele>44.4</ele>
        <time>2020-08-12T18:17:11Z</time>
      </trkpt>
      <trkpt lat="46.406107" lon="-0.583435">
        <ele>44.0</ele>
        <time>2020-08-12T18:17:16Z</time>
      </trkpt>
      <trkpt lat="46.406387" lon="-0.582671">
        <ele>43.4</ele>
        <time>2020-08-12T18:17:18Z</time>
      </trkpt>
      <trkpt lat="46.406894" lon="-0.581363">
        <ele>42.2</ele>
        <time>2020-08-12T18:17:22Z</time>
      </trkpt>
      <trkpt lat="46.407474" lon="-0.579974">
        <ele>40.8</ele>
        <time>2020-08-12T18:17:27Z</time>
      </trkpt>
      <trkpt lat="46.408057" lon="-0.578659">
        <ele>40.4</ele>
        <time>2020-08-12T18:17:31Z</time>
      </trkpt>
      <trkpt lat="46.408403" lon="-0.57792">
        <ele>40.6</ele>
        <time>2020-08-12T18:17:34Z</time>
      </trkpt>
      <trkpt lat="46.409083" lon="-0.576556">
        <ele>40.0</ele>
        <time>2020-08-12T18:17:39Z</time>
      </trkpt>
      <trkpt lat="46.40986" lon="-0.575092">
        <ele>40.4</ele>
        <time>2020-08-12T18:17:44Z</time>
      </trkpt>
      <trkpt lat="46.410873" lon="-0.573315">
        <ele>42.4</ele>
        <time>2020-08-12T18:17:50Z</time>
      </trkpt>
      <trkpt lat="46.414412" lon="-0.567421">
        <ele>44.6</ele>
        <time>2020-08-12T18:18:12Z</time>
      </trkpt>
      <trkpt lat="46.415263" lon="-0.565959">
        <ele>45.0</ele>
        <time>2020-08-12T18:18:18Z</time>
      </trkpt>
      <trkpt lat="46.416385" lon="-0.563932">
        <ele>45.6</ele>
        <time>2020-08-12T18:18:25Z</time>
      </trkpt>
      <trkpt lat="46.417613" lon="-0.56156">
        <ele>47.8</ele>
        <time>2020-08-12T18:18:33Z</time>
      </trkpt>
      <trkpt lat="46.418408" lon="-0.559944">
        <ele>49.2</ele>
        <time>2020-08-12T18:18:39Z</time>
      </trkpt>
      <trkpt lat="46.419175" lon="-0.558298">
        <ele>51.8</ele>
        <time>2020-08-12T18:18:44Z</time>
      </trkpt>
      <trkpt lat="46.419706" lon="-0.557117">
        <ele>52.0</ele>
        <time>2020-08-12T18:18:48Z</time>
      </trkpt>
      <trkpt lat="46.420495" lon="-0.555284">
        <ele>50.8</ele>
        <time>2020-08-12T18:18:55Z</time>
      </trkpt>
      <trkpt lat="46.421157" lon="-0.55367">
        <ele>51.4</ele>
        <time>2020-08-12T18:19:00Z</time>
      </trkpt>
      <trkpt lat="46.422123" lon="-0.551162">
        <ele>54.8</ele>
        <time>2020-08-12T18:19:08Z</time>
      </trkpt>
      <trkpt lat="46.422866" lon="-0.549095">
        <ele>55.4</ele>
        <time>2020-08-12T18:19:14Z</time>
      </trkpt>
      <trkpt lat="46.423439" lon="-0.547404">
        <ele>54.8</ele>
        <time>2020-08-12T18:19:20Z</time>
      </trkpt>
      <trkpt lat="46.423981" lon="-0.545725">
        <ele>55.6</ele>
        <time>2020-08-12T18:19:25Z</time>
      </trkpt>
      <trkpt lat="46.424451" lon="-0.544188">
        <ele>57.0</ele>
        <time>2020-08-12T18:19:30Z</time>
      </trkpt>
      <trkpt lat="46.424958" lon="-0.542437">
        <ele>57.4</ele>
        <time>2020-08-12T18:19:35Z</time>
      </trkpt>
      <trkpt lat="46.425311" lon="-0.541156">
        <ele>58.6</ele>
        <time>2020-08-12T18:19:39Z</time>
      </trkpt>
      <trkpt lat="46.425844" lon="-0.539103">
        <ele>60.6</ele>
        <time>2020-08-12T18:19:45Z</time>
      </trkpt>
      <trkpt lat="46.426303" lon="-0.537194">
        <ele>59.2</ele>
        <time>2020-08-12T18:19:51Z</time>
      </trkpt>
      <trkpt lat="46.426709" lon="-0.535396">
        <ele>60.8</ele>
        <time>2020-08-12T18:19:56Z</time>
      </trkpt>
      <trkpt lat="46.427112" lon="-0.533471">
        <ele>62.2</ele>
        <time>2020-08-12T18:20:02Z</time>
      </trkpt>
      <trkpt lat="46.42737" lon="-0.532142">
        <ele>62.4</ele>
        <time>2020-08-12T18:20:06Z</time>
      </trkpt>
      <trkpt lat="46.427696" lon="-0.530339">
        <ele>63.8</ele>
        <time>2020-08-12T18:20:11Z</time>
      </trkpt>
      <trkpt lat="46.427997" lon="-0.528529">
        <ele>65.2</ele>
        <time>2020-08-12T18:20:16Z</time>
      </trkpt>
      <trkpt lat="46.428224" lon="-0.527041">
        <ele>66.4</ele>
        <time>2020-08-12T18:20:20Z</time>
      </trkpt>
      <trkpt lat="46.428478" lon="-0.525228">
        <ele>67.0</ele>
        <time>2020-08-12T18:20:26Z</time>
      </trkpt>
      <trkpt lat="46.428759" lon="-0.52294">
        <ele>68.0</ele>
        <time>2020-08-12T18:20:32Z</time>
      </trkpt>
      <trkpt lat="46.428957" lon="-0.521073">
        <ele>67.8</ele>
        <time>2020-08-12T18:20:37Z</time>
      </trkpt>
      <trkpt lat="46.429098" lon="-0.519561">
        <ele>67.2</ele>
        <time>2020-08-12T18:20:42Z</time>
      </trkpt>
      <trkpt lat="46.429252" lon="-0.517643">
        <ele>65.6</ele>
        <time>2020-08-12T18:20:47Z</time>
      </trkpt>
      <trkpt lat="46.42937" lon="-0.515862">
        <ele>66.4</ele>
        <time>2020-08-12T18:20:52Z</time>
      </trkpt>
      <trkpt lat="46.429507" lon="-0.512919">
        <ele>66.0</ele>
        <time>2020-08-12T18:21:01Z</time>
      </trkpt>
      <trkpt lat="46.429573" lon="-0.510414">
        <ele>65.2</ele>
        <time>2020-08-12T18:21:08Z</time>
      </trkpt>
      <trkpt lat="46.429815" lon="-0.496687">
        <ele>59.0</ele>
        <time>2020-08-12T18:21:46Z</time>
      </trkpt>
      <trkpt lat="46.429843" lon="-0.49433">
        <ele>59.6</ele>
        <time>2020-08-12T18:21:53Z</time>
      </trkpt>
      <trkpt lat="46.429837" lon="-0.492287">
        <ele>56.8</ele>
        <time>2020-08-12T18:21:59Z</time>
      </trkpt>
      <trkpt lat="46.429785" lon="-0.490268">
        <ele>54.6</ele>
        <time>2020-08-12T18:22:04Z</time>
      </trkpt>
      <trkpt lat="46.429682" lon="-0.488279">
        <ele>53.4</ele>
        <time>2020-08-12T18:22:10Z</time>
      </trkpt>
      <trkpt lat="46.429548" lon="-0.486575">
        <ele>55.4</ele>
        <time>2020-08-12T18:22:15Z</time>
      </trkpt>
      <trkpt lat="46.42938" lon="-0.484915">
        <ele>54.2</ele>
        <time>2020-08-12T18:22:19Z</time>
      </trkpt>
      <trkpt lat="46.429145" lon="-0.48307">
        <ele>53.8</ele>
        <time>2020-08-12T18:22:25Z</time>
      </trkpt>
      <trkpt lat="46.428874" lon="-0.481295">
        <ele>51.8</ele>
        <time>2020-08-12T18:22:30Z</time>
      </trkpt>
      <trkpt lat="46.4287" lon="-0.4803">
        <ele>50.2</ele>
        <time>2020-08-12T18:22:33Z</time>
      </trkpt>
      <trkpt lat="46.428417" lon="-0.47883">
        <ele>52.0</ele>
        <time>2020-08-12T18:22:37Z</time>
      </trkpt>
      <trkpt lat="46.428108" lon="-0.477388">
        <ele>49.0</ele>
        <time>2020-08-12T18:22:41Z</time>
      </trkpt>
      <trkpt lat="46.427845" lon="-0.476267">
        <ele>50.2</ele>
        <time>2020-08-12T18:22:45Z</time>
      </trkpt>
      <trkpt lat="46.427359" lon="-0.47434">
        <ele>52.6</ele>
        <time>2020-08-12T18:22:50Z</time>
      </trkpt>
      <trkpt lat="46.425926" lon="-0.468994">
        <ele>58.0</ele>
        <time>2020-08-12T18:23:07Z</time>
      </trkpt>
      <trkpt lat="46.425565" lon="-0.467554">
        <ele>51.4</ele>
        <time>2020-08-12T18:23:11Z</time>
      </trkpt>
      <trkpt lat="46.425233" lon="-0.466112">
        <ele>51.4</ele>
        <time>2020-08-12T18:23:15Z</time>
      </trkpt>
      <trkpt lat="46.424105" lon="-0.460603">
        <ele>66.8</ele>
        <time>2020-08-12T18:23:31Z</time>
      </trkpt>
      <trkpt lat="46.42277" lon="-0.453785">
        <ele>48.0</ele>
        <time>2020-08-12T18:23:51Z</time>
      </trkpt>
      <trkpt lat="46.422645" lon="-0.45309">
        <ele>43.6</ele>
        <time>2020-08-12T18:23:53Z</time>
      </trkpt>
      <trkpt lat="46.422343" lon="-0.451113">
        <ele>32.4</ele>
        <time>2020-08-12T18:23:59Z</time>
      </trkpt>
      <trkpt lat="46.422114" lon="-0.44947">
        <ele>44.2</ele>
        <time>2020-08-12T18:24:04Z</time>
      </trkpt>
      <trkpt lat="46.421975" lon="-0.448322">
        <ele>56.8</ele>
        <time>2020-08-12T18:24:07Z</time>
      </trkpt>
      <trkpt lat="46.421834" lon="-0.446822">
        <ele>60.6</ele>
        <time>2020-08-12T18:24:11Z</time>
      </trkpt>
      <trkpt lat="46.421713" lon="-0.445295">
        <ele>63.6</ele>
        <time>2020-08-12T18:24:16Z</time>
      </trkpt>
      <trkpt lat="46.421599" lon="-0.443453">
        <ele>66.4</ele>
        <time>2020-08-12T18:24:21Z</time>
      </trkpt>
      <trkpt lat="46.421507" lon="-0.441413">
        <ele>64.0</ele>
        <time>2020-08-12T18:24:27Z</time>
      </trkpt>
      <trkpt lat="46.421431" lon="-0.439046">
        <ele>64.4</ele>
        <time>2020-08-12T18:24:33Z</time>
      </trkpt>
      <trkpt lat="46.421277" lon="-0.4321">
        <ele>72.0</ele>
        <time>2020-08-12T18:24:53Z</time>
      </trkpt>
      <trkpt lat="46.421152" lon="-0.428044">
        <ele>71.4</ele>
        <time>2020-08-12T18:25:04Z</time>
      </trkpt>
      <trkpt lat="46.421036" lon="-0.425508">
        <ele>74.4</ele>
        <time>2020-08-12T18:25:11Z</time>
      </trkpt>
      <trkpt lat="46.420959" lon="-0.42416">
        <ele>74.0</ele>
        <time>2020-08-12T18:25:15Z</time>
      </trkpt>
      <trkpt lat="46.420804" lon="-0.421964">
        <ele>71.2</ele>
        <time>2020-08-12T18:25:21Z</time>
      </trkpt>
      <trkpt lat="46.420677" lon="-0.42047">
        <ele>72.4</ele>
        <time>2020-08-12T18:25:26Z</time>
      </trkpt>
      <trkpt lat="46.420526" lon="-0.418944">
        <ele>73.4</ele>
        <time>2020-08-12T18:25:30Z</time>
      </trkpt>
      <trkpt lat="46.420315" lon="-0.417136">
        <ele>71.4</ele>
        <time>2020-08-12T18:25:35Z</time>
      </trkpt>
      <trkpt lat="46.420154" lon="-0.415951">
        <ele>68.0</ele>
        <time>2020-08-12T18:25:39Z</time>
      </trkpt>
      <trkpt lat="46.419955" lon="-0.414644">
        <ele>68.2</ele>
        <time>2020-08-12T18:25:42Z</time>
      </trkpt>
      <trkpt lat="46.419551" lon="-0.412357">
        <ele>74.6</ele>
        <time>2020-08-12T18:25:49Z</time>
      </trkpt>
      <trkpt lat="46.419206" lon="-0.410697">
        <ele>74.6</ele>
        <time>2020-08-12T18:25:54Z</time>
      </trkpt>
      <trkpt lat="46.418874" lon="-0.409286">
        <ele>75.0</ele>
        <time>2020-08-12T18:25:58Z</time>
      </trkpt>
      <trkpt lat="46.41837" lon="-0.407387">
        <ele>78.8</ele>
        <time>2020-08-12T18:26:04Z</time>
      </trkpt>
      <trkpt lat="46.417897" lon="-0.405805">
        <ele>76.2</ele>
        <time>2020-08-12T18:26:09Z</time>
      </trkpt>
      <trkpt lat="46.417245" lon="-0.403853">
        <ele>76.4</ele>
        <time>2020-08-12T18:26:15Z</time>
      </trkpt>
      <trkpt lat="46.416685" lon="-0.402347">
        <ele>77.4</ele>
        <time>2020-08-12T18:26:20Z</time>
      </trkpt>
      <trkpt lat="46.41618" lon="-0.401093">
        <ele>73.6</ele>
        <time>2020-08-12T18:26:24Z</time>
      </trkpt>
      <trkpt lat="46.415717" lon="-0.40002">
        <ele>70.0</ele>
        <time>2020-08-12T18:26:27Z</time>
      </trkpt>
      <trkpt lat="46.414947" lon="-0.398367">
        <ele>71.6</ele>
        <time>2020-08-12T18:26:33Z</time>
      </trkpt>
      <trkpt lat="46.413947" lon="-0.396432">
        <ele>73.8</ele>
        <time>2020-08-12T18:26:40Z</time>
      </trkpt>
      <trkpt lat="46.41293" lon="-0.394662">
        <ele>70.2</ele>
        <time>2020-08-12T18:26:46Z</time>
      </trkpt>
      <trkpt lat="46.411783" lon="-0.39287">
        <ele>64.2</ele>
        <time>2020-08-12T18:26:53Z</time>
      </trkpt>
      <trkpt lat="46.410954" lon="-0.391686">
        <ele>65.0</ele>
        <time>2020-08-12T18:26:58Z</time>
      </trkpt>
      <trkpt lat="46.409826" lon="-0.390206">
        <ele>65.4</ele>
        <time>2020-08-12T18:27:04Z</time>
      </trkpt>
      <trkpt lat="46.409115" lon="-0.389345">
        <ele>62.6</ele>
        <time>2020-08-12T18:27:08Z</time>
      </trkpt>
      <trkpt lat="46.408368" lon="-0.388494">
        <ele>63.6</ele>
        <time>2020-08-12T18:27:12Z</time>
      </trkpt>
      <trkpt lat="46.407905" lon="-0.387991">
        <ele>64.6</ele>
        <time>2020-08-12T18:27:14Z</time>
      </trkpt>
      <trkpt lat="46.407059" lon="-0.38712">
        <ele>62.8</ele>
        <time>2020-08-12T18:27:18Z</time>
      </trkpt>
      <trkpt lat="46.405579" lon="-0.385705">
        <ele>64.0</ele>
        <time>2020-08-12T18:27:25Z</time>
      </trkpt>
      <trkpt lat="46.403792" lon="-0.384077">
        <ele>62.6</ele>
        <time>2020-08-12T18:27:34Z</time>
      </trkpt>
      <trkpt lat="46.401995" lon="-0.382489">
        <ele>64.6</ele>
        <time>2020-08-12T18:27:43Z</time>
      </trkpt>
      <trkpt lat="46.4013" lon="-0.381903">
        <ele>64.4</ele>
        <time>2020-08-12T18:27:46Z</time>
      </trkpt>
      <trkpt lat="46.400174" lon="-0.381001">
        <ele>65.0</ele>
        <time>2020-08-12T18:27:51Z</time>
      </trkpt>
      <trkpt lat="46.39871" lon="-0.379931">
        <ele>60.8</ele>
        <time>2020-08-12T18:27:58Z</time>
      </trkpt>
      <trkpt lat="46.396553" lon="-0.378525">
        <ele>56.8</ele>
        <time>2020-08-12T18:28:07Z</time>
      </trkpt>
      <trkpt lat="46.394755" lon="-0.377272">
        <ele>57.8</ele>
        <time>2020-08-12T18:28:16Z</time>
      </trkpt>
      <trkpt lat="46.393211" lon="-0.376091">
        <ele>58.0</ele>
        <time>2020-08-12T18:28:23Z</time>
      </trkpt>
      <trkpt lat="46.391697" lon="-0.374834">
        <ele>55.8</ele>
        <time>2020-08-12T18:28:30Z</time>
      </trkpt>
      <trkpt lat="46.39059" lon="-0.373846">
        <ele>49.0</ele>
        <time>2020-08-12T18:28:35Z</time>
      </trkpt>
      <trkpt lat="46.389701" lon="-0.373013">
        <ele>45.4</ele>
        <time>2020-08-12T18:28:40Z</time>
      </trkpt>
      <trkpt lat="46.388842" lon="-0.372169">
        <ele>48.6</ele>
        <time>2020-08-12T18:28:44Z</time>
      </trkpt>
      <trkpt lat="46.38787" lon="-0.371174">
        <ele>52.6</ele>
        <time>2020-08-12T18:28:49Z</time>
      </trkpt>
      <trkpt lat="46.386378" lon="-0.369537">
        <ele>57.6</ele>
        <time>2020-08-12T18:28:56Z</time>
      </trkpt>
      <trkpt lat="46.384429" lon="-0.367257">
        <ele>45.2</ele>
        <time>2020-08-12T18:29:06Z</time>
      </trkpt>
      <trkpt lat="46.384025" lon="-0.366814">
        <ele>44.0</ele>
        <time>2020-08-12T18:29:09Z</time>
      </trkpt>
      <trkpt lat="46.382653" lon="-0.365386">
        <ele>39.6</ele>
        <time>2020-08-12T18:29:15Z</time>
      </trkpt>
      <trkpt lat="46.381911" lon="-0.364639">
        <ele>48.6</ele>
        <time>2020-08-12T18:29:19Z</time>
      </trkpt>
      <trkpt lat="46.381317" lon="-0.364088">
        <ele>56.0</ele>
        <time>2020-08-12T18:29:22Z</time>
      </trkpt>
      <trkpt lat="46.380301" lon="-0.363201">
        <ele>56.2</ele>
        <time>2020-08-12T18:29:27Z</time>
      </trkpt>
      <trkpt lat="46.379495" lon="-0.362542">
        <ele>54.6</ele>
        <time>2020-08-12T18:29:31Z</time>
      </trkpt>
      <trkpt lat="46.378823" lon="-0.362024">
        <ele>48.2</ele>
        <time>2020-08-12T18:29:34Z</time>
      </trkpt>
      <trkpt lat="46.377699" lon="-0.3612">
        <ele>39.6</ele>
        <time>2020-08-12T18:29:39Z</time>
      </trkpt>
      <trkpt lat="46.376054" lon="-0.35993">
        <ele>36.0</ele>
        <time>2020-08-12T18:29:47Z</time>
      </trkpt>
      <trkpt lat="46.374687" lon="-0.358829">
        <ele>34.8</ele>
        <time>2020-08-12T18:29:53Z</time>
      </trkpt>
      <trkpt lat="46.372503" lon="-0.356949">
        <ele>36.6</ele>
        <time>2020-08-12T18:30:03Z</time>
      </trkpt>
      <trkpt lat="46.370814" lon="-0.355419">
        <ele>49.8</ele>
        <time>2020-08-12T18:30:11Z</time>
      </trkpt>
      <trkpt lat="46.369254" lon="-0.353931">
        <ele>50.0</ele>
        <time>2020-08-12T18:30:19Z</time>
      </trkpt>
      <trkpt lat="46.367705" lon="-0.352385">
        <ele>51.8</ele>
        <time>2020-08-12T18:30:27Z</time>
      </trkpt>
      <trkpt lat="46.365812" lon="-0.350395">
        <ele>50.0</ele>
        <time>2020-08-12T18:30:36Z</time>
      </trkpt>
      <trkpt lat="46.364506" lon="-0.348949">
        <ele>46.8</ele>
        <time>2020-08-12T18:30:43Z</time>
      </trkpt>
      <trkpt lat="46.363039" lon="-0.347258">
        <ele>49.2</ele>
        <time>2020-08-12T18:30:51Z</time>
      </trkpt>
      <trkpt lat="46.361687" lon="-0.345631">
        <ele>48.6</ele>
        <time>2020-08-12T18:30:58Z</time>
      </trkpt>
      <trkpt lat="46.360724" lon="-0.34443">
        <ele>46.4</ele>
        <time>2020-08-12T18:31:03Z</time>
      </trkpt>
      <trkpt lat="46.357515" lon="-0.340302">
        <ele>49.8</ele>
        <time>2020-08-12T18:31:21Z</time>
      </trkpt>
      <trkpt lat="46.355758" lon="-0.337937">
        <ele>52.4</ele>
        <time>2020-08-12T18:31:30Z</time>
      </trkpt>
      <trkpt lat="46.354693" lon="-0.336372">
        <ele>52.6</ele>
        <time>2020-08-12T18:31:36Z</time>
      </trkpt>
      <trkpt lat="46.354144" lon="-0.335502">
        <ele>53.8</ele>
        <time>2020-08-12T18:31:40Z</time>
      </trkpt>
      <trkpt lat="46.353681" lon="-0.33473">
        <ele>54.6</ele>
        <time>2020-08-12T18:31:43Z</time>
      </trkpt>
      <trkpt lat="46.353013" lon="-0.333545">
        <ele>57.4</ele>
        <time>2020-08-12T18:31:47Z</time>
      </trkpt>
      <trkpt lat="46.352385" lon="-0.332328">
        <ele>59.0</ele>
        <time>2020-08-12T18:31:51Z</time>
      </trkpt>
      <trkpt lat="46.351856" lon="-0.331235">
        <ele>57.8</ele>
        <time>2020-08-12T18:31:55Z</time>
      </trkpt>
      <trkpt lat="46.351097" lon="-0.329479">
        <ele>57.8</ele>
        <time>2020-08-12T18:32:01Z</time>
      </trkpt>
      <trkpt lat="46.350637" lon="-0.328314">
        <ele>61.4</ele>
        <time>2020-08-12T18:32:05Z</time>
      </trkpt>
      <trkpt lat="46.350199" lon="-0.327105">
        <ele>60.8</ele>
        <time>2020-08-12T18:32:09Z</time>
      </trkpt>
      <trkpt lat="46.349698" lon="-0.325578">
        <ele>64.2</ele>
        <time>2020-08-12T18:32:13Z</time>
      </trkpt>
      <trkpt lat="46.349255" lon="-0.324088">
        <ele>65.8</ele>
        <time>2020-08-12T18:32:18Z</time>
      </trkpt>
      <trkpt lat="46.348525" lon="-0.32118">
        <ele>65.6</ele>
        <time>2020-08-12T18:32:27Z</time>
      </trkpt>
      <trkpt lat="46.348094" lon="-0.319219">
        <ele>67.0</ele>
        <time>2020-08-12T18:32:32Z</time>
      </trkpt>
      <trkpt lat="46.347731" lon="-0.317425">
        <ele>67.0</ele>
        <time>2020-08-12T18:32:38Z</time>
      </trkpt>
      <trkpt lat="46.346999" lon="-0.313529">
        <ele>72.4</ele>
        <time>2020-08-12T18:32:49Z</time>
      </trkpt>
      <trkpt lat="46.346825" lon="-0.312462">
        <ele>74.6</ele>
        <time>2020-08-12T18:32:52Z</time>
      </trkpt>
      <trkpt lat="46.346733" lon="-0.311602">
        <ele>75.0</ele>
        <time>2020-08-12T18:32:55Z</time>
      </trkpt>
      <trkpt lat="46.346698" lon="-0.310906">
        <ele>75.0</ele>
        <time>2020-08-12T18:32:57Z</time>
      </trkpt>
      <trkpt lat="46.346703" lon="-0.310312">
        <ele>74.8</ele>
        <time>2020-08-12T18:32:58Z</time>
      </trkpt>
      <trkpt lat="46.346765" lon="-0.309261">
        <ele>74.4</ele>
        <time>2020-08-12T18:33:01Z</time>
      </trkpt>
      <trkpt lat="46.346984" lon="-0.307061">
        <ele>73.0</ele>
        <time>2020-08-12T18:33:07Z</time>
      </trkpt>
      <trkpt lat="46.347003" lon="-0.306426">
        <ele>74.6</ele>
        <time>2020-08-12T18:33:09Z</time>
      </trkpt>
      <trkpt lat="46.346952" lon="-0.305493">
        <ele>75.2</ele>
        <time>2020-08-12T18:33:12Z</time>
      </trkpt>
      <trkpt lat="46.346767" lon="-0.303751">
        <ele>75.6</ele>
        <time>2020-08-12T18:33:18Z</time>
      </trkpt>
      <trkpt lat="46.346643" lon="-0.303007">
        <ele>80.4</ele>
        <time>2020-08-12T18:33:22Z</time>
      </trkpt>
      <trkpt lat="46.346563" lon="-0.302728">
        <ele>80.4</ele>
        <time>2020-08-12T18:33:23Z</time>
      </trkpt>
      <trkpt lat="46.346421" lon="-0.302415">
        <ele>81.0</ele>
        <time>2020-08-12T18:33:25Z</time>
      </trkpt>
      <trkpt lat="46.346287" lon="-0.302201">
        <ele>81.0</ele>
        <time>2020-08-12T18:33:27Z</time>
      </trkpt>
      <trkpt lat="46.346052" lon="-0.301953">
        <ele>81.0</ele>
        <time>2020-08-12T18:33:29Z</time>
      </trkpt>
      <trkpt lat="46.34586" lon="-0.30183">
        <ele>81.0</ele>
        <time>2020-08-12T18:33:30Z</time>
      </trkpt>
      <trkpt lat="46.345591" lon="-0.301751">
        <ele>85.0</ele>
        <time>2020-08-12T18:33:32Z</time>
      </trkpt>
      <trkpt lat="46.345419" lon="-0.30175">
        <ele>85.0</ele>
        <time>2020-08-12T18:33:33Z</time>
      </trkpt>
      <trkpt lat="46.345205" lon="-0.301789">
        <ele>85.0</ele>
        <time>2020-08-12T18:33:35Z</time>
      </trkpt>
      <trkpt lat="46.344988" lon="-0.301897">
        <ele>89.8</ele>
        <time>2020-08-12T18:33:37Z</time>
      </trkpt>
      <trkpt lat="46.344783" lon="-0.302075">
        <ele>89.8</ele>
        <time>2020-08-12T18:33:38Z</time>
      </trkpt>
      <trkpt lat="46.34463" lon="-0.302268">
        <ele>89.8</ele>
        <time>2020-08-12T18:33:40Z</time>
      </trkpt>
      <trkpt lat="46.344499" lon="-0.3025">
        <ele>89.8</ele>
        <time>2020-08-12T18:33:41Z</time>
      </trkpt>
      <trkpt lat="46.34436" lon="-0.302787">
        <ele>89.8</ele>
        <time>2020-08-12T18:33:43Z</time>
      </trkpt>
      <trkpt lat="46.344143" lon="-0.303319">
        <ele>93.2</ele>
        <time>2020-08-12T18:33:46Z</time>
      </trkpt>
      <trkpt lat="46.344074" lon="-0.303342">
        <ele>91.8</ele>
        <time>2020-08-12T18:33:47Z</time>
      </trkpt>
      <trkpt lat="46.342956" lon="-0.306055">
        <ele>89.4</ele>
        <time>2020-08-12T18:33:55Z</time>
      </trkpt>
      <trkpt lat="46.34216" lon="-0.307857">
        <ele>91.0</ele>
        <time>2020-08-12T18:34:01Z</time>
      </trkpt>
      <trkpt lat="46.341282" lon="-0.309736">
        <ele>93.0</ele>
        <time>2020-08-12T18:34:08Z</time>
      </trkpt>
      <trkpt lat="46.340262" lon="-0.311834">
        <ele>93.4</ele>
        <time>2020-08-12T18:34:15Z</time>
      </trkpt>
      <trkpt lat="46.33919" lon="-0.313979">
        <ele>92.8</ele>
        <time>2020-08-12T18:34:22Z</time>
      </trkpt>
      <trkpt lat="46.328586" lon="-0.333121">
        <ele>68.2</ele>
        <time>2020-08-12T18:35:31Z</time>
      </trkpt>
      <trkpt lat="46.327308" lon="-0.335393">
        <ele>70.0</ele>
        <time>2020-08-12T18:35:39Z</time>
      </trkpt>
      <trkpt lat="46.32591" lon="-0.337665">
        <ele>71.0</ele>
        <time>2020-08-12T18:35:47Z</time>
      </trkpt>
      <trkpt lat="46.324694" lon="-0.339525">
        <ele>70.8</ele>
        <time>2020-08-12T18:35:55Z</time>
      </trkpt>
      <trkpt lat="46.323502" lon="-0.341188">
        <ele>68.4</ele>
        <time>2020-08-12T18:36:01Z</time>
      </trkpt>
      <trkpt lat="46.321791" lon="-0.343335">
        <ele>69.0</ele>
        <time>2020-08-12T18:36:10Z</time>
      </trkpt>
      <trkpt lat="46.320073" lon="-0.345262">
        <ele>68.8</ele>
        <time>2020-08-12T18:36:19Z</time>
      </trkpt>
      <trkpt lat="46.318902" lon="-0.346466">
        <ele>65.0</ele>
        <time>2020-08-12T18:36:25Z</time>
      </trkpt>
      <trkpt lat="46.317404" lon="-0.347892">
        <ele>61.0</ele>
        <time>2020-08-12T18:36:32Z</time>
      </trkpt>
      <trkpt lat="46.31126" lon="-0.353275">
        <ele>66.0</ele>
        <time>2020-08-12T18:37:01Z</time>
      </trkpt>
      <trkpt lat="46.309388" lon="-0.354957">
        <ele>64.4</ele>
        <time>2020-08-12T18:37:10Z</time>
      </trkpt>
      <trkpt lat="46.307926" lon="-0.356315">
        <ele>61.0</ele>
        <time>2020-08-12T18:37:17Z</time>
      </trkpt>
      <trkpt lat="46.307067" lon="-0.357193">
        <ele>61.2</ele>
        <time>2020-08-12T18:37:22Z</time>
      </trkpt>
      <trkpt lat="46.306512" lon="-0.357802">
        <ele>62.2</ele>
        <time>2020-08-12T18:37:24Z</time>
      </trkpt>
      <trkpt lat="46.305576" lon="-0.35889">
        <ele>63.0</ele>
        <time>2020-08-12T18:37:29Z</time>
      </trkpt>
      <trkpt lat="46.304438" lon="-0.360299">
        <ele>62.4</ele>
        <time>2020-08-12T18:37:35Z</time>
      </trkpt>
      <trkpt lat="46.303456" lon="-0.361622">
        <ele>61.2</ele>
        <time>2020-08-12T18:37:41Z</time>
      </trkpt>
      <trkpt lat="46.302379" lon="-0.363209">
        <ele>58.0</ele>
        <time>2020-08-12T18:37:47Z</time>
      </trkpt>
      <trkpt lat="46.301541" lon="-0.364542">
        <ele>56.6</ele>
        <time>2020-08-12T18:37:52Z</time>
      </trkpt>
      <trkpt lat="46.300507" lon="-0.36636">
        <ele>54.6</ele>
        <time>2020-08-12T18:37:58Z</time>
      </trkpt>
      <trkpt lat="46.299939" lon="-0.367416">
        <ele>54.2</ele>
        <time>2020-08-12T18:38:02Z</time>
      </trkpt>
      <trkpt lat="46.298762" lon="-0.369848">
        <ele>53.8</ele>
        <time>2020-08-12T18:38:11Z</time>
      </trkpt>
      <trkpt lat="46.298052" lon="-0.371481">
        <ele>52.6</ele>
        <time>2020-08-12T18:38:16Z</time>
      </trkpt>
      <trkpt lat="46.297017" lon="-0.37401">
        <ele>50.2</ele>
        <time>2020-08-12T18:38:24Z</time>
      </trkpt>
      <trkpt lat="46.296677" lon="-0.374894">
        <ele>50.2</ele>
        <time>2020-08-12T18:38:27Z</time>
      </trkpt>
      <trkpt lat="46.296489" lon="-0.375447">
        <ele>49.4</ele>
        <time>2020-08-12T18:38:29Z</time>
      </trkpt>
      <trkpt lat="46.294738" lon="-0.380057">
        <ele>47.2</ele>
        <time>2020-08-12T18:38:43Z</time>
      </trkpt>
      <trkpt lat="46.293664" lon="-0.382729">
        <ele>47.0</ele>
        <time>2020-08-12T18:38:52Z</time>
      </trkpt>
      <trkpt lat="46.29322" lon="-0.383743">
        <ele>46.2</ele>
        <time>2020-08-12T18:38:55Z</time>
      </trkpt>
      <trkpt lat="46.292672" lon="-0.384896">
        <ele>47.0</ele>
        <time>2020-08-12T18:38:59Z</time>
      </trkpt>
      <trkpt lat="46.292011" lon="-0.386216">
        <ele>45.0</ele>
        <time>2020-08-12T18:39:04Z</time>
      </trkpt>
      <trkpt lat="46.29104" lon="-0.38792">
        <ele>42.8</ele>
        <time>2020-08-12T18:39:10Z</time>
      </trkpt>
      <trkpt lat="46.290526" lon="-0.388739">
        <ele>40.8</ele>
        <time>2020-08-12T18:39:13Z</time>
      </trkpt>
      <trkpt lat="46.28978" lon="-0.389863">
        <ele>38.6</ele>
        <time>2020-08-12T18:39:17Z</time>
      </trkpt>
      <trkpt lat="46.288807" lon="-0.391157">
        <ele>38.6</ele>
        <time>2020-08-12T18:39:23Z</time>
      </trkpt>
      <trkpt lat="46.287644" lon="-0.392607">
        <ele>37.6</ele>
        <time>2020-08-12T18:39:29Z</time>
      </trkpt>
      <trkpt lat="46.286161" lon="-0.394256">
        <ele>37.8</ele>
        <time>2020-08-12T18:39:37Z</time>
      </trkpt>
      <trkpt lat="46.285531" lon="-0.394878">
        <ele>39.0</ele>
        <time>2020-08-12T18:39:40Z</time>
      </trkpt>
      <trkpt lat="46.284451" lon="-0.395855">
        <ele>37.8</ele>
        <time>2020-08-12T18:39:45Z</time>
      </trkpt>
      <trkpt lat="46.283915" lon="-0.396302">
        <ele>36.4</ele>
        <time>2020-08-12T18:39:47Z</time>
      </trkpt>
      <trkpt lat="46.282168" lon="-0.397644">
        <ele>29.0</ele>
        <time>2020-08-12T18:39:55Z</time>
      </trkpt>
      <trkpt lat="46.281597" lon="-0.398029">
        <ele>28.2</ele>
        <time>2020-08-12T18:39:58Z</time>
      </trkpt>
      <trkpt lat="46.278038" lon="-0.400537">
        <ele>25.6</ele>
        <time>2020-08-12T18:40:14Z</time>
      </trkpt>
      <trkpt lat="46.2763" lon="-0.401868">
        <ele>26.4</ele>
        <time>2020-08-12T18:40:22Z</time>
      </trkpt>
      <trkpt lat="46.274733" lon="-0.403167">
        <ele>27.8</ele>
        <time>2020-08-12T18:40:29Z</time>
      </trkpt>
      <trkpt lat="46.273583" lon="-0.404185">
        <ele>27.2</ele>
        <time>2020-08-12T18:40:35Z</time>
      </trkpt>
      <trkpt lat="46.271294" lon="-0.406395">
        <ele>30.0</ele>
        <time>2020-08-12T18:40:46Z</time>
      </trkpt>
      <trkpt lat="46.270205" lon="-0.407523">
        <ele>32.6</ele>
        <time>2020-08-12T18:40:51Z</time>
      </trkpt>
      <trkpt lat="46.269235" lon="-0.408605">
        <ele>33.4</ele>
        <time>2020-08-12T18:40:56Z</time>
      </trkpt>
      <trkpt lat="46.264856" lon="-0.41366">
        <ele>33.0</ele>
        <time>2020-08-12T18:41:19Z</time>
      </trkpt>
      <trkpt lat="46.26347" lon="-0.415065">
        <ele>32.4</ele>
        <time>2020-08-12T18:41:26Z</time>
      </trkpt>
      <trkpt lat="46.261927" lon="-0.416561">
        <ele>31.6</ele>
        <time>2020-08-12T18:41:33Z</time>
      </trkpt>
      <trkpt lat="46.261195" lon="-0.417241">
        <ele>31.8</ele>
        <time>2020-08-12T18:41:37Z</time>
      </trkpt>
      <trkpt lat="46.260451" lon="-0.417897">
        <ele>30.6</ele>
        <time>2020-08-12T18:41:40Z</time>
      </trkpt>
      <trkpt lat="46.259063" lon="-0.419065">
        <ele>29.6</ele>
        <time>2020-08-12T18:41:47Z</time>
      </trkpt>
      <trkpt lat="46.257584" lon="-0.420225">
        <ele>29.4</ele>
        <time>2020-08-12T18:41:53Z</time>
      </trkpt>
      <trkpt lat="46.256296" lon="-0.421153">
        <ele>29.4</ele>
        <time>2020-08-12T18:41:59Z</time>
      </trkpt>
      <trkpt lat="46.253053" lon="-0.42339">
        <ele>30.2</ele>
        <time>2020-08-12T18:42:14Z</time>
      </trkpt>
      <trkpt lat="46.252" lon="-0.424156">
        <ele>30.4</ele>
        <time>2020-08-12T18:42:19Z</time>
      </trkpt>
      <trkpt lat="46.249992" lon="-0.42567">
        <ele>33.4</ele>
        <time>2020-08-12T18:42:28Z</time>
      </trkpt>
      <trkpt lat="46.247936" lon="-0.427296">
        <ele>38.8</ele>
        <time>2020-08-12T18:42:37Z</time>
      </trkpt>
      <trkpt lat="46.245851" lon="-0.429045">
        <ele>43.6</ele>
        <time>2020-08-12T18:42:47Z</time>
      </trkpt>
      <trkpt lat="46.243847" lon="-0.430861">
        <ele>46.6</ele>
        <time>2020-08-12T18:42:56Z</time>
      </trkpt>
      <trkpt lat="46.23902" lon="-0.435451">
        <ele>47.0</ele>
        <time>2020-08-12T18:43:20Z</time>
      </trkpt>
      <trkpt lat="46.236848" lon="-0.437369">
        <ele>43.8</ele>
        <time>2020-08-12T18:43:30Z</time>
      </trkpt>
      <trkpt lat="46.234444" lon="-0.43937">
        <ele>42.4</ele>
        <time>2020-08-12T18:43:41Z</time>
      </trkpt>
      <trkpt lat="46.222061" lon="-0.448922">
        <ele>37.6</ele>
        <time>2020-08-12T18:44:38Z</time>
      </trkpt>
      <trkpt lat="46.220452" lon="-0.450247">
        <ele>37.0</ele>
        <time>2020-08-12T18:44:46Z</time>
      </trkpt>
      <trkpt lat="46.219245" lon="-0.451304">
        <ele>38.0</ele>
        <time>2020-08-12T18:44:51Z</time>
      </trkpt>
      <trkpt lat="46.218023" lon="-0.452439">
        <ele>35.8</ele>
        <time>2020-08-12T18:44:57Z</time>
      </trkpt>
      <trkpt lat="46.216786" lon="-0.453654">
        <ele>36.8</ele>
        <time>2020-08-12T18:45:03Z</time>
      </trkpt>
      <trkpt lat="46.215461" lon="-0.455047">
        <ele>34.6</ele>
        <time>2020-08-12T18:45:10Z</time>
      </trkpt>
      <trkpt lat="46.214324" lon="-0.456367">
        <ele>36.4</ele>
        <time>2020-08-12T18:45:16Z</time>
      </trkpt>
      <trkpt lat="46.213066" lon="-0.457914">
        <ele>33.8</ele>
        <time>2020-08-12T18:45:22Z</time>
      </trkpt>
      <trkpt lat="46.212027" lon="-0.459321">
        <ele>33.2</ele>
        <time>2020-08-12T18:45:28Z</time>
      </trkpt>
      <trkpt lat="46.21099" lon="-0.460787">
        <ele>33.6</ele>
        <time>2020-08-12T18:45:34Z</time>
      </trkpt>
      <trkpt lat="46.209141" lon="-0.463614">
        <ele>34.4</ele>
        <time>2020-08-12T18:45:45Z</time>
      </trkpt>
      <trkpt lat="46.203319" lon="-0.4731">
        <ele>38.0</ele>
        <time>2020-08-12T18:46:20Z</time>
      </trkpt>
      <trkpt lat="46.202354" lon="-0.474631">
        <ele>43.0</ele>
        <time>2020-08-12T18:46:26Z</time>
      </trkpt>
      <trkpt lat="46.200354" lon="-0.477606">
        <ele>51.2</ele>
        <time>2020-08-12T18:46:38Z</time>
      </trkpt>
      <trkpt lat="46.199392" lon="-0.478953">
        <ele>51.4</ele>
        <time>2020-08-12T18:46:43Z</time>
      </trkpt>
      <trkpt lat="46.198358" lon="-0.480346">
        <ele>48.4</ele>
        <time>2020-08-12T18:46:49Z</time>
      </trkpt>
      <trkpt lat="46.197307" lon="-0.481712">
        <ele>49.4</ele>
        <time>2020-08-12T18:46:55Z</time>
      </trkpt>
      <trkpt lat="46.196211" lon="-0.483081">
        <ele>52.6</ele>
        <time>2020-08-12T18:47:01Z</time>
      </trkpt>
      <trkpt lat="46.195072" lon="-0.484444">
        <ele>55.8</ele>
        <time>2020-08-12T18:47:07Z</time>
      </trkpt>
      <trkpt lat="46.180153" lon="-0.50124">
        <ele>71.0</ele>
        <time>2020-08-12T18:48:23Z</time>
      </trkpt>
      <trkpt lat="46.179071" lon="-0.502407">
        <ele>63.8</ele>
        <time>2020-08-12T18:48:28Z</time>
      </trkpt>
      <trkpt lat="46.17794" lon="-0.503569">
        <ele>63.0</ele>
        <time>2020-08-12T18:48:34Z</time>
      </trkpt>
      <trkpt lat="46.176733" lon="-0.504706">
        <ele>63.0</ele>
        <time>2020-08-12T18:48:40Z</time>
      </trkpt>
      <trkpt lat="46.175304" lon="-0.506001">
        <ele>60.8</ele>
        <time>2020-08-12T18:48:47Z</time>
      </trkpt>
      <trkpt lat="46.174071" lon="-0.507044">
        <ele>56.4</ele>
        <time>2020-08-12T18:48:52Z</time>
      </trkpt>
      <trkpt lat="46.172841" lon="-0.508034">
        <ele>55.4</ele>
        <time>2020-08-12T18:48:58Z</time>
      </trkpt>
      <trkpt lat="46.171649" lon="-0.508929">
        <ele>53.6</ele>
        <time>2020-08-12T18:49:04Z</time>
      </trkpt>
      <trkpt lat="46.170436" lon="-0.509783">
        <ele>54.2</ele>
        <time>2020-08-12T18:49:09Z</time>
      </trkpt>
      <trkpt lat="46.169298" lon="-0.510537">
        <ele>53.8</ele>
        <time>2020-08-12T18:49:14Z</time>
      </trkpt>
      <trkpt lat="46.16798" lon="-0.511344">
        <ele>47.8</ele>
        <time>2020-08-12T18:49:20Z</time>
      </trkpt>
      <trkpt lat="46.166761" lon="-0.512052">
        <ele>45.4</ele>
        <time>2020-08-12T18:49:25Z</time>
      </trkpt>
      <trkpt lat="46.16553" lon="-0.512709">
        <ele>43.8</ele>
        <time>2020-08-12T18:49:31Z</time>
      </trkpt>
      <trkpt lat="46.164298" lon="-0.513319">
        <ele>43.2</ele>
        <time>2020-08-12T18:49:36Z</time>
      </trkpt>
      <trkpt lat="46.156673" lon="-0.51684">
        <ele>35.4</ele>
        <time>2020-08-12T18:50:08Z</time>
      </trkpt>
      <trkpt lat="46.155432" lon="-0.517449">
        <ele>34.8</ele>
        <time>2020-08-12T18:50:14Z</time>
      </trkpt>
      <trkpt lat="46.153081" lon="-0.518744">
        <ele>34.0</ele>
        <time>2020-08-12T18:50:24Z</time>
      </trkpt>
      <trkpt lat="46.151664" lon="-0.519605">
        <ele>34.4</ele>
        <time>2020-08-12T18:50:30Z</time>
      </trkpt>
      <trkpt lat="46.150318" lon="-0.52045">
        <ele>34.8</ele>
        <time>2020-08-12T18:50:36Z</time>
      </trkpt>
      <trkpt lat="46.144439" lon="-0.524389">
        <ele>37.2</ele>
        <time>2020-08-12T18:51:02Z</time>
      </trkpt>
      <trkpt lat="46.14285" lon="-0.525389">
        <ele>35.6</ele>
        <time>2020-08-12T18:51:09Z</time>
      </trkpt>
      <trkpt lat="46.141164" lon="-0.526396">
        <ele>42.2</ele>
        <time>2020-08-12T18:51:16Z</time>
      </trkpt>
      <trkpt lat="46.14005" lon="-0.527004">
        <ele>43.6</ele>
        <time>2020-08-12T18:51:21Z</time>
      </trkpt>
      <trkpt lat="46.137601" lon="-0.528144">
        <ele>40.2</ele>
        <time>2020-08-12T18:51:32Z</time>
      </trkpt>
      <trkpt lat="46.136434" lon="-0.528616">
        <ele>37.6</ele>
        <time>2020-08-12T18:51:37Z</time>
      </trkpt>
      <trkpt lat="46.135103" lon="-0.529101">
        <ele>36.6</ele>
        <time>2020-08-12T18:51:42Z</time>
      </trkpt>
      <trkpt lat="46.13373" lon="-0.529524">
        <ele>37.2</ele>
        <time>2020-08-12T18:51:48Z</time>
      </trkpt>
      <trkpt lat="46.130949" lon="-0.530235">
        <ele>38.4</ele>
        <time>2020-08-12T18:51:59Z</time>
      </trkpt>
      <trkpt lat="46.112932" lon="-0.534343">
        <ele>41.8</ele>
        <time>2020-08-12T18:53:13Z</time>
      </trkpt>
      <trkpt lat="46.110412" lon="-0.534879">
        <ele>46.2</ele>
        <time>2020-08-12T18:53:23Z</time>
      </trkpt>
      <trkpt lat="46.108745" lon="-0.535149">
        <ele>50.4</ele>
        <time>2020-08-12T18:53:30Z</time>
      </trkpt>
      <trkpt lat="46.107235" lon="-0.535339">
        <ele>52.8</ele>
        <time>2020-08-12T18:53:36Z</time>
      </trkpt>
      <trkpt lat="46.105749" lon="-0.535453">
        <ele>53.2</ele>
        <time>2020-08-12T18:53:42Z</time>
      </trkpt>
      <trkpt lat="46.104179" lon="-0.535507">
        <ele>52.6</ele>
        <time>2020-08-12T18:53:49Z</time>
      </trkpt>
      <trkpt lat="46.102723" lon="-0.535467">
        <ele>55.2</ele>
        <time>2020-08-12T18:53:54Z</time>
      </trkpt>
      <trkpt lat="46.101209" lon="-0.535359">
        <ele>55.6</ele>
        <time>2020-08-12T18:54:01Z</time>
      </trkpt>
      <trkpt lat="46.099755" lon="-0.53519">
        <ele>58.4</ele>
        <time>2020-08-12T18:54:06Z</time>
      </trkpt>
      <trkpt lat="46.098297" lon="-0.534943">
        <ele>61.6</ele>
        <time>2020-08-12T18:54:12Z</time>
      </trkpt>
      <trkpt lat="46.096759" lon="-0.534611">
        <ele>62.8</ele>
        <time>2020-08-12T18:54:19Z</time>
      </trkpt>
      <trkpt lat="46.09532" lon="-0.534234">
        <ele>66.0</ele>
        <time>2020-08-12T18:54:25Z</time>
      </trkpt>
      <trkpt lat="46.088713" lon="-0.532321">
        <ele>63.0</ele>
        <time>2020-08-12T18:54:52Z</time>
      </trkpt>
      <trkpt lat="46.087016" lon="-0.531927">
        <ele>63.0</ele>
        <time>2020-08-12T18:54:59Z</time>
      </trkpt>
      <trkpt lat="46.085589" lon="-0.531632">
        <ele>57.2</ele>
        <time>2020-08-12T18:55:05Z</time>
      </trkpt>
      <trkpt lat="46.084116" lon="-0.531406">
        <ele>55.4</ele>
        <time>2020-08-12T18:55:11Z</time>
      </trkpt>
      <trkpt lat="46.082562" lon="-0.531256">
        <ele>55.2</ele>
        <time>2020-08-12T18:55:17Z</time>
      </trkpt>
      <trkpt lat="46.081265" lon="-0.531201">
        <ele>50.8</ele>
        <time>2020-08-12T18:55:22Z</time>
      </trkpt>
      <trkpt lat="46.07998" lon="-0.531224">
        <ele>47.4</ele>
        <time>2020-08-12T18:55:27Z</time>
      </trkpt>
      <trkpt lat="46.078663" lon="-0.531297">
        <ele>46.4</ele>
        <time>2020-08-12T18:55:33Z</time>
      </trkpt>
      <trkpt lat="46.078025" lon="-0.531354">
        <ele>45.6</ele>
        <time>2020-08-12T18:55:35Z</time>
      </trkpt>
      <trkpt lat="46.076697" lon="-0.531518">
        <ele>44.4</ele>
        <time>2020-08-12T18:55:41Z</time>
      </trkpt>
      <trkpt lat="46.07601" lon="-0.531627">
        <ele>42.8</ele>
        <time>2020-08-12T18:55:43Z</time>
      </trkpt>
      <trkpt lat="46.074758" lon="-0.531877">
        <ele>36.6</ele>
        <time>2020-08-12T18:55:49Z</time>
      </trkpt>
      <trkpt lat="46.073254" lon="-0.532221">
        <ele>35.2</ele>
        <time>2020-08-12T18:55:55Z</time>
      </trkpt>
      <trkpt lat="46.060151" lon="-0.535882">
        <ele>39.6</ele>
        <time>2020-08-12T18:56:49Z</time>
      </trkpt>
      <trkpt lat="46.058598" lon="-0.536278">
        <ele>40.2</ele>
        <time>2020-08-12T18:56:55Z</time>
      </trkpt>
      <trkpt lat="46.056996" lon="-0.536628">
        <ele>45.0</ele>
        <time>2020-08-12T18:57:02Z</time>
      </trkpt>
      <trkpt lat="46.055378" lon="-0.536915">
        <ele>44.2</ele>
        <time>2020-08-12T18:57:08Z</time>
      </trkpt>
      <trkpt lat="46.053317" lon="-0.537142">
        <ele>45.2</ele>
        <time>2020-08-12T18:57:17Z</time>
      </trkpt>
      <trkpt lat="46.051911" lon="-0.537212">
        <ele>46.2</ele>
        <time>2020-08-12T18:57:22Z</time>
      </trkpt>
      <trkpt lat="46.050649" lon="-0.537233">
        <ele>52.0</ele>
        <time>2020-08-12T18:57:27Z</time>
      </trkpt>
      <trkpt lat="46.041666" lon="-0.536907">
        <ele>85.6</ele>
        <time>2020-08-12T18:58:04Z</time>
      </trkpt>
      <trkpt lat="46.040326" lon="-0.536901">
        <ele>88.0</ele>
        <time>2020-08-12T18:58:09Z</time>
      </trkpt>
      <trkpt lat="46.039019" lon="-0.536929">
        <ele>84.4</ele>
        <time>2020-08-12T18:58:14Z</time>
      </trkpt>
      <trkpt lat="46.037755" lon="-0.537008">
        <ele>82.0</ele>
        <time>2020-08-12T18:58:20Z</time>
      </trkpt>
      <trkpt lat="46.036498" lon="-0.537126">
        <ele>81.2</ele>
        <time>2020-08-12T18:58:25Z</time>
      </trkpt>
      <trkpt lat="46.035199" lon="-0.537336">
        <ele>80.4</ele>
        <time>2020-08-12T18:58:30Z</time>
      </trkpt>
      <trkpt lat="46.033893" lon="-0.537593">
        <ele>82.6</ele>
        <time>2020-08-12T18:58:35Z</time>
      </trkpt>
      <trkpt lat="46.032725" lon="-0.537881">
        <ele>84.2</ele>
        <time>2020-08-12T18:58:40Z</time>
      </trkpt>
      <trkpt lat="46.031199" lon="-0.538361">
        <ele>85.0</ele>
        <time>2020-08-12T18:58:46Z</time>
      </trkpt>
      <trkpt lat="46.029744" lon="-0.538881">
        <ele>86.6</ele>
        <time>2020-08-12T18:58:52Z</time>
      </trkpt>
      <trkpt lat="46.025837" lon="-0.540358">
        <ele>96.6</ele>
        <time>2020-08-12T18:59:09Z</time>
      </trkpt>
      <trkpt lat="46.024986" lon="-0.540656">
        <ele>94.6</ele>
        <time>2020-08-12T18:59:12Z</time>
      </trkpt>
      <trkpt lat="46.023907" lon="-0.540991">
        <ele>92.2</ele>
        <time>2020-08-12T18:59:17Z</time>
      </trkpt>
      <trkpt lat="46.022598" lon="-0.541317">
        <ele>93.0</ele>
        <time>2020-08-12T18:59:22Z</time>
      </trkpt>
      <trkpt lat="46.021366" lon="-0.541547">
        <ele>97.4</ele>
        <time>2020-08-12T18:59:27Z</time>
      </trkpt>
      <trkpt lat="46.02014" lon="-0.541689">
        <ele>98.4</ele>
        <time>2020-08-12T18:59:32Z</time>
      </trkpt>
      <trkpt lat="46.018899" lon="-0.54175">
        <ele>97.6</ele>
        <time>2020-08-12T18:59:37Z</time>
      </trkpt>
      <trkpt lat="46.017673" lon="-0.541722">
        <ele>93.6</ele>
        <time>2020-08-12T18:59:42Z</time>
      </trkpt>
      <trkpt lat="46.016557" lon="-0.541638">
        <ele>86.2</ele>
        <time>2020-08-12T18:59:47Z</time>
      </trkpt>
      <trkpt lat="46.015393" lon="-0.541508">
        <ele>83.4</ele>
        <time>2020-08-12T18:59:51Z</time>
      </trkpt>
      <trkpt lat="46.011592" lon="-0.540966">
        <ele>75.8</ele>
        <time>2020-08-12T19:00:07Z</time>
      </trkpt>
      <trkpt lat="46.010292" lon="-0.54084">
        <ele>75.4</ele>
        <time>2020-08-12T19:00:12Z</time>
      </trkpt>
      <trkpt lat="46.009134" lon="-0.540785">
        <ele>76.4</ele>
        <time>2020-08-12T19:00:17Z</time>
      </trkpt>
      <trkpt lat="46.007934" lon="-0.540821">
        <ele>73.8</ele>
        <time>2020-08-12T19:00:22Z</time>
      </trkpt>
      <trkpt lat="46.006851" lon="-0.540887">
        <ele>71.8</ele>
        <time>2020-08-12T19:00:26Z</time>
      </trkpt>
      <trkpt lat="46.005622" lon="-0.541049">
        <ele>69.2</ele>
        <time>2020-08-12T19:00:31Z</time>
      </trkpt>
      <trkpt lat="46.004491" lon="-0.541283">
        <ele>69.8</ele>
        <time>2020-08-12T19:00:36Z</time>
      </trkpt>
      <trkpt lat="46.003295" lon="-0.541573">
        <ele>67.2</ele>
        <time>2020-08-12T19:00:41Z</time>
      </trkpt>
      <trkpt lat="45.998282" lon="-0.543206">
        <ele>72.2</ele>
        <time>2020-08-12T19:01:01Z</time>
      </trkpt>
      <trkpt lat="45.996349" lon="-0.543731">
        <ele>67.8</ele>
        <time>2020-08-12T19:01:09Z</time>
      </trkpt>
      <trkpt lat="45.995348" lon="-0.54396">
        <ele>64.2</ele>
        <time>2020-08-12T19:01:13Z</time>
      </trkpt>
      <trkpt lat="45.994109" lon="-0.54421">
        <ele>62.8</ele>
        <time>2020-08-12T19:01:18Z</time>
      </trkpt>
      <trkpt lat="45.992773" lon="-0.544421">
        <ele>64.0</ele>
        <time>2020-08-12T19:01:24Z</time>
      </trkpt>
      <trkpt lat="45.991456" lon="-0.544578">
        <ele>68.8</ele>
        <time>2020-08-12T19:01:29Z</time>
      </trkpt>
      <trkpt lat="45.98493" lon="-0.545278">
        <ele>61.6</ele>
        <time>2020-08-12T19:01:56Z</time>
      </trkpt>
      <trkpt lat="45.982987" lon="-0.545522">
        <ele>60.4</ele>
        <time>2020-08-12T19:02:04Z</time>
      </trkpt>
      <trkpt lat="45.981501" lon="-0.545752">
        <ele>60.4</ele>
        <time>2020-08-12T19:02:10Z</time>
      </trkpt>
      <trkpt lat="45.97875" lon="-0.546295">
        <ele>49.6</ele>
        <time>2020-08-12T19:02:21Z</time>
      </trkpt>
      <trkpt lat="45.975828" lon="-0.546979">
        <ele>50.8</ele>
        <time>2020-08-12T19:02:33Z</time>
      </trkpt>
      <trkpt lat="45.973944" lon="-0.547491">
        <ele>48.2</ele>
        <time>2020-08-12T19:02:41Z</time>
      </trkpt>
      <trkpt lat="45.972581" lon="-0.547911">
        <ele>45.8</ele>
        <time>2020-08-12T19:02:46Z</time>
      </trkpt>
      <trkpt lat="45.96974" lon="-0.548893">
        <ele>26.0</ele>
        <time>2020-08-12T19:02:58Z</time>
      </trkpt>
      <trkpt lat="45.95757" lon="-0.553436">
        <ele>7.6</ele>
        <time>2020-08-12T19:03:49Z</time>
      </trkpt>
      <trkpt lat="45.955198" lon="-0.554294">
        <ele>7.2</ele>
        <time>2020-08-12T19:03:59Z</time>
      </trkpt>
      <trkpt lat="45.952971" lon="-0.555068">
        <ele>7.6</ele>
        <time>2020-08-12T19:04:08Z</time>
      </trkpt>
      <trkpt lat="45.944533" lon="-0.557595">
        <ele>25.2</ele>
        <time>2020-08-12T19:04:43Z</time>
      </trkpt>
      <trkpt lat="45.942172" lon="-0.558363">
        <ele>30.8</ele>
        <time>2020-08-12T19:04:53Z</time>
      </trkpt>
      <trkpt lat="45.941224" lon="-0.558735">
        <ele>34.4</ele>
        <time>2020-08-12T19:04:57Z</time>
      </trkpt>
      <trkpt lat="45.940424" lon="-0.559098">
        <ele>37.4</ele>
        <time>2020-08-12T19:05:00Z</time>
      </trkpt>
      <trkpt lat="45.939565" lon="-0.55956">
        <ele>39.4</ele>
        <time>2020-08-12T19:05:04Z</time>
      </trkpt>
      <trkpt lat="45.938627" lon="-0.560147">
        <ele>41.4</ele>
        <time>2020-08-12T19:05:08Z</time>
      </trkpt>
      <trkpt lat="45.937827" lon="-0.560711">
        <ele>43.4</ele>
        <time>2020-08-12T19:05:12Z</time>
      </trkpt>
      <trkpt lat="45.93698" lon="-0.561405">
        <ele>46.2</ele>
        <time>2020-08-12T19:05:15Z</time>
      </trkpt>
      <trkpt lat="45.936367" lon="-0.561953">
        <ele>48.6</ele>
        <time>2020-08-12T19:05:18Z</time>
      </trkpt>
      <trkpt lat="45.935807" lon="-0.562491">
        <ele>48.4</ele>
        <time>2020-08-12T19:05:21Z</time>
      </trkpt>
      <trkpt lat="45.935208" lon="-0.563151">
        <ele>50.2</ele>
        <time>2020-08-12T19:05:24Z</time>
      </trkpt>
      <trkpt lat="45.934651" lon="-0.563804">
        <ele>50.8</ele>
        <time>2020-08-12T19:05:27Z</time>
      </trkpt>
      <trkpt lat="45.934085" lon="-0.564554">
        <ele>51.4</ele>
        <time>2020-08-12T19:05:30Z</time>
      </trkpt>
      <trkpt lat="45.933332" lon="-0.565612">
        <ele>52.4</ele>
        <time>2020-08-12T19:05:34Z</time>
      </trkpt>
      <trkpt lat="45.93274" lon="-0.566546">
        <ele>53.8</ele>
        <time>2020-08-12T19:05:38Z</time>
      </trkpt>
      <trkpt lat="45.932022" lon="-0.567756">
        <ele>53.0</ele>
        <time>2020-08-12T19:05:42Z</time>
      </trkpt>
      <trkpt lat="45.929349" lon="-0.572631">
        <ele>38.4</ele>
        <time>2020-08-12T19:06:00Z</time>
      </trkpt>
      <trkpt lat="45.928235" lon="-0.574487">
        <ele>38.4</ele>
        <time>2020-08-12T19:06:07Z</time>
      </trkpt>
      <trkpt lat="45.927701" lon="-0.575287">
        <ele>41.4</ele>
        <time>2020-08-12T19:06:10Z</time>
      </trkpt>
      <trkpt lat="45.927048" lon="-0.576194">
        <ele>44.4</ele>
        <time>2020-08-12T19:06:14Z</time>
      </trkpt>
      <trkpt lat="45.926604" lon="-0.576749">
        <ele>47.8</ele>
        <time>2020-08-12T19:06:16Z</time>
      </trkpt>
      <trkpt lat="45.925869" lon="-0.577573">
        <ele>50.8</ele>
        <time>2020-08-12T19:06:20Z</time>
      </trkpt>
      <trkpt lat="45.925064" lon="-0.578421">
        <ele>56.4</ele>
        <time>2020-08-12T19:06:24Z</time>
      </trkpt>
      <trkpt lat="45.924428" lon="-0.579">
        <ele>57.6</ele>
        <time>2020-08-12T19:06:27Z</time>
      </trkpt>
      <trkpt lat="45.923318" lon="-0.579827">
        <ele>64.8</ele>
        <time>2020-08-12T19:06:32Z</time>
      </trkpt>
      <trkpt lat="45.922584" lon="-0.580343">
        <ele>67.0</ele>
        <time>2020-08-12T19:06:35Z</time>
      </trkpt>
      <trkpt lat="45.921567" lon="-0.580964">
        <ele>72.0</ele>
        <time>2020-08-12T19:06:40Z</time>
      </trkpt>
      <trkpt lat="45.919846" lon="-0.581863">
        <ele>74.0</ele>
        <time>2020-08-12T19:06:47Z</time>
      </trkpt>
      <trkpt lat="45.918965" lon="-0.582193">
        <ele>76.2</ele>
        <time>2020-08-12T19:06:51Z</time>
      </trkpt>
      <trkpt lat="45.918191" lon="-0.582445">
        <ele>79.0</ele>
        <time>2020-08-12T19:06:54Z</time>
      </trkpt>
      <trkpt lat="45.917069" lon="-0.582762">
        <ele>81.8</ele>
        <time>2020-08-12T19:06:59Z</time>
      </trkpt>
      <trkpt lat="45.914913" lon="-0.583242">
        <ele>77.8</ele>
        <time>2020-08-12T19:07:07Z</time>
      </trkpt>
      <trkpt lat="45.913305" lon="-0.583666">
        <ele>66.4</ele>
        <time>2020-08-12T19:07:14Z</time>
      </trkpt>
      <trkpt lat="45.91171" lon="-0.584134">
        <ele>62.6</ele>
        <time>2020-08-12T19:07:21Z</time>
      </trkpt>
      <trkpt lat="45.910809" lon="-0.584459">
        <ele>57.2</ele>
        <time>2020-08-12T19:07:24Z</time>
      </trkpt>
      <trkpt lat="45.909554" lon="-0.585012">
        <ele>58.4</ele>
        <time>2020-08-12T19:07:30Z</time>
      </trkpt>
      <trkpt lat="45.908645" lon="-0.585462">
        <ele>60.8</ele>
        <time>2020-08-12T19:07:34Z</time>
      </trkpt>
      <trkpt lat="45.907896" lon="-0.585866">
        <ele>59.4</ele>
        <time>2020-08-12T19:07:37Z</time>
      </trkpt>
      <trkpt lat="45.907025" lon="-0.586395">
        <ele>60.8</ele>
        <time>2020-08-12T19:07:41Z</time>
      </trkpt>
      <trkpt lat="45.906227" lon="-0.586939">
        <ele>64.4</ele>
        <time>2020-08-12T19:07:44Z</time>
      </trkpt>
      <trkpt lat="45.905362" lon="-0.58759">
        <ele>69.0</ele>
        <time>2020-08-12T19:07:48Z</time>
      </trkpt>
      <trkpt lat="45.904395" lon="-0.588392">
        <ele>71.6</ele>
        <time>2020-08-12T19:07:53Z</time>
      </trkpt>
      <trkpt lat="45.903572" lon="-0.589144">
        <ele>75.6</ele>
        <time>2020-08-12T19:07:57Z</time>
      </trkpt>
      <trkpt lat="45.902838" lon="-0.589858">
        <ele>73.6</ele>
        <time>2020-08-12T19:08:00Z</time>
      </trkpt>
      <trkpt lat="45.902054" lon="-0.590692">
        <ele>70.6</ele>
        <time>2020-08-12T19:08:04Z</time>
      </trkpt>
      <trkpt lat="45.90105" lon="-0.591869">
        <ele>64.6</ele>
        <time>2020-08-12T19:08:09Z</time>
      </trkpt>
      <trkpt lat="45.899932" lon="-0.593367">
        <ele>61.6</ele>
        <time>2020-08-12T19:08:16Z</time>
      </trkpt>
      <trkpt lat="45.899283" lon="-0.594313">
        <ele>58.6</ele>
        <time>2020-08-12T19:08:19Z</time>
      </trkpt>
      <trkpt lat="45.898462" lon="-0.595572">
        <ele>56.4</ele>
        <time>2020-08-12T19:08:24Z</time>
      </trkpt>
      <trkpt lat="45.887152" lon="-0.61397">
        <ele>26.4</ele>
        <time>2020-08-12T19:09:33Z</time>
      </trkpt>
      <trkpt lat="45.886369" lon="-0.615153">
        <ele>23.4</ele>
        <time>2020-08-12T19:09:38Z</time>
      </trkpt>
      <trkpt lat="45.885636" lon="-0.616157">
        <ele>27.6</ele>
        <time>2020-08-12T19:09:42Z</time>
      </trkpt>
      <trkpt lat="45.884774" lon="-0.617214">
        <ele>34.0</ele>
        <time>2020-08-12T19:09:47Z</time>
      </trkpt>
      <trkpt lat="45.883962" lon="-0.6181">
        <ele>36.2</ele>
        <time>2020-08-12T19:09:51Z</time>
      </trkpt>
      <trkpt lat="45.883073" lon="-0.618991">
        <ele>38.0</ele>
        <time>2020-08-12T19:09:55Z</time>
      </trkpt>
      <trkpt lat="45.882243" lon="-0.61972">
        <ele>41.8</ele>
        <time>2020-08-12T19:09:59Z</time>
      </trkpt>
      <trkpt lat="45.88153" lon="-0.620279">
        <ele>44.2</ele>
        <time>2020-08-12T19:10:02Z</time>
      </trkpt>
      <trkpt lat="45.880413" lon="-0.621031">
        <ele>49.8</ele>
        <time>2020-08-12T19:10:07Z</time>
      </trkpt>
      <trkpt lat="45.879674" lon="-0.621456">
        <ele>51.8</ele>
        <time>2020-08-12T19:10:11Z</time>
      </trkpt>
      <trkpt lat="45.878841" lon="-0.621864">
        <ele>56.2</ele>
        <time>2020-08-12T19:10:14Z</time>
      </trkpt>
      <trkpt lat="45.878054" lon="-0.622181">
        <ele>52.6</ele>
        <time>2020-08-12T19:10:17Z</time>
      </trkpt>
      <trkpt lat="45.87716" lon="-0.622484">
        <ele>49.6</ele>
        <time>2020-08-12T19:10:21Z</time>
      </trkpt>
      <trkpt lat="45.87624" lon="-0.622711">
        <ele>52.2</ele>
        <time>2020-08-12T19:10:25Z</time>
      </trkpt>
      <trkpt lat="45.875194" lon="-0.622897">
        <ele>48.6</ele>
        <time>2020-08-12T19:10:29Z</time>
      </trkpt>
      <trkpt lat="45.874334" lon="-0.622997">
        <ele>45.2</ele>
        <time>2020-08-12T19:10:33Z</time>
      </trkpt>
      <trkpt lat="45.873501" lon="-0.623043">
        <ele>41.6</ele>
        <time>2020-08-12T19:10:36Z</time>
      </trkpt>
      <trkpt lat="45.871455" lon="-0.622914">
        <ele>24.2</ele>
        <time>2020-08-12T19:10:44Z</time>
      </trkpt>
      <trkpt lat="45.870406" lon="-0.622706">
        <ele>21.0</ele>
        <time>2020-08-12T19:10:49Z</time>
      </trkpt>
      <trkpt lat="45.867718" lon="-0.62228">
        <ele>12.0</ele>
        <time>2020-08-12T19:11:00Z</time>
      </trkpt>
      <trkpt lat="45.865633" lon="-0.621916">
        <ele>19.0</ele>
        <time>2020-08-12T19:11:08Z</time>
      </trkpt>
      <trkpt lat="45.862976" lon="-0.621505">
        <ele>38.2</ele>
        <time>2020-08-12T19:11:19Z</time>
      </trkpt>
      <trkpt lat="45.860667" lon="-0.621351">
        <ele>42.8</ele>
        <time>2020-08-12T19:11:28Z</time>
      </trkpt>
      <trkpt lat="45.859785" lon="-0.621377">
        <ele>42.8</ele>
        <time>2020-08-12T19:11:32Z</time>
      </trkpt>
      <trkpt lat="45.858032" lon="-0.621551">
        <ele>40.8</ele>
        <time>2020-08-12T19:11:39Z</time>
      </trkpt>
      <trkpt lat="45.857046" lon="-0.621734">
        <ele>41.8</ele>
        <time>2020-08-12T19:11:43Z</time>
      </trkpt>
      <trkpt lat="45.855948" lon="-0.622007">
        <ele>40.6</ele>
        <time>2020-08-12T19:11:47Z</time>
      </trkpt>
      <trkpt lat="45.854772" lon="-0.62238">
        <ele>34.2</ele>
        <time>2020-08-12T19:11:52Z</time>
      </trkpt>
      <trkpt lat="45.850924" lon="-0.623706">
        <ele>22.0</ele>
        <time>2020-08-12T19:12:08Z</time>
      </trkpt>
      <trkpt lat="45.847975" lon="-0.624659">
        <ele>13.8</ele>
        <time>2020-08-12T19:12:21Z</time>
      </trkpt>
      <trkpt lat="45.846476" lon="-0.625075">
        <ele>8.0</ele>
        <time>2020-08-12T19:12:27Z</time>
      </trkpt>
      <trkpt lat="45.844846" lon="-0.625471">
        <ele>6.2</ele>
        <time>2020-08-12T19:12:33Z</time>
      </trkpt>
      <trkpt lat="45.840743" lon="-0.626388">
        <ele>16.2</ele>
        <time>2020-08-12T19:12:50Z</time>
      </trkpt>
      <trkpt lat="45.838518" lon="-0.626907">
        <ele>16.8</ele>
        <time>2020-08-12T19:12:59Z</time>
      </trkpt>
      <trkpt lat="45.837398" lon="-0.627193">
        <ele>23.0</ele>
        <time>2020-08-12T19:13:04Z</time>
      </trkpt>
      <trkpt lat="45.836303" lon="-0.627533">
        <ele>26.4</ele>
        <time>2020-08-12T19:13:08Z</time>
      </trkpt>
      <trkpt lat="45.83579" lon="-0.627743">
        <ele>27.2</ele>
        <time>2020-08-12T19:13:11Z</time>
      </trkpt>
      <trkpt lat="45.834911" lon="-0.628147">
        <ele>27.8</ele>
        <time>2020-08-12T19:13:14Z</time>
      </trkpt>
      <trkpt lat="45.834215" lon="-0.628502">
        <ele>27.8</ele>
        <time>2020-08-12T19:13:17Z</time>
      </trkpt>
      <trkpt lat="45.833136" lon="-0.629167">
        <ele>27.8</ele>
        <time>2020-08-12T19:13:22Z</time>
      </trkpt>
      <trkpt lat="45.832625" lon="-0.629524">
        <ele>27.8</ele>
        <time>2020-08-12T19:13:24Z</time>
      </trkpt>
      <trkpt lat="45.832077" lon="-0.629937">
        <ele>28.2</ele>
        <time>2020-08-12T19:13:27Z</time>
      </trkpt>
      <trkpt lat="45.831103" lon="-0.630764">
        <ele>27.4</ele>
        <time>2020-08-12T19:13:31Z</time>
      </trkpt>
      <trkpt lat="45.830624" lon="-0.631215">
        <ele>25.0</ele>
        <time>2020-08-12T19:13:34Z</time>
      </trkpt>
      <trkpt lat="45.830182" lon="-0.631661">
        <ele>25.0</ele>
        <time>2020-08-12T19:13:36Z</time>
      </trkpt>
      <trkpt lat="45.82945" lon="-0.632468">
        <ele>23.8</ele>
        <time>2020-08-12T19:13:40Z</time>
      </trkpt>
      <trkpt lat="45.828782" lon="-0.633289">
        <ele>24.0</ele>
        <time>2020-08-12T19:13:43Z</time>
      </trkpt>
      <trkpt lat="45.828037" lon="-0.634298">
        <ele>19.6</ele>
        <time>2020-08-12T19:13:47Z</time>
      </trkpt>
      <trkpt lat="45.827427" lon="-0.635224">
        <ele>18.4</ele>
        <time>2020-08-12T19:13:51Z</time>
      </trkpt>
      <trkpt lat="45.82685" lon="-0.636198">
        <ele>16.2</ele>
        <time>2020-08-12T19:13:55Z</time>
      </trkpt>
      <trkpt lat="45.825762" lon="-0.638159">
        <ele>13.6</ele>
        <time>2020-08-12T19:14:02Z</time>
      </trkpt>
      <trkpt lat="45.824245" lon="-0.641094">
        <ele>5.6</ele>
        <time>2020-08-12T19:14:12Z</time>
      </trkpt>
      <trkpt lat="45.822284" lon="-0.644831">
        <ele>3.4</ele>
        <time>2020-08-12T19:14:25Z</time>
      </trkpt>
      <trkpt lat="45.821451" lon="-0.646264">
        <ele>3.4</ele>
        <time>2020-08-12T19:14:30Z</time>
      </trkpt>
      <trkpt lat="45.820513" lon="-0.64765">
        <ele>4.8</ele>
        <time>2020-08-12T19:14:36Z</time>
      </trkpt>
      <trkpt lat="45.820024" lon="-0.648274">
        <ele>4.8</ele>
        <time>2020-08-12T19:14:38Z</time>
      </trkpt>
      <trkpt lat="45.819476" lon="-0.648926">
        <ele>5.2</ele>
        <time>2020-08-12T19:14:41Z</time>
      </trkpt>
      <trkpt lat="45.818891" lon="-0.649529">
        <ele>6.2</ele>
        <time>2020-08-12T19:14:44Z</time>
      </trkpt>
      <trkpt lat="45.818385" lon="-0.650009">
        <ele>5.8</ele>
        <time>2020-08-12T19:14:47Z</time>
      </trkpt>
      <trkpt lat="45.817782" lon="-0.650525">
        <ele>7.2</ele>
        <time>2020-08-12T19:14:50Z</time>
      </trkpt>
      <trkpt lat="45.817237" lon="-0.650926">
        <ele>8.8</ele>
        <time>2020-08-12T19:14:52Z</time>
      </trkpt>
      <trkpt lat="45.816621" lon="-0.651341">
        <ele>9.8</ele>
        <time>2020-08-12T19:14:55Z</time>
      </trkpt>
      <trkpt lat="45.816039" lon="-0.65168">
        <ele>10.8</ele>
        <time>2020-08-12T19:14:57Z</time>
      </trkpt>
      <trkpt lat="45.815417" lon="-0.652001">
        <ele>12.0</ele>
        <time>2020-08-12T19:15:00Z</time>
      </trkpt>
      <trkpt lat="45.814552" lon="-0.652339">
        <ele>13.2</ele>
        <time>2020-08-12T19:15:04Z</time>
      </trkpt>
      <trkpt lat="45.813651" lon="-0.652628">
        <ele>13.6</ele>
        <time>2020-08-12T19:15:07Z</time>
      </trkpt>
      <trkpt lat="45.812723" lon="-0.652867">
        <ele>13.4</ele>
        <time>2020-08-12T19:15:11Z</time>
      </trkpt>
      <trkpt lat="45.811772" lon="-0.653068">
        <ele>13.0</ele>
        <time>2020-08-12T19:15:15Z</time>
      </trkpt>
      <trkpt lat="45.809794" lon="-0.653379">
        <ele>13.8</ele>
        <time>2020-08-12T19:15:23Z</time>
      </trkpt>
      <trkpt lat="45.807835" lon="-0.65373">
        <ele>12.8</ele>
        <time>2020-08-12T19:15:31Z</time>
      </trkpt>
      <trkpt lat="45.806851" lon="-0.653942">
        <ele>11.6</ele>
        <time>2020-08-12T19:15:35Z</time>
      </trkpt>
      <trkpt lat="45.805869" lon="-0.654188">
        <ele>12.0</ele>
        <time>2020-08-12T19:15:39Z</time>
      </trkpt>
      <trkpt lat="45.805073" lon="-0.654428">
        <ele>12.8</ele>
        <time>2020-08-12T19:15:42Z</time>
      </trkpt>
      <trkpt lat="45.804339" lon="-0.65471">
        <ele>14.6</ele>
        <time>2020-08-12T19:15:46Z</time>
      </trkpt>
      <trkpt lat="45.802848" lon="-0.655378">
        <ele>16.8</ele>
        <time>2020-08-12T19:15:52Z</time>
      </trkpt>
      <trkpt lat="45.801833" lon="-0.655937">
        <ele>20.4</ele>
        <time>2020-08-12T19:15:56Z</time>
      </trkpt>
      <trkpt lat="45.800959" lon="-0.656487">
        <ele>20.2</ele>
        <time>2020-08-12T19:16:00Z</time>
      </trkpt>
      <trkpt lat="45.800519" lon="-0.656792">
        <ele>24.6</ele>
        <time>2020-08-12T19:16:02Z</time>
      </trkpt>
      <trkpt lat="45.799821" lon="-0.657307">
        <ele>27.6</ele>
        <time>2020-08-12T19:16:05Z</time>
      </trkpt>
      <trkpt lat="45.799257" lon="-0.657762">
        <ele>32.4</ele>
        <time>2020-08-12T19:16:08Z</time>
      </trkpt>
      <trkpt lat="45.798706" lon="-0.658237">
        <ele>33.4</ele>
        <time>2020-08-12T19:16:10Z</time>
      </trkpt>
      <trkpt lat="45.797301" lon="-0.659568">
        <ele>39.4</ele>
        <time>2020-08-12T19:16:17Z</time>
      </trkpt>
      <trkpt lat="45.796261" lon="-0.660649">
        <ele>42.2</ele>
        <time>2020-08-12T19:16:22Z</time>
      </trkpt>
      <trkpt lat="45.795233" lon="-0.661761">
        <ele>43.6</ele>
        <time>2020-08-12T19:16:28Z</time>
      </trkpt>
      <trkpt lat="45.794769" lon="-0.662292">
        <ele>43.8</ele>
        <time>2020-08-12T19:16:30Z</time>
      </trkpt>
      <trkpt lat="45.793866" lon="-0.66325">
        <ele>43.4</ele>
        <time>2020-08-12T19:16:35Z</time>
      </trkpt>
      <trkpt lat="45.793465" lon="-0.663655">
        <ele>40.8</ele>
        <time>2020-08-12T19:16:37Z</time>
      </trkpt>
      <trkpt lat="45.792542" lon="-0.664484">
        <ele>40.0</ele>
        <time>2020-08-12T19:16:41Z</time>
      </trkpt>
      <trkpt lat="45.791301" lon="-0.665475">
        <ele>43.8</ele>
        <time>2020-08-12T19:16:47Z</time>
      </trkpt>
      <trkpt lat="45.790546" lon="-0.665987">
        <ele>43.0</ele>
        <time>2020-08-12T19:16:50Z</time>
      </trkpt>
      <trkpt lat="45.789824" lon="-0.666412">
        <ele>45.4</ele>
        <time>2020-08-12T19:16:53Z</time>
      </trkpt>
      <trkpt lat="45.789439" lon="-0.666616">
        <ele>45.4</ele>
        <time>2020-08-12T19:16:55Z</time>
      </trkpt>
      <trkpt lat="45.788651" lon="-0.666978">
        <ele>45.8</ele>
        <time>2020-08-12T19:16:58Z</time>
      </trkpt>
      <trkpt lat="45.788211" lon="-0.667155">
        <ele>46.6</ele>
        <time>2020-08-12T19:17:00Z</time>
      </trkpt>
      <trkpt lat="45.787628" lon="-0.667366">
        <ele>46.6</ele>
        <time>2020-08-12T19:17:03Z</time>
      </trkpt>
      <trkpt lat="45.786951" lon="-0.667566">
        <ele>41.6</ele>
        <time>2020-08-12T19:17:05Z</time>
      </trkpt>
      <trkpt lat="45.786136" lon="-0.66774">
        <ele>39.0</ele>
        <time>2020-08-12T19:17:09Z</time>
      </trkpt>
      <trkpt lat="45.785414" lon="-0.667848">
        <ele>38.0</ele>
        <time>2020-08-12T19:17:12Z</time>
      </trkpt>
      <trkpt lat="45.784841" lon="-0.667901">
        <ele>38.4</ele>
        <time>2020-08-12T19:17:14Z</time>
      </trkpt>
      <trkpt lat="45.783894" lon="-0.66795">
        <ele>38.2</ele>
        <time>2020-08-12T19:17:18Z</time>
      </trkpt>
      <trkpt lat="45.78282" lon="-0.667977">
        <ele>37.6</ele>
        <time>2020-08-12T19:17:22Z</time>
      </trkpt>
      <trkpt lat="45.778409" lon="-0.66771">
        <ele>33.2</ele>
        <time>2020-08-12T19:17:40Z</time>
      </trkpt>
      <trkpt lat="45.777445" lon="-0.667689">
        <ele>41.0</ele>
        <time>2020-08-12T19:17:44Z</time>
      </trkpt>
      <trkpt lat="45.776493" lon="-0.667696">
        <ele>45.2</ele>
        <time>2020-08-12T19:17:48Z</time>
      </trkpt>
      <trkpt lat="45.775434" lon="-0.667764">
        <ele>48.0</ele>
        <time>2020-08-12T19:17:52Z</time>
      </trkpt>
      <trkpt lat="45.774493" lon="-0.667872">
        <ele>50.0</ele>
        <time>2020-08-12T19:17:56Z</time>
      </trkpt>
      <trkpt lat="45.773446" lon="-0.668046">
        <ele>50.0</ele>
        <time>2020-08-12T19:18:00Z</time>
      </trkpt>
      <trkpt lat="45.772284" lon="-0.668286">
        <ele>49.0</ele>
        <time>2020-08-12T19:18:05Z</time>
      </trkpt>
      <trkpt lat="45.771817" lon="-0.668407">
        <ele>52.2</ele>
        <time>2020-08-12T19:18:07Z</time>
      </trkpt>
      <trkpt lat="45.770777" lon="-0.668723">
        <ele>50.2</ele>
        <time>2020-08-12T19:18:11Z</time>
      </trkpt>
      <trkpt lat="45.769477" lon="-0.669167">
        <ele>47.6</ele>
        <time>2020-08-12T19:18:16Z</time>
      </trkpt>
      <trkpt lat="45.768994" lon="-0.669348">
        <ele>43.4</ele>
        <time>2020-08-12T19:18:19Z</time>
      </trkpt>
      <trkpt lat="45.766907" lon="-0.670222">
        <ele>49.6</ele>
        <time>2020-08-12T19:18:27Z</time>
      </trkpt>
      <trkpt lat="45.765142" lon="-0.670918">
        <ele>48.4</ele>
        <time>2020-08-12T19:18:35Z</time>
      </trkpt>
      <trkpt lat="45.763878" lon="-0.671341">
        <ele>44.8</ele>
        <time>2020-08-12T19:18:40Z</time>
      </trkpt>
      <trkpt lat="45.762871" lon="-0.671655">
        <ele>47.2</ele>
        <time>2020-08-12T19:18:44Z</time>
      </trkpt>
      <trkpt lat="45.762302" lon="-0.671803">
        <ele>51.0</ele>
        <time>2020-08-12T19:18:46Z</time>
      </trkpt>
      <trkpt lat="45.76098" lon="-0.672086">
        <ele>49.4</ele>
        <time>2020-08-12T19:18:52Z</time>
      </trkpt>
      <trkpt lat="45.759707" lon="-0.672249">
        <ele>44.4</ele>
        <time>2020-08-12T19:18:57Z</time>
      </trkpt>
      <trkpt lat="45.758122" lon="-0.672346">
        <ele>44.0</ele>
        <time>2020-08-12T19:19:03Z</time>
      </trkpt>
      <trkpt lat="45.756517" lon="-0.672329">
        <ele>41.8</ele>
        <time>2020-08-12T19:19:10Z</time>
      </trkpt>
      <trkpt lat="45.755302" lon="-0.672246">
        <ele>40.6</ele>
        <time>2020-08-12T19:19:15Z</time>
      </trkpt>
      <trkpt lat="45.753604" lon="-0.672081">
        <ele>42.6</ele>
        <time>2020-08-12T19:19:22Z</time>
      </trkpt>
      <trkpt lat="45.752454" lon="-0.671932">
        <ele>43.2</ele>
        <time>2020-08-12T19:19:26Z</time>
      </trkpt>
      <trkpt lat="45.750536" lon="-0.671638">
        <ele>43.0</ele>
        <time>2020-08-12T19:19:34Z</time>
      </trkpt>
      <trkpt lat="45.749035" lon="-0.671359">
        <ele>46.6</ele>
        <time>2020-08-12T19:19:40Z</time>
      </trkpt>
      <trkpt lat="45.746432" lon="-0.670731">
        <ele>57.2</ele>
        <time>2020-08-12T19:19:51Z</time>
      </trkpt>
      <trkpt lat="45.744545" lon="-0.670137">
        <ele>56.0</ele>
        <time>2020-08-12T19:19:59Z</time>
      </trkpt>
      <trkpt lat="45.743126" lon="-0.669568">
        <ele>54.2</ele>
        <time>2020-08-12T19:20:05Z</time>
      </trkpt>
      <trkpt lat="45.742015" lon="-0.669066">
        <ele>50.2</ele>
        <time>2020-08-12T19:20:10Z</time>
      </trkpt>
      <trkpt lat="45.740872" lon="-0.668485">
        <ele>48.6</ele>
        <time>2020-08-12T19:20:14Z</time>
      </trkpt>
      <trkpt lat="45.739627" lon="-0.667771">
        <ele>47.0</ele>
        <time>2020-08-12T19:20:20Z</time>
      </trkpt>
      <trkpt lat="45.738356" lon="-0.667011">
        <ele>46.6</ele>
        <time>2020-08-12T19:20:25Z</time>
      </trkpt>
      <trkpt lat="45.735756" lon="-0.665348">
        <ele>38.0</ele>
        <time>2020-08-12T19:20:37Z</time>
      </trkpt>
      <trkpt lat="45.734108" lon="-0.664343">
        <ele>38.2</ele>
        <time>2020-08-12T19:20:44Z</time>
      </trkpt>
      <trkpt lat="45.732768" lon="-0.663646">
        <ele>39.2</ele>
        <time>2020-08-12T19:20:50Z</time>
      </trkpt>
      <trkpt lat="45.731884" lon="-0.663234">
        <ele>38.6</ele>
        <time>2020-08-12T19:20:54Z</time>
      </trkpt>
      <trkpt lat="45.73092" lon="-0.662853">
        <ele>39.6</ele>
        <time>2020-08-12T19:20:58Z</time>
      </trkpt>
      <trkpt lat="45.729737" lon="-0.662425">
        <ele>44.0</ele>
        <time>2020-08-12T19:21:03Z</time>
      </trkpt>
      <trkpt lat="45.728391" lon="-0.662002">
        <ele>47.2</ele>
        <time>2020-08-12T19:21:08Z</time>
      </trkpt>
      <trkpt lat="45.726889" lon="-0.661597">
        <ele>44.4</ele>
        <time>2020-08-12T19:21:14Z</time>
      </trkpt>
      <trkpt lat="45.723131" lon="-0.660752">
        <ele>46.0</ele>
        <time>2020-08-12T19:21:30Z</time>
      </trkpt>
      <trkpt lat="45.72167" lon="-0.660381">
        <ele>45.0</ele>
        <time>2020-08-12T19:21:36Z</time>
      </trkpt>
      <trkpt lat="45.720093" lon="-0.65989">
        <ele>42.6</ele>
        <time>2020-08-12T19:21:42Z</time>
      </trkpt>
      <trkpt lat="45.718897" lon="-0.659456">
        <ele>43.2</ele>
        <time>2020-08-12T19:21:47Z</time>
      </trkpt>
      <trkpt lat="45.717598" lon="-0.658947">
        <ele>42.0</ele>
        <time>2020-08-12T19:21:53Z</time>
      </trkpt>
      <trkpt lat="45.716974" lon="-0.658637">
        <ele>41.6</ele>
        <time>2020-08-12T19:21:55Z</time>
      </trkpt>
      <trkpt lat="45.715908" lon="-0.65815">
        <ele>38.8</ele>
        <time>2020-08-12T19:22:00Z</time>
      </trkpt>
      <trkpt lat="45.714807" lon="-0.657562">
        <ele>35.4</ele>
        <time>2020-08-12T19:22:05Z</time>
      </trkpt>
      <trkpt lat="45.708182" lon="-0.653785">
        <ele>36.0</ele>
        <time>2020-08-12T19:22:34Z</time>
      </trkpt>
      <trkpt lat="45.707261" lon="-0.65328">
        <ele>36.2</ele>
        <time>2020-08-12T19:22:38Z</time>
      </trkpt>
      <trkpt lat="45.706412" lon="-0.652856">
        <ele>38.8</ele>
        <time>2020-08-12T19:22:41Z</time>
      </trkpt>
      <trkpt lat="45.704629" lon="-0.652066">
        <ele>40.0</ele>
        <time>2020-08-12T19:22:49Z</time>
      </trkpt>
      <trkpt lat="45.702597" lon="-0.65121">
        <ele>39.4</ele>
        <time>2020-08-12T19:22:57Z</time>
      </trkpt>
      <trkpt lat="45.701347" lon="-0.650767">
        <ele>43.4</ele>
        <time>2020-08-12T19:23:02Z</time>
      </trkpt>
      <trkpt lat="45.700313" lon="-0.65043">
        <ele>45.2</ele>
        <time>2020-08-12T19:23:07Z</time>
      </trkpt>
      <trkpt lat="45.69836" lon="-0.649856">
        <ele>47.4</ele>
        <time>2020-08-12T19:23:15Z</time>
      </trkpt>
      <trkpt lat="45.687335" lon="-0.646324">
        <ele>42.8</ele>
        <time>2020-08-12T19:24:01Z</time>
      </trkpt>
      <trkpt lat="45.683316" lon="-0.644815">
        <ele>43.4</ele>
        <time>2020-08-12T19:24:17Z</time>
      </trkpt>
      <trkpt lat="45.680819" lon="-0.643598">
        <ele>47.6</ele>
        <time>2020-08-12T19:24:28Z</time>
      </trkpt>
      <trkpt lat="45.67377" lon="-0.639983">
        <ele>60.6</ele>
        <time>2020-08-12T19:24:58Z</time>
      </trkpt>
      <trkpt lat="45.672577" lon="-0.639418">
        <ele>60.4</ele>
        <time>2020-08-12T19:25:03Z</time>
      </trkpt>
      <trkpt lat="45.671252" lon="-0.63884">
        <ele>57.8</ele>
        <time>2020-08-12T19:25:09Z</time>
      </trkpt>
      <trkpt lat="45.67012" lon="-0.638389">
        <ele>57.0</ele>
        <time>2020-08-12T19:25:14Z</time>
      </trkpt>
      <trkpt lat="45.668908" lon="-0.637959">
        <ele>57.0</ele>
        <time>2020-08-12T19:25:19Z</time>
      </trkpt>
      <trkpt lat="45.667315" lon="-0.63745">
        <ele>60.8</ele>
        <time>2020-08-12T19:25:25Z</time>
      </trkpt>
      <trkpt lat="45.664681" lon="-0.636742">
        <ele>61.6</ele>
        <time>2020-08-12T19:25:36Z</time>
      </trkpt>
      <trkpt lat="45.65726" lon="-0.635032">
        <ele>57.4</ele>
        <time>2020-08-12T19:26:07Z</time>
      </trkpt>
      <trkpt lat="45.656002" lon="-0.634719">
        <ele>56.6</ele>
        <time>2020-08-12T19:26:12Z</time>
      </trkpt>
      <trkpt lat="45.654546" lon="-0.634317">
        <ele>56.4</ele>
        <time>2020-08-12T19:26:18Z</time>
      </trkpt>
      <trkpt lat="45.653318" lon="-0.633929">
        <ele>55.8</ele>
        <time>2020-08-12T19:26:23Z</time>
      </trkpt>
      <trkpt lat="45.651863" lon="-0.633417">
        <ele>54.6</ele>
        <time>2020-08-12T19:26:29Z</time>
      </trkpt>
      <trkpt lat="45.650704" lon="-0.632977">
        <ele>53.2</ele>
        <time>2020-08-12T19:26:34Z</time>
      </trkpt>
      <trkpt lat="45.64947" lon="-0.632401">
        <ele>53.8</ele>
        <time>2020-08-12T19:26:39Z</time>
      </trkpt>
      <trkpt lat="45.647176" lon="-0.631238">
        <ele>52.4</ele>
        <time>2020-08-12T19:26:49Z</time>
      </trkpt>
      <trkpt lat="45.646018" lon="-0.630528">
        <ele>50.2</ele>
        <time>2020-08-12T19:26:54Z</time>
      </trkpt>
      <trkpt lat="45.645067" lon="-0.629918">
        <ele>52.8</ele>
        <time>2020-08-12T19:26:58Z</time>
      </trkpt>
      <trkpt lat="45.644015" lon="-0.629199">
        <ele>55.8</ele>
        <time>2020-08-12T19:27:03Z</time>
      </trkpt>
      <trkpt lat="45.642926" lon="-0.628392">
        <ele>56.0</ele>
        <time>2020-08-12T19:27:08Z</time>
      </trkpt>
      <trkpt lat="45.641825" lon="-0.627514">
        <ele>56.2</ele>
        <time>2020-08-12T19:27:13Z</time>
      </trkpt>
      <trkpt lat="45.640694" lon="-0.626557">
        <ele>55.2</ele>
        <time>2020-08-12T19:27:18Z</time>
      </trkpt>
      <trkpt lat="45.639609" lon="-0.625552">
        <ele>53.6</ele>
        <time>2020-08-12T19:27:23Z</time>
      </trkpt>
      <trkpt lat="45.63853" lon="-0.624488">
        <ele>52.0</ele>
        <time>2020-08-12T19:27:29Z</time>
      </trkpt>
      <trkpt lat="45.637572" lon="-0.623511">
        <ele>50.2</ele>
        <time>2020-08-12T19:27:34Z</time>
      </trkpt>
      <trkpt lat="45.636536" lon="-0.622422">
        <ele>46.0</ele>
        <time>2020-08-12T19:27:39Z</time>
      </trkpt>
      <trkpt lat="45.631205" lon="-0.616178">
        <ele>54.8</ele>
        <time>2020-08-12T19:28:07Z</time>
      </trkpt>
      <trkpt lat="45.630236" lon="-0.615123">
        <ele>55.8</ele>
        <time>2020-08-12T19:28:12Z</time>
      </trkpt>
      <trkpt lat="45.629097" lon="-0.613932">
        <ele>55.2</ele>
        <time>2020-08-12T19:28:17Z</time>
      </trkpt>
      <trkpt lat="45.627917" lon="-0.612822">
        <ele>56.2</ele>
        <time>2020-08-12T19:28:23Z</time>
      </trkpt>
      <trkpt lat="45.626906" lon="-0.611968">
        <ele>58.0</ele>
        <time>2020-08-12T19:28:28Z</time>
      </trkpt>
      <trkpt lat="45.625706" lon="-0.611081">
        <ele>56.6</ele>
        <time>2020-08-12T19:28:33Z</time>
      </trkpt>
      <trkpt lat="45.62457" lon="-0.610334">
        <ele>56.6</ele>
        <time>2020-08-12T19:28:38Z</time>
      </trkpt>
      <trkpt lat="45.623224" lon="-0.609491">
        <ele>52.8</ele>
        <time>2020-08-12T19:28:44Z</time>
      </trkpt>
      <trkpt lat="45.61715" lon="-0.606117">
        <ele>40.6</ele>
        <time>2020-08-12T19:29:11Z</time>
      </trkpt>
      <trkpt lat="45.616122" lon="-0.605464">
        <ele>41.4</ele>
        <time>2020-08-12T19:29:15Z</time>
      </trkpt>
      <trkpt lat="45.615018" lon="-0.60466">
        <ele>42.4</ele>
        <time>2020-08-12T19:29:20Z</time>
      </trkpt>
      <trkpt lat="45.614002" lon="-0.603816">
        <ele>39.8</ele>
        <time>2020-08-12T19:29:25Z</time>
      </trkpt>
      <trkpt lat="45.612999" lon="-0.60287">
        <ele>39.4</ele>
        <time>2020-08-12T19:29:30Z</time>
      </trkpt>
      <trkpt lat="45.612463" lon="-0.602305">
        <ele>38.4</ele>
        <time>2020-08-12T19:29:32Z</time>
      </trkpt>
      <trkpt lat="45.611427" lon="-0.6011">
        <ele>37.0</ele>
        <time>2020-08-12T19:29:38Z</time>
      </trkpt>
      <trkpt lat="45.611019" lon="-0.600595">
        <ele>37.0</ele>
        <time>2020-08-12T19:29:40Z</time>
      </trkpt>
      <trkpt lat="45.610006" lon="-0.599251">
        <ele>36.6</ele>
        <time>2020-08-12T19:29:46Z</time>
      </trkpt>
      <trkpt lat="45.608039" lon="-0.596502">
        <ele>35.4</ele>
        <time>2020-08-12T19:29:57Z</time>
      </trkpt>
      <trkpt lat="45.607213" lon="-0.59541">
        <ele>36.6</ele>
        <time>2020-08-12T19:30:01Z</time>
      </trkpt>
      <trkpt lat="45.606709" lon="-0.594788">
        <ele>39.8</ele>
        <time>2020-08-12T19:30:04Z</time>
      </trkpt>
      <trkpt lat="45.606101" lon="-0.594108">
        <ele>41.4</ele>
        <time>2020-08-12T19:30:07Z</time>
      </trkpt>
      <trkpt lat="45.604556" lon="-0.592595">
        <ele>35.6</ele>
        <time>2020-08-12T19:30:15Z</time>
      </trkpt>
      <trkpt lat="45.603177" lon="-0.591506">
        <ele>34.0</ele>
        <time>2020-08-12T19:30:21Z</time>
      </trkpt>
      <trkpt lat="45.601475" lon="-0.590571">
        <ele>31.2</ele>
        <time>2020-08-12T19:30:28Z</time>
      </trkpt>
      <trkpt lat="45.599919" lon="-0.590019">
        <ele>29.2</ele>
        <time>2020-08-12T19:30:35Z</time>
      </trkpt>
      <trkpt lat="45.598238" lon="-0.589693">
        <ele>28.2</ele>
        <time>2020-08-12T19:30:42Z</time>
      </trkpt>
      <trkpt lat="45.597005" lon="-0.589667">
        <ele>28.6</ele>
        <time>2020-08-12T19:30:47Z</time>
      </trkpt>
      <trkpt lat="45.595623" lon="-0.589783">
        <ele>29.8</ele>
        <time>2020-08-12T19:30:52Z</time>
      </trkpt>
      <trkpt lat="45.594131" lon="-0.590154">
        <ele>32.4</ele>
        <time>2020-08-12T19:30:58Z</time>
      </trkpt>
      <trkpt lat="45.592559" lon="-0.590771">
        <ele>32.4</ele>
        <time>2020-08-12T19:31:05Z</time>
      </trkpt>
      <trkpt lat="45.591073" lon="-0.591662">
        <ele>33.0</ele>
        <time>2020-08-12T19:31:12Z</time>
      </trkpt>
      <trkpt lat="45.589539" lon="-0.592686">
        <ele>34.6</ele>
        <time>2020-08-12T19:31:18Z</time>
      </trkpt>
      <trkpt lat="45.584849" lon="-0.596108">
        <ele>39.2</ele>
        <time>2020-08-12T19:31:40Z</time>
      </trkpt>
      <trkpt lat="45.583081" lon="-0.597203">
        <ele>43.6</ele>
        <time>2020-08-12T19:31:47Z</time>
      </trkpt>
      <trkpt lat="45.58182" lon="-0.597915">
        <ele>45.0</ele>
        <time>2020-08-12T19:31:53Z</time>
      </trkpt>
      <trkpt lat="45.580288" lon="-0.598617">
        <ele>45.6</ele>
        <time>2020-08-12T19:31:59Z</time>
      </trkpt>
      <trkpt lat="45.578444" lon="-0.599309">
        <ele>44.2</ele>
        <time>2020-08-12T19:32:07Z</time>
      </trkpt>
      <trkpt lat="45.576852" lon="-0.599779">
        <ele>44.6</ele>
        <time>2020-08-12T19:32:14Z</time>
      </trkpt>
      <trkpt lat="45.57517" lon="-0.60015">
        <ele>42.2</ele>
        <time>2020-08-12T19:32:21Z</time>
      </trkpt>
      <trkpt lat="45.57318" lon="-0.600454">
        <ele>40.2</ele>
        <time>2020-08-12T19:32:29Z</time>
      </trkpt>
      <trkpt lat="45.559413" lon="-0.602359">
        <ele>34.4</ele>
        <time>2020-08-12T19:33:25Z</time>
      </trkpt>
      <trkpt lat="45.557006" lon="-0.602746">
        <ele>35.6</ele>
        <time>2020-08-12T19:33:34Z</time>
      </trkpt>
      <trkpt lat="45.553281" lon="-0.603468">
        <ele>41.4</ele>
        <time>2020-08-12T19:33:50Z</time>
      </trkpt>
      <trkpt lat="45.518437" lon="-0.61169">
        <ele>39.8</ele>
        <time>2020-08-12T19:36:12Z</time>
      </trkpt>
      <trkpt lat="45.516891" lon="-0.612021">
        <ele>41.0</ele>
        <time>2020-08-12T19:36:19Z</time>
      </trkpt>
      <trkpt lat="45.516321" lon="-0.612165">
        <ele>40.8</ele>
        <time>2020-08-12T19:36:21Z</time>
      </trkpt>
      <trkpt lat="45.515229" lon="-0.612365">
        <ele>40.2</ele>
        <time>2020-08-12T19:36:26Z</time>
      </trkpt>
      <trkpt lat="45.513046" lon="-0.612703">
        <ele>41.2</ele>
        <time>2020-08-12T19:36:34Z</time>
      </trkpt>
      <trkpt lat="45.510821" lon="-0.612971">
        <ele>39.4</ele>
        <time>2020-08-12T19:36:43Z</time>
      </trkpt>
      <trkpt lat="45.507061" lon="-0.613258">
        <ele>37.6</ele>
        <time>2020-08-12T19:36:59Z</time>
      </trkpt>
      <trkpt lat="45.499257" lon="-0.613471">
        <ele>36.4</ele>
        <time>2020-08-12T19:37:30Z</time>
      </trkpt>
      <trkpt lat="45.497141" lon="-0.613628">
        <ele>38.4</ele>
        <time>2020-08-12T19:37:39Z</time>
      </trkpt>
      <trkpt lat="45.495247" lon="-0.613854">
        <ele>36.6</ele>
        <time>2020-08-12T19:37:46Z</time>
      </trkpt>
      <trkpt lat="45.493294" lon="-0.614195">
        <ele>41.4</ele>
        <time>2020-08-12T19:37:54Z</time>
      </trkpt>
      <trkpt lat="45.491352" lon="-0.614684">
        <ele>42.0</ele>
        <time>2020-08-12T19:38:02Z</time>
      </trkpt>
      <trkpt lat="45.489419" lon="-0.615255">
        <ele>45.8</ele>
        <time>2020-08-12T19:38:10Z</time>
      </trkpt>
      <trkpt lat="45.487716" lon="-0.615896">
        <ele>43.6</ele>
        <time>2020-08-12T19:38:18Z</time>
      </trkpt>
      <trkpt lat="45.479957" lon="-0.619044">
        <ele>35.2</ele>
        <time>2020-08-12T19:38:50Z</time>
      </trkpt>
      <trkpt lat="45.478231" lon="-0.619593">
        <ele>37.4</ele>
        <time>2020-08-12T19:38:57Z</time>
      </trkpt>
      <trkpt lat="45.476106" lon="-0.62018">
        <ele>36.0</ele>
        <time>2020-08-12T19:39:06Z</time>
      </trkpt>
      <trkpt lat="45.474165" lon="-0.620518">
        <ele>34.6</ele>
        <time>2020-08-12T19:39:14Z</time>
      </trkpt>
      <trkpt lat="45.472504" lon="-0.620689">
        <ele>36.2</ele>
        <time>2020-08-12T19:39:21Z</time>
      </trkpt>
      <trkpt lat="45.470443" lon="-0.62075">
        <ele>42.8</ele>
        <time>2020-08-12T19:39:29Z</time>
      </trkpt>
      <trkpt lat="45.468777" lon="-0.620684">
        <ele>49.6</ele>
        <time>2020-08-12T19:39:36Z</time>
      </trkpt>
      <trkpt lat="45.466578" lon="-0.620412">
        <ele>55.2</ele>
        <time>2020-08-12T19:39:45Z</time>
      </trkpt>
      <trkpt lat="45.464725" lon="-0.620038">
        <ele>54.4</ele>
        <time>2020-08-12T19:39:52Z</time>
      </trkpt>
      <trkpt lat="45.462621" lon="-0.619449">
        <ele>57.0</ele>
        <time>2020-08-12T19:40:01Z</time>
      </trkpt>
      <trkpt lat="45.460572" lon="-0.61869">
        <ele>55.8</ele>
        <time>2020-08-12T19:40:10Z</time>
      </trkpt>
      <trkpt lat="45.458522" lon="-0.617741">
        <ele>51.0</ele>
        <time>2020-08-12T19:40:18Z</time>
      </trkpt>
      <trkpt lat="45.455802" lon="-0.616224">
        <ele>55.6</ele>
        <time>2020-08-12T19:40:30Z</time>
      </trkpt>
      <trkpt lat="45.444058" lon="-0.608961">
        <ele>47.0</ele>
        <time>2020-08-12T19:41:22Z</time>
      </trkpt>
      <trkpt lat="45.44319" lon="-0.608467">
        <ele>48.6</ele>
        <time>2020-08-12T19:41:26Z</time>
      </trkpt>
      <trkpt lat="45.44223" lon="-0.607966">
        <ele>48.6</ele>
        <time>2020-08-12T19:41:30Z</time>
      </trkpt>
      <trkpt lat="45.440678" lon="-0.607219">
        <ele>49.4</ele>
        <time>2020-08-12T19:41:36Z</time>
      </trkpt>
      <trkpt lat="45.438907" lon="-0.606579">
        <ele>49.6</ele>
        <time>2020-08-12T19:41:44Z</time>
      </trkpt>
      <trkpt lat="45.438038" lon="-0.606324">
        <ele>49.8</ele>
        <time>2020-08-12T19:41:47Z</time>
      </trkpt>
      <trkpt lat="45.43654" lon="-0.605936">
        <ele>48.8</ele>
        <time>2020-08-12T19:41:53Z</time>
      </trkpt>
      <trkpt lat="45.434843" lon="-0.605693">
        <ele>48.0</ele>
        <time>2020-08-12T19:42:00Z</time>
      </trkpt>
      <trkpt lat="45.430731" lon="-0.605384">
        <ele>54.8</ele>
        <time>2020-08-12T19:42:17Z</time>
      </trkpt>
      <trkpt lat="45.428554" lon="-0.605268">
        <ele>56.6</ele>
        <time>2020-08-12T19:42:26Z</time>
      </trkpt>
      <trkpt lat="45.426361" lon="-0.605064">
        <ele>61.6</ele>
        <time>2020-08-12T19:42:35Z</time>
      </trkpt>
      <trkpt lat="45.424394" lon="-0.604807">
        <ele>55.0</ele>
        <time>2020-08-12T19:42:43Z</time>
      </trkpt>
      <trkpt lat="45.422535" lon="-0.604439">
        <ele>47.8</ele>
        <time>2020-08-12T19:42:50Z</time>
      </trkpt>
      <trkpt lat="45.413878" lon="-0.602093">
        <ele>61.6</ele>
        <time>2020-08-12T19:43:26Z</time>
      </trkpt>
      <trkpt lat="45.412167" lon="-0.601706">
        <ele>61.2</ele>
        <time>2020-08-12T19:43:33Z</time>
      </trkpt>
      <trkpt lat="45.410661" lon="-0.601496">
        <ele>64.0</ele>
        <time>2020-08-12T19:43:39Z</time>
      </trkpt>
      <trkpt lat="45.409061" lon="-0.601408">
        <ele>71.4</ele>
        <time>2020-08-12T19:43:46Z</time>
      </trkpt>
      <trkpt lat="45.407573" lon="-0.601467">
        <ele>77.2</ele>
        <time>2020-08-12T19:43:52Z</time>
      </trkpt>
      <trkpt lat="45.406126" lon="-0.601618">
        <ele>88.0</ele>
        <time>2020-08-12T19:43:57Z</time>
      </trkpt>
      <trkpt lat="45.4051" lon="-0.601748">
        <ele>94.6</ele>
        <time>2020-08-12T19:44:02Z</time>
      </trkpt>
      <trkpt lat="45.403654" lon="-0.602096">
        <ele>97.2</ele>
        <time>2020-08-12T19:44:08Z</time>
      </trkpt>
      <trkpt lat="45.397581" lon="-0.603758">
        <ele>90.8</ele>
        <time>2020-08-12T19:44:33Z</time>
      </trkpt>
      <trkpt lat="45.396465" lon="-0.604026">
        <ele>86.4</ele>
        <time>2020-08-12T19:44:37Z</time>
      </trkpt>
      <trkpt lat="45.395128" lon="-0.604275">
        <ele>81.8</ele>
        <time>2020-08-12T19:44:43Z</time>
      </trkpt>
      <trkpt lat="45.393736" lon="-0.604473">
        <ele>82.8</ele>
        <time>2020-08-12T19:44:48Z</time>
      </trkpt>
      <trkpt lat="45.392388" lon="-0.604563">
        <ele>79.8</ele>
        <time>2020-08-12T19:44:54Z</time>
      </trkpt>
      <trkpt lat="45.390557" lon="-0.604545">
        <ele>72.2</ele>
        <time>2020-08-12T19:45:01Z</time>
      </trkpt>
      <trkpt lat="45.38907" lon="-0.604365">
        <ele>63.8</ele>
        <time>2020-08-12T19:45:07Z</time>
      </trkpt>
      <trkpt lat="45.387382" lon="-0.604045">
        <ele>59.4</ele>
        <time>2020-08-12T19:45:14Z</time>
      </trkpt>
      <trkpt lat="45.385921" lon="-0.60365">
        <ele>56.6</ele>
        <time>2020-08-12T19:45:20Z</time>
      </trkpt>
      <trkpt lat="45.384513" lon="-0.603145">
        <ele>48.6</ele>
        <time>2020-08-12T19:45:26Z</time>
      </trkpt>
      <trkpt lat="45.38288" lon="-0.602415">
        <ele>41.6</ele>
        <time>2020-08-12T19:45:33Z</time>
      </trkpt>
      <trkpt lat="45.381865" lon="-0.601869">
        <ele>42.2</ele>
        <time>2020-08-12T19:45:37Z</time>
      </trkpt>
      <trkpt lat="45.380805" lon="-0.601223">
        <ele>46.8</ele>
        <time>2020-08-12T19:45:42Z</time>
      </trkpt>
      <trkpt lat="45.379911" lon="-0.60064">
        <ele>48.0</ele>
        <time>2020-08-12T19:45:46Z</time>
      </trkpt>
      <trkpt lat="45.378665" lon="-0.599717">
        <ele>47.2</ele>
        <time>2020-08-12T19:45:52Z</time>
      </trkpt>
      <trkpt lat="45.377407" lon="-0.598676">
        <ele>51.0</ele>
        <time>2020-08-12T19:45:57Z</time>
      </trkpt>
      <trkpt lat="45.373909" lon="-0.595481">
        <ele>42.6</ele>
        <time>2020-08-12T19:46:14Z</time>
      </trkpt>
      <trkpt lat="45.37184" lon="-0.593629">
        <ele>40.6</ele>
        <time>2020-08-12T19:46:24Z</time>
      </trkpt>
      <trkpt lat="45.369727" lon="-0.592085">
        <ele>31.8</ele>
        <time>2020-08-12T19:46:34Z</time>
      </trkpt>
      <trkpt lat="45.366738" lon="-0.590316">
        <ele>32.4</ele>
        <time>2020-08-12T19:46:47Z</time>
      </trkpt>
      <trkpt lat="45.365804" lon="-0.589822">
        <ele>32.2</ele>
        <time>2020-08-12T19:46:51Z</time>
      </trkpt>
      <trkpt lat="45.363974" lon="-0.588981">
        <ele>29.0</ele>
        <time>2020-08-12T19:46:59Z</time>
      </trkpt>
      <trkpt lat="45.357609" lon="-0.585987">
        <ele>50.6</ele>
        <time>2020-08-12T19:47:26Z</time>
      </trkpt>
      <trkpt lat="45.355446" lon="-0.584811">
        <ele>66.6</ele>
        <time>2020-08-12T19:47:35Z</time>
      </trkpt>
      <trkpt lat="45.353601" lon="-0.583625">
        <ele>71.6</ele>
        <time>2020-08-12T19:47:43Z</time>
      </trkpt>
      <trkpt lat="45.351886" lon="-0.582331">
        <ele>84.2</ele>
        <time>2020-08-12T19:47:51Z</time>
      </trkpt>
      <trkpt lat="45.35097" lon="-0.581575">
        <ele>82.8</ele>
        <time>2020-08-12T19:47:55Z</time>
      </trkpt>
      <trkpt lat="45.34919" lon="-0.579987">
        <ele>74.8</ele>
        <time>2020-08-12T19:48:04Z</time>
      </trkpt>
      <trkpt lat="45.346577" lon="-0.577325">
        <ele>70.4</ele>
        <time>2020-08-12T19:48:17Z</time>
      </trkpt>
      <trkpt lat="45.345781" lon="-0.576489">
        <ele>65.2</ele>
        <time>2020-08-12T19:48:21Z</time>
      </trkpt>
      <trkpt lat="45.344285" lon="-0.574978">
        <ele>62.2</ele>
        <time>2020-08-12T19:48:28Z</time>
      </trkpt>
      <trkpt lat="45.343428" lon="-0.574158">
        <ele>61.4</ele>
        <time>2020-08-12T19:48:33Z</time>
      </trkpt>
      <trkpt lat="45.342569" lon="-0.573475">
        <ele>62.2</ele>
        <time>2020-08-12T19:48:37Z</time>
      </trkpt>
      <trkpt lat="45.34152" lon="-0.572724">
        <ele>56.6</ele>
        <time>2020-08-12T19:48:41Z</time>
      </trkpt>
      <trkpt lat="45.340559" lon="-0.572155">
        <ele>52.6</ele>
        <time>2020-08-12T19:48:46Z</time>
      </trkpt>
      <trkpt lat="45.33955" lon="-0.571629">
        <ele>50.4</ele>
        <time>2020-08-12T19:48:50Z</time>
      </trkpt>
      <trkpt lat="45.338527" lon="-0.57124">
        <ele>51.2</ele>
        <time>2020-08-12T19:48:54Z</time>
      </trkpt>
      <trkpt lat="45.334785" lon="-0.569968">
        <ele>48.0</ele>
        <time>2020-08-12T19:49:10Z</time>
      </trkpt>
      <trkpt lat="45.33353" lon="-0.569496">
        <ele>46.6</ele>
        <time>2020-08-12T19:49:15Z</time>
      </trkpt>
      <trkpt lat="45.332345" lon="-0.568979">
        <ele>42.4</ele>
        <time>2020-08-12T19:49:20Z</time>
      </trkpt>
      <trkpt lat="45.330938" lon="-0.568254">
        <ele>43.4</ele>
        <time>2020-08-12T19:49:26Z</time>
      </trkpt>
      <trkpt lat="45.32962" lon="-0.567446">
        <ele>45.4</ele>
        <time>2020-08-12T19:49:32Z</time>
      </trkpt>
      <trkpt lat="45.328418" lon="-0.56663">
        <ele>48.8</ele>
        <time>2020-08-12T19:49:37Z</time>
      </trkpt>
      <trkpt lat="45.324701" lon="-0.56373">
        <ele>58.8</ele>
        <time>2020-08-12T19:49:54Z</time>
      </trkpt>
      <trkpt lat="45.323444" lon="-0.562772">
        <ele>58.0</ele>
        <time>2020-08-12T19:50:00Z</time>
      </trkpt>
      <trkpt lat="45.322014" lon="-0.561833">
        <ele>60.4</ele>
        <time>2020-08-12T19:50:07Z</time>
      </trkpt>
      <trkpt lat="45.320672" lon="-0.561075">
        <ele>69.2</ele>
        <time>2020-08-12T19:50:12Z</time>
      </trkpt>
      <trkpt lat="45.319099" lon="-0.56032">
        <ele>64.8</ele>
        <time>2020-08-12T19:50:19Z</time>
      </trkpt>
      <trkpt lat="45.317666" lon="-0.559795">
        <ele>59.6</ele>
        <time>2020-08-12T19:50:25Z</time>
      </trkpt>
      <trkpt lat="45.315814" lon="-0.559298">
        <ele>51.2</ele>
        <time>2020-08-12T19:50:33Z</time>
      </trkpt>
      <trkpt lat="45.314602" lon="-0.559046">
        <ele>51.0</ele>
        <time>2020-08-12T19:50:38Z</time>
      </trkpt>
      <trkpt lat="45.313559" lon="-0.558872">
        <ele>52.2</ele>
        <time>2020-08-12T19:50:42Z</time>
      </trkpt>
      <trkpt lat="45.307377" lon="-0.558097">
        <ele>36.0</ele>
        <time>2020-08-12T19:51:07Z</time>
      </trkpt>
      <trkpt lat="45.305839" lon="-0.55783">
        <ele>31.8</ele>
        <time>2020-08-12T19:51:13Z</time>
      </trkpt>
      <trkpt lat="45.30429" lon="-0.557481">
        <ele>30.4</ele>
        <time>2020-08-12T19:51:20Z</time>
      </trkpt>
      <trkpt lat="45.302684" lon="-0.557058">
        <ele>33.6</ele>
        <time>2020-08-12T19:51:26Z</time>
      </trkpt>
      <trkpt lat="45.301784" lon="-0.55678">
        <ele>35.2</ele>
        <time>2020-08-12T19:51:30Z</time>
      </trkpt>
      <trkpt lat="45.299799" lon="-0.556059">
        <ele>37.0</ele>
        <time>2020-08-12T19:51:38Z</time>
      </trkpt>
      <trkpt lat="45.298408" lon="-0.555515">
        <ele>41.2</ele>
        <time>2020-08-12T19:51:44Z</time>
      </trkpt>
      <trkpt lat="45.293281" lon="-0.553396">
        <ele>50.6</ele>
        <time>2020-08-12T19:52:06Z</time>
      </trkpt>
      <trkpt lat="45.290721" lon="-0.552446">
        <ele>53.6</ele>
        <time>2020-08-12T19:52:16Z</time>
      </trkpt>
      <trkpt lat="45.289329" lon="-0.552055">
        <ele>52.0</ele>
        <time>2020-08-12T19:52:22Z</time>
      </trkpt>
      <trkpt lat="45.288037" lon="-0.551748">
        <ele>49.2</ele>
        <time>2020-08-12T19:52:27Z</time>
      </trkpt>
      <trkpt lat="45.286778" lon="-0.551481">
        <ele>49.6</ele>
        <time>2020-08-12T19:52:33Z</time>
      </trkpt>
      <trkpt lat="45.284523" lon="-0.551132">
        <ele>47.8</ele>
        <time>2020-08-12T19:52:42Z</time>
      </trkpt>
      <trkpt lat="45.281125" lon="-0.550828">
        <ele>45.6</ele>
        <time>2020-08-12T19:52:55Z</time>
      </trkpt>
      <trkpt lat="45.273216" lon="-0.550285">
        <ele>26.4</ele>
        <time>2020-08-12T19:53:27Z</time>
      </trkpt>
      <trkpt lat="45.272053" lon="-0.550147">
        <ele>24.8</ele>
        <time>2020-08-12T19:53:32Z</time>
      </trkpt>
      <trkpt lat="45.271026" lon="-0.549999">
        <ele>22.8</ele>
        <time>2020-08-12T19:53:36Z</time>
      </trkpt>
      <trkpt lat="45.269935" lon="-0.549793">
        <ele>18.8</ele>
        <time>2020-08-12T19:53:41Z</time>
      </trkpt>
      <trkpt lat="45.268554" lon="-0.549472">
        <ele>16.2</ele>
        <time>2020-08-12T19:53:46Z</time>
      </trkpt>
      <trkpt lat="45.267139" lon="-0.54906">
        <ele>14.8</ele>
        <time>2020-08-12T19:53:52Z</time>
      </trkpt>
      <trkpt lat="45.265653" lon="-0.548561">
        <ele>15.4</ele>
        <time>2020-08-12T19:53:59Z</time>
      </trkpt>
      <trkpt lat="45.263524" lon="-0.547718">
        <ele>14.4</ele>
        <time>2020-08-12T19:54:07Z</time>
      </trkpt>
      <trkpt lat="45.262453" lon="-0.547244">
        <ele>19.8</ele>
        <time>2020-08-12T19:54:12Z</time>
      </trkpt>
      <trkpt lat="45.261234" lon="-0.546652">
        <ele>20.8</ele>
        <time>2020-08-12T19:54:17Z</time>
      </trkpt>
      <trkpt lat="45.259085" lon="-0.545472">
        <ele>25.0</ele>
        <time>2020-08-12T19:54:27Z</time>
      </trkpt>
      <trkpt lat="45.256503" lon="-0.543767">
        <ele>28.0</ele>
        <time>2020-08-12T19:54:38Z</time>
      </trkpt>
      <trkpt lat="45.253205" lon="-0.541495">
        <ele>31.4</ele>
        <time>2020-08-12T19:54:53Z</time>
      </trkpt>
      <trkpt lat="45.25262" lon="-0.541057">
        <ele>31.4</ele>
        <time>2020-08-12T19:54:56Z</time>
      </trkpt>
      <trkpt lat="45.234416" lon="-0.528185">
        <ele>33.0</ele>
        <time>2020-08-12T19:56:18Z</time>
      </trkpt>
      <trkpt lat="45.233158" lon="-0.527171">
        <ele>34.6</ele>
        <time>2020-08-12T19:56:24Z</time>
      </trkpt>
      <trkpt lat="45.231917" lon="-0.526048">
        <ele>36.8</ele>
        <time>2020-08-12T19:56:30Z</time>
      </trkpt>
      <trkpt lat="45.230768" lon="-0.524827">
        <ele>39.8</ele>
        <time>2020-08-12T19:56:35Z</time>
      </trkpt>
      <trkpt lat="45.229654" lon="-0.523348">
        <ele>38.8</ele>
        <time>2020-08-12T19:56:42Z</time>
      </trkpt>
      <trkpt lat="45.228398" lon="-0.521401">
        <ele>37.2</ele>
        <time>2020-08-12T19:56:49Z</time>
      </trkpt>
      <trkpt lat="45.225831" lon="-0.516642">
        <ele>33.6</ele>
        <time>2020-08-12T19:57:06Z</time>
      </trkpt>
      <trkpt lat="45.224873" lon="-0.514899">
        <ele>32.0</ele>
        <time>2020-08-12T19:57:12Z</time>
      </trkpt>
      <trkpt lat="45.223948" lon="-0.513414">
        <ele>30.2</ele>
        <time>2020-08-12T19:57:18Z</time>
      </trkpt>
      <trkpt lat="45.222763" lon="-0.511857">
        <ele>29.0</ele>
        <time>2020-08-12T19:57:25Z</time>
      </trkpt>
      <trkpt lat="45.221684" lon="-0.510661">
        <ele>28.2</ele>
        <time>2020-08-12T19:57:30Z</time>
      </trkpt>
      <trkpt lat="45.220454" lon="-0.509519">
        <ele>33.6</ele>
        <time>2020-08-12T19:57:36Z</time>
      </trkpt>
      <trkpt lat="45.219074" lon="-0.508548">
        <ele>46.0</ele>
        <time>2020-08-12T19:57:42Z</time>
      </trkpt>
      <trkpt lat="45.217783" lon="-0.507805">
        <ele>46.2</ele>
        <time>2020-08-12T19:57:48Z</time>
      </trkpt>
      <trkpt lat="45.216325" lon="-0.507092">
        <ele>44.0</ele>
        <time>2020-08-12T19:57:54Z</time>
      </trkpt>
      <trkpt lat="45.213316" lon="-0.505756">
        <ele>45.4</ele>
        <time>2020-08-12T19:58:07Z</time>
      </trkpt>
      <trkpt lat="45.212014" lon="-0.505137">
        <ele>43.6</ele>
        <time>2020-08-12T19:58:12Z</time>
      </trkpt>
      <trkpt lat="45.210402" lon="-0.504228">
        <ele>40.0</ele>
        <time>2020-08-12T19:58:19Z</time>
      </trkpt>
      <trkpt lat="45.208583" lon="-0.503041">
        <ele>38.8</ele>
        <time>2020-08-12T19:58:28Z</time>
      </trkpt>
      <trkpt lat="45.206931" lon="-0.501746">
        <ele>38.2</ele>
        <time>2020-08-12T19:58:35Z</time>
      </trkpt>
      <trkpt lat="45.202989" lon="-0.498463">
        <ele>35.4</ele>
        <time>2020-08-12T19:58:54Z</time>
      </trkpt>
      <trkpt lat="45.201711" lon="-0.497459">
        <ele>37.0</ele>
        <time>2020-08-12T19:59:00Z</time>
      </trkpt>
      <trkpt lat="45.200079" lon="-0.496428">
        <ele>35.4</ele>
        <time>2020-08-12T19:59:07Z</time>
      </trkpt>
      <trkpt lat="45.1986" lon="-0.495622">
        <ele>35.8</ele>
        <time>2020-08-12T19:59:13Z</time>
      </trkpt>
      <trkpt lat="45.197109" lon="-0.494972">
        <ele>38.2</ele>
        <time>2020-08-12T19:59:20Z</time>
      </trkpt>
      <trkpt lat="45.19618" lon="-0.494599">
        <ele>39.2</ele>
        <time>2020-08-12T19:59:23Z</time>
      </trkpt>
      <trkpt lat="45.193159" lon="-0.493467">
        <ele>39.8</ele>
        <time>2020-08-12T19:59:36Z</time>
      </trkpt>
      <trkpt lat="45.190582" lon="-0.492557">
        <ele>41.2</ele>
        <time>2020-08-12T19:59:47Z</time>
      </trkpt>
      <trkpt lat="45.189155" lon="-0.492014">
        <ele>42.6</ele>
        <time>2020-08-12T19:59:53Z</time>
      </trkpt>
      <trkpt lat="45.187473" lon="-0.491313">
        <ele>44.6</ele>
        <time>2020-08-12T20:00:00Z</time>
      </trkpt>
      <trkpt lat="45.184421" lon="-0.489915">
        <ele>48.0</ele>
        <time>2020-08-12T20:00:13Z</time>
      </trkpt>
      <trkpt lat="45.183096" lon="-0.489257">
        <ele>49.6</ele>
        <time>2020-08-12T20:00:19Z</time>
      </trkpt>
      <trkpt lat="45.172551" lon="-0.483781">
        <ele>61.6</ele>
        <time>2020-08-12T20:01:04Z</time>
      </trkpt>
      <trkpt lat="45.170998" lon="-0.483024">
        <ele>60.2</ele>
        <time>2020-08-12T20:01:11Z</time>
      </trkpt>
      <trkpt lat="45.169498" lon="-0.482323">
        <ele>58.2</ele>
        <time>2020-08-12T20:01:17Z</time>
      </trkpt>
      <trkpt lat="45.16792" lon="-0.481695">
        <ele>58.4</ele>
        <time>2020-08-12T20:01:24Z</time>
      </trkpt>
      <trkpt lat="45.166411" lon="-0.481137">
        <ele>56.0</ele>
        <time>2020-08-12T20:01:30Z</time>
      </trkpt>
      <trkpt lat="45.16518" lon="-0.480742">
        <ele>55.6</ele>
        <time>2020-08-12T20:01:35Z</time>
      </trkpt>
      <trkpt lat="45.164037" lon="-0.480404">
        <ele>55.4</ele>
        <time>2020-08-12T20:01:40Z</time>
      </trkpt>
      <trkpt lat="45.162946" lon="-0.480122">
        <ele>54.2</ele>
        <time>2020-08-12T20:01:44Z</time>
      </trkpt>
      <trkpt lat="45.160524" lon="-0.479611">
        <ele>47.4</ele>
        <time>2020-08-12T20:01:54Z</time>
      </trkpt>
      <trkpt lat="45.159186" lon="-0.479391">
        <ele>46.4</ele>
        <time>2020-08-12T20:02:00Z</time>
      </trkpt>
      <trkpt lat="45.15749" lon="-0.4792">
        <ele>42.4</ele>
        <time>2020-08-12T20:02:06Z</time>
      </trkpt>
      <trkpt lat="45.155742" lon="-0.479085">
        <ele>37.6</ele>
        <time>2020-08-12T20:02:14Z</time>
      </trkpt>
      <trkpt lat="45.153418" lon="-0.479007">
        <ele>35.2</ele>
        <time>2020-08-12T20:02:23Z</time>
      </trkpt>
      <trkpt lat="45.151865" lon="-0.479044">
        <ele>34.0</ele>
        <time>2020-08-12T20:02:29Z</time>
      </trkpt>
      <trkpt lat="45.149836" lon="-0.479205">
        <ele>33.0</ele>
        <time>2020-08-12T20:02:37Z</time>
      </trkpt>
      <trkpt lat="45.147278" lon="-0.47956">
        <ele>28.8</ele>
        <time>2020-08-12T20:02:48Z</time>
      </trkpt>
      <trkpt lat="45.145043" lon="-0.480033">
        <ele>30.2</ele>
        <time>2020-08-12T20:02:57Z</time>
      </trkpt>
      <trkpt lat="45.142796" lon="-0.480608">
        <ele>27.4</ele>
        <time>2020-08-12T20:03:06Z</time>
      </trkpt>
      <trkpt lat="45.141514" lon="-0.480987">
        <ele>27.6</ele>
        <time>2020-08-12T20:03:11Z</time>
      </trkpt>
      <trkpt lat="45.140025" lon="-0.481494">
        <ele>26.8</ele>
        <time>2020-08-12T20:03:18Z</time>
      </trkpt>
      <trkpt lat="45.133685" lon="-0.48388">
        <ele>21.6</ele>
        <time>2020-08-12T20:03:44Z</time>
      </trkpt>
      <trkpt lat="45.132593" lon="-0.484251">
        <ele>23.0</ele>
        <time>2020-08-12T20:03:49Z</time>
      </trkpt>
      <trkpt lat="45.131567" lon="-0.484569">
        <ele>22.2</ele>
        <time>2020-08-12T20:03:53Z</time>
      </trkpt>
      <trkpt lat="45.130472" lon="-0.48487">
        <ele>21.0</ele>
        <time>2020-08-12T20:03:57Z</time>
      </trkpt>
      <trkpt lat="45.12846" lon="-0.485321">
        <ele>22.6</ele>
        <time>2020-08-12T20:04:06Z</time>
      </trkpt>
      <trkpt lat="45.127378" lon="-0.485514">
        <ele>20.0</ele>
        <time>2020-08-12T20:04:10Z</time>
      </trkpt>
      <trkpt lat="45.126245" lon="-0.48569">
        <ele>18.6</ele>
        <time>2020-08-12T20:04:15Z</time>
      </trkpt>
      <trkpt lat="45.125217" lon="-0.485796">
        <ele>18.0</ele>
        <time>2020-08-12T20:04:19Z</time>
      </trkpt>
      <trkpt lat="45.123092" lon="-0.485941">
        <ele>17.2</ele>
        <time>2020-08-12T20:04:28Z</time>
      </trkpt>
      <trkpt lat="45.121941" lon="-0.485965">
        <ele>16.6</ele>
        <time>2020-08-12T20:04:32Z</time>
      </trkpt>
      <trkpt lat="45.119824" lon="-0.485901">
        <ele>18.4</ele>
        <time>2020-08-12T20:04:41Z</time>
      </trkpt>
      <trkpt lat="45.11873" lon="-0.485816">
        <ele>16.4</ele>
        <time>2020-08-12T20:04:45Z</time>
      </trkpt>
      <trkpt lat="45.117582" lon="-0.485681">
        <ele>16.0</ele>
        <time>2020-08-12T20:04:50Z</time>
      </trkpt>
      <trkpt lat="45.116557" lon="-0.485518">
        <ele>16.8</ele>
        <time>2020-08-12T20:04:54Z</time>
      </trkpt>
      <trkpt lat="45.114577" lon="-0.485144">
        <ele>19.4</ele>
        <time>2020-08-12T20:05:02Z</time>
      </trkpt>
      <trkpt lat="45.112633" lon="-0.484641">
        <ele>15.4</ele>
        <time>2020-08-12T20:05:10Z</time>
      </trkpt>
      <trkpt lat="45.111032" lon="-0.484119">
        <ele>13.6</ele>
        <time>2020-08-12T20:05:17Z</time>
      </trkpt>
      <trkpt lat="45.109634" lon="-0.48361">
        <ele>14.8</ele>
        <time>2020-08-12T20:05:23Z</time>
      </trkpt>
      <trkpt lat="45.108038" lon="-0.48296">
        <ele>15.6</ele>
        <time>2020-08-12T20:05:29Z</time>
      </trkpt>
      <trkpt lat="45.106363" lon="-0.482179">
        <ele>15.0</ele>
        <time>2020-08-12T20:05:36Z</time>
      </trkpt>
      <trkpt lat="45.10481" lon="-0.481374">
        <ele>14.2</ele>
        <time>2020-08-12T20:05:43Z</time>
      </trkpt>
      <trkpt lat="45.103308" lon="-0.4805">
        <ele>12.4</ele>
        <time>2020-08-12T20:05:50Z</time>
      </trkpt>
      <trkpt lat="45.101795" lon="-0.479534">
        <ele>12.0</ele>
        <time>2020-08-12T20:05:56Z</time>
      </trkpt>
      <trkpt lat="45.100312" lon="-0.478537">
        <ele>9.0</ele>
        <time>2020-08-12T20:06:03Z</time>
      </trkpt>
      <trkpt lat="45.096198" lon="-0.475581">
        <ele>10.4</ele>
        <time>2020-08-12T20:06:22Z</time>
      </trkpt>
      <trkpt lat="45.094255" lon="-0.474263">
        <ele>9.4</ele>
        <time>2020-08-12T20:06:30Z</time>
      </trkpt>
      <trkpt lat="45.092681" lon="-0.473291">
        <ele>9.4</ele>
        <time>2020-08-12T20:06:37Z</time>
      </trkpt>
      <trkpt lat="45.091332" lon="-0.472534">
        <ele>8.2</ele>
        <time>2020-08-12T20:06:43Z</time>
      </trkpt>
      <trkpt lat="45.090684" lon="-0.472195">
        <ele>7.4</ele>
        <time>2020-08-12T20:06:46Z</time>
      </trkpt>
      <trkpt lat="45.088601" lon="-0.471259">
        <ele>7.0</ele>
        <time>2020-08-12T20:06:55Z</time>
      </trkpt>
      <trkpt lat="45.086842" lon="-0.470597">
        <ele>8.0</ele>
        <time>2020-08-12T20:07:02Z</time>
      </trkpt>
      <trkpt lat="45.085815" lon="-0.470267">
        <ele>6.6</ele>
        <time>2020-08-12T20:07:06Z</time>
      </trkpt>
      <trkpt lat="45.084009" lon="-0.469741">
        <ele>8.2</ele>
        <time>2020-08-12T20:07:14Z</time>
      </trkpt>
      <trkpt lat="45.079634" lon="-0.468592">
        <ele>7.8</ele>
        <time>2020-08-12T20:07:32Z</time>
      </trkpt>
      <trkpt lat="45.078215" lon="-0.468173">
        <ele>9.2</ele>
        <time>2020-08-12T20:07:38Z</time>
      </trkpt>
      <trkpt lat="45.077162" lon="-0.467816">
        <ele>9.4</ele>
        <time>2020-08-12T20:07:42Z</time>
      </trkpt>
      <trkpt lat="45.076058" lon="-0.467415">
        <ele>9.0</ele>
        <time>2020-08-12T20:07:47Z</time>
      </trkpt>
      <trkpt lat="45.074968" lon="-0.466964">
        <ele>7.6</ele>
        <time>2020-08-12T20:07:51Z</time>
      </trkpt>
      <trkpt lat="45.07391" lon="-0.466482">
        <ele>7.2</ele>
        <time>2020-08-12T20:07:56Z</time>
      </trkpt>
      <trkpt lat="45.07263" lon="-0.465837">
        <ele>6.2</ele>
        <time>2020-08-12T20:08:01Z</time>
      </trkpt>
      <trkpt lat="45.071725" lon="-0.465342">
        <ele>6.8</ele>
        <time>2020-08-12T20:08:05Z</time>
      </trkpt>
      <trkpt lat="45.070619" lon="-0.464682">
        <ele>9.4</ele>
        <time>2020-08-12T20:08:10Z</time>
      </trkpt>
      <trkpt lat="45.069621" lon="-0.46405">
        <ele>14.4</ele>
        <time>2020-08-12T20:08:14Z</time>
      </trkpt>
      <trkpt lat="45.066941" lon="-0.462216">
        <ele>21.6</ele>
        <time>2020-08-12T20:08:27Z</time>
      </trkpt>
      <trkpt lat="45.062036" lon="-0.4588">
        <ele>16.8</ele>
        <time>2020-08-12T20:08:49Z</time>
      </trkpt>
      <trkpt lat="45.059914" lon="-0.457416">
        <ele>15.2</ele>
        <time>2020-08-12T20:08:58Z</time>
      </trkpt>
      <trkpt lat="45.058322" lon="-0.45646">
        <ele>20.0</ele>
        <time>2020-08-12T20:09:05Z</time>
      </trkpt>
      <trkpt lat="45.05691" lon="-0.455657">
        <ele>21.6</ele>
        <time>2020-08-12T20:09:11Z</time>
      </trkpt>
      <trkpt lat="45.055292" lon="-0.454798">
        <ele>24.2</ele>
        <time>2020-08-12T20:09:18Z</time>
      </trkpt>
      <trkpt lat="45.045534" lon="-0.449717">
        <ele>17.4</ele>
        <time>2020-08-12T20:10:00Z</time>
      </trkpt>
      <trkpt lat="45.043215" lon="-0.448379">
        <ele>23.0</ele>
        <time>2020-08-12T20:10:10Z</time>
      </trkpt>
      <trkpt lat="45.041864" lon="-0.447559">
        <ele>23.8</ele>
        <time>2020-08-12T20:10:16Z</time>
      </trkpt>
      <trkpt lat="45.039237" lon="-0.445814">
        <ele>26.4</ele>
        <time>2020-08-12T20:10:28Z</time>
      </trkpt>
      <trkpt lat="45.031774" lon="-0.440609">
        <ele>43.8</ele>
        <time>2020-08-12T20:11:02Z</time>
      </trkpt>
      <trkpt lat="45.029811" lon="-0.439363">
        <ele>47.8</ele>
        <time>2020-08-12T20:11:10Z</time>
      </trkpt>
      <trkpt lat="45.027872" lon="-0.438184">
        <ele>50.0</ele>
        <time>2020-08-12T20:11:19Z</time>
      </trkpt>
      <trkpt lat="45.027059" lon="-0.437715">
        <ele>52.4</ele>
        <time>2020-08-12T20:11:23Z</time>
      </trkpt>
      <trkpt lat="45.023497" lon="-0.435797">
        <ele>55.2</ele>
        <time>2020-08-12T20:11:38Z</time>
      </trkpt>
      <trkpt lat="45.02126" lon="-0.434415">
        <ele>54.0</ele>
        <time>2020-08-12T20:11:48Z</time>
      </trkpt>
      <trkpt lat="45.015411" lon="-0.431176">
        <ele>50.4</ele>
        <time>2020-08-12T20:12:13Z</time>
      </trkpt>
      <trkpt lat="45.013974" lon="-0.430427">
        <ele>48.2</ele>
        <time>2020-08-12T20:12:19Z</time>
      </trkpt>
      <trkpt lat="45.011883" lon="-0.429469">
        <ele>48.4</ele>
        <time>2020-08-12T20:12:28Z</time>
      </trkpt>
      <trkpt lat="45.01066" lon="-0.428984">
        <ele>46.4</ele>
        <time>2020-08-12T20:12:33Z</time>
      </trkpt>
      <trkpt lat="45.008515" lon="-0.42825">
        <ele>46.8</ele>
        <time>2020-08-12T20:12:42Z</time>
      </trkpt>
      <trkpt lat="45.005646" lon="-0.427605">
        <ele>49.4</ele>
        <time>2020-08-12T20:12:54Z</time>
      </trkpt>
      <trkpt lat="45.00451" lon="-0.427388">
        <ele>48.4</ele>
        <time>2020-08-12T20:12:59Z</time>
      </trkpt>
      <trkpt lat="45.003324" lon="-0.427217">
        <ele>45.4</ele>
        <time>2020-08-12T20:13:04Z</time>
      </trkpt>
      <trkpt lat="45.00168" lon="-0.427046">
        <ele>44.2</ele>
        <time>2020-08-12T20:13:10Z</time>
      </trkpt>
      <trkpt lat="44.999975" lon="-0.426966">
        <ele>40.5</ele>
        <time>2020-08-12T20:13:17Z</time>
      </trkpt>
      <trkpt lat="44.996766" lon="-0.426972">
        <ele>39.8</ele>
        <time>2020-08-12T20:13:30Z</time>
      </trkpt>
      <trkpt lat="44.990228" lon="-0.427172">
        <ele>33.4</ele>
        <time>2020-08-12T20:13:57Z</time>
      </trkpt>
      <trkpt lat="44.988403" lon="-0.427326">
        <ele>31.4</ele>
        <time>2020-08-12T20:14:04Z</time>
      </trkpt>
      <trkpt lat="44.987558" lon="-0.427435">
        <ele>31.2</ele>
        <time>2020-08-12T20:14:07Z</time>
      </trkpt>
      <trkpt lat="44.986616" lon="-0.427616">
        <ele>29.6</ele>
        <time>2020-08-12T20:14:11Z</time>
      </trkpt>
      <trkpt lat="44.985232" lon="-0.427952">
        <ele>29.4</ele>
        <time>2020-08-12T20:14:17Z</time>
      </trkpt>
      <trkpt lat="44.984304" lon="-0.428236">
        <ele>28.2</ele>
        <time>2020-08-12T20:14:21Z</time>
      </trkpt>
      <trkpt lat="44.983538" lon="-0.42851">
        <ele>25.8</ele>
        <time>2020-08-12T20:14:24Z</time>
      </trkpt>
      <trkpt lat="44.981956" lon="-0.42919">
        <ele>25.4</ele>
        <time>2020-08-12T20:14:31Z</time>
      </trkpt>
      <trkpt lat="44.980843" lon="-0.429775">
        <ele>25.8</ele>
        <time>2020-08-12T20:14:35Z</time>
      </trkpt>
      <trkpt lat="44.979458" lon="-0.430573">
        <ele>24.0</ele>
        <time>2020-08-12T20:14:41Z</time>
      </trkpt>
      <trkpt lat="44.978472" lon="-0.431285">
        <ele>22.6</ele>
        <time>2020-08-12T20:14:46Z</time>
      </trkpt>
      <trkpt lat="44.977515" lon="-0.431932">
        <ele>21.8</ele>
        <time>2020-08-12T20:14:50Z</time>
      </trkpt>
      <trkpt lat="44.976787" lon="-0.432475">
        <ele>21.6</ele>
        <time>2020-08-12T20:14:54Z</time>
      </trkpt>
      <trkpt lat="44.975481" lon="-0.433371">
        <ele>22.0</ele>
        <time>2020-08-12T20:14:59Z</time>
      </trkpt>
      <trkpt lat="44.974724" lon="-0.433808">
        <ele>23.2</ele>
        <time>2020-08-12T20:15:03Z</time>
      </trkpt>
      <trkpt lat="44.973677" lon="-0.434325">
        <ele>26.2</ele>
        <time>2020-08-12T20:15:07Z</time>
      </trkpt>
      <trkpt lat="44.971949" lon="-0.435076">
        <ele>31.8</ele>
        <time>2020-08-12T20:15:15Z</time>
      </trkpt>
      <trkpt lat="44.971125" lon="-0.435455">
        <ele>29.6</ele>
        <time>2020-08-12T20:15:18Z</time>
      </trkpt>
      <trkpt lat="44.970332" lon="-0.435864">
        <ele>22.2</ele>
        <time>2020-08-12T20:15:21Z</time>
      </trkpt>
      <trkpt lat="44.969799" lon="-0.436175">
        <ele>11.2</ele>
        <time>2020-08-12T20:15:24Z</time>
      </trkpt>
      <trkpt lat="44.969244" lon="-0.436539">
        <ele>11.2</ele>
        <time>2020-08-12T20:15:26Z</time>
      </trkpt>
      <trkpt lat="44.968236" lon="-0.437278">
        <ele>4.0</ele>
        <time>2020-08-12T20:15:31Z</time>
      </trkpt>
      <trkpt lat="44.967448" lon="-0.437923">
        <ele>4.6</ele>
        <time>2020-08-12T20:15:35Z</time>
      </trkpt>
      <trkpt lat="44.966632" lon="-0.438634">
        <ele>4.4</ele>
        <time>2020-08-12T20:15:38Z</time>
      </trkpt>
      <trkpt lat="44.961536" lon="-0.44366">
        <ele>3.4</ele>
        <time>2020-08-12T20:16:04Z</time>
      </trkpt>
      <trkpt lat="44.960882" lon="-0.444376">
        <ele>3.2</ele>
        <time>2020-08-12T20:16:07Z</time>
      </trkpt>
      <trkpt lat="44.960194" lon="-0.445205">
        <ele>3.4</ele>
        <time>2020-08-12T20:16:11Z</time>
      </trkpt>
      <trkpt lat="44.95981" lon="-0.445694">
        <ele>3.0</ele>
        <time>2020-08-12T20:16:13Z</time>
      </trkpt>
      <trkpt lat="44.959416" lon="-0.446244">
        <ele>3.0</ele>
        <time>2020-08-12T20:16:15Z</time>
      </trkpt>
      <trkpt lat="44.958765" lon="-0.447233">
        <ele>3.8</ele>
        <time>2020-08-12T20:16:19Z</time>
      </trkpt>
      <trkpt lat="44.958233" lon="-0.448115">
        <ele>4.8</ele>
        <time>2020-08-12T20:16:22Z</time>
      </trkpt>
      <trkpt lat="44.957462" lon="-0.449511">
        <ele>4.2</ele>
        <time>2020-08-12T20:16:27Z</time>
      </trkpt>
      <trkpt lat="44.955796" lon="-0.452806">
        <ele>2.2</ele>
        <time>2020-08-12T20:16:39Z</time>
      </trkpt>
      <trkpt lat="44.953061" lon="-0.458403">
        <ele>6.6</ele>
        <time>2020-08-12T20:16:58Z</time>
      </trkpt>
      <trkpt lat="44.952217" lon="-0.460025">
        <ele>5.0</ele>
        <time>2020-08-12T20:17:04Z</time>
      </trkpt>
      <trkpt lat="44.951809" lon="-0.460729">
        <ele>5.0</ele>
        <time>2020-08-12T20:17:07Z</time>
      </trkpt>
      <trkpt lat="44.951238" lon="-0.461596">
        <ele>3.8</ele>
        <time>2020-08-12T20:17:10Z</time>
      </trkpt>
      <trkpt lat="44.950663" lon="-0.462333">
        <ele>4.2</ele>
        <time>2020-08-12T20:17:13Z</time>
      </trkpt>
      <trkpt lat="44.950266" lon="-0.46281">
        <ele>4.2</ele>
        <time>2020-08-12T20:17:15Z</time>
      </trkpt>
      <trkpt lat="44.949349" lon="-0.463733">
        <ele>3.8</ele>
        <time>2020-08-12T20:17:20Z</time>
      </trkpt>
      <trkpt lat="44.948948" lon="-0.464072">
        <ele>3.8</ele>
        <time>2020-08-12T20:17:22Z</time>
      </trkpt>
      <trkpt lat="44.948267" lon="-0.464575">
        <ele>3.2</ele>
        <time>2020-08-12T20:17:25Z</time>
      </trkpt>
      <trkpt lat="44.947748" lon="-0.464896">
        <ele>3.2</ele>
        <time>2020-08-12T20:17:27Z</time>
      </trkpt>
      <trkpt lat="44.947211" lon="-0.465187">
        <ele>3.0</ele>
        <time>2020-08-12T20:17:29Z</time>
      </trkpt>
      <trkpt lat="44.946614" lon="-0.465469">
        <ele>3.8</ele>
        <time>2020-08-12T20:17:32Z</time>
      </trkpt>
      <trkpt lat="44.945909" lon="-0.46572">
        <ele>3.8</ele>
        <time>2020-08-12T20:17:35Z</time>
      </trkpt>
      <trkpt lat="44.945283" lon="-0.465882">
        <ele>4.6</ele>
        <time>2020-08-12T20:17:37Z</time>
      </trkpt>
      <trkpt lat="44.943728" lon="-0.46615">
        <ele>3.8</ele>
        <time>2020-08-12T20:17:44Z</time>
      </trkpt>
      <trkpt lat="44.940564" lon="-0.46666">
        <ele>5.0</ele>
        <time>2020-08-12T20:17:57Z</time>
      </trkpt>
      <trkpt lat="44.934422" lon="-0.467696">
        <ele>19.0</ele>
        <time>2020-08-12T20:18:22Z</time>
      </trkpt>
      <trkpt lat="44.933406" lon="-0.467923">
        <ele>21.0</ele>
        <time>2020-08-12T20:18:26Z</time>
      </trkpt>
      <trkpt lat="44.932572" lon="-0.468169">
        <ele>20.8</ele>
        <time>2020-08-12T20:18:29Z</time>
      </trkpt>
      <trkpt lat="44.931406" lon="-0.468731">
        <ele>22.6</ele>
        <time>2020-08-12T20:18:34Z</time>
      </trkpt>
      <trkpt lat="44.930632" lon="-0.469207">
        <ele>24.0</ele>
        <time>2020-08-12T20:18:38Z</time>
      </trkpt>
      <trkpt lat="44.928071" lon="-0.470923">
        <ele>22.2</ele>
        <time>2020-08-12T20:18:49Z</time>
      </trkpt>
      <trkpt lat="44.926726" lon="-0.47179">
        <ele>22.2</ele>
        <time>2020-08-12T20:18:55Z</time>
      </trkpt>
      <trkpt lat="44.923997" lon="-0.473625">
        <ele>24.6</ele>
        <time>2020-08-12T20:19:07Z</time>
      </trkpt>
      <trkpt lat="44.921012" lon="-0.47535">
        <ele>26.4</ele>
        <time>2020-08-12T20:19:20Z</time>
      </trkpt>
      <trkpt lat="44.917704" lon="-0.477085">
        <ele>24.2</ele>
        <time>2020-08-12T20:19:35Z</time>
      </trkpt>
      <trkpt lat="44.916957" lon="-0.477516">
        <ele>22.4</ele>
        <time>2020-08-12T20:19:38Z</time>
      </trkpt>
      <trkpt lat="44.916345" lon="-0.477973">
        <ele>18.0</ele>
        <time>2020-08-12T20:19:41Z</time>
      </trkpt>
      <trkpt lat="44.915843" lon="-0.478431">
        <ele>20.0</ele>
        <time>2020-08-12T20:19:43Z</time>
      </trkpt>
      <trkpt lat="44.914878" lon="-0.479498">
        <ele>14.8</ele>
        <time>2020-08-12T20:19:48Z</time>
      </trkpt>
      <trkpt lat="44.914475" lon="-0.480037">
        <ele>14.6</ele>
        <time>2020-08-12T20:19:50Z</time>
      </trkpt>
      <trkpt lat="44.91408" lon="-0.480606">
        <ele>13.4</ele>
        <time>2020-08-12T20:19:53Z</time>
      </trkpt>
      <trkpt lat="44.913595" lon="-0.481477">
        <ele>14.4</ele>
        <time>2020-08-12T20:19:56Z</time>
      </trkpt>
      <trkpt lat="44.912488" lon="-0.483657">
        <ele>16.0</ele>
        <time>2020-08-12T20:20:03Z</time>
      </trkpt>
      <trkpt lat="44.910537" lon="-0.487565">
        <ele>16.6</ele>
        <time>2020-08-12T20:20:17Z</time>
      </trkpt>
      <trkpt lat="44.910135" lon="-0.488278">
        <ele>16.6</ele>
        <time>2020-08-12T20:20:20Z</time>
      </trkpt>
      <trkpt lat="44.909366" lon="-0.489436">
        <ele>13.2</ele>
        <time>2020-08-12T20:20:24Z</time>
      </trkpt>
      <trkpt lat="44.909155" lon="-0.489712">
        <ele>13.8</ele>
        <time>2020-08-12T20:20:25Z</time>
      </trkpt>
      <trkpt lat="44.908841" lon="-0.490071">
        <ele>13.0</ele>
        <time>2020-08-12T20:20:27Z</time>
      </trkpt>
      <trkpt lat="44.908482" lon="-0.490445">
        <ele>13.0</ele>
        <time>2020-08-12T20:20:29Z</time>
      </trkpt>
      <trkpt lat="44.908028" lon="-0.49087">
        <ele>14.0</ele>
        <time>2020-08-12T20:20:31Z</time>
      </trkpt>
      <trkpt lat="44.90744" lon="-0.491318">
        <ele>15.2</ele>
        <time>2020-08-12T20:20:34Z</time>
      </trkpt>
      <trkpt lat="44.906925" lon="-0.491667">
        <ele>14.6</ele>
        <time>2020-08-12T20:20:36Z</time>
      </trkpt>
      <trkpt lat="44.906346" lon="-0.491998">
        <ele>15.2</ele>
        <time>2020-08-12T20:20:39Z</time>
      </trkpt>
      <trkpt lat="44.905235" lon="-0.49249">
        <ele>15.8</ele>
        <time>2020-08-12T20:20:43Z</time>
      </trkpt>
      <trkpt lat="44.900823" lon="-0.494278">
        <ele>16.6</ele>
        <time>2020-08-12T20:21:02Z</time>
      </trkpt>
      <trkpt lat="44.898704" lon="-0.495109">
        <ele>18.0</ele>
        <time>2020-08-12T20:21:11Z</time>
      </trkpt>
      <trkpt lat="44.897848" lon="-0.495524">
        <ele>19.0</ele>
        <time>2020-08-12T20:21:14Z</time>
      </trkpt>
      <trkpt lat="44.897469" lon="-0.495738">
        <ele>20.0</ele>
        <time>2020-08-12T20:21:16Z</time>
      </trkpt>
      <trkpt lat="44.89709" lon="-0.495977">
        <ele>19.0</ele>
        <time>2020-08-12T20:21:18Z</time>
      </trkpt>
      <trkpt lat="44.896499" lon="-0.496412">
        <ele>20.4</ele>
        <time>2020-08-12T20:21:20Z</time>
      </trkpt>
      <trkpt lat="44.895861" lon="-0.496918">
        <ele>19.6</ele>
        <time>2020-08-12T20:21:23Z</time>
      </trkpt>
      <trkpt lat="44.895306" lon="-0.497452">
        <ele>20.0</ele>
        <time>2020-08-12T20:21:26Z</time>
      </trkpt>
      <trkpt lat="44.894341" lon="-0.498489">
        <ele>19.6</ele>
        <time>2020-08-12T20:21:31Z</time>
      </trkpt>
      <trkpt lat="44.892303" lon="-0.500763">
        <ele>22.2</ele>
        <time>2020-08-12T20:21:42Z</time>
      </trkpt>
      <trkpt lat="44.891557" lon="-0.501559">
        <ele>22.2</ele>
        <time>2020-08-12T20:21:45Z</time>
      </trkpt>
      <trkpt lat="44.889918" lon="-0.503425">
        <ele>26.8</ele>
        <time>2020-08-12T20:21:54Z</time>
      </trkpt>
      <trkpt lat="44.889145" lon="-0.504226">
        <ele>29.0</ele>
        <time>2020-08-12T20:21:58Z</time>
      </trkpt>
      <trkpt lat="44.887306" lon="-0.505951">
        <ele>32.4</ele>
        <time>2020-08-12T20:22:07Z</time>
      </trkpt>
      <trkpt lat="44.887065" lon="-0.506207">
        <ele>32.4</ele>
        <time>2020-08-12T20:22:08Z</time>
      </trkpt>
      <trkpt lat="44.886495" lon="-0.507002">
        <ele>33.6</ele>
        <time>2020-08-12T20:22:13Z</time>
      </trkpt>
      <trkpt lat="44.886121" lon="-0.507594">
        <ele>35.0</ele>
        <time>2020-08-12T20:22:17Z</time>
      </trkpt>
      <trkpt lat="44.885942" lon="-0.507919">
        <ele>35.0</ele>
        <time>2020-08-12T20:22:19Z</time>
      </trkpt>
      <trkpt lat="44.885649" lon="-0.508539">
        <ele>36.0</ele>
        <time>2020-08-12T20:22:22Z</time>
      </trkpt>
      <trkpt lat="44.885446" lon="-0.509079">
        <ele>36.0</ele>
        <time>2020-08-12T20:22:25Z</time>
      </trkpt>
      <trkpt lat="44.885377" lon="-0.509338">
        <ele>37.6</ele>
        <time>2020-08-12T20:22:26Z</time>
      </trkpt>
      <trkpt lat="44.885336" lon="-0.509563">
        <ele>37.6</ele>
        <time>2020-08-12T20:22:27Z</time>
      </trkpt>
      <trkpt lat="44.885285" lon="-0.51003">
        <ele>39.0</ele>
        <time>2020-08-12T20:22:29Z</time>
      </trkpt>
      <trkpt lat="44.885286" lon="-0.51042">
        <ele>39.0</ele>
        <time>2020-08-12T20:22:31Z</time>
      </trkpt>
      <trkpt lat="44.88534" lon="-0.511103">
        <ele>40.2</ele>
        <time>2020-08-12T20:22:34Z</time>
      </trkpt>
      <trkpt lat="44.885353" lon="-0.51146">
        <ele>40.2</ele>
        <time>2020-08-12T20:22:36Z</time>
      </trkpt>
      <trkpt lat="44.885327" lon="-0.511846">
        <ele>43.2</ele>
        <time>2020-08-12T20:22:38Z</time>
      </trkpt>
      <trkpt lat="44.885203" lon="-0.51229">
        <ele>43.2</ele>
        <time>2020-08-12T20:22:40Z</time>
      </trkpt>
      <trkpt lat="44.885094" lon="-0.512512">
        <ele>45.2</ele>
        <time>2020-08-12T20:22:41Z</time>
      </trkpt>
      <trkpt lat="44.884975" lon="-0.512683">
        <ele>44.4</ele>
        <time>2020-08-12T20:22:42Z</time>
      </trkpt>
      <trkpt lat="44.88482" lon="-0.51285">
        <ele>44.4</ele>
        <time>2020-08-12T20:22:44Z</time>
      </trkpt>
      <trkpt lat="44.884681" lon="-0.512954">
        <ele>44.4</ele>
        <time>2020-08-12T20:22:45Z</time>
      </trkpt>
      <trkpt lat="44.884526" lon="-0.513029">
        <ele>44.4</ele>
        <time>2020-08-12T20:22:46Z</time>
      </trkpt>
      <trkpt lat="44.884287" lon="-0.513077">
        <ele>44.4</ele>
        <time>2020-08-12T20:22:47Z</time>
      </trkpt>
      <trkpt lat="44.884042" lon="-0.513043">
        <ele>46.4</ele>
        <time>2020-08-12T20:22:49Z</time>
      </trkpt>
      <trkpt lat="44.883885" lon="-0.512979">
        <ele>46.4</ele>
        <time>2020-08-12T20:22:50Z</time>
      </trkpt>
      <trkpt lat="44.883739" lon="-0.512891">
        <ele>46.4</ele>
        <time>2020-08-12T20:22:51Z</time>
      </trkpt>
      <trkpt lat="44.882477" lon="-0.511882">
        <ele>45.4</ele>
        <time>2020-08-12T20:23:00Z</time>
      </trkpt>
      <trkpt lat="44.881703" lon="-0.511386">
        <ele>41.8</ele>
        <time>2020-08-12T20:23:06Z</time>
      </trkpt>
      <trkpt lat="44.880664" lon="-0.51082">
        <ele>37.4</ele>
        <time>2020-08-12T20:23:13Z</time>
      </trkpt>
      <trkpt lat="44.879578" lon="-0.510152">
        <ele>37.6</ele>
        <time>2020-08-12T20:23:21Z</time>
      </trkpt>
      <trkpt lat="44.878425" lon="-0.509518">
        <ele>35.0</ele>
        <time>2020-08-12T20:23:29Z</time>
      </trkpt>
      <trkpt lat="44.877108" lon="-0.508832">
        <ele>29.8</ele>
        <time>2020-08-12T20:23:38Z</time>
      </trkpt>
      <trkpt lat="44.872077" lon="-0.506092">
        <ele>41.6</ele>
        <time>2020-08-12T20:24:12Z</time>
      </trkpt>
      <trkpt lat="44.871483" lon="-0.50579">
        <ele>40.2</ele>
        <time>2020-08-12T20:24:16Z</time>
      </trkpt>
      <trkpt lat="44.870586" lon="-0.505379">
        <ele>41.6</ele>
        <time>2020-08-12T20:24:23Z</time>
      </trkpt>
      <trkpt lat="44.869441" lon="-0.504947">
        <ele>39.4</ele>
        <time>2020-08-12T20:24:30Z</time>
      </trkpt>
      <trkpt lat="44.868009" lon="-0.504518">
        <ele>41.6</ele>
        <time>2020-08-12T20:24:40Z</time>
      </trkpt>
      <trkpt lat="44.866774" lon="-0.504247">
        <ele>43.6</ele>
        <time>2020-08-12T20:24:48Z</time>
      </trkpt>
      <trkpt lat="44.865798" lon="-0.504099">
        <ele>46.2</ele>
        <time>2020-08-12T20:24:54Z</time>
      </trkpt>
      <trkpt lat="44.865267" lon="-0.504041">
        <ele>46.2</ele>
        <time>2020-08-12T20:24:57Z</time>
      </trkpt>
      <trkpt lat="44.864622" lon="-0.504002">
        <ele>46.8</ele>
        <time>2020-08-12T20:25:02Z</time>
      </trkpt>
      <trkpt lat="44.86334" lon="-0.503978">
        <ele>47.0</ele>
        <time>2020-08-12T20:25:10Z</time>
      </trkpt>
      <trkpt lat="44.86232" lon="-0.50403">
        <ele>51.4</ele>
        <time>2020-08-12T20:25:16Z</time>
      </trkpt>
      <trkpt lat="44.861104" lon="-0.504162">
        <ele>53.2</ele>
        <time>2020-08-12T20:25:24Z</time>
      </trkpt>
      <trkpt lat="44.860234" lon="-0.504304">
        <ele>51.0</ele>
        <time>2020-08-12T20:25:30Z</time>
      </trkpt>
      <trkpt lat="44.856662" lon="-0.505147">
        <ele>58.6</ele>
        <time>2020-08-12T20:25:53Z</time>
      </trkpt>
      <trkpt lat="44.855647" lon="-0.50532">
        <ele>58.6</ele>
        <time>2020-08-12T20:26:00Z</time>
      </trkpt>
      <trkpt lat="44.854637" lon="-0.505373">
        <ele>59.6</ele>
        <time>2020-08-12T20:26:06Z</time>
      </trkpt>
      <trkpt lat="44.853701" lon="-0.505293">
        <ele>60.6</ele>
        <time>2020-08-12T20:26:12Z</time>
      </trkpt>
      <trkpt lat="44.853249" lon="-0.50521">
        <ele>61.0</ele>
        <time>2020-08-12T20:26:15Z</time>
      </trkpt>
      <trkpt lat="44.852617" lon="-0.505059">
        <ele>61.0</ele>
        <time>2020-08-12T20:26:20Z</time>
      </trkpt>
      <trkpt lat="44.851928" lon="-0.504835">
        <ele>62.4</ele>
        <time>2020-08-12T20:26:24Z</time>
      </trkpt>
      <trkpt lat="44.845511" lon="-0.502243">
        <ele>67.4</ele>
        <time>2020-08-12T20:27:07Z</time>
      </trkpt>
      <trkpt lat="44.84437" lon="-0.501859">
        <ele>69.0</ele>
        <time>2020-08-12T20:27:15Z</time>
      </trkpt>
      <trkpt lat="44.843522" lon="-0.501704">
        <ele>69.8</ele>
        <time>2020-08-12T20:27:20Z</time>
      </trkpt>
      <trkpt lat="44.843118" lon="-0.501666">
        <ele>71.2</ele>
        <time>2020-08-12T20:27:23Z</time>
      </trkpt>
      <trkpt lat="44.842613" lon="-0.501655">
        <ele>71.2</ele>
        <time>2020-08-12T20:27:26Z</time>
      </trkpt>
      <trkpt lat="44.840856" lon="-0.501756">
        <ele>73.0</ele>
        <time>2020-08-12T20:27:37Z</time>
      </trkpt>
      <trkpt lat="44.840108" lon="-0.501696">
        <ele>71.6</ele>
        <time>2020-08-12T20:27:42Z</time>
      </trkpt>
      <trkpt lat="44.839701" lon="-0.50163">
        <ele>72.2</ele>
        <time>2020-08-12T20:27:45Z</time>
      </trkpt>
      <trkpt lat="44.839117" lon="-0.501492">
        <ele>70.8</ele>
        <time>2020-08-12T20:27:49Z</time>
      </trkpt>
      <trkpt lat="44.838471" lon="-0.501266">
        <ele>70.8</ele>
        <time>2020-08-12T20:27:53Z</time>
      </trkpt>
      <trkpt lat="44.837917" lon="-0.501011">
        <ele>69.6</ele>
        <time>2020-08-12T20:27:57Z</time>
      </trkpt>
      <trkpt lat="44.836987" lon="-0.500533">
        <ele>66.6</ele>
        <time>2020-08-12T20:28:03Z</time>
      </trkpt>
      <trkpt lat="44.836394" lon="-0.500273">
        <ele>65.0</ele>
        <time>2020-08-12T20:28:07Z</time>
      </trkpt>
      <trkpt lat="44.836086" lon="-0.500176">
        <ele>65.0</ele>
        <time>2020-08-12T20:28:09Z</time>
      </trkpt>
      <trkpt lat="44.835648" lon="-0.50008">
        <ele>63.6</ele>
        <time>2020-08-12T20:28:12Z</time>
      </trkpt>
      <trkpt lat="44.835264" lon="-0.500027">
        <ele>63.6</ele>
        <time>2020-08-12T20:28:15Z</time>
      </trkpt>
      <trkpt lat="44.834762" lon="-0.500023">
        <ele>57.8</ele>
        <time>2020-08-12T20:28:18Z</time>
      </trkpt>
      <trkpt lat="44.834378" lon="-0.500063">
        <ele>57.8</ele>
        <time>2020-08-12T20:28:20Z</time>
      </trkpt>
      <trkpt lat="44.83394" lon="-0.500141">
        <ele>50.0</ele>
        <time>2020-08-12T20:28:23Z</time>
      </trkpt>
      <trkpt lat="44.833371" lon="-0.500312">
        <ele>50.0</ele>
        <time>2020-08-12T20:28:27Z</time>
      </trkpt>
      <trkpt lat="44.832648" lon="-0.500594">
        <ele>46.6</ele>
        <time>2020-08-12T20:28:32Z</time>
      </trkpt>
      <trkpt lat="44.831562" lon="-0.501075">
        <ele>38.8</ele>
        <time>2020-08-12T20:28:39Z</time>
      </trkpt>
      <trkpt lat="44.831099" lon="-0.501303">
        <ele>38.8</ele>
        <time>2020-08-12T20:28:42Z</time>
      </trkpt>
      <trkpt lat="44.830647" lon="-0.501555">
        <ele>34.2</ele>
        <time>2020-08-12T20:28:45Z</time>
      </trkpt>
      <trkpt lat="44.830254" lon="-0.501822">
        <ele>41.2</ele>
        <time>2020-08-12T20:28:48Z</time>
      </trkpt>
      <trkpt lat="44.829833" lon="-0.502169">
        <ele>35.2</ele>
        <time>2020-08-12T20:28:51Z</time>
      </trkpt>
      <trkpt lat="44.829466" lon="-0.502534">
        <ele>36.2</ele>
        <time>2020-08-12T20:28:54Z</time>
      </trkpt>
      <trkpt lat="44.82914" lon="-0.502933">
        <ele>36.8</ele>
        <time>2020-08-12T20:28:57Z</time>
      </trkpt>
      <trkpt lat="44.82882" lon="-0.503407">
        <ele>34.2</ele>
        <time>2020-08-12T20:29:00Z</time>
      </trkpt>
      <trkpt lat="44.828603" lon="-0.503787">
        <ele>34.2</ele>
        <time>2020-08-12T20:29:02Z</time>
      </trkpt>
      <trkpt lat="44.828383" lon="-0.504224">
        <ele>30.6</ele>
        <time>2020-08-12T20:29:05Z</time>
      </trkpt>
      <trkpt lat="44.828214" lon="-0.504626">
        <ele>43.2</ele>
        <time>2020-08-12T20:29:07Z</time>
      </trkpt>
      <trkpt lat="44.827519" lon="-0.506714">
        <ele>24.4</ele>
        <time>2020-08-12T20:29:18Z</time>
      </trkpt>
      <trkpt lat="44.827333" lon="-0.507179">
        <ele>29.6</ele>
        <time>2020-08-12T20:29:20Z</time>
      </trkpt>
      <trkpt lat="44.82709" lon="-0.507711">
        <ele>21.4</ele>
        <time>2020-08-12T20:29:23Z</time>
      </trkpt>
      <trkpt lat="44.8268" lon="-0.508266">
        <ele>21.4</ele>
        <time>2020-08-12T20:29:26Z</time>
      </trkpt>
      <trkpt lat="44.826317" lon="-0.509059">
        <ele>17.8</ele>
        <time>2020-08-12T20:29:31Z</time>
      </trkpt>
      <trkpt lat="44.826031" lon="-0.509458">
        <ele>21.4</ele>
        <time>2020-08-12T20:29:34Z</time>
      </trkpt>
      <trkpt lat="44.825673" lon="-0.509904">
        <ele>15.8</ele>
        <time>2020-08-12T20:29:37Z</time>
      </trkpt>
      <trkpt lat="44.825368" lon="-0.51024">
        <ele>24.4</ele>
        <time>2020-08-12T20:29:39Z</time>
      </trkpt>
      <trkpt lat="44.82428" lon="-0.511304">
        <ele>23.6</ele>
        <time>2020-08-12T20:29:48Z</time>
      </trkpt>
      <trkpt lat="44.823887" lon="-0.51176">
        <ele>17.8</ele>
        <time>2020-08-12T20:29:51Z</time>
      </trkpt>
      <trkpt lat="44.823613" lon="-0.512117">
        <ele>17.8</ele>
        <time>2020-08-12T20:29:53Z</time>
      </trkpt>
      <trkpt lat="44.823201" lon="-0.512744">
        <ele>13.6</ele>
        <time>2020-08-12T20:29:57Z</time>
      </trkpt>
      <trkpt lat="44.822838" lon="-0.51337">
        <ele>19.6</ele>
        <time>2020-08-12T20:30:01Z</time>
      </trkpt>
      <trkpt lat="44.822573" lon="-0.513919">
        <ele>19.6</ele>
        <time>2020-08-12T20:30:04Z</time>
      </trkpt>
      <trkpt lat="44.822404" lon="-0.514315">
        <ele>10.8</ele>
        <time>2020-08-12T20:30:06Z</time>
      </trkpt>
      <trkpt lat="44.822084" lon="-0.515181">
        <ele>11.2</ele>
        <time>2020-08-12T20:30:11Z</time>
      </trkpt>
      <trkpt lat="44.821599" lon="-0.516864">
        <ele>4.2</ele>
        <time>2020-08-12T20:30:19Z</time>
      </trkpt>
      <trkpt lat="44.821294" lon="-0.517677">
        <ele>5.6</ele>
        <time>2020-08-12T20:30:23Z</time>
      </trkpt>
      <trkpt lat="44.821132" lon="-0.518015">
        <ele>5.6</ele>
        <time>2020-08-12T20:30:25Z</time>
      </trkpt>
      <trkpt lat="44.820722" lon="-0.518727">
        <ele>4.0</ele>
        <time>2020-08-12T20:30:29Z</time>
      </trkpt>
      <trkpt lat="44.820504" lon="-0.519038">
        <ele>4.0</ele>
        <time>2020-08-12T20:30:31Z</time>
      </trkpt>
      <trkpt lat="44.820302" lon="-0.519292">
        <ele>3.8</ele>
        <time>2020-08-12T20:30:33Z</time>
      </trkpt>
      <trkpt lat="44.819897" lon="-0.519721">
        <ele>4.4</ele>
        <time>2020-08-12T20:30:36Z</time>
      </trkpt>
      <trkpt lat="44.819629" lon="-0.519969">
        <ele>4.4</ele>
        <time>2020-08-12T20:30:38Z</time>
      </trkpt>
      <trkpt lat="44.819295" lon="-0.520231">
        <ele>4.4</ele>
        <time>2020-08-12T20:30:41Z</time>
      </trkpt>
      <trkpt lat="44.818999" lon="-0.520422">
        <ele>5.6</ele>
        <time>2020-08-12T20:30:43Z</time>
      </trkpt>
      <trkpt lat="44.818509" lon="-0.520669">
        <ele>5.6</ele>
        <time>2020-08-12T20:30:46Z</time>
      </trkpt>
      <trkpt lat="44.818116" lon="-0.52082">
        <ele>4.8</ele>
        <time>2020-08-12T20:30:49Z</time>
      </trkpt>
      <trkpt lat="44.81765" lon="-0.520924">
        <ele>4.8</ele>
        <time>2020-08-12T20:30:52Z</time>
      </trkpt>
      <trkpt lat="44.817303" lon="-0.520972">
        <ele>4.0</ele>
        <time>2020-08-12T20:30:54Z</time>
      </trkpt>
      <trkpt lat="44.816883" lon="-0.520976">
        <ele>4.0</ele>
        <time>2020-08-12T20:30:57Z</time>
      </trkpt>
      <trkpt lat="44.816336" lon="-0.520907">
        <ele>3.8</ele>
        <time>2020-08-12T20:31:01Z</time>
      </trkpt>
      <trkpt lat="44.815816" lon="-0.520796">
        <ele>3.8</ele>
        <time>2020-08-12T20:31:04Z</time>
      </trkpt>
      <trkpt lat="44.815353" lon="-0.520739">
        <ele>3.8</ele>
        <time>2020-08-12T20:31:07Z</time>
      </trkpt>
      <trkpt lat="44.814717" lon="-0.520719">
        <ele>4.8</ele>
        <time>2020-08-12T20:31:11Z</time>
      </trkpt>
      <trkpt lat="44.814398" lon="-0.520742">
        <ele>4.8</ele>
        <time>2020-08-12T20:31:13Z</time>
      </trkpt>
      <trkpt lat="44.813876" lon="-0.520846">
        <ele>5.6</ele>
        <time>2020-08-12T20:31:16Z</time>
      </trkpt>
      <trkpt lat="44.813295" lon="-0.521006">
        <ele>5.8</ele>
        <time>2020-08-12T20:31:20Z</time>
      </trkpt>
      <trkpt lat="44.812801" lon="-0.521236">
        <ele>5.8</ele>
        <time>2020-08-12T20:31:24Z</time>
      </trkpt>
      <trkpt lat="44.81227" lon="-0.521538">
        <ele>6.6</ele>
        <time>2020-08-12T20:31:27Z</time>
      </trkpt>
      <trkpt lat="44.81185" lon="-0.521859">
        <ele>6.8</ele>
        <time>2020-08-12T20:31:30Z</time>
      </trkpt>
      <trkpt lat="44.811583" lon="-0.52208">
        <ele>5.8</ele>
        <time>2020-08-12T20:31:32Z</time>
      </trkpt>
      <trkpt lat="44.811138" lon="-0.522506">
        <ele>4.8</ele>
        <time>2020-08-12T20:31:36Z</time>
      </trkpt>
      <trkpt lat="44.810747" lon="-0.522963">
        <ele>4.0</ele>
        <time>2020-08-12T20:31:39Z</time>
      </trkpt>
      <trkpt lat="44.81044" lon="-0.523375">
        <ele>4.2</ele>
        <time>2020-08-12T20:31:42Z</time>
      </trkpt>
      <trkpt lat="44.806198" lon="-0.529766">
        <ele>3.6</ele>
        <time>2020-08-12T20:32:22Z</time>
      </trkpt>
      <trkpt lat="44.806021" lon="-0.530006">
        <ele>6.0</ele>
        <time>2020-08-12T20:32:24Z</time>
      </trkpt>
      <trkpt lat="44.80509" lon="-0.531391">
        <ele>7.6</ele>
        <time>2020-08-12T20:32:32Z</time>
      </trkpt>
      <trkpt lat="44.804587" lon="-0.531968">
        <ele>6.6</ele>
        <time>2020-08-12T20:32:36Z</time>
      </trkpt>
      <trkpt lat="44.80422" lon="-0.532305">
        <ele>6.6</ele>
        <time>2020-08-12T20:32:39Z</time>
      </trkpt>
      <trkpt lat="44.803635" lon="-0.532734">
        <ele>5.8</ele>
        <time>2020-08-12T20:32:44Z</time>
      </trkpt>
      <trkpt lat="44.802929" lon="-0.533178">
        <ele>4.8</ele>
        <time>2020-08-12T20:32:49Z</time>
      </trkpt>
      <trkpt lat="44.802314" lon="-0.533633">
        <ele>4.8</ele>
        <time>2020-08-12T20:32:53Z</time>
      </trkpt>
      <trkpt lat="44.799052" lon="-0.536496">
        <ele>3.2</ele>
        <time>2020-08-12T20:33:18Z</time>
      </trkpt>
      <trkpt lat="44.798184" lon="-0.537216">
        <ele>3.8</ele>
        <time>2020-08-12T20:33:24Z</time>
      </trkpt>
      <trkpt lat="44.797531" lon="-0.53771">
        <ele>4.0</ele>
        <time>2020-08-12T20:33:29Z</time>
      </trkpt>
      <trkpt lat="44.796832" lon="-0.538201">
        <ele>4.6</ele>
        <time>2020-08-12T20:33:34Z</time>
      </trkpt>
      <trkpt lat="44.796391" lon="-0.53848">
        <ele>4.0</ele>
        <time>2020-08-12T20:33:37Z</time>
      </trkpt>
      <trkpt lat="44.795367" lon="-0.53906">
        <ele>3.6</ele>
        <time>2020-08-12T20:33:44Z</time>
      </trkpt>
      <trkpt lat="44.79423" lon="-0.539583">
        <ele>4.4</ele>
        <time>2020-08-12T20:33:52Z</time>
      </trkpt>
      <trkpt lat="44.792805" lon="-0.540077">
        <ele>2.2</ele>
        <time>2020-08-12T20:34:01Z</time>
      </trkpt>
      <trkpt lat="44.79193" lon="-0.540314">
        <ele>2.6</ele>
        <time>2020-08-12T20:34:07Z</time>
      </trkpt>
      <trkpt lat="44.784992" lon="-0.541901">
        <ele>3.4</ele>
        <time>2020-08-12T20:34:53Z</time>
      </trkpt>
      <trkpt lat="44.784098" lon="-0.542181">
        <ele>4.8</ele>
        <time>2020-08-12T20:34:58Z</time>
      </trkpt>
      <trkpt lat="44.783771" lon="-0.542315">
        <ele>4.8</ele>
        <time>2020-08-12T20:35:01Z</time>
      </trkpt>
      <trkpt lat="44.783336" lon="-0.542549">
        <ele>5.6</ele>
        <time>2020-08-12T20:35:04Z</time>
      </trkpt>
      <trkpt lat="44.782807" lon="-0.542921">
        <ele>7.4</ele>
        <time>2020-08-12T20:35:07Z</time>
      </trkpt>
      <trkpt lat="44.782515" lon="-0.543169">
        <ele>7.4</ele>
        <time>2020-08-12T20:35:10Z</time>
      </trkpt>
      <trkpt lat="44.782213" lon="-0.543457">
        <ele>9.2</ele>
        <time>2020-08-12T20:35:12Z</time>
      </trkpt>
      <trkpt lat="44.78165" lon="-0.544118">
        <ele>8.6</ele>
        <time>2020-08-12T20:35:17Z</time>
      </trkpt>
      <trkpt lat="44.781263" lon="-0.544702">
        <ele>9.4</ele>
        <time>2020-08-12T20:35:20Z</time>
      </trkpt>
      <trkpt lat="44.780908" lon="-0.545335">
        <ele>8.8</ele>
        <time>2020-08-12T20:35:24Z</time>
      </trkpt>
      <trkpt lat="44.780553" lon="-0.546135">
        <ele>7.8</ele>
        <time>2020-08-12T20:35:28Z</time>
      </trkpt>
      <trkpt lat="44.780227" lon="-0.547105">
        <ele>8.2</ele>
        <time>2020-08-12T20:35:33Z</time>
      </trkpt>
      <trkpt lat="44.77931" lon="-0.551217">
        <ele>9.8</ele>
        <time>2020-08-12T20:35:53Z</time>
      </trkpt>
      <trkpt lat="44.778971" lon="-0.552891">
        <ele>8.4</ele>
        <time>2020-08-12T20:36:01Z</time>
      </trkpt>
      <trkpt lat="44.778917" lon="-0.553369">
        <ele>10.4</ele>
        <time>2020-08-12T20:36:03Z</time>
      </trkpt>
      <trkpt lat="44.778522" lon="-0.555315">
        <ele>12.0</ele>
        <time>2020-08-12T20:36:09Z</time>
      </trkpt>
      <trkpt lat="44.778496" lon="-0.555518">
        <ele>12.0</ele>
        <time>2020-08-12T20:36:10Z</time>
      </trkpt>
      <trkpt lat="44.778499" lon="-0.55587">
        <ele>12.0</ele>
        <time>2020-08-12T20:36:11Z</time>
      </trkpt>
      <trkpt lat="44.778523" lon="-0.556145">
        <ele>12.0</ele>
        <time>2020-08-12T20:36:11Z</time>
      </trkpt>
      <trkpt lat="44.778574" lon="-0.556432">
        <ele>12.0</ele>
        <time>2020-08-12T20:36:12Z</time>
      </trkpt>
      <trkpt lat="44.778757" lon="-0.557102">
        <ele>12.4</ele>
        <time>2020-08-12T20:36:15Z</time>
      </trkpt>
      <trkpt lat="44.778878" lon="-0.557659">
        <ele>13.0</ele>
        <time>2020-08-12T20:36:16Z</time>
      </trkpt>
      <trkpt lat="44.778899" lon="-0.557892">
        <ele>13.0</ele>
        <time>2020-08-12T20:36:17Z</time>
      </trkpt>
      <trkpt lat="44.778893" lon="-0.558132">
        <ele>13.0</ele>
        <time>2020-08-12T20:36:18Z</time>
      </trkpt>
      <trkpt lat="44.778863" lon="-0.558338">
        <ele>13.8</ele>
        <time>2020-08-12T20:36:19Z</time>
      </trkpt>
      <trkpt lat="44.778817" lon="-0.558526">
        <ele>13.8</ele>
        <time>2020-08-12T20:36:19Z</time>
      </trkpt>
      <trkpt lat="44.778746" lon="-0.558719">
        <ele>13.8</ele>
        <time>2020-08-12T20:36:20Z</time>
      </trkpt>
      <trkpt lat="44.778549" lon="-0.559033">
        <ele>13.8</ele>
        <time>2020-08-12T20:36:21Z</time>
      </trkpt>
      <trkpt lat="44.778443" lon="-0.559133">
        <ele>13.8</ele>
        <time>2020-08-12T20:36:22Z</time>
      </trkpt>
      <trkpt lat="44.778241" lon="-0.55926">
        <ele>15.0</ele>
        <time>2020-08-12T20:36:23Z</time>
      </trkpt>
      <trkpt lat="44.778081" lon="-0.559312">
        <ele>15.0</ele>
        <time>2020-08-12T20:36:23Z</time>
      </trkpt>
      <trkpt lat="44.777857" lon="-0.559318">
        <ele>15.0</ele>
        <time>2020-08-12T20:36:24Z</time>
      </trkpt>
      <trkpt lat="44.777709" lon="-0.559279">
        <ele>15.0</ele>
        <time>2020-08-12T20:36:25Z</time>
      </trkpt>
      <trkpt lat="44.777577" lon="-0.559214">
        <ele>15.0</ele>
        <time>2020-08-12T20:36:26Z</time>
      </trkpt>
      <trkpt lat="44.777451" lon="-0.559112">
        <ele>15.6</ele>
        <time>2020-08-12T20:36:26Z</time>
      </trkpt>
      <trkpt lat="44.777315" lon="-0.558964">
        <ele>15.6</ele>
        <time>2020-08-12T20:36:27Z</time>
      </trkpt>
      <trkpt lat="44.777214" lon="-0.558831">
        <ele>15.6</ele>
        <time>2020-08-12T20:36:28Z</time>
      </trkpt>
      <trkpt lat="44.776777" lon="-0.558083">
        <ele>14.8</ele>
        <time>2020-08-12T20:36:31Z</time>
      </trkpt>
      <trkpt lat="44.776594" lon="-0.557834">
        <ele>15.0</ele>
        <time>2020-08-12T20:36:32Z</time>
      </trkpt>
      <trkpt lat="44.776405" lon="-0.557618">
        <ele>15.0</ele>
        <time>2020-08-12T20:36:33Z</time>
      </trkpt>
      <trkpt lat="44.776181" lon="-0.557414">
        <ele>14.2</ele>
        <time>2020-08-12T20:36:34Z</time>
      </trkpt>
      <trkpt lat="44.775806" lon="-0.557168">
        <ele>16.6</ele>
        <time>2020-08-12T20:36:36Z</time>
      </trkpt>
      <trkpt lat="44.775326" lon="-0.556941">
        <ele>16.6</ele>
        <time>2020-08-12T20:36:38Z</time>
      </trkpt>
      <trkpt lat="44.771262" lon="-0.555179">
        <ele>19.0</ele>
        <time>2020-08-12T20:36:56Z</time>
      </trkpt>
      <trkpt lat="44.77015" lon="-0.554659">
        <ele>19.8</ele>
        <time>2020-08-12T20:37:01Z</time>
      </trkpt>
      <trkpt lat="44.76961" lon="-0.554358">
        <ele>20.0</ele>
        <time>2020-08-12T20:37:04Z</time>
      </trkpt>
      <trkpt lat="44.768989" lon="-0.553947">
        <ele>17.6</ele>
        <time>2020-08-12T20:37:07Z</time>
      </trkpt>
      <trkpt lat="44.768557" lon="-0.553608">
        <ele>17.6</ele>
        <time>2020-08-12T20:37:09Z</time>
      </trkpt>
      <trkpt lat="44.76805" lon="-0.553146">
        <ele>16.0</ele>
        <time>2020-08-12T20:37:12Z</time>
      </trkpt>
      <trkpt lat="44.767408" lon="-0.552479">
        <ele>16.8</ele>
        <time>2020-08-12T20:37:15Z</time>
      </trkpt>
      <trkpt lat="44.766784" lon="-0.551755">
        <ele>16.8</ele>
        <time>2020-08-12T20:37:19Z</time>
      </trkpt>
      <trkpt lat="44.765502" lon="-0.550159">
        <ele>12.2</ele>
        <time>2020-08-12T20:37:26Z</time>
      </trkpt>
      <trkpt lat="44.76503" lon="-0.54964">
        <ele>11.8</ele>
        <time>2020-08-12T20:37:29Z</time>
      </trkpt>
      <trkpt lat="44.764537" lon="-0.549138">
        <ele>8.6</ele>
        <time>2020-08-12T20:37:31Z</time>
      </trkpt>
      <trkpt lat="44.764048" lon="-0.548695">
        <ele>6.8</ele>
        <time>2020-08-12T20:37:34Z</time>
      </trkpt>
      <trkpt lat="44.763441" lon="-0.548244">
        <ele>7.0</ele>
        <time>2020-08-12T20:37:37Z</time>
      </trkpt>
      <trkpt lat="44.76278" lon="-0.547846">
        <ele>6.6</ele>
        <time>2020-08-12T20:37:40Z</time>
      </trkpt>
      <trkpt lat="44.761751" lon="-0.547343">
        <ele>6.2</ele>
        <time>2020-08-12T20:37:45Z</time>
      </trkpt>
      <trkpt lat="44.758558" lon="-0.546009">
        <ele>8.8</ele>
        <time>2020-08-12T20:37:59Z</time>
      </trkpt>
      <trkpt lat="44.75742" lon="-0.545463">
        <ele>12.4</ele>
        <time>2020-08-12T20:38:04Z</time>
      </trkpt>
      <trkpt lat="44.756292" lon="-0.54489">
        <ele>11.2</ele>
        <time>2020-08-12T20:38:09Z</time>
      </trkpt>
      <trkpt lat="44.753867" lon="-0.543526">
        <ele>13.2</ele>
        <time>2020-08-12T20:38:21Z</time>
      </trkpt>
      <trkpt lat="44.733007" lon="-0.531515">
        <ele>8.6</ele>
        <time>2020-08-12T20:39:59Z</time>
      </trkpt>
      <trkpt lat="44.731516" lon="-0.530589">
        <ele>10.2</ele>
        <time>2020-08-12T20:40:06Z</time>
      </trkpt>
      <trkpt lat="44.730044" lon="-0.529628">
        <ele>10.0</ele>
        <time>2020-08-12T20:40:13Z</time>
      </trkpt>
      <trkpt lat="44.728039" lon="-0.528262">
        <ele>15.8</ele>
        <time>2020-08-12T20:40:22Z</time>
      </trkpt>
      <trkpt lat="44.726881" lon="-0.527425">
        <ele>12.8</ele>
        <time>2020-08-12T20:40:28Z</time>
      </trkpt>
      <trkpt lat="44.724875" lon="-0.525913">
        <ele>10.2</ele>
        <time>2020-08-12T20:40:38Z</time>
      </trkpt>
      <trkpt lat="44.715792" lon="-0.518802">
        <ele>14.2</ele>
        <time>2020-08-12T20:41:23Z</time>
      </trkpt>
      <trkpt lat="44.714377" lon="-0.517641">
        <ele>14.2</ele>
        <time>2020-08-12T20:41:30Z</time>
      </trkpt>
      <trkpt lat="44.712949" lon="-0.516383">
        <ele>15.4</ele>
        <time>2020-08-12T20:41:37Z</time>
      </trkpt>
      <trkpt lat="44.711546" lon="-0.515064">
        <ele>16.0</ele>
        <time>2020-08-12T20:41:45Z</time>
      </trkpt>
      <trkpt lat="44.710136" lon="-0.513618">
        <ele>20.8</ele>
        <time>2020-08-12T20:41:52Z</time>
      </trkpt>
      <trkpt lat="44.708788" lon="-0.512114">
        <ele>22.6</ele>
        <time>2020-08-12T20:42:00Z</time>
      </trkpt>
      <trkpt lat="44.707676" lon="-0.510797">
        <ele>19.8</ele>
        <time>2020-08-12T20:42:06Z</time>
      </trkpt>
      <trkpt lat="44.706591" lon="-0.509454">
        <ele>18.4</ele>
        <time>2020-08-12T20:42:12Z</time>
      </trkpt>
      <trkpt lat="44.703838" lon="-0.505978">
        <ele>11.6</ele>
        <time>2020-08-12T20:42:28Z</time>
      </trkpt>
      <trkpt lat="44.702352" lon="-0.504174">
        <ele>9.2</ele>
        <time>2020-08-12T20:42:37Z</time>
      </trkpt>
      <trkpt lat="44.700926" lon="-0.502558">
        <ele>11.0</ele>
        <time>2020-08-12T20:42:45Z</time>
      </trkpt>
      <trkpt lat="44.698793" lon="-0.500377">
        <ele>11.2</ele>
        <time>2020-08-12T20:42:56Z</time>
      </trkpt>
      <trkpt lat="44.696899" lon="-0.498654">
        <ele>14.0</ele>
        <time>2020-08-12T20:43:06Z</time>
      </trkpt>
      <trkpt lat="44.695718" lon="-0.497682">
        <ele>16.8</ele>
        <time>2020-08-12T20:43:12Z</time>
      </trkpt>
      <trkpt lat="44.694073" lon="-0.496412">
        <ele>21.4</ele>
        <time>2020-08-12T20:43:20Z</time>
      </trkpt>
      <trkpt lat="44.69209" lon="-0.495066">
        <ele>25.2</ele>
        <time>2020-08-12T20:43:30Z</time>
      </trkpt>
      <trkpt lat="44.690934" lon="-0.494343">
        <ele>27.4</ele>
        <time>2020-08-12T20:43:35Z</time>
      </trkpt>
      <trkpt lat="44.689753" lon="-0.49366">
        <ele>29.8</ele>
        <time>2020-08-12T20:43:41Z</time>
      </trkpt>
      <trkpt lat="44.685394" lon="-0.491213">
        <ele>28.2</ele>
        <time>2020-08-12T20:44:01Z</time>
      </trkpt>
      <trkpt lat="44.683822" lon="-0.49024">
        <ele>26.8</ele>
        <time>2020-08-12T20:44:09Z</time>
      </trkpt>
      <trkpt lat="44.682691" lon="-0.489433">
        <ele>24.6</ele>
        <time>2020-08-12T20:44:14Z</time>
      </trkpt>
      <trkpt lat="44.681584" lon="-0.48856">
        <ele>20.8</ele>
        <time>2020-08-12T20:44:20Z</time>
      </trkpt>
      <trkpt lat="44.6807" lon="-0.487782">
        <ele>16.0</ele>
        <time>2020-08-12T20:44:24Z</time>
      </trkpt>
      <trkpt lat="44.679881" lon="-0.486997">
        <ele>13.8</ele>
        <time>2020-08-12T20:44:28Z</time>
      </trkpt>
      <trkpt lat="44.679074" lon="-0.48616">
        <ele>13.6</ele>
        <time>2020-08-12T20:44:33Z</time>
      </trkpt>
      <trkpt lat="44.678347" lon="-0.485354">
        <ele>13.4</ele>
        <time>2020-08-12T20:44:37Z</time>
      </trkpt>
      <trkpt lat="44.677523" lon="-0.484371">
        <ele>13.6</ele>
        <time>2020-08-12T20:44:42Z</time>
      </trkpt>
      <trkpt lat="44.676713" lon="-0.483317">
        <ele>15.8</ele>
        <time>2020-08-12T20:44:46Z</time>
      </trkpt>
      <trkpt lat="44.675824" lon="-0.482054">
        <ele>13.8</ele>
        <time>2020-08-12T20:44:52Z</time>
      </trkpt>
      <trkpt lat="44.674957" lon="-0.480712">
        <ele>17.2</ele>
        <time>2020-08-12T20:44:57Z</time>
      </trkpt>
      <trkpt lat="44.67414" lon="-0.479317">
        <ele>18.2</ele>
        <time>2020-08-12T20:45:03Z</time>
      </trkpt>
      <trkpt lat="44.673338" lon="-0.477877">
        <ele>17.0</ele>
        <time>2020-08-12T20:45:09Z</time>
      </trkpt>
      <trkpt lat="44.670554" lon="-0.472562">
        <ele>31.0</ele>
        <time>2020-08-12T20:45:29Z</time>
      </trkpt>
      <trkpt lat="44.669332" lon="-0.470377">
        <ele>30.6</ele>
        <time>2020-08-12T20:45:38Z</time>
      </trkpt>
      <trkpt lat="44.667846" lon="-0.467941">
        <ele>32.0</ele>
        <time>2020-08-12T20:45:47Z</time>
      </trkpt>
      <trkpt lat="44.666271" lon="-0.4654">
        <ele>34.4</ele>
        <time>2020-08-12T20:45:58Z</time>
      </trkpt>
      <trkpt lat="44.661816" lon="-0.458301">
        <ele>32.2</ele>
        <time>2020-08-12T20:46:27Z</time>
      </trkpt>
      <trkpt lat="44.658844" lon="-0.454001">
        <ele>30.0</ele>
        <time>2020-08-12T20:46:46Z</time>
      </trkpt>
      <trkpt lat="44.658301" lon="-0.453097">
        <ele>29.0</ele>
        <time>2020-08-12T20:46:49Z</time>
      </trkpt>
      <trkpt lat="44.656887" lon="-0.450487">
        <ele>28.6</ele>
        <time>2020-08-12T20:46:59Z</time>
      </trkpt>
      <trkpt lat="44.656495" lon="-0.449817">
        <ele>29.8</ele>
        <time>2020-08-12T20:47:02Z</time>
      </trkpt>
      <trkpt lat="44.65558" lon="-0.448401">
        <ele>29.8</ele>
        <time>2020-08-12T20:47:08Z</time>
      </trkpt>
      <trkpt lat="44.6539" lon="-0.44602">
        <ele>30.6</ele>
        <time>2020-08-12T20:47:18Z</time>
      </trkpt>
      <trkpt lat="44.651784" lon="-0.443162">
        <ele>28.0</ele>
        <time>2020-08-12T20:47:31Z</time>
      </trkpt>
      <trkpt lat="44.642953" lon="-0.431362">
        <ele>23.4</ele>
        <time>2020-08-12T20:48:24Z</time>
      </trkpt>
      <trkpt lat="44.640468" lon="-0.428">
        <ele>26.6</ele>
        <time>2020-08-12T20:48:39Z</time>
      </trkpt>
      <trkpt lat="44.639449" lon="-0.426552">
        <ele>24.6</ele>
        <time>2020-08-12T20:48:45Z</time>
      </trkpt>
      <trkpt lat="44.638437" lon="-0.425059">
        <ele>25.2</ele>
        <time>2020-08-12T20:48:52Z</time>
      </trkpt>
      <trkpt lat="44.637561" lon="-0.423675">
        <ele>24.4</ele>
        <time>2020-08-12T20:48:57Z</time>
      </trkpt>
      <trkpt lat="44.636666" lon="-0.422218">
        <ele>26.0</ele>
        <time>2020-08-12T20:49:03Z</time>
      </trkpt>
      <trkpt lat="44.635735" lon="-0.420564">
        <ele>28.6</ele>
        <time>2020-08-12T20:49:10Z</time>
      </trkpt>
      <trkpt lat="44.634831" lon="-0.418875">
        <ele>27.4</ele>
        <time>2020-08-12T20:49:16Z</time>
      </trkpt>
      <trkpt lat="44.633306" lon="-0.415765">
        <ele>29.0</ele>
        <time>2020-08-12T20:49:28Z</time>
      </trkpt>
      <trkpt lat="44.628179" lon="-0.404778">
        <ele>30.8</ele>
        <time>2020-08-12T20:50:08Z</time>
      </trkpt>
      <trkpt lat="44.627224" lon="-0.402833">
        <ele>30.8</ele>
        <time>2020-08-12T20:50:16Z</time>
      </trkpt>
      <trkpt lat="44.623422" lon="-0.395422">
        <ele>27.4</ele>
        <time>2020-08-12T20:50:44Z</time>
      </trkpt>
      <trkpt lat="44.621508" lon="-0.391735">
        <ele>33.8</ele>
        <time>2020-08-12T20:50:58Z</time>
      </trkpt>
      <trkpt lat="44.620615" lon="-0.390049">
        <ele>34.4</ele>
        <time>2020-08-12T20:51:05Z</time>
      </trkpt>
      <trkpt lat="44.619707" lon="-0.38839">
        <ele>31.0</ele>
        <time>2020-08-12T20:51:11Z</time>
      </trkpt>
      <trkpt lat="44.619005" lon="-0.387162">
        <ele>31.8</ele>
        <time>2020-08-12T20:51:16Z</time>
      </trkpt>
      <trkpt lat="44.618284" lon="-0.385956">
        <ele>35.6</ele>
        <time>2020-08-12T20:51:21Z</time>
      </trkpt>
      <trkpt lat="44.617688" lon="-0.385007">
        <ele>33.6</ele>
        <time>2020-08-12T20:51:25Z</time>
      </trkpt>
      <trkpt lat="44.617083" lon="-0.384082">
        <ele>31.0</ele>
        <time>2020-08-12T20:51:29Z</time>
      </trkpt>
      <trkpt lat="44.616339" lon="-0.382994">
        <ele>30.4</ele>
        <time>2020-08-12T20:51:33Z</time>
      </trkpt>
      <trkpt lat="44.615568" lon="-0.381917">
        <ele>30.2</ele>
        <time>2020-08-12T20:51:38Z</time>
      </trkpt>
      <trkpt lat="44.614768" lon="-0.380855">
        <ele>31.2</ele>
        <time>2020-08-12T20:51:43Z</time>
      </trkpt>
      <trkpt lat="44.613946" lon="-0.3798">
        <ele>31.6</ele>
        <time>2020-08-12T20:51:48Z</time>
      </trkpt>
      <trkpt lat="44.613039" lon="-0.378705">
        <ele>31.4</ele>
        <time>2020-08-12T20:51:53Z</time>
      </trkpt>
      <trkpt lat="44.612091" lon="-0.37763">
        <ele>31.6</ele>
        <time>2020-08-12T20:51:58Z</time>
      </trkpt>
      <trkpt lat="44.61106" lon="-0.376489">
        <ele>33.4</ele>
        <time>2020-08-12T20:52:04Z</time>
      </trkpt>
      <trkpt lat="44.60999" lon="-0.375348">
        <ele>32.8</ele>
        <time>2020-08-12T20:52:10Z</time>
      </trkpt>
      <trkpt lat="44.607576" lon="-0.372825">
        <ele>31.8</ele>
        <time>2020-08-12T20:52:23Z</time>
      </trkpt>
      <trkpt lat="44.601842" lon="-0.366882">
        <ele>22.4</ele>
        <time>2020-08-12T20:52:53Z</time>
      </trkpt>
      <trkpt lat="44.599579" lon="-0.364568">
        <ele>19.4</ele>
        <time>2020-08-12T20:53:06Z</time>
      </trkpt>
      <trkpt lat="44.596686" lon="-0.361495">
        <ele>18.4</ele>
        <time>2020-08-12T20:53:21Z</time>
      </trkpt>
      <trkpt lat="44.594607" lon="-0.359123">
        <ele>17.0</ele>
        <time>2020-08-12T20:53:33Z</time>
      </trkpt>
      <trkpt lat="44.593743" lon="-0.358088">
        <ele>17.6</ele>
        <time>2020-08-12T20:53:38Z</time>
      </trkpt>
      <trkpt lat="44.592871" lon="-0.356998">
        <ele>19.6</ele>
        <time>2020-08-12T20:53:43Z</time>
      </trkpt>
      <trkpt lat="44.591194" lon="-0.354811">
        <ele>22.0</ele>
        <time>2020-08-12T20:53:53Z</time>
      </trkpt>
      <trkpt lat="44.590213" lon="-0.353465">
        <ele>22.8</ele>
        <time>2020-08-12T20:53:59Z</time>
      </trkpt>
      <trkpt lat="44.589233" lon="-0.352075">
        <ele>22.8</ele>
        <time>2020-08-12T20:54:05Z</time>
      </trkpt>
      <trkpt lat="44.588157" lon="-0.350461">
        <ele>21.6</ele>
        <time>2020-08-12T20:54:12Z</time>
      </trkpt>
      <trkpt lat="44.587079" lon="-0.3488">
        <ele>20.0</ele>
        <time>2020-08-12T20:54:19Z</time>
      </trkpt>
      <trkpt lat="44.586018" lon="-0.347076">
        <ele>17.4</ele>
        <time>2020-08-12T20:54:26Z</time>
      </trkpt>
      <trkpt lat="44.583759" lon="-0.343228">
        <ele>18.8</ele>
        <time>2020-08-12T20:54:41Z</time>
      </trkpt>
      <trkpt lat="44.583118" lon="-0.342097">
        <ele>16.6</ele>
        <time>2020-08-12T20:54:46Z</time>
      </trkpt>
      <trkpt lat="44.582716" lon="-0.341307">
        <ele>15.8</ele>
        <time>2020-08-12T20:54:49Z</time>
      </trkpt>
      <trkpt lat="44.582329" lon="-0.340475">
        <ele>15.4</ele>
        <time>2020-08-12T20:54:52Z</time>
      </trkpt>
      <trkpt lat="44.58188" lon="-0.33936">
        <ele>15.4</ele>
        <time>2020-08-12T20:54:56Z</time>
      </trkpt>
      <trkpt lat="44.581485" lon="-0.338197">
        <ele>16.0</ele>
        <time>2020-08-12T20:55:00Z</time>
      </trkpt>
      <trkpt lat="44.581098" lon="-0.336905">
        <ele>16.2</ele>
        <time>2020-08-12T20:55:04Z</time>
      </trkpt>
      <trkpt lat="44.579809" lon="-0.33224">
        <ele>14.4</ele>
        <time>2020-08-12T20:55:19Z</time>
      </trkpt>
      <trkpt lat="44.579216" lon="-0.330291">
        <ele>15.2</ele>
        <time>2020-08-12T20:55:26Z</time>
      </trkpt>
      <trkpt lat="44.578455" lon="-0.328072">
        <ele>15.4</ele>
        <time>2020-08-12T20:55:34Z</time>
      </trkpt>
      <trkpt lat="44.577475" lon="-0.325502">
        <ele>13.0</ele>
        <time>2020-08-12T20:55:43Z</time>
      </trkpt>
      <trkpt lat="44.575561" lon="-0.320585">
        <ele>14.2</ele>
        <time>2020-08-12T20:56:00Z</time>
      </trkpt>
      <trkpt lat="44.57535" lon="-0.32008">
        <ele>14.2</ele>
        <time>2020-08-12T20:56:02Z</time>
      </trkpt>
      <trkpt lat="44.572497" lon="-0.312794">
        <ele>14.0</ele>
        <time>2020-08-12T20:56:27Z</time>
      </trkpt>
      <trkpt lat="44.572043" lon="-0.311727">
        <ele>13.6</ele>
        <time>2020-08-12T20:56:31Z</time>
      </trkpt>
      <trkpt lat="44.571664" lon="-0.310899">
        <ele>15.4</ele>
        <time>2020-08-12T20:56:34Z</time>
      </trkpt>
      <trkpt lat="44.57127" lon="-0.310128">
        <ele>15.0</ele>
        <time>2020-08-12T20:56:37Z</time>
      </trkpt>
      <trkpt lat="44.570868" lon="-0.309455">
        <ele>15.0</ele>
        <time>2020-08-12T20:56:40Z</time>
      </trkpt>
      <trkpt lat="44.570434" lon="-0.308807">
        <ele>16.0</ele>
        <time>2020-08-12T20:56:43Z</time>
      </trkpt>
      <trkpt lat="44.569883" lon="-0.308078">
        <ele>17.0</ele>
        <time>2020-08-12T20:56:46Z</time>
      </trkpt>
      <trkpt lat="44.569421" lon="-0.307507">
        <ele>17.0</ele>
        <time>2020-08-12T20:56:49Z</time>
      </trkpt>
      <trkpt lat="44.564991" lon="-0.30238">
        <ele>21.2</ele>
        <time>2020-08-12T20:57:14Z</time>
      </trkpt>
      <trkpt lat="44.563805" lon="-0.300863">
        <ele>24.4</ele>
        <time>2020-08-12T20:57:21Z</time>
      </trkpt>
      <trkpt lat="44.563311" lon="-0.300098">
        <ele>27.2</ele>
        <time>2020-08-12T20:57:24Z</time>
      </trkpt>
      <trkpt lat="44.562856" lon="-0.299285">
        <ele>28.2</ele>
        <time>2020-08-12T20:57:27Z</time>
      </trkpt>
      <trkpt lat="44.562384" lon="-0.298324">
        <ele>31.6</ele>
        <time>2020-08-12T20:57:31Z</time>
      </trkpt>
      <trkpt lat="44.561938" lon="-0.297322">
        <ele>31.6</ele>
        <time>2020-08-12T20:57:34Z</time>
      </trkpt>
      <trkpt lat="44.559328" lon="-0.290942">
        <ele>30.6</ele>
        <time>2020-08-12T20:57:57Z</time>
      </trkpt>
      <trkpt lat="44.558746" lon="-0.289626">
        <ele>30.4</ele>
        <time>2020-08-12T20:58:02Z</time>
      </trkpt>
      <trkpt lat="44.558134" lon="-0.288315">
        <ele>28.8</ele>
        <time>2020-08-12T20:58:07Z</time>
      </trkpt>
      <trkpt lat="44.557389" lon="-0.286854">
        <ele>30.2</ele>
        <time>2020-08-12T20:58:12Z</time>
      </trkpt>
      <trkpt lat="44.556842" lon="-0.285869">
        <ele>29.4</ele>
        <time>2020-08-12T20:58:16Z</time>
      </trkpt>
      <trkpt lat="44.555571" lon="-0.283694">
        <ele>31.6</ele>
        <time>2020-08-12T20:58:25Z</time>
      </trkpt>
      <trkpt lat="44.552428" lon="-0.278679">
        <ele>28.6</ele>
        <time>2020-08-12T20:58:45Z</time>
      </trkpt>
      <trkpt lat="44.550008" lon="-0.274884">
        <ele>31.2</ele>
        <time>2020-08-12T20:59:01Z</time>
      </trkpt>
      <trkpt lat="44.549202" lon="-0.273696">
        <ele>32.4</ele>
        <time>2020-08-12T20:59:06Z</time>
      </trkpt>
      <trkpt lat="44.548387" lon="-0.272541">
        <ele>34.4</ele>
        <time>2020-08-12T20:59:11Z</time>
      </trkpt>
      <trkpt lat="44.547527" lon="-0.271369">
        <ele>35.8</ele>
        <time>2020-08-12T20:59:16Z</time>
      </trkpt>
      <trkpt lat="44.545838" lon="-0.269228">
        <ele>40.2</ele>
        <time>2020-08-12T20:59:26Z</time>
      </trkpt>
      <trkpt lat="44.545016" lon="-0.268215">
        <ele>38.6</ele>
        <time>2020-08-12T20:59:31Z</time>
      </trkpt>
      <trkpt lat="44.542241" lon="-0.264911">
        <ele>34.0</ele>
        <time>2020-08-12T20:59:47Z</time>
      </trkpt>
      <trkpt lat="44.540317" lon="-0.262572">
        <ele>35.2</ele>
        <time>2020-08-12T20:59:58Z</time>
      </trkpt>
      <trkpt lat="44.539537" lon="-0.261542">
        <ele>36.0</ele>
        <time>2020-08-12T21:00:03Z</time>
      </trkpt>
      <trkpt lat="44.538789" lon="-0.260508">
        <ele>35.0</ele>
        <time>2020-08-12T21:00:07Z</time>
      </trkpt>
      <trkpt lat="44.538158" lon="-0.259562">
        <ele>34.4</ele>
        <time>2020-08-12T21:00:11Z</time>
      </trkpt>
      <trkpt lat="44.537521" lon="-0.258538">
        <ele>33.6</ele>
        <time>2020-08-12T21:00:15Z</time>
      </trkpt>
      <trkpt lat="44.536998" lon="-0.257628">
        <ele>33.4</ele>
        <time>2020-08-12T21:00:19Z</time>
      </trkpt>
      <trkpt lat="44.536503" lon="-0.256702">
        <ele>32.4</ele>
        <time>2020-08-12T21:00:22Z</time>
      </trkpt>
      <trkpt lat="44.535942" lon="-0.2556">
        <ele>28.0</ele>
        <time>2020-08-12T21:00:27Z</time>
      </trkpt>
      <trkpt lat="44.535408" lon="-0.254495">
        <ele>24.8</ele>
        <time>2020-08-12T21:00:31Z</time>
      </trkpt>
      <trkpt lat="44.534918" lon="-0.253358">
        <ele>23.4</ele>
        <time>2020-08-12T21:00:35Z</time>
      </trkpt>
      <trkpt lat="44.534449" lon="-0.252197">
        <ele>25.4</ele>
        <time>2020-08-12T21:00:39Z</time>
      </trkpt>
      <trkpt lat="44.53393" lon="-0.250758">
        <ele>31.6</ele>
        <time>2020-08-12T21:00:44Z</time>
      </trkpt>
      <trkpt lat="44.533464" lon="-0.24933">
        <ele>37.4</ele>
        <time>2020-08-12T21:00:49Z</time>
      </trkpt>
      <trkpt lat="44.533033" lon="-0.247862">
        <ele>46.8</ele>
        <time>2020-08-12T21:00:54Z</time>
      </trkpt>
      <trkpt lat="44.532655" lon="-0.246385">
        <ele>47.4</ele>
        <time>2020-08-12T21:00:59Z</time>
      </trkpt>
      <trkpt lat="44.532276" lon="-0.244681">
        <ele>47.2</ele>
        <time>2020-08-12T21:01:04Z</time>
      </trkpt>
      <trkpt lat="44.531957" lon="-0.242966">
        <ele>48.0</ele>
        <time>2020-08-12T21:01:10Z</time>
      </trkpt>
      <trkpt lat="44.531662" lon="-0.240958">
        <ele>48.8</ele>
        <time>2020-08-12T21:01:16Z</time>
      </trkpt>
      <trkpt lat="44.531451" lon="-0.239006">
        <ele>47.2</ele>
        <time>2020-08-12T21:01:22Z</time>
      </trkpt>
      <trkpt lat="44.531335" lon="-0.237357">
        <ele>48.0</ele>
        <time>2020-08-12T21:01:27Z</time>
      </trkpt>
      <trkpt lat="44.531254" lon="-0.235726">
        <ele>50.0</ele>
        <time>2020-08-12T21:01:32Z</time>
      </trkpt>
      <trkpt lat="44.531212" lon="-0.233807">
        <ele>47.4</ele>
        <time>2020-08-12T21:01:38Z</time>
      </trkpt>
      <trkpt lat="44.531211" lon="-0.231884">
        <ele>46.8</ele>
        <time>2020-08-12T21:01:44Z</time>
      </trkpt>
      <trkpt lat="44.531304" lon="-0.22825">
        <ele>44.8</ele>
        <time>2020-08-12T21:01:55Z</time>
      </trkpt>
      <trkpt lat="44.531475" lon="-0.223117">
        <ele>45.8</ele>
        <time>2020-08-12T21:02:11Z</time>
      </trkpt>
      <trkpt lat="44.531495" lon="-0.22102">
        <ele>43.2</ele>
        <time>2020-08-12T21:02:18Z</time>
      </trkpt>
      <trkpt lat="44.531475" lon="-0.219063">
        <ele>39.0</ele>
        <time>2020-08-12T21:02:24Z</time>
      </trkpt>
      <trkpt lat="44.531395" lon="-0.217144">
        <ele>41.8</ele>
        <time>2020-08-12T21:02:30Z</time>
      </trkpt>
      <trkpt lat="44.531275" lon="-0.215302">
        <ele>44.6</ele>
        <time>2020-08-12T21:02:36Z</time>
      </trkpt>
      <trkpt lat="44.531117" lon="-0.213477">
        <ele>47.6</ele>
        <time>2020-08-12T21:02:41Z</time>
      </trkpt>
      <trkpt lat="44.530462" lon="-0.20677">
        <ele>50.8</ele>
        <time>2020-08-12T21:03:02Z</time>
      </trkpt>
      <trkpt lat="44.530262" lon="-0.204137">
        <ele>53.2</ele>
        <time>2020-08-12T21:03:10Z</time>
      </trkpt>
      <trkpt lat="44.530169" lon="-0.202272">
        <ele>53.0</ele>
        <time>2020-08-12T21:03:16Z</time>
      </trkpt>
      <trkpt lat="44.530128" lon="-0.199338">
        <ele>52.8</ele>
        <time>2020-08-12T21:03:25Z</time>
      </trkpt>
      <trkpt lat="44.530199" lon="-0.196583">
        <ele>54.6</ele>
        <time>2020-08-12T21:03:34Z</time>
      </trkpt>
      <trkpt lat="44.530314" lon="-0.194672">
        <ele>55.2</ele>
        <time>2020-08-12T21:03:40Z</time>
      </trkpt>
      <trkpt lat="44.53041" lon="-0.193435">
        <ele>55.0</ele>
        <time>2020-08-12T21:03:44Z</time>
      </trkpt>
      <trkpt lat="44.530558" lon="-0.191911">
        <ele>55.0</ele>
        <time>2020-08-12T21:03:48Z</time>
      </trkpt>
      <trkpt lat="44.531477" lon="-0.183534">
        <ele>56.2</ele>
        <time>2020-08-12T21:04:15Z</time>
      </trkpt>
      <trkpt lat="44.531618" lon="-0.181678">
        <ele>56.0</ele>
        <time>2020-08-12T21:04:20Z</time>
      </trkpt>
      <trkpt lat="44.531726" lon="-0.179769">
        <ele>57.0</ele>
        <time>2020-08-12T21:04:26Z</time>
      </trkpt>
      <trkpt lat="44.531797" lon="-0.177061">
        <ele>56.4</ele>
        <time>2020-08-12T21:04:35Z</time>
      </trkpt>
      <trkpt lat="44.531751" lon="-0.174317">
        <ele>52.6</ele>
        <time>2020-08-12T21:04:43Z</time>
      </trkpt>
      <trkpt lat="44.531637" lon="-0.172044">
        <ele>50.6</ele>
        <time>2020-08-12T21:04:50Z</time>
      </trkpt>
      <trkpt lat="44.531516" lon="-0.170555">
        <ele>49.6</ele>
        <time>2020-08-12T21:04:55Z</time>
      </trkpt>
      <trkpt lat="44.531367" lon="-0.169036">
        <ele>47.2</ele>
        <time>2020-08-12T21:05:00Z</time>
      </trkpt>
      <trkpt lat="44.531172" lon="-0.167257">
        <ele>45.0</ele>
        <time>2020-08-12T21:05:05Z</time>
      </trkpt>
      <trkpt lat="44.530585" lon="-0.162514">
        <ele>42.8</ele>
        <time>2020-08-12T21:05:20Z</time>
      </trkpt>
      <trkpt lat="44.530343" lon="-0.160334">
        <ele>37.2</ele>
        <time>2020-08-12T21:05:27Z</time>
      </trkpt>
      <trkpt lat="44.530211" lon="-0.158712">
        <ele>29.4</ele>
        <time>2020-08-12T21:05:32Z</time>
      </trkpt>
      <trkpt lat="44.530126" lon="-0.157208">
        <ele>30.8</ele>
        <time>2020-08-12T21:05:37Z</time>
      </trkpt>
      <trkpt lat="44.530085" lon="-0.155749">
        <ele>38.6</ele>
        <time>2020-08-12T21:05:41Z</time>
      </trkpt>
      <trkpt lat="44.530075" lon="-0.154338">
        <ele>42.8</ele>
        <time>2020-08-12T21:05:45Z</time>
      </trkpt>
      <trkpt lat="44.530162" lon="-0.151986">
        <ele>47.4</ele>
        <time>2020-08-12T21:05:53Z</time>
      </trkpt>
      <trkpt lat="44.530251" lon="-0.150504">
        <ele>48.2</ele>
        <time>2020-08-12T21:05:57Z</time>
      </trkpt>
      <trkpt lat="44.531817" lon="-0.132318">
        <ele>60.2</ele>
        <time>2020-08-12T21:06:54Z</time>
      </trkpt>
      <trkpt lat="44.531987" lon="-0.130712">
        <ele>57.8</ele>
        <time>2020-08-12T21:06:59Z</time>
      </trkpt>
      <trkpt lat="44.532191" lon="-0.129021">
        <ele>57.8</ele>
        <time>2020-08-12T21:07:04Z</time>
      </trkpt>
      <trkpt lat="44.53244" lon="-0.127444">
        <ele>59.2</ele>
        <time>2020-08-12T21:07:09Z</time>
      </trkpt>
      <trkpt lat="44.532749" lon="-0.125883">
        <ele>59.0</ele>
        <time>2020-08-12T21:07:14Z</time>
      </trkpt>
      <trkpt lat="44.533048" lon="-0.124582">
        <ele>58.2</ele>
        <time>2020-08-12T21:07:19Z</time>
      </trkpt>
      <trkpt lat="44.533464" lon="-0.122906">
        <ele>60.8</ele>
        <time>2020-08-12T21:07:24Z</time>
      </trkpt>
      <trkpt lat="44.534501" lon="-0.119078">
        <ele>59.8</ele>
        <time>2020-08-12T21:07:37Z</time>
      </trkpt>
      <trkpt lat="44.534876" lon="-0.11754">
        <ele>60.4</ele>
        <time>2020-08-12T21:07:42Z</time>
      </trkpt>
      <trkpt lat="44.53519" lon="-0.115957">
        <ele>58.4</ele>
        <time>2020-08-12T21:07:47Z</time>
      </trkpt>
      <trkpt lat="44.535432" lon="-0.114353">
        <ele>59.4</ele>
        <time>2020-08-12T21:07:52Z</time>
      </trkpt>
      <trkpt lat="44.535599" lon="-0.112664">
        <ele>58.8</ele>
        <time>2020-08-12T21:07:57Z</time>
      </trkpt>
      <trkpt lat="44.535673" lon="-0.110962">
        <ele>58.6</ele>
        <time>2020-08-12T21:08:02Z</time>
      </trkpt>
      <trkpt lat="44.535678" lon="-0.109523">
        <ele>59.2</ele>
        <time>2020-08-12T21:08:07Z</time>
      </trkpt>
      <trkpt lat="44.53561" lon="-0.10809">
        <ele>59.6</ele>
        <time>2020-08-12T21:08:11Z</time>
      </trkpt>
      <trkpt lat="44.535478" lon="-0.106666">
        <ele>60.2</ele>
        <time>2020-08-12T21:08:16Z</time>
      </trkpt>
      <trkpt lat="44.535289" lon="-0.105229">
        <ele>60.0</ele>
        <time>2020-08-12T21:08:20Z</time>
      </trkpt>
      <trkpt lat="44.53502" lon="-0.103742">
        <ele>59.2</ele>
        <time>2020-08-12T21:08:25Z</time>
      </trkpt>
      <trkpt lat="44.534724" lon="-0.102435">
        <ele>57.2</ele>
        <time>2020-08-12T21:08:29Z</time>
      </trkpt>
      <trkpt lat="44.53437" lon="-0.101148">
        <ele>56.4</ele>
        <time>2020-08-12T21:08:34Z</time>
      </trkpt>
      <trkpt lat="44.53397" lon="-0.099901">
        <ele>53.4</ele>
        <time>2020-08-12T21:08:38Z</time>
      </trkpt>
      <trkpt lat="44.533717" lon="-0.099197">
        <ele>53.4</ele>
        <time>2020-08-12T21:08:40Z</time>
      </trkpt>
      <trkpt lat="44.533446" lon="-0.098509">
        <ele>53.4</ele>
        <time>2020-08-12T21:08:43Z</time>
      </trkpt>
      <trkpt lat="44.532906" lon="-0.097272">
        <ele>51.8</ele>
        <time>2020-08-12T21:08:47Z</time>
      </trkpt>
      <trkpt lat="44.532262" lon="-0.095988">
        <ele>50.2</ele>
        <time>2020-08-12T21:08:52Z</time>
      </trkpt>
      <trkpt lat="44.531566" lon="-0.094776">
        <ele>43.6</ele>
        <time>2020-08-12T21:08:57Z</time>
      </trkpt>
      <trkpt lat="44.530955" lon="-0.093846">
        <ele>42.4</ele>
        <time>2020-08-12T21:09:01Z</time>
      </trkpt>
      <trkpt lat="44.530214" lon="-0.09282">
        <ele>39.4</ele>
        <time>2020-08-12T21:09:05Z</time>
      </trkpt>
      <trkpt lat="44.529444" lon="-0.091878">
        <ele>41.2</ele>
        <time>2020-08-12T21:09:10Z</time>
      </trkpt>
      <trkpt lat="44.528668" lon="-0.091039">
        <ele>47.0</ele>
        <time>2020-08-12T21:09:14Z</time>
      </trkpt>
      <trkpt lat="44.527977" lon="-0.090374">
        <ele>50.8</ele>
        <time>2020-08-12T21:09:18Z</time>
      </trkpt>
      <trkpt lat="44.527225" lon="-0.089725">
        <ele>51.8</ele>
        <time>2020-08-12T21:09:21Z</time>
      </trkpt>
      <trkpt lat="44.52555" lon="-0.088401">
        <ele>55.6</ele>
        <time>2020-08-12T21:09:30Z</time>
      </trkpt>
      <trkpt lat="44.523845" lon="-0.087085">
        <ele>62.0</ele>
        <time>2020-08-12T21:09:38Z</time>
      </trkpt>
      <trkpt lat="44.523067" lon="-0.086455">
        <ele>62.4</ele>
        <time>2020-08-12T21:09:42Z</time>
      </trkpt>
      <trkpt lat="44.522304" lon="-0.085777">
        <ele>63.4</ele>
        <time>2020-08-12T21:09:46Z</time>
      </trkpt>
      <trkpt lat="44.521497" lon="-0.085011">
        <ele>67.6</ele>
        <time>2020-08-12T21:09:50Z</time>
      </trkpt>
      <trkpt lat="44.520902" lon="-0.084386">
        <ele>65.8</ele>
        <time>2020-08-12T21:09:53Z</time>
      </trkpt>
      <trkpt lat="44.520324" lon="-0.083732">
        <ele>66.8</ele>
        <time>2020-08-12T21:09:57Z</time>
      </trkpt>
      <trkpt lat="44.51939" lon="-0.082599">
        <ele>67.6</ele>
        <time>2020-08-12T21:10:02Z</time>
      </trkpt>
      <trkpt lat="44.518678" lon="-0.081647">
        <ele>62.8</ele>
        <time>2020-08-12T21:10:06Z</time>
      </trkpt>
      <trkpt lat="44.517994" lon="-0.080647">
        <ele>62.4</ele>
        <time>2020-08-12T21:10:11Z</time>
      </trkpt>
      <trkpt lat="44.517418" lon="-0.079724">
        <ele>65.4</ele>
        <time>2020-08-12T21:10:14Z</time>
      </trkpt>
      <trkpt lat="44.516848" lon="-0.078723">
        <ele>65.2</ele>
        <time>2020-08-12T21:10:18Z</time>
      </trkpt>
      <trkpt lat="44.516178" lon="-0.077459">
        <ele>66.0</ele>
        <time>2020-08-12T21:10:23Z</time>
      </trkpt>
      <trkpt lat="44.515677" lon="-0.076423">
        <ele>64.2</ele>
        <time>2020-08-12T21:10:27Z</time>
      </trkpt>
      <trkpt lat="44.51515" lon="-0.075251">
        <ele>62.0</ele>
        <time>2020-08-12T21:10:31Z</time>
      </trkpt>
      <trkpt lat="44.514625" lon="-0.073976">
        <ele>61.6</ele>
        <time>2020-08-12T21:10:36Z</time>
      </trkpt>
      <trkpt lat="44.514122" lon="-0.07265">
        <ele>62.2</ele>
        <time>2020-08-12T21:10:41Z</time>
      </trkpt>
      <trkpt lat="44.513617" lon="-0.071259">
        <ele>60.8</ele>
        <time>2020-08-12T21:10:45Z</time>
      </trkpt>
      <trkpt lat="44.51314" lon="-0.069803">
        <ele>64.0</ele>
        <time>2020-08-12T21:10:50Z</time>
      </trkpt>
      <trkpt lat="44.512704" lon="-0.068375">
        <ele>65.6</ele>
        <time>2020-08-12T21:10:55Z</time>
      </trkpt>
      <trkpt lat="44.512267" lon="-0.06681">
        <ele>68.0</ele>
        <time>2020-08-12T21:11:00Z</time>
      </trkpt>
      <trkpt lat="44.511866" lon="-0.06521">
        <ele>72.4</ele>
        <time>2020-08-12T21:11:06Z</time>
      </trkpt>
      <trkpt lat="44.511288" lon="-0.06255">
        <ele>73.4</ele>
        <time>2020-08-12T21:11:14Z</time>
      </trkpt>
      <trkpt lat="44.509763" lon="-0.054762">
        <ele>69.4</ele>
        <time>2020-08-12T21:11:39Z</time>
      </trkpt>
      <trkpt lat="44.509432" lon="-0.053198">
        <ele>68.4</ele>
        <time>2020-08-12T21:11:44Z</time>
      </trkpt>
      <trkpt lat="44.508776" lon="-0.05053">
        <ele>71.4</ele>
        <time>2020-08-12T21:11:53Z</time>
      </trkpt>
      <trkpt lat="44.508298" lon="-0.048773">
        <ele>66.4</ele>
        <time>2020-08-12T21:11:59Z</time>
      </trkpt>
      <trkpt lat="44.50765" lon="-0.046718">
        <ele>65.8</ele>
        <time>2020-08-12T21:12:06Z</time>
      </trkpt>
      <trkpt lat="44.507295" lon="-0.045666">
        <ele>67.6</ele>
        <time>2020-08-12T21:12:09Z</time>
      </trkpt>
      <trkpt lat="44.506961" lon="-0.044725">
        <ele>66.6</ele>
        <time>2020-08-12T21:12:13Z</time>
      </trkpt>
      <trkpt lat="44.506193" lon="-0.042709">
        <ele>66.8</ele>
        <time>2020-08-12T21:12:20Z</time>
      </trkpt>
      <trkpt lat="44.505625" lon="-0.041329">
        <ele>65.4</ele>
        <time>2020-08-12T21:12:25Z</time>
      </trkpt>
      <trkpt lat="44.504972" lon="-0.039813">
        <ele>62.2</ele>
        <time>2020-08-12T21:12:30Z</time>
      </trkpt>
      <trkpt lat="44.501749" lon="-0.032848">
        <ele>61.8</ele>
        <time>2020-08-12T21:12:56Z</time>
      </trkpt>
      <trkpt lat="44.500698" lon="-0.030331">
        <ele>64.2</ele>
        <time>2020-08-12T21:13:05Z</time>
      </trkpt>
      <trkpt lat="44.500173" lon="-0.028973">
        <ele>61.6</ele>
        <time>2020-08-12T21:13:10Z</time>
      </trkpt>
      <trkpt lat="44.499682" lon="-0.027609">
        <ele>62.2</ele>
        <time>2020-08-12T21:13:14Z</time>
      </trkpt>
      <trkpt lat="44.499195" lon="-0.026152">
        <ele>60.2</ele>
        <time>2020-08-12T21:13:19Z</time>
      </trkpt>
      <trkpt lat="44.498737" lon="-0.024665">
        <ele>59.8</ele>
        <time>2020-08-12T21:13:24Z</time>
      </trkpt>
      <trkpt lat="44.498299" lon="-0.023158">
        <ele>62.8</ele>
        <time>2020-08-12T21:13:29Z</time>
      </trkpt>
      <trkpt lat="44.497863" lon="-0.021506">
        <ele>58.4</ele>
        <time>2020-08-12T21:13:35Z</time>
      </trkpt>
      <trkpt lat="44.497462" lon="-0.019829">
        <ele>59.2</ele>
        <time>2020-08-12T21:13:40Z</time>
      </trkpt>
      <trkpt lat="44.495917" lon="-0.012624">
        <ele>54.4</ele>
        <time>2020-08-12T21:14:04Z</time>
      </trkpt>
      <trkpt lat="44.495475" lon="-0.010721">
        <ele>65.0</ele>
        <time>2020-08-12T21:14:10Z</time>
      </trkpt>
      <trkpt lat="44.494984" lon="-0.008946">
        <ele>65.0</ele>
        <time>2020-08-12T21:14:16Z</time>
      </trkpt>
      <trkpt lat="44.494511" lon="-0.007427">
        <ele>62.0</ele>
        <time>2020-08-12T21:14:21Z</time>
      </trkpt>
      <trkpt lat="44.493983" lon="-0.005942">
        <ele>63.2</ele>
        <time>2020-08-12T21:14:26Z</time>
      </trkpt>
      <trkpt lat="44.493426" lon="-0.004525">
        <ele>62.8</ele>
        <time>2020-08-12T21:14:31Z</time>
      </trkpt>
      <trkpt lat="44.492841" lon="-0.003177">
        <ele>67.6</ele>
        <time>2020-08-12T21:14:36Z</time>
      </trkpt>
      <trkpt lat="44.492284" lon="-0.001989">
        <ele>70.8</ele>
        <time>2020-08-12T21:14:40Z</time>
      </trkpt>
      <trkpt lat="44.491719" lon="-0.000878">
        <ele>70.2</ele>
        <time>2020-08-12T21:14:44Z</time>
      </trkpt>
      <trkpt lat="44.49111" lon="0.000212">
        <ele>70.0</ele>
        <time>2020-08-12T21:14:49Z</time>
      </trkpt>
      <trkpt lat="44.490466" lon="0.001302">
        <ele>71.0</ele>
        <time>2020-08-12T21:14:53Z</time>
      </trkpt>
      <trkpt lat="44.489772" lon="0.002407">
        <ele>71.0</ele>
        <time>2020-08-12T21:14:58Z</time>
      </trkpt>
      <trkpt lat="44.489032" lon="0.00352">
        <ele>71.6</ele>
        <time>2020-08-12T21:15:02Z</time>
      </trkpt>
      <trkpt lat="44.48731" lon="0.006011">
        <ele>71.4</ele>
        <time>2020-08-12T21:15:13Z</time>
      </trkpt>
      <trkpt lat="44.485621" lon="0.008531">
        <ele>72.4</ele>
        <time>2020-08-12T21:15:24Z</time>
      </trkpt>
      <trkpt lat="44.484694" lon="0.009988">
        <ele>72.2</ele>
        <time>2020-08-12T21:15:30Z</time>
      </trkpt>
      <trkpt lat="44.483784" lon="0.011541">
        <ele>72.8</ele>
        <time>2020-08-12T21:15:36Z</time>
      </trkpt>
      <trkpt lat="44.482971" lon="0.013007">
        <ele>73.2</ele>
        <time>2020-08-12T21:15:42Z</time>
      </trkpt>
      <trkpt lat="44.482196" lon="0.014525">
        <ele>76.2</ele>
        <time>2020-08-12T21:15:48Z</time>
      </trkpt>
      <trkpt lat="44.481191" lon="0.016687">
        <ele>76.0</ele>
        <time>2020-08-12T21:15:56Z</time>
      </trkpt>
      <trkpt lat="44.480315" lon="0.018727">
        <ele>74.2</ele>
        <time>2020-08-12T21:16:03Z</time>
      </trkpt>
      <trkpt lat="44.479559" lon="0.020676">
        <ele>71.2</ele>
        <time>2020-08-12T21:16:10Z</time>
      </trkpt>
      <trkpt lat="44.478868" lon="0.022611">
        <ele>72.6</ele>
        <time>2020-08-12T21:16:17Z</time>
      </trkpt>
      <trkpt lat="44.478159" lon="0.024834">
        <ele>72.2</ele>
        <time>2020-08-12T21:16:24Z</time>
      </trkpt>
      <trkpt lat="44.477527" lon="0.02708">
        <ele>70.2</ele>
        <time>2020-08-12T21:16:32Z</time>
      </trkpt>
      <trkpt lat="44.477205" lon="0.028326">
        <ele>69.2</ele>
        <time>2020-08-12T21:16:36Z</time>
      </trkpt>
      <trkpt lat="44.476211" lon="0.032541">
        <ele>66.8</ele>
        <time>2020-08-12T21:16:49Z</time>
      </trkpt>
      <trkpt lat="44.473999" lon="0.042086">
        <ele>72.2</ele>
        <time>2020-08-12T21:17:21Z</time>
      </trkpt>
      <trkpt lat="44.473502" lon="0.044304">
        <ele>75.8</ele>
        <time>2020-08-12T21:17:28Z</time>
      </trkpt>
      <trkpt lat="44.473013" lon="0.046211">
        <ele>73.4</ele>
        <time>2020-08-12T21:17:34Z</time>
      </trkpt>
      <trkpt lat="44.472516" lon="0.048053">
        <ele>69.8</ele>
        <time>2020-08-12T21:17:40Z</time>
      </trkpt>
      <trkpt lat="44.472016" lon="0.049692">
        <ele>65.6</ele>
        <time>2020-08-12T21:17:46Z</time>
      </trkpt>
      <trkpt lat="44.471476" lon="0.051319">
        <ele>66.4</ele>
        <time>2020-08-12T21:17:51Z</time>
      </trkpt>
      <trkpt lat="44.470891" lon="0.05293">
        <ele>65.0</ele>
        <time>2020-08-12T21:17:57Z</time>
      </trkpt>
      <trkpt lat="44.470299" lon="0.054425">
        <ele>64.8</ele>
        <time>2020-08-12T21:18:02Z</time>
      </trkpt>
      <trkpt lat="44.469228" lon="0.056898">
        <ele>69.2</ele>
        <time>2020-08-12T21:18:11Z</time>
      </trkpt>
      <trkpt lat="44.467126" lon="0.061574">
        <ele>74.8</ele>
        <time>2020-08-12T21:18:28Z</time>
      </trkpt>
      <trkpt lat="44.466506" lon="0.06304">
        <ele>75.8</ele>
        <time>2020-08-12T21:18:33Z</time>
      </trkpt>
      <trkpt lat="44.465882" lon="0.064619">
        <ele>75.0</ele>
        <time>2020-08-12T21:18:39Z</time>
      </trkpt>
      <trkpt lat="44.465422" lon="0.065916">
        <ele>74.6</ele>
        <time>2020-08-12T21:18:43Z</time>
      </trkpt>
      <trkpt lat="44.46495" lon="0.067355">
        <ele>74.0</ele>
        <time>2020-08-12T21:18:48Z</time>
      </trkpt>
      <trkpt lat="44.464143" lon="0.070168">
        <ele>77.0</ele>
        <time>2020-08-12T21:18:58Z</time>
      </trkpt>
      <trkpt lat="44.463104" lon="0.074056">
        <ele>66.2</ele>
        <time>2020-08-12T21:19:11Z</time>
      </trkpt>
      <trkpt lat="44.46269" lon="0.075426">
        <ele>65.2</ele>
        <time>2020-08-12T21:19:15Z</time>
      </trkpt>
      <trkpt lat="44.462224" lon="0.076685">
        <ele>60.6</ele>
        <time>2020-08-12T21:19:20Z</time>
      </trkpt>
      <trkpt lat="44.461736" lon="0.07783">
        <ele>54.6</ele>
        <time>2020-08-12T21:19:24Z</time>
      </trkpt>
      <trkpt lat="44.461199" lon="0.078869">
        <ele>46.6</ele>
        <time>2020-08-12T21:19:28Z</time>
      </trkpt>
      <trkpt lat="44.460657" lon="0.079777">
        <ele>51.0</ele>
        <time>2020-08-12T21:19:31Z</time>
      </trkpt>
      <trkpt lat="44.460153" lon="0.080534">
        <ele>56.4</ele>
        <time>2020-08-12T21:19:35Z</time>
      </trkpt>
      <trkpt lat="44.459554" lon="0.081312">
        <ele>63.8</ele>
        <time>2020-08-12T21:19:38Z</time>
      </trkpt>
      <trkpt lat="44.458927" lon="0.082036">
        <ele>66.8</ele>
        <time>2020-08-12T21:19:42Z</time>
      </trkpt>
      <trkpt lat="44.458045" lon="0.082944">
        <ele>69.6</ele>
        <time>2020-08-12T21:19:46Z</time>
      </trkpt>
      <trkpt lat="44.455597" lon="0.085212">
        <ele>72.0</ele>
        <time>2020-08-12T21:19:59Z</time>
      </trkpt>
      <trkpt lat="44.454526" lon="0.086324">
        <ele>72.2</ele>
        <time>2020-08-12T21:20:05Z</time>
      </trkpt>
      <trkpt lat="44.453886" lon="0.087062">
        <ele>73.0</ele>
        <time>2020-08-12T21:20:09Z</time>
      </trkpt>
      <trkpt lat="44.453126" lon="0.088026">
        <ele>72.8</ele>
        <time>2020-08-12T21:20:13Z</time>
      </trkpt>
      <trkpt lat="44.452412" lon="0.089032">
        <ele>71.4</ele>
        <time>2020-08-12T21:20:17Z</time>
      </trkpt>
      <trkpt lat="44.45166" lon="0.090247">
        <ele>69.8</ele>
        <time>2020-08-12T21:20:22Z</time>
      </trkpt>
      <trkpt lat="44.450938" lon="0.091561">
        <ele>69.2</ele>
        <time>2020-08-12T21:20:28Z</time>
      </trkpt>
      <trkpt lat="44.450343" lon="0.092804">
        <ele>67.4</ele>
        <time>2020-08-12T21:20:32Z</time>
      </trkpt>
      <trkpt lat="44.449486" lon="0.094687">
        <ele>68.4</ele>
        <time>2020-08-12T21:20:39Z</time>
      </trkpt>
      <trkpt lat="44.448104" lon="0.0978">
        <ele>75.6</ele>
        <time>2020-08-12T21:20:50Z</time>
      </trkpt>
      <trkpt lat="44.440675" lon="0.114379">
        <ele>69.4</ele>
        <time>2020-08-12T21:21:51Z</time>
      </trkpt>
      <trkpt lat="44.439797" lon="0.116213">
        <ele>63.4</ele>
        <time>2020-08-12T21:21:58Z</time>
      </trkpt>
      <trkpt lat="44.437282" lon="0.121141">
        <ele>38.4</ele>
        <time>2020-08-12T21:22:17Z</time>
      </trkpt>
      <trkpt lat="44.433344" lon="0.128704">
        <ele>33.2</ele>
        <time>2020-08-12T21:22:46Z</time>
      </trkpt>
      <trkpt lat="44.43226" lon="0.130864">
        <ele>31.2</ele>
        <time>2020-08-12T21:22:54Z</time>
      </trkpt>
      <trkpt lat="44.431609" lon="0.132279">
        <ele>31.6</ele>
        <time>2020-08-12T21:22:59Z</time>
      </trkpt>
      <trkpt lat="44.431001" lon="0.133722">
        <ele>35.2</ele>
        <time>2020-08-12T21:23:04Z</time>
      </trkpt>
      <trkpt lat="44.430382" lon="0.135364">
        <ele>36.4</ele>
        <time>2020-08-12T21:23:10Z</time>
      </trkpt>
      <trkpt lat="44.429808" lon="0.137065">
        <ele>36.0</ele>
        <time>2020-08-12T21:23:16Z</time>
      </trkpt>
      <trkpt lat="44.429384" lon="0.138525">
        <ele>40.2</ele>
        <time>2020-08-12T21:23:21Z</time>
      </trkpt>
      <trkpt lat="44.428996" lon="0.14003">
        <ele>37.8</ele>
        <time>2020-08-12T21:23:26Z</time>
      </trkpt>
      <trkpt lat="44.428669" lon="0.141479">
        <ele>38.6</ele>
        <time>2020-08-12T21:23:30Z</time>
      </trkpt>
      <trkpt lat="44.428458" lon="0.142525">
        <ele>47.0</ele>
        <time>2020-08-12T21:23:34Z</time>
      </trkpt>
      <trkpt lat="44.428106" lon="0.144552">
        <ele>50.8</ele>
        <time>2020-08-12T21:23:40Z</time>
      </trkpt>
      <trkpt lat="44.427453" lon="0.148965">
        <ele>63.8</ele>
        <time>2020-08-12T21:23:54Z</time>
      </trkpt>
      <trkpt lat="44.426835" lon="0.153269">
        <ele>70.2</ele>
        <time>2020-08-12T21:24:08Z</time>
      </trkpt>
      <trkpt lat="44.4265" lon="0.155483">
        <ele>74.2</ele>
        <time>2020-08-12T21:24:15Z</time>
      </trkpt>
      <trkpt lat="44.426201" lon="0.157189">
        <ele>75.8</ele>
        <time>2020-08-12T21:24:20Z</time>
      </trkpt>
      <trkpt lat="44.425841" lon="0.158859">
        <ele>76.0</ele>
        <time>2020-08-12T21:24:26Z</time>
      </trkpt>
      <trkpt lat="44.425555" lon="0.159989">
        <ele>75.6</ele>
        <time>2020-08-12T21:24:29Z</time>
      </trkpt>
      <trkpt lat="44.425228" lon="0.161153">
        <ele>77.2</ele>
        <time>2020-08-12T21:24:33Z</time>
      </trkpt>
      <trkpt lat="44.424897" lon="0.16221">
        <ele>75.4</ele>
        <time>2020-08-12T21:24:37Z</time>
      </trkpt>
      <trkpt lat="44.424364" lon="0.1637">
        <ele>74.6</ele>
        <time>2020-08-12T21:24:42Z</time>
      </trkpt>
      <trkpt lat="44.423819" lon="0.165066">
        <ele>70.0</ele>
        <time>2020-08-12T21:24:47Z</time>
      </trkpt>
      <trkpt lat="44.423243" lon="0.166348">
        <ele>68.0</ele>
        <time>2020-08-12T21:24:52Z</time>
      </trkpt>
      <trkpt lat="44.422625" lon="0.167585">
        <ele>68.8</ele>
        <time>2020-08-12T21:24:56Z</time>
      </trkpt>
      <trkpt lat="44.421399" lon="0.169691">
        <ele>78.0</ele>
        <time>2020-08-12T21:25:05Z</time>
      </trkpt>
      <trkpt lat="44.420672" lon="0.170815">
        <ele>80.0</ele>
        <time>2020-08-12T21:25:09Z</time>
      </trkpt>
      <trkpt lat="44.419912" lon="0.17188">
        <ele>77.2</ele>
        <time>2020-08-12T21:25:14Z</time>
      </trkpt>
      <trkpt lat="44.418919" lon="0.173179">
        <ele>79.6</ele>
        <time>2020-08-12T21:25:20Z</time>
      </trkpt>
      <trkpt lat="44.417877" lon="0.174432">
        <ele>80.6</ele>
        <time>2020-08-12T21:25:26Z</time>
      </trkpt>
      <trkpt lat="44.416966" lon="0.175461">
        <ele>82.8</ele>
        <time>2020-08-12T21:25:31Z</time>
      </trkpt>
      <trkpt lat="44.416052" lon="0.176438">
        <ele>85.8</ele>
        <time>2020-08-12T21:25:36Z</time>
      </trkpt>
      <trkpt lat="44.414993" lon="0.177504">
        <ele>86.8</ele>
        <time>2020-08-12T21:25:42Z</time>
      </trkpt>
      <trkpt lat="44.41387" lon="0.178554">
        <ele>85.6</ele>
        <time>2020-08-12T21:25:48Z</time>
      </trkpt>
      <trkpt lat="44.412833" lon="0.179461">
        <ele>85.2</ele>
        <time>2020-08-12T21:25:53Z</time>
      </trkpt>
      <trkpt lat="44.411741" lon="0.180364">
        <ele>86.4</ele>
        <time>2020-08-12T21:25:58Z</time>
      </trkpt>
      <trkpt lat="44.410571" lon="0.181296">
        <ele>83.0</ele>
        <time>2020-08-12T21:26:04Z</time>
      </trkpt>
      <trkpt lat="44.409171" lon="0.18236">
        <ele>84.4</ele>
        <time>2020-08-12T21:26:11Z</time>
      </trkpt>
      <trkpt lat="44.403908" lon="0.186444">
        <ele>85.4</ele>
        <time>2020-08-12T21:26:37Z</time>
      </trkpt>
      <trkpt lat="44.397717" lon="0.191212">
        <ele>80.4</ele>
        <time>2020-08-12T21:27:08Z</time>
      </trkpt>
      <trkpt lat="44.391285" lon="0.196217">
        <ele>83.4</ele>
        <time>2020-08-12T21:27:40Z</time>
      </trkpt>
      <trkpt lat="44.390405" lon="0.196943">
        <ele>83.8</ele>
        <time>2020-08-12T21:27:44Z</time>
      </trkpt>
      <trkpt lat="44.389291" lon="0.197934">
        <ele>81.4</ele>
        <time>2020-08-12T21:27:50Z</time>
      </trkpt>
      <trkpt lat="44.388188" lon="0.199021">
        <ele>84.6</ele>
        <time>2020-08-12T21:27:56Z</time>
      </trkpt>
      <trkpt lat="44.38733" lon="0.199946">
        <ele>85.6</ele>
        <time>2020-08-12T21:28:01Z</time>
      </trkpt>
      <trkpt lat="44.386409" lon="0.20104">
        <ele>85.2</ele>
        <time>2020-08-12T21:28:06Z</time>
      </trkpt>
      <trkpt lat="44.38562" lon="0.202037">
        <ele>86.6</ele>
        <time>2020-08-12T21:28:10Z</time>
      </trkpt>
      <trkpt lat="44.384762" lon="0.203233">
        <ele>88.2</ele>
        <time>2020-08-12T21:28:16Z</time>
      </trkpt>
      <trkpt lat="44.384001" lon="0.204397">
        <ele>86.8</ele>
        <time>2020-08-12T21:28:21Z</time>
      </trkpt>
      <trkpt lat="44.383253" lon="0.205646">
        <ele>84.2</ele>
        <time>2020-08-12T21:28:26Z</time>
      </trkpt>
      <trkpt lat="44.382543" lon="0.206935">
        <ele>81.6</ele>
        <time>2020-08-12T21:28:31Z</time>
      </trkpt>
      <trkpt lat="44.38184" lon="0.208317">
        <ele>80.8</ele>
        <time>2020-08-12T21:28:36Z</time>
      </trkpt>
      <trkpt lat="44.381316" lon="0.209451">
        <ele>81.8</ele>
        <time>2020-08-12T21:28:40Z</time>
      </trkpt>
      <trkpt lat="44.380791" lon="0.210707">
        <ele>81.6</ele>
        <time>2020-08-12T21:28:45Z</time>
      </trkpt>
      <trkpt lat="44.380289" lon="0.211973">
        <ele>80.4</ele>
        <time>2020-08-12T21:28:49Z</time>
      </trkpt>
      <trkpt lat="44.379834" lon="0.21327">
        <ele>80.4</ele>
        <time>2020-08-12T21:28:54Z</time>
      </trkpt>
      <trkpt lat="44.37939" lon="0.214684">
        <ele>76.4</ele>
        <time>2020-08-12T21:28:58Z</time>
      </trkpt>
      <trkpt lat="44.378996" lon="0.216021">
        <ele>64.8</ele>
        <time>2020-08-12T21:29:03Z</time>
      </trkpt>
      <trkpt lat="44.378549" lon="0.217815">
        <ele>61.4</ele>
        <time>2020-08-12T21:29:09Z</time>
      </trkpt>
      <trkpt lat="44.378128" lon="0.219743">
        <ele>57.0</ele>
        <time>2020-08-12T21:29:15Z</time>
      </trkpt>
      <trkpt lat="44.377139" lon="0.224861">
        <ele>49.0</ele>
        <time>2020-08-12T21:29:31Z</time>
      </trkpt>
      <trkpt lat="44.376779" lon="0.22651">
        <ele>49.0</ele>
        <time>2020-08-12T21:29:37Z</time>
      </trkpt>
      <trkpt lat="44.376489" lon="0.227638">
        <ele>45.4</ele>
        <time>2020-08-12T21:29:41Z</time>
      </trkpt>
      <trkpt lat="44.376048" lon="0.229115">
        <ele>45.4</ele>
        <time>2020-08-12T21:29:46Z</time>
      </trkpt>
      <trkpt lat="44.3756" lon="0.23036">
        <ele>45.2</ele>
        <time>2020-08-12T21:29:50Z</time>
      </trkpt>
      <trkpt lat="44.375097" lon="0.23161">
        <ele>45.4</ele>
        <time>2020-08-12T21:29:54Z</time>
      </trkpt>
      <trkpt lat="44.374603" lon="0.232684">
        <ele>44.2</ele>
        <time>2020-08-12T21:29:58Z</time>
      </trkpt>
      <trkpt lat="44.374061" lon="0.233741">
        <ele>44.0</ele>
        <time>2020-08-12T21:30:02Z</time>
      </trkpt>
      <trkpt lat="44.373642" lon="0.234486">
        <ele>43.6</ele>
        <time>2020-08-12T21:30:05Z</time>
      </trkpt>
      <trkpt lat="44.373269" lon="0.235101">
        <ele>44.0</ele>
        <time>2020-08-12T21:30:08Z</time>
      </trkpt>
      <trkpt lat="44.372531" lon="0.236214">
        <ele>44.2</ele>
        <time>2020-08-12T21:30:12Z</time>
      </trkpt>
      <trkpt lat="44.371934" lon="0.237018">
        <ele>44.0</ele>
        <time>2020-08-12T21:30:16Z</time>
      </trkpt>
      <trkpt lat="44.370946" lon="0.238215">
        <ele>43.4</ele>
        <time>2020-08-12T21:30:22Z</time>
      </trkpt>
      <trkpt lat="44.369972" lon="0.239273">
        <ele>43.8</ele>
        <time>2020-08-12T21:30:27Z</time>
      </trkpt>
      <trkpt lat="44.368888" lon="0.240336">
        <ele>43.2</ele>
        <time>2020-08-12T21:30:33Z</time>
      </trkpt>
      <trkpt lat="44.367845" lon="0.241283">
        <ele>43.2</ele>
        <time>2020-08-12T21:30:38Z</time>
      </trkpt>
      <trkpt lat="44.366627" lon="0.242302">
        <ele>45.4</ele>
        <time>2020-08-12T21:30:44Z</time>
      </trkpt>
      <trkpt lat="44.365579" lon="0.243118">
        <ele>46.2</ele>
        <time>2020-08-12T21:30:50Z</time>
      </trkpt>
      <trkpt lat="44.36446" lon="0.243925">
        <ele>46.4</ele>
        <time>2020-08-12T21:30:55Z</time>
      </trkpt>
      <trkpt lat="44.36309" lon="0.244834">
        <ele>47.0</ele>
        <time>2020-08-12T21:31:02Z</time>
      </trkpt>
      <trkpt lat="44.361627" lon="0.245719">
        <ele>46.0</ele>
        <time>2020-08-12T21:31:09Z</time>
      </trkpt>
      <trkpt lat="44.360197" lon="0.246494">
        <ele>45.2</ele>
        <time>2020-08-12T21:31:15Z</time>
      </trkpt>
      <trkpt lat="44.358775" lon="0.247159">
        <ele>45.4</ele>
        <time>2020-08-12T21:31:22Z</time>
      </trkpt>
      <trkpt lat="44.357387" lon="0.247749">
        <ele>45.6</ele>
        <time>2020-08-12T21:31:28Z</time>
      </trkpt>
      <trkpt lat="44.355995" lon="0.248249">
        <ele>47.6</ele>
        <time>2020-08-12T21:31:34Z</time>
      </trkpt>
      <trkpt lat="44.354709" lon="0.248659">
        <ele>49.0</ele>
        <time>2020-08-12T21:31:40Z</time>
      </trkpt>
      <trkpt lat="44.35333" lon="0.249033">
        <ele>49.0</ele>
        <time>2020-08-12T21:31:46Z</time>
      </trkpt>
      <trkpt lat="44.352053" lon="0.249311">
        <ele>46.0</ele>
        <time>2020-08-12T21:31:52Z</time>
      </trkpt>
      <trkpt lat="44.35071" lon="0.24956">
        <ele>40.6</ele>
        <time>2020-08-12T21:31:58Z</time>
      </trkpt>
      <trkpt lat="44.34759" lon="0.250086">
        <ele>46.0</ele>
        <time>2020-08-12T21:32:11Z</time>
      </trkpt>
      <trkpt lat="44.346141" lon="0.250353">
        <ele>48.2</ele>
        <time>2020-08-12T21:32:18Z</time>
      </trkpt>
      <trkpt lat="44.34468" lon="0.250658">
        <ele>46.6</ele>
        <time>2020-08-12T21:32:24Z</time>
      </trkpt>
      <trkpt lat="44.34347" lon="0.250969">
        <ele>45.8</ele>
        <time>2020-08-12T21:32:29Z</time>
      </trkpt>
      <trkpt lat="44.342517" lon="0.251247">
        <ele>46.2</ele>
        <time>2020-08-12T21:32:33Z</time>
      </trkpt>
      <trkpt lat="44.340798" lon="0.251847">
        <ele>43.8</ele>
        <time>2020-08-12T21:32:41Z</time>
      </trkpt>
      <trkpt lat="44.339892" lon="0.252202">
        <ele>43.6</ele>
        <time>2020-08-12T21:32:45Z</time>
      </trkpt>
      <trkpt lat="44.33818" lon="0.252972">
        <ele>45.0</ele>
        <time>2020-08-12T21:32:53Z</time>
      </trkpt>
      <trkpt lat="44.336621" lon="0.253753">
        <ele>45.0</ele>
        <time>2020-08-12T21:33:00Z</time>
      </trkpt>
      <trkpt lat="44.332108" lon="0.256124">
        <ele>47.2</ele>
        <time>2020-08-12T21:33:21Z</time>
      </trkpt>
      <trkpt lat="44.331039" lon="0.256634">
        <ele>47.4</ele>
        <time>2020-08-12T21:33:26Z</time>
      </trkpt>
      <trkpt lat="44.329859" lon="0.257153">
        <ele>47.0</ele>
        <time>2020-08-12T21:33:31Z</time>
      </trkpt>
      <trkpt lat="44.328643" lon="0.257631">
        <ele>48.2</ele>
        <time>2020-08-12T21:33:37Z</time>
      </trkpt>
      <trkpt lat="44.327495" lon="0.258028">
        <ele>49.6</ele>
        <time>2020-08-12T21:33:42Z</time>
      </trkpt>
      <trkpt lat="44.326314" lon="0.258399">
        <ele>49.2</ele>
        <time>2020-08-12T21:33:47Z</time>
      </trkpt>
      <trkpt lat="44.325041" lon="0.258724">
        <ele>49.6</ele>
        <time>2020-08-12T21:33:53Z</time>
      </trkpt>
      <trkpt lat="44.323736" lon="0.259017">
        <ele>50.6</ele>
        <time>2020-08-12T21:33:59Z</time>
      </trkpt>
      <trkpt lat="44.322416" lon="0.259232">
        <ele>49.4</ele>
        <time>2020-08-12T21:34:04Z</time>
      </trkpt>
      <trkpt lat="44.321232" lon="0.259369">
        <ele>50.6</ele>
        <time>2020-08-12T21:34:10Z</time>
      </trkpt>
      <trkpt lat="44.319594" lon="0.259507">
        <ele>51.4</ele>
        <time>2020-08-12T21:34:17Z</time>
      </trkpt>
      <trkpt lat="44.316503" lon="0.259588">
        <ele>52.6</ele>
        <time>2020-08-12T21:34:30Z</time>
      </trkpt>
      <trkpt lat="44.306725" lon="0.259756">
        <ele>50.6</ele>
        <time>2020-08-12T21:35:13Z</time>
      </trkpt>
      <trkpt lat="44.304926" lon="0.259824">
        <ele>53.2</ele>
        <time>2020-08-12T21:35:20Z</time>
      </trkpt>
      <trkpt lat="44.30308" lon="0.259944">
        <ele>53.6</ele>
        <time>2020-08-12T21:35:28Z</time>
      </trkpt>
      <trkpt lat="44.301353" lon="0.260137">
        <ele>53.8</ele>
        <time>2020-08-12T21:35:36Z</time>
      </trkpt>
      <trkpt lat="44.299643" lon="0.260412">
        <ele>54.2</ele>
        <time>2020-08-12T21:35:43Z</time>
      </trkpt>
      <trkpt lat="44.29796" lon="0.260769">
        <ele>52.8</ele>
        <time>2020-08-12T21:35:51Z</time>
      </trkpt>
      <trkpt lat="44.296321" lon="0.261192">
        <ele>54.6</ele>
        <time>2020-08-12T21:35:58Z</time>
      </trkpt>
      <trkpt lat="44.294735" lon="0.261686">
        <ele>55.0</ele>
        <time>2020-08-12T21:36:05Z</time>
      </trkpt>
      <trkpt lat="44.293094" lon="0.262264">
        <ele>54.4</ele>
        <time>2020-08-12T21:36:12Z</time>
      </trkpt>
      <trkpt lat="44.291497" lon="0.262921">
        <ele>56.4</ele>
        <time>2020-08-12T21:36:20Z</time>
      </trkpt>
      <trkpt lat="44.289994" lon="0.263603">
        <ele>55.0</ele>
        <time>2020-08-12T21:36:26Z</time>
      </trkpt>
      <trkpt lat="44.288524" lon="0.264353">
        <ele>56.0</ele>
        <time>2020-08-12T21:36:33Z</time>
      </trkpt>
      <trkpt lat="44.287008" lon="0.265199">
        <ele>57.0</ele>
        <time>2020-08-12T21:36:40Z</time>
      </trkpt>
      <trkpt lat="44.284766" lon="0.266566">
        <ele>55.8</ele>
        <time>2020-08-12T21:36:51Z</time>
      </trkpt>
      <trkpt lat="44.280658" lon="0.269385">
        <ele>50.8</ele>
        <time>2020-08-12T21:37:11Z</time>
      </trkpt>
      <trkpt lat="44.278434" lon="0.270951">
        <ele>49.8</ele>
        <time>2020-08-12T21:37:22Z</time>
      </trkpt>
      <trkpt lat="44.270607" lon="0.276377">
        <ele>53.6</ele>
        <time>2020-08-12T21:38:00Z</time>
      </trkpt>
      <trkpt lat="44.268718" lon="0.277736">
        <ele>54.4</ele>
        <time>2020-08-12T21:38:09Z</time>
      </trkpt>
      <trkpt lat="44.266726" lon="0.279326">
        <ele>57.2</ele>
        <time>2020-08-12T21:38:19Z</time>
      </trkpt>
      <trkpt lat="44.265735" lon="0.280176">
        <ele>63.2</ele>
        <time>2020-08-12T21:38:24Z</time>
      </trkpt>
      <trkpt lat="44.264753" lon="0.281074">
        <ele>65.6</ele>
        <time>2020-08-12T21:38:29Z</time>
      </trkpt>
      <trkpt lat="44.263112" lon="0.282642">
        <ele>72.8</ele>
        <time>2020-08-12T21:38:37Z</time>
      </trkpt>
      <trkpt lat="44.262196" lon="0.28357">
        <ele>77.0</ele>
        <time>2020-08-12T21:38:42Z</time>
      </trkpt>
      <trkpt lat="44.26128" lon="0.284536">
        <ele>74.4</ele>
        <time>2020-08-12T21:38:47Z</time>
      </trkpt>
      <trkpt lat="44.259559" lon="0.286506">
        <ele>69.0</ele>
        <time>2020-08-12T21:38:57Z</time>
      </trkpt>
      <trkpt lat="44.258541" lon="0.287738">
        <ele>61.0</ele>
        <time>2020-08-12T21:39:03Z</time>
      </trkpt>
      <trkpt lat="44.257551" lon="0.288992">
        <ele>58.0</ele>
        <time>2020-08-12T21:39:09Z</time>
      </trkpt>
      <trkpt lat="44.256118" lon="0.290944">
        <ele>54.8</ele>
        <time>2020-08-12T21:39:17Z</time>
      </trkpt>
      <trkpt lat="44.255394" lon="0.291988">
        <ele>53.4</ele>
        <time>2020-08-12T21:39:22Z</time>
      </trkpt>
      <trkpt lat="44.254309" lon="0.293625">
        <ele>50.0</ele>
        <time>2020-08-12T21:39:29Z</time>
      </trkpt>
      <trkpt lat="44.252704" lon="0.296229">
        <ele>53.6</ele>
        <time>2020-08-12T21:39:39Z</time>
      </trkpt>
      <trkpt lat="44.251776" lon="0.297846">
        <ele>56.4</ele>
        <time>2020-08-12T21:39:46Z</time>
      </trkpt>
      <trkpt lat="44.23947" lon="0.319656">
        <ele>53.8</ele>
        <time>2020-08-12T21:41:12Z</time>
      </trkpt>
      <trkpt lat="44.238905" lon="0.320612">
        <ele>54.6</ele>
        <time>2020-08-12T21:41:16Z</time>
      </trkpt>
      <trkpt lat="44.237691" lon="0.322494">
        <ele>52.8</ele>
        <time>2020-08-12T21:41:24Z</time>
      </trkpt>
      <trkpt lat="44.23704" lon="0.323395">
        <ele>49.2</ele>
        <time>2020-08-12T21:41:28Z</time>
      </trkpt>
      <trkpt lat="44.235725" lon="0.325041">
        <ele>41.6</ele>
        <time>2020-08-12T21:41:36Z</time>
      </trkpt>
      <trkpt lat="44.234717" lon="0.326224">
        <ele>39.0</ele>
        <time>2020-08-12T21:41:41Z</time>
      </trkpt>
      <trkpt lat="44.232875" lon="0.328448">
        <ele>37.2</ele>
        <time>2020-08-12T21:41:52Z</time>
      </trkpt>
      <trkpt lat="44.232484" lon="0.328947">
        <ele>35.8</ele>
        <time>2020-08-12T21:41:54Z</time>
      </trkpt>
      <trkpt lat="44.232128" lon="0.329453">
        <ele>36.4</ele>
        <time>2020-08-12T21:41:56Z</time>
      </trkpt>
      <trkpt lat="44.231432" lon="0.330551">
        <ele>35.6</ele>
        <time>2020-08-12T21:42:01Z</time>
      </trkpt>
      <trkpt lat="44.230916" lon="0.331514">
        <ele>36.4</ele>
        <time>2020-08-12T21:42:05Z</time>
      </trkpt>
      <trkpt lat="44.230423" lon="0.332582">
        <ele>37.2</ele>
        <time>2020-08-12T21:42:09Z</time>
      </trkpt>
      <trkpt lat="44.230118" lon="0.333328">
        <ele>37.2</ele>
        <time>2020-08-12T21:42:11Z</time>
      </trkpt>
      <trkpt lat="44.229817" lon="0.33418">
        <ele>36.4</ele>
        <time>2020-08-12T21:42:14Z</time>
      </trkpt>
      <trkpt lat="44.229536" lon="0.335095">
        <ele>37.6</ele>
        <time>2020-08-12T21:42:17Z</time>
      </trkpt>
      <trkpt lat="44.229235" lon="0.336264">
        <ele>38.8</ele>
        <time>2020-08-12T21:42:21Z</time>
      </trkpt>
      <trkpt lat="44.229014" lon="0.337339">
        <ele>36.2</ele>
        <time>2020-08-12T21:42:25Z</time>
      </trkpt>
      <trkpt lat="44.228825" lon="0.338491">
        <ele>36.8</ele>
        <time>2020-08-12T21:42:28Z</time>
      </trkpt>
      <trkpt lat="44.228748" lon="0.339277">
        <ele>36.8</ele>
        <time>2020-08-12T21:42:31Z</time>
      </trkpt>
      <trkpt lat="44.228632" lon="0.34119">
        <ele>36.6</ele>
        <time>2020-08-12T21:42:37Z</time>
      </trkpt>
      <trkpt lat="44.228558" lon="0.34426">
        <ele>40.6</ele>
        <time>2020-08-12T21:42:46Z</time>
      </trkpt>
      <trkpt lat="44.228509" lon="0.345558">
        <ele>43.2</ele>
        <time>2020-08-12T21:42:50Z</time>
      </trkpt>
      <trkpt lat="44.228417" lon="0.346914">
        <ele>46.4</ele>
        <time>2020-08-12T21:42:55Z</time>
      </trkpt>
      <trkpt lat="44.228229" lon="0.348662">
        <ele>47.8</ele>
        <time>2020-08-12T21:43:00Z</time>
      </trkpt>
      <trkpt lat="44.228099" lon="0.349523">
        <ele>47.8</ele>
        <time>2020-08-12T21:43:03Z</time>
      </trkpt>
      <trkpt lat="44.227913" lon="0.350575">
        <ele>47.6</ele>
        <time>2020-08-12T21:43:06Z</time>
      </trkpt>
      <trkpt lat="44.227695" lon="0.351594">
        <ele>46.4</ele>
        <time>2020-08-12T21:43:10Z</time>
      </trkpt>
      <trkpt lat="44.227461" lon="0.352534">
        <ele>48.4</ele>
        <time>2020-08-12T21:43:13Z</time>
      </trkpt>
      <trkpt lat="44.227186" lon="0.353542">
        <ele>47.2</ele>
        <time>2020-08-12T21:43:16Z</time>
      </trkpt>
      <trkpt lat="44.226824" lon="0.354759">
        <ele>45.4</ele>
        <time>2020-08-12T21:43:20Z</time>
      </trkpt>
      <trkpt lat="44.226025" lon="0.357039">
        <ele>43.4</ele>
        <time>2020-08-12T21:43:28Z</time>
      </trkpt>
      <trkpt lat="44.224959" lon="0.359741">
        <ele>47.4</ele>
        <time>2020-08-12T21:43:38Z</time>
      </trkpt>
      <trkpt lat="44.223036" lon="0.364184">
        <ele>50.2</ele>
        <time>2020-08-12T21:43:54Z</time>
      </trkpt>
      <trkpt lat="44.222452" lon="0.365572">
        <ele>50.0</ele>
        <time>2020-08-12T21:43:59Z</time>
      </trkpt>
      <trkpt lat="44.221831" lon="0.367149">
        <ele>42.0</ele>
        <time>2020-08-12T21:44:04Z</time>
      </trkpt>
      <trkpt lat="44.220555" lon="0.370848">
        <ele>41.4</ele>
        <time>2020-08-12T21:44:17Z</time>
      </trkpt>
      <trkpt lat="44.217537" lon="0.380464">
        <ele>37.6</ele>
        <time>2020-08-12T21:44:50Z</time>
      </trkpt>
      <trkpt lat="44.216674" lon="0.383315">
        <ele>37.6</ele>
        <time>2020-08-12T21:44:59Z</time>
      </trkpt>
      <trkpt lat="44.216009" lon="0.385678">
        <ele>37.4</ele>
        <time>2020-08-12T21:45:07Z</time>
      </trkpt>
      <trkpt lat="44.215704" lon="0.386851">
        <ele>37.2</ele>
        <time>2020-08-12T21:45:11Z</time>
      </trkpt>
      <trkpt lat="44.215281" lon="0.388642">
        <ele>37.6</ele>
        <time>2020-08-12T21:45:17Z</time>
      </trkpt>
      <trkpt lat="44.214748" lon="0.391213">
        <ele>37.6</ele>
        <time>2020-08-12T21:45:25Z</time>
      </trkpt>
      <trkpt lat="44.214483" lon="0.392704">
        <ele>36.8</ele>
        <time>2020-08-12T21:45:30Z</time>
      </trkpt>
      <trkpt lat="44.214252" lon="0.394143">
        <ele>37.2</ele>
        <time>2020-08-12T21:45:35Z</time>
      </trkpt>
      <trkpt lat="44.214008" lon="0.395822">
        <ele>38.0</ele>
        <time>2020-08-12T21:45:40Z</time>
      </trkpt>
      <trkpt lat="44.213633" lon="0.398682">
        <ele>39.0</ele>
        <time>2020-08-12T21:45:49Z</time>
      </trkpt>
      <trkpt lat="44.213429" lon="0.400491">
        <ele>37.6</ele>
        <time>2020-08-12T21:45:55Z</time>
      </trkpt>
      <trkpt lat="44.213155" lon="0.403272">
        <ele>36.2</ele>
        <time>2020-08-12T21:46:03Z</time>
      </trkpt>
      <trkpt lat="44.212947" lon="0.405725">
        <ele>37.6</ele>
        <time>2020-08-12T21:46:11Z</time>
      </trkpt>
      <trkpt lat="44.212769" lon="0.40821">
        <ele>37.4</ele>
        <time>2020-08-12T21:46:19Z</time>
      </trkpt>
      <trkpt lat="44.212646" lon="0.410564">
        <ele>40.2</ele>
        <time>2020-08-12T21:46:26Z</time>
      </trkpt>
      <trkpt lat="44.212556" lon="0.412654">
        <ele>40.6</ele>
        <time>2020-08-12T21:46:33Z</time>
      </trkpt>
      <trkpt lat="44.212498" lon="0.414408">
        <ele>39.8</ele>
        <time>2020-08-12T21:46:38Z</time>
      </trkpt>
      <trkpt lat="44.21244" lon="0.417959">
        <ele>39.6</ele>
        <time>2020-08-12T21:46:49Z</time>
      </trkpt>
      <trkpt lat="44.212448" lon="0.422933">
        <ele>40.4</ele>
        <time>2020-08-12T21:47:05Z</time>
      </trkpt>
      <trkpt lat="44.212547" lon="0.432765">
        <ele>40.0</ele>
        <time>2020-08-12T21:47:35Z</time>
      </trkpt>
      <trkpt lat="44.21254" lon="0.435437">
        <ele>39.0</ele>
        <time>2020-08-12T21:47:44Z</time>
      </trkpt>
      <trkpt lat="44.212508" lon="0.438046">
        <ele>38.4</ele>
        <time>2020-08-12T21:47:52Z</time>
      </trkpt>
      <trkpt lat="44.212442" lon="0.440915">
        <ele>38.4</ele>
        <time>2020-08-12T21:48:01Z</time>
      </trkpt>
      <trkpt lat="44.212153" lon="0.449424">
        <ele>40.4</ele>
        <time>2020-08-12T21:48:27Z</time>
      </trkpt>
      <trkpt lat="44.211664" lon="0.462866">
        <ele>40.2</ele>
        <time>2020-08-12T21:49:09Z</time>
      </trkpt>
      <trkpt lat="44.211515" lon="0.466143">
        <ele>40.4</ele>
        <time>2020-08-12T21:49:19Z</time>
      </trkpt>
      <trkpt lat="44.211401" lon="0.467783">
        <ele>40.4</ele>
        <time>2020-08-12T21:49:24Z</time>
      </trkpt>
      <trkpt lat="44.211263" lon="0.469447">
        <ele>40.8</ele>
        <time>2020-08-12T21:49:30Z</time>
      </trkpt>
      <trkpt lat="44.211077" lon="0.471056">
        <ele>41.2</ele>
        <time>2020-08-12T21:49:35Z</time>
      </trkpt>
      <trkpt lat="44.210848" lon="0.472722">
        <ele>42.2</ele>
        <time>2020-08-12T21:49:40Z</time>
      </trkpt>
      <trkpt lat="44.210652" lon="0.474006">
        <ele>44.0</ele>
        <time>2020-08-12T21:49:44Z</time>
      </trkpt>
      <trkpt lat="44.210419" lon="0.475252">
        <ele>43.6</ele>
        <time>2020-08-12T21:49:48Z</time>
      </trkpt>
      <trkpt lat="44.210091" lon="0.476892">
        <ele>42.8</ele>
        <time>2020-08-12T21:49:53Z</time>
      </trkpt>
      <trkpt lat="44.209748" lon="0.478414">
        <ele>41.8</ele>
        <time>2020-08-12T21:49:58Z</time>
      </trkpt>
      <trkpt lat="44.209436" lon="0.479643">
        <ele>42.0</ele>
        <time>2020-08-12T21:50:02Z</time>
      </trkpt>
      <trkpt lat="44.209119" lon="0.480806">
        <ele>44.0</ele>
        <time>2020-08-12T21:50:06Z</time>
      </trkpt>
      <trkpt lat="44.208666" lon="0.48233">
        <ele>45.4</ele>
        <time>2020-08-12T21:50:11Z</time>
      </trkpt>
      <trkpt lat="44.208178" lon="0.483842">
        <ele>43.2</ele>
        <time>2020-08-12T21:50:17Z</time>
      </trkpt>
      <trkpt lat="44.207371" lon="0.486055">
        <ele>42.8</ele>
        <time>2020-08-12T21:50:24Z</time>
      </trkpt>
      <trkpt lat="44.206871" lon="0.487339">
        <ele>43.4</ele>
        <time>2020-08-12T21:50:29Z</time>
      </trkpt>
      <trkpt lat="44.206326" lon="0.488618">
        <ele>44.4</ele>
        <time>2020-08-12T21:50:33Z</time>
      </trkpt>
      <trkpt lat="44.20516" lon="0.491215">
        <ele>44.4</ele>
        <time>2020-08-12T21:50:43Z</time>
      </trkpt>
      <trkpt lat="44.200542" lon="0.501055">
        <ele>47.4</ele>
        <time>2020-08-12T21:51:20Z</time>
      </trkpt>
      <trkpt lat="44.192839" lon="0.517544">
        <ele>61.2</ele>
        <time>2020-08-12T21:52:21Z</time>
      </trkpt>
      <trkpt lat="44.191618" lon="0.520247">
        <ele>63.4</ele>
        <time>2020-08-12T21:52:31Z</time>
      </trkpt>
      <trkpt lat="44.190827" lon="0.522131">
        <ele>63.6</ele>
        <time>2020-08-12T21:52:37Z</time>
      </trkpt>
      <trkpt lat="44.190108" lon="0.524027">
        <ele>63.4</ele>
        <time>2020-08-12T21:52:44Z</time>
      </trkpt>
      <trkpt lat="44.189724" lon="0.525109">
        <ele>62.2</ele>
        <time>2020-08-12T21:52:48Z</time>
      </trkpt>
      <trkpt lat="44.189085" lon="0.527039">
        <ele>64.4</ele>
        <time>2020-08-12T21:52:55Z</time>
      </trkpt>
      <trkpt lat="44.188529" lon="0.528923">
        <ele>63.6</ele>
        <time>2020-08-12T21:53:01Z</time>
      </trkpt>
      <trkpt lat="44.187866" lon="0.531445">
        <ele>63.2</ele>
        <time>2020-08-12T21:53:09Z</time>
      </trkpt>
      <trkpt lat="44.187421" lon="0.53336">
        <ele>62.2</ele>
        <time>2020-08-12T21:53:15Z</time>
      </trkpt>
      <trkpt lat="44.187027" lon="0.535367">
        <ele>62.8</ele>
        <time>2020-08-12T21:53:22Z</time>
      </trkpt>
      <trkpt lat="44.186589" lon="0.537997">
        <ele>63.2</ele>
        <time>2020-08-12T21:53:30Z</time>
      </trkpt>
      <trkpt lat="44.186272" lon="0.540139">
        <ele>62.8</ele>
        <time>2020-08-12T21:53:37Z</time>
      </trkpt>
      <trkpt lat="44.185139" lon="0.548464">
        <ele>60.8</ele>
        <time>2020-08-12T21:54:04Z</time>
      </trkpt>
      <trkpt lat="44.184878" lon="0.550264">
        <ele>59.6</ele>
        <time>2020-08-12T21:54:09Z</time>
      </trkpt>
      <trkpt lat="44.184619" lon="0.551836">
        <ele>57.2</ele>
        <time>2020-08-12T21:54:14Z</time>
      </trkpt>
      <trkpt lat="44.184176" lon="0.554036">
        <ele>59.4</ele>
        <time>2020-08-12T21:54:21Z</time>
      </trkpt>
      <trkpt lat="44.183927" lon="0.555152">
        <ele>59.4</ele>
        <time>2020-08-12T21:54:25Z</time>
      </trkpt>
      <trkpt lat="44.183645" lon="0.556299">
        <ele>59.4</ele>
        <time>2020-08-12T21:54:29Z</time>
      </trkpt>
      <trkpt lat="44.183219" lon="0.557911">
        <ele>59.0</ele>
        <time>2020-08-12T21:54:34Z</time>
      </trkpt>
      <trkpt lat="44.182934" lon="0.558913">
        <ele>58.6</ele>
        <time>2020-08-12T21:54:37Z</time>
      </trkpt>
      <trkpt lat="44.182311" lon="0.560849">
        <ele>60.2</ele>
        <time>2020-08-12T21:54:44Z</time>
      </trkpt>
      <trkpt lat="44.181961" lon="0.561849">
        <ele>60.4</ele>
        <time>2020-08-12T21:54:48Z</time>
      </trkpt>
      <trkpt lat="44.181318" lon="0.563591">
        <ele>59.6</ele>
        <time>2020-08-12T21:54:54Z</time>
      </trkpt>
      <trkpt lat="44.180664" lon="0.565209">
        <ele>61.0</ele>
        <time>2020-08-12T21:54:59Z</time>
      </trkpt>
      <trkpt lat="44.179872" lon="0.566968">
        <ele>62.0</ele>
        <time>2020-08-12T21:55:06Z</time>
      </trkpt>
      <trkpt lat="44.179452" lon="0.56785">
        <ele>63.0</ele>
        <time>2020-08-12T21:55:09Z</time>
      </trkpt>
      <trkpt lat="44.178394" lon="0.569874">
        <ele>62.8</ele>
        <time>2020-08-12T21:55:17Z</time>
      </trkpt>
      <trkpt lat="44.177559" lon="0.571307">
        <ele>62.2</ele>
        <time>2020-08-12T21:55:23Z</time>
      </trkpt>
      <trkpt lat="44.176777" lon="0.57245">
        <ele>67.0</ele>
        <time>2020-08-12T21:55:28Z</time>
      </trkpt>
      <trkpt lat="44.17591" lon="0.573589">
        <ele>67.4</ele>
        <time>2020-08-12T21:55:33Z</time>
      </trkpt>
      <trkpt lat="44.175354" lon="0.574235">
        <ele>67.4</ele>
        <time>2020-08-12T21:55:36Z</time>
      </trkpt>
      <trkpt lat="44.174751" lon="0.574884">
        <ele>69.0</ele>
        <time>2020-08-12T21:55:39Z</time>
      </trkpt>
      <trkpt lat="44.174002" lon="0.575629">
        <ele>67.8</ele>
        <time>2020-08-12T21:55:43Z</time>
      </trkpt>
      <trkpt lat="44.1732" lon="0.576339">
        <ele>67.4</ele>
        <time>2020-08-12T21:55:47Z</time>
      </trkpt>
      <trkpt lat="44.170899" lon="0.578215">
        <ele>71.0</ele>
        <time>2020-08-12T21:55:59Z</time>
      </trkpt>
      <trkpt lat="44.170072" lon="0.578944">
        <ele>72.4</ele>
        <time>2020-08-12T21:56:03Z</time>
      </trkpt>
      <trkpt lat="44.169278" lon="0.579733">
        <ele>72.0</ele>
        <time>2020-08-12T21:56:07Z</time>
      </trkpt>
      <trkpt lat="44.168621" lon="0.580466">
        <ele>71.2</ele>
        <time>2020-08-12T21:56:11Z</time>
      </trkpt>
      <trkpt lat="44.167957" lon="0.581335">
        <ele>71.6</ele>
        <time>2020-08-12T21:56:15Z</time>
      </trkpt>
      <trkpt lat="44.167381" lon="0.582194">
        <ele>73.2</ele>
        <time>2020-08-12T21:56:19Z</time>
      </trkpt>
      <trkpt lat="44.166966" lon="0.582866">
        <ele>74.0</ele>
        <time>2020-08-12T21:56:21Z</time>
      </trkpt>
      <trkpt lat="44.166441" lon="0.583828">
        <ele>75.6</ele>
        <time>2020-08-12T21:56:25Z</time>
      </trkpt>
      <trkpt lat="44.165956" lon="0.584868">
        <ele>75.0</ele>
        <time>2020-08-12T21:56:29Z</time>
      </trkpt>
      <trkpt lat="44.165545" lon="0.585854">
        <ele>71.8</ele>
        <time>2020-08-12T21:56:33Z</time>
      </trkpt>
      <trkpt lat="44.165132" lon="0.587038">
        <ele>70.8</ele>
        <time>2020-08-12T21:56:37Z</time>
      </trkpt>
      <trkpt lat="44.164772" lon="0.58827">
        <ele>75.0</ele>
        <time>2020-08-12T21:56:41Z</time>
      </trkpt>
      <trkpt lat="44.164552" lon="0.589249">
        <ele>73.6</ele>
        <time>2020-08-12T21:56:44Z</time>
      </trkpt>
      <trkpt lat="44.164304" lon="0.590484">
        <ele>75.2</ele>
        <time>2020-08-12T21:56:48Z</time>
      </trkpt>
      <trkpt lat="44.164025" lon="0.592244">
        <ele>77.6</ele>
        <time>2020-08-12T21:56:54Z</time>
      </trkpt>
      <trkpt lat="44.163216" lon="0.597814">
        <ele>87.2</ele>
        <time>2020-08-12T21:57:11Z</time>
      </trkpt>
      <trkpt lat="44.162923" lon="0.599959">
        <ele>84.0</ele>
        <time>2020-08-12T21:57:18Z</time>
      </trkpt>
      <trkpt lat="44.16261" lon="0.602055">
        <ele>76.0</ele>
        <time>2020-08-12T21:57:25Z</time>
      </trkpt>
      <trkpt lat="44.16227" lon="0.604168">
        <ele>76.4</ele>
        <time>2020-08-12T21:57:32Z</time>
      </trkpt>
      <trkpt lat="44.161962" lon="0.605679">
        <ele>74.6</ele>
        <time>2020-08-12T21:57:36Z</time>
      </trkpt>
      <trkpt lat="44.161729" lon="0.606712">
        <ele>73.2</ele>
        <time>2020-08-12T21:57:40Z</time>
      </trkpt>
      <trkpt lat="44.161237" lon="0.60855">
        <ele>63.4</ele>
        <time>2020-08-12T21:57:46Z</time>
      </trkpt>
      <trkpt lat="44.160738" lon="0.610202">
        <ele>71.6</ele>
        <time>2020-08-12T21:57:52Z</time>
      </trkpt>
      <trkpt lat="44.160388" lon="0.611238">
        <ele>78.4</ele>
        <time>2020-08-12T21:57:55Z</time>
      </trkpt>
      <trkpt lat="44.159936" lon="0.612432">
        <ele>93.2</ele>
        <time>2020-08-12T21:57:59Z</time>
      </trkpt>
      <trkpt lat="44.159384" lon="0.613769">
        <ele>83.2</ele>
        <time>2020-08-12T21:58:04Z</time>
      </trkpt>
      <trkpt lat="44.15883" lon="0.614851">
        <ele>84.8</ele>
        <time>2020-08-12T21:58:08Z</time>
      </trkpt>
      <trkpt lat="44.158261" lon="0.615795">
        <ele>86.0</ele>
        <time>2020-08-12T21:58:12Z</time>
      </trkpt>
      <trkpt lat="44.157629" lon="0.616634">
        <ele>82.0</ele>
        <time>2020-08-12T21:58:16Z</time>
      </trkpt>
      <trkpt lat="44.156918" lon="0.617408">
        <ele>82.4</ele>
        <time>2020-08-12T21:58:20Z</time>
      </trkpt>
      <trkpt lat="44.156039" lon="0.61808">
        <ele>82.6</ele>
        <time>2020-08-12T21:58:24Z</time>
      </trkpt>
      <trkpt lat="44.155343" lon="0.61853">
        <ele>82.2</ele>
        <time>2020-08-12T21:58:28Z</time>
      </trkpt>
      <trkpt lat="44.154759" lon="0.618829">
        <ele>84.2</ele>
        <time>2020-08-12T21:58:30Z</time>
      </trkpt>
      <trkpt lat="44.154125" lon="0.619092">
        <ele>84.2</ele>
        <time>2020-08-12T21:58:33Z</time>
      </trkpt>
      <trkpt lat="44.150879" lon="0.620197">
        <ele>72.8</ele>
        <time>2020-08-12T21:58:48Z</time>
      </trkpt>
      <trkpt lat="44.150203" lon="0.620494">
        <ele>77.2</ele>
        <time>2020-08-12T21:58:51Z</time>
      </trkpt>
      <trkpt lat="44.149524" lon="0.620881">
        <ele>77.6</ele>
        <time>2020-08-12T21:58:54Z</time>
      </trkpt>
      <trkpt lat="44.149076" lon="0.621209">
        <ele>82.6</ele>
        <time>2020-08-12T21:58:56Z</time>
      </trkpt>
      <trkpt lat="44.148411" lon="0.621864">
        <ele>77.6</ele>
        <time>2020-08-12T21:59:00Z</time>
      </trkpt>
      <trkpt lat="44.147922" lon="0.622412">
        <ele>80.2</ele>
        <time>2020-08-12T21:59:02Z</time>
      </trkpt>
      <trkpt lat="44.147595" lon="0.622904">
        <ele>74.0</ele>
        <time>2020-08-12T21:59:04Z</time>
      </trkpt>
      <trkpt lat="44.147301" lon="0.623416">
        <ele>70.0</ele>
        <time>2020-08-12T21:59:06Z</time>
      </trkpt>
      <trkpt lat="44.14708" lon="0.623837">
        <ele>70.0</ele>
        <time>2020-08-12T21:59:08Z</time>
      </trkpt>
      <trkpt lat="44.14687" lon="0.624304">
        <ele>71.4</ele>
        <time>2020-08-12T21:59:10Z</time>
      </trkpt>
      <trkpt lat="44.146494" lon="0.625404">
        <ele>72.8</ele>
        <time>2020-08-12T21:59:14Z</time>
      </trkpt>
      <trkpt lat="44.146252" lon="0.626324">
        <ele>84.4</ele>
        <time>2020-08-12T21:59:17Z</time>
      </trkpt>
      <trkpt lat="44.14575" lon="0.628554">
        <ele>129.6</ele>
        <time>2020-08-12T21:59:24Z</time>
      </trkpt>
      <trkpt lat="44.14549" lon="0.629512">
        <ele>129.4</ele>
        <time>2020-08-12T21:59:27Z</time>
      </trkpt>
      <trkpt lat="44.145229" lon="0.630322">
        <ele>127.4</ele>
        <time>2020-08-12T21:59:30Z</time>
      </trkpt>
      <trkpt lat="44.144784" lon="0.631299">
        <ele>137.2</ele>
        <time>2020-08-12T21:59:34Z</time>
      </trkpt>
      <trkpt lat="44.144342" lon="0.632031">
        <ele>131.2</ele>
        <time>2020-08-12T21:59:37Z</time>
      </trkpt>
      <trkpt lat="44.143872" lon="0.632718">
        <ele>134.4</ele>
        <time>2020-08-12T21:59:40Z</time>
      </trkpt>
      <trkpt lat="44.142897" lon="0.633972">
        <ele>138.0</ele>
        <time>2020-08-12T21:59:45Z</time>
      </trkpt>
      <trkpt lat="44.142349" lon="0.634703">
        <ele>139.0</ele>
        <time>2020-08-12T21:59:49Z</time>
      </trkpt>
      <trkpt lat="44.141865" lon="0.63543">
        <ele>131.6</ele>
        <time>2020-08-12T21:59:52Z</time>
      </trkpt>
      <trkpt lat="44.141466" lon="0.636192">
        <ele>129.8</ele>
        <time>2020-08-12T21:59:55Z</time>
      </trkpt>
      <trkpt lat="44.141111" lon="0.637048">
        <ele>124.2</ele>
        <time>2020-08-12T21:59:58Z</time>
      </trkpt>
      <trkpt lat="44.140791" lon="0.638143">
        <ele>117.4</ele>
        <time>2020-08-12T22:00:02Z</time>
      </trkpt>
      <trkpt lat="44.140662" lon="0.638753">
        <ele>114.6</ele>
        <time>2020-08-12T22:00:04Z</time>
      </trkpt>
      <trkpt lat="44.140573" lon="0.639334">
        <ele>110.0</ele>
        <time>2020-08-12T22:00:05Z</time>
      </trkpt>
      <trkpt lat="44.140496" lon="0.640205">
        <ele>105.2</ele>
        <time>2020-08-12T22:00:08Z</time>
      </trkpt>
      <trkpt lat="44.140491" lon="0.641223">
        <ele>104.4</ele>
        <time>2020-08-12T22:00:11Z</time>
      </trkpt>
      <trkpt lat="44.140572" lon="0.642167">
        <ele>108.4</ele>
        <time>2020-08-12T22:00:14Z</time>
      </trkpt>
      <trkpt lat="44.140731" lon="0.643138">
        <ele>111.8</ele>
        <time>2020-08-12T22:00:17Z</time>
      </trkpt>
      <trkpt lat="44.141081" lon="0.644665">
        <ele>97.6</ele>
        <time>2020-08-12T22:00:22Z</time>
      </trkpt>
      <trkpt lat="44.142469" lon="0.65032">
        <ele>76.8</ele>
        <time>2020-08-12T22:00:41Z</time>
      </trkpt>
      <trkpt lat="44.142737" lon="0.6517">
        <ele>66.2</ele>
        <time>2020-08-12T22:00:46Z</time>
      </trkpt>
      <trkpt lat="44.142957" lon="0.65329">
        <ele>62.4</ele>
        <time>2020-08-12T22:00:51Z</time>
      </trkpt>
      <trkpt lat="44.143085" lon="0.655044">
        <ele>49.2</ele>
        <time>2020-08-12T22:00:56Z</time>
      </trkpt>
      <trkpt lat="44.143104" lon="0.655942">
        <ele>46.2</ele>
        <time>2020-08-12T22:00:59Z</time>
      </trkpt>
      <trkpt lat="44.143091" lon="0.656954">
        <ele>44.8</ele>
        <time>2020-08-12T22:01:02Z</time>
      </trkpt>
      <trkpt lat="44.142984" lon="0.658377">
        <ele>45.8</ele>
        <time>2020-08-12T22:01:06Z</time>
      </trkpt>
      <trkpt lat="44.142859" lon="0.659487">
        <ele>46.2</ele>
        <time>2020-08-12T22:01:10Z</time>
      </trkpt>
      <trkpt lat="44.142651" lon="0.660783">
        <ele>46.8</ele>
        <time>2020-08-12T22:01:14Z</time>
      </trkpt>
      <trkpt lat="44.14255" lon="0.661295">
        <ele>47.8</ele>
        <time>2020-08-12T22:01:16Z</time>
      </trkpt>
      <trkpt lat="44.142265" lon="0.662511">
        <ele>47.2</ele>
        <time>2020-08-12T22:01:20Z</time>
      </trkpt>
      <trkpt lat="44.142013" lon="0.663359">
        <ele>47.8</ele>
        <time>2020-08-12T22:01:23Z</time>
      </trkpt>
      <trkpt lat="44.1416" lon="0.664571">
        <ele>49.2</ele>
        <time>2020-08-12T22:01:27Z</time>
      </trkpt>
      <trkpt lat="44.141218" lon="0.665526">
        <ele>50.0</ele>
        <time>2020-08-12T22:01:30Z</time>
      </trkpt>
      <trkpt lat="44.140822" lon="0.666399">
        <ele>49.4</ele>
        <time>2020-08-12T22:01:33Z</time>
      </trkpt>
      <trkpt lat="44.140292" lon="0.667408">
        <ele>49.8</ele>
        <time>2020-08-12T22:01:37Z</time>
      </trkpt>
      <trkpt lat="44.139867" lon="0.668134">
        <ele>48.6</ele>
        <time>2020-08-12T22:01:40Z</time>
      </trkpt>
      <trkpt lat="44.139317" lon="0.669013">
        <ele>49.0</ele>
        <time>2020-08-12T22:01:44Z</time>
      </trkpt>
      <trkpt lat="44.138602" lon="0.670029">
        <ele>50.6</ele>
        <time>2020-08-12T22:01:48Z</time>
      </trkpt>
      <trkpt lat="44.137817" lon="0.671101">
        <ele>50.0</ele>
        <time>2020-08-12T22:01:53Z</time>
      </trkpt>
      <trkpt lat="44.136116" lon="0.673349">
        <ele>49.0</ele>
        <time>2020-08-12T22:02:03Z</time>
      </trkpt>
      <trkpt lat="44.135295" lon="0.674504">
        <ele>48.0</ele>
        <time>2020-08-12T22:02:08Z</time>
      </trkpt>
      <trkpt lat="44.134516" lon="0.675662">
        <ele>48.4</ele>
        <time>2020-08-12T22:02:13Z</time>
      </trkpt>
      <trkpt lat="44.133949" lon="0.676537">
        <ele>54.0</ele>
        <time>2020-08-12T22:02:17Z</time>
      </trkpt>
      <trkpt lat="44.13274" lon="0.678576">
        <ele>57.8</ele>
        <time>2020-08-12T22:02:25Z</time>
      </trkpt>
      <trkpt lat="44.131979" lon="0.680001">
        <ele>59.4</ele>
        <time>2020-08-12T22:02:31Z</time>
      </trkpt>
      <trkpt lat="44.131151" lon="0.681657">
        <ele>66.2</ele>
        <time>2020-08-12T22:02:37Z</time>
      </trkpt>
      <trkpt lat="44.13033" lon="0.68345">
        <ele>61.0</ele>
        <time>2020-08-12T22:02:44Z</time>
      </trkpt>
      <trkpt lat="44.129538" lon="0.685369">
        <ele>62.4</ele>
        <time>2020-08-12T22:02:50Z</time>
      </trkpt>
      <trkpt lat="44.128758" lon="0.68748">
        <ele>69.4</ele>
        <time>2020-08-12T22:02:58Z</time>
      </trkpt>
      <trkpt lat="44.128139" lon="0.68934">
        <ele>71.2</ele>
        <time>2020-08-12T22:03:04Z</time>
      </trkpt>
      <trkpt lat="44.127411" lon="0.691609">
        <ele>70.4</ele>
        <time>2020-08-12T22:03:12Z</time>
      </trkpt>
      <trkpt lat="44.126415" lon="0.694937">
        <ele>61.6</ele>
        <time>2020-08-12T22:03:23Z</time>
      </trkpt>
      <trkpt lat="44.125744" lon="0.697236">
        <ele>69.8</ele>
        <time>2020-08-12T22:03:31Z</time>
      </trkpt>
      <trkpt lat="44.125314" lon="0.698772">
        <ele>65.0</ele>
        <time>2020-08-12T22:03:36Z</time>
      </trkpt>
      <trkpt lat="44.124904" lon="0.700376">
        <ele>68.2</ele>
        <time>2020-08-12T22:03:41Z</time>
      </trkpt>
      <trkpt lat="44.124586" lon="0.701794">
        <ele>61.4</ele>
        <time>2020-08-12T22:03:46Z</time>
      </trkpt>
      <trkpt lat="44.123577" lon="0.706641">
        <ele>57.6</ele>
        <time>2020-08-12T22:04:02Z</time>
      </trkpt>
      <trkpt lat="44.122911" lon="0.709754">
        <ele>58.0</ele>
        <time>2020-08-12T22:04:12Z</time>
      </trkpt>
      <trkpt lat="44.122507" lon="0.711376">
        <ele>56.6</ele>
        <time>2020-08-12T22:04:17Z</time>
      </trkpt>
      <trkpt lat="44.12205" lon="0.713025">
        <ele>68.2</ele>
        <time>2020-08-12T22:04:23Z</time>
      </trkpt>
      <trkpt lat="44.121542" lon="0.714742">
        <ele>72.8</ele>
        <time>2020-08-12T22:04:29Z</time>
      </trkpt>
      <trkpt lat="44.120961" lon="0.716458">
        <ele>64.2</ele>
        <time>2020-08-12T22:04:34Z</time>
      </trkpt>
      <trkpt lat="44.120316" lon="0.718114">
        <ele>61.4</ele>
        <time>2020-08-12T22:04:40Z</time>
      </trkpt>
      <trkpt lat="44.119621" lon="0.719672">
        <ele>57.0</ele>
        <time>2020-08-12T22:04:46Z</time>
      </trkpt>
      <trkpt lat="44.119139" lon="0.720593">
        <ele>57.4</ele>
        <time>2020-08-12T22:04:50Z</time>
      </trkpt>
      <trkpt lat="44.118606" lon="0.721516">
        <ele>58.8</ele>
        <time>2020-08-12T22:04:53Z</time>
      </trkpt>
      <trkpt lat="44.118047" lon="0.722397">
        <ele>66.6</ele>
        <time>2020-08-12T22:04:57Z</time>
      </trkpt>
      <trkpt lat="44.117149" lon="0.723667">
        <ele>75.8</ele>
        <time>2020-08-12T22:05:03Z</time>
      </trkpt>
      <trkpt lat="44.11498" lon="0.726308">
        <ele>87.8</ele>
        <time>2020-08-12T22:05:15Z</time>
      </trkpt>
      <trkpt lat="44.114249" lon="0.727228">
        <ele>83.6</ele>
        <time>2020-08-12T22:05:19Z</time>
      </trkpt>
      <trkpt lat="44.113489" lon="0.728238">
        <ele>86.4</ele>
        <time>2020-08-12T22:05:24Z</time>
      </trkpt>
      <trkpt lat="44.112617" lon="0.729623">
        <ele>86.4</ele>
        <time>2020-08-12T22:05:30Z</time>
      </trkpt>
      <trkpt lat="44.11187" lon="0.730959">
        <ele>84.2</ele>
        <time>2020-08-12T22:05:35Z</time>
      </trkpt>
      <trkpt lat="44.111083" lon="0.732621">
        <ele>81.4</ele>
        <time>2020-08-12T22:05:41Z</time>
      </trkpt>
      <trkpt lat="44.110776" lon="0.733341">
        <ele>81.6</ele>
        <time>2020-08-12T22:05:44Z</time>
      </trkpt>
      <trkpt lat="44.110202" lon="0.734865">
        <ele>80.2</ele>
        <time>2020-08-12T22:05:49Z</time>
      </trkpt>
      <trkpt lat="44.109892" lon="0.735836">
        <ele>79.4</ele>
        <time>2020-08-12T22:05:52Z</time>
      </trkpt>
      <trkpt lat="44.109619" lon="0.736783">
        <ele>78.6</ele>
        <time>2020-08-12T22:05:56Z</time>
      </trkpt>
      <trkpt lat="44.109381" lon="0.737713">
        <ele>77.6</ele>
        <time>2020-08-12T22:05:59Z</time>
      </trkpt>
      <trkpt lat="44.108891" lon="0.739971">
        <ele>76.0</ele>
        <time>2020-08-12T22:06:06Z</time>
      </trkpt>
      <trkpt lat="44.104275" lon="0.762553">
        <ele>83.6</ele>
        <time>2020-08-12T22:07:19Z</time>
      </trkpt>
      <trkpt lat="44.103506" lon="0.766177">
        <ele>88.8</ele>
        <time>2020-08-12T22:07:31Z</time>
      </trkpt>
      <trkpt lat="44.103025" lon="0.76801">
        <ele>90.8</ele>
        <time>2020-08-12T22:07:37Z</time>
      </trkpt>
      <trkpt lat="44.102657" lon="0.769276">
        <ele>87.2</ele>
        <time>2020-08-12T22:07:41Z</time>
      </trkpt>
      <trkpt lat="44.102131" lon="0.770768">
        <ele>91.4</ele>
        <time>2020-08-12T22:07:46Z</time>
      </trkpt>
      <trkpt lat="44.101406" lon="0.772539">
        <ele>89.8</ele>
        <time>2020-08-12T22:07:53Z</time>
      </trkpt>
      <trkpt lat="44.100631" lon="0.774158">
        <ele>95.4</ele>
        <time>2020-08-12T22:07:59Z</time>
      </trkpt>
      <trkpt lat="44.099717" lon="0.775801">
        <ele>95.4</ele>
        <time>2020-08-12T22:08:05Z</time>
      </trkpt>
      <trkpt lat="44.098645" lon="0.777485">
        <ele>92.8</ele>
        <time>2020-08-12T22:08:12Z</time>
      </trkpt>
      <trkpt lat="44.096558" lon="0.780465">
        <ele>94.8</ele>
        <time>2020-08-12T22:08:25Z</time>
      </trkpt>
      <trkpt lat="44.095843" lon="0.781539">
        <ele>96.2</ele>
        <time>2020-08-12T22:08:30Z</time>
      </trkpt>
      <trkpt lat="44.094904" lon="0.783142">
        <ele>103.2</ele>
        <time>2020-08-12T22:08:36Z</time>
      </trkpt>
      <trkpt lat="44.092677" lon="0.787334">
        <ele>101.6</ele>
        <time>2020-08-12T22:08:53Z</time>
      </trkpt>
      <trkpt lat="44.091869" lon="0.788716">
        <ele>100.6</ele>
        <time>2020-08-12T22:08:58Z</time>
      </trkpt>
      <trkpt lat="44.091215" lon="0.789692">
        <ele>104.8</ele>
        <time>2020-08-12T22:09:02Z</time>
      </trkpt>
      <trkpt lat="44.090515" lon="0.790649">
        <ele>108.6</ele>
        <time>2020-08-12T22:09:07Z</time>
      </trkpt>
      <trkpt lat="44.089835" lon="0.791475">
        <ele>109.4</ele>
        <time>2020-08-12T22:09:10Z</time>
      </trkpt>
      <trkpt lat="44.088505" lon="0.792874">
        <ele>104.8</ele>
        <time>2020-08-12T22:09:18Z</time>
      </trkpt>
      <trkpt lat="44.087647" lon="0.79364">
        <ele>109.8</ele>
        <time>2020-08-12T22:09:22Z</time>
      </trkpt>
      <trkpt lat="44.086811" lon="0.794294">
        <ele>116.2</ele>
        <time>2020-08-12T22:09:26Z</time>
      </trkpt>
      <trkpt lat="44.085941" lon="0.794903">
        <ele>122.4</ele>
        <time>2020-08-12T22:09:31Z</time>
      </trkpt>
      <trkpt lat="44.084819" lon="0.795592">
        <ele>134.0</ele>
        <time>2020-08-12T22:09:36Z</time>
      </trkpt>
      <trkpt lat="44.082869" lon="0.796695">
        <ele>143.0</ele>
        <time>2020-08-12T22:09:45Z</time>
      </trkpt>
      <trkpt lat="44.081599" lon="0.797493">
        <ele>157.0</ele>
        <time>2020-08-12T22:09:51Z</time>
      </trkpt>
      <trkpt lat="44.080996" lon="0.797915">
        <ele>153.6</ele>
        <time>2020-08-12T22:09:54Z</time>
      </trkpt>
      <trkpt lat="44.080136" lon="0.798579">
        <ele>154.0</ele>
        <time>2020-08-12T22:09:58Z</time>
      </trkpt>
      <trkpt lat="44.079152" lon="0.799432">
        <ele>155.4</ele>
        <time>2020-08-12T22:10:03Z</time>
      </trkpt>
      <trkpt lat="44.077963" lon="0.80063">
        <ele>155.4</ele>
        <time>2020-08-12T22:10:10Z</time>
      </trkpt>
      <trkpt lat="44.077158" lon="0.801549">
        <ele>154.2</ele>
        <time>2020-08-12T22:10:14Z</time>
      </trkpt>
      <trkpt lat="44.076009" lon="0.803058">
        <ele>143.2</ele>
        <time>2020-08-12T22:10:21Z</time>
      </trkpt>
      <trkpt lat="44.074996" lon="0.804578">
        <ele>121.4</ele>
        <time>2020-08-12T22:10:28Z</time>
      </trkpt>
      <trkpt lat="44.074114" lon="0.806133">
        <ele>115.6</ele>
        <time>2020-08-12T22:10:34Z</time>
      </trkpt>
      <trkpt lat="44.073362" lon="0.807612">
        <ele>116.6</ele>
        <time>2020-08-12T22:10:39Z</time>
      </trkpt>
      <trkpt lat="44.072715" lon="0.809148">
        <ele>126.8</ele>
        <time>2020-08-12T22:10:45Z</time>
      </trkpt>
      <trkpt lat="44.072174" lon="0.810576">
        <ele>128.6</ele>
        <time>2020-08-12T22:10:50Z</time>
      </trkpt>
      <trkpt lat="44.071824" lon="0.811638">
        <ele>123.0</ele>
        <time>2020-08-12T22:10:54Z</time>
      </trkpt>
      <trkpt lat="44.071511" lon="0.812713">
        <ele>120.8</ele>
        <time>2020-08-12T22:10:57Z</time>
      </trkpt>
      <trkpt lat="44.07113" lon="0.814159">
        <ele>117.8</ele>
        <time>2020-08-12T22:11:02Z</time>
      </trkpt>
      <trkpt lat="44.070754" lon="0.815877">
        <ele>127.6</ele>
        <time>2020-08-12T22:11:08Z</time>
      </trkpt>
      <trkpt lat="44.07052" lon="0.817082">
        <ele>135.0</ele>
        <time>2020-08-12T22:11:12Z</time>
      </trkpt>
      <trkpt lat="44.070309" lon="0.818348">
        <ele>150.8</ele>
        <time>2020-08-12T22:11:16Z</time>
      </trkpt>
      <trkpt lat="44.070093" lon="0.820019">
        <ele>155.2</ele>
        <time>2020-08-12T22:11:21Z</time>
      </trkpt>
      <trkpt lat="44.069929" lon="0.821625">
        <ele>158.8</ele>
        <time>2020-08-12T22:11:26Z</time>
      </trkpt>
      <trkpt lat="44.069805" lon="0.823421">
        <ele>155.8</ele>
        <time>2020-08-12T22:11:32Z</time>
      </trkpt>
      <trkpt lat="44.069739" lon="0.824955">
        <ele>153.4</ele>
        <time>2020-08-12T22:11:36Z</time>
      </trkpt>
      <trkpt lat="44.069702" lon="0.826525">
        <ele>149.6</ele>
        <time>2020-08-12T22:11:41Z</time>
      </trkpt>
      <trkpt lat="44.069628" lon="0.831847">
        <ele>154.0</ele>
        <time>2020-08-12T22:11:58Z</time>
      </trkpt>
      <trkpt lat="44.06956" lon="0.833961">
        <ele>153.4</ele>
        <time>2020-08-12T22:12:05Z</time>
      </trkpt>
      <trkpt lat="44.069468" lon="0.836106">
        <ele>147.4</ele>
        <time>2020-08-12T22:12:11Z</time>
      </trkpt>
      <trkpt lat="44.0693" lon="0.838622">
        <ele>148.0</ele>
        <time>2020-08-12T22:12:19Z</time>
      </trkpt>
      <trkpt lat="44.069053" lon="0.84119">
        <ele>149.8</ele>
        <time>2020-08-12T22:12:27Z</time>
      </trkpt>
      <trkpt lat="44.068775" lon="0.843445">
        <ele>135.6</ele>
        <time>2020-08-12T22:12:34Z</time>
      </trkpt>
      <trkpt lat="44.068614" lon="0.844594">
        <ele>132.0</ele>
        <time>2020-08-12T22:12:38Z</time>
      </trkpt>
      <trkpt lat="44.068424" lon="0.845755">
        <ele>129.0</ele>
        <time>2020-08-12T22:12:42Z</time>
      </trkpt>
      <trkpt lat="44.068136" lon="0.847293">
        <ele>120.2</ele>
        <time>2020-08-12T22:12:47Z</time>
      </trkpt>
      <trkpt lat="44.067781" lon="0.848833">
        <ele>112.4</ele>
        <time>2020-08-12T22:12:52Z</time>
      </trkpt>
      <trkpt lat="44.067387" lon="0.850261">
        <ele>110.2</ele>
        <time>2020-08-12T22:12:57Z</time>
      </trkpt>
      <trkpt lat="44.066941" lon="0.851585">
        <ele>106.0</ele>
        <time>2020-08-12T22:13:01Z</time>
      </trkpt>
      <trkpt lat="44.06643" lon="0.852914">
        <ele>94.8</ele>
        <time>2020-08-12T22:13:06Z</time>
      </trkpt>
      <trkpt lat="44.065733" lon="0.85452">
        <ele>78.8</ele>
        <time>2020-08-12T22:13:12Z</time>
      </trkpt>
      <trkpt lat="44.057932" lon="0.872063">
        <ele>123.6</ele>
        <time>2020-08-12T22:14:16Z</time>
      </trkpt>
      <trkpt lat="44.057117" lon="0.873954">
        <ele>135.8</ele>
        <time>2020-08-12T22:14:23Z</time>
      </trkpt>
      <trkpt lat="44.056663" lon="0.875214">
        <ele>137.6</ele>
        <time>2020-08-12T22:14:27Z</time>
      </trkpt>
      <trkpt lat="44.056348" lon="0.876291">
        <ele>135.8</ele>
        <time>2020-08-12T22:14:31Z</time>
      </trkpt>
      <trkpt lat="44.056202" lon="0.876866">
        <ele>134.4</ele>
        <time>2020-08-12T22:14:33Z</time>
      </trkpt>
      <trkpt lat="44.056083" lon="0.87742">
        <ele>134.4</ele>
        <time>2020-08-12T22:14:35Z</time>
      </trkpt>
      <trkpt lat="44.055917" lon="0.878355">
        <ele>130.4</ele>
        <time>2020-08-12T22:14:38Z</time>
      </trkpt>
      <trkpt lat="44.055804" lon="0.879218">
        <ele>129.4</ele>
        <time>2020-08-12T22:14:40Z</time>
      </trkpt>
      <trkpt lat="44.055727" lon="0.880067">
        <ele>124.2</ele>
        <time>2020-08-12T22:14:43Z</time>
      </trkpt>
      <trkpt lat="44.055687" lon="0.880937">
        <ele>120.0</ele>
        <time>2020-08-12T22:14:46Z</time>
      </trkpt>
      <trkpt lat="44.055691" lon="0.882162">
        <ele>119.8</ele>
        <time>2020-08-12T22:14:50Z</time>
      </trkpt>
      <trkpt lat="44.05577" lon="0.883528">
        <ele>127.4</ele>
        <time>2020-08-12T22:14:54Z</time>
      </trkpt>
      <trkpt lat="44.055888" lon="0.884485">
        <ele>122.8</ele>
        <time>2020-08-12T22:14:57Z</time>
      </trkpt>
      <trkpt lat="44.056045" lon="0.885399">
        <ele>128.2</ele>
        <time>2020-08-12T22:15:00Z</time>
      </trkpt>
      <trkpt lat="44.056234" lon="0.886286">
        <ele>133.6</ele>
        <time>2020-08-12T22:15:03Z</time>
      </trkpt>
      <trkpt lat="44.056498" lon="0.887295">
        <ele>135.2</ele>
        <time>2020-08-12T22:15:06Z</time>
      </trkpt>
      <trkpt lat="44.056933" lon="0.888769">
        <ele>125.8</ele>
        <time>2020-08-12T22:15:11Z</time>
      </trkpt>
      <trkpt lat="44.058213" lon="0.892589">
        <ele>124.8</ele>
        <time>2020-08-12T22:15:24Z</time>
      </trkpt>
      <trkpt lat="44.058669" lon="0.893892">
        <ele>108.4</ele>
        <time>2020-08-12T22:15:29Z</time>
      </trkpt>
      <trkpt lat="44.059296" lon="0.895934">
        <ele>110.8</ele>
        <time>2020-08-12T22:15:36Z</time>
      </trkpt>
      <trkpt lat="44.05949" lon="0.896806">
        <ele>117.2</ele>
        <time>2020-08-12T22:15:39Z</time>
      </trkpt>
      <trkpt lat="44.059635" lon="0.897624">
        <ele>125.0</ele>
        <time>2020-08-12T22:15:41Z</time>
      </trkpt>
      <trkpt lat="44.059743" lon="0.898405">
        <ele>131.4</ele>
        <time>2020-08-12T22:15:44Z</time>
      </trkpt>
      <trkpt lat="44.059821" lon="0.89921">
        <ele>135.4</ele>
        <time>2020-08-12T22:15:46Z</time>
      </trkpt>
      <trkpt lat="44.059886" lon="0.900504">
        <ele>136.8</ele>
        <time>2020-08-12T22:15:50Z</time>
      </trkpt>
      <trkpt lat="44.059886" lon="0.901693">
        <ele>135.6</ele>
        <time>2020-08-12T22:15:54Z</time>
      </trkpt>
      <trkpt lat="44.059805" lon="0.904249">
        <ele>140.0</ele>
        <time>2020-08-12T22:16:02Z</time>
      </trkpt>
      <trkpt lat="44.059697" lon="0.905869">
        <ele>141.6</ele>
        <time>2020-08-12T22:16:07Z</time>
      </trkpt>
      <trkpt lat="44.059559" lon="0.907493">
        <ele>139.8</ele>
        <time>2020-08-12T22:16:12Z</time>
      </trkpt>
      <trkpt lat="44.059323" lon="0.909746">
        <ele>126.6</ele>
        <time>2020-08-12T22:16:19Z</time>
      </trkpt>
      <trkpt lat="44.057489" lon="0.924951">
        <ele>86.0</ele>
        <time>2020-08-12T22:17:07Z</time>
      </trkpt>
      <trkpt lat="44.057359" lon="0.926202">
        <ele>91.2</ele>
        <time>2020-08-12T22:17:11Z</time>
      </trkpt>
      <trkpt lat="44.057255" lon="0.927651">
        <ele>92.4</ele>
        <time>2020-08-12T22:17:16Z</time>
      </trkpt>
      <trkpt lat="44.057218" lon="0.92905">
        <ele>91.6</ele>
        <time>2020-08-12T22:17:20Z</time>
      </trkpt>
      <trkpt lat="44.057223" lon="0.93026">
        <ele>93.8</ele>
        <time>2020-08-12T22:17:24Z</time>
      </trkpt>
      <trkpt lat="44.057271" lon="0.931427">
        <ele>95.0</ele>
        <time>2020-08-12T22:17:28Z</time>
      </trkpt>
      <trkpt lat="44.057361" lon="0.93254">
        <ele>95.4</ele>
        <time>2020-08-12T22:17:31Z</time>
      </trkpt>
      <trkpt lat="44.057816" lon="0.937153">
        <ele>79.4</ele>
        <time>2020-08-12T22:17:46Z</time>
      </trkpt>
      <trkpt lat="44.057947" lon="0.93887">
        <ele>78.6</ele>
        <time>2020-08-12T22:17:51Z</time>
      </trkpt>
      <trkpt lat="44.057993" lon="0.940643">
        <ele>78.6</ele>
        <time>2020-08-12T22:17:57Z</time>
      </trkpt>
      <trkpt lat="44.057976" lon="0.94173">
        <ele>76.6</ele>
        <time>2020-08-12T22:18:00Z</time>
      </trkpt>
      <trkpt lat="44.057928" lon="0.942999">
        <ele>75.6</ele>
        <time>2020-08-12T22:18:04Z</time>
      </trkpt>
      <trkpt lat="44.057819" lon="0.944298">
        <ele>74.6</ele>
        <time>2020-08-12T22:18:08Z</time>
      </trkpt>
      <trkpt lat="44.057671" lon="0.945456">
        <ele>75.0</ele>
        <time>2020-08-12T22:18:12Z</time>
      </trkpt>
      <trkpt lat="44.057513" lon="0.946497">
        <ele>76.6</ele>
        <time>2020-08-12T22:18:15Z</time>
      </trkpt>
      <trkpt lat="44.05725" lon="0.947837">
        <ele>77.4</ele>
        <time>2020-08-12T22:18:19Z</time>
      </trkpt>
      <trkpt lat="44.056878" lon="0.949401">
        <ele>76.6</ele>
        <time>2020-08-12T22:18:25Z</time>
      </trkpt>
      <trkpt lat="44.056428" lon="0.95101">
        <ele>77.0</ele>
        <time>2020-08-12T22:18:30Z</time>
      </trkpt>
      <trkpt lat="44.055886" lon="0.952829">
        <ele>78.4</ele>
        <time>2020-08-12T22:18:36Z</time>
      </trkpt>
      <trkpt lat="44.055131" lon="0.955455">
        <ele>78.4</ele>
        <time>2020-08-12T22:18:45Z</time>
      </trkpt>
      <trkpt lat="44.054675" lon="0.957129">
        <ele>78.6</ele>
        <time>2020-08-12T22:18:50Z</time>
      </trkpt>
      <trkpt lat="44.054278" lon="0.958813">
        <ele>79.2</ele>
        <time>2020-08-12T22:18:56Z</time>
      </trkpt>
      <trkpt lat="44.05388" lon="0.960652">
        <ele>79.2</ele>
        <time>2020-08-12T22:19:02Z</time>
      </trkpt>
      <trkpt lat="44.053574" lon="0.96234">
        <ele>79.8</ele>
        <time>2020-08-12T22:19:07Z</time>
      </trkpt>
      <trkpt lat="44.052254" lon="0.970304">
        <ele>72.8</ele>
        <time>2020-08-12T22:19:33Z</time>
      </trkpt>
      <trkpt lat="44.051818" lon="0.972694">
        <ele>81.4</ele>
        <time>2020-08-12T22:19:41Z</time>
      </trkpt>
      <trkpt lat="44.051237" lon="0.97538">
        <ele>81.6</ele>
        <time>2020-08-12T22:19:49Z</time>
      </trkpt>
      <trkpt lat="44.050704" lon="0.977522">
        <ele>80.6</ele>
        <time>2020-08-12T22:19:56Z</time>
      </trkpt>
      <trkpt lat="44.050156" lon="0.979488">
        <ele>79.2</ele>
        <time>2020-08-12T22:20:03Z</time>
      </trkpt>
      <trkpt lat="44.049551" lon="0.981481">
        <ele>79.4</ele>
        <time>2020-08-12T22:20:10Z</time>
      </trkpt>
      <trkpt lat="44.048888" lon="0.983464">
        <ele>80.0</ele>
        <time>2020-08-12T22:20:17Z</time>
      </trkpt>
      <trkpt lat="44.046599" lon="0.989755">
        <ele>80.8</ele>
        <time>2020-08-12T22:20:39Z</time>
      </trkpt>
      <trkpt lat="44.04546" lon="0.99299">
        <ele>80.2</ele>
        <time>2020-08-12T22:20:50Z</time>
      </trkpt>
      <trkpt lat="44.044996" lon="0.9944">
        <ele>79.6</ele>
        <time>2020-08-12T22:20:55Z</time>
      </trkpt>
      <trkpt lat="44.044601" lon="0.995668">
        <ele>80.0</ele>
        <time>2020-08-12T22:20:59Z</time>
      </trkpt>
      <trkpt lat="44.044148" lon="0.997273">
        <ele>80.8</ele>
        <time>2020-08-12T22:21:04Z</time>
      </trkpt>
      <trkpt lat="44.043628" lon="0.999254">
        <ele>82.6</ele>
        <time>2020-08-12T22:21:11Z</time>
      </trkpt>
      <trkpt lat="44.043377" lon="1.000338">
        <ele>81.8</ele>
        <time>2020-08-12T22:21:14Z</time>
      </trkpt>
      <trkpt lat="44.04282" lon="1.00296">
        <ele>80.8</ele>
        <time>2020-08-12T22:21:23Z</time>
      </trkpt>
      <trkpt lat="44.042321" lon="1.005682">
        <ele>82.8</ele>
        <time>2020-08-12T22:21:32Z</time>
      </trkpt>
      <trkpt lat="44.041892" lon="1.008666">
        <ele>82.4</ele>
        <time>2020-08-12T22:21:41Z</time>
      </trkpt>
      <trkpt lat="44.041702" lon="1.010209">
        <ele>81.8</ele>
        <time>2020-08-12T22:21:46Z</time>
      </trkpt>
      <trkpt lat="44.041509" lon="1.012045">
        <ele>83.2</ele>
        <time>2020-08-12T22:21:52Z</time>
      </trkpt>
      <trkpt lat="44.041054" lon="1.016909">
        <ele>84.2</ele>
        <time>2020-08-12T22:22:07Z</time>
      </trkpt>
      <trkpt lat="44.040383" lon="1.024226">
        <ele>83.4</ele>
        <time>2020-08-12T22:22:30Z</time>
      </trkpt>
      <trkpt lat="44.040201" lon="1.026438">
        <ele>83.0</ele>
        <time>2020-08-12T22:22:37Z</time>
      </trkpt>
      <trkpt lat="44.040052" lon="1.028702">
        <ele>83.4</ele>
        <time>2020-08-12T22:22:44Z</time>
      </trkpt>
      <trkpt lat="44.039973" lon="1.030378">
        <ele>83.6</ele>
        <time>2020-08-12T22:22:49Z</time>
      </trkpt>
      <trkpt lat="44.039925" lon="1.032266">
        <ele>83.4</ele>
        <time>2020-08-12T22:22:55Z</time>
      </trkpt>
      <trkpt lat="44.039913" lon="1.034058">
        <ele>83.2</ele>
        <time>2020-08-12T22:23:01Z</time>
      </trkpt>
      <trkpt lat="44.039954" lon="1.035892">
        <ele>81.2</ele>
        <time>2020-08-12T22:23:07Z</time>
      </trkpt>
      <trkpt lat="44.040076" lon="1.038571">
        <ele>79.4</ele>
        <time>2020-08-12T22:23:15Z</time>
      </trkpt>
      <trkpt lat="44.040294" lon="1.041465">
        <ele>79.0</ele>
        <time>2020-08-12T22:23:24Z</time>
      </trkpt>
      <trkpt lat="44.040504" lon="1.043462">
        <ele>79.6</ele>
        <time>2020-08-12T22:23:30Z</time>
      </trkpt>
      <trkpt lat="44.040799" lon="1.045692">
        <ele>79.6</ele>
        <time>2020-08-12T22:23:37Z</time>
      </trkpt>
      <trkpt lat="44.041474" lon="1.049774">
        <ele>76.2</ele>
        <time>2020-08-12T22:23:51Z</time>
      </trkpt>
      <trkpt lat="44.042336" lon="1.054231">
        <ele>70.0</ele>
        <time>2020-08-12T22:24:05Z</time>
      </trkpt>
      <trkpt lat="44.044943" lon="1.068059">
        <ele>69.4</ele>
        <time>2020-08-12T22:24:50Z</time>
      </trkpt>
      <trkpt lat="44.046508" lon="1.076222">
        <ele>69.6</ele>
        <time>2020-08-12T22:25:16Z</time>
      </trkpt>
      <trkpt lat="44.047029" lon="1.078796">
        <ele>70.4</ele>
        <time>2020-08-12T22:25:24Z</time>
      </trkpt>
      <trkpt lat="44.047303" lon="1.080029">
        <ele>70.0</ele>
        <time>2020-08-12T22:25:28Z</time>
      </trkpt>
      <trkpt lat="44.047648" lon="1.081487">
        <ele>70.8</ele>
        <time>2020-08-12T22:25:33Z</time>
      </trkpt>
      <trkpt lat="44.048449" lon="1.084383">
        <ele>71.2</ele>
        <time>2020-08-12T22:25:43Z</time>
      </trkpt>
      <trkpt lat="44.048867" lon="1.085801">
        <ele>72.4</ele>
        <time>2020-08-12T22:25:47Z</time>
      </trkpt>
      <trkpt lat="44.049466" lon="1.087574">
        <ele>72.6</ele>
        <time>2020-08-12T22:25:54Z</time>
      </trkpt>
      <trkpt lat="44.050108" lon="1.089321">
        <ele>73.4</ele>
        <time>2020-08-12T22:26:00Z</time>
      </trkpt>
      <trkpt lat="44.051264" lon="1.092297">
        <ele>81.4</ele>
        <time>2020-08-12T22:26:10Z</time>
      </trkpt>
      <trkpt lat="44.052095" lon="1.094297">
        <ele>81.2</ele>
        <time>2020-08-12T22:26:17Z</time>
      </trkpt>
      <trkpt lat="44.052913" lon="1.096394">
        <ele>80.8</ele>
        <time>2020-08-12T22:26:25Z</time>
      </trkpt>
      <trkpt lat="44.054036" lon="1.099151">
        <ele>82.8</ele>
        <time>2020-08-12T22:26:35Z</time>
      </trkpt>
      <trkpt lat="44.054378" lon="1.099945">
        <ele>83.2</ele>
        <time>2020-08-12T22:26:38Z</time>
      </trkpt>
      <trkpt lat="44.054976" lon="1.101461">
        <ele>85.8</ele>
        <time>2020-08-12T22:26:43Z</time>
      </trkpt>
      <trkpt lat="44.055368" lon="1.102661">
        <ele>84.4</ele>
        <time>2020-08-12T22:26:47Z</time>
      </trkpt>
      <trkpt lat="44.055915" lon="1.104565">
        <ele>84.2</ele>
        <time>2020-08-12T22:26:54Z</time>
      </trkpt>
      <trkpt lat="44.056105" lon="1.105323">
        <ele>84.4</ele>
        <time>2020-08-12T22:26:56Z</time>
      </trkpt>
      <trkpt lat="44.056496" lon="1.107467">
        <ele>84.2</ele>
        <time>2020-08-12T22:27:03Z</time>
      </trkpt>
      <trkpt lat="44.056679" lon="1.108701">
        <ele>83.4</ele>
        <time>2020-08-12T22:27:07Z</time>
      </trkpt>
      <trkpt lat="44.056855" lon="1.110549">
        <ele>83.8</ele>
        <time>2020-08-12T22:27:13Z</time>
      </trkpt>
      <trkpt lat="44.056914" lon="1.11239">
        <ele>84.0</ele>
        <time>2020-08-12T22:27:18Z</time>
      </trkpt>
      <trkpt lat="44.05686" lon="1.114649">
        <ele>84.2</ele>
        <time>2020-08-12T22:27:26Z</time>
      </trkpt>
      <trkpt lat="44.056802" lon="1.115773">
        <ele>84.6</ele>
        <time>2020-08-12T22:27:29Z</time>
      </trkpt>
      <trkpt lat="44.056685" lon="1.116878">
        <ele>84.2</ele>
        <time>2020-08-12T22:27:33Z</time>
      </trkpt>
      <trkpt lat="44.056475" lon="1.118348">
        <ele>84.2</ele>
        <time>2020-08-12T22:27:37Z</time>
      </trkpt>
      <trkpt lat="44.056176" lon="1.12">
        <ele>84.6</ele>
        <time>2020-08-12T22:27:43Z</time>
      </trkpt>
      <trkpt lat="44.055677" lon="1.122201">
        <ele>83.8</ele>
        <time>2020-08-12T22:27:50Z</time>
      </trkpt>
      <trkpt lat="44.055167" lon="1.124218">
        <ele>83.6</ele>
        <time>2020-08-12T22:27:56Z</time>
      </trkpt>
      <trkpt lat="44.054714" lon="1.125827">
        <ele>83.4</ele>
        <time>2020-08-12T22:28:02Z</time>
      </trkpt>
      <trkpt lat="44.054208" lon="1.127454">
        <ele>84.0</ele>
        <time>2020-08-12T22:28:07Z</time>
      </trkpt>
      <trkpt lat="44.053625" lon="1.12916">
        <ele>84.0</ele>
        <time>2020-08-12T22:28:13Z</time>
      </trkpt>
      <trkpt lat="44.052878" lon="1.131195">
        <ele>84.4</ele>
        <time>2020-08-12T22:28:20Z</time>
      </trkpt>
      <trkpt lat="44.051994" lon="1.133341">
        <ele>85.6</ele>
        <time>2020-08-12T22:28:28Z</time>
      </trkpt>
      <trkpt lat="44.05115" lon="1.135231">
        <ele>87.4</ele>
        <time>2020-08-12T22:28:35Z</time>
      </trkpt>
      <trkpt lat="44.050154" lon="1.137233">
        <ele>90.0</ele>
        <time>2020-08-12T22:28:43Z</time>
      </trkpt>
      <trkpt lat="44.048971" lon="1.13942">
        <ele>88.4</ele>
        <time>2020-08-12T22:28:51Z</time>
      </trkpt>
      <trkpt lat="44.047658" lon="1.14156">
        <ele>88.4</ele>
        <time>2020-08-12T22:29:00Z</time>
      </trkpt>
      <trkpt lat="44.046529" lon="1.143299">
        <ele>89.0</ele>
        <time>2020-08-12T22:29:07Z</time>
      </trkpt>
      <trkpt lat="44.045643" lon="1.144537">
        <ele>89.2</ele>
        <time>2020-08-12T22:29:13Z</time>
      </trkpt>
      <trkpt lat="44.04454" lon="1.145984">
        <ele>89.6</ele>
        <time>2020-08-12T22:29:19Z</time>
      </trkpt>
      <trkpt lat="44.042472" lon="1.148484">
        <ele>87.6</ele>
        <time>2020-08-12T22:29:31Z</time>
      </trkpt>
      <trkpt lat="44.036865" lon="1.154933">
        <ele>88.0</ele>
        <time>2020-08-12T22:30:03Z</time>
      </trkpt>
      <trkpt lat="44.028598" lon="1.164484">
        <ele>87.8</ele>
        <time>2020-08-12T22:30:49Z</time>
      </trkpt>
      <trkpt lat="44.02684" lon="1.166685">
        <ele>88.2</ele>
        <time>2020-08-12T22:31:00Z</time>
      </trkpt>
      <trkpt lat="44.026051" lon="1.167727">
        <ele>88.6</ele>
        <time>2020-08-12T22:31:04Z</time>
      </trkpt>
      <trkpt lat="44.025161" lon="1.169054">
        <ele>89.4</ele>
        <time>2020-08-12T22:31:10Z</time>
      </trkpt>
      <trkpt lat="44.02384" lon="1.171122">
        <ele>88.8</ele>
        <time>2020-08-12T22:31:19Z</time>
      </trkpt>
      <trkpt lat="44.022647" lon="1.173256">
        <ele>89.6</ele>
        <time>2020-08-12T22:31:27Z</time>
      </trkpt>
      <trkpt lat="44.021444" lon="1.175626">
        <ele>89.0</ele>
        <time>2020-08-12T22:31:36Z</time>
      </trkpt>
      <trkpt lat="44.020288" lon="1.178303">
        <ele>89.6</ele>
        <time>2020-08-12T22:31:46Z</time>
      </trkpt>
      <trkpt lat="44.019376" lon="1.180637">
        <ele>91.6</ele>
        <time>2020-08-12T22:31:54Z</time>
      </trkpt>
      <trkpt lat="44.018741" lon="1.182462">
        <ele>91.6</ele>
        <time>2020-08-12T22:32:00Z</time>
      </trkpt>
      <trkpt lat="44.018053" lon="1.184792">
        <ele>92.2</ele>
        <time>2020-08-12T22:32:08Z</time>
      </trkpt>
      <trkpt lat="44.017641" lon="1.186287">
        <ele>93.0</ele>
        <time>2020-08-12T22:32:13Z</time>
      </trkpt>
      <trkpt lat="44.01702" lon="1.189001">
        <ele>92.8</ele>
        <time>2020-08-12T22:32:22Z</time>
      </trkpt>
      <trkpt lat="44.016587" lon="1.191161">
        <ele>93.6</ele>
        <time>2020-08-12T22:32:29Z</time>
      </trkpt>
      <trkpt lat="44.015473" lon="1.196972">
        <ele>94.4</ele>
        <time>2020-08-12T22:32:48Z</time>
      </trkpt>
      <trkpt lat="44.01511" lon="1.198698">
        <ele>94.4</ele>
        <time>2020-08-12T22:32:54Z</time>
      </trkpt>
      <trkpt lat="44.014784" lon="1.20011">
        <ele>93.8</ele>
        <time>2020-08-12T22:32:58Z</time>
      </trkpt>
      <trkpt lat="44.014251" lon="1.202101">
        <ele>94.0</ele>
        <time>2020-08-12T22:33:05Z</time>
      </trkpt>
      <trkpt lat="44.013675" lon="1.204011">
        <ele>96.0</ele>
        <time>2020-08-12T22:33:11Z</time>
      </trkpt>
      <trkpt lat="44.012768" lon="1.206721">
        <ele>100.2</ele>
        <time>2020-08-12T22:33:21Z</time>
      </trkpt>
      <trkpt lat="44.01205" lon="1.208543">
        <ele>101.6</ele>
        <time>2020-08-12T22:33:27Z</time>
      </trkpt>
      <trkpt lat="44.011266" lon="1.21038">
        <ele>102.0</ele>
        <time>2020-08-12T22:33:34Z</time>
      </trkpt>
      <trkpt lat="44.010435" lon="1.212078">
        <ele>102.8</ele>
        <time>2020-08-12T22:33:40Z</time>
      </trkpt>
      <trkpt lat="44.009494" lon="1.213891">
        <ele>102.4</ele>
        <time>2020-08-12T22:33:47Z</time>
      </trkpt>
      <trkpt lat="44.008121" lon="1.216269">
        <ele>101.0</ele>
        <time>2020-08-12T22:33:57Z</time>
      </trkpt>
      <trkpt lat="44.007165" lon="1.217826">
        <ele>95.2</ele>
        <time>2020-08-12T22:34:03Z</time>
      </trkpt>
      <trkpt lat="44.006192" lon="1.2192">
        <ele>96.0</ele>
        <time>2020-08-12T22:34:09Z</time>
      </trkpt>
      <trkpt lat="44.005155" lon="1.220552">
        <ele>95.6</ele>
        <time>2020-08-12T22:34:15Z</time>
      </trkpt>
      <trkpt lat="44.003358" lon="1.222714">
        <ele>96.4</ele>
        <time>2020-08-12T22:34:26Z</time>
      </trkpt>
      <trkpt lat="44.002326" lon="1.223849">
        <ele>97.6</ele>
        <time>2020-08-12T22:34:31Z</time>
      </trkpt>
      <trkpt lat="44.000419" lon="1.225716">
        <ele>98.4</ele>
        <time>2020-08-12T22:34:41Z</time>
      </trkpt>
      <trkpt lat="43.996388" lon="1.229282">
        <ele>101.2</ele>
        <time>2020-08-12T22:35:02Z</time>
      </trkpt>
      <trkpt lat="43.994719" lon="1.230831">
        <ele>105.0</ele>
        <time>2020-08-12T22:35:11Z</time>
      </trkpt>
      <trkpt lat="43.993206" lon="1.232346">
        <ele>108.4</ele>
        <time>2020-08-12T22:35:19Z</time>
      </trkpt>
      <trkpt lat="43.991751" lon="1.233966">
        <ele>109.0</ele>
        <time>2020-08-12T22:35:27Z</time>
      </trkpt>
      <trkpt lat="43.990334" lon="1.235746">
        <ele>109.8</ele>
        <time>2020-08-12T22:35:35Z</time>
      </trkpt>
      <trkpt lat="43.989148" lon="1.237388">
        <ele>111.0</ele>
        <time>2020-08-12T22:35:43Z</time>
      </trkpt>
      <trkpt lat="43.987813" lon="1.239423">
        <ele>106.0</ele>
        <time>2020-08-12T22:35:51Z</time>
      </trkpt>
      <trkpt lat="43.986774" lon="1.241162">
        <ele>104.2</ele>
        <time>2020-08-12T22:35:58Z</time>
      </trkpt>
      <trkpt lat="43.985858" lon="1.242838">
        <ele>102.4</ele>
        <time>2020-08-12T22:36:05Z</time>
      </trkpt>
      <trkpt lat="43.985001" lon="1.244583">
        <ele>103.0</ele>
        <time>2020-08-12T22:36:11Z</time>
      </trkpt>
      <trkpt lat="43.984171" lon="1.24636">
        <ele>103.4</ele>
        <time>2020-08-12T22:36:18Z</time>
      </trkpt>
      <trkpt lat="43.982392" lon="1.250395">
        <ele>103.6</ele>
        <time>2020-08-12T22:36:33Z</time>
      </trkpt>
      <trkpt lat="43.981447" lon="1.252484">
        <ele>105.2</ele>
        <time>2020-08-12T22:36:40Z</time>
      </trkpt>
      <trkpt lat="43.981119" lon="1.253175">
        <ele>105.8</ele>
        <time>2020-08-12T22:36:43Z</time>
      </trkpt>
      <trkpt lat="43.980393" lon="1.25462">
        <ele>107.0</ele>
        <time>2020-08-12T22:36:49Z</time>
      </trkpt>
      <trkpt lat="43.979235" lon="1.256714">
        <ele>108.4</ele>
        <time>2020-08-12T22:36:57Z</time>
      </trkpt>
      <trkpt lat="43.978013" lon="1.258742">
        <ele>108.8</ele>
        <time>2020-08-12T22:37:05Z</time>
      </trkpt>
      <trkpt lat="43.976696" lon="1.260644">
        <ele>110.6</ele>
        <time>2020-08-12T22:37:13Z</time>
      </trkpt>
      <trkpt lat="43.975373" lon="1.262393">
        <ele>110.0</ele>
        <time>2020-08-12T22:37:21Z</time>
      </trkpt>
      <trkpt lat="43.97404" lon="1.263983">
        <ele>106.8</ele>
        <time>2020-08-12T22:37:29Z</time>
      </trkpt>
      <trkpt lat="43.972545" lon="1.265608">
        <ele>108.4</ele>
        <time>2020-08-12T22:37:37Z</time>
      </trkpt>
      <trkpt lat="43.968104" lon="1.270046">
        <ele>111.2</ele>
        <time>2020-08-12T22:38:01Z</time>
      </trkpt>
      <trkpt lat="43.967103" lon="1.271127">
        <ele>111.6</ele>
        <time>2020-08-12T22:38:06Z</time>
      </trkpt>
      <trkpt lat="43.965315" lon="1.2732">
        <ele>116.6</ele>
        <time>2020-08-12T22:38:16Z</time>
      </trkpt>
      <trkpt lat="43.964124" lon="1.274723">
        <ele>117.4</ele>
        <time>2020-08-12T22:38:23Z</time>
      </trkpt>
      <trkpt lat="43.962638" lon="1.276785">
        <ele>110.8</ele>
        <time>2020-08-12T22:38:33Z</time>
      </trkpt>
      <trkpt lat="43.959849" lon="1.280774">
        <ele>109.6</ele>
        <time>2020-08-12T22:38:50Z</time>
      </trkpt>
      <trkpt lat="43.958756" lon="1.28226">
        <ele>109.8</ele>
        <time>2020-08-12T22:38:57Z</time>
      </trkpt>
      <trkpt lat="43.957388" lon="1.283989">
        <ele>109.0</ele>
        <time>2020-08-12T22:39:05Z</time>
      </trkpt>
      <trkpt lat="43.956311" lon="1.285209">
        <ele>110.6</ele>
        <time>2020-08-12T22:39:11Z</time>
      </trkpt>
      <trkpt lat="43.954919" lon="1.28667">
        <ele>110.8</ele>
        <time>2020-08-12T22:39:18Z</time>
      </trkpt>
      <trkpt lat="43.953441" lon="1.288076">
        <ele>112.0</ele>
        <time>2020-08-12T22:39:26Z</time>
      </trkpt>
      <trkpt lat="43.952294" lon="1.289072">
        <ele>110.8</ele>
        <time>2020-08-12T22:39:32Z</time>
      </trkpt>
      <trkpt lat="43.950784" lon="1.290215">
        <ele>106.8</ele>
        <time>2020-08-12T22:39:39Z</time>
      </trkpt>
      <trkpt lat="43.94922" lon="1.291323">
        <ele>106.0</ele>
        <time>2020-08-12T22:39:47Z</time>
      </trkpt>
      <trkpt lat="43.94793" lon="1.29211">
        <ele>106.2</ele>
        <time>2020-08-12T22:39:53Z</time>
      </trkpt>
      <trkpt lat="43.946517" lon="1.292935">
        <ele>106.6</ele>
        <time>2020-08-12T22:40:00Z</time>
      </trkpt>
      <trkpt lat="43.942484" lon="1.29512">
        <ele>109.2</ele>
        <time>2020-08-12T22:40:18Z</time>
      </trkpt>
      <trkpt lat="43.940608" lon="1.296254">
        <ele>108.2</ele>
        <time>2020-08-12T22:40:27Z</time>
      </trkpt>
      <trkpt lat="43.939479" lon="1.297007">
        <ele>107.0</ele>
        <time>2020-08-12T22:40:33Z</time>
      </trkpt>
      <trkpt lat="43.938008" lon="1.298103">
        <ele>108.0</ele>
        <time>2020-08-12T22:40:40Z</time>
      </trkpt>
      <trkpt lat="43.93673" lon="1.299176">
        <ele>108.0</ele>
        <time>2020-08-12T22:40:46Z</time>
      </trkpt>
      <trkpt lat="43.935986" lon="1.299835">
        <ele>108.2</ele>
        <time>2020-08-12T22:40:50Z</time>
      </trkpt>
      <trkpt lat="43.93524" lon="1.300552">
        <ele>105.4</ele>
        <time>2020-08-12T22:40:54Z</time>
      </trkpt>
      <trkpt lat="43.933905" lon="1.301899">
        <ele>103.2</ele>
        <time>2020-08-12T22:41:01Z</time>
      </trkpt>
      <trkpt lat="43.932663" lon="1.303251">
        <ele>103.6</ele>
        <time>2020-08-12T22:41:08Z</time>
      </trkpt>
      <trkpt lat="43.930594" lon="1.305739">
        <ele>103.8</ele>
        <time>2020-08-12T22:41:20Z</time>
      </trkpt>
      <trkpt lat="43.928006" lon="1.308923">
        <ele>106.0</ele>
        <time>2020-08-12T22:41:35Z</time>
      </trkpt>
      <trkpt lat="43.926276" lon="1.310968">
        <ele>103.6</ele>
        <time>2020-08-12T22:41:45Z</time>
      </trkpt>
      <trkpt lat="43.925842" lon="1.311511">
        <ele>103.6</ele>
        <time>2020-08-12T22:41:48Z</time>
      </trkpt>
      <trkpt lat="43.923653" lon="1.314054">
        <ele>105.2</ele>
        <time>2020-08-12T22:42:00Z</time>
      </trkpt>
      <trkpt lat="43.92261" lon="1.315091">
        <ele>105.4</ele>
        <time>2020-08-12T22:42:05Z</time>
      </trkpt>
      <trkpt lat="43.9214" lon="1.316073">
        <ele>107.6</ele>
        <time>2020-08-12T22:42:12Z</time>
      </trkpt>
      <trkpt lat="43.920445" lon="1.31675">
        <ele>107.6</ele>
        <time>2020-08-12T22:42:16Z</time>
      </trkpt>
      <trkpt lat="43.919358" lon="1.31742">
        <ele>108.2</ele>
        <time>2020-08-12T22:42:21Z</time>
      </trkpt>
      <trkpt lat="43.91822" lon="1.317978">
        <ele>107.8</ele>
        <time>2020-08-12T22:42:27Z</time>
      </trkpt>
      <trkpt lat="43.917055" lon="1.31843">
        <ele>108.0</ele>
        <time>2020-08-12T22:42:32Z</time>
      </trkpt>
      <trkpt lat="43.915626" lon="1.318834">
        <ele>110.8</ele>
        <time>2020-08-12T22:42:38Z</time>
      </trkpt>
      <trkpt lat="43.914713" lon="1.319006">
        <ele>110.6</ele>
        <time>2020-08-12T22:42:42Z</time>
      </trkpt>
      <trkpt lat="43.913793" lon="1.319117">
        <ele>110.0</ele>
        <time>2020-08-12T22:42:46Z</time>
      </trkpt>
      <trkpt lat="43.912447" lon="1.31914">
        <ele>111.4</ele>
        <time>2020-08-12T22:42:52Z</time>
      </trkpt>
      <trkpt lat="43.911343" lon="1.319079">
        <ele>111.8</ele>
        <time>2020-08-12T22:42:57Z</time>
      </trkpt>
      <trkpt lat="43.910024" lon="1.318864">
        <ele>111.8</ele>
        <time>2020-08-12T22:43:03Z</time>
      </trkpt>
      <trkpt lat="43.908555" lon="1.318469">
        <ele>111.0</ele>
        <time>2020-08-12T22:43:09Z</time>
      </trkpt>
      <trkpt lat="43.906791" lon="1.317785">
        <ele>111.8</ele>
        <time>2020-08-12T22:43:17Z</time>
      </trkpt>
      <trkpt lat="43.905047" lon="1.317055">
        <ele>111.4</ele>
        <time>2020-08-12T22:43:25Z</time>
      </trkpt>
      <trkpt lat="43.903521" lon="1.316542">
        <ele>111.6</ele>
        <time>2020-08-12T22:43:32Z</time>
      </trkpt>
      <trkpt lat="43.902058" lon="1.316251">
        <ele>112.8</ele>
        <time>2020-08-12T22:43:38Z</time>
      </trkpt>
      <trkpt lat="43.901291" lon="1.316161">
        <ele>114.2</ele>
        <time>2020-08-12T22:43:42Z</time>
      </trkpt>
      <trkpt lat="43.900518" lon="1.316125">
        <ele>114.6</ele>
        <time>2020-08-12T22:43:45Z</time>
      </trkpt>
      <trkpt lat="43.899022" lon="1.316141">
        <ele>117.2</ele>
        <time>2020-08-12T22:43:51Z</time>
      </trkpt>
      <trkpt lat="43.897655" lon="1.316341">
        <ele>117.0</ele>
        <time>2020-08-12T22:43:57Z</time>
      </trkpt>
      <trkpt lat="43.894535" lon="1.316869">
        <ele>116.4</ele>
        <time>2020-08-12T22:44:11Z</time>
      </trkpt>
      <trkpt lat="43.892764" lon="1.317122">
        <ele>118.8</ele>
        <time>2020-08-12T22:44:19Z</time>
      </trkpt>
      <trkpt lat="43.891895" lon="1.317226">
        <ele>120.4</ele>
        <time>2020-08-12T22:44:22Z</time>
      </trkpt>
      <trkpt lat="43.890961" lon="1.317277">
        <ele>123.0</ele>
        <time>2020-08-12T22:44:27Z</time>
      </trkpt>
      <trkpt lat="43.889638" lon="1.317307">
        <ele>124.8</ele>
        <time>2020-08-12T22:44:32Z</time>
      </trkpt>
      <trkpt lat="43.888452" lon="1.317281">
        <ele>127.6</ele>
        <time>2020-08-12T22:44:37Z</time>
      </trkpt>
      <trkpt lat="43.886107" lon="1.317104">
        <ele>134.2</ele>
        <time>2020-08-12T22:44:48Z</time>
      </trkpt>
      <trkpt lat="43.884101" lon="1.316891">
        <ele>135.0</ele>
        <time>2020-08-12T22:44:56Z</time>
      </trkpt>
      <trkpt lat="43.882384" lon="1.31676">
        <ele>137.2</ele>
        <time>2020-08-12T22:45:04Z</time>
      </trkpt>
      <trkpt lat="43.881428" lon="1.316708">
        <ele>139.2</ele>
        <time>2020-08-12T22:45:08Z</time>
      </trkpt>
      <trkpt lat="43.880333" lon="1.316676">
        <ele>140.8</ele>
        <time>2020-08-12T22:45:13Z</time>
      </trkpt>
      <trkpt lat="43.879389" lon="1.316696">
        <ele>142.2</ele>
        <time>2020-08-12T22:45:17Z</time>
      </trkpt>
      <trkpt lat="43.878093" lon="1.316767">
        <ele>141.6</ele>
        <time>2020-08-12T22:45:22Z</time>
      </trkpt>
      <trkpt lat="43.876827" lon="1.316902">
        <ele>142.4</ele>
        <time>2020-08-12T22:45:28Z</time>
      </trkpt>
      <trkpt lat="43.875634" lon="1.317078">
        <ele>142.8</ele>
        <time>2020-08-12T22:45:33Z</time>
      </trkpt>
      <trkpt lat="43.874029" lon="1.317368">
        <ele>142.2</ele>
        <time>2020-08-12T22:45:40Z</time>
      </trkpt>
      <trkpt lat="43.87047" lon="1.318082">
        <ele>144.2</ele>
        <time>2020-08-12T22:45:56Z</time>
      </trkpt>
      <trkpt lat="43.869487" lon="1.318248">
        <ele>144.8</ele>
        <time>2020-08-12T22:46:00Z</time>
      </trkpt>
      <trkpt lat="43.868511" lon="1.318401">
        <ele>143.6</ele>
        <time>2020-08-12T22:46:04Z</time>
      </trkpt>
      <trkpt lat="43.866827" lon="1.318558">
        <ele>145.2</ele>
        <time>2020-08-12T22:46:12Z</time>
      </trkpt>
      <trkpt lat="43.865116" lon="1.318611">
        <ele>146.6</ele>
        <time>2020-08-12T22:46:19Z</time>
      </trkpt>
      <trkpt lat="43.864104" lon="1.318591">
        <ele>146.8</ele>
        <time>2020-08-12T22:46:23Z</time>
      </trkpt>
      <trkpt lat="43.862119" lon="1.318471">
        <ele>148.2</ele>
        <time>2020-08-12T22:46:32Z</time>
      </trkpt>
      <trkpt lat="43.859907" lon="1.318284">
        <ele>149.0</ele>
        <time>2020-08-12T22:46:42Z</time>
      </trkpt>
      <trkpt lat="43.858292" lon="1.3182">
        <ele>149.4</ele>
        <time>2020-08-12T22:46:49Z</time>
      </trkpt>
      <trkpt lat="43.857312" lon="1.318197">
        <ele>150.6</ele>
        <time>2020-08-12T22:46:53Z</time>
      </trkpt>
      <trkpt lat="43.856236" lon="1.318256">
        <ele>151.2</ele>
        <time>2020-08-12T22:46:58Z</time>
      </trkpt>
      <trkpt lat="43.855214" lon="1.318389">
        <ele>152.0</ele>
        <time>2020-08-12T22:47:02Z</time>
      </trkpt>
      <trkpt lat="43.854239" lon="1.318576">
        <ele>152.2</ele>
        <time>2020-08-12T22:47:06Z</time>
      </trkpt>
      <trkpt lat="43.853346" lon="1.318794">
        <ele>151.2</ele>
        <time>2020-08-12T22:47:10Z</time>
      </trkpt>
      <trkpt lat="43.852388" lon="1.319089">
        <ele>148.8</ele>
        <time>2020-08-12T22:47:15Z</time>
      </trkpt>
      <trkpt lat="43.851538" lon="1.3194">
        <ele>149.4</ele>
        <time>2020-08-12T22:47:18Z</time>
      </trkpt>
      <trkpt lat="43.850704" lon="1.319756">
        <ele>149.2</ele>
        <time>2020-08-12T22:47:22Z</time>
      </trkpt>
      <trkpt lat="43.849866" lon="1.320166">
        <ele>150.2</ele>
        <time>2020-08-12T22:47:26Z</time>
      </trkpt>
      <trkpt lat="43.848967" lon="1.32066">
        <ele>150.8</ele>
        <time>2020-08-12T22:47:30Z</time>
      </trkpt>
      <trkpt lat="43.848245" lon="1.321104">
        <ele>150.8</ele>
        <time>2020-08-12T22:47:34Z</time>
      </trkpt>
      <trkpt lat="43.847344" lon="1.321717">
        <ele>150.4</ele>
        <time>2020-08-12T22:47:38Z</time>
      </trkpt>
      <trkpt lat="43.846546" lon="1.322315">
        <ele>152.0</ele>
        <time>2020-08-12T22:47:42Z</time>
      </trkpt>
      <trkpt lat="43.845754" lon="1.322981">
        <ele>154.0</ele>
        <time>2020-08-12T22:47:46Z</time>
      </trkpt>
      <trkpt lat="43.845109" lon="1.323563">
        <ele>153.6</ele>
        <time>2020-08-12T22:47:49Z</time>
      </trkpt>
      <trkpt lat="43.844306" lon="1.324346">
        <ele>154.4</ele>
        <time>2020-08-12T22:47:54Z</time>
      </trkpt>
      <trkpt lat="43.843596" lon="1.325109">
        <ele>155.2</ele>
        <time>2020-08-12T22:47:57Z</time>
      </trkpt>
      <trkpt lat="43.842623" lon="1.326256">
        <ele>155.6</ele>
        <time>2020-08-12T22:48:03Z</time>
      </trkpt>
      <trkpt lat="43.842287" lon="1.326681">
        <ele>155.8</ele>
        <time>2020-08-12T22:48:05Z</time>
      </trkpt>
      <trkpt lat="43.84162" lon="1.32758">
        <ele>157.2</ele>
        <time>2020-08-12T22:48:09Z</time>
      </trkpt>
      <trkpt lat="43.840357" lon="1.329388">
        <ele>157.4</ele>
        <time>2020-08-12T22:48:17Z</time>
      </trkpt>
      <trkpt lat="43.83813" lon="1.332636">
        <ele>161.0</ele>
        <time>2020-08-12T22:48:31Z</time>
      </trkpt>
      <trkpt lat="43.836513" lon="1.334863">
        <ele>160.8</ele>
        <time>2020-08-12T22:48:41Z</time>
      </trkpt>
      <trkpt lat="43.835871" lon="1.335678">
        <ele>159.8</ele>
        <time>2020-08-12T22:48:45Z</time>
      </trkpt>
      <trkpt lat="43.835076" lon="1.336638">
        <ele>161.8</ele>
        <time>2020-08-12T22:48:49Z</time>
      </trkpt>
      <trkpt lat="43.834167" lon="1.33767">
        <ele>161.6</ele>
        <time>2020-08-12T22:48:54Z</time>
      </trkpt>
      <trkpt lat="43.832748" lon="1.339151">
        <ele>163.8</ele>
        <time>2020-08-12T22:49:02Z</time>
      </trkpt>
      <trkpt lat="43.831578" lon="1.34027">
        <ele>164.8</ele>
        <time>2020-08-12T22:49:08Z</time>
      </trkpt>
      <trkpt lat="43.830531" lon="1.341186">
        <ele>165.8</ele>
        <time>2020-08-12T22:49:13Z</time>
      </trkpt>
      <trkpt lat="43.828957" lon="1.342462">
        <ele>167.8</ele>
        <time>2020-08-12T22:49:21Z</time>
      </trkpt>
      <trkpt lat="43.828088" lon="1.343109">
        <ele>167.4</ele>
        <time>2020-08-12T22:49:26Z</time>
      </trkpt>
      <trkpt lat="43.823637" lon="1.34632">
        <ele>171.0</ele>
        <time>2020-08-12T22:49:47Z</time>
      </trkpt>
      <trkpt lat="43.82266" lon="1.347063">
        <ele>171.6</ele>
        <time>2020-08-12T22:49:52Z</time>
      </trkpt>
      <trkpt lat="43.821836" lon="1.347742">
        <ele>171.2</ele>
        <time>2020-08-12T22:49:56Z</time>
      </trkpt>
      <trkpt lat="43.820979" lon="1.348507">
        <ele>172.4</ele>
        <time>2020-08-12T22:50:01Z</time>
      </trkpt>
      <trkpt lat="43.820566" lon="1.348898">
        <ele>174.0</ele>
        <time>2020-08-12T22:50:03Z</time>
      </trkpt>
      <trkpt lat="43.819645" lon="1.349831">
        <ele>175.2</ele>
        <time>2020-08-12T22:50:08Z</time>
      </trkpt>
      <trkpt lat="43.819029" lon="1.350504">
        <ele>175.0</ele>
        <time>2020-08-12T22:50:11Z</time>
      </trkpt>
      <trkpt lat="43.81845" lon="1.351171">
        <ele>175.0</ele>
        <time>2020-08-12T22:50:15Z</time>
      </trkpt>
      <trkpt lat="43.817874" lon="1.351872">
        <ele>174.4</ele>
        <time>2020-08-12T22:50:18Z</time>
      </trkpt>
      <trkpt lat="43.817329" lon="1.352572">
        <ele>172.6</ele>
        <time>2020-08-12T22:50:21Z</time>
      </trkpt>
      <trkpt lat="43.816854" lon="1.353223">
        <ele>172.6</ele>
        <time>2020-08-12T22:50:24Z</time>
      </trkpt>
      <trkpt lat="43.815919" lon="1.354577">
        <ele>172.4</ele>
        <time>2020-08-12T22:50:30Z</time>
      </trkpt>
      <trkpt lat="43.81546" lon="1.355273">
        <ele>173.4</ele>
        <time>2020-08-12T22:50:33Z</time>
      </trkpt>
      <trkpt lat="43.813408" lon="1.358501">
        <ele>173.6</ele>
        <time>2020-08-12T22:50:46Z</time>
      </trkpt>
      <trkpt lat="43.812771" lon="1.35945">
        <ele>174.8</ele>
        <time>2020-08-12T22:50:50Z</time>
      </trkpt>
      <trkpt lat="43.812073" lon="1.360432">
        <ele>175.2</ele>
        <time>2020-08-12T22:50:55Z</time>
      </trkpt>
      <trkpt lat="43.811046" lon="1.361753">
        <ele>176.0</ele>
        <time>2020-08-12T22:51:01Z</time>
      </trkpt>
      <trkpt lat="43.810022" lon="1.362931">
        <ele>176.0</ele>
        <time>2020-08-12T22:51:07Z</time>
      </trkpt>
      <trkpt lat="43.809283" lon="1.363704">
        <ele>176.2</ele>
        <time>2020-08-12T22:51:11Z</time>
      </trkpt>
      <trkpt lat="43.80818" lon="1.364749">
        <ele>179.4</ele>
        <time>2020-08-12T22:51:16Z</time>
      </trkpt>
      <trkpt lat="43.807045" lon="1.365727">
        <ele>182.0</ele>
        <time>2020-08-12T22:51:22Z</time>
      </trkpt>
      <trkpt lat="43.806075" lon="1.366462">
        <ele>184.8</ele>
        <time>2020-08-12T22:51:27Z</time>
      </trkpt>
      <trkpt lat="43.804643" lon="1.367442">
        <ele>201.2</ele>
        <time>2020-08-12T22:51:34Z</time>
      </trkpt>
      <trkpt lat="43.802107" lon="1.369046">
        <ele>214.2</ele>
        <time>2020-08-12T22:51:46Z</time>
      </trkpt>
      <trkpt lat="43.8014" lon="1.369528">
        <ele>210.4</ele>
        <time>2020-08-12T22:51:50Z</time>
      </trkpt>
      <trkpt lat="43.800612" lon="1.370098">
        <ele>208.8</ele>
        <time>2020-08-12T22:51:53Z</time>
      </trkpt>
      <trkpt lat="43.799862" lon="1.37069">
        <ele>211.0</ele>
        <time>2020-08-12T22:51:57Z</time>
      </trkpt>
      <trkpt lat="43.798539" lon="1.371885">
        <ele>212.6</ele>
        <time>2020-08-12T22:52:04Z</time>
      </trkpt>
      <trkpt lat="43.797584" lon="1.372886">
        <ele>208.2</ele>
        <time>2020-08-12T22:52:09Z</time>
      </trkpt>
      <trkpt lat="43.797149" lon="1.373374">
        <ele>205.2</ele>
        <time>2020-08-12T22:52:12Z</time>
      </trkpt>
      <trkpt lat="43.796502" lon="1.374147">
        <ele>205.4</ele>
        <time>2020-08-12T22:52:15Z</time>
      </trkpt>
      <trkpt lat="43.794509" lon="1.376632">
        <ele>208.6</ele>
        <time>2020-08-12T22:52:27Z</time>
      </trkpt>
      <trkpt lat="43.793611" lon="1.377671">
        <ele>206.6</ele>
        <time>2020-08-12T22:52:32Z</time>
      </trkpt>
      <trkpt lat="43.792785" lon="1.378521">
        <ele>207.4</ele>
        <time>2020-08-12T22:52:37Z</time>
      </trkpt>
      <trkpt lat="43.791763" lon="1.379451">
        <ele>208.8</ele>
        <time>2020-08-12T22:52:42Z</time>
      </trkpt>
      <trkpt lat="43.791154" lon="1.379933">
        <ele>210.4</ele>
        <time>2020-08-12T22:52:45Z</time>
      </trkpt>
      <trkpt lat="43.790494" lon="1.38041">
        <ele>210.4</ele>
        <time>2020-08-12T22:52:48Z</time>
      </trkpt>
      <trkpt lat="43.78937" lon="1.38112">
        <ele>208.8</ele>
        <time>2020-08-12T22:52:53Z</time>
      </trkpt>
      <trkpt lat="43.788877" lon="1.381386">
        <ele>203.8</ele>
        <time>2020-08-12T22:52:56Z</time>
      </trkpt>
      <trkpt lat="43.788245" lon="1.381693">
        <ele>203.0</ele>
        <time>2020-08-12T22:52:59Z</time>
      </trkpt>
      <trkpt lat="43.787635" lon="1.381963">
        <ele>203.0</ele>
        <time>2020-08-12T22:53:01Z</time>
      </trkpt>
      <trkpt lat="43.787043" lon="1.382194">
        <ele>198.4</ele>
        <time>2020-08-12T22:53:04Z</time>
      </trkpt>
      <trkpt lat="43.785825" lon="1.382579">
        <ele>193.0</ele>
        <time>2020-08-12T22:53:10Z</time>
      </trkpt>
      <trkpt lat="43.785352" lon="1.382692">
        <ele>193.0</ele>
        <time>2020-08-12T22:53:12Z</time>
      </trkpt>
      <trkpt lat="43.784447" lon="1.382869">
        <ele>189.0</ele>
        <time>2020-08-12T22:53:16Z</time>
      </trkpt>
      <trkpt lat="43.783393" lon="1.383001">
        <ele>187.2</ele>
        <time>2020-08-12T22:53:20Z</time>
      </trkpt>
      <trkpt lat="43.782449" lon="1.383073">
        <ele>180.0</ele>
        <time>2020-08-12T22:53:24Z</time>
      </trkpt>
      <trkpt lat="43.778508" lon="1.383218">
        <ele>163.2</ele>
        <time>2020-08-12T22:53:41Z</time>
      </trkpt>
      <trkpt lat="43.777336" lon="1.383292">
        <ele>151.2</ele>
        <time>2020-08-12T22:53:47Z</time>
      </trkpt>
      <trkpt lat="43.775595" lon="1.38346">
        <ele>142.2</ele>
        <time>2020-08-12T22:53:54Z</time>
      </trkpt>
      <trkpt lat="43.77432" lon="1.383649">
        <ele>137.6</ele>
        <time>2020-08-12T22:54:00Z</time>
      </trkpt>
      <trkpt lat="43.773061" lon="1.383893">
        <ele>133.2</ele>
        <time>2020-08-12T22:54:05Z</time>
      </trkpt>
      <trkpt lat="43.768689" lon="1.384844">
        <ele>126.6</ele>
        <time>2020-08-12T22:54:24Z</time>
      </trkpt>
      <trkpt lat="43.767441" lon="1.385077">
        <ele>123.6</ele>
        <time>2020-08-12T22:54:30Z</time>
      </trkpt>
      <trkpt lat="43.765286" lon="1.38537">
        <ele>119.0</ele>
        <time>2020-08-12T22:54:39Z</time>
      </trkpt>
      <trkpt lat="43.764228" lon="1.385438">
        <ele>117.8</ele>
        <time>2020-08-12T22:54:44Z</time>
      </trkpt>
      <trkpt lat="43.76262" lon="1.385488">
        <ele>117.2</ele>
        <time>2020-08-12T22:54:51Z</time>
      </trkpt>
      <trkpt lat="43.758163" lon="1.385454">
        <ele>116.0</ele>
        <time>2020-08-12T22:55:10Z</time>
      </trkpt>
      <trkpt lat="43.756426" lon="1.3855">
        <ele>115.8</ele>
        <time>2020-08-12T22:55:18Z</time>
      </trkpt>
      <trkpt lat="43.755503" lon="1.385567">
        <ele>116.0</ele>
        <time>2020-08-12T22:55:22Z</time>
      </trkpt>
      <trkpt lat="43.754535" lon="1.385669">
        <ele>115.4</ele>
        <time>2020-08-12T22:55:26Z</time>
      </trkpt>
      <trkpt lat="43.753694" lon="1.385787">
        <ele>117.0</ele>
        <time>2020-08-12T22:55:30Z</time>
      </trkpt>
      <trkpt lat="43.752035" lon="1.386102">
        <ele>116.4</ele>
        <time>2020-08-12T22:55:37Z</time>
      </trkpt>
      <trkpt lat="43.751141" lon="1.386315">
        <ele>116.4</ele>
        <time>2020-08-12T22:55:41Z</time>
      </trkpt>
      <trkpt lat="43.749888" lon="1.386674">
        <ele>116.2</ele>
        <time>2020-08-12T22:55:46Z</time>
      </trkpt>
      <trkpt lat="43.748828" lon="1.387032">
        <ele>115.8</ele>
        <time>2020-08-12T22:55:51Z</time>
      </trkpt>
      <trkpt lat="43.747736" lon="1.387442">
        <ele>116.4</ele>
        <time>2020-08-12T22:55:56Z</time>
      </trkpt>
      <trkpt lat="43.746863" lon="1.387803">
        <ele>116.6</ele>
        <time>2020-08-12T22:56:00Z</time>
      </trkpt>
      <trkpt lat="43.74516" lon="1.388614">
        <ele>116.0</ele>
        <time>2020-08-12T22:56:08Z</time>
      </trkpt>
      <trkpt lat="43.744404" lon="1.389016">
        <ele>116.8</ele>
        <time>2020-08-12T22:56:11Z</time>
      </trkpt>
      <trkpt lat="43.743423" lon="1.389576">
        <ele>117.6</ele>
        <time>2020-08-12T22:56:16Z</time>
      </trkpt>
      <trkpt lat="43.742455" lon="1.390179">
        <ele>118.2</ele>
        <time>2020-08-12T22:56:21Z</time>
      </trkpt>
      <trkpt lat="43.741486" lon="1.390824">
        <ele>118.0</ele>
        <time>2020-08-12T22:56:25Z</time>
      </trkpt>
      <trkpt lat="43.738252" lon="1.393122">
        <ele>118.0</ele>
        <time>2020-08-12T22:56:41Z</time>
      </trkpt>
      <trkpt lat="43.736457" lon="1.394374">
        <ele>119.0</ele>
        <time>2020-08-12T22:56:50Z</time>
      </trkpt>
      <trkpt lat="43.735699" lon="1.394868">
        <ele>118.2</ele>
        <time>2020-08-12T22:56:53Z</time>
      </trkpt>
      <trkpt lat="43.733995" lon="1.395886">
        <ele>119.8</ele>
        <time>2020-08-12T22:57:01Z</time>
      </trkpt>
      <trkpt lat="43.733072" lon="1.396384">
        <ele>119.2</ele>
        <time>2020-08-12T22:57:06Z</time>
      </trkpt>
      <trkpt lat="43.731828" lon="1.396987">
        <ele>119.4</ele>
        <time>2020-08-12T22:57:11Z</time>
      </trkpt>
      <trkpt lat="43.730518" lon="1.397542">
        <ele>120.0</ele>
        <time>2020-08-12T22:57:17Z</time>
      </trkpt>
      <trkpt lat="43.729705" lon="1.397855">
        <ele>119.8</ele>
        <time>2020-08-12T22:57:21Z</time>
      </trkpt>
      <trkpt lat="43.72826" lon="1.398356">
        <ele>120.0</ele>
        <time>2020-08-12T22:57:27Z</time>
      </trkpt>
      <trkpt lat="43.725059" lon="1.399335">
        <ele>121.8</ele>
        <time>2020-08-12T22:57:42Z</time>
      </trkpt>
      <trkpt lat="43.710515" lon="1.403709">
        <ele>126.4</ele>
        <time>2020-08-12T22:58:46Z</time>
      </trkpt>
      <trkpt lat="43.707003" lon="1.404777">
        <ele>127.8</ele>
        <time>2020-08-12T22:59:02Z</time>
      </trkpt>
      <trkpt lat="43.705331" lon="1.405308">
        <ele>130.0</ele>
        <time>2020-08-12T22:59:09Z</time>
      </trkpt>
      <trkpt lat="43.704617" lon="1.405553">
        <ele>128.4</ele>
        <time>2020-08-12T22:59:12Z</time>
      </trkpt>
      <trkpt lat="43.701797" lon="1.406656">
        <ele>128.0</ele>
        <time>2020-08-12T22:59:25Z</time>
      </trkpt>
      <trkpt lat="43.699816" lon="1.407365">
        <ele>129.4</ele>
        <time>2020-08-12T22:59:34Z</time>
      </trkpt>
      <trkpt lat="43.697349" lon="1.408122">
        <ele>129.6</ele>
        <time>2020-08-12T22:59:45Z</time>
      </trkpt>
      <trkpt lat="43.696777" lon="1.408327">
        <ele>129.6</ele>
        <time>2020-08-12T22:59:48Z</time>
      </trkpt>
      <trkpt lat="43.695055" lon="1.408986">
        <ele>128.0</ele>
        <time>2020-08-12T22:59:55Z</time>
      </trkpt>
      <trkpt lat="43.691296" lon="1.410658">
        <ele>130.0</ele>
        <time>2020-08-12T23:00:13Z</time>
      </trkpt>
      <trkpt lat="43.689808" lon="1.411234">
        <ele>129.4</ele>
        <time>2020-08-12T23:00:19Z</time>
      </trkpt>
      <trkpt lat="43.688477" lon="1.411676">
        <ele>128.2</ele>
        <time>2020-08-12T23:00:25Z</time>
      </trkpt>
      <trkpt lat="43.679134" lon="1.414422">
        <ele>130.2</ele>
        <time>2020-08-12T23:01:07Z</time>
      </trkpt>
      <trkpt lat="43.678097" lon="1.414762">
        <ele>129.2</ele>
        <time>2020-08-12T23:01:11Z</time>
      </trkpt>
      <trkpt lat="43.67651" lon="1.415372">
        <ele>129.2</ele>
        <time>2020-08-12T23:01:18Z</time>
      </trkpt>
      <trkpt lat="43.675456" lon="1.415841">
        <ele>128.8</ele>
        <time>2020-08-12T23:01:23Z</time>
      </trkpt>
      <trkpt lat="43.674531" lon="1.416296">
        <ele>128.6</ele>
        <time>2020-08-12T23:01:27Z</time>
      </trkpt>
      <trkpt lat="43.67284" lon="1.417206">
        <ele>130.2</ele>
        <time>2020-08-12T23:01:35Z</time>
      </trkpt>
      <trkpt lat="43.672098" lon="1.417661">
        <ele>128.6</ele>
        <time>2020-08-12T23:01:39Z</time>
      </trkpt>
      <trkpt lat="43.67044" lon="1.418768">
        <ele>129.0</ele>
        <time>2020-08-12T23:01:47Z</time>
      </trkpt>
      <trkpt lat="43.668797" lon="1.419964">
        <ele>130.2</ele>
        <time>2020-08-12T23:01:55Z</time>
      </trkpt>
      <trkpt lat="43.667091" lon="1.421092">
        <ele>131.4</ele>
        <time>2020-08-12T23:02:03Z</time>
      </trkpt>
      <trkpt lat="43.66532" lon="1.422151">
        <ele>131.8</ele>
        <time>2020-08-12T23:02:11Z</time>
      </trkpt>
      <trkpt lat="43.664753" lon="1.422466">
        <ele>131.6</ele>
        <time>2020-08-12T23:02:14Z</time>
      </trkpt>
      <trkpt lat="43.662555" lon="1.42359">
        <ele>132.0</ele>
        <time>2020-08-12T23:02:24Z</time>
      </trkpt>
      <trkpt lat="43.66084" lon="1.4245">
        <ele>130.8</ele>
        <time>2020-08-12T23:02:32Z</time>
      </trkpt>
      <trkpt lat="43.660068" lon="1.425037">
        <ele>130.0</ele>
        <time>2020-08-12T23:02:36Z</time>
      </trkpt>
      <trkpt lat="43.659776" lon="1.425283">
        <ele>129.6</ele>
        <time>2020-08-12T23:02:37Z</time>
      </trkpt>
      <trkpt lat="43.659489" lon="1.425562">
        <ele>129.6</ele>
        <time>2020-08-12T23:02:39Z</time>
      </trkpt>
      <trkpt lat="43.6588" lon="1.426424">
        <ele>131.2</ele>
        <time>2020-08-12T23:02:43Z</time>
      </trkpt>
      <trkpt lat="43.658646" lon="1.426596">
        <ele>131.2</ele>
        <time>2020-08-12T23:02:44Z</time>
      </trkpt>
      <trkpt lat="43.658493" lon="1.426728">
        <ele>131.4</ele>
        <time>2020-08-12T23:02:45Z</time>
      </trkpt>
      <trkpt lat="43.657736" lon="1.427186">
        <ele>131.2</ele>
        <time>2020-08-12T23:02:48Z</time>
      </trkpt>
      <trkpt lat="43.657523" lon="1.427276">
        <ele>131.2</ele>
        <time>2020-08-12T23:02:49Z</time>
      </trkpt>
      <trkpt lat="43.65724" lon="1.427347">
        <ele>131.2</ele>
        <time>2020-08-12T23:02:50Z</time>
      </trkpt>
      <trkpt lat="43.656436" lon="1.427451">
        <ele>131.0</ele>
        <time>2020-08-12T23:02:54Z</time>
      </trkpt>
      <trkpt lat="43.655967" lon="1.42758">
        <ele>131.0</ele>
        <time>2020-08-12T23:02:56Z</time>
      </trkpt>
      <trkpt lat="43.655686" lon="1.427701">
        <ele>130.2</ele>
        <time>2020-08-12T23:02:57Z</time>
      </trkpt>
      <trkpt lat="43.655172" lon="1.427981">
        <ele>130.2</ele>
        <time>2020-08-12T23:03:00Z</time>
      </trkpt>
      <trkpt lat="43.652193" lon="1.429797">
        <ele>132.4</ele>
        <time>2020-08-12T23:03:14Z</time>
      </trkpt>
      <trkpt lat="43.651731" lon="1.430147">
        <ele>133.6</ele>
        <time>2020-08-12T23:03:16Z</time>
      </trkpt>
      <trkpt lat="43.651478" lon="1.430361">
        <ele>133.6</ele>
        <time>2020-08-12T23:03:17Z</time>
      </trkpt>
      <trkpt lat="43.650922" lon="1.430922">
        <ele>134.2</ele>
        <time>2020-08-12T23:03:20Z</time>
      </trkpt>
      <trkpt lat="43.650548" lon="1.431366">
        <ele>134.6</ele>
        <time>2020-08-12T23:03:23Z</time>
      </trkpt>
      <trkpt lat="43.650148" lon="1.431925">
        <ele>134.2</ele>
        <time>2020-08-12T23:03:25Z</time>
      </trkpt>
      <trkpt lat="43.649931" lon="1.432275">
        <ele>136.0</ele>
        <time>2020-08-12T23:03:26Z</time>
      </trkpt>
      <trkpt lat="43.649556" lon="1.432975">
        <ele>134.4</ele>
        <time>2020-08-12T23:03:29Z</time>
      </trkpt>
      <trkpt lat="43.649381" lon="1.433354">
        <ele>133.8</ele>
        <time>2020-08-12T23:03:31Z</time>
      </trkpt>
      <trkpt lat="43.649054" lon="1.434169">
        <ele>134.8</ele>
        <time>2020-08-12T23:03:34Z</time>
      </trkpt>
      <trkpt lat="43.648957" lon="1.434461">
        <ele>134.8</ele>
        <time>2020-08-12T23:03:35Z</time>
      </trkpt>
      <trkpt lat="43.648676" lon="1.435411">
        <ele>135.0</ele>
        <time>2020-08-12T23:03:38Z</time>
      </trkpt>
      <trkpt lat="43.648154" lon="1.437278">
        <ele>136.2</ele>
        <time>2020-08-12T23:03:44Z</time>
      </trkpt>
      <trkpt lat="43.647652" lon="1.439219">
        <ele>134.2</ele>
        <time>2020-08-12T23:03:51Z</time>
      </trkpt>
      <trkpt lat="43.647265" lon="1.440887">
        <ele>135.6</ele>
        <time>2020-08-12T23:03:56Z</time>
      </trkpt>
      <trkpt lat="43.64709" lon="1.441785">
        <ele>134.6</ele>
        <time>2020-08-12T23:03:59Z</time>
      </trkpt>
      <trkpt lat="43.646885" lon="1.443028">
        <ele>134.2</ele>
        <time>2020-08-12T23:04:03Z</time>
      </trkpt>
      <trkpt lat="43.646764" lon="1.443979">
        <ele>134.2</ele>
        <time>2020-08-12T23:04:06Z</time>
      </trkpt>
      <trkpt lat="43.646659" lon="1.445108">
        <ele>135.4</ele>
        <time>2020-08-12T23:04:10Z</time>
      </trkpt>
      <trkpt lat="43.646581" lon="1.446417">
        <ele>136.0</ele>
        <time>2020-08-12T23:04:14Z</time>
      </trkpt>
      <trkpt lat="43.64655" lon="1.447899">
        <ele>136.0</ele>
        <time>2020-08-12T23:04:18Z</time>
      </trkpt>
      <trkpt lat="43.646583" lon="1.449682">
        <ele>134.8</ele>
        <time>2020-08-12T23:04:24Z</time>
      </trkpt>
      <trkpt lat="43.646699" lon="1.453378">
        <ele>134.2</ele>
        <time>2020-08-12T23:04:36Z</time>
      </trkpt>
      <trkpt lat="43.646751" lon="1.45627">
        <ele>135.0</ele>
        <time>2020-08-12T23:04:45Z</time>
      </trkpt>
      <trkpt lat="43.646743" lon="1.457646">
        <ele>135.2</ele>
        <time>2020-08-12T23:04:49Z</time>
      </trkpt>
      <trkpt lat="43.646713" lon="1.459093">
        <ele>135.0</ele>
        <time>2020-08-12T23:04:54Z</time>
      </trkpt>
      <trkpt lat="43.646632" lon="1.460654">
        <ele>135.0</ele>
        <time>2020-08-12T23:04:58Z</time>
      </trkpt>
      <trkpt lat="43.646565" lon="1.461579">
        <ele>135.4</ele>
        <time>2020-08-12T23:05:01Z</time>
      </trkpt>
      <trkpt lat="43.646495" lon="1.462265">
        <ele>135.4</ele>
        <time>2020-08-12T23:05:04Z</time>
      </trkpt>
      <trkpt lat="43.646418" lon="1.462913">
        <ele>135.0</ele>
        <time>2020-08-12T23:05:06Z</time>
      </trkpt>
      <trkpt lat="43.646226" lon="1.464115">
        <ele>134.8</ele>
        <time>2020-08-12T23:05:09Z</time>
      </trkpt>
      <trkpt lat="43.645985" lon="1.465262">
        <ele>135.8</ele>
        <time>2020-08-12T23:05:13Z</time>
      </trkpt>
      <trkpt lat="43.645663" lon="1.466469">
        <ele>137.2</ele>
        <time>2020-08-12T23:05:17Z</time>
      </trkpt>
      <trkpt lat="43.645291" lon="1.467612">
        <ele>135.8</ele>
        <time>2020-08-12T23:05:21Z</time>
      </trkpt>
      <trkpt lat="43.645092" lon="1.468146">
        <ele>135.8</ele>
        <time>2020-08-12T23:05:23Z</time>
      </trkpt>
      <trkpt lat="43.64477" lon="1.468935">
        <ele>136.6</ele>
        <time>2020-08-12T23:05:26Z</time>
      </trkpt>
      <trkpt lat="43.644362" lon="1.469835">
        <ele>136.4</ele>
        <time>2020-08-12T23:05:29Z</time>
      </trkpt>
      <trkpt lat="43.64386" lon="1.470772">
        <ele>136.8</ele>
        <time>2020-08-12T23:05:33Z</time>
      </trkpt>
      <trkpt lat="43.643489" lon="1.471399">
        <ele>135.2</ele>
        <time>2020-08-12T23:05:35Z</time>
      </trkpt>
      <trkpt lat="43.642932" lon="1.472247">
        <ele>136.0</ele>
        <time>2020-08-12T23:05:39Z</time>
      </trkpt>
      <trkpt lat="43.642392" lon="1.472967">
        <ele>137.0</ele>
        <time>2020-08-12T23:05:42Z</time>
      </trkpt>
      <trkpt lat="43.641499" lon="1.474017">
        <ele>137.4</ele>
        <time>2020-08-12T23:05:47Z</time>
      </trkpt>
      <trkpt lat="43.6406" lon="1.474913">
        <ele>137.8</ele>
        <time>2020-08-12T23:05:52Z</time>
      </trkpt>
      <trkpt lat="43.639327" lon="1.475907">
        <ele>137.4</ele>
        <time>2020-08-12T23:05:59Z</time>
      </trkpt>
      <trkpt lat="43.638274" lon="1.476549">
        <ele>137.4</ele>
        <time>2020-08-12T23:06:04Z</time>
      </trkpt>
      <trkpt lat="43.636931" lon="1.477174">
        <ele>135.6</ele>
        <time>2020-08-12T23:06:10Z</time>
      </trkpt>
      <trkpt lat="43.63618" lon="1.477445">
        <ele>135.6</ele>
        <time>2020-08-12T23:06:13Z</time>
      </trkpt>
      <trkpt lat="43.635527" lon="1.477619">
        <ele>135.4</ele>
        <time>2020-08-12T23:06:16Z</time>
      </trkpt>
      <trkpt lat="43.635062" lon="1.47771">
        <ele>135.4</ele>
        <time>2020-08-12T23:06:18Z</time>
      </trkpt>
      <trkpt lat="43.634875" lon="1.477714">
        <ele>136.2</ele>
        <time>2020-08-12T23:06:19Z</time>
      </trkpt>
      <trkpt lat="43.633973" lon="1.477907">
        <ele>136.8</ele>
        <time>2020-08-12T23:06:23Z</time>
      </trkpt>
      <trkpt lat="43.633154" lon="1.478029">
        <ele>136.6</ele>
        <time>2020-08-12T23:06:26Z</time>
      </trkpt>
      <trkpt lat="43.631014" lon="1.478295">
        <ele>136.0</ele>
        <time>2020-08-12T23:06:36Z</time>
      </trkpt>
      <trkpt lat="43.62909" lon="1.478584">
        <ele>137.6</ele>
        <time>2020-08-12T23:06:44Z</time>
      </trkpt>
      <trkpt lat="43.628207" lon="1.478766">
        <ele>138.2</ele>
        <time>2020-08-12T23:06:48Z</time>
      </trkpt>
      <trkpt lat="43.627149" lon="1.479061">
        <ele>138.4</ele>
        <time>2020-08-12T23:06:53Z</time>
      </trkpt>
      <trkpt lat="43.625722" lon="1.47959">
        <ele>138.4</ele>
        <time>2020-08-12T23:06:59Z</time>
      </trkpt>
      <trkpt lat="43.623113" lon="1.480654">
        <ele>135.6</ele>
        <time>2020-08-12T23:07:11Z</time>
      </trkpt>
      <trkpt lat="43.621954" lon="1.481083">
        <ele>136.8</ele>
        <time>2020-08-12T23:07:16Z</time>
      </trkpt>
      <trkpt lat="43.620872" lon="1.481446">
        <ele>136.6</ele>
        <time>2020-08-12T23:07:21Z</time>
      </trkpt>
      <trkpt lat="43.615744" lon="1.483077">
        <ele>139.2</ele>
        <time>2020-08-12T23:07:44Z</time>
      </trkpt>
      <trkpt lat="43.611587" lon="1.484351">
        <ele>139.4</ele>
        <time>2020-08-12T23:08:02Z</time>
      </trkpt>
      <trkpt lat="43.610905" lon="1.484489">
        <ele>139.4</ele>
        <time>2020-08-12T23:08:05Z</time>
      </trkpt>
      <trkpt lat="43.610087" lon="1.484594">
        <ele>137.2</ele>
        <time>2020-08-12T23:08:09Z</time>
      </trkpt>
      <trkpt lat="43.608857" lon="1.48464">
        <ele>138.6</ele>
        <time>2020-08-12T23:08:14Z</time>
      </trkpt>
      <trkpt lat="43.607478" lon="1.484632">
        <ele>139.8</ele>
        <time>2020-08-12T23:08:20Z</time>
      </trkpt>
      <trkpt lat="43.606563" lon="1.48468">
        <ele>140.2</ele>
        <time>2020-08-12T23:08:24Z</time>
      </trkpt>
      <trkpt lat="43.606021" lon="1.484761">
        <ele>140.2</ele>
        <time>2020-08-12T23:08:26Z</time>
      </trkpt>
      <trkpt lat="43.605736" lon="1.484829">
        <ele>140.6</ele>
        <time>2020-08-12T23:08:28Z</time>
      </trkpt>
      <trkpt lat="43.605048" lon="1.485053">
        <ele>141.0</ele>
        <time>2020-08-12T23:08:31Z</time>
      </trkpt>
      <trkpt lat="43.604459" lon="1.485324">
        <ele>140.2</ele>
        <time>2020-08-12T23:08:33Z</time>
      </trkpt>
      <trkpt lat="43.603782" lon="1.485721">
        <ele>140.4</ele>
        <time>2020-08-12T23:08:37Z</time>
      </trkpt>
      <trkpt lat="43.603387" lon="1.486011">
        <ele>139.6</ele>
        <time>2020-08-12T23:08:39Z</time>
      </trkpt>
      <trkpt lat="43.602834" lon="1.486473">
        <ele>138.8</ele>
        <time>2020-08-12T23:08:41Z</time>
      </trkpt>
      <trkpt lat="43.602295" lon="1.487029">
        <ele>137.2</ele>
        <time>2020-08-12T23:08:44Z</time>
      </trkpt>
      <trkpt lat="43.60194" lon="1.487452">
        <ele>137.2</ele>
        <time>2020-08-12T23:08:46Z</time>
      </trkpt>
      <trkpt lat="43.601539" lon="1.488">
        <ele>138.8</ele>
        <time>2020-08-12T23:08:49Z</time>
      </trkpt>
      <trkpt lat="43.6013" lon="1.488359">
        <ele>138.2</ele>
        <time>2020-08-12T23:08:50Z</time>
      </trkpt>
      <trkpt lat="43.600809" lon="1.489162">
        <ele>139.4</ele>
        <time>2020-08-12T23:08:54Z</time>
      </trkpt>
      <trkpt lat="43.600206" lon="1.490084">
        <ele>138.8</ele>
        <time>2020-08-12T23:08:57Z</time>
      </trkpt>
      <trkpt lat="43.599946" lon="1.490423">
        <ele>139.8</ele>
        <time>2020-08-12T23:08:59Z</time>
      </trkpt>
      <trkpt lat="43.599488" lon="1.490959">
        <ele>138.6</ele>
        <time>2020-08-12T23:09:02Z</time>
      </trkpt>
      <trkpt lat="43.598996" lon="1.491457">
        <ele>139.2</ele>
        <time>2020-08-12T23:09:04Z</time>
      </trkpt>
      <trkpt lat="43.598418" lon="1.491938">
        <ele>139.0</ele>
        <time>2020-08-12T23:09:07Z</time>
      </trkpt>
      <trkpt lat="43.597843" lon="1.492338">
        <ele>139.2</ele>
        <time>2020-08-12T23:09:10Z</time>
      </trkpt>
      <trkpt lat="43.597364" lon="1.49261">
        <ele>139.0</ele>
        <time>2020-08-12T23:09:12Z</time>
      </trkpt>
      <trkpt lat="43.596902" lon="1.49283">
        <ele>139.0</ele>
        <time>2020-08-12T23:09:14Z</time>
      </trkpt>
      <trkpt lat="43.596471" lon="1.493002">
        <ele>140.2</ele>
        <time>2020-08-12T23:09:16Z</time>
      </trkpt>
      <trkpt lat="43.595792" lon="1.493195">
        <ele>140.4</ele>
        <time>2020-08-12T23:09:19Z</time>
      </trkpt>
      <trkpt lat="43.595222" lon="1.4933">
        <ele>140.4</ele>
        <time>2020-08-12T23:09:22Z</time>
      </trkpt>
      <trkpt lat="43.593122" lon="1.493601">
        <ele>141.0</ele>
        <time>2020-08-12T23:09:31Z</time>
      </trkpt>
      <trkpt lat="43.592184" lon="1.493773">
        <ele>142.2</ele>
        <time>2020-08-12T23:09:35Z</time>
      </trkpt>
      <trkpt lat="43.591397" lon="1.493945">
        <ele>143.4</ele>
        <time>2020-08-12T23:09:39Z</time>
      </trkpt>
      <trkpt lat="43.590684" lon="1.494127">
        <ele>143.2</ele>
        <time>2020-08-12T23:09:42Z</time>
      </trkpt>
      <trkpt lat="43.589309" lon="1.494564">
        <ele>140.4</ele>
        <time>2020-08-12T23:09:48Z</time>
      </trkpt>
      <trkpt lat="43.588273" lon="1.494963">
        <ele>140.2</ele>
        <time>2020-08-12T23:09:52Z</time>
      </trkpt>
      <trkpt lat="43.582297" lon="1.497594">
        <ele>143.0</ele>
        <time>2020-08-12T23:10:20Z</time>
      </trkpt>
      <trkpt lat="43.581731" lon="1.497815">
        <ele>143.0</ele>
        <time>2020-08-12T23:10:22Z</time>
      </trkpt>
      <trkpt lat="43.580982" lon="1.498041">
        <ele>144.0</ele>
        <time>2020-08-12T23:10:26Z</time>
      </trkpt>
      <trkpt lat="43.580587" lon="1.498121">
        <ele>144.8</ele>
        <time>2020-08-12T23:10:27Z</time>
      </trkpt>
      <trkpt lat="43.580273" lon="1.49816">
        <ele>144.8</ele>
        <time>2020-08-12T23:10:29Z</time>
      </trkpt>
      <trkpt lat="43.579727" lon="1.498196">
        <ele>144.6</ele>
        <time>2020-08-12T23:10:31Z</time>
      </trkpt>
      <trkpt lat="43.579155" lon="1.498177">
        <ele>144.0</ele>
        <time>2020-08-12T23:10:34Z</time>
      </trkpt>
      <trkpt lat="43.578644" lon="1.498113">
        <ele>144.0</ele>
        <time>2020-08-12T23:10:36Z</time>
      </trkpt>
      <trkpt lat="43.578099" lon="1.497993">
        <ele>144.0</ele>
        <time>2020-08-12T23:10:38Z</time>
      </trkpt>
      <trkpt lat="43.577435" lon="1.497783">
        <ele>143.6</ele>
        <time>2020-08-12T23:10:41Z</time>
      </trkpt>
      <trkpt lat="43.576616" lon="1.497399">
        <ele>146.0</ele>
        <time>2020-08-12T23:10:45Z</time>
      </trkpt>
      <trkpt lat="43.576225" lon="1.497165">
        <ele>146.0</ele>
        <time>2020-08-12T23:10:47Z</time>
      </trkpt>
      <trkpt lat="43.574389" lon="1.495939">
        <ele>145.0</ele>
        <time>2020-08-12T23:10:56Z</time>
      </trkpt>
      <trkpt lat="43.573425" lon="1.495325">
        <ele>147.4</ele>
        <time>2020-08-12T23:11:00Z</time>
      </trkpt>
      <trkpt lat="43.572752" lon="1.494934">
        <ele>147.8</ele>
        <time>2020-08-12T23:11:03Z</time>
      </trkpt>
      <trkpt lat="43.572019" lon="1.494576">
        <ele>148.0</ele>
        <time>2020-08-12T23:11:07Z</time>
      </trkpt>
      <trkpt lat="43.571271" lon="1.494277">
        <ele>146.6</ele>
        <time>2020-08-12T23:11:10Z</time>
      </trkpt>
      <trkpt lat="43.570728" lon="1.494095">
        <ele>144.4</ele>
        <time>2020-08-12T23:11:13Z</time>
      </trkpt>
      <trkpt lat="43.570273" lon="1.493968">
        <ele>144.4</ele>
        <time>2020-08-12T23:11:15Z</time>
      </trkpt>
      <trkpt lat="43.569446" lon="1.493793">
        <ele>144.8</ele>
        <time>2020-08-12T23:11:18Z</time>
      </trkpt>
      <trkpt lat="43.569072" lon="1.493728">
        <ele>145.2</ele>
        <time>2020-08-12T23:11:20Z</time>
      </trkpt>
      <trkpt lat="43.567853" lon="1.493596">
        <ele>145.4</ele>
        <time>2020-08-12T23:11:25Z</time>
      </trkpt>
      <trkpt lat="43.566856" lon="1.49354">
        <ele>144.8</ele>
        <time>2020-08-12T23:11:29Z</time>
      </trkpt>
      <trkpt lat="43.566112" lon="1.493532">
        <ele>145.6</ele>
        <time>2020-08-12T23:11:33Z</time>
      </trkpt>
      <trkpt lat="43.561647" lon="1.49371">
        <ele>143.2</ele>
        <time>2020-08-12T23:11:52Z</time>
      </trkpt>
      <trkpt lat="43.561317" lon="1.493774">
        <ele>143.2</ele>
        <time>2020-08-12T23:11:53Z</time>
      </trkpt>
      <trkpt lat="43.560932" lon="1.493798">
        <ele>143.2</ele>
        <time>2020-08-12T23:11:55Z</time>
      </trkpt>
      <trkpt lat="43.557932" lon="1.493947">
        <ele>147.0</ele>
        <time>2020-08-12T23:12:08Z</time>
      </trkpt>
      <trkpt lat="43.555965" lon="1.494046">
        <ele>147.4</ele>
        <time>2020-08-12T23:12:17Z</time>
      </trkpt>
      <trkpt lat="43.554508" lon="1.494165">
        <ele>147.0</ele>
        <time>2020-08-12T23:12:23Z</time>
      </trkpt>
      <trkpt lat="43.553831" lon="1.494295">
        <ele>146.8</ele>
        <time>2020-08-12T23:12:26Z</time>
      </trkpt>
      <trkpt lat="43.553387" lon="1.494408">
        <ele>146.8</ele>
        <time>2020-08-12T23:12:28Z</time>
      </trkpt>
      <trkpt lat="43.552467" lon="1.49475">
        <ele>143.6</ele>
        <time>2020-08-12T23:12:32Z</time>
      </trkpt>
      <trkpt lat="43.551979" lon="1.495015">
        <ele>144.6</ele>
        <time>2020-08-12T23:12:34Z</time>
      </trkpt>
      <trkpt lat="43.551393" lon="1.495377">
        <ele>142.2</ele>
        <time>2020-08-12T23:12:37Z</time>
      </trkpt>
      <trkpt lat="43.551018" lon="1.49565">
        <ele>142.2</ele>
        <time>2020-08-12T23:12:39Z</time>
      </trkpt>
      <trkpt lat="43.550263" lon="1.496276">
        <ele>143.4</ele>
        <time>2020-08-12T23:12:43Z</time>
      </trkpt>
      <trkpt lat="43.549133" lon="1.497257">
        <ele>143.8</ele>
        <time>2020-08-12T23:12:49Z</time>
      </trkpt>
      <trkpt lat="43.548054" lon="1.498066">
        <ele>144.8</ele>
        <time>2020-08-12T23:12:54Z</time>
      </trkpt>
      <trkpt lat="43.547574" lon="1.498391">
        <ele>146.4</ele>
        <time>2020-08-12T23:12:56Z</time>
      </trkpt>
      <trkpt lat="43.547281" lon="1.498562">
        <ele>145.8</ele>
        <time>2020-08-12T23:12:58Z</time>
      </trkpt>
      <trkpt lat="43.54662" lon="1.49886">
        <ele>145.0</ele>
        <time>2020-08-12T23:13:01Z</time>
      </trkpt>
      <trkpt lat="43.546099" lon="1.499135">
        <ele>145.0</ele>
        <time>2020-08-12T23:13:03Z</time>
      </trkpt>
      <trkpt lat="43.545844" lon="1.499313">
        <ele>145.8</ele>
        <time>2020-08-12T23:13:04Z</time>
      </trkpt>
      <trkpt lat="43.545303" lon="1.499864">
        <ele>145.0</ele>
        <time>2020-08-12T23:13:07Z</time>
      </trkpt>
      <trkpt lat="43.544747" lon="1.500733">
        <ele>145.4</ele>
        <time>2020-08-12T23:13:11Z</time>
      </trkpt>
      <trkpt lat="43.544531" lon="1.500997">
        <ele>145.6</ele>
        <time>2020-08-12T23:13:12Z</time>
      </trkpt>
      <trkpt lat="43.544287" lon="1.501245">
        <ele>145.6</ele>
        <time>2020-08-12T23:13:13Z</time>
      </trkpt>
      <trkpt lat="43.5441" lon="1.501611">
        <ele>145.4</ele>
        <time>2020-08-12T23:13:15Z</time>
      </trkpt>
      <trkpt lat="43.543913" lon="1.501914">
        <ele>146.2</ele>
        <time>2020-08-12T23:13:16Z</time>
      </trkpt>
      <trkpt lat="43.54375" lon="1.502142">
        <ele>146.2</ele>
        <time>2020-08-12T23:13:17Z</time>
      </trkpt>
      <trkpt lat="43.543552" lon="1.502388">
        <ele>146.2</ele>
        <time>2020-08-12T23:13:18Z</time>
      </trkpt>
      <trkpt lat="43.543295" lon="1.50265">
        <ele>146.4</ele>
        <time>2020-08-12T23:13:20Z</time>
      </trkpt>
      <trkpt lat="43.536892" lon="1.508777">
        <ele>145.0</ele>
        <time>2020-08-12T23:13:54Z</time>
      </trkpt>
      <trkpt lat="43.534549" lon="1.510932">
        <ele>145.0</ele>
        <time>2020-08-12T23:14:06Z</time>
      </trkpt>
      <trkpt lat="43.532091" lon="1.513114">
        <ele>145.2</ele>
        <time>2020-08-12T23:14:18Z</time>
      </trkpt>
      <trkpt lat="43.530069" lon="1.514824">
        <ele>144.8</ele>
        <time>2020-08-12T23:14:29Z</time>
      </trkpt>
      <trkpt lat="43.52876" lon="1.515893">
        <ele>146.2</ele>
        <time>2020-08-12T23:14:35Z</time>
      </trkpt>
      <trkpt lat="43.5265" lon="1.517688">
        <ele>149.6</ele>
        <time>2020-08-12T23:14:47Z</time>
      </trkpt>
      <trkpt lat="43.525069" lon="1.518773">
        <ele>150.4</ele>
        <time>2020-08-12T23:14:54Z</time>
      </trkpt>
      <trkpt lat="43.523931" lon="1.519596">
        <ele>152.0</ele>
        <time>2020-08-12T23:14:59Z</time>
      </trkpt>
      <trkpt lat="43.522139" lon="1.520933">
        <ele>151.6</ele>
        <time>2020-08-12T23:15:08Z</time>
      </trkpt>
      <trkpt lat="43.519433" lon="1.522832">
        <ele>150.0</ele>
        <time>2020-08-12T23:15:21Z</time>
      </trkpt>
      <trkpt lat="43.517418" lon="1.524326">
        <ele>148.4</ele>
        <time>2020-08-12T23:15:31Z</time>
      </trkpt>
      <trkpt lat="43.515012" lon="1.526162">
        <ele>148.4</ele>
        <time>2020-08-12T23:15:43Z</time>
      </trkpt>
      <trkpt lat="43.49569" lon="1.540362">
        <ele>149.4</ele>
        <time>2020-08-12T23:17:18Z</time>
      </trkpt>
      <trkpt lat="43.492821" lon="1.54252">
        <ele>149.8</ele>
        <time>2020-08-12T23:17:32Z</time>
      </trkpt>
      <trkpt lat="43.490547" lon="1.544284">
        <ele>152.6</ele>
        <time>2020-08-12T23:17:44Z</time>
      </trkpt>
      <trkpt lat="43.488777" lon="1.54572">
        <ele>155.4</ele>
        <time>2020-08-12T23:17:53Z</time>
      </trkpt>
      <trkpt lat="43.486493" lon="1.547632">
        <ele>153.2</ele>
        <time>2020-08-12T23:18:04Z</time>
      </trkpt>
      <trkpt lat="43.485279" lon="1.548692">
        <ele>153.4</ele>
        <time>2020-08-12T23:18:10Z</time>
      </trkpt>
      <trkpt lat="43.483329" lon="1.550466">
        <ele>155.6</ele>
        <time>2020-08-12T23:18:21Z</time>
      </trkpt>
      <trkpt lat="43.481623" lon="1.5521">
        <ele>153.0</ele>
        <time>2020-08-12T23:18:30Z</time>
      </trkpt>
      <trkpt lat="43.480062" lon="1.553667">
        <ele>150.6</ele>
        <time>2020-08-12T23:18:38Z</time>
      </trkpt>
      <trkpt lat="43.479062" lon="1.554709">
        <ele>153.0</ele>
        <time>2020-08-12T23:18:43Z</time>
      </trkpt>
      <trkpt lat="43.476472" lon="1.55747">
        <ele>151.8</ele>
        <time>2020-08-12T23:18:58Z</time>
      </trkpt>
      <trkpt lat="43.47559" lon="1.558445">
        <ele>151.8</ele>
        <time>2020-08-12T23:19:02Z</time>
      </trkpt>
      <trkpt lat="43.474213" lon="1.560037">
        <ele>151.2</ele>
        <time>2020-08-12T23:19:10Z</time>
      </trkpt>
      <trkpt lat="43.473529" lon="1.560869">
        <ele>152.0</ele>
        <time>2020-08-12T23:19:14Z</time>
      </trkpt>
      <trkpt lat="43.472323" lon="1.56242">
        <ele>151.6</ele>
        <time>2020-08-12T23:19:21Z</time>
      </trkpt>
      <trkpt lat="43.471463" lon="1.563605">
        <ele>152.2</ele>
        <time>2020-08-12T23:19:27Z</time>
      </trkpt>
      <trkpt lat="43.470528" lon="1.564963">
        <ele>153.6</ele>
        <time>2020-08-12T23:19:33Z</time>
      </trkpt>
      <trkpt lat="43.469699" lon="1.566244">
        <ele>152.6</ele>
        <time>2020-08-12T23:19:38Z</time>
      </trkpt>
      <trkpt lat="43.468893" lon="1.567555">
        <ele>152.8</ele>
        <time>2020-08-12T23:19:43Z</time>
      </trkpt>
      <trkpt lat="43.467639" lon="1.569749">
        <ele>153.8</ele>
        <time>2020-08-12T23:19:52Z</time>
      </trkpt>
      <trkpt lat="43.467077" lon="1.570806">
        <ele>152.8</ele>
        <time>2020-08-12T23:19:56Z</time>
      </trkpt>
      <trkpt lat="43.465769" lon="1.573411">
        <ele>155.2</ele>
        <time>2020-08-12T23:20:06Z</time>
      </trkpt>
      <trkpt lat="43.460411" lon="1.584466">
        <ele>153.8</ele>
        <time>2020-08-12T23:20:48Z</time>
      </trkpt>
      <trkpt lat="43.45942" lon="1.586497">
        <ele>154.6</ele>
        <time>2020-08-12T23:20:56Z</time>
      </trkpt>
      <trkpt lat="43.458859" lon="1.587601">
        <ele>154.8</ele>
        <time>2020-08-12T23:21:00Z</time>
      </trkpt>
      <trkpt lat="43.457736" lon="1.589701">
        <ele>156.0</ele>
        <time>2020-08-12T23:21:08Z</time>
      </trkpt>
      <trkpt lat="43.456734" lon="1.591497">
        <ele>157.2</ele>
        <time>2020-08-12T23:21:15Z</time>
      </trkpt>
      <trkpt lat="43.455659" lon="1.593343">
        <ele>160.6</ele>
        <time>2020-08-12T23:21:23Z</time>
      </trkpt>
      <trkpt lat="43.455058" lon="1.594345">
        <ele>159.0</ele>
        <time>2020-08-12T23:21:27Z</time>
      </trkpt>
      <trkpt lat="43.45329" lon="1.597115">
        <ele>161.2</ele>
        <time>2020-08-12T23:21:39Z</time>
      </trkpt>
      <trkpt lat="43.451864" lon="1.599196">
        <ele>159.2</ele>
        <time>2020-08-12T23:21:48Z</time>
      </trkpt>
      <trkpt lat="43.450365" lon="1.601267">
        <ele>159.2</ele>
        <time>2020-08-12T23:21:57Z</time>
      </trkpt>
      <trkpt lat="43.448902" lon="1.603186">
        <ele>158.4</ele>
        <time>2020-08-12T23:22:06Z</time>
      </trkpt>
      <trkpt lat="43.448067" lon="1.604232">
        <ele>162.2</ele>
        <time>2020-08-12T23:22:11Z</time>
      </trkpt>
      <trkpt lat="43.447252" lon="1.605217">
        <ele>163.2</ele>
        <time>2020-08-12T23:22:15Z</time>
      </trkpt>
      <trkpt lat="43.445925" lon="1.606775">
        <ele>161.0</ele>
        <time>2020-08-12T23:22:23Z</time>
      </trkpt>
      <trkpt lat="43.444546" lon="1.608338">
        <ele>161.2</ele>
        <time>2020-08-12T23:22:31Z</time>
      </trkpt>
      <trkpt lat="43.44049" lon="1.612808">
        <ele>162.6</ele>
        <time>2020-08-12T23:22:53Z</time>
      </trkpt>
      <trkpt lat="43.438782" lon="1.614737">
        <ele>167.4</ele>
        <time>2020-08-12T23:23:03Z</time>
      </trkpt>
      <trkpt lat="43.437002" lon="1.61691">
        <ele>166.2</ele>
        <time>2020-08-12T23:23:13Z</time>
      </trkpt>
      <trkpt lat="43.435994" lon="1.618261">
        <ele>167.2</ele>
        <time>2020-08-12T23:23:19Z</time>
      </trkpt>
      <trkpt lat="43.434954" lon="1.619727">
        <ele>166.8</ele>
        <time>2020-08-12T23:23:26Z</time>
      </trkpt>
      <trkpt lat="43.434202" lon="1.620856">
        <ele>163.0</ele>
        <time>2020-08-12T23:23:30Z</time>
      </trkpt>
      <trkpt lat="43.433152" lon="1.622533">
        <ele>162.8</ele>
        <time>2020-08-12T23:23:37Z</time>
      </trkpt>
      <trkpt lat="43.431984" lon="1.624546">
        <ele>162.8</ele>
        <time>2020-08-12T23:23:45Z</time>
      </trkpt>
      <trkpt lat="43.431194" lon="1.626023">
        <ele>163.2</ele>
        <time>2020-08-12T23:23:51Z</time>
      </trkpt>
      <trkpt lat="43.430425" lon="1.627532">
        <ele>163.2</ele>
        <time>2020-08-12T23:23:57Z</time>
      </trkpt>
      <trkpt lat="43.429815" lon="1.628818">
        <ele>161.8</ele>
        <time>2020-08-12T23:24:02Z</time>
      </trkpt>
      <trkpt lat="43.429117" lon="1.63037">
        <ele>161.6</ele>
        <time>2020-08-12T23:24:08Z</time>
      </trkpt>
      <trkpt lat="43.427991" lon="1.633045">
        <ele>164.4</ele>
        <time>2020-08-12T23:24:17Z</time>
      </trkpt>
      <trkpt lat="43.422975" lon="1.645506">
        <ele>163.8</ele>
        <time>2020-08-12T23:25:02Z</time>
      </trkpt>
      <trkpt lat="43.422234" lon="1.647305">
        <ele>167.2</ele>
        <time>2020-08-12T23:25:09Z</time>
      </trkpt>
      <trkpt lat="43.422035" lon="1.647834">
        <ele>167.0</ele>
        <time>2020-08-12T23:25:11Z</time>
      </trkpt>
      <trkpt lat="43.421872" lon="1.648067">
        <ele>167.0</ele>
        <time>2020-08-12T23:25:12Z</time>
      </trkpt>
      <trkpt lat="43.421404" lon="1.649086">
        <ele>166.6</ele>
        <time>2020-08-12T23:25:16Z</time>
      </trkpt>
      <trkpt lat="43.421016" lon="1.649869">
        <ele>166.6</ele>
        <time>2020-08-12T23:25:19Z</time>
      </trkpt>
      <trkpt lat="43.420641" lon="1.650575">
        <ele>165.6</ele>
        <time>2020-08-12T23:25:22Z</time>
      </trkpt>
      <trkpt lat="43.420334" lon="1.651045">
        <ele>166.0</ele>
        <time>2020-08-12T23:25:24Z</time>
      </trkpt>
      <trkpt lat="43.420053" lon="1.651403">
        <ele>166.0</ele>
        <time>2020-08-12T23:25:26Z</time>
      </trkpt>
      <trkpt lat="43.419777" lon="1.651699">
        <ele>166.4</ele>
        <time>2020-08-12T23:25:28Z</time>
      </trkpt>
      <trkpt lat="43.419148" lon="1.652193">
        <ele>165.2</ele>
        <time>2020-08-12T23:25:31Z</time>
      </trkpt>
      <trkpt lat="43.418519" lon="1.652513">
        <ele>165.6</ele>
        <time>2020-08-12T23:25:34Z</time>
      </trkpt>
      <trkpt lat="43.418218" lon="1.652612">
        <ele>165.4</ele>
        <time>2020-08-12T23:25:35Z</time>
      </trkpt>
      <trkpt lat="43.417781" lon="1.652701">
        <ele>165.4</ele>
        <time>2020-08-12T23:25:37Z</time>
      </trkpt>
      <trkpt lat="43.417146" lon="1.652749">
        <ele>165.8</ele>
        <time>2020-08-12T23:25:40Z</time>
      </trkpt>
      <trkpt lat="43.414965" lon="1.652743">
        <ele>166.8</ele>
        <time>2020-08-12T23:25:50Z</time>
      </trkpt>
      <trkpt lat="43.414667" lon="1.652704">
        <ele>166.8</ele>
        <time>2020-08-12T23:25:51Z</time>
      </trkpt>
      <trkpt lat="43.414027" lon="1.652568">
        <ele>167.4</ele>
        <time>2020-08-12T23:25:54Z</time>
      </trkpt>
      <trkpt lat="43.413262" lon="1.652352">
        <ele>167.6</ele>
        <time>2020-08-12T23:25:58Z</time>
      </trkpt>
      <trkpt lat="43.41205" lon="1.651849">
        <ele>169.0</ele>
        <time>2020-08-12T23:26:04Z</time>
      </trkpt>
      <trkpt lat="43.410985" lon="1.651346">
        <ele>171.6</ele>
        <time>2020-08-12T23:26:09Z</time>
      </trkpt>
      <trkpt lat="43.410381" lon="1.650986">
        <ele>173.4</ele>
        <time>2020-08-12T23:26:12Z</time>
      </trkpt>
      <trkpt lat="43.409234" lon="1.650198">
        <ele>177.2</ele>
        <time>2020-08-12T23:26:17Z</time>
      </trkpt>
      <trkpt lat="43.408356" lon="1.649495">
        <ele>187.8</ele>
        <time>2020-08-12T23:26:22Z</time>
      </trkpt>
      <trkpt lat="43.407865" lon="1.649017">
        <ele>202.2</ele>
        <time>2020-08-12T23:26:25Z</time>
      </trkpt>
      <trkpt lat="43.407217" lon="1.648349">
        <ele>207.6</ele>
        <time>2020-08-12T23:26:28Z</time>
      </trkpt>
      <trkpt lat="43.406354" lon="1.647414">
        <ele>211.4</ele>
        <time>2020-08-12T23:26:33Z</time>
      </trkpt>
      <trkpt lat="43.40465" lon="1.645256">
        <ele>211.8</ele>
        <time>2020-08-12T23:26:44Z</time>
      </trkpt>
      <trkpt lat="43.403713" lon="1.644033">
        <ele>215.4</ele>
        <time>2020-08-12T23:26:50Z</time>
      </trkpt>
      <trkpt lat="43.402904" lon="1.643085">
        <ele>219.8</ele>
        <time>2020-08-12T23:26:54Z</time>
      </trkpt>
      <trkpt lat="43.402283" lon="1.642391">
        <ele>221.2</ele>
        <time>2020-08-12T23:26:58Z</time>
      </trkpt>
      <trkpt lat="43.401994" lon="1.642101">
        <ele>221.2</ele>
        <time>2020-08-12T23:27:00Z</time>
      </trkpt>
      <trkpt lat="43.401066" lon="1.641238">
        <ele>221.0</ele>
        <time>2020-08-12T23:27:05Z</time>
      </trkpt>
      <trkpt lat="43.397272" lon="1.638144">
        <ele>233.4</ele>
        <time>2020-08-12T23:27:25Z</time>
      </trkpt>
      <trkpt lat="43.395763" lon="1.636846">
        <ele>242.2</ele>
        <time>2020-08-12T23:27:33Z</time>
      </trkpt>
      <trkpt lat="43.394739" lon="1.635867">
        <ele>241.8</ele>
        <time>2020-08-12T23:27:38Z</time>
      </trkpt>
      <trkpt lat="43.39404" lon="1.635155">
        <ele>247.2</ele>
        <time>2020-08-12T23:27:42Z</time>
      </trkpt>
      <trkpt lat="43.393379" lon="1.634436">
        <ele>251.0</ele>
        <time>2020-08-12T23:27:46Z</time>
      </trkpt>
      <trkpt lat="43.392192" lon="1.633061">
        <ele>257.2</ele>
        <time>2020-08-12T23:27:53Z</time>
      </trkpt>
      <trkpt lat="43.391482" lon="1.632143">
        <ele>262.4</ele>
        <time>2020-08-12T23:27:57Z</time>
      </trkpt>
      <trkpt lat="43.389986" lon="1.630047">
        <ele>261.4</ele>
        <time>2020-08-12T23:28:07Z</time>
      </trkpt>
      <trkpt lat="43.389199" lon="1.628817">
        <ele>255.4</ele>
        <time>2020-08-12T23:28:12Z</time>
      </trkpt>
      <trkpt lat="43.388568" lon="1.627777">
        <ele>248.8</ele>
        <time>2020-08-12T23:28:17Z</time>
      </trkpt>
      <trkpt lat="43.387802" lon="1.626441">
        <ele>246.6</ele>
        <time>2020-08-12T23:28:22Z</time>
      </trkpt>
      <trkpt lat="43.386965" lon="1.62477">
        <ele>253.2</ele>
        <time>2020-08-12T23:28:29Z</time>
      </trkpt>
      <trkpt lat="43.386415" lon="1.623615">
        <ele>259.6</ele>
        <time>2020-08-12T23:28:34Z</time>
      </trkpt>
      <trkpt lat="43.385869" lon="1.622416">
        <ele>255.0</ele>
        <time>2020-08-12T23:28:38Z</time>
      </trkpt>
      <trkpt lat="43.385427" lon="1.621403">
        <ele>254.4</ele>
        <time>2020-08-12T23:28:42Z</time>
      </trkpt>
      <trkpt lat="43.384393" lon="1.618852">
        <ele>264.2</ele>
        <time>2020-08-12T23:28:52Z</time>
      </trkpt>
      <trkpt lat="43.383713" lon="1.617247">
        <ele>268.2</ele>
        <time>2020-08-12T23:28:58Z</time>
      </trkpt>
      <trkpt lat="43.383185" lon="1.616129">
        <ele>272.4</ele>
        <time>2020-08-12T23:29:02Z</time>
      </trkpt>
      <trkpt lat="43.382301" lon="1.61445">
        <ele>275.0</ele>
        <time>2020-08-12T23:29:09Z</time>
      </trkpt>
      <trkpt lat="43.381767" lon="1.613607">
        <ele>271.2</ele>
        <time>2020-08-12T23:29:13Z</time>
      </trkpt>
      <trkpt lat="43.381249" lon="1.612829">
        <ele>265.0</ele>
        <time>2020-08-12T23:29:16Z</time>
      </trkpt>
      <trkpt lat="43.380543" lon="1.611895">
        <ele>257.6</ele>
        <time>2020-08-12T23:29:21Z</time>
      </trkpt>
      <trkpt lat="43.37999" lon="1.61124">
        <ele>255.2</ele>
        <time>2020-08-12T23:29:24Z</time>
      </trkpt>
      <trkpt lat="43.37886" lon="1.610103">
        <ele>255.4</ele>
        <time>2020-08-12T23:29:30Z</time>
      </trkpt>
      <trkpt lat="43.378163" lon="1.60946">
        <ele>248.0</ele>
        <time>2020-08-12T23:29:34Z</time>
      </trkpt>
      <trkpt lat="43.377435" lon="1.608875">
        <ele>246.4</ele>
        <time>2020-08-12T23:29:38Z</time>
      </trkpt>
      <trkpt lat="43.376783" lon="1.60842">
        <ele>246.4</ele>
        <time>2020-08-12T23:29:41Z</time>
      </trkpt>
      <trkpt lat="43.3752" lon="1.607207">
        <ele>243.0</ele>
        <time>2020-08-12T23:29:49Z</time>
      </trkpt>
      <trkpt lat="43.374351" lon="1.606452">
        <ele>231.8</ele>
        <time>2020-08-12T23:29:54Z</time>
      </trkpt>
      <trkpt lat="43.37366" lon="1.605775">
        <ele>224.8</ele>
        <time>2020-08-12T23:29:58Z</time>
      </trkpt>
      <trkpt lat="43.373065" lon="1.605162">
        <ele>226.8</ele>
        <time>2020-08-12T23:30:01Z</time>
      </trkpt>
      <trkpt lat="43.372479" lon="1.604456">
        <ele>239.6</ele>
        <time>2020-08-12T23:30:05Z</time>
      </trkpt>
      <trkpt lat="43.371864" lon="1.603661">
        <ele>245.0</ele>
        <time>2020-08-12T23:30:08Z</time>
      </trkpt>
      <trkpt lat="43.371348" lon="1.602903">
        <ele>258.6</ele>
        <time>2020-08-12T23:30:12Z</time>
      </trkpt>
      <trkpt lat="43.370102" lon="1.6009">
        <ele>265.2</ele>
        <time>2020-08-12T23:30:20Z</time>
      </trkpt>
      <trkpt lat="43.369414" lon="1.59976">
        <ele>258.6</ele>
        <time>2020-08-12T23:30:25Z</time>
      </trkpt>
      <trkpt lat="43.368911" lon="1.598974">
        <ele>250.6</ele>
        <time>2020-08-12T23:30:29Z</time>
      </trkpt>
      <trkpt lat="43.36816" lon="1.597896">
        <ele>253.4</ele>
        <time>2020-08-12T23:30:34Z</time>
      </trkpt>
      <trkpt lat="43.3678" lon="1.597424">
        <ele>250.4</ele>
        <time>2020-08-12T23:30:36Z</time>
      </trkpt>
      <trkpt lat="43.367298" lon="1.596811">
        <ele>257.2</ele>
        <time>2020-08-12T23:30:39Z</time>
      </trkpt>
      <trkpt lat="43.366818" lon="1.596286">
        <ele>255.6</ele>
        <time>2020-08-12T23:30:42Z</time>
      </trkpt>
      <trkpt lat="43.365472" lon="1.594966">
        <ele>248.0</ele>
        <time>2020-08-12T23:30:49Z</time>
      </trkpt>
      <trkpt lat="43.364782" lon="1.594432">
        <ele>249.4</ele>
        <time>2020-08-12T23:30:53Z</time>
      </trkpt>
      <trkpt lat="43.363737" lon="1.593682">
        <ele>243.4</ele>
        <time>2020-08-12T23:30:58Z</time>
      </trkpt>
      <trkpt lat="43.362167" lon="1.592794">
        <ele>235.2</ele>
        <time>2020-08-12T23:31:06Z</time>
      </trkpt>
      <trkpt lat="43.361637" lon="1.59256">
        <ele>232.8</ele>
        <time>2020-08-12T23:31:08Z</time>
      </trkpt>
      <trkpt lat="43.360618" lon="1.592185">
        <ele>222.4</ele>
        <time>2020-08-12T23:31:13Z</time>
      </trkpt>
      <trkpt lat="43.35994" lon="1.591986">
        <ele>214.4</ele>
        <time>2020-08-12T23:31:16Z</time>
      </trkpt>
      <trkpt lat="43.359214" lon="1.591829">
        <ele>214.4</ele>
        <time>2020-08-12T23:31:20Z</time>
      </trkpt>
      <trkpt lat="43.358573" lon="1.591715">
        <ele>208.6</ele>
        <time>2020-08-12T23:31:22Z</time>
      </trkpt>
      <trkpt lat="43.358061" lon="1.591646">
        <ele>206.2</ele>
        <time>2020-08-12T23:31:25Z</time>
      </trkpt>
      <trkpt lat="43.357289" lon="1.591594">
        <ele>205.6</ele>
        <time>2020-08-12T23:31:28Z</time>
      </trkpt>
      <trkpt lat="43.356346" lon="1.591598">
        <ele>204.6</ele>
        <time>2020-08-12T23:31:33Z</time>
      </trkpt>
      <trkpt lat="43.355271" lon="1.59169">
        <ele>205.4</ele>
        <time>2020-08-12T23:31:37Z</time>
      </trkpt>
      <trkpt lat="43.354028" lon="1.591932">
        <ele>204.8</ele>
        <time>2020-08-12T23:31:43Z</time>
      </trkpt>
      <trkpt lat="43.353356" lon="1.592122">
        <ele>204.8</ele>
        <time>2020-08-12T23:31:46Z</time>
      </trkpt>
      <trkpt lat="43.352328" lon="1.592476">
        <ele>206.8</ele>
        <time>2020-08-12T23:31:51Z</time>
      </trkpt>
      <trkpt lat="43.351556" lon="1.592814">
        <ele>209.6</ele>
        <time>2020-08-12T23:31:55Z</time>
      </trkpt>
      <trkpt lat="43.350874" lon="1.593166">
        <ele>209.6</ele>
        <time>2020-08-12T23:31:58Z</time>
      </trkpt>
      <trkpt lat="43.350154" lon="1.593587">
        <ele>213.0</ele>
        <time>2020-08-12T23:32:01Z</time>
      </trkpt>
      <trkpt lat="43.349646" lon="1.593916">
        <ele>217.0</ele>
        <time>2020-08-12T23:32:04Z</time>
      </trkpt>
      <trkpt lat="43.348929" lon="1.594429">
        <ele>214.8</ele>
        <time>2020-08-12T23:32:08Z</time>
      </trkpt>
      <trkpt lat="43.348448" lon="1.594812">
        <ele>214.8</ele>
        <time>2020-08-12T23:32:10Z</time>
      </trkpt>
      <trkpt lat="43.34737" lon="1.595812">
        <ele>219.6</ele>
        <time>2020-08-12T23:32:16Z</time>
      </trkpt>
      <trkpt lat="43.346487" lon="1.5967">
        <ele>217.2</ele>
        <time>2020-08-12T23:32:21Z</time>
      </trkpt>
      <trkpt lat="43.345612" lon="1.597692">
        <ele>216.8</ele>
        <time>2020-08-12T23:32:26Z</time>
      </trkpt>
      <trkpt lat="43.344688" lon="1.598786">
        <ele>215.8</ele>
        <time>2020-08-12T23:32:31Z</time>
      </trkpt>
      <trkpt lat="43.34355" lon="1.600192">
        <ele>213.8</ele>
        <time>2020-08-12T23:32:38Z</time>
      </trkpt>
      <trkpt lat="43.342505" lon="1.601515">
        <ele>212.4</ele>
        <time>2020-08-12T23:32:45Z</time>
      </trkpt>
      <trkpt lat="43.340478" lon="1.604187">
        <ele>215.4</ele>
        <time>2020-08-12T23:32:57Z</time>
      </trkpt>
      <trkpt lat="43.338046" lon="1.607595">
        <ele>211.2</ele>
        <time>2020-08-12T23:33:13Z</time>
      </trkpt>
      <trkpt lat="43.336936" lon="1.609241">
        <ele>210.6</ele>
        <time>2020-08-12T23:33:20Z</time>
      </trkpt>
      <trkpt lat="43.335886" lon="1.610911">
        <ele>211.8</ele>
        <time>2020-08-12T23:33:28Z</time>
      </trkpt>
      <trkpt lat="43.335172" lon="1.612185">
        <ele>213.2</ele>
        <time>2020-08-12T23:33:33Z</time>
      </trkpt>
      <trkpt lat="43.334406" lon="1.61371">
        <ele>215.2</ele>
        <time>2020-08-12T23:33:39Z</time>
      </trkpt>
      <trkpt lat="43.333854" lon="1.614864">
        <ele>219.4</ele>
        <time>2020-08-12T23:33:44Z</time>
      </trkpt>
      <trkpt lat="43.333371" lon="1.615975">
        <ele>214.8</ele>
        <time>2020-08-12T23:33:48Z</time>
      </trkpt>
      <trkpt lat="43.332768" lon="1.617476">
        <ele>218.8</ele>
        <time>2020-08-12T23:33:53Z</time>
      </trkpt>
      <trkpt lat="43.33237" lon="1.618602">
        <ele>220.4</ele>
        <time>2020-08-12T23:33:58Z</time>
      </trkpt>
      <trkpt lat="43.331977" lon="1.619833">
        <ele>217.4</ele>
        <time>2020-08-12T23:34:02Z</time>
      </trkpt>
      <trkpt lat="43.33145" lon="1.621601">
        <ele>216.2</ele>
        <time>2020-08-12T23:34:08Z</time>
      </trkpt>
      <trkpt lat="43.330905" lon="1.623585">
        <ele>214.4</ele>
        <time>2020-08-12T23:34:15Z</time>
      </trkpt>
      <trkpt lat="43.330235" lon="1.625827">
        <ele>215.2</ele>
        <time>2020-08-12T23:34:23Z</time>
      </trkpt>
      <trkpt lat="43.329758" lon="1.627271">
        <ele>215.2</ele>
        <time>2020-08-12T23:34:28Z</time>
      </trkpt>
      <trkpt lat="43.329316" lon="1.628471">
        <ele>217.2</ele>
        <time>2020-08-12T23:34:33Z</time>
      </trkpt>
      <trkpt lat="43.328851" lon="1.629624">
        <ele>215.6</ele>
        <time>2020-08-12T23:34:37Z</time>
      </trkpt>
      <trkpt lat="43.328171" lon="1.630966">
        <ele>216.6</ele>
        <time>2020-08-12T23:34:43Z</time>
      </trkpt>
      <trkpt lat="43.327365" lon="1.632459">
        <ele>216.6</ele>
        <time>2020-08-12T23:34:49Z</time>
      </trkpt>
      <trkpt lat="43.326662" lon="1.633489">
        <ele>217.2</ele>
        <time>2020-08-12T23:34:53Z</time>
      </trkpt>
      <trkpt lat="43.325888" lon="1.634557">
        <ele>218.0</ele>
        <time>2020-08-12T23:34:58Z</time>
      </trkpt>
      <trkpt lat="43.324863" lon="1.635777">
        <ele>221.0</ele>
        <time>2020-08-12T23:35:04Z</time>
      </trkpt>
      <trkpt lat="43.320821" lon="1.639922">
        <ele>220.2</ele>
        <time>2020-08-12T23:35:27Z</time>
      </trkpt>
      <trkpt lat="43.318696" lon="1.64224">
        <ele>220.2</ele>
        <time>2020-08-12T23:35:39Z</time>
      </trkpt>
      <trkpt lat="43.317429" lon="1.643704">
        <ele>222.6</ele>
        <time>2020-08-12T23:35:47Z</time>
      </trkpt>
      <trkpt lat="43.315412" lon="1.645851">
        <ele>226.8</ele>
        <time>2020-08-12T23:35:58Z</time>
      </trkpt>
      <trkpt lat="43.314285" lon="1.646918">
        <ele>227.6</ele>
        <time>2020-08-12T23:36:04Z</time>
      </trkpt>
      <trkpt lat="43.313257" lon="1.647808">
        <ele>228.2</ele>
        <time>2020-08-12T23:36:10Z</time>
      </trkpt>
      <trkpt lat="43.308625" lon="1.651265">
        <ele>231.2</ele>
        <time>2020-08-12T23:36:34Z</time>
      </trkpt>
      <trkpt lat="43.307332" lon="1.652283">
        <ele>235.2</ele>
        <time>2020-08-12T23:36:40Z</time>
      </trkpt>
      <trkpt lat="43.305848" lon="1.653579">
        <ele>232.0</ele>
        <time>2020-08-12T23:36:48Z</time>
      </trkpt>
      <trkpt lat="43.304842" lon="1.654544">
        <ele>234.2</ele>
        <time>2020-08-12T23:36:54Z</time>
      </trkpt>
      <trkpt lat="43.303579" lon="1.655858">
        <ele>235.6</ele>
        <time>2020-08-12T23:37:01Z</time>
      </trkpt>
      <trkpt lat="43.302085" lon="1.657502">
        <ele>235.8</ele>
        <time>2020-08-12T23:37:10Z</time>
      </trkpt>
      <trkpt lat="43.299945" lon="1.660045">
        <ele>241.6</ele>
        <time>2020-08-12T23:37:22Z</time>
      </trkpt>
      <trkpt lat="43.295432" lon="1.665758">
        <ele>243.6</ele>
        <time>2020-08-12T23:37:50Z</time>
      </trkpt>
      <trkpt lat="43.294311" lon="1.667133">
        <ele>242.4</ele>
        <time>2020-08-12T23:37:57Z</time>
      </trkpt>
      <trkpt lat="43.293555" lon="1.668107">
        <ele>243.2</ele>
        <time>2020-08-12T23:38:02Z</time>
      </trkpt>
      <trkpt lat="43.292773" lon="1.669046">
        <ele>245.8</ele>
        <time>2020-08-12T23:38:06Z</time>
      </trkpt>
      <trkpt lat="43.291666" lon="1.670175">
        <ele>246.4</ele>
        <time>2020-08-12T23:38:12Z</time>
      </trkpt>
      <trkpt lat="43.290339" lon="1.671407">
        <ele>249.8</ele>
        <time>2020-08-12T23:38:20Z</time>
      </trkpt>
      <trkpt lat="43.289491" lon="1.672024">
        <ele>250.0</ele>
        <time>2020-08-12T23:38:24Z</time>
      </trkpt>
      <trkpt lat="43.288284" lon="1.672779">
        <ele>251.8</ele>
        <time>2020-08-12T23:38:30Z</time>
      </trkpt>
      <trkpt lat="43.287342" lon="1.673281">
        <ele>253.6</ele>
        <time>2020-08-12T23:38:35Z</time>
      </trkpt>
      <trkpt lat="43.286742" lon="1.673563">
        <ele>252.8</ele>
        <time>2020-08-12T23:38:37Z</time>
      </trkpt>
      <trkpt lat="43.286186" lon="1.673766">
        <ele>253.0</ele>
        <time>2020-08-12T23:38:40Z</time>
      </trkpt>
      <trkpt lat="43.284862" lon="1.674207">
        <ele>258.4</ele>
        <time>2020-08-12T23:38:46Z</time>
      </trkpt>
      <trkpt lat="43.283636" lon="1.674431">
        <ele>261.2</ele>
        <time>2020-08-12T23:38:52Z</time>
      </trkpt>
      <trkpt lat="43.282858" lon="1.674526">
        <ele>262.4</ele>
        <time>2020-08-12T23:38:55Z</time>
      </trkpt>
      <trkpt lat="43.282259" lon="1.674578">
        <ele>262.2</ele>
        <time>2020-08-12T23:38:58Z</time>
      </trkpt>
      <trkpt lat="43.281468" lon="1.674569">
        <ele>263.2</ele>
        <time>2020-08-12T23:39:02Z</time>
      </trkpt>
      <trkpt lat="43.280576" lon="1.674482">
        <ele>268.8</ele>
        <time>2020-08-12T23:39:06Z</time>
      </trkpt>
      <trkpt lat="43.279654" lon="1.674338">
        <ele>274.6</ele>
        <time>2020-08-12T23:39:10Z</time>
      </trkpt>
      <trkpt lat="43.278788" lon="1.674162">
        <ele>273.0</ele>
        <time>2020-08-12T23:39:14Z</time>
      </trkpt>
      <trkpt lat="43.27782" lon="1.673869">
        <ele>274.8</ele>
        <time>2020-08-12T23:39:18Z</time>
      </trkpt>
      <trkpt lat="43.276249" lon="1.673286">
        <ele>283.8</ele>
        <time>2020-08-12T23:39:26Z</time>
      </trkpt>
      <trkpt lat="43.275516" lon="1.67298">
        <ele>276.4</ele>
        <time>2020-08-12T23:39:29Z</time>
      </trkpt>
      <trkpt lat="43.274875" lon="1.672664">
        <ele>263.6</ele>
        <time>2020-08-12T23:39:32Z</time>
      </trkpt>
      <trkpt lat="43.272997" lon="1.671543">
        <ele>233.6</ele>
        <time>2020-08-12T23:39:41Z</time>
      </trkpt>
      <trkpt lat="43.271927" lon="1.670792">
        <ele>226.8</ele>
        <time>2020-08-12T23:39:47Z</time>
      </trkpt>
      <trkpt lat="43.270748" lon="1.669898">
        <ele>223.6</ele>
        <time>2020-08-12T23:39:53Z</time>
      </trkpt>
      <trkpt lat="43.269431" lon="1.668813">
        <ele>221.4</ele>
        <time>2020-08-12T23:40:00Z</time>
      </trkpt>
      <trkpt lat="43.268535" lon="1.668017">
        <ele>220.2</ele>
        <time>2020-08-12T23:40:05Z</time>
      </trkpt>
      <trkpt lat="43.266625" lon="1.66626">
        <ele>219.2</ele>
        <time>2020-08-12T23:40:15Z</time>
      </trkpt>
      <trkpt lat="43.265704" lon="1.665367">
        <ele>219.4</ele>
        <time>2020-08-12T23:40:20Z</time>
      </trkpt>
      <trkpt lat="43.263337" lon="1.663202">
        <ele>223.8</ele>
        <time>2020-08-12T23:40:33Z</time>
      </trkpt>
      <trkpt lat="43.262158" lon="1.66218">
        <ele>221.8</ele>
        <time>2020-08-12T23:40:39Z</time>
      </trkpt>
      <trkpt lat="43.2616" lon="1.661725">
        <ele>222.0</ele>
        <time>2020-08-12T23:40:42Z</time>
      </trkpt>
      <trkpt lat="43.260417" lon="1.66086">
        <ele>224.2</ele>
        <time>2020-08-12T23:40:48Z</time>
      </trkpt>
      <trkpt lat="43.259479" lon="1.660231">
        <ele>226.8</ele>
        <time>2020-08-12T23:40:53Z</time>
      </trkpt>
      <trkpt lat="43.258202" lon="1.659408">
        <ele>234.6</ele>
        <time>2020-08-12T23:40:59Z</time>
      </trkpt>
      <trkpt lat="43.256929" lon="1.658632">
        <ele>235.0</ele>
        <time>2020-08-12T23:41:06Z</time>
      </trkpt>
      <trkpt lat="43.254678" lon="1.657145">
        <ele>238.2</ele>
        <time>2020-08-12T23:41:17Z</time>
      </trkpt>
      <trkpt lat="43.253534" lon="1.656309">
        <ele>237.8</ele>
        <time>2020-08-12T23:41:23Z</time>
      </trkpt>
      <trkpt lat="43.252663" lon="1.65561">
        <ele>236.0</ele>
        <time>2020-08-12T23:41:27Z</time>
      </trkpt>
      <trkpt lat="43.251295" lon="1.654425">
        <ele>237.6</ele>
        <time>2020-08-12T23:41:35Z</time>
      </trkpt>
      <trkpt lat="43.250533" lon="1.653703">
        <ele>238.4</ele>
        <time>2020-08-12T23:41:39Z</time>
      </trkpt>
      <trkpt lat="43.249926" lon="1.653087">
        <ele>238.6</ele>
        <time>2020-08-12T23:41:42Z</time>
      </trkpt>
      <trkpt lat="43.246345" lon="1.649288">
        <ele>240.4</ele>
        <time>2020-08-12T23:42:03Z</time>
      </trkpt>
      <trkpt lat="43.245334" lon="1.64829">
        <ele>239.8</ele>
        <time>2020-08-12T23:42:08Z</time>
      </trkpt>
      <trkpt lat="43.244461" lon="1.647463">
        <ele>240.2</ele>
        <time>2020-08-12T23:42:13Z</time>
      </trkpt>
      <trkpt lat="43.243447" lon="1.646555">
        <ele>241.0</ele>
        <time>2020-08-12T23:42:18Z</time>
      </trkpt>
      <trkpt lat="43.242616" lon="1.645865">
        <ele>241.0</ele>
        <time>2020-08-12T23:42:23Z</time>
      </trkpt>
      <trkpt lat="43.241689" lon="1.645131">
        <ele>241.4</ele>
        <time>2020-08-12T23:42:28Z</time>
      </trkpt>
      <trkpt lat="43.240608" lon="1.644328">
        <ele>241.6</ele>
        <time>2020-08-12T23:42:33Z</time>
      </trkpt>
      <trkpt lat="43.239441" lon="1.643532">
        <ele>242.0</ele>
        <time>2020-08-12T23:42:39Z</time>
      </trkpt>
      <trkpt lat="43.237936" lon="1.642584">
        <ele>242.8</ele>
        <time>2020-08-12T23:42:46Z</time>
      </trkpt>
      <trkpt lat="43.236999" lon="1.642051">
        <ele>243.8</ele>
        <time>2020-08-12T23:42:51Z</time>
      </trkpt>
      <trkpt lat="43.235616" lon="1.641336">
        <ele>247.0</ele>
        <time>2020-08-12T23:42:58Z</time>
      </trkpt>
      <trkpt lat="43.233536" lon="1.640385">
        <ele>246.6</ele>
        <time>2020-08-12T23:43:08Z</time>
      </trkpt>
      <trkpt lat="43.231971" lon="1.63979">
        <ele>245.6</ele>
        <time>2020-08-12T23:43:15Z</time>
      </trkpt>
      <trkpt lat="43.23013" lon="1.639199">
        <ele>246.6</ele>
        <time>2020-08-12T23:43:23Z</time>
      </trkpt>
      <trkpt lat="43.229077" lon="1.638906">
        <ele>248.2</ele>
        <time>2020-08-12T23:43:28Z</time>
      </trkpt>
      <trkpt lat="43.228093" lon="1.638676">
        <ele>248.4</ele>
        <time>2020-08-12T23:43:33Z</time>
      </trkpt>
      <trkpt lat="43.226951" lon="1.638457">
        <ele>248.6</ele>
        <time>2020-08-12T23:43:38Z</time>
      </trkpt>
      <trkpt lat="43.225729" lon="1.638251">
        <ele>249.4</ele>
        <time>2020-08-12T23:43:44Z</time>
      </trkpt>
      <trkpt lat="43.22382" lon="1.638001">
        <ele>250.4</ele>
        <time>2020-08-12T23:43:52Z</time>
      </trkpt>
      <trkpt lat="43.222588" lon="1.63789">
        <ele>251.2</ele>
        <time>2020-08-12T23:43:58Z</time>
      </trkpt>
      <trkpt lat="43.218187" lon="1.637308">
        <ele>251.4</ele>
        <time>2020-08-12T23:44:18Z</time>
      </trkpt>
      <trkpt lat="43.215885" lon="1.636975">
        <ele>253.4</ele>
        <time>2020-08-12T23:44:28Z</time>
      </trkpt>
      <trkpt lat="43.21361" lon="1.636543">
        <ele>254.2</ele>
        <time>2020-08-12T23:44:39Z</time>
      </trkpt>
      <trkpt lat="43.212214" lon="1.636255">
        <ele>255.4</ele>
        <time>2020-08-12T23:44:45Z</time>
      </trkpt>
      <trkpt lat="43.210658" lon="1.635876">
        <ele>256.8</ele>
        <time>2020-08-12T23:44:52Z</time>
      </trkpt>
      <trkpt lat="43.207505" lon="1.634951">
        <ele>257.6</ele>
        <time>2020-08-12T23:45:07Z</time>
      </trkpt>
      <trkpt lat="43.205166" lon="1.634133">
        <ele>259.0</ele>
        <time>2020-08-12T23:45:17Z</time>
      </trkpt>
      <trkpt lat="43.202357" lon="1.632994">
        <ele>261.6</ele>
        <time>2020-08-12T23:45:31Z</time>
      </trkpt>
      <trkpt lat="43.200769" lon="1.632278">
        <ele>260.4</ele>
        <time>2020-08-12T23:45:38Z</time>
      </trkpt>
      <trkpt lat="43.19852" lon="1.631199">
        <ele>259.6</ele>
        <time>2020-08-12T23:45:49Z</time>
      </trkpt>
      <trkpt lat="43.196443" lon="1.630247">
        <ele>258.2</ele>
        <time>2020-08-12T23:45:59Z</time>
      </trkpt>
      <trkpt lat="43.194261" lon="1.629216">
        <ele>259.4</ele>
        <time>2020-08-12T23:46:09Z</time>
      </trkpt>
      <trkpt lat="43.191953" lon="1.628251">
        <ele>259.8</ele>
        <time>2020-08-12T23:46:20Z</time>
      </trkpt>
      <trkpt lat="43.189524" lon="1.627371">
        <ele>261.2</ele>
        <time>2020-08-12T23:46:31Z</time>
      </trkpt>
      <trkpt lat="43.188549" lon="1.627071">
        <ele>262.2</ele>
        <time>2020-08-12T23:46:36Z</time>
      </trkpt>
      <trkpt lat="43.185891" lon="1.626298">
        <ele>263.6</ele>
        <time>2020-08-12T23:46:48Z</time>
      </trkpt>
      <trkpt lat="43.182095" lon="1.62524">
        <ele>265.4</ele>
        <time>2020-08-12T23:47:06Z</time>
      </trkpt>
      <trkpt lat="43.180444" lon="1.62472">
        <ele>267.0</ele>
        <time>2020-08-12T23:47:13Z</time>
      </trkpt>
      <trkpt lat="43.178662" lon="1.624137">
        <ele>267.2</ele>
        <time>2020-08-12T23:47:22Z</time>
      </trkpt>
      <trkpt lat="43.177311" lon="1.623608">
        <ele>267.8</ele>
        <time>2020-08-12T23:47:28Z</time>
      </trkpt>
      <trkpt lat="43.176198" lon="1.623151">
        <ele>267.4</ele>
        <time>2020-08-12T23:47:33Z</time>
      </trkpt>
      <trkpt lat="43.175052" lon="1.622633">
        <ele>268.6</ele>
        <time>2020-08-12T23:47:39Z</time>
      </trkpt>
      <trkpt lat="43.17258" lon="1.621416">
        <ele>268.8</ele>
        <time>2020-08-12T23:47:50Z</time>
      </trkpt>
      <trkpt lat="43.167501" lon="1.618683">
        <ele>272.0</ele>
        <time>2020-08-12T23:48:15Z</time>
      </trkpt>
      <trkpt lat="43.165999" lon="1.617936">
        <ele>273.8</ele>
        <time>2020-08-12T23:48:22Z</time>
      </trkpt>
      <trkpt lat="43.164585" lon="1.617309">
        <ele>274.6</ele>
        <time>2020-08-12T23:48:29Z</time>
      </trkpt>
      <trkpt lat="43.163449" lon="1.616871">
        <ele>274.8</ele>
        <time>2020-08-12T23:48:34Z</time>
      </trkpt>
      <trkpt lat="43.162132" lon="1.616426">
        <ele>274.6</ele>
        <time>2020-08-12T23:48:40Z</time>
      </trkpt>
      <trkpt lat="43.160825" lon="1.616088">
        <ele>274.4</ele>
        <time>2020-08-12T23:48:46Z</time>
      </trkpt>
      <trkpt lat="43.159737" lon="1.615864">
        <ele>275.2</ele>
        <time>2020-08-12T23:48:51Z</time>
      </trkpt>
      <trkpt lat="43.158561" lon="1.615688">
        <ele>276.0</ele>
        <time>2020-08-12T23:48:57Z</time>
      </trkpt>
      <trkpt lat="43.156766" lon="1.615581">
        <ele>277.0</ele>
        <time>2020-08-12T23:49:05Z</time>
      </trkpt>
      <trkpt lat="43.155909" lon="1.615587">
        <ele>277.2</ele>
        <time>2020-08-12T23:49:09Z</time>
      </trkpt>
      <trkpt lat="43.154638" lon="1.615632">
        <ele>277.8</ele>
        <time>2020-08-12T23:49:14Z</time>
      </trkpt>
      <trkpt lat="43.153924" lon="1.615706">
        <ele>278.6</ele>
        <time>2020-08-12T23:49:18Z</time>
      </trkpt>
      <trkpt lat="43.153042" lon="1.615872">
        <ele>278.6</ele>
        <time>2020-08-12T23:49:22Z</time>
      </trkpt>
      <trkpt lat="43.151534" lon="1.616203">
        <ele>279.2</ele>
        <time>2020-08-12T23:49:29Z</time>
      </trkpt>
      <trkpt lat="43.150649" lon="1.61643">
        <ele>280.2</ele>
        <time>2020-08-12T23:49:33Z</time>
      </trkpt>
      <trkpt lat="43.15049" lon="1.616474">
        <ele>280.2</ele>
        <time>2020-08-12T23:49:33Z</time>
      </trkpt>
      <trkpt lat="43.148533" lon="1.617214">
        <ele>280.8</ele>
        <time>2020-08-12T23:49:43Z</time>
      </trkpt>
      <trkpt lat="43.146199" lon="1.618351">
        <ele>282.8</ele>
        <time>2020-08-12T23:49:54Z</time>
      </trkpt>
      <trkpt lat="43.145006" lon="1.619064">
        <ele>283.6</ele>
        <time>2020-08-12T23:50:00Z</time>
      </trkpt>
      <trkpt lat="43.143185" lon="1.620319">
        <ele>284.4</ele>
        <time>2020-08-12T23:50:09Z</time>
      </trkpt>
      <trkpt lat="43.140952" lon="1.622123">
        <ele>285.4</ele>
        <time>2020-08-12T23:50:20Z</time>
      </trkpt>
      <trkpt lat="43.139151" lon="1.623543">
        <ele>286.2</ele>
        <time>2020-08-12T23:50:30Z</time>
      </trkpt>
      <trkpt lat="43.138594" lon="1.62395">
        <ele>286.2</ele>
        <time>2020-08-12T23:50:33Z</time>
      </trkpt>
      <trkpt lat="43.137481" lon="1.624689">
        <ele>286.8</ele>
        <time>2020-08-12T23:50:38Z</time>
      </trkpt>
      <trkpt lat="43.13665" lon="1.625183">
        <ele>288.2</ele>
        <time>2020-08-12T23:50:42Z</time>
      </trkpt>
      <trkpt lat="43.135901" lon="1.625595">
        <ele>288.2</ele>
        <time>2020-08-12T23:50:46Z</time>
      </trkpt>
      <trkpt lat="43.134904" lon="1.626097">
        <ele>291.2</ele>
        <time>2020-08-12T23:50:51Z</time>
      </trkpt>
      <trkpt lat="43.132787" lon="1.62691">
        <ele>290.6</ele>
        <time>2020-08-12T23:51:01Z</time>
      </trkpt>
      <trkpt lat="43.131195" lon="1.62739">
        <ele>291.2</ele>
        <time>2020-08-12T23:51:08Z</time>
      </trkpt>
      <trkpt lat="43.12927" lon="1.627852">
        <ele>291.4</ele>
        <time>2020-08-12T23:51:17Z</time>
      </trkpt>
      <trkpt lat="43.128062" lon="1.628052">
        <ele>292.8</ele>
        <time>2020-08-12T23:51:22Z</time>
      </trkpt>
      <trkpt lat="43.125035" lon="1.62868">
        <ele>293.8</ele>
        <time>2020-08-12T23:51:36Z</time>
      </trkpt>
      <trkpt lat="43.123396" lon="1.62898">
        <ele>295.4</ele>
        <time>2020-08-12T23:51:44Z</time>
      </trkpt>
      <trkpt lat="43.118217" lon="1.629991">
        <ele>298.8</ele>
        <time>2020-08-12T23:52:07Z</time>
      </trkpt>
      <trkpt lat="43.117956" lon="1.630024">
        <ele>299.4</ele>
        <time>2020-08-12T23:52:08Z</time>
      </trkpt>
      <trkpt lat="43.115691" lon="1.630492">
        <ele>299.8</ele>
        <time>2020-08-12T23:52:19Z</time>
      </trkpt>
      <trkpt lat="43.113856" lon="1.630843">
        <ele>301.0</ele>
        <time>2020-08-12T23:52:27Z</time>
      </trkpt>
      <trkpt lat="43.108879" lon="1.63174">
        <ele>304.4</ele>
        <time>2020-08-12T23:52:50Z</time>
      </trkpt>
      <trkpt lat="43.106318" lon="1.632157">
        <ele>308.4</ele>
        <time>2020-08-12T23:53:01Z</time>
      </trkpt>
      <trkpt lat="43.103637" lon="1.632523">
        <ele>308.4</ele>
        <time>2020-08-12T23:53:13Z</time>
      </trkpt>
      <trkpt lat="43.100051" lon="1.632934">
        <ele>308.0</ele>
        <time>2020-08-12T23:53:30Z</time>
      </trkpt>
      <trkpt lat="43.09377" lon="1.63349">
        <ele>311.2</ele>
        <time>2020-08-12T23:53:58Z</time>
      </trkpt>
      <trkpt lat="43.092274" lon="1.633652">
        <ele>312.2</ele>
        <time>2020-08-12T23:54:05Z</time>
      </trkpt>
      <trkpt lat="43.091295" lon="1.633804">
        <ele>312.6</ele>
        <time>2020-08-12T23:54:09Z</time>
      </trkpt>
      <trkpt lat="43.090091" lon="1.634048">
        <ele>313.4</ele>
        <time>2020-08-12T23:54:15Z</time>
      </trkpt>
      <trkpt lat="43.088588" lon="1.63442">
        <ele>314.8</ele>
        <time>2020-08-12T23:54:22Z</time>
      </trkpt>
      <trkpt lat="43.086774" lon="1.634968">
        <ele>317.8</ele>
        <time>2020-08-12T23:54:30Z</time>
      </trkpt>
      <trkpt lat="43.079808" lon="1.637463">
        <ele>325.4</ele>
        <time>2020-08-12T23:55:03Z</time>
      </trkpt>
      <trkpt lat="43.077484" lon="1.638399">
        <ele>327.4</ele>
        <time>2020-08-12T23:55:13Z</time>
      </trkpt>
      <trkpt lat="43.075832" lon="1.63911">
        <ele>329.8</ele>
        <time>2020-08-12T23:55:21Z</time>
      </trkpt>
      <trkpt lat="43.074665" lon="1.639671">
        <ele>329.6</ele>
        <time>2020-08-12T23:55:27Z</time>
      </trkpt>
      <trkpt lat="43.072844" lon="1.640664">
        <ele>329.8</ele>
        <time>2020-08-12T23:55:36Z</time>
      </trkpt>
      <trkpt lat="43.058898" lon="1.647982">
        <ele>333.8</ele>
        <time>2020-08-12T23:56:43Z</time>
      </trkpt>
      <trkpt lat="43.057628" lon="1.648549">
        <ele>334.6</ele>
        <time>2020-08-12T23:56:49Z</time>
      </trkpt>
      <trkpt lat="43.056744" lon="1.648922">
        <ele>334.8</ele>
        <time>2020-08-12T23:56:53Z</time>
      </trkpt>
      <trkpt lat="43.055789" lon="1.649177">
        <ele>336.0</ele>
        <time>2020-08-12T23:56:58Z</time>
      </trkpt>
      <trkpt lat="43.055074" lon="1.649334">
        <ele>336.0</ele>
        <time>2020-08-12T23:57:01Z</time>
      </trkpt>
      <trkpt lat="43.054121" lon="1.649459">
        <ele>335.2</ele>
        <time>2020-08-12T23:57:05Z</time>
      </trkpt>
      <trkpt lat="43.053114" lon="1.649444">
        <ele>336.0</ele>
        <time>2020-08-12T23:57:10Z</time>
      </trkpt>
      <trkpt lat="43.052166" lon="1.64935">
        <ele>337.4</ele>
        <time>2020-08-12T23:57:14Z</time>
      </trkpt>
      <trkpt lat="43.051235" lon="1.649154">
        <ele>339.0</ele>
        <time>2020-08-12T23:57:18Z</time>
      </trkpt>
      <trkpt lat="43.050062" lon="1.648828">
        <ele>339.6</ele>
        <time>2020-08-12T23:57:24Z</time>
      </trkpt>
      <trkpt lat="43.048938" lon="1.648345">
        <ele>340.4</ele>
        <time>2020-08-12T23:57:29Z</time>
      </trkpt>
      <trkpt lat="43.04768" lon="1.64762">
        <ele>340.6</ele>
        <time>2020-08-12T23:57:35Z</time>
      </trkpt>
      <trkpt lat="43.046716" lon="1.646898">
        <ele>340.8</ele>
        <time>2020-08-12T23:57:40Z</time>
      </trkpt>
      <trkpt lat="43.045915" lon="1.646251">
        <ele>341.2</ele>
        <time>2020-08-12T23:57:44Z</time>
      </trkpt>
      <trkpt lat="43.044895" lon="1.645148">
        <ele>344.0</ele>
        <time>2020-08-12T23:57:50Z</time>
      </trkpt>
      <trkpt lat="43.044341" lon="1.644501">
        <ele>343.4</ele>
        <time>2020-08-12T23:57:54Z</time>
      </trkpt>
      <trkpt lat="43.043724" lon="1.643654">
        <ele>344.6</ele>
        <time>2020-08-12T23:57:57Z</time>
      </trkpt>
      <trkpt lat="43.042638" lon="1.641882">
        <ele>345.4</ele>
        <time>2020-08-12T23:58:05Z</time>
      </trkpt>
      <trkpt lat="43.042252" lon="1.641087">
        <ele>346.6</ele>
        <time>2020-08-12T23:58:08Z</time>
      </trkpt>
      <trkpt lat="43.041962" lon="1.64044">
        <ele>346.4</ele>
        <time>2020-08-12T23:58:11Z</time>
      </trkpt>
      <trkpt lat="43.041316" lon="1.638795">
        <ele>347.4</ele>
        <time>2020-08-12T23:58:17Z</time>
      </trkpt>
      <trkpt lat="43.040955" lon="1.637806">
        <ele>347.6</ele>
        <time>2020-08-12T23:58:21Z</time>
      </trkpt>
      <trkpt lat="43.040453" lon="1.636349">
        <ele>349.6</ele>
        <time>2020-08-12T23:58:26Z</time>
      </trkpt>
      <trkpt lat="43.037224" lon="1.626825">
        <ele>344.6</ele>
        <time>2020-08-12T23:59:00Z</time>
      </trkpt>
      <trkpt lat="43.036558" lon="1.625202">
        <ele>345.2</ele>
        <time>2020-08-12T23:59:07Z</time>
      </trkpt>
      <trkpt lat="43.036081" lon="1.624163">
        <ele>345.4</ele>
        <time>2020-08-12T23:59:11Z</time>
      </trkpt>
      <trkpt lat="43.035385" lon="1.622867">
        <ele>345.6</ele>
        <time>2020-08-12T23:59:16Z</time>
      </trkpt>
      <trkpt lat="43.034551" lon="1.62158">
        <ele>344.4</ele>
        <time>2020-08-12T23:59:22Z</time>
      </trkpt>
      <trkpt lat="43.033641" lon="1.620395">
        <ele>346.4</ele>
        <time>2020-08-12T23:59:27Z</time>
      </trkpt>
      <trkpt lat="43.032712" lon="1.619451">
        <ele>345.8</ele>
        <time>2020-08-12T23:59:32Z</time>
      </trkpt>
      <trkpt lat="43.031891" lon="1.618825">
        <ele>345.6</ele>
        <time>2020-08-12T23:59:37Z</time>
      </trkpt>
      <trkpt lat="43.030516" lon="1.618069">
        <ele>348.0</ele>
        <time>2020-08-12T23:59:43Z</time>
      </trkpt>
      <trkpt lat="43.028212" lon="1.617244">
        <ele>351.6</ele>
        <time>2020-08-12T23:59:54Z</time>
      </trkpt>
      <trkpt lat="43.025284" lon="1.616329">
        <ele>353.2</ele>
        <time>2020-08-13T00:00:08Z</time>
      </trkpt>
      <trkpt lat="43.019761" lon="1.614535">
        <ele>356.4</ele>
        <time>2020-08-13T00:00:33Z</time>
      </trkpt>
      <trkpt lat="43.018916" lon="1.614291">
        <ele>357.8</ele>
        <time>2020-08-13T00:00:37Z</time>
      </trkpt>
      <trkpt lat="43.017716" lon="1.613998">
        <ele>358.4</ele>
        <time>2020-08-13T00:00:43Z</time>
      </trkpt>
      <trkpt lat="43.013034" lon="1.613177">
        <ele>369.6</ele>
        <time>2020-08-13T00:01:04Z</time>
      </trkpt>
      <trkpt lat="43.012248" lon="1.613098">
        <ele>375.2</ele>
        <time>2020-08-13T00:01:08Z</time>
      </trkpt>
      <trkpt lat="43.011726" lon="1.613097">
        <ele>375.2</ele>
        <time>2020-08-13T00:01:10Z</time>
      </trkpt>
      <trkpt lat="43.011321" lon="1.613133">
        <ele>371.0</ele>
        <time>2020-08-13T00:01:12Z</time>
      </trkpt>
      <trkpt lat="43.010881" lon="1.613213">
        <ele>371.0</ele>
        <time>2020-08-13T00:01:14Z</time>
      </trkpt>
      <trkpt lat="43.010413" lon="1.613337">
        <ele>373.8</ele>
        <time>2020-08-13T00:01:16Z</time>
      </trkpt>
      <trkpt lat="43.009002" lon="1.61378">
        <ele>357.8</ele>
        <time>2020-08-13T00:01:22Z</time>
      </trkpt>
      <trkpt lat="43.008141" lon="1.613928">
        <ele>358.0</ele>
        <time>2020-08-13T00:01:26Z</time>
      </trkpt>
      <trkpt lat="43.004279" lon="1.614156">
        <ele>361.6</ele>
        <time>2020-08-13T00:01:44Z</time>
      </trkpt>
      <trkpt lat="43.002804" lon="1.614218">
        <ele>361.0</ele>
        <time>2020-08-13T00:01:50Z</time>
      </trkpt>
      <trkpt lat="43.002251" lon="1.614272">
        <ele>362.4</ele>
        <time>2020-08-13T00:01:53Z</time>
      </trkpt>
      <trkpt lat="43.001822" lon="1.614347">
        <ele>362.4</ele>
        <time>2020-08-13T00:01:55Z</time>
      </trkpt>
      <trkpt lat="43.001413" lon="1.614477">
        <ele>363.4</ele>
        <time>2020-08-13T00:01:57Z</time>
      </trkpt>
      <trkpt lat="43.000732" lon="1.614765">
        <ele>363.6</ele>
        <time>2020-08-13T00:02:00Z</time>
      </trkpt>
      <trkpt lat="43.000287" lon="1.615012">
        <ele>372.4</ele>
        <time>2020-08-13T00:02:02Z</time>
      </trkpt>
      <trkpt lat="42.999732" lon="1.615434">
        <ele>377.2</ele>
        <time>2020-08-13T00:02:05Z</time>
      </trkpt>
      <trkpt lat="42.999189" lon="1.61597">
        <ele>386.4</ele>
        <time>2020-08-13T00:02:08Z</time>
      </trkpt>
      <trkpt lat="42.998944" lon="1.616258">
        <ele>392.0</ele>
        <time>2020-08-13T00:02:10Z</time>
      </trkpt>
      <trkpt lat="42.996763" lon="1.619129">
        <ele>418.0</ele>
        <time>2020-08-13T00:02:23Z</time>
      </trkpt>
      <trkpt lat="42.99644" lon="1.61946">
        <ele>420.4</ele>
        <time>2020-08-13T00:02:25Z</time>
      </trkpt>
      <trkpt lat="42.995858" lon="1.619969">
        <ele>420.4</ele>
        <time>2020-08-13T00:02:28Z</time>
      </trkpt>
      <trkpt lat="42.99535" lon="1.620315">
        <ele>418.6</ele>
        <time>2020-08-13T00:02:31Z</time>
      </trkpt>
      <trkpt lat="42.994861" lon="1.620586">
        <ele>419.0</ele>
        <time>2020-08-13T00:02:33Z</time>
      </trkpt>
      <trkpt lat="42.994386" lon="1.62078">
        <ele>419.0</ele>
        <time>2020-08-13T00:02:35Z</time>
      </trkpt>
      <trkpt lat="42.984953" lon="1.623778">
        <ele>401.8</ele>
        <time>2020-08-13T00:03:19Z</time>
      </trkpt>
      <trkpt lat="42.9844" lon="1.623899">
        <ele>401.8</ele>
        <time>2020-08-13T00:03:22Z</time>
      </trkpt>
      <trkpt lat="42.983991" lon="1.623954">
        <ele>398.8</ele>
        <time>2020-08-13T00:03:24Z</time>
      </trkpt>
      <trkpt lat="42.983558" lon="1.623955">
        <ele>398.8</ele>
        <time>2020-08-13T00:03:25Z</time>
      </trkpt>
      <trkpt lat="42.983121" lon="1.623924">
        <ele>403.2</ele>
        <time>2020-08-13T00:03:27Z</time>
      </trkpt>
      <trkpt lat="42.982107" lon="1.623716">
        <ele>410.6</ele>
        <time>2020-08-13T00:03:32Z</time>
      </trkpt>
      <trkpt lat="42.98078" lon="1.623135">
        <ele>393.8</ele>
        <time>2020-08-13T00:03:38Z</time>
      </trkpt>
      <trkpt lat="42.980239" lon="1.622924">
        <ele>393.8</ele>
        <time>2020-08-13T00:03:41Z</time>
      </trkpt>
      <trkpt lat="42.979196" lon="1.622614">
        <ele>390.8</ele>
        <time>2020-08-13T00:03:46Z</time>
      </trkpt>
      <trkpt lat="42.97866" lon="1.622499">
        <ele>395.0</ele>
        <time>2020-08-13T00:03:48Z</time>
      </trkpt>
      <trkpt lat="42.978001" lon="1.622398">
        <ele>401.0</ele>
        <time>2020-08-13T00:03:51Z</time>
      </trkpt>
      <trkpt lat="42.977373" lon="1.62236">
        <ele>410.4</ele>
        <time>2020-08-13T00:03:54Z</time>
      </trkpt>
      <trkpt lat="42.976293" lon="1.622375">
        <ele>429.8</ele>
        <time>2020-08-13T00:03:59Z</time>
      </trkpt>
      <trkpt lat="42.975302" lon="1.622494">
        <ele>470.0</ele>
        <time>2020-08-13T00:04:04Z</time>
      </trkpt>
      <trkpt lat="42.973813" lon="1.622749">
        <ele>542.4</ele>
        <time>2020-08-13T00:04:11Z</time>
      </trkpt>
      <trkpt lat="42.968016" lon="1.624383">
        <ele>772.6</ele>
        <time>2020-08-13T00:04:39Z</time>
      </trkpt>
      <trkpt lat="42.964043" lon="1.625285">
        <ele>782.6</ele>
        <time>2020-08-13T00:04:58Z</time>
      </trkpt>
      <trkpt lat="42.962519" lon="1.625413">
        <ele>750.8</ele>
        <time>2020-08-13T00:05:05Z</time>
      </trkpt>
      <trkpt lat="42.960765" lon="1.625199">
        <ele>646.0</ele>
        <time>2020-08-13T00:05:14Z</time>
      </trkpt>
      <trkpt lat="42.959156" lon="1.624834">
        <ele>547.4</ele>
        <time>2020-08-13T00:05:22Z</time>
      </trkpt>
      <trkpt lat="42.956295" lon="1.623951">
        <ele>407.6</ele>
        <time>2020-08-13T00:05:36Z</time>
      </trkpt>
      <trkpt lat="42.951761" lon="1.622419">
        <ele>394.4</ele>
        <time>2020-08-13T00:05:57Z</time>
      </trkpt>
      <trkpt lat="42.950863" lon="1.622247">
        <ele>394.8</ele>
        <time>2020-08-13T00:06:02Z</time>
      </trkpt>
      <trkpt lat="42.950499" lon="1.6222">
        <ele>397.0</ele>
        <time>2020-08-13T00:06:03Z</time>
      </trkpt>
      <trkpt lat="42.949966" lon="1.622167">
        <ele>399.0</ele>
        <time>2020-08-13T00:06:06Z</time>
      </trkpt>
      <trkpt lat="42.945953" lon="1.622089">
        <ele>399.8</ele>
        <time>2020-08-13T00:06:24Z</time>
      </trkpt>
      <trkpt lat="42.945308" lon="1.622091">
        <ele>400.0</ele>
        <time>2020-08-13T00:06:27Z</time>
      </trkpt>
      <trkpt lat="42.944417" lon="1.622165">
        <ele>402.6</ele>
        <time>2020-08-13T00:06:31Z</time>
      </trkpt>
      <trkpt lat="42.943563" lon="1.622406">
        <ele>404.0</ele>
        <time>2020-08-13T00:06:35Z</time>
      </trkpt>
      <trkpt lat="42.94245" lon="1.622804">
        <ele>412.6</ele>
        <time>2020-08-13T00:06:40Z</time>
      </trkpt>
      <trkpt lat="42.941219" lon="1.623397">
        <ele>417.8</ele>
        <time>2020-08-13T00:06:46Z</time>
      </trkpt>
      <trkpt lat="42.94022" lon="1.623952">
        <ele>422.2</ele>
        <time>2020-08-13T00:06:51Z</time>
      </trkpt>
      <trkpt lat="42.935884" lon="1.625933">
        <ele>432.6</ele>
        <time>2020-08-13T00:07:11Z</time>
      </trkpt>
      <trkpt lat="42.934596" lon="1.626581">
        <ele>435.4</ele>
        <time>2020-08-13T00:07:17Z</time>
      </trkpt>
      <trkpt lat="42.93371" lon="1.62713">
        <ele>433.6</ele>
        <time>2020-08-13T00:07:22Z</time>
      </trkpt>
      <trkpt lat="42.933182" lon="1.627499">
        <ele>422.8</ele>
        <time>2020-08-13T00:07:24Z</time>
      </trkpt>
      <trkpt lat="42.932786" lon="1.627834">
        <ele>424.0</ele>
        <time>2020-08-13T00:07:27Z</time>
      </trkpt>
      <trkpt lat="42.931711" lon="1.628813">
        <ele>417.4</ele>
        <time>2020-08-13T00:07:32Z</time>
      </trkpt>
      <trkpt lat="42.930505" lon="1.630074">
        <ele>417.4</ele>
        <time>2020-08-13T00:07:39Z</time>
      </trkpt>
      <trkpt lat="42.929795" lon="1.630873">
        <ele>418.2</ele>
        <time>2020-08-13T00:07:43Z</time>
      </trkpt>
      <trkpt lat="42.929009" lon="1.631645">
        <ele>418.4</ele>
        <time>2020-08-13T00:07:48Z</time>
      </trkpt>
      <trkpt lat="42.928129" lon="1.632332">
        <ele>417.0</ele>
        <time>2020-08-13T00:07:52Z</time>
      </trkpt>
      <trkpt lat="42.926828" lon="1.63319">
        <ele>415.8</ele>
        <time>2020-08-13T00:07:59Z</time>
      </trkpt>
      <trkpt lat="42.923744" lon="1.635141">
        <ele>435.8</ele>
        <time>2020-08-13T00:08:14Z</time>
      </trkpt>
      <trkpt lat="42.922834" lon="1.635678">
        <ele>436.8</ele>
        <time>2020-08-13T00:08:19Z</time>
      </trkpt>
      <trkpt lat="42.921863" lon="1.636277">
        <ele>437.6</ele>
        <time>2020-08-13T00:08:23Z</time>
      </trkpt>
      <trkpt lat="42.921002" lon="1.636842">
        <ele>438.6</ele>
        <time>2020-08-13T00:08:28Z</time>
      </trkpt>
      <trkpt lat="42.92023" lon="1.637292">
        <ele>440.4</ele>
        <time>2020-08-13T00:08:32Z</time>
      </trkpt>
      <trkpt lat="42.918655" lon="1.63826">
        <ele>438.8</ele>
        <time>2020-08-13T00:08:39Z</time>
      </trkpt>
      <trkpt lat="42.917975" lon="1.638466">
        <ele>437.4</ele>
        <time>2020-08-13T00:08:43Z</time>
      </trkpt>
      <trkpt lat="42.915802" lon="1.638831">
        <ele>448.2</ele>
        <time>2020-08-13T00:08:52Z</time>
      </trkpt>
      <trkpt lat="42.913302" lon="1.639125">
        <ele>466.2</ele>
        <time>2020-08-13T00:09:04Z</time>
      </trkpt>
      <trkpt lat="42.912501" lon="1.639122">
        <ele>466.2</ele>
        <time>2020-08-13T00:09:07Z</time>
      </trkpt>
      <trkpt lat="42.911973" lon="1.639026">
        <ele>468.2</ele>
        <time>2020-08-13T00:09:10Z</time>
      </trkpt>
      <trkpt lat="42.910115" lon="1.638764">
        <ele>468.0</ele>
        <time>2020-08-13T00:09:18Z</time>
      </trkpt>
      <trkpt lat="42.90462" lon="1.637899">
        <ele>474.6</ele>
        <time>2020-08-13T00:09:43Z</time>
      </trkpt>
      <trkpt lat="42.903905" lon="1.637736">
        <ele>467.8</ele>
        <time>2020-08-13T00:09:46Z</time>
      </trkpt>
      <trkpt lat="42.903485" lon="1.637585">
        <ele>467.8</ele>
        <time>2020-08-13T00:09:48Z</time>
      </trkpt>
      <trkpt lat="42.903017" lon="1.637367">
        <ele>478.0</ele>
        <time>2020-08-13T00:09:51Z</time>
      </trkpt>
      <trkpt lat="42.902671" lon="1.637149">
        <ele>478.0</ele>
        <time>2020-08-13T00:09:52Z</time>
      </trkpt>
      <trkpt lat="42.902279" lon="1.636864">
        <ele>460.0</ele>
        <time>2020-08-13T00:09:54Z</time>
      </trkpt>
      <trkpt lat="42.901913" lon="1.636558">
        <ele>475.4</ele>
        <time>2020-08-13T00:09:57Z</time>
      </trkpt>
      <trkpt lat="42.901445" lon="1.636074">
        <ele>456.4</ele>
        <time>2020-08-13T00:09:59Z</time>
      </trkpt>
      <trkpt lat="42.901003" lon="1.635519">
        <ele>467.0</ele>
        <time>2020-08-13T00:10:02Z</time>
      </trkpt>
      <trkpt lat="42.89998" lon="1.634149">
        <ele>468.4</ele>
        <time>2020-08-13T00:10:08Z</time>
      </trkpt>
      <trkpt lat="42.899391" lon="1.633411">
        <ele>468.4</ele>
        <time>2020-08-13T00:10:12Z</time>
      </trkpt>
      <trkpt lat="42.899022" lon="1.633022">
        <ele>474.0</ele>
        <time>2020-08-13T00:10:14Z</time>
      </trkpt>
      <trkpt lat="42.898514" lon="1.632591">
        <ele>474.0</ele>
        <time>2020-08-13T00:10:17Z</time>
      </trkpt>
      <trkpt lat="42.895368" lon="1.630535">
        <ele>494.6</ele>
        <time>2020-08-13T00:10:33Z</time>
      </trkpt>
      <trkpt lat="42.894861" lon="1.630236">
        <ele>485.0</ele>
        <time>2020-08-13T00:10:35Z</time>
      </trkpt>
      <trkpt lat="42.89449" lon="1.630042">
        <ele>485.0</ele>
        <time>2020-08-13T00:10:37Z</time>
      </trkpt>
      <trkpt lat="42.894091" lon="1.629875">
        <ele>507.8</ele>
        <time>2020-08-13T00:10:39Z</time>
      </trkpt>
      <trkpt lat="42.892833" lon="1.62946">
        <ele>490.4</ele>
        <time>2020-08-13T00:10:45Z</time>
      </trkpt>
      <trkpt lat="42.892382" lon="1.629294">
        <ele>476.6</ele>
        <time>2020-08-13T00:10:47Z</time>
      </trkpt>
      <trkpt lat="42.888422" lon="1.627393">
        <ele>488.8</ele>
        <time>2020-08-13T00:11:06Z</time>
      </trkpt>
      <trkpt lat="42.887849" lon="1.62705">
        <ele>485.6</ele>
        <time>2020-08-13T00:11:09Z</time>
      </trkpt>
      <trkpt lat="42.887412" lon="1.626753">
        <ele>478.8</ele>
        <time>2020-08-13T00:11:11Z</time>
      </trkpt>
      <trkpt lat="42.88682" lon="1.626246">
        <ele>487.8</ele>
        <time>2020-08-13T00:11:14Z</time>
      </trkpt>
      <trkpt lat="42.886346" lon="1.625728">
        <ele>485.4</ele>
        <time>2020-08-13T00:11:17Z</time>
      </trkpt>
      <trkpt lat="42.885211" lon="1.624261">
        <ele>483.4</ele>
        <time>2020-08-13T00:11:24Z</time>
      </trkpt>
      <trkpt lat="42.884803" lon="1.623791">
        <ele>485.6</ele>
        <time>2020-08-13T00:11:26Z</time>
      </trkpt>
      <trkpt lat="42.884445" lon="1.623462">
        <ele>485.6</ele>
        <time>2020-08-13T00:11:28Z</time>
      </trkpt>
      <trkpt lat="42.883999" lon="1.623144">
        <ele>497.8</ele>
        <time>2020-08-13T00:11:31Z</time>
      </trkpt>
      <trkpt lat="42.883716" lon="1.623008">
        <ele>497.8</ele>
        <time>2020-08-13T00:11:32Z</time>
      </trkpt>
      <trkpt lat="42.88336" lon="1.622868">
        <ele>497.8</ele>
        <time>2020-08-13T00:11:34Z</time>
      </trkpt>
      <trkpt lat="42.882883" lon="1.622739">
        <ele>496.8</ele>
        <time>2020-08-13T00:11:36Z</time>
      </trkpt>
      <trkpt lat="42.882408" lon="1.622685">
        <ele>493.2</ele>
        <time>2020-08-13T00:11:38Z</time>
      </trkpt>
      <trkpt lat="42.881387" lon="1.62268">
        <ele>491.0</ele>
        <time>2020-08-13T00:11:43Z</time>
      </trkpt>
      <trkpt lat="42.879163" lon="1.622723">
        <ele>505.2</ele>
        <time>2020-08-13T00:11:53Z</time>
      </trkpt>
      <trkpt lat="42.87852" lon="1.62266">
        <ele>505.2</ele>
        <time>2020-08-13T00:11:56Z</time>
      </trkpt>
      <trkpt lat="42.87806" lon="1.622579">
        <ele>501.0</ele>
        <time>2020-08-13T00:11:58Z</time>
      </trkpt>
      <trkpt lat="42.877529" lon="1.622437">
        <ele>522.4</ele>
        <time>2020-08-13T00:12:00Z</time>
      </trkpt>
      <trkpt lat="42.87703" lon="1.622235">
        <ele>511.4</ele>
        <time>2020-08-13T00:12:03Z</time>
      </trkpt>
      <trkpt lat="42.87651" lon="1.621985">
        <ele>505.2</ele>
        <time>2020-08-13T00:12:05Z</time>
      </trkpt>
      <trkpt lat="42.875983" lon="1.621662">
        <ele>513.6</ele>
        <time>2020-08-13T00:12:08Z</time>
      </trkpt>
      <trkpt lat="42.875459" lon="1.62125">
        <ele>509.8</ele>
        <time>2020-08-13T00:12:11Z</time>
      </trkpt>
      <trkpt lat="42.87491" lon="1.620745">
        <ele>511.8</ele>
        <time>2020-08-13T00:12:14Z</time>
      </trkpt>
      <trkpt lat="42.874475" lon="1.620289">
        <ele>511.8</ele>
        <time>2020-08-13T00:12:16Z</time>
      </trkpt>
      <trkpt lat="42.873875" lon="1.619583">
        <ele>508.2</ele>
        <time>2020-08-13T00:12:20Z</time>
      </trkpt>
      <trkpt lat="42.873088" lon="1.618483">
        <ele>503.0</ele>
        <time>2020-08-13T00:12:25Z</time>
      </trkpt>
      <trkpt lat="42.872508" lon="1.617555">
        <ele>504.6</ele>
        <time>2020-08-13T00:12:29Z</time>
      </trkpt>
      <trkpt lat="42.871984" lon="1.616587">
        <ele>497.0</ele>
        <time>2020-08-13T00:12:33Z</time>
      </trkpt>
      <trkpt lat="42.871522" lon="1.615574">
        <ele>496.0</ele>
        <time>2020-08-13T00:12:37Z</time>
      </trkpt>
      <trkpt lat="42.871118" lon="1.61463">
        <ele>497.8</ele>
        <time>2020-08-13T00:12:40Z</time>
      </trkpt>
      <trkpt lat="42.868709" lon="1.608411">
        <ele>480.2</ele>
        <time>2020-08-13T00:13:04Z</time>
      </trkpt>
      <trkpt lat="42.868414" lon="1.607751">
        <ele>484.4</ele>
        <time>2020-08-13T00:13:06Z</time>
      </trkpt>
      <trkpt lat="42.868074" lon="1.607112">
        <ele>486.0</ele>
        <time>2020-08-13T00:13:09Z</time>
      </trkpt>
      <trkpt lat="42.867664" lon="1.606477">
        <ele>487.4</ele>
        <time>2020-08-13T00:13:12Z</time>
      </trkpt>
      <trkpt lat="42.867328" lon="1.606029">
        <ele>488.6</ele>
        <time>2020-08-13T00:13:14Z</time>
      </trkpt>
      <trkpt lat="42.866955" lon="1.605603">
        <ele>490.2</ele>
        <time>2020-08-13T00:13:16Z</time>
      </trkpt>
      <trkpt lat="42.866559" lon="1.605199">
        <ele>488.8</ele>
        <time>2020-08-13T00:13:18Z</time>
      </trkpt>
      <trkpt lat="42.863106" lon="1.601856">
        <ele>489.6</ele>
        <time>2020-08-13T00:13:37Z</time>
      </trkpt>
      <trkpt lat="42.862429" lon="1.601153">
        <ele>481.4</ele>
        <time>2020-08-13T00:13:41Z</time>
      </trkpt>
      <trkpt lat="42.861806" lon="1.600443">
        <ele>481.0</ele>
        <time>2020-08-13T00:13:45Z</time>
      </trkpt>
      <trkpt lat="42.859651" lon="1.597807">
        <ele>471.6</ele>
        <time>2020-08-13T00:13:58Z</time>
      </trkpt>
      <trkpt lat="42.857969" lon="1.595726">
        <ele>480.2</ele>
        <time>2020-08-13T00:14:08Z</time>
      </trkpt>
      <trkpt lat="42.856059" lon="1.593322">
        <ele>488.4</ele>
        <time>2020-08-13T00:14:20Z</time>
      </trkpt>
      <trkpt lat="42.85562" lon="1.592813">
        <ele>487.8</ele>
        <time>2020-08-13T00:14:22Z</time>
      </trkpt>
      <trkpt lat="42.855232" lon="1.592395">
        <ele>489.2</ele>
        <time>2020-08-13T00:14:25Z</time>
      </trkpt>
      <trkpt lat="42.854866" lon="1.592036">
        <ele>488.8</ele>
        <time>2020-08-13T00:14:27Z</time>
      </trkpt>
      <trkpt lat="42.854401" lon="1.591627">
        <ele>489.8</ele>
        <time>2020-08-13T00:14:29Z</time>
      </trkpt>
      <trkpt lat="42.85345" lon="1.590921">
        <ele>491.8</ele>
        <time>2020-08-13T00:14:34Z</time>
      </trkpt>
      <trkpt lat="42.85331" lon="1.590867">
        <ele>492.8</ele>
        <time>2020-08-13T00:14:35Z</time>
      </trkpt>
      <trkpt lat="42.85327" lon="1.590722">
        <ele>494.4</ele>
        <time>2020-08-13T00:14:36Z</time>
      </trkpt>
      <trkpt lat="42.853198" lon="1.590583">
        <ele>494.4</ele>
        <time>2020-08-13T00:14:37Z</time>
      </trkpt>
      <trkpt lat="42.853078" lon="1.590448">
        <ele>494.4</ele>
        <time>2020-08-13T00:14:39Z</time>
      </trkpt>
      <trkpt lat="42.852955" lon="1.590379">
        <ele>494.4</ele>
        <time>2020-08-13T00:14:40Z</time>
      </trkpt>
      <trkpt lat="42.852795" lon="1.590361">
        <ele>494.4</ele>
        <time>2020-08-13T00:14:41Z</time>
      </trkpt>
      <trkpt lat="42.852651" lon="1.590407">
        <ele>494.4</ele>
        <time>2020-08-13T00:14:42Z</time>
      </trkpt>
      <trkpt lat="42.852484" lon="1.590563">
        <ele>497.0</ele>
        <time>2020-08-13T00:14:44Z</time>
      </trkpt>
      <trkpt lat="42.852375" lon="1.590808">
        <ele>497.0</ele>
        <time>2020-08-13T00:14:46Z</time>
      </trkpt>
      <trkpt lat="42.85235" lon="1.591018">
        <ele>494.4</ele>
        <time>2020-08-13T00:14:47Z</time>
      </trkpt>
      <trkpt lat="42.852392" lon="1.591286">
        <ele>494.4</ele>
        <time>2020-08-13T00:14:49Z</time>
      </trkpt>
      <trkpt lat="42.85251" lon="1.591509">
        <ele>492.8</ele>
        <time>2020-08-13T00:14:51Z</time>
      </trkpt>
      <trkpt lat="42.852567" lon="1.591731">
        <ele>491.8</ele>
        <time>2020-08-13T00:14:52Z</time>
      </trkpt>
      <trkpt lat="42.852534" lon="1.591951">
        <ele>491.8</ele>
        <time>2020-08-13T00:14:54Z</time>
      </trkpt>
      <trkpt lat="42.85214" lon="1.59319">
        <ele>492.8</ele>
        <time>2020-08-13T00:15:02Z</time>
      </trkpt>
      <trkpt lat="42.850433" lon="1.598058">
        <ele>479.8</ele>
        <time>2020-08-13T00:15:36Z</time>
      </trkpt>
      <trkpt lat="42.850213" lon="1.59875">
        <ele>482.0</ele>
        <time>2020-08-13T00:15:41Z</time>
      </trkpt>
      <trkpt lat="42.85014" lon="1.599096">
        <ele>482.0</ele>
        <time>2020-08-13T00:15:43Z</time>
      </trkpt>
      <trkpt lat="42.850073" lon="1.599084">
        <ele>482.0</ele>
        <time>2020-08-13T00:15:44Z</time>
      </trkpt>
      <trkpt lat="42.850016" lon="1.599134">
        <ele>482.0</ele>
        <time>2020-08-13T00:15:45Z</time>
      </trkpt>
      <trkpt lat="42.850001" lon="1.599175">
        <ele>480.0</ele>
        <time>2020-08-13T00:15:45Z</time>
      </trkpt>
      <trkpt lat="42.850004" lon="1.599267">
        <ele>480.0</ele>
        <time>2020-08-13T00:15:46Z</time>
      </trkpt>
      <trkpt lat="42.850022" lon="1.599306">
        <ele>480.0</ele>
        <time>2020-08-13T00:15:46Z</time>
      </trkpt>
      <trkpt lat="42.849935" lon="1.599365">
        <ele>486.0</ele>
        <time>2020-08-13T00:15:48Z</time>
      </trkpt>
      <trkpt lat="42.849425" lon="1.599537">
        <ele>486.0</ele>
        <time>2020-08-13T00:15:54Z</time>
      </trkpt>
      <trkpt lat="42.848934" lon="1.599623">
        <ele>482.2</ele>
        <time>2020-08-13T00:15:59Z</time>
      </trkpt>
      <trkpt lat="42.847469" lon="1.599826">
        <ele>475.2</ele>
        <time>2020-08-13T00:16:17Z</time>
      </trkpt>
      <trkpt lat="42.847125" lon="1.599905">
        <ele>475.2</ele>
        <time>2020-08-13T00:16:21Z</time>
      </trkpt>
      <trkpt lat="42.846668" lon="1.60006">
        <ele>475.4</ele>
        <time>2020-08-13T00:16:26Z</time>
      </trkpt>
      <trkpt lat="42.846086" lon="1.600419">
        <ele>478.2</ele>
        <time>2020-08-13T00:16:34Z</time>
      </trkpt>
      <trkpt lat="42.845817" lon="1.60064">
        <ele>481.2</ele>
        <time>2020-08-13T00:16:37Z</time>
      </trkpt>
      <trkpt lat="42.845601" lon="1.600788">
        <ele>481.2</ele>
        <time>2020-08-13T00:16:40Z</time>
      </trkpt>
      <trkpt lat="42.845332" lon="1.600897">
        <ele>479.8</ele>
        <time>2020-08-13T00:16:44Z</time>
      </trkpt>
      <trkpt lat="42.845314" lon="1.600844">
        <ele>479.8</ele>
        <time>2020-08-13T00:16:45Z</time>
      </trkpt>
      <trkpt lat="42.845255" lon="1.600781">
        <ele>481.2</ele>
        <time>2020-08-13T00:16:46Z</time>
      </trkpt>
      <trkpt lat="42.845178" lon="1.600777">
        <ele>481.2</ele>
        <time>2020-08-13T00:16:47Z</time>
      </trkpt>
      <trkpt lat="42.845114" lon="1.600838">
        <ele>479.8</ele>
        <time>2020-08-13T00:16:48Z</time>
      </trkpt>
      <trkpt lat="42.845096" lon="1.600887">
        <ele>479.8</ele>
        <time>2020-08-13T00:16:48Z</time>
      </trkpt>
      <trkpt lat="42.845095" lon="1.600982">
        <ele>479.8</ele>
        <time>2020-08-13T00:16:49Z</time>
      </trkpt>
      <trkpt lat="42.845126" lon="1.601055">
        <ele>479.8</ele>
        <time>2020-08-13T00:16:50Z</time>
      </trkpt>
      <trkpt lat="42.845012" lon="1.601249">
        <ele>479.8</ele>
        <time>2020-08-13T00:16:52Z</time>
      </trkpt>
      <trkpt lat="42.844887" lon="1.601426">
        <ele>480.8</ele>
        <time>2020-08-13T00:16:54Z</time>
      </trkpt>
      <trkpt lat="42.844699" lon="1.601571">
        <ele>480.8</ele>
        <time>2020-08-13T00:16:57Z</time>
      </trkpt>
      <trkpt lat="42.844114" lon="1.601853">
        <ele>480.6</ele>
        <time>2020-08-13T00:17:04Z</time>
      </trkpt>
      <trkpt lat="42.843567" lon="1.602001">
        <ele>480.6</ele>
        <time>2020-08-13T00:17:11Z</time>
      </trkpt>
      <trkpt lat="42.84315" lon="1.602066">
        <ele>481.2</ele>
        <time>2020-08-13T00:17:16Z</time>
      </trkpt>
      <trkpt lat="42.840633" lon="1.602554">
        <ele>483.4</ele>
        <time>2020-08-13T00:17:47Z</time>
      </trkpt>
      <trkpt lat="42.83967" lon="1.602708">
        <ele>485.0</ele>
        <time>2020-08-13T00:17:59Z</time>
      </trkpt>
      <trkpt lat="42.839223" lon="1.60282">
        <ele>485.0</ele>
        <time>2020-08-13T00:18:05Z</time>
      </trkpt>
      <trkpt lat="42.838909" lon="1.602937">
        <ele>487.6</ele>
        <time>2020-08-13T00:18:09Z</time>
      </trkpt>
      <trkpt lat="42.838006" lon="1.603854">
        <ele>491.0</ele>
        <time>2020-08-13T00:18:22Z</time>
      </trkpt>
      <trkpt lat="42.837844" lon="1.604155">
        <ele>491.0</ele>
        <time>2020-08-13T00:18:26Z</time>
      </trkpt>
      <trkpt lat="42.837759" lon="1.604119">
        <ele>491.0</ele>
        <time>2020-08-13T00:18:26Z</time>
      </trkpt>
      <trkpt lat="42.837687" lon="1.604145">
        <ele>491.0</ele>
        <time>2020-08-13T00:18:27Z</time>
      </trkpt>
      <trkpt lat="42.837637" lon="1.604208">
        <ele>490.2</ele>
        <time>2020-08-13T00:18:27Z</time>
      </trkpt>
      <trkpt lat="42.837617" lon="1.604272">
        <ele>490.2</ele>
        <time>2020-08-13T00:18:28Z</time>
      </trkpt>
      <trkpt lat="42.83763" lon="1.604412">
        <ele>490.2</ele>
        <time>2020-08-13T00:18:28Z</time>
      </trkpt>
      <trkpt lat="42.837686" lon="1.604492">
        <ele>490.2</ele>
        <time>2020-08-13T00:18:29Z</time>
      </trkpt>
      <trkpt lat="42.83745" lon="1.604988">
        <ele>497.0</ele>
        <time>2020-08-13T00:18:32Z</time>
      </trkpt>
      <trkpt lat="42.837266" lon="1.605326">
        <ele>493.6</ele>
        <time>2020-08-13T00:18:34Z</time>
      </trkpt>
      <trkpt lat="42.837096" lon="1.605584">
        <ele>493.6</ele>
        <time>2020-08-13T00:18:36Z</time>
      </trkpt>
      <trkpt lat="42.836786" lon="1.605866">
        <ele>489.6</ele>
        <time>2020-08-13T00:18:38Z</time>
      </trkpt>
      <trkpt lat="42.835208" lon="1.607025">
        <ele>505.0</ele>
        <time>2020-08-13T00:18:51Z</time>
      </trkpt>
      <trkpt lat="42.834975" lon="1.607163">
        <ele>527.2</ele>
        <time>2020-08-13T00:18:53Z</time>
      </trkpt>
      <trkpt lat="42.834814" lon="1.607231">
        <ele>527.2</ele>
        <time>2020-08-13T00:18:54Z</time>
      </trkpt>
      <trkpt lat="42.834136" lon="1.607369">
        <ele>548.2</ele>
        <time>2020-08-13T00:18:59Z</time>
      </trkpt>
      <trkpt lat="42.833787" lon="1.607499">
        <ele>548.2</ele>
        <time>2020-08-13T00:19:01Z</time>
      </trkpt>
      <trkpt lat="42.832962" lon="1.607987">
        <ele>530.4</ele>
        <time>2020-08-13T00:19:08Z</time>
      </trkpt>
      <trkpt lat="42.832523" lon="1.608273">
        <ele>530.4</ele>
        <time>2020-08-13T00:19:11Z</time>
      </trkpt>
      <trkpt lat="42.832219" lon="1.608509">
        <ele>524.6</ele>
        <time>2020-08-13T00:19:13Z</time>
      </trkpt>
      <trkpt lat="42.831863" lon="1.608891">
        <ele>524.6</ele>
        <time>2020-08-13T00:19:16Z</time>
      </trkpt>
      <trkpt lat="42.831444" lon="1.609412">
        <ele>527.6</ele>
        <time>2020-08-13T00:19:20Z</time>
      </trkpt>
      <trkpt lat="42.831015" lon="1.609837">
        <ele>527.6</ele>
        <time>2020-08-13T00:19:24Z</time>
      </trkpt>
      <trkpt lat="42.830765" lon="1.610116">
        <ele>539.4</ele>
        <time>2020-08-13T00:19:26Z</time>
      </trkpt>
      <trkpt lat="42.830185" lon="1.611128">
        <ele>510.2</ele>
        <time>2020-08-13T00:19:33Z</time>
      </trkpt>
      <trkpt lat="42.828356" lon="1.614191">
        <ele>494.0</ele>
        <time>2020-08-13T00:19:53Z</time>
      </trkpt>
      <trkpt lat="42.828015" lon="1.614751">
        <ele>521.6</ele>
        <time>2020-08-13T00:19:57Z</time>
      </trkpt>
      <trkpt lat="42.827617" lon="1.61536">
        <ele>503.0</ele>
        <time>2020-08-13T00:20:01Z</time>
      </trkpt>
      <trkpt lat="42.826272" lon="1.617173">
        <ele>502.2</ele>
        <time>2020-08-13T00:20:14Z</time>
      </trkpt>
      <trkpt lat="42.826015" lon="1.617499">
        <ele>502.2</ele>
        <time>2020-08-13T00:20:16Z</time>
      </trkpt>
      <trkpt lat="42.825701" lon="1.617809">
        <ele>501.4</ele>
        <time>2020-08-13T00:20:19Z</time>
      </trkpt>
      <trkpt lat="42.823445" lon="1.619536">
        <ele>492.8</ele>
        <time>2020-08-13T00:20:37Z</time>
      </trkpt>
      <trkpt lat="42.821191" lon="1.621194">
        <ele>496.8</ele>
        <time>2020-08-13T00:20:54Z</time>
      </trkpt>
      <trkpt lat="42.820628" lon="1.621553">
        <ele>527.0</ele>
        <time>2020-08-13T00:20:59Z</time>
      </trkpt>
      <trkpt lat="42.82011" lon="1.621828">
        <ele>497.2</ele>
        <time>2020-08-13T00:21:03Z</time>
      </trkpt>
      <trkpt lat="42.819647" lon="1.622134">
        <ele>532.0</ele>
        <time>2020-08-13T00:21:07Z</time>
      </trkpt>
      <trkpt lat="42.819282" lon="1.622475">
        <ele>532.0</ele>
        <time>2020-08-13T00:21:10Z</time>
      </trkpt>
      <trkpt lat="42.818866" lon="1.622913">
        <ele>545.0</ele>
        <time>2020-08-13T00:21:14Z</time>
      </trkpt>
      <trkpt lat="42.818565" lon="1.623353">
        <ele>514.2</ele>
        <time>2020-08-13T00:21:18Z</time>
      </trkpt>
      <trkpt lat="42.818334" lon="1.623729">
        <ele>514.2</ele>
        <time>2020-08-13T00:21:20Z</time>
      </trkpt>
      <trkpt lat="42.817701" lon="1.624996">
        <ele>531.4</ele>
        <time>2020-08-13T00:21:28Z</time>
      </trkpt>
      <trkpt lat="42.816675" lon="1.62711">
        <ele>493.8</ele>
        <time>2020-08-13T00:21:41Z</time>
      </trkpt>
      <trkpt lat="42.815577" lon="1.629239">
        <ele>516.4</ele>
        <time>2020-08-13T00:21:54Z</time>
      </trkpt>
      <trkpt lat="42.815488" lon="1.629366">
        <ele>516.4</ele>
        <time>2020-08-13T00:21:55Z</time>
      </trkpt>
      <trkpt lat="42.8139" lon="1.632426">
        <ele>555.6</ele>
        <time>2020-08-13T00:22:14Z</time>
      </trkpt>
      <trkpt lat="42.811456" lon="1.636872">
        <ele>509.0</ele>
        <time>2020-08-13T00:22:42Z</time>
      </trkpt>
      <trkpt lat="42.809918" lon="1.639704">
        <ele>517.2</ele>
        <time>2020-08-13T00:22:59Z</time>
      </trkpt>
      <trkpt lat="42.809625" lon="1.640184">
        <ele>507.2</ele>
        <time>2020-08-13T00:23:03Z</time>
      </trkpt>
      <trkpt lat="42.809377" lon="1.640531">
        <ele>507.2</ele>
        <time>2020-08-13T00:23:05Z</time>
      </trkpt>
      <trkpt lat="42.807237" lon="1.643286">
        <ele>505.8</ele>
        <time>2020-08-13T00:23:25Z</time>
      </trkpt>
      <trkpt lat="42.80479" lon="1.64638">
        <ele>506.2</ele>
        <time>2020-08-13T00:23:48Z</time>
      </trkpt>
      <trkpt lat="42.801645" lon="1.650289">
        <ele>514.8</ele>
        <time>2020-08-13T00:24:17Z</time>
      </trkpt>
      <trkpt lat="42.80153" lon="1.650487">
        <ele>514.8</ele>
        <time>2020-08-13T00:24:18Z</time>
      </trkpt>
      <trkpt lat="42.80103" lon="1.651111">
        <ele>508.6</ele>
        <time>2020-08-13T00:24:23Z</time>
      </trkpt>
      <trkpt lat="42.800843" lon="1.651439">
        <ele>508.6</ele>
        <time>2020-08-13T00:24:25Z</time>
      </trkpt>
      <trkpt lat="42.800708" lon="1.651729">
        <ele>509.0</ele>
        <time>2020-08-13T00:24:27Z</time>
      </trkpt>
      <trkpt lat="42.800608" lon="1.652039">
        <ele>509.0</ele>
        <time>2020-08-13T00:24:28Z</time>
      </trkpt>
      <trkpt lat="42.800457" lon="1.652629">
        <ele>506.0</ele>
        <time>2020-08-13T00:24:32Z</time>
      </trkpt>
      <trkpt lat="42.800409" lon="1.652942">
        <ele>506.0</ele>
        <time>2020-08-13T00:24:33Z</time>
      </trkpt>
      <trkpt lat="42.800386" lon="1.653496">
        <ele>504.8</ele>
        <time>2020-08-13T00:24:36Z</time>
      </trkpt>
      <trkpt lat="42.800352" lon="1.65375">
        <ele>504.8</ele>
        <time>2020-08-13T00:24:37Z</time>
      </trkpt>
      <trkpt lat="42.800166" lon="1.654418">
        <ele>503.0</ele>
        <time>2020-08-13T00:24:41Z</time>
      </trkpt>
      <trkpt lat="42.800011" lon="1.655226">
        <ele>502.8</ele>
        <time>2020-08-13T00:24:45Z</time>
      </trkpt>
      <trkpt lat="42.799536" lon="1.658166">
        <ele>504.8</ele>
        <time>2020-08-13T00:25:00Z</time>
      </trkpt>
      <trkpt lat="42.799334" lon="1.659665">
        <ele>504.0</ele>
        <time>2020-08-13T00:25:08Z</time>
      </trkpt>
      <trkpt lat="42.799118" lon="1.660935">
        <ele>505.8</ele>
        <time>2020-08-13T00:25:14Z</time>
      </trkpt>
      <trkpt lat="42.798849" lon="1.662408">
        <ele>505.6</ele>
        <time>2020-08-13T00:25:22Z</time>
      </trkpt>
      <trkpt lat="42.797793" lon="1.667654">
        <ele>516.2</ele>
        <time>2020-08-13T00:25:49Z</time>
      </trkpt>
      <trkpt lat="42.797703" lon="1.667991">
        <ele>516.2</ele>
        <time>2020-08-13T00:25:51Z</time>
      </trkpt>
      <trkpt lat="42.797452" lon="1.668733">
        <ele>535.2</ele>
        <time>2020-08-13T00:25:55Z</time>
      </trkpt>
      <trkpt lat="42.79654" lon="1.670745">
        <ele>541.6</ele>
        <time>2020-08-13T00:26:07Z</time>
      </trkpt>
      <trkpt lat="42.795847" lon="1.672058">
        <ele>518.0</ele>
        <time>2020-08-13T00:26:15Z</time>
      </trkpt>
      <trkpt lat="42.795634" lon="1.672373">
        <ele>541.2</ele>
        <time>2020-08-13T00:26:18Z</time>
      </trkpt>
      <trkpt lat="42.795181" lon="1.673301">
        <ele>524.6</ele>
        <time>2020-08-13T00:26:24Z</time>
      </trkpt>
      <trkpt lat="42.794811" lon="1.674172">
        <ele>518.0</ele>
        <time>2020-08-13T00:26:29Z</time>
      </trkpt>
      <trkpt lat="42.794594" lon="1.67485">
        <ele>518.0</ele>
        <time>2020-08-13T00:26:32Z</time>
      </trkpt>
      <trkpt lat="42.794482" lon="1.675348">
        <ele>517.0</ele>
        <time>2020-08-13T00:26:35Z</time>
      </trkpt>
      <trkpt lat="42.794406" lon="1.675908">
        <ele>517.0</ele>
        <time>2020-08-13T00:26:38Z</time>
      </trkpt>
      <trkpt lat="42.794116" lon="1.677358">
        <ele>519.0</ele>
        <time>2020-08-13T00:26:46Z</time>
      </trkpt>
      <trkpt lat="42.793913" lon="1.678289">
        <ele>519.8</ele>
        <time>2020-08-13T00:26:50Z</time>
      </trkpt>
      <trkpt lat="42.793695" lon="1.679018">
        <ele>520.8</ele>
        <time>2020-08-13T00:26:54Z</time>
      </trkpt>
      <trkpt lat="42.793424" lon="1.679663">
        <ele>522.4</ele>
        <time>2020-08-13T00:26:58Z</time>
      </trkpt>
      <trkpt lat="42.793241" lon="1.680021">
        <ele>525.2</ele>
        <time>2020-08-13T00:27:00Z</time>
      </trkpt>
      <trkpt lat="42.79275" lon="1.680872">
        <ele>530.2</ele>
        <time>2020-08-13T00:27:06Z</time>
      </trkpt>
      <trkpt lat="42.791162" lon="1.683502">
        <ele>533.4</ele>
        <time>2020-08-13T00:27:23Z</time>
      </trkpt>
      <trkpt lat="42.790868" lon="1.684082">
        <ele>533.4</ele>
        <time>2020-08-13T00:27:26Z</time>
      </trkpt>
      <trkpt lat="42.790697" lon="1.684471">
        <ele>530.8</ele>
        <time>2020-08-13T00:27:29Z</time>
      </trkpt>
      <trkpt lat="42.790537" lon="1.684888">
        <ele>530.8</ele>
        <time>2020-08-13T00:27:31Z</time>
      </trkpt>
      <trkpt lat="42.79037" lon="1.685399">
        <ele>529.2</ele>
        <time>2020-08-13T00:27:34Z</time>
      </trkpt>
      <trkpt lat="42.790236" lon="1.685921">
        <ele>528.2</ele>
        <time>2020-08-13T00:27:37Z</time>
      </trkpt>
      <trkpt lat="42.790104" lon="1.686506">
        <ele>528.2</ele>
        <time>2020-08-13T00:27:40Z</time>
      </trkpt>
      <trkpt lat="42.789695" lon="1.688642">
        <ele>531.4</ele>
        <time>2020-08-13T00:27:51Z</time>
      </trkpt>
      <trkpt lat="42.789553" lon="1.689179">
        <ele>532.2</ele>
        <time>2020-08-13T00:27:54Z</time>
      </trkpt>
      <trkpt lat="42.789449" lon="1.689496">
        <ele>532.2</ele>
        <time>2020-08-13T00:27:55Z</time>
      </trkpt>
      <trkpt lat="42.789258" lon="1.68996">
        <ele>532.2</ele>
        <time>2020-08-13T00:27:58Z</time>
      </trkpt>
      <trkpt lat="42.788942" lon="1.690556">
        <ele>533.2</ele>
        <time>2020-08-13T00:28:02Z</time>
      </trkpt>
      <trkpt lat="42.788627" lon="1.691037">
        <ele>535.6</ele>
        <time>2020-08-13T00:28:05Z</time>
      </trkpt>
      <trkpt lat="42.787411" lon="1.69277">
        <ele>536.0</ele>
        <time>2020-08-13T00:28:17Z</time>
      </trkpt>
      <trkpt lat="42.787035" lon="1.693276">
        <ele>536.0</ele>
        <time>2020-08-13T00:28:21Z</time>
      </trkpt>
      <trkpt lat="42.786707" lon="1.693621">
        <ele>541.2</ele>
        <time>2020-08-13T00:28:23Z</time>
      </trkpt>
      <trkpt lat="42.78624" lon="1.694017">
        <ele>535.6</ele>
        <time>2020-08-13T00:28:27Z</time>
      </trkpt>
      <trkpt lat="42.785761" lon="1.694317">
        <ele>538.4</ele>
        <time>2020-08-13T00:28:31Z</time>
      </trkpt>
      <trkpt lat="42.785175" lon="1.694541">
        <ele>538.4</ele>
        <time>2020-08-13T00:28:35Z</time>
      </trkpt>
      <trkpt lat="42.784476" lon="1.69468">
        <ele>541.6</ele>
        <time>2020-08-13T00:28:40Z</time>
      </trkpt>
      <trkpt lat="42.78349" lon="1.694728">
        <ele>545.2</ele>
        <time>2020-08-13T00:28:47Z</time>
      </trkpt>
      <trkpt lat="42.782705" lon="1.694856">
        <ele>546.8</ele>
        <time>2020-08-13T00:28:52Z</time>
      </trkpt>
      <trkpt lat="42.782171" lon="1.694991">
        <ele>546.6</ele>
        <time>2020-08-13T00:28:56Z</time>
      </trkpt>
      <trkpt lat="42.780424" lon="1.695519">
        <ele>553.4</ele>
        <time>2020-08-13T00:29:08Z</time>
      </trkpt>
      <trkpt lat="42.779953" lon="1.69564">
        <ele>568.8</ele>
        <time>2020-08-13T00:29:11Z</time>
      </trkpt>
      <trkpt lat="42.779008" lon="1.695843">
        <ele>556.0</ele>
        <time>2020-08-13T00:29:18Z</time>
      </trkpt>
      <trkpt lat="42.777769" lon="1.696192">
        <ele>559.8</ele>
        <time>2020-08-13T00:29:27Z</time>
      </trkpt>
      <trkpt lat="42.776541" lon="1.696559">
        <ele>592.2</ele>
        <time>2020-08-13T00:29:35Z</time>
      </trkpt>
      <trkpt lat="42.776326" lon="1.696654">
        <ele>592.2</ele>
        <time>2020-08-13T00:29:37Z</time>
      </trkpt>
      <trkpt lat="42.77608" lon="1.696794">
        <ele>572.6</ele>
        <time>2020-08-13T00:29:39Z</time>
      </trkpt>
      <trkpt lat="42.775883" lon="1.696985">
        <ele>572.6</ele>
        <time>2020-08-13T00:29:41Z</time>
      </trkpt>
      <trkpt lat="42.775568" lon="1.697414">
        <ele>592.2</ele>
        <time>2020-08-13T00:29:44Z</time>
      </trkpt>
      <trkpt lat="42.774976" lon="1.698701">
        <ele>577.4</ele>
        <time>2020-08-13T00:29:52Z</time>
      </trkpt>
      <trkpt lat="42.774" lon="1.700607">
        <ele>575.8</ele>
        <time>2020-08-13T00:30:03Z</time>
      </trkpt>
      <trkpt lat="42.773858" lon="1.70094">
        <ele>571.6</ele>
        <time>2020-08-13T00:30:05Z</time>
      </trkpt>
      <trkpt lat="42.773786" lon="1.701231">
        <ele>571.6</ele>
        <time>2020-08-13T00:30:07Z</time>
      </trkpt>
      <trkpt lat="42.773495" lon="1.7031">
        <ele>574.8</ele>
        <time>2020-08-13T00:30:16Z</time>
      </trkpt>
      <trkpt lat="42.773035" lon="1.705576">
        <ele>580.4</ele>
        <time>2020-08-13T00:30:29Z</time>
      </trkpt>
      <trkpt lat="42.772889" lon="1.706271">
        <ele>576.6</ele>
        <time>2020-08-13T00:30:33Z</time>
      </trkpt>
      <trkpt lat="42.772701" lon="1.706975">
        <ele>572.4</ele>
        <time>2020-08-13T00:30:37Z</time>
      </trkpt>
      <trkpt lat="42.772342" lon="1.70816">
        <ele>575.6</ele>
        <time>2020-08-13T00:30:43Z</time>
      </trkpt>
      <trkpt lat="42.772237" lon="1.708624">
        <ele>570.0</ele>
        <time>2020-08-13T00:30:46Z</time>
      </trkpt>
      <trkpt lat="42.772144" lon="1.709666">
        <ele>566.2</ele>
        <time>2020-08-13T00:30:51Z</time>
      </trkpt>
      <trkpt lat="42.771794" lon="1.715284">
        <ele>556.2</ele>
        <time>2020-08-13T00:31:19Z</time>
      </trkpt>
      <trkpt lat="42.771578" lon="1.718339">
        <ele>563.0</ele>
        <time>2020-08-13T00:31:35Z</time>
      </trkpt>
      <trkpt lat="42.771146" lon="1.725176">
        <ele>572.0</ele>
        <time>2020-08-13T00:32:09Z</time>
      </trkpt>
      <trkpt lat="42.770783" lon="1.730597">
        <ele>606.0</ele>
        <time>2020-08-13T00:32:36Z</time>
      </trkpt>
      <trkpt lat="42.770674" lon="1.732048">
        <ele>609.6</ele>
        <time>2020-08-13T00:32:44Z</time>
      </trkpt>
      <trkpt lat="42.770637" lon="1.732247">
        <ele>609.6</ele>
        <time>2020-08-13T00:32:45Z</time>
      </trkpt>
      <trkpt lat="42.770376" lon="1.73314">
        <ele>607.8</ele>
        <time>2020-08-13T00:32:50Z</time>
      </trkpt>
      <trkpt lat="42.770309" lon="1.733414">
        <ele>608.6</ele>
        <time>2020-08-13T00:32:51Z</time>
      </trkpt>
      <trkpt lat="42.770275" lon="1.733676">
        <ele>608.6</ele>
        <time>2020-08-13T00:32:52Z</time>
      </trkpt>
      <trkpt lat="42.770264" lon="1.733942">
        <ele>608.6</ele>
        <time>2020-08-13T00:32:54Z</time>
      </trkpt>
      <trkpt lat="42.770286" lon="1.734225">
        <ele>611.6</ele>
        <time>2020-08-13T00:32:55Z</time>
      </trkpt>
      <trkpt lat="42.770519" lon="1.735251">
        <ele>615.0</ele>
        <time>2020-08-13T00:33:01Z</time>
      </trkpt>
      <trkpt lat="42.770546" lon="1.735529">
        <ele>615.0</ele>
        <time>2020-08-13T00:33:02Z</time>
      </trkpt>
      <trkpt lat="42.770519" lon="1.735898">
        <ele>616.4</ele>
        <time>2020-08-13T00:33:04Z</time>
      </trkpt>
      <trkpt lat="42.770437" lon="1.736227">
        <ele>616.4</ele>
        <time>2020-08-13T00:33:06Z</time>
      </trkpt>
      <trkpt lat="42.770251" lon="1.736583">
        <ele>616.4</ele>
        <time>2020-08-13T00:33:08Z</time>
      </trkpt>
      <trkpt lat="42.769981" lon="1.736938">
        <ele>622.6</ele>
        <time>2020-08-13T00:33:10Z</time>
      </trkpt>
      <trkpt lat="42.769763" lon="1.737184">
        <ele>622.6</ele>
        <time>2020-08-13T00:33:12Z</time>
      </trkpt>
      <trkpt lat="42.7696" lon="1.737446">
        <ele>622.6</ele>
        <time>2020-08-13T00:33:14Z</time>
      </trkpt>
      <trkpt lat="42.769176" lon="1.738426">
        <ele>609.6</ele>
        <time>2020-08-13T00:33:20Z</time>
      </trkpt>
      <trkpt lat="42.768853" lon="1.738984">
        <ele>632.8</ele>
        <time>2020-08-13T00:33:24Z</time>
      </trkpt>
      <trkpt lat="42.768655" lon="1.73947">
        <ele>631.6</ele>
        <time>2020-08-13T00:33:26Z</time>
      </trkpt>
      <trkpt lat="42.768521" lon="1.739963">
        <ele>631.6</ele>
        <time>2020-08-13T00:33:29Z</time>
      </trkpt>
      <trkpt lat="42.768455" lon="1.740352">
        <ele>624.8</ele>
        <time>2020-08-13T00:33:31Z</time>
      </trkpt>
      <trkpt lat="42.768418" lon="1.740744">
        <ele>624.8</ele>
        <time>2020-08-13T00:33:33Z</time>
      </trkpt>
      <trkpt lat="42.768388" lon="1.741365">
        <ele>614.6</ele>
        <time>2020-08-13T00:33:36Z</time>
      </trkpt>
      <trkpt lat="42.768331" lon="1.741693">
        <ele>638.4</ele>
        <time>2020-08-13T00:33:39Z</time>
      </trkpt>
      <trkpt lat="42.768259" lon="1.741926">
        <ele>638.4</ele>
        <time>2020-08-13T00:33:40Z</time>
      </trkpt>
      <trkpt lat="42.768137" lon="1.742197">
        <ele>638.4</ele>
        <time>2020-08-13T00:33:41Z</time>
      </trkpt>
      <trkpt lat="42.76797" lon="1.742481">
        <ele>638.4</ele>
        <time>2020-08-13T00:33:43Z</time>
      </trkpt>
      <trkpt lat="42.767603" lon="1.742988">
        <ele>619.8</ele>
        <time>2020-08-13T00:33:47Z</time>
      </trkpt>
      <trkpt lat="42.767311" lon="1.743463">
        <ele>633.4</ele>
        <time>2020-08-13T00:33:50Z</time>
      </trkpt>
      <trkpt lat="42.767046" lon="1.743961">
        <ele>633.4</ele>
        <time>2020-08-13T00:33:53Z</time>
      </trkpt>
      <trkpt lat="42.766065" lon="1.745963">
        <ele>606.0</ele>
        <time>2020-08-13T00:34:06Z</time>
      </trkpt>
      <trkpt lat="42.765854" lon="1.746623">
        <ele>606.0</ele>
        <time>2020-08-13T00:34:09Z</time>
      </trkpt>
      <trkpt lat="42.765778" lon="1.747194">
        <ele>637.6</ele>
        <time>2020-08-13T00:34:13Z</time>
      </trkpt>
      <trkpt lat="42.765762" lon="1.748518">
        <ele>628.4</ele>
        <time>2020-08-13T00:34:19Z</time>
      </trkpt>
      <trkpt lat="42.765707" lon="1.748941">
        <ele>628.4</ele>
        <time>2020-08-13T00:34:21Z</time>
      </trkpt>
      <trkpt lat="42.765638" lon="1.749207">
        <ele>623.6</ele>
        <time>2020-08-13T00:34:23Z</time>
      </trkpt>
      <trkpt lat="42.765126" lon="1.750428">
        <ele>615.4</ele>
        <time>2020-08-13T00:34:30Z</time>
      </trkpt>
      <trkpt lat="42.764258" lon="1.75259">
        <ele>609.4</ele>
        <time>2020-08-13T00:34:42Z</time>
      </trkpt>
      <trkpt lat="42.764003" lon="1.753318">
        <ele>659.4</ele>
        <time>2020-08-13T00:34:47Z</time>
      </trkpt>
      <trkpt lat="42.763507" lon="1.75519">
        <ele>618.8</ele>
        <time>2020-08-13T00:34:58Z</time>
      </trkpt>
      <trkpt lat="42.762807" lon="1.756816">
        <ele>633.2</ele>
        <time>2020-08-13T00:35:07Z</time>
      </trkpt>
      <trkpt lat="42.762297" lon="1.75813">
        <ele>664.8</ele>
        <time>2020-08-13T00:35:15Z</time>
      </trkpt>
      <trkpt lat="42.761578" lon="1.760198">
        <ele>627.6</ele>
        <time>2020-08-13T00:35:27Z</time>
      </trkpt>
      <trkpt lat="42.761229" lon="1.761278">
        <ele>613.6</ele>
        <time>2020-08-13T00:35:33Z</time>
      </trkpt>
      <trkpt lat="42.761192" lon="1.761361">
        <ele>613.6</ele>
        <time>2020-08-13T00:35:33Z</time>
      </trkpt>
      <trkpt lat="42.76109" lon="1.761503">
        <ele>613.6</ele>
        <time>2020-08-13T00:35:34Z</time>
      </trkpt>
      <trkpt lat="42.760486" lon="1.762305">
        <ele>620.0</ele>
        <time>2020-08-13T00:35:40Z</time>
      </trkpt>
      <trkpt lat="42.760442" lon="1.762398">
        <ele>620.0</ele>
        <time>2020-08-13T00:35:40Z</time>
      </trkpt>
      <trkpt lat="42.760377" lon="1.762683">
        <ele>619.2</ele>
        <time>2020-08-13T00:35:42Z</time>
      </trkpt>
      <trkpt lat="42.760321" lon="1.763346">
        <ele>618.0</ele>
        <time>2020-08-13T00:35:45Z</time>
      </trkpt>
      <trkpt lat="42.760262" lon="1.764312">
        <ele>615.2</ele>
        <time>2020-08-13T00:35:50Z</time>
      </trkpt>
      <trkpt lat="42.760217" lon="1.76456">
        <ele>615.2</ele>
        <time>2020-08-13T00:35:51Z</time>
      </trkpt>
      <trkpt lat="42.759637" lon="1.766308">
        <ele>612.0</ele>
        <time>2020-08-13T00:36:01Z</time>
      </trkpt>
      <trkpt lat="42.759142" lon="1.767624">
        <ele>619.4</ele>
        <time>2020-08-13T00:36:09Z</time>
      </trkpt>
      <trkpt lat="42.758935" lon="1.768131">
        <ele>619.4</ele>
        <time>2020-08-13T00:36:11Z</time>
      </trkpt>
      <trkpt lat="42.758692" lon="1.768529">
        <ele>617.2</ele>
        <time>2020-08-13T00:36:14Z</time>
      </trkpt>
      <trkpt lat="42.758417" lon="1.768844">
        <ele>617.2</ele>
        <time>2020-08-13T00:36:17Z</time>
      </trkpt>
      <trkpt lat="42.757973" lon="1.769298">
        <ele>624.2</ele>
        <time>2020-08-13T00:36:20Z</time>
      </trkpt>
      <trkpt lat="42.756885" lon="1.770329">
        <ele>627.0</ele>
        <time>2020-08-13T00:36:29Z</time>
      </trkpt>
      <trkpt lat="42.75648" lon="1.770622">
        <ele>637.2</ele>
        <time>2020-08-13T00:36:33Z</time>
      </trkpt>
      <trkpt lat="42.756213" lon="1.77071">
        <ele>637.2</ele>
        <time>2020-08-13T00:36:34Z</time>
      </trkpt>
      <trkpt lat="42.756" lon="1.770696">
        <ele>637.2</ele>
        <time>2020-08-13T00:36:36Z</time>
      </trkpt>
      <trkpt lat="42.755779" lon="1.770629">
        <ele>644.6</ele>
        <time>2020-08-13T00:36:38Z</time>
      </trkpt>
      <trkpt lat="42.755425" lon="1.770454">
        <ele>644.6</ele>
        <time>2020-08-13T00:36:40Z</time>
      </trkpt>
      <trkpt lat="42.755235" lon="1.770381">
        <ele>644.6</ele>
        <time>2020-08-13T00:36:41Z</time>
      </trkpt>
      <trkpt lat="42.755076" lon="1.77035">
        <ele>644.6</ele>
        <time>2020-08-13T00:36:43Z</time>
      </trkpt>
      <trkpt lat="42.754853" lon="1.770388">
        <ele>654.8</ele>
        <time>2020-08-13T00:36:44Z</time>
      </trkpt>
      <trkpt lat="42.754578" lon="1.770486">
        <ele>654.8</ele>
        <time>2020-08-13T00:36:46Z</time>
      </trkpt>
      <trkpt lat="42.753089" lon="1.771193">
        <ele>663.4</ele>
        <time>2020-08-13T00:36:57Z</time>
      </trkpt>
      <trkpt lat="42.75153" lon="1.771983">
        <ele>669.6</ele>
        <time>2020-08-13T00:37:08Z</time>
      </trkpt>
      <trkpt lat="42.750235" lon="1.772536">
        <ele>661.4</ele>
        <time>2020-08-13T00:37:18Z</time>
      </trkpt>
      <trkpt lat="42.749657" lon="1.772802">
        <ele>669.6</ele>
        <time>2020-08-13T00:37:22Z</time>
      </trkpt>
      <trkpt lat="42.749341" lon="1.772972">
        <ele>669.6</ele>
        <time>2020-08-13T00:37:24Z</time>
      </trkpt>
      <trkpt lat="42.749122" lon="1.773175">
        <ele>681.8</ele>
        <time>2020-08-13T00:37:26Z</time>
      </trkpt>
      <trkpt lat="42.748887" lon="1.773478">
        <ele>676.0</ele>
        <time>2020-08-13T00:37:28Z</time>
      </trkpt>
      <trkpt lat="42.748276" lon="1.774396">
        <ele>678.8</ele>
        <time>2020-08-13T00:37:35Z</time>
      </trkpt>
      <trkpt lat="42.748036" lon="1.774715">
        <ele>678.8</ele>
        <time>2020-08-13T00:37:37Z</time>
      </trkpt>
      <trkpt lat="42.746328" lon="1.776112">
        <ele>671.6</ele>
        <time>2020-08-13T00:37:51Z</time>
      </trkpt>
      <trkpt lat="42.745843" lon="1.77649">
        <ele>671.6</ele>
        <time>2020-08-13T00:37:54Z</time>
      </trkpt>
      <trkpt lat="42.745529" lon="1.776841">
        <ele>672.6</ele>
        <time>2020-08-13T00:37:57Z</time>
      </trkpt>
      <trkpt lat="42.74512" lon="1.777608">
        <ele>666.8</ele>
        <time>2020-08-13T00:38:02Z</time>
      </trkpt>
      <trkpt lat="42.744919" lon="1.777955">
        <ele>675.6</ele>
        <time>2020-08-13T00:38:04Z</time>
      </trkpt>
      <trkpt lat="42.744688" lon="1.778234">
        <ele>675.6</ele>
        <time>2020-08-13T00:38:06Z</time>
      </trkpt>
      <trkpt lat="42.744526" lon="1.778361">
        <ele>667.0</ele>
        <time>2020-08-13T00:38:08Z</time>
      </trkpt>
      <trkpt lat="42.743647" lon="1.778899">
        <ele>678.0</ele>
        <time>2020-08-13T00:38:14Z</time>
      </trkpt>
      <trkpt lat="42.743352" lon="1.779184">
        <ele>664.6</ele>
        <time>2020-08-13T00:38:17Z</time>
      </trkpt>
      <trkpt lat="42.743102" lon="1.779538">
        <ele>685.2</ele>
        <time>2020-08-13T00:38:20Z</time>
      </trkpt>
      <trkpt lat="42.742745" lon="1.7803">
        <ele>672.6</ele>
        <time>2020-08-13T00:38:24Z</time>
      </trkpt>
      <trkpt lat="42.741357" lon="1.783535">
        <ele>686.2</ele>
        <time>2020-08-13T00:38:43Z</time>
      </trkpt>
      <trkpt lat="42.740821" lon="1.784377">
        <ele>702.2</ele>
        <time>2020-08-13T00:38:49Z</time>
      </trkpt>
      <trkpt lat="42.740315" lon="1.785118">
        <ele>678.2</ele>
        <time>2020-08-13T00:38:54Z</time>
      </trkpt>
      <trkpt lat="42.740136" lon="1.785425">
        <ele>678.2</ele>
        <time>2020-08-13T00:38:56Z</time>
      </trkpt>
      <trkpt lat="42.740033" lon="1.785645">
        <ele>678.2</ele>
        <time>2020-08-13T00:38:57Z</time>
      </trkpt>
      <trkpt lat="42.739848" lon="1.786177">
        <ele>688.8</ele>
        <time>2020-08-13T00:39:00Z</time>
      </trkpt>
      <trkpt lat="42.739735" lon="1.786738">
        <ele>682.6</ele>
        <time>2020-08-13T00:39:03Z</time>
      </trkpt>
      <trkpt lat="42.739561" lon="1.788084">
        <ele>683.2</ele>
        <time>2020-08-13T00:39:10Z</time>
      </trkpt>
      <trkpt lat="42.739499" lon="1.78843">
        <ele>680.0</ele>
        <time>2020-08-13T00:39:12Z</time>
      </trkpt>
      <trkpt lat="42.739396" lon="1.788738">
        <ele>680.0</ele>
        <time>2020-08-13T00:39:14Z</time>
      </trkpt>
      <trkpt lat="42.739254" lon="1.789024">
        <ele>680.0</ele>
        <time>2020-08-13T00:39:15Z</time>
      </trkpt>
      <trkpt lat="42.739117" lon="1.789234">
        <ele>683.8</ele>
        <time>2020-08-13T00:39:17Z</time>
      </trkpt>
      <trkpt lat="42.738957" lon="1.789403">
        <ele>683.8</ele>
        <time>2020-08-13T00:39:18Z</time>
      </trkpt>
      <trkpt lat="42.738743" lon="1.789546">
        <ele>683.8</ele>
        <time>2020-08-13T00:39:20Z</time>
      </trkpt>
      <trkpt lat="42.738544" lon="1.789653">
        <ele>683.8</ele>
        <time>2020-08-13T00:39:21Z</time>
      </trkpt>
      <trkpt lat="42.738064" lon="1.789778">
        <ele>688.6</ele>
        <time>2020-08-13T00:39:25Z</time>
      </trkpt>
      <trkpt lat="42.736723" lon="1.789989">
        <ele>692.6</ele>
        <time>2020-08-13T00:39:34Z</time>
      </trkpt>
      <trkpt lat="42.736486" lon="1.790059">
        <ele>684.4</ele>
        <time>2020-08-13T00:39:36Z</time>
      </trkpt>
      <trkpt lat="42.736274" lon="1.790169">
        <ele>684.4</ele>
        <time>2020-08-13T00:39:37Z</time>
      </trkpt>
      <trkpt lat="42.735948" lon="1.790436">
        <ele>684.4</ele>
        <time>2020-08-13T00:39:40Z</time>
      </trkpt>
      <trkpt lat="42.73566" lon="1.790778">
        <ele>695.4</ele>
        <time>2020-08-13T00:39:43Z</time>
      </trkpt>
      <trkpt lat="42.735547" lon="1.790964">
        <ele>679.4</ele>
        <time>2020-08-13T00:39:44Z</time>
      </trkpt>
      <trkpt lat="42.735423" lon="1.791216">
        <ele>679.4</ele>
        <time>2020-08-13T00:39:46Z</time>
      </trkpt>
      <trkpt lat="42.735172" lon="1.791929">
        <ele>670.4</ele>
        <time>2020-08-13T00:39:50Z</time>
      </trkpt>
      <trkpt lat="42.734974" lon="1.792209">
        <ele>683.6</ele>
        <time>2020-08-13T00:39:52Z</time>
      </trkpt>
      <trkpt lat="42.734445" lon="1.793448">
        <ele>676.4</ele>
        <time>2020-08-13T00:39:59Z</time>
      </trkpt>
      <trkpt lat="42.733774" lon="1.795183">
        <ele>698.0</ele>
        <time>2020-08-13T00:40:09Z</time>
      </trkpt>
      <trkpt lat="42.733106" lon="1.797533">
        <ele>693.4</ele>
        <time>2020-08-13T00:40:22Z</time>
      </trkpt>
      <trkpt lat="42.732678" lon="1.798815">
        <ele>687.0</ele>
        <time>2020-08-13T00:40:29Z</time>
      </trkpt>
      <trkpt lat="42.732204" lon="1.799919">
        <ele>684.0</ele>
        <time>2020-08-13T00:40:35Z</time>
      </trkpt>
      <trkpt lat="42.731633" lon="1.80115">
        <ele>673.4</ele>
        <time>2020-08-13T00:40:42Z</time>
      </trkpt>
      <trkpt lat="42.730279" lon="1.803957">
        <ele>672.6</ele>
        <time>2020-08-13T00:40:59Z</time>
      </trkpt>
      <trkpt lat="42.729421" lon="1.805464">
        <ele>682.4</ele>
        <time>2020-08-13T00:41:09Z</time>
      </trkpt>
      <trkpt lat="42.728719" lon="1.806477">
        <ele>695.6</ele>
        <time>2020-08-13T00:41:16Z</time>
      </trkpt>
      <trkpt lat="42.727108" lon="1.808631">
        <ele>701.4</ele>
        <time>2020-08-13T00:41:31Z</time>
      </trkpt>
      <trkpt lat="42.726746" lon="1.809263">
        <ele>692.6</ele>
        <time>2020-08-13T00:41:35Z</time>
      </trkpt>
      <trkpt lat="42.726214" lon="1.810471">
        <ele>723.0</ele>
        <time>2020-08-13T00:41:43Z</time>
      </trkpt>
      <trkpt lat="42.726029" lon="1.811062">
        <ele>715.8</ele>
        <time>2020-08-13T00:41:46Z</time>
      </trkpt>
      <trkpt lat="42.72583" lon="1.811789">
        <ele>763.4</ele>
        <time>2020-08-13T00:41:51Z</time>
      </trkpt>
      <trkpt lat="42.725681" lon="1.812539">
        <ele>755.8</ele>
        <time>2020-08-13T00:41:55Z</time>
      </trkpt>
      <trkpt lat="42.724648" lon="1.81845">
        <ele>739.0</ele>
        <time>2020-08-13T00:42:25Z</time>
      </trkpt>
      <trkpt lat="42.724415" lon="1.82037">
        <ele>721.4</ele>
        <time>2020-08-13T00:42:35Z</time>
      </trkpt>
      <trkpt lat="42.724396" lon="1.821716">
        <ele>721.8</ele>
        <time>2020-08-13T00:42:42Z</time>
      </trkpt>
      <trkpt lat="42.724469" lon="1.822861">
        <ele>726.4</ele>
        <time>2020-08-13T00:42:48Z</time>
      </trkpt>
      <trkpt lat="42.724633" lon="1.824307">
        <ele>738.4</ele>
        <time>2020-08-13T00:42:55Z</time>
      </trkpt>
      <trkpt lat="42.724747" lon="1.825991">
        <ele>762.2</ele>
        <time>2020-08-13T00:43:04Z</time>
      </trkpt>
      <trkpt lat="42.724758" lon="1.826656">
        <ele>762.2</ele>
        <time>2020-08-13T00:43:07Z</time>
      </trkpt>
      <trkpt lat="42.724706" lon="1.827343">
        <ele>776.2</ele>
        <time>2020-08-13T00:43:11Z</time>
      </trkpt>
      <trkpt lat="42.724628" lon="1.827888">
        <ele>781.6</ele>
        <time>2020-08-13T00:43:13Z</time>
      </trkpt>
      <trkpt lat="42.724493" lon="1.828497">
        <ele>774.6</ele>
        <time>2020-08-13T00:43:17Z</time>
      </trkpt>
      <trkpt lat="42.724373" lon="1.828851">
        <ele>774.6</ele>
        <time>2020-08-13T00:43:19Z</time>
      </trkpt>
      <trkpt lat="42.724165" lon="1.829368">
        <ele>804.6</ele>
        <time>2020-08-13T00:43:22Z</time>
      </trkpt>
      <trkpt lat="42.723936" lon="1.82987">
        <ele>804.6</ele>
        <time>2020-08-13T00:43:25Z</time>
      </trkpt>
      <trkpt lat="42.723661" lon="1.830422">
        <ele>779.0</ele>
        <time>2020-08-13T00:43:29Z</time>
      </trkpt>
      <trkpt lat="42.723395" lon="1.830882">
        <ele>759.6</ele>
        <time>2020-08-13T00:43:32Z</time>
      </trkpt>
      <trkpt lat="42.72312" lon="1.8313">
        <ele>796.8</ele>
        <time>2020-08-13T00:43:36Z</time>
      </trkpt>
      <trkpt lat="42.722792" lon="1.831696">
        <ele>777.4</ele>
        <time>2020-08-13T00:43:39Z</time>
      </trkpt>
      <trkpt lat="42.722543" lon="1.831951">
        <ele>777.4</ele>
        <time>2020-08-13T00:43:41Z</time>
      </trkpt>
      <trkpt lat="42.721939" lon="1.832454">
        <ele>808.0</ele>
        <time>2020-08-13T00:43:46Z</time>
      </trkpt>
      <trkpt lat="42.721461" lon="1.832772">
        <ele>804.8</ele>
        <time>2020-08-13T00:43:50Z</time>
      </trkpt>
      <trkpt lat="42.720448" lon="1.833199">
        <ele>829.8</ele>
        <time>2020-08-13T00:43:57Z</time>
      </trkpt>
      <trkpt lat="42.718152" lon="1.834063">
        <ele>810.4</ele>
        <time>2020-08-13T00:44:14Z</time>
      </trkpt>
      <trkpt lat="42.717814" lon="1.83424">
        <ele>782.6</ele>
        <time>2020-08-13T00:44:17Z</time>
      </trkpt>
      <trkpt lat="42.716496" lon="1.834776">
        <ele>803.2</ele>
        <time>2020-08-13T00:44:26Z</time>
      </trkpt>
      <trkpt lat="42.71594" lon="1.834972">
        <ele>803.2</ele>
        <time>2020-08-13T00:44:30Z</time>
      </trkpt>
      <trkpt lat="42.71492" lon="1.835222">
        <ele>795.0</ele>
        <time>2020-08-13T00:44:37Z</time>
      </trkpt>
      <trkpt lat="42.714416" lon="1.835319">
        <ele>795.0</ele>
        <time>2020-08-13T00:44:41Z</time>
      </trkpt>
      <trkpt lat="42.714031" lon="1.835353">
        <ele>796.4</ele>
        <time>2020-08-13T00:44:43Z</time>
      </trkpt>
      <trkpt lat="42.711638" lon="1.835319">
        <ele>813.8</ele>
        <time>2020-08-13T00:45:00Z</time>
      </trkpt>
      <trkpt lat="42.711055" lon="1.835378">
        <ele>813.8</ele>
        <time>2020-08-13T00:45:04Z</time>
      </trkpt>
      <trkpt lat="42.710703" lon="1.835453">
        <ele>805.8</ele>
        <time>2020-08-13T00:45:06Z</time>
      </trkpt>
      <trkpt lat="42.709243" lon="1.835894">
        <ele>778.8</ele>
        <time>2020-08-13T00:45:16Z</time>
      </trkpt>
      <trkpt lat="42.707318" lon="1.836364">
        <ele>793.6</ele>
        <time>2020-08-13T00:45:39Z</time>
      </trkpt>
      <trkpt lat="42.707297" lon="1.836295">
        <ele>793.6</ele>
        <time>2020-08-13T00:45:40Z</time>
      </trkpt>
      <trkpt lat="42.70726" lon="1.83624">
        <ele>793.6</ele>
        <time>2020-08-13T00:45:40Z</time>
      </trkpt>
      <trkpt lat="42.707212" lon="1.836206">
        <ele>793.6</ele>
        <time>2020-08-13T00:45:41Z</time>
      </trkpt>
      <trkpt lat="42.707158" lon="1.836197">
        <ele>793.6</ele>
        <time>2020-08-13T00:45:41Z</time>
      </trkpt>
      <trkpt lat="42.707104" lon="1.836214">
        <ele>793.6</ele>
        <time>2020-08-13T00:45:41Z</time>
      </trkpt>
      <trkpt lat="42.707059" lon="1.836255">
        <ele>793.6</ele>
        <time>2020-08-13T00:45:42Z</time>
      </trkpt>
      <trkpt lat="42.707027" lon="1.836315">
        <ele>793.6</ele>
        <time>2020-08-13T00:45:42Z</time>
      </trkpt>
      <trkpt lat="42.707011" lon="1.836386">
        <ele>793.6</ele>
        <time>2020-08-13T00:45:43Z</time>
      </trkpt>
      <trkpt lat="42.707016" lon="1.83646">
        <ele>793.6</ele>
        <time>2020-08-13T00:45:43Z</time>
      </trkpt>
      <trkpt lat="42.706809" lon="1.836516">
        <ele>793.6</ele>
        <time>2020-08-13T00:45:44Z</time>
      </trkpt>
      <trkpt lat="42.706282" lon="1.836751">
        <ele>806.4</ele>
        <time>2020-08-13T00:45:49Z</time>
      </trkpt>
      <trkpt lat="42.70608" lon="1.836796">
        <ele>806.4</ele>
        <time>2020-08-13T00:45:50Z</time>
      </trkpt>
      <trkpt lat="42.705822" lon="1.83678">
        <ele>818.0</ele>
        <time>2020-08-13T00:45:52Z</time>
      </trkpt>
      <trkpt lat="42.705238" lon="1.836603">
        <ele>805.4</ele>
        <time>2020-08-13T00:45:57Z</time>
      </trkpt>
      <trkpt lat="42.705139" lon="1.836542">
        <ele>805.4</ele>
        <time>2020-08-13T00:45:57Z</time>
      </trkpt>
      <trkpt lat="42.704701" lon="1.836151">
        <ele>818.2</ele>
        <time>2020-08-13T00:46:01Z</time>
      </trkpt>
      <trkpt lat="42.703988" lon="1.835575">
        <ele>816.8</ele>
        <time>2020-08-13T00:46:07Z</time>
      </trkpt>
      <trkpt lat="42.703383" lon="1.835121">
        <ele>816.8</ele>
        <time>2020-08-13T00:46:12Z</time>
      </trkpt>
      <trkpt lat="42.702664" lon="1.834906">
        <ele>815.6</ele>
        <time>2020-08-13T00:46:18Z</time>
      </trkpt>
      <trkpt lat="42.701197" lon="1.834394">
        <ele>834.6</ele>
        <time>2020-08-13T00:46:29Z</time>
      </trkpt>
      <trkpt lat="42.700567" lon="1.834198">
        <ele>838.0</ele>
        <time>2020-08-13T00:46:33Z</time>
      </trkpt>
      <trkpt lat="42.700036" lon="1.834268">
        <ele>838.0</ele>
        <time>2020-08-13T00:46:37Z</time>
      </trkpt>
      <trkpt lat="42.699424" lon="1.83439">
        <ele>839.2</ele>
        <time>2020-08-13T00:46:42Z</time>
      </trkpt>
      <trkpt lat="42.698825" lon="1.83465">
        <ele>839.8</ele>
        <time>2020-08-13T00:46:46Z</time>
      </trkpt>
      <trkpt lat="42.698465" lon="1.83469">
        <ele>839.8</ele>
        <time>2020-08-13T00:46:49Z</time>
      </trkpt>
      <trkpt lat="42.697268" lon="1.834583">
        <ele>845.0</ele>
        <time>2020-08-13T00:46:58Z</time>
      </trkpt>
      <trkpt lat="42.697038" lon="1.834538">
        <ele>845.0</ele>
        <time>2020-08-13T00:46:59Z</time>
      </trkpt>
      <trkpt lat="42.69545" lon="1.833732">
        <ele>852.4</ele>
        <time>2020-08-13T00:47:12Z</time>
      </trkpt>
      <trkpt lat="42.69486" lon="1.833413">
        <ele>864.0</ele>
        <time>2020-08-13T00:47:16Z</time>
      </trkpt>
      <trkpt lat="42.693477" lon="1.832275">
        <ele>862.0</ele>
        <time>2020-08-13T00:47:28Z</time>
      </trkpt>
      <trkpt lat="42.692461" lon="1.831367">
        <ele>891.8</ele>
        <time>2020-08-13T00:47:37Z</time>
      </trkpt>
      <trkpt lat="42.692257" lon="1.831142">
        <ele>891.8</ele>
        <time>2020-08-13T00:47:39Z</time>
      </trkpt>
      <trkpt lat="42.692114" lon="1.83086">
        <ele>891.8</ele>
        <time>2020-08-13T00:47:41Z</time>
      </trkpt>
      <trkpt lat="42.692039" lon="1.830487">
        <ele>896.4</ele>
        <time>2020-08-13T00:47:43Z</time>
      </trkpt>
      <trkpt lat="42.692022" lon="1.829763">
        <ele>907.2</ele>
        <time>2020-08-13T00:47:47Z</time>
      </trkpt>
      <trkpt lat="42.692035" lon="1.82945">
        <ele>907.2</ele>
        <time>2020-08-13T00:47:49Z</time>
      </trkpt>
      <trkpt lat="42.692206" lon="1.828673">
        <ele>921.8</ele>
        <time>2020-08-13T00:47:53Z</time>
      </trkpt>
      <trkpt lat="42.692563" lon="1.82774">
        <ele>892.4</ele>
        <time>2020-08-13T00:47:59Z</time>
      </trkpt>
      <trkpt lat="42.692613" lon="1.827565">
        <ele>892.4</ele>
        <time>2020-08-13T00:48:00Z</time>
      </trkpt>
      <trkpt lat="42.692636" lon="1.827415">
        <ele>895.8</ele>
        <time>2020-08-13T00:48:01Z</time>
      </trkpt>
      <trkpt lat="42.692635" lon="1.827273">
        <ele>895.8</ele>
        <time>2020-08-13T00:48:02Z</time>
      </trkpt>
      <trkpt lat="42.692608" lon="1.827139">
        <ele>895.8</ele>
        <time>2020-08-13T00:48:02Z</time>
      </trkpt>
      <trkpt lat="42.692559" lon="1.827014">
        <ele>895.8</ele>
        <time>2020-08-13T00:48:03Z</time>
      </trkpt>
      <trkpt lat="42.69248" lon="1.826911">
        <ele>914.8</ele>
        <time>2020-08-13T00:48:05Z</time>
      </trkpt>
      <trkpt lat="42.691836" lon="1.82634">
        <ele>908.2</ele>
        <time>2020-08-13T00:48:10Z</time>
      </trkpt>
      <trkpt lat="42.691771" lon="1.826241">
        <ele>908.2</ele>
        <time>2020-08-13T00:48:11Z</time>
      </trkpt>
      <trkpt lat="42.691698" lon="1.826003">
        <ele>908.2</ele>
        <time>2020-08-13T00:48:12Z</time>
      </trkpt>
      <trkpt lat="42.691687" lon="1.825565">
        <ele>929.0</ele>
        <time>2020-08-13T00:48:15Z</time>
      </trkpt>
      <trkpt lat="42.691637" lon="1.825437">
        <ele>927.0</ele>
        <time>2020-08-13T00:48:16Z</time>
      </trkpt>
      <trkpt lat="42.691564" lon="1.825333">
        <ele>927.0</ele>
        <time>2020-08-13T00:48:17Z</time>
      </trkpt>
      <trkpt lat="42.691474" lon="1.825272">
        <ele>927.0</ele>
        <time>2020-08-13T00:48:17Z</time>
      </trkpt>
      <trkpt lat="42.691318" lon="1.825229">
        <ele>927.0</ele>
        <time>2020-08-13T00:48:18Z</time>
      </trkpt>
      <trkpt lat="42.691061" lon="1.825201">
        <ele>927.0</ele>
        <time>2020-08-13T00:48:20Z</time>
      </trkpt>
      <trkpt lat="42.690634" lon="1.825197">
        <ele>923.8</ele>
        <time>2020-08-13T00:48:23Z</time>
      </trkpt>
      <trkpt lat="42.689822" lon="1.824937">
        <ele>947.0</ele>
        <time>2020-08-13T00:48:30Z</time>
      </trkpt>
      <trkpt lat="42.688623" lon="1.824336">
        <ele>939.6</ele>
        <time>2020-08-13T00:48:39Z</time>
      </trkpt>
      <trkpt lat="42.6881" lon="1.824293">
        <ele>943.4</ele>
        <time>2020-08-13T00:48:43Z</time>
      </trkpt>
      <trkpt lat="42.687984" lon="1.824347">
        <ele>943.4</ele>
        <time>2020-08-13T00:48:44Z</time>
      </trkpt>
      <trkpt lat="42.687673" lon="1.824641">
        <ele>943.4</ele>
        <time>2020-08-13T00:48:46Z</time>
      </trkpt>
      <trkpt lat="42.68755" lon="1.824663">
        <ele>943.4</ele>
        <time>2020-08-13T00:48:47Z</time>
      </trkpt>
      <trkpt lat="42.687443" lon="1.824638">
        <ele>959.2</ele>
        <time>2020-08-13T00:48:49Z</time>
      </trkpt>
      <trkpt lat="42.687361" lon="1.82459">
        <ele>959.2</ele>
        <time>2020-08-13T00:48:49Z</time>
      </trkpt>
      <trkpt lat="42.687243" lon="1.824471">
        <ele>959.2</ele>
        <time>2020-08-13T00:48:50Z</time>
      </trkpt>
      <trkpt lat="42.687152" lon="1.824288">
        <ele>959.2</ele>
        <time>2020-08-13T00:48:52Z</time>
      </trkpt>
      <trkpt lat="42.687068" lon="1.824023">
        <ele>941.6</ele>
        <time>2020-08-13T00:48:53Z</time>
      </trkpt>
      <trkpt lat="42.686802" lon="1.823497">
        <ele>941.6</ele>
        <time>2020-08-13T00:48:57Z</time>
      </trkpt>
      <trkpt lat="42.686654" lon="1.823292">
        <ele>957.0</ele>
        <time>2020-08-13T00:48:59Z</time>
      </trkpt>
      <trkpt lat="42.686471" lon="1.823166">
        <ele>957.0</ele>
        <time>2020-08-13T00:49:00Z</time>
      </trkpt>
      <trkpt lat="42.686345" lon="1.823125">
        <ele>957.0</ele>
        <time>2020-08-13T00:49:01Z</time>
      </trkpt>
      <trkpt lat="42.686156" lon="1.823102">
        <ele>957.0</ele>
        <time>2020-08-13T00:49:02Z</time>
      </trkpt>
      <trkpt lat="42.686008" lon="1.823144">
        <ele>957.0</ele>
        <time>2020-08-13T00:49:04Z</time>
      </trkpt>
      <trkpt lat="42.685719" lon="1.823322">
        <ele>971.0</ele>
        <time>2020-08-13T00:49:06Z</time>
      </trkpt>
      <trkpt lat="42.685268" lon="1.823655">
        <ele>946.4</ele>
        <time>2020-08-13T00:49:10Z</time>
      </trkpt>
      <trkpt lat="42.68504" lon="1.823791">
        <ele>946.4</ele>
        <time>2020-08-13T00:49:12Z</time>
      </trkpt>
      <trkpt lat="42.684853" lon="1.823849">
        <ele>963.8</ele>
        <time>2020-08-13T00:49:14Z</time>
      </trkpt>
      <trkpt lat="42.684663" lon="1.823958">
        <ele>963.8</ele>
        <time>2020-08-13T00:49:15Z</time>
      </trkpt>
      <trkpt lat="42.684487" lon="1.824168">
        <ele>948.8</ele>
        <time>2020-08-13T00:49:17Z</time>
      </trkpt>
      <trkpt lat="42.684244" lon="1.824849">
        <ele>948.8</ele>
        <time>2020-08-13T00:49:21Z</time>
      </trkpt>
      <trkpt lat="42.683906" lon="1.825998">
        <ele>949.6</ele>
        <time>2020-08-13T00:49:28Z</time>
      </trkpt>
      <trkpt lat="42.68372" lon="1.82669">
        <ele>948.2</ele>
        <time>2020-08-13T00:49:32Z</time>
      </trkpt>
      <trkpt lat="42.683637" lon="1.826877">
        <ele>948.2</ele>
        <time>2020-08-13T00:49:33Z</time>
      </trkpt>
      <trkpt lat="42.683522" lon="1.826995">
        <ele>948.2</ele>
        <time>2020-08-13T00:49:34Z</time>
      </trkpt>
      <trkpt lat="42.683132" lon="1.827144">
        <ele>960.2</ele>
        <time>2020-08-13T00:49:37Z</time>
      </trkpt>
      <trkpt lat="42.682882" lon="1.827288">
        <ele>960.2</ele>
        <time>2020-08-13T00:49:39Z</time>
      </trkpt>
      <trkpt lat="42.682177" lon="1.827958">
        <ele>971.8</ele>
        <time>2020-08-13T00:49:45Z</time>
      </trkpt>
      <trkpt lat="42.681942" lon="1.828504">
        <ele>958.6</ele>
        <time>2020-08-13T00:49:49Z</time>
      </trkpt>
      <trkpt lat="42.681855" lon="1.828625">
        <ele>958.6</ele>
        <time>2020-08-13T00:49:50Z</time>
      </trkpt>
      <trkpt lat="42.680888" lon="1.829321">
        <ele>969.2</ele>
        <time>2020-08-13T00:49:58Z</time>
      </trkpt>
      <trkpt lat="42.680682" lon="1.829567">
        <ele>1002.0</ele>
        <time>2020-08-13T00:50:01Z</time>
      </trkpt>
      <trkpt lat="42.680544" lon="1.82982">
        <ele>1002.0</ele>
        <time>2020-08-13T00:50:02Z</time>
      </trkpt>
      <trkpt lat="42.680432" lon="1.829968">
        <ele>1002.0</ele>
        <time>2020-08-13T00:50:03Z</time>
      </trkpt>
      <trkpt lat="42.679254" lon="1.830808">
        <ele>1016.2</ele>
        <time>2020-08-13T00:50:13Z</time>
      </trkpt>
      <trkpt lat="42.678948" lon="1.831251">
        <ele>1037.0</ele>
        <time>2020-08-13T00:50:17Z</time>
      </trkpt>
      <trkpt lat="42.677992" lon="1.832998">
        <ele>1013.4</ele>
        <time>2020-08-13T00:50:28Z</time>
      </trkpt>
      <trkpt lat="42.67741" lon="1.833784">
        <ele>1025.6</ele>
        <time>2020-08-13T00:50:34Z</time>
      </trkpt>
      <trkpt lat="42.676838" lon="1.834621">
        <ele>995.6</ele>
        <time>2020-08-13T00:50:41Z</time>
      </trkpt>
      <trkpt lat="42.676457" lon="1.835004">
        <ele>988.8</ele>
        <time>2020-08-13T00:50:44Z</time>
      </trkpt>
      <trkpt lat="42.67621" lon="1.835194">
        <ele>988.8</ele>
        <time>2020-08-13T00:50:46Z</time>
      </trkpt>
      <trkpt lat="42.676048" lon="1.835266">
        <ele>988.8</ele>
        <time>2020-08-13T00:50:48Z</time>
      </trkpt>
      <trkpt lat="42.675874" lon="1.835321">
        <ele>988.8</ele>
        <time>2020-08-13T00:50:49Z</time>
      </trkpt>
      <trkpt lat="42.675646" lon="1.83531">
        <ele>1001.6</ele>
        <time>2020-08-13T00:50:51Z</time>
      </trkpt>
      <trkpt lat="42.675076" lon="1.835097">
        <ele>1001.6</ele>
        <time>2020-08-13T00:50:55Z</time>
      </trkpt>
      <trkpt lat="42.67484" lon="1.835106">
        <ele>1022.8</ele>
        <time>2020-08-13T00:50:57Z</time>
      </trkpt>
      <trkpt lat="42.674559" lon="1.835197">
        <ele>1022.8</ele>
        <time>2020-08-13T00:50:59Z</time>
      </trkpt>
      <trkpt lat="42.673796" lon="1.83579">
        <ele>1031.2</ele>
        <time>2020-08-13T00:51:06Z</time>
      </trkpt>
      <trkpt lat="42.673628" lon="1.835886">
        <ele>999.0</ele>
        <time>2020-08-13T00:51:08Z</time>
      </trkpt>
      <trkpt lat="42.673469" lon="1.835904">
        <ele>999.0</ele>
        <time>2020-08-13T00:51:09Z</time>
      </trkpt>
      <trkpt lat="42.672103" lon="1.835661">
        <ele>1028.6</ele>
        <time>2020-08-13T00:51:20Z</time>
      </trkpt>
      <trkpt lat="42.67162" lon="1.835594">
        <ele>1039.4</ele>
        <time>2020-08-13T00:51:23Z</time>
      </trkpt>
      <trkpt lat="42.671433" lon="1.835598">
        <ele>1039.4</ele>
        <time>2020-08-13T00:51:25Z</time>
      </trkpt>
      <trkpt lat="42.670957" lon="1.835697">
        <ele>1039.4</ele>
        <time>2020-08-13T00:51:28Z</time>
      </trkpt>
      <trkpt lat="42.67076" lon="1.835707">
        <ele>1040.6</ele>
        <time>2020-08-13T00:51:30Z</time>
      </trkpt>
      <trkpt lat="42.670242" lon="1.835542">
        <ele>1040.6</ele>
        <time>2020-08-13T00:51:33Z</time>
      </trkpt>
      <trkpt lat="42.669465" lon="1.835504">
        <ele>1042.6</ele>
        <time>2020-08-13T00:51:39Z</time>
      </trkpt>
      <trkpt lat="42.668698" lon="1.835335">
        <ele>1045.0</ele>
        <time>2020-08-13T00:51:45Z</time>
      </trkpt>
      <trkpt lat="42.667969" lon="1.835303">
        <ele>1041.6</ele>
        <time>2020-08-13T00:51:50Z</time>
      </trkpt>
      <trkpt lat="42.667399" lon="1.835064">
        <ele>1038.2</ele>
        <time>2020-08-13T00:51:54Z</time>
      </trkpt>
      <trkpt lat="42.667317" lon="1.835066">
        <ele>1038.2</ele>
        <time>2020-08-13T00:51:55Z</time>
      </trkpt>
      <trkpt lat="42.666675" lon="1.835224">
        <ele>1038.2</ele>
        <time>2020-08-13T00:52:00Z</time>
      </trkpt>
      <trkpt lat="42.666531" lon="1.835151">
        <ele>1044.8</ele>
        <time>2020-08-13T00:52:01Z</time>
      </trkpt>
      <trkpt lat="42.66637" lon="1.83498">
        <ele>1048.0</ele>
        <time>2020-08-13T00:52:02Z</time>
      </trkpt>
      <trkpt lat="42.666057" lon="1.834459">
        <ele>1048.0</ele>
        <time>2020-08-13T00:52:06Z</time>
      </trkpt>
      <trkpt lat="42.665884" lon="1.834244">
        <ele>1048.0</ele>
        <time>2020-08-13T00:52:08Z</time>
      </trkpt>
      <trkpt lat="42.665689" lon="1.834057">
        <ele>1071.2</ele>
        <time>2020-08-13T00:52:10Z</time>
      </trkpt>
      <trkpt lat="42.665505" lon="1.833922">
        <ele>1071.2</ele>
        <time>2020-08-13T00:52:12Z</time>
      </trkpt>
      <trkpt lat="42.665304" lon="1.833817">
        <ele>1071.2</ele>
        <time>2020-08-13T00:52:13Z</time>
      </trkpt>
      <trkpt lat="42.66511" lon="1.833759">
        <ele>1071.2</ele>
        <time>2020-08-13T00:52:15Z</time>
      </trkpt>
      <trkpt lat="42.664916" lon="1.833734">
        <ele>1074.6</ele>
        <time>2020-08-13T00:52:16Z</time>
      </trkpt>
      <trkpt lat="42.664701" lon="1.833748">
        <ele>1074.6</ele>
        <time>2020-08-13T00:52:18Z</time>
      </trkpt>
      <trkpt lat="42.664488" lon="1.833798">
        <ele>1074.6</ele>
        <time>2020-08-13T00:52:19Z</time>
      </trkpt>
      <trkpt lat="42.664273" lon="1.833884">
        <ele>1074.6</ele>
        <time>2020-08-13T00:52:21Z</time>
      </trkpt>
      <trkpt lat="42.664066" lon="1.834015">
        <ele>1077.4</ele>
        <time>2020-08-13T00:52:22Z</time>
      </trkpt>
      <trkpt lat="42.663777" lon="1.834246">
        <ele>1055.2</ele>
        <time>2020-08-13T00:52:25Z</time>
      </trkpt>
      <trkpt lat="42.663666" lon="1.834378">
        <ele>1055.2</ele>
        <time>2020-08-13T00:52:26Z</time>
      </trkpt>
      <trkpt lat="42.663605" lon="1.83453">
        <ele>1055.2</ele>
        <time>2020-08-13T00:52:27Z</time>
      </trkpt>
      <trkpt lat="42.663595" lon="1.835018">
        <ele>1053.8</ele>
        <time>2020-08-13T00:52:30Z</time>
      </trkpt>
      <trkpt lat="42.663523" lon="1.835174">
        <ele>1053.8</ele>
        <time>2020-08-13T00:52:31Z</time>
      </trkpt>
      <trkpt lat="42.663447" lon="1.83524">
        <ele>1053.8</ele>
        <time>2020-08-13T00:52:31Z</time>
      </trkpt>
      <trkpt lat="42.663128" lon="1.835364">
        <ele>1045.4</ele>
        <time>2020-08-13T00:52:34Z</time>
      </trkpt>
      <trkpt lat="42.662759" lon="1.835647">
        <ele>1045.4</ele>
        <time>2020-08-13T00:52:37Z</time>
      </trkpt>
      <trkpt lat="42.662162" lon="1.835931">
        <ele>1044.0</ele>
        <time>2020-08-13T00:52:42Z</time>
      </trkpt>
      <trkpt lat="42.661973" lon="1.836043">
        <ele>1044.0</ele>
        <time>2020-08-13T00:52:43Z</time>
      </trkpt>
      <trkpt lat="42.661335" lon="1.836499">
        <ele>1043.0</ele>
        <time>2020-08-13T00:52:48Z</time>
      </trkpt>
      <trkpt lat="42.661159" lon="1.83658">
        <ele>1043.0</ele>
        <time>2020-08-13T00:52:50Z</time>
      </trkpt>
      <trkpt lat="42.661027" lon="1.836617">
        <ele>1043.0</ele>
        <time>2020-08-13T00:52:51Z</time>
      </trkpt>
      <trkpt lat="42.660896" lon="1.836624">
        <ele>1043.0</ele>
        <time>2020-08-13T00:52:52Z</time>
      </trkpt>
      <trkpt lat="42.660397" lon="1.836569">
        <ele>1046.2</ele>
        <time>2020-08-13T00:52:55Z</time>
      </trkpt>
      <trkpt lat="42.660176" lon="1.836521">
        <ele>1046.2</ele>
        <time>2020-08-13T00:52:57Z</time>
      </trkpt>
      <trkpt lat="42.659385" lon="1.836151">
        <ele>1050.6</ele>
        <time>2020-08-13T00:53:03Z</time>
      </trkpt>
      <trkpt lat="42.658789" lon="1.835905">
        <ele>1054.6</ele>
        <time>2020-08-13T00:53:08Z</time>
      </trkpt>
      <trkpt lat="42.658521" lon="1.835807">
        <ele>1050.8</ele>
        <time>2020-08-13T00:53:10Z</time>
      </trkpt>
      <trkpt lat="42.658322" lon="1.835764">
        <ele>1054.4</ele>
        <time>2020-08-13T00:53:11Z</time>
      </trkpt>
      <trkpt lat="42.658136" lon="1.835747">
        <ele>1054.4</ele>
        <time>2020-08-13T00:53:12Z</time>
      </trkpt>
      <trkpt lat="42.656815" lon="1.835875">
        <ele>1061.4</ele>
        <time>2020-08-13T00:53:22Z</time>
      </trkpt>
      <trkpt lat="42.656688" lon="1.835858">
        <ele>1061.4</ele>
        <time>2020-08-13T00:53:23Z</time>
      </trkpt>
      <trkpt lat="42.656297" lon="1.835683">
        <ele>1065.8</ele>
        <time>2020-08-13T00:53:26Z</time>
      </trkpt>
      <trkpt lat="42.655943" lon="1.83572">
        <ele>1065.8</ele>
        <time>2020-08-13T00:53:29Z</time>
      </trkpt>
      <trkpt lat="42.655333" lon="1.835591">
        <ele>1072.4</ele>
        <time>2020-08-13T00:53:33Z</time>
      </trkpt>
      <trkpt lat="42.655216" lon="1.83553">
        <ele>1072.4</ele>
        <time>2020-08-13T00:53:34Z</time>
      </trkpt>
      <trkpt lat="42.655091" lon="1.83542">
        <ele>1072.4</ele>
        <time>2020-08-13T00:53:35Z</time>
      </trkpt>
      <trkpt lat="42.654944" lon="1.835224">
        <ele>1078.2</ele>
        <time>2020-08-13T00:53:37Z</time>
      </trkpt>
      <trkpt lat="42.654821" lon="1.835113">
        <ele>1078.2</ele>
        <time>2020-08-13T00:53:38Z</time>
      </trkpt>
      <trkpt lat="42.65465" lon="1.835022">
        <ele>1078.2</ele>
        <time>2020-08-13T00:53:39Z</time>
      </trkpt>
      <trkpt lat="42.654495" lon="1.834978">
        <ele>1077.8</ele>
        <time>2020-08-13T00:53:40Z</time>
      </trkpt>
      <trkpt lat="42.654266" lon="1.834975">
        <ele>1077.8</ele>
        <time>2020-08-13T00:53:42Z</time>
      </trkpt>
      <trkpt lat="42.653844" lon="1.835028">
        <ele>1081.8</ele>
        <time>2020-08-13T00:53:45Z</time>
      </trkpt>
      <trkpt lat="42.6537" lon="1.835028">
        <ele>1081.8</ele>
        <time>2020-08-13T00:53:46Z</time>
      </trkpt>
      <trkpt lat="42.653177" lon="1.834965">
        <ele>1081.8</ele>
        <time>2020-08-13T00:53:50Z</time>
      </trkpt>
      <trkpt lat="42.652445" lon="1.835074">
        <ele>1092.4</ele>
        <time>2020-08-13T00:53:55Z</time>
      </trkpt>
      <trkpt lat="42.650837" lon="1.834729">
        <ele>1088.2</ele>
        <time>2020-08-13T00:54:07Z</time>
      </trkpt>
      <trkpt lat="42.650546" lon="1.83462">
        <ele>1089.2</ele>
        <time>2020-08-13T00:54:09Z</time>
      </trkpt>
      <trkpt lat="42.650277" lon="1.834484">
        <ele>1089.2</ele>
        <time>2020-08-13T00:54:11Z</time>
      </trkpt>
      <trkpt lat="42.649813" lon="1.834189">
        <ele>1095.4</ele>
        <time>2020-08-13T00:54:15Z</time>
      </trkpt>
      <trkpt lat="42.649183" lon="1.833735">
        <ele>1088.4</ele>
        <time>2020-08-13T00:54:20Z</time>
      </trkpt>
      <trkpt lat="42.648027" lon="1.832965">
        <ele>1095.8</ele>
        <time>2020-08-13T00:54:30Z</time>
      </trkpt>
      <trkpt lat="42.647377" lon="1.832554">
        <ele>1101.2</ele>
        <time>2020-08-13T00:54:35Z</time>
      </trkpt>
      <trkpt lat="42.647047" lon="1.832383">
        <ele>1096.6</ele>
        <time>2020-08-13T00:54:37Z</time>
      </trkpt>
      <trkpt lat="42.646429" lon="1.832138">
        <ele>1099.8</ele>
        <time>2020-08-13T00:54:42Z</time>
      </trkpt>
      <trkpt lat="42.64582" lon="1.831984">
        <ele>1104.2</ele>
        <time>2020-08-13T00:54:47Z</time>
      </trkpt>
      <trkpt lat="42.645095" lon="1.831884">
        <ele>1104.2</ele>
        <time>2020-08-13T00:54:52Z</time>
      </trkpt>
      <trkpt lat="42.643914" lon="1.831859">
        <ele>1110.6</ele>
        <time>2020-08-13T00:55:00Z</time>
      </trkpt>
      <trkpt lat="42.642899" lon="1.83181">
        <ele>1112.4</ele>
        <time>2020-08-13T00:55:08Z</time>
      </trkpt>
      <trkpt lat="42.642643" lon="1.831767">
        <ele>1112.4</ele>
        <time>2020-08-13T00:55:10Z</time>
      </trkpt>
      <trkpt lat="42.642389" lon="1.831688">
        <ele>1118.0</ele>
        <time>2020-08-13T00:55:12Z</time>
      </trkpt>
      <trkpt lat="42.642094" lon="1.831556">
        <ele>1114.4</ele>
        <time>2020-08-13T00:55:14Z</time>
      </trkpt>
      <trkpt lat="42.641821" lon="1.831391">
        <ele>1114.4</ele>
        <time>2020-08-13T00:55:16Z</time>
      </trkpt>
      <trkpt lat="42.640406" lon="1.83041">
        <ele>1123.4</ele>
        <time>2020-08-13T00:55:28Z</time>
      </trkpt>
      <trkpt lat="42.640126" lon="1.830248">
        <ele>1123.4</ele>
        <time>2020-08-13T00:55:30Z</time>
      </trkpt>
      <trkpt lat="42.63957" lon="1.830005">
        <ele>1127.6</ele>
        <time>2020-08-13T00:55:34Z</time>
      </trkpt>
      <trkpt lat="42.639239" lon="1.8299">
        <ele>1132.8</ele>
        <time>2020-08-13T00:55:37Z</time>
      </trkpt>
      <trkpt lat="42.637455" lon="1.829587">
        <ele>1132.2</ele>
        <time>2020-08-13T00:55:50Z</time>
      </trkpt>
      <trkpt lat="42.636623" lon="1.829321">
        <ele>1133.8</ele>
        <time>2020-08-13T00:55:56Z</time>
      </trkpt>
      <trkpt lat="42.636246" lon="1.829225">
        <ele>1133.8</ele>
        <time>2020-08-13T00:55:59Z</time>
      </trkpt>
      <trkpt lat="42.635431" lon="1.828929">
        <ele>1136.8</ele>
        <time>2020-08-13T00:56:05Z</time>
      </trkpt>
      <trkpt lat="42.635066" lon="1.828742">
        <ele>1136.8</ele>
        <time>2020-08-13T00:56:08Z</time>
      </trkpt>
      <trkpt lat="42.633548" lon="1.827777">
        <ele>1148.4</ele>
        <time>2020-08-13T00:56:20Z</time>
      </trkpt>
      <trkpt lat="42.632875" lon="1.827159">
        <ele>1156.4</ele>
        <time>2020-08-13T00:56:26Z</time>
      </trkpt>
      <trkpt lat="42.632687" lon="1.826957">
        <ele>1156.4</ele>
        <time>2020-08-13T00:56:28Z</time>
      </trkpt>
      <trkpt lat="42.632513" lon="1.826731">
        <ele>1156.4</ele>
        <time>2020-08-13T00:56:29Z</time>
      </trkpt>
      <trkpt lat="42.63216" lon="1.826213">
        <ele>1161.4</ele>
        <time>2020-08-13T00:56:33Z</time>
      </trkpt>
      <trkpt lat="42.632039" lon="1.826076">
        <ele>1161.4</ele>
        <time>2020-08-13T00:56:34Z</time>
      </trkpt>
      <trkpt lat="42.631854" lon="1.825924">
        <ele>1161.4</ele>
        <time>2020-08-13T00:56:36Z</time>
      </trkpt>
      <trkpt lat="42.631672" lon="1.825823">
        <ele>1170.8</ele>
        <time>2020-08-13T00:56:37Z</time>
      </trkpt>
      <trkpt lat="42.631597" lon="1.825796">
        <ele>1164.0</ele>
        <time>2020-08-13T00:56:38Z</time>
      </trkpt>
      <trkpt lat="42.631258" lon="1.825821">
        <ele>1164.0</ele>
        <time>2020-08-13T00:56:41Z</time>
      </trkpt>
      <trkpt lat="42.630603" lon="1.825688">
        <ele>1161.2</ele>
        <time>2020-08-13T00:56:45Z</time>
      </trkpt>
      <trkpt lat="42.630365" lon="1.825682">
        <ele>1161.2</ele>
        <time>2020-08-13T00:56:47Z</time>
      </trkpt>
      <trkpt lat="42.630223" lon="1.825715">
        <ele>1161.2</ele>
        <time>2020-08-13T00:56:48Z</time>
      </trkpt>
      <trkpt lat="42.629706" lon="1.825947">
        <ele>1168.6</ele>
        <time>2020-08-13T00:56:52Z</time>
      </trkpt>
      <trkpt lat="42.629337" lon="1.825938">
        <ele>1168.6</ele>
        <time>2020-08-13T00:56:55Z</time>
      </trkpt>
      <trkpt lat="42.628879" lon="1.825871">
        <ele>1173.0</ele>
        <time>2020-08-13T00:56:58Z</time>
      </trkpt>
      <trkpt lat="42.62795" lon="1.825889">
        <ele>1185.2</ele>
        <time>2020-08-13T00:57:05Z</time>
      </trkpt>
      <trkpt lat="42.627803" lon="1.825857">
        <ele>1185.2</ele>
        <time>2020-08-13T00:57:06Z</time>
      </trkpt>
      <trkpt lat="42.627638" lon="1.825778">
        <ele>1172.0</ele>
        <time>2020-08-13T00:57:08Z</time>
      </trkpt>
      <trkpt lat="42.627483" lon="1.825659">
        <ele>1183.4</ele>
        <time>2020-08-13T00:57:09Z</time>
      </trkpt>
      <trkpt lat="42.626935" lon="1.825031">
        <ele>1183.4</ele>
        <time>2020-08-13T00:57:14Z</time>
      </trkpt>
      <trkpt lat="42.626522" lon="1.824679">
        <ele>1183.4</ele>
        <time>2020-08-13T00:57:18Z</time>
      </trkpt>
      <trkpt lat="42.62631" lon="1.824584">
        <ele>1183.4</ele>
        <time>2020-08-13T00:57:19Z</time>
      </trkpt>
      <trkpt lat="42.624599" lon="1.824073">
        <ele>1195.8</ele>
        <time>2020-08-13T00:57:32Z</time>
      </trkpt>
      <trkpt lat="42.624412" lon="1.823974">
        <ele>1195.8</ele>
        <time>2020-08-13T00:57:34Z</time>
      </trkpt>
      <trkpt lat="42.624195" lon="1.823823">
        <ele>1195.8</ele>
        <time>2020-08-13T00:57:35Z</time>
      </trkpt>
      <trkpt lat="42.623977" lon="1.823643">
        <ele>1210.4</ele>
        <time>2020-08-13T00:57:38Z</time>
      </trkpt>
      <trkpt lat="42.623895" lon="1.823543">
        <ele>1210.4</ele>
        <time>2020-08-13T00:57:38Z</time>
      </trkpt>
      <trkpt lat="42.623751" lon="1.823313">
        <ele>1201.2</ele>
        <time>2020-08-13T00:57:40Z</time>
      </trkpt>
      <trkpt lat="42.623454" lon="1.822718">
        <ele>1201.2</ele>
        <time>2020-08-13T00:57:44Z</time>
      </trkpt>
      <trkpt lat="42.623232" lon="1.822477">
        <ele>1202.6</ele>
        <time>2020-08-13T00:57:46Z</time>
      </trkpt>
      <trkpt lat="42.623125" lon="1.822401">
        <ele>1202.6</ele>
        <time>2020-08-13T00:57:47Z</time>
      </trkpt>
      <trkpt lat="42.622982" lon="1.82234">
        <ele>1202.6</ele>
        <time>2020-08-13T00:57:48Z</time>
      </trkpt>
      <trkpt lat="42.622837" lon="1.822321">
        <ele>1202.6</ele>
        <time>2020-08-13T00:57:49Z</time>
      </trkpt>
      <trkpt lat="42.622314" lon="1.822335">
        <ele>1202.4</ele>
        <time>2020-08-13T00:57:53Z</time>
      </trkpt>
      <trkpt lat="42.621963" lon="1.822317">
        <ele>1202.4</ele>
        <time>2020-08-13T00:57:55Z</time>
      </trkpt>
      <trkpt lat="42.621793" lon="1.822329">
        <ele>1202.4</ele>
        <time>2020-08-13T00:57:57Z</time>
      </trkpt>
      <trkpt lat="42.621312" lon="1.822438">
        <ele>1206.0</ele>
        <time>2020-08-13T00:58:00Z</time>
      </trkpt>
      <trkpt lat="42.62112" lon="1.822394">
        <ele>1206.0</ele>
        <time>2020-08-13T00:58:02Z</time>
      </trkpt>
      <trkpt lat="42.620964" lon="1.822316">
        <ele>1206.0</ele>
        <time>2020-08-13T00:58:03Z</time>
      </trkpt>
      <trkpt lat="42.620812" lon="1.822166">
        <ele>1216.2</ele>
        <time>2020-08-13T00:58:04Z</time>
      </trkpt>
      <trkpt lat="42.620217" lon="1.821435">
        <ele>1211.4</ele>
        <time>2020-08-13T00:58:10Z</time>
      </trkpt>
      <trkpt lat="42.619758" lon="1.820939">
        <ele>1220.8</ele>
        <time>2020-08-13T00:58:14Z</time>
      </trkpt>
      <trkpt lat="42.619386" lon="1.820597">
        <ele>1216.6</ele>
        <time>2020-08-13T00:58:18Z</time>
      </trkpt>
      <trkpt lat="42.619211" lon="1.82049">
        <ele>1216.6</ele>
        <time>2020-08-13T00:58:19Z</time>
      </trkpt>
      <trkpt lat="42.61902" lon="1.820411">
        <ele>1223.6</ele>
        <time>2020-08-13T00:58:21Z</time>
      </trkpt>
      <trkpt lat="42.618487" lon="1.820337">
        <ele>1223.6</ele>
        <time>2020-08-13T00:58:25Z</time>
      </trkpt>
      <trkpt lat="42.617982" lon="1.820138">
        <ele>1229.8</ele>
        <time>2020-08-13T00:58:28Z</time>
      </trkpt>
      <trkpt lat="42.617753" lon="1.820092">
        <ele>1229.8</ele>
        <time>2020-08-13T00:58:30Z</time>
      </trkpt>
      <trkpt lat="42.616989" lon="1.820118">
        <ele>1237.0</ele>
        <time>2020-08-13T00:58:36Z</time>
      </trkpt>
      <trkpt lat="42.616656" lon="1.82008">
        <ele>1242.8</ele>
        <time>2020-08-13T00:58:38Z</time>
      </trkpt>
      <trkpt lat="42.616418" lon="1.820014">
        <ele>1242.8</ele>
        <time>2020-08-13T00:58:40Z</time>
      </trkpt>
      <trkpt lat="42.61619" lon="1.819883">
        <ele>1234.6</ele>
        <time>2020-08-13T00:58:42Z</time>
      </trkpt>
      <trkpt lat="42.61606" lon="1.819831">
        <ele>1234.6</ele>
        <time>2020-08-13T00:58:43Z</time>
      </trkpt>
      <trkpt lat="42.615748" lon="1.819762">
        <ele>1238.2</ele>
        <time>2020-08-13T00:58:45Z</time>
      </trkpt>
      <trkpt lat="42.615594" lon="1.819706">
        <ele>1238.2</ele>
        <time>2020-08-13T00:58:46Z</time>
      </trkpt>
      <trkpt lat="42.615427" lon="1.819619">
        <ele>1238.2</ele>
        <time>2020-08-13T00:58:47Z</time>
      </trkpt>
      <trkpt lat="42.615181" lon="1.819447">
        <ele>1238.2</ele>
        <time>2020-08-13T00:58:49Z</time>
      </trkpt>
      <trkpt lat="42.614947" lon="1.819219">
        <ele>1245.4</ele>
        <time>2020-08-13T00:58:52Z</time>
      </trkpt>
      <trkpt lat="42.614636" lon="1.818858">
        <ele>1237.6</ele>
        <time>2020-08-13T00:58:55Z</time>
      </trkpt>
      <trkpt lat="42.614464" lon="1.818686">
        <ele>1237.6</ele>
        <time>2020-08-13T00:58:56Z</time>
      </trkpt>
      <trkpt lat="42.614168" lon="1.818491">
        <ele>1237.6</ele>
        <time>2020-08-13T00:58:59Z</time>
      </trkpt>
      <trkpt lat="42.614002" lon="1.818442">
        <ele>1240.4</ele>
        <time>2020-08-13T00:59:00Z</time>
      </trkpt>
      <trkpt lat="42.613867" lon="1.818426">
        <ele>1240.4</ele>
        <time>2020-08-13T00:59:01Z</time>
      </trkpt>
      <trkpt lat="42.613542" lon="1.818463">
        <ele>1240.4</ele>
        <time>2020-08-13T00:59:03Z</time>
      </trkpt>
      <trkpt lat="42.613029" lon="1.818598">
        <ele>1243.4</ele>
        <time>2020-08-13T00:59:07Z</time>
      </trkpt>
      <trkpt lat="42.612619" lon="1.81863">
        <ele>1243.4</ele>
        <time>2020-08-13T00:59:10Z</time>
      </trkpt>
      <trkpt lat="42.612456" lon="1.818609">
        <ele>1249.2</ele>
        <time>2020-08-13T00:59:11Z</time>
      </trkpt>
      <trkpt lat="42.612152" lon="1.818468">
        <ele>1249.2</ele>
        <time>2020-08-13T00:59:14Z</time>
      </trkpt>
      <trkpt lat="42.611515" lon="1.817923">
        <ele>1250.8</ele>
        <time>2020-08-13T00:59:19Z</time>
      </trkpt>
      <trkpt lat="42.61071" lon="1.817351">
        <ele>1255.8</ele>
        <time>2020-08-13T00:59:26Z</time>
      </trkpt>
      <trkpt lat="42.61061" lon="1.817292">
        <ele>1255.8</ele>
        <time>2020-08-13T00:59:26Z</time>
      </trkpt>
      <trkpt lat="42.610515" lon="1.817271">
        <ele>1255.8</ele>
        <time>2020-08-13T00:59:27Z</time>
      </trkpt>
      <trkpt lat="42.610426" lon="1.817282">
        <ele>1255.8</ele>
        <time>2020-08-13T00:59:28Z</time>
      </trkpt>
      <trkpt lat="42.610336" lon="1.817318">
        <ele>1255.8</ele>
        <time>2020-08-13T00:59:28Z</time>
      </trkpt>
      <trkpt lat="42.610259" lon="1.817388">
        <ele>1255.8</ele>
        <time>2020-08-13T00:59:29Z</time>
      </trkpt>
      <trkpt lat="42.61021" lon="1.817467">
        <ele>1255.8</ele>
        <time>2020-08-13T00:59:30Z</time>
      </trkpt>
      <trkpt lat="42.610179" lon="1.81759">
        <ele>1263.2</ele>
        <time>2020-08-13T00:59:31Z</time>
      </trkpt>
      <trkpt lat="42.610169" lon="1.817743">
        <ele>1263.2</ele>
        <time>2020-08-13T00:59:31Z</time>
      </trkpt>
      <trkpt lat="42.610224" lon="1.818014">
        <ele>1263.2</ele>
        <time>2020-08-13T00:59:33Z</time>
      </trkpt>
      <trkpt lat="42.610375" lon="1.818253">
        <ele>1263.2</ele>
        <time>2020-08-13T00:59:35Z</time>
      </trkpt>
      <trkpt lat="42.610596" lon="1.818533">
        <ele>1281.0</ele>
        <time>2020-08-13T00:59:37Z</time>
      </trkpt>
      <trkpt lat="42.610714" lon="1.818649">
        <ele>1281.0</ele>
        <time>2020-08-13T00:59:38Z</time>
      </trkpt>
      <trkpt lat="42.61107" lon="1.818888">
        <ele>1261.4</ele>
        <time>2020-08-13T00:59:41Z</time>
      </trkpt>
      <trkpt lat="42.61161" lon="1.819292">
        <ele>1284.8</ele>
        <time>2020-08-13T00:59:46Z</time>
      </trkpt>
      <trkpt lat="42.611759" lon="1.819366">
        <ele>1267.2</ele>
        <time>2020-08-13T00:59:48Z</time>
      </trkpt>
      <trkpt lat="42.611899" lon="1.819412">
        <ele>1267.2</ele>
        <time>2020-08-13T00:59:49Z</time>
      </trkpt>
      <trkpt lat="42.612165" lon="1.81944">
        <ele>1267.2</ele>
        <time>2020-08-13T00:59:51Z</time>
      </trkpt>
      <trkpt lat="42.612316" lon="1.819503">
        <ele>1267.2</ele>
        <time>2020-08-13T00:59:52Z</time>
      </trkpt>
      <trkpt lat="42.612679" lon="1.819736">
        <ele>1256.6</ele>
        <time>2020-08-13T00:59:55Z</time>
      </trkpt>
      <trkpt lat="42.612808" lon="1.819789">
        <ele>1256.6</ele>
        <time>2020-08-13T00:59:56Z</time>
      </trkpt>
      <trkpt lat="42.613235" lon="1.819815">
        <ele>1256.6</ele>
        <time>2020-08-13T00:59:59Z</time>
      </trkpt>
      <trkpt lat="42.613316" lon="1.819883">
        <ele>1256.6</ele>
        <time>2020-08-13T01:00:00Z</time>
      </trkpt>
      <trkpt lat="42.613372" lon="1.819971">
        <ele>1250.8</ele>
        <time>2020-08-13T01:00:00Z</time>
      </trkpt>
      <trkpt lat="42.6134" lon="1.820073">
        <ele>1269.4</ele>
        <time>2020-08-13T01:00:02Z</time>
      </trkpt>
      <trkpt lat="42.613374" lon="1.820231">
        <ele>1269.4</ele>
        <time>2020-08-13T01:00:02Z</time>
      </trkpt>
      <trkpt lat="42.613325" lon="1.820308">
        <ele>1280.2</ele>
        <time>2020-08-13T01:00:03Z</time>
      </trkpt>
      <trkpt lat="42.613255" lon="1.820366">
        <ele>1280.2</ele>
        <time>2020-08-13T01:00:04Z</time>
      </trkpt>
      <trkpt lat="42.613178" lon="1.820394">
        <ele>1280.2</ele>
        <time>2020-08-13T01:00:05Z</time>
      </trkpt>
      <trkpt lat="42.613061" lon="1.820358">
        <ele>1280.2</ele>
        <time>2020-08-13T01:00:05Z</time>
      </trkpt>
      <trkpt lat="42.612658" lon="1.820076">
        <ele>1280.2</ele>
        <time>2020-08-13T01:00:09Z</time>
      </trkpt>
      <trkpt lat="42.612254" lon="1.819764">
        <ele>1267.2</ele>
        <time>2020-08-13T01:00:12Z</time>
      </trkpt>
      <trkpt lat="42.612182" lon="1.819736">
        <ele>1267.2</ele>
        <time>2020-08-13T01:00:13Z</time>
      </trkpt>
      <trkpt lat="42.611486" lon="1.819636">
        <ele>1284.8</ele>
        <time>2020-08-13T01:00:18Z</time>
      </trkpt>
      <trkpt lat="42.611299" lon="1.819559">
        <ele>1284.8</ele>
        <time>2020-08-13T01:00:19Z</time>
      </trkpt>
      <trkpt lat="42.611133" lon="1.819422">
        <ele>1284.8</ele>
        <time>2020-08-13T01:00:21Z</time>
      </trkpt>
      <trkpt lat="42.610863" lon="1.819254">
        <ele>1284.8</ele>
        <time>2020-08-13T01:00:23Z</time>
      </trkpt>
      <trkpt lat="42.610462" lon="1.819089">
        <ele>1281.0</ele>
        <time>2020-08-13T01:00:26Z</time>
      </trkpt>
      <trkpt lat="42.610285" lon="1.818973">
        <ele>1281.0</ele>
        <time>2020-08-13T01:00:27Z</time>
      </trkpt>
      <trkpt lat="42.610112" lon="1.818733">
        <ele>1281.0</ele>
        <time>2020-08-13T01:00:29Z</time>
      </trkpt>
      <trkpt lat="42.60987" lon="1.818482">
        <ele>1310.8</ele>
        <time>2020-08-13T01:00:32Z</time>
      </trkpt>
      <trkpt lat="42.609723" lon="1.818384">
        <ele>1310.8</ele>
        <time>2020-08-13T01:00:33Z</time>
      </trkpt>
      <trkpt lat="42.609355" lon="1.818272">
        <ele>1282.4</ele>
        <time>2020-08-13T01:00:37Z</time>
      </trkpt>
      <trkpt lat="42.60927" lon="1.818215">
        <ele>1282.4</ele>
        <time>2020-08-13T01:00:37Z</time>
      </trkpt>
      <trkpt lat="42.608999" lon="1.817842">
        <ele>1307.2</ele>
        <time>2020-08-13T01:00:41Z</time>
      </trkpt>
      <trkpt lat="42.608904" lon="1.817737">
        <ele>1307.2</ele>
        <time>2020-08-13T01:00:41Z</time>
      </trkpt>
      <trkpt lat="42.608757" lon="1.817631">
        <ele>1307.2</ele>
        <time>2020-08-13T01:00:43Z</time>
      </trkpt>
      <trkpt lat="42.608613" lon="1.817558">
        <ele>1307.2</ele>
        <time>2020-08-13T01:00:44Z</time>
      </trkpt>
      <trkpt lat="42.607767" lon="1.81689">
        <ele>1305.4</ele>
        <time>2020-08-13T01:00:51Z</time>
      </trkpt>
      <trkpt lat="42.60708" lon="1.816194">
        <ele>1311.2</ele>
        <time>2020-08-13T01:00:57Z</time>
      </trkpt>
      <trkpt lat="42.606722" lon="1.815789">
        <ele>1297.2</ele>
        <time>2020-08-13T01:01:01Z</time>
      </trkpt>
      <trkpt lat="42.606423" lon="1.815575">
        <ele>1325.8</ele>
        <time>2020-08-13T01:01:04Z</time>
      </trkpt>
      <trkpt lat="42.606142" lon="1.815246">
        <ele>1325.8</ele>
        <time>2020-08-13T01:01:06Z</time>
      </trkpt>
      <trkpt lat="42.606099" lon="1.81517">
        <ele>1325.8</ele>
        <time>2020-08-13T01:01:07Z</time>
      </trkpt>
      <trkpt lat="42.606029" lon="1.814762">
        <ele>1309.0</ele>
        <time>2020-08-13T01:01:09Z</time>
      </trkpt>
      <trkpt lat="42.605991" lon="1.814634">
        <ele>1309.0</ele>
        <time>2020-08-13T01:01:10Z</time>
      </trkpt>
      <trkpt lat="42.605808" lon="1.814234">
        <ele>1335.0</ele>
        <time>2020-08-13T01:01:13Z</time>
      </trkpt>
      <trkpt lat="42.605733" lon="1.814147">
        <ele>1311.8</ele>
        <time>2020-08-13T01:01:15Z</time>
      </trkpt>
      <trkpt lat="42.605335" lon="1.813792">
        <ele>1311.8</ele>
        <time>2020-08-13T01:01:18Z</time>
      </trkpt>
      <trkpt lat="42.604956" lon="1.813641">
        <ele>1334.6</ele>
        <time>2020-08-13T01:01:22Z</time>
      </trkpt>
      <trkpt lat="42.604164" lon="1.813015">
        <ele>1330.2</ele>
        <time>2020-08-13T01:01:28Z</time>
      </trkpt>
      <trkpt lat="42.603458" lon="1.812517">
        <ele>1330.2</ele>
        <time>2020-08-13T01:01:34Z</time>
      </trkpt>
      <trkpt lat="42.602995" lon="1.812292">
        <ele>1327.8</ele>
        <time>2020-08-13T01:01:38Z</time>
      </trkpt>
      <trkpt lat="42.602479" lon="1.812075">
        <ele>1341.8</ele>
        <time>2020-08-13T01:01:42Z</time>
      </trkpt>
      <trkpt lat="42.600761" lon="1.81144">
        <ele>1353.0</ele>
        <time>2020-08-13T01:01:55Z</time>
      </trkpt>
      <trkpt lat="42.600381" lon="1.811279">
        <ele>1353.0</ele>
        <time>2020-08-13T01:01:58Z</time>
      </trkpt>
      <trkpt lat="42.600022" lon="1.811081">
        <ele>1353.0</ele>
        <time>2020-08-13T01:02:00Z</time>
      </trkpt>
      <trkpt lat="42.599693" lon="1.810862">
        <ele>1372.2</ele>
        <time>2020-08-13T01:02:03Z</time>
      </trkpt>
      <trkpt lat="42.599407" lon="1.810625">
        <ele>1355.2</ele>
        <time>2020-08-13T01:02:06Z</time>
      </trkpt>
      <trkpt lat="42.599114" lon="1.810358">
        <ele>1371.0</ele>
        <time>2020-08-13T01:02:09Z</time>
      </trkpt>
      <trkpt lat="42.598727" lon="1.80996">
        <ele>1357.2</ele>
        <time>2020-08-13T01:02:12Z</time>
      </trkpt>
      <trkpt lat="42.598139" lon="1.809426">
        <ele>1371.6</ele>
        <time>2020-08-13T01:02:18Z</time>
      </trkpt>
      <trkpt lat="42.597489" lon="1.80894">
        <ele>1371.6</ele>
        <time>2020-08-13T01:02:23Z</time>
      </trkpt>
      <trkpt lat="42.596973" lon="1.808622">
        <ele>1371.6</ele>
        <time>2020-08-13T01:02:27Z</time>
      </trkpt>
      <trkpt lat="42.596526" lon="1.808376">
        <ele>1391.8</ele>
        <time>2020-08-13T01:02:31Z</time>
      </trkpt>
      <trkpt lat="42.595932" lon="1.807968">
        <ele>1381.0</ele>
        <time>2020-08-13T01:02:36Z</time>
      </trkpt>
      <trkpt lat="42.5952" lon="1.807369">
        <ele>1390.2</ele>
        <time>2020-08-13T01:02:42Z</time>
      </trkpt>
      <trkpt lat="42.594993" lon="1.807174">
        <ele>1408.6</ele>
        <time>2020-08-13T01:02:44Z</time>
      </trkpt>
      <trkpt lat="42.594683" lon="1.806791">
        <ele>1408.6</ele>
        <time>2020-08-13T01:02:47Z</time>
      </trkpt>
      <trkpt lat="42.594588" lon="1.806634">
        <ele>1400.4</ele>
        <time>2020-08-13T01:02:48Z</time>
      </trkpt>
      <trkpt lat="42.59439" lon="1.806156">
        <ele>1400.4</ele>
        <time>2020-08-13T01:02:51Z</time>
      </trkpt>
      <trkpt lat="42.594034" lon="1.804993">
        <ele>1407.4</ele>
        <time>2020-08-13T01:02:58Z</time>
      </trkpt>
      <trkpt lat="42.593889" lon="1.804642">
        <ele>1407.4</ele>
        <time>2020-08-13T01:03:00Z</time>
      </trkpt>
      <trkpt lat="42.59377" lon="1.804446">
        <ele>1407.4</ele>
        <time>2020-08-13T01:03:02Z</time>
      </trkpt>
      <trkpt lat="42.593629" lon="1.804296">
        <ele>1407.4</ele>
        <time>2020-08-13T01:03:03Z</time>
      </trkpt>
      <trkpt lat="42.593489" lon="1.804226">
        <ele>1407.4</ele>
        <time>2020-08-13T01:03:04Z</time>
      </trkpt>
      <trkpt lat="42.592941" lon="1.804099">
        <ele>1407.8</ele>
        <time>2020-08-13T01:03:08Z</time>
      </trkpt>
      <trkpt lat="42.592727" lon="1.80395">
        <ele>1407.8</ele>
        <time>2020-08-13T01:03:10Z</time>
      </trkpt>
      <trkpt lat="42.59239" lon="1.80366">
        <ele>1411.8</ele>
        <time>2020-08-13T01:03:13Z</time>
      </trkpt>
      <trkpt lat="42.591558" lon="1.803418">
        <ele>1428.8</ele>
        <time>2020-08-13T01:03:19Z</time>
      </trkpt>
      <trkpt lat="42.591194" lon="1.803103">
        <ele>1421.4</ele>
        <time>2020-08-13T01:03:22Z</time>
      </trkpt>
      <trkpt lat="42.590857" lon="1.802502">
        <ele>1421.4</ele>
        <time>2020-08-13T01:03:26Z</time>
      </trkpt>
      <trkpt lat="42.590537" lon="1.801638">
        <ele>1430.0</ele>
        <time>2020-08-13T01:03:31Z</time>
      </trkpt>
      <trkpt lat="42.590262" lon="1.800759">
        <ele>1425.8</ele>
        <time>2020-08-13T01:03:37Z</time>
      </trkpt>
      <trkpt lat="42.590079" lon="1.80032">
        <ele>1425.8</ele>
        <time>2020-08-13T01:03:39Z</time>
      </trkpt>
      <trkpt lat="42.589847" lon="1.799932">
        <ele>1429.6</ele>
        <time>2020-08-13T01:03:42Z</time>
      </trkpt>
      <trkpt lat="42.589711" lon="1.799753">
        <ele>1429.6</ele>
        <time>2020-08-13T01:03:43Z</time>
      </trkpt>
      <trkpt lat="42.589475" lon="1.799461">
        <ele>1429.6</ele>
        <time>2020-08-13T01:03:46Z</time>
      </trkpt>
      <trkpt lat="42.589122" lon="1.799069">
        <ele>1433.6</ele>
        <time>2020-08-13T01:03:49Z</time>
      </trkpt>
      <trkpt lat="42.589047" lon="1.798892">
        <ele>1433.6</ele>
        <time>2020-08-13T01:04:02Z</time>
      </trkpt>
      <trkpt lat="42.589064" lon="1.798828">
        <ele>1433.6</ele>
        <time>2020-08-13T01:04:03Z</time>
      </trkpt>
      <trkpt lat="42.589064" lon="1.798749">
        <ele>1433.6</ele>
        <time>2020-08-13T01:04:03Z</time>
      </trkpt>
      <trkpt lat="42.589018" lon="1.798637">
        <ele>1433.6</ele>
        <time>2020-08-13T01:04:04Z</time>
      </trkpt>
      <trkpt lat="42.588963" lon="1.798591">
        <ele>1433.6</ele>
        <time>2020-08-13T01:04:05Z</time>
      </trkpt>
      <trkpt lat="42.588869" lon="1.798588">
        <ele>1433.6</ele>
        <time>2020-08-13T01:04:06Z</time>
      </trkpt>
      <trkpt lat="42.588799" lon="1.798485">
        <ele>1433.6</ele>
        <time>2020-08-13T01:04:07Z</time>
      </trkpt>
      <trkpt lat="42.588587" lon="1.798267">
        <ele>1431.6</ele>
        <time>2020-08-13T01:04:09Z</time>
      </trkpt>
      <trkpt lat="42.588345" lon="1.798106">
        <ele>1431.6</ele>
        <time>2020-08-13T01:04:12Z</time>
      </trkpt>
      <trkpt lat="42.588239" lon="1.798013">
        <ele>1437.0</ele>
        <time>2020-08-13T01:04:13Z</time>
      </trkpt>
      <trkpt lat="42.588129" lon="1.797865">
        <ele>1437.0</ele>
        <time>2020-08-13T01:04:14Z</time>
      </trkpt>
      <trkpt lat="42.587823" lon="1.797291">
        <ele>1436.8</ele>
        <time>2020-08-13T01:04:19Z</time>
      </trkpt>
      <trkpt lat="42.587698" lon="1.797116">
        <ele>1436.8</ele>
        <time>2020-08-13T01:04:21Z</time>
      </trkpt>
      <trkpt lat="42.58731" lon="1.796654">
        <ele>1452.2</ele>
        <time>2020-08-13T01:04:25Z</time>
      </trkpt>
      <trkpt lat="42.586816" lon="1.795989">
        <ele>1452.2</ele>
        <time>2020-08-13T01:04:32Z</time>
      </trkpt>
      <trkpt lat="42.586699" lon="1.795877">
        <ele>1452.2</ele>
        <time>2020-08-13T01:04:33Z</time>
      </trkpt>
      <trkpt lat="42.58657" lon="1.795797">
        <ele>1491.4</ele>
        <time>2020-08-13T01:04:37Z</time>
      </trkpt>
      <trkpt lat="42.586413" lon="1.795727">
        <ele>1491.4</ele>
        <time>2020-08-13T01:04:38Z</time>
      </trkpt>
      <trkpt lat="42.586182" lon="1.795665">
        <ele>1491.4</ele>
        <time>2020-08-13T01:04:40Z</time>
      </trkpt>
      <trkpt lat="42.585965" lon="1.795677">
        <ele>1491.4</ele>
        <time>2020-08-13T01:04:42Z</time>
      </trkpt>
      <trkpt lat="42.585556" lon="1.795791">
        <ele>1503.0</ele>
        <time>2020-08-13T01:04:46Z</time>
      </trkpt>
      <trkpt lat="42.584736" lon="1.796076">
        <ele>1483.0</ele>
        <time>2020-08-13T01:04:54Z</time>
      </trkpt>
      <trkpt lat="42.584404" lon="1.79611">
        <ele>1483.0</ele>
        <time>2020-08-13T01:04:57Z</time>
      </trkpt>
      <trkpt lat="42.584204" lon="1.796082">
        <ele>1483.0</ele>
        <time>2020-08-13T01:04:59Z</time>
      </trkpt>
      <trkpt lat="42.583524" lon="1.795903">
        <ele>1490.0</ele>
        <time>2020-08-13T01:05:05Z</time>
      </trkpt>
      <trkpt lat="42.581883" lon="1.795413">
        <ele>1505.8</ele>
        <time>2020-08-13T01:05:21Z</time>
      </trkpt>
      <trkpt lat="42.58152" lon="1.795235">
        <ele>1507.8</ele>
        <time>2020-08-13T01:05:24Z</time>
      </trkpt>
      <trkpt lat="42.581012" lon="1.794825">
        <ele>1519.4</ele>
        <time>2020-08-13T01:05:31Z</time>
      </trkpt>
      <trkpt lat="42.580746" lon="1.794628">
        <ele>1515.6</ele>
        <time>2020-08-13T01:05:33Z</time>
      </trkpt>
      <trkpt lat="42.580516" lon="1.794486">
        <ele>1515.6</ele>
        <time>2020-08-13T01:05:35Z</time>
      </trkpt>
      <trkpt lat="42.57965" lon="1.794168">
        <ele>1524.4</ele>
        <time>2020-08-13T01:05:41Z</time>
      </trkpt>
      <trkpt lat="42.579299" lon="1.793974">
        <ele>1523.6</ele>
        <time>2020-08-13T01:05:44Z</time>
      </trkpt>
      <trkpt lat="42.578966" lon="1.793698">
        <ele>1530.6</ele>
        <time>2020-08-13T01:05:47Z</time>
      </trkpt>
      <trkpt lat="42.578214" lon="1.792919">
        <ele>1538.0</ele>
        <time>2020-08-13T01:05:53Z</time>
      </trkpt>
      <trkpt lat="42.578085" lon="1.792807">
        <ele>1538.0</ele>
        <time>2020-08-13T01:05:55Z</time>
      </trkpt>
      <trkpt lat="42.577918" lon="1.792695">
        <ele>1538.0</ele>
        <time>2020-08-13T01:05:56Z</time>
      </trkpt>
      <trkpt lat="42.57773" lon="1.792598">
        <ele>1538.0</ele>
        <time>2020-08-13T01:05:57Z</time>
      </trkpt>
      <trkpt lat="42.577495" lon="1.792507">
        <ele>1559.8</ele>
        <time>2020-08-13T01:06:00Z</time>
      </trkpt>
      <trkpt lat="42.577203" lon="1.792429">
        <ele>1551.4</ele>
        <time>2020-08-13T01:06:02Z</time>
      </trkpt>
      <trkpt lat="42.576325" lon="1.79245">
        <ele>1576.8</ele>
        <time>2020-08-13T01:06:08Z</time>
      </trkpt>
      <trkpt lat="42.574584" lon="1.79288">
        <ele>1660.0</ele>
        <time>2020-08-13T01:06:22Z</time>
      </trkpt>
      <trkpt lat="42.571909" lon="1.794256">
        <ele>1839.0</ele>
        <time>2020-08-13T01:06:45Z</time>
      </trkpt>
      <trkpt lat="42.570002" lon="1.795593">
        <ele>1826.2</ele>
        <time>2020-08-13T01:07:00Z</time>
      </trkpt>
      <trkpt lat="42.556209" lon="1.808685">
        <ele>1857.0</ele>
        <time>2020-08-13T01:09:00Z</time>
      </trkpt>
      <trkpt lat="42.541224" lon="1.823447">
        <ele>1579.4</ele>
        <time>2020-08-13T01:11:13Z</time>
      </trkpt>
      <trkpt lat="42.541133" lon="1.823515">
        <ele>1579.4</ele>
        <time>2020-08-13T01:11:14Z</time>
      </trkpt>
      <trkpt lat="42.540622" lon="1.823785">
        <ele>1565.8</ele>
        <time>2020-08-13T01:11:18Z</time>
      </trkpt>
      <trkpt lat="42.540188" lon="1.823816">
        <ele>1565.8</ele>
        <time>2020-08-13T01:11:21Z</time>
      </trkpt>
      <trkpt lat="42.539889" lon="1.823817">
        <ele>1560.2</ele>
        <time>2020-08-13T01:11:24Z</time>
      </trkpt>
      <trkpt lat="42.53952" lon="1.823847">
        <ele>1560.2</ele>
        <time>2020-08-13T01:11:28Z</time>
      </trkpt>
      <trkpt lat="42.539081" lon="1.823915">
        <ele>1559.0</ele>
        <time>2020-08-13T01:11:32Z</time>
      </trkpt>
      <trkpt lat="42.538836" lon="1.82401">
        <ele>1559.0</ele>
        <time>2020-08-13T01:11:35Z</time>
      </trkpt>
      <trkpt lat="42.538544" lon="1.824195">
        <ele>1561.4</ele>
        <time>2020-08-13T01:11:38Z</time>
      </trkpt>
      <trkpt lat="42.538359" lon="1.824273">
        <ele>1561.4</ele>
        <time>2020-08-13T01:11:40Z</time>
      </trkpt>
      <trkpt lat="42.538137" lon="1.824332">
        <ele>1562.8</ele>
        <time>2020-08-13T01:11:41Z</time>
      </trkpt>
      <trkpt lat="42.537912" lon="1.824301">
        <ele>1562.8</ele>
        <time>2020-08-13T01:11:43Z</time>
      </trkpt>
      <trkpt lat="42.537634" lon="1.824204">
        <ele>1562.8</ele>
        <time>2020-08-13T01:11:45Z</time>
      </trkpt>
      <trkpt lat="42.536787" lon="1.82366">
        <ele>1556.8</ele>
        <time>2020-08-13T01:11:52Z</time>
      </trkpt>
      <trkpt lat="42.53625" lon="1.82337">
        <ele>1560.2</ele>
        <time>2020-08-13T01:11:56Z</time>
      </trkpt>
      <trkpt lat="42.535526" lon="1.823119">
        <ele>1551.4</ele>
        <time>2020-08-13T01:12:02Z</time>
      </trkpt>
      <trkpt lat="42.534523" lon="1.822585">
        <ele>1554.2</ele>
        <time>2020-08-13T01:12:10Z</time>
      </trkpt>
      <trkpt lat="42.53363" lon="1.822263">
        <ele>1547.6</ele>
        <time>2020-08-13T01:12:16Z</time>
      </trkpt>
      <trkpt lat="42.533367" lon="1.822149">
        <ele>1547.6</ele>
        <time>2020-08-13T01:12:19Z</time>
      </trkpt>
      <trkpt lat="42.532777" lon="1.821725">
        <ele>1548.8</ele>
        <time>2020-08-13T01:12:23Z</time>
      </trkpt>
      <trkpt lat="42.532578" lon="1.821618">
        <ele>1543.6</ele>
        <time>2020-08-13T01:12:25Z</time>
      </trkpt>
      <trkpt lat="42.532339" lon="1.821543">
        <ele>1547.0</ele>
        <time>2020-08-13T01:12:27Z</time>
      </trkpt>
      <trkpt lat="42.532067" lon="1.821517">
        <ele>1547.0</ele>
        <time>2020-08-13T01:12:29Z</time>
      </trkpt>
      <trkpt lat="42.531754" lon="1.821549">
        <ele>1547.0</ele>
        <time>2020-08-13T01:12:31Z</time>
      </trkpt>
      <trkpt lat="42.531485" lon="1.821641">
        <ele>1553.6</ele>
        <time>2020-08-13T01:12:33Z</time>
      </trkpt>
      <trkpt lat="42.531238" lon="1.821778">
        <ele>1548.2</ele>
        <time>2020-08-13T01:12:35Z</time>
      </trkpt>
      <trkpt lat="42.530902" lon="1.822065">
        <ele>1548.2</ele>
        <time>2020-08-13T01:12:38Z</time>
      </trkpt>
      <trkpt lat="42.52921" lon="1.823826">
        <ele>1533.4</ele>
        <time>2020-08-13T01:12:54Z</time>
      </trkpt>
      <trkpt lat="42.528969" lon="1.824024">
        <ele>1524.2</ele>
        <time>2020-08-13T01:12:56Z</time>
      </trkpt>
      <trkpt lat="42.528758" lon="1.824134">
        <ele>1524.2</ele>
        <time>2020-08-13T01:12:58Z</time>
      </trkpt>
      <trkpt lat="42.528532" lon="1.824211">
        <ele>1529.4</ele>
        <time>2020-08-13T01:12:59Z</time>
      </trkpt>
      <trkpt lat="42.528308" lon="1.824238">
        <ele>1521.8</ele>
        <time>2020-08-13T01:13:01Z</time>
      </trkpt>
      <trkpt lat="42.527903" lon="1.824216">
        <ele>1521.8</ele>
        <time>2020-08-13T01:13:04Z</time>
      </trkpt>
      <trkpt lat="42.527454" lon="1.8241">
        <ele>1515.2</ele>
        <time>2020-08-13T01:13:08Z</time>
      </trkpt>
      <trkpt lat="42.527262" lon="1.823982">
        <ele>1515.2</ele>
        <time>2020-08-13T01:13:09Z</time>
      </trkpt>
      <trkpt lat="42.526934" lon="1.823644">
        <ele>1515.2</ele>
        <time>2020-08-13T01:13:12Z</time>
      </trkpt>
      <trkpt lat="42.526695" lon="1.82343">
        <ele>1515.2</ele>
        <time>2020-08-13T01:13:14Z</time>
      </trkpt>
      <trkpt lat="42.526477" lon="1.823323">
        <ele>1512.4</ele>
        <time>2020-08-13T01:13:16Z</time>
      </trkpt>
      <trkpt lat="42.526129" lon="1.823189">
        <ele>1512.4</ele>
        <time>2020-08-13T01:13:19Z</time>
      </trkpt>
      <trkpt lat="42.525392" lon="1.822968">
        <ele>1510.6</ele>
        <time>2020-08-13T01:13:24Z</time>
      </trkpt>
      <trkpt lat="42.524487" lon="1.822732">
        <ele>1509.6</ele>
        <time>2020-08-13T01:13:31Z</time>
      </trkpt>
      <trkpt lat="42.524122" lon="1.822691">
        <ele>1508.6</ele>
        <time>2020-08-13T01:13:34Z</time>
      </trkpt>
      <trkpt lat="42.523953" lon="1.822703">
        <ele>1508.6</ele>
        <time>2020-08-13T01:13:35Z</time>
      </trkpt>
      <trkpt lat="42.522976" lon="1.822854">
        <ele>1508.0</ele>
        <time>2020-08-13T01:13:42Z</time>
      </trkpt>
      <trkpt lat="42.522711" lon="1.822856">
        <ele>1508.0</ele>
        <time>2020-08-13T01:13:44Z</time>
      </trkpt>
      <trkpt lat="42.52248" lon="1.822817">
        <ele>1509.2</ele>
        <time>2020-08-13T01:13:46Z</time>
      </trkpt>
      <trkpt lat="42.521881" lon="1.822644">
        <ele>1509.2</ele>
        <time>2020-08-13T01:13:50Z</time>
      </trkpt>
      <trkpt lat="42.521519" lon="1.822443">
        <ele>1505.0</ele>
        <time>2020-08-13T01:13:53Z</time>
      </trkpt>
      <trkpt lat="42.521187" lon="1.822323">
        <ele>1505.0</ele>
        <time>2020-08-13T01:13:56Z</time>
      </trkpt>
      <trkpt lat="42.521013" lon="1.822277">
        <ele>1505.0</ele>
        <time>2020-08-13T01:13:57Z</time>
      </trkpt>
      <trkpt lat="42.52055" lon="1.822274">
        <ele>1504.6</ele>
        <time>2020-08-13T01:14:00Z</time>
      </trkpt>
      <trkpt lat="42.52023" lon="1.822351">
        <ele>1504.6</ele>
        <time>2020-08-13T01:14:03Z</time>
      </trkpt>
      <trkpt lat="42.519012" lon="1.822738">
        <ele>1506.8</ele>
        <time>2020-08-13T01:14:12Z</time>
      </trkpt>
      <trkpt lat="42.518829" lon="1.822774">
        <ele>1506.8</ele>
        <time>2020-08-13T01:14:13Z</time>
      </trkpt>
      <trkpt lat="42.518225" lon="1.822737">
        <ele>1503.6</ele>
        <time>2020-08-13T01:14:18Z</time>
      </trkpt>
      <trkpt lat="42.517498" lon="1.823016">
        <ele>1503.2</ele>
        <time>2020-08-13T01:14:23Z</time>
      </trkpt>
      <trkpt lat="42.517358" lon="1.823127">
        <ele>1503.2</ele>
        <time>2020-08-13T01:14:24Z</time>
      </trkpt>
      <trkpt lat="42.517026" lon="1.823524">
        <ele>1493.6</ele>
        <time>2020-08-13T01:14:28Z</time>
      </trkpt>
      <trkpt lat="42.516862" lon="1.823684">
        <ele>1493.6</ele>
        <time>2020-08-13T01:14:29Z</time>
      </trkpt>
      <trkpt lat="42.516694" lon="1.823808">
        <ele>1493.6</ele>
        <time>2020-08-13T01:14:31Z</time>
      </trkpt>
      <trkpt lat="42.515927" lon="1.824298">
        <ele>1492.0</ele>
        <time>2020-08-13T01:14:37Z</time>
      </trkpt>
      <trkpt lat="42.515779" lon="1.824358">
        <ele>1486.4</ele>
        <time>2020-08-13T01:14:38Z</time>
      </trkpt>
      <trkpt lat="42.515649" lon="1.824393">
        <ele>1486.4</ele>
        <time>2020-08-13T01:14:39Z</time>
      </trkpt>
      <trkpt lat="42.515338" lon="1.824374">
        <ele>1486.4</ele>
        <time>2020-08-13T01:14:41Z</time>
      </trkpt>
      <trkpt lat="42.51474" lon="1.824279">
        <ele>1478.6</ele>
        <time>2020-08-13T01:14:46Z</time>
      </trkpt>
      <trkpt lat="42.514438" lon="1.824165">
        <ele>1488.2</ele>
        <time>2020-08-13T01:14:48Z</time>
      </trkpt>
      <trkpt lat="42.514343" lon="1.824161">
        <ele>1488.2</ele>
        <time>2020-08-13T01:14:49Z</time>
      </trkpt>
      <trkpt lat="42.51427" lon="1.824182">
        <ele>1478.6</ele>
        <time>2020-08-13T01:14:50Z</time>
      </trkpt>
      <trkpt lat="42.514136" lon="1.824271">
        <ele>1474.0</ele>
        <time>2020-08-13T01:14:51Z</time>
      </trkpt>
      <trkpt lat="42.51371" lon="1.824644">
        <ele>1474.0</ele>
        <time>2020-08-13T01:14:55Z</time>
      </trkpt>
      <trkpt lat="42.513591" lon="1.824802">
        <ele>1474.0</ele>
        <time>2020-08-13T01:14:56Z</time>
      </trkpt>
      <trkpt lat="42.513442" lon="1.825211">
        <ele>1469.8</ele>
        <time>2020-08-13T01:14:58Z</time>
      </trkpt>
      <trkpt lat="42.51339" lon="1.825304">
        <ele>1469.8</ele>
        <time>2020-08-13T01:14:59Z</time>
      </trkpt>
      <trkpt lat="42.513295" lon="1.825425">
        <ele>1466.4</ele>
        <time>2020-08-13T01:15:00Z</time>
      </trkpt>
      <trkpt lat="42.512711" lon="1.825957">
        <ele>1462.2</ele>
        <time>2020-08-13T01:15:05Z</time>
      </trkpt>
      <trkpt lat="42.512592" lon="1.82609">
        <ele>1462.2</ele>
        <time>2020-08-13T01:15:06Z</time>
      </trkpt>
      <trkpt lat="42.512499" lon="1.826246">
        <ele>1460.8</ele>
        <time>2020-08-13T01:15:07Z</time>
      </trkpt>
      <trkpt lat="42.512433" lon="1.82644">
        <ele>1460.8</ele>
        <time>2020-08-13T01:15:09Z</time>
      </trkpt>
      <trkpt lat="42.512392" lon="1.826886">
        <ele>1455.2</ele>
        <time>2020-08-13T01:15:11Z</time>
      </trkpt>
      <trkpt lat="42.512334" lon="1.827041">
        <ele>1455.2</ele>
        <time>2020-08-13T01:15:12Z</time>
      </trkpt>
      <trkpt lat="42.512197" lon="1.827223">
        <ele>1455.2</ele>
        <time>2020-08-13T01:15:13Z</time>
      </trkpt>
      <trkpt lat="42.511753" lon="1.827585">
        <ele>1455.0</ele>
        <time>2020-08-13T01:15:17Z</time>
      </trkpt>
      <trkpt lat="42.510691" lon="1.82852">
        <ele>1459.0</ele>
        <time>2020-08-13T01:15:26Z</time>
      </trkpt>
      <trkpt lat="42.510274" lon="1.829123">
        <ele>1459.0</ele>
        <time>2020-08-13T01:15:31Z</time>
      </trkpt>
      <trkpt lat="42.509832" lon="1.830111">
        <ele>1445.2</ele>
        <time>2020-08-13T01:15:37Z</time>
      </trkpt>
      <trkpt lat="42.509548" lon="1.830545">
        <ele>1445.2</ele>
        <time>2020-08-13T01:15:40Z</time>
      </trkpt>
      <trkpt lat="42.508703" lon="1.831542">
        <ele>1440.6</ele>
        <time>2020-08-13T01:15:49Z</time>
      </trkpt>
      <trkpt lat="42.508237" lon="1.831886">
        <ele>1437.2</ele>
        <time>2020-08-13T01:15:53Z</time>
      </trkpt>
      <trkpt lat="42.506795" lon="1.833078">
        <ele>1433.2</ele>
        <time>2020-08-13T01:16:05Z</time>
      </trkpt>
      <trkpt lat="42.506377" lon="1.833439">
        <ele>1433.4</ele>
        <time>2020-08-13T01:16:09Z</time>
      </trkpt>
      <trkpt lat="42.506082" lon="1.83376">
        <ele>1433.4</ele>
        <time>2020-08-13T01:16:11Z</time>
      </trkpt>
      <trkpt lat="42.505011" lon="1.834518">
        <ele>1435.2</ele>
        <time>2020-08-13T01:16:20Z</time>
      </trkpt>
      <trkpt lat="42.504243" lon="1.835131">
        <ele>1436.4</ele>
        <time>2020-08-13T01:16:27Z</time>
      </trkpt>
      <trkpt lat="42.50387" lon="1.835452">
        <ele>1434.4</ele>
        <time>2020-08-13T01:16:30Z</time>
      </trkpt>
      <trkpt lat="42.503715" lon="1.835607">
        <ele>1434.4</ele>
        <time>2020-08-13T01:16:31Z</time>
      </trkpt>
      <trkpt lat="42.503506" lon="1.835857">
        <ele>1434.8</ele>
        <time>2020-08-13T01:16:34Z</time>
      </trkpt>
      <trkpt lat="42.503373" lon="1.835928">
        <ele>1434.8</ele>
        <time>2020-08-13T01:16:35Z</time>
      </trkpt>
      <trkpt lat="42.503295" lon="1.835908">
        <ele>1431.2</ele>
        <time>2020-08-13T01:16:35Z</time>
      </trkpt>
      <trkpt lat="42.503102" lon="1.83579">
        <ele>1442.6</ele>
        <time>2020-08-13T01:16:37Z</time>
      </trkpt>
      <trkpt lat="42.502938" lon="1.835792">
        <ele>1442.6</ele>
        <time>2020-08-13T01:16:38Z</time>
      </trkpt>
      <trkpt lat="42.502318" lon="1.836099">
        <ele>1437.0</ele>
        <time>2020-08-13T01:16:43Z</time>
      </trkpt>
      <trkpt lat="42.502026" lon="1.836395">
        <ele>1437.0</ele>
        <time>2020-08-13T01:16:46Z</time>
      </trkpt>
      <trkpt lat="42.501214" lon="1.836988">
        <ele>1429.2</ele>
        <time>2020-08-13T01:16:52Z</time>
      </trkpt>
      <trkpt lat="42.500923" lon="1.837242">
        <ele>1429.2</ele>
        <time>2020-08-13T01:16:55Z</time>
      </trkpt>
      <trkpt lat="42.499299" lon="1.838723">
        <ele>1419.8</ele>
        <time>2020-08-13T01:17:09Z</time>
      </trkpt>
      <trkpt lat="42.499098" lon="1.838942">
        <ele>1440.8</ele>
        <time>2020-08-13T01:17:12Z</time>
      </trkpt>
      <trkpt lat="42.499024" lon="1.839121">
        <ele>1440.8</ele>
        <time>2020-08-13T01:17:13Z</time>
      </trkpt>
      <trkpt lat="42.498968" lon="1.839358">
        <ele>1421.6</ele>
        <time>2020-08-13T01:17:15Z</time>
      </trkpt>
      <trkpt lat="42.49887" lon="1.840571">
        <ele>1410.4</ele>
        <time>2020-08-13T01:17:21Z</time>
      </trkpt>
      <trkpt lat="42.498834" lon="1.840869">
        <ele>1402.8</ele>
        <time>2020-08-13T01:17:23Z</time>
      </trkpt>
      <trkpt lat="42.498787" lon="1.841106">
        <ele>1402.8</ele>
        <time>2020-08-13T01:17:24Z</time>
      </trkpt>
      <trkpt lat="42.498683" lon="1.841382">
        <ele>1402.8</ele>
        <time>2020-08-13T01:17:26Z</time>
      </trkpt>
      <trkpt lat="42.498553" lon="1.841671">
        <ele>1393.6</ele>
        <time>2020-08-13T01:17:28Z</time>
      </trkpt>
      <trkpt lat="42.498394" lon="1.841945">
        <ele>1393.6</ele>
        <time>2020-08-13T01:17:30Z</time>
      </trkpt>
      <trkpt lat="42.498017" lon="1.842363">
        <ele>1402.8</ele>
        <time>2020-08-13T01:17:34Z</time>
      </trkpt>
      <trkpt lat="42.49781" lon="1.842633">
        <ele>1392.4</ele>
        <time>2020-08-13T01:17:36Z</time>
      </trkpt>
      <trkpt lat="42.497602" lon="1.84312">
        <ele>1392.4</ele>
        <time>2020-08-13T01:17:39Z</time>
      </trkpt>
      <trkpt lat="42.497235" lon="1.844052">
        <ele>1397.0</ele>
        <time>2020-08-13T01:17:45Z</time>
      </trkpt>
      <trkpt lat="42.497132" lon="1.844369">
        <ele>1389.8</ele>
        <time>2020-08-13T01:17:47Z</time>
      </trkpt>
      <trkpt lat="42.496902" lon="1.8452">
        <ele>1382.4</ele>
        <time>2020-08-13T01:17:51Z</time>
      </trkpt>
      <trkpt lat="42.496754" lon="1.845635">
        <ele>1382.4</ele>
        <time>2020-08-13T01:17:54Z</time>
      </trkpt>
      <trkpt lat="42.496099" lon="1.846855">
        <ele>1371.6</ele>
        <time>2020-08-13T01:18:02Z</time>
      </trkpt>
      <trkpt lat="42.496029" lon="1.847025">
        <ele>1371.6</ele>
        <time>2020-08-13T01:18:03Z</time>
      </trkpt>
      <trkpt lat="42.496024" lon="1.847146">
        <ele>1371.6</ele>
        <time>2020-08-13T01:18:04Z</time>
      </trkpt>
      <trkpt lat="42.496062" lon="1.84735">
        <ele>1371.6</ele>
        <time>2020-08-13T01:18:05Z</time>
      </trkpt>
      <trkpt lat="42.496056" lon="1.847496">
        <ele>1371.6</ele>
        <time>2020-08-13T01:18:06Z</time>
      </trkpt>
      <trkpt lat="42.496032" lon="1.847563">
        <ele>1370.2</ele>
        <time>2020-08-13T01:18:06Z</time>
      </trkpt>
      <trkpt lat="42.495976" lon="1.847627">
        <ele>1370.2</ele>
        <time>2020-08-13T01:18:07Z</time>
      </trkpt>
      <trkpt lat="42.495817" lon="1.847735">
        <ele>1367.2</ele>
        <time>2020-08-13T01:18:08Z</time>
      </trkpt>
      <trkpt lat="42.494996" lon="1.8481">
        <ele>1370.8</ele>
        <time>2020-08-13T01:18:14Z</time>
      </trkpt>
      <trkpt lat="42.494865" lon="1.848193">
        <ele>1370.8</ele>
        <time>2020-08-13T01:18:16Z</time>
      </trkpt>
      <trkpt lat="42.494735" lon="1.848333">
        <ele>1370.8</ele>
        <time>2020-08-13T01:18:17Z</time>
      </trkpt>
      <trkpt lat="42.493807" lon="1.84954">
        <ele>1356.6</ele>
        <time>2020-08-13T01:18:26Z</time>
      </trkpt>
      <trkpt lat="42.49303" lon="1.850675">
        <ele>1349.8</ele>
        <time>2020-08-13T01:18:35Z</time>
      </trkpt>
      <trkpt lat="42.492799" lon="1.851045">
        <ele>1348.6</ele>
        <time>2020-08-13T01:18:37Z</time>
      </trkpt>
      <trkpt lat="42.492379" lon="1.851812">
        <ele>1347.4</ele>
        <time>2020-08-13T01:18:42Z</time>
      </trkpt>
      <trkpt lat="42.492288" lon="1.851952">
        <ele>1347.4</ele>
        <time>2020-08-13T01:18:43Z</time>
      </trkpt>
      <trkpt lat="42.492112" lon="1.852118">
        <ele>1347.4</ele>
        <time>2020-08-13T01:18:45Z</time>
      </trkpt>
      <trkpt lat="42.490673" lon="1.853253">
        <ele>1349.0</ele>
        <time>2020-08-13T01:18:57Z</time>
      </trkpt>
      <trkpt lat="42.490516" lon="1.8534">
        <ele>1342.2</ele>
        <time>2020-08-13T01:18:59Z</time>
      </trkpt>
      <trkpt lat="42.490388" lon="1.85356">
        <ele>1342.2</ele>
        <time>2020-08-13T01:19:00Z</time>
      </trkpt>
      <trkpt lat="42.489738" lon="1.854501">
        <ele>1338.2</ele>
        <time>2020-08-13T01:19:07Z</time>
      </trkpt>
      <trkpt lat="42.489081" lon="1.855488">
        <ele>1336.0</ele>
        <time>2020-08-13T01:19:14Z</time>
      </trkpt>
      <trkpt lat="42.488353" lon="1.856315">
        <ele>1333.8</ele>
        <time>2020-08-13T01:19:21Z</time>
      </trkpt>
      <trkpt lat="42.488238" lon="1.85639">
        <ele>1332.0</ele>
        <time>2020-08-13T01:19:22Z</time>
      </trkpt>
      <trkpt lat="42.488083" lon="1.856458">
        <ele>1332.0</ele>
        <time>2020-08-13T01:19:23Z</time>
      </trkpt>
      <trkpt lat="42.486827" lon="1.856761">
        <ele>1325.8</ele>
        <time>2020-08-13T01:19:33Z</time>
      </trkpt>
      <trkpt lat="42.486719" lon="1.856835">
        <ele>1325.8</ele>
        <time>2020-08-13T01:19:34Z</time>
      </trkpt>
      <trkpt lat="42.486661" lon="1.856948">
        <ele>1324.2</ele>
        <time>2020-08-13T01:19:34Z</time>
      </trkpt>
      <trkpt lat="42.486622" lon="1.857069">
        <ele>1324.2</ele>
        <time>2020-08-13T01:19:35Z</time>
      </trkpt>
      <trkpt lat="42.48658" lon="1.857332">
        <ele>1324.2</ele>
        <time>2020-08-13T01:19:37Z</time>
      </trkpt>
      <trkpt lat="42.486554" lon="1.857624">
        <ele>1318.2</ele>
        <time>2020-08-13T01:19:38Z</time>
      </trkpt>
      <trkpt lat="42.486497" lon="1.857871">
        <ele>1318.2</ele>
        <time>2020-08-13T01:19:40Z</time>
      </trkpt>
      <trkpt lat="42.486446" lon="1.858008">
        <ele>1318.2</ele>
        <time>2020-08-13T01:19:40Z</time>
      </trkpt>
      <trkpt lat="42.486311" lon="1.858222">
        <ele>1318.2</ele>
        <time>2020-08-13T01:19:42Z</time>
      </trkpt>
      <trkpt lat="42.485686" lon="1.858839">
        <ele>1312.8</ele>
        <time>2020-08-13T01:19:48Z</time>
      </trkpt>
      <trkpt lat="42.484795" lon="1.859541">
        <ele>1311.6</ele>
        <time>2020-08-13T01:19:55Z</time>
      </trkpt>
      <trkpt lat="42.484656" lon="1.859632">
        <ele>1311.6</ele>
        <time>2020-08-13T01:19:56Z</time>
      </trkpt>
      <trkpt lat="42.484164" lon="1.859884">
        <ele>1312.6</ele>
        <time>2020-08-13T01:20:00Z</time>
      </trkpt>
      <trkpt lat="42.48399" lon="1.859991">
        <ele>1312.6</ele>
        <time>2020-08-13T01:20:02Z</time>
      </trkpt>
      <trkpt lat="42.483848" lon="1.860112">
        <ele>1308.8</ele>
        <time>2020-08-13T01:20:03Z</time>
      </trkpt>
      <trkpt lat="42.483135" lon="1.861038">
        <ele>1304.0</ele>
        <time>2020-08-13T01:20:10Z</time>
      </trkpt>
      <trkpt lat="42.482621" lon="1.861551">
        <ele>1304.0</ele>
        <time>2020-08-13T01:20:15Z</time>
      </trkpt>
      <trkpt lat="42.482508" lon="1.86172">
        <ele>1304.0</ele>
        <time>2020-08-13T01:20:16Z</time>
      </trkpt>
      <trkpt lat="42.482109" lon="1.862554">
        <ele>1300.6</ele>
        <time>2020-08-13T01:20:21Z</time>
      </trkpt>
      <trkpt lat="42.481963" lon="1.862701">
        <ele>1300.6</ele>
        <time>2020-08-13T01:20:23Z</time>
      </trkpt>
      <trkpt lat="42.481774" lon="1.862799">
        <ele>1300.6</ele>
        <time>2020-08-13T01:20:24Z</time>
      </trkpt>
      <trkpt lat="42.481169" lon="1.863025">
        <ele>1292.6</ele>
        <time>2020-08-13T01:20:29Z</time>
      </trkpt>
      <trkpt lat="42.480903" lon="1.863193">
        <ele>1292.6</ele>
        <time>2020-08-13T01:20:31Z</time>
      </trkpt>
      <trkpt lat="42.480454" lon="1.863526">
        <ele>1292.0</ele>
        <time>2020-08-13T01:20:35Z</time>
      </trkpt>
      <trkpt lat="42.480149" lon="1.863777">
        <ele>1292.0</ele>
        <time>2020-08-13T01:20:37Z</time>
      </trkpt>
      <trkpt lat="42.479887" lon="1.86403">
        <ele>1286.4</ele>
        <time>2020-08-13T01:20:40Z</time>
      </trkpt>
      <trkpt lat="42.479395" lon="1.864654">
        <ele>1287.2</ele>
        <time>2020-08-13T01:20:45Z</time>
      </trkpt>
      <trkpt lat="42.479193" lon="1.865047">
        <ele>1293.0</ele>
        <time>2020-08-13T01:20:47Z</time>
      </trkpt>
      <trkpt lat="42.478672" lon="1.866305">
        <ele>1286.8</ele>
        <time>2020-08-13T01:20:55Z</time>
      </trkpt>
      <trkpt lat="42.477234" lon="1.86914">
        <ele>1279.6</ele>
        <time>2020-08-13T01:21:14Z</time>
      </trkpt>
      <trkpt lat="42.477097" lon="1.8695">
        <ele>1279.2</ele>
        <time>2020-08-13T01:21:16Z</time>
      </trkpt>
      <trkpt lat="42.47691" lon="1.870285">
        <ele>1280.2</ele>
        <time>2020-08-13T01:21:21Z</time>
      </trkpt>
      <trkpt lat="42.476753" lon="1.870658">
        <ele>1280.2</ele>
        <time>2020-08-13T01:21:23Z</time>
      </trkpt>
      <trkpt lat="42.474854" lon="1.874337">
        <ele>1275.6</ele>
        <time>2020-08-13T01:21:47Z</time>
      </trkpt>
      <trkpt lat="42.474274" lon="1.875542">
        <ele>1278.6</ele>
        <time>2020-08-13T01:21:55Z</time>
      </trkpt>
      <trkpt lat="42.473969" lon="1.876233">
        <ele>1276.0</ele>
        <time>2020-08-13T01:21:59Z</time>
      </trkpt>
      <trkpt lat="42.473579" lon="1.87727">
        <ele>1279.6</ele>
        <time>2020-08-13T01:22:06Z</time>
      </trkpt>
      <trkpt lat="42.473446" lon="1.877682">
        <ele>1283.8</ele>
        <time>2020-08-13T01:22:08Z</time>
      </trkpt>
      <trkpt lat="42.473282" lon="1.87829">
        <ele>1273.4</ele>
        <time>2020-08-13T01:22:12Z</time>
      </trkpt>
      <trkpt lat="42.473148" lon="1.878668">
        <ele>1275.4</ele>
        <time>2020-08-13T01:22:14Z</time>
      </trkpt>
      <trkpt lat="42.472961" lon="1.879012">
        <ele>1275.4</ele>
        <time>2020-08-13T01:22:16Z</time>
      </trkpt>
      <trkpt lat="42.472435" lon="1.879858">
        <ele>1271.6</ele>
        <time>2020-08-13T01:22:22Z</time>
      </trkpt>
      <trkpt lat="42.471512" lon="1.881248">
        <ele>1271.6</ele>
        <time>2020-08-13T01:22:33Z</time>
      </trkpt>
      <trkpt lat="42.471321" lon="1.8815">
        <ele>1271.6</ele>
        <time>2020-08-13T01:22:35Z</time>
      </trkpt>
      <trkpt lat="42.47102" lon="1.881828">
        <ele>1277.4</ele>
        <time>2020-08-13T01:22:37Z</time>
      </trkpt>
      <trkpt lat="42.470821" lon="1.882022">
        <ele>1273.0</ele>
        <time>2020-08-13T01:22:39Z</time>
      </trkpt>
      <trkpt lat="42.470715" lon="1.882092">
        <ele>1273.0</ele>
        <time>2020-08-13T01:22:40Z</time>
      </trkpt>
      <trkpt lat="42.470514" lon="1.882184">
        <ele>1273.0</ele>
        <time>2020-08-13T01:22:42Z</time>
      </trkpt>
      <trkpt lat="42.470251" lon="1.882242">
        <ele>1273.0</ele>
        <time>2020-08-13T01:22:44Z</time>
      </trkpt>
      <trkpt lat="42.469828" lon="1.882138">
        <ele>1271.6</ele>
        <time>2020-08-13T01:22:47Z</time>
      </trkpt>
      <trkpt lat="42.469687" lon="1.882159">
        <ele>1271.6</ele>
        <time>2020-08-13T01:22:48Z</time>
      </trkpt>
      <trkpt lat="42.4696" lon="1.882205">
        <ele>1271.6</ele>
        <time>2020-08-13T01:22:48Z</time>
      </trkpt>
      <trkpt lat="42.469481" lon="1.882318">
        <ele>1271.6</ele>
        <time>2020-08-13T01:22:50Z</time>
      </trkpt>
      <trkpt lat="42.468149" lon="1.883951">
        <ele>1264.6</ele>
        <time>2020-08-13T01:23:03Z</time>
      </trkpt>
      <trkpt lat="42.46723" lon="1.885094">
        <ele>1260.0</ele>
        <time>2020-08-13T01:23:12Z</time>
      </trkpt>
      <trkpt lat="42.467056" lon="1.885352">
        <ele>1260.0</ele>
        <time>2020-08-13T01:23:14Z</time>
      </trkpt>
      <trkpt lat="42.46677" lon="1.885875">
        <ele>1259.4</ele>
        <time>2020-08-13T01:23:17Z</time>
      </trkpt>
      <trkpt lat="42.466407" lon="1.886705">
        <ele>1256.4</ele>
        <time>2020-08-13T01:23:23Z</time>
      </trkpt>
      <trkpt lat="42.465103" lon="1.890583">
        <ele>1254.2</ele>
        <time>2020-08-13T01:23:46Z</time>
      </trkpt>
      <trkpt lat="42.46504" lon="1.890877">
        <ele>1254.0</ele>
        <time>2020-08-13T01:23:49Z</time>
      </trkpt>
      <trkpt lat="42.464536" lon="1.890394">
        <ele>1250.0</ele>
        <time>2020-08-13T01:23:55Z</time>
      </trkpt>
      <trkpt lat="42.464586" lon="1.891708">
        <ele>1247.6</ele>
        <time>2020-08-13T01:24:05Z</time>
      </trkpt>
      <trkpt lat="42.464566" lon="1.891816">
        <ele>1247.6</ele>
        <time>2020-08-13T01:24:06Z</time>
      </trkpt>
      <trkpt lat="42.463988" lon="1.893625">
        <ele>1238.4</ele>
        <time>2020-08-13T01:24:21Z</time>
      </trkpt>
      <trkpt lat="42.463067" lon="1.896144">
        <ele>1233.4</ele>
        <time>2020-08-13T01:24:42Z</time>
      </trkpt>
      <trkpt lat="42.462689" lon="1.896903">
        <ele>1234.8</ele>
        <time>2020-08-13T01:24:49Z</time>
      </trkpt>
      <trkpt lat="42.462527" lon="1.896945">
        <ele>1234.8</ele>
        <time>2020-08-13T01:24:51Z</time>
      </trkpt>
      <trkpt lat="42.462376" lon="1.897061">
        <ele>1230.4</ele>
        <time>2020-08-13T01:24:53Z</time>
      </trkpt>
      <trkpt lat="42.462261" lon="1.897224">
        <ele>1230.4</ele>
        <time>2020-08-13T01:24:55Z</time>
      </trkpt>
      <trkpt lat="42.462228" lon="1.897356">
        <ele>1230.4</ele>
        <time>2020-08-13T01:24:56Z</time>
      </trkpt>
      <trkpt lat="42.462228" lon="1.897541">
        <ele>1231.6</ele>
        <time>2020-08-13T01:24:57Z</time>
      </trkpt>
      <trkpt lat="42.462178" lon="1.898021">
        <ele>1231.6</ele>
        <time>2020-08-13T01:25:01Z</time>
      </trkpt>
      <trkpt lat="42.46202" lon="1.898332">
        <ele>1231.6</ele>
        <time>2020-08-13T01:25:05Z</time>
      </trkpt>
      <trkpt lat="42.461808" lon="1.898654">
        <ele>1233.4</ele>
        <time>2020-08-13T01:25:08Z</time>
      </trkpt>
      <trkpt lat="42.461551" lon="1.898995">
        <ele>1228.4</ele>
        <time>2020-08-13T01:25:13Z</time>
      </trkpt>
      <trkpt lat="42.461207" lon="1.89933">
        <ele>1230.2</ele>
        <time>2020-08-13T01:25:17Z</time>
      </trkpt>
      <trkpt lat="42.459659" lon="1.900166">
        <ele>1229.0</ele>
        <time>2020-08-13T01:25:37Z</time>
      </trkpt>
      <trkpt lat="42.459203" lon="1.900526">
        <ele>1229.0</ele>
        <time>2020-08-13T01:25:43Z</time>
      </trkpt>
      <trkpt lat="42.457137" lon="1.902267">
        <ele>1221.2</ele>
        <time>2020-08-13T01:26:11Z</time>
      </trkpt>
      <trkpt lat="42.455348" lon="1.90397">
        <ele>1219.8</ele>
        <time>2020-08-13T01:26:36Z</time>
      </trkpt>
      <trkpt lat="42.454891" lon="1.904241">
        <ele>1217.8</ele>
        <time>2020-08-13T01:26:42Z</time>
      </trkpt>
      <trkpt lat="42.45386" lon="1.904958">
        <ele>1216.0</ele>
        <time>2020-08-13T01:26:55Z</time>
      </trkpt>
      <trkpt lat="42.453566" lon="1.905352">
        <ele>1215.8</ele>
        <time>2020-08-13T01:27:00Z</time>
      </trkpt>
      <trkpt lat="42.453169" lon="1.905959">
        <ele>1212.4</ele>
        <time>2020-08-13T01:27:07Z</time>
      </trkpt>
      <trkpt lat="42.4525" lon="1.906519">
        <ele>1212.4</ele>
        <time>2020-08-13T01:27:16Z</time>
      </trkpt>
      <trkpt lat="42.451996" lon="1.907131">
        <ele>1208.4</ele>
        <time>2020-08-13T01:27:23Z</time>
      </trkpt>
      <trkpt lat="42.451883" lon="1.907313">
        <ele>1208.4</ele>
        <time>2020-08-13T01:27:25Z</time>
      </trkpt>
      <trkpt lat="42.451218" lon="1.90822">
        <ele>1205.2</ele>
        <time>2020-08-13T01:27:36Z</time>
      </trkpt>
      <trkpt lat="42.45083" lon="1.908485">
        <ele>1203.0</ele>
        <time>2020-08-13T01:27:41Z</time>
      </trkpt>
      <trkpt lat="42.450165" lon="1.908804">
        <ele>1203.0</ele>
        <time>2020-08-13T01:27:49Z</time>
      </trkpt>
      <trkpt lat="42.449825" lon="1.909035">
        <ele>1197.6</ele>
        <time>2020-08-13T01:27:54Z</time>
      </trkpt>
      <trkpt lat="42.448763" lon="1.910094">
        <ele>1199.2</ele>
        <time>2020-08-13T01:28:09Z</time>
      </trkpt>
      <trkpt lat="42.447794" lon="1.910986">
        <ele>1197.6</ele>
        <time>2020-08-13T01:28:22Z</time>
      </trkpt>
      <trkpt lat="42.447493" lon="1.911348">
        <ele>1189.4</ele>
        <time>2020-08-13T01:28:27Z</time>
      </trkpt>
      <trkpt lat="42.447132" lon="1.911712">
        <ele>1193.0</ele>
        <time>2020-08-13T01:28:32Z</time>
      </trkpt>
      <trkpt lat="42.445768" lon="1.912989">
        <ele>1182.4</ele>
        <time>2020-08-13T01:28:51Z</time>
      </trkpt>
      <trkpt lat="42.445463" lon="1.913226">
        <ele>1182.4</ele>
        <time>2020-08-13T01:28:56Z</time>
      </trkpt>
      <trkpt lat="42.444557" lon="1.91381">
        <ele>1182.4</ele>
        <time>2020-08-13T01:29:07Z</time>
      </trkpt>
      <trkpt lat="42.442163" lon="1.915258">
        <ele>1176.0</ele>
        <time>2020-08-13T01:29:37Z</time>
      </trkpt>
      <trkpt lat="42.440175" lon="1.916912">
        <ele>1172.6</ele>
        <time>2020-08-13T01:30:04Z</time>
      </trkpt>
      <trkpt lat="42.439983" lon="1.917176">
        <ele>1169.2</ele>
        <time>2020-08-13T01:30:07Z</time>
      </trkpt>
      <trkpt lat="42.43991" lon="1.917321">
        <ele>1169.2</ele>
        <time>2020-08-13T01:30:09Z</time>
      </trkpt>
      <trkpt lat="42.439741" lon="1.91742">
        <ele>1169.2</ele>
        <time>2020-08-13T01:30:11Z</time>
      </trkpt>
      <trkpt lat="42.438467" lon="1.918985">
        <ele>1170.8</ele>
        <time>2020-08-13T01:30:31Z</time>
      </trkpt>
      <trkpt lat="42.436867" lon="1.920996">
        <ele>1167.6</ele>
        <time>2020-08-13T01:30:56Z</time>
      </trkpt>
      <trkpt lat="42.436824" lon="1.921214">
        <ele>1167.6</ele>
        <time>2020-08-13T01:30:59Z</time>
      </trkpt>
      <trkpt lat="42.436602" lon="1.921808">
        <ele>1168.4</ele>
        <time>2020-08-13T01:31:06Z</time>
      </trkpt>
      <trkpt lat="42.436353" lon="1.92206">
        <ele>1168.4</ele>
        <time>2020-08-13T01:31:11Z</time>
      </trkpt>
      <trkpt lat="42.43601" lon="1.922314">
        <ele>1168.4</ele>
        <time>2020-08-13T01:31:17Z</time>
      </trkpt>
      <trkpt lat="42.435314" lon="1.922933">
        <ele>1173.6</ele>
        <time>2020-08-13T01:31:30Z</time>
      </trkpt>
      <trkpt lat="42.435042" lon="1.923237">
        <ele>1173.6</ele>
        <time>2020-08-13T01:31:35Z</time>
      </trkpt>
      <trkpt lat="42.434864" lon="1.923215">
        <ele>1169.2</ele>
        <time>2020-08-13T01:31:38Z</time>
      </trkpt>
      <trkpt lat="42.434104" lon="1.923248">
        <ele>1161.6</ele>
        <time>2020-08-13T01:31:53Z</time>
      </trkpt>
      <trkpt lat="42.433985" lon="1.921922">
        <ele>1157.2</ele>
        <time>2020-08-13T01:32:08Z</time>
      </trkpt>
      <trkpt lat="42.43394" lon="1.921844">
        <ele>1157.2</ele>
        <time>2020-08-13T01:32:09Z</time>
      </trkpt>
      <trkpt lat="42.433931" lon="1.921752">
        <ele>1157.2</ele>
        <time>2020-08-13T01:32:10Z</time>
      </trkpt>
      <trkpt lat="42.433887" lon="1.921721">
        <ele>1157.2</ele>
        <time>2020-08-13T01:32:11Z</time>
      </trkpt>
      <trkpt lat="42.433838" lon="1.921742">
        <ele>1157.2</ele>
        <time>2020-08-13T01:32:12Z</time>
      </trkpt>
      <trkpt lat="42.433822" lon="1.921769">
        <ele>1157.2</ele>
        <time>2020-08-13T01:32:13Z</time>
      </trkpt>
      <trkpt lat="42.432771" lon="1.921467">
        <ele>1153.4</ele>
        <time>2020-08-13T01:32:33Z</time>
      </trkpt>
      <trkpt lat="42.43276" lon="1.921176">
        <ele>1153.4</ele>
        <time>2020-08-13T01:32:36Z</time>
      </trkpt>
      <trkpt lat="42.432636" lon="1.920403">
        <ele>1154.6</ele>
        <time>2020-08-13T01:32:45Z</time>
      </trkpt>
      <trkpt lat="42.432521" lon="1.919863">
        <ele>1155.0</ele>
        <time>2020-08-13T01:32:51Z</time>
      </trkpt>
      <trkpt lat="42.43248" lon="1.919713">
        <ele>1153.0</ele>
        <time>2020-08-13T01:32:53Z</time>
      </trkpt>
      <trkpt lat="42.432427" lon="1.919616">
        <ele>1153.0</ele>
        <time>2020-08-13T01:32:54Z</time>
      </trkpt>
      <trkpt lat="42.432444" lon="1.919528">
        <ele>1153.0</ele>
        <time>2020-08-13T01:32:55Z</time>
      </trkpt>
      <trkpt lat="42.432397" lon="1.919462">
        <ele>1153.0</ele>
        <time>2020-08-13T01:32:56Z</time>
      </trkpt>
      <trkpt lat="42.432374" lon="1.919459">
        <ele>1153.0</ele>
        <time>2020-08-13T01:32:57Z</time>
      </trkpt>
      <trkpt lat="42.43232" lon="1.919501">
        <ele>1153.0</ele>
        <time>2020-08-13T01:32:58Z</time>
      </trkpt>
      <trkpt lat="42.432313" lon="1.919584">
        <ele>1153.0</ele>
        <time>2020-08-13T01:32:59Z</time>
      </trkpt>
      <trkpt lat="42.43211" lon="1.919665">
        <ele>1153.0</ele>
        <time>2020-08-13T01:33:02Z</time>
      </trkpt>
      <trkpt lat="42.431948" lon="1.919498">
        <ele>1153.0</ele>
        <time>2020-08-13T01:33:05Z</time>
      </trkpt>
      <trkpt lat="42.431894" lon="1.919217">
        <ele>1153.0</ele>
        <time>2020-08-13T01:33:09Z</time>
      </trkpt>
      <trkpt lat="42.43164" lon="1.919259">
        <ele>1152.2</ele>
        <time>2020-08-13T01:33:12Z</time>
      </trkpt>
      <trkpt lat="42.42954" lon="1.91859">
        <ele>1149.0</ele>
        <time>2020-08-13T01:33:40Z</time>
      </trkpt>
      <trkpt lat="42.428948" lon="1.918587">
        <ele>1148.6</ele>
        <time>2020-08-13T01:33:48Z</time>
      </trkpt>
      <trkpt lat="42.428316" lon="1.918511">
        <ele>1147.6</ele>
        <time>2020-08-13T01:33:56Z</time>
      </trkpt>
      <trkpt lat="42.427043" lon="1.918842">
        <ele>1145.6</ele>
        <time>2020-08-13T01:34:13Z</time>
      </trkpt>
      <trkpt lat="42.426139" lon="1.919014">
        <ele>1144.0</ele>
        <time>2020-08-13T01:34:25Z</time>
      </trkpt>
      <trkpt lat="42.425882" lon="1.918988">
        <ele>1144.0</ele>
        <time>2020-08-13T01:34:29Z</time>
      </trkpt>
      <trkpt lat="42.425778" lon="1.920959">
        <ele>1143.8</ele>
        <time>2020-08-13T01:34:45Z</time>
      </trkpt>
      <trkpt lat="42.425659" lon="1.922566">
        <ele>1141.8</ele>
        <time>2020-08-13T01:34:59Z</time>
      </trkpt>
      <trkpt lat="42.425611" lon="1.922775">
        <ele>1141.8</ele>
        <time>2020-08-13T01:35:01Z</time>
      </trkpt>
      <trkpt lat="42.425528" lon="1.922978">
        <ele>1141.8</ele>
        <time>2020-08-13T01:35:03Z</time>
      </trkpt>
      <trkpt lat="42.425439" lon="1.923136">
        <ele>1141.8</ele>
        <time>2020-08-13T01:35:05Z</time>
      </trkpt>
      <trkpt lat="42.425334" lon="1.923229">
        <ele>1141.8</ele>
        <time>2020-08-13T01:35:05Z</time>
      </trkpt>
      <trkpt lat="42.425134" lon="1.923262">
        <ele>1141.8</ele>
        <time>2020-08-13T01:35:07Z</time>
      </trkpt>
      <trkpt lat="42.424897" lon="1.923259">
        <ele>1141.2</ele>
        <time>2020-08-13T01:35:08Z</time>
      </trkpt>
      <trkpt lat="42.423401" lon="1.922715">
        <ele>1140.4</ele>
        <time>2020-08-13T01:35:19Z</time>
      </trkpt>
      <trkpt lat="42.418052" lon="1.92069">
        <ele>1130.4</ele>
        <time>2020-08-13T01:35:56Z</time>
      </trkpt>
      <trkpt lat="42.40606" lon="1.916191">
        <ele>1108.2</ele>
        <time>2020-08-13T01:37:20Z</time>
      </trkpt>
      <trkpt lat="42.405506" lon="1.915942">
        <ele>1107.6</ele>
        <time>2020-08-13T01:37:23Z</time>
      </trkpt>
      <trkpt lat="42.404326" lon="1.915323">
        <ele>1105.8</ele>
        <time>2020-08-13T01:37:32Z</time>
      </trkpt>
      <trkpt lat="42.404118" lon="1.915238">
        <ele>1103.4</ele>
        <time>2020-08-13T01:37:33Z</time>
      </trkpt>
      <trkpt lat="42.403925" lon="1.915182">
        <ele>1103.4</ele>
        <time>2020-08-13T01:37:35Z</time>
      </trkpt>
      <trkpt lat="42.403539" lon="1.915143">
        <ele>1103.4</ele>
        <time>2020-08-13T01:37:37Z</time>
      </trkpt>
      <trkpt lat="42.403353" lon="1.915158">
        <ele>1103.4</ele>
        <time>2020-08-13T01:37:39Z</time>
      </trkpt>
      <trkpt lat="42.403029" lon="1.915208">
        <ele>1102.0</ele>
        <time>2020-08-13T01:37:41Z</time>
      </trkpt>
      <trkpt lat="42.402736" lon="1.915279">
        <ele>1102.0</ele>
        <time>2020-08-13T01:37:43Z</time>
      </trkpt>
      <trkpt lat="42.402122" lon="1.915472">
        <ele>1100.8</ele>
        <time>2020-08-13T01:37:47Z</time>
      </trkpt>
      <trkpt lat="42.401587" lon="1.915574">
        <ele>1101.4</ele>
        <time>2020-08-13T01:37:51Z</time>
      </trkpt>
      <trkpt lat="42.40137" lon="1.915587">
        <ele>1101.4</ele>
        <time>2020-08-13T01:37:52Z</time>
      </trkpt>
      <trkpt lat="42.401218" lon="1.915585">
        <ele>1101.4</ele>
        <time>2020-08-13T01:37:53Z</time>
      </trkpt>
      <trkpt lat="42.400879" lon="1.915506">
        <ele>1101.4</ele>
        <time>2020-08-13T01:37:55Z</time>
      </trkpt>
      <trkpt lat="42.400693" lon="1.915432">
        <ele>1103.6</ele>
        <time>2020-08-13T01:37:57Z</time>
      </trkpt>
      <trkpt lat="42.400073" lon="1.915107">
        <ele>1103.6</ele>
        <time>2020-08-13T01:38:01Z</time>
      </trkpt>
      <trkpt lat="42.399665" lon="1.914826">
        <ele>1104.2</ele>
        <time>2020-08-13T01:38:04Z</time>
      </trkpt>
      <trkpt lat="42.398758" lon="1.914081">
        <ele>1102.6</ele>
        <time>2020-08-13T01:38:12Z</time>
      </trkpt>
      <trkpt lat="42.398507" lon="1.913817">
        <ele>1102.6</ele>
        <time>2020-08-13T01:38:14Z</time>
      </trkpt>
      <trkpt lat="42.397841" lon="1.912998">
        <ele>1101.8</ele>
        <time>2020-08-13T01:38:20Z</time>
      </trkpt>
      <trkpt lat="42.397656" lon="1.9127">
        <ele>1101.8</ele>
        <time>2020-08-13T01:38:22Z</time>
      </trkpt>
      <trkpt lat="42.397289" lon="1.912022">
        <ele>1103.6</ele>
        <time>2020-08-13T01:38:26Z</time>
      </trkpt>
      <trkpt lat="42.397143" lon="1.911678">
        <ele>1103.6</ele>
        <time>2020-08-13T01:38:28Z</time>
      </trkpt>
      <trkpt lat="42.396997" lon="1.911258">
        <ele>1101.8</ele>
        <time>2020-08-13T01:38:30Z</time>
      </trkpt>
      <trkpt lat="42.396845" lon="1.9107">
        <ele>1100.4</ele>
        <time>2020-08-13T01:38:33Z</time>
      </trkpt>
      <trkpt lat="42.396782" lon="1.910374">
        <ele>1100.4</ele>
        <time>2020-08-13T01:38:35Z</time>
      </trkpt>
      <trkpt lat="42.396566" lon="1.908777">
        <ele>1103.4</ele>
        <time>2020-08-13T01:38:43Z</time>
      </trkpt>
      <trkpt lat="42.396431" lon="1.907926">
        <ele>1104.6</ele>
        <time>2020-08-13T01:38:48Z</time>
      </trkpt>
      <trkpt lat="42.396293" lon="1.906856">
        <ele>1106.4</ele>
        <time>2020-08-13T01:38:53Z</time>
      </trkpt>
      <trkpt lat="42.39616" lon="1.90537">
        <ele>1107.0</ele>
        <time>2020-08-13T01:39:01Z</time>
      </trkpt>
      <trkpt lat="42.396135" lon="1.904855">
        <ele>1107.4</ele>
        <time>2020-08-13T01:39:03Z</time>
      </trkpt>
      <trkpt lat="42.39611" lon="1.903112">
        <ele>1104.6</ele>
        <time>2020-08-13T01:39:12Z</time>
      </trkpt>
      <trkpt lat="42.396053" lon="1.902108">
        <ele>1105.4</ele>
        <time>2020-08-13T01:39:17Z</time>
      </trkpt>
      <trkpt lat="42.396015" lon="1.901829">
        <ele>1105.4</ele>
        <time>2020-08-13T01:39:18Z</time>
      </trkpt>
      <trkpt lat="42.395803" lon="1.900958">
        <ele>1109.8</ele>
        <time>2020-08-13T01:39:23Z</time>
      </trkpt>
      <trkpt lat="42.395581" lon="1.900137">
        <ele>1106.2</ele>
        <time>2020-08-13T01:39:27Z</time>
      </trkpt>
      <trkpt lat="42.395036" lon="1.898489">
        <ele>1100.8</ele>
        <time>2020-08-13T01:39:37Z</time>
      </trkpt>
      <trkpt lat="42.394653" lon="1.897598">
        <ele>1101.8</ele>
        <time>2020-08-13T01:39:42Z</time>
      </trkpt>
      <trkpt lat="42.394417" lon="1.897225">
        <ele>1101.6</ele>
        <time>2020-08-13T01:39:44Z</time>
      </trkpt>
      <trkpt lat="42.394077" lon="1.896818">
        <ele>1105.4</ele>
        <time>2020-08-13T01:39:47Z</time>
      </trkpt>
      <trkpt lat="42.393758" lon="1.896512">
        <ele>1104.8</ele>
        <time>2020-08-13T01:39:50Z</time>
      </trkpt>
      <trkpt lat="42.393599" lon="1.896392">
        <ele>1104.8</ele>
        <time>2020-08-13T01:39:51Z</time>
      </trkpt>
      <trkpt lat="42.393053" lon="1.896055">
        <ele>1108.8</ele>
        <time>2020-08-13T01:39:55Z</time>
      </trkpt>
      <trkpt lat="42.388349" lon="1.893326">
        <ele>1122.8</ele>
        <time>2020-08-13T01:40:30Z</time>
      </trkpt>
      <trkpt lat="42.38757" lon="1.892933">
        <ele>1126.2</ele>
        <time>2020-08-13T01:40:36Z</time>
      </trkpt>
      <trkpt lat="42.386953" lon="1.892673">
        <ele>1128.6</ele>
        <time>2020-08-13T01:40:40Z</time>
      </trkpt>
      <trkpt lat="42.386635" lon="1.892561">
        <ele>1131.0</ele>
        <time>2020-08-13T01:40:42Z</time>
      </trkpt>
      <trkpt lat="42.385912" lon="1.892375">
        <ele>1128.4</ele>
        <time>2020-08-13T01:40:47Z</time>
      </trkpt>
      <trkpt lat="42.385391" lon="1.892267">
        <ele>1129.6</ele>
        <time>2020-08-13T01:40:51Z</time>
      </trkpt>
      <trkpt lat="42.38502" lon="1.892219">
        <ele>1129.6</ele>
        <time>2020-08-13T01:40:54Z</time>
      </trkpt>
      <trkpt lat="42.383563" lon="1.892095">
        <ele>1129.0</ele>
        <time>2020-08-13T01:41:03Z</time>
      </trkpt>
      <trkpt lat="42.383025" lon="1.892105">
        <ele>1125.6</ele>
        <time>2020-08-13T01:41:07Z</time>
      </trkpt>
      <trkpt lat="42.38282" lon="1.892143">
        <ele>1125.6</ele>
        <time>2020-08-13T01:41:09Z</time>
      </trkpt>
      <trkpt lat="42.38242" lon="1.892263">
        <ele>1123.4</ele>
        <time>2020-08-13T01:41:11Z</time>
      </trkpt>
      <trkpt lat="42.382223" lon="1.892347">
        <ele>1123.4</ele>
        <time>2020-08-13T01:41:13Z</time>
      </trkpt>
      <trkpt lat="42.381852" lon="1.892572">
        <ele>1131.2</ele>
        <time>2020-08-13T01:41:16Z</time>
      </trkpt>
      <trkpt lat="42.381503" lon="1.892837">
        <ele>1128.4</ele>
        <time>2020-08-13T01:41:18Z</time>
      </trkpt>
      <trkpt lat="42.381245" lon="1.893075">
        <ele>1128.4</ele>
        <time>2020-08-13T01:41:20Z</time>
      </trkpt>
      <trkpt lat="42.380791" lon="1.893323">
        <ele>1127.8</ele>
        <time>2020-08-13T01:41:24Z</time>
      </trkpt>
      <trkpt lat="42.380541" lon="1.8934">
        <ele>1132.8</ele>
        <time>2020-08-13T01:41:26Z</time>
      </trkpt>
      <trkpt lat="42.380346" lon="1.893416">
        <ele>1132.8</ele>
        <time>2020-08-13T01:41:27Z</time>
      </trkpt>
      <trkpt lat="42.379817" lon="1.893283">
        <ele>1128.2</ele>
        <time>2020-08-13T01:41:32Z</time>
      </trkpt>
      <trkpt lat="42.37953" lon="1.89312">
        <ele>1128.2</ele>
        <time>2020-08-13T01:41:34Z</time>
      </trkpt>
      <trkpt lat="42.379362" lon="1.892915">
        <ele>1128.2</ele>
        <time>2020-08-13T01:41:36Z</time>
      </trkpt>
      <trkpt lat="42.378899" lon="1.892208">
        <ele>1130.0</ele>
        <time>2020-08-13T01:41:42Z</time>
      </trkpt>
      <trkpt lat="42.378587" lon="1.891636">
        <ele>1129.6</ele>
        <time>2020-08-13T01:41:46Z</time>
      </trkpt>
      <trkpt lat="42.378298" lon="1.891053">
        <ele>1131.8</ele>
        <time>2020-08-13T01:41:51Z</time>
      </trkpt>
      <trkpt lat="42.378038" lon="1.8905">
        <ele>1132.4</ele>
        <time>2020-08-13T01:41:55Z</time>
      </trkpt>
      <trkpt lat="42.377774" lon="1.889829">
        <ele>1133.0</ele>
        <time>2020-08-13T01:42:00Z</time>
      </trkpt>
      <trkpt lat="42.37759" lon="1.889294">
        <ele>1133.0</ele>
        <time>2020-08-13T01:42:03Z</time>
      </trkpt>
      <trkpt lat="42.377304" lon="1.888379">
        <ele>1137.6</ele>
        <time>2020-08-13T01:42:10Z</time>
      </trkpt>
      <trkpt lat="42.377093" lon="1.88752">
        <ele>1137.6</ele>
        <time>2020-08-13T01:42:15Z</time>
      </trkpt>
      <trkpt lat="42.376853" lon="1.88663">
        <ele>1137.4</ele>
        <time>2020-08-13T01:42:21Z</time>
      </trkpt>
      <trkpt lat="42.376528" lon="1.885619">
        <ele>1140.8</ele>
        <time>2020-08-13T01:42:28Z</time>
      </trkpt>
      <trkpt lat="42.376096" lon="1.884427">
        <ele>1140.2</ele>
        <time>2020-08-13T01:42:36Z</time>
      </trkpt>
      <trkpt lat="42.375737" lon="1.883602">
        <ele>1142.0</ele>
        <time>2020-08-13T01:42:42Z</time>
      </trkpt>
      <trkpt lat="42.375214" lon="1.882597">
        <ele>1140.4</ele>
        <time>2020-08-13T01:42:50Z</time>
      </trkpt>
      <trkpt lat="42.375109" lon="1.882477">
        <ele>1137.8</ele>
        <time>2020-08-13T01:42:51Z</time>
      </trkpt>
      <trkpt lat="42.374918" lon="1.882202">
        <ele>1140.6</ele>
        <time>2020-08-13T01:42:54Z</time>
      </trkpt>
      <trkpt lat="42.37476" lon="1.882024">
        <ele>1140.6</ele>
        <time>2020-08-13T01:42:55Z</time>
      </trkpt>
      <trkpt lat="42.37442" lon="1.881758">
        <ele>1140.6</ele>
        <time>2020-08-13T01:42:59Z</time>
      </trkpt>
      <trkpt lat="42.374247" lon="1.881673">
        <ele>1140.6</ele>
        <time>2020-08-13T01:43:00Z</time>
      </trkpt>
      <trkpt lat="42.373843" lon="1.881542">
        <ele>1139.2</ele>
        <time>2020-08-13T01:43:04Z</time>
      </trkpt>
      <trkpt lat="42.373248" lon="1.881445">
        <ele>1144.4</ele>
        <time>2020-08-13T01:43:09Z</time>
      </trkpt>
      <trkpt lat="42.372907" lon="1.88134">
        <ele>1144.4</ele>
        <time>2020-08-13T01:43:12Z</time>
      </trkpt>
      <trkpt lat="42.372653" lon="1.881167">
        <ele>1144.4</ele>
        <time>2020-08-13T01:43:14Z</time>
      </trkpt>
      <trkpt lat="42.372132" lon="1.880671">
        <ele>1148.4</ele>
        <time>2020-08-13T01:43:20Z</time>
      </trkpt>
      <trkpt lat="42.371839" lon="1.880467">
        <ele>1148.4</ele>
        <time>2020-08-13T01:43:22Z</time>
      </trkpt>
      <trkpt lat="42.371699" lon="1.88032">
        <ele>1148.4</ele>
        <time>2020-08-13T01:43:24Z</time>
      </trkpt>
      <trkpt lat="42.371629" lon="1.880203">
        <ele>1156.0</ele>
        <time>2020-08-13T01:43:26Z</time>
      </trkpt>
      <trkpt lat="42.371549" lon="1.880153">
        <ele>1156.0</ele>
        <time>2020-08-13T01:43:26Z</time>
      </trkpt>
      <trkpt lat="42.37146" lon="1.880149">
        <ele>1156.0</ele>
        <time>2020-08-13T01:43:27Z</time>
      </trkpt>
      <trkpt lat="42.371373" lon="1.880198">
        <ele>1156.0</ele>
        <time>2020-08-13T01:43:28Z</time>
      </trkpt>
      <trkpt lat="42.371304" lon="1.880303">
        <ele>1156.0</ele>
        <time>2020-08-13T01:43:29Z</time>
      </trkpt>
      <trkpt lat="42.37128" lon="1.880413">
        <ele>1156.0</ele>
        <time>2020-08-13T01:43:30Z</time>
      </trkpt>
      <trkpt lat="42.371046" lon="1.880644">
        <ele>1156.0</ele>
        <time>2020-08-13T01:43:33Z</time>
      </trkpt>
      <trkpt lat="42.36991" lon="1.881224">
        <ele>1179.8</ele>
        <time>2020-08-13T01:43:46Z</time>
      </trkpt>
      <trkpt lat="42.369735" lon="1.881279">
        <ele>1179.8</ele>
        <time>2020-08-13T01:43:48Z</time>
      </trkpt>
      <trkpt lat="42.369565" lon="1.881283">
        <ele>1179.8</ele>
        <time>2020-08-13T01:43:50Z</time>
      </trkpt>
      <trkpt lat="42.369248" lon="1.881221">
        <ele>1179.8</ele>
        <time>2020-08-13T01:43:53Z</time>
      </trkpt>
      <trkpt lat="42.369095" lon="1.881156">
        <ele>1196.0</ele>
        <time>2020-08-13T01:43:55Z</time>
      </trkpt>
      <trkpt lat="42.368927" lon="1.88103">
        <ele>1196.0</ele>
        <time>2020-08-13T01:43:57Z</time>
      </trkpt>
      <trkpt lat="42.368735" lon="1.88081">
        <ele>1192.2</ele>
        <time>2020-08-13T01:44:00Z</time>
      </trkpt>
      <trkpt lat="42.368609" lon="1.880579">
        <ele>1192.2</ele>
        <time>2020-08-13T01:44:02Z</time>
      </trkpt>
      <trkpt lat="42.368451" lon="1.880139">
        <ele>1192.2</ele>
        <time>2020-08-13T01:44:06Z</time>
      </trkpt>
      <trkpt lat="42.368268" lon="1.879455">
        <ele>1203.6</ele>
        <time>2020-08-13T01:44:11Z</time>
      </trkpt>
      <trkpt lat="42.368106" lon="1.879003">
        <ele>1198.0</ele>
        <time>2020-08-13T01:44:15Z</time>
      </trkpt>
      <trkpt lat="42.367889" lon="1.878604">
        <ele>1198.0</ele>
        <time>2020-08-13T01:44:19Z</time>
      </trkpt>
      <trkpt lat="42.367613" lon="1.878192">
        <ele>1192.2</ele>
        <time>2020-08-13T01:44:23Z</time>
      </trkpt>
      <trkpt lat="42.367362" lon="1.877853">
        <ele>1206.4</ele>
        <time>2020-08-13T01:44:27Z</time>
      </trkpt>
      <trkpt lat="42.367008" lon="1.87744">
        <ele>1197.0</ele>
        <time>2020-08-13T01:44:32Z</time>
      </trkpt>
      <trkpt lat="42.366387" lon="1.876829">
        <ele>1211.0</ele>
        <time>2020-08-13T01:44:40Z</time>
      </trkpt>
      <trkpt lat="42.365638" lon="1.876159">
        <ele>1213.0</ele>
        <time>2020-08-13T01:44:50Z</time>
      </trkpt>
      <trkpt lat="42.364027" lon="1.87399">
        <ele>1215.2</ele>
        <time>2020-08-13T01:45:13Z</time>
      </trkpt>
      <trkpt lat="42.363882" lon="1.873867">
        <ele>1215.2</ele>
        <time>2020-08-13T01:45:15Z</time>
      </trkpt>
      <trkpt lat="42.363397" lon="1.873563">
        <ele>1215.2</ele>
        <time>2020-08-13T01:45:20Z</time>
      </trkpt>
      <trkpt lat="42.361938" lon="1.872721">
        <ele>1227.4</ele>
        <time>2020-08-13T01:45:37Z</time>
      </trkpt>
      <trkpt lat="42.361728" lon="1.87265">
        <ele>1227.4</ele>
        <time>2020-08-13T01:45:39Z</time>
      </trkpt>
      <trkpt lat="42.361511" lon="1.872523">
        <ele>1239.4</ele>
        <time>2020-08-13T01:45:42Z</time>
      </trkpt>
      <trkpt lat="42.361341" lon="1.872398">
        <ele>1232.0</ele>
        <time>2020-08-13T01:45:44Z</time>
      </trkpt>
      <trkpt lat="42.359994" lon="1.8711">
        <ele>1248.6</ele>
        <time>2020-08-13T01:46:01Z</time>
      </trkpt>
      <trkpt lat="42.359655" lon="1.870695">
        <ele>1242.0</ele>
        <time>2020-08-13T01:46:06Z</time>
      </trkpt>
      <trkpt lat="42.359547" lon="1.870521">
        <ele>1242.0</ele>
        <time>2020-08-13T01:46:08Z</time>
      </trkpt>
      <trkpt lat="42.359439" lon="1.870258">
        <ele>1242.0</ele>
        <time>2020-08-13T01:46:10Z</time>
      </trkpt>
      <trkpt lat="42.35938" lon="1.870026">
        <ele>1242.0</ele>
        <time>2020-08-13T01:46:12Z</time>
      </trkpt>
      <trkpt lat="42.359344" lon="1.86963">
        <ele>1239.6</ele>
        <time>2020-08-13T01:46:15Z</time>
      </trkpt>
      <trkpt lat="42.359324" lon="1.869002">
        <ele>1237.2</ele>
        <time>2020-08-13T01:46:20Z</time>
      </trkpt>
      <trkpt lat="42.359302" lon="1.868739">
        <ele>1237.2</ele>
        <time>2020-08-13T01:46:22Z</time>
      </trkpt>
      <trkpt lat="42.359252" lon="1.868487">
        <ele>1237.2</ele>
        <time>2020-08-13T01:46:24Z</time>
      </trkpt>
      <trkpt lat="42.359185" lon="1.868288">
        <ele>1237.0</ele>
        <time>2020-08-13T01:46:25Z</time>
      </trkpt>
      <trkpt lat="42.35908" lon="1.868103">
        <ele>1238.6</ele>
        <time>2020-08-13T01:46:27Z</time>
      </trkpt>
      <trkpt lat="42.358958" lon="1.867957">
        <ele>1238.6</ele>
        <time>2020-08-13T01:46:29Z</time>
      </trkpt>
      <trkpt lat="42.358817" lon="1.86783">
        <ele>1238.6</ele>
        <time>2020-08-13T01:46:30Z</time>
      </trkpt>
      <trkpt lat="42.35866" lon="1.86773">
        <ele>1238.6</ele>
        <time>2020-08-13T01:46:32Z</time>
      </trkpt>
      <trkpt lat="42.357488" lon="1.867095">
        <ele>1241.4</ele>
        <time>2020-08-13T01:46:45Z</time>
      </trkpt>
      <trkpt lat="42.357335" lon="1.866958">
        <ele>1241.4</ele>
        <time>2020-08-13T01:46:47Z</time>
      </trkpt>
      <trkpt lat="42.357195" lon="1.8668">
        <ele>1241.4</ele>
        <time>2020-08-13T01:46:49Z</time>
      </trkpt>
      <trkpt lat="42.356978" lon="1.866412">
        <ele>1234.4</ele>
        <time>2020-08-13T01:46:53Z</time>
      </trkpt>
      <trkpt lat="42.356755" lon="1.865773">
        <ele>1227.0</ele>
        <time>2020-08-13T01:46:58Z</time>
      </trkpt>
      <trkpt lat="42.356667" lon="1.865583">
        <ele>1227.0</ele>
        <time>2020-08-13T01:47:00Z</time>
      </trkpt>
      <trkpt lat="42.35656" lon="1.865422">
        <ele>1239.0</ele>
        <time>2020-08-13T01:47:02Z</time>
      </trkpt>
      <trkpt lat="42.35632" lon="1.865117">
        <ele>1239.0</ele>
        <time>2020-08-13T01:47:05Z</time>
      </trkpt>
      <trkpt lat="42.354983" lon="1.86357">
        <ele>1246.0</ele>
        <time>2020-08-13T01:47:24Z</time>
      </trkpt>
      <trkpt lat="42.354703" lon="1.863322">
        <ele>1239.8</ele>
        <time>2020-08-13T01:47:27Z</time>
      </trkpt>
      <trkpt lat="42.35405" lon="1.862877">
        <ele>1248.6</ele>
        <time>2020-08-13T01:47:35Z</time>
      </trkpt>
      <trkpt lat="42.35382" lon="1.862677">
        <ele>1248.6</ele>
        <time>2020-08-13T01:47:38Z</time>
      </trkpt>
      <trkpt lat="42.353632" lon="1.86243">
        <ele>1247.2</ele>
        <time>2020-08-13T01:47:40Z</time>
      </trkpt>
      <trkpt lat="42.353437" lon="1.86208">
        <ele>1247.2</ele>
        <time>2020-08-13T01:47:44Z</time>
      </trkpt>
      <trkpt lat="42.353259" lon="1.861624">
        <ele>1256.0</ele>
        <time>2020-08-13T01:47:48Z</time>
      </trkpt>
      <trkpt lat="42.353191" lon="1.861397">
        <ele>1256.0</ele>
        <time>2020-08-13T01:47:50Z</time>
      </trkpt>
      <trkpt lat="42.353099" lon="1.861158">
        <ele>1256.0</ele>
        <time>2020-08-13T01:47:56Z</time>
      </trkpt>
      <trkpt lat="42.353085" lon="1.860941">
        <ele>1256.0</ele>
        <time>2020-08-13T01:47:57Z</time>
      </trkpt>
      <trkpt lat="42.353016" lon="1.860675">
        <ele>1252.6</ele>
        <time>2020-08-13T01:47:58Z</time>
      </trkpt>
      <trkpt lat="42.35295" lon="1.860276">
        <ele>1252.6</ele>
        <time>2020-08-13T01:48:01Z</time>
      </trkpt>
      <trkpt lat="42.352876" lon="1.860152">
        <ele>1252.6</ele>
        <time>2020-08-13T01:48:02Z</time>
      </trkpt>
      <trkpt lat="42.352553" lon="1.859514">
        <ele>1249.0</ele>
        <time>2020-08-13T01:48:06Z</time>
      </trkpt>
      <trkpt lat="42.352496" lon="1.85912">
        <ele>1253.6</ele>
        <time>2020-08-13T01:48:08Z</time>
      </trkpt>
      <trkpt lat="42.352491" lon="1.858922">
        <ele>1253.6</ele>
        <time>2020-08-13T01:48:09Z</time>
      </trkpt>
      <trkpt lat="42.352551" lon="1.858543">
        <ele>1249.0</ele>
        <time>2020-08-13T01:48:11Z</time>
      </trkpt>
      <trkpt lat="42.352824" lon="1.857689">
        <ele>1254.0</ele>
        <time>2020-08-13T01:48:15Z</time>
      </trkpt>
      <trkpt lat="42.353089" lon="1.856949">
        <ele>1263.6</ele>
        <time>2020-08-13T01:48:19Z</time>
      </trkpt>
      <trkpt lat="42.353272" lon="1.856583">
        <ele>1272.2</ele>
        <time>2020-08-13T01:48:22Z</time>
      </trkpt>
      <trkpt lat="42.353378" lon="1.85641">
        <ele>1261.2</ele>
        <time>2020-08-13T01:48:23Z</time>
      </trkpt>
      <trkpt lat="42.353985" lon="1.85567">
        <ele>1267.2</ele>
        <time>2020-08-13T01:48:28Z</time>
      </trkpt>
      <trkpt lat="42.354095" lon="1.8555">
        <ele>1267.2</ele>
        <time>2020-08-13T01:48:29Z</time>
      </trkpt>
      <trkpt lat="42.354258" lon="1.855108">
        <ele>1245.8</ele>
        <time>2020-08-13T01:48:32Z</time>
      </trkpt>
      <trkpt lat="42.354303" lon="1.854897">
        <ele>1249.0</ele>
        <time>2020-08-13T01:48:33Z</time>
      </trkpt>
      <trkpt lat="42.354325" lon="1.854678">
        <ele>1249.0</ele>
        <time>2020-08-13T01:48:34Z</time>
      </trkpt>
      <trkpt lat="42.354338" lon="1.853795">
        <ele>1252.8</ele>
        <time>2020-08-13T01:48:38Z</time>
      </trkpt>
      <trkpt lat="42.354373" lon="1.853582">
        <ele>1252.8</ele>
        <time>2020-08-13T01:48:39Z</time>
      </trkpt>
      <trkpt lat="42.354428" lon="1.85338">
        <ele>1252.8</ele>
        <time>2020-08-13T01:48:40Z</time>
      </trkpt>
      <trkpt lat="42.35459" lon="1.853005">
        <ele>1260.4</ele>
        <time>2020-08-13T01:48:42Z</time>
      </trkpt>
      <trkpt lat="42.354863" lon="1.852492">
        <ele>1266.6</ele>
        <time>2020-08-13T01:48:45Z</time>
      </trkpt>
      <trkpt lat="42.354942" lon="1.852313">
        <ele>1266.6</ele>
        <time>2020-08-13T01:48:46Z</time>
      </trkpt>
      <trkpt lat="42.354997" lon="1.852122">
        <ele>1266.6</ele>
        <time>2020-08-13T01:48:47Z</time>
      </trkpt>
      <trkpt lat="42.355253" lon="1.850673">
        <ele>1251.0</ele>
        <time>2020-08-13T01:48:55Z</time>
      </trkpt>
      <trkpt lat="42.355303" lon="1.850265">
        <ele>1251.0</ele>
        <time>2020-08-13T01:48:57Z</time>
      </trkpt>
      <trkpt lat="42.355298" lon="1.849848">
        <ele>1255.4</ele>
        <time>2020-08-13T01:48:59Z</time>
      </trkpt>
      <trkpt lat="42.355268" lon="1.849663">
        <ele>1255.4</ele>
        <time>2020-08-13T01:48:59Z</time>
      </trkpt>
      <trkpt lat="42.355213" lon="1.849485">
        <ele>1255.4</ele>
        <time>2020-08-13T01:49:00Z</time>
      </trkpt>
      <trkpt lat="42.355043" lon="1.849175">
        <ele>1255.4</ele>
        <time>2020-08-13T01:49:02Z</time>
      </trkpt>
      <trkpt lat="42.354948" lon="1.849043">
        <ele>1260.4</ele>
        <time>2020-08-13T01:49:03Z</time>
      </trkpt>
      <trkpt lat="42.35472" lon="1.848838">
        <ele>1260.4</ele>
        <time>2020-08-13T01:49:05Z</time>
      </trkpt>
      <trkpt lat="42.354305" lon="1.84857">
        <ele>1260.4</ele>
        <time>2020-08-13T01:49:08Z</time>
      </trkpt>
      <trkpt lat="42.351637" lon="1.84699">
        <ele>1260.2</ele>
        <time>2020-08-13T01:49:27Z</time>
      </trkpt>
      <trkpt lat="42.351377" lon="1.846792">
        <ele>1260.2</ele>
        <time>2020-08-13T01:49:29Z</time>
      </trkpt>
      <trkpt lat="42.35114" lon="1.846532">
        <ele>1257.2</ele>
        <time>2020-08-13T01:49:31Z</time>
      </trkpt>
      <trkpt lat="42.350972" lon="1.846173">
        <ele>1257.2</ele>
        <time>2020-08-13T01:49:33Z</time>
      </trkpt>
      <trkpt lat="42.350888" lon="1.84577">
        <ele>1252.4</ele>
        <time>2020-08-13T01:49:35Z</time>
      </trkpt>
      <trkpt lat="42.350877" lon="1.845555">
        <ele>1252.4</ele>
        <time>2020-08-13T01:49:36Z</time>
      </trkpt>
      <trkpt lat="42.350887" lon="1.845335">
        <ele>1252.4</ele>
        <time>2020-08-13T01:49:37Z</time>
      </trkpt>
      <trkpt lat="42.350923" lon="1.845113">
        <ele>1252.4</ele>
        <time>2020-08-13T01:49:38Z</time>
      </trkpt>
      <trkpt lat="42.351083" lon="1.844675">
        <ele>1245.4</ele>
        <time>2020-08-13T01:49:40Z</time>
      </trkpt>
      <trkpt lat="42.351373" lon="1.844027">
        <ele>1240.0</ele>
        <time>2020-08-13T01:49:44Z</time>
      </trkpt>
      <trkpt lat="42.351437" lon="1.843795">
        <ele>1240.0</ele>
        <time>2020-08-13T01:49:45Z</time>
      </trkpt>
      <trkpt lat="42.351478" lon="1.843558">
        <ele>1240.0</ele>
        <time>2020-08-13T01:49:46Z</time>
      </trkpt>
      <trkpt lat="42.351477" lon="1.843068">
        <ele>1239.0</ele>
        <time>2020-08-13T01:49:49Z</time>
      </trkpt>
      <trkpt lat="42.351352" lon="1.84259">
        <ele>1239.0</ele>
        <time>2020-08-13T01:49:51Z</time>
      </trkpt>
      <trkpt lat="42.351103" lon="1.841885">
        <ele>1238.6</ele>
        <time>2020-08-13T01:49:55Z</time>
      </trkpt>
      <trkpt lat="42.350948" lon="1.84138">
        <ele>1237.2</ele>
        <time>2020-08-13T01:49:58Z</time>
      </trkpt>
      <trkpt lat="42.350832" lon="1.840833">
        <ele>1229.4</ele>
        <time>2020-08-13T01:50:00Z</time>
      </trkpt>
      <trkpt lat="42.350762" lon="1.840268">
        <ele>1229.4</ele>
        <time>2020-08-13T01:50:03Z</time>
      </trkpt>
      <trkpt lat="42.350652" lon="1.838858">
        <ele>1225.4</ele>
        <time>2020-08-13T01:50:10Z</time>
      </trkpt>
      <trkpt lat="42.35051" lon="1.83802">
        <ele>1224.0</ele>
        <time>2020-08-13T01:50:14Z</time>
      </trkpt>
      <trkpt lat="42.349913" lon="1.835625">
        <ele>1218.2</ele>
        <time>2020-08-13T01:50:26Z</time>
      </trkpt>
      <trkpt lat="42.349773" lon="1.835185">
        <ele>1218.2</ele>
        <time>2020-08-13T01:50:29Z</time>
      </trkpt>
      <trkpt lat="42.349677" lon="1.834987">
        <ele>1217.6</ele>
        <time>2020-08-13T01:50:30Z</time>
      </trkpt>
      <trkpt lat="42.349371" lon="1.834492">
        <ele>1217.6</ele>
        <time>2020-08-13T01:50:33Z</time>
      </trkpt>
      <trkpt lat="42.34926" lon="1.834279">
        <ele>1217.6</ele>
        <time>2020-08-13T01:50:34Z</time>
      </trkpt>
      <trkpt lat="42.349178" lon="1.834074">
        <ele>1217.0</ele>
        <time>2020-08-13T01:50:35Z</time>
      </trkpt>
      <trkpt lat="42.349141" lon="1.83387">
        <ele>1215.0</ele>
        <time>2020-08-13T01:50:36Z</time>
      </trkpt>
      <trkpt lat="42.34911" lon="1.833541">
        <ele>1215.0</ele>
        <time>2020-08-13T01:50:38Z</time>
      </trkpt>
      <trkpt lat="42.349109" lon="1.833341">
        <ele>1215.0</ele>
        <time>2020-08-13T01:50:39Z</time>
      </trkpt>
      <trkpt lat="42.349132" lon="1.832994">
        <ele>1213.8</ele>
        <time>2020-08-13T01:50:40Z</time>
      </trkpt>
      <trkpt lat="42.349171" lon="1.832688">
        <ele>1215.4</ele>
        <time>2020-08-13T01:50:42Z</time>
      </trkpt>
      <trkpt lat="42.349178" lon="1.832434">
        <ele>1214.0</ele>
        <time>2020-08-13T01:50:43Z</time>
      </trkpt>
      <trkpt lat="42.349147" lon="1.832148">
        <ele>1212.4</ele>
        <time>2020-08-13T01:50:44Z</time>
      </trkpt>
      <trkpt lat="42.349102" lon="1.831938">
        <ele>1212.4</ele>
        <time>2020-08-13T01:50:46Z</time>
      </trkpt>
      <trkpt lat="42.348941" lon="1.831527">
        <ele>1212.4</ele>
        <time>2020-08-13T01:50:48Z</time>
      </trkpt>
      <trkpt lat="42.348767" lon="1.831164">
        <ele>1212.4</ele>
        <time>2020-08-13T01:50:50Z</time>
      </trkpt>
      <trkpt lat="42.348663" lon="1.830871">
        <ele>1212.4</ele>
        <time>2020-08-13T01:50:51Z</time>
      </trkpt>
      <trkpt lat="42.348625" lon="1.83065">
        <ele>1210.4</ele>
        <time>2020-08-13T01:50:53Z</time>
      </trkpt>
      <trkpt lat="42.348622" lon="1.830439">
        <ele>1210.4</ele>
        <time>2020-08-13T01:50:54Z</time>
      </trkpt>
      <trkpt lat="42.34869" lon="1.829973">
        <ele>1206.6</ele>
        <time>2020-08-13T01:50:56Z</time>
      </trkpt>
      <trkpt lat="42.348751" lon="1.829858">
        <ele>1206.6</ele>
        <time>2020-08-13T01:50:56Z</time>
      </trkpt>
      <trkpt lat="42.348837" lon="1.829764">
        <ele>1206.6</ele>
        <time>2020-08-13T01:50:57Z</time>
      </trkpt>
      <trkpt lat="42.348938" lon="1.829742">
        <ele>1206.6</ele>
        <time>2020-08-13T01:50:58Z</time>
      </trkpt>
      <trkpt lat="42.349063" lon="1.829814">
        <ele>1206.6</ele>
        <time>2020-08-13T01:50:59Z</time>
      </trkpt>
      <trkpt lat="42.349115" lon="1.829924">
        <ele>1206.6</ele>
        <time>2020-08-13T01:50:59Z</time>
      </trkpt>
      <trkpt lat="42.349134" lon="1.830037">
        <ele>1210.4</ele>
        <time>2020-08-13T01:51:00Z</time>
      </trkpt>
      <trkpt lat="42.349099" lon="1.830632">
        <ele>1210.4</ele>
        <time>2020-08-13T01:51:03Z</time>
      </trkpt>
      <trkpt lat="42.349033" lon="1.83085">
        <ele>1212.4</ele>
        <time>2020-08-13T01:51:04Z</time>
      </trkpt>
      <trkpt lat="42.348921" lon="1.831137">
        <ele>1212.4</ele>
        <time>2020-08-13T01:51:06Z</time>
      </trkpt>
      <trkpt lat="42.348659" lon="1.83169">
        <ele>1212.4</ele>
        <time>2020-08-13T01:51:09Z</time>
      </trkpt>
      <trkpt lat="42.348317" lon="1.832202">
        <ele>1222.4</ele>
        <time>2020-08-13T01:51:12Z</time>
      </trkpt>
      <trkpt lat="42.348027" lon="1.832533">
        <ele>1221.4</ele>
        <time>2020-08-13T01:51:15Z</time>
      </trkpt>
      <trkpt lat="42.347923" lon="1.83263">
        <ele>1221.4</ele>
        <time>2020-08-13T01:51:15Z</time>
      </trkpt>
      <trkpt lat="42.347522" lon="1.832928">
        <ele>1221.4</ele>
        <time>2020-08-13T01:51:18Z</time>
      </trkpt>
      <trkpt lat="42.347094" lon="1.833177">
        <ele>1231.0</ele>
        <time>2020-08-13T01:51:21Z</time>
      </trkpt>
      <trkpt lat="42.346855" lon="1.83326">
        <ele>1231.0</ele>
        <time>2020-08-13T01:51:23Z</time>
      </trkpt>
      <trkpt lat="42.34631" lon="1.833355">
        <ele>1236.0</ele>
        <time>2020-08-13T01:51:27Z</time>
      </trkpt>
      <trkpt lat="42.346041" lon="1.83336">
        <ele>1236.0</ele>
        <time>2020-08-13T01:51:28Z</time>
      </trkpt>
      <trkpt lat="42.345809" lon="1.833336">
        <ele>1241.0</ele>
        <time>2020-08-13T01:51:30Z</time>
      </trkpt>
      <trkpt lat="42.345456" lon="1.833244">
        <ele>1234.4</ele>
        <time>2020-08-13T01:51:32Z</time>
      </trkpt>
      <trkpt lat="42.345152" lon="1.833133">
        <ele>1234.4</ele>
        <time>2020-08-13T01:51:34Z</time>
      </trkpt>
      <trkpt lat="42.344205" lon="1.832636">
        <ele>1232.6</ele>
        <time>2020-08-13T01:51:41Z</time>
      </trkpt>
      <trkpt lat="42.343847" lon="1.832529">
        <ele>1234.0</ele>
        <time>2020-08-13T01:51:43Z</time>
      </trkpt>
      <trkpt lat="42.343511" lon="1.832506">
        <ele>1234.0</ele>
        <time>2020-08-13T01:51:45Z</time>
      </trkpt>
      <trkpt lat="42.343074" lon="1.832594">
        <ele>1235.4</ele>
        <time>2020-08-13T01:51:48Z</time>
      </trkpt>
      <trkpt lat="42.34282" lon="1.832711">
        <ele>1235.4</ele>
        <time>2020-08-13T01:51:50Z</time>
      </trkpt>
      <trkpt lat="42.342588" lon="1.832864">
        <ele>1235.4</ele>
        <time>2020-08-13T01:51:52Z</time>
      </trkpt>
      <trkpt lat="42.342308" lon="1.833114">
        <ele>1231.2</ele>
        <time>2020-08-13T01:51:54Z</time>
      </trkpt>
      <trkpt lat="42.342145" lon="1.833307">
        <ele>1231.2</ele>
        <time>2020-08-13T01:51:55Z</time>
      </trkpt>
      <trkpt lat="42.341951" lon="1.833653">
        <ele>1230.8</ele>
        <time>2020-08-13T01:51:57Z</time>
      </trkpt>
      <trkpt lat="42.341791" lon="1.834028">
        <ele>1230.8</ele>
        <time>2020-08-13T01:52:00Z</time>
      </trkpt>
      <trkpt lat="42.341702" lon="1.834329">
        <ele>1232.2</ele>
        <time>2020-08-13T01:52:01Z</time>
      </trkpt>
      <trkpt lat="42.341219" lon="1.836662">
        <ele>1218.8</ele>
        <time>2020-08-13T01:52:13Z</time>
      </trkpt>
      <trkpt lat="42.341011" lon="1.837437">
        <ele>1222.2</ele>
        <time>2020-08-13T01:52:17Z</time>
      </trkpt>
      <trkpt lat="42.340872" lon="1.837863">
        <ele>1224.8</ele>
        <time>2020-08-13T01:52:19Z</time>
      </trkpt>
      <trkpt lat="42.340689" lon="1.838283">
        <ele>1219.2</ele>
        <time>2020-08-13T01:52:21Z</time>
      </trkpt>
      <trkpt lat="42.340388" lon="1.838821">
        <ele>1218.8</ele>
        <time>2020-08-13T01:52:25Z</time>
      </trkpt>
      <trkpt lat="42.340173" lon="1.839159">
        <ele>1218.8</ele>
        <time>2020-08-13T01:52:27Z</time>
      </trkpt>
      <trkpt lat="42.339896" lon="1.839475">
        <ele>1224.0</ele>
        <time>2020-08-13T01:52:29Z</time>
      </trkpt>
      <trkpt lat="42.339507" lon="1.83969">
        <ele>1224.0</ele>
        <time>2020-08-13T01:52:32Z</time>
      </trkpt>
      <trkpt lat="42.339309" lon="1.839735">
        <ele>1224.0</ele>
        <time>2020-08-13T01:52:33Z</time>
      </trkpt>
      <trkpt lat="42.339113" lon="1.839724">
        <ele>1232.0</ele>
        <time>2020-08-13T01:52:35Z</time>
      </trkpt>
      <trkpt lat="42.338914" lon="1.839686">
        <ele>1232.0</ele>
        <time>2020-08-13T01:52:36Z</time>
      </trkpt>
      <trkpt lat="42.338706" lon="1.839598">
        <ele>1232.0</ele>
        <time>2020-08-13T01:52:37Z</time>
      </trkpt>
      <trkpt lat="42.338442" lon="1.839444">
        <ele>1232.0</ele>
        <time>2020-08-13T01:52:39Z</time>
      </trkpt>
      <trkpt lat="42.337881" lon="1.839062">
        <ele>1248.2</ele>
        <time>2020-08-13T01:52:43Z</time>
      </trkpt>
      <trkpt lat="42.337746" lon="1.839002">
        <ele>1248.2</ele>
        <time>2020-08-13T01:52:44Z</time>
      </trkpt>
      <trkpt lat="42.337569" lon="1.838964">
        <ele>1248.2</ele>
        <time>2020-08-13T01:52:45Z</time>
      </trkpt>
      <trkpt lat="42.33707" lon="1.838906">
        <ele>1253.8</ele>
        <time>2020-08-13T01:52:49Z</time>
      </trkpt>
      <trkpt lat="42.336833" lon="1.838844">
        <ele>1253.8</ele>
        <time>2020-08-13T01:52:50Z</time>
      </trkpt>
      <trkpt lat="42.33661" lon="1.838746">
        <ele>1261.4</ele>
        <time>2020-08-13T01:52:52Z</time>
      </trkpt>
      <trkpt lat="42.336409" lon="1.838589">
        <ele>1261.4</ele>
        <time>2020-08-13T01:52:53Z</time>
      </trkpt>
      <trkpt lat="42.335841" lon="1.838013">
        <ele>1266.4</ele>
        <time>2020-08-13T01:52:58Z</time>
      </trkpt>
      <trkpt lat="42.335709" lon="1.837897">
        <ele>1279.2</ele>
        <time>2020-08-13T01:52:59Z</time>
      </trkpt>
      <trkpt lat="42.335427" lon="1.837695">
        <ele>1279.2</ele>
        <time>2020-08-13T01:53:01Z</time>
      </trkpt>
      <trkpt lat="42.335032" lon="1.837559">
        <ele>1279.2</ele>
        <time>2020-08-13T01:53:04Z</time>
      </trkpt>
      <trkpt lat="42.334827" lon="1.837539">
        <ele>1312.2</ele>
        <time>2020-08-13T01:53:06Z</time>
      </trkpt>
      <trkpt lat="42.334618" lon="1.837577">
        <ele>1312.2</ele>
        <time>2020-08-13T01:53:08Z</time>
      </trkpt>
      <trkpt lat="42.334451" lon="1.837649">
        <ele>1312.2</ele>
        <time>2020-08-13T01:53:09Z</time>
      </trkpt>
      <trkpt lat="42.308189" lon="1.854657">
        <ele>1942.0</ele>
        <time>2020-08-13T01:56:22Z</time>
      </trkpt>
      <trkpt lat="42.295784" lon="1.86311">
        <ele>1209.6</ele>
        <time>2020-08-13T01:58:02Z</time>
      </trkpt>
      <trkpt lat="42.295419" lon="1.863298">
        <ele>1209.6</ele>
        <time>2020-08-13T01:58:04Z</time>
      </trkpt>
      <trkpt lat="42.295225" lon="1.863339">
        <ele>1215.2</ele>
        <time>2020-08-13T01:58:05Z</time>
      </trkpt>
      <trkpt lat="42.294893" lon="1.863354">
        <ele>1187.4</ele>
        <time>2020-08-13T01:58:08Z</time>
      </trkpt>
      <trkpt lat="42.29476" lon="1.863313">
        <ele>1187.4</ele>
        <time>2020-08-13T01:58:09Z</time>
      </trkpt>
      <trkpt lat="42.294601" lon="1.863213">
        <ele>1187.4</ele>
        <time>2020-08-13T01:58:10Z</time>
      </trkpt>
      <trkpt lat="42.29455" lon="1.86314">
        <ele>1187.4</ele>
        <time>2020-08-13T01:58:11Z</time>
      </trkpt>
      <trkpt lat="42.294337" lon="1.862969">
        <ele>1187.4</ele>
        <time>2020-08-13T01:58:12Z</time>
      </trkpt>
      <trkpt lat="42.294201" lon="1.862822">
        <ele>1187.4</ele>
        <time>2020-08-13T01:58:13Z</time>
      </trkpt>
      <trkpt lat="42.294076" lon="1.862648">
        <ele>1169.2</ele>
        <time>2020-08-13T01:58:15Z</time>
      </trkpt>
      <trkpt lat="42.293925" lon="1.862396">
        <ele>1170.0</ele>
        <time>2020-08-13T01:58:17Z</time>
      </trkpt>
      <trkpt lat="42.293856" lon="1.86224">
        <ele>1170.0</ele>
        <time>2020-08-13T01:58:17Z</time>
      </trkpt>
      <trkpt lat="42.29374" lon="1.861894">
        <ele>1170.0</ele>
        <time>2020-08-13T01:58:19Z</time>
      </trkpt>
      <trkpt lat="42.293457" lon="1.860747">
        <ele>1195.2</ele>
        <time>2020-08-13T01:58:25Z</time>
      </trkpt>
      <trkpt lat="42.293334" lon="1.860389">
        <ele>1195.2</ele>
        <time>2020-08-13T01:58:27Z</time>
      </trkpt>
      <trkpt lat="42.293276" lon="1.860318">
        <ele>1158.0</ele>
        <time>2020-08-13T01:58:29Z</time>
      </trkpt>
      <trkpt lat="42.29307" lon="1.859886">
        <ele>1184.4</ele>
        <time>2020-08-13T01:58:32Z</time>
      </trkpt>
      <trkpt lat="42.292892" lon="1.859633">
        <ele>1184.4</ele>
        <time>2020-08-13T01:58:34Z</time>
      </trkpt>
      <trkpt lat="42.292555" lon="1.859259">
        <ele>1184.4</ele>
        <time>2020-08-13T01:58:37Z</time>
      </trkpt>
      <trkpt lat="42.292384" lon="1.859131">
        <ele>1189.4</ele>
        <time>2020-08-13T01:58:38Z</time>
      </trkpt>
      <trkpt lat="42.292113" lon="1.858992">
        <ele>1189.4</ele>
        <time>2020-08-13T01:58:40Z</time>
      </trkpt>
      <trkpt lat="42.29137" lon="1.858691">
        <ele>1159.8</ele>
        <time>2020-08-13T01:58:45Z</time>
      </trkpt>
      <trkpt lat="42.29078" lon="1.858305">
        <ele>1138.6</ele>
        <time>2020-08-13T01:58:50Z</time>
      </trkpt>
      <trkpt lat="42.290386" lon="1.857721">
        <ele>1138.6</ele>
        <time>2020-08-13T01:58:54Z</time>
      </trkpt>
      <trkpt lat="42.290043" lon="1.85703">
        <ele>1149.8</ele>
        <time>2020-08-13T01:58:58Z</time>
      </trkpt>
      <trkpt lat="42.289434" lon="1.855429">
        <ele>1123.8</ele>
        <time>2020-08-13T01:59:06Z</time>
      </trkpt>
      <trkpt lat="42.289167" lon="1.854528">
        <ele>1129.4</ele>
        <time>2020-08-13T01:59:11Z</time>
      </trkpt>
      <trkpt lat="42.289049" lon="1.854214">
        <ele>1098.8</ele>
        <time>2020-08-13T01:59:14Z</time>
      </trkpt>
      <trkpt lat="42.288927" lon="1.853981">
        <ele>1117.8</ele>
        <time>2020-08-13T01:59:15Z</time>
      </trkpt>
      <trkpt lat="42.288763" lon="1.853753">
        <ele>1117.8</ele>
        <time>2020-08-13T01:59:17Z</time>
      </trkpt>
      <trkpt lat="42.288595" lon="1.853567">
        <ele>1117.8</ele>
        <time>2020-08-13T01:59:18Z</time>
      </trkpt>
      <trkpt lat="42.28808" lon="1.85311">
        <ele>1102.6</ele>
        <time>2020-08-13T01:59:22Z</time>
      </trkpt>
      <trkpt lat="42.287624" lon="1.852554">
        <ele>1102.6</ele>
        <time>2020-08-13T01:59:26Z</time>
      </trkpt>
      <trkpt lat="42.286818" lon="1.851395">
        <ele>1110.6</ele>
        <time>2020-08-13T01:59:34Z</time>
      </trkpt>
      <trkpt lat="42.286032" lon="1.850697">
        <ele>1109.0</ele>
        <time>2020-08-13T01:59:40Z</time>
      </trkpt>
      <trkpt lat="42.285274" lon="1.850237">
        <ele>1088.2</ele>
        <time>2020-08-13T01:59:46Z</time>
      </trkpt>
      <trkpt lat="42.285026" lon="1.850127">
        <ele>1088.2</ele>
        <time>2020-08-13T01:59:47Z</time>
      </trkpt>
      <trkpt lat="42.284776" lon="1.850063">
        <ele>1084.0</ele>
        <time>2020-08-13T01:59:49Z</time>
      </trkpt>
      <trkpt lat="42.284522" lon="1.850062">
        <ele>1084.0</ele>
        <time>2020-08-13T01:59:51Z</time>
      </trkpt>
      <trkpt lat="42.284256" lon="1.850108">
        <ele>1084.0</ele>
        <time>2020-08-13T01:59:52Z</time>
      </trkpt>
      <trkpt lat="42.284002" lon="1.850179">
        <ele>1084.2</ele>
        <time>2020-08-13T01:59:54Z</time>
      </trkpt>
      <trkpt lat="42.283756" lon="1.850291">
        <ele>1084.2</ele>
        <time>2020-08-13T01:59:56Z</time>
      </trkpt>
      <trkpt lat="42.283415" lon="1.850556">
        <ele>1084.2</ele>
        <time>2020-08-13T01:59:58Z</time>
      </trkpt>
      <trkpt lat="42.281904" lon="1.852332">
        <ele>1041.4</ele>
        <time>2020-08-13T02:00:12Z</time>
      </trkpt>
      <trkpt lat="42.281612" lon="1.852635">
        <ele>1050.6</ele>
        <time>2020-08-13T02:00:14Z</time>
      </trkpt>
      <trkpt lat="42.281394" lon="1.852812">
        <ele>1050.6</ele>
        <time>2020-08-13T02:00:16Z</time>
      </trkpt>
      <trkpt lat="42.281175" lon="1.852944">
        <ele>1050.6</ele>
        <time>2020-08-13T02:00:17Z</time>
      </trkpt>
      <trkpt lat="42.280953" lon="1.853037">
        <ele>1050.6</ele>
        <time>2020-08-13T02:00:19Z</time>
      </trkpt>
      <trkpt lat="42.280695" lon="1.853047">
        <ele>1050.2</ele>
        <time>2020-08-13T02:00:20Z</time>
      </trkpt>
      <trkpt lat="42.280563" lon="1.85302">
        <ele>1050.2</ele>
        <time>2020-08-13T02:00:21Z</time>
      </trkpt>
      <trkpt lat="42.280433" lon="1.852966">
        <ele>1050.2</ele>
        <time>2020-08-13T02:00:22Z</time>
      </trkpt>
      <trkpt lat="42.279896" lon="1.85264">
        <ele>1051.0</ele>
        <time>2020-08-13T02:00:26Z</time>
      </trkpt>
      <trkpt lat="42.279404" lon="1.852368">
        <ele>1025.4</ele>
        <time>2020-08-13T02:00:30Z</time>
      </trkpt>
      <trkpt lat="42.279127" lon="1.852285">
        <ele>1015.0</ele>
        <time>2020-08-13T02:00:32Z</time>
      </trkpt>
      <trkpt lat="42.278719" lon="1.852306">
        <ele>1015.0</ele>
        <time>2020-08-13T02:00:34Z</time>
      </trkpt>
      <trkpt lat="42.278253" lon="1.852498">
        <ele>997.8</ele>
        <time>2020-08-13T02:00:38Z</time>
      </trkpt>
      <trkpt lat="42.277693" lon="1.852796">
        <ele>1028.0</ele>
        <time>2020-08-13T02:00:42Z</time>
      </trkpt>
      <trkpt lat="42.277307" lon="1.852943">
        <ele>1015.4</ele>
        <time>2020-08-13T02:00:45Z</time>
      </trkpt>
      <trkpt lat="42.275936" lon="1.853136">
        <ele>998.8</ele>
        <time>2020-08-13T02:00:54Z</time>
      </trkpt>
      <trkpt lat="42.272302" lon="1.853782">
        <ele>996.0</ele>
        <time>2020-08-13T02:01:18Z</time>
      </trkpt>
      <trkpt lat="42.271958" lon="1.853919">
        <ele>996.0</ele>
        <time>2020-08-13T02:01:20Z</time>
      </trkpt>
      <trkpt lat="42.271191" lon="1.854481">
        <ele>995.8</ele>
        <time>2020-08-13T02:01:26Z</time>
      </trkpt>
      <trkpt lat="42.270916" lon="1.854619">
        <ele>995.8</ele>
        <time>2020-08-13T02:01:27Z</time>
      </trkpt>
      <trkpt lat="42.27055" lon="1.854687">
        <ele>992.6</ele>
        <time>2020-08-13T02:01:30Z</time>
      </trkpt>
      <trkpt lat="42.270106" lon="1.854593">
        <ele>992.6</ele>
        <time>2020-08-13T02:01:33Z</time>
      </trkpt>
      <trkpt lat="42.269151" lon="1.854315">
        <ele>1009.2</ele>
        <time>2020-08-13T02:01:39Z</time>
      </trkpt>
      <trkpt lat="42.268804" lon="1.854184">
        <ele>1009.2</ele>
        <time>2020-08-13T02:01:42Z</time>
      </trkpt>
      <trkpt lat="42.268481" lon="1.853975">
        <ele>971.6</ele>
        <time>2020-08-13T02:01:45Z</time>
      </trkpt>
      <trkpt lat="42.26816" lon="1.853627">
        <ele>997.6</ele>
        <time>2020-08-13T02:01:48Z</time>
      </trkpt>
      <trkpt lat="42.267791" lon="1.853112">
        <ele>957.0</ele>
        <time>2020-08-13T02:01:52Z</time>
      </trkpt>
      <trkpt lat="42.266686" lon="1.852288">
        <ele>936.2</ele>
        <time>2020-08-13T02:02:00Z</time>
      </trkpt>
      <trkpt lat="42.266112" lon="1.852091">
        <ele>939.2</ele>
        <time>2020-08-13T02:02:04Z</time>
      </trkpt>
      <trkpt lat="42.265646" lon="1.852142">
        <ele>925.4</ele>
        <time>2020-08-13T02:02:07Z</time>
      </trkpt>
      <trkpt lat="42.264715" lon="1.85257">
        <ele>942.2</ele>
        <time>2020-08-13T02:02:14Z</time>
      </trkpt>
      <trkpt lat="42.264226" lon="1.852589">
        <ele>942.2</ele>
        <time>2020-08-13T02:02:17Z</time>
      </trkpt>
      <trkpt lat="42.263547" lon="1.852476">
        <ele>903.8</ele>
        <time>2020-08-13T02:02:22Z</time>
      </trkpt>
      <trkpt lat="42.263002" lon="1.852566">
        <ele>925.0</ele>
        <time>2020-08-13T02:02:26Z</time>
      </trkpt>
      <trkpt lat="42.262548" lon="1.852684">
        <ele>925.0</ele>
        <time>2020-08-13T02:02:29Z</time>
      </trkpt>
      <trkpt lat="42.262139" lon="1.852837">
        <ele>906.2</ele>
        <time>2020-08-13T02:02:32Z</time>
      </trkpt>
      <trkpt lat="42.261858" lon="1.853068">
        <ele>906.2</ele>
        <time>2020-08-13T02:02:34Z</time>
      </trkpt>
      <trkpt lat="42.261625" lon="1.853451">
        <ele>898.2</ele>
        <time>2020-08-13T02:02:36Z</time>
      </trkpt>
      <trkpt lat="42.261103" lon="1.854806">
        <ele>905.4</ele>
        <time>2020-08-13T02:02:44Z</time>
      </trkpt>
      <trkpt lat="42.26083" lon="1.855131">
        <ele>897.8</ele>
        <time>2020-08-13T02:02:46Z</time>
      </trkpt>
      <trkpt lat="42.259996" lon="1.855756">
        <ele>884.0</ele>
        <time>2020-08-13T02:02:52Z</time>
      </trkpt>
      <trkpt lat="42.259829" lon="1.855905">
        <ele>888.6</ele>
        <time>2020-08-13T02:02:54Z</time>
      </trkpt>
      <trkpt lat="42.259128" lon="1.856853">
        <ele>872.4</ele>
        <time>2020-08-13T02:03:00Z</time>
      </trkpt>
      <trkpt lat="42.258791" lon="1.857497">
        <ele>872.4</ele>
        <time>2020-08-13T02:03:04Z</time>
      </trkpt>
      <trkpt lat="42.258461" lon="1.858335">
        <ele>881.0</ele>
        <time>2020-08-13T02:03:08Z</time>
      </trkpt>
      <trkpt lat="42.258238" lon="1.859274">
        <ele>860.0</ele>
        <time>2020-08-13T02:03:13Z</time>
      </trkpt>
      <trkpt lat="42.258152" lon="1.860049">
        <ele>862.8</ele>
        <time>2020-08-13T02:03:17Z</time>
      </trkpt>
      <trkpt lat="42.258152" lon="1.86079">
        <ele>862.8</ele>
        <time>2020-08-13T02:03:21Z</time>
      </trkpt>
      <trkpt lat="42.258279" lon="1.862248">
        <ele>853.0</ele>
        <time>2020-08-13T02:03:28Z</time>
      </trkpt>
      <trkpt lat="42.258253" lon="1.862807">
        <ele>842.0</ele>
        <time>2020-08-13T02:03:31Z</time>
      </trkpt>
      <trkpt lat="42.258222" lon="1.86303">
        <ele>842.0</ele>
        <time>2020-08-13T02:03:32Z</time>
      </trkpt>
      <trkpt lat="42.258142" lon="1.863418">
        <ele>831.8</ele>
        <time>2020-08-13T02:03:34Z</time>
      </trkpt>
      <trkpt lat="42.258035" lon="1.863749">
        <ele>831.8</ele>
        <time>2020-08-13T02:03:35Z</time>
      </trkpt>
      <trkpt lat="42.257926" lon="1.86401">
        <ele>831.8</ele>
        <time>2020-08-13T02:03:37Z</time>
      </trkpt>
      <trkpt lat="42.25774" lon="1.86435">
        <ele>833.0</ele>
        <time>2020-08-13T02:03:39Z</time>
      </trkpt>
      <trkpt lat="42.257518" lon="1.864656">
        <ele>833.0</ele>
        <time>2020-08-13T02:03:41Z</time>
      </trkpt>
      <trkpt lat="42.257279" lon="1.864909">
        <ele>825.2</ele>
        <time>2020-08-13T02:03:43Z</time>
      </trkpt>
      <trkpt lat="42.256987" lon="1.86514">
        <ele>836.8</ele>
        <time>2020-08-13T02:03:45Z</time>
      </trkpt>
      <trkpt lat="42.256695" lon="1.865289">
        <ele>836.8</ele>
        <time>2020-08-13T02:03:47Z</time>
      </trkpt>
      <trkpt lat="42.256518" lon="1.865348">
        <ele>828.8</ele>
        <time>2020-08-13T02:03:49Z</time>
      </trkpt>
      <trkpt lat="42.256247" lon="1.865405">
        <ele>828.8</ele>
        <time>2020-08-13T02:03:50Z</time>
      </trkpt>
      <trkpt lat="42.255915" lon="1.865431">
        <ele>828.8</ele>
        <time>2020-08-13T02:03:53Z</time>
      </trkpt>
      <trkpt lat="42.255268" lon="1.865442">
        <ele>825.8</ele>
        <time>2020-08-13T02:03:57Z</time>
      </trkpt>
      <trkpt lat="42.254883" lon="1.865501">
        <ele>820.0</ele>
        <time>2020-08-13T02:03:59Z</time>
      </trkpt>
      <trkpt lat="42.254634" lon="1.865579">
        <ele>820.0</ele>
        <time>2020-08-13T02:04:01Z</time>
      </trkpt>
      <trkpt lat="42.254439" lon="1.865663">
        <ele>820.0</ele>
        <time>2020-08-13T02:04:02Z</time>
      </trkpt>
      <trkpt lat="42.254262" lon="1.865762">
        <ele>820.0</ele>
        <time>2020-08-13T02:04:04Z</time>
      </trkpt>
      <trkpt lat="42.253965" lon="1.865983">
        <ele>813.6</ele>
        <time>2020-08-13T02:04:06Z</time>
      </trkpt>
      <trkpt lat="42.253129" lon="1.866788">
        <ele>805.2</ele>
        <time>2020-08-13T02:04:12Z</time>
      </trkpt>
      <trkpt lat="42.252796" lon="1.867067">
        <ele>805.2</ele>
        <time>2020-08-13T02:04:15Z</time>
      </trkpt>
      <trkpt lat="42.252392" lon="1.867328">
        <ele>797.0</ele>
        <time>2020-08-13T02:04:18Z</time>
      </trkpt>
      <trkpt lat="42.252209" lon="1.86742">
        <ele>797.0</ele>
        <time>2020-08-13T02:04:19Z</time>
      </trkpt>
      <trkpt lat="42.251894" lon="1.867542">
        <ele>802.2</ele>
        <time>2020-08-13T02:04:21Z</time>
      </trkpt>
      <trkpt lat="42.25149" lon="1.867647">
        <ele>797.8</ele>
        <time>2020-08-13T02:04:24Z</time>
      </trkpt>
      <trkpt lat="42.250313" lon="1.867787">
        <ele>792.4</ele>
        <time>2020-08-13T02:04:32Z</time>
      </trkpt>
      <trkpt lat="42.249927" lon="1.867893">
        <ele>784.0</ele>
        <time>2020-08-13T02:04:34Z</time>
      </trkpt>
      <trkpt lat="42.24974" lon="1.867967">
        <ele>784.0</ele>
        <time>2020-08-13T02:04:36Z</time>
      </trkpt>
      <trkpt lat="42.249343" lon="1.868175">
        <ele>784.0</ele>
        <time>2020-08-13T02:04:38Z</time>
      </trkpt>
      <trkpt lat="42.248527" lon="1.868687">
        <ele>781.4</ele>
        <time>2020-08-13T02:04:44Z</time>
      </trkpt>
      <trkpt lat="42.248191" lon="1.868856">
        <ele>773.6</ele>
        <time>2020-08-13T02:04:47Z</time>
      </trkpt>
      <trkpt lat="42.247882" lon="1.868956">
        <ele>773.6</ele>
        <time>2020-08-13T02:04:49Z</time>
      </trkpt>
      <trkpt lat="42.247473" lon="1.869037">
        <ele>767.4</ele>
        <time>2020-08-13T02:04:51Z</time>
      </trkpt>
      <trkpt lat="42.24707" lon="1.869034">
        <ele>767.4</ele>
        <time>2020-08-13T02:04:54Z</time>
      </trkpt>
      <trkpt lat="42.246605" lon="1.869058">
        <ele>763.8</ele>
        <time>2020-08-13T02:04:57Z</time>
      </trkpt>
      <trkpt lat="42.246093" lon="1.869182">
        <ele>767.2</ele>
        <time>2020-08-13T02:05:00Z</time>
      </trkpt>
      <trkpt lat="42.24591" lon="1.869257">
        <ele>767.2</ele>
        <time>2020-08-13T02:05:02Z</time>
      </trkpt>
      <trkpt lat="42.245515" lon="1.869505">
        <ele>763.6</ele>
        <time>2020-08-13T02:05:05Z</time>
      </trkpt>
      <trkpt lat="42.245261" lon="1.869727">
        <ele>763.6</ele>
        <time>2020-08-13T02:05:06Z</time>
      </trkpt>
      <trkpt lat="42.245038" lon="1.869939">
        <ele>763.6</ele>
        <time>2020-08-13T02:05:08Z</time>
      </trkpt>
      <trkpt lat="42.244847" lon="1.870171">
        <ele>760.6</ele>
        <time>2020-08-13T02:05:10Z</time>
      </trkpt>
      <trkpt lat="42.242736" lon="1.872139">
        <ele>756.6</ele>
        <time>2020-08-13T02:05:27Z</time>
      </trkpt>
      <trkpt lat="42.242599" lon="1.872294">
        <ele>756.6</ele>
        <time>2020-08-13T02:05:28Z</time>
      </trkpt>
      <trkpt lat="42.241873" lon="1.873228">
        <ele>752.8</ele>
        <time>2020-08-13T02:05:34Z</time>
      </trkpt>
      <trkpt lat="42.241647" lon="1.873446">
        <ele>753.6</ele>
        <time>2020-08-13T02:05:36Z</time>
      </trkpt>
      <trkpt lat="42.241485" lon="1.873571">
        <ele>753.6</ele>
        <time>2020-08-13T02:05:37Z</time>
      </trkpt>
      <trkpt lat="42.241286" lon="1.873658">
        <ele>753.6</ele>
        <time>2020-08-13T02:05:39Z</time>
      </trkpt>
      <trkpt lat="42.241092" lon="1.873703">
        <ele>753.6</ele>
        <time>2020-08-13T02:05:40Z</time>
      </trkpt>
      <trkpt lat="42.240101" lon="1.873792">
        <ele>749.0</ele>
        <time>2020-08-13T02:05:46Z</time>
      </trkpt>
      <trkpt lat="42.239887" lon="1.873856">
        <ele>749.6</ele>
        <time>2020-08-13T02:05:48Z</time>
      </trkpt>
      <trkpt lat="42.239699" lon="1.873951">
        <ele>749.6</ele>
        <time>2020-08-13T02:05:49Z</time>
      </trkpt>
      <trkpt lat="42.239538" lon="1.874069">
        <ele>749.6</ele>
        <time>2020-08-13T02:05:50Z</time>
      </trkpt>
      <trkpt lat="42.238723" lon="1.874743">
        <ele>746.8</ele>
        <time>2020-08-13T02:05:57Z</time>
      </trkpt>
      <trkpt lat="42.238403" lon="1.874969">
        <ele>746.8</ele>
        <time>2020-08-13T02:05:59Z</time>
      </trkpt>
      <trkpt lat="42.238249" lon="1.875032">
        <ele>742.0</ele>
        <time>2020-08-13T02:06:00Z</time>
      </trkpt>
      <trkpt lat="42.237815" lon="1.875271">
        <ele>742.0</ele>
        <time>2020-08-13T02:06:03Z</time>
      </trkpt>
      <trkpt lat="42.237424" lon="1.875524">
        <ele>748.8</ele>
        <time>2020-08-13T02:06:06Z</time>
      </trkpt>
      <trkpt lat="42.237133" lon="1.875793">
        <ele>748.8</ele>
        <time>2020-08-13T02:06:08Z</time>
      </trkpt>
      <trkpt lat="42.23691" lon="1.876127">
        <ele>738.0</ele>
        <time>2020-08-13T02:06:10Z</time>
      </trkpt>
      <trkpt lat="42.236677" lon="1.876622">
        <ele>738.0</ele>
        <time>2020-08-13T02:06:13Z</time>
      </trkpt>
      <trkpt lat="42.236304" lon="1.877502">
        <ele>735.4</ele>
        <time>2020-08-13T02:06:18Z</time>
      </trkpt>
      <trkpt lat="42.235995" lon="1.878053">
        <ele>735.4</ele>
        <time>2020-08-13T02:06:21Z</time>
      </trkpt>
      <trkpt lat="42.235149" lon="1.879402">
        <ele>752.6</ele>
        <time>2020-08-13T02:06:30Z</time>
      </trkpt>
      <trkpt lat="42.234849" lon="1.879925">
        <ele>743.2</ele>
        <time>2020-08-13T02:06:33Z</time>
      </trkpt>
      <trkpt lat="42.234657" lon="1.880384">
        <ele>759.2</ele>
        <time>2020-08-13T02:06:36Z</time>
      </trkpt>
      <trkpt lat="42.234483" lon="1.880898">
        <ele>780.6</ele>
        <time>2020-08-13T02:06:39Z</time>
      </trkpt>
      <trkpt lat="42.234197" lon="1.881886">
        <ele>797.4</ele>
        <time>2020-08-13T02:06:44Z</time>
      </trkpt>
      <trkpt lat="42.23403" lon="1.882353">
        <ele>775.0</ele>
        <time>2020-08-13T02:06:47Z</time>
      </trkpt>
      <trkpt lat="42.233862" lon="1.882752">
        <ele>770.8</ele>
        <time>2020-08-13T02:06:49Z</time>
      </trkpt>
      <trkpt lat="42.233707" lon="1.883023">
        <ele>770.8</ele>
        <time>2020-08-13T02:06:51Z</time>
      </trkpt>
      <trkpt lat="42.233355" lon="1.883479">
        <ele>759.0</ele>
        <time>2020-08-13T02:06:54Z</time>
      </trkpt>
      <trkpt lat="42.232948" lon="1.883798">
        <ele>735.0</ele>
        <time>2020-08-13T02:06:57Z</time>
      </trkpt>
      <trkpt lat="42.232623" lon="1.883934">
        <ele>735.0</ele>
        <time>2020-08-13T02:07:00Z</time>
      </trkpt>
      <trkpt lat="42.232301" lon="1.883983">
        <ele>731.4</ele>
        <time>2020-08-13T02:07:02Z</time>
      </trkpt>
      <trkpt lat="42.232078" lon="1.883973">
        <ele>731.4</ele>
        <time>2020-08-13T02:07:03Z</time>
      </trkpt>
      <trkpt lat="42.231671" lon="1.883861">
        <ele>731.4</ele>
        <time>2020-08-13T02:07:06Z</time>
      </trkpt>
      <trkpt lat="42.231454" lon="1.883743">
        <ele>751.6</ele>
        <time>2020-08-13T02:07:08Z</time>
      </trkpt>
      <trkpt lat="42.231211" lon="1.88355">
        <ele>751.6</ele>
        <time>2020-08-13T02:07:10Z</time>
      </trkpt>
      <trkpt lat="42.23111" lon="1.883451">
        <ele>751.6</ele>
        <time>2020-08-13T02:07:10Z</time>
      </trkpt>
      <trkpt lat="42.23087" lon="1.883133">
        <ele>736.6</ele>
        <time>2020-08-13T02:07:13Z</time>
      </trkpt>
      <trkpt lat="42.230471" lon="1.882432">
        <ele>736.2</ele>
        <time>2020-08-13T02:07:17Z</time>
      </trkpt>
      <trkpt lat="42.23025" lon="1.88209">
        <ele>736.2</ele>
        <time>2020-08-13T02:07:19Z</time>
      </trkpt>
      <trkpt lat="42.230089" lon="1.88189">
        <ele>736.2</ele>
        <time>2020-08-13T02:07:21Z</time>
      </trkpt>
      <trkpt lat="42.229774" lon="1.881564">
        <ele>735.4</ele>
        <time>2020-08-13T02:07:23Z</time>
      </trkpt>
      <trkpt lat="42.229104" lon="1.880934">
        <ele>749.6</ele>
        <time>2020-08-13T02:07:29Z</time>
      </trkpt>
      <trkpt lat="42.228927" lon="1.880729">
        <ele>737.0</ele>
        <time>2020-08-13T02:07:30Z</time>
      </trkpt>
      <trkpt lat="42.228613" lon="1.880264">
        <ele>737.0</ele>
        <time>2020-08-13T02:07:33Z</time>
      </trkpt>
      <trkpt lat="42.228364" lon="1.879666">
        <ele>729.8</ele>
        <time>2020-08-13T02:07:37Z</time>
      </trkpt>
      <trkpt lat="42.228319" lon="1.8795">
        <ele>746.2</ele>
        <time>2020-08-13T02:07:38Z</time>
      </trkpt>
      <trkpt lat="42.228225" lon="1.879035">
        <ele>734.0</ele>
        <time>2020-08-13T02:07:40Z</time>
      </trkpt>
      <trkpt lat="42.228198" lon="1.878755">
        <ele>734.0</ele>
        <time>2020-08-13T02:07:42Z</time>
      </trkpt>
      <trkpt lat="42.228144" lon="1.877621">
        <ele>720.8</ele>
        <time>2020-08-13T02:07:47Z</time>
      </trkpt>
      <trkpt lat="42.228076" lon="1.877077">
        <ele>716.8</ele>
        <time>2020-08-13T02:07:50Z</time>
      </trkpt>
      <trkpt lat="42.227996" lon="1.876721">
        <ele>716.8</ele>
        <time>2020-08-13T02:07:52Z</time>
      </trkpt>
      <trkpt lat="42.227788" lon="1.87617">
        <ele>725.2</ele>
        <time>2020-08-13T02:07:55Z</time>
      </trkpt>
      <trkpt lat="42.227642" lon="1.87591">
        <ele>725.2</ele>
        <time>2020-08-13T02:07:56Z</time>
      </trkpt>
      <trkpt lat="42.227452" lon="1.875623">
        <ele>725.0</ele>
        <time>2020-08-13T02:07:58Z</time>
      </trkpt>
      <trkpt lat="42.227332" lon="1.875475">
        <ele>725.0</ele>
        <time>2020-08-13T02:07:59Z</time>
      </trkpt>
      <trkpt lat="42.227087" lon="1.87523">
        <ele>725.0</ele>
        <time>2020-08-13T02:08:01Z</time>
      </trkpt>
      <trkpt lat="42.226323" lon="1.874569">
        <ele>727.6</ele>
        <time>2020-08-13T02:08:07Z</time>
      </trkpt>
      <trkpt lat="42.225734" lon="1.874104">
        <ele>727.4</ele>
        <time>2020-08-13T02:08:12Z</time>
      </trkpt>
      <trkpt lat="42.224878" lon="1.873493">
        <ele>716.4</ele>
        <time>2020-08-13T02:08:18Z</time>
      </trkpt>
      <trkpt lat="42.224427" lon="1.873228">
        <ele>732.6</ele>
        <time>2020-08-13T02:08:21Z</time>
      </trkpt>
      <trkpt lat="42.224056" lon="1.873052">
        <ele>728.6</ele>
        <time>2020-08-13T02:08:24Z</time>
      </trkpt>
      <trkpt lat="42.223537" lon="1.872862">
        <ele>728.6</ele>
        <time>2020-08-13T02:08:27Z</time>
      </trkpt>
      <trkpt lat="42.221686" lon="1.872266">
        <ele>721.4</ele>
        <time>2020-08-13T02:08:40Z</time>
      </trkpt>
      <trkpt lat="42.221471" lon="1.872176">
        <ele>713.0</ele>
        <time>2020-08-13T02:08:41Z</time>
      </trkpt>
      <trkpt lat="42.221237" lon="1.872038">
        <ele>713.0</ele>
        <time>2020-08-13T02:08:43Z</time>
      </trkpt>
      <trkpt lat="42.221003" lon="1.871871">
        <ele>713.0</ele>
        <time>2020-08-13T02:08:45Z</time>
      </trkpt>
      <trkpt lat="42.219044" lon="1.87014">
        <ele>713.8</ele>
        <time>2020-08-13T02:09:00Z</time>
      </trkpt>
      <trkpt lat="42.218848" lon="1.869939">
        <ele>735.4</ele>
        <time>2020-08-13T02:09:02Z</time>
      </trkpt>
      <trkpt lat="42.218527" lon="1.869671">
        <ele>735.4</ele>
        <time>2020-08-13T02:09:04Z</time>
      </trkpt>
      <trkpt lat="42.218027" lon="1.869373">
        <ele>718.4</ele>
        <time>2020-08-13T02:09:08Z</time>
      </trkpt>
      <trkpt lat="42.217581" lon="1.869178">
        <ele>718.4</ele>
        <time>2020-08-13T02:09:11Z</time>
      </trkpt>
      <trkpt lat="42.217374" lon="1.869107">
        <ele>722.0</ele>
        <time>2020-08-13T02:09:12Z</time>
      </trkpt>
      <trkpt lat="42.216983" lon="1.869011">
        <ele>722.0</ele>
        <time>2020-08-13T02:09:15Z</time>
      </trkpt>
      <trkpt lat="42.216515" lon="1.86894">
        <ele>721.0</ele>
        <time>2020-08-13T02:09:18Z</time>
      </trkpt>
      <trkpt lat="42.216432" lon="1.868947">
        <ele>721.0</ele>
        <time>2020-08-13T02:09:19Z</time>
      </trkpt>
      <trkpt lat="42.215522" lon="1.86882">
        <ele>729.2</ele>
        <time>2020-08-13T02:09:25Z</time>
      </trkpt>
      <trkpt lat="42.215101" lon="1.868808">
        <ele>729.2</ele>
        <time>2020-08-13T02:09:27Z</time>
      </trkpt>
      <trkpt lat="42.214886" lon="1.868846">
        <ele>745.0</ele>
        <time>2020-08-13T02:09:29Z</time>
      </trkpt>
      <trkpt lat="42.214744" lon="1.868918">
        <ele>745.0</ele>
        <time>2020-08-13T02:09:30Z</time>
      </trkpt>
      <trkpt lat="42.213704" lon="1.869556">
        <ele>723.2</ele>
        <time>2020-08-13T02:09:38Z</time>
      </trkpt>
      <trkpt lat="42.21342" lon="1.869678">
        <ele>723.2</ele>
        <time>2020-08-13T02:09:39Z</time>
      </trkpt>
      <trkpt lat="42.21327" lon="1.869701">
        <ele>711.0</ele>
        <time>2020-08-13T02:09:41Z</time>
      </trkpt>
      <trkpt lat="42.213101" lon="1.86969">
        <ele>711.0</ele>
        <time>2020-08-13T02:09:42Z</time>
      </trkpt>
      <trkpt lat="42.212907" lon="1.869643">
        <ele>711.0</ele>
        <time>2020-08-13T02:09:43Z</time>
      </trkpt>
      <trkpt lat="42.212676" lon="1.869493">
        <ele>711.0</ele>
        <time>2020-08-13T02:09:45Z</time>
      </trkpt>
      <trkpt lat="42.212305" lon="1.869145">
        <ele>701.8</ele>
        <time>2020-08-13T02:09:48Z</time>
      </trkpt>
      <trkpt lat="42.21194" lon="1.868851">
        <ele>701.8</ele>
        <time>2020-08-13T02:09:50Z</time>
      </trkpt>
      <trkpt lat="42.211283" lon="1.868425">
        <ele>700.6</ele>
        <time>2020-08-13T02:09:55Z</time>
      </trkpt>
      <trkpt lat="42.211082" lon="1.868353">
        <ele>700.6</ele>
        <time>2020-08-13T02:09:57Z</time>
      </trkpt>
      <trkpt lat="42.210939" lon="1.868342">
        <ele>700.6</ele>
        <time>2020-08-13T02:09:57Z</time>
      </trkpt>
      <trkpt lat="42.210716" lon="1.868378">
        <ele>703.6</ele>
        <time>2020-08-13T02:09:59Z</time>
      </trkpt>
      <trkpt lat="42.210509" lon="1.868453">
        <ele>703.6</ele>
        <time>2020-08-13T02:10:00Z</time>
      </trkpt>
      <trkpt lat="42.210163" lon="1.868696">
        <ele>703.6</ele>
        <time>2020-08-13T02:10:03Z</time>
      </trkpt>
      <trkpt lat="42.209681" lon="1.869068">
        <ele>704.0</ele>
        <time>2020-08-13T02:10:07Z</time>
      </trkpt>
      <trkpt lat="42.209518" lon="1.869158">
        <ele>704.0</ele>
        <time>2020-08-13T02:10:08Z</time>
      </trkpt>
      <trkpt lat="42.209342" lon="1.869211">
        <ele>712.8</ele>
        <time>2020-08-13T02:10:09Z</time>
      </trkpt>
      <trkpt lat="42.209172" lon="1.869237">
        <ele>712.8</ele>
        <time>2020-08-13T02:10:10Z</time>
      </trkpt>
      <trkpt lat="42.208992" lon="1.869229">
        <ele>719.4</ele>
        <time>2020-08-13T02:10:11Z</time>
      </trkpt>
      <trkpt lat="42.208693" lon="1.86915">
        <ele>704.4</ele>
        <time>2020-08-13T02:10:13Z</time>
      </trkpt>
      <trkpt lat="42.208308" lon="1.869012">
        <ele>707.4</ele>
        <time>2020-08-13T02:10:16Z</time>
      </trkpt>
      <trkpt lat="42.208081" lon="1.868914">
        <ele>707.4</ele>
        <time>2020-08-13T02:10:18Z</time>
      </trkpt>
      <trkpt lat="42.207951" lon="1.868832">
        <ele>707.4</ele>
        <time>2020-08-13T02:10:19Z</time>
      </trkpt>
      <trkpt lat="42.207853" lon="1.868742">
        <ele>707.4</ele>
        <time>2020-08-13T02:10:19Z</time>
      </trkpt>
      <trkpt lat="42.207272" lon="1.867803">
        <ele>698.6</ele>
        <time>2020-08-13T02:10:25Z</time>
      </trkpt>
      <trkpt lat="42.207125" lon="1.86763">
        <ele>698.6</ele>
        <time>2020-08-13T02:10:26Z</time>
      </trkpt>
      <trkpt lat="42.206961" lon="1.867491">
        <ele>702.4</ele>
        <time>2020-08-13T02:10:28Z</time>
      </trkpt>
      <trkpt lat="42.206418" lon="1.867262">
        <ele>694.0</ele>
        <time>2020-08-13T02:10:31Z</time>
      </trkpt>
      <trkpt lat="42.206015" lon="1.867135">
        <ele>694.0</ele>
        <time>2020-08-13T02:10:34Z</time>
      </trkpt>
      <trkpt lat="42.205515" lon="1.86705">
        <ele>691.4</ele>
        <time>2020-08-13T02:10:37Z</time>
      </trkpt>
      <trkpt lat="42.205278" lon="1.867048">
        <ele>691.4</ele>
        <time>2020-08-13T02:10:39Z</time>
      </trkpt>
      <trkpt lat="42.20507" lon="1.867075">
        <ele>691.4</ele>
        <time>2020-08-13T02:10:40Z</time>
      </trkpt>
      <trkpt lat="42.204888" lon="1.867126">
        <ele>695.6</ele>
        <time>2020-08-13T02:10:42Z</time>
      </trkpt>
      <trkpt lat="42.20453" lon="1.867294">
        <ele>695.6</ele>
        <time>2020-08-13T02:10:44Z</time>
      </trkpt>
      <trkpt lat="42.203038" lon="1.868262">
        <ele>701.6</ele>
        <time>2020-08-13T02:10:55Z</time>
      </trkpt>
      <trkpt lat="42.202595" lon="1.868464">
        <ele>696.0</ele>
        <time>2020-08-13T02:10:58Z</time>
      </trkpt>
      <trkpt lat="42.200653" lon="1.869223">
        <ele>704.2</ele>
        <time>2020-08-13T02:11:11Z</time>
      </trkpt>
      <trkpt lat="42.200321" lon="1.869261">
        <ele>704.2</ele>
        <time>2020-08-13T02:11:13Z</time>
      </trkpt>
      <trkpt lat="42.200119" lon="1.869197">
        <ele>704.2</ele>
        <time>2020-08-13T02:11:15Z</time>
      </trkpt>
      <trkpt lat="42.199428" lon="1.868783">
        <ele>690.6</ele>
        <time>2020-08-13T02:11:20Z</time>
      </trkpt>
      <trkpt lat="42.199245" lon="1.868717">
        <ele>690.6</ele>
        <time>2020-08-13T02:11:21Z</time>
      </trkpt>
      <trkpt lat="42.198054" lon="1.868617">
        <ele>682.0</ele>
        <time>2020-08-13T02:11:29Z</time>
      </trkpt>
      <trkpt lat="42.19787" lon="1.868669">
        <ele>682.0</ele>
        <time>2020-08-13T02:11:30Z</time>
      </trkpt>
      <trkpt lat="42.197588" lon="1.868829">
        <ele>682.0</ele>
        <time>2020-08-13T02:11:32Z</time>
      </trkpt>
      <trkpt lat="42.197342" lon="1.869107">
        <ele>686.8</ele>
        <time>2020-08-13T02:11:34Z</time>
      </trkpt>
      <trkpt lat="42.197226" lon="1.869321">
        <ele>677.8</ele>
        <time>2020-08-13T02:11:35Z</time>
      </trkpt>
      <trkpt lat="42.196959" lon="1.870068">
        <ele>679.6</ele>
        <time>2020-08-13T02:11:39Z</time>
      </trkpt>
      <trkpt lat="42.196874" lon="1.87026">
        <ele>679.6</ele>
        <time>2020-08-13T02:11:40Z</time>
      </trkpt>
      <trkpt lat="42.196803" lon="1.8704">
        <ele>679.6</ele>
        <time>2020-08-13T02:11:41Z</time>
      </trkpt>
      <trkpt lat="42.196609" lon="1.870639">
        <ele>675.4</ele>
        <time>2020-08-13T02:11:43Z</time>
      </trkpt>
      <trkpt lat="42.196471" lon="1.870755">
        <ele>675.4</ele>
        <time>2020-08-13T02:11:44Z</time>
      </trkpt>
      <trkpt lat="42.19618" lon="1.87089">
        <ele>689.6</ele>
        <time>2020-08-13T02:11:46Z</time>
      </trkpt>
      <trkpt lat="42.196014" lon="1.870918">
        <ele>689.6</ele>
        <time>2020-08-13T02:11:47Z</time>
      </trkpt>
      <trkpt lat="42.195844" lon="1.870917">
        <ele>689.6</ele>
        <time>2020-08-13T02:11:48Z</time>
      </trkpt>
      <trkpt lat="42.195621" lon="1.870845">
        <ele>691.6</ele>
        <time>2020-08-13T02:11:50Z</time>
      </trkpt>
      <trkpt lat="42.195295" lon="1.870675">
        <ele>679.6</ele>
        <time>2020-08-13T02:11:52Z</time>
      </trkpt>
      <trkpt lat="42.195106" lon="1.870544">
        <ele>679.6</ele>
        <time>2020-08-13T02:11:53Z</time>
      </trkpt>
      <trkpt lat="42.19485" lon="1.870324">
        <ele>685.6</ele>
        <time>2020-08-13T02:11:56Z</time>
      </trkpt>
      <trkpt lat="42.194072" lon="1.869582">
        <ele>677.2</ele>
        <time>2020-08-13T02:12:02Z</time>
      </trkpt>
      <trkpt lat="42.193926" lon="1.869477">
        <ele>677.2</ele>
        <time>2020-08-13T02:12:03Z</time>
      </trkpt>
      <trkpt lat="42.193694" lon="1.869357">
        <ele>677.2</ele>
        <time>2020-08-13T02:12:04Z</time>
      </trkpt>
      <trkpt lat="42.193516" lon="1.869296">
        <ele>677.2</ele>
        <time>2020-08-13T02:12:06Z</time>
      </trkpt>
      <trkpt lat="42.19301" lon="1.869213">
        <ele>678.0</ele>
        <time>2020-08-13T02:12:09Z</time>
      </trkpt>
      <trkpt lat="42.192605" lon="1.869183">
        <ele>678.0</ele>
        <time>2020-08-13T02:12:12Z</time>
      </trkpt>
      <trkpt lat="42.192447" lon="1.869196">
        <ele>681.6</ele>
        <time>2020-08-13T02:12:13Z</time>
      </trkpt>
      <trkpt lat="42.191115" lon="1.869108">
        <ele>680.0</ele>
        <time>2020-08-13T02:12:21Z</time>
      </trkpt>
      <trkpt lat="42.190863" lon="1.86904">
        <ele>680.0</ele>
        <time>2020-08-13T02:12:23Z</time>
      </trkpt>
      <trkpt lat="42.190603" lon="1.868923">
        <ele>677.6</ele>
        <time>2020-08-13T02:12:25Z</time>
      </trkpt>
      <trkpt lat="42.189969" lon="1.868545">
        <ele>681.8</ele>
        <time>2020-08-13T02:12:29Z</time>
      </trkpt>
      <trkpt lat="42.189352" lon="1.868245">
        <ele>683.8</ele>
        <time>2020-08-13T02:12:33Z</time>
      </trkpt>
      <trkpt lat="42.188868" lon="1.868053">
        <ele>680.0</ele>
        <time>2020-08-13T02:12:37Z</time>
      </trkpt>
      <trkpt lat="42.188209" lon="1.867824">
        <ele>683.4</ele>
        <time>2020-08-13T02:12:41Z</time>
      </trkpt>
      <trkpt lat="42.187823" lon="1.867721">
        <ele>683.4</ele>
        <time>2020-08-13T02:12:44Z</time>
      </trkpt>
      <trkpt lat="42.187344" lon="1.867622">
        <ele>690.2</ele>
        <time>2020-08-13T02:12:47Z</time>
      </trkpt>
      <trkpt lat="42.186955" lon="1.867572">
        <ele>690.2</ele>
        <time>2020-08-13T02:12:49Z</time>
      </trkpt>
      <trkpt lat="42.186542" lon="1.867544">
        <ele>692.4</ele>
        <time>2020-08-13T02:12:52Z</time>
      </trkpt>
      <trkpt lat="42.186104" lon="1.867578">
        <ele>692.4</ele>
        <time>2020-08-13T02:12:55Z</time>
      </trkpt>
      <trkpt lat="42.185408" lon="1.867723">
        <ele>683.6</ele>
        <time>2020-08-13T02:13:00Z</time>
      </trkpt>
      <trkpt lat="42.184912" lon="1.867853">
        <ele>680.6</ele>
        <time>2020-08-13T02:13:03Z</time>
      </trkpt>
      <trkpt lat="42.184724" lon="1.867872">
        <ele>680.6</ele>
        <time>2020-08-13T02:13:04Z</time>
      </trkpt>
      <trkpt lat="42.184281" lon="1.867845">
        <ele>680.6</ele>
        <time>2020-08-13T02:13:07Z</time>
      </trkpt>
      <trkpt lat="42.183858" lon="1.867687">
        <ele>691.8</ele>
        <time>2020-08-13T02:13:10Z</time>
      </trkpt>
      <trkpt lat="42.183513" lon="1.867437">
        <ele>679.4</ele>
        <time>2020-08-13T02:13:13Z</time>
      </trkpt>
      <trkpt lat="42.182535" lon="1.866279">
        <ele>677.0</ele>
        <time>2020-08-13T02:13:21Z</time>
      </trkpt>
      <trkpt lat="42.181748" lon="1.865033">
        <ele>670.6</ele>
        <time>2020-08-13T02:13:29Z</time>
      </trkpt>
      <trkpt lat="42.181536" lon="1.864739">
        <ele>660.4</ele>
        <time>2020-08-13T02:13:31Z</time>
      </trkpt>
      <trkpt lat="42.181346" lon="1.864531">
        <ele>660.4</ele>
        <time>2020-08-13T02:13:33Z</time>
      </trkpt>
      <trkpt lat="42.181098" lon="1.864302">
        <ele>660.4</ele>
        <time>2020-08-13T02:13:35Z</time>
      </trkpt>
      <trkpt lat="42.180871" lon="1.86417">
        <ele>660.4</ele>
        <time>2020-08-13T02:13:36Z</time>
      </trkpt>
      <trkpt lat="42.180561" lon="1.864022">
        <ele>661.4</ele>
        <time>2020-08-13T02:13:38Z</time>
      </trkpt>
      <trkpt lat="42.180129" lon="1.863889">
        <ele>661.4</ele>
        <time>2020-08-13T02:13:41Z</time>
      </trkpt>
      <trkpt lat="42.179894" lon="1.86378">
        <ele>651.4</ele>
        <time>2020-08-13T02:13:43Z</time>
      </trkpt>
      <trkpt lat="42.179725" lon="1.863693">
        <ele>651.4</ele>
        <time>2020-08-13T02:13:44Z</time>
      </trkpt>
      <trkpt lat="42.179523" lon="1.863539">
        <ele>651.4</ele>
        <time>2020-08-13T02:13:46Z</time>
      </trkpt>
      <trkpt lat="42.177952" lon="1.861791">
        <ele>643.2</ele>
        <time>2020-08-13T02:13:59Z</time>
      </trkpt>
      <trkpt lat="42.1775" lon="1.861321">
        <ele>662.4</ele>
        <time>2020-08-13T02:14:03Z</time>
      </trkpt>
      <trkpt lat="42.177306" lon="1.861202">
        <ele>662.4</ele>
        <time>2020-08-13T02:14:04Z</time>
      </trkpt>
      <trkpt lat="42.177124" lon="1.86114">
        <ele>662.4</ele>
        <time>2020-08-13T02:14:05Z</time>
      </trkpt>
      <trkpt lat="42.176903" lon="1.861095">
        <ele>662.4</ele>
        <time>2020-08-13T02:14:07Z</time>
      </trkpt>
      <trkpt lat="42.176639" lon="1.861119">
        <ele>666.4</ele>
        <time>2020-08-13T02:14:09Z</time>
      </trkpt>
      <trkpt lat="42.176078" lon="1.861327">
        <ele>666.4</ele>
        <time>2020-08-13T02:14:12Z</time>
      </trkpt>
      <trkpt lat="42.175622" lon="1.86143">
        <ele>669.8</ele>
        <time>2020-08-13T02:14:15Z</time>
      </trkpt>
      <trkpt lat="42.175279" lon="1.86147">
        <ele>669.8</ele>
        <time>2020-08-13T02:14:18Z</time>
      </trkpt>
      <trkpt lat="42.174896" lon="1.861591">
        <ele>673.6</ele>
        <time>2020-08-13T02:14:20Z</time>
      </trkpt>
      <trkpt lat="42.174595" lon="1.861649">
        <ele>673.6</ele>
        <time>2020-08-13T02:14:22Z</time>
      </trkpt>
      <trkpt lat="42.174395" lon="1.861629">
        <ele>673.6</ele>
        <time>2020-08-13T02:14:23Z</time>
      </trkpt>
      <trkpt lat="42.174226" lon="1.861565">
        <ele>673.6</ele>
        <time>2020-08-13T02:14:25Z</time>
      </trkpt>
      <trkpt lat="42.173711" lon="1.861303">
        <ele>676.4</ele>
        <time>2020-08-13T02:14:28Z</time>
      </trkpt>
      <trkpt lat="42.173557" lon="1.861253">
        <ele>676.4</ele>
        <time>2020-08-13T02:14:29Z</time>
      </trkpt>
      <trkpt lat="42.173107" lon="1.860967">
        <ele>678.8</ele>
        <time>2020-08-13T02:14:32Z</time>
      </trkpt>
      <trkpt lat="42.172712" lon="1.860651">
        <ele>674.6</ele>
        <time>2020-08-13T02:14:35Z</time>
      </trkpt>
      <trkpt lat="42.172346" lon="1.860416">
        <ele>668.2</ele>
        <time>2020-08-13T02:14:38Z</time>
      </trkpt>
      <trkpt lat="42.171626" lon="1.860093">
        <ele>650.8</ele>
        <time>2020-08-13T02:14:43Z</time>
      </trkpt>
      <trkpt lat="42.17146" lon="1.859978">
        <ele>654.6</ele>
        <time>2020-08-13T02:14:44Z</time>
      </trkpt>
      <trkpt lat="42.171307" lon="1.859776">
        <ele>654.6</ele>
        <time>2020-08-13T02:14:46Z</time>
      </trkpt>
      <trkpt lat="42.171201" lon="1.859514">
        <ele>654.6</ele>
        <time>2020-08-13T02:14:47Z</time>
      </trkpt>
      <trkpt lat="42.171036" lon="1.858847">
        <ele>673.0</ele>
        <time>2020-08-13T02:14:51Z</time>
      </trkpt>
      <trkpt lat="42.170869" lon="1.858497">
        <ele>673.0</ele>
        <time>2020-08-13T02:14:53Z</time>
      </trkpt>
      <trkpt lat="42.17068" lon="1.858235">
        <ele>684.4</ele>
        <time>2020-08-13T02:14:55Z</time>
      </trkpt>
      <trkpt lat="42.170471" lon="1.858046">
        <ele>684.4</ele>
        <time>2020-08-13T02:14:56Z</time>
      </trkpt>
      <trkpt lat="42.169929" lon="1.85762">
        <ele>658.2</ele>
        <time>2020-08-13T02:15:01Z</time>
      </trkpt>
      <trkpt lat="42.169548" lon="1.857279">
        <ele>693.6</ele>
        <time>2020-08-13T02:15:04Z</time>
      </trkpt>
      <trkpt lat="42.169285" lon="1.856995">
        <ele>693.6</ele>
        <time>2020-08-13T02:15:06Z</time>
      </trkpt>
      <trkpt lat="42.168986" lon="1.856568">
        <ele>706.4</ele>
        <time>2020-08-13T02:15:09Z</time>
      </trkpt>
      <trkpt lat="42.168811" lon="1.856405">
        <ele>706.4</ele>
        <time>2020-08-13T02:15:11Z</time>
      </trkpt>
      <trkpt lat="42.168607" lon="1.856287">
        <ele>706.4</ele>
        <time>2020-08-13T02:15:12Z</time>
      </trkpt>
      <trkpt lat="42.168497" lon="1.856258">
        <ele>706.4</ele>
        <time>2020-08-13T02:15:13Z</time>
      </trkpt>
      <trkpt lat="42.167614" lon="1.856162">
        <ele>697.0</ele>
        <time>2020-08-13T02:15:19Z</time>
      </trkpt>
      <trkpt lat="42.167462" lon="1.85613">
        <ele>692.0</ele>
        <time>2020-08-13T02:15:20Z</time>
      </trkpt>
      <trkpt lat="42.16709" lon="1.856007">
        <ele>692.0</ele>
        <time>2020-08-13T02:15:22Z</time>
      </trkpt>
      <trkpt lat="42.166831" lon="1.855878">
        <ele>692.0</ele>
        <time>2020-08-13T02:15:24Z</time>
      </trkpt>
      <trkpt lat="42.165741" lon="1.855176">
        <ele>715.8</ele>
        <time>2020-08-13T02:15:32Z</time>
      </trkpt>
      <trkpt lat="42.165527" lon="1.855113">
        <ele>715.8</ele>
        <time>2020-08-13T02:15:33Z</time>
      </trkpt>
      <trkpt lat="42.165264" lon="1.855127">
        <ele>715.8</ele>
        <time>2020-08-13T02:15:35Z</time>
      </trkpt>
      <trkpt lat="42.165151" lon="1.855164">
        <ele>715.8</ele>
        <time>2020-08-13T02:15:36Z</time>
      </trkpt>
      <trkpt lat="42.165007" lon="1.855239">
        <ele>715.8</ele>
        <time>2020-08-13T02:15:37Z</time>
      </trkpt>
      <trkpt lat="42.164876" lon="1.855347">
        <ele>718.6</ele>
        <time>2020-08-13T02:15:38Z</time>
      </trkpt>
      <trkpt lat="42.164329" lon="1.856">
        <ele>705.4</ele>
        <time>2020-08-13T02:15:43Z</time>
      </trkpt>
      <trkpt lat="42.164173" lon="1.856159">
        <ele>705.4</ele>
        <time>2020-08-13T02:15:44Z</time>
      </trkpt>
      <trkpt lat="42.164039" lon="1.856251">
        <ele>707.6</ele>
        <time>2020-08-13T02:15:45Z</time>
      </trkpt>
      <trkpt lat="42.163733" lon="1.856341">
        <ele>707.6</ele>
        <time>2020-08-13T02:15:47Z</time>
      </trkpt>
      <trkpt lat="42.163646" lon="1.85633">
        <ele>707.6</ele>
        <time>2020-08-13T02:15:48Z</time>
      </trkpt>
      <trkpt lat="42.163492" lon="1.856274">
        <ele>707.6</ele>
        <time>2020-08-13T02:15:49Z</time>
      </trkpt>
      <trkpt lat="42.163246" lon="1.856101">
        <ele>705.8</ele>
        <time>2020-08-13T02:15:50Z</time>
      </trkpt>
      <trkpt lat="42.162718" lon="1.855573">
        <ele>716.4</ele>
        <time>2020-08-13T02:15:55Z</time>
      </trkpt>
      <trkpt lat="42.162464" lon="1.855385">
        <ele>727.2</ele>
        <time>2020-08-13T02:15:57Z</time>
      </trkpt>
      <trkpt lat="42.162251" lon="1.855294">
        <ele>727.2</ele>
        <time>2020-08-13T02:15:58Z</time>
      </trkpt>
      <trkpt lat="42.162015" lon="1.855233">
        <ele>727.2</ele>
        <time>2020-08-13T02:16:00Z</time>
      </trkpt>
      <trkpt lat="42.161777" lon="1.855228">
        <ele>727.2</ele>
        <time>2020-08-13T02:16:01Z</time>
      </trkpt>
      <trkpt lat="42.1616" lon="1.855257">
        <ele>751.4</ele>
        <time>2020-08-13T02:16:03Z</time>
      </trkpt>
      <trkpt lat="42.161262" lon="1.855402">
        <ele>751.4</ele>
        <time>2020-08-13T02:16:05Z</time>
      </trkpt>
      <trkpt lat="42.160989" lon="1.855623">
        <ele>751.4</ele>
        <time>2020-08-13T02:16:07Z</time>
      </trkpt>
      <trkpt lat="42.160743" lon="1.85592">
        <ele>752.2</ele>
        <time>2020-08-13T02:16:10Z</time>
      </trkpt>
      <trkpt lat="42.16049" lon="1.856381">
        <ele>752.2</ele>
        <time>2020-08-13T02:16:12Z</time>
      </trkpt>
      <trkpt lat="42.160231" lon="1.857046">
        <ele>730.2</ele>
        <time>2020-08-13T02:16:16Z</time>
      </trkpt>
      <trkpt lat="42.159997" lon="1.857582">
        <ele>736.0</ele>
        <time>2020-08-13T02:16:19Z</time>
      </trkpt>
      <trkpt lat="42.159816" lon="1.857899">
        <ele>736.0</ele>
        <time>2020-08-13T02:16:21Z</time>
      </trkpt>
      <trkpt lat="42.159569" lon="1.858236">
        <ele>736.0</ele>
        <time>2020-08-13T02:16:23Z</time>
      </trkpt>
      <trkpt lat="42.15926" lon="1.858545">
        <ele>721.6</ele>
        <time>2020-08-13T02:16:26Z</time>
      </trkpt>
      <trkpt lat="42.159001" lon="1.858737">
        <ele>745.6</ele>
        <time>2020-08-13T02:16:28Z</time>
      </trkpt>
      <trkpt lat="42.158501" lon="1.858996">
        <ele>745.6</ele>
        <time>2020-08-13T02:16:32Z</time>
      </trkpt>
      <trkpt lat="42.158049" lon="1.859123">
        <ele>756.2</ele>
        <time>2020-08-13T02:16:35Z</time>
      </trkpt>
      <trkpt lat="42.157801" lon="1.859146">
        <ele>756.2</ele>
        <time>2020-08-13T02:16:37Z</time>
      </trkpt>
      <trkpt lat="42.157577" lon="1.859133">
        <ele>756.2</ele>
        <time>2020-08-13T02:16:38Z</time>
      </trkpt>
      <trkpt lat="42.157287" lon="1.859069">
        <ele>744.2</ele>
        <time>2020-08-13T02:16:40Z</time>
      </trkpt>
      <trkpt lat="42.156922" lon="1.858936">
        <ele>744.2</ele>
        <time>2020-08-13T02:16:43Z</time>
      </trkpt>
      <trkpt lat="42.156751" lon="1.858854">
        <ele>744.2</ele>
        <time>2020-08-13T02:16:44Z</time>
      </trkpt>
      <trkpt lat="42.156393" lon="1.858627">
        <ele>722.6</ele>
        <time>2020-08-13T02:16:47Z</time>
      </trkpt>
      <trkpt lat="42.156252" lon="1.858521">
        <ele>722.6</ele>
        <time>2020-08-13T02:16:48Z</time>
      </trkpt>
      <trkpt lat="42.156152" lon="1.858418">
        <ele>722.6</ele>
        <time>2020-08-13T02:16:48Z</time>
      </trkpt>
      <trkpt lat="42.155772" lon="1.858149">
        <ele>729.0</ele>
        <time>2020-08-13T02:16:51Z</time>
      </trkpt>
      <trkpt lat="42.155405" lon="1.857967">
        <ele>729.0</ele>
        <time>2020-08-13T02:16:54Z</time>
      </trkpt>
      <trkpt lat="42.155155" lon="1.857865">
        <ele>729.0</ele>
        <time>2020-08-13T02:16:56Z</time>
      </trkpt>
      <trkpt lat="42.154887" lon="1.857802">
        <ele>726.6</ele>
        <time>2020-08-13T02:16:57Z</time>
      </trkpt>
      <trkpt lat="42.154706" lon="1.857786">
        <ele>726.6</ele>
        <time>2020-08-13T02:16:58Z</time>
      </trkpt>
      <trkpt lat="42.154443" lon="1.857816">
        <ele>726.6</ele>
        <time>2020-08-13T02:17:00Z</time>
      </trkpt>
      <trkpt lat="42.154145" lon="1.857864">
        <ele>732.2</ele>
        <time>2020-08-13T02:17:02Z</time>
      </trkpt>
      <trkpt lat="42.153911" lon="1.857937">
        <ele>732.2</ele>
        <time>2020-08-13T02:17:04Z</time>
      </trkpt>
      <trkpt lat="42.153603" lon="1.858075">
        <ele>732.2</ele>
        <time>2020-08-13T02:17:06Z</time>
      </trkpt>
      <trkpt lat="42.153238" lon="1.858324">
        <ele>743.0</ele>
        <time>2020-08-13T02:17:09Z</time>
      </trkpt>
      <trkpt lat="42.152879" lon="1.858685">
        <ele>726.0</ele>
        <time>2020-08-13T02:17:12Z</time>
      </trkpt>
      <trkpt lat="42.152725" lon="1.858884">
        <ele>726.0</ele>
        <time>2020-08-13T02:17:13Z</time>
      </trkpt>
      <trkpt lat="42.152509" lon="1.85921">
        <ele>708.6</ele>
        <time>2020-08-13T02:17:15Z</time>
      </trkpt>
      <trkpt lat="42.152294" lon="1.859666">
        <ele>718.2</ele>
        <time>2020-08-13T02:17:18Z</time>
      </trkpt>
      <trkpt lat="42.152118" lon="1.860231">
        <ele>705.4</ele>
        <time>2020-08-13T02:17:21Z</time>
      </trkpt>
      <trkpt lat="42.152028" lon="1.860705">
        <ele>705.4</ele>
        <time>2020-08-13T02:17:23Z</time>
      </trkpt>
      <trkpt lat="42.151989" lon="1.861272">
        <ele>697.0</ele>
        <time>2020-08-13T02:17:26Z</time>
      </trkpt>
      <trkpt lat="42.152" lon="1.861678">
        <ele>695.2</ele>
        <time>2020-08-13T02:17:28Z</time>
      </trkpt>
      <trkpt lat="42.152103" lon="1.862867">
        <ele>696.2</ele>
        <time>2020-08-13T02:17:34Z</time>
      </trkpt>
      <trkpt lat="42.152167" lon="1.863898">
        <ele>697.2</ele>
        <time>2020-08-13T02:17:39Z</time>
      </trkpt>
      <trkpt lat="42.152157" lon="1.86419">
        <ele>694.0</ele>
        <time>2020-08-13T02:17:40Z</time>
      </trkpt>
      <trkpt lat="42.152102" lon="1.864463">
        <ele>694.0</ele>
        <time>2020-08-13T02:17:42Z</time>
      </trkpt>
      <trkpt lat="42.152027" lon="1.864694">
        <ele>694.0</ele>
        <time>2020-08-13T02:17:43Z</time>
      </trkpt>
      <trkpt lat="42.151918" lon="1.864924">
        <ele>694.0</ele>
        <time>2020-08-13T02:17:44Z</time>
      </trkpt>
      <trkpt lat="42.151806" lon="1.865097">
        <ele>679.6</ele>
        <time>2020-08-13T02:17:46Z</time>
      </trkpt>
      <trkpt lat="42.151687" lon="1.865228">
        <ele>679.6</ele>
        <time>2020-08-13T02:17:47Z</time>
      </trkpt>
      <trkpt lat="42.151557" lon="1.865334">
        <ele>687.6</ele>
        <time>2020-08-13T02:17:48Z</time>
      </trkpt>
      <trkpt lat="42.151277" lon="1.865491">
        <ele>687.6</ele>
        <time>2020-08-13T02:17:50Z</time>
      </trkpt>
      <trkpt lat="42.151095" lon="1.865538">
        <ele>687.6</ele>
        <time>2020-08-13T02:17:51Z</time>
      </trkpt>
      <trkpt lat="42.150885" lon="1.865558">
        <ele>687.6</ele>
        <time>2020-08-13T02:17:52Z</time>
      </trkpt>
      <trkpt lat="42.150727" lon="1.865549">
        <ele>686.4</ele>
        <time>2020-08-13T02:17:53Z</time>
      </trkpt>
      <trkpt lat="42.150062" lon="1.865383">
        <ele>686.4</ele>
        <time>2020-08-13T02:17:58Z</time>
      </trkpt>
      <trkpt lat="42.149804" lon="1.865362">
        <ele>684.8</ele>
        <time>2020-08-13T02:17:59Z</time>
      </trkpt>
      <trkpt lat="42.149602" lon="1.865391">
        <ele>684.8</ele>
        <time>2020-08-13T02:18:01Z</time>
      </trkpt>
      <trkpt lat="42.149403" lon="1.865445">
        <ele>684.8</ele>
        <time>2020-08-13T02:18:02Z</time>
      </trkpt>
      <trkpt lat="42.149138" lon="1.865581">
        <ele>686.2</ele>
        <time>2020-08-13T02:18:04Z</time>
      </trkpt>
      <trkpt lat="42.14897" lon="1.865722">
        <ele>686.2</ele>
        <time>2020-08-13T02:18:05Z</time>
      </trkpt>
      <trkpt lat="42.148554" lon="1.866137">
        <ele>667.4</ele>
        <time>2020-08-13T02:18:09Z</time>
      </trkpt>
      <trkpt lat="42.148317" lon="1.866318">
        <ele>663.6</ele>
        <time>2020-08-13T02:18:10Z</time>
      </trkpt>
      <trkpt lat="42.148093" lon="1.866412">
        <ele>663.6</ele>
        <time>2020-08-13T02:18:12Z</time>
      </trkpt>
      <trkpt lat="42.147964" lon="1.866442">
        <ele>663.6</ele>
        <time>2020-08-13T02:18:13Z</time>
      </trkpt>
      <trkpt lat="42.147861" lon="1.86645">
        <ele>663.6</ele>
        <time>2020-08-13T02:18:14Z</time>
      </trkpt>
      <trkpt lat="42.147592" lon="1.866411">
        <ele>663.6</ele>
        <time>2020-08-13T02:18:15Z</time>
      </trkpt>
      <trkpt lat="42.147443" lon="1.866345">
        <ele>647.6</ele>
        <time>2020-08-13T02:18:17Z</time>
      </trkpt>
      <trkpt lat="42.147289" lon="1.866251">
        <ele>647.6</ele>
        <time>2020-08-13T02:18:18Z</time>
      </trkpt>
      <trkpt lat="42.146995" lon="1.865939">
        <ele>647.6</ele>
        <time>2020-08-13T02:18:20Z</time>
      </trkpt>
      <trkpt lat="42.146862" lon="1.865677">
        <ele>655.8</ele>
        <time>2020-08-13T02:18:22Z</time>
      </trkpt>
      <trkpt lat="42.146771" lon="1.865399">
        <ele>655.8</ele>
        <time>2020-08-13T02:18:23Z</time>
      </trkpt>
      <trkpt lat="42.146705" lon="1.865122">
        <ele>655.8</ele>
        <time>2020-08-13T02:18:25Z</time>
      </trkpt>
      <trkpt lat="42.14654" lon="1.864197">
        <ele>644.0</ele>
        <time>2020-08-13T02:18:29Z</time>
      </trkpt>
      <trkpt lat="42.146407" lon="1.863718">
        <ele>643.4</ele>
        <time>2020-08-13T02:18:55Z</time>
      </trkpt>
      <trkpt lat="42.146301" lon="1.86349">
        <ele>643.4</ele>
        <time>2020-08-13T02:18:57Z</time>
      </trkpt>
      <trkpt lat="42.146125" lon="1.863198">
        <ele>641.4</ele>
        <time>2020-08-13T02:18:58Z</time>
      </trkpt>
      <trkpt lat="42.145904" lon="1.862926">
        <ele>641.4</ele>
        <time>2020-08-13T02:19:00Z</time>
      </trkpt>
      <trkpt lat="42.145789" lon="1.862817">
        <ele>639.6</ele>
        <time>2020-08-13T02:19:01Z</time>
      </trkpt>
      <trkpt lat="42.145568" lon="1.862659">
        <ele>639.6</ele>
        <time>2020-08-13T02:19:02Z</time>
      </trkpt>
      <trkpt lat="42.145253" lon="1.86251">
        <ele>639.6</ele>
        <time>2020-08-13T02:19:04Z</time>
      </trkpt>
      <trkpt lat="42.14502" lon="1.862463">
        <ele>645.0</ele>
        <time>2020-08-13T02:19:05Z</time>
      </trkpt>
      <trkpt lat="42.144859" lon="1.862467">
        <ele>665.8</ele>
        <time>2020-08-13T02:19:07Z</time>
      </trkpt>
      <trkpt lat="42.144462" lon="1.862519">
        <ele>658.8</ele>
        <time>2020-08-13T02:19:09Z</time>
      </trkpt>
      <trkpt lat="42.14427" lon="1.862584">
        <ele>658.8</ele>
        <time>2020-08-13T02:19:10Z</time>
      </trkpt>
      <trkpt lat="42.144061" lon="1.862711">
        <ele>677.4</ele>
        <time>2020-08-13T02:19:12Z</time>
      </trkpt>
      <trkpt lat="42.143777" lon="1.862927">
        <ele>677.4</ele>
        <time>2020-08-13T02:19:14Z</time>
      </trkpt>
      <trkpt lat="42.143677" lon="1.863035">
        <ele>677.4</ele>
        <time>2020-08-13T02:19:15Z</time>
      </trkpt>
      <trkpt lat="42.143318" lon="1.863542">
        <ele>693.2</ele>
        <time>2020-08-13T02:19:18Z</time>
      </trkpt>
      <trkpt lat="42.142507" lon="1.864818">
        <ele>690.0</ele>
        <time>2020-08-13T02:19:25Z</time>
      </trkpt>
      <trkpt lat="42.14234" lon="1.865046">
        <ele>696.6</ele>
        <time>2020-08-13T02:19:26Z</time>
      </trkpt>
      <trkpt lat="42.142058" lon="1.865305">
        <ele>696.6</ele>
        <time>2020-08-13T02:19:28Z</time>
      </trkpt>
      <trkpt lat="42.141743" lon="1.86551">
        <ele>696.6</ele>
        <time>2020-08-13T02:19:30Z</time>
      </trkpt>
      <trkpt lat="42.141556" lon="1.865573">
        <ele>709.8</ele>
        <time>2020-08-13T02:19:32Z</time>
      </trkpt>
      <trkpt lat="42.141328" lon="1.865606">
        <ele>709.8</ele>
        <time>2020-08-13T02:19:33Z</time>
      </trkpt>
      <trkpt lat="42.141138" lon="1.865609">
        <ele>709.8</ele>
        <time>2020-08-13T02:19:34Z</time>
      </trkpt>
      <trkpt lat="42.140668" lon="1.865549">
        <ele>720.6</ele>
        <time>2020-08-13T02:19:37Z</time>
      </trkpt>
      <trkpt lat="42.140051" lon="1.865456">
        <ele>720.6</ele>
        <time>2020-08-13T02:19:40Z</time>
      </trkpt>
      <trkpt lat="42.139252" lon="1.865308">
        <ele>718.6</ele>
        <time>2020-08-13T02:19:45Z</time>
      </trkpt>
      <trkpt lat="42.138988" lon="1.865175">
        <ele>699.4</ele>
        <time>2020-08-13T02:19:47Z</time>
      </trkpt>
      <trkpt lat="42.138766" lon="1.864995">
        <ele>735.0</ele>
        <time>2020-08-13T02:19:49Z</time>
      </trkpt>
      <trkpt lat="42.138496" lon="1.864701">
        <ele>735.0</ele>
        <time>2020-08-13T02:19:51Z</time>
      </trkpt>
      <trkpt lat="42.1381" lon="1.864198">
        <ele>716.8</ele>
        <time>2020-08-13T02:19:55Z</time>
      </trkpt>
      <trkpt lat="42.137906" lon="1.863984">
        <ele>749.0</ele>
        <time>2020-08-13T02:19:57Z</time>
      </trkpt>
      <trkpt lat="42.137654" lon="1.86377">
        <ele>749.0</ele>
        <time>2020-08-13T02:19:58Z</time>
      </trkpt>
      <trkpt lat="42.137429" lon="1.863648">
        <ele>745.8</ele>
        <time>2020-08-13T02:20:00Z</time>
      </trkpt>
      <trkpt lat="42.135071" lon="1.86289">
        <ele>827.6</ele>
        <time>2020-08-13T02:20:14Z</time>
      </trkpt>
      <trkpt lat="42.134558" lon="1.862812">
        <ele>850.2</ele>
        <time>2020-08-13T02:20:18Z</time>
      </trkpt>
      <trkpt lat="42.134132" lon="1.862807">
        <ele>832.6</ele>
        <time>2020-08-13T02:20:20Z</time>
      </trkpt>
      <trkpt lat="42.133729" lon="1.862847">
        <ele>832.6</ele>
        <time>2020-08-13T02:20:23Z</time>
      </trkpt>
      <trkpt lat="42.133069" lon="1.862983">
        <ele>790.0</ele>
        <time>2020-08-13T02:20:27Z</time>
      </trkpt>
      <trkpt lat="42.132418" lon="1.863213">
        <ele>761.2</ele>
        <time>2020-08-13T02:20:31Z</time>
      </trkpt>
      <trkpt lat="42.131994" lon="1.863424">
        <ele>736.8</ele>
        <time>2020-08-13T02:20:34Z</time>
      </trkpt>
      <trkpt lat="42.131832" lon="1.863478">
        <ele>736.8</ele>
        <time>2020-08-13T02:20:35Z</time>
      </trkpt>
      <trkpt lat="42.130657" lon="1.86415">
        <ele>771.0</ele>
        <time>2020-08-13T02:20:43Z</time>
      </trkpt>
      <trkpt lat="42.130071" lon="1.864407">
        <ele>753.2</ele>
        <time>2020-08-13T02:20:46Z</time>
      </trkpt>
      <trkpt lat="42.129473" lon="1.864606">
        <ele>765.2</ele>
        <time>2020-08-13T02:20:50Z</time>
      </trkpt>
      <trkpt lat="42.129127" lon="1.86467">
        <ele>763.0</ele>
        <time>2020-08-13T02:20:52Z</time>
      </trkpt>
      <trkpt lat="42.128884" lon="1.864656">
        <ele>763.0</ele>
        <time>2020-08-13T02:20:53Z</time>
      </trkpt>
      <trkpt lat="42.128569" lon="1.864571">
        <ele>763.0</ele>
        <time>2020-08-13T02:20:55Z</time>
      </trkpt>
      <trkpt lat="42.128443" lon="1.864496">
        <ele>763.0</ele>
        <time>2020-08-13T02:20:56Z</time>
      </trkpt>
      <trkpt lat="42.128195" lon="1.864307">
        <ele>750.8</ele>
        <time>2020-08-13T02:20:58Z</time>
      </trkpt>
      <trkpt lat="42.128041" lon="1.864156">
        <ele>756.4</ele>
        <time>2020-08-13T02:20:59Z</time>
      </trkpt>
      <trkpt lat="42.127903" lon="1.863969">
        <ele>756.4</ele>
        <time>2020-08-13T02:21:00Z</time>
      </trkpt>
      <trkpt lat="42.127769" lon="1.86372">
        <ele>756.4</ele>
        <time>2020-08-13T02:21:01Z</time>
      </trkpt>
      <trkpt lat="42.12764" lon="1.863286">
        <ele>768.8</ele>
        <time>2020-08-13T02:21:03Z</time>
      </trkpt>
      <trkpt lat="42.127503" lon="1.862416">
        <ele>784.4</ele>
        <time>2020-08-13T02:21:07Z</time>
      </trkpt>
      <trkpt lat="42.127447" lon="1.862176">
        <ele>765.4</ele>
        <time>2020-08-13T02:21:09Z</time>
      </trkpt>
      <trkpt lat="42.127388" lon="1.862027">
        <ele>765.4</ele>
        <time>2020-08-13T02:21:09Z</time>
      </trkpt>
      <trkpt lat="42.127232" lon="1.861738">
        <ele>765.4</ele>
        <time>2020-08-13T02:21:11Z</time>
      </trkpt>
      <trkpt lat="42.127097" lon="1.861557">
        <ele>779.2</ele>
        <time>2020-08-13T02:21:12Z</time>
      </trkpt>
      <trkpt lat="42.126505" lon="1.860955">
        <ele>761.0</ele>
        <time>2020-08-13T02:21:17Z</time>
      </trkpt>
      <trkpt lat="42.126328" lon="1.860714">
        <ele>756.6</ele>
        <time>2020-08-13T02:21:18Z</time>
      </trkpt>
      <trkpt lat="42.12623" lon="1.860532">
        <ele>756.6</ele>
        <time>2020-08-13T02:21:19Z</time>
      </trkpt>
      <trkpt lat="42.126121" lon="1.860232">
        <ele>756.6</ele>
        <time>2020-08-13T02:21:20Z</time>
      </trkpt>
      <trkpt lat="42.1258" lon="1.859128">
        <ele>746.4</ele>
        <time>2020-08-13T02:21:25Z</time>
      </trkpt>
      <trkpt lat="42.125687" lon="1.858841">
        <ele>746.4</ele>
        <time>2020-08-13T02:21:27Z</time>
      </trkpt>
      <trkpt lat="42.125536" lon="1.858541">
        <ele>746.4</ele>
        <time>2020-08-13T02:21:28Z</time>
      </trkpt>
      <trkpt lat="42.12539" lon="1.858299">
        <ele>765.4</ele>
        <time>2020-08-13T02:21:30Z</time>
      </trkpt>
      <trkpt lat="42.125126" lon="1.857974">
        <ele>765.4</ele>
        <time>2020-08-13T02:21:32Z</time>
      </trkpt>
      <trkpt lat="42.124965" lon="1.857813">
        <ele>746.0</ele>
        <time>2020-08-13T02:21:34Z</time>
      </trkpt>
      <trkpt lat="42.124676" lon="1.857594">
        <ele>746.0</ele>
        <time>2020-08-13T02:21:36Z</time>
      </trkpt>
      <trkpt lat="42.124351" lon="1.857421">
        <ele>757.4</ele>
        <time>2020-08-13T02:21:38Z</time>
      </trkpt>
      <trkpt lat="42.124053" lon="1.857332">
        <ele>755.8</ele>
        <time>2020-08-13T02:21:39Z</time>
      </trkpt>
      <trkpt lat="42.123729" lon="1.857279">
        <ele>755.8</ele>
        <time>2020-08-13T02:21:41Z</time>
      </trkpt>
      <trkpt lat="42.123129" lon="1.857247">
        <ele>758.8</ele>
        <time>2020-08-13T02:21:45Z</time>
      </trkpt>
      <trkpt lat="42.122804" lon="1.8572">
        <ele>758.8</ele>
        <time>2020-08-13T02:21:47Z</time>
      </trkpt>
      <trkpt lat="42.122538" lon="1.857073">
        <ele>758.8</ele>
        <time>2020-08-13T02:21:48Z</time>
      </trkpt>
      <trkpt lat="42.121997" lon="1.856734">
        <ele>753.8</ele>
        <time>2020-08-13T02:21:52Z</time>
      </trkpt>
      <trkpt lat="42.121812" lon="1.85667">
        <ele>753.8</ele>
        <time>2020-08-13T02:21:53Z</time>
      </trkpt>
      <trkpt lat="42.12168" lon="1.856655">
        <ele>776.0</ele>
        <time>2020-08-13T02:21:54Z</time>
      </trkpt>
      <trkpt lat="42.121542" lon="1.856665">
        <ele>788.4</ele>
        <time>2020-08-13T02:21:55Z</time>
      </trkpt>
      <trkpt lat="42.121389" lon="1.856689">
        <ele>767.0</ele>
        <time>2020-08-13T02:21:57Z</time>
      </trkpt>
      <trkpt lat="42.121237" lon="1.856758">
        <ele>767.0</ele>
        <time>2020-08-13T02:21:58Z</time>
      </trkpt>
      <trkpt lat="42.120987" lon="1.856939">
        <ele>767.0</ele>
        <time>2020-08-13T02:21:59Z</time>
      </trkpt>
      <trkpt lat="42.120823" lon="1.857115">
        <ele>792.2</ele>
        <time>2020-08-13T02:22:01Z</time>
      </trkpt>
      <trkpt lat="42.120552" lon="1.857478">
        <ele>792.2</ele>
        <time>2020-08-13T02:22:03Z</time>
      </trkpt>
      <trkpt lat="42.120306" lon="1.857765">
        <ele>770.0</ele>
        <time>2020-08-13T02:22:05Z</time>
      </trkpt>
      <trkpt lat="42.119998" lon="1.858022">
        <ele>772.6</ele>
        <time>2020-08-13T02:22:07Z</time>
      </trkpt>
      <trkpt lat="42.119865" lon="1.858099">
        <ele>772.6</ele>
        <time>2020-08-13T02:22:08Z</time>
      </trkpt>
      <trkpt lat="42.119597" lon="1.858198">
        <ele>772.6</ele>
        <time>2020-08-13T02:22:10Z</time>
      </trkpt>
      <trkpt lat="42.119334" lon="1.858233">
        <ele>772.6</ele>
        <time>2020-08-13T02:22:11Z</time>
      </trkpt>
      <trkpt lat="42.119058" lon="1.858207">
        <ele>752.8</ele>
        <time>2020-08-13T02:22:13Z</time>
      </trkpt>
      <trkpt lat="42.118932" lon="1.858176">
        <ele>752.8</ele>
        <time>2020-08-13T02:22:14Z</time>
      </trkpt>
      <trkpt lat="42.118622" lon="1.858034">
        <ele>752.8</ele>
        <time>2020-08-13T02:22:16Z</time>
      </trkpt>
      <trkpt lat="42.118453" lon="1.857908">
        <ele>752.8</ele>
        <time>2020-08-13T02:22:17Z</time>
      </trkpt>
      <trkpt lat="42.118323" lon="1.857781">
        <ele>722.4</ele>
        <time>2020-08-13T02:22:19Z</time>
      </trkpt>
      <trkpt lat="42.118165" lon="1.857604">
        <ele>722.4</ele>
        <time>2020-08-13T02:22:20Z</time>
      </trkpt>
      <trkpt lat="42.118051" lon="1.857438">
        <ele>742.8</ele>
        <time>2020-08-13T02:22:21Z</time>
      </trkpt>
      <trkpt lat="42.117522" lon="1.856591">
        <ele>757.8</ele>
        <time>2020-08-13T02:22:26Z</time>
      </trkpt>
      <trkpt lat="42.11731" lon="1.856324">
        <ele>733.0</ele>
        <time>2020-08-13T02:22:28Z</time>
      </trkpt>
      <trkpt lat="42.117124" lon="1.85615">
        <ele>733.0</ele>
        <time>2020-08-13T02:22:30Z</time>
      </trkpt>
      <trkpt lat="42.116923" lon="1.856002">
        <ele>733.0</ele>
        <time>2020-08-13T02:22:31Z</time>
      </trkpt>
      <trkpt lat="42.116616" lon="1.855865">
        <ele>722.2</ele>
        <time>2020-08-13T02:22:33Z</time>
      </trkpt>
      <trkpt lat="42.116432" lon="1.855822">
        <ele>727.8</ele>
        <time>2020-08-13T02:22:34Z</time>
      </trkpt>
      <trkpt lat="42.116257" lon="1.85584">
        <ele>722.2</ele>
        <time>2020-08-13T02:22:40Z</time>
      </trkpt>
      <trkpt lat="42.116107" lon="1.855849">
        <ele>722.2</ele>
        <time>2020-08-13T02:22:41Z</time>
      </trkpt>
      <trkpt lat="42.115901" lon="1.855893">
        <ele>722.2</ele>
        <time>2020-08-13T02:22:42Z</time>
      </trkpt>
      <trkpt lat="42.115692" lon="1.855975">
        <ele>728.8</ele>
        <time>2020-08-13T02:22:43Z</time>
      </trkpt>
      <trkpt lat="42.1155" lon="1.856094">
        <ele>728.8</ele>
        <time>2020-08-13T02:22:44Z</time>
      </trkpt>
      <trkpt lat="42.115136" lon="1.856405">
        <ele>728.8</ele>
        <time>2020-08-13T02:22:47Z</time>
      </trkpt>
      <trkpt lat="42.113854" lon="1.858299">
        <ele>808.0</ele>
        <time>2020-08-13T02:22:58Z</time>
      </trkpt>
      <trkpt lat="42.113243" lon="1.858884">
        <ele>817.0</ele>
        <time>2020-08-13T02:23:03Z</time>
      </trkpt>
      <trkpt lat="42.112682" lon="1.859357">
        <ele>801.4</ele>
        <time>2020-08-13T02:23:07Z</time>
      </trkpt>
      <trkpt lat="42.112083" lon="1.859748">
        <ele>768.4</ele>
        <time>2020-08-13T02:23:11Z</time>
      </trkpt>
      <trkpt lat="42.111568" lon="1.859962">
        <ele>741.2</ele>
        <time>2020-08-13T02:23:14Z</time>
      </trkpt>
      <trkpt lat="42.111452" lon="1.859998">
        <ele>741.2</ele>
        <time>2020-08-13T02:23:15Z</time>
      </trkpt>
      <trkpt lat="42.111062" lon="1.860037">
        <ele>722.8</ele>
        <time>2020-08-13T02:23:17Z</time>
      </trkpt>
      <trkpt lat="42.110766" lon="1.860007">
        <ele>703.4</ele>
        <time>2020-08-13T02:23:19Z</time>
      </trkpt>
      <trkpt lat="42.110574" lon="1.859959">
        <ele>718.2</ele>
        <time>2020-08-13T02:23:21Z</time>
      </trkpt>
      <trkpt lat="42.110534" lon="1.859884">
        <ele>718.2</ele>
        <time>2020-08-13T02:23:21Z</time>
      </trkpt>
      <trkpt lat="42.11037" lon="1.859793">
        <ele>718.2</ele>
        <time>2020-08-13T02:23:22Z</time>
      </trkpt>
      <trkpt lat="42.110178" lon="1.859642">
        <ele>718.2</ele>
        <time>2020-08-13T02:23:23Z</time>
      </trkpt>
      <trkpt lat="42.110039" lon="1.859505">
        <ele>718.2</ele>
        <time>2020-08-13T02:23:24Z</time>
      </trkpt>
      <trkpt lat="42.109746" lon="1.859123">
        <ele>714.6</ele>
        <time>2020-08-13T02:23:27Z</time>
      </trkpt>
      <trkpt lat="42.109536" lon="1.858794">
        <ele>714.6</ele>
        <time>2020-08-13T02:23:29Z</time>
      </trkpt>
      <trkpt lat="42.109298" lon="1.858514">
        <ele>714.6</ele>
        <time>2020-08-13T02:23:30Z</time>
      </trkpt>
      <trkpt lat="42.108972" lon="1.858245">
        <ele>725.2</ele>
        <time>2020-08-13T02:23:33Z</time>
      </trkpt>
      <trkpt lat="42.108712" lon="1.858143">
        <ele>725.2</ele>
        <time>2020-08-13T02:23:34Z</time>
      </trkpt>
      <trkpt lat="42.108441" lon="1.858108">
        <ele>725.2</ele>
        <time>2020-08-13T02:23:36Z</time>
      </trkpt>
      <trkpt lat="42.10805" lon="1.858219">
        <ele>721.0</ele>
        <time>2020-08-13T02:23:38Z</time>
      </trkpt>
      <trkpt lat="42.107787" lon="1.858382">
        <ele>712.0</ele>
        <time>2020-08-13T02:23:40Z</time>
      </trkpt>
      <trkpt lat="42.107616" lon="1.858524">
        <ele>712.0</ele>
        <time>2020-08-13T02:23:41Z</time>
      </trkpt>
      <trkpt lat="42.107125" lon="1.859104">
        <ele>717.8</ele>
        <time>2020-08-13T02:23:45Z</time>
      </trkpt>
      <trkpt lat="42.106908" lon="1.859317">
        <ele>709.8</ele>
        <time>2020-08-13T02:23:46Z</time>
      </trkpt>
      <trkpt lat="42.106784" lon="1.859417">
        <ele>709.8</ele>
        <time>2020-08-13T02:23:47Z</time>
      </trkpt>
      <trkpt lat="42.106624" lon="1.859513">
        <ele>706.0</ele>
        <time>2020-08-13T02:23:48Z</time>
      </trkpt>
      <trkpt lat="42.106272" lon="1.859659">
        <ele>706.0</ele>
        <time>2020-08-13T02:23:50Z</time>
      </trkpt>
      <trkpt lat="42.106035" lon="1.859707">
        <ele>706.0</ele>
        <time>2020-08-13T02:23:52Z</time>
      </trkpt>
      <trkpt lat="42.105714" lon="1.859732">
        <ele>698.6</ele>
        <time>2020-08-13T02:23:54Z</time>
      </trkpt>
      <trkpt lat="42.105345" lon="1.859732">
        <ele>698.6</ele>
        <time>2020-08-13T02:23:56Z</time>
      </trkpt>
      <trkpt lat="42.104402" lon="1.859681">
        <ele>692.4</ele>
        <time>2020-08-13T02:24:01Z</time>
      </trkpt>
      <trkpt lat="42.103532" lon="1.859557">
        <ele>687.8</ele>
        <time>2020-08-13T02:24:06Z</time>
      </trkpt>
      <trkpt lat="42.10298" lon="1.859424">
        <ele>687.0</ele>
        <time>2020-08-13T02:24:10Z</time>
      </trkpt>
      <trkpt lat="42.10255" lon="1.859284">
        <ele>687.0</ele>
        <time>2020-08-13T02:24:12Z</time>
      </trkpt>
      <trkpt lat="42.102142" lon="1.859065">
        <ele>692.0</ele>
        <time>2020-08-13T02:24:15Z</time>
      </trkpt>
      <trkpt lat="42.101891" lon="1.858855">
        <ele>692.0</ele>
        <time>2020-08-13T02:24:16Z</time>
      </trkpt>
      <trkpt lat="42.101705" lon="1.858664">
        <ele>692.0</ele>
        <time>2020-08-13T02:24:18Z</time>
      </trkpt>
      <trkpt lat="42.101518" lon="1.858432">
        <ele>698.4</ele>
        <time>2020-08-13T02:24:19Z</time>
      </trkpt>
      <trkpt lat="42.101057" lon="1.857802">
        <ele>689.0</ele>
        <time>2020-08-13T02:24:23Z</time>
      </trkpt>
      <trkpt lat="42.100647" lon="1.857205">
        <ele>680.6</ele>
        <time>2020-08-13T02:24:26Z</time>
      </trkpt>
      <trkpt lat="42.100332" lon="1.856688">
        <ele>680.6</ele>
        <time>2020-08-13T02:24:29Z</time>
      </trkpt>
      <trkpt lat="42.099663" lon="1.855301">
        <ele>666.8</ele>
        <time>2020-08-13T02:24:36Z</time>
      </trkpt>
      <trkpt lat="42.099433" lon="1.854942">
        <ele>659.4</ele>
        <time>2020-08-13T02:24:38Z</time>
      </trkpt>
      <trkpt lat="42.099262" lon="1.854716">
        <ele>659.4</ele>
        <time>2020-08-13T02:24:40Z</time>
      </trkpt>
      <trkpt lat="42.099059" lon="1.85449">
        <ele>657.4</ele>
        <time>2020-08-13T02:24:41Z</time>
      </trkpt>
      <trkpt lat="42.098837" lon="1.85428">
        <ele>657.4</ele>
        <time>2020-08-13T02:24:43Z</time>
      </trkpt>
      <trkpt lat="42.098621" lon="1.854112">
        <ele>650.0</ele>
        <time>2020-08-13T02:24:44Z</time>
      </trkpt>
      <trkpt lat="42.098348" lon="1.853945">
        <ele>650.0</ele>
        <time>2020-08-13T02:24:46Z</time>
      </trkpt>
      <trkpt lat="42.097962" lon="1.853761">
        <ele>645.2</ele>
        <time>2020-08-13T02:24:49Z</time>
      </trkpt>
      <trkpt lat="42.097662" lon="1.853669">
        <ele>645.2</ele>
        <time>2020-08-13T02:24:50Z</time>
      </trkpt>
      <trkpt lat="42.09738" lon="1.853624">
        <ele>638.8</ele>
        <time>2020-08-13T02:24:55Z</time>
      </trkpt>
      <trkpt lat="42.097125" lon="1.853612">
        <ele>638.8</ele>
        <time>2020-08-13T02:24:56Z</time>
      </trkpt>
      <trkpt lat="42.09671" lon="1.853649">
        <ele>638.8</ele>
        <time>2020-08-13T02:24:58Z</time>
      </trkpt>
      <trkpt lat="42.095784" lon="1.853814">
        <ele>627.0</ele>
        <time>2020-08-13T02:25:02Z</time>
      </trkpt>
      <trkpt lat="42.094607" lon="1.854148">
        <ele>622.0</ele>
        <time>2020-08-13T02:25:07Z</time>
      </trkpt>
      <trkpt lat="42.094167" lon="1.854213">
        <ele>626.4</ele>
        <time>2020-08-13T02:25:08Z</time>
      </trkpt>
      <trkpt lat="42.093834" lon="1.85422">
        <ele>621.0</ele>
        <time>2020-08-13T02:25:10Z</time>
      </trkpt>
      <trkpt lat="42.093429" lon="1.854186">
        <ele>621.0</ele>
        <time>2020-08-13T02:25:12Z</time>
      </trkpt>
      <trkpt lat="42.09241" lon="1.853991">
        <ele>608.0</ele>
        <time>2020-08-13T02:25:16Z</time>
      </trkpt>
      <trkpt lat="42.092094" lon="1.853963">
        <ele>608.0</ele>
        <time>2020-08-13T02:25:17Z</time>
      </trkpt>
      <trkpt lat="42.091851" lon="1.85397">
        <ele>608.0</ele>
        <time>2020-08-13T02:25:18Z</time>
      </trkpt>
      <trkpt lat="42.091545" lon="1.854018">
        <ele>607.0</ele>
        <time>2020-08-13T02:25:20Z</time>
      </trkpt>
      <trkpt lat="42.091214" lon="1.854126">
        <ele>607.0</ele>
        <time>2020-08-13T02:25:21Z</time>
      </trkpt>
      <trkpt lat="42.090883" lon="1.854297">
        <ele>606.4</ele>
        <time>2020-08-13T02:25:23Z</time>
      </trkpt>
      <trkpt lat="42.090576" lon="1.85451">
        <ele>603.0</ele>
        <time>2020-08-13T02:25:24Z</time>
      </trkpt>
      <trkpt lat="42.089792" lon="1.855167">
        <ele>597.6</ele>
        <time>2020-08-13T02:25:28Z</time>
      </trkpt>
      <trkpt lat="42.089478" lon="1.855416">
        <ele>597.6</ele>
        <time>2020-08-13T02:25:29Z</time>
      </trkpt>
      <trkpt lat="42.089227" lon="1.855587">
        <ele>597.6</ele>
        <time>2020-08-13T02:25:31Z</time>
      </trkpt>
      <trkpt lat="42.088763" lon="1.855836">
        <ele>596.8</ele>
        <time>2020-08-13T02:25:33Z</time>
      </trkpt>
      <trkpt lat="42.08825" lon="1.856029">
        <ele>593.2</ele>
        <time>2020-08-13T02:25:35Z</time>
      </trkpt>
      <trkpt lat="42.087444" lon="1.85625">
        <ele>586.6</ele>
        <time>2020-08-13T02:25:39Z</time>
      </trkpt>
      <trkpt lat="42.087208" lon="1.856333">
        <ele>586.6</ele>
        <time>2020-08-13T02:25:40Z</time>
      </trkpt>
      <trkpt lat="42.087" lon="1.856428">
        <ele>586.6</ele>
        <time>2020-08-13T02:25:40Z</time>
      </trkpt>
      <trkpt lat="42.086696" lon="1.856611">
        <ele>586.6</ele>
        <time>2020-08-13T02:25:42Z</time>
      </trkpt>
      <trkpt lat="42.08635" lon="1.856901">
        <ele>581.8</ele>
        <time>2020-08-13T02:25:44Z</time>
      </trkpt>
      <trkpt lat="42.085357" lon="1.857936">
        <ele>577.4</ele>
        <time>2020-08-13T02:25:49Z</time>
      </trkpt>
      <trkpt lat="42.084168" lon="1.859114">
        <ele>576.0</ele>
        <time>2020-08-13T02:25:55Z</time>
      </trkpt>
      <trkpt lat="42.083384" lon="1.859954">
        <ele>573.2</ele>
        <time>2020-08-13T02:25:59Z</time>
      </trkpt>
      <trkpt lat="42.082788" lon="1.860647">
        <ele>570.4</ele>
        <time>2020-08-13T02:26:03Z</time>
      </trkpt>
      <trkpt lat="42.081967" lon="1.861689">
        <ele>569.6</ele>
        <time>2020-08-13T02:26:07Z</time>
      </trkpt>
      <trkpt lat="42.081349" lon="1.862542">
        <ele>561.6</ele>
        <time>2020-08-13T02:26:11Z</time>
      </trkpt>
      <trkpt lat="42.080671" lon="1.863572">
        <ele>554.6</ele>
        <time>2020-08-13T02:26:16Z</time>
      </trkpt>
      <trkpt lat="42.080248" lon="1.86426">
        <ele>557.2</ele>
        <time>2020-08-13T02:26:18Z</time>
      </trkpt>
      <trkpt lat="42.079783" lon="1.865066">
        <ele>545.4</ele>
        <time>2020-08-13T02:26:22Z</time>
      </trkpt>
      <trkpt lat="42.079183" lon="1.866197">
        <ele>545.8</ele>
        <time>2020-08-13T02:26:26Z</time>
      </trkpt>
      <trkpt lat="42.07679" lon="1.87107">
        <ele>515.0</ele>
        <time>2020-08-13T02:26:44Z</time>
      </trkpt>
      <trkpt lat="42.07665" lon="1.871322">
        <ele>503.0</ele>
        <time>2020-08-13T02:26:45Z</time>
      </trkpt>
      <trkpt lat="42.076351" lon="1.871801">
        <ele>495.2</ele>
        <time>2020-08-13T02:26:47Z</time>
      </trkpt>
      <trkpt lat="42.076105" lon="1.872136">
        <ele>495.2</ele>
        <time>2020-08-13T02:26:49Z</time>
      </trkpt>
      <trkpt lat="42.075859" lon="1.872431">
        <ele>495.2</ele>
        <time>2020-08-13T02:26:50Z</time>
      </trkpt>
      <trkpt lat="42.0756" lon="1.872706">
        <ele>508.0</ele>
        <time>2020-08-13T02:26:52Z</time>
      </trkpt>
      <trkpt lat="42.075241" lon="1.873035">
        <ele>508.0</ele>
        <time>2020-08-13T02:26:54Z</time>
      </trkpt>
      <trkpt lat="42.074915" lon="1.873286">
        <ele>514.6</ele>
        <time>2020-08-13T02:26:55Z</time>
      </trkpt>
      <trkpt lat="42.074619" lon="1.873481">
        <ele>523.8</ele>
        <time>2020-08-13T02:26:57Z</time>
      </trkpt>
      <trkpt lat="42.074321" lon="1.873645">
        <ele>523.8</ele>
        <time>2020-08-13T02:26:58Z</time>
      </trkpt>
      <trkpt lat="42.073891" lon="1.87384">
        <ele>523.0</ele>
        <time>2020-08-13T02:27:00Z</time>
      </trkpt>
      <trkpt lat="42.073442" lon="1.873986">
        <ele>523.0</ele>
        <time>2020-08-13T02:27:02Z</time>
      </trkpt>
      <trkpt lat="42.073241" lon="1.874033">
        <ele>519.6</ele>
        <time>2020-08-13T02:27:03Z</time>
      </trkpt>
      <trkpt lat="42.072478" lon="1.874142">
        <ele>512.2</ele>
        <time>2020-08-13T02:27:06Z</time>
      </trkpt>
      <trkpt lat="42.071554" lon="1.874245">
        <ele>518.8</ele>
        <time>2020-08-13T02:27:10Z</time>
      </trkpt>
      <trkpt lat="42.063428" lon="1.875132">
        <ele>511.0</ele>
        <time>2020-08-13T02:27:44Z</time>
      </trkpt>
      <trkpt lat="42.060248" lon="1.875456">
        <ele>492.8</ele>
        <time>2020-08-13T02:27:58Z</time>
      </trkpt>
      <trkpt lat="42.058038" lon="1.875605">
        <ele>485.6</ele>
        <time>2020-08-13T02:28:07Z</time>
      </trkpt>
      <trkpt lat="42.056272" lon="1.875672">
        <ele>484.8</ele>
        <time>2020-08-13T02:28:15Z</time>
      </trkpt>
      <trkpt lat="42.054697" lon="1.87569">
        <ele>489.0</ele>
        <time>2020-08-13T02:28:21Z</time>
      </trkpt>
      <trkpt lat="42.052836" lon="1.875682">
        <ele>488.2</ele>
        <time>2020-08-13T02:28:29Z</time>
      </trkpt>
      <trkpt lat="42.051318" lon="1.875733">
        <ele>487.4</ele>
        <time>2020-08-13T02:28:35Z</time>
      </trkpt>
      <trkpt lat="42.049724" lon="1.875845">
        <ele>484.6</ele>
        <time>2020-08-13T02:28:42Z</time>
      </trkpt>
      <trkpt lat="42.048431" lon="1.875973">
        <ele>479.6</ele>
        <time>2020-08-13T02:28:48Z</time>
      </trkpt>
      <trkpt lat="42.045192" lon="1.876485">
        <ele>458.4</ele>
        <time>2020-08-13T02:29:01Z</time>
      </trkpt>
      <trkpt lat="42.044547" lon="1.876482">
        <ele>456.6</ele>
        <time>2020-08-13T02:29:04Z</time>
      </trkpt>
      <trkpt lat="42.044199" lon="1.876401">
        <ele>456.6</ele>
        <time>2020-08-13T02:29:06Z</time>
      </trkpt>
      <trkpt lat="42.043837" lon="1.876278">
        <ele>457.6</ele>
        <time>2020-08-13T02:29:07Z</time>
      </trkpt>
      <trkpt lat="42.043481" lon="1.87612">
        <ele>457.6</ele>
        <time>2020-08-13T02:29:09Z</time>
      </trkpt>
      <trkpt lat="42.042251" lon="1.875433">
        <ele>478.8</ele>
        <time>2020-08-13T02:29:15Z</time>
      </trkpt>
      <trkpt lat="42.041992" lon="1.875335">
        <ele>478.8</ele>
        <time>2020-08-13T02:29:16Z</time>
      </trkpt>
      <trkpt lat="42.041357" lon="1.875153">
        <ele>482.6</ele>
        <time>2020-08-13T02:29:18Z</time>
      </trkpt>
      <trkpt lat="42.04081" lon="1.875125">
        <ele>485.6</ele>
        <time>2020-08-13T02:29:21Z</time>
      </trkpt>
      <trkpt lat="42.03809" lon="1.875283">
        <ele>487.0</ele>
        <time>2020-08-13T02:29:32Z</time>
      </trkpt>
      <trkpt lat="42.036875" lon="1.875084">
        <ele>486.6</ele>
        <time>2020-08-13T02:29:37Z</time>
      </trkpt>
      <trkpt lat="42.035573" lon="1.874608">
        <ele>502.4</ele>
        <time>2020-08-13T02:29:43Z</time>
      </trkpt>
      <trkpt lat="42.034168" lon="1.873945">
        <ele>513.0</ele>
        <time>2020-08-13T02:29:49Z</time>
      </trkpt>
      <trkpt lat="42.033325" lon="1.873616">
        <ele>504.6</ele>
        <time>2020-08-13T02:29:53Z</time>
      </trkpt>
      <trkpt lat="42.033001" lon="1.873547">
        <ele>504.6</ele>
        <time>2020-08-13T02:29:54Z</time>
      </trkpt>
      <trkpt lat="42.032658" lon="1.873504">
        <ele>504.6</ele>
        <time>2020-08-13T02:29:56Z</time>
      </trkpt>
      <trkpt lat="42.032251" lon="1.873487">
        <ele>499.6</ele>
        <time>2020-08-13T02:29:58Z</time>
      </trkpt>
      <trkpt lat="42.031784" lon="1.87353">
        <ele>499.6</ele>
        <time>2020-08-13T02:30:00Z</time>
      </trkpt>
      <trkpt lat="42.031303" lon="1.873647">
        <ele>496.4</ele>
        <time>2020-08-13T02:30:02Z</time>
      </trkpt>
      <trkpt lat="42.030852" lon="1.873818">
        <ele>496.4</ele>
        <time>2020-08-13T02:30:04Z</time>
      </trkpt>
      <trkpt lat="42.030503" lon="1.874004">
        <ele>494.8</ele>
        <time>2020-08-13T02:30:05Z</time>
      </trkpt>
      <trkpt lat="42.030016" lon="1.874302">
        <ele>491.8</ele>
        <time>2020-08-13T02:30:08Z</time>
      </trkpt>
      <trkpt lat="42.028574" lon="1.875741">
        <ele>490.6</ele>
        <time>2020-08-13T02:30:15Z</time>
      </trkpt>
      <trkpt lat="42.027942" lon="1.876176">
        <ele>487.0</ele>
        <time>2020-08-13T02:30:18Z</time>
      </trkpt>
      <trkpt lat="42.027288" lon="1.876469">
        <ele>489.4</ele>
        <time>2020-08-13T02:30:21Z</time>
      </trkpt>
      <trkpt lat="42.026964" lon="1.876565">
        <ele>489.4</ele>
        <time>2020-08-13T02:30:22Z</time>
      </trkpt>
      <trkpt lat="42.025568" lon="1.87681">
        <ele>486.4</ele>
        <time>2020-08-13T02:30:28Z</time>
      </trkpt>
      <trkpt lat="42.025325" lon="1.876878">
        <ele>486.4</ele>
        <time>2020-08-13T02:30:29Z</time>
      </trkpt>
      <trkpt lat="42.024992" lon="1.876983">
        <ele>492.6</ele>
        <time>2020-08-13T02:30:31Z</time>
      </trkpt>
      <trkpt lat="42.023732" lon="1.877495">
        <ele>501.2</ele>
        <time>2020-08-13T02:30:36Z</time>
      </trkpt>
      <trkpt lat="42.023421" lon="1.877603">
        <ele>495.4</ele>
        <time>2020-08-13T02:30:38Z</time>
      </trkpt>
      <trkpt lat="42.023029" lon="1.877704">
        <ele>497.6</ele>
        <time>2020-08-13T02:30:40Z</time>
      </trkpt>
      <trkpt lat="42.022316" lon="1.877783">
        <ele>493.4</ele>
        <time>2020-08-13T02:30:43Z</time>
      </trkpt>
      <trkpt lat="42.021309" lon="1.877853">
        <ele>490.4</ele>
        <time>2020-08-13T02:30:47Z</time>
      </trkpt>
      <trkpt lat="42.020956" lon="1.877901">
        <ele>490.4</ele>
        <time>2020-08-13T02:30:48Z</time>
      </trkpt>
      <trkpt lat="42.020353" lon="1.878021">
        <ele>491.2</ele>
        <time>2020-08-13T02:30:51Z</time>
      </trkpt>
      <trkpt lat="42.019949" lon="1.878134">
        <ele>493.0</ele>
        <time>2020-08-13T02:30:53Z</time>
      </trkpt>
      <trkpt lat="42.019445" lon="1.878311">
        <ele>493.0</ele>
        <time>2020-08-13T02:30:55Z</time>
      </trkpt>
      <trkpt lat="42.01897" lon="1.878515">
        <ele>483.6</ele>
        <time>2020-08-13T02:30:57Z</time>
      </trkpt>
      <trkpt lat="42.018306" lon="1.878854">
        <ele>482.8</ele>
        <time>2020-08-13T02:31:00Z</time>
      </trkpt>
      <trkpt lat="42.014615" lon="1.88086">
        <ele>488.8</ele>
        <time>2020-08-13T02:31:17Z</time>
      </trkpt>
      <trkpt lat="42.011937" lon="1.882291">
        <ele>502.0</ele>
        <time>2020-08-13T02:31:29Z</time>
      </trkpt>
      <trkpt lat="42.0114" lon="1.882503">
        <ele>492.6</ele>
        <time>2020-08-13T02:31:31Z</time>
      </trkpt>
      <trkpt lat="42.011061" lon="1.882595">
        <ele>492.6</ele>
        <time>2020-08-13T02:31:33Z</time>
      </trkpt>
      <trkpt lat="42.010357" lon="1.882739">
        <ele>494.2</ele>
        <time>2020-08-13T02:31:36Z</time>
      </trkpt>
      <trkpt lat="42.009489" lon="1.88274">
        <ele>497.2</ele>
        <time>2020-08-13T02:31:39Z</time>
      </trkpt>
      <trkpt lat="42.009021" lon="1.882682">
        <ele>497.4</ele>
        <time>2020-08-13T02:31:41Z</time>
      </trkpt>
      <trkpt lat="42.008565" lon="1.882588">
        <ele>497.4</ele>
        <time>2020-08-13T02:31:43Z</time>
      </trkpt>
      <trkpt lat="42.008147" lon="1.882463">
        <ele>493.2</ele>
        <time>2020-08-13T02:31:45Z</time>
      </trkpt>
      <trkpt lat="42.006402" lon="1.881748">
        <ele>457.2</ele>
        <time>2020-08-13T02:31:53Z</time>
      </trkpt>
      <trkpt lat="42.005419" lon="1.881369">
        <ele>456.4</ele>
        <time>2020-08-13T02:31:57Z</time>
      </trkpt>
      <trkpt lat="42.00494" lon="1.881215">
        <ele>480.4</ele>
        <time>2020-08-13T02:32:00Z</time>
      </trkpt>
      <trkpt lat="42.003814" lon="1.880926">
        <ele>508.0</ele>
        <time>2020-08-13T02:32:05Z</time>
      </trkpt>
      <trkpt lat="42.002109" lon="1.880781">
        <ele>547.6</ele>
        <time>2020-08-13T02:32:12Z</time>
      </trkpt>
      <trkpt lat="42.000397" lon="1.880747">
        <ele>572.0</ele>
        <time>2020-08-13T02:32:19Z</time>
      </trkpt>
      <trkpt lat="41.99868" lon="1.881136">
        <ele>543.6</ele>
        <time>2020-08-13T02:32:27Z</time>
      </trkpt>
      <trkpt lat="41.996983" lon="1.881672">
        <ele>516.0</ele>
        <time>2020-08-13T02:32:34Z</time>
      </trkpt>
      <trkpt lat="41.995251" lon="1.882722">
        <ele>477.6</ele>
        <time>2020-08-13T02:32:42Z</time>
      </trkpt>
      <trkpt lat="41.993516" lon="1.883869">
        <ele>465.0</ele>
        <time>2020-08-13T02:32:50Z</time>
      </trkpt>
      <trkpt lat="41.992969" lon="1.88418">
        <ele>476.4</ele>
        <time>2020-08-13T02:32:53Z</time>
      </trkpt>
      <trkpt lat="41.992231" lon="1.884434">
        <ele>492.2</ele>
        <time>2020-08-13T02:32:56Z</time>
      </trkpt>
      <trkpt lat="41.991702" lon="1.884534">
        <ele>492.2</ele>
        <time>2020-08-13T02:32:58Z</time>
      </trkpt>
      <trkpt lat="41.991168" lon="1.884576">
        <ele>482.6</ele>
        <time>2020-08-13T02:33:01Z</time>
      </trkpt>
      <trkpt lat="41.990493" lon="1.884574">
        <ele>470.2</ele>
        <time>2020-08-13T02:33:04Z</time>
      </trkpt>
      <trkpt lat="41.989819" lon="1.884456">
        <ele>470.0</ele>
        <time>2020-08-13T02:33:07Z</time>
      </trkpt>
      <trkpt lat="41.988696" lon="1.884047">
        <ele>491.2</ele>
        <time>2020-08-13T02:33:12Z</time>
      </trkpt>
      <trkpt lat="41.987979" lon="1.883869">
        <ele>480.6</ele>
        <time>2020-08-13T02:33:15Z</time>
      </trkpt>
      <trkpt lat="41.987355" lon="1.883762">
        <ele>466.6</ele>
        <time>2020-08-13T02:33:17Z</time>
      </trkpt>
      <trkpt lat="41.986967" lon="1.883746">
        <ele>466.6</ele>
        <time>2020-08-13T02:33:19Z</time>
      </trkpt>
      <trkpt lat="41.986279" lon="1.883812">
        <ele>450.4</ele>
        <time>2020-08-13T02:33:22Z</time>
      </trkpt>
      <trkpt lat="41.985438" lon="1.88406">
        <ele>438.8</ele>
        <time>2020-08-13T02:33:26Z</time>
      </trkpt>
      <trkpt lat="41.980981" lon="1.886068">
        <ele>423.8</ele>
        <time>2020-08-13T02:33:45Z</time>
      </trkpt>
      <trkpt lat="41.980482" lon="1.886312">
        <ele>430.0</ele>
        <time>2020-08-13T02:33:48Z</time>
      </trkpt>
      <trkpt lat="41.978076" lon="1.887314">
        <ele>446.2</ele>
        <time>2020-08-13T02:33:58Z</time>
      </trkpt>
      <trkpt lat="41.976161" lon="1.887967">
        <ele>441.8</ele>
        <time>2020-08-13T02:34:07Z</time>
      </trkpt>
      <trkpt lat="41.975423" lon="1.888268">
        <ele>436.6</ele>
        <time>2020-08-13T02:34:10Z</time>
      </trkpt>
      <trkpt lat="41.974602" lon="1.888617">
        <ele>436.4</ele>
        <time>2020-08-13T02:34:14Z</time>
      </trkpt>
      <trkpt lat="41.973056" lon="1.889344">
        <ele>430.4</ele>
        <time>2020-08-13T02:34:21Z</time>
      </trkpt>
      <trkpt lat="41.970522" lon="1.890405">
        <ele>416.8</ele>
        <time>2020-08-13T02:34:32Z</time>
      </trkpt>
      <trkpt lat="41.969665" lon="1.890707">
        <ele>413.2</ele>
        <time>2020-08-13T02:34:35Z</time>
      </trkpt>
      <trkpt lat="41.969226" lon="1.890822">
        <ele>413.2</ele>
        <time>2020-08-13T02:34:37Z</time>
      </trkpt>
      <trkpt lat="41.968783" lon="1.890892">
        <ele>434.8</ele>
        <time>2020-08-13T02:34:39Z</time>
      </trkpt>
      <trkpt lat="41.968434" lon="1.890903">
        <ele>434.8</ele>
        <time>2020-08-13T02:34:41Z</time>
      </trkpt>
      <trkpt lat="41.968044" lon="1.890878">
        <ele>440.4</ele>
        <time>2020-08-13T02:34:43Z</time>
      </trkpt>
      <trkpt lat="41.967716" lon="1.890826">
        <ele>409.2</ele>
        <time>2020-08-13T02:34:44Z</time>
      </trkpt>
      <trkpt lat="41.967387" lon="1.890748">
        <ele>418.8</ele>
        <time>2020-08-13T02:34:46Z</time>
      </trkpt>
      <trkpt lat="41.966742" lon="1.890495">
        <ele>418.8</ele>
        <time>2020-08-13T02:34:49Z</time>
      </trkpt>
      <trkpt lat="41.966183" lon="1.890147">
        <ele>433.8</ele>
        <time>2020-08-13T02:34:51Z</time>
      </trkpt>
      <trkpt lat="41.965386" lon="1.889503">
        <ele>428.8</ele>
        <time>2020-08-13T02:34:55Z</time>
      </trkpt>
      <trkpt lat="41.964658" lon="1.888762">
        <ele>425.4</ele>
        <time>2020-08-13T02:34:59Z</time>
      </trkpt>
      <trkpt lat="41.963442" lon="1.887954">
        <ele>420.4</ele>
        <time>2020-08-13T02:35:05Z</time>
      </trkpt>
      <trkpt lat="41.95876" lon="1.88602">
        <ele>405.0</ele>
        <time>2020-08-13T02:35:26Z</time>
      </trkpt>
      <trkpt lat="41.956334" lon="1.885239">
        <ele>390.0</ele>
        <time>2020-08-13T02:35:36Z</time>
      </trkpt>
      <trkpt lat="41.955706" lon="1.884956">
        <ele>388.8</ele>
        <time>2020-08-13T02:35:39Z</time>
      </trkpt>
      <trkpt lat="41.954425" lon="1.884253">
        <ele>387.2</ele>
        <time>2020-08-13T02:35:45Z</time>
      </trkpt>
      <trkpt lat="41.953894" lon="1.883987">
        <ele>376.2</ele>
        <time>2020-08-13T02:35:47Z</time>
      </trkpt>
      <trkpt lat="41.953391" lon="1.883787">
        <ele>376.2</ele>
        <time>2020-08-13T02:35:49Z</time>
      </trkpt>
      <trkpt lat="41.951083" lon="1.883447">
        <ele>390.2</ele>
        <time>2020-08-13T02:35:59Z</time>
      </trkpt>
      <trkpt lat="41.950396" lon="1.883319">
        <ele>402.8</ele>
        <time>2020-08-13T02:36:02Z</time>
      </trkpt>
      <trkpt lat="41.949859" lon="1.883181">
        <ele>399.2</ele>
        <time>2020-08-13T02:36:04Z</time>
      </trkpt>
      <trkpt lat="41.949312" lon="1.882995">
        <ele>399.2</ele>
        <time>2020-08-13T02:36:07Z</time>
      </trkpt>
      <trkpt lat="41.948784" lon="1.88278">
        <ele>399.6</ele>
        <time>2020-08-13T02:36:09Z</time>
      </trkpt>
      <trkpt lat="41.94828" lon="1.882523">
        <ele>398.6</ele>
        <time>2020-08-13T02:36:11Z</time>
      </trkpt>
      <trkpt lat="41.947914" lon="1.882294">
        <ele>405.0</ele>
        <time>2020-08-13T02:36:13Z</time>
      </trkpt>
      <trkpt lat="41.947517" lon="1.881962">
        <ele>405.0</ele>
        <time>2020-08-13T02:36:15Z</time>
      </trkpt>
      <trkpt lat="41.947127" lon="1.881556">
        <ele>400.0</ele>
        <time>2020-08-13T02:36:17Z</time>
      </trkpt>
      <trkpt lat="41.946722" lon="1.881011">
        <ele>400.0</ele>
        <time>2020-08-13T02:36:20Z</time>
      </trkpt>
      <trkpt lat="41.945519" lon="1.879235">
        <ele>397.2</ele>
        <time>2020-08-13T02:36:27Z</time>
      </trkpt>
      <trkpt lat="41.945279" lon="1.878954">
        <ele>397.8</ele>
        <time>2020-08-13T02:36:29Z</time>
      </trkpt>
      <trkpt lat="41.945004" lon="1.878669">
        <ele>397.8</ele>
        <time>2020-08-13T02:36:30Z</time>
      </trkpt>
      <trkpt lat="41.944598" lon="1.878315">
        <ele>403.2</ele>
        <time>2020-08-13T02:36:32Z</time>
      </trkpt>
      <trkpt lat="41.944293" lon="1.878087">
        <ele>403.2</ele>
        <time>2020-08-13T02:36:34Z</time>
      </trkpt>
      <trkpt lat="41.943874" lon="1.87784">
        <ele>403.4</ele>
        <time>2020-08-13T02:36:35Z</time>
      </trkpt>
      <trkpt lat="41.943449" lon="1.877646">
        <ele>403.4</ele>
        <time>2020-08-13T02:36:37Z</time>
      </trkpt>
      <trkpt lat="41.943136" lon="1.877541">
        <ele>404.8</ele>
        <time>2020-08-13T02:36:39Z</time>
      </trkpt>
      <trkpt lat="41.942725" lon="1.877435">
        <ele>421.0</ele>
        <time>2020-08-13T02:36:41Z</time>
      </trkpt>
      <trkpt lat="41.942366" lon="1.877368">
        <ele>424.6</ele>
        <time>2020-08-13T02:36:42Z</time>
      </trkpt>
      <trkpt lat="41.941471" lon="1.877285">
        <ele>425.0</ele>
        <time>2020-08-13T02:36:46Z</time>
      </trkpt>
      <trkpt lat="41.940616" lon="1.877284">
        <ele>418.8</ele>
        <time>2020-08-13T02:36:50Z</time>
      </trkpt>
      <trkpt lat="41.939921" lon="1.877249">
        <ele>411.2</ele>
        <time>2020-08-13T02:36:53Z</time>
      </trkpt>
      <trkpt lat="41.939371" lon="1.877142">
        <ele>411.2</ele>
        <time>2020-08-13T02:36:55Z</time>
      </trkpt>
      <trkpt lat="41.938917" lon="1.87703">
        <ele>405.8</ele>
        <time>2020-08-13T02:36:57Z</time>
      </trkpt>
      <trkpt lat="41.936691" lon="1.876314">
        <ele>410.8</ele>
        <time>2020-08-13T02:37:06Z</time>
      </trkpt>
      <trkpt lat="41.936286" lon="1.876221">
        <ele>407.0</ele>
        <time>2020-08-13T02:37:08Z</time>
      </trkpt>
      <trkpt lat="41.936003" lon="1.876188">
        <ele>407.0</ele>
        <time>2020-08-13T02:37:09Z</time>
      </trkpt>
      <trkpt lat="41.935603" lon="1.876177">
        <ele>404.8</ele>
        <time>2020-08-13T02:37:11Z</time>
      </trkpt>
      <trkpt lat="41.935233" lon="1.876192">
        <ele>404.8</ele>
        <time>2020-08-13T02:37:13Z</time>
      </trkpt>
      <trkpt lat="41.934857" lon="1.876259">
        <ele>403.2</ele>
        <time>2020-08-13T02:37:14Z</time>
      </trkpt>
      <trkpt lat="41.934193" lon="1.876445">
        <ele>403.2</ele>
        <time>2020-08-13T02:37:17Z</time>
      </trkpt>
      <trkpt lat="41.931169" lon="1.877379">
        <ele>416.6</ele>
        <time>2020-08-13T02:37:30Z</time>
      </trkpt>
      <trkpt lat="41.929428" lon="1.877861">
        <ele>414.8</ele>
        <time>2020-08-13T02:37:38Z</time>
      </trkpt>
      <trkpt lat="41.928924" lon="1.878024">
        <ele>421.4</ele>
        <time>2020-08-13T02:37:40Z</time>
      </trkpt>
      <trkpt lat="41.928246" lon="1.878331">
        <ele>420.8</ele>
        <time>2020-08-13T02:37:43Z</time>
      </trkpt>
      <trkpt lat="41.927643" lon="1.878756">
        <ele>413.8</ele>
        <time>2020-08-13T02:37:46Z</time>
      </trkpt>
      <trkpt lat="41.926284" lon="1.879845">
        <ele>409.4</ele>
        <time>2020-08-13T02:37:53Z</time>
      </trkpt>
      <trkpt lat="41.925474" lon="1.880408">
        <ele>401.0</ele>
        <time>2020-08-13T02:37:56Z</time>
      </trkpt>
      <trkpt lat="41.924825" lon="1.880843">
        <ele>390.2</ele>
        <time>2020-08-13T02:38:00Z</time>
      </trkpt>
      <trkpt lat="41.924386" lon="1.881114">
        <ele>390.2</ele>
        <time>2020-08-13T02:38:02Z</time>
      </trkpt>
      <trkpt lat="41.923442" lon="1.881628">
        <ele>385.8</ele>
        <time>2020-08-13T02:38:06Z</time>
      </trkpt>
      <trkpt lat="41.922976" lon="1.881921">
        <ele>375.8</ele>
        <time>2020-08-13T02:38:08Z</time>
      </trkpt>
      <trkpt lat="41.922617" lon="1.882231">
        <ele>375.8</ele>
        <time>2020-08-13T02:38:10Z</time>
      </trkpt>
      <trkpt lat="41.922179" lon="1.882699">
        <ele>365.8</ele>
        <time>2020-08-13T02:38:12Z</time>
      </trkpt>
      <trkpt lat="41.921397" lon="1.88367">
        <ele>354.8</ele>
        <time>2020-08-13T02:38:17Z</time>
      </trkpt>
      <trkpt lat="41.921019" lon="1.884036">
        <ele>354.8</ele>
        <time>2020-08-13T02:38:19Z</time>
      </trkpt>
      <trkpt lat="41.920646" lon="1.884302">
        <ele>351.6</ele>
        <time>2020-08-13T02:38:21Z</time>
      </trkpt>
      <trkpt lat="41.920063" lon="1.88458">
        <ele>351.6</ele>
        <time>2020-08-13T02:38:23Z</time>
      </trkpt>
      <trkpt lat="41.91955" lon="1.884709">
        <ele>352.0</ele>
        <time>2020-08-13T02:38:25Z</time>
      </trkpt>
      <trkpt lat="41.919066" lon="1.884748">
        <ele>351.6</ele>
        <time>2020-08-13T02:38:27Z</time>
      </trkpt>
      <trkpt lat="41.918627" lon="1.88469">
        <ele>351.6</ele>
        <time>2020-08-13T02:38:29Z</time>
      </trkpt>
      <trkpt lat="41.918346" lon="1.884624">
        <ele>351.6</ele>
        <time>2020-08-13T02:38:30Z</time>
      </trkpt>
      <trkpt lat="41.918059" lon="1.884512">
        <ele>351.2</ele>
        <time>2020-08-13T02:38:32Z</time>
      </trkpt>
      <trkpt lat="41.917593" lon="1.884256">
        <ele>351.2</ele>
        <time>2020-08-13T02:38:34Z</time>
      </trkpt>
      <trkpt lat="41.91686" lon="1.883672">
        <ele>355.8</ele>
        <time>2020-08-13T02:38:37Z</time>
      </trkpt>
      <trkpt lat="41.915718" lon="1.882356">
        <ele>369.2</ele>
        <time>2020-08-13T02:38:44Z</time>
      </trkpt>
      <trkpt lat="41.915374" lon="1.882097">
        <ele>369.2</ele>
        <time>2020-08-13T02:38:45Z</time>
      </trkpt>
      <trkpt lat="41.914673" lon="1.881714">
        <ele>368.2</ele>
        <time>2020-08-13T02:38:49Z</time>
      </trkpt>
      <trkpt lat="41.913759" lon="1.881489">
        <ele>377.2</ele>
        <time>2020-08-13T02:38:53Z</time>
      </trkpt>
      <trkpt lat="41.91246" lon="1.881521">
        <ele>384.0</ele>
        <time>2020-08-13T02:38:58Z</time>
      </trkpt>
      <trkpt lat="41.911477" lon="1.88142">
        <ele>384.4</ele>
        <time>2020-08-13T02:39:02Z</time>
      </trkpt>
      <trkpt lat="41.910679" lon="1.881188">
        <ele>378.0</ele>
        <time>2020-08-13T02:39:06Z</time>
      </trkpt>
      <trkpt lat="41.910025" lon="1.880886">
        <ele>378.0</ele>
        <time>2020-08-13T02:39:09Z</time>
      </trkpt>
      <trkpt lat="41.909456" lon="1.880505">
        <ele>370.8</ele>
        <time>2020-08-13T02:39:11Z</time>
      </trkpt>
      <trkpt lat="41.908757" lon="1.879934">
        <ele>372.8</ele>
        <time>2020-08-13T02:39:15Z</time>
      </trkpt>
      <trkpt lat="41.906221" lon="1.877056">
        <ele>382.6</ele>
        <time>2020-08-13T02:39:29Z</time>
      </trkpt>
      <trkpt lat="41.904555" lon="1.87481">
        <ele>405.8</ele>
        <time>2020-08-13T02:39:39Z</time>
      </trkpt>
      <trkpt lat="41.901662" lon="1.870834">
        <ele>387.8</ele>
        <time>2020-08-13T02:39:56Z</time>
      </trkpt>
      <trkpt lat="41.901188" lon="1.870319">
        <ele>393.8</ele>
        <time>2020-08-13T02:39:59Z</time>
      </trkpt>
      <trkpt lat="41.900824" lon="1.869984">
        <ele>397.8</ele>
        <time>2020-08-13T02:40:01Z</time>
      </trkpt>
      <trkpt lat="41.90047" lon="1.86972">
        <ele>397.8</ele>
        <time>2020-08-13T02:40:02Z</time>
      </trkpt>
      <trkpt lat="41.900126" lon="1.869544">
        <ele>397.8</ele>
        <time>2020-08-13T02:40:04Z</time>
      </trkpt>
      <trkpt lat="41.899476" lon="1.869311">
        <ele>394.2</ele>
        <time>2020-08-13T02:40:07Z</time>
      </trkpt>
      <trkpt lat="41.898924" lon="1.869246">
        <ele>389.0</ele>
        <time>2020-08-13T02:40:09Z</time>
      </trkpt>
      <trkpt lat="41.89861" lon="1.869239">
        <ele>389.0</ele>
        <time>2020-08-13T02:40:11Z</time>
      </trkpt>
      <trkpt lat="41.898143" lon="1.869311">
        <ele>387.0</ele>
        <time>2020-08-13T02:40:13Z</time>
      </trkpt>
      <trkpt lat="41.897772" lon="1.869415">
        <ele>387.0</ele>
        <time>2020-08-13T02:40:14Z</time>
      </trkpt>
      <trkpt lat="41.897404" lon="1.869557">
        <ele>387.8</ele>
        <time>2020-08-13T02:40:16Z</time>
      </trkpt>
      <trkpt lat="41.897017" lon="1.86976">
        <ele>387.8</ele>
        <time>2020-08-13T02:40:17Z</time>
      </trkpt>
      <trkpt lat="41.896017" lon="1.870341">
        <ele>385.2</ele>
        <time>2020-08-13T02:40:22Z</time>
      </trkpt>
      <trkpt lat="41.893148" lon="1.872042">
        <ele>389.6</ele>
        <time>2020-08-13T02:40:35Z</time>
      </trkpt>
      <trkpt lat="41.892436" lon="1.872521">
        <ele>393.2</ele>
        <time>2020-08-13T02:40:39Z</time>
      </trkpt>
      <trkpt lat="41.891514" lon="1.873252">
        <ele>400.6</ele>
        <time>2020-08-13T02:40:43Z</time>
      </trkpt>
      <trkpt lat="41.890629" lon="1.873997">
        <ele>401.8</ele>
        <time>2020-08-13T02:40:48Z</time>
      </trkpt>
      <trkpt lat="41.889835" lon="1.874718">
        <ele>403.8</ele>
        <time>2020-08-13T02:40:52Z</time>
      </trkpt>
      <trkpt lat="41.888682" lon="1.875719">
        <ele>399.8</ele>
        <time>2020-08-13T02:40:57Z</time>
      </trkpt>
      <trkpt lat="41.888244" lon="1.876049">
        <ele>392.2</ele>
        <time>2020-08-13T02:41:00Z</time>
      </trkpt>
      <trkpt lat="41.887671" lon="1.876356">
        <ele>392.2</ele>
        <time>2020-08-13T02:41:02Z</time>
      </trkpt>
      <trkpt lat="41.887107" lon="1.876593">
        <ele>392.0</ele>
        <time>2020-08-13T02:41:05Z</time>
      </trkpt>
      <trkpt lat="41.886764" lon="1.876698">
        <ele>388.4</ele>
        <time>2020-08-13T02:41:06Z</time>
      </trkpt>
      <trkpt lat="41.886225" lon="1.876807">
        <ele>385.4</ele>
        <time>2020-08-13T02:41:09Z</time>
      </trkpt>
      <trkpt lat="41.885673" lon="1.876821">
        <ele>384.6</ele>
        <time>2020-08-13T02:41:11Z</time>
      </trkpt>
      <trkpt lat="41.885359" lon="1.876794">
        <ele>384.6</ele>
        <time>2020-08-13T02:41:12Z</time>
      </trkpt>
      <trkpt lat="41.884498" lon="1.876571">
        <ele>389.6</ele>
        <time>2020-08-13T02:41:16Z</time>
      </trkpt>
      <trkpt lat="41.88411" lon="1.87644">
        <ele>381.8</ele>
        <time>2020-08-13T02:41:18Z</time>
      </trkpt>
      <trkpt lat="41.883656" lon="1.876314">
        <ele>381.8</ele>
        <time>2020-08-13T02:41:20Z</time>
      </trkpt>
      <trkpt lat="41.8833" lon="1.876273">
        <ele>373.8</ele>
        <time>2020-08-13T02:41:21Z</time>
      </trkpt>
      <trkpt lat="41.882955" lon="1.876263">
        <ele>373.8</ele>
        <time>2020-08-13T02:41:23Z</time>
      </trkpt>
      <trkpt lat="41.882375" lon="1.876335">
        <ele>367.8</ele>
        <time>2020-08-13T02:41:25Z</time>
      </trkpt>
      <trkpt lat="41.882021" lon="1.876441">
        <ele>367.8</ele>
        <time>2020-08-13T02:41:27Z</time>
      </trkpt>
      <trkpt lat="41.881152" lon="1.876828">
        <ele>364.6</ele>
        <time>2020-08-13T02:41:30Z</time>
      </trkpt>
      <trkpt lat="41.880604" lon="1.877043">
        <ele>359.8</ele>
        <time>2020-08-13T02:41:33Z</time>
      </trkpt>
      <trkpt lat="41.880231" lon="1.877137">
        <ele>359.8</ele>
        <time>2020-08-13T02:41:34Z</time>
      </trkpt>
      <trkpt lat="41.879833" lon="1.877176">
        <ele>356.0</ele>
        <time>2020-08-13T02:41:36Z</time>
      </trkpt>
      <trkpt lat="41.87943" lon="1.877164">
        <ele>356.0</ele>
        <time>2020-08-13T02:41:38Z</time>
      </trkpt>
      <trkpt lat="41.879013" lon="1.877094">
        <ele>354.2</ele>
        <time>2020-08-13T02:41:40Z</time>
      </trkpt>
      <trkpt lat="41.878584" lon="1.876951">
        <ele>354.2</ele>
        <time>2020-08-13T02:41:41Z</time>
      </trkpt>
      <trkpt lat="41.878261" lon="1.876806">
        <ele>354.6</ele>
        <time>2020-08-13T02:41:43Z</time>
      </trkpt>
      <trkpt lat="41.877262" lon="1.876272">
        <ele>348.6</ele>
        <time>2020-08-13T02:41:47Z</time>
      </trkpt>
      <trkpt lat="41.876902" lon="1.876125">
        <ele>348.6</ele>
        <time>2020-08-13T02:41:49Z</time>
      </trkpt>
      <trkpt lat="41.876598" lon="1.876042">
        <ele>344.8</ele>
        <time>2020-08-13T02:41:50Z</time>
      </trkpt>
      <trkpt lat="41.876202" lon="1.875979">
        <ele>344.8</ele>
        <time>2020-08-13T02:41:52Z</time>
      </trkpt>
      <trkpt lat="41.875929" lon="1.875966">
        <ele>344.8</ele>
        <time>2020-08-13T02:41:53Z</time>
      </trkpt>
      <trkpt lat="41.875665" lon="1.875977">
        <ele>342.2</ele>
        <time>2020-08-13T02:41:54Z</time>
      </trkpt>
      <trkpt lat="41.875325" lon="1.876027">
        <ele>342.2</ele>
        <time>2020-08-13T02:41:56Z</time>
      </trkpt>
      <trkpt lat="41.874925" lon="1.876108">
        <ele>338.2</ele>
        <time>2020-08-13T02:41:57Z</time>
      </trkpt>
      <trkpt lat="41.874733" lon="1.876188">
        <ele>338.2</ele>
        <time>2020-08-13T02:41:58Z</time>
      </trkpt>
      <trkpt lat="41.87406" lon="1.876383">
        <ele>336.2</ele>
        <time>2020-08-13T02:42:01Z</time>
      </trkpt>
      <trkpt lat="41.873696" lon="1.876432">
        <ele>336.2</ele>
        <time>2020-08-13T02:42:03Z</time>
      </trkpt>
      <trkpt lat="41.873259" lon="1.876441">
        <ele>336.4</ele>
        <time>2020-08-13T02:42:05Z</time>
      </trkpt>
      <trkpt lat="41.872921" lon="1.876412">
        <ele>336.4</ele>
        <time>2020-08-13T02:42:06Z</time>
      </trkpt>
      <trkpt lat="41.872591" lon="1.876338">
        <ele>336.4</ele>
        <time>2020-08-13T02:42:07Z</time>
      </trkpt>
      <trkpt lat="41.872253" lon="1.876223">
        <ele>336.4</ele>
        <time>2020-08-13T02:42:09Z</time>
      </trkpt>
      <trkpt lat="41.871833" lon="1.876015">
        <ele>336.4</ele>
        <time>2020-08-13T02:42:11Z</time>
      </trkpt>
      <trkpt lat="41.871306" lon="1.875656">
        <ele>329.8</ele>
        <time>2020-08-13T02:42:13Z</time>
      </trkpt>
      <trkpt lat="41.870668" lon="1.875096">
        <ele>326.4</ele>
        <time>2020-08-13T02:42:17Z</time>
      </trkpt>
      <trkpt lat="41.869852" lon="1.874423">
        <ele>328.6</ele>
        <time>2020-08-13T02:42:21Z</time>
      </trkpt>
      <trkpt lat="41.868222" lon="1.873245">
        <ele>350.0</ele>
        <time>2020-08-13T02:42:28Z</time>
      </trkpt>
      <trkpt lat="41.865761" lon="1.871569">
        <ele>365.8</ele>
        <time>2020-08-13T02:42:40Z</time>
      </trkpt>
      <trkpt lat="41.86526" lon="1.871261">
        <ele>365.8</ele>
        <time>2020-08-13T02:42:42Z</time>
      </trkpt>
      <trkpt lat="41.864327" lon="1.870834">
        <ele>353.8</ele>
        <time>2020-08-13T02:42:47Z</time>
      </trkpt>
      <trkpt lat="41.863949" lon="1.870718">
        <ele>346.6</ele>
        <time>2020-08-13T02:42:48Z</time>
      </trkpt>
      <trkpt lat="41.863537" lon="1.870622">
        <ele>346.6</ele>
        <time>2020-08-13T02:42:50Z</time>
      </trkpt>
      <trkpt lat="41.862788" lon="1.870525">
        <ele>337.0</ele>
        <time>2020-08-13T02:42:53Z</time>
      </trkpt>
      <trkpt lat="41.862222" lon="1.87052">
        <ele>332.4</ele>
        <time>2020-08-13T02:42:56Z</time>
      </trkpt>
      <trkpt lat="41.861695" lon="1.870574">
        <ele>332.4</ele>
        <time>2020-08-13T02:42:58Z</time>
      </trkpt>
      <trkpt lat="41.861368" lon="1.870628">
        <ele>337.2</ele>
        <time>2020-08-13T02:42:59Z</time>
      </trkpt>
      <trkpt lat="41.857853" lon="1.871263">
        <ele>325.8</ele>
        <time>2020-08-13T02:43:14Z</time>
      </trkpt>
      <trkpt lat="41.857319" lon="1.871447">
        <ele>329.8</ele>
        <time>2020-08-13T02:43:17Z</time>
      </trkpt>
      <trkpt lat="41.856997" lon="1.871607">
        <ele>329.8</ele>
        <time>2020-08-13T02:43:18Z</time>
      </trkpt>
      <trkpt lat="41.8567" lon="1.871807">
        <ele>312.2</ele>
        <time>2020-08-13T02:43:20Z</time>
      </trkpt>
      <trkpt lat="41.856321" lon="1.872128">
        <ele>317.2</ele>
        <time>2020-08-13T02:43:22Z</time>
      </trkpt>
      <trkpt lat="41.856095" lon="1.872362">
        <ele>317.2</ele>
        <time>2020-08-13T02:43:23Z</time>
      </trkpt>
      <trkpt lat="41.855899" lon="1.872603">
        <ele>300.0</ele>
        <time>2020-08-13T02:43:24Z</time>
      </trkpt>
      <trkpt lat="41.855513" lon="1.873208">
        <ele>298.2</ele>
        <time>2020-08-13T02:43:27Z</time>
      </trkpt>
      <trkpt lat="41.855331" lon="1.873578">
        <ele>291.4</ele>
        <time>2020-08-13T02:43:28Z</time>
      </trkpt>
      <trkpt lat="41.855107" lon="1.874151">
        <ele>291.4</ele>
        <time>2020-08-13T02:43:30Z</time>
      </trkpt>
      <trkpt lat="41.854778" lon="1.875179">
        <ele>299.2</ele>
        <time>2020-08-13T02:43:34Z</time>
      </trkpt>
      <trkpt lat="41.854558" lon="1.875753">
        <ele>299.2</ele>
        <time>2020-08-13T02:43:36Z</time>
      </trkpt>
      <trkpt lat="41.8543" lon="1.876323">
        <ele>305.0</ele>
        <time>2020-08-13T02:43:38Z</time>
      </trkpt>
      <trkpt lat="41.853978" lon="1.876908">
        <ele>303.4</ele>
        <time>2020-08-13T02:43:40Z</time>
      </trkpt>
      <trkpt lat="41.85363" lon="1.877409">
        <ele>303.4</ele>
        <time>2020-08-13T02:43:42Z</time>
      </trkpt>
      <trkpt lat="41.853102" lon="1.878069">
        <ele>299.6</ele>
        <time>2020-08-13T02:43:45Z</time>
      </trkpt>
      <trkpt lat="41.85267" lon="1.878534">
        <ele>300.8</ele>
        <time>2020-08-13T02:43:47Z</time>
      </trkpt>
      <trkpt lat="41.852214" lon="1.87897">
        <ele>294.8</ele>
        <time>2020-08-13T02:43:50Z</time>
      </trkpt>
      <trkpt lat="41.850348" lon="1.880476">
        <ele>288.4</ele>
        <time>2020-08-13T02:43:59Z</time>
      </trkpt>
      <trkpt lat="41.849761" lon="1.881015">
        <ele>288.2</ele>
        <time>2020-08-13T02:44:02Z</time>
      </trkpt>
      <trkpt lat="41.848857" lon="1.882021">
        <ele>291.0</ele>
        <time>2020-08-13T02:44:07Z</time>
      </trkpt>
      <trkpt lat="41.84834" lon="1.882647">
        <ele>298.0</ele>
        <time>2020-08-13T02:44:10Z</time>
      </trkpt>
      <trkpt lat="41.847853" lon="1.883174">
        <ele>292.0</ele>
        <time>2020-08-13T02:44:13Z</time>
      </trkpt>
      <trkpt lat="41.847217" lon="1.88374">
        <ele>293.8</ele>
        <time>2020-08-13T02:44:16Z</time>
      </trkpt>
      <trkpt lat="41.846711" lon="1.884077">
        <ele>293.8</ele>
        <time>2020-08-13T02:44:18Z</time>
      </trkpt>
      <trkpt lat="41.846091" lon="1.884362">
        <ele>306.6</ele>
        <time>2020-08-13T02:44:21Z</time>
      </trkpt>
      <trkpt lat="41.845403" lon="1.884551">
        <ele>306.6</ele>
        <time>2020-08-13T02:44:24Z</time>
      </trkpt>
      <trkpt lat="41.844456" lon="1.884625">
        <ele>303.8</ele>
        <time>2020-08-13T02:44:28Z</time>
      </trkpt>
      <trkpt lat="41.843963" lon="1.884547">
        <ele>303.8</ele>
        <time>2020-08-13T02:44:30Z</time>
      </trkpt>
      <trkpt lat="41.843471" lon="1.884412">
        <ele>303.8</ele>
        <time>2020-08-13T02:44:32Z</time>
      </trkpt>
      <trkpt lat="41.843098" lon="1.88423">
        <ele>316.0</ele>
        <time>2020-08-13T02:44:34Z</time>
      </trkpt>
      <trkpt lat="41.842742" lon="1.883992">
        <ele>299.6</ele>
        <time>2020-08-13T02:44:36Z</time>
      </trkpt>
      <trkpt lat="41.839696" lon="1.881391">
        <ele>294.2</ele>
        <time>2020-08-13T02:44:51Z</time>
      </trkpt>
      <trkpt lat="41.839409" lon="1.881179">
        <ele>294.2</ele>
        <time>2020-08-13T02:44:52Z</time>
      </trkpt>
      <trkpt lat="41.838735" lon="1.880768">
        <ele>287.2</ele>
        <time>2020-08-13T02:44:56Z</time>
      </trkpt>
      <trkpt lat="41.838329" lon="1.880576">
        <ele>290.0</ele>
        <time>2020-08-13T02:44:57Z</time>
      </trkpt>
      <trkpt lat="41.837775" lon="1.880385">
        <ele>290.0</ele>
        <time>2020-08-13T02:45:00Z</time>
      </trkpt>
      <trkpt lat="41.837515" lon="1.880321">
        <ele>290.0</ele>
        <time>2020-08-13T02:45:01Z</time>
      </trkpt>
      <trkpt lat="41.837101" lon="1.880259">
        <ele>287.0</ele>
        <time>2020-08-13T02:45:03Z</time>
      </trkpt>
      <trkpt lat="41.836523" lon="1.880278">
        <ele>282.2</ele>
        <time>2020-08-13T02:45:05Z</time>
      </trkpt>
      <trkpt lat="41.836317" lon="1.880309">
        <ele>282.2</ele>
        <time>2020-08-13T02:45:06Z</time>
      </trkpt>
      <trkpt lat="41.835856" lon="1.880433">
        <ele>282.2</ele>
        <time>2020-08-13T02:45:08Z</time>
      </trkpt>
      <trkpt lat="41.835384" lon="1.880647">
        <ele>279.4</ele>
        <time>2020-08-13T02:45:10Z</time>
      </trkpt>
      <trkpt lat="41.834973" lon="1.880896">
        <ele>280.6</ele>
        <time>2020-08-13T02:45:12Z</time>
      </trkpt>
      <trkpt lat="41.834464" lon="1.881307">
        <ele>280.6</ele>
        <time>2020-08-13T02:45:14Z</time>
      </trkpt>
      <trkpt lat="41.834062" lon="1.881694">
        <ele>281.8</ele>
        <time>2020-08-13T02:45:17Z</time>
      </trkpt>
      <trkpt lat="41.833614" lon="1.882196">
        <ele>281.8</ele>
        <time>2020-08-13T02:45:19Z</time>
      </trkpt>
      <trkpt lat="41.833052" lon="1.88288">
        <ele>281.4</ele>
        <time>2020-08-13T02:45:22Z</time>
      </trkpt>
      <trkpt lat="41.832432" lon="1.883565">
        <ele>278.4</ele>
        <time>2020-08-13T02:45:26Z</time>
      </trkpt>
      <trkpt lat="41.83183" lon="1.8841">
        <ele>278.4</ele>
        <time>2020-08-13T02:45:29Z</time>
      </trkpt>
      <trkpt lat="41.831045" lon="1.884693">
        <ele>276.4</ele>
        <time>2020-08-13T02:45:32Z</time>
      </trkpt>
      <trkpt lat="41.828754" lon="1.885944">
        <ele>292.8</ele>
        <time>2020-08-13T02:45:43Z</time>
      </trkpt>
      <trkpt lat="41.827363" lon="1.886671">
        <ele>309.0</ele>
        <time>2020-08-13T02:45:49Z</time>
      </trkpt>
      <trkpt lat="41.826543" lon="1.887154">
        <ele>325.4</ele>
        <time>2020-08-13T02:45:53Z</time>
      </trkpt>
      <trkpt lat="41.824313" lon="1.888672">
        <ele>306.6</ele>
        <time>2020-08-13T02:46:04Z</time>
      </trkpt>
      <trkpt lat="41.822994" lon="1.889618">
        <ele>301.4</ele>
        <time>2020-08-13T02:46:10Z</time>
      </trkpt>
      <trkpt lat="41.822253" lon="1.890105">
        <ele>299.2</ele>
        <time>2020-08-13T02:46:13Z</time>
      </trkpt>
      <trkpt lat="41.820902" lon="1.890868">
        <ele>299.4</ele>
        <time>2020-08-13T02:46:20Z</time>
      </trkpt>
      <trkpt lat="41.819749" lon="1.89149">
        <ele>310.4</ele>
        <time>2020-08-13T02:46:25Z</time>
      </trkpt>
      <trkpt lat="41.819114" lon="1.891962">
        <ele>303.8</ele>
        <time>2020-08-13T02:46:28Z</time>
      </trkpt>
      <trkpt lat="41.818806" lon="1.892236">
        <ele>303.8</ele>
        <time>2020-08-13T02:46:30Z</time>
      </trkpt>
      <trkpt lat="41.81849" lon="1.89255">
        <ele>292.4</ele>
        <time>2020-08-13T02:46:31Z</time>
      </trkpt>
      <trkpt lat="41.818187" lon="1.892887">
        <ele>289.8</ele>
        <time>2020-08-13T02:46:33Z</time>
      </trkpt>
      <trkpt lat="41.81791" lon="1.893236">
        <ele>289.8</ele>
        <time>2020-08-13T02:46:35Z</time>
      </trkpt>
      <trkpt lat="41.816692" lon="1.895019">
        <ele>271.4</ele>
        <time>2020-08-13T02:46:42Z</time>
      </trkpt>
      <trkpt lat="41.816546" lon="1.895204">
        <ele>271.4</ele>
        <time>2020-08-13T02:46:43Z</time>
      </trkpt>
      <trkpt lat="41.816414" lon="1.895355">
        <ele>271.4</ele>
        <time>2020-08-13T02:46:44Z</time>
      </trkpt>
      <trkpt lat="41.816157" lon="1.895593">
        <ele>271.4</ele>
        <time>2020-08-13T02:46:45Z</time>
      </trkpt>
      <trkpt lat="41.815701" lon="1.895891">
        <ele>270.6</ele>
        <time>2020-08-13T02:46:47Z</time>
      </trkpt>
      <trkpt lat="41.81533" lon="1.89604">
        <ele>270.6</ele>
        <time>2020-08-13T02:46:49Z</time>
      </trkpt>
      <trkpt lat="41.814861" lon="1.89614">
        <ele>273.0</ele>
        <time>2020-08-13T02:46:51Z</time>
      </trkpt>
      <trkpt lat="41.809662" lon="1.896793">
        <ele>269.6</ele>
        <time>2020-08-13T02:47:13Z</time>
      </trkpt>
      <trkpt lat="41.806595" lon="1.897304">
        <ele>265.4</ele>
        <time>2020-08-13T02:47:26Z</time>
      </trkpt>
      <trkpt lat="41.804674" lon="1.897712">
        <ele>261.6</ele>
        <time>2020-08-13T02:47:34Z</time>
      </trkpt>
      <trkpt lat="41.803225" lon="1.897954">
        <ele>260.8</ele>
        <time>2020-08-13T02:47:40Z</time>
      </trkpt>
      <trkpt lat="41.802138" lon="1.898108">
        <ele>260.0</ele>
        <time>2020-08-13T02:47:45Z</time>
      </trkpt>
      <trkpt lat="41.798921" lon="1.898417">
        <ele>260.2</ele>
        <time>2020-08-13T02:47:59Z</time>
      </trkpt>
      <trkpt lat="41.796982" lon="1.89886">
        <ele>265.8</ele>
        <time>2020-08-13T02:48:07Z</time>
      </trkpt>
      <trkpt lat="41.796289" lon="1.898916">
        <ele>264.8</ele>
        <time>2020-08-13T02:48:10Z</time>
      </trkpt>
      <trkpt lat="41.795705" lon="1.898865">
        <ele>262.4</ele>
        <time>2020-08-13T02:48:12Z</time>
      </trkpt>
      <trkpt lat="41.795051" lon="1.898709">
        <ele>262.4</ele>
        <time>2020-08-13T02:48:15Z</time>
      </trkpt>
      <trkpt lat="41.794066" lon="1.898284">
        <ele>269.6</ele>
        <time>2020-08-13T02:48:19Z</time>
      </trkpt>
      <trkpt lat="41.793818" lon="1.898113">
        <ele>269.6</ele>
        <time>2020-08-13T02:48:21Z</time>
      </trkpt>
      <trkpt lat="41.792908" lon="1.897354">
        <ele>274.4</ele>
        <time>2020-08-13T02:48:25Z</time>
      </trkpt>
      <trkpt lat="41.791765" lon="1.896453">
        <ele>275.0</ele>
        <time>2020-08-13T02:48:31Z</time>
      </trkpt>
      <trkpt lat="41.778845" lon="1.885904">
        <ele>279.6</ele>
        <time>2020-08-13T02:49:35Z</time>
      </trkpt>
      <trkpt lat="41.77661" lon="1.884041">
        <ele>276.0</ele>
        <time>2020-08-13T02:49:46Z</time>
      </trkpt>
      <trkpt lat="41.775126" lon="1.882676">
        <ele>276.6</ele>
        <time>2020-08-13T02:49:53Z</time>
      </trkpt>
      <trkpt lat="41.772418" lon="1.880395">
        <ele>282.8</ele>
        <time>2020-08-13T02:50:07Z</time>
      </trkpt>
      <trkpt lat="41.771155" lon="1.879378">
        <ele>284.2</ele>
        <time>2020-08-13T02:50:13Z</time>
      </trkpt>
      <trkpt lat="41.770884" lon="1.879177">
        <ele>284.2</ele>
        <time>2020-08-13T02:50:14Z</time>
      </trkpt>
      <trkpt lat="41.770029" lon="1.878731">
        <ele>284.6</ele>
        <time>2020-08-13T02:50:18Z</time>
      </trkpt>
      <trkpt lat="41.768854" lon="1.878249">
        <ele>284.0</ele>
        <time>2020-08-13T02:50:23Z</time>
      </trkpt>
      <trkpt lat="41.768343" lon="1.878094">
        <ele>284.0</ele>
        <time>2020-08-13T02:50:26Z</time>
      </trkpt>
      <trkpt lat="41.767819" lon="1.877984">
        <ele>282.8</ele>
        <time>2020-08-13T02:50:28Z</time>
      </trkpt>
      <trkpt lat="41.766951" lon="1.877924">
        <ele>281.4</ele>
        <time>2020-08-13T02:50:32Z</time>
      </trkpt>
      <trkpt lat="41.766312" lon="1.877969">
        <ele>280.2</ele>
        <time>2020-08-13T02:50:34Z</time>
      </trkpt>
      <trkpt lat="41.765757" lon="1.878052">
        <ele>278.8</ele>
        <time>2020-08-13T02:50:37Z</time>
      </trkpt>
      <trkpt lat="41.765348" lon="1.878139">
        <ele>278.8</ele>
        <time>2020-08-13T02:50:38Z</time>
      </trkpt>
      <trkpt lat="41.764744" lon="1.87832">
        <ele>278.6</ele>
        <time>2020-08-13T02:50:41Z</time>
      </trkpt>
      <trkpt lat="41.763947" lon="1.878677">
        <ele>281.4</ele>
        <time>2020-08-13T02:50:45Z</time>
      </trkpt>
      <trkpt lat="41.763416" lon="1.878972">
        <ele>281.4</ele>
        <time>2020-08-13T02:50:47Z</time>
      </trkpt>
      <trkpt lat="41.762854" lon="1.879371">
        <ele>283.4</ele>
        <time>2020-08-13T02:50:50Z</time>
      </trkpt>
      <trkpt lat="41.762232" lon="1.879886">
        <ele>285.8</ele>
        <time>2020-08-13T02:50:53Z</time>
      </trkpt>
      <trkpt lat="41.761859" lon="1.880265">
        <ele>284.8</ele>
        <time>2020-08-13T02:50:55Z</time>
      </trkpt>
      <trkpt lat="41.761303" lon="1.880871">
        <ele>281.0</ele>
        <time>2020-08-13T02:50:58Z</time>
      </trkpt>
      <trkpt lat="41.760568" lon="1.881902">
        <ele>274.2</ele>
        <time>2020-08-13T02:51:02Z</time>
      </trkpt>
      <trkpt lat="41.759653" lon="1.883412">
        <ele>263.0</ele>
        <time>2020-08-13T02:51:08Z</time>
      </trkpt>
      <trkpt lat="41.759155" lon="1.884073">
        <ele>259.0</ele>
        <time>2020-08-13T02:51:11Z</time>
      </trkpt>
      <trkpt lat="41.758464" lon="1.884713">
        <ele>256.2</ele>
        <time>2020-08-13T02:51:15Z</time>
      </trkpt>
      <trkpt lat="41.757752" lon="1.885194">
        <ele>253.8</ele>
        <time>2020-08-13T02:51:18Z</time>
      </trkpt>
      <trkpt lat="41.757055" lon="1.885491">
        <ele>252.8</ele>
        <time>2020-08-13T02:51:21Z</time>
      </trkpt>
      <trkpt lat="41.755983" lon="1.885724">
        <ele>253.8</ele>
        <time>2020-08-13T02:51:26Z</time>
      </trkpt>
      <trkpt lat="41.755425" lon="1.885765">
        <ele>255.8</ele>
        <time>2020-08-13T02:51:28Z</time>
      </trkpt>
      <trkpt lat="41.754927" lon="1.885765">
        <ele>260.0</ele>
        <time>2020-08-13T02:51:30Z</time>
      </trkpt>
      <trkpt lat="41.754371" lon="1.885727">
        <ele>260.0</ele>
        <time>2020-08-13T02:51:33Z</time>
      </trkpt>
      <trkpt lat="41.753914" lon="1.885668">
        <ele>265.8</ele>
        <time>2020-08-13T02:51:35Z</time>
      </trkpt>
      <trkpt lat="41.753444" lon="1.885552">
        <ele>265.8</ele>
        <time>2020-08-13T02:51:37Z</time>
      </trkpt>
      <trkpt lat="41.752376" lon="1.885182">
        <ele>280.8</ele>
        <time>2020-08-13T02:51:41Z</time>
      </trkpt>
      <trkpt lat="41.751568" lon="1.884764">
        <ele>280.8</ele>
        <time>2020-08-13T02:51:45Z</time>
      </trkpt>
      <trkpt lat="41.750816" lon="1.884327">
        <ele>283.8</ele>
        <time>2020-08-13T02:51:49Z</time>
      </trkpt>
      <trkpt lat="41.749843" lon="1.883647">
        <ele>286.0</ele>
        <time>2020-08-13T02:51:53Z</time>
      </trkpt>
      <trkpt lat="41.74928" lon="1.883203">
        <ele>281.4</ele>
        <time>2020-08-13T02:51:56Z</time>
      </trkpt>
      <trkpt lat="41.747729" lon="1.881911">
        <ele>292.4</ele>
        <time>2020-08-13T02:52:04Z</time>
      </trkpt>
      <trkpt lat="41.746354" lon="1.880351">
        <ele>283.0</ele>
        <time>2020-08-13T02:52:11Z</time>
      </trkpt>
      <trkpt lat="41.744165" lon="1.87741">
        <ele>246.4</ele>
        <time>2020-08-13T02:52:24Z</time>
      </trkpt>
      <trkpt lat="41.743012" lon="1.876172">
        <ele>237.8</ele>
        <time>2020-08-13T02:52:31Z</time>
      </trkpt>
      <trkpt lat="41.742329" lon="1.875606">
        <ele>232.8</ele>
        <time>2020-08-13T02:52:34Z</time>
      </trkpt>
      <trkpt lat="41.741322" lon="1.87493">
        <ele>236.6</ele>
        <time>2020-08-13T02:52:39Z</time>
      </trkpt>
      <trkpt lat="41.74064" lon="1.874591">
        <ele>240.0</ele>
        <time>2020-08-13T02:52:42Z</time>
      </trkpt>
      <trkpt lat="41.739046" lon="1.873902">
        <ele>249.0</ele>
        <time>2020-08-13T02:52:49Z</time>
      </trkpt>
      <trkpt lat="41.73854" lon="1.873647">
        <ele>249.0</ele>
        <time>2020-08-13T02:52:51Z</time>
      </trkpt>
      <trkpt lat="41.738079" lon="1.873399">
        <ele>252.4</ele>
        <time>2020-08-13T02:52:53Z</time>
      </trkpt>
      <trkpt lat="41.737677" lon="1.873152">
        <ele>252.8</ele>
        <time>2020-08-13T02:52:55Z</time>
      </trkpt>
      <trkpt lat="41.73695" lon="1.87266">
        <ele>256.8</ele>
        <time>2020-08-13T02:52:59Z</time>
      </trkpt>
      <trkpt lat="41.736113" lon="1.871993">
        <ele>263.6</ele>
        <time>2020-08-13T02:53:03Z</time>
      </trkpt>
      <trkpt lat="41.735383" lon="1.871312">
        <ele>266.6</ele>
        <time>2020-08-13T02:53:07Z</time>
      </trkpt>
      <trkpt lat="41.733036" lon="1.868813">
        <ele>273.0</ele>
        <time>2020-08-13T02:53:19Z</time>
      </trkpt>
      <trkpt lat="41.732189" lon="1.868031">
        <ele>270.4</ele>
        <time>2020-08-13T02:53:24Z</time>
      </trkpt>
      <trkpt lat="41.731802" lon="1.867709">
        <ele>270.4</ele>
        <time>2020-08-13T02:53:25Z</time>
      </trkpt>
      <trkpt lat="41.731269" lon="1.867298">
        <ele>266.4</ele>
        <time>2020-08-13T02:53:28Z</time>
      </trkpt>
      <trkpt lat="41.730722" lon="1.866912">
        <ele>268.6</ele>
        <time>2020-08-13T02:53:31Z</time>
      </trkpt>
      <trkpt lat="41.730089" lon="1.866518">
        <ele>262.8</ele>
        <time>2020-08-13T02:53:34Z</time>
      </trkpt>
      <trkpt lat="41.729093" lon="1.865982">
        <ele>251.6</ele>
        <time>2020-08-13T02:53:38Z</time>
      </trkpt>
      <trkpt lat="41.728498" lon="1.865712">
        <ele>250.8</ele>
        <time>2020-08-13T02:53:41Z</time>
      </trkpt>
      <trkpt lat="41.728119" lon="1.865561">
        <ele>251.0</ele>
        <time>2020-08-13T02:53:43Z</time>
      </trkpt>
      <trkpt lat="41.727628" lon="1.865383">
        <ele>251.0</ele>
        <time>2020-08-13T02:53:45Z</time>
      </trkpt>
      <trkpt lat="41.727104" lon="1.865222">
        <ele>254.2</ele>
        <time>2020-08-13T02:53:47Z</time>
      </trkpt>
      <trkpt lat="41.726106" lon="1.864978">
        <ele>260.8</ele>
        <time>2020-08-13T02:53:51Z</time>
      </trkpt>
      <trkpt lat="41.725364" lon="1.864857">
        <ele>266.6</ele>
        <time>2020-08-13T02:53:54Z</time>
      </trkpt>
      <trkpt lat="41.72432" lon="1.864765">
        <ele>272.2</ele>
        <time>2020-08-13T02:53:59Z</time>
      </trkpt>
      <trkpt lat="41.723281" lon="1.864771">
        <ele>284.4</ele>
        <time>2020-08-13T02:54:03Z</time>
      </trkpt>
      <trkpt lat="41.72209" lon="1.864895">
        <ele>288.0</ele>
        <time>2020-08-13T02:54:08Z</time>
      </trkpt>
      <trkpt lat="41.720227" lon="1.865205">
        <ele>280.0</ele>
        <time>2020-08-13T02:54:16Z</time>
      </trkpt>
      <trkpt lat="41.71902" lon="1.86523">
        <ele>285.4</ele>
        <time>2020-08-13T02:54:21Z</time>
      </trkpt>
      <trkpt lat="41.718378" lon="1.865099">
        <ele>285.4</ele>
        <time>2020-08-13T02:54:24Z</time>
      </trkpt>
      <trkpt lat="41.717755" lon="1.864803">
        <ele>287.8</ele>
        <time>2020-08-13T02:54:27Z</time>
      </trkpt>
      <trkpt lat="41.7172" lon="1.864427">
        <ele>284.8</ele>
        <time>2020-08-13T02:54:29Z</time>
      </trkpt>
      <trkpt lat="41.71668" lon="1.863942">
        <ele>283.0</ele>
        <time>2020-08-13T02:54:32Z</time>
      </trkpt>
      <trkpt lat="41.715773" lon="1.862636">
        <ele>277.8</ele>
        <time>2020-08-13T02:54:38Z</time>
      </trkpt>
      <trkpt lat="41.714988" lon="1.861221">
        <ele>270.0</ele>
        <time>2020-08-13T02:54:43Z</time>
      </trkpt>
      <trkpt lat="41.714435" lon="1.86049">
        <ele>267.2</ele>
        <time>2020-08-13T02:54:47Z</time>
      </trkpt>
      <trkpt lat="41.713999" lon="1.860018">
        <ele>266.4</ele>
        <time>2020-08-13T02:54:49Z</time>
      </trkpt>
      <trkpt lat="41.713352" lon="1.859505">
        <ele>269.2</ele>
        <time>2020-08-13T02:54:52Z</time>
      </trkpt>
      <trkpt lat="41.71249" lon="1.858974">
        <ele>279.0</ele>
        <time>2020-08-13T02:54:56Z</time>
      </trkpt>
      <trkpt lat="41.71157" lon="1.858793">
        <ele>280.2</ele>
        <time>2020-08-13T02:55:00Z</time>
      </trkpt>
      <trkpt lat="41.71071" lon="1.85873">
        <ele>283.0</ele>
        <time>2020-08-13T02:55:04Z</time>
      </trkpt>
      <trkpt lat="41.709711" lon="1.858876">
        <ele>286.6</ele>
        <time>2020-08-13T02:55:08Z</time>
      </trkpt>
      <trkpt lat="41.709111" lon="1.859116">
        <ele>291.0</ele>
        <time>2020-08-13T02:55:11Z</time>
      </trkpt>
      <trkpt lat="41.708549" lon="1.859416">
        <ele>288.0</ele>
        <time>2020-08-13T02:55:13Z</time>
      </trkpt>
      <trkpt lat="41.707608" lon="1.860217">
        <ele>298.0</ele>
        <time>2020-08-13T02:55:18Z</time>
      </trkpt>
      <trkpt lat="41.706998" lon="1.860767">
        <ele>309.0</ele>
        <time>2020-08-13T02:55:21Z</time>
      </trkpt>
      <trkpt lat="41.706279" lon="1.861275">
        <ele>309.2</ele>
        <time>2020-08-13T02:55:24Z</time>
      </trkpt>
      <trkpt lat="41.705458" lon="1.861656">
        <ele>306.8</ele>
        <time>2020-08-13T02:55:28Z</time>
      </trkpt>
      <trkpt lat="41.704908" lon="1.861825">
        <ele>294.2</ele>
        <time>2020-08-13T02:55:31Z</time>
      </trkpt>
      <trkpt lat="41.704366" lon="1.861969">
        <ele>294.2</ele>
        <time>2020-08-13T02:55:33Z</time>
      </trkpt>
      <trkpt lat="41.703909" lon="1.862011">
        <ele>294.0</ele>
        <time>2020-08-13T02:55:35Z</time>
      </trkpt>
      <trkpt lat="41.703333" lon="1.862028">
        <ele>294.0</ele>
        <time>2020-08-13T02:55:37Z</time>
      </trkpt>
      <trkpt lat="41.702673" lon="1.86218">
        <ele>288.8</ele>
        <time>2020-08-13T02:55:40Z</time>
      </trkpt>
      <trkpt lat="41.702013" lon="1.862485">
        <ele>289.0</ele>
        <time>2020-08-13T02:55:43Z</time>
      </trkpt>
      <trkpt lat="41.701285" lon="1.863103">
        <ele>279.8</ele>
        <time>2020-08-13T02:55:47Z</time>
      </trkpt>
      <trkpt lat="41.700642" lon="1.863823">
        <ele>284.4</ele>
        <time>2020-08-13T02:55:50Z</time>
      </trkpt>
      <trkpt lat="41.700168" lon="1.864322">
        <ele>273.8</ele>
        <time>2020-08-13T02:55:53Z</time>
      </trkpt>
      <trkpt lat="41.699567" lon="1.864872">
        <ele>284.4</ele>
        <time>2020-08-13T02:55:56Z</time>
      </trkpt>
      <trkpt lat="41.698881" lon="1.865211">
        <ele>263.6</ele>
        <time>2020-08-13T02:55:59Z</time>
      </trkpt>
      <trkpt lat="41.698263" lon="1.86538">
        <ele>258.0</ele>
        <time>2020-08-13T02:56:02Z</time>
      </trkpt>
      <trkpt lat="41.697992" lon="1.865388">
        <ele>258.0</ele>
        <time>2020-08-13T02:56:03Z</time>
      </trkpt>
      <trkpt lat="41.69762" lon="1.865363">
        <ele>258.0</ele>
        <time>2020-08-13T02:56:05Z</time>
      </trkpt>
      <trkpt lat="41.697053" lon="1.865261">
        <ele>250.8</ele>
        <time>2020-08-13T02:56:07Z</time>
      </trkpt>
      <trkpt lat="41.696206" lon="1.865008">
        <ele>242.4</ele>
        <time>2020-08-13T02:56:11Z</time>
      </trkpt>
      <trkpt lat="41.695843" lon="1.864957">
        <ele>233.8</ele>
        <time>2020-08-13T02:56:12Z</time>
      </trkpt>
      <trkpt lat="41.695089" lon="1.865016">
        <ele>233.6</ele>
        <time>2020-08-13T02:56:15Z</time>
      </trkpt>
      <trkpt lat="41.694717" lon="1.865126">
        <ele>218.8</ele>
        <time>2020-08-13T02:56:17Z</time>
      </trkpt>
      <trkpt lat="41.694234" lon="1.865372">
        <ele>218.8</ele>
        <time>2020-08-13T02:56:19Z</time>
      </trkpt>
      <trkpt lat="41.693642" lon="1.865761">
        <ele>204.2</ele>
        <time>2020-08-13T02:56:22Z</time>
      </trkpt>
      <trkpt lat="41.691467" lon="1.867868">
        <ele>200.4</ele>
        <time>2020-08-13T02:56:33Z</time>
      </trkpt>
      <trkpt lat="41.690688" lon="1.868537">
        <ele>192.4</ele>
        <time>2020-08-13T02:56:37Z</time>
      </trkpt>
      <trkpt lat="41.689921" lon="1.869085">
        <ele>184.6</ele>
        <time>2020-08-13T02:56:41Z</time>
      </trkpt>
      <trkpt lat="41.688775" lon="1.869756">
        <ele>184.2</ele>
        <time>2020-08-13T02:56:46Z</time>
      </trkpt>
      <trkpt lat="41.687768" lon="1.870086">
        <ele>199.6</ele>
        <time>2020-08-13T02:56:51Z</time>
      </trkpt>
      <trkpt lat="41.687082" lon="1.870205">
        <ele>213.8</ele>
        <time>2020-08-13T02:56:54Z</time>
      </trkpt>
      <trkpt lat="41.686497" lon="1.870211">
        <ele>225.2</ele>
        <time>2020-08-13T02:56:56Z</time>
      </trkpt>
      <trkpt lat="41.685423" lon="1.870171">
        <ele>236.4</ele>
        <time>2020-08-13T02:57:01Z</time>
      </trkpt>
      <trkpt lat="41.684695" lon="1.869959">
        <ele>241.6</ele>
        <time>2020-08-13T02:57:04Z</time>
      </trkpt>
      <trkpt lat="41.683426" lon="1.869494">
        <ele>246.6</ele>
        <time>2020-08-13T02:57:09Z</time>
      </trkpt>
      <trkpt lat="41.682833" lon="1.86935">
        <ele>248.2</ele>
        <time>2020-08-13T02:57:12Z</time>
      </trkpt>
      <trkpt lat="41.681843" lon="1.869341">
        <ele>242.0</ele>
        <time>2020-08-13T02:57:16Z</time>
      </trkpt>
      <trkpt lat="41.681098" lon="1.869519">
        <ele>235.8</ele>
        <time>2020-08-13T02:57:19Z</time>
      </trkpt>
      <trkpt lat="41.68037" lon="1.8699">
        <ele>240.8</ele>
        <time>2020-08-13T02:57:23Z</time>
      </trkpt>
      <trkpt lat="41.679651" lon="1.870441">
        <ele>251.2</ele>
        <time>2020-08-13T02:57:26Z</time>
      </trkpt>
      <trkpt lat="41.678821" lon="1.871466">
        <ele>263.2</ele>
        <time>2020-08-13T02:57:31Z</time>
      </trkpt>
      <trkpt lat="41.678127" lon="1.872448">
        <ele>280.6</ele>
        <time>2020-08-13T02:57:35Z</time>
      </trkpt>
      <trkpt lat="41.677408" lon="1.873319">
        <ele>302.6</ele>
        <time>2020-08-13T02:57:40Z</time>
      </trkpt>
      <trkpt lat="41.676163" lon="1.874428">
        <ele>303.6</ele>
        <time>2020-08-13T02:57:46Z</time>
      </trkpt>
      <trkpt lat="41.67497" lon="1.875207">
        <ele>309.4</ele>
        <time>2020-08-13T02:57:51Z</time>
      </trkpt>
      <trkpt lat="41.67381" lon="1.875622">
        <ele>298.4</ele>
        <time>2020-08-13T02:57:57Z</time>
      </trkpt>
      <trkpt lat="41.672719" lon="1.875859">
        <ele>303.2</ele>
        <time>2020-08-13T02:58:01Z</time>
      </trkpt>
      <trkpt lat="41.670357" lon="1.875985">
        <ele>272.6</ele>
        <time>2020-08-13T02:58:11Z</time>
      </trkpt>
      <trkpt lat="41.669343" lon="1.876097">
        <ele>270.0</ele>
        <time>2020-08-13T02:58:16Z</time>
      </trkpt>
      <trkpt lat="41.668464" lon="1.876261">
        <ele>270.8</ele>
        <time>2020-08-13T02:58:19Z</time>
      </trkpt>
      <trkpt lat="41.66781" lon="1.876341">
        <ele>270.2</ele>
        <time>2020-08-13T02:58:22Z</time>
      </trkpt>
      <trkpt lat="41.666667" lon="1.87633">
        <ele>264.2</ele>
        <time>2020-08-13T02:58:27Z</time>
      </trkpt>
      <trkpt lat="41.666082" lon="1.876232">
        <ele>255.2</ele>
        <time>2020-08-13T02:58:29Z</time>
      </trkpt>
      <trkpt lat="41.665307" lon="1.876059">
        <ele>251.2</ele>
        <time>2020-08-13T02:58:33Z</time>
      </trkpt>
      <trkpt lat="41.664928" lon="1.875929">
        <ele>253.2</ele>
        <time>2020-08-13T02:58:34Z</time>
      </trkpt>
      <trkpt lat="41.66411" lon="1.875566">
        <ele>245.0</ele>
        <time>2020-08-13T02:58:38Z</time>
      </trkpt>
      <trkpt lat="41.663346" lon="1.875106">
        <ele>245.0</ele>
        <time>2020-08-13T02:58:42Z</time>
      </trkpt>
      <trkpt lat="41.662999" lon="1.874824">
        <ele>237.4</ele>
        <time>2020-08-13T02:58:43Z</time>
      </trkpt>
      <trkpt lat="41.662637" lon="1.874493">
        <ele>237.4</ele>
        <time>2020-08-13T02:58:45Z</time>
      </trkpt>
      <trkpt lat="41.662225" lon="1.874011">
        <ele>237.0</ele>
        <time>2020-08-13T02:58:47Z</time>
      </trkpt>
      <trkpt lat="41.661564" lon="1.873004">
        <ele>236.6</ele>
        <time>2020-08-13T02:58:52Z</time>
      </trkpt>
      <trkpt lat="41.660443" lon="1.871124">
        <ele>223.2</ele>
        <time>2020-08-13T02:58:59Z</time>
      </trkpt>
      <trkpt lat="41.659728" lon="1.870203">
        <ele>216.4</ele>
        <time>2020-08-13T02:59:04Z</time>
      </trkpt>
      <trkpt lat="41.659224" lon="1.869645">
        <ele>209.6</ele>
        <time>2020-08-13T02:59:06Z</time>
      </trkpt>
      <trkpt lat="41.658504" lon="1.869001">
        <ele>205.6</ele>
        <time>2020-08-13T02:59:10Z</time>
      </trkpt>
      <trkpt lat="41.657599" lon="1.868378">
        <ele>206.8</ele>
        <time>2020-08-13T02:59:14Z</time>
      </trkpt>
      <trkpt lat="41.656375" lon="1.867738">
        <ele>201.6</ele>
        <time>2020-08-13T02:59:20Z</time>
      </trkpt>
      <trkpt lat="41.655465" lon="1.867462">
        <ele>193.2</ele>
        <time>2020-08-13T02:59:24Z</time>
      </trkpt>
      <trkpt lat="41.654408" lon="1.867181">
        <ele>190.4</ele>
        <time>2020-08-13T02:59:28Z</time>
      </trkpt>
      <trkpt lat="41.65397" lon="1.867013">
        <ele>191.0</ele>
        <time>2020-08-13T02:59:30Z</time>
      </trkpt>
      <trkpt lat="41.653384" lon="1.866671">
        <ele>191.0</ele>
        <time>2020-08-13T02:59:33Z</time>
      </trkpt>
      <trkpt lat="41.652841" lon="1.866164">
        <ele>189.2</ele>
        <time>2020-08-13T02:59:36Z</time>
      </trkpt>
      <trkpt lat="41.652521" lon="1.865715">
        <ele>186.4</ele>
        <time>2020-08-13T02:59:40Z</time>
      </trkpt>
      <trkpt lat="41.651887" lon="1.864582">
        <ele>190.8</ele>
        <time>2020-08-13T02:59:44Z</time>
      </trkpt>
      <trkpt lat="41.651111" lon="1.863385">
        <ele>191.6</ele>
        <time>2020-08-13T02:59:50Z</time>
      </trkpt>
      <trkpt lat="41.650477" lon="1.862797">
        <ele>192.4</ele>
        <time>2020-08-13T02:59:53Z</time>
      </trkpt>
      <trkpt lat="41.649898" lon="1.862369">
        <ele>195.4</ele>
        <time>2020-08-13T02:59:56Z</time>
      </trkpt>
      <trkpt lat="41.649409" lon="1.862161">
        <ele>195.4</ele>
        <time>2020-08-13T02:59:58Z</time>
      </trkpt>
      <trkpt lat="41.64876" lon="1.861949">
        <ele>203.0</ele>
        <time>2020-08-13T03:00:01Z</time>
      </trkpt>
      <trkpt lat="41.648095" lon="1.861922">
        <ele>210.4</ele>
        <time>2020-08-13T03:00:04Z</time>
      </trkpt>
      <trkpt lat="41.647803" lon="1.861945">
        <ele>210.4</ele>
        <time>2020-08-13T03:00:05Z</time>
      </trkpt>
      <trkpt lat="41.647511" lon="1.861999">
        <ele>210.4</ele>
        <time>2020-08-13T03:00:06Z</time>
      </trkpt>
      <trkpt lat="41.647124" lon="1.862119">
        <ele>215.0</ele>
        <time>2020-08-13T03:00:08Z</time>
      </trkpt>
      <trkpt lat="41.646739" lon="1.862281">
        <ele>215.0</ele>
        <time>2020-08-13T03:00:10Z</time>
      </trkpt>
      <trkpt lat="41.646377" lon="1.862501">
        <ele>212.2</ele>
        <time>2020-08-13T03:00:12Z</time>
      </trkpt>
      <trkpt lat="41.646036" lon="1.862761">
        <ele>212.2</ele>
        <time>2020-08-13T03:00:13Z</time>
      </trkpt>
      <trkpt lat="41.645688" lon="1.863092">
        <ele>194.0</ele>
        <time>2020-08-13T03:00:15Z</time>
      </trkpt>
      <trkpt lat="41.645372" lon="1.863447">
        <ele>198.0</ele>
        <time>2020-08-13T03:00:17Z</time>
      </trkpt>
      <trkpt lat="41.644952" lon="1.864077">
        <ele>175.2</ele>
        <time>2020-08-13T03:00:20Z</time>
      </trkpt>
      <trkpt lat="41.644604" lon="1.86476">
        <ele>180.8</ele>
        <time>2020-08-13T03:00:23Z</time>
      </trkpt>
      <trkpt lat="41.644279" lon="1.865527">
        <ele>191.2</ele>
        <time>2020-08-13T03:00:26Z</time>
      </trkpt>
      <trkpt lat="41.643918" lon="1.866298">
        <ele>179.6</ele>
        <time>2020-08-13T03:00:29Z</time>
      </trkpt>
      <trkpt lat="41.642737" lon="1.868019">
        <ele>191.6</ele>
        <time>2020-08-13T03:00:36Z</time>
      </trkpt>
      <trkpt lat="41.642051" lon="1.869163">
        <ele>187.4</ele>
        <time>2020-08-13T03:00:41Z</time>
      </trkpt>
      <trkpt lat="41.641787" lon="1.869754">
        <ele>205.6</ele>
        <time>2020-08-13T03:00:43Z</time>
      </trkpt>
      <trkpt lat="41.641198" lon="1.870891">
        <ele>199.6</ele>
        <time>2020-08-13T03:00:48Z</time>
      </trkpt>
      <trkpt lat="41.640605" lon="1.871691">
        <ele>193.6</ele>
        <time>2020-08-13T03:00:51Z</time>
      </trkpt>
      <trkpt lat="41.63991" lon="1.872321">
        <ele>191.0</ele>
        <time>2020-08-13T03:00:55Z</time>
      </trkpt>
      <trkpt lat="41.639441" lon="1.872617">
        <ele>199.2</ele>
        <time>2020-08-13T03:00:57Z</time>
      </trkpt>
      <trkpt lat="41.638948" lon="1.872836">
        <ele>198.6</ele>
        <time>2020-08-13T03:01:00Z</time>
      </trkpt>
      <trkpt lat="41.638561" lon="1.87293">
        <ele>198.6</ele>
        <time>2020-08-13T03:01:01Z</time>
      </trkpt>
      <trkpt lat="41.638161" lon="1.872999">
        <ele>202.4</ele>
        <time>2020-08-13T03:01:03Z</time>
      </trkpt>
      <trkpt lat="41.637712" lon="1.873012">
        <ele>202.4</ele>
        <time>2020-08-13T03:01:05Z</time>
      </trkpt>
      <trkpt lat="41.637225" lon="1.87293">
        <ele>209.0</ele>
        <time>2020-08-13T03:01:07Z</time>
      </trkpt>
      <trkpt lat="41.636815" lon="1.872816">
        <ele>209.0</ele>
        <time>2020-08-13T03:01:09Z</time>
      </trkpt>
      <trkpt lat="41.636374" lon="1.872643">
        <ele>223.8</ele>
        <time>2020-08-13T03:01:11Z</time>
      </trkpt>
      <trkpt lat="41.635812" lon="1.872296">
        <ele>229.8</ele>
        <time>2020-08-13T03:01:14Z</time>
      </trkpt>
      <trkpt lat="41.635263" lon="1.871832">
        <ele>229.8</ele>
        <time>2020-08-13T03:01:17Z</time>
      </trkpt>
      <trkpt lat="41.634091" lon="1.8703">
        <ele>231.6</ele>
        <time>2020-08-13T03:01:24Z</time>
      </trkpt>
      <trkpt lat="41.633831" lon="1.870008">
        <ele>231.6</ele>
        <time>2020-08-13T03:01:25Z</time>
      </trkpt>
      <trkpt lat="41.633456" lon="1.869692">
        <ele>227.6</ele>
        <time>2020-08-13T03:01:27Z</time>
      </trkpt>
      <trkpt lat="41.633131" lon="1.869502">
        <ele>232.2</ele>
        <time>2020-08-13T03:01:29Z</time>
      </trkpt>
      <trkpt lat="41.632789" lon="1.869361">
        <ele>232.2</ele>
        <time>2020-08-13T03:01:30Z</time>
      </trkpt>
      <trkpt lat="41.63238" lon="1.869294">
        <ele>238.2</ele>
        <time>2020-08-13T03:01:32Z</time>
      </trkpt>
      <trkpt lat="41.63169" lon="1.869365">
        <ele>238.2</ele>
        <time>2020-08-13T03:01:35Z</time>
      </trkpt>
      <trkpt lat="41.630967" lon="1.869631">
        <ele>239.6</ele>
        <time>2020-08-13T03:01:38Z</time>
      </trkpt>
      <trkpt lat="41.629474" lon="1.870834">
        <ele>235.6</ele>
        <time>2020-08-13T03:01:46Z</time>
      </trkpt>
      <trkpt lat="41.629145" lon="1.871045">
        <ele>218.0</ele>
        <time>2020-08-13T03:01:48Z</time>
      </trkpt>
      <trkpt lat="41.628885" lon="1.871184">
        <ele>218.0</ele>
        <time>2020-08-13T03:01:49Z</time>
      </trkpt>
      <trkpt lat="41.628626" lon="1.871306">
        <ele>218.0</ele>
        <time>2020-08-13T03:01:50Z</time>
      </trkpt>
      <trkpt lat="41.62809" lon="1.871507">
        <ele>210.2</ele>
        <time>2020-08-13T03:01:53Z</time>
      </trkpt>
      <trkpt lat="41.627419" lon="1.8717">
        <ele>222.8</ele>
        <time>2020-08-13T03:01:56Z</time>
      </trkpt>
      <trkpt lat="41.626741" lon="1.871839">
        <ele>222.8</ele>
        <time>2020-08-13T03:01:59Z</time>
      </trkpt>
      <trkpt lat="41.626449" lon="1.871877">
        <ele>228.8</ele>
        <time>2020-08-13T03:02:00Z</time>
      </trkpt>
      <trkpt lat="41.625704" lon="1.871933">
        <ele>227.2</ele>
        <time>2020-08-13T03:02:03Z</time>
      </trkpt>
      <trkpt lat="41.62396" lon="1.871914">
        <ele>225.2</ele>
        <time>2020-08-13T03:02:11Z</time>
      </trkpt>
      <trkpt lat="41.623492" lon="1.871972">
        <ele>225.2</ele>
        <time>2020-08-13T03:02:13Z</time>
      </trkpt>
      <trkpt lat="41.623052" lon="1.872113">
        <ele>217.6</ele>
        <time>2020-08-13T03:02:15Z</time>
      </trkpt>
      <trkpt lat="41.622631" lon="1.872332">
        <ele>217.6</ele>
        <time>2020-08-13T03:02:17Z</time>
      </trkpt>
      <trkpt lat="41.622203" lon="1.872663">
        <ele>226.8</ele>
        <time>2020-08-13T03:02:19Z</time>
      </trkpt>
      <trkpt lat="41.62199" lon="1.872873">
        <ele>226.8</ele>
        <time>2020-08-13T03:02:20Z</time>
      </trkpt>
      <trkpt lat="41.621608" lon="1.873369">
        <ele>228.8</ele>
        <time>2020-08-13T03:02:22Z</time>
      </trkpt>
      <trkpt lat="41.621462" lon="1.873604">
        <ele>228.8</ele>
        <time>2020-08-13T03:02:23Z</time>
      </trkpt>
      <trkpt lat="41.621213" lon="1.874113">
        <ele>228.8</ele>
        <time>2020-08-13T03:02:25Z</time>
      </trkpt>
      <trkpt lat="41.621019" lon="1.874678">
        <ele>238.2</ele>
        <time>2020-08-13T03:02:27Z</time>
      </trkpt>
      <trkpt lat="41.620885" lon="1.875277">
        <ele>241.0</ele>
        <time>2020-08-13T03:02:29Z</time>
      </trkpt>
      <trkpt lat="41.62084" lon="1.875592">
        <ele>241.0</ele>
        <time>2020-08-13T03:02:30Z</time>
      </trkpt>
      <trkpt lat="41.620814" lon="1.87598">
        <ele>226.6</ele>
        <time>2020-08-13T03:02:32Z</time>
      </trkpt>
      <trkpt lat="41.620826" lon="1.876723">
        <ele>226.6</ele>
        <time>2020-08-13T03:02:34Z</time>
      </trkpt>
      <trkpt lat="41.620898" lon="1.878066">
        <ele>241.6</ele>
        <time>2020-08-13T03:02:39Z</time>
      </trkpt>
      <trkpt lat="41.620892" lon="1.878445">
        <ele>241.4</ele>
        <time>2020-08-13T03:02:40Z</time>
      </trkpt>
      <trkpt lat="41.620849" lon="1.879009">
        <ele>241.4</ele>
        <time>2020-08-13T03:02:42Z</time>
      </trkpt>
      <trkpt lat="41.620755" lon="1.879556">
        <ele>233.0</ele>
        <time>2020-08-13T03:02:44Z</time>
      </trkpt>
      <trkpt lat="41.620616" lon="1.880134">
        <ele>236.2</ele>
        <time>2020-08-13T03:02:46Z</time>
      </trkpt>
      <trkpt lat="41.620352" lon="1.880837">
        <ele>237.0</ele>
        <time>2020-08-13T03:02:48Z</time>
      </trkpt>
      <trkpt lat="41.620101" lon="1.881347">
        <ele>237.0</ele>
        <time>2020-08-13T03:02:50Z</time>
      </trkpt>
      <trkpt lat="41.619736" lon="1.881909">
        <ele>232.4</ele>
        <time>2020-08-13T03:02:53Z</time>
      </trkpt>
      <trkpt lat="41.619568" lon="1.882119">
        <ele>232.4</ele>
        <time>2020-08-13T03:02:54Z</time>
      </trkpt>
      <trkpt lat="41.619207" lon="1.8825">
        <ele>231.4</ele>
        <time>2020-08-13T03:02:56Z</time>
      </trkpt>
      <trkpt lat="41.618743" lon="1.882881">
        <ele>226.4</ele>
        <time>2020-08-13T03:02:58Z</time>
      </trkpt>
      <trkpt lat="41.617383" lon="1.883672">
        <ele>218.0</ele>
        <time>2020-08-13T03:03:04Z</time>
      </trkpt>
      <trkpt lat="41.617126" lon="1.883847">
        <ele>218.0</ele>
        <time>2020-08-13T03:03:06Z</time>
      </trkpt>
      <trkpt lat="41.616594" lon="1.884296">
        <ele>216.0</ele>
        <time>2020-08-13T03:03:08Z</time>
      </trkpt>
      <trkpt lat="41.616322" lon="1.88457">
        <ele>216.0</ele>
        <time>2020-08-13T03:03:10Z</time>
      </trkpt>
      <trkpt lat="41.61606" lon="1.884869">
        <ele>216.0</ele>
        <time>2020-08-13T03:03:11Z</time>
      </trkpt>
      <trkpt lat="41.615808" lon="1.885205">
        <ele>213.2</ele>
        <time>2020-08-13T03:03:13Z</time>
      </trkpt>
      <trkpt lat="41.61535" lon="1.885934">
        <ele>216.0</ele>
        <time>2020-08-13T03:03:16Z</time>
      </trkpt>
      <trkpt lat="41.614561" lon="1.887526">
        <ele>221.8</ele>
        <time>2020-08-13T03:03:22Z</time>
      </trkpt>
      <trkpt lat="41.614356" lon="1.887887">
        <ele>221.8</ele>
        <time>2020-08-13T03:03:24Z</time>
      </trkpt>
      <trkpt lat="41.614134" lon="1.888223">
        <ele>226.0</ele>
        <time>2020-08-13T03:03:25Z</time>
      </trkpt>
      <trkpt lat="41.613914" lon="1.888518">
        <ele>227.6</ele>
        <time>2020-08-13T03:03:26Z</time>
      </trkpt>
      <trkpt lat="41.61368" lon="1.888794">
        <ele>227.6</ele>
        <time>2020-08-13T03:03:28Z</time>
      </trkpt>
      <trkpt lat="41.61344" lon="1.889053">
        <ele>227.6</ele>
        <time>2020-08-13T03:03:29Z</time>
      </trkpt>
      <trkpt lat="41.61319" lon="1.889289">
        <ele>235.2</ele>
        <time>2020-08-13T03:03:31Z</time>
      </trkpt>
      <trkpt lat="41.612875" lon="1.88955">
        <ele>235.2</ele>
        <time>2020-08-13T03:03:32Z</time>
      </trkpt>
      <trkpt lat="41.612567" lon="1.889774">
        <ele>235.2</ele>
        <time>2020-08-13T03:03:34Z</time>
      </trkpt>
      <trkpt lat="41.612244" lon="1.889962">
        <ele>240.6</ele>
        <time>2020-08-13T03:03:35Z</time>
      </trkpt>
      <trkpt lat="41.611906" lon="1.890126">
        <ele>243.2</ele>
        <time>2020-08-13T03:03:37Z</time>
      </trkpt>
      <trkpt lat="41.611543" lon="1.89027">
        <ele>249.0</ele>
        <time>2020-08-13T03:03:38Z</time>
      </trkpt>
      <trkpt lat="41.611187" lon="1.89038">
        <ele>249.0</ele>
        <time>2020-08-13T03:03:40Z</time>
      </trkpt>
      <trkpt lat="41.610464" lon="1.890566">
        <ele>259.2</ele>
        <time>2020-08-13T03:03:43Z</time>
      </trkpt>
      <trkpt lat="41.610186" lon="1.890653">
        <ele>259.2</ele>
        <time>2020-08-13T03:03:44Z</time>
      </trkpt>
      <trkpt lat="41.609875" lon="1.890779">
        <ele>269.8</ele>
        <time>2020-08-13T03:03:46Z</time>
      </trkpt>
      <trkpt lat="41.609459" lon="1.890999">
        <ele>265.8</ele>
        <time>2020-08-13T03:03:48Z</time>
      </trkpt>
      <trkpt lat="41.609112" lon="1.89123">
        <ele>268.8</ele>
        <time>2020-08-13T03:03:50Z</time>
      </trkpt>
      <trkpt lat="41.608837" lon="1.891453">
        <ele>268.8</ele>
        <time>2020-08-13T03:03:51Z</time>
      </trkpt>
      <trkpt lat="41.608534" lon="1.891748">
        <ele>266.6</ele>
        <time>2020-08-13T03:03:53Z</time>
      </trkpt>
      <trkpt lat="41.608343" lon="1.891955">
        <ele>266.6</ele>
        <time>2020-08-13T03:03:54Z</time>
      </trkpt>
      <trkpt lat="41.608131" lon="1.892221">
        <ele>269.0</ele>
        <time>2020-08-13T03:03:55Z</time>
      </trkpt>
      <trkpt lat="41.607826" lon="1.892665">
        <ele>271.2</ele>
        <time>2020-08-13T03:03:57Z</time>
      </trkpt>
      <trkpt lat="41.607066" lon="1.894047">
        <ele>282.0</ele>
        <time>2020-08-13T03:04:03Z</time>
      </trkpt>
      <trkpt lat="41.606871" lon="1.894355">
        <ele>282.4</ele>
        <time>2020-08-13T03:04:04Z</time>
      </trkpt>
      <trkpt lat="41.60668" lon="1.894621">
        <ele>282.4</ele>
        <time>2020-08-13T03:04:05Z</time>
      </trkpt>
      <trkpt lat="41.606466" lon="1.894884">
        <ele>293.6</ele>
        <time>2020-08-13T03:04:06Z</time>
      </trkpt>
      <trkpt lat="41.606242" lon="1.895125">
        <ele>290.8</ele>
        <time>2020-08-13T03:04:08Z</time>
      </trkpt>
      <trkpt lat="41.605979" lon="1.895373">
        <ele>290.8</ele>
        <time>2020-08-13T03:04:09Z</time>
      </trkpt>
      <trkpt lat="41.605707" lon="1.89559">
        <ele>295.0</ele>
        <time>2020-08-13T03:04:10Z</time>
      </trkpt>
      <trkpt lat="41.605151" lon="1.895933">
        <ele>291.6</ele>
        <time>2020-08-13T03:04:13Z</time>
      </trkpt>
      <trkpt lat="41.604738" lon="1.896113">
        <ele>290.0</ele>
        <time>2020-08-13T03:04:15Z</time>
      </trkpt>
      <trkpt lat="41.604468" lon="1.896202">
        <ele>290.0</ele>
        <time>2020-08-13T03:04:16Z</time>
      </trkpt>
      <trkpt lat="41.603113" lon="1.896469">
        <ele>293.4</ele>
        <time>2020-08-13T03:04:22Z</time>
      </trkpt>
      <trkpt lat="41.602533" lon="1.896609">
        <ele>293.4</ele>
        <time>2020-08-13T03:04:25Z</time>
      </trkpt>
      <trkpt lat="41.60193" lon="1.896809">
        <ele>297.8</ele>
        <time>2020-08-13T03:04:27Z</time>
      </trkpt>
      <trkpt lat="41.601096" lon="1.89719">
        <ele>296.0</ele>
        <time>2020-08-13T03:04:31Z</time>
      </trkpt>
      <trkpt lat="41.600456" lon="1.897567">
        <ele>302.8</ele>
        <time>2020-08-13T03:04:34Z</time>
      </trkpt>
      <trkpt lat="41.600154" lon="1.897774">
        <ele>302.8</ele>
        <time>2020-08-13T03:04:36Z</time>
      </trkpt>
      <trkpt lat="41.59893" lon="1.898726">
        <ele>298.4</ele>
        <time>2020-08-13T03:04:42Z</time>
      </trkpt>
      <trkpt lat="41.598608" lon="1.898954">
        <ele>298.4</ele>
        <time>2020-08-13T03:04:44Z</time>
      </trkpt>
      <trkpt lat="41.59828" lon="1.899142">
        <ele>292.2</ele>
        <time>2020-08-13T03:04:45Z</time>
      </trkpt>
      <trkpt lat="41.597906" lon="1.899317">
        <ele>296.0</ele>
        <time>2020-08-13T03:04:47Z</time>
      </trkpt>
      <trkpt lat="41.596703" lon="1.899755">
        <ele>297.6</ele>
        <time>2020-08-13T03:04:52Z</time>
      </trkpt>
      <trkpt lat="41.596282" lon="1.899986">
        <ele>299.4</ele>
        <time>2020-08-13T03:04:54Z</time>
      </trkpt>
      <trkpt lat="41.595879" lon="1.900275">
        <ele>309.4</ele>
        <time>2020-08-13T03:04:56Z</time>
      </trkpt>
      <trkpt lat="41.595549" lon="1.900596">
        <ele>308.2</ele>
        <time>2020-08-13T03:04:58Z</time>
      </trkpt>
      <trkpt lat="41.595322" lon="1.900863">
        <ele>314.2</ele>
        <time>2020-08-13T03:04:59Z</time>
      </trkpt>
      <trkpt lat="41.594991" lon="1.901339">
        <ele>308.6</ele>
        <time>2020-08-13T03:05:01Z</time>
      </trkpt>
      <trkpt lat="41.594834" lon="1.90163">
        <ele>308.6</ele>
        <time>2020-08-13T03:05:03Z</time>
      </trkpt>
      <trkpt lat="41.594607" lon="1.902135">
        <ele>309.6</ele>
        <time>2020-08-13T03:05:05Z</time>
      </trkpt>
      <trkpt lat="41.594457" lon="1.902581">
        <ele>311.6</ele>
        <time>2020-08-13T03:05:06Z</time>
      </trkpt>
      <trkpt lat="41.59405" lon="1.904134">
        <ele>316.0</ele>
        <time>2020-08-13T03:05:11Z</time>
      </trkpt>
      <trkpt lat="41.593815" lon="1.904813">
        <ele>318.6</ele>
        <time>2020-08-13T03:05:14Z</time>
      </trkpt>
      <trkpt lat="41.593673" lon="1.905139">
        <ele>322.4</ele>
        <time>2020-08-13T03:05:15Z</time>
      </trkpt>
      <trkpt lat="41.593498" lon="1.905464">
        <ele>322.4</ele>
        <time>2020-08-13T03:05:16Z</time>
      </trkpt>
      <trkpt lat="41.593289" lon="1.90581">
        <ele>324.6</ele>
        <time>2020-08-13T03:05:18Z</time>
      </trkpt>
      <trkpt lat="41.593044" lon="1.906141">
        <ele>328.6</ele>
        <time>2020-08-13T03:05:19Z</time>
      </trkpt>
      <trkpt lat="41.592761" lon="1.906467">
        <ele>328.6</ele>
        <time>2020-08-13T03:05:21Z</time>
      </trkpt>
      <trkpt lat="41.592481" lon="1.906733">
        <ele>334.6</ele>
        <time>2020-08-13T03:05:23Z</time>
      </trkpt>
      <trkpt lat="41.592159" lon="1.906987">
        <ele>334.6</ele>
        <time>2020-08-13T03:05:24Z</time>
      </trkpt>
      <trkpt lat="41.591816" lon="1.907191">
        <ele>334.6</ele>
        <time>2020-08-13T03:05:26Z</time>
      </trkpt>
      <trkpt lat="41.590345" lon="1.907769">
        <ele>339.8</ele>
        <time>2020-08-13T03:05:33Z</time>
      </trkpt>
      <trkpt lat="41.58979" lon="1.908085">
        <ele>348.4</ele>
        <time>2020-08-13T03:05:35Z</time>
      </trkpt>
      <trkpt lat="41.589386" lon="1.90834">
        <ele>352.4</ele>
        <time>2020-08-13T03:05:37Z</time>
      </trkpt>
      <trkpt lat="41.588988" lon="1.908723">
        <ele>360.2</ele>
        <time>2020-08-13T03:05:39Z</time>
      </trkpt>
      <trkpt lat="41.588656" lon="1.909139">
        <ele>360.2</ele>
        <time>2020-08-13T03:05:41Z</time>
      </trkpt>
      <trkpt lat="41.588291" lon="1.909705">
        <ele>363.6</ele>
        <time>2020-08-13T03:05:44Z</time>
      </trkpt>
      <trkpt lat="41.588011" lon="1.910237">
        <ele>361.0</ele>
        <time>2020-08-13T03:05:46Z</time>
      </trkpt>
      <trkpt lat="41.587525" lon="1.911335">
        <ele>359.0</ele>
        <time>2020-08-13T03:05:50Z</time>
      </trkpt>
      <trkpt lat="41.587126" lon="1.912634">
        <ele>359.0</ele>
        <time>2020-08-13T03:05:54Z</time>
      </trkpt>
      <trkpt lat="41.58667" lon="1.914371">
        <ele>343.8</ele>
        <time>2020-08-13T03:06:01Z</time>
      </trkpt>
      <trkpt lat="41.586445" lon="1.915042">
        <ele>340.8</ele>
        <time>2020-08-13T03:06:03Z</time>
      </trkpt>
      <trkpt lat="41.586309" lon="1.915368">
        <ele>340.8</ele>
        <time>2020-08-13T03:06:04Z</time>
      </trkpt>
      <trkpt lat="41.585966" lon="1.916041">
        <ele>335.2</ele>
        <time>2020-08-13T03:06:07Z</time>
      </trkpt>
      <trkpt lat="41.585757" lon="1.916391">
        <ele>331.4</ele>
        <time>2020-08-13T03:06:08Z</time>
      </trkpt>
      <trkpt lat="41.585301" lon="1.917063">
        <ele>329.6</ele>
        <time>2020-08-13T03:06:11Z</time>
      </trkpt>
      <trkpt lat="41.584831" lon="1.917698">
        <ele>336.2</ele>
        <time>2020-08-13T03:06:14Z</time>
      </trkpt>
      <trkpt lat="41.58429" lon="1.918379">
        <ele>336.6</ele>
        <time>2020-08-13T03:06:17Z</time>
      </trkpt>
      <trkpt lat="41.583368" lon="1.919367">
        <ele>347.0</ele>
        <time>2020-08-13T03:06:22Z</time>
      </trkpt>
      <trkpt lat="41.582752" lon="1.919574">
        <ele>347.6</ele>
        <time>2020-08-13T03:06:25Z</time>
      </trkpt>
      <trkpt lat="41.582068" lon="1.919574">
        <ele>335.8</ele>
        <time>2020-08-13T03:06:28Z</time>
      </trkpt>
      <trkpt lat="41.580459" lon="1.919099">
        <ele>330.4</ele>
        <time>2020-08-13T03:06:35Z</time>
      </trkpt>
      <trkpt lat="41.578862" lon="1.918434">
        <ele>315.0</ele>
        <time>2020-08-13T03:06:43Z</time>
      </trkpt>
      <trkpt lat="41.578126" lon="1.91825">
        <ele>310.6</ele>
        <time>2020-08-13T03:06:46Z</time>
      </trkpt>
      <trkpt lat="41.577374" lon="1.918209">
        <ele>307.8</ele>
        <time>2020-08-13T03:06:49Z</time>
      </trkpt>
      <trkpt lat="41.576355" lon="1.918253">
        <ele>317.2</ele>
        <time>2020-08-13T03:06:54Z</time>
      </trkpt>
      <trkpt lat="41.575998" lon="1.91824">
        <ele>317.2</ele>
        <time>2020-08-13T03:06:55Z</time>
      </trkpt>
      <trkpt lat="41.575593" lon="1.91817">
        <ele>327.8</ele>
        <time>2020-08-13T03:06:57Z</time>
      </trkpt>
      <trkpt lat="41.57474" lon="1.91796">
        <ele>321.6</ele>
        <time>2020-08-13T03:07:01Z</time>
      </trkpt>
      <trkpt lat="41.574289" lon="1.917903">
        <ele>321.6</ele>
        <time>2020-08-13T03:07:03Z</time>
      </trkpt>
      <trkpt lat="41.573987" lon="1.917914">
        <ele>323.0</ele>
        <time>2020-08-13T03:07:04Z</time>
      </trkpt>
      <trkpt lat="41.573683" lon="1.917972">
        <ele>323.0</ele>
        <time>2020-08-13T03:07:05Z</time>
      </trkpt>
      <trkpt lat="41.573368" lon="1.918082">
        <ele>323.0</ele>
        <time>2020-08-13T03:07:07Z</time>
      </trkpt>
      <trkpt lat="41.573075" lon="1.918229">
        <ele>342.4</ele>
        <time>2020-08-13T03:07:08Z</time>
      </trkpt>
      <trkpt lat="41.572852" lon="1.918381">
        <ele>323.0</ele>
        <time>2020-08-13T03:07:10Z</time>
      </trkpt>
      <trkpt lat="41.572556" lon="1.918642">
        <ele>323.0</ele>
        <time>2020-08-13T03:07:11Z</time>
      </trkpt>
      <trkpt lat="41.572317" lon="1.918914">
        <ele>337.8</ele>
        <time>2020-08-13T03:07:13Z</time>
      </trkpt>
      <trkpt lat="41.571836" lon="1.919586">
        <ele>316.6</ele>
        <time>2020-08-13T03:07:16Z</time>
      </trkpt>
      <trkpt lat="41.570513" lon="1.921627">
        <ele>290.8</ele>
        <time>2020-08-13T03:07:25Z</time>
      </trkpt>
      <trkpt lat="41.570158" lon="1.922213">
        <ele>297.4</ele>
        <time>2020-08-13T03:07:27Z</time>
      </trkpt>
      <trkpt lat="41.569912" lon="1.922686">
        <ele>290.4</ele>
        <time>2020-08-13T03:07:29Z</time>
      </trkpt>
      <trkpt lat="41.569731" lon="1.923096">
        <ele>290.4</ele>
        <time>2020-08-13T03:07:31Z</time>
      </trkpt>
      <trkpt lat="41.569548" lon="1.923591">
        <ele>302.2</ele>
        <time>2020-08-13T03:07:33Z</time>
      </trkpt>
      <trkpt lat="41.56941" lon="1.92403">
        <ele>302.2</ele>
        <time>2020-08-13T03:07:34Z</time>
      </trkpt>
      <trkpt lat="41.569295" lon="1.924505">
        <ele>317.2</ele>
        <time>2020-08-13T03:07:36Z</time>
      </trkpt>
      <trkpt lat="41.569188" lon="1.925034">
        <ele>331.0</ele>
        <time>2020-08-13T03:07:38Z</time>
      </trkpt>
      <trkpt lat="41.569131" lon="1.925449">
        <ele>305.8</ele>
        <time>2020-08-13T03:07:39Z</time>
      </trkpt>
      <trkpt lat="41.569083" lon="1.926038">
        <ele>318.2</ele>
        <time>2020-08-13T03:07:41Z</time>
      </trkpt>
      <trkpt lat="41.569069" lon="1.926453">
        <ele>318.2</ele>
        <time>2020-08-13T03:07:43Z</time>
      </trkpt>
      <trkpt lat="41.569097" lon="1.927346">
        <ele>328.4</ele>
        <time>2020-08-13T03:07:46Z</time>
      </trkpt>
      <trkpt lat="41.569181" lon="1.928094">
        <ele>354.2</ele>
        <time>2020-08-13T03:07:48Z</time>
      </trkpt>
      <trkpt lat="41.569401" lon="1.92972">
        <ele>357.6</ele>
        <time>2020-08-13T03:07:54Z</time>
      </trkpt>
      <trkpt lat="41.569471" lon="1.930564">
        <ele>361.6</ele>
        <time>2020-08-13T03:07:56Z</time>
      </trkpt>
      <trkpt lat="41.569486" lon="1.931189">
        <ele>369.0</ele>
        <time>2020-08-13T03:07:59Z</time>
      </trkpt>
      <trkpt lat="41.569468" lon="1.93161">
        <ele>369.0</ele>
        <time>2020-08-13T03:08:00Z</time>
      </trkpt>
      <trkpt lat="41.569413" lon="1.93215">
        <ele>376.4</ele>
        <time>2020-08-13T03:08:02Z</time>
      </trkpt>
      <trkpt lat="41.569282" lon="1.932819">
        <ele>377.6</ele>
        <time>2020-08-13T03:08:04Z</time>
      </trkpt>
      <trkpt lat="41.569189" lon="1.933154">
        <ele>377.6</ele>
        <time>2020-08-13T03:08:05Z</time>
      </trkpt>
      <trkpt lat="41.569053" lon="1.933552">
        <ele>376.6</ele>
        <time>2020-08-13T03:08:07Z</time>
      </trkpt>
      <trkpt lat="41.568809" lon="1.93411">
        <ele>376.6</ele>
        <time>2020-08-13T03:08:09Z</time>
      </trkpt>
      <trkpt lat="41.568637" lon="1.934422">
        <ele>362.2</ele>
        <time>2020-08-13T03:08:10Z</time>
      </trkpt>
      <trkpt lat="41.568425" lon="1.934754">
        <ele>362.2</ele>
        <time>2020-08-13T03:08:11Z</time>
      </trkpt>
      <trkpt lat="41.568182" lon="1.935076">
        <ele>345.2</ele>
        <time>2020-08-13T03:08:13Z</time>
      </trkpt>
      <trkpt lat="41.567851" lon="1.935438">
        <ele>345.2</ele>
        <time>2020-08-13T03:08:15Z</time>
      </trkpt>
      <trkpt lat="41.567349" lon="1.935861">
        <ele>332.6</ele>
        <time>2020-08-13T03:08:18Z</time>
      </trkpt>
      <trkpt lat="41.566484" lon="1.936462">
        <ele>326.4</ele>
        <time>2020-08-13T03:08:22Z</time>
      </trkpt>
      <trkpt lat="41.566089" lon="1.936765">
        <ele>323.0</ele>
        <time>2020-08-13T03:08:24Z</time>
      </trkpt>
      <trkpt lat="41.565833" lon="1.937">
        <ele>315.2</ele>
        <time>2020-08-13T03:08:25Z</time>
      </trkpt>
      <trkpt lat="41.565589" lon="1.937265">
        <ele>315.2</ele>
        <time>2020-08-13T03:08:27Z</time>
      </trkpt>
      <trkpt lat="41.565275" lon="1.937704">
        <ele>316.0</ele>
        <time>2020-08-13T03:08:28Z</time>
      </trkpt>
      <trkpt lat="41.564996" lon="1.938219">
        <ele>305.2</ele>
        <time>2020-08-13T03:08:31Z</time>
      </trkpt>
      <trkpt lat="41.564784" lon="1.93878">
        <ele>307.6</ele>
        <time>2020-08-13T03:08:33Z</time>
      </trkpt>
      <trkpt lat="41.564677" lon="1.939171">
        <ele>310.0</ele>
        <time>2020-08-13T03:08:34Z</time>
      </trkpt>
      <trkpt lat="41.564569" lon="1.939785">
        <ele>310.0</ele>
        <time>2020-08-13T03:08:36Z</time>
      </trkpt>
      <trkpt lat="41.564537" lon="1.940209">
        <ele>305.6</ele>
        <time>2020-08-13T03:08:37Z</time>
      </trkpt>
      <trkpt lat="41.564535" lon="1.940616">
        <ele>305.6</ele>
        <time>2020-08-13T03:08:39Z</time>
      </trkpt>
      <trkpt lat="41.564562" lon="1.941062">
        <ele>297.8</ele>
        <time>2020-08-13T03:08:40Z</time>
      </trkpt>
      <trkpt lat="41.564607" lon="1.941472">
        <ele>297.8</ele>
        <time>2020-08-13T03:08:42Z</time>
      </trkpt>
      <trkpt lat="41.564695" lon="1.942045">
        <ele>294.2</ele>
        <time>2020-08-13T03:08:44Z</time>
      </trkpt>
      <trkpt lat="41.565204" lon="1.945004">
        <ele>310.0</ele>
        <time>2020-08-13T03:08:53Z</time>
      </trkpt>
      <trkpt lat="41.565466" lon="1.946853">
        <ele>301.0</ele>
        <time>2020-08-13T03:09:00Z</time>
      </trkpt>
      <trkpt lat="41.565643" lon="1.94857">
        <ele>292.4</ele>
        <time>2020-08-13T03:09:05Z</time>
      </trkpt>
      <trkpt lat="41.565731" lon="1.949756">
        <ele>290.6</ele>
        <time>2020-08-13T03:09:09Z</time>
      </trkpt>
      <trkpt lat="41.565761" lon="1.950419">
        <ele>289.0</ele>
        <time>2020-08-13T03:09:11Z</time>
      </trkpt>
      <trkpt lat="41.565762" lon="1.950766">
        <ele>289.0</ele>
        <time>2020-08-13T03:09:12Z</time>
      </trkpt>
      <trkpt lat="41.56573" lon="1.951483">
        <ele>285.0</ele>
        <time>2020-08-13T03:09:15Z</time>
      </trkpt>
      <trkpt lat="41.565654" lon="1.952053">
        <ele>283.6</ele>
        <time>2020-08-13T03:09:17Z</time>
      </trkpt>
      <trkpt lat="41.56555" lon="1.952561">
        <ele>290.2</ele>
        <time>2020-08-13T03:09:18Z</time>
      </trkpt>
      <trkpt lat="41.565427" lon="1.953027">
        <ele>290.2</ele>
        <time>2020-08-13T03:09:20Z</time>
      </trkpt>
      <trkpt lat="41.565323" lon="1.953337">
        <ele>297.6</ele>
        <time>2020-08-13T03:09:21Z</time>
      </trkpt>
      <trkpt lat="41.565123" lon="1.953824">
        <ele>297.6</ele>
        <time>2020-08-13T03:09:23Z</time>
      </trkpt>
      <trkpt lat="41.564919" lon="1.954248">
        <ele>298.8</ele>
        <time>2020-08-13T03:09:25Z</time>
      </trkpt>
      <trkpt lat="41.56372" lon="1.956405">
        <ele>304.8</ele>
        <time>2020-08-13T03:09:33Z</time>
      </trkpt>
      <trkpt lat="41.563536" lon="1.956804">
        <ele>299.2</ele>
        <time>2020-08-13T03:09:35Z</time>
      </trkpt>
      <trkpt lat="41.563397" lon="1.95715">
        <ele>299.2</ele>
        <time>2020-08-13T03:09:36Z</time>
      </trkpt>
      <trkpt lat="41.563277" lon="1.957537">
        <ele>288.8</ele>
        <time>2020-08-13T03:09:38Z</time>
      </trkpt>
      <trkpt lat="41.563176" lon="1.957943">
        <ele>288.8</ele>
        <time>2020-08-13T03:09:39Z</time>
      </trkpt>
      <trkpt lat="41.563069" lon="1.958672">
        <ele>283.6</ele>
        <time>2020-08-13T03:09:41Z</time>
      </trkpt>
      <trkpt lat="41.563047" lon="1.959183">
        <ele>281.8</ele>
        <time>2020-08-13T03:09:43Z</time>
      </trkpt>
      <trkpt lat="41.563058" lon="1.959607">
        <ele>281.8</ele>
        <time>2020-08-13T03:09:44Z</time>
      </trkpt>
      <trkpt lat="41.563203" lon="1.961142">
        <ele>278.0</ele>
        <time>2020-08-13T03:09:49Z</time>
      </trkpt>
      <trkpt lat="41.563238" lon="1.961905">
        <ele>279.4</ele>
        <time>2020-08-13T03:09:52Z</time>
      </trkpt>
      <trkpt lat="41.563228" lon="1.962304">
        <ele>279.4</ele>
        <time>2020-08-13T03:09:53Z</time>
      </trkpt>
      <trkpt lat="41.563197" lon="1.962703">
        <ele>281.0</ele>
        <time>2020-08-13T03:09:55Z</time>
      </trkpt>
      <trkpt lat="41.563139" lon="1.963153">
        <ele>281.0</ele>
        <time>2020-08-13T03:09:56Z</time>
      </trkpt>
      <trkpt lat="41.563053" lon="1.963601">
        <ele>281.2</ele>
        <time>2020-08-13T03:09:57Z</time>
      </trkpt>
      <trkpt lat="41.562963" lon="1.963968">
        <ele>281.2</ele>
        <time>2020-08-13T03:09:59Z</time>
      </trkpt>
      <trkpt lat="41.562843" lon="1.96436">
        <ele>281.2</ele>
        <time>2020-08-13T03:10:00Z</time>
      </trkpt>
      <trkpt lat="41.562686" lon="1.964777">
        <ele>281.2</ele>
        <time>2020-08-13T03:10:02Z</time>
      </trkpt>
      <trkpt lat="41.562386" lon="1.965405">
        <ele>282.2</ele>
        <time>2020-08-13T03:10:04Z</time>
      </trkpt>
      <trkpt lat="41.561973" lon="1.966064">
        <ele>281.8</ele>
        <time>2020-08-13T03:10:07Z</time>
      </trkpt>
      <trkpt lat="41.561839" lon="1.966233">
        <ele>281.8</ele>
        <time>2020-08-13T03:10:08Z</time>
      </trkpt>
      <trkpt lat="41.561188" lon="1.967165">
        <ele>280.4</ele>
        <time>2020-08-13T03:10:12Z</time>
      </trkpt>
      <trkpt lat="41.56072" lon="1.967992">
        <ele>273.0</ele>
        <time>2020-08-13T03:10:15Z</time>
      </trkpt>
      <trkpt lat="41.559806" lon="1.969929">
        <ele>258.0</ele>
        <time>2020-08-13T03:10:23Z</time>
      </trkpt>
      <trkpt lat="41.559399" lon="1.970705">
        <ele>259.4</ele>
        <time>2020-08-13T03:10:26Z</time>
      </trkpt>
      <trkpt lat="41.55883" lon="1.971635">
        <ele>251.2</ele>
        <time>2020-08-13T03:10:30Z</time>
      </trkpt>
      <trkpt lat="41.558447" lon="1.972179">
        <ele>246.2</ele>
        <time>2020-08-13T03:10:32Z</time>
      </trkpt>
      <trkpt lat="41.556822" lon="1.974317">
        <ele>253.4</ele>
        <time>2020-08-13T03:10:42Z</time>
      </trkpt>
      <trkpt lat="41.556461" lon="1.974829">
        <ele>256.2</ele>
        <time>2020-08-13T03:10:44Z</time>
      </trkpt>
      <trkpt lat="41.556226" lon="1.975209">
        <ele>255.0</ele>
        <time>2020-08-13T03:10:46Z</time>
      </trkpt>
      <trkpt lat="41.556003" lon="1.975594">
        <ele>255.0</ele>
        <time>2020-08-13T03:10:48Z</time>
      </trkpt>
      <trkpt lat="41.555798" lon="1.976011">
        <ele>248.8</ele>
        <time>2020-08-13T03:10:49Z</time>
      </trkpt>
      <trkpt lat="41.555603" lon="1.976452">
        <ele>248.8</ele>
        <time>2020-08-13T03:10:51Z</time>
      </trkpt>
      <trkpt lat="41.555431" lon="1.976902">
        <ele>250.8</ele>
        <time>2020-08-13T03:10:52Z</time>
      </trkpt>
      <trkpt lat="41.555278" lon="1.97736">
        <ele>250.8</ele>
        <time>2020-08-13T03:10:54Z</time>
      </trkpt>
      <trkpt lat="41.555076" lon="1.978074">
        <ele>257.2</ele>
        <time>2020-08-13T03:10:57Z</time>
      </trkpt>
      <trkpt lat="41.554932" lon="1.978797">
        <ele>267.2</ele>
        <time>2020-08-13T03:10:59Z</time>
      </trkpt>
      <trkpt lat="41.554864" lon="1.979239">
        <ele>272.4</ele>
        <time>2020-08-13T03:11:01Z</time>
      </trkpt>
      <trkpt lat="41.554778" lon="1.9801">
        <ele>274.0</ele>
        <time>2020-08-13T03:11:03Z</time>
      </trkpt>
      <trkpt lat="41.554716" lon="1.981216">
        <ele>273.6</ele>
        <time>2020-08-13T03:11:07Z</time>
      </trkpt>
      <trkpt lat="41.554727" lon="1.982394">
        <ele>275.6</ele>
        <time>2020-08-13T03:11:11Z</time>
      </trkpt>
      <trkpt lat="41.554773" lon="1.983116">
        <ele>279.8</ele>
        <time>2020-08-13T03:11:13Z</time>
      </trkpt>
      <trkpt lat="41.554851" lon="1.983907">
        <ele>284.6</ele>
        <time>2020-08-13T03:11:16Z</time>
      </trkpt>
      <trkpt lat="41.55496" lon="1.984773">
        <ele>288.0</ele>
        <time>2020-08-13T03:11:19Z</time>
      </trkpt>
      <trkpt lat="41.555145" lon="1.985643">
        <ele>287.4</ele>
        <time>2020-08-13T03:11:25Z</time>
      </trkpt>
      <trkpt lat="41.555178" lon="1.986008">
        <ele>289.0</ele>
        <time>2020-08-13T03:11:29Z</time>
      </trkpt>
      <trkpt lat="41.555289" lon="1.986619">
        <ele>289.0</ele>
        <time>2020-08-13T03:11:35Z</time>
      </trkpt>
      <trkpt lat="41.555391" lon="1.987391">
        <ele>292.4</ele>
        <time>2020-08-13T03:11:43Z</time>
      </trkpt>
      <trkpt lat="41.555425" lon="1.987769">
        <ele>296.2</ele>
        <time>2020-08-13T03:11:47Z</time>
      </trkpt>
      <trkpt lat="41.555452" lon="1.988413">
        <ele>298.0</ele>
        <time>2020-08-13T03:11:53Z</time>
      </trkpt>
      <trkpt lat="41.555432" lon="1.989204">
        <ele>299.0</ele>
        <time>2020-08-13T03:12:01Z</time>
      </trkpt>
      <trkpt lat="41.555367" lon="1.989961">
        <ele>299.0</ele>
        <time>2020-08-13T03:12:09Z</time>
      </trkpt>
      <trkpt lat="41.555276" lon="1.990622">
        <ele>298.6</ele>
        <time>2020-08-13T03:12:15Z</time>
      </trkpt>
      <trkpt lat="41.555279" lon="1.990726">
        <ele>298.6</ele>
        <time>2020-08-13T03:12:16Z</time>
      </trkpt>
      <trkpt lat="41.555144" lon="1.991777">
        <ele>291.0</ele>
        <time>2020-08-13T03:12:27Z</time>
      </trkpt>
      <trkpt lat="41.555178" lon="1.991909">
        <ele>291.0</ele>
        <time>2020-08-13T03:12:29Z</time>
      </trkpt>
      <trkpt lat="41.555221" lon="1.991961">
        <ele>291.0</ele>
        <time>2020-08-13T03:12:29Z</time>
      </trkpt>
      <trkpt lat="41.555277" lon="1.991993">
        <ele>291.0</ele>
        <time>2020-08-13T03:12:30Z</time>
      </trkpt>
      <trkpt lat="41.55564" lon="1.992088">
        <ele>291.0</ele>
        <time>2020-08-13T03:12:35Z</time>
      </trkpt>
      <trkpt lat="41.555706" lon="1.992159">
        <ele>291.0</ele>
        <time>2020-08-13T03:12:36Z</time>
      </trkpt>
      <trkpt lat="41.55577" lon="1.992348">
        <ele>291.0</ele>
        <time>2020-08-13T03:12:38Z</time>
      </trkpt>
      <trkpt lat="41.555805" lon="1.992951">
        <ele>288.2</ele>
        <time>2020-08-13T03:12:44Z</time>
      </trkpt>
      <trkpt lat="41.555903" lon="1.9934">
        <ele>281.2</ele>
        <time>2020-08-13T03:12:49Z</time>
      </trkpt>
      <trkpt lat="41.556026" lon="1.993995">
        <ele>281.2</ele>
        <time>2020-08-13T03:12:55Z</time>
      </trkpt>
      <trkpt lat="41.5557" lon="1.9963">
        <ele>280.4</ele>
        <time>2020-08-13T03:13:18Z</time>
      </trkpt>
      <trkpt lat="41.555577" lon="1.996974">
        <ele>274.4</ele>
        <time>2020-08-13T03:13:24Z</time>
      </trkpt>
      <trkpt lat="41.555024" lon="1.99933">
        <ele>265.4</ele>
        <time>2020-08-13T03:13:48Z</time>
      </trkpt>
      <trkpt lat="41.554988" lon="1.999585">
        <ele>268.2</ele>
        <time>2020-08-13T03:13:51Z</time>
      </trkpt>
      <trkpt lat="41.555114" lon="2.000278">
        <ele>264.0</ele>
        <time>2020-08-13T03:13:58Z</time>
      </trkpt>
      <trkpt lat="41.555108" lon="2.000419">
        <ele>264.0</ele>
        <time>2020-08-13T03:13:59Z</time>
      </trkpt>
      <trkpt lat="41.555074" lon="2.000519">
        <ele>264.0</ele>
        <time>2020-08-13T03:14:01Z</time>
      </trkpt>
      <trkpt lat="41.555006" lon="2.00064">
        <ele>264.0</ele>
        <time>2020-08-13T03:14:02Z</time>
      </trkpt>
      <trkpt lat="41.555012" lon="2.000762">
        <ele>264.0</ele>
        <time>2020-08-13T03:14:03Z</time>
      </trkpt>
      <trkpt lat="41.555035" lon="2.000821">
        <ele>264.0</ele>
        <time>2020-08-13T03:14:03Z</time>
      </trkpt>
      <trkpt lat="41.555245" lon="2.001142">
        <ele>264.2</ele>
        <time>2020-08-13T03:14:06Z</time>
      </trkpt>
      <trkpt lat="41.555396" lon="2.001239">
        <ele>264.2</ele>
        <time>2020-08-13T03:14:08Z</time>
      </trkpt>
      <trkpt lat="41.555513" lon="2.001418">
        <ele>264.2</ele>
        <time>2020-08-13T03:14:10Z</time>
      </trkpt>
      <trkpt lat="41.556392" lon="2.00522">
        <ele>267.2</ele>
        <time>2020-08-13T03:14:40Z</time>
      </trkpt>
      <trkpt lat="41.556701" lon="2.006423">
        <ele>269.8</ele>
        <time>2020-08-13T03:14:50Z</time>
      </trkpt>
      <trkpt lat="41.556703" lon="2.006584">
        <ele>269.8</ele>
        <time>2020-08-13T03:14:51Z</time>
      </trkpt>
      <trkpt lat="41.556785" lon="2.006986">
        <ele>270.2</ele>
        <time>2020-08-13T03:14:55Z</time>
      </trkpt>
      <trkpt lat="41.556754" lon="2.007188">
        <ele>270.2</ele>
        <time>2020-08-13T03:14:56Z</time>
      </trkpt>
      <trkpt lat="41.556715" lon="2.00722">
        <ele>270.2</ele>
        <time>2020-08-13T03:14:57Z</time>
      </trkpt>
      <trkpt lat="41.556681" lon="2.00728">
        <ele>270.2</ele>
        <time>2020-08-13T03:14:58Z</time>
      </trkpt>
      <trkpt lat="41.556672" lon="2.007412">
        <ele>270.2</ele>
        <time>2020-08-13T03:14:59Z</time>
      </trkpt>
      <trkpt lat="41.556705" lon="2.007489">
        <ele>270.2</ele>
        <time>2020-08-13T03:15:00Z</time>
      </trkpt>
      <trkpt lat="41.556773" lon="2.007541">
        <ele>269.0</ele>
        <time>2020-08-13T03:15:01Z</time>
      </trkpt>
      <trkpt lat="41.556829" lon="2.007544">
        <ele>269.0</ele>
        <time>2020-08-13T03:15:01Z</time>
      </trkpt>
      <trkpt lat="41.556891" lon="2.007508">
        <ele>269.0</ele>
        <time>2020-08-13T03:15:02Z</time>
      </trkpt>
      <trkpt lat="41.55693" lon="2.007446">
        <ele>270.2</ele>
        <time>2020-08-13T03:15:03Z</time>
      </trkpt>
      <trkpt lat="41.55703" lon="2.007406">
        <ele>270.2</ele>
        <time>2020-08-13T03:15:05Z</time>
      </trkpt>
      <trkpt lat="41.557367" lon="2.007435">
        <ele>270.2</ele>
        <time>2020-08-13T03:15:09Z</time>
      </trkpt>
      <trkpt lat="41.557391" lon="2.007406">
        <ele>270.2</ele>
        <time>2020-08-13T03:15:09Z</time>
      </trkpt>
      <trkpt lat="41.558337" lon="2.007491">
        <ele>271.2</ele>
        <time>2020-08-13T03:15:22Z</time>
      </trkpt>
      <trkpt lat="41.558367" lon="2.006288">
        <ele>273.2</ele>
        <time>2020-08-13T03:15:43Z</time>
      </trkpt>
      <trkpt lat="41.560471" lon="2.006359">
        <ele>277.0</ele>
        <time>2020-08-13T03:16:31Z</time>
      </trkpt>
      <trkpt lat="41.561208" lon="2.006409">
        <ele>280.4</ele>
        <time>2020-08-13T03:16:48Z</time>
      </trkpt>
      <trkpt lat="41.562437" lon="2.006448">
        <ele>282.8</ele>
        <time>2020-08-13T03:17:16Z</time>
      </trkpt>
      <trkpt lat="41.563348" lon="2.006508">
        <ele>289.0</ele>
        <time>2020-08-13T03:17:37Z</time>
      </trkpt>
      <trkpt lat="41.564157" lon="2.009694">
        <ele>292.7</ele>
        <time>2020-08-13T03:18:29Z</time>
      </trkpt>
    </trkseg>
  </trk>
</gpx>
